<?xml version="1.0" encoding="UTF-8"?><gpx xmlns="http://www.topografix.com/GPX/1/1" version="1.1" creator="Polar Flow"><metadata><author><name>Polar</name></author><time>2016-06-18T02:48:10.282Z</time></metadata><trk><trkseg><trkpt lat="58.53584833" lon="15.03846167"><ele>80.0</ele><time>2016-06-18T02:48:11.293Z</time></trkpt><trkpt lat="58.53584833" lon="15.03846167"><ele>80.0</ele><time>2016-06-18T02:48:12.312Z</time></trkpt><trkpt lat="58.53584833" lon="15.03846167"><ele>80.0</ele><time>2016-06-18T02:48:13.294Z</time></trkpt><trkpt lat="58.53584833" lon="15.03846167"><ele>80.0</ele><time>2016-06-18T02:48:14.312Z</time></trkpt><trkpt lat="58.53584833" lon="15.03846167"><ele>80.0</ele><time>2016-06-18T02:48:15.283Z</time></trkpt><trkpt lat="58.53586167" lon="15.03859167"><ele>92.0</ele><time>2016-06-18T02:48:16.289Z</time></trkpt><trkpt lat="58.53586167" lon="15.03859167"><ele>92.0</ele><time>2016-06-18T02:48:17.308Z</time></trkpt><trkpt lat="58.53583833" lon="15.03866333"><ele>91.0</ele><time>2016-06-18T02:48:18.284Z</time></trkpt><trkpt lat="58.53583833" lon="15.03866333"><ele>91.0</ele><time>2016-06-18T02:48:19.282Z</time></trkpt><trkpt lat="58.53581167" lon="15.03875667"><ele>92.0</ele><time>2016-06-18T02:48:20.289Z</time></trkpt><trkpt lat="58.53581167" lon="15.03875667"><ele>92.0</ele><time>2016-06-18T02:48:21.295Z</time></trkpt><trkpt lat="58.53578667" lon="15.03886"><ele>92.0</ele><time>2016-06-18T02:48:22.293Z</time></trkpt><trkpt lat="58.53578667" lon="15.03886"><ele>92.0</ele><time>2016-06-18T02:48:23.288Z</time></trkpt><trkpt lat="58.535755" lon="15.03896333"><ele>93.0</ele><time>2016-06-18T02:48:24.285Z</time></trkpt><trkpt lat="58.535755" lon="15.03896333"><ele>93.0</ele><time>2016-06-18T02:48:25.285Z</time></trkpt><trkpt lat="58.53570667" lon="15.03905"><ele>93.0</ele><time>2016-06-18T02:48:26.291Z</time></trkpt><trkpt lat="58.53570667" lon="15.03905"><ele>93.0</ele><time>2016-06-18T02:48:27.283Z</time></trkpt><trkpt lat="58.53564833" lon="15.03915667"><ele>92.0</ele><time>2016-06-18T02:48:28.285Z</time></trkpt><trkpt lat="58.53564833" lon="15.03915667"><ele>92.0</ele><time>2016-06-18T02:48:29.283Z</time></trkpt><trkpt lat="58.53561167" lon="15.03930167"><ele>91.0</ele><time>2016-06-18T02:48:30.286Z</time></trkpt><trkpt lat="58.53561167" lon="15.03930167"><ele>91.0</ele><time>2016-06-18T02:48:31.321Z</time></trkpt><trkpt lat="58.535555" lon="15.03945333"><ele>91.0</ele><time>2016-06-18T02:48:32.288Z</time></trkpt><trkpt lat="58.535555" lon="15.03945333"><ele>91.0</ele><time>2016-06-18T02:48:33.296Z</time></trkpt><trkpt lat="58.53548833" lon="15.03960833"><ele>91.0</ele><time>2016-06-18T02:48:34.294Z</time></trkpt><trkpt lat="58.535455" lon="15.03968167"><ele>91.0</ele><time>2016-06-18T02:48:35.288Z</time></trkpt><trkpt lat="58.535455" lon="15.03968167"><ele>91.0</ele><time>2016-06-18T02:48:36.284Z</time></trkpt><trkpt lat="58.53537833" lon="15.03982"><ele>91.0</ele><time>2016-06-18T02:48:37.285Z</time></trkpt><trkpt lat="58.53532833" lon="15.03988333"><ele>91.0</ele><time>2016-06-18T02:48:38.286Z</time></trkpt><trkpt lat="58.53532833" lon="15.03988333"><ele>91.0</ele><time>2016-06-18T02:48:39.284Z</time></trkpt><trkpt lat="58.53521333" lon="15.04002167"><ele>91.0</ele><time>2016-06-18T02:48:40.287Z</time></trkpt><trkpt lat="58.53521333" lon="15.04002167"><ele>91.0</ele><time>2016-06-18T02:48:41.288Z</time></trkpt><trkpt lat="58.53510667" lon="15.04014"><ele>92.0</ele><time>2016-06-18T02:48:42.286Z</time></trkpt><trkpt lat="58.53510667" lon="15.04014"><ele>92.0</ele><time>2016-06-18T02:48:43.290Z</time></trkpt><trkpt lat="58.53504" lon="15.04022833"><ele>92.0</ele><time>2016-06-18T02:48:44.287Z</time></trkpt><trkpt lat="58.53504" lon="15.04022833"><ele>92.0</ele><time>2016-06-18T02:48:45.284Z</time></trkpt><trkpt lat="58.53494833" lon="15.04042333"><ele>93.0</ele><time>2016-06-18T02:48:46.285Z</time></trkpt><trkpt lat="58.53494833" lon="15.04042333"><ele>93.0</ele><time>2016-06-18T02:48:47.283Z</time></trkpt><trkpt lat="58.53490833" lon="15.040675"><ele>93.0</ele><time>2016-06-18T02:48:48.286Z</time></trkpt><trkpt lat="58.53490833" lon="15.040675"><ele>93.0</ele><time>2016-06-18T02:48:49.285Z</time></trkpt><trkpt lat="58.53494333" lon="15.04090667"><ele>93.0</ele><time>2016-06-18T02:48:50.286Z</time></trkpt><trkpt lat="58.53494333" lon="15.04090667"><ele>93.0</ele><time>2016-06-18T02:48:51.285Z</time></trkpt><trkpt lat="58.53499333" lon="15.0411"><ele>92.0</ele><time>2016-06-18T02:48:52.285Z</time></trkpt><trkpt lat="58.53499333" lon="15.0411"><ele>92.0</ele><time>2016-06-18T02:48:53.291Z</time></trkpt><trkpt lat="58.53504167" lon="15.04123833"><ele>92.0</ele><time>2016-06-18T02:48:54.285Z</time></trkpt><trkpt lat="58.53504167" lon="15.04123833"><ele>92.0</ele><time>2016-06-18T02:48:55.286Z</time></trkpt><trkpt lat="58.53508167" lon="15.041395"><ele>92.0</ele><time>2016-06-18T02:48:56.291Z</time></trkpt><trkpt lat="58.53508167" lon="15.041395"><ele>92.0</ele><time>2016-06-18T02:48:57.284Z</time></trkpt><trkpt lat="58.53513" lon="15.041565"><ele>92.0</ele><time>2016-06-18T02:48:58.290Z</time></trkpt><trkpt lat="58.53513" lon="15.041565"><ele>92.0</ele><time>2016-06-18T02:48:59.289Z</time></trkpt><trkpt lat="58.53517667" lon="15.04173333"><ele>92.0</ele><time>2016-06-18T02:49:00.288Z</time></trkpt><trkpt lat="58.53517667" lon="15.04173333"><ele>92.0</ele><time>2016-06-18T02:49:01.290Z</time></trkpt><trkpt lat="58.53523833" lon="15.04192167"><ele>92.0</ele><time>2016-06-18T02:49:02.285Z</time></trkpt><trkpt lat="58.53523833" lon="15.04192167"><ele>92.0</ele><time>2016-06-18T02:49:03.284Z</time></trkpt><trkpt lat="58.53529667" lon="15.04210667"><ele>92.0</ele><time>2016-06-18T02:49:04.298Z</time></trkpt><trkpt lat="58.53529667" lon="15.04210667"><ele>92.0</ele><time>2016-06-18T02:49:05.290Z</time></trkpt><trkpt lat="58.53535" lon="15.04229"><ele>93.0</ele><time>2016-06-18T02:49:06.296Z</time></trkpt><trkpt lat="58.53535" lon="15.04229"><ele>93.0</ele><time>2016-06-18T02:49:07.283Z</time></trkpt><trkpt lat="58.535405" lon="15.04245833"><ele>93.0</ele><time>2016-06-18T02:49:08.285Z</time></trkpt><trkpt lat="58.535405" lon="15.04245833"><ele>93.0</ele><time>2016-06-18T02:49:09.284Z</time></trkpt><trkpt lat="58.53544667" lon="15.04262833"><ele>93.0</ele><time>2016-06-18T02:49:10.286Z</time></trkpt><trkpt lat="58.53544667" lon="15.04262833"><ele>93.0</ele><time>2016-06-18T02:49:11.316Z</time></trkpt><trkpt lat="58.535485" lon="15.04278833"><ele>93.0</ele><time>2016-06-18T02:49:12.286Z</time></trkpt><trkpt lat="58.535485" lon="15.04278833"><ele>93.0</ele><time>2016-06-18T02:49:13.298Z</time></trkpt><trkpt lat="58.53552333" lon="15.04294333"><ele>93.0</ele><time>2016-06-18T02:49:14.286Z</time></trkpt><trkpt lat="58.53552333" lon="15.04294333"><ele>93.0</ele><time>2016-06-18T02:49:15.290Z</time></trkpt><trkpt lat="58.53556167" lon="15.043115"><ele>93.0</ele><time>2016-06-18T02:49:16.297Z</time></trkpt><trkpt lat="58.53556167" lon="15.043115"><ele>93.0</ele><time>2016-06-18T02:49:17.290Z</time></trkpt><trkpt lat="58.53559833" lon="15.04328333"><ele>93.0</ele><time>2016-06-18T02:49:18.286Z</time></trkpt><trkpt lat="58.53561667" lon="15.04336833"><ele>93.0</ele><time>2016-06-18T02:49:19.289Z</time></trkpt><trkpt lat="58.53561667" lon="15.04336833"><ele>93.0</ele><time>2016-06-18T02:49:20.283Z</time></trkpt><trkpt lat="58.53566" lon="15.04354833"><ele>92.0</ele><time>2016-06-18T02:49:21.307Z</time></trkpt><trkpt lat="58.53566" lon="15.04354833"><ele>92.0</ele><time>2016-06-18T02:49:22.314Z</time></trkpt><trkpt lat="58.53569" lon="15.04373333"><ele>92.0</ele><time>2016-06-18T02:49:23.282Z</time></trkpt><trkpt lat="58.53569" lon="15.04373333"><ele>92.0</ele><time>2016-06-18T02:49:24.291Z</time></trkpt><trkpt lat="58.535705" lon="15.04392333"><ele>92.0</ele><time>2016-06-18T02:49:25.288Z</time></trkpt><trkpt lat="58.535705" lon="15.04392333"><ele>92.0</ele><time>2016-06-18T02:49:26.284Z</time></trkpt><trkpt lat="58.53568167" lon="15.0441"><ele>92.0</ele><time>2016-06-18T02:49:27.290Z</time></trkpt><trkpt lat="58.53568167" lon="15.0441"><ele>92.0</ele><time>2016-06-18T02:49:28.283Z</time></trkpt><trkpt lat="58.53561833" lon="15.044245"><ele>92.0</ele><time>2016-06-18T02:49:29.287Z</time></trkpt><trkpt lat="58.53561833" lon="15.044245"><ele>92.0</ele><time>2016-06-18T02:49:30.283Z</time></trkpt><trkpt lat="58.535525" lon="15.04433167"><ele>92.0</ele><time>2016-06-18T02:49:31.288Z</time></trkpt><trkpt lat="58.535525" lon="15.04433167"><ele>92.0</ele><time>2016-06-18T02:49:32.300Z</time></trkpt><trkpt lat="58.53542" lon="15.04434333"><ele>92.0</ele><time>2016-06-18T02:49:33.290Z</time></trkpt><trkpt lat="58.53542" lon="15.04434333"><ele>92.0</ele><time>2016-06-18T02:49:34.283Z</time></trkpt><trkpt lat="58.53531" lon="15.04433333"><ele>92.0</ele><time>2016-06-18T02:49:35.284Z</time></trkpt><trkpt lat="58.53531" lon="15.04433333"><ele>92.0</ele><time>2016-06-18T02:49:36.283Z</time></trkpt><trkpt lat="58.535195" lon="15.04431667"><ele>92.0</ele><time>2016-06-18T02:49:37.286Z</time></trkpt><trkpt lat="58.535195" lon="15.04431667"><ele>92.0</ele><time>2016-06-18T02:49:38.284Z</time></trkpt><trkpt lat="58.53507833" lon="15.04429167"><ele>92.0</ele><time>2016-06-18T02:49:39.286Z</time></trkpt><trkpt lat="58.53501833" lon="15.044275"><ele>92.0</ele><time>2016-06-18T02:49:40.291Z</time></trkpt><trkpt lat="58.53501833" lon="15.044275"><ele>92.0</ele><time>2016-06-18T02:49:41.284Z</time></trkpt><trkpt lat="58.53489333" lon="15.04424167"><ele>93.0</ele><time>2016-06-18T02:49:42.290Z</time></trkpt><trkpt lat="58.53489333" lon="15.04424167"><ele>93.0</ele><time>2016-06-18T02:49:43.289Z</time></trkpt><trkpt lat="58.534775" lon="15.04420333"><ele>93.0</ele><time>2016-06-18T02:49:44.291Z</time></trkpt><trkpt lat="58.53471833" lon="15.04418333"><ele>94.0</ele><time>2016-06-18T02:49:45.286Z</time></trkpt><trkpt lat="58.53471833" lon="15.04418333"><ele>94.0</ele><time>2016-06-18T02:49:46.292Z</time></trkpt><trkpt lat="58.53459833" lon="15.044135"><ele>93.0</ele><time>2016-06-18T02:49:47.290Z</time></trkpt><trkpt lat="58.53459833" lon="15.044135"><ele>93.0</ele><time>2016-06-18T02:49:48.287Z</time></trkpt><trkpt lat="58.534475" lon="15.04409167"><ele>93.0</ele><time>2016-06-18T02:49:49.287Z</time></trkpt><trkpt lat="58.534475" lon="15.04409167"><ele>93.0</ele><time>2016-06-18T02:49:50.284Z</time></trkpt><trkpt lat="58.53435" lon="15.04404333"><ele>93.0</ele><time>2016-06-18T02:49:51.283Z</time></trkpt><trkpt lat="58.534285" lon="15.04402167"><ele>93.0</ele><time>2016-06-18T02:49:52.287Z</time></trkpt><trkpt lat="58.534285" lon="15.04402167"><ele>93.0</ele><time>2016-06-18T02:49:53.284Z</time></trkpt><trkpt lat="58.534155" lon="15.04397667"><ele>92.0</ele><time>2016-06-18T02:49:54.295Z</time></trkpt><trkpt lat="58.534155" lon="15.04397667"><ele>92.0</ele><time>2016-06-18T02:49:55.285Z</time></trkpt><trkpt lat="58.53403333" lon="15.04393"><ele>92.0</ele><time>2016-06-18T02:49:56.294Z</time></trkpt><trkpt lat="58.53397667" lon="15.04391"><ele>92.0</ele><time>2016-06-18T02:49:57.289Z</time></trkpt><trkpt lat="58.53397667" lon="15.04391"><ele>92.0</ele><time>2016-06-18T02:49:58.283Z</time></trkpt><trkpt lat="58.53386" lon="15.043865"><ele>91.0</ele><time>2016-06-18T02:49:59.289Z</time></trkpt><trkpt lat="58.53386" lon="15.043865"><ele>91.0</ele><time>2016-06-18T02:50:00.297Z</time></trkpt><trkpt lat="58.53374" lon="15.04381667"><ele>90.0</ele><time>2016-06-18T02:50:01.287Z</time></trkpt><trkpt lat="58.53374" lon="15.04381667"><ele>90.0</ele><time>2016-06-18T02:50:02.283Z</time></trkpt><trkpt lat="58.53362167" lon="15.043775"><ele>90.0</ele><time>2016-06-18T02:50:03.292Z</time></trkpt><trkpt lat="58.53362167" lon="15.043775"><ele>90.0</ele><time>2016-06-18T02:50:04.285Z</time></trkpt><trkpt lat="58.533495" lon="15.04372833"><ele>89.0</ele><time>2016-06-18T02:50:05.288Z</time></trkpt><trkpt lat="58.53343" lon="15.04370167"><ele>89.0</ele><time>2016-06-18T02:50:06.287Z</time></trkpt><trkpt lat="58.53343" lon="15.04370167"><ele>89.0</ele><time>2016-06-18T02:50:07.285Z</time></trkpt><trkpt lat="58.53329667" lon="15.04364333"><ele>88.0</ele><time>2016-06-18T02:50:08.289Z</time></trkpt><trkpt lat="58.53329667" lon="15.04364333"><ele>88.0</ele><time>2016-06-18T02:50:09.284Z</time></trkpt><trkpt lat="58.53315833" lon="15.04359167"><ele>87.0</ele><time>2016-06-18T02:50:10.287Z</time></trkpt><trkpt lat="58.533085" lon="15.04356833"><ele>87.0</ele><time>2016-06-18T02:50:11.292Z</time></trkpt><trkpt lat="58.533085" lon="15.04356833"><ele>87.0</ele><time>2016-06-18T02:50:12.285Z</time></trkpt><trkpt lat="58.53293667" lon="15.04352167"><ele>86.0</ele><time>2016-06-18T02:50:13.287Z</time></trkpt><trkpt lat="58.53285667" lon="15.04350667"><ele>85.0</ele><time>2016-06-18T02:50:14.289Z</time></trkpt><trkpt lat="58.53285667" lon="15.04350667"><ele>85.0</ele><time>2016-06-18T02:50:15.284Z</time></trkpt><trkpt lat="58.53269833" lon="15.043505"><ele>84.0</ele><time>2016-06-18T02:50:16.288Z</time></trkpt><trkpt lat="58.53269833" lon="15.043505"><ele>84.0</ele><time>2016-06-18T02:50:17.284Z</time></trkpt><trkpt lat="58.53253833" lon="15.04356333"><ele>83.0</ele><time>2016-06-18T02:50:18.287Z</time></trkpt><trkpt lat="58.53253833" lon="15.04356333"><ele>83.0</ele><time>2016-06-18T02:50:19.284Z</time></trkpt><trkpt lat="58.53239833" lon="15.04368833"><ele>84.0</ele><time>2016-06-18T02:50:20.288Z</time></trkpt><trkpt lat="58.53239833" lon="15.04368833"><ele>84.0</ele><time>2016-06-18T02:50:21.284Z</time></trkpt><trkpt lat="58.53226667" lon="15.04385833"><ele>84.0</ele><time>2016-06-18T02:50:22.290Z</time></trkpt><trkpt lat="58.53226667" lon="15.04385833"><ele>84.0</ele><time>2016-06-18T02:50:23.290Z</time></trkpt><trkpt lat="58.532145" lon="15.04404167"><ele>84.0</ele><time>2016-06-18T02:50:24.288Z</time></trkpt><trkpt lat="58.532145" lon="15.04404167"><ele>84.0</ele><time>2016-06-18T02:50:25.284Z</time></trkpt><trkpt lat="58.532035" lon="15.044215"><ele>84.0</ele><time>2016-06-18T02:50:26.287Z</time></trkpt><trkpt lat="58.532035" lon="15.044215"><ele>84.0</ele><time>2016-06-18T02:50:27.284Z</time></trkpt><trkpt lat="58.53192667" lon="15.04439833"><ele>84.0</ele><time>2016-06-18T02:50:28.287Z</time></trkpt><trkpt lat="58.53192667" lon="15.04439833"><ele>84.0</ele><time>2016-06-18T02:50:29.284Z</time></trkpt><trkpt lat="58.531815" lon="15.04459167"><ele>85.0</ele><time>2016-06-18T02:50:30.289Z</time></trkpt><trkpt lat="58.531815" lon="15.04459167"><ele>85.0</ele><time>2016-06-18T02:50:31.284Z</time></trkpt><trkpt lat="58.53170333" lon="15.04478833"><ele>85.0</ele><time>2016-06-18T02:50:32.288Z</time></trkpt><trkpt lat="58.53170333" lon="15.04478833"><ele>85.0</ele><time>2016-06-18T02:50:33.293Z</time></trkpt><trkpt lat="58.53159833" lon="15.04498167"><ele>85.0</ele><time>2016-06-18T02:50:34.287Z</time></trkpt><trkpt lat="58.53155" lon="15.04507167"><ele>85.0</ele><time>2016-06-18T02:50:35.290Z</time></trkpt><trkpt lat="58.53155" lon="15.04507167"><ele>85.0</ele><time>2016-06-18T02:50:36.283Z</time></trkpt><trkpt lat="58.53145833" lon="15.04524333"><ele>85.0</ele><time>2016-06-18T02:50:37.288Z</time></trkpt><trkpt lat="58.53145833" lon="15.04524333"><ele>85.0</ele><time>2016-06-18T02:50:38.284Z</time></trkpt><trkpt lat="58.53136833" lon="15.045415"><ele>86.0</ele><time>2016-06-18T02:50:39.291Z</time></trkpt><trkpt lat="58.53132333" lon="15.04549833"><ele>86.0</ele><time>2016-06-18T02:50:40.285Z</time></trkpt><trkpt lat="58.53132333" lon="15.04549833"><ele>86.0</ele><time>2016-06-18T02:50:41.316Z</time></trkpt><trkpt lat="58.531235" lon="15.04566"><ele>86.0</ele><time>2016-06-18T02:50:42.310Z</time></trkpt><trkpt lat="58.53119" lon="15.04574"><ele>87.0</ele><time>2016-06-18T02:50:43.300Z</time></trkpt><trkpt lat="58.53119" lon="15.04574"><ele>87.0</ele><time>2016-06-18T02:50:44.295Z</time></trkpt><trkpt lat="58.53110167" lon="15.04589167"><ele>88.0</ele><time>2016-06-18T02:50:45.290Z</time></trkpt><trkpt lat="58.53105833" lon="15.04595833"><ele>89.0</ele><time>2016-06-18T02:50:46.286Z</time></trkpt><trkpt lat="58.53105833" lon="15.04595833"><ele>89.0</ele><time>2016-06-18T02:50:47.293Z</time></trkpt><trkpt lat="58.53096833" lon="15.04607"><ele>90.0</ele><time>2016-06-18T02:50:48.286Z</time></trkpt><trkpt lat="58.53096833" lon="15.04607"><ele>90.0</ele><time>2016-06-18T02:50:49.285Z</time></trkpt><trkpt lat="58.53087333" lon="15.046155"><ele>91.0</ele><time>2016-06-18T02:50:50.285Z</time></trkpt><trkpt lat="58.53087333" lon="15.046155"><ele>91.0</ele><time>2016-06-18T02:50:51.285Z</time></trkpt><trkpt lat="58.53077167" lon="15.04621333"><ele>92.0</ele><time>2016-06-18T02:50:52.285Z</time></trkpt><trkpt lat="58.53077167" lon="15.04621333"><ele>92.0</ele><time>2016-06-18T02:50:53.285Z</time></trkpt><trkpt lat="58.53065833" lon="15.04623667"><ele>91.0</ele><time>2016-06-18T02:50:54.285Z</time></trkpt><trkpt lat="58.53065833" lon="15.04623667"><ele>91.0</ele><time>2016-06-18T02:50:55.285Z</time></trkpt><trkpt lat="58.53055667" lon="15.04624167"><ele>91.0</ele><time>2016-06-18T02:50:56.288Z</time></trkpt><trkpt lat="58.53055667" lon="15.04624167"><ele>91.0</ele><time>2016-06-18T02:50:57.285Z</time></trkpt><trkpt lat="58.53045833" lon="15.04622667"><ele>91.0</ele><time>2016-06-18T02:50:58.288Z</time></trkpt><trkpt lat="58.53040833" lon="15.04620667"><ele>92.0</ele><time>2016-06-18T02:50:59.287Z</time></trkpt><trkpt lat="58.53040833" lon="15.04620667"><ele>92.0</ele><time>2016-06-18T02:51:00.299Z</time></trkpt><trkpt lat="58.53031667" lon="15.04615167"><ele>92.0</ele><time>2016-06-18T02:51:01.288Z</time></trkpt><trkpt lat="58.53027333" lon="15.04611167"><ele>93.0</ele><time>2016-06-18T02:51:02.287Z</time></trkpt><trkpt lat="58.53027333" lon="15.04611167"><ele>93.0</ele><time>2016-06-18T02:51:03.291Z</time></trkpt><trkpt lat="58.530185" lon="15.04601833"><ele>93.0</ele><time>2016-06-18T02:51:04.286Z</time></trkpt><trkpt lat="58.530185" lon="15.04601833"><ele>93.0</ele><time>2016-06-18T02:51:05.285Z</time></trkpt><trkpt lat="58.53010333" lon="15.04591333"><ele>93.0</ele><time>2016-06-18T02:51:06.286Z</time></trkpt><trkpt lat="58.53010333" lon="15.04591333"><ele>93.0</ele><time>2016-06-18T02:51:07.285Z</time></trkpt><trkpt lat="58.53003" lon="15.04578833"><ele>94.0</ele><time>2016-06-18T02:51:08.287Z</time></trkpt><trkpt lat="58.53003" lon="15.04578833"><ele>94.0</ele><time>2016-06-18T02:51:09.285Z</time></trkpt><trkpt lat="58.52995667" lon="15.04565167"><ele>94.0</ele><time>2016-06-18T02:51:10.290Z</time></trkpt><trkpt lat="58.52995667" lon="15.04565167"><ele>94.0</ele><time>2016-06-18T02:51:11.304Z</time></trkpt><trkpt lat="58.52988" lon="15.04550667"><ele>94.0</ele><time>2016-06-18T02:51:12.290Z</time></trkpt><trkpt lat="58.52988" lon="15.04550667"><ele>94.0</ele><time>2016-06-18T02:51:13.285Z</time></trkpt><trkpt lat="58.5298" lon="15.04534833"><ele>94.0</ele><time>2016-06-18T02:51:14.288Z</time></trkpt><trkpt lat="58.5298" lon="15.04534833"><ele>94.0</ele><time>2016-06-18T02:51:15.285Z</time></trkpt><trkpt lat="58.52971333" lon="15.04518833"><ele>94.0</ele><time>2016-06-18T02:51:16.288Z</time></trkpt><trkpt lat="58.52971333" lon="15.04518833"><ele>94.0</ele><time>2016-06-18T02:51:17.286Z</time></trkpt><trkpt lat="58.52962667" lon="15.04501167"><ele>94.0</ele><time>2016-06-18T02:51:18.287Z</time></trkpt><trkpt lat="58.52962667" lon="15.04501167"><ele>94.0</ele><time>2016-06-18T02:51:19.293Z</time></trkpt><trkpt lat="58.52953333" lon="15.044825"><ele>94.0</ele><time>2016-06-18T02:51:20.289Z</time></trkpt><trkpt lat="58.52953333" lon="15.044825"><ele>94.0</ele><time>2016-06-18T02:51:21.285Z</time></trkpt><trkpt lat="58.52943833" lon="15.04462667"><ele>94.0</ele><time>2016-06-18T02:51:22.288Z</time></trkpt><trkpt lat="58.52943833" lon="15.04462667"><ele>94.0</ele><time>2016-06-18T02:51:23.286Z</time></trkpt><trkpt lat="58.52934167" lon="15.04442333"><ele>94.0</ele><time>2016-06-18T02:51:24.290Z</time></trkpt><trkpt lat="58.52934167" lon="15.04442333"><ele>94.0</ele><time>2016-06-18T02:51:25.285Z</time></trkpt><trkpt lat="58.52923833" lon="15.044215"><ele>93.0</ele><time>2016-06-18T02:51:26.288Z</time></trkpt><trkpt lat="58.52923833" lon="15.044215"><ele>93.0</ele><time>2016-06-18T02:51:27.285Z</time></trkpt><trkpt lat="58.529135" lon="15.04400333"><ele>92.0</ele><time>2016-06-18T02:51:28.282Z</time></trkpt><trkpt lat="58.52908167" lon="15.04389333"><ele>92.0</ele><time>2016-06-18T02:51:29.286Z</time></trkpt><trkpt lat="58.52902833" lon="15.04378333"><ele>92.0</ele><time>2016-06-18T02:51:30.303Z</time></trkpt><trkpt lat="58.528975" lon="15.04366833"><ele>92.0</ele><time>2016-06-18T02:51:31.291Z</time></trkpt><trkpt lat="58.52892" lon="15.04355"><ele>92.0</ele><time>2016-06-18T02:51:32.290Z</time></trkpt><trkpt lat="58.52886333" lon="15.04343"><ele>92.0</ele><time>2016-06-18T02:51:33.304Z</time></trkpt><trkpt lat="58.52886333" lon="15.04343"><ele>92.0</ele><time>2016-06-18T02:51:34.291Z</time></trkpt><trkpt lat="58.52874333" lon="15.04317667"><ele>92.0</ele><time>2016-06-18T02:51:35.288Z</time></trkpt><trkpt lat="58.52874333" lon="15.04317667"><ele>92.0</ele><time>2016-06-18T02:51:36.290Z</time></trkpt><trkpt lat="58.52862667" lon="15.04289667"><ele>93.0</ele><time>2016-06-18T02:51:37.287Z</time></trkpt><trkpt lat="58.528575" lon="15.04274833"><ele>93.0</ele><time>2016-06-18T02:51:38.291Z</time></trkpt><trkpt lat="58.528575" lon="15.04274833"><ele>93.0</ele><time>2016-06-18T02:51:39.286Z</time></trkpt><trkpt lat="58.52848667" lon="15.04244333"><ele>93.0</ele><time>2016-06-18T02:51:40.290Z</time></trkpt><trkpt lat="58.52848667" lon="15.04244333"><ele>93.0</ele><time>2016-06-18T02:51:41.285Z</time></trkpt><trkpt lat="58.52840167" lon="15.04214667"><ele>94.0</ele><time>2016-06-18T02:51:42.291Z</time></trkpt><trkpt lat="58.52840167" lon="15.04214667"><ele>94.0</ele><time>2016-06-18T02:51:43.297Z</time></trkpt><trkpt lat="58.52832" lon="15.04185667"><ele>94.0</ele><time>2016-06-18T02:51:44.290Z</time></trkpt><trkpt lat="58.52832" lon="15.04185667"><ele>94.0</ele><time>2016-06-18T02:51:45.285Z</time></trkpt><trkpt lat="58.52824833" lon="15.041555"><ele>95.0</ele><time>2016-06-18T02:51:46.288Z</time></trkpt><trkpt lat="58.52824833" lon="15.041555"><ele>95.0</ele><time>2016-06-18T02:51:47.285Z</time></trkpt><trkpt lat="58.52817667" lon="15.04126167"><ele>96.0</ele><time>2016-06-18T02:51:48.288Z</time></trkpt><trkpt lat="58.52817667" lon="15.04126167"><ele>96.0</ele><time>2016-06-18T02:51:49.285Z</time></trkpt><trkpt lat="58.52810333" lon="15.04097833"><ele>96.0</ele><time>2016-06-18T02:51:50.288Z</time></trkpt><trkpt lat="58.52810333" lon="15.04097833"><ele>96.0</ele><time>2016-06-18T02:51:51.285Z</time></trkpt><trkpt lat="58.52803" lon="15.04070167"><ele>96.0</ele><time>2016-06-18T02:51:52.287Z</time></trkpt><trkpt lat="58.527995" lon="15.04057167"><ele>96.0</ele><time>2016-06-18T02:51:53.291Z</time></trkpt><trkpt lat="58.527995" lon="15.04057167"><ele>96.0</ele><time>2016-06-18T02:51:54.290Z</time></trkpt><trkpt lat="58.52792833" lon="15.04031667"><ele>96.0</ele><time>2016-06-18T02:51:55.290Z</time></trkpt><trkpt lat="58.5279" lon="15.040185"><ele>97.0</ele><time>2016-06-18T02:51:56.289Z</time></trkpt><trkpt lat="58.5279" lon="15.040185"><ele>97.0</ele><time>2016-06-18T02:51:57.285Z</time></trkpt><trkpt lat="58.52783833" lon="15.03991667"><ele>97.0</ele><time>2016-06-18T02:51:58.287Z</time></trkpt><trkpt lat="58.52783833" lon="15.03991667"><ele>97.0</ele><time>2016-06-18T02:51:59.285Z</time></trkpt><trkpt lat="58.52776833" lon="15.03965667"><ele>97.0</ele><time>2016-06-18T02:52:00.302Z</time></trkpt><trkpt lat="58.52776833" lon="15.03965667"><ele>97.0</ele><time>2016-06-18T02:52:01.292Z</time></trkpt><trkpt lat="58.52770167" lon="15.03938667"><ele>97.0</ele><time>2016-06-18T02:52:02.288Z</time></trkpt><trkpt lat="58.52770167" lon="15.03938667"><ele>97.0</ele><time>2016-06-18T02:52:03.285Z</time></trkpt><trkpt lat="58.52762833" lon="15.03911833"><ele>97.0</ele><time>2016-06-18T02:52:04.287Z</time></trkpt><trkpt lat="58.52759667" lon="15.038985"><ele>97.0</ele><time>2016-06-18T02:52:05.286Z</time></trkpt><trkpt lat="58.527565" lon="15.03885167"><ele>97.0</ele><time>2016-06-18T02:52:06.288Z</time></trkpt><trkpt lat="58.527565" lon="15.03885167"><ele>97.0</ele><time>2016-06-18T02:52:07.285Z</time></trkpt><trkpt lat="58.52749167" lon="15.03858333"><ele>97.0</ele><time>2016-06-18T02:52:08.288Z</time></trkpt><trkpt lat="58.52749167" lon="15.03858333"><ele>97.0</ele><time>2016-06-18T02:52:09.285Z</time></trkpt><trkpt lat="58.52741833" lon="15.03831667"><ele>97.0</ele><time>2016-06-18T02:52:10.287Z</time></trkpt><trkpt lat="58.52741833" lon="15.03831667"><ele>97.0</ele><time>2016-06-18T02:52:11.285Z</time></trkpt><trkpt lat="58.52734167" lon="15.03805333"><ele>97.0</ele><time>2016-06-18T02:52:12.288Z</time></trkpt><trkpt lat="58.52734167" lon="15.03805333"><ele>97.0</ele><time>2016-06-18T02:52:13.285Z</time></trkpt><trkpt lat="58.52727333" lon="15.03777833"><ele>98.0</ele><time>2016-06-18T02:52:14.288Z</time></trkpt><trkpt lat="58.52723833" lon="15.03764"><ele>98.0</ele><time>2016-06-18T02:52:15.289Z</time></trkpt><trkpt lat="58.52720333" lon="15.03750333"><ele>98.0</ele><time>2016-06-18T02:52:16.288Z</time></trkpt><trkpt lat="58.52720333" lon="15.03750333"><ele>98.0</ele><time>2016-06-18T02:52:17.285Z</time></trkpt><trkpt lat="58.527135" lon="15.03722833"><ele>98.0</ele><time>2016-06-18T02:52:18.286Z</time></trkpt><trkpt lat="58.527135" lon="15.03722833"><ele>98.0</ele><time>2016-06-18T02:52:19.285Z</time></trkpt><trkpt lat="58.52706" lon="15.03696"><ele>98.0</ele><time>2016-06-18T02:52:20.287Z</time></trkpt><trkpt lat="58.52706" lon="15.03696"><ele>98.0</ele><time>2016-06-18T02:52:21.285Z</time></trkpt><trkpt lat="58.52698667" lon="15.03667167"><ele>98.0</ele><time>2016-06-18T02:52:22.285Z</time></trkpt><trkpt lat="58.52698667" lon="15.03667167"><ele>98.0</ele><time>2016-06-18T02:52:23.290Z</time></trkpt><trkpt lat="58.52691333" lon="15.03639833"><ele>98.0</ele><time>2016-06-18T02:52:24.290Z</time></trkpt><trkpt lat="58.52687833" lon="15.03626333"><ele>98.0</ele><time>2016-06-18T02:52:25.287Z</time></trkpt><trkpt lat="58.52684167" lon="15.03613"><ele>99.0</ele><time>2016-06-18T02:52:26.290Z</time></trkpt><trkpt lat="58.526805" lon="15.03599167"><ele>99.0</ele><time>2016-06-18T02:52:27.289Z</time></trkpt><trkpt lat="58.526765" lon="15.03585667"><ele>99.0</ele><time>2016-06-18T02:52:28.287Z</time></trkpt><trkpt lat="58.526765" lon="15.03585667"><ele>99.0</ele><time>2016-06-18T02:52:29.297Z</time></trkpt><trkpt lat="58.52669833" lon="15.03559333"><ele>99.0</ele><time>2016-06-18T02:52:30.288Z</time></trkpt><trkpt lat="58.52669833" lon="15.03559333"><ele>99.0</ele><time>2016-06-18T02:52:31.285Z</time></trkpt><trkpt lat="58.52662833" lon="15.03533333"><ele>99.0</ele><time>2016-06-18T02:52:32.290Z</time></trkpt><trkpt lat="58.52662833" lon="15.03533333"><ele>99.0</ele><time>2016-06-18T02:52:33.286Z</time></trkpt><trkpt lat="58.52656167" lon="15.03506667"><ele>100.0</ele><time>2016-06-18T02:52:34.290Z</time></trkpt><trkpt lat="58.52656167" lon="15.03506667"><ele>100.0</ele><time>2016-06-18T02:52:35.285Z</time></trkpt><trkpt lat="58.52649" lon="15.034805"><ele>100.0</ele><time>2016-06-18T02:52:36.289Z</time></trkpt><trkpt lat="58.52649" lon="15.034805"><ele>100.0</ele><time>2016-06-18T02:52:37.285Z</time></trkpt><trkpt lat="58.526425" lon="15.03453667"><ele>100.0</ele><time>2016-06-18T02:52:38.288Z</time></trkpt><trkpt lat="58.526425" lon="15.03453667"><ele>100.0</ele><time>2016-06-18T02:52:39.285Z</time></trkpt><trkpt lat="58.52635833" lon="15.03426667"><ele>101.0</ele><time>2016-06-18T02:52:40.285Z</time></trkpt><trkpt lat="58.52635833" lon="15.03426667"><ele>101.0</ele><time>2016-06-18T02:52:41.285Z</time></trkpt><trkpt lat="58.52629" lon="15.03399167"><ele>101.0</ele><time>2016-06-18T02:52:42.288Z</time></trkpt><trkpt lat="58.52629" lon="15.03399167"><ele>101.0</ele><time>2016-06-18T02:52:43.285Z</time></trkpt><trkpt lat="58.52623" lon="15.03371333"><ele>101.0</ele><time>2016-06-18T02:52:44.288Z</time></trkpt><trkpt lat="58.52619833" lon="15.03357833"><ele>101.0</ele><time>2016-06-18T02:52:45.287Z</time></trkpt><trkpt lat="58.52617" lon="15.03344"><ele>102.0</ele><time>2016-06-18T02:52:46.289Z</time></trkpt><trkpt lat="58.52617" lon="15.03344"><ele>102.0</ele><time>2016-06-18T02:52:47.285Z</time></trkpt><trkpt lat="58.52610667" lon="15.03315"><ele>102.0</ele><time>2016-06-18T02:52:48.284Z</time></trkpt><trkpt lat="58.52610667" lon="15.03315"><ele>102.0</ele><time>2016-06-18T02:52:49.286Z</time></trkpt><trkpt lat="58.526045" lon="15.03285333"><ele>101.0</ele><time>2016-06-18T02:52:50.289Z</time></trkpt><trkpt lat="58.526045" lon="15.03285333"><ele>101.0</ele><time>2016-06-18T02:52:51.285Z</time></trkpt><trkpt lat="58.52597833" lon="15.03255667"><ele>101.0</ele><time>2016-06-18T02:52:52.288Z</time></trkpt><trkpt lat="58.52594333" lon="15.03240667"><ele>100.0</ele><time>2016-06-18T02:52:53.297Z</time></trkpt><trkpt lat="58.52594333" lon="15.03240667"><ele>100.0</ele><time>2016-06-18T02:52:54.285Z</time></trkpt><trkpt lat="58.52587333" lon="15.03207833"><ele>100.0</ele><time>2016-06-18T02:52:55.298Z</time></trkpt><trkpt lat="58.525835" lon="15.03190667"><ele>100.0</ele><time>2016-06-18T02:52:56.288Z</time></trkpt><trkpt lat="58.52579667" lon="15.031735"><ele>100.0</ele><time>2016-06-18T02:52:57.288Z</time></trkpt><trkpt lat="58.52579667" lon="15.031735"><ele>100.0</ele><time>2016-06-18T02:52:58.292Z</time></trkpt><trkpt lat="58.52572" lon="15.03139"><ele>99.0</ele><time>2016-06-18T02:52:59.288Z</time></trkpt><trkpt lat="58.52572" lon="15.03139"><ele>99.0</ele><time>2016-06-18T02:53:00.297Z</time></trkpt><trkpt lat="58.52564333" lon="15.03104667"><ele>98.0</ele><time>2016-06-18T02:53:01.288Z</time></trkpt><trkpt lat="58.52560667" lon="15.030875"><ele>98.0</ele><time>2016-06-18T02:53:02.286Z</time></trkpt><trkpt lat="58.52560667" lon="15.030875"><ele>98.0</ele><time>2016-06-18T02:53:03.285Z</time></trkpt><trkpt lat="58.52554" lon="15.03054667"><ele>98.0</ele><time>2016-06-18T02:53:04.286Z</time></trkpt><trkpt lat="58.52550333" lon="15.03039667"><ele>97.0</ele><time>2016-06-18T02:53:05.288Z</time></trkpt><trkpt lat="58.52550333" lon="15.03039667"><ele>97.0</ele><time>2016-06-18T02:53:06.285Z</time></trkpt><trkpt lat="58.52544" lon="15.03010667"><ele>97.0</ele><time>2016-06-18T02:53:07.284Z</time></trkpt><trkpt lat="58.52542" lon="15.02994667"><ele>97.0</ele><time>2016-06-18T02:53:08.289Z</time></trkpt><trkpt lat="58.52542" lon="15.02994667"><ele>97.0</ele><time>2016-06-18T02:53:09.285Z</time></trkpt><trkpt lat="58.52535167" lon="15.02965167"><ele>96.0</ele><time>2016-06-18T02:53:10.286Z</time></trkpt><trkpt lat="58.52535167" lon="15.02965167"><ele>96.0</ele><time>2016-06-18T02:53:11.301Z</time></trkpt><trkpt lat="58.52529667" lon="15.02934667"><ele>97.0</ele><time>2016-06-18T02:53:12.290Z</time></trkpt><trkpt lat="58.52529667" lon="15.02934667"><ele>97.0</ele><time>2016-06-18T02:53:13.285Z</time></trkpt><trkpt lat="58.52523" lon="15.02905667"><ele>97.0</ele><time>2016-06-18T02:53:14.288Z</time></trkpt><trkpt lat="58.525195" lon="15.02891667"><ele>97.0</ele><time>2016-06-18T02:53:15.288Z</time></trkpt><trkpt lat="58.52516167" lon="15.02877167"><ele>97.0</ele><time>2016-06-18T02:53:16.295Z</time></trkpt><trkpt lat="58.52516167" lon="15.02877167"><ele>97.0</ele><time>2016-06-18T02:53:17.286Z</time></trkpt><trkpt lat="58.525095" lon="15.02850167"><ele>97.0</ele><time>2016-06-18T02:53:18.288Z</time></trkpt><trkpt lat="58.525095" lon="15.02850167"><ele>97.0</ele><time>2016-06-18T02:53:19.285Z</time></trkpt><trkpt lat="58.52504" lon="15.028225"><ele>98.0</ele><time>2016-06-18T02:53:20.286Z</time></trkpt><trkpt lat="58.52504" lon="15.028225"><ele>98.0</ele><time>2016-06-18T02:53:21.290Z</time></trkpt><trkpt lat="58.52498333" lon="15.02795833"><ele>99.0</ele><time>2016-06-18T02:53:22.288Z</time></trkpt><trkpt lat="58.52498333" lon="15.02795833"><ele>99.0</ele><time>2016-06-18T02:53:23.286Z</time></trkpt><trkpt lat="58.52492333" lon="15.027695"><ele>99.0</ele><time>2016-06-18T02:53:24.288Z</time></trkpt><trkpt lat="58.52492333" lon="15.027695"><ele>99.0</ele><time>2016-06-18T02:53:25.286Z</time></trkpt><trkpt lat="58.52487167" lon="15.02743"><ele>100.0</ele><time>2016-06-18T02:53:26.288Z</time></trkpt><trkpt lat="58.52487167" lon="15.02743"><ele>100.0</ele><time>2016-06-18T02:53:27.285Z</time></trkpt><trkpt lat="58.52481833" lon="15.02716833"><ele>101.0</ele><time>2016-06-18T02:53:28.288Z</time></trkpt><trkpt lat="58.52481833" lon="15.02716833"><ele>101.0</ele><time>2016-06-18T02:53:29.286Z</time></trkpt><trkpt lat="58.52476167" lon="15.02690333"><ele>101.0</ele><time>2016-06-18T02:53:30.290Z</time></trkpt><trkpt lat="58.52476167" lon="15.02690333"><ele>101.0</ele><time>2016-06-18T02:53:31.286Z</time></trkpt><trkpt lat="58.524705" lon="15.02664"><ele>101.0</ele><time>2016-06-18T02:53:32.290Z</time></trkpt><trkpt lat="58.524705" lon="15.02664"><ele>101.0</ele><time>2016-06-18T02:53:33.285Z</time></trkpt><trkpt lat="58.52464833" lon="15.02637667"><ele>101.0</ele><time>2016-06-18T02:53:34.289Z</time></trkpt><trkpt lat="58.52462167" lon="15.02624167"><ele>102.0</ele><time>2016-06-18T02:53:35.289Z</time></trkpt><trkpt lat="58.52462167" lon="15.02624167"><ele>102.0</ele><time>2016-06-18T02:53:36.284Z</time></trkpt><trkpt lat="58.524565" lon="15.025975"><ele>102.0</ele><time>2016-06-18T02:53:37.287Z</time></trkpt><trkpt lat="58.52453333" lon="15.02584667"><ele>101.0</ele><time>2016-06-18T02:53:38.290Z</time></trkpt><trkpt lat="58.52453333" lon="15.02584667"><ele>101.0</ele><time>2016-06-18T02:53:39.286Z</time></trkpt><trkpt lat="58.52448667" lon="15.02557833"><ele>101.0</ele><time>2016-06-18T02:53:40.289Z</time></trkpt><trkpt lat="58.52448667" lon="15.02557833"><ele>101.0</ele><time>2016-06-18T02:53:41.286Z</time></trkpt><trkpt lat="58.52442667" lon="15.02532"><ele>100.0</ele><time>2016-06-18T02:53:42.288Z</time></trkpt><trkpt lat="58.52442667" lon="15.02532"><ele>100.0</ele><time>2016-06-18T02:53:43.285Z</time></trkpt><trkpt lat="58.52437167" lon="15.02505833"><ele>100.0</ele><time>2016-06-18T02:53:44.291Z</time></trkpt><trkpt lat="58.52437167" lon="15.02505833"><ele>100.0</ele><time>2016-06-18T02:53:45.286Z</time></trkpt><trkpt lat="58.52431833" lon="15.02479833"><ele>101.0</ele><time>2016-06-18T02:53:46.290Z</time></trkpt><trkpt lat="58.52431833" lon="15.02479833"><ele>101.0</ele><time>2016-06-18T02:53:47.286Z</time></trkpt><trkpt lat="58.52426167" lon="15.02453667"><ele>101.0</ele><time>2016-06-18T02:53:48.288Z</time></trkpt><trkpt lat="58.52426167" lon="15.02453667"><ele>101.0</ele><time>2016-06-18T02:53:49.286Z</time></trkpt><trkpt lat="58.52420667" lon="15.024275"><ele>101.0</ele><time>2016-06-18T02:53:50.290Z</time></trkpt><trkpt lat="58.52420667" lon="15.024275"><ele>101.0</ele><time>2016-06-18T02:53:51.286Z</time></trkpt><trkpt lat="58.52415" lon="15.02401333"><ele>101.0</ele><time>2016-06-18T02:53:52.289Z</time></trkpt><trkpt lat="58.52415" lon="15.02401333"><ele>101.0</ele><time>2016-06-18T02:53:53.286Z</time></trkpt><trkpt lat="58.524095" lon="15.023755"><ele>101.0</ele><time>2016-06-18T02:53:54.288Z</time></trkpt><trkpt lat="58.524095" lon="15.023755"><ele>101.0</ele><time>2016-06-18T02:53:55.286Z</time></trkpt><trkpt lat="58.52403833" lon="15.02349667"><ele>101.0</ele><time>2016-06-18T02:53:56.290Z</time></trkpt><trkpt lat="58.52403833" lon="15.02349667"><ele>101.0</ele><time>2016-06-18T02:53:57.286Z</time></trkpt><trkpt lat="58.52398333" lon="15.02323167"><ele>101.0</ele><time>2016-06-18T02:53:58.288Z</time></trkpt><trkpt lat="58.52395333" lon="15.02309833"><ele>101.0</ele><time>2016-06-18T02:53:59.288Z</time></trkpt><trkpt lat="58.52395333" lon="15.02309833"><ele>101.0</ele><time>2016-06-18T02:54:00.304Z</time></trkpt><trkpt lat="58.5239" lon="15.02282833"><ele>102.0</ele><time>2016-06-18T02:54:01.291Z</time></trkpt><trkpt lat="58.52387333" lon="15.022695"><ele>102.0</ele><time>2016-06-18T02:54:02.290Z</time></trkpt><trkpt lat="58.52387333" lon="15.022695"><ele>102.0</ele><time>2016-06-18T02:54:03.286Z</time></trkpt><trkpt lat="58.52382" lon="15.022425"><ele>102.0</ele><time>2016-06-18T02:54:04.287Z</time></trkpt><trkpt lat="58.52382" lon="15.022425"><ele>102.0</ele><time>2016-06-18T02:54:05.289Z</time></trkpt><trkpt lat="58.52376333" lon="15.02215167"><ele>102.0</ele><time>2016-06-18T02:54:06.297Z</time></trkpt><trkpt lat="58.523735" lon="15.02201667"><ele>102.0</ele><time>2016-06-18T02:54:07.319Z</time></trkpt><trkpt lat="58.523735" lon="15.02201667"><ele>102.0</ele><time>2016-06-18T02:54:08.287Z</time></trkpt><trkpt lat="58.52367167" lon="15.021745"><ele>101.0</ele><time>2016-06-18T02:54:09.288Z</time></trkpt><trkpt lat="58.52364167" lon="15.021605"><ele>101.0</ele><time>2016-06-18T02:54:10.288Z</time></trkpt><trkpt lat="58.52364167" lon="15.021605"><ele>101.0</ele><time>2016-06-18T02:54:11.290Z</time></trkpt><trkpt lat="58.52358167" lon="15.021335"><ele>100.0</ele><time>2016-06-18T02:54:12.289Z</time></trkpt><trkpt lat="58.52355333" lon="15.02119833"><ele>100.0</ele><time>2016-06-18T02:54:13.289Z</time></trkpt><trkpt lat="58.52355333" lon="15.02119833"><ele>100.0</ele><time>2016-06-18T02:54:14.290Z</time></trkpt><trkpt lat="58.523495" lon="15.02092667"><ele>100.0</ele><time>2016-06-18T02:54:15.288Z</time></trkpt><trkpt lat="58.52346333" lon="15.02079167"><ele>100.0</ele><time>2016-06-18T02:54:16.286Z</time></trkpt><trkpt lat="58.52346333" lon="15.02079167"><ele>100.0</ele><time>2016-06-18T02:54:17.286Z</time></trkpt><trkpt lat="58.523405" lon="15.02051667"><ele>100.0</ele><time>2016-06-18T02:54:18.289Z</time></trkpt><trkpt lat="58.523405" lon="15.02051667"><ele>100.0</ele><time>2016-06-18T02:54:19.287Z</time></trkpt><trkpt lat="58.52334667" lon="15.020245"><ele>100.0</ele><time>2016-06-18T02:54:20.290Z</time></trkpt><trkpt lat="58.52334667" lon="15.020245"><ele>100.0</ele><time>2016-06-18T02:54:21.286Z</time></trkpt><trkpt lat="58.523285" lon="15.01998667"><ele>100.0</ele><time>2016-06-18T02:54:22.288Z</time></trkpt><trkpt lat="58.523285" lon="15.01998667"><ele>100.0</ele><time>2016-06-18T02:54:23.285Z</time></trkpt><trkpt lat="58.52322667" lon="15.01972833"><ele>100.0</ele><time>2016-06-18T02:54:24.288Z</time></trkpt><trkpt lat="58.52322667" lon="15.01972833"><ele>100.0</ele><time>2016-06-18T02:54:25.290Z</time></trkpt><trkpt lat="58.52317333" lon="15.019485"><ele>100.0</ele><time>2016-06-18T02:54:26.290Z</time></trkpt><trkpt lat="58.52317333" lon="15.019485"><ele>100.0</ele><time>2016-06-18T02:54:27.287Z</time></trkpt><trkpt lat="58.52312" lon="15.01924833"><ele>101.0</ele><time>2016-06-18T02:54:28.298Z</time></trkpt><trkpt lat="58.5231" lon="15.01913333"><ele>101.0</ele><time>2016-06-18T02:54:29.289Z</time></trkpt><trkpt lat="58.52307333" lon="15.019025"><ele>101.0</ele><time>2016-06-18T02:54:30.288Z</time></trkpt><trkpt lat="58.52307333" lon="15.019025"><ele>101.0</ele><time>2016-06-18T02:54:31.286Z</time></trkpt><trkpt lat="58.52302167" lon="15.01881167"><ele>101.0</ele><time>2016-06-18T02:54:32.290Z</time></trkpt><trkpt lat="58.52302167" lon="15.01881167"><ele>101.0</ele><time>2016-06-18T02:54:33.299Z</time></trkpt><trkpt lat="58.522965" lon="15.01859667"><ele>101.0</ele><time>2016-06-18T02:54:34.288Z</time></trkpt><trkpt lat="58.522965" lon="15.01859667"><ele>101.0</ele><time>2016-06-18T02:54:35.286Z</time></trkpt><trkpt lat="58.52290833" lon="15.01838333"><ele>102.0</ele><time>2016-06-18T02:54:36.287Z</time></trkpt><trkpt lat="58.52290833" lon="15.01838333"><ele>102.0</ele><time>2016-06-18T02:54:37.286Z</time></trkpt><trkpt lat="58.52284333" lon="15.01818167"><ele>103.0</ele><time>2016-06-18T02:54:38.290Z</time></trkpt><trkpt lat="58.52284333" lon="15.01818167"><ele>103.0</ele><time>2016-06-18T02:54:39.286Z</time></trkpt><trkpt lat="58.52276" lon="15.018005"><ele>103.0</ele><time>2016-06-18T02:54:40.291Z</time></trkpt><trkpt lat="58.52276" lon="15.018005"><ele>103.0</ele><time>2016-06-18T02:54:41.286Z</time></trkpt><trkpt lat="58.52265333" lon="15.01787833"><ele>103.0</ele><time>2016-06-18T02:54:42.288Z</time></trkpt><trkpt lat="58.52265333" lon="15.01787833"><ele>103.0</ele><time>2016-06-18T02:54:43.287Z</time></trkpt><trkpt lat="58.52253" lon="15.017775"><ele>103.0</ele><time>2016-06-18T02:54:44.290Z</time></trkpt><trkpt lat="58.52253" lon="15.017775"><ele>103.0</ele><time>2016-06-18T02:54:45.286Z</time></trkpt><trkpt lat="58.522415" lon="15.017615"><ele>103.0</ele><time>2016-06-18T02:54:46.288Z</time></trkpt><trkpt lat="58.522415" lon="15.017615"><ele>103.0</ele><time>2016-06-18T02:54:47.286Z</time></trkpt><trkpt lat="58.52231667" lon="15.01743333"><ele>104.0</ele><time>2016-06-18T02:54:48.288Z</time></trkpt><trkpt lat="58.52231667" lon="15.01743333"><ele>104.0</ele><time>2016-06-18T02:54:49.286Z</time></trkpt><trkpt lat="58.52221833" lon="15.017255"><ele>105.0</ele><time>2016-06-18T02:54:50.290Z</time></trkpt><trkpt lat="58.52221833" lon="15.017255"><ele>105.0</ele><time>2016-06-18T02:54:51.286Z</time></trkpt><trkpt lat="58.52212" lon="15.01707833"><ele>105.0</ele><time>2016-06-18T02:54:52.286Z</time></trkpt><trkpt lat="58.52212" lon="15.01707833"><ele>105.0</ele><time>2016-06-18T02:54:53.286Z</time></trkpt><trkpt lat="58.52202167" lon="15.01690333"><ele>106.0</ele><time>2016-06-18T02:54:54.299Z</time></trkpt><trkpt lat="58.52202167" lon="15.01690333"><ele>106.0</ele><time>2016-06-18T02:54:55.287Z</time></trkpt><trkpt lat="58.52192" lon="15.01672833"><ele>107.0</ele><time>2016-06-18T02:54:56.290Z</time></trkpt><trkpt lat="58.52192" lon="15.01672833"><ele>107.0</ele><time>2016-06-18T02:54:57.286Z</time></trkpt><trkpt lat="58.52180333" lon="15.01654"><ele>106.0</ele><time>2016-06-18T02:54:58.290Z</time></trkpt><trkpt lat="58.52180333" lon="15.01654"><ele>106.0</ele><time>2016-06-18T02:54:59.290Z</time></trkpt><trkpt lat="58.521685" lon="15.01634667"><ele>106.0</ele><time>2016-06-18T02:55:00.300Z</time></trkpt><trkpt lat="58.521685" lon="15.01634667"><ele>106.0</ele><time>2016-06-18T02:55:01.288Z</time></trkpt><trkpt lat="58.52156333" lon="15.01615"><ele>105.0</ele><time>2016-06-18T02:55:02.290Z</time></trkpt><trkpt lat="58.52156333" lon="15.01615"><ele>105.0</ele><time>2016-06-18T02:55:03.287Z</time></trkpt><trkpt lat="58.52144167" lon="15.01595167"><ele>106.0</ele><time>2016-06-18T02:55:04.289Z</time></trkpt><trkpt lat="58.52144167" lon="15.01595167"><ele>106.0</ele><time>2016-06-18T02:55:05.287Z</time></trkpt><trkpt lat="58.52132167" lon="15.01575667"><ele>106.0</ele><time>2016-06-18T02:55:06.288Z</time></trkpt><trkpt lat="58.52132167" lon="15.01575667"><ele>106.0</ele><time>2016-06-18T02:55:07.287Z</time></trkpt><trkpt lat="58.52120333" lon="15.01556167"><ele>106.0</ele><time>2016-06-18T02:55:08.291Z</time></trkpt><trkpt lat="58.52120333" lon="15.01556167"><ele>106.0</ele><time>2016-06-18T02:55:09.287Z</time></trkpt><trkpt lat="58.52108833" lon="15.01537667"><ele>106.0</ele><time>2016-06-18T02:55:10.286Z</time></trkpt><trkpt lat="58.52108833" lon="15.01537667"><ele>106.0</ele><time>2016-06-18T02:55:11.300Z</time></trkpt><trkpt lat="58.520975" lon="15.015205"><ele>106.0</ele><time>2016-06-18T02:55:12.290Z</time></trkpt><trkpt lat="58.520975" lon="15.015205"><ele>106.0</ele><time>2016-06-18T02:55:13.286Z</time></trkpt><trkpt lat="58.52085333" lon="15.01505167"><ele>106.0</ele><time>2016-06-18T02:55:14.290Z</time></trkpt><trkpt lat="58.52085333" lon="15.01505167"><ele>106.0</ele><time>2016-06-18T02:55:15.307Z</time></trkpt><trkpt lat="58.52073167" lon="15.01490833"><ele>106.0</ele><time>2016-06-18T02:55:16.287Z</time></trkpt><trkpt lat="58.52073167" lon="15.01490833"><ele>106.0</ele><time>2016-06-18T02:55:17.287Z</time></trkpt><trkpt lat="58.52061" lon="15.01477"><ele>106.0</ele><time>2016-06-18T02:55:18.290Z</time></trkpt><trkpt lat="58.52061" lon="15.01477"><ele>106.0</ele><time>2016-06-18T02:55:19.287Z</time></trkpt><trkpt lat="58.52048" lon="15.014645"><ele>107.0</ele><time>2016-06-18T02:55:20.294Z</time></trkpt><trkpt lat="58.52048" lon="15.014645"><ele>107.0</ele><time>2016-06-18T02:55:21.287Z</time></trkpt><trkpt lat="58.52034167" lon="15.01454167"><ele>107.0</ele><time>2016-06-18T02:55:22.290Z</time></trkpt><trkpt lat="58.52034167" lon="15.01454167"><ele>107.0</ele><time>2016-06-18T02:55:23.287Z</time></trkpt><trkpt lat="58.52019833" lon="15.01444667"><ele>107.0</ele><time>2016-06-18T02:55:24.289Z</time></trkpt><trkpt lat="58.52019833" lon="15.01444667"><ele>107.0</ele><time>2016-06-18T02:55:25.287Z</time></trkpt><trkpt lat="58.52005167" lon="15.014365"><ele>107.0</ele><time>2016-06-18T02:55:26.306Z</time></trkpt><trkpt lat="58.52005167" lon="15.014365"><ele>107.0</ele><time>2016-06-18T02:55:27.293Z</time></trkpt><trkpt lat="58.51990333" lon="15.01428667"><ele>107.0</ele><time>2016-06-18T02:55:28.303Z</time></trkpt><trkpt lat="58.51990333" lon="15.01428667"><ele>107.0</ele><time>2016-06-18T02:55:29.290Z</time></trkpt><trkpt lat="58.51974833" lon="15.01421167"><ele>106.0</ele><time>2016-06-18T02:55:30.287Z</time></trkpt><trkpt lat="58.51974833" lon="15.01421167"><ele>106.0</ele><time>2016-06-18T02:55:31.287Z</time></trkpt><trkpt lat="58.51958333" lon="15.01414333"><ele>106.0</ele><time>2016-06-18T02:55:32.290Z</time></trkpt><trkpt lat="58.51958333" lon="15.01414333"><ele>106.0</ele><time>2016-06-18T02:55:33.302Z</time></trkpt><trkpt lat="58.51941333" lon="15.01407833"><ele>106.0</ele><time>2016-06-18T02:55:34.289Z</time></trkpt><trkpt lat="58.51932833" lon="15.01404833"><ele>106.0</ele><time>2016-06-18T02:55:35.289Z</time></trkpt><trkpt lat="58.51932833" lon="15.01404833"><ele>106.0</ele><time>2016-06-18T02:55:36.287Z</time></trkpt><trkpt lat="58.51915833" lon="15.01399833"><ele>105.0</ele><time>2016-06-18T02:55:37.290Z</time></trkpt><trkpt lat="58.519075" lon="15.013975"><ele>105.0</ele><time>2016-06-18T02:55:38.290Z</time></trkpt><trkpt lat="58.51899333" lon="15.01395333"><ele>105.0</ele><time>2016-06-18T02:55:39.290Z</time></trkpt><trkpt lat="58.51899333" lon="15.01395333"><ele>105.0</ele><time>2016-06-18T02:55:40.286Z</time></trkpt><trkpt lat="58.518825" lon="15.01392"><ele>105.0</ele><time>2016-06-18T02:55:41.299Z</time></trkpt><trkpt lat="58.518825" lon="15.01392"><ele>105.0</ele><time>2016-06-18T02:55:42.292Z</time></trkpt><trkpt lat="58.51866" lon="15.0139"><ele>105.0</ele><time>2016-06-18T02:55:43.290Z</time></trkpt><trkpt lat="58.51857833" lon="15.013895"><ele>105.0</ele><time>2016-06-18T02:55:44.291Z</time></trkpt><trkpt lat="58.51857833" lon="15.013895"><ele>105.0</ele><time>2016-06-18T02:55:45.287Z</time></trkpt><trkpt lat="58.518415" lon="15.01389667"><ele>105.0</ele><time>2016-06-18T02:55:46.296Z</time></trkpt><trkpt lat="58.518415" lon="15.01389667"><ele>105.0</ele><time>2016-06-18T02:55:47.287Z</time></trkpt><trkpt lat="58.51825333" lon="15.013905"><ele>105.0</ele><time>2016-06-18T02:55:48.289Z</time></trkpt><trkpt lat="58.51825333" lon="15.013905"><ele>105.0</ele><time>2016-06-18T02:55:49.287Z</time></trkpt><trkpt lat="58.518095" lon="15.01392333"><ele>105.0</ele><time>2016-06-18T02:55:50.290Z</time></trkpt><trkpt lat="58.518095" lon="15.01392333"><ele>105.0</ele><time>2016-06-18T02:55:51.287Z</time></trkpt><trkpt lat="58.51793667" lon="15.013945"><ele>105.0</ele><time>2016-06-18T02:55:52.290Z</time></trkpt><trkpt lat="58.51793667" lon="15.013945"><ele>105.0</ele><time>2016-06-18T02:55:53.298Z</time></trkpt><trkpt lat="58.51778" lon="15.01397333"><ele>105.0</ele><time>2016-06-18T02:55:54.290Z</time></trkpt><trkpt lat="58.51770167" lon="15.013985"><ele>105.0</ele><time>2016-06-18T02:55:55.290Z</time></trkpt><trkpt lat="58.51770167" lon="15.013985"><ele>105.0</ele><time>2016-06-18T02:55:56.288Z</time></trkpt><trkpt lat="58.517545" lon="15.01402167"><ele>105.0</ele><time>2016-06-18T02:55:57.311Z</time></trkpt><trkpt lat="58.517545" lon="15.01402167"><ele>105.0</ele><time>2016-06-18T02:55:58.290Z</time></trkpt><trkpt lat="58.51738833" lon="15.01408"><ele>106.0</ele><time>2016-06-18T02:55:59.289Z</time></trkpt><trkpt lat="58.51731" lon="15.01411333"><ele>106.0</ele><time>2016-06-18T02:56:00.297Z</time></trkpt><trkpt lat="58.51731" lon="15.01411333"><ele>106.0</ele><time>2016-06-18T02:56:01.287Z</time></trkpt><trkpt lat="58.51715333" lon="15.01419"><ele>106.0</ele><time>2016-06-18T02:56:02.291Z</time></trkpt><trkpt lat="58.51715333" lon="15.01419"><ele>106.0</ele><time>2016-06-18T02:56:03.286Z</time></trkpt><trkpt lat="58.51699667" lon="15.014265"><ele>106.0</ele><time>2016-06-18T02:56:04.290Z</time></trkpt><trkpt lat="58.51699667" lon="15.014265"><ele>106.0</ele><time>2016-06-18T02:56:05.287Z</time></trkpt><trkpt lat="58.51684" lon="15.01434833"><ele>106.0</ele><time>2016-06-18T02:56:06.286Z</time></trkpt><trkpt lat="58.51676333" lon="15.014395"><ele>106.0</ele><time>2016-06-18T02:56:07.301Z</time></trkpt><trkpt lat="58.51668667" lon="15.01444333"><ele>106.0</ele><time>2016-06-18T02:56:08.289Z</time></trkpt><trkpt lat="58.51668667" lon="15.01444333"><ele>106.0</ele><time>2016-06-18T02:56:09.288Z</time></trkpt><trkpt lat="58.51654167" lon="15.01455167"><ele>107.0</ele><time>2016-06-18T02:56:10.290Z</time></trkpt><trkpt lat="58.51654167" lon="15.01455167"><ele>107.0</ele><time>2016-06-18T02:56:11.287Z</time></trkpt><trkpt lat="58.51639833" lon="15.01466"><ele>107.0</ele><time>2016-06-18T02:56:12.294Z</time></trkpt><trkpt lat="58.51632667" lon="15.01471667"><ele>107.0</ele><time>2016-06-18T02:56:13.290Z</time></trkpt><trkpt lat="58.51625667" lon="15.01477833"><ele>108.0</ele><time>2016-06-18T02:56:14.288Z</time></trkpt><trkpt lat="58.51625667" lon="15.01477833"><ele>108.0</ele><time>2016-06-18T02:56:15.287Z</time></trkpt><trkpt lat="58.51611667" lon="15.014905"><ele>108.0</ele><time>2016-06-18T02:56:16.287Z</time></trkpt><trkpt lat="58.51604667" lon="15.01497"><ele>109.0</ele><time>2016-06-18T02:56:17.290Z</time></trkpt><trkpt lat="58.51604667" lon="15.01497"><ele>109.0</ele><time>2016-06-18T02:56:18.287Z</time></trkpt><trkpt lat="58.515905" lon="15.015115"><ele>109.0</ele><time>2016-06-18T02:56:19.290Z</time></trkpt><trkpt lat="58.51583667" lon="15.01519333"><ele>109.0</ele><time>2016-06-18T02:56:20.288Z</time></trkpt><trkpt lat="58.51583667" lon="15.01519333"><ele>109.0</ele><time>2016-06-18T02:56:21.287Z</time></trkpt><trkpt lat="58.51571167" lon="15.01537"><ele>110.0</ele><time>2016-06-18T02:56:22.290Z</time></trkpt><trkpt lat="58.51571167" lon="15.01537"><ele>110.0</ele><time>2016-06-18T02:56:23.287Z</time></trkpt><trkpt lat="58.5156" lon="15.01557833"><ele>112.0</ele><time>2016-06-18T02:56:24.291Z</time></trkpt><trkpt lat="58.5156" lon="15.01557833"><ele>112.0</ele><time>2016-06-18T02:56:25.287Z</time></trkpt><trkpt lat="58.51549667" lon="15.01580667"><ele>112.0</ele><time>2016-06-18T02:56:26.287Z</time></trkpt><trkpt lat="58.51544667" lon="15.01593167"><ele>112.0</ele><time>2016-06-18T02:56:27.299Z</time></trkpt><trkpt lat="58.51544667" lon="15.01593167"><ele>112.0</ele><time>2016-06-18T02:56:28.287Z</time></trkpt><trkpt lat="58.51535667" lon="15.01618667"><ele>113.0</ele><time>2016-06-18T02:56:29.292Z</time></trkpt><trkpt lat="58.51535667" lon="15.01618667"><ele>113.0</ele><time>2016-06-18T02:56:30.287Z</time></trkpt><trkpt lat="58.51527" lon="15.016455"><ele>113.0</ele><time>2016-06-18T02:56:31.290Z</time></trkpt><trkpt lat="58.515225" lon="15.01658667"><ele>113.0</ele><time>2016-06-18T02:56:32.295Z</time></trkpt><trkpt lat="58.515225" lon="15.01658667"><ele>113.0</ele><time>2016-06-18T02:56:33.288Z</time></trkpt><trkpt lat="58.51512167" lon="15.016845"><ele>112.0</ele><time>2016-06-18T02:56:34.291Z</time></trkpt><trkpt lat="58.51512167" lon="15.016845"><ele>112.0</ele><time>2016-06-18T02:56:35.287Z</time></trkpt><trkpt lat="58.515" lon="15.017095"><ele>111.0</ele><time>2016-06-18T02:56:36.291Z</time></trkpt><trkpt lat="58.515" lon="15.017095"><ele>111.0</ele><time>2016-06-18T02:56:37.287Z</time></trkpt><trkpt lat="58.51484333" lon="15.01730667"><ele>110.0</ele><time>2016-06-18T02:56:38.288Z</time></trkpt><trkpt lat="58.51484333" lon="15.01730667"><ele>110.0</ele><time>2016-06-18T02:56:39.288Z</time></trkpt><trkpt lat="58.51466167" lon="15.01747833"><ele>109.0</ele><time>2016-06-18T02:56:40.301Z</time></trkpt><trkpt lat="58.51466167" lon="15.01747833"><ele>109.0</ele><time>2016-06-18T02:56:41.289Z</time></trkpt><trkpt lat="58.51447" lon="15.01761833"><ele>108.0</ele><time>2016-06-18T02:56:42.291Z</time></trkpt><trkpt lat="58.51447" lon="15.01761833"><ele>108.0</ele><time>2016-06-18T02:56:43.287Z</time></trkpt><trkpt lat="58.51428167" lon="15.01775833"><ele>107.0</ele><time>2016-06-18T02:56:44.291Z</time></trkpt><trkpt lat="58.51428167" lon="15.01775833"><ele>107.0</ele><time>2016-06-18T02:56:45.293Z</time></trkpt><trkpt lat="58.51410667" lon="15.01794167"><ele>107.0</ele><time>2016-06-18T02:56:46.291Z</time></trkpt><trkpt lat="58.51410667" lon="15.01794167"><ele>107.0</ele><time>2016-06-18T02:56:47.288Z</time></trkpt><trkpt lat="58.51394833" lon="15.01817167"><ele>106.0</ele><time>2016-06-18T02:56:48.291Z</time></trkpt><trkpt lat="58.51394833" lon="15.01817167"><ele>106.0</ele><time>2016-06-18T02:56:49.288Z</time></trkpt><trkpt lat="58.51379333" lon="15.018415"><ele>106.0</ele><time>2016-06-18T02:56:50.291Z</time></trkpt><trkpt lat="58.51379333" lon="15.018415"><ele>106.0</ele><time>2016-06-18T02:56:51.288Z</time></trkpt><trkpt lat="58.51364167" lon="15.01865333"><ele>106.0</ele><time>2016-06-18T02:56:52.291Z</time></trkpt><trkpt lat="58.51364167" lon="15.01865333"><ele>106.0</ele><time>2016-06-18T02:56:53.316Z</time></trkpt><trkpt lat="58.51349167" lon="15.01889833"><ele>105.0</ele><time>2016-06-18T02:56:54.300Z</time></trkpt><trkpt lat="58.513415" lon="15.01902"><ele>105.0</ele><time>2016-06-18T02:56:55.293Z</time></trkpt><trkpt lat="58.513415" lon="15.01902"><ele>105.0</ele><time>2016-06-18T02:56:56.287Z</time></trkpt><trkpt lat="58.51327" lon="15.019265"><ele>106.0</ele><time>2016-06-18T02:56:57.290Z</time></trkpt><trkpt lat="58.51327" lon="15.019265"><ele>106.0</ele><time>2016-06-18T02:56:58.289Z</time></trkpt><trkpt lat="58.51313167" lon="15.01950833"><ele>106.0</ele><time>2016-06-18T02:56:59.291Z</time></trkpt><trkpt lat="58.51313167" lon="15.01950833"><ele>106.0</ele><time>2016-06-18T02:57:00.308Z</time></trkpt><trkpt lat="58.51299167" lon="15.01975333"><ele>106.0</ele><time>2016-06-18T02:57:01.295Z</time></trkpt><trkpt lat="58.51299167" lon="15.01975333"><ele>106.0</ele><time>2016-06-18T02:57:02.288Z</time></trkpt><trkpt lat="58.51285667" lon="15.02"><ele>107.0</ele><time>2016-06-18T02:57:03.294Z</time></trkpt><trkpt lat="58.51285667" lon="15.02"><ele>107.0</ele><time>2016-06-18T02:57:04.293Z</time></trkpt><trkpt lat="58.51272167" lon="15.02024833"><ele>107.0</ele><time>2016-06-18T02:57:05.291Z</time></trkpt><trkpt lat="58.51272167" lon="15.02024833"><ele>107.0</ele><time>2016-06-18T02:57:06.287Z</time></trkpt><trkpt lat="58.51258" lon="15.02047667"><ele>106.0</ele><time>2016-06-18T02:57:07.306Z</time></trkpt><trkpt lat="58.51250667" lon="15.02057833"><ele>106.0</ele><time>2016-06-18T02:57:08.293Z</time></trkpt><trkpt lat="58.51250667" lon="15.02057833"><ele>106.0</ele><time>2016-06-18T02:57:09.288Z</time></trkpt><trkpt lat="58.51235" lon="15.02077"><ele>106.0</ele><time>2016-06-18T02:57:10.288Z</time></trkpt><trkpt lat="58.51235" lon="15.02077"><ele>106.0</ele><time>2016-06-18T02:57:11.288Z</time></trkpt><trkpt lat="58.51219167" lon="15.020965"><ele>105.0</ele><time>2016-06-18T02:57:12.291Z</time></trkpt><trkpt lat="58.51219167" lon="15.020965"><ele>105.0</ele><time>2016-06-18T02:57:13.288Z</time></trkpt><trkpt lat="58.51204333" lon="15.02119167"><ele>105.0</ele><time>2016-06-18T02:57:14.308Z</time></trkpt><trkpt lat="58.51204333" lon="15.02119167"><ele>105.0</ele><time>2016-06-18T02:57:15.294Z</time></trkpt><trkpt lat="58.51190833" lon="15.02145"><ele>106.0</ele><time>2016-06-18T02:57:16.291Z</time></trkpt><trkpt lat="58.51190833" lon="15.02145"><ele>106.0</ele><time>2016-06-18T02:57:17.288Z</time></trkpt><trkpt lat="58.511805" lon="15.02171"><ele>106.0</ele><time>2016-06-18T02:57:18.291Z</time></trkpt><trkpt lat="58.511805" lon="15.02171"><ele>106.0</ele><time>2016-06-18T02:57:19.290Z</time></trkpt><trkpt lat="58.51174667" lon="15.021975"><ele>106.0</ele><time>2016-06-18T02:57:20.292Z</time></trkpt><trkpt lat="58.51174667" lon="15.021975"><ele>106.0</ele><time>2016-06-18T02:57:21.288Z</time></trkpt><trkpt lat="58.51167333" lon="15.02219333"><ele>106.0</ele><time>2016-06-18T02:57:22.290Z</time></trkpt><trkpt lat="58.51167333" lon="15.02219333"><ele>106.0</ele><time>2016-06-18T02:57:23.290Z</time></trkpt><trkpt lat="58.51155333" lon="15.02238167"><ele>105.0</ele><time>2016-06-18T02:57:24.302Z</time></trkpt><trkpt lat="58.51155333" lon="15.02238167"><ele>105.0</ele><time>2016-06-18T02:57:25.288Z</time></trkpt><trkpt lat="58.511435" lon="15.02260167"><ele>104.0</ele><time>2016-06-18T02:57:26.293Z</time></trkpt><trkpt lat="58.511435" lon="15.02260167"><ele>104.0</ele><time>2016-06-18T02:57:27.288Z</time></trkpt><trkpt lat="58.51131833" lon="15.02286"><ele>103.0</ele><time>2016-06-18T02:57:28.288Z</time></trkpt><trkpt lat="58.51131833" lon="15.02286"><ele>103.0</ele><time>2016-06-18T02:57:29.288Z</time></trkpt><trkpt lat="58.51119833" lon="15.02314333"><ele>102.0</ele><time>2016-06-18T02:57:30.288Z</time></trkpt><trkpt lat="58.51119833" lon="15.02314333"><ele>102.0</ele><time>2016-06-18T02:57:31.288Z</time></trkpt><trkpt lat="58.51107833" lon="15.023435"><ele>102.0</ele><time>2016-06-18T02:57:32.291Z</time></trkpt><trkpt lat="58.51107833" lon="15.023435"><ele>102.0</ele><time>2016-06-18T02:57:33.287Z</time></trkpt><trkpt lat="58.51095833" lon="15.02372"><ele>102.0</ele><time>2016-06-18T02:57:34.290Z</time></trkpt><trkpt lat="58.51095833" lon="15.02372"><ele>102.0</ele><time>2016-06-18T02:57:35.288Z</time></trkpt><trkpt lat="58.51084333" lon="15.02400667"><ele>103.0</ele><time>2016-06-18T02:57:36.290Z</time></trkpt><trkpt lat="58.51084333" lon="15.02400667"><ele>103.0</ele><time>2016-06-18T02:57:37.288Z</time></trkpt><trkpt lat="58.51072" lon="15.02429333"><ele>102.0</ele><time>2016-06-18T02:57:38.290Z</time></trkpt><trkpt lat="58.51072" lon="15.02429333"><ele>102.0</ele><time>2016-06-18T02:57:39.286Z</time></trkpt><trkpt lat="58.51059833" lon="15.02457833"><ele>102.0</ele><time>2016-06-18T02:57:40.292Z</time></trkpt><trkpt lat="58.51059833" lon="15.02457833"><ele>102.0</ele><time>2016-06-18T02:57:41.288Z</time></trkpt><trkpt lat="58.510475" lon="15.02484833"><ele>102.0</ele><time>2016-06-18T02:57:42.292Z</time></trkpt><trkpt lat="58.510475" lon="15.02484833"><ele>102.0</ele><time>2016-06-18T02:57:43.288Z</time></trkpt><trkpt lat="58.51034667" lon="15.02511333"><ele>101.0</ele><time>2016-06-18T02:57:44.292Z</time></trkpt><trkpt lat="58.51028" lon="15.02523833"><ele>101.0</ele><time>2016-06-18T02:57:45.291Z</time></trkpt><trkpt lat="58.51020833" lon="15.02535833"><ele>101.0</ele><time>2016-06-18T02:57:46.292Z</time></trkpt><trkpt lat="58.51020833" lon="15.02535833"><ele>101.0</ele><time>2016-06-18T02:57:47.288Z</time></trkpt><trkpt lat="58.51006167" lon="15.025575"><ele>100.0</ele><time>2016-06-18T02:57:48.290Z</time></trkpt><trkpt lat="58.51006167" lon="15.025575"><ele>100.0</ele><time>2016-06-18T02:57:49.288Z</time></trkpt><trkpt lat="58.509915" lon="15.025785"><ele>99.0</ele><time>2016-06-18T02:57:50.289Z</time></trkpt><trkpt lat="58.509915" lon="15.025785"><ele>99.0</ele><time>2016-06-18T02:57:51.290Z</time></trkpt><trkpt lat="58.50979667" lon="15.02604167"><ele>100.0</ele><time>2016-06-18T02:57:52.293Z</time></trkpt><trkpt lat="58.50979667" lon="15.02604167"><ele>100.0</ele><time>2016-06-18T02:57:53.288Z</time></trkpt><trkpt lat="58.50970667" lon="15.02632667"><ele>100.0</ele><time>2016-06-18T02:57:54.291Z</time></trkpt><trkpt lat="58.50970667" lon="15.02632667"><ele>100.0</ele><time>2016-06-18T02:57:55.288Z</time></trkpt><trkpt lat="58.50964" lon="15.02663167"><ele>100.0</ele><time>2016-06-18T02:57:56.293Z</time></trkpt><trkpt lat="58.50964" lon="15.02663167"><ele>100.0</ele><time>2016-06-18T02:57:57.287Z</time></trkpt><trkpt lat="58.50958667" lon="15.02694667"><ele>100.0</ele><time>2016-06-18T02:57:58.291Z</time></trkpt><trkpt lat="58.50958667" lon="15.02694667"><ele>100.0</ele><time>2016-06-18T02:57:59.289Z</time></trkpt><trkpt lat="58.50953833" lon="15.02726"><ele>100.0</ele><time>2016-06-18T02:58:00.300Z</time></trkpt><trkpt lat="58.50953833" lon="15.02726"><ele>100.0</ele><time>2016-06-18T02:58:01.289Z</time></trkpt><trkpt lat="58.50948833" lon="15.027575"><ele>100.0</ele><time>2016-06-18T02:58:02.293Z</time></trkpt><trkpt lat="58.50948833" lon="15.027575"><ele>100.0</ele><time>2016-06-18T02:58:03.288Z</time></trkpt><trkpt lat="58.50942667" lon="15.027875"><ele>100.0</ele><time>2016-06-18T02:58:04.292Z</time></trkpt><trkpt lat="58.50942667" lon="15.027875"><ele>100.0</ele><time>2016-06-18T02:58:05.304Z</time></trkpt><trkpt lat="58.509325" lon="15.028125"><ele>99.0</ele><time>2016-06-18T02:58:06.293Z</time></trkpt><trkpt lat="58.509325" lon="15.028125"><ele>99.0</ele><time>2016-06-18T02:58:07.289Z</time></trkpt><trkpt lat="58.50917667" lon="15.02827833"><ele>99.0</ele><time>2016-06-18T02:58:08.293Z</time></trkpt><trkpt lat="58.50917667" lon="15.02827833"><ele>99.0</ele><time>2016-06-18T02:58:09.290Z</time></trkpt><trkpt lat="58.50900667" lon="15.02832"><ele>98.0</ele><time>2016-06-18T02:58:10.294Z</time></trkpt><trkpt lat="58.50900667" lon="15.02832"><ele>98.0</ele><time>2016-06-18T02:58:11.289Z</time></trkpt><trkpt lat="58.50883667" lon="15.02822"><ele>98.0</ele><time>2016-06-18T02:58:12.291Z</time></trkpt><trkpt lat="58.50876167" lon="15.028125"><ele>98.0</ele><time>2016-06-18T02:58:13.295Z</time></trkpt><trkpt lat="58.50876167" lon="15.028125"><ele>98.0</ele><time>2016-06-18T02:58:14.290Z</time></trkpt><trkpt lat="58.508655" lon="15.02786333"><ele>98.0</ele><time>2016-06-18T02:58:15.289Z</time></trkpt><trkpt lat="58.50863333" lon="15.02771167"><ele>98.0</ele><time>2016-06-18T02:58:16.291Z</time></trkpt><trkpt lat="58.50863333" lon="15.02771167"><ele>98.0</ele><time>2016-06-18T02:58:17.290Z</time></trkpt><trkpt lat="58.50862667" lon="15.02742"><ele>99.0</ele><time>2016-06-18T02:58:18.294Z</time></trkpt><trkpt lat="58.50862667" lon="15.02742"><ele>99.0</ele><time>2016-06-18T02:58:19.288Z</time></trkpt><trkpt lat="58.50859333" lon="15.02715667"><ele>99.0</ele><time>2016-06-18T02:58:20.293Z</time></trkpt><trkpt lat="58.50859333" lon="15.02715667"><ele>99.0</ele><time>2016-06-18T02:58:21.290Z</time></trkpt><trkpt lat="58.5085" lon="15.02698167"><ele>100.0</ele><time>2016-06-18T02:58:22.292Z</time></trkpt><trkpt lat="58.5085" lon="15.02698167"><ele>100.0</ele><time>2016-06-18T02:58:23.288Z</time></trkpt><trkpt lat="58.50838333" lon="15.02684833"><ele>100.0</ele><time>2016-06-18T02:58:24.291Z</time></trkpt><trkpt lat="58.50832667" lon="15.02677833"><ele>100.0</ele><time>2016-06-18T02:58:25.293Z</time></trkpt><trkpt lat="58.50832667" lon="15.02677833"><ele>100.0</ele><time>2016-06-18T02:58:26.306Z</time></trkpt><trkpt lat="58.50821833" lon="15.02661"><ele>100.0</ele><time>2016-06-18T02:58:27.294Z</time></trkpt><trkpt lat="58.50821833" lon="15.02661"><ele>100.0</ele><time>2016-06-18T02:58:28.288Z</time></trkpt><trkpt lat="58.50812333" lon="15.02641667"><ele>101.0</ele><time>2016-06-18T02:58:29.293Z</time></trkpt><trkpt lat="58.50812333" lon="15.02641667"><ele>101.0</ele><time>2016-06-18T02:58:30.288Z</time></trkpt><trkpt lat="58.50804333" lon="15.026205"><ele>101.0</ele><time>2016-06-18T02:58:31.295Z</time></trkpt><trkpt lat="58.508005" lon="15.02609667"><ele>101.0</ele><time>2016-06-18T02:58:32.293Z</time></trkpt><trkpt lat="58.508005" lon="15.02609667"><ele>101.0</ele><time>2016-06-18T02:58:33.288Z</time></trkpt><trkpt lat="58.50792833" lon="15.02587667"><ele>101.0</ele><time>2016-06-18T02:58:34.291Z</time></trkpt><trkpt lat="58.50792833" lon="15.02587667"><ele>101.0</ele><time>2016-06-18T02:58:35.290Z</time></trkpt><trkpt lat="58.50785" lon="15.02564333"><ele>101.0</ele><time>2016-06-18T02:58:36.290Z</time></trkpt><trkpt lat="58.50781833" lon="15.025515"><ele>100.0</ele><time>2016-06-18T02:58:37.289Z</time></trkpt><trkpt lat="58.50780167" lon="15.025375"><ele>100.0</ele><time>2016-06-18T02:58:38.293Z</time></trkpt><trkpt lat="58.50780167" lon="15.025375"><ele>100.0</ele><time>2016-06-18T02:58:39.290Z</time></trkpt><trkpt lat="58.50779833" lon="15.02508833"><ele>101.0</ele><time>2016-06-18T02:58:40.292Z</time></trkpt><trkpt lat="58.50779833" lon="15.02508833"><ele>101.0</ele><time>2016-06-18T02:58:41.290Z</time></trkpt><trkpt lat="58.50775167" lon="15.02483333"><ele>101.0</ele><time>2016-06-18T02:58:42.291Z</time></trkpt><trkpt lat="58.50775167" lon="15.02483333"><ele>101.0</ele><time>2016-06-18T02:58:43.290Z</time></trkpt><trkpt lat="58.50764667" lon="15.02465333"><ele>100.0</ele><time>2016-06-18T02:58:44.290Z</time></trkpt><trkpt lat="58.50764667" lon="15.02465333"><ele>100.0</ele><time>2016-06-18T02:58:45.290Z</time></trkpt><trkpt lat="58.50753167" lon="15.02446833"><ele>100.0</ele><time>2016-06-18T02:58:46.291Z</time></trkpt><trkpt lat="58.50753167" lon="15.02446833"><ele>100.0</ele><time>2016-06-18T02:58:47.290Z</time></trkpt><trkpt lat="58.50744333" lon="15.02421833"><ele>99.0</ele><time>2016-06-18T02:58:48.290Z</time></trkpt><trkpt lat="58.50740833" lon="15.02407833"><ele>99.0</ele><time>2016-06-18T02:58:49.290Z</time></trkpt><trkpt lat="58.507375" lon="15.02393167"><ele>99.0</ele><time>2016-06-18T02:58:50.293Z</time></trkpt><trkpt lat="58.507375" lon="15.02393167"><ele>99.0</ele><time>2016-06-18T02:58:51.290Z</time></trkpt><trkpt lat="58.50731167" lon="15.02363167"><ele>98.0</ele><time>2016-06-18T02:58:52.308Z</time></trkpt><trkpt lat="58.50731167" lon="15.02363167"><ele>98.0</ele><time>2016-06-18T02:58:53.296Z</time></trkpt><trkpt lat="58.507245" lon="15.02331833"><ele>96.0</ele><time>2016-06-18T02:58:54.293Z</time></trkpt><trkpt lat="58.507245" lon="15.02331833"><ele>96.0</ele><time>2016-06-18T02:58:55.290Z</time></trkpt><trkpt lat="58.50717167" lon="15.02298"><ele>95.0</ele><time>2016-06-18T02:58:56.293Z</time></trkpt><trkpt lat="58.50717167" lon="15.02298"><ele>95.0</ele><time>2016-06-18T02:58:57.290Z</time></trkpt><trkpt lat="58.507095" lon="15.02261833"><ele>94.0</ele><time>2016-06-18T02:58:58.292Z</time></trkpt><trkpt lat="58.507055" lon="15.02243167"><ele>93.0</ele><time>2016-06-18T02:58:59.293Z</time></trkpt><trkpt lat="58.507055" lon="15.02243167"><ele>93.0</ele><time>2016-06-18T02:59:00.308Z</time></trkpt><trkpt lat="58.506975" lon="15.02206167"><ele>92.0</ele><time>2016-06-18T02:59:01.295Z</time></trkpt><trkpt lat="58.506935" lon="15.02188167"><ele>91.0</ele><time>2016-06-18T02:59:02.293Z</time></trkpt><trkpt lat="58.506935" lon="15.02188167"><ele>91.0</ele><time>2016-06-18T02:59:03.288Z</time></trkpt><trkpt lat="58.50684667" lon="15.02153667"><ele>91.0</ele><time>2016-06-18T02:59:04.291Z</time></trkpt><trkpt lat="58.5068" lon="15.02137667"><ele>91.0</ele><time>2016-06-18T02:59:05.292Z</time></trkpt><trkpt lat="58.5068" lon="15.02137667"><ele>91.0</ele><time>2016-06-18T02:59:06.288Z</time></trkpt><trkpt lat="58.50669667" lon="15.02106667"><ele>90.0</ele><time>2016-06-18T02:59:07.292Z</time></trkpt><trkpt lat="58.50664833" lon="15.02092"><ele>90.0</ele><time>2016-06-18T02:59:08.293Z</time></trkpt><trkpt lat="58.50664833" lon="15.02092"><ele>90.0</ele><time>2016-06-18T02:59:09.290Z</time></trkpt><trkpt lat="58.50654" lon="15.02065167"><ele>90.0</ele><time>2016-06-18T02:59:10.304Z</time></trkpt><trkpt lat="58.50654" lon="15.02065167"><ele>90.0</ele><time>2016-06-18T02:59:11.290Z</time></trkpt><trkpt lat="58.50643167" lon="15.020405"><ele>90.0</ele><time>2016-06-18T02:59:12.295Z</time></trkpt><trkpt lat="58.50643167" lon="15.020405"><ele>90.0</ele><time>2016-06-18T02:59:13.290Z</time></trkpt><trkpt lat="58.50632333" lon="15.020185"><ele>90.0</ele><time>2016-06-18T02:59:14.293Z</time></trkpt><trkpt lat="58.50632333" lon="15.020185"><ele>90.0</ele><time>2016-06-18T02:59:15.291Z</time></trkpt><trkpt lat="58.50622" lon="15.01998333"><ele>91.0</ele><time>2016-06-18T02:59:16.292Z</time></trkpt><trkpt lat="58.50616667" lon="15.019885"><ele>91.0</ele><time>2016-06-18T02:59:17.290Z</time></trkpt><trkpt lat="58.50616667" lon="15.019885"><ele>91.0</ele><time>2016-06-18T02:59:18.288Z</time></trkpt><trkpt lat="58.50606" lon="15.019695"><ele>92.0</ele><time>2016-06-18T02:59:19.293Z</time></trkpt><trkpt lat="58.50600333" lon="15.01960333"><ele>92.0</ele><time>2016-06-18T02:59:20.294Z</time></trkpt><trkpt lat="58.50600333" lon="15.01960333"><ele>92.0</ele><time>2016-06-18T02:59:21.290Z</time></trkpt><trkpt lat="58.50588833" lon="15.019425"><ele>92.0</ele><time>2016-06-18T02:59:22.293Z</time></trkpt><trkpt lat="58.50588833" lon="15.019425"><ele>92.0</ele><time>2016-06-18T02:59:23.291Z</time></trkpt><trkpt lat="58.50576667" lon="15.01925333"><ele>93.0</ele><time>2016-06-18T02:59:24.291Z</time></trkpt><trkpt lat="58.50576667" lon="15.01925333"><ele>93.0</ele><time>2016-06-18T02:59:25.290Z</time></trkpt><trkpt lat="58.50564333" lon="15.019085"><ele>93.0</ele><time>2016-06-18T02:59:26.293Z</time></trkpt><trkpt lat="58.50564333" lon="15.019085"><ele>93.0</ele><time>2016-06-18T02:59:27.291Z</time></trkpt><trkpt lat="58.50551833" lon="15.01891833"><ele>93.0</ele><time>2016-06-18T02:59:28.291Z</time></trkpt><trkpt lat="58.50545833" lon="15.01883167"><ele>93.0</ele><time>2016-06-18T02:59:29.293Z</time></trkpt><trkpt lat="58.50545833" lon="15.01883167"><ele>93.0</ele><time>2016-06-18T02:59:30.288Z</time></trkpt><trkpt lat="58.50533667" lon="15.01866333"><ele>94.0</ele><time>2016-06-18T02:59:31.291Z</time></trkpt><trkpt lat="58.50527667" lon="15.01857833"><ele>94.0</ele><time>2016-06-18T02:59:32.293Z</time></trkpt><trkpt lat="58.50527667" lon="15.01857833"><ele>94.0</ele><time>2016-06-18T02:59:33.294Z</time></trkpt><trkpt lat="58.50515833" lon="15.01841"><ele>94.0</ele><time>2016-06-18T02:59:34.293Z</time></trkpt><trkpt lat="58.50515833" lon="15.01841"><ele>94.0</ele><time>2016-06-18T02:59:35.291Z</time></trkpt><trkpt lat="58.50504167" lon="15.01825"><ele>94.0</ele><time>2016-06-18T02:59:36.291Z</time></trkpt><trkpt lat="58.50504167" lon="15.01825"><ele>94.0</ele><time>2016-06-18T02:59:37.290Z</time></trkpt><trkpt lat="58.504925" lon="15.01808333"><ele>94.0</ele><time>2016-06-18T02:59:38.307Z</time></trkpt><trkpt lat="58.50487333" lon="15.017995"><ele>94.0</ele><time>2016-06-18T02:59:39.296Z</time></trkpt><trkpt lat="58.50482" lon="15.01791"><ele>94.0</ele><time>2016-06-18T02:59:40.293Z</time></trkpt><trkpt lat="58.50482" lon="15.01791"><ele>94.0</ele><time>2016-06-18T02:59:41.291Z</time></trkpt><trkpt lat="58.50470833" lon="15.017735"><ele>94.0</ele><time>2016-06-18T02:59:42.291Z</time></trkpt><trkpt lat="58.50470833" lon="15.017735"><ele>94.0</ele><time>2016-06-18T02:59:43.292Z</time></trkpt><trkpt lat="58.50459167" lon="15.01755833"><ele>94.0</ele><time>2016-06-18T02:59:44.294Z</time></trkpt><trkpt lat="58.50459167" lon="15.01755833"><ele>94.0</ele><time>2016-06-18T02:59:45.291Z</time></trkpt><trkpt lat="58.50447333" lon="15.01738"><ele>94.0</ele><time>2016-06-18T02:59:46.293Z</time></trkpt><trkpt lat="58.50447333" lon="15.01738"><ele>94.0</ele><time>2016-06-18T02:59:47.291Z</time></trkpt><trkpt lat="58.50436333" lon="15.01720833"><ele>94.0</ele><time>2016-06-18T02:59:48.291Z</time></trkpt><trkpt lat="58.50430667" lon="15.01712167"><ele>94.0</ele><time>2016-06-18T02:59:49.293Z</time></trkpt><trkpt lat="58.50430667" lon="15.01712167"><ele>94.0</ele><time>2016-06-18T02:59:50.290Z</time></trkpt><trkpt lat="58.50419167" lon="15.01695"><ele>94.0</ele><time>2016-06-18T02:59:51.291Z</time></trkpt><trkpt lat="58.50413167" lon="15.01686333"><ele>94.0</ele><time>2016-06-18T02:59:52.293Z</time></trkpt><trkpt lat="58.50413167" lon="15.01686333"><ele>94.0</ele><time>2016-06-18T02:59:53.291Z</time></trkpt><trkpt lat="58.50401667" lon="15.01669167"><ele>94.0</ele><time>2016-06-18T02:59:54.292Z</time></trkpt><trkpt lat="58.50401667" lon="15.01669167"><ele>94.0</ele><time>2016-06-18T02:59:55.291Z</time></trkpt><trkpt lat="58.50389833" lon="15.016525"><ele>95.0</ele><time>2016-06-18T02:59:56.294Z</time></trkpt><trkpt lat="58.50389833" lon="15.016525"><ele>95.0</ele><time>2016-06-18T02:59:57.291Z</time></trkpt><trkpt lat="58.50378167" lon="15.01636"><ele>95.0</ele><time>2016-06-18T02:59:58.293Z</time></trkpt><trkpt lat="58.50378167" lon="15.01636"><ele>95.0</ele><time>2016-06-18T02:59:59.291Z</time></trkpt><trkpt lat="58.50366" lon="15.01619667"><ele>95.0</ele><time>2016-06-18T03:00:00.300Z</time></trkpt><trkpt lat="58.50366" lon="15.01619667"><ele>95.0</ele><time>2016-06-18T03:00:01.291Z</time></trkpt><trkpt lat="58.50353667" lon="15.016035"><ele>95.0</ele><time>2016-06-18T03:00:02.293Z</time></trkpt><trkpt lat="58.50353667" lon="15.016035"><ele>95.0</ele><time>2016-06-18T03:00:03.290Z</time></trkpt><trkpt lat="58.503415" lon="15.01587167"><ele>95.0</ele><time>2016-06-18T03:00:04.292Z</time></trkpt><trkpt lat="58.503415" lon="15.01587167"><ele>95.0</ele><time>2016-06-18T03:00:05.291Z</time></trkpt><trkpt lat="58.503295" lon="15.015715"><ele>95.0</ele><time>2016-06-18T03:00:06.293Z</time></trkpt><trkpt lat="58.503295" lon="15.015715"><ele>95.0</ele><time>2016-06-18T03:00:07.291Z</time></trkpt><trkpt lat="58.50317333" lon="15.015555"><ele>95.0</ele><time>2016-06-18T03:00:08.296Z</time></trkpt><trkpt lat="58.50317333" lon="15.015555"><ele>95.0</ele><time>2016-06-18T03:00:09.292Z</time></trkpt><trkpt lat="58.50305333" lon="15.015395"><ele>95.0</ele><time>2016-06-18T03:00:10.293Z</time></trkpt><trkpt lat="58.50305333" lon="15.015395"><ele>95.0</ele><time>2016-06-18T03:00:11.291Z</time></trkpt><trkpt lat="58.50293667" lon="15.01523833"><ele>95.0</ele><time>2016-06-18T03:00:12.293Z</time></trkpt><trkpt lat="58.50293667" lon="15.01523833"><ele>95.0</ele><time>2016-06-18T03:00:13.290Z</time></trkpt><trkpt lat="58.50282333" lon="15.01508333"><ele>95.0</ele><time>2016-06-18T03:00:14.293Z</time></trkpt><trkpt lat="58.50282333" lon="15.01508333"><ele>95.0</ele><time>2016-06-18T03:00:15.291Z</time></trkpt><trkpt lat="58.50271167" lon="15.01492167"><ele>95.0</ele><time>2016-06-18T03:00:16.291Z</time></trkpt><trkpt lat="58.50271167" lon="15.01492167"><ele>95.0</ele><time>2016-06-18T03:00:17.291Z</time></trkpt><trkpt lat="58.502595" lon="15.01475667"><ele>95.0</ele><time>2016-06-18T03:00:18.291Z</time></trkpt><trkpt lat="58.502595" lon="15.01475667"><ele>95.0</ele><time>2016-06-18T03:00:19.291Z</time></trkpt><trkpt lat="58.502475" lon="15.01459167"><ele>95.0</ele><time>2016-06-18T03:00:20.294Z</time></trkpt><trkpt lat="58.502475" lon="15.01459167"><ele>95.0</ele><time>2016-06-18T03:00:21.291Z</time></trkpt><trkpt lat="58.50235833" lon="15.01442833"><ele>96.0</ele><time>2016-06-18T03:00:22.293Z</time></trkpt><trkpt lat="58.50235833" lon="15.01442833"><ele>96.0</ele><time>2016-06-18T03:00:23.290Z</time></trkpt><trkpt lat="58.50224667" lon="15.014265"><ele>96.0</ele><time>2016-06-18T03:00:24.291Z</time></trkpt><trkpt lat="58.50219" lon="15.014185"><ele>96.0</ele><time>2016-06-18T03:00:25.293Z</time></trkpt><trkpt lat="58.50213333" lon="15.014105"><ele>96.0</ele><time>2016-06-18T03:00:26.298Z</time></trkpt><trkpt lat="58.50213333" lon="15.014105"><ele>96.0</ele><time>2016-06-18T03:00:27.291Z</time></trkpt><trkpt lat="58.50202167" lon="15.013945"><ele>96.0</ele><time>2016-06-18T03:00:28.293Z</time></trkpt><trkpt lat="58.50202167" lon="15.013945"><ele>96.0</ele><time>2016-06-18T03:00:29.291Z</time></trkpt><trkpt lat="58.50191" lon="15.01378667"><ele>96.0</ele><time>2016-06-18T03:00:30.293Z</time></trkpt><trkpt lat="58.50191" lon="15.01378667"><ele>96.0</ele><time>2016-06-18T03:00:31.291Z</time></trkpt><trkpt lat="58.50179833" lon="15.01363333"><ele>96.0</ele><time>2016-06-18T03:00:32.294Z</time></trkpt><trkpt lat="58.50179833" lon="15.01363333"><ele>96.0</ele><time>2016-06-18T03:00:33.291Z</time></trkpt><trkpt lat="58.50169167" lon="15.01348"><ele>97.0</ele><time>2016-06-18T03:00:34.292Z</time></trkpt><trkpt lat="58.50169167" lon="15.01348"><ele>97.0</ele><time>2016-06-18T03:00:35.291Z</time></trkpt><trkpt lat="58.50158667" lon="15.01332833"><ele>97.0</ele><time>2016-06-18T03:00:36.294Z</time></trkpt><trkpt lat="58.50158667" lon="15.01332833"><ele>97.0</ele><time>2016-06-18T03:00:37.291Z</time></trkpt><trkpt lat="58.50148333" lon="15.01318333"><ele>97.0</ele><time>2016-06-18T03:00:38.294Z</time></trkpt><trkpt lat="58.50148333" lon="15.01318333"><ele>97.0</ele><time>2016-06-18T03:00:39.291Z</time></trkpt><trkpt lat="58.50138333" lon="15.01304"><ele>98.0</ele><time>2016-06-18T03:00:40.293Z</time></trkpt><trkpt lat="58.50138333" lon="15.01304"><ele>98.0</ele><time>2016-06-18T03:00:41.291Z</time></trkpt><trkpt lat="58.50128333" lon="15.01289833"><ele>98.0</ele><time>2016-06-18T03:00:42.293Z</time></trkpt><trkpt lat="58.50128333" lon="15.01289833"><ele>98.0</ele><time>2016-06-18T03:00:43.291Z</time></trkpt><trkpt lat="58.501185" lon="15.01275833"><ele>98.0</ele><time>2016-06-18T03:00:44.294Z</time></trkpt><trkpt lat="58.501185" lon="15.01275833"><ele>98.0</ele><time>2016-06-18T03:00:45.292Z</time></trkpt><trkpt lat="58.50108667" lon="15.01261667"><ele>99.0</ele><time>2016-06-18T03:00:46.293Z</time></trkpt><trkpt lat="58.50108667" lon="15.01261667"><ele>99.0</ele><time>2016-06-18T03:00:47.291Z</time></trkpt><trkpt lat="58.50098833" lon="15.01247333"><ele>99.0</ele><time>2016-06-18T03:00:48.293Z</time></trkpt><trkpt lat="58.50098833" lon="15.01247333"><ele>99.0</ele><time>2016-06-18T03:00:49.291Z</time></trkpt><trkpt lat="58.50089167" lon="15.01233333"><ele>100.0</ele><time>2016-06-18T03:00:50.294Z</time></trkpt><trkpt lat="58.50089167" lon="15.01233333"><ele>100.0</ele><time>2016-06-18T03:00:51.292Z</time></trkpt><trkpt lat="58.50079667" lon="15.012195"><ele>100.0</ele><time>2016-06-18T03:00:52.294Z</time></trkpt><trkpt lat="58.50079667" lon="15.012195"><ele>100.0</ele><time>2016-06-18T03:00:53.291Z</time></trkpt><trkpt lat="58.50070167" lon="15.01205667"><ele>100.0</ele><time>2016-06-18T03:00:54.293Z</time></trkpt><trkpt lat="58.50065167" lon="15.011985"><ele>100.0</ele><time>2016-06-18T03:00:55.293Z</time></trkpt><trkpt lat="58.50060333" lon="15.01191333"><ele>100.0</ele><time>2016-06-18T03:00:56.294Z</time></trkpt><trkpt lat="58.50060333" lon="15.01191333"><ele>100.0</ele><time>2016-06-18T03:00:57.292Z</time></trkpt><trkpt lat="58.5005" lon="15.01176833"><ele>100.0</ele><time>2016-06-18T03:00:58.293Z</time></trkpt><trkpt lat="58.5005" lon="15.01176833"><ele>100.0</ele><time>2016-06-18T03:00:59.291Z</time></trkpt><trkpt lat="58.50039833" lon="15.011625"><ele>101.0</ele><time>2016-06-18T03:01:00.303Z</time></trkpt><trkpt lat="58.50039833" lon="15.011625"><ele>101.0</ele><time>2016-06-18T03:01:01.292Z</time></trkpt><trkpt lat="58.50029667" lon="15.01147833"><ele>101.0</ele><time>2016-06-18T03:01:02.295Z</time></trkpt><trkpt lat="58.50029667" lon="15.01147833"><ele>101.0</ele><time>2016-06-18T03:01:03.292Z</time></trkpt><trkpt lat="58.50019667" lon="15.01133"><ele>101.0</ele><time>2016-06-18T03:01:04.294Z</time></trkpt><trkpt lat="58.50019667" lon="15.01133"><ele>101.0</ele><time>2016-06-18T03:01:05.292Z</time></trkpt><trkpt lat="58.50009667" lon="15.01118333"><ele>101.0</ele><time>2016-06-18T03:01:06.295Z</time></trkpt><trkpt lat="58.500045" lon="15.01111167"><ele>101.0</ele><time>2016-06-18T03:01:07.293Z</time></trkpt><trkpt lat="58.500045" lon="15.01111167"><ele>101.0</ele><time>2016-06-18T03:01:08.290Z</time></trkpt><trkpt lat="58.49994167" lon="15.01096333"><ele>101.0</ele><time>2016-06-18T03:01:09.298Z</time></trkpt><trkpt lat="58.49989" lon="15.01088833"><ele>101.0</ele><time>2016-06-18T03:01:10.293Z</time></trkpt><trkpt lat="58.49989" lon="15.01088833"><ele>101.0</ele><time>2016-06-18T03:01:11.292Z</time></trkpt><trkpt lat="58.49978667" lon="15.01073833"><ele>101.0</ele><time>2016-06-18T03:01:12.292Z</time></trkpt><trkpt lat="58.49978667" lon="15.01073833"><ele>101.0</ele><time>2016-06-18T03:01:13.291Z</time></trkpt><trkpt lat="58.49968333" lon="15.010585"><ele>101.0</ele><time>2016-06-18T03:01:14.294Z</time></trkpt><trkpt lat="58.49968333" lon="15.010585"><ele>101.0</ele><time>2016-06-18T03:01:15.292Z</time></trkpt><trkpt lat="58.499575" lon="15.01043333"><ele>101.0</ele><time>2016-06-18T03:01:16.294Z</time></trkpt><trkpt lat="58.499575" lon="15.01043333"><ele>101.0</ele><time>2016-06-18T03:01:17.292Z</time></trkpt><trkpt lat="58.49947167" lon="15.01028"><ele>101.0</ele><time>2016-06-18T03:01:18.294Z</time></trkpt><trkpt lat="58.49947167" lon="15.01028"><ele>101.0</ele><time>2016-06-18T03:01:19.292Z</time></trkpt><trkpt lat="58.49936333" lon="15.01012833"><ele>101.0</ele><time>2016-06-18T03:01:20.295Z</time></trkpt><trkpt lat="58.49936333" lon="15.01012833"><ele>101.0</ele><time>2016-06-18T03:01:21.292Z</time></trkpt><trkpt lat="58.49925167" lon="15.00997333"><ele>101.0</ele><time>2016-06-18T03:01:22.294Z</time></trkpt><trkpt lat="58.49925167" lon="15.00997333"><ele>101.0</ele><time>2016-06-18T03:01:23.292Z</time></trkpt><trkpt lat="58.49914167" lon="15.00982167"><ele>101.0</ele><time>2016-06-18T03:01:24.292Z</time></trkpt><trkpt lat="58.49908667" lon="15.00974667"><ele>101.0</ele><time>2016-06-18T03:01:25.293Z</time></trkpt><trkpt lat="58.49903333" lon="15.00967"><ele>101.0</ele><time>2016-06-18T03:01:26.294Z</time></trkpt><trkpt lat="58.49903333" lon="15.00967"><ele>101.0</ele><time>2016-06-18T03:01:27.292Z</time></trkpt><trkpt lat="58.49891833" lon="15.009525"><ele>101.0</ele><time>2016-06-18T03:01:28.293Z</time></trkpt><trkpt lat="58.49886167" lon="15.00945333"><ele>101.0</ele><time>2016-06-18T03:01:29.294Z</time></trkpt><trkpt lat="58.49886167" lon="15.00945333"><ele>101.0</ele><time>2016-06-18T03:01:30.291Z</time></trkpt><trkpt lat="58.49873833" lon="15.009295"><ele>100.0</ele><time>2016-06-18T03:01:31.293Z</time></trkpt><trkpt lat="58.498675" lon="15.00920833"><ele>100.0</ele><time>2016-06-18T03:01:32.294Z</time></trkpt><trkpt lat="58.498675" lon="15.00920833"><ele>100.0</ele><time>2016-06-18T03:01:33.292Z</time></trkpt><trkpt lat="58.49854333" lon="15.00902167"><ele>100.0</ele><time>2016-06-18T03:01:34.295Z</time></trkpt><trkpt lat="58.49854333" lon="15.00902167"><ele>100.0</ele><time>2016-06-18T03:01:35.292Z</time></trkpt><trkpt lat="58.49840833" lon="15.00882167"><ele>99.0</ele><time>2016-06-18T03:01:36.295Z</time></trkpt><trkpt lat="58.49840833" lon="15.00882167"><ele>99.0</ele><time>2016-06-18T03:01:37.293Z</time></trkpt><trkpt lat="58.49826833" lon="15.00861833"><ele>99.0</ele><time>2016-06-18T03:01:38.295Z</time></trkpt><trkpt lat="58.49826833" lon="15.00861833"><ele>99.0</ele><time>2016-06-18T03:01:39.294Z</time></trkpt><trkpt lat="58.49812333" lon="15.008405"><ele>98.0</ele><time>2016-06-18T03:01:40.305Z</time></trkpt><trkpt lat="58.49812333" lon="15.008405"><ele>98.0</ele><time>2016-06-18T03:01:41.294Z</time></trkpt><trkpt lat="58.49797667" lon="15.00819167"><ele>98.0</ele><time>2016-06-18T03:01:42.294Z</time></trkpt><trkpt lat="58.49797667" lon="15.00819167"><ele>98.0</ele><time>2016-06-18T03:01:43.293Z</time></trkpt><trkpt lat="58.49782" lon="15.00797333"><ele>97.0</ele><time>2016-06-18T03:01:44.295Z</time></trkpt><trkpt lat="58.49782" lon="15.00797333"><ele>97.0</ele><time>2016-06-18T03:01:45.293Z</time></trkpt><trkpt lat="58.49766" lon="15.00775"><ele>97.0</ele><time>2016-06-18T03:01:46.294Z</time></trkpt><trkpt lat="58.49766" lon="15.00775"><ele>97.0</ele><time>2016-06-18T03:01:47.292Z</time></trkpt><trkpt lat="58.4975" lon="15.00752167"><ele>97.0</ele><time>2016-06-18T03:01:48.294Z</time></trkpt><trkpt lat="58.4975" lon="15.00752167"><ele>97.0</ele><time>2016-06-18T03:01:49.292Z</time></trkpt><trkpt lat="58.49733833" lon="15.007295"><ele>96.0</ele><time>2016-06-18T03:01:50.294Z</time></trkpt><trkpt lat="58.49733833" lon="15.007295"><ele>96.0</ele><time>2016-06-18T03:01:51.292Z</time></trkpt><trkpt lat="58.49718" lon="15.007065"><ele>96.0</ele><time>2016-06-18T03:01:52.294Z</time></trkpt><trkpt lat="58.49718" lon="15.007065"><ele>96.0</ele><time>2016-06-18T03:01:53.292Z</time></trkpt><trkpt lat="58.49702333" lon="15.00684"><ele>96.0</ele><time>2016-06-18T03:01:54.296Z</time></trkpt><trkpt lat="58.49702333" lon="15.00684"><ele>96.0</ele><time>2016-06-18T03:01:55.292Z</time></trkpt><trkpt lat="58.49687167" lon="15.00662333"><ele>96.0</ele><time>2016-06-18T03:01:56.295Z</time></trkpt><trkpt lat="58.49687167" lon="15.00662333"><ele>96.0</ele><time>2016-06-18T03:01:57.293Z</time></trkpt><trkpt lat="58.49672167" lon="15.006415"><ele>97.0</ele><time>2016-06-18T03:01:58.293Z</time></trkpt><trkpt lat="58.49665" lon="15.00630833"><ele>97.0</ele><time>2016-06-18T03:01:59.293Z</time></trkpt><trkpt lat="58.49658" lon="15.00620333"><ele>97.0</ele><time>2016-06-18T03:02:00.299Z</time></trkpt><trkpt lat="58.49658" lon="15.00620333"><ele>97.0</ele><time>2016-06-18T03:02:01.292Z</time></trkpt><trkpt lat="58.496435" lon="15.00599333"><ele>97.0</ele><time>2016-06-18T03:02:02.294Z</time></trkpt><trkpt lat="58.496435" lon="15.00599333"><ele>97.0</ele><time>2016-06-18T03:02:03.319Z</time></trkpt><trkpt lat="58.49629333" lon="15.00578667"><ele>97.0</ele><time>2016-06-18T03:02:04.305Z</time></trkpt><trkpt lat="58.49622167" lon="15.00568667"><ele>97.0</ele><time>2016-06-18T03:02:05.294Z</time></trkpt><trkpt lat="58.49622167" lon="15.00568667"><ele>97.0</ele><time>2016-06-18T03:02:06.291Z</time></trkpt><trkpt lat="58.49608" lon="15.005485"><ele>97.0</ele><time>2016-06-18T03:02:07.294Z</time></trkpt><trkpt lat="58.49601167" lon="15.00538333"><ele>98.0</ele><time>2016-06-18T03:02:08.295Z</time></trkpt><trkpt lat="58.49601167" lon="15.00538333"><ele>98.0</ele><time>2016-06-18T03:02:09.292Z</time></trkpt><trkpt lat="58.49587167" lon="15.00518333"><ele>98.0</ele><time>2016-06-18T03:02:10.293Z</time></trkpt><trkpt lat="58.49587167" lon="15.00518333"><ele>98.0</ele><time>2016-06-18T03:02:11.292Z</time></trkpt><trkpt lat="58.49573167" lon="15.00498833"><ele>98.0</ele><time>2016-06-18T03:02:12.294Z</time></trkpt><trkpt lat="58.49573167" lon="15.00498833"><ele>98.0</ele><time>2016-06-18T03:02:13.292Z</time></trkpt><trkpt lat="58.495595" lon="15.00479667"><ele>98.0</ele><time>2016-06-18T03:02:14.295Z</time></trkpt><trkpt lat="58.495595" lon="15.00479667"><ele>98.0</ele><time>2016-06-18T03:02:15.292Z</time></trkpt><trkpt lat="58.49546" lon="15.00460667"><ele>98.0</ele><time>2016-06-18T03:02:16.294Z</time></trkpt><trkpt lat="58.49546" lon="15.00460667"><ele>98.0</ele><time>2016-06-18T03:02:17.292Z</time></trkpt><trkpt lat="58.49532333" lon="15.00441833"><ele>98.0</ele><time>2016-06-18T03:02:18.294Z</time></trkpt><trkpt lat="58.49532333" lon="15.00441833"><ele>98.0</ele><time>2016-06-18T03:02:19.292Z</time></trkpt><trkpt lat="58.49518667" lon="15.00423"><ele>99.0</ele><time>2016-06-18T03:02:20.295Z</time></trkpt><trkpt lat="58.49511667" lon="15.00414167"><ele>99.0</ele><time>2016-06-18T03:02:21.294Z</time></trkpt><trkpt lat="58.495045" lon="15.00405667"><ele>99.0</ele><time>2016-06-18T03:02:22.294Z</time></trkpt><trkpt lat="58.495045" lon="15.00405667"><ele>99.0</ele><time>2016-06-18T03:02:23.293Z</time></trkpt><trkpt lat="58.4949" lon="15.00389167"><ele>99.0</ele><time>2016-06-18T03:02:24.309Z</time></trkpt><trkpt lat="58.4949" lon="15.00389167"><ele>99.0</ele><time>2016-06-18T03:02:25.294Z</time></trkpt><trkpt lat="58.49475667" lon="15.00373"><ele>99.0</ele><time>2016-06-18T03:02:26.294Z</time></trkpt><trkpt lat="58.49475667" lon="15.00373"><ele>99.0</ele><time>2016-06-18T03:02:27.293Z</time></trkpt><trkpt lat="58.49461" lon="15.00358"><ele>99.0</ele><time>2016-06-18T03:02:28.294Z</time></trkpt><trkpt lat="58.494535" lon="15.00350667"><ele>99.0</ele><time>2016-06-18T03:02:29.298Z</time></trkpt><trkpt lat="58.494535" lon="15.00350667"><ele>99.0</ele><time>2016-06-18T03:02:30.292Z</time></trkpt><trkpt lat="58.494385" lon="15.00336333"><ele>99.0</ele><time>2016-06-18T03:02:31.294Z</time></trkpt><trkpt lat="58.49430833" lon="15.00329"><ele>99.0</ele><time>2016-06-18T03:02:32.296Z</time></trkpt><trkpt lat="58.49430833" lon="15.00329"><ele>99.0</ele><time>2016-06-18T03:02:33.293Z</time></trkpt><trkpt lat="58.49415333" lon="15.00314667"><ele>100.0</ele><time>2016-06-18T03:02:34.294Z</time></trkpt><trkpt lat="58.49415333" lon="15.00314667"><ele>100.0</ele><time>2016-06-18T03:02:35.293Z</time></trkpt><trkpt lat="58.494" lon="15.00300667"><ele>100.0</ele><time>2016-06-18T03:02:36.294Z</time></trkpt><trkpt lat="58.494" lon="15.00300667"><ele>100.0</ele><time>2016-06-18T03:02:37.293Z</time></trkpt><trkpt lat="58.49384833" lon="15.00287"><ele>100.0</ele><time>2016-06-18T03:02:38.296Z</time></trkpt><trkpt lat="58.49384833" lon="15.00287"><ele>100.0</ele><time>2016-06-18T03:02:39.293Z</time></trkpt><trkpt lat="58.493695" lon="15.00273"><ele>100.0</ele><time>2016-06-18T03:02:40.295Z</time></trkpt><trkpt lat="58.49361833" lon="15.00265833"><ele>100.0</ele><time>2016-06-18T03:02:41.295Z</time></trkpt><trkpt lat="58.49361833" lon="15.00265833"><ele>100.0</ele><time>2016-06-18T03:02:42.292Z</time></trkpt><trkpt lat="58.49346667" lon="15.00252"><ele>100.0</ele><time>2016-06-18T03:02:43.294Z</time></trkpt><trkpt lat="58.49346667" lon="15.00252"><ele>100.0</ele><time>2016-06-18T03:02:44.291Z</time></trkpt><trkpt lat="58.49331333" lon="15.00238167"><ele>100.0</ele><time>2016-06-18T03:02:45.294Z</time></trkpt><trkpt lat="58.49331333" lon="15.00238167"><ele>100.0</ele><time>2016-06-18T03:02:46.292Z</time></trkpt><trkpt lat="58.49316" lon="15.00223167"><ele>100.0</ele><time>2016-06-18T03:02:47.295Z</time></trkpt><trkpt lat="58.49316" lon="15.00223167"><ele>100.0</ele><time>2016-06-18T03:02:48.292Z</time></trkpt><trkpt lat="58.493005" lon="15.002085"><ele>100.0</ele><time>2016-06-18T03:02:49.294Z</time></trkpt><trkpt lat="58.49292833" lon="15.00201"><ele>100.0</ele><time>2016-06-18T03:02:50.303Z</time></trkpt><trkpt lat="58.49292833" lon="15.00201"><ele>100.0</ele><time>2016-06-18T03:02:51.293Z</time></trkpt><trkpt lat="58.492775" lon="15.00185833"><ele>100.0</ele><time>2016-06-18T03:02:52.295Z</time></trkpt><trkpt lat="58.492775" lon="15.00185833"><ele>100.0</ele><time>2016-06-18T03:02:53.293Z</time></trkpt><trkpt lat="58.49262667" lon="15.00169667"><ele>100.0</ele><time>2016-06-18T03:02:54.295Z</time></trkpt><trkpt lat="58.49255333" lon="15.00161333"><ele>100.0</ele><time>2016-06-18T03:02:55.304Z</time></trkpt><trkpt lat="58.49248167" lon="15.001525"><ele>99.0</ele><time>2016-06-18T03:02:56.295Z</time></trkpt><trkpt lat="58.49248167" lon="15.001525"><ele>99.0</ele><time>2016-06-18T03:02:57.293Z</time></trkpt><trkpt lat="58.49234" lon="15.001345"><ele>99.0</ele><time>2016-06-18T03:02:58.295Z</time></trkpt><trkpt lat="58.49227167" lon="15.00125167"><ele>99.0</ele><time>2016-06-18T03:02:59.295Z</time></trkpt><trkpt lat="58.49227167" lon="15.00125167"><ele>99.0</ele><time>2016-06-18T03:03:00.285Z</time></trkpt><trkpt lat="58.49213833" lon="15.00105667"><ele>99.0</ele><time>2016-06-18T03:03:01.296Z</time></trkpt><trkpt lat="58.49207333" lon="15.000955"><ele>99.0</ele><time>2016-06-18T03:03:02.297Z</time></trkpt><trkpt lat="58.49207333" lon="15.000955"><ele>99.0</ele><time>2016-06-18T03:03:03.298Z</time></trkpt><trkpt lat="58.49194833" lon="15.00074333"><ele>99.0</ele><time>2016-06-18T03:03:04.296Z</time></trkpt><trkpt lat="58.49194833" lon="15.00074333"><ele>99.0</ele><time>2016-06-18T03:03:05.293Z</time></trkpt><trkpt lat="58.49182667" lon="15.00053"><ele>99.0</ele><time>2016-06-18T03:03:06.295Z</time></trkpt><trkpt lat="58.49182667" lon="15.00053"><ele>99.0</ele><time>2016-06-18T03:03:07.293Z</time></trkpt><trkpt lat="58.49170833" lon="15.00031167"><ele>98.0</ele><time>2016-06-18T03:03:08.295Z</time></trkpt><trkpt lat="58.49170833" lon="15.00031167"><ele>98.0</ele><time>2016-06-18T03:03:09.293Z</time></trkpt><trkpt lat="58.49159667" lon="15.00008333"><ele>98.0</ele><time>2016-06-18T03:03:10.295Z</time></trkpt><trkpt lat="58.49159667" lon="15.00008333"><ele>98.0</ele><time>2016-06-18T03:03:11.298Z</time></trkpt><trkpt lat="58.49148833" lon="14.99985"><ele>99.0</ele><time>2016-06-18T03:03:12.295Z</time></trkpt><trkpt lat="58.49143833" lon="14.999735"><ele>99.0</ele><time>2016-06-18T03:03:13.296Z</time></trkpt><trkpt lat="58.49143833" lon="14.999735"><ele>99.0</ele><time>2016-06-18T03:03:14.292Z</time></trkpt><trkpt lat="58.49133667" lon="14.99950667"><ele>99.0</ele><time>2016-06-18T03:03:15.296Z</time></trkpt><trkpt lat="58.49128667" lon="14.99939167"><ele>99.0</ele><time>2016-06-18T03:03:16.295Z</time></trkpt><trkpt lat="58.49128667" lon="14.99939167"><ele>99.0</ele><time>2016-06-18T03:03:17.293Z</time></trkpt><trkpt lat="58.49119" lon="14.999165"><ele>99.0</ele><time>2016-06-18T03:03:18.295Z</time></trkpt><trkpt lat="58.49119" lon="14.999165"><ele>99.0</ele><time>2016-06-18T03:03:19.293Z</time></trkpt><trkpt lat="58.49109667" lon="14.99894333"><ele>100.0</ele><time>2016-06-18T03:03:20.297Z</time></trkpt><trkpt lat="58.49109667" lon="14.99894333"><ele>100.0</ele><time>2016-06-18T03:03:21.293Z</time></trkpt><trkpt lat="58.491005" lon="14.99872667"><ele>100.0</ele><time>2016-06-18T03:03:22.296Z</time></trkpt><trkpt lat="58.491005" lon="14.99872667"><ele>100.0</ele><time>2016-06-18T03:03:23.293Z</time></trkpt><trkpt lat="58.49091833" lon="14.99850833"><ele>100.0</ele><time>2016-06-18T03:03:24.295Z</time></trkpt><trkpt lat="58.49091833" lon="14.99850833"><ele>100.0</ele><time>2016-06-18T03:03:25.293Z</time></trkpt><trkpt lat="58.49083" lon="14.998295"><ele>101.0</ele><time>2016-06-18T03:03:26.296Z</time></trkpt><trkpt lat="58.49083" lon="14.998295"><ele>101.0</ele><time>2016-06-18T03:03:27.293Z</time></trkpt><trkpt lat="58.49074" lon="14.99808333"><ele>101.0</ele><time>2016-06-18T03:03:28.295Z</time></trkpt><trkpt lat="58.49069667" lon="14.99797667"><ele>101.0</ele><time>2016-06-18T03:03:29.295Z</time></trkpt><trkpt lat="58.49069667" lon="14.99797667"><ele>101.0</ele><time>2016-06-18T03:03:30.292Z</time></trkpt><trkpt lat="58.49060667" lon="14.99776167"><ele>101.0</ele><time>2016-06-18T03:03:31.294Z</time></trkpt><trkpt lat="58.49056167" lon="14.997655"><ele>102.0</ele><time>2016-06-18T03:03:32.296Z</time></trkpt><trkpt lat="58.49056167" lon="14.997655"><ele>102.0</ele><time>2016-06-18T03:03:33.293Z</time></trkpt><trkpt lat="58.49047333" lon="14.99744333"><ele>102.0</ele><time>2016-06-18T03:03:34.295Z</time></trkpt><trkpt lat="58.49047333" lon="14.99744333"><ele>102.0</ele><time>2016-06-18T03:03:35.293Z</time></trkpt><trkpt lat="58.49038833" lon="14.99723167"><ele>102.0</ele><time>2016-06-18T03:03:36.294Z</time></trkpt><trkpt lat="58.49038833" lon="14.99723167"><ele>102.0</ele><time>2016-06-18T03:03:37.293Z</time></trkpt><trkpt lat="58.49030167" lon="14.997025"><ele>102.0</ele><time>2016-06-18T03:03:38.297Z</time></trkpt><trkpt lat="58.49030167" lon="14.997025"><ele>102.0</ele><time>2016-06-18T03:03:39.293Z</time></trkpt><trkpt lat="58.49021667" lon="14.99682"><ele>102.0</ele><time>2016-06-18T03:03:40.295Z</time></trkpt><trkpt lat="58.49021667" lon="14.99682"><ele>102.0</ele><time>2016-06-18T03:03:41.293Z</time></trkpt><trkpt lat="58.49013" lon="14.99661"><ele>102.0</ele><time>2016-06-18T03:03:42.295Z</time></trkpt><trkpt lat="58.49013" lon="14.99661"><ele>102.0</ele><time>2016-06-18T03:03:43.294Z</time></trkpt><trkpt lat="58.49004333" lon="14.99639667"><ele>103.0</ele><time>2016-06-18T03:03:44.296Z</time></trkpt><trkpt lat="58.49004333" lon="14.99639667"><ele>103.0</ele><time>2016-06-18T03:03:45.293Z</time></trkpt><trkpt lat="58.489955" lon="14.99618833"><ele>103.0</ele><time>2016-06-18T03:03:46.295Z</time></trkpt><trkpt lat="58.489955" lon="14.99618833"><ele>103.0</ele><time>2016-06-18T03:03:47.293Z</time></trkpt><trkpt lat="58.48986667" lon="14.99598"><ele>103.0</ele><time>2016-06-18T03:03:48.295Z</time></trkpt><trkpt lat="58.48986667" lon="14.99598"><ele>103.0</ele><time>2016-06-18T03:03:49.295Z</time></trkpt><trkpt lat="58.48978" lon="14.99577167"><ele>103.0</ele><time>2016-06-18T03:03:50.296Z</time></trkpt><trkpt lat="58.48978" lon="14.99577167"><ele>103.0</ele><time>2016-06-18T03:03:51.293Z</time></trkpt><trkpt lat="58.48969" lon="14.99556667"><ele>103.0</ele><time>2016-06-18T03:03:52.296Z</time></trkpt><trkpt lat="58.48969" lon="14.99556667"><ele>103.0</ele><time>2016-06-18T03:03:53.293Z</time></trkpt><trkpt lat="58.48960167" lon="14.99536167"><ele>103.0</ele><time>2016-06-18T03:03:54.294Z</time></trkpt><trkpt lat="58.48960167" lon="14.99536167"><ele>103.0</ele><time>2016-06-18T03:03:55.293Z</time></trkpt><trkpt lat="58.48951167" lon="14.99515667"><ele>104.0</ele><time>2016-06-18T03:03:56.296Z</time></trkpt><trkpt lat="58.48951167" lon="14.99515667"><ele>104.0</ele><time>2016-06-18T03:03:57.293Z</time></trkpt><trkpt lat="58.48942" lon="14.99495333"><ele>104.0</ele><time>2016-06-18T03:03:58.294Z</time></trkpt><trkpt lat="58.48942" lon="14.99495333"><ele>104.0</ele><time>2016-06-18T03:03:59.293Z</time></trkpt><trkpt lat="58.489325" lon="14.994755"><ele>104.0</ele><time>2016-06-18T03:04:00.305Z</time></trkpt><trkpt lat="58.489325" lon="14.994755"><ele>104.0</ele><time>2016-06-18T03:04:01.293Z</time></trkpt><trkpt lat="58.48923167" lon="14.994565"><ele>105.0</ele><time>2016-06-18T03:04:02.293Z</time></trkpt><trkpt lat="58.48923167" lon="14.994565"><ele>105.0</ele><time>2016-06-18T03:04:03.294Z</time></trkpt><trkpt lat="58.489135" lon="14.994385"><ele>105.0</ele><time>2016-06-18T03:04:04.307Z</time></trkpt><trkpt lat="58.48908667" lon="14.99429833"><ele>105.0</ele><time>2016-06-18T03:04:05.296Z</time></trkpt><trkpt lat="58.48908667" lon="14.99429833"><ele>105.0</ele><time>2016-06-18T03:04:06.293Z</time></trkpt><trkpt lat="58.48898833" lon="14.99412333"><ele>106.0</ele><time>2016-06-18T03:04:07.298Z</time></trkpt><trkpt lat="58.48898833" lon="14.99412333"><ele>106.0</ele><time>2016-06-18T03:04:08.294Z</time></trkpt><trkpt lat="58.48889" lon="14.99396167"><ele>106.0</ele><time>2016-06-18T03:04:09.307Z</time></trkpt><trkpt lat="58.48884" lon="14.99388"><ele>107.0</ele><time>2016-06-18T03:04:10.301Z</time></trkpt><trkpt lat="58.48884" lon="14.99388"><ele>107.0</ele><time>2016-06-18T03:04:11.292Z</time></trkpt><trkpt lat="58.48873833" lon="14.99372"><ele>107.0</ele><time>2016-06-18T03:04:12.293Z</time></trkpt><trkpt lat="58.48868833" lon="14.99364167"><ele>107.0</ele><time>2016-06-18T03:04:13.296Z</time></trkpt><trkpt lat="58.48868833" lon="14.99364167"><ele>107.0</ele><time>2016-06-18T03:04:14.293Z</time></trkpt><trkpt lat="58.488585" lon="14.99348167"><ele>107.0</ele><time>2016-06-18T03:04:15.296Z</time></trkpt><trkpt lat="58.48853167" lon="14.99340333"><ele>107.0</ele><time>2016-06-18T03:04:16.296Z</time></trkpt><trkpt lat="58.48847833" lon="14.99332333"><ele>107.0</ele><time>2016-06-18T03:04:17.296Z</time></trkpt><trkpt lat="58.48847833" lon="14.99332333"><ele>107.0</ele><time>2016-06-18T03:04:18.293Z</time></trkpt><trkpt lat="58.48836833" lon="14.99316333"><ele>107.0</ele><time>2016-06-18T03:04:19.296Z</time></trkpt><trkpt lat="58.48831333" lon="14.99308167"><ele>107.0</ele><time>2016-06-18T03:04:20.296Z</time></trkpt><trkpt lat="58.48831333" lon="14.99308167"><ele>107.0</ele><time>2016-06-18T03:04:21.294Z</time></trkpt><trkpt lat="58.4882" lon="14.99291667"><ele>107.0</ele><time>2016-06-18T03:04:22.295Z</time></trkpt><trkpt lat="58.48814167" lon="14.99283333"><ele>107.0</ele><time>2016-06-18T03:04:23.297Z</time></trkpt><trkpt lat="58.48814167" lon="14.99283333"><ele>107.0</ele><time>2016-06-18T03:04:24.293Z</time></trkpt><trkpt lat="58.48802167" lon="14.99266"><ele>107.0</ele><time>2016-06-18T03:04:25.295Z</time></trkpt><trkpt lat="58.48796" lon="14.99257333"><ele>107.0</ele><time>2016-06-18T03:04:26.296Z</time></trkpt><trkpt lat="58.487895" lon="14.99248667"><ele>107.0</ele><time>2016-06-18T03:04:27.296Z</time></trkpt><trkpt lat="58.48782833" lon="14.99239667"><ele>107.0</ele><time>2016-06-18T03:04:28.296Z</time></trkpt><trkpt lat="58.48782833" lon="14.99239667"><ele>107.0</ele><time>2016-06-18T03:04:29.294Z</time></trkpt><trkpt lat="58.48769833" lon="14.99220667"><ele>107.0</ele><time>2016-06-18T03:04:30.296Z</time></trkpt><trkpt lat="58.48769833" lon="14.99220667"><ele>107.0</ele><time>2016-06-18T03:04:31.294Z</time></trkpt><trkpt lat="58.48756667" lon="14.99201"><ele>107.0</ele><time>2016-06-18T03:04:32.296Z</time></trkpt><trkpt lat="58.48756667" lon="14.99201"><ele>107.0</ele><time>2016-06-18T03:04:33.294Z</time></trkpt><trkpt lat="58.487425" lon="14.991825"><ele>107.0</ele><time>2016-06-18T03:04:34.296Z</time></trkpt><trkpt lat="58.48735667" lon="14.99172667"><ele>107.0</ele><time>2016-06-18T03:04:35.297Z</time></trkpt><trkpt lat="58.48735667" lon="14.99172667"><ele>107.0</ele><time>2016-06-18T03:04:36.294Z</time></trkpt><trkpt lat="58.48721667" lon="14.99153833"><ele>108.0</ele><time>2016-06-18T03:04:37.296Z</time></trkpt><trkpt lat="58.48721667" lon="14.99153833"><ele>108.0</ele><time>2016-06-18T03:04:38.293Z</time></trkpt><trkpt lat="58.487075" lon="14.99136667"><ele>108.0</ele><time>2016-06-18T03:04:39.297Z</time></trkpt><trkpt lat="58.487075" lon="14.99136667"><ele>108.0</ele><time>2016-06-18T03:04:40.293Z</time></trkpt><trkpt lat="58.48694333" lon="14.99117"><ele>108.0</ele><time>2016-06-18T03:04:41.293Z</time></trkpt><trkpt lat="58.48694333" lon="14.99117"><ele>108.0</ele><time>2016-06-18T03:04:42.291Z</time></trkpt><trkpt lat="58.48681" lon="14.99097167"><ele>108.0</ele><time>2016-06-18T03:04:43.295Z</time></trkpt><trkpt lat="58.48674333" lon="14.99087167"><ele>108.0</ele><time>2016-06-18T03:04:44.297Z</time></trkpt><trkpt lat="58.48674333" lon="14.99087167"><ele>108.0</ele><time>2016-06-18T03:04:45.294Z</time></trkpt><trkpt lat="58.48660833" lon="14.99067167"><ele>108.0</ele><time>2016-06-18T03:04:46.295Z</time></trkpt><trkpt lat="58.48654167" lon="14.99057"><ele>108.0</ele><time>2016-06-18T03:04:47.296Z</time></trkpt><trkpt lat="58.48654167" lon="14.99057"><ele>108.0</ele><time>2016-06-18T03:04:48.293Z</time></trkpt><trkpt lat="58.48641" lon="14.99037333"><ele>108.0</ele><time>2016-06-18T03:04:49.297Z</time></trkpt><trkpt lat="58.48641" lon="14.99037333"><ele>108.0</ele><time>2016-06-18T03:04:50.294Z</time></trkpt><trkpt lat="58.48629167" lon="14.99018"><ele>109.0</ele><time>2016-06-18T03:04:51.316Z</time></trkpt><trkpt lat="58.48629167" lon="14.99018"><ele>109.0</ele><time>2016-06-18T03:04:52.295Z</time></trkpt><trkpt lat="58.48619167" lon="14.98999167"><ele>110.0</ele><time>2016-06-18T03:04:53.294Z</time></trkpt><trkpt lat="58.48613833" lon="14.989905"><ele>110.0</ele><time>2016-06-18T03:04:54.297Z</time></trkpt><trkpt lat="58.48613833" lon="14.989905"><ele>110.0</ele><time>2016-06-18T03:04:55.294Z</time></trkpt><trkpt lat="58.48603333" lon="14.98973667"><ele>112.0</ele><time>2016-06-18T03:04:56.300Z</time></trkpt><trkpt lat="58.48598333" lon="14.989655"><ele>112.0</ele><time>2016-06-18T03:04:57.296Z</time></trkpt><trkpt lat="58.48593167" lon="14.98957667"><ele>113.0</ele><time>2016-06-18T03:04:58.296Z</time></trkpt><trkpt lat="58.48593167" lon="14.98957667"><ele>113.0</ele><time>2016-06-18T03:04:59.295Z</time></trkpt><trkpt lat="58.48583167" lon="14.98941833"><ele>114.0</ele><time>2016-06-18T03:05:00.298Z</time></trkpt><trkpt lat="58.48578333" lon="14.98933833"><ele>115.0</ele><time>2016-06-18T03:05:01.296Z</time></trkpt><trkpt lat="58.48578333" lon="14.98933833"><ele>115.0</ele><time>2016-06-18T03:05:02.294Z</time></trkpt><trkpt lat="58.48568667" lon="14.98918"><ele>116.0</ele><time>2016-06-18T03:05:03.297Z</time></trkpt><trkpt lat="58.48564" lon="14.98910333"><ele>116.0</ele><time>2016-06-18T03:05:04.297Z</time></trkpt><trkpt lat="58.48564" lon="14.98910333"><ele>116.0</ele><time>2016-06-18T03:05:05.295Z</time></trkpt><trkpt lat="58.48554667" lon="14.98894667"><ele>117.0</ele><time>2016-06-18T03:05:06.297Z</time></trkpt><trkpt lat="58.48554667" lon="14.98894667"><ele>117.0</ele><time>2016-06-18T03:05:07.287Z</time></trkpt><trkpt lat="58.48544667" lon="14.98878833"><ele>117.0</ele><time>2016-06-18T03:05:08.312Z</time></trkpt><trkpt lat="58.48539833" lon="14.98870333"><ele>117.0</ele><time>2016-06-18T03:05:09.298Z</time></trkpt><trkpt lat="58.48539833" lon="14.98870333"><ele>117.0</ele><time>2016-06-18T03:05:10.293Z</time></trkpt><trkpt lat="58.48529833" lon="14.988535"><ele>118.0</ele><time>2016-06-18T03:05:11.316Z</time></trkpt><trkpt lat="58.48529833" lon="14.988535"><ele>118.0</ele><time>2016-06-18T03:05:12.294Z</time></trkpt><trkpt lat="58.48519833" lon="14.98835333"><ele>118.0</ele><time>2016-06-18T03:05:13.294Z</time></trkpt><trkpt lat="58.48519833" lon="14.98835333"><ele>118.0</ele><time>2016-06-18T03:05:14.293Z</time></trkpt><trkpt lat="58.4851" lon="14.98815"><ele>119.0</ele><time>2016-06-18T03:05:15.296Z</time></trkpt><trkpt lat="58.485055" lon="14.98804167"><ele>119.0</ele><time>2016-06-18T03:05:16.297Z</time></trkpt><trkpt lat="58.485055" lon="14.98804167"><ele>119.0</ele><time>2016-06-18T03:05:17.294Z</time></trkpt><trkpt lat="58.48496333" lon="14.987825"><ele>119.0</ele><time>2016-06-18T03:05:18.293Z</time></trkpt><trkpt lat="58.48492" lon="14.98771167"><ele>119.0</ele><time>2016-06-18T03:05:19.295Z</time></trkpt><trkpt lat="58.48492" lon="14.98771167"><ele>119.0</ele><time>2016-06-18T03:05:20.294Z</time></trkpt><trkpt lat="58.48483167" lon="14.98748167"><ele>119.0</ele><time>2016-06-18T03:05:21.317Z</time></trkpt><trkpt lat="58.48483167" lon="14.98748167"><ele>119.0</ele><time>2016-06-18T03:05:22.303Z</time></trkpt><trkpt lat="58.48474833" lon="14.98724833"><ele>119.0</ele><time>2016-06-18T03:05:23.297Z</time></trkpt><trkpt lat="58.48474833" lon="14.98724833"><ele>119.0</ele><time>2016-06-18T03:05:24.287Z</time></trkpt><trkpt lat="58.484665" lon="14.98699833"><ele>118.0</ele><time>2016-06-18T03:05:25.312Z</time></trkpt><trkpt lat="58.484665" lon="14.98699833"><ele>118.0</ele><time>2016-06-18T03:05:26.297Z</time></trkpt><trkpt lat="58.48458" lon="14.98672833"><ele>118.0</ele><time>2016-06-18T03:05:27.297Z</time></trkpt><trkpt lat="58.48453833" lon="14.98658333"><ele>117.0</ele><time>2016-06-18T03:05:28.297Z</time></trkpt><trkpt lat="58.48453833" lon="14.98658333"><ele>117.0</ele><time>2016-06-18T03:05:29.296Z</time></trkpt><trkpt lat="58.48445667" lon="14.98628"><ele>116.0</ele><time>2016-06-18T03:05:30.296Z</time></trkpt><trkpt lat="58.48445667" lon="14.98628"><ele>116.0</ele><time>2016-06-18T03:05:31.295Z</time></trkpt><trkpt lat="58.484375" lon="14.985965"><ele>116.0</ele><time>2016-06-18T03:05:32.294Z</time></trkpt><trkpt lat="58.484335" lon="14.98580167"><ele>115.0</ele><time>2016-06-18T03:05:33.296Z</time></trkpt><trkpt lat="58.48429333" lon="14.98563667"><ele>115.0</ele><time>2016-06-18T03:05:34.297Z</time></trkpt><trkpt lat="58.48429333" lon="14.98563667"><ele>115.0</ele><time>2016-06-18T03:05:35.294Z</time></trkpt><trkpt lat="58.48421167" lon="14.98530333"><ele>115.0</ele><time>2016-06-18T03:05:36.296Z</time></trkpt><trkpt lat="58.48421167" lon="14.98530333"><ele>115.0</ele><time>2016-06-18T03:05:37.294Z</time></trkpt><trkpt lat="58.48413167" lon="14.984965"><ele>114.0</ele><time>2016-06-18T03:05:38.309Z</time></trkpt><trkpt lat="58.48413167" lon="14.984965"><ele>114.0</ele><time>2016-06-18T03:05:39.295Z</time></trkpt><trkpt lat="58.48405333" lon="14.98463167"><ele>113.0</ele><time>2016-06-18T03:05:40.297Z</time></trkpt><trkpt lat="58.48405333" lon="14.98463167"><ele>113.0</ele><time>2016-06-18T03:05:41.295Z</time></trkpt><trkpt lat="58.48397667" lon="14.98429833"><ele>112.0</ele><time>2016-06-18T03:05:42.299Z</time></trkpt><trkpt lat="58.48394" lon="14.984135"><ele>112.0</ele><time>2016-06-18T03:05:43.297Z</time></trkpt><trkpt lat="58.48390333" lon="14.983975"><ele>112.0</ele><time>2016-06-18T03:05:44.298Z</time></trkpt><trkpt lat="58.48390333" lon="14.983975"><ele>112.0</ele><time>2016-06-18T03:05:45.295Z</time></trkpt><trkpt lat="58.48382833" lon="14.98367"><ele>112.0</ele><time>2016-06-18T03:05:46.297Z</time></trkpt><trkpt lat="58.48382833" lon="14.98367"><ele>112.0</ele><time>2016-06-18T03:05:47.295Z</time></trkpt><trkpt lat="58.48375167" lon="14.98337833"><ele>112.0</ele><time>2016-06-18T03:05:48.295Z</time></trkpt><trkpt lat="58.48375167" lon="14.98337833"><ele>112.0</ele><time>2016-06-18T03:05:49.295Z</time></trkpt><trkpt lat="58.483685" lon="14.98309667"><ele>111.0</ele><time>2016-06-18T03:05:50.297Z</time></trkpt><trkpt lat="58.483685" lon="14.98309667"><ele>111.0</ele><time>2016-06-18T03:05:51.295Z</time></trkpt><trkpt lat="58.48361833" lon="14.982825"><ele>111.0</ele><time>2016-06-18T03:05:52.297Z</time></trkpt><trkpt lat="58.48358333" lon="14.98269333"><ele>111.0</ele><time>2016-06-18T03:05:53.296Z</time></trkpt><trkpt lat="58.48358333" lon="14.98269333"><ele>111.0</ele><time>2016-06-18T03:05:54.295Z</time></trkpt><trkpt lat="58.48352667" lon="14.98242333"><ele>111.0</ele><time>2016-06-18T03:05:55.296Z</time></trkpt><trkpt lat="58.4835" lon="14.98228833"><ele>112.0</ele><time>2016-06-18T03:05:56.297Z</time></trkpt><trkpt lat="58.4835" lon="14.98228833"><ele>112.0</ele><time>2016-06-18T03:05:57.295Z</time></trkpt><trkpt lat="58.48344167" lon="14.98203333"><ele>112.0</ele><time>2016-06-18T03:05:58.297Z</time></trkpt><trkpt lat="58.48344167" lon="14.98203333"><ele>112.0</ele><time>2016-06-18T03:05:59.296Z</time></trkpt><trkpt lat="58.48338" lon="14.98177"><ele>112.0</ele><time>2016-06-18T03:06:00.303Z</time></trkpt><trkpt lat="58.48338" lon="14.98177"><ele>112.0</ele><time>2016-06-18T03:06:01.295Z</time></trkpt><trkpt lat="58.483315" lon="14.98150333"><ele>113.0</ele><time>2016-06-18T03:06:02.298Z</time></trkpt><trkpt lat="58.483315" lon="14.98150333"><ele>113.0</ele><time>2016-06-18T03:06:03.294Z</time></trkpt><trkpt lat="58.48324833" lon="14.98120833"><ele>114.0</ele><time>2016-06-18T03:06:04.297Z</time></trkpt><trkpt lat="58.48324833" lon="14.98120833"><ele>114.0</ele><time>2016-06-18T03:06:05.295Z</time></trkpt><trkpt lat="58.48317667" lon="14.98092833"><ele>114.0</ele><time>2016-06-18T03:06:06.297Z</time></trkpt><trkpt lat="58.48317667" lon="14.98092833"><ele>114.0</ele><time>2016-06-18T03:06:07.295Z</time></trkpt><trkpt lat="58.48310333" lon="14.98065167"><ele>114.0</ele><time>2016-06-18T03:06:08.298Z</time></trkpt><trkpt lat="58.48310333" lon="14.98065167"><ele>114.0</ele><time>2016-06-18T03:06:09.295Z</time></trkpt><trkpt lat="58.48301667" lon="14.98038667"><ele>114.0</ele><time>2016-06-18T03:06:10.297Z</time></trkpt><trkpt lat="58.48301667" lon="14.98038667"><ele>114.0</ele><time>2016-06-18T03:06:11.317Z</time></trkpt><trkpt lat="58.482925" lon="14.98013"><ele>114.0</ele><time>2016-06-18T03:06:12.305Z</time></trkpt><trkpt lat="58.48287833" lon="14.980005"><ele>114.0</ele><time>2016-06-18T03:06:13.297Z</time></trkpt><trkpt lat="58.48287833" lon="14.980005"><ele>114.0</ele><time>2016-06-18T03:06:14.295Z</time></trkpt><trkpt lat="58.482785" lon="14.97975333"><ele>114.0</ele><time>2016-06-18T03:06:15.296Z</time></trkpt><trkpt lat="58.48273667" lon="14.97962333"><ele>114.0</ele><time>2016-06-18T03:06:16.296Z</time></trkpt><trkpt lat="58.48273667" lon="14.97962333"><ele>114.0</ele><time>2016-06-18T03:06:17.295Z</time></trkpt><trkpt lat="58.482645" lon="14.97937167"><ele>114.0</ele><time>2016-06-18T03:06:18.297Z</time></trkpt><trkpt lat="58.482645" lon="14.97937167"><ele>114.0</ele><time>2016-06-18T03:06:19.295Z</time></trkpt><trkpt lat="58.48255167" lon="14.97911833"><ele>114.0</ele><time>2016-06-18T03:06:20.297Z</time></trkpt><trkpt lat="58.48255167" lon="14.97911833"><ele>114.0</ele><time>2016-06-18T03:06:21.295Z</time></trkpt><trkpt lat="58.48245333" lon="14.97886833"><ele>114.0</ele><time>2016-06-18T03:06:22.297Z</time></trkpt><trkpt lat="58.48245333" lon="14.97886833"><ele>114.0</ele><time>2016-06-18T03:06:23.294Z</time></trkpt><trkpt lat="58.48235833" lon="14.97861"><ele>113.0</ele><time>2016-06-18T03:06:24.296Z</time></trkpt><trkpt lat="58.48235833" lon="14.97861"><ele>113.0</ele><time>2016-06-18T03:06:25.295Z</time></trkpt><trkpt lat="58.48225667" lon="14.978335"><ele>113.0</ele><time>2016-06-18T03:06:26.298Z</time></trkpt><trkpt lat="58.48225667" lon="14.978335"><ele>113.0</ele><time>2016-06-18T03:06:27.295Z</time></trkpt><trkpt lat="58.48215333" lon="14.97804833"><ele>113.0</ele><time>2016-06-18T03:06:28.297Z</time></trkpt><trkpt lat="58.48215333" lon="14.97804833"><ele>113.0</ele><time>2016-06-18T03:06:29.285Z</time></trkpt><trkpt lat="58.48205167" lon="14.97774333"><ele>112.0</ele><time>2016-06-18T03:06:30.311Z</time></trkpt><trkpt lat="58.48199667" lon="14.977595"><ele>112.0</ele><time>2016-06-18T03:06:31.297Z</time></trkpt><trkpt lat="58.48199667" lon="14.977595"><ele>112.0</ele><time>2016-06-18T03:06:32.295Z</time></trkpt><trkpt lat="58.48189333" lon="14.97729833"><ele>111.0</ele><time>2016-06-18T03:06:33.301Z</time></trkpt><trkpt lat="58.48189333" lon="14.97729833"><ele>111.0</ele><time>2016-06-18T03:06:34.295Z</time></trkpt><trkpt lat="58.48179167" lon="14.97702"><ele>111.0</ele><time>2016-06-18T03:06:35.296Z</time></trkpt><trkpt lat="58.48179167" lon="14.97702"><ele>111.0</ele><time>2016-06-18T03:06:36.294Z</time></trkpt><trkpt lat="58.481695" lon="14.97675667"><ele>111.0</ele><time>2016-06-18T03:06:37.299Z</time></trkpt><trkpt lat="58.481645" lon="14.97662667"><ele>111.0</ele><time>2016-06-18T03:06:38.297Z</time></trkpt><trkpt lat="58.481645" lon="14.97662667"><ele>111.0</ele><time>2016-06-18T03:06:39.295Z</time></trkpt><trkpt lat="58.481545" lon="14.97636667"><ele>111.0</ele><time>2016-06-18T03:06:40.297Z</time></trkpt><trkpt lat="58.481545" lon="14.97636667"><ele>111.0</ele><time>2016-06-18T03:06:41.295Z</time></trkpt><trkpt lat="58.48144833" lon="14.97610333"><ele>111.0</ele><time>2016-06-18T03:06:42.299Z</time></trkpt><trkpt lat="58.48144833" lon="14.97610333"><ele>111.0</ele><time>2016-06-18T03:06:43.295Z</time></trkpt><trkpt lat="58.48135333" lon="14.97583833"><ele>111.0</ele><time>2016-06-18T03:06:44.299Z</time></trkpt><trkpt lat="58.48135333" lon="14.97583833"><ele>111.0</ele><time>2016-06-18T03:06:45.295Z</time></trkpt><trkpt lat="58.481255" lon="14.97557667"><ele>112.0</ele><time>2016-06-18T03:06:46.297Z</time></trkpt><trkpt lat="58.481255" lon="14.97557667"><ele>112.0</ele><time>2016-06-18T03:06:47.295Z</time></trkpt><trkpt lat="58.48115833" lon="14.97531667"><ele>112.0</ele><time>2016-06-18T03:06:48.297Z</time></trkpt><trkpt lat="58.48115833" lon="14.97531667"><ele>112.0</ele><time>2016-06-18T03:06:49.294Z</time></trkpt><trkpt lat="58.481055" lon="14.97506667"><ele>113.0</ele><time>2016-06-18T03:06:50.299Z</time></trkpt><trkpt lat="58.481055" lon="14.97506667"><ele>113.0</ele><time>2016-06-18T03:06:51.295Z</time></trkpt><trkpt lat="58.48095167" lon="14.97481167"><ele>113.0</ele><time>2016-06-18T03:06:52.297Z</time></trkpt><trkpt lat="58.48095167" lon="14.97481167"><ele>113.0</ele><time>2016-06-18T03:06:53.288Z</time></trkpt><trkpt lat="58.48085667" lon="14.97454833"><ele>113.0</ele><time>2016-06-18T03:06:54.297Z</time></trkpt><trkpt lat="58.48085667" lon="14.97454833"><ele>113.0</ele><time>2016-06-18T03:06:55.299Z</time></trkpt><trkpt lat="58.48076167" lon="14.97429"><ele>112.0</ele><time>2016-06-18T03:06:56.298Z</time></trkpt><trkpt lat="58.48076167" lon="14.97429"><ele>112.0</ele><time>2016-06-18T03:06:57.295Z</time></trkpt><trkpt lat="58.480665" lon="14.97402667"><ele>112.0</ele><time>2016-06-18T03:06:58.297Z</time></trkpt><trkpt lat="58.480665" lon="14.97402667"><ele>112.0</ele><time>2016-06-18T03:06:59.296Z</time></trkpt><trkpt lat="58.48056167" lon="14.97376"><ele>111.0</ele><time>2016-06-18T03:07:00.300Z</time></trkpt><trkpt lat="58.48056167" lon="14.97376"><ele>111.0</ele><time>2016-06-18T03:07:01.296Z</time></trkpt><trkpt lat="58.48045333" lon="14.97349167"><ele>111.0</ele><time>2016-06-18T03:07:02.298Z</time></trkpt><trkpt lat="58.48045333" lon="14.97349167"><ele>111.0</ele><time>2016-06-18T03:07:03.295Z</time></trkpt><trkpt lat="58.48035" lon="14.973215"><ele>111.0</ele><time>2016-06-18T03:07:04.297Z</time></trkpt><trkpt lat="58.48035" lon="14.973215"><ele>111.0</ele><time>2016-06-18T03:07:05.296Z</time></trkpt><trkpt lat="58.48024667" lon="14.97293333"><ele>110.0</ele><time>2016-06-18T03:07:06.296Z</time></trkpt><trkpt lat="58.480195" lon="14.972795"><ele>110.0</ele><time>2016-06-18T03:07:07.296Z</time></trkpt><trkpt lat="58.480195" lon="14.972795"><ele>110.0</ele><time>2016-06-18T03:07:08.294Z</time></trkpt><trkpt lat="58.48009333" lon="14.97252167"><ele>110.0</ele><time>2016-06-18T03:07:09.297Z</time></trkpt><trkpt lat="58.48009333" lon="14.97252167"><ele>110.0</ele><time>2016-06-18T03:07:10.294Z</time></trkpt><trkpt lat="58.479985" lon="14.97223667"><ele>110.0</ele><time>2016-06-18T03:07:11.312Z</time></trkpt><trkpt lat="58.479985" lon="14.97223667"><ele>110.0</ele><time>2016-06-18T03:07:12.295Z</time></trkpt><trkpt lat="58.47987667" lon="14.97193667"><ele>110.0</ele><time>2016-06-18T03:07:13.294Z</time></trkpt><trkpt lat="58.47981833" lon="14.97179"><ele>109.0</ele><time>2016-06-18T03:07:14.298Z</time></trkpt><trkpt lat="58.479765" lon="14.97163833"><ele>109.0</ele><time>2016-06-18T03:07:15.296Z</time></trkpt><trkpt lat="58.479715" lon="14.97148167"><ele>109.0</ele><time>2016-06-18T03:07:16.298Z</time></trkpt><trkpt lat="58.479715" lon="14.97148167"><ele>109.0</ele><time>2016-06-18T03:07:17.296Z</time></trkpt><trkpt lat="58.47961667" lon="14.97117167"><ele>109.0</ele><time>2016-06-18T03:07:18.296Z</time></trkpt><trkpt lat="58.47961667" lon="14.97117167"><ele>109.0</ele><time>2016-06-18T03:07:19.296Z</time></trkpt><trkpt lat="58.47951333" lon="14.97084833"><ele>109.0</ele><time>2016-06-18T03:07:20.298Z</time></trkpt><trkpt lat="58.47946667" lon="14.970685"><ele>109.0</ele><time>2016-06-18T03:07:21.299Z</time></trkpt><trkpt lat="58.47942" lon="14.970525"><ele>109.0</ele><time>2016-06-18T03:07:22.297Z</time></trkpt><trkpt lat="58.47942" lon="14.970525"><ele>109.0</ele><time>2016-06-18T03:07:23.297Z</time></trkpt><trkpt lat="58.47933" lon="14.97020333"><ele>109.0</ele><time>2016-06-18T03:07:24.297Z</time></trkpt><trkpt lat="58.47933" lon="14.97020333"><ele>109.0</ele><time>2016-06-18T03:07:25.296Z</time></trkpt><trkpt lat="58.479245" lon="14.96989167"><ele>109.0</ele><time>2016-06-18T03:07:26.297Z</time></trkpt><trkpt lat="58.479245" lon="14.96989167"><ele>109.0</ele><time>2016-06-18T03:07:27.296Z</time></trkpt><trkpt lat="58.47916333" lon="14.96959333"><ele>109.0</ele><time>2016-06-18T03:07:28.298Z</time></trkpt><trkpt lat="58.47912167" lon="14.96944667"><ele>109.0</ele><time>2016-06-18T03:07:29.297Z</time></trkpt><trkpt lat="58.47912167" lon="14.96944667"><ele>109.0</ele><time>2016-06-18T03:07:30.296Z</time></trkpt><trkpt lat="58.47904333" lon="14.96914667"><ele>109.0</ele><time>2016-06-18T03:07:31.296Z</time></trkpt><trkpt lat="58.47904333" lon="14.96914667"><ele>109.0</ele><time>2016-06-18T03:07:32.295Z</time></trkpt><trkpt lat="58.478965" lon="14.96884667"><ele>109.0</ele><time>2016-06-18T03:07:33.303Z</time></trkpt><trkpt lat="58.47892667" lon="14.968695"><ele>109.0</ele><time>2016-06-18T03:07:34.298Z</time></trkpt><trkpt lat="58.47892667" lon="14.968695"><ele>109.0</ele><time>2016-06-18T03:07:35.296Z</time></trkpt><trkpt lat="58.47885333" lon="14.96837"><ele>109.0</ele><time>2016-06-18T03:07:36.316Z</time></trkpt><trkpt lat="58.47885333" lon="14.96837"><ele>109.0</ele><time>2016-06-18T03:07:37.300Z</time></trkpt><trkpt lat="58.47877333" lon="14.96805333"><ele>109.0</ele><time>2016-06-18T03:07:38.298Z</time></trkpt><trkpt lat="58.47877333" lon="14.96805333"><ele>109.0</ele><time>2016-06-18T03:07:39.296Z</time></trkpt><trkpt lat="58.47869833" lon="14.96773667"><ele>108.0</ele><time>2016-06-18T03:07:40.298Z</time></trkpt><trkpt lat="58.47869833" lon="14.96773667"><ele>108.0</ele><time>2016-06-18T03:07:41.296Z</time></trkpt><trkpt lat="58.47862333" lon="14.96742167"><ele>108.0</ele><time>2016-06-18T03:07:42.298Z</time></trkpt><trkpt lat="58.47862333" lon="14.96742167"><ele>108.0</ele><time>2016-06-18T03:07:43.295Z</time></trkpt><trkpt lat="58.47854167" lon="14.96709667"><ele>108.0</ele><time>2016-06-18T03:07:44.299Z</time></trkpt><trkpt lat="58.47854167" lon="14.96709667"><ele>108.0</ele><time>2016-06-18T03:07:45.296Z</time></trkpt><trkpt lat="58.47845667" lon="14.96676333"><ele>108.0</ele><time>2016-06-18T03:07:46.298Z</time></trkpt><trkpt lat="58.47845667" lon="14.96676333"><ele>108.0</ele><time>2016-06-18T03:07:47.296Z</time></trkpt><trkpt lat="58.478375" lon="14.96643167"><ele>108.0</ele><time>2016-06-18T03:07:48.297Z</time></trkpt><trkpt lat="58.478375" lon="14.96643167"><ele>108.0</ele><time>2016-06-18T03:07:49.296Z</time></trkpt><trkpt lat="58.47829333" lon="14.96611"><ele>108.0</ele><time>2016-06-18T03:07:50.296Z</time></trkpt><trkpt lat="58.47829333" lon="14.96611"><ele>108.0</ele><time>2016-06-18T03:07:51.296Z</time></trkpt><trkpt lat="58.47821167" lon="14.96578667"><ele>108.0</ele><time>2016-06-18T03:07:52.298Z</time></trkpt><trkpt lat="58.47821167" lon="14.96578667"><ele>108.0</ele><time>2016-06-18T03:07:53.295Z</time></trkpt><trkpt lat="58.47813167" lon="14.96547333"><ele>108.0</ele><time>2016-06-18T03:07:54.309Z</time></trkpt><trkpt lat="58.47813167" lon="14.96547333"><ele>108.0</ele><time>2016-06-18T03:07:55.296Z</time></trkpt><trkpt lat="58.47805167" lon="14.96516667"><ele>108.0</ele><time>2016-06-18T03:07:56.299Z</time></trkpt><trkpt lat="58.47805167" lon="14.96516667"><ele>108.0</ele><time>2016-06-18T03:07:57.296Z</time></trkpt><trkpt lat="58.47797333" lon="14.96484333"><ele>108.0</ele><time>2016-06-18T03:07:58.298Z</time></trkpt><trkpt lat="58.47793" lon="14.96467833"><ele>108.0</ele><time>2016-06-18T03:07:59.299Z</time></trkpt><trkpt lat="58.47793" lon="14.96467833"><ele>108.0</ele><time>2016-06-18T03:08:00.299Z</time></trkpt><trkpt lat="58.47784667" lon="14.96434"><ele>109.0</ele><time>2016-06-18T03:08:01.299Z</time></trkpt><trkpt lat="58.47784667" lon="14.96434"><ele>109.0</ele><time>2016-06-18T03:08:02.295Z</time></trkpt><trkpt lat="58.47776167" lon="14.96400167"><ele>108.0</ele><time>2016-06-18T03:08:03.298Z</time></trkpt><trkpt lat="58.47776167" lon="14.96400167"><ele>108.0</ele><time>2016-06-18T03:08:04.295Z</time></trkpt><trkpt lat="58.47767833" lon="14.96365667"><ele>108.0</ele><time>2016-06-18T03:08:05.303Z</time></trkpt><trkpt lat="58.47767833" lon="14.96365667"><ele>108.0</ele><time>2016-06-18T03:08:06.296Z</time></trkpt><trkpt lat="58.477595" lon="14.963305"><ele>108.0</ele><time>2016-06-18T03:08:07.299Z</time></trkpt><trkpt lat="58.47755333" lon="14.96312667"><ele>108.0</ele><time>2016-06-18T03:08:08.299Z</time></trkpt><trkpt lat="58.47755333" lon="14.96312667"><ele>108.0</ele><time>2016-06-18T03:08:09.297Z</time></trkpt><trkpt lat="58.47747333" lon="14.962765"><ele>108.0</ele><time>2016-06-18T03:08:10.296Z</time></trkpt><trkpt lat="58.47747333" lon="14.962765"><ele>108.0</ele><time>2016-06-18T03:08:11.296Z</time></trkpt><trkpt lat="58.47739833" lon="14.96239667"><ele>108.0</ele><time>2016-06-18T03:08:12.299Z</time></trkpt><trkpt lat="58.47739833" lon="14.96239667"><ele>108.0</ele><time>2016-06-18T03:08:13.296Z</time></trkpt><trkpt lat="58.47732667" lon="14.96202333"><ele>107.0</ele><time>2016-06-18T03:08:14.300Z</time></trkpt><trkpt lat="58.47732667" lon="14.96202333"><ele>107.0</ele><time>2016-06-18T03:08:15.296Z</time></trkpt><trkpt lat="58.47725667" lon="14.961645"><ele>107.0</ele><time>2016-06-18T03:08:16.299Z</time></trkpt><trkpt lat="58.47725667" lon="14.961645"><ele>107.0</ele><time>2016-06-18T03:08:17.299Z</time></trkpt><trkpt lat="58.47719" lon="14.96128"><ele>107.0</ele><time>2016-06-18T03:08:18.298Z</time></trkpt><trkpt lat="58.47715833" lon="14.96109667"><ele>106.0</ele><time>2016-06-18T03:08:19.299Z</time></trkpt><trkpt lat="58.47715833" lon="14.96109667"><ele>106.0</ele><time>2016-06-18T03:08:20.295Z</time></trkpt><trkpt lat="58.47709833" lon="14.96071833"><ele>106.0</ele><time>2016-06-18T03:08:21.299Z</time></trkpt><trkpt lat="58.47707167" lon="14.96052167"><ele>105.0</ele><time>2016-06-18T03:08:22.298Z</time></trkpt><trkpt lat="58.47707167" lon="14.96052167"><ele>105.0</ele><time>2016-06-18T03:08:23.296Z</time></trkpt><trkpt lat="58.47702167" lon="14.96012667"><ele>105.0</ele><time>2016-06-18T03:08:24.296Z</time></trkpt><trkpt lat="58.47699667" lon="14.95993333"><ele>105.0</ele><time>2016-06-18T03:08:25.298Z</time></trkpt><trkpt lat="58.476975" lon="14.959745"><ele>104.0</ele><time>2016-06-18T03:08:26.298Z</time></trkpt><trkpt lat="58.476975" lon="14.959745"><ele>104.0</ele><time>2016-06-18T03:08:27.296Z</time></trkpt><trkpt lat="58.47693" lon="14.95938"><ele>104.0</ele><time>2016-06-18T03:08:28.298Z</time></trkpt><trkpt lat="58.47693" lon="14.95938"><ele>104.0</ele><time>2016-06-18T03:08:29.296Z</time></trkpt><trkpt lat="58.476885" lon="14.95901667"><ele>104.0</ele><time>2016-06-18T03:08:30.298Z</time></trkpt><trkpt lat="58.476885" lon="14.95901667"><ele>104.0</ele><time>2016-06-18T03:08:31.296Z</time></trkpt><trkpt lat="58.47684" lon="14.95865333"><ele>103.0</ele><time>2016-06-18T03:08:32.298Z</time></trkpt><trkpt lat="58.47684" lon="14.95865333"><ele>103.0</ele><time>2016-06-18T03:08:33.296Z</time></trkpt><trkpt lat="58.47679333" lon="14.95829167"><ele>102.0</ele><time>2016-06-18T03:08:34.298Z</time></trkpt><trkpt lat="58.47677" lon="14.958105"><ele>102.0</ele><time>2016-06-18T03:08:35.298Z</time></trkpt><trkpt lat="58.47675" lon="14.95791667"><ele>102.0</ele><time>2016-06-18T03:08:36.298Z</time></trkpt><trkpt lat="58.47672667" lon="14.95772833"><ele>102.0</ele><time>2016-06-18T03:08:37.300Z</time></trkpt><trkpt lat="58.47672667" lon="14.95772833"><ele>102.0</ele><time>2016-06-18T03:08:38.297Z</time></trkpt><trkpt lat="58.47668167" lon="14.95734833"><ele>101.0</ele><time>2016-06-18T03:08:39.299Z</time></trkpt><trkpt lat="58.47666" lon="14.95715833"><ele>101.0</ele><time>2016-06-18T03:08:40.299Z</time></trkpt><trkpt lat="58.47663667" lon="14.95697167"><ele>101.0</ele><time>2016-06-18T03:08:41.296Z</time></trkpt><trkpt lat="58.47663667" lon="14.95697167"><ele>101.0</ele><time>2016-06-18T03:08:42.295Z</time></trkpt><trkpt lat="58.47659167" lon="14.95661333"><ele>101.0</ele><time>2016-06-18T03:08:43.300Z</time></trkpt><trkpt lat="58.47659167" lon="14.95661333"><ele>101.0</ele><time>2016-06-18T03:08:44.295Z</time></trkpt><trkpt lat="58.47654833" lon="14.95626333"><ele>100.0</ele><time>2016-06-18T03:08:45.298Z</time></trkpt><trkpt lat="58.47652667" lon="14.95609167"><ele>100.0</ele><time>2016-06-18T03:08:46.298Z</time></trkpt><trkpt lat="58.47652667" lon="14.95609167"><ele>100.0</ele><time>2016-06-18T03:08:47.296Z</time></trkpt><trkpt lat="58.47648333" lon="14.95575833"><ele>100.0</ele><time>2016-06-18T03:08:48.297Z</time></trkpt><trkpt lat="58.47646167" lon="14.95559"><ele>100.0</ele><time>2016-06-18T03:08:49.299Z</time></trkpt><trkpt lat="58.47646167" lon="14.95559"><ele>100.0</ele><time>2016-06-18T03:08:50.297Z</time></trkpt><trkpt lat="58.47641333" lon="14.95524167"><ele>99.0</ele><time>2016-06-18T03:08:51.296Z</time></trkpt><trkpt lat="58.47638667" lon="14.95506167"><ele>99.0</ele><time>2016-06-18T03:08:52.299Z</time></trkpt><trkpt lat="58.47638667" lon="14.95506167"><ele>99.0</ele><time>2016-06-18T03:08:53.296Z</time></trkpt><trkpt lat="58.47633167" lon="14.95469"><ele>99.0</ele><time>2016-06-18T03:08:54.309Z</time></trkpt><trkpt lat="58.47630167" lon="14.9545"><ele>98.0</ele><time>2016-06-18T03:08:55.298Z</time></trkpt><trkpt lat="58.47626667" lon="14.95431"><ele>98.0</ele><time>2016-06-18T03:08:56.300Z</time></trkpt><trkpt lat="58.47626667" lon="14.95431"><ele>98.0</ele><time>2016-06-18T03:08:57.296Z</time></trkpt><trkpt lat="58.47619333" lon="14.95393333"><ele>98.0</ele><time>2016-06-18T03:08:58.298Z</time></trkpt><trkpt lat="58.47619333" lon="14.95393333"><ele>98.0</ele><time>2016-06-18T03:08:59.297Z</time></trkpt><trkpt lat="58.47611667" lon="14.95356"><ele>97.0</ele><time>2016-06-18T03:09:00.303Z</time></trkpt><trkpt lat="58.47606833" lon="14.95338333"><ele>96.0</ele><time>2016-06-18T03:09:01.299Z</time></trkpt><trkpt lat="58.47601833" lon="14.95320833"><ele>96.0</ele><time>2016-06-18T03:09:02.299Z</time></trkpt><trkpt lat="58.47601833" lon="14.95320833"><ele>96.0</ele><time>2016-06-18T03:09:03.309Z</time></trkpt><trkpt lat="58.47591833" lon="14.95287"><ele>96.0</ele><time>2016-06-18T03:09:04.300Z</time></trkpt><trkpt lat="58.47591833" lon="14.95287"><ele>96.0</ele><time>2016-06-18T03:09:05.296Z</time></trkpt><trkpt lat="58.47581833" lon="14.95254667"><ele>96.0</ele><time>2016-06-18T03:09:06.299Z</time></trkpt><trkpt lat="58.47577" lon="14.95239"><ele>96.0</ele><time>2016-06-18T03:09:07.298Z</time></trkpt><trkpt lat="58.47572167" lon="14.95224167"><ele>96.0</ele><time>2016-06-18T03:09:08.305Z</time></trkpt><trkpt lat="58.47572167" lon="14.95224167"><ele>96.0</ele><time>2016-06-18T03:09:09.297Z</time></trkpt><trkpt lat="58.47562333" lon="14.95196333"><ele>96.0</ele><time>2016-06-18T03:09:10.298Z</time></trkpt><trkpt lat="58.47562333" lon="14.95196333"><ele>96.0</ele><time>2016-06-18T03:09:11.296Z</time></trkpt><trkpt lat="58.47551667" lon="14.95168833"><ele>97.0</ele><time>2016-06-18T03:09:12.305Z</time></trkpt><trkpt lat="58.47551667" lon="14.95168833"><ele>97.0</ele><time>2016-06-18T03:09:13.296Z</time></trkpt><trkpt lat="58.475405" lon="14.95140833"><ele>97.0</ele><time>2016-06-18T03:09:14.300Z</time></trkpt><trkpt lat="58.475405" lon="14.95140833"><ele>97.0</ele><time>2016-06-18T03:09:15.297Z</time></trkpt><trkpt lat="58.47529333" lon="14.951125"><ele>98.0</ele><time>2016-06-18T03:09:16.299Z</time></trkpt><trkpt lat="58.47529333" lon="14.951125"><ele>98.0</ele><time>2016-06-18T03:09:17.290Z</time></trkpt><trkpt lat="58.47518" lon="14.95085"><ele>98.0</ele><time>2016-06-18T03:09:18.298Z</time></trkpt><trkpt lat="58.47518" lon="14.95085"><ele>98.0</ele><time>2016-06-18T03:09:19.297Z</time></trkpt><trkpt lat="58.47506833" lon="14.950585"><ele>98.0</ele><time>2016-06-18T03:09:20.301Z</time></trkpt><trkpt lat="58.47506833" lon="14.950585"><ele>98.0</ele><time>2016-06-18T03:09:21.297Z</time></trkpt><trkpt lat="58.47495833" lon="14.95032333"><ele>98.0</ele><time>2016-06-18T03:09:22.296Z</time></trkpt><trkpt lat="58.47495833" lon="14.95032333"><ele>98.0</ele><time>2016-06-18T03:09:23.296Z</time></trkpt><trkpt lat="58.474845" lon="14.95005333"><ele>98.0</ele><time>2016-06-18T03:09:24.298Z</time></trkpt><trkpt lat="58.47478667" lon="14.94991667"><ele>98.0</ele><time>2016-06-18T03:09:25.298Z</time></trkpt><trkpt lat="58.47472667" lon="14.94978167"><ele>98.0</ele><time>2016-06-18T03:09:26.301Z</time></trkpt><trkpt lat="58.47472667" lon="14.94978167"><ele>98.0</ele><time>2016-06-18T03:09:27.297Z</time></trkpt><trkpt lat="58.47460333" lon="14.94950833"><ele>98.0</ele><time>2016-06-18T03:09:28.299Z</time></trkpt><trkpt lat="58.47460333" lon="14.94950833"><ele>98.0</ele><time>2016-06-18T03:09:29.298Z</time></trkpt><trkpt lat="58.47447667" lon="14.94923333"><ele>98.0</ele><time>2016-06-18T03:09:30.298Z</time></trkpt><trkpt lat="58.47440833" lon="14.949095"><ele>98.0</ele><time>2016-06-18T03:09:31.299Z</time></trkpt><trkpt lat="58.47434167" lon="14.94895333"><ele>98.0</ele><time>2016-06-18T03:09:32.300Z</time></trkpt><trkpt lat="58.47434167" lon="14.94895333"><ele>98.0</ele><time>2016-06-18T03:09:33.296Z</time></trkpt><trkpt lat="58.47420333" lon="14.94867333"><ele>97.0</ele><time>2016-06-18T03:09:34.300Z</time></trkpt><trkpt lat="58.47420333" lon="14.94867333"><ele>97.0</ele><time>2016-06-18T03:09:35.297Z</time></trkpt><trkpt lat="58.47406833" lon="14.948405"><ele>97.0</ele><time>2016-06-18T03:09:36.299Z</time></trkpt><trkpt lat="58.47400167" lon="14.94827333"><ele>97.0</ele><time>2016-06-18T03:09:37.285Z</time></trkpt><trkpt lat="58.473935" lon="14.948145"><ele>97.0</ele><time>2016-06-18T03:09:38.312Z</time></trkpt><trkpt lat="58.473935" lon="14.948145"><ele>97.0</ele><time>2016-06-18T03:09:39.299Z</time></trkpt><trkpt lat="58.47379833" lon="14.94789167"><ele>96.0</ele><time>2016-06-18T03:09:40.300Z</time></trkpt><trkpt lat="58.47379833" lon="14.94789167"><ele>96.0</ele><time>2016-06-18T03:09:41.297Z</time></trkpt><trkpt lat="58.473655" lon="14.94764167"><ele>96.0</ele><time>2016-06-18T03:09:42.301Z</time></trkpt><trkpt lat="58.473655" lon="14.94764167"><ele>96.0</ele><time>2016-06-18T03:09:43.297Z</time></trkpt><trkpt lat="58.47351" lon="14.94739167"><ele>96.0</ele><time>2016-06-18T03:09:44.301Z</time></trkpt><trkpt lat="58.47351" lon="14.94739167"><ele>96.0</ele><time>2016-06-18T03:09:45.297Z</time></trkpt><trkpt lat="58.47336" lon="14.94714"><ele>95.0</ele><time>2016-06-18T03:09:46.300Z</time></trkpt><trkpt lat="58.47336" lon="14.94714"><ele>95.0</ele><time>2016-06-18T03:09:47.297Z</time></trkpt><trkpt lat="58.47320333" lon="14.94688333"><ele>95.0</ele><time>2016-06-18T03:09:48.299Z</time></trkpt><trkpt lat="58.47320333" lon="14.94688333"><ele>95.0</ele><time>2016-06-18T03:09:49.297Z</time></trkpt><trkpt lat="58.47304333" lon="14.94661833"><ele>95.0</ele><time>2016-06-18T03:09:50.299Z</time></trkpt><trkpt lat="58.47304333" lon="14.94661833"><ele>95.0</ele><time>2016-06-18T03:09:51.297Z</time></trkpt><trkpt lat="58.47287667" lon="14.94636167"><ele>94.0</ele><time>2016-06-18T03:09:52.300Z</time></trkpt><trkpt lat="58.47287667" lon="14.94636167"><ele>94.0</ele><time>2016-06-18T03:09:53.296Z</time></trkpt><trkpt lat="58.47271" lon="14.94610667"><ele>94.0</ele><time>2016-06-18T03:09:54.299Z</time></trkpt><trkpt lat="58.47262667" lon="14.94598"><ele>94.0</ele><time>2016-06-18T03:09:55.297Z</time></trkpt><trkpt lat="58.47254333" lon="14.94585667"><ele>93.0</ele><time>2016-06-18T03:09:56.303Z</time></trkpt><trkpt lat="58.47254333" lon="14.94585667"><ele>93.0</ele><time>2016-06-18T03:09:57.297Z</time></trkpt><trkpt lat="58.47237667" lon="14.945605"><ele>93.0</ele><time>2016-06-18T03:09:58.301Z</time></trkpt><trkpt lat="58.47237667" lon="14.945605"><ele>93.0</ele><time>2016-06-18T03:09:59.296Z</time></trkpt><trkpt lat="58.47221167" lon="14.94536167"><ele>92.0</ele><time>2016-06-18T03:10:00.307Z</time></trkpt><trkpt lat="58.47221167" lon="14.94536167"><ele>92.0</ele><time>2016-06-18T03:10:01.297Z</time></trkpt><trkpt lat="58.47204667" lon="14.945115"><ele>92.0</ele><time>2016-06-18T03:10:02.303Z</time></trkpt><trkpt lat="58.47204667" lon="14.945115"><ele>92.0</ele><time>2016-06-18T03:10:03.287Z</time></trkpt><trkpt lat="58.47187667" lon="14.94486"><ele>92.0</ele><time>2016-06-18T03:10:04.298Z</time></trkpt><trkpt lat="58.47187667" lon="14.94486"><ele>92.0</ele><time>2016-06-18T03:10:05.297Z</time></trkpt><trkpt lat="58.47170333" lon="14.94460167"><ele>91.0</ele><time>2016-06-18T03:10:06.300Z</time></trkpt><trkpt lat="58.47161833" lon="14.94447"><ele>91.0</ele><time>2016-06-18T03:10:07.298Z</time></trkpt><trkpt lat="58.47161833" lon="14.94447"><ele>91.0</ele><time>2016-06-18T03:10:08.297Z</time></trkpt><trkpt lat="58.47144333" lon="14.944205"><ele>90.0</ele><time>2016-06-18T03:10:09.300Z</time></trkpt><trkpt lat="58.47135667" lon="14.94407333"><ele>90.0</ele><time>2016-06-18T03:10:10.300Z</time></trkpt><trkpt lat="58.47135667" lon="14.94407333"><ele>90.0</ele><time>2016-06-18T03:10:11.297Z</time></trkpt><trkpt lat="58.47118167" lon="14.94381333"><ele>89.0</ele><time>2016-06-18T03:10:12.309Z</time></trkpt><trkpt lat="58.47118167" lon="14.94381333"><ele>89.0</ele><time>2016-06-18T03:10:13.298Z</time></trkpt><trkpt lat="58.47100833" lon="14.94355333"><ele>88.0</ele><time>2016-06-18T03:10:14.301Z</time></trkpt><trkpt lat="58.47100833" lon="14.94355333"><ele>88.0</ele><time>2016-06-18T03:10:15.297Z</time></trkpt><trkpt lat="58.47082833" lon="14.94328833"><ele>88.0</ele><time>2016-06-18T03:10:16.302Z</time></trkpt><trkpt lat="58.47082833" lon="14.94328833"><ele>88.0</ele><time>2016-06-18T03:10:17.298Z</time></trkpt><trkpt lat="58.47064833" lon="14.94301833"><ele>87.0</ele><time>2016-06-18T03:10:18.300Z</time></trkpt><trkpt lat="58.47064833" lon="14.94301833"><ele>87.0</ele><time>2016-06-18T03:10:19.308Z</time></trkpt><trkpt lat="58.47047333" lon="14.94275333"><ele>87.0</ele><time>2016-06-18T03:10:20.299Z</time></trkpt><trkpt lat="58.47047333" lon="14.94275333"><ele>87.0</ele><time>2016-06-18T03:10:21.298Z</time></trkpt><trkpt lat="58.4703" lon="14.94249667"><ele>87.0</ele><time>2016-06-18T03:10:22.300Z</time></trkpt><trkpt lat="58.4703" lon="14.94249667"><ele>87.0</ele><time>2016-06-18T03:10:23.299Z</time></trkpt><trkpt lat="58.47013333" lon="14.94225833"><ele>87.0</ele><time>2016-06-18T03:10:24.302Z</time></trkpt><trkpt lat="58.47013333" lon="14.94225833"><ele>87.0</ele><time>2016-06-18T03:10:25.296Z</time></trkpt><trkpt lat="58.46996667" lon="14.94203333"><ele>87.0</ele><time>2016-06-18T03:10:26.299Z</time></trkpt><trkpt lat="58.46996667" lon="14.94203333"><ele>87.0</ele><time>2016-06-18T03:10:27.297Z</time></trkpt><trkpt lat="58.46980333" lon="14.94182333"><ele>87.0</ele><time>2016-06-18T03:10:28.300Z</time></trkpt><trkpt lat="58.46980333" lon="14.94182333"><ele>87.0</ele><time>2016-06-18T03:10:29.297Z</time></trkpt><trkpt lat="58.46963333" lon="14.94162"><ele>87.0</ele><time>2016-06-18T03:10:30.301Z</time></trkpt><trkpt lat="58.46963333" lon="14.94162"><ele>87.0</ele><time>2016-06-18T03:10:31.297Z</time></trkpt><trkpt lat="58.46946" lon="14.941405"><ele>87.0</ele><time>2016-06-18T03:10:32.298Z</time></trkpt><trkpt lat="58.46946" lon="14.941405"><ele>87.0</ele><time>2016-06-18T03:10:33.296Z</time></trkpt><trkpt lat="58.46928667" lon="14.94119333"><ele>87.0</ele><time>2016-06-18T03:10:34.303Z</time></trkpt><trkpt lat="58.46928667" lon="14.94119333"><ele>87.0</ele><time>2016-06-18T03:10:35.297Z</time></trkpt><trkpt lat="58.46911667" lon="14.941"><ele>87.0</ele><time>2016-06-18T03:10:36.299Z</time></trkpt><trkpt lat="58.46911667" lon="14.941"><ele>87.0</ele><time>2016-06-18T03:10:37.298Z</time></trkpt><trkpt lat="58.46894833" lon="14.940815"><ele>87.0</ele><time>2016-06-18T03:10:38.303Z</time></trkpt><trkpt lat="58.46894833" lon="14.940815"><ele>87.0</ele><time>2016-06-18T03:10:39.297Z</time></trkpt><trkpt lat="58.468785" lon="14.94063333"><ele>87.0</ele><time>2016-06-18T03:10:40.301Z</time></trkpt><trkpt lat="58.468785" lon="14.94063333"><ele>87.0</ele><time>2016-06-18T03:10:41.297Z</time></trkpt><trkpt lat="58.46862667" lon="14.94044833"><ele>87.0</ele><time>2016-06-18T03:10:42.301Z</time></trkpt><trkpt lat="58.46854333" lon="14.94036"><ele>87.0</ele><time>2016-06-18T03:10:43.299Z</time></trkpt><trkpt lat="58.46854333" lon="14.94036"><ele>87.0</ele><time>2016-06-18T03:10:44.297Z</time></trkpt><trkpt lat="58.46837667" lon="14.94017833"><ele>87.0</ele><time>2016-06-18T03:10:45.301Z</time></trkpt><trkpt lat="58.46829167" lon="14.94008833"><ele>87.0</ele><time>2016-06-18T03:10:46.301Z</time></trkpt><trkpt lat="58.46829167" lon="14.94008833"><ele>87.0</ele><time>2016-06-18T03:10:47.297Z</time></trkpt><trkpt lat="58.46811833" lon="14.93989833"><ele>87.0</ele><time>2016-06-18T03:10:48.301Z</time></trkpt><trkpt lat="58.46811833" lon="14.93989833"><ele>87.0</ele><time>2016-06-18T03:10:49.298Z</time></trkpt><trkpt lat="58.46793833" lon="14.93970667"><ele>87.0</ele><time>2016-06-18T03:10:50.305Z</time></trkpt><trkpt lat="58.46793833" lon="14.93970667"><ele>87.0</ele><time>2016-06-18T03:10:51.297Z</time></trkpt><trkpt lat="58.467755" lon="14.93951"><ele>86.0</ele><time>2016-06-18T03:10:52.301Z</time></trkpt><trkpt lat="58.467755" lon="14.93951"><ele>86.0</ele><time>2016-06-18T03:10:53.297Z</time></trkpt><trkpt lat="58.467565" lon="14.93932"><ele>87.0</ele><time>2016-06-18T03:10:54.301Z</time></trkpt><trkpt lat="58.467565" lon="14.93932"><ele>87.0</ele><time>2016-06-18T03:10:55.297Z</time></trkpt><trkpt lat="58.46738" lon="14.939125"><ele>87.0</ele><time>2016-06-18T03:10:56.299Z</time></trkpt><trkpt lat="58.46738" lon="14.939125"><ele>87.0</ele><time>2016-06-18T03:10:57.298Z</time></trkpt><trkpt lat="58.46720167" lon="14.93892833"><ele>87.0</ele><time>2016-06-18T03:10:58.298Z</time></trkpt><trkpt lat="58.46720167" lon="14.93892833"><ele>87.0</ele><time>2016-06-18T03:10:59.298Z</time></trkpt><trkpt lat="58.46702333" lon="14.93873167"><ele>87.0</ele><time>2016-06-18T03:11:00.307Z</time></trkpt><trkpt lat="58.46693667" lon="14.93863333"><ele>87.0</ele><time>2016-06-18T03:11:01.301Z</time></trkpt><trkpt lat="58.46685167" lon="14.93853333"><ele>87.0</ele><time>2016-06-18T03:11:02.303Z</time></trkpt><trkpt lat="58.46685167" lon="14.93853333"><ele>87.0</ele><time>2016-06-18T03:11:03.298Z</time></trkpt><trkpt lat="58.46668167" lon="14.93832667"><ele>87.0</ele><time>2016-06-18T03:11:04.301Z</time></trkpt><trkpt lat="58.46668167" lon="14.93832667"><ele>87.0</ele><time>2016-06-18T03:11:05.301Z</time></trkpt><trkpt lat="58.46651333" lon="14.93811"><ele>87.0</ele><time>2016-06-18T03:11:06.300Z</time></trkpt><trkpt lat="58.46643167" lon="14.93799833"><ele>87.0</ele><time>2016-06-18T03:11:07.301Z</time></trkpt><trkpt lat="58.46643167" lon="14.93799833"><ele>87.0</ele><time>2016-06-18T03:11:08.296Z</time></trkpt><trkpt lat="58.46627" lon="14.937775"><ele>87.0</ele><time>2016-06-18T03:11:09.300Z</time></trkpt><trkpt lat="58.46619" lon="14.93765833"><ele>87.0</ele><time>2016-06-18T03:11:10.301Z</time></trkpt><trkpt lat="58.46619" lon="14.93765833"><ele>87.0</ele><time>2016-06-18T03:11:11.298Z</time></trkpt><trkpt lat="58.46602667" lon="14.937415"><ele>87.0</ele><time>2016-06-18T03:11:12.311Z</time></trkpt><trkpt lat="58.46602667" lon="14.937415"><ele>87.0</ele><time>2016-06-18T03:11:13.299Z</time></trkpt><trkpt lat="58.46586833" lon="14.93716"><ele>87.0</ele><time>2016-06-18T03:11:14.284Z</time></trkpt><trkpt lat="58.46586833" lon="14.93716"><ele>87.0</ele><time>2016-06-18T03:11:15.312Z</time></trkpt><trkpt lat="58.46572167" lon="14.93690167"><ele>87.0</ele><time>2016-06-18T03:11:16.311Z</time></trkpt><trkpt lat="58.46572167" lon="14.93690167"><ele>87.0</ele><time>2016-06-18T03:11:17.297Z</time></trkpt><trkpt lat="58.46558" lon="14.93664333"><ele>87.0</ele><time>2016-06-18T03:11:18.301Z</time></trkpt><trkpt lat="58.46558" lon="14.93664333"><ele>87.0</ele><time>2016-06-18T03:11:19.299Z</time></trkpt><trkpt lat="58.46544167" lon="14.93638167"><ele>87.0</ele><time>2016-06-18T03:11:20.304Z</time></trkpt><trkpt lat="58.46544167" lon="14.93638167"><ele>87.0</ele><time>2016-06-18T03:11:21.297Z</time></trkpt><trkpt lat="58.46531167" lon="14.93611833"><ele>88.0</ele><time>2016-06-18T03:11:22.301Z</time></trkpt><trkpt lat="58.46531167" lon="14.93611833"><ele>88.0</ele><time>2016-06-18T03:11:23.302Z</time></trkpt><trkpt lat="58.46519" lon="14.93585167"><ele>88.0</ele><time>2016-06-18T03:11:24.301Z</time></trkpt><trkpt lat="58.46519" lon="14.93585167"><ele>88.0</ele><time>2016-06-18T03:11:25.297Z</time></trkpt><trkpt lat="58.46507333" lon="14.93557"><ele>88.0</ele><time>2016-06-18T03:11:26.303Z</time></trkpt><trkpt lat="58.46507333" lon="14.93557"><ele>88.0</ele><time>2016-06-18T03:11:27.297Z</time></trkpt><trkpt lat="58.46496333" lon="14.93528833"><ele>88.0</ele><time>2016-06-18T03:11:28.301Z</time></trkpt><trkpt lat="58.46491" lon="14.935145"><ele>89.0</ele><time>2016-06-18T03:11:29.301Z</time></trkpt><trkpt lat="58.46491" lon="14.935145"><ele>89.0</ele><time>2016-06-18T03:11:30.298Z</time></trkpt><trkpt lat="58.46480833" lon="14.934865"><ele>88.0</ele><time>2016-06-18T03:11:31.301Z</time></trkpt><trkpt lat="58.46475833" lon="14.934725"><ele>88.0</ele><time>2016-06-18T03:11:32.303Z</time></trkpt><trkpt lat="58.46475833" lon="14.934725"><ele>88.0</ele><time>2016-06-18T03:11:33.298Z</time></trkpt><trkpt lat="58.46466" lon="14.93443667"><ele>88.0</ele><time>2016-06-18T03:11:34.301Z</time></trkpt><trkpt lat="58.46466" lon="14.93443667"><ele>88.0</ele><time>2016-06-18T03:11:35.298Z</time></trkpt><trkpt lat="58.46456167" lon="14.934145"><ele>88.0</ele><time>2016-06-18T03:11:36.314Z</time></trkpt><trkpt lat="58.464515" lon="14.933995"><ele>88.0</ele><time>2016-06-18T03:11:37.310Z</time></trkpt><trkpt lat="58.464515" lon="14.933995"><ele>88.0</ele><time>2016-06-18T03:11:38.297Z</time></trkpt><trkpt lat="58.46442333" lon="14.93369333"><ele>87.0</ele><time>2016-06-18T03:11:39.301Z</time></trkpt><trkpt lat="58.46437333" lon="14.93354667"><ele>87.0</ele><time>2016-06-18T03:11:40.303Z</time></trkpt><trkpt lat="58.46437333" lon="14.93354667"><ele>87.0</ele><time>2016-06-18T03:11:41.298Z</time></trkpt><trkpt lat="58.46427333" lon="14.93325333"><ele>88.0</ele><time>2016-06-18T03:11:42.302Z</time></trkpt><trkpt lat="58.46427333" lon="14.93325333"><ele>88.0</ele><time>2016-06-18T03:11:43.297Z</time></trkpt><trkpt lat="58.464175" lon="14.932945"><ele>87.0</ele><time>2016-06-18T03:11:44.310Z</time></trkpt><trkpt lat="58.464175" lon="14.932945"><ele>87.0</ele><time>2016-06-18T03:11:45.298Z</time></trkpt><trkpt lat="58.46407333" lon="14.93264167"><ele>87.0</ele><time>2016-06-18T03:11:46.297Z</time></trkpt><trkpt lat="58.46402167" lon="14.93249167"><ele>87.0</ele><time>2016-06-18T03:11:47.301Z</time></trkpt><trkpt lat="58.46402167" lon="14.93249167"><ele>87.0</ele><time>2016-06-18T03:11:48.298Z</time></trkpt><trkpt lat="58.46391667" lon="14.93218667"><ele>86.0</ele><time>2016-06-18T03:11:49.301Z</time></trkpt><trkpt lat="58.463865" lon="14.93203167"><ele>86.0</ele><time>2016-06-18T03:11:50.302Z</time></trkpt><trkpt lat="58.463865" lon="14.93203167"><ele>86.0</ele><time>2016-06-18T03:11:51.298Z</time></trkpt><trkpt lat="58.46375667" lon="14.93171833"><ele>86.0</ele><time>2016-06-18T03:11:52.303Z</time></trkpt><trkpt lat="58.46375667" lon="14.93171833"><ele>86.0</ele><time>2016-06-18T03:11:53.299Z</time></trkpt><trkpt lat="58.46365167" lon="14.93140167"><ele>86.0</ele><time>2016-06-18T03:11:54.302Z</time></trkpt><trkpt lat="58.46359833" lon="14.93124167"><ele>86.0</ele><time>2016-06-18T03:11:55.307Z</time></trkpt><trkpt lat="58.46359833" lon="14.93124167"><ele>86.0</ele><time>2016-06-18T03:11:56.297Z</time></trkpt><trkpt lat="58.46349" lon="14.93092"><ele>86.0</ele><time>2016-06-18T03:11:57.300Z</time></trkpt><trkpt lat="58.46343667" lon="14.93075833"><ele>86.0</ele><time>2016-06-18T03:11:58.302Z</time></trkpt><trkpt lat="58.46343667" lon="14.93075833"><ele>86.0</ele><time>2016-06-18T03:11:59.298Z</time></trkpt><trkpt lat="58.463325" lon="14.93043667"><ele>86.0</ele><time>2016-06-18T03:12:00.302Z</time></trkpt><trkpt lat="58.463325" lon="14.93043667"><ele>86.0</ele><time>2016-06-18T03:12:01.298Z</time></trkpt><trkpt lat="58.46321167" lon="14.930115"><ele>86.0</ele><time>2016-06-18T03:12:02.290Z</time></trkpt><trkpt lat="58.46321167" lon="14.930115"><ele>86.0</ele><time>2016-06-18T03:12:03.298Z</time></trkpt><trkpt lat="58.463095" lon="14.9298"><ele>86.0</ele><time>2016-06-18T03:12:04.303Z</time></trkpt><trkpt lat="58.463095" lon="14.9298"><ele>86.0</ele><time>2016-06-18T03:12:05.298Z</time></trkpt><trkpt lat="58.462975" lon="14.92949667"><ele>86.0</ele><time>2016-06-18T03:12:06.299Z</time></trkpt><trkpt lat="58.462975" lon="14.92949667"><ele>86.0</ele><time>2016-06-18T03:12:07.299Z</time></trkpt><trkpt lat="58.46285167" lon="14.92921"><ele>86.0</ele><time>2016-06-18T03:12:08.303Z</time></trkpt><trkpt lat="58.46285167" lon="14.92921"><ele>86.0</ele><time>2016-06-18T03:12:09.298Z</time></trkpt><trkpt lat="58.46272333" lon="14.92894"><ele>86.0</ele><time>2016-06-18T03:12:10.303Z</time></trkpt><trkpt lat="58.46272333" lon="14.92894"><ele>86.0</ele><time>2016-06-18T03:12:11.298Z</time></trkpt><trkpt lat="58.46258833" lon="14.92868333"><ele>86.0</ele><time>2016-06-18T03:12:12.310Z</time></trkpt><trkpt lat="58.46258833" lon="14.92868333"><ele>86.0</ele><time>2016-06-18T03:12:13.299Z</time></trkpt><trkpt lat="58.46244833" lon="14.92843333"><ele>86.0</ele><time>2016-06-18T03:12:14.305Z</time></trkpt><trkpt lat="58.46237333" lon="14.92831333"><ele>86.0</ele><time>2016-06-18T03:12:15.299Z</time></trkpt><trkpt lat="58.46229833" lon="14.92819667"><ele>86.0</ele><time>2016-06-18T03:12:16.304Z</time></trkpt><trkpt lat="58.46229833" lon="14.92819667"><ele>86.0</ele><time>2016-06-18T03:12:17.298Z</time></trkpt><trkpt lat="58.46214" lon="14.92798167"><ele>86.0</ele><time>2016-06-18T03:12:18.298Z</time></trkpt><trkpt lat="58.46214" lon="14.92798167"><ele>86.0</ele><time>2016-06-18T03:12:19.298Z</time></trkpt><trkpt lat="58.46198333" lon="14.92777667"><ele>87.0</ele><time>2016-06-18T03:12:20.303Z</time></trkpt><trkpt lat="58.46198333" lon="14.92777667"><ele>87.0</ele><time>2016-06-18T03:12:21.299Z</time></trkpt><trkpt lat="58.46182667" lon="14.92758167"><ele>87.0</ele><time>2016-06-18T03:12:22.302Z</time></trkpt><trkpt lat="58.46182667" lon="14.92758167"><ele>87.0</ele><time>2016-06-18T03:12:23.297Z</time></trkpt><trkpt lat="58.46166667" lon="14.92741167"><ele>87.0</ele><time>2016-06-18T03:12:24.298Z</time></trkpt><trkpt lat="58.46166667" lon="14.92741167"><ele>87.0</ele><time>2016-06-18T03:12:25.298Z</time></trkpt><trkpt lat="58.46150333" lon="14.927255"><ele>88.0</ele><time>2016-06-18T03:12:26.303Z</time></trkpt><trkpt lat="58.46150333" lon="14.927255"><ele>88.0</ele><time>2016-06-18T03:12:27.298Z</time></trkpt><trkpt lat="58.46134" lon="14.92709"><ele>88.0</ele><time>2016-06-18T03:12:28.301Z</time></trkpt><trkpt lat="58.46134" lon="14.92709"><ele>88.0</ele><time>2016-06-18T03:12:29.298Z</time></trkpt><trkpt lat="58.46117833" lon="14.92693333"><ele>88.0</ele><time>2016-06-18T03:12:30.298Z</time></trkpt><trkpt lat="58.46117833" lon="14.92693333"><ele>88.0</ele><time>2016-06-18T03:12:31.298Z</time></trkpt><trkpt lat="58.46101667" lon="14.92678167"><ele>88.0</ele><time>2016-06-18T03:12:32.303Z</time></trkpt><trkpt lat="58.46101667" lon="14.92678167"><ele>88.0</ele><time>2016-06-18T03:12:33.298Z</time></trkpt><trkpt lat="58.46085667" lon="14.92663"><ele>88.0</ele><time>2016-06-18T03:12:34.303Z</time></trkpt><trkpt lat="58.46085667" lon="14.92663"><ele>88.0</ele><time>2016-06-18T03:12:35.298Z</time></trkpt><trkpt lat="58.460695" lon="14.92648167"><ele>88.0</ele><time>2016-06-18T03:12:36.301Z</time></trkpt><trkpt lat="58.460695" lon="14.92648167"><ele>88.0</ele><time>2016-06-18T03:12:37.298Z</time></trkpt><trkpt lat="58.46054167" lon="14.92633167"><ele>88.0</ele><time>2016-06-18T03:12:38.303Z</time></trkpt><trkpt lat="58.46054167" lon="14.92633167"><ele>88.0</ele><time>2016-06-18T03:12:39.298Z</time></trkpt><trkpt lat="58.46038833" lon="14.92618333"><ele>89.0</ele><time>2016-06-18T03:12:40.303Z</time></trkpt><trkpt lat="58.46038833" lon="14.92618333"><ele>89.0</ele><time>2016-06-18T03:12:41.298Z</time></trkpt><trkpt lat="58.46023333" lon="14.92603833"><ele>89.0</ele><time>2016-06-18T03:12:42.302Z</time></trkpt><trkpt lat="58.46023333" lon="14.92603833"><ele>89.0</ele><time>2016-06-18T03:12:43.298Z</time></trkpt><trkpt lat="58.46007833" lon="14.92587833"><ele>90.0</ele><time>2016-06-18T03:12:44.303Z</time></trkpt><trkpt lat="58.46007833" lon="14.92587833"><ele>90.0</ele><time>2016-06-18T03:12:45.298Z</time></trkpt><trkpt lat="58.45992167" lon="14.92571"><ele>90.0</ele><time>2016-06-18T03:12:46.301Z</time></trkpt><trkpt lat="58.45992167" lon="14.92571"><ele>90.0</ele><time>2016-06-18T03:12:47.299Z</time></trkpt><trkpt lat="58.45976" lon="14.92554167"><ele>91.0</ele><time>2016-06-18T03:12:48.299Z</time></trkpt><trkpt lat="58.45976" lon="14.92554167"><ele>91.0</ele><time>2016-06-18T03:12:49.298Z</time></trkpt><trkpt lat="58.45959833" lon="14.925365"><ele>91.0</ele><time>2016-06-18T03:12:50.303Z</time></trkpt><trkpt lat="58.45959833" lon="14.925365"><ele>91.0</ele><time>2016-06-18T03:12:51.298Z</time></trkpt><trkpt lat="58.45943833" lon="14.925175"><ele>91.0</ele><time>2016-06-18T03:12:52.302Z</time></trkpt><trkpt lat="58.45943833" lon="14.925175"><ele>91.0</ele><time>2016-06-18T03:12:53.302Z</time></trkpt><trkpt lat="58.459285" lon="14.92499"><ele>91.0</ele><time>2016-06-18T03:12:54.307Z</time></trkpt><trkpt lat="58.459285" lon="14.92499"><ele>91.0</ele><time>2016-06-18T03:12:55.299Z</time></trkpt><trkpt lat="58.45913333" lon="14.924785"><ele>91.0</ele><time>2016-06-18T03:12:56.305Z</time></trkpt><trkpt lat="58.45913333" lon="14.924785"><ele>91.0</ele><time>2016-06-18T03:12:57.298Z</time></trkpt><trkpt lat="58.45898167" lon="14.92457667"><ele>91.0</ele><time>2016-06-18T03:12:58.302Z</time></trkpt><trkpt lat="58.45898167" lon="14.92457667"><ele>91.0</ele><time>2016-06-18T03:12:59.298Z</time></trkpt><trkpt lat="58.45883333" lon="14.92436333"><ele>90.0</ele><time>2016-06-18T03:13:00.302Z</time></trkpt><trkpt lat="58.45883333" lon="14.92436333"><ele>90.0</ele><time>2016-06-18T03:13:01.298Z</time></trkpt><trkpt lat="58.45868333" lon="14.92414333"><ele>90.0</ele><time>2016-06-18T03:13:02.305Z</time></trkpt><trkpt lat="58.45868333" lon="14.92414333"><ele>90.0</ele><time>2016-06-18T03:13:03.303Z</time></trkpt><trkpt lat="58.45853333" lon="14.92392333"><ele>90.0</ele><time>2016-06-18T03:13:04.302Z</time></trkpt><trkpt lat="58.45846333" lon="14.92381"><ele>90.0</ele><time>2016-06-18T03:13:05.304Z</time></trkpt><trkpt lat="58.45846333" lon="14.92381"><ele>90.0</ele><time>2016-06-18T03:13:06.297Z</time></trkpt><trkpt lat="58.45831667" lon="14.92358333"><ele>90.0</ele><time>2016-06-18T03:13:07.301Z</time></trkpt><trkpt lat="58.458245" lon="14.92347333"><ele>90.0</ele><time>2016-06-18T03:13:08.304Z</time></trkpt><trkpt lat="58.458245" lon="14.92347333"><ele>90.0</ele><time>2016-06-18T03:13:09.299Z</time></trkpt><trkpt lat="58.45811333" lon="14.92326833"><ele>90.0</ele><time>2016-06-18T03:13:10.303Z</time></trkpt><trkpt lat="58.45811333" lon="14.92326833"><ele>90.0</ele><time>2016-06-18T03:13:11.299Z</time></trkpt><trkpt lat="58.45799833" lon="14.92307667"><ele>90.0</ele><time>2016-06-18T03:13:12.299Z</time></trkpt><trkpt lat="58.45794" lon="14.92299167"><ele>90.0</ele><time>2016-06-18T03:13:13.303Z</time></trkpt><trkpt lat="58.45794" lon="14.92299167"><ele>90.0</ele><time>2016-06-18T03:13:14.300Z</time></trkpt><trkpt lat="58.45781833" lon="14.92282333"><ele>90.0</ele><time>2016-06-18T03:13:15.299Z</time></trkpt><trkpt lat="58.45776167" lon="14.92272833"><ele>90.0</ele><time>2016-06-18T03:13:16.302Z</time></trkpt><trkpt lat="58.45776167" lon="14.92272833"><ele>90.0</ele><time>2016-06-18T03:13:17.299Z</time></trkpt><trkpt lat="58.457685" lon="14.922465"><ele>90.0</ele><time>2016-06-18T03:13:18.299Z</time></trkpt><trkpt lat="58.457685" lon="14.922465"><ele>90.0</ele><time>2016-06-18T03:13:19.299Z</time></trkpt><trkpt lat="58.45763833" lon="14.92216333"><ele>91.0</ele><time>2016-06-18T03:13:20.305Z</time></trkpt><trkpt lat="58.45763833" lon="14.92216333"><ele>91.0</ele><time>2016-06-18T03:13:21.299Z</time></trkpt><trkpt lat="58.45758667" lon="14.92186667"><ele>91.0</ele><time>2016-06-18T03:13:22.301Z</time></trkpt><trkpt lat="58.45758667" lon="14.92186667"><ele>91.0</ele><time>2016-06-18T03:13:23.299Z</time></trkpt><trkpt lat="58.45752833" lon="14.92156833"><ele>92.0</ele><time>2016-06-18T03:13:24.303Z</time></trkpt><trkpt lat="58.45752833" lon="14.92156833"><ele>92.0</ele><time>2016-06-18T03:13:25.299Z</time></trkpt><trkpt lat="58.45747" lon="14.92126333"><ele>92.0</ele><time>2016-06-18T03:13:26.305Z</time></trkpt><trkpt lat="58.45747" lon="14.92126333"><ele>92.0</ele><time>2016-06-18T03:13:27.301Z</time></trkpt><trkpt lat="58.457415" lon="14.920955"><ele>92.0</ele><time>2016-06-18T03:13:28.307Z</time></trkpt><trkpt lat="58.457415" lon="14.920955"><ele>92.0</ele><time>2016-06-18T03:13:29.314Z</time></trkpt><trkpt lat="58.45736" lon="14.920645"><ele>92.0</ele><time>2016-06-18T03:13:30.320Z</time></trkpt><trkpt lat="58.45733167" lon="14.92049167"><ele>93.0</ele><time>2016-06-18T03:13:31.305Z</time></trkpt><trkpt lat="58.45730167" lon="14.92033833"><ele>93.0</ele><time>2016-06-18T03:13:32.305Z</time></trkpt><trkpt lat="58.45727167" lon="14.92018"><ele>93.0</ele><time>2016-06-18T03:13:33.283Z</time></trkpt><trkpt lat="58.45727167" lon="14.92018"><ele>93.0</ele><time>2016-06-18T03:13:34.290Z</time></trkpt><trkpt lat="58.45720333" lon="14.91986667"><ele>93.0</ele><time>2016-06-18T03:13:35.297Z</time></trkpt><trkpt lat="58.45720333" lon="14.91986667"><ele>93.0</ele><time>2016-06-18T03:13:36.303Z</time></trkpt><trkpt lat="58.45713167" lon="14.91955333"><ele>93.0</ele><time>2016-06-18T03:13:37.314Z</time></trkpt><trkpt lat="58.45709167" lon="14.91939667"><ele>93.0</ele><time>2016-06-18T03:13:38.304Z</time></trkpt><trkpt lat="58.45709167" lon="14.91939667"><ele>93.0</ele><time>2016-06-18T03:13:39.299Z</time></trkpt><trkpt lat="58.45700333" lon="14.91908333"><ele>93.0</ele><time>2016-06-18T03:13:40.303Z</time></trkpt><trkpt lat="58.45700333" lon="14.91908333"><ele>93.0</ele><time>2016-06-18T03:13:41.299Z</time></trkpt><trkpt lat="58.45690167" lon="14.91878167"><ele>93.0</ele><time>2016-06-18T03:13:42.300Z</time></trkpt><trkpt lat="58.45690167" lon="14.91878167"><ele>93.0</ele><time>2016-06-18T03:13:43.298Z</time></trkpt><trkpt lat="58.45679167" lon="14.91849167"><ele>93.0</ele><time>2016-06-18T03:13:44.303Z</time></trkpt><trkpt lat="58.45679167" lon="14.91849167"><ele>93.0</ele><time>2016-06-18T03:13:45.299Z</time></trkpt><trkpt lat="58.45668167" lon="14.91820667"><ele>93.0</ele><time>2016-06-18T03:13:46.301Z</time></trkpt><trkpt lat="58.45668167" lon="14.91820667"><ele>93.0</ele><time>2016-06-18T03:13:47.299Z</time></trkpt><trkpt lat="58.45657333" lon="14.91794333"><ele>94.0</ele><time>2016-06-18T03:13:48.303Z</time></trkpt><trkpt lat="58.45657333" lon="14.91794333"><ele>94.0</ele><time>2016-06-18T03:13:49.299Z</time></trkpt><trkpt lat="58.45646833" lon="14.917695"><ele>94.0</ele><time>2016-06-18T03:13:50.304Z</time></trkpt><trkpt lat="58.45646833" lon="14.917695"><ele>94.0</ele><time>2016-06-18T03:13:51.299Z</time></trkpt><trkpt lat="58.45637" lon="14.91744333"><ele>94.0</ele><time>2016-06-18T03:13:52.303Z</time></trkpt><trkpt lat="58.45637" lon="14.91744333"><ele>94.0</ele><time>2016-06-18T03:13:53.299Z</time></trkpt><trkpt lat="58.45627167" lon="14.91719833"><ele>94.0</ele><time>2016-06-18T03:13:54.304Z</time></trkpt><trkpt lat="58.45627167" lon="14.91719833"><ele>94.0</ele><time>2016-06-18T03:13:55.299Z</time></trkpt><trkpt lat="58.45617" lon="14.91694667"><ele>94.0</ele><time>2016-06-18T03:13:56.306Z</time></trkpt><trkpt lat="58.45617" lon="14.91694667"><ele>94.0</ele><time>2016-06-18T03:13:57.299Z</time></trkpt><trkpt lat="58.45606667" lon="14.91668333"><ele>94.0</ele><time>2016-06-18T03:13:58.303Z</time></trkpt><trkpt lat="58.45606667" lon="14.91668333"><ele>94.0</ele><time>2016-06-18T03:13:59.299Z</time></trkpt><trkpt lat="58.45596167" lon="14.91641667"><ele>93.0</ele><time>2016-06-18T03:14:00.307Z</time></trkpt><trkpt lat="58.45596167" lon="14.91641667"><ele>93.0</ele><time>2016-06-18T03:14:01.299Z</time></trkpt><trkpt lat="58.45585667" lon="14.91615"><ele>93.0</ele><time>2016-06-18T03:14:02.306Z</time></trkpt><trkpt lat="58.45585667" lon="14.91615"><ele>93.0</ele><time>2016-06-18T03:14:03.299Z</time></trkpt><trkpt lat="58.45575333" lon="14.91588833"><ele>93.0</ele><time>2016-06-18T03:14:04.303Z</time></trkpt><trkpt lat="58.45575333" lon="14.91588833"><ele>93.0</ele><time>2016-06-18T03:14:05.299Z</time></trkpt><trkpt lat="58.45565" lon="14.91563167"><ele>93.0</ele><time>2016-06-18T03:14:06.303Z</time></trkpt><trkpt lat="58.45559833" lon="14.91550333"><ele>93.0</ele><time>2016-06-18T03:14:07.304Z</time></trkpt><trkpt lat="58.455545" lon="14.915375"><ele>93.0</ele><time>2016-06-18T03:14:08.317Z</time></trkpt><trkpt lat="58.455545" lon="14.915375"><ele>93.0</ele><time>2016-06-18T03:14:09.302Z</time></trkpt><trkpt lat="58.45544167" lon="14.91511667"><ele>93.0</ele><time>2016-06-18T03:14:10.303Z</time></trkpt><trkpt lat="58.45544167" lon="14.91511667"><ele>93.0</ele><time>2016-06-18T03:14:11.300Z</time></trkpt><trkpt lat="58.45533333" lon="14.91486167"><ele>93.0</ele><time>2016-06-18T03:14:12.313Z</time></trkpt><trkpt lat="58.45533333" lon="14.91486167"><ele>93.0</ele><time>2016-06-18T03:14:13.319Z</time></trkpt><trkpt lat="58.45522" lon="14.91461167"><ele>92.0</ele><time>2016-06-18T03:14:14.306Z</time></trkpt><trkpt lat="58.45522" lon="14.91461167"><ele>92.0</ele><time>2016-06-18T03:14:15.300Z</time></trkpt><trkpt lat="58.45510333" lon="14.91437"><ele>92.0</ele><time>2016-06-18T03:14:16.305Z</time></trkpt><trkpt lat="58.45510333" lon="14.91437"><ele>92.0</ele><time>2016-06-18T03:14:17.300Z</time></trkpt><trkpt lat="58.45498833" lon="14.91413667"><ele>92.0</ele><time>2016-06-18T03:14:18.301Z</time></trkpt><trkpt lat="58.45498833" lon="14.91413667"><ele>92.0</ele><time>2016-06-18T03:14:19.300Z</time></trkpt><trkpt lat="58.45487667" lon="14.91390333"><ele>92.0</ele><time>2016-06-18T03:14:20.305Z</time></trkpt><trkpt lat="58.45487667" lon="14.91390333"><ele>92.0</ele><time>2016-06-18T03:14:21.300Z</time></trkpt><trkpt lat="58.45476667" lon="14.91368"><ele>92.0</ele><time>2016-06-18T03:14:22.303Z</time></trkpt><trkpt lat="58.45476667" lon="14.91368"><ele>92.0</ele><time>2016-06-18T03:14:23.299Z</time></trkpt><trkpt lat="58.45465833" lon="14.91346"><ele>92.0</ele><time>2016-06-18T03:14:24.303Z</time></trkpt><trkpt lat="58.45465833" lon="14.91346"><ele>92.0</ele><time>2016-06-18T03:14:25.300Z</time></trkpt><trkpt lat="58.45454833" lon="14.91323667"><ele>92.0</ele><time>2016-06-18T03:14:26.303Z</time></trkpt><trkpt lat="58.45454833" lon="14.91323667"><ele>92.0</ele><time>2016-06-18T03:14:27.299Z</time></trkpt><trkpt lat="58.454435" lon="14.91301167"><ele>92.0</ele><time>2016-06-18T03:14:28.303Z</time></trkpt><trkpt lat="58.454435" lon="14.91301167"><ele>92.0</ele><time>2016-06-18T03:14:29.300Z</time></trkpt><trkpt lat="58.45432" lon="14.912785"><ele>93.0</ele><time>2016-06-18T03:14:30.305Z</time></trkpt><trkpt lat="58.45432" lon="14.912785"><ele>93.0</ele><time>2016-06-18T03:14:31.300Z</time></trkpt><trkpt lat="58.45420333" lon="14.91255667"><ele>93.0</ele><time>2016-06-18T03:14:32.304Z</time></trkpt><trkpt lat="58.45420333" lon="14.91255667"><ele>93.0</ele><time>2016-06-18T03:14:33.299Z</time></trkpt><trkpt lat="58.45408333" lon="14.91233167"><ele>93.0</ele><time>2016-06-18T03:14:34.303Z</time></trkpt><trkpt lat="58.454025" lon="14.91222"><ele>93.0</ele><time>2016-06-18T03:14:35.304Z</time></trkpt><trkpt lat="58.454025" lon="14.91222"><ele>93.0</ele><time>2016-06-18T03:14:36.298Z</time></trkpt><trkpt lat="58.45391" lon="14.91200333"><ele>93.0</ele><time>2016-06-18T03:14:37.303Z</time></trkpt><trkpt lat="58.45391" lon="14.91200333"><ele>93.0</ele><time>2016-06-18T03:14:38.299Z</time></trkpt><trkpt lat="58.45379333" lon="14.911785"><ele>93.0</ele><time>2016-06-18T03:14:39.303Z</time></trkpt><trkpt lat="58.45373167" lon="14.911675"><ele>93.0</ele><time>2016-06-18T03:14:40.304Z</time></trkpt><trkpt lat="58.45373167" lon="14.911675"><ele>93.0</ele><time>2016-06-18T03:14:41.300Z</time></trkpt><trkpt lat="58.45360667" lon="14.91145"><ele>93.0</ele><time>2016-06-18T03:14:42.304Z</time></trkpt><trkpt lat="58.45360667" lon="14.91145"><ele>93.0</ele><time>2016-06-18T03:14:43.300Z</time></trkpt><trkpt lat="58.453475" lon="14.91122667"><ele>93.0</ele><time>2016-06-18T03:14:44.304Z</time></trkpt><trkpt lat="58.453475" lon="14.91122667"><ele>93.0</ele><time>2016-06-18T03:14:45.300Z</time></trkpt><trkpt lat="58.453345" lon="14.91100833"><ele>93.0</ele><time>2016-06-18T03:14:46.304Z</time></trkpt><trkpt lat="58.453345" lon="14.91100833"><ele>93.0</ele><time>2016-06-18T03:14:47.300Z</time></trkpt><trkpt lat="58.45321167" lon="14.9108"><ele>93.0</ele><time>2016-06-18T03:14:48.302Z</time></trkpt><trkpt lat="58.45314667" lon="14.91069833"><ele>93.0</ele><time>2016-06-18T03:14:49.305Z</time></trkpt><trkpt lat="58.45308" lon="14.9106"><ele>93.0</ele><time>2016-06-18T03:14:50.302Z</time></trkpt><trkpt lat="58.45308" lon="14.9106"><ele>93.0</ele><time>2016-06-18T03:14:51.300Z</time></trkpt><trkpt lat="58.45294833" lon="14.910405"><ele>92.0</ele><time>2016-06-18T03:14:52.303Z</time></trkpt><trkpt lat="58.45294833" lon="14.910405"><ele>92.0</ele><time>2016-06-18T03:14:53.299Z</time></trkpt><trkpt lat="58.45281667" lon="14.910215"><ele>92.0</ele><time>2016-06-18T03:14:54.304Z</time></trkpt><trkpt lat="58.45281667" lon="14.910215"><ele>92.0</ele><time>2016-06-18T03:14:55.300Z</time></trkpt><trkpt lat="58.452685" lon="14.91003"><ele>92.0</ele><time>2016-06-18T03:14:56.305Z</time></trkpt><trkpt lat="58.452685" lon="14.91003"><ele>92.0</ele><time>2016-06-18T03:14:57.300Z</time></trkpt><trkpt lat="58.45254833" lon="14.90984333"><ele>92.0</ele><time>2016-06-18T03:14:58.302Z</time></trkpt><trkpt lat="58.45247833" lon="14.90974833"><ele>92.0</ele><time>2016-06-18T03:14:59.299Z</time></trkpt><trkpt lat="58.45240833" lon="14.90965333"><ele>92.0</ele><time>2016-06-18T03:15:00.308Z</time></trkpt><trkpt lat="58.45240833" lon="14.90965333"><ele>92.0</ele><time>2016-06-18T03:15:01.300Z</time></trkpt><trkpt lat="58.45226667" lon="14.90946333"><ele>92.0</ele><time>2016-06-18T03:15:02.304Z</time></trkpt><trkpt lat="58.45226667" lon="14.90946333"><ele>92.0</ele><time>2016-06-18T03:15:03.302Z</time></trkpt><trkpt lat="58.452125" lon="14.90927333"><ele>92.0</ele><time>2016-06-18T03:15:04.304Z</time></trkpt><trkpt lat="58.45205333" lon="14.90917833"><ele>92.0</ele><time>2016-06-18T03:15:05.303Z</time></trkpt><trkpt lat="58.45205333" lon="14.90917833"><ele>92.0</ele><time>2016-06-18T03:15:06.299Z</time></trkpt><trkpt lat="58.45191" lon="14.90899167"><ele>92.0</ele><time>2016-06-18T03:15:07.303Z</time></trkpt><trkpt lat="58.45191" lon="14.90899167"><ele>92.0</ele><time>2016-06-18T03:15:08.303Z</time></trkpt><trkpt lat="58.45176667" lon="14.908805"><ele>92.0</ele><time>2016-06-18T03:15:09.304Z</time></trkpt><trkpt lat="58.451695" lon="14.90871333"><ele>92.0</ele><time>2016-06-18T03:15:10.303Z</time></trkpt><trkpt lat="58.451695" lon="14.90871333"><ele>92.0</ele><time>2016-06-18T03:15:11.301Z</time></trkpt><trkpt lat="58.45155" lon="14.90854333"><ele>92.0</ele><time>2016-06-18T03:15:12.311Z</time></trkpt><trkpt lat="58.45155" lon="14.90854333"><ele>92.0</ele><time>2016-06-18T03:15:13.299Z</time></trkpt><trkpt lat="58.45139167" lon="14.90839167"><ele>92.0</ele><time>2016-06-18T03:15:14.306Z</time></trkpt><trkpt lat="58.45139167" lon="14.90839167"><ele>92.0</ele><time>2016-06-18T03:15:15.300Z</time></trkpt><trkpt lat="58.45122833" lon="14.90824667"><ele>92.0</ele><time>2016-06-18T03:15:16.304Z</time></trkpt><trkpt lat="58.45122833" lon="14.90824667"><ele>92.0</ele><time>2016-06-18T03:15:17.300Z</time></trkpt><trkpt lat="58.451055" lon="14.90811833"><ele>92.0</ele><time>2016-06-18T03:15:18.303Z</time></trkpt><trkpt lat="58.45096833" lon="14.90806333"><ele>92.0</ele><time>2016-06-18T03:15:19.304Z</time></trkpt><trkpt lat="58.45096833" lon="14.90806333"><ele>92.0</ele><time>2016-06-18T03:15:20.299Z</time></trkpt><trkpt lat="58.45079167" lon="14.90797833"><ele>92.0</ele><time>2016-06-18T03:15:21.304Z</time></trkpt><trkpt lat="58.45070333" lon="14.90794167"><ele>92.0</ele><time>2016-06-18T03:15:22.303Z</time></trkpt><trkpt lat="58.45070333" lon="14.90794167"><ele>92.0</ele><time>2016-06-18T03:15:23.308Z</time></trkpt><trkpt lat="58.45053667" lon="14.90787667"><ele>92.0</ele><time>2016-06-18T03:15:24.309Z</time></trkpt><trkpt lat="58.45045667" lon="14.90785333"><ele>92.0</ele><time>2016-06-18T03:15:25.304Z</time></trkpt><trkpt lat="58.45045667" lon="14.90785333"><ele>92.0</ele><time>2016-06-18T03:15:26.300Z</time></trkpt><trkpt lat="58.45029333" lon="14.90783333"><ele>92.0</ele><time>2016-06-18T03:15:27.304Z</time></trkpt><trkpt lat="58.450205" lon="14.90782667"><ele>92.0</ele><time>2016-06-18T03:15:28.304Z</time></trkpt><trkpt lat="58.450205" lon="14.90782667"><ele>92.0</ele><time>2016-06-18T03:15:29.300Z</time></trkpt><trkpt lat="58.45002167" lon="14.90781333"><ele>92.0</ele><time>2016-06-18T03:15:30.304Z</time></trkpt><trkpt lat="58.45002167" lon="14.90781333"><ele>92.0</ele><time>2016-06-18T03:15:31.300Z</time></trkpt><trkpt lat="58.44983667" lon="14.90778833"><ele>93.0</ele><time>2016-06-18T03:15:32.304Z</time></trkpt><trkpt lat="58.44983667" lon="14.90778833"><ele>93.0</ele><time>2016-06-18T03:15:33.300Z</time></trkpt><trkpt lat="58.44965333" lon="14.90777667"><ele>93.0</ele><time>2016-06-18T03:15:34.304Z</time></trkpt><trkpt lat="58.44965333" lon="14.90777667"><ele>93.0</ele><time>2016-06-18T03:15:35.300Z</time></trkpt><trkpt lat="58.44947" lon="14.90777"><ele>93.0</ele><time>2016-06-18T03:15:36.285Z</time></trkpt><trkpt lat="58.44947" lon="14.90777"><ele>93.0</ele><time>2016-06-18T03:15:37.311Z</time></trkpt><trkpt lat="58.44928667" lon="14.90776"><ele>93.0</ele><time>2016-06-18T03:15:38.305Z</time></trkpt><trkpt lat="58.44928667" lon="14.90776"><ele>93.0</ele><time>2016-06-18T03:15:39.302Z</time></trkpt><trkpt lat="58.4491" lon="14.90774333"><ele>93.0</ele><time>2016-06-18T03:15:40.304Z</time></trkpt><trkpt lat="58.4491" lon="14.90774333"><ele>93.0</ele><time>2016-06-18T03:15:41.299Z</time></trkpt><trkpt lat="58.44891167" lon="14.90771333"><ele>93.0</ele><time>2016-06-18T03:15:42.305Z</time></trkpt><trkpt lat="58.44891167" lon="14.90771333"><ele>93.0</ele><time>2016-06-18T03:15:43.300Z</time></trkpt><trkpt lat="58.44872333" lon="14.90766667"><ele>93.0</ele><time>2016-06-18T03:15:44.305Z</time></trkpt><trkpt lat="58.44872333" lon="14.90766667"><ele>93.0</ele><time>2016-06-18T03:15:45.300Z</time></trkpt><trkpt lat="58.448535" lon="14.90759167"><ele>93.0</ele><time>2016-06-18T03:15:46.304Z</time></trkpt><trkpt lat="58.448535" lon="14.90759167"><ele>93.0</ele><time>2016-06-18T03:15:47.300Z</time></trkpt><trkpt lat="58.44834833" lon="14.90748"><ele>94.0</ele><time>2016-06-18T03:15:48.303Z</time></trkpt><trkpt lat="58.44825667" lon="14.90740833"><ele>94.0</ele><time>2016-06-18T03:15:49.303Z</time></trkpt><trkpt lat="58.44817167" lon="14.90732667"><ele>94.0</ele><time>2016-06-18T03:15:50.301Z</time></trkpt><trkpt lat="58.44817167" lon="14.90732667"><ele>94.0</ele><time>2016-06-18T03:15:51.301Z</time></trkpt><trkpt lat="58.44800667" lon="14.90714333"><ele>94.0</ele><time>2016-06-18T03:15:52.305Z</time></trkpt><trkpt lat="58.44800667" lon="14.90714333"><ele>94.0</ele><time>2016-06-18T03:15:53.300Z</time></trkpt><trkpt lat="58.447855" lon="14.90693333"><ele>94.0</ele><time>2016-06-18T03:15:54.303Z</time></trkpt><trkpt lat="58.447785" lon="14.906815"><ele>93.0</ele><time>2016-06-18T03:15:55.304Z</time></trkpt><trkpt lat="58.44771833" lon="14.90669333"><ele>93.0</ele><time>2016-06-18T03:15:56.304Z</time></trkpt><trkpt lat="58.44771833" lon="14.90669333"><ele>93.0</ele><time>2016-06-18T03:15:57.299Z</time></trkpt><trkpt lat="58.44759667" lon="14.90643833"><ele>93.0</ele><time>2016-06-18T03:15:58.304Z</time></trkpt><trkpt lat="58.44759667" lon="14.90643833"><ele>93.0</ele><time>2016-06-18T03:15:59.308Z</time></trkpt><trkpt lat="58.44749" lon="14.90616167"><ele>93.0</ele><time>2016-06-18T03:16:00.308Z</time></trkpt><trkpt lat="58.44744" lon="14.90601833"><ele>93.0</ele><time>2016-06-18T03:16:01.305Z</time></trkpt><trkpt lat="58.44739333" lon="14.90587167"><ele>93.0</ele><time>2016-06-18T03:16:02.309Z</time></trkpt><trkpt lat="58.44739333" lon="14.90587167"><ele>93.0</ele><time>2016-06-18T03:16:03.299Z</time></trkpt><trkpt lat="58.447315" lon="14.90555167"><ele>93.0</ele><time>2016-06-18T03:16:04.305Z</time></trkpt><trkpt lat="58.447315" lon="14.90555167"><ele>93.0</ele><time>2016-06-18T03:16:05.302Z</time></trkpt><trkpt lat="58.44725833" lon="14.905205"><ele>93.0</ele><time>2016-06-18T03:16:06.304Z</time></trkpt><trkpt lat="58.44725833" lon="14.905205"><ele>93.0</ele><time>2016-06-18T03:16:07.296Z</time></trkpt><trkpt lat="58.44722" lon="14.90487333"><ele>93.0</ele><time>2016-06-18T03:16:08.303Z</time></trkpt><trkpt lat="58.44722" lon="14.90487333"><ele>93.0</ele><time>2016-06-18T03:16:09.302Z</time></trkpt><trkpt lat="58.44719333" lon="14.90454167"><ele>93.0</ele><time>2016-06-18T03:16:10.304Z</time></trkpt><trkpt lat="58.44719333" lon="14.90454167"><ele>93.0</ele><time>2016-06-18T03:16:11.299Z</time></trkpt><trkpt lat="58.44717833" lon="14.90420333"><ele>93.0</ele><time>2016-06-18T03:16:12.314Z</time></trkpt><trkpt lat="58.44717833" lon="14.90420333"><ele>93.0</ele><time>2016-06-18T03:16:13.302Z</time></trkpt><trkpt lat="58.44716167" lon="14.90386167"><ele>92.0</ele><time>2016-06-18T03:16:14.307Z</time></trkpt><trkpt lat="58.44716167" lon="14.90386167"><ele>92.0</ele><time>2016-06-18T03:16:15.296Z</time></trkpt><trkpt lat="58.44714667" lon="14.903525"><ele>92.0</ele><time>2016-06-18T03:16:16.303Z</time></trkpt><trkpt lat="58.44714667" lon="14.903525"><ele>92.0</ele><time>2016-06-18T03:16:17.296Z</time></trkpt><trkpt lat="58.44713333" lon="14.90319833"><ele>92.0</ele><time>2016-06-18T03:16:18.304Z</time></trkpt><trkpt lat="58.44713333" lon="14.90319833"><ele>92.0</ele><time>2016-06-18T03:16:19.300Z</time></trkpt><trkpt lat="58.44712167" lon="14.90287"><ele>92.0</ele><time>2016-06-18T03:16:20.305Z</time></trkpt><trkpt lat="58.44712167" lon="14.90287"><ele>92.0</ele><time>2016-06-18T03:16:21.299Z</time></trkpt><trkpt lat="58.44711" lon="14.90255167"><ele>92.0</ele><time>2016-06-18T03:16:22.304Z</time></trkpt><trkpt lat="58.44711" lon="14.90255167"><ele>92.0</ele><time>2016-06-18T03:16:23.299Z</time></trkpt><trkpt lat="58.44709833" lon="14.90223833"><ele>92.0</ele><time>2016-06-18T03:16:24.304Z</time></trkpt><trkpt lat="58.44709167" lon="14.90208"><ele>92.0</ele><time>2016-06-18T03:16:25.304Z</time></trkpt><trkpt lat="58.44708333" lon="14.90191833"><ele>92.0</ele><time>2016-06-18T03:16:26.302Z</time></trkpt><trkpt lat="58.44708333" lon="14.90191833"><ele>92.0</ele><time>2016-06-18T03:16:27.299Z</time></trkpt><trkpt lat="58.44706833" lon="14.90159"><ele>92.0</ele><time>2016-06-18T03:16:28.304Z</time></trkpt><trkpt lat="58.44706833" lon="14.90159"><ele>92.0</ele><time>2016-06-18T03:16:29.296Z</time></trkpt><trkpt lat="58.44705167" lon="14.90125667"><ele>92.0</ele><time>2016-06-18T03:16:30.304Z</time></trkpt><trkpt lat="58.44705167" lon="14.90125667"><ele>92.0</ele><time>2016-06-18T03:16:31.296Z</time></trkpt><trkpt lat="58.44702333" lon="14.90093833"><ele>92.0</ele><time>2016-06-18T03:16:32.305Z</time></trkpt><trkpt lat="58.44702333" lon="14.90093833"><ele>92.0</ele><time>2016-06-18T03:16:33.303Z</time></trkpt><trkpt lat="58.44696833" lon="14.90063"><ele>92.0</ele><time>2016-06-18T03:16:34.305Z</time></trkpt><trkpt lat="58.44693833" lon="14.90047833"><ele>91.0</ele><time>2016-06-18T03:16:35.304Z</time></trkpt><trkpt lat="58.44693833" lon="14.90047833"><ele>91.0</ele><time>2016-06-18T03:16:36.297Z</time></trkpt><trkpt lat="58.446875" lon="14.90018"><ele>92.0</ele><time>2016-06-18T03:16:37.305Z</time></trkpt><trkpt lat="58.44684333" lon="14.90003"><ele>92.0</ele><time>2016-06-18T03:16:38.307Z</time></trkpt><trkpt lat="58.44684333" lon="14.90003"><ele>92.0</ele><time>2016-06-18T03:16:39.300Z</time></trkpt><trkpt lat="58.44678" lon="14.89974167"><ele>92.0</ele><time>2016-06-18T03:16:40.305Z</time></trkpt><trkpt lat="58.44678" lon="14.89974167"><ele>92.0</ele><time>2016-06-18T03:16:41.310Z</time></trkpt><trkpt lat="58.446715" lon="14.899455"><ele>92.0</ele><time>2016-06-18T03:16:42.307Z</time></trkpt><trkpt lat="58.446715" lon="14.899455"><ele>92.0</ele><time>2016-06-18T03:16:43.308Z</time></trkpt><trkpt lat="58.44665" lon="14.899165"><ele>92.0</ele><time>2016-06-18T03:16:44.304Z</time></trkpt><trkpt lat="58.44665" lon="14.899165"><ele>92.0</ele><time>2016-06-18T03:16:45.300Z</time></trkpt><trkpt lat="58.44658" lon="14.89888"><ele>92.0</ele><time>2016-06-18T03:16:46.304Z</time></trkpt><trkpt lat="58.44658" lon="14.89888"><ele>92.0</ele><time>2016-06-18T03:16:47.299Z</time></trkpt><trkpt lat="58.44650333" lon="14.898615"><ele>92.0</ele><time>2016-06-18T03:16:48.305Z</time></trkpt><trkpt lat="58.44650333" lon="14.898615"><ele>92.0</ele><time>2016-06-18T03:16:49.299Z</time></trkpt><trkpt lat="58.446415" lon="14.89835"><ele>92.0</ele><time>2016-06-18T03:16:50.306Z</time></trkpt><trkpt lat="58.44636333" lon="14.898215"><ele>92.0</ele><time>2016-06-18T03:16:51.305Z</time></trkpt><trkpt lat="58.44636333" lon="14.898215"><ele>92.0</ele><time>2016-06-18T03:16:52.302Z</time></trkpt><trkpt lat="58.44625333" lon="14.89794333"><ele>91.0</ele><time>2016-06-18T03:16:53.305Z</time></trkpt><trkpt lat="58.44625333" lon="14.89794333"><ele>91.0</ele><time>2016-06-18T03:16:54.300Z</time></trkpt><trkpt lat="58.44614667" lon="14.89766333"><ele>91.0</ele><time>2016-06-18T03:16:55.305Z</time></trkpt><trkpt lat="58.44609667" lon="14.89752"><ele>91.0</ele><time>2016-06-18T03:16:56.305Z</time></trkpt><trkpt lat="58.44609667" lon="14.89752"><ele>91.0</ele><time>2016-06-18T03:16:57.301Z</time></trkpt><trkpt lat="58.446" lon="14.89722833"><ele>91.0</ele><time>2016-06-18T03:16:58.307Z</time></trkpt><trkpt lat="58.446" lon="14.89722833"><ele>91.0</ele><time>2016-06-18T03:16:59.299Z</time></trkpt><trkpt lat="58.44591167" lon="14.89694"><ele>91.0</ele><time>2016-06-18T03:17:00.285Z</time></trkpt><trkpt lat="58.44591167" lon="14.89694"><ele>91.0</ele><time>2016-06-18T03:17:01.312Z</time></trkpt><trkpt lat="58.44583" lon="14.89664667"><ele>91.0</ele><time>2016-06-18T03:17:02.305Z</time></trkpt><trkpt lat="58.44583" lon="14.89664667"><ele>91.0</ele><time>2016-06-18T03:17:03.300Z</time></trkpt><trkpt lat="58.445755" lon="14.89634833"><ele>91.0</ele><time>2016-06-18T03:17:04.305Z</time></trkpt><trkpt lat="58.445755" lon="14.89634833"><ele>91.0</ele><time>2016-06-18T03:17:05.298Z</time></trkpt><trkpt lat="58.44568167" lon="14.89603667"><ele>91.0</ele><time>2016-06-18T03:17:06.306Z</time></trkpt><trkpt lat="58.44568167" lon="14.89603667"><ele>91.0</ele><time>2016-06-18T03:17:07.302Z</time></trkpt><trkpt lat="58.44561667" lon="14.895715"><ele>91.0</ele><time>2016-06-18T03:17:08.307Z</time></trkpt><trkpt lat="58.44561667" lon="14.895715"><ele>91.0</ele><time>2016-06-18T03:17:09.303Z</time></trkpt><trkpt lat="58.44555833" lon="14.89538"><ele>90.0</ele><time>2016-06-18T03:17:10.305Z</time></trkpt><trkpt lat="58.44555833" lon="14.89538"><ele>90.0</ele><time>2016-06-18T03:17:11.301Z</time></trkpt><trkpt lat="58.44550833" lon="14.89503167"><ele>90.0</ele><time>2016-06-18T03:17:12.316Z</time></trkpt><trkpt lat="58.44550833" lon="14.89503167"><ele>90.0</ele><time>2016-06-18T03:17:13.303Z</time></trkpt><trkpt lat="58.44546333" lon="14.89467667"><ele>90.0</ele><time>2016-06-18T03:17:14.306Z</time></trkpt><trkpt lat="58.44546333" lon="14.89467667"><ele>90.0</ele><time>2016-06-18T03:17:15.296Z</time></trkpt><trkpt lat="58.445425" lon="14.89431833"><ele>90.0</ele><time>2016-06-18T03:17:16.303Z</time></trkpt><trkpt lat="58.445425" lon="14.89431833"><ele>90.0</ele><time>2016-06-18T03:17:17.300Z</time></trkpt><trkpt lat="58.44539667" lon="14.89395333"><ele>90.0</ele><time>2016-06-18T03:17:18.305Z</time></trkpt><trkpt lat="58.44539667" lon="14.89395333"><ele>90.0</ele><time>2016-06-18T03:17:19.304Z</time></trkpt><trkpt lat="58.44538167" lon="14.893585"><ele>90.0</ele><time>2016-06-18T03:17:20.304Z</time></trkpt><trkpt lat="58.44538167" lon="14.893585"><ele>90.0</ele><time>2016-06-18T03:17:21.299Z</time></trkpt><trkpt lat="58.44536833" lon="14.89322333"><ele>90.0</ele><time>2016-06-18T03:17:22.305Z</time></trkpt><trkpt lat="58.44536833" lon="14.89322333"><ele>90.0</ele><time>2016-06-18T03:17:23.297Z</time></trkpt><trkpt lat="58.44534167" lon="14.892885"><ele>89.0</ele><time>2016-06-18T03:17:24.305Z</time></trkpt><trkpt lat="58.44534167" lon="14.892885"><ele>89.0</ele><time>2016-06-18T03:17:25.302Z</time></trkpt><trkpt lat="58.44529167" lon="14.89255667"><ele>89.0</ele><time>2016-06-18T03:17:26.306Z</time></trkpt><trkpt lat="58.44529167" lon="14.89255667"><ele>89.0</ele><time>2016-06-18T03:17:27.302Z</time></trkpt><trkpt lat="58.44521833" lon="14.89223333"><ele>88.0</ele><time>2016-06-18T03:17:28.304Z</time></trkpt><trkpt lat="58.445175" lon="14.89207"><ele>88.0</ele><time>2016-06-18T03:17:29.305Z</time></trkpt><trkpt lat="58.445175" lon="14.89207"><ele>88.0</ele><time>2016-06-18T03:17:30.303Z</time></trkpt><trkpt lat="58.44508167" lon="14.89174333"><ele>88.0</ele><time>2016-06-18T03:17:31.305Z</time></trkpt><trkpt lat="58.44503333" lon="14.89157833"><ele>88.0</ele><time>2016-06-18T03:17:32.307Z</time></trkpt><trkpt lat="58.44503333" lon="14.89157833"><ele>88.0</ele><time>2016-06-18T03:17:33.301Z</time></trkpt><trkpt lat="58.44493833" lon="14.89123333"><ele>87.0</ele><time>2016-06-18T03:17:34.307Z</time></trkpt><trkpt lat="58.44493833" lon="14.89123333"><ele>87.0</ele><time>2016-06-18T03:17:35.302Z</time></trkpt><trkpt lat="58.44484" lon="14.89089833"><ele>87.0</ele><time>2016-06-18T03:17:36.312Z</time></trkpt><trkpt lat="58.44479333" lon="14.89073333"><ele>86.0</ele><time>2016-06-18T03:17:37.304Z</time></trkpt><trkpt lat="58.44479333" lon="14.89073333"><ele>86.0</ele><time>2016-06-18T03:17:38.303Z</time></trkpt><trkpt lat="58.44470333" lon="14.89041167"><ele>86.0</ele><time>2016-06-18T03:17:39.305Z</time></trkpt><trkpt lat="58.44466" lon="14.89025333"><ele>86.0</ele><time>2016-06-18T03:17:40.308Z</time></trkpt><trkpt lat="58.44466" lon="14.89025333"><ele>86.0</ele><time>2016-06-18T03:17:41.299Z</time></trkpt><trkpt lat="58.444575" lon="14.88993"><ele>86.0</ele><time>2016-06-18T03:17:42.304Z</time></trkpt><trkpt lat="58.444575" lon="14.88993"><ele>86.0</ele><time>2016-06-18T03:17:43.302Z</time></trkpt><trkpt lat="58.44449" lon="14.889625"><ele>85.0</ele><time>2016-06-18T03:17:44.305Z</time></trkpt><trkpt lat="58.44449" lon="14.889625"><ele>85.0</ele><time>2016-06-18T03:17:45.298Z</time></trkpt><trkpt lat="58.444405" lon="14.88931833"><ele>85.0</ele><time>2016-06-18T03:17:46.305Z</time></trkpt><trkpt lat="58.444405" lon="14.88931833"><ele>85.0</ele><time>2016-06-18T03:17:47.302Z</time></trkpt><trkpt lat="58.444325" lon="14.88902333"><ele>85.0</ele><time>2016-06-18T03:17:48.305Z</time></trkpt><trkpt lat="58.444325" lon="14.88902333"><ele>85.0</ele><time>2016-06-18T03:17:49.302Z</time></trkpt><trkpt lat="58.44424667" lon="14.888745"><ele>85.0</ele><time>2016-06-18T03:17:50.306Z</time></trkpt><trkpt lat="58.44424667" lon="14.888745"><ele>85.0</ele><time>2016-06-18T03:17:51.301Z</time></trkpt><trkpt lat="58.44416667" lon="14.88844667"><ele>85.0</ele><time>2016-06-18T03:17:52.305Z</time></trkpt><trkpt lat="58.44416667" lon="14.88844667"><ele>85.0</ele><time>2016-06-18T03:17:53.302Z</time></trkpt><trkpt lat="58.44407833" lon="14.88813167"><ele>85.0</ele><time>2016-06-18T03:17:54.304Z</time></trkpt><trkpt lat="58.444035" lon="14.88797"><ele>85.0</ele><time>2016-06-18T03:17:55.308Z</time></trkpt><trkpt lat="58.444035" lon="14.88797"><ele>85.0</ele><time>2016-06-18T03:17:56.304Z</time></trkpt><trkpt lat="58.44394833" lon="14.88763833"><ele>85.0</ele><time>2016-06-18T03:17:57.304Z</time></trkpt><trkpt lat="58.443905" lon="14.88746667"><ele>84.0</ele><time>2016-06-18T03:17:58.303Z</time></trkpt><trkpt lat="58.443905" lon="14.88746667"><ele>84.0</ele><time>2016-06-18T03:17:59.300Z</time></trkpt><trkpt lat="58.443815" lon="14.88712833"><ele>84.0</ele><time>2016-06-18T03:18:00.296Z</time></trkpt><trkpt lat="58.44377" lon="14.88695333"><ele>84.0</ele><time>2016-06-18T03:18:01.306Z</time></trkpt><trkpt lat="58.443725" lon="14.88678"><ele>84.0</ele><time>2016-06-18T03:18:02.307Z</time></trkpt><trkpt lat="58.443725" lon="14.88678"><ele>84.0</ele><time>2016-06-18T03:18:03.310Z</time></trkpt><trkpt lat="58.443635" lon="14.886425"><ele>84.0</ele><time>2016-06-18T03:18:04.305Z</time></trkpt><trkpt lat="58.443635" lon="14.886425"><ele>84.0</ele><time>2016-06-18T03:18:05.300Z</time></trkpt><trkpt lat="58.44355167" lon="14.88607333"><ele>85.0</ele><time>2016-06-18T03:18:06.303Z</time></trkpt><trkpt lat="58.44355167" lon="14.88607333"><ele>85.0</ele><time>2016-06-18T03:18:07.299Z</time></trkpt><trkpt lat="58.443475" lon="14.88572833"><ele>85.0</ele><time>2016-06-18T03:18:08.306Z</time></trkpt><trkpt lat="58.443475" lon="14.88572833"><ele>85.0</ele><time>2016-06-18T03:18:09.299Z</time></trkpt><trkpt lat="58.44340833" lon="14.88538833"><ele>85.0</ele><time>2016-06-18T03:18:10.301Z</time></trkpt><trkpt lat="58.44337333" lon="14.88522333"><ele>85.0</ele><time>2016-06-18T03:18:11.285Z</time></trkpt><trkpt lat="58.44337333" lon="14.88522333"><ele>85.0</ele><time>2016-06-18T03:18:12.304Z</time></trkpt><trkpt lat="58.44330833" lon="14.88489333"><ele>85.0</ele><time>2016-06-18T03:18:13.305Z</time></trkpt><trkpt lat="58.44330833" lon="14.88489333"><ele>85.0</ele><time>2016-06-18T03:18:14.297Z</time></trkpt><trkpt lat="58.44324167" lon="14.88457167"><ele>85.0</ele><time>2016-06-18T03:18:15.305Z</time></trkpt><trkpt lat="58.44320667" lon="14.88441167"><ele>85.0</ele><time>2016-06-18T03:18:16.305Z</time></trkpt><trkpt lat="58.44320667" lon="14.88441167"><ele>85.0</ele><time>2016-06-18T03:18:17.300Z</time></trkpt><trkpt lat="58.443135" lon="14.88409333"><ele>85.0</ele><time>2016-06-18T03:18:18.304Z</time></trkpt><trkpt lat="58.443135" lon="14.88409333"><ele>85.0</ele><time>2016-06-18T03:18:19.299Z</time></trkpt><trkpt lat="58.44305333" lon="14.88377167"><ele>85.0</ele><time>2016-06-18T03:18:20.297Z</time></trkpt><trkpt lat="58.44301167" lon="14.88360667"><ele>85.0</ele><time>2016-06-18T03:18:21.302Z</time></trkpt><trkpt lat="58.44297167" lon="14.88344167"><ele>85.0</ele><time>2016-06-18T03:18:22.305Z</time></trkpt><trkpt lat="58.44297167" lon="14.88344167"><ele>85.0</ele><time>2016-06-18T03:18:23.299Z</time></trkpt><trkpt lat="58.44289333" lon="14.88311"><ele>85.0</ele><time>2016-06-18T03:18:24.305Z</time></trkpt><trkpt lat="58.44289333" lon="14.88311"><ele>85.0</ele><time>2016-06-18T03:18:25.300Z</time></trkpt><trkpt lat="58.44281" lon="14.88278667"><ele>85.0</ele><time>2016-06-18T03:18:26.306Z</time></trkpt><trkpt lat="58.44276833" lon="14.88262833"><ele>85.0</ele><time>2016-06-18T03:18:27.306Z</time></trkpt><trkpt lat="58.44276833" lon="14.88262833"><ele>85.0</ele><time>2016-06-18T03:18:28.299Z</time></trkpt><trkpt lat="58.44269167" lon="14.88231333"><ele>85.0</ele><time>2016-06-18T03:18:29.305Z</time></trkpt><trkpt lat="58.44269167" lon="14.88231333"><ele>85.0</ele><time>2016-06-18T03:18:30.301Z</time></trkpt><trkpt lat="58.44263" lon="14.88202833"><ele>85.0</ele><time>2016-06-18T03:18:31.305Z</time></trkpt><trkpt lat="58.442595" lon="14.88189167"><ele>85.0</ele><time>2016-06-18T03:18:32.303Z</time></trkpt><trkpt lat="58.442595" lon="14.88189167"><ele>85.0</ele><time>2016-06-18T03:18:33.300Z</time></trkpt><trkpt lat="58.44250833" lon="14.88163167"><ele>85.0</ele><time>2016-06-18T03:18:34.305Z</time></trkpt><trkpt lat="58.44250833" lon="14.88163167"><ele>85.0</ele><time>2016-06-18T03:18:35.302Z</time></trkpt><trkpt lat="58.44239667" lon="14.88140167"><ele>85.0</ele><time>2016-06-18T03:18:36.300Z</time></trkpt><trkpt lat="58.44239667" lon="14.88140167"><ele>85.0</ele><time>2016-06-18T03:18:37.300Z</time></trkpt><trkpt lat="58.44225" lon="14.88121167"><ele>85.0</ele><time>2016-06-18T03:18:38.307Z</time></trkpt><trkpt lat="58.44225" lon="14.88121167"><ele>85.0</ele><time>2016-06-18T03:18:39.300Z</time></trkpt><trkpt lat="58.44208167" lon="14.88105833"><ele>85.0</ele><time>2016-06-18T03:18:40.305Z</time></trkpt><trkpt lat="58.44208167" lon="14.88105833"><ele>85.0</ele><time>2016-06-18T03:18:41.303Z</time></trkpt><trkpt lat="58.44189833" lon="14.88091333"><ele>85.0</ele><time>2016-06-18T03:18:42.306Z</time></trkpt><trkpt lat="58.44189833" lon="14.88091333"><ele>85.0</ele><time>2016-06-18T03:18:43.300Z</time></trkpt><trkpt lat="58.44171333" lon="14.88077333"><ele>85.0</ele><time>2016-06-18T03:18:44.307Z</time></trkpt><trkpt lat="58.44171333" lon="14.88077333"><ele>85.0</ele><time>2016-06-18T03:18:45.300Z</time></trkpt><trkpt lat="58.44153" lon="14.88063167"><ele>85.0</ele><time>2016-06-18T03:18:46.306Z</time></trkpt><trkpt lat="58.44153" lon="14.88063167"><ele>85.0</ele><time>2016-06-18T03:18:47.297Z</time></trkpt><trkpt lat="58.44135333" lon="14.8805"><ele>85.0</ele><time>2016-06-18T03:18:48.305Z</time></trkpt><trkpt lat="58.44135333" lon="14.8805"><ele>85.0</ele><time>2016-06-18T03:18:49.302Z</time></trkpt><trkpt lat="58.44118" lon="14.88036"><ele>85.0</ele><time>2016-06-18T03:18:50.305Z</time></trkpt><trkpt lat="58.44118" lon="14.88036"><ele>85.0</ele><time>2016-06-18T03:18:51.297Z</time></trkpt><trkpt lat="58.440995" lon="14.88021167"><ele>85.0</ele><time>2016-06-18T03:18:52.305Z</time></trkpt><trkpt lat="58.440995" lon="14.88021167"><ele>85.0</ele><time>2016-06-18T03:18:53.309Z</time></trkpt><trkpt lat="58.44080333" lon="14.88009667"><ele>86.0</ele><time>2016-06-18T03:18:54.306Z</time></trkpt><trkpt lat="58.44070833" lon="14.88003833"><ele>86.0</ele><time>2016-06-18T03:18:55.303Z</time></trkpt><trkpt lat="58.44061333" lon="14.87997833"><ele>87.0</ele><time>2016-06-18T03:18:56.307Z</time></trkpt><trkpt lat="58.44061333" lon="14.87997833"><ele>87.0</ele><time>2016-06-18T03:18:57.302Z</time></trkpt><trkpt lat="58.44043333" lon="14.87986"><ele>87.0</ele><time>2016-06-18T03:18:58.304Z</time></trkpt><trkpt lat="58.44043333" lon="14.87986"><ele>87.0</ele><time>2016-06-18T03:18:59.300Z</time></trkpt><trkpt lat="58.44025667" lon="14.87976333"><ele>88.0</ele><time>2016-06-18T03:19:00.316Z</time></trkpt><trkpt lat="58.44025667" lon="14.87976333"><ele>88.0</ele><time>2016-06-18T03:19:01.302Z</time></trkpt><trkpt lat="58.44007667" lon="14.87968"><ele>89.0</ele><time>2016-06-18T03:19:02.308Z</time></trkpt><trkpt lat="58.43998667" lon="14.87964333"><ele>89.0</ele><time>2016-06-18T03:19:03.319Z</time></trkpt><trkpt lat="58.43998667" lon="14.87964333"><ele>89.0</ele><time>2016-06-18T03:19:04.306Z</time></trkpt><trkpt lat="58.43980667" lon="14.87957833"><ele>89.0</ele><time>2016-06-18T03:19:05.306Z</time></trkpt><trkpt lat="58.43980667" lon="14.87957833"><ele>89.0</ele><time>2016-06-18T03:19:06.304Z</time></trkpt><trkpt lat="58.43961833" lon="14.87952167"><ele>89.0</ele><time>2016-06-18T03:19:07.303Z</time></trkpt><trkpt lat="58.43961833" lon="14.87952167"><ele>89.0</ele><time>2016-06-18T03:19:08.306Z</time></trkpt><trkpt lat="58.43943167" lon="14.879435"><ele>89.0</ele><time>2016-06-18T03:19:09.306Z</time></trkpt><trkpt lat="58.43943167" lon="14.879435"><ele>89.0</ele><time>2016-06-18T03:19:10.305Z</time></trkpt><trkpt lat="58.43925167" lon="14.87933167"><ele>90.0</ele><time>2016-06-18T03:19:11.306Z</time></trkpt><trkpt lat="58.43916167" lon="14.87927667"><ele>90.0</ele><time>2016-06-18T03:19:12.307Z</time></trkpt><trkpt lat="58.43907333" lon="14.879225"><ele>90.0</ele><time>2016-06-18T03:19:13.307Z</time></trkpt><trkpt lat="58.43907333" lon="14.879225"><ele>90.0</ele><time>2016-06-18T03:19:14.299Z</time></trkpt><trkpt lat="58.43889833" lon="14.87911667"><ele>90.0</ele><time>2016-06-18T03:19:15.307Z</time></trkpt><trkpt lat="58.43880667" lon="14.87906333"><ele>90.0</ele><time>2016-06-18T03:19:16.306Z</time></trkpt><trkpt lat="58.43871667" lon="14.87901"><ele>91.0</ele><time>2016-06-18T03:19:17.307Z</time></trkpt><trkpt lat="58.43862667" lon="14.878955"><ele>91.0</ele><time>2016-06-18T03:19:18.306Z</time></trkpt><trkpt lat="58.43862667" lon="14.878955"><ele>91.0</ele><time>2016-06-18T03:19:19.304Z</time></trkpt><trkpt lat="58.43844667" lon="14.878855"><ele>91.0</ele><time>2016-06-18T03:19:20.307Z</time></trkpt><trkpt lat="58.43844667" lon="14.878855"><ele>91.0</ele><time>2016-06-18T03:19:21.304Z</time></trkpt><trkpt lat="58.43827" lon="14.87875333"><ele>91.0</ele><time>2016-06-18T03:19:22.305Z</time></trkpt><trkpt lat="58.43827" lon="14.87875333"><ele>91.0</ele><time>2016-06-18T03:19:23.304Z</time></trkpt><trkpt lat="58.43809333" lon="14.87865333"><ele>91.0</ele><time>2016-06-18T03:19:24.306Z</time></trkpt><trkpt lat="58.43809333" lon="14.87865333"><ele>91.0</ele><time>2016-06-18T03:19:25.302Z</time></trkpt><trkpt lat="58.43791833" lon="14.87855333"><ele>91.0</ele><time>2016-06-18T03:19:26.307Z</time></trkpt><trkpt lat="58.43783333" lon="14.87850333"><ele>91.0</ele><time>2016-06-18T03:19:27.311Z</time></trkpt><trkpt lat="58.43783333" lon="14.87850333"><ele>91.0</ele><time>2016-06-18T03:19:28.300Z</time></trkpt><trkpt lat="58.43766" lon="14.87841"><ele>91.0</ele><time>2016-06-18T03:19:29.305Z</time></trkpt><trkpt lat="58.43757333" lon="14.87836167"><ele>92.0</ele><time>2016-06-18T03:19:30.306Z</time></trkpt><trkpt lat="58.43757333" lon="14.87836167"><ele>92.0</ele><time>2016-06-18T03:19:31.303Z</time></trkpt><trkpt lat="58.43739833" lon="14.878265"><ele>92.0</ele><time>2016-06-18T03:19:32.306Z</time></trkpt><trkpt lat="58.43739833" lon="14.878265"><ele>92.0</ele><time>2016-06-18T03:19:33.304Z</time></trkpt><trkpt lat="58.43722" lon="14.878165"><ele>92.0</ele><time>2016-06-18T03:19:34.308Z</time></trkpt><trkpt lat="58.43712833" lon="14.87811833"><ele>92.0</ele><time>2016-06-18T03:19:35.306Z</time></trkpt><trkpt lat="58.43712833" lon="14.87811833"><ele>92.0</ele><time>2016-06-18T03:19:36.317Z</time></trkpt><trkpt lat="58.43694667" lon="14.87802"><ele>92.0</ele><time>2016-06-18T03:19:37.306Z</time></trkpt><trkpt lat="58.43694667" lon="14.87802"><ele>92.0</ele><time>2016-06-18T03:19:38.302Z</time></trkpt><trkpt lat="58.436765" lon="14.87791833"><ele>92.0</ele><time>2016-06-18T03:19:39.307Z</time></trkpt><trkpt lat="58.436765" lon="14.87791833"><ele>92.0</ele><time>2016-06-18T03:19:40.300Z</time></trkpt><trkpt lat="58.43659" lon="14.87781833"><ele>92.0</ele><time>2016-06-18T03:19:41.301Z</time></trkpt><trkpt lat="58.436505" lon="14.87777"><ele>92.0</ele><time>2016-06-18T03:19:42.306Z</time></trkpt><trkpt lat="58.43641833" lon="14.87772167"><ele>92.0</ele><time>2016-06-18T03:19:43.319Z</time></trkpt><trkpt lat="58.43641833" lon="14.87772167"><ele>92.0</ele><time>2016-06-18T03:19:44.306Z</time></trkpt><trkpt lat="58.436245" lon="14.87762667"><ele>92.0</ele><time>2016-06-18T03:19:45.307Z</time></trkpt><trkpt lat="58.436245" lon="14.87762667"><ele>92.0</ele><time>2016-06-18T03:19:46.303Z</time></trkpt><trkpt lat="58.43607333" lon="14.87753"><ele>92.0</ele><time>2016-06-18T03:19:47.306Z</time></trkpt><trkpt lat="58.43598833" lon="14.87748167"><ele>92.0</ele><time>2016-06-18T03:19:48.306Z</time></trkpt><trkpt lat="58.435905" lon="14.877435"><ele>92.0</ele><time>2016-06-18T03:19:49.306Z</time></trkpt><trkpt lat="58.435905" lon="14.877435"><ele>92.0</ele><time>2016-06-18T03:19:50.303Z</time></trkpt><trkpt lat="58.43574333" lon="14.87734167"><ele>92.0</ele><time>2016-06-18T03:19:51.302Z</time></trkpt><trkpt lat="58.43566667" lon="14.87729333"><ele>92.0</ele><time>2016-06-18T03:19:52.306Z</time></trkpt><trkpt lat="58.43559167" lon="14.87724667"><ele>92.0</ele><time>2016-06-18T03:19:53.307Z</time></trkpt><trkpt lat="58.43559167" lon="14.87724667"><ele>92.0</ele><time>2016-06-18T03:19:54.297Z</time></trkpt><trkpt lat="58.43544667" lon="14.87715333"><ele>92.0</ele><time>2016-06-18T03:19:55.306Z</time></trkpt><trkpt lat="58.43537833" lon="14.87711"><ele>92.0</ele><time>2016-06-18T03:19:56.307Z</time></trkpt><trkpt lat="58.43537833" lon="14.87711"><ele>92.0</ele><time>2016-06-18T03:19:57.303Z</time></trkpt><trkpt lat="58.43525333" lon="14.87701167"><ele>92.0</ele><time>2016-06-18T03:19:58.305Z</time></trkpt><trkpt lat="58.43525333" lon="14.87701167"><ele>92.0</ele><time>2016-06-18T03:19:59.297Z</time></trkpt><trkpt lat="58.43514833" lon="14.87682167"><ele>91.0</ele><time>2016-06-18T03:20:00.312Z</time></trkpt><trkpt lat="58.43514833" lon="14.87682167"><ele>91.0</ele><time>2016-06-18T03:20:01.300Z</time></trkpt><trkpt lat="58.435025" lon="14.876655"><ele>91.0</ele><time>2016-06-18T03:20:02.305Z</time></trkpt><trkpt lat="58.434955" lon="14.87659"><ele>91.0</ele><time>2016-06-18T03:20:03.307Z</time></trkpt><trkpt lat="58.434955" lon="14.87659"><ele>91.0</ele><time>2016-06-18T03:20:04.301Z</time></trkpt><trkpt lat="58.434805" lon="14.87645"><ele>91.0</ele><time>2016-06-18T03:20:05.307Z</time></trkpt><trkpt lat="58.434805" lon="14.87645"><ele>91.0</ele><time>2016-06-18T03:20:06.304Z</time></trkpt><trkpt lat="58.43466167" lon="14.876265"><ele>91.0</ele><time>2016-06-18T03:20:07.306Z</time></trkpt><trkpt lat="58.434595" lon="14.87615"><ele>91.0</ele><time>2016-06-18T03:20:08.308Z</time></trkpt><trkpt lat="58.434595" lon="14.87615"><ele>91.0</ele><time>2016-06-18T03:20:09.302Z</time></trkpt><trkpt lat="58.434465" lon="14.87590167"><ele>91.0</ele><time>2016-06-18T03:20:10.306Z</time></trkpt><trkpt lat="58.434465" lon="14.87590167"><ele>91.0</ele><time>2016-06-18T03:20:11.296Z</time></trkpt><trkpt lat="58.43434" lon="14.87564167"><ele>91.0</ele><time>2016-06-18T03:20:12.314Z</time></trkpt><trkpt lat="58.43427667" lon="14.87551"><ele>91.0</ele><time>2016-06-18T03:20:13.306Z</time></trkpt><trkpt lat="58.43421333" lon="14.87537667"><ele>91.0</ele><time>2016-06-18T03:20:14.308Z</time></trkpt><trkpt lat="58.43421333" lon="14.87537667"><ele>91.0</ele><time>2016-06-18T03:20:15.304Z</time></trkpt><trkpt lat="58.43409167" lon="14.87511"><ele>91.0</ele><time>2016-06-18T03:20:16.309Z</time></trkpt><trkpt lat="58.43409167" lon="14.87511"><ele>91.0</ele><time>2016-06-18T03:20:17.304Z</time></trkpt><trkpt lat="58.433975" lon="14.87484833"><ele>91.0</ele><time>2016-06-18T03:20:18.307Z</time></trkpt><trkpt lat="58.433975" lon="14.87484833"><ele>91.0</ele><time>2016-06-18T03:20:19.304Z</time></trkpt><trkpt lat="58.43385833" lon="14.87458667"><ele>91.0</ele><time>2016-06-18T03:20:20.308Z</time></trkpt><trkpt lat="58.43385833" lon="14.87458667"><ele>91.0</ele><time>2016-06-18T03:20:21.309Z</time></trkpt><trkpt lat="58.43374167" lon="14.87431667"><ele>91.0</ele><time>2016-06-18T03:20:22.306Z</time></trkpt><trkpt lat="58.43368667" lon="14.87417833"><ele>91.0</ele><time>2016-06-18T03:20:23.308Z</time></trkpt><trkpt lat="58.43363167" lon="14.87403667"><ele>91.0</ele><time>2016-06-18T03:20:24.308Z</time></trkpt><trkpt lat="58.43363167" lon="14.87403667"><ele>91.0</ele><time>2016-06-18T03:20:25.303Z</time></trkpt><trkpt lat="58.43352833" lon="14.87375167"><ele>91.0</ele><time>2016-06-18T03:20:26.308Z</time></trkpt><trkpt lat="58.43352833" lon="14.87375167"><ele>91.0</ele><time>2016-06-18T03:20:27.301Z</time></trkpt><trkpt lat="58.43343167" lon="14.87346833"><ele>91.0</ele><time>2016-06-18T03:20:28.306Z</time></trkpt><trkpt lat="58.43343167" lon="14.87346833"><ele>91.0</ele><time>2016-06-18T03:20:29.297Z</time></trkpt><trkpt lat="58.43334" lon="14.87319667"><ele>91.0</ele><time>2016-06-18T03:20:30.306Z</time></trkpt><trkpt lat="58.433295" lon="14.87306333"><ele>91.0</ele><time>2016-06-18T03:20:31.303Z</time></trkpt><trkpt lat="58.433295" lon="14.87306333"><ele>91.0</ele><time>2016-06-18T03:20:32.302Z</time></trkpt><trkpt lat="58.43321" lon="14.87279333"><ele>90.0</ele><time>2016-06-18T03:20:33.321Z</time></trkpt><trkpt lat="58.43317" lon="14.872655"><ele>90.0</ele><time>2016-06-18T03:20:34.307Z</time></trkpt><trkpt lat="58.43317" lon="14.872655"><ele>90.0</ele><time>2016-06-18T03:20:35.301Z</time></trkpt><trkpt lat="58.43309333" lon="14.87237333"><ele>90.0</ele><time>2016-06-18T03:20:36.305Z</time></trkpt><trkpt lat="58.433055" lon="14.87223167"><ele>90.0</ele><time>2016-06-18T03:20:37.303Z</time></trkpt><trkpt lat="58.433055" lon="14.87223167"><ele>90.0</ele><time>2016-06-18T03:20:38.305Z</time></trkpt><trkpt lat="58.43297833" lon="14.87194167"><ele>90.0</ele><time>2016-06-18T03:20:39.303Z</time></trkpt><trkpt lat="58.43297833" lon="14.87194167"><ele>90.0</ele><time>2016-06-18T03:20:40.301Z</time></trkpt><trkpt lat="58.43289833" lon="14.871645"><ele>90.0</ele><time>2016-06-18T03:20:41.310Z</time></trkpt><trkpt lat="58.43289833" lon="14.871645"><ele>90.0</ele><time>2016-06-18T03:20:42.303Z</time></trkpt><trkpt lat="58.43282" lon="14.871345"><ele>89.0</ele><time>2016-06-18T03:20:43.307Z</time></trkpt><trkpt lat="58.43278167" lon="14.871195"><ele>89.0</ele><time>2016-06-18T03:20:44.307Z</time></trkpt><trkpt lat="58.43278167" lon="14.871195"><ele>89.0</ele><time>2016-06-18T03:20:45.303Z</time></trkpt><trkpt lat="58.43270333" lon="14.87089333"><ele>89.0</ele><time>2016-06-18T03:20:46.307Z</time></trkpt><trkpt lat="58.43270333" lon="14.87089333"><ele>89.0</ele><time>2016-06-18T03:20:47.303Z</time></trkpt><trkpt lat="58.43263" lon="14.87059167"><ele>89.0</ele><time>2016-06-18T03:20:48.305Z</time></trkpt><trkpt lat="58.43263" lon="14.87059167"><ele>89.0</ele><time>2016-06-18T03:20:49.300Z</time></trkpt><trkpt lat="58.43255833" lon="14.87029"><ele>88.0</ele><time>2016-06-18T03:20:50.306Z</time></trkpt><trkpt lat="58.43255833" lon="14.87029"><ele>88.0</ele><time>2016-06-18T03:20:51.303Z</time></trkpt><trkpt lat="58.43249167" lon="14.86998833"><ele>88.0</ele><time>2016-06-18T03:20:52.305Z</time></trkpt><trkpt lat="58.43246" lon="14.869835"><ele>88.0</ele><time>2016-06-18T03:20:53.305Z</time></trkpt><trkpt lat="58.43246" lon="14.869835"><ele>88.0</ele><time>2016-06-18T03:20:54.301Z</time></trkpt><trkpt lat="58.43239833" lon="14.86952167"><ele>88.0</ele><time>2016-06-18T03:20:55.306Z</time></trkpt><trkpt lat="58.43239833" lon="14.86952167"><ele>88.0</ele><time>2016-06-18T03:20:56.305Z</time></trkpt><trkpt lat="58.43233667" lon="14.86920833"><ele>88.0</ele><time>2016-06-18T03:20:57.305Z</time></trkpt><trkpt lat="58.432305" lon="14.86905667"><ele>88.0</ele><time>2016-06-18T03:20:58.306Z</time></trkpt><trkpt lat="58.432305" lon="14.86905667"><ele>88.0</ele><time>2016-06-18T03:20:59.304Z</time></trkpt><trkpt lat="58.43224833" lon="14.86876333"><ele>88.0</ele><time>2016-06-18T03:21:00.312Z</time></trkpt><trkpt lat="58.43224833" lon="14.86876333"><ele>88.0</ele><time>2016-06-18T03:21:01.304Z</time></trkpt><trkpt lat="58.43219167" lon="14.86847"><ele>88.0</ele><time>2016-06-18T03:21:02.283Z</time></trkpt><trkpt lat="58.43219167" lon="14.86847"><ele>88.0</ele><time>2016-06-18T03:21:03.290Z</time></trkpt><trkpt lat="58.43213333" lon="14.86817167"><ele>88.0</ele><time>2016-06-18T03:21:04.319Z</time></trkpt><trkpt lat="58.43210333" lon="14.86802167"><ele>87.0</ele><time>2016-06-18T03:21:05.307Z</time></trkpt><trkpt lat="58.43210333" lon="14.86802167"><ele>87.0</ele><time>2016-06-18T03:21:06.304Z</time></trkpt><trkpt lat="58.43204167" lon="14.86772667"><ele>87.0</ele><time>2016-06-18T03:21:07.307Z</time></trkpt><trkpt lat="58.43201" lon="14.86758167"><ele>87.0</ele><time>2016-06-18T03:21:08.308Z</time></trkpt><trkpt lat="58.43201" lon="14.86758167"><ele>87.0</ele><time>2016-06-18T03:21:09.302Z</time></trkpt><trkpt lat="58.43194667" lon="14.86728833"><ele>87.0</ele><time>2016-06-18T03:21:10.306Z</time></trkpt><trkpt lat="58.43194667" lon="14.86728833"><ele>87.0</ele><time>2016-06-18T03:21:11.306Z</time></trkpt><trkpt lat="58.43188167" lon="14.86699167"><ele>87.0</ele><time>2016-06-18T03:21:12.307Z</time></trkpt><trkpt lat="58.43188167" lon="14.86699167"><ele>87.0</ele><time>2016-06-18T03:21:13.304Z</time></trkpt><trkpt lat="58.43182167" lon="14.86669667"><ele>87.0</ele><time>2016-06-18T03:21:14.306Z</time></trkpt><trkpt lat="58.43182167" lon="14.86669667"><ele>87.0</ele><time>2016-06-18T03:21:15.303Z</time></trkpt><trkpt lat="58.43176" lon="14.86639667"><ele>87.0</ele><time>2016-06-18T03:21:16.307Z</time></trkpt><trkpt lat="58.43176" lon="14.86639667"><ele>87.0</ele><time>2016-06-18T03:21:17.311Z</time></trkpt><trkpt lat="58.43170167" lon="14.866095"><ele>87.0</ele><time>2016-06-18T03:21:18.306Z</time></trkpt><trkpt lat="58.43170167" lon="14.866095"><ele>87.0</ele><time>2016-06-18T03:21:19.301Z</time></trkpt><trkpt lat="58.431645" lon="14.86578333"><ele>87.0</ele><time>2016-06-18T03:21:20.308Z</time></trkpt><trkpt lat="58.431645" lon="14.86578333"><ele>87.0</ele><time>2016-06-18T03:21:21.304Z</time></trkpt><trkpt lat="58.43158833" lon="14.86546167"><ele>87.0</ele><time>2016-06-18T03:21:22.307Z</time></trkpt><trkpt lat="58.43158833" lon="14.86546167"><ele>87.0</ele><time>2016-06-18T03:21:23.299Z</time></trkpt><trkpt lat="58.43153667" lon="14.86513167"><ele>86.0</ele><time>2016-06-18T03:21:24.307Z</time></trkpt><trkpt lat="58.43153667" lon="14.86513167"><ele>86.0</ele><time>2016-06-18T03:21:25.304Z</time></trkpt><trkpt lat="58.43149167" lon="14.86479833"><ele>86.0</ele><time>2016-06-18T03:21:26.308Z</time></trkpt><trkpt lat="58.43149167" lon="14.86479833"><ele>86.0</ele><time>2016-06-18T03:21:27.301Z</time></trkpt><trkpt lat="58.43145167" lon="14.86446167"><ele>86.0</ele><time>2016-06-18T03:21:28.306Z</time></trkpt><trkpt lat="58.43145167" lon="14.86446167"><ele>86.0</ele><time>2016-06-18T03:21:29.305Z</time></trkpt><trkpt lat="58.43141833" lon="14.86411667"><ele>86.0</ele><time>2016-06-18T03:21:30.315Z</time></trkpt><trkpt lat="58.43141833" lon="14.86411667"><ele>86.0</ele><time>2016-06-18T03:21:31.304Z</time></trkpt><trkpt lat="58.43139167" lon="14.863765"><ele>86.0</ele><time>2016-06-18T03:21:32.307Z</time></trkpt><trkpt lat="58.43139167" lon="14.863765"><ele>86.0</ele><time>2016-06-18T03:21:33.305Z</time></trkpt><trkpt lat="58.43136833" lon="14.86341833"><ele>85.0</ele><time>2016-06-18T03:21:34.307Z</time></trkpt><trkpt lat="58.43136833" lon="14.86341833"><ele>85.0</ele><time>2016-06-18T03:21:35.303Z</time></trkpt><trkpt lat="58.43135" lon="14.86306833"><ele>85.0</ele><time>2016-06-18T03:21:36.310Z</time></trkpt><trkpt lat="58.43135" lon="14.86306833"><ele>85.0</ele><time>2016-06-18T03:21:37.305Z</time></trkpt><trkpt lat="58.43133833" lon="14.86272333"><ele>85.0</ele><time>2016-06-18T03:21:38.308Z</time></trkpt><trkpt lat="58.43133833" lon="14.86272333"><ele>85.0</ele><time>2016-06-18T03:21:39.304Z</time></trkpt><trkpt lat="58.43133167" lon="14.86238"><ele>85.0</ele><time>2016-06-18T03:21:40.307Z</time></trkpt><trkpt lat="58.43133167" lon="14.86238"><ele>85.0</ele><time>2016-06-18T03:21:41.285Z</time></trkpt><trkpt lat="58.43132667" lon="14.862035"><ele>85.0</ele><time>2016-06-18T03:21:42.315Z</time></trkpt><trkpt lat="58.431325" lon="14.861865"><ele>85.0</ele><time>2016-06-18T03:21:43.307Z</time></trkpt><trkpt lat="58.431325" lon="14.861865"><ele>85.0</ele><time>2016-06-18T03:21:44.305Z</time></trkpt><trkpt lat="58.43132333" lon="14.86152833"><ele>85.0</ele><time>2016-06-18T03:21:45.306Z</time></trkpt><trkpt lat="58.43132167" lon="14.86136333"><ele>85.0</ele><time>2016-06-18T03:21:46.307Z</time></trkpt><trkpt lat="58.43132167" lon="14.86136333"><ele>85.0</ele><time>2016-06-18T03:21:47.304Z</time></trkpt><trkpt lat="58.43131833" lon="14.86103333"><ele>85.0</ele><time>2016-06-18T03:21:48.307Z</time></trkpt><trkpt lat="58.43131833" lon="14.86103333"><ele>85.0</ele><time>2016-06-18T03:21:49.299Z</time></trkpt><trkpt lat="58.43131167" lon="14.86070333"><ele>85.0</ele><time>2016-06-18T03:21:50.308Z</time></trkpt><trkpt lat="58.43131167" lon="14.86070333"><ele>85.0</ele><time>2016-06-18T03:21:51.304Z</time></trkpt><trkpt lat="58.43130667" lon="14.86036833"><ele>85.0</ele><time>2016-06-18T03:21:52.305Z</time></trkpt><trkpt lat="58.431305" lon="14.86020167"><ele>85.0</ele><time>2016-06-18T03:21:53.305Z</time></trkpt><trkpt lat="58.431305" lon="14.86020167"><ele>85.0</ele><time>2016-06-18T03:21:54.299Z</time></trkpt><trkpt lat="58.4313" lon="14.859865"><ele>85.0</ele><time>2016-06-18T03:21:55.308Z</time></trkpt><trkpt lat="58.4313" lon="14.859865"><ele>85.0</ele><time>2016-06-18T03:21:56.305Z</time></trkpt><trkpt lat="58.43129167" lon="14.85953"><ele>85.0</ele><time>2016-06-18T03:21:57.306Z</time></trkpt><trkpt lat="58.431285" lon="14.85936333"><ele>84.0</ele><time>2016-06-18T03:21:58.307Z</time></trkpt><trkpt lat="58.431285" lon="14.85936333"><ele>84.0</ele><time>2016-06-18T03:21:59.304Z</time></trkpt><trkpt lat="58.43127167" lon="14.85903167"><ele>84.0</ele><time>2016-06-18T03:22:00.313Z</time></trkpt><trkpt lat="58.431265" lon="14.858865"><ele>84.0</ele><time>2016-06-18T03:22:01.308Z</time></trkpt><trkpt lat="58.431265" lon="14.858865"><ele>84.0</ele><time>2016-06-18T03:22:02.318Z</time></trkpt><trkpt lat="58.43125167" lon="14.85853333"><ele>84.0</ele><time>2016-06-18T03:22:03.307Z</time></trkpt><trkpt lat="58.43124333" lon="14.85837"><ele>84.0</ele><time>2016-06-18T03:22:04.308Z</time></trkpt><trkpt lat="58.43124333" lon="14.85837"><ele>84.0</ele><time>2016-06-18T03:22:05.302Z</time></trkpt><trkpt lat="58.431225" lon="14.858045"><ele>84.0</ele><time>2016-06-18T03:22:06.307Z</time></trkpt><trkpt lat="58.431225" lon="14.858045"><ele>84.0</ele><time>2016-06-18T03:22:07.305Z</time></trkpt><trkpt lat="58.43119667" lon="14.85773167"><ele>85.0</ele><time>2016-06-18T03:22:08.308Z</time></trkpt><trkpt lat="58.43118" lon="14.857575"><ele>85.0</ele><time>2016-06-18T03:22:09.308Z</time></trkpt><trkpt lat="58.43116333" lon="14.85742"><ele>85.0</ele><time>2016-06-18T03:22:10.307Z</time></trkpt><trkpt lat="58.43116333" lon="14.85742"><ele>85.0</ele><time>2016-06-18T03:22:11.305Z</time></trkpt><trkpt lat="58.43112667" lon="14.857115"><ele>85.0</ele><time>2016-06-18T03:22:12.282Z</time></trkpt><trkpt lat="58.43110667" lon="14.85696167"><ele>85.0</ele><time>2016-06-18T03:22:13.308Z</time></trkpt><trkpt lat="58.43110667" lon="14.85696167"><ele>85.0</ele><time>2016-06-18T03:22:14.315Z</time></trkpt><trkpt lat="58.431065" lon="14.856655"><ele>85.0</ele><time>2016-06-18T03:22:15.307Z</time></trkpt><trkpt lat="58.43104333" lon="14.85650167"><ele>85.0</ele><time>2016-06-18T03:22:16.309Z</time></trkpt><trkpt lat="58.43104333" lon="14.85650167"><ele>85.0</ele><time>2016-06-18T03:22:17.305Z</time></trkpt><trkpt lat="58.43099833" lon="14.856195"><ele>85.0</ele><time>2016-06-18T03:22:18.307Z</time></trkpt><trkpt lat="58.43097667" lon="14.85604333"><ele>85.0</ele><time>2016-06-18T03:22:19.306Z</time></trkpt><trkpt lat="58.43097667" lon="14.85604333"><ele>85.0</ele><time>2016-06-18T03:22:20.305Z</time></trkpt><trkpt lat="58.43093" lon="14.85574167"><ele>85.0</ele><time>2016-06-18T03:22:21.307Z</time></trkpt><trkpt lat="58.43090667" lon="14.85559333"><ele>85.0</ele><time>2016-06-18T03:22:22.307Z</time></trkpt><trkpt lat="58.43090667" lon="14.85559333"><ele>85.0</ele><time>2016-06-18T03:22:23.303Z</time></trkpt><trkpt lat="58.43086" lon="14.8553"><ele>86.0</ele><time>2016-06-18T03:22:24.308Z</time></trkpt><trkpt lat="58.43086" lon="14.8553"><ele>86.0</ele><time>2016-06-18T03:22:25.305Z</time></trkpt><trkpt lat="58.43081167" lon="14.85501"><ele>86.0</ele><time>2016-06-18T03:22:26.308Z</time></trkpt><trkpt lat="58.43081167" lon="14.85501"><ele>86.0</ele><time>2016-06-18T03:22:27.295Z</time></trkpt><trkpt lat="58.43076333" lon="14.85472667"><ele>86.0</ele><time>2016-06-18T03:22:28.307Z</time></trkpt><trkpt lat="58.43076333" lon="14.85472667"><ele>86.0</ele><time>2016-06-18T03:22:29.303Z</time></trkpt><trkpt lat="58.43071667" lon="14.85445"><ele>86.0</ele><time>2016-06-18T03:22:30.308Z</time></trkpt><trkpt lat="58.43071667" lon="14.85445"><ele>86.0</ele><time>2016-06-18T03:22:31.304Z</time></trkpt><trkpt lat="58.43066833" lon="14.854185"><ele>86.0</ele><time>2016-06-18T03:22:32.308Z</time></trkpt><trkpt lat="58.43066833" lon="14.854185"><ele>86.0</ele><time>2016-06-18T03:22:33.304Z</time></trkpt><trkpt lat="58.43062333" lon="14.85391667"><ele>86.0</ele><time>2016-06-18T03:22:34.307Z</time></trkpt><trkpt lat="58.43062333" lon="14.85391667"><ele>86.0</ele><time>2016-06-18T03:22:35.318Z</time></trkpt><trkpt lat="58.43057667" lon="14.853645"><ele>86.0</ele><time>2016-06-18T03:22:36.307Z</time></trkpt><trkpt lat="58.43057667" lon="14.853645"><ele>86.0</ele><time>2016-06-18T03:22:37.299Z</time></trkpt><trkpt lat="58.43052667" lon="14.85337833"><ele>86.0</ele><time>2016-06-18T03:22:38.309Z</time></trkpt><trkpt lat="58.4305" lon="14.853245"><ele>86.0</ele><time>2016-06-18T03:22:39.310Z</time></trkpt><trkpt lat="58.4305" lon="14.853245"><ele>86.0</ele><time>2016-06-18T03:22:40.303Z</time></trkpt><trkpt lat="58.43045" lon="14.85297167"><ele>86.0</ele><time>2016-06-18T03:22:41.308Z</time></trkpt><trkpt lat="58.43045" lon="14.85297167"><ele>86.0</ele><time>2016-06-18T03:22:42.305Z</time></trkpt><trkpt lat="58.43040167" lon="14.852705"><ele>86.0</ele><time>2016-06-18T03:22:43.321Z</time></trkpt><trkpt lat="58.43037833" lon="14.85257333"><ele>86.0</ele><time>2016-06-18T03:22:44.309Z</time></trkpt><trkpt lat="58.43037833" lon="14.85257333"><ele>86.0</ele><time>2016-06-18T03:22:45.305Z</time></trkpt><trkpt lat="58.43032833" lon="14.85231"><ele>86.0</ele><time>2016-06-18T03:22:46.309Z</time></trkpt><trkpt lat="58.43032833" lon="14.85231"><ele>86.0</ele><time>2016-06-18T03:22:47.303Z</time></trkpt><trkpt lat="58.430275" lon="14.85204833"><ele>86.0</ele><time>2016-06-18T03:22:48.304Z</time></trkpt><trkpt lat="58.430275" lon="14.85204833"><ele>86.0</ele><time>2016-06-18T03:22:49.299Z</time></trkpt><trkpt lat="58.43022" lon="14.851785"><ele>86.0</ele><time>2016-06-18T03:22:50.309Z</time></trkpt><trkpt lat="58.43022" lon="14.851785"><ele>86.0</ele><time>2016-06-18T03:22:51.305Z</time></trkpt><trkpt lat="58.43016167" lon="14.85153"><ele>86.0</ele><time>2016-06-18T03:22:52.305Z</time></trkpt><trkpt lat="58.43016167" lon="14.85153"><ele>86.0</ele><time>2016-06-18T03:22:53.301Z</time></trkpt><trkpt lat="58.430095" lon="14.85126333"><ele>87.0</ele><time>2016-06-18T03:22:54.308Z</time></trkpt><trkpt lat="58.430095" lon="14.85126333"><ele>87.0</ele><time>2016-06-18T03:22:55.305Z</time></trkpt><trkpt lat="58.430025" lon="14.850995"><ele>87.0</ele><time>2016-06-18T03:22:56.307Z</time></trkpt><trkpt lat="58.430025" lon="14.850995"><ele>87.0</ele><time>2016-06-18T03:22:57.305Z</time></trkpt><trkpt lat="58.42996" lon="14.85071667"><ele>87.0</ele><time>2016-06-18T03:22:58.307Z</time></trkpt><trkpt lat="58.42996" lon="14.85071667"><ele>87.0</ele><time>2016-06-18T03:22:59.304Z</time></trkpt><trkpt lat="58.42989333" lon="14.850435"><ele>87.0</ele><time>2016-06-18T03:23:00.312Z</time></trkpt><trkpt lat="58.42989333" lon="14.850435"><ele>87.0</ele><time>2016-06-18T03:23:01.283Z</time></trkpt><trkpt lat="58.42983" lon="14.85015167"><ele>87.0</ele><time>2016-06-18T03:23:02.312Z</time></trkpt><trkpt lat="58.42983" lon="14.85015167"><ele>87.0</ele><time>2016-06-18T03:23:03.307Z</time></trkpt><trkpt lat="58.42976333" lon="14.84987"><ele>87.0</ele><time>2016-06-18T03:23:04.308Z</time></trkpt><trkpt lat="58.42973" lon="14.84973"><ele>87.0</ele><time>2016-06-18T03:23:05.308Z</time></trkpt><trkpt lat="58.42973" lon="14.84973"><ele>87.0</ele><time>2016-06-18T03:23:06.312Z</time></trkpt><trkpt lat="58.42965667" lon="14.84944833"><ele>87.0</ele><time>2016-06-18T03:23:07.307Z</time></trkpt><trkpt lat="58.42962" lon="14.849305"><ele>87.0</ele><time>2016-06-18T03:23:08.309Z</time></trkpt><trkpt lat="58.42962" lon="14.849305"><ele>87.0</ele><time>2016-06-18T03:23:09.300Z</time></trkpt><trkpt lat="58.42954167" lon="14.84901833"><ele>87.0</ele><time>2016-06-18T03:23:10.307Z</time></trkpt><trkpt lat="58.42954167" lon="14.84901833"><ele>87.0</ele><time>2016-06-18T03:23:11.305Z</time></trkpt><trkpt lat="58.42946" lon="14.848735"><ele>87.0</ele><time>2016-06-18T03:23:12.309Z</time></trkpt><trkpt lat="58.42946" lon="14.848735"><ele>87.0</ele><time>2016-06-18T03:23:13.290Z</time></trkpt><trkpt lat="58.429375" lon="14.84845167"><ele>87.0</ele><time>2016-06-18T03:23:14.317Z</time></trkpt><trkpt lat="58.429375" lon="14.84845167"><ele>87.0</ele><time>2016-06-18T03:23:15.305Z</time></trkpt><trkpt lat="58.42929" lon="14.84816833"><ele>87.0</ele><time>2016-06-18T03:23:16.308Z</time></trkpt><trkpt lat="58.42929" lon="14.84816833"><ele>87.0</ele><time>2016-06-18T03:23:17.305Z</time></trkpt><trkpt lat="58.429205" lon="14.84789333"><ele>87.0</ele><time>2016-06-18T03:23:18.308Z</time></trkpt><trkpt lat="58.429205" lon="14.84789333"><ele>87.0</ele><time>2016-06-18T03:23:19.306Z</time></trkpt><trkpt lat="58.42912167" lon="14.84762167"><ele>87.0</ele><time>2016-06-18T03:23:20.308Z</time></trkpt><trkpt lat="58.42912167" lon="14.84762167"><ele>87.0</ele><time>2016-06-18T03:23:21.304Z</time></trkpt><trkpt lat="58.429035" lon="14.847355"><ele>87.0</ele><time>2016-06-18T03:23:22.308Z</time></trkpt><trkpt lat="58.429035" lon="14.847355"><ele>87.0</ele><time>2016-06-18T03:23:23.303Z</time></trkpt><trkpt lat="58.42895" lon="14.84708667"><ele>88.0</ele><time>2016-06-18T03:23:24.307Z</time></trkpt><trkpt lat="58.42890667" lon="14.84695167"><ele>88.0</ele><time>2016-06-18T03:23:25.308Z</time></trkpt><trkpt lat="58.42890667" lon="14.84695167"><ele>88.0</ele><time>2016-06-18T03:23:26.306Z</time></trkpt><trkpt lat="58.428825" lon="14.84668333"><ele>88.0</ele><time>2016-06-18T03:23:27.308Z</time></trkpt><trkpt lat="58.428785" lon="14.84654667"><ele>88.0</ele><time>2016-06-18T03:23:28.308Z</time></trkpt><trkpt lat="58.428785" lon="14.84654667"><ele>88.0</ele><time>2016-06-18T03:23:29.304Z</time></trkpt><trkpt lat="58.42870333" lon="14.84627333"><ele>88.0</ele><time>2016-06-18T03:23:30.308Z</time></trkpt><trkpt lat="58.42870333" lon="14.84627333"><ele>88.0</ele><time>2016-06-18T03:23:31.301Z</time></trkpt><trkpt lat="58.428615" lon="14.84600167"><ele>88.0</ele><time>2016-06-18T03:23:32.308Z</time></trkpt><trkpt lat="58.428615" lon="14.84600167"><ele>88.0</ele><time>2016-06-18T03:23:33.305Z</time></trkpt><trkpt lat="58.42852833" lon="14.845735"><ele>88.0</ele><time>2016-06-18T03:23:34.318Z</time></trkpt><trkpt lat="58.42852833" lon="14.845735"><ele>88.0</ele><time>2016-06-18T03:23:35.305Z</time></trkpt><trkpt lat="58.42844167" lon="14.84547"><ele>88.0</ele><time>2016-06-18T03:23:36.308Z</time></trkpt><trkpt lat="58.42839833" lon="14.84534"><ele>89.0</ele><time>2016-06-18T03:23:37.308Z</time></trkpt><trkpt lat="58.42835667" lon="14.84521"><ele>89.0</ele><time>2016-06-18T03:23:38.309Z</time></trkpt><trkpt lat="58.42835667" lon="14.84521"><ele>89.0</ele><time>2016-06-18T03:23:39.305Z</time></trkpt><trkpt lat="58.42827333" lon="14.844945"><ele>89.0</ele><time>2016-06-18T03:23:40.309Z</time></trkpt><trkpt lat="58.42827333" lon="14.844945"><ele>89.0</ele><time>2016-06-18T03:23:41.303Z</time></trkpt><trkpt lat="58.42819167" lon="14.844685"><ele>89.0</ele><time>2016-06-18T03:23:42.307Z</time></trkpt><trkpt lat="58.42819167" lon="14.844685"><ele>89.0</ele><time>2016-06-18T03:23:43.290Z</time></trkpt><trkpt lat="58.42811167" lon="14.84443"><ele>89.0</ele><time>2016-06-18T03:23:44.317Z</time></trkpt><trkpt lat="58.42811167" lon="14.84443"><ele>89.0</ele><time>2016-06-18T03:23:45.305Z</time></trkpt><trkpt lat="58.428035" lon="14.84417667"><ele>89.0</ele><time>2016-06-18T03:23:46.308Z</time></trkpt><trkpt lat="58.428035" lon="14.84417667"><ele>89.0</ele><time>2016-06-18T03:23:47.305Z</time></trkpt><trkpt lat="58.42796167" lon="14.843915"><ele>89.0</ele><time>2016-06-18T03:23:48.304Z</time></trkpt><trkpt lat="58.42792333" lon="14.843785"><ele>89.0</ele><time>2016-06-18T03:23:49.306Z</time></trkpt><trkpt lat="58.42788667" lon="14.84365333"><ele>90.0</ele><time>2016-06-18T03:23:50.310Z</time></trkpt><trkpt lat="58.42788667" lon="14.84365333"><ele>90.0</ele><time>2016-06-18T03:23:51.304Z</time></trkpt><trkpt lat="58.42781333" lon="14.84338667"><ele>89.0</ele><time>2016-06-18T03:23:52.309Z</time></trkpt><trkpt lat="58.42781333" lon="14.84338667"><ele>89.0</ele><time>2016-06-18T03:23:53.298Z</time></trkpt><trkpt lat="58.42773833" lon="14.84311833"><ele>89.0</ele><time>2016-06-18T03:23:54.288Z</time></trkpt><trkpt lat="58.42773833" lon="14.84311833"><ele>89.0</ele><time>2016-06-18T03:23:55.314Z</time></trkpt><trkpt lat="58.42766667" lon="14.842845"><ele>90.0</ele><time>2016-06-18T03:23:56.309Z</time></trkpt><trkpt lat="58.42766667" lon="14.842845"><ele>90.0</ele><time>2016-06-18T03:23:57.304Z</time></trkpt><trkpt lat="58.42759333" lon="14.84257"><ele>89.0</ele><time>2016-06-18T03:23:58.306Z</time></trkpt><trkpt lat="58.42759333" lon="14.84257"><ele>89.0</ele><time>2016-06-18T03:23:59.305Z</time></trkpt><trkpt lat="58.42752" lon="14.84229333"><ele>89.0</ele><time>2016-06-18T03:24:00.313Z</time></trkpt><trkpt lat="58.42752" lon="14.84229333"><ele>89.0</ele><time>2016-06-18T03:24:01.303Z</time></trkpt><trkpt lat="58.42744333" lon="14.84201667"><ele>90.0</ele><time>2016-06-18T03:24:02.310Z</time></trkpt><trkpt lat="58.42744333" lon="14.84201667"><ele>90.0</ele><time>2016-06-18T03:24:03.302Z</time></trkpt><trkpt lat="58.42737" lon="14.84174167"><ele>90.0</ele><time>2016-06-18T03:24:04.308Z</time></trkpt><trkpt lat="58.42737" lon="14.84174167"><ele>90.0</ele><time>2016-06-18T03:24:05.306Z</time></trkpt><trkpt lat="58.42729833" lon="14.84146833"><ele>90.0</ele><time>2016-06-18T03:24:06.308Z</time></trkpt><trkpt lat="58.42726167" lon="14.84133"><ele>90.0</ele><time>2016-06-18T03:24:07.308Z</time></trkpt><trkpt lat="58.427225" lon="14.84119"><ele>90.0</ele><time>2016-06-18T03:24:08.310Z</time></trkpt><trkpt lat="58.427225" lon="14.84119"><ele>90.0</ele><time>2016-06-18T03:24:09.306Z</time></trkpt><trkpt lat="58.42715333" lon="14.84091667"><ele>90.0</ele><time>2016-06-18T03:24:10.308Z</time></trkpt><trkpt lat="58.42715333" lon="14.84091667"><ele>90.0</ele><time>2016-06-18T03:24:11.305Z</time></trkpt><trkpt lat="58.42708" lon="14.840645"><ele>91.0</ele><time>2016-06-18T03:24:12.283Z</time></trkpt><trkpt lat="58.42708" lon="14.840645"><ele>91.0</ele><time>2016-06-18T03:24:13.309Z</time></trkpt><trkpt lat="58.42700833" lon="14.84037333"><ele>91.0</ele><time>2016-06-18T03:24:14.309Z</time></trkpt><trkpt lat="58.42700833" lon="14.84037333"><ele>91.0</ele><time>2016-06-18T03:24:15.306Z</time></trkpt><trkpt lat="58.42693667" lon="14.840105"><ele>91.0</ele><time>2016-06-18T03:24:16.309Z</time></trkpt><trkpt lat="58.42693667" lon="14.840105"><ele>91.0</ele><time>2016-06-18T03:24:17.302Z</time></trkpt><trkpt lat="58.42686333" lon="14.83983667"><ele>91.0</ele><time>2016-06-18T03:24:18.309Z</time></trkpt><trkpt lat="58.42686333" lon="14.83983667"><ele>91.0</ele><time>2016-06-18T03:24:19.306Z</time></trkpt><trkpt lat="58.42679" lon="14.83957167"><ele>92.0</ele><time>2016-06-18T03:24:20.310Z</time></trkpt><trkpt lat="58.42679" lon="14.83957167"><ele>92.0</ele><time>2016-06-18T03:24:21.305Z</time></trkpt><trkpt lat="58.42672" lon="14.83930333"><ele>92.0</ele><time>2016-06-18T03:24:22.308Z</time></trkpt><trkpt lat="58.42672" lon="14.83930333"><ele>92.0</ele><time>2016-06-18T03:24:23.305Z</time></trkpt><trkpt lat="58.42664833" lon="14.83903"><ele>92.0</ele><time>2016-06-18T03:24:24.307Z</time></trkpt><trkpt lat="58.42661333" lon="14.83889333"><ele>92.0</ele><time>2016-06-18T03:24:25.308Z</time></trkpt><trkpt lat="58.42661333" lon="14.83889333"><ele>92.0</ele><time>2016-06-18T03:24:26.304Z</time></trkpt><trkpt lat="58.426545" lon="14.83861333"><ele>92.0</ele><time>2016-06-18T03:24:27.308Z</time></trkpt><trkpt lat="58.42651" lon="14.83847167"><ele>92.0</ele><time>2016-06-18T03:24:28.306Z</time></trkpt><trkpt lat="58.42651" lon="14.83847167"><ele>92.0</ele><time>2016-06-18T03:24:29.306Z</time></trkpt><trkpt lat="58.42644167" lon="14.83819167"><ele>92.0</ele><time>2016-06-18T03:24:30.308Z</time></trkpt><trkpt lat="58.42644167" lon="14.83819167"><ele>92.0</ele><time>2016-06-18T03:24:31.302Z</time></trkpt><trkpt lat="58.426375" lon="14.83790667"><ele>92.0</ele><time>2016-06-18T03:24:32.309Z</time></trkpt><trkpt lat="58.426375" lon="14.83790667"><ele>92.0</ele><time>2016-06-18T03:24:33.289Z</time></trkpt><trkpt lat="58.42630833" lon="14.83762"><ele>92.0</ele><time>2016-06-18T03:24:34.314Z</time></trkpt><trkpt lat="58.42630833" lon="14.83762"><ele>92.0</ele><time>2016-06-18T03:24:35.306Z</time></trkpt><trkpt lat="58.42624167" lon="14.837335"><ele>92.0</ele><time>2016-06-18T03:24:36.309Z</time></trkpt><trkpt lat="58.42620667" lon="14.837195"><ele>92.0</ele><time>2016-06-18T03:24:37.318Z</time></trkpt><trkpt lat="58.42616833" lon="14.837055"><ele>92.0</ele><time>2016-06-18T03:24:38.310Z</time></trkpt><trkpt lat="58.42616833" lon="14.837055"><ele>92.0</ele><time>2016-06-18T03:24:39.306Z</time></trkpt><trkpt lat="58.42608333" lon="14.83678167"><ele>92.0</ele><time>2016-06-18T03:24:40.306Z</time></trkpt><trkpt lat="58.42608333" lon="14.83678167"><ele>92.0</ele><time>2016-06-18T03:24:41.306Z</time></trkpt><trkpt lat="58.42598167" lon="14.836525"><ele>92.0</ele><time>2016-06-18T03:24:42.306Z</time></trkpt><trkpt lat="58.425925" lon="14.836405"><ele>92.0</ele><time>2016-06-18T03:24:43.309Z</time></trkpt><trkpt lat="58.425925" lon="14.836405"><ele>92.0</ele><time>2016-06-18T03:24:44.307Z</time></trkpt><trkpt lat="58.42580333" lon="14.83617167"><ele>92.0</ele><time>2016-06-18T03:24:45.308Z</time></trkpt><trkpt lat="58.42574" lon="14.83605833"><ele>92.0</ele><time>2016-06-18T03:24:46.309Z</time></trkpt><trkpt lat="58.42574" lon="14.83605833"><ele>92.0</ele><time>2016-06-18T03:24:47.301Z</time></trkpt><trkpt lat="58.42561" lon="14.83583333"><ele>92.0</ele><time>2016-06-18T03:24:48.309Z</time></trkpt><trkpt lat="58.42561" lon="14.83583333"><ele>92.0</ele><time>2016-06-18T03:24:49.307Z</time></trkpt><trkpt lat="58.42547667" lon="14.83561167"><ele>92.0</ele><time>2016-06-18T03:24:50.309Z</time></trkpt><trkpt lat="58.42547667" lon="14.83561167"><ele>92.0</ele><time>2016-06-18T03:24:51.305Z</time></trkpt><trkpt lat="58.42534167" lon="14.83539"><ele>92.0</ele><time>2016-06-18T03:24:52.306Z</time></trkpt><trkpt lat="58.42534167" lon="14.83539"><ele>92.0</ele><time>2016-06-18T03:24:53.307Z</time></trkpt><trkpt lat="58.42520667" lon="14.83517"><ele>92.0</ele><time>2016-06-18T03:24:54.318Z</time></trkpt><trkpt lat="58.42520667" lon="14.83517"><ele>92.0</ele><time>2016-06-18T03:24:55.306Z</time></trkpt><trkpt lat="58.42506833" lon="14.83495167"><ele>92.0</ele><time>2016-06-18T03:24:56.310Z</time></trkpt><trkpt lat="58.42500167" lon="14.83484167"><ele>91.0</ele><time>2016-06-18T03:24:57.308Z</time></trkpt><trkpt lat="58.424935" lon="14.834735"><ele>91.0</ele><time>2016-06-18T03:24:58.306Z</time></trkpt><trkpt lat="58.424935" lon="14.834735"><ele>91.0</ele><time>2016-06-18T03:24:59.306Z</time></trkpt><trkpt lat="58.424805" lon="14.83452"><ele>91.0</ele><time>2016-06-18T03:25:00.316Z</time></trkpt><trkpt lat="58.424805" lon="14.83452"><ele>91.0</ele><time>2016-06-18T03:25:01.306Z</time></trkpt><trkpt lat="58.42467333" lon="14.83431333"><ele>91.0</ele><time>2016-06-18T03:25:02.310Z</time></trkpt><trkpt lat="58.42467333" lon="14.83431333"><ele>91.0</ele><time>2016-06-18T03:25:03.300Z</time></trkpt><trkpt lat="58.42453167" lon="14.83411167"><ele>91.0</ele><time>2016-06-18T03:25:04.290Z</time></trkpt><trkpt lat="58.42453167" lon="14.83411167"><ele>91.0</ele><time>2016-06-18T03:25:05.290Z</time></trkpt><trkpt lat="58.42438833" lon="14.83389333"><ele>91.0</ele><time>2016-06-18T03:25:06.287Z</time></trkpt><trkpt lat="58.42438833" lon="14.83389333"><ele>91.0</ele><time>2016-06-18T03:25:07.315Z</time></trkpt><trkpt lat="58.42424667" lon="14.833675"><ele>91.0</ele><time>2016-06-18T03:25:08.309Z</time></trkpt><trkpt lat="58.42424667" lon="14.833675"><ele>91.0</ele><time>2016-06-18T03:25:09.306Z</time></trkpt><trkpt lat="58.42410333" lon="14.83346667"><ele>92.0</ele><time>2016-06-18T03:25:10.310Z</time></trkpt><trkpt lat="58.42410333" lon="14.83346667"><ele>92.0</ele><time>2016-06-18T03:25:11.308Z</time></trkpt><trkpt lat="58.42396" lon="14.83327"><ele>92.0</ele><time>2016-06-18T03:25:12.307Z</time></trkpt><trkpt lat="58.42396" lon="14.83327"><ele>92.0</ele><time>2016-06-18T03:25:13.307Z</time></trkpt><trkpt lat="58.42381833" lon="14.83307833"><ele>92.0</ele><time>2016-06-18T03:25:14.309Z</time></trkpt><trkpt lat="58.42381833" lon="14.83307833"><ele>92.0</ele><time>2016-06-18T03:25:15.306Z</time></trkpt><trkpt lat="58.423675" lon="14.83289333"><ele>93.0</ele><time>2016-06-18T03:25:16.306Z</time></trkpt><trkpt lat="58.423675" lon="14.83289333"><ele>93.0</ele><time>2016-06-18T03:25:17.306Z</time></trkpt><trkpt lat="58.42353333" lon="14.832715"><ele>93.0</ele><time>2016-06-18T03:25:18.309Z</time></trkpt><trkpt lat="58.42353333" lon="14.832715"><ele>93.0</ele><time>2016-06-18T03:25:19.306Z</time></trkpt><trkpt lat="58.42339167" lon="14.83253833"><ele>94.0</ele><time>2016-06-18T03:25:20.309Z</time></trkpt><trkpt lat="58.42339167" lon="14.83253833"><ele>94.0</ele><time>2016-06-18T03:25:21.303Z</time></trkpt><trkpt lat="58.42325333" lon="14.83235833"><ele>94.0</ele><time>2016-06-18T03:25:22.308Z</time></trkpt><trkpt lat="58.42325333" lon="14.83235833"><ele>94.0</ele><time>2016-06-18T03:25:23.307Z</time></trkpt><trkpt lat="58.42311167" lon="14.83218"><ele>94.0</ele><time>2016-06-18T03:25:24.308Z</time></trkpt><trkpt lat="58.42304167" lon="14.83209167"><ele>94.0</ele><time>2016-06-18T03:25:25.309Z</time></trkpt><trkpt lat="58.42297167" lon="14.83200167"><ele>94.0</ele><time>2016-06-18T03:25:26.310Z</time></trkpt><trkpt lat="58.42297167" lon="14.83200167"><ele>94.0</ele><time>2016-06-18T03:25:27.306Z</time></trkpt><trkpt lat="58.42283333" lon="14.83182167"><ele>94.0</ele><time>2016-06-18T03:25:28.311Z</time></trkpt><trkpt lat="58.42283333" lon="14.83182167"><ele>94.0</ele><time>2016-06-18T03:25:29.306Z</time></trkpt><trkpt lat="58.422695" lon="14.83164833"><ele>94.0</ele><time>2016-06-18T03:25:30.310Z</time></trkpt><trkpt lat="58.42262667" lon="14.83156333"><ele>94.0</ele><time>2016-06-18T03:25:31.309Z</time></trkpt><trkpt lat="58.42255833" lon="14.83147833"><ele>94.0</ele><time>2016-06-18T03:25:32.311Z</time></trkpt><trkpt lat="58.42255833" lon="14.83147833"><ele>94.0</ele><time>2016-06-18T03:25:33.288Z</time></trkpt><trkpt lat="58.42242" lon="14.83130167"><ele>95.0</ele><time>2016-06-18T03:25:34.319Z</time></trkpt><trkpt lat="58.42242" lon="14.83130167"><ele>95.0</ele><time>2016-06-18T03:25:35.290Z</time></trkpt><trkpt lat="58.42228" lon="14.83112833"><ele>95.0</ele><time>2016-06-18T03:25:36.317Z</time></trkpt><trkpt lat="58.42228" lon="14.83112833"><ele>95.0</ele><time>2016-06-18T03:25:37.305Z</time></trkpt><trkpt lat="58.42214333" lon="14.83095667"><ele>95.0</ele><time>2016-06-18T03:25:38.310Z</time></trkpt><trkpt lat="58.42214333" lon="14.83095667"><ele>95.0</ele><time>2016-06-18T03:25:39.307Z</time></trkpt><trkpt lat="58.422005" lon="14.83079333"><ele>95.0</ele><time>2016-06-18T03:25:40.310Z</time></trkpt><trkpt lat="58.422005" lon="14.83079333"><ele>95.0</ele><time>2016-06-18T03:25:41.306Z</time></trkpt><trkpt lat="58.42186833" lon="14.83062333"><ele>95.0</ele><time>2016-06-18T03:25:42.310Z</time></trkpt><trkpt lat="58.42179833" lon="14.83053667"><ele>95.0</ele><time>2016-06-18T03:25:43.309Z</time></trkpt><trkpt lat="58.42179833" lon="14.83053667"><ele>95.0</ele><time>2016-06-18T03:25:44.301Z</time></trkpt><trkpt lat="58.42166167" lon="14.83036167"><ele>95.0</ele><time>2016-06-18T03:25:45.309Z</time></trkpt><trkpt lat="58.42159333" lon="14.830275"><ele>95.0</ele><time>2016-06-18T03:25:46.310Z</time></trkpt><trkpt lat="58.42159333" lon="14.830275"><ele>95.0</ele><time>2016-06-18T03:25:47.303Z</time></trkpt><trkpt lat="58.42146" lon="14.83009833"><ele>95.0</ele><time>2016-06-18T03:25:48.310Z</time></trkpt><trkpt lat="58.42146" lon="14.83009833"><ele>95.0</ele><time>2016-06-18T03:25:49.306Z</time></trkpt><trkpt lat="58.42132333" lon="14.82992667"><ele>95.0</ele><time>2016-06-18T03:25:50.312Z</time></trkpt><trkpt lat="58.42132333" lon="14.82992667"><ele>95.0</ele><time>2016-06-18T03:25:51.304Z</time></trkpt><trkpt lat="58.42118667" lon="14.82975167"><ele>95.0</ele><time>2016-06-18T03:25:52.310Z</time></trkpt><trkpt lat="58.42118667" lon="14.82975167"><ele>95.0</ele><time>2016-06-18T03:25:53.307Z</time></trkpt><trkpt lat="58.42105" lon="14.82958167"><ele>95.0</ele><time>2016-06-18T03:25:54.311Z</time></trkpt><trkpt lat="58.42098333" lon="14.829495"><ele>95.0</ele><time>2016-06-18T03:25:55.306Z</time></trkpt><trkpt lat="58.42091667" lon="14.82941"><ele>96.0</ele><time>2016-06-18T03:25:56.310Z</time></trkpt><trkpt lat="58.42091667" lon="14.82941"><ele>96.0</ele><time>2016-06-18T03:25:57.307Z</time></trkpt><trkpt lat="58.42078333" lon="14.829235"><ele>96.0</ele><time>2016-06-18T03:25:58.311Z</time></trkpt><trkpt lat="58.42078333" lon="14.829235"><ele>96.0</ele><time>2016-06-18T03:25:59.306Z</time></trkpt><trkpt lat="58.42064833" lon="14.82905667"><ele>96.0</ele><time>2016-06-18T03:26:00.314Z</time></trkpt><trkpt lat="58.42058" lon="14.82897"><ele>96.0</ele><time>2016-06-18T03:26:01.310Z</time></trkpt><trkpt lat="58.42051333" lon="14.828885"><ele>96.0</ele><time>2016-06-18T03:26:02.311Z</time></trkpt><trkpt lat="58.42051333" lon="14.828885"><ele>96.0</ele><time>2016-06-18T03:26:03.307Z</time></trkpt><trkpt lat="58.42037833" lon="14.82871833"><ele>96.0</ele><time>2016-06-18T03:26:04.310Z</time></trkpt><trkpt lat="58.42037833" lon="14.82871833"><ele>96.0</ele><time>2016-06-18T03:26:05.307Z</time></trkpt><trkpt lat="58.420245" lon="14.82855"><ele>96.0</ele><time>2016-06-18T03:26:06.309Z</time></trkpt><trkpt lat="58.42017833" lon="14.82847"><ele>96.0</ele><time>2016-06-18T03:26:07.310Z</time></trkpt><trkpt lat="58.42017833" lon="14.82847"><ele>96.0</ele><time>2016-06-18T03:26:08.309Z</time></trkpt><trkpt lat="58.42004833" lon="14.82830667"><ele>96.0</ele><time>2016-06-18T03:26:09.309Z</time></trkpt><trkpt lat="58.41998333" lon="14.82822333"><ele>96.0</ele><time>2016-06-18T03:26:10.310Z</time></trkpt><trkpt lat="58.41998333" lon="14.82822333"><ele>96.0</ele><time>2016-06-18T03:26:11.310Z</time></trkpt><trkpt lat="58.41984833" lon="14.82806333"><ele>96.0</ele><time>2016-06-18T03:26:12.316Z</time></trkpt><trkpt lat="58.41984833" lon="14.82806333"><ele>96.0</ele><time>2016-06-18T03:26:13.307Z</time></trkpt><trkpt lat="58.41971333" lon="14.8279"><ele>96.0</ele><time>2016-06-18T03:26:14.282Z</time></trkpt><trkpt lat="58.41971333" lon="14.8279"><ele>96.0</ele><time>2016-06-18T03:26:15.307Z</time></trkpt><trkpt lat="58.41958" lon="14.82773667"><ele>96.0</ele><time>2016-06-18T03:26:16.312Z</time></trkpt><trkpt lat="58.41958" lon="14.82773667"><ele>96.0</ele><time>2016-06-18T03:26:17.307Z</time></trkpt><trkpt lat="58.41944833" lon="14.827575"><ele>96.0</ele><time>2016-06-18T03:26:18.312Z</time></trkpt><trkpt lat="58.41944833" lon="14.827575"><ele>96.0</ele><time>2016-06-18T03:26:19.313Z</time></trkpt><trkpt lat="58.41931833" lon="14.827415"><ele>95.0</ele><time>2016-06-18T03:26:20.312Z</time></trkpt><trkpt lat="58.41931833" lon="14.827415"><ele>95.0</ele><time>2016-06-18T03:26:21.307Z</time></trkpt><trkpt lat="58.41918833" lon="14.82725333"><ele>95.0</ele><time>2016-06-18T03:26:22.319Z</time></trkpt><trkpt lat="58.41918833" lon="14.82725333"><ele>95.0</ele><time>2016-06-18T03:26:23.307Z</time></trkpt><trkpt lat="58.41905833" lon="14.82708833"><ele>95.0</ele><time>2016-06-18T03:26:24.311Z</time></trkpt><trkpt lat="58.41905833" lon="14.82708833"><ele>95.0</ele><time>2016-06-18T03:26:25.307Z</time></trkpt><trkpt lat="58.41893" lon="14.82692667"><ele>95.0</ele><time>2016-06-18T03:26:26.308Z</time></trkpt><trkpt lat="58.41893" lon="14.82692667"><ele>95.0</ele><time>2016-06-18T03:26:27.307Z</time></trkpt><trkpt lat="58.41880333" lon="14.82676833"><ele>95.0</ele><time>2016-06-18T03:26:28.310Z</time></trkpt><trkpt lat="58.41880333" lon="14.82676833"><ele>95.0</ele><time>2016-06-18T03:26:29.305Z</time></trkpt><trkpt lat="58.41866833" lon="14.82661167"><ele>95.0</ele><time>2016-06-18T03:26:30.309Z</time></trkpt><trkpt lat="58.41860167" lon="14.82653167"><ele>95.0</ele><time>2016-06-18T03:26:31.310Z</time></trkpt><trkpt lat="58.41860167" lon="14.82653167"><ele>95.0</ele><time>2016-06-18T03:26:32.308Z</time></trkpt><trkpt lat="58.41846667" lon="14.82637"><ele>96.0</ele><time>2016-06-18T03:26:33.311Z</time></trkpt><trkpt lat="58.41846667" lon="14.82637"><ele>96.0</ele><time>2016-06-18T03:26:34.302Z</time></trkpt><trkpt lat="58.41833333" lon="14.8262"><ele>96.0</ele><time>2016-06-18T03:26:35.309Z</time></trkpt><trkpt lat="58.41826667" lon="14.82611833"><ele>96.0</ele><time>2016-06-18T03:26:36.310Z</time></trkpt><trkpt lat="58.41826667" lon="14.82611833"><ele>96.0</ele><time>2016-06-18T03:26:37.304Z</time></trkpt><trkpt lat="58.41813333" lon="14.82595333"><ele>96.0</ele><time>2016-06-18T03:26:38.314Z</time></trkpt><trkpt lat="58.41813333" lon="14.82595333"><ele>96.0</ele><time>2016-06-18T03:26:39.307Z</time></trkpt><trkpt lat="58.41799833" lon="14.82579167"><ele>96.0</ele><time>2016-06-18T03:26:40.311Z</time></trkpt><trkpt lat="58.41799833" lon="14.82579167"><ele>96.0</ele><time>2016-06-18T03:26:41.308Z</time></trkpt><trkpt lat="58.417865" lon="14.82562333"><ele>96.0</ele><time>2016-06-18T03:26:42.310Z</time></trkpt><trkpt lat="58.41779667" lon="14.82554333"><ele>96.0</ele><time>2016-06-18T03:26:43.317Z</time></trkpt><trkpt lat="58.41773" lon="14.825465"><ele>96.0</ele><time>2016-06-18T03:26:44.310Z</time></trkpt><trkpt lat="58.41773" lon="14.825465"><ele>96.0</ele><time>2016-06-18T03:26:45.307Z</time></trkpt><trkpt lat="58.417595" lon="14.82530333"><ele>96.0</ele><time>2016-06-18T03:26:46.311Z</time></trkpt><trkpt lat="58.417595" lon="14.82530333"><ele>96.0</ele><time>2016-06-18T03:26:47.305Z</time></trkpt><trkpt lat="58.41746" lon="14.82513833"><ele>95.0</ele><time>2016-06-18T03:26:48.311Z</time></trkpt><trkpt lat="58.41746" lon="14.82513833"><ele>95.0</ele><time>2016-06-18T03:26:49.308Z</time></trkpt><trkpt lat="58.41732833" lon="14.82497333"><ele>96.0</ele><time>2016-06-18T03:26:50.308Z</time></trkpt><trkpt lat="58.41732833" lon="14.82497333"><ele>96.0</ele><time>2016-06-18T03:26:51.305Z</time></trkpt><trkpt lat="58.41719833" lon="14.82480833"><ele>96.0</ele><time>2016-06-18T03:26:52.311Z</time></trkpt><trkpt lat="58.41719833" lon="14.82480833"><ele>96.0</ele><time>2016-06-18T03:26:53.308Z</time></trkpt><trkpt lat="58.41706833" lon="14.824645"><ele>96.0</ele><time>2016-06-18T03:26:54.311Z</time></trkpt><trkpt lat="58.41706833" lon="14.824645"><ele>96.0</ele><time>2016-06-18T03:26:55.307Z</time></trkpt><trkpt lat="58.41694" lon="14.82448667"><ele>96.0</ele><time>2016-06-18T03:26:56.311Z</time></trkpt><trkpt lat="58.41694" lon="14.82448667"><ele>96.0</ele><time>2016-06-18T03:26:57.308Z</time></trkpt><trkpt lat="58.41681167" lon="14.82432833"><ele>96.0</ele><time>2016-06-18T03:26:58.310Z</time></trkpt><trkpt lat="58.41681167" lon="14.82432833"><ele>96.0</ele><time>2016-06-18T03:26:59.308Z</time></trkpt><trkpt lat="58.41668333" lon="14.824175"><ele>96.0</ele><time>2016-06-18T03:27:00.318Z</time></trkpt><trkpt lat="58.41668333" lon="14.824175"><ele>96.0</ele><time>2016-06-18T03:27:01.307Z</time></trkpt><trkpt lat="58.416555" lon="14.82400667"><ele>96.0</ele><time>2016-06-18T03:27:02.312Z</time></trkpt><trkpt lat="58.41649167" lon="14.82392667"><ele>96.0</ele><time>2016-06-18T03:27:03.322Z</time></trkpt><trkpt lat="58.41649167" lon="14.82392667"><ele>96.0</ele><time>2016-06-18T03:27:04.308Z</time></trkpt><trkpt lat="58.41636333" lon="14.823775"><ele>96.0</ele><time>2016-06-18T03:27:05.310Z</time></trkpt><trkpt lat="58.41629833" lon="14.82369833"><ele>96.0</ele><time>2016-06-18T03:27:06.312Z</time></trkpt><trkpt lat="58.41629833" lon="14.82369833"><ele>96.0</ele><time>2016-06-18T03:27:07.307Z</time></trkpt><trkpt lat="58.41617" lon="14.82353833"><ele>97.0</ele><time>2016-06-18T03:27:08.312Z</time></trkpt><trkpt lat="58.41617" lon="14.82353833"><ele>97.0</ele><time>2016-06-18T03:27:09.308Z</time></trkpt><trkpt lat="58.41604333" lon="14.823375"><ele>97.0</ele><time>2016-06-18T03:27:10.312Z</time></trkpt><trkpt lat="58.41604333" lon="14.823375"><ele>97.0</ele><time>2016-06-18T03:27:11.308Z</time></trkpt><trkpt lat="58.41591667" lon="14.82321667"><ele>97.0</ele><time>2016-06-18T03:27:12.319Z</time></trkpt><trkpt lat="58.41591667" lon="14.82321667"><ele>97.0</ele><time>2016-06-18T03:27:13.308Z</time></trkpt><trkpt lat="58.41578667" lon="14.82306"><ele>97.0</ele><time>2016-06-18T03:27:14.311Z</time></trkpt><trkpt lat="58.41578667" lon="14.82306"><ele>97.0</ele><time>2016-06-18T03:27:15.305Z</time></trkpt><trkpt lat="58.41565667" lon="14.82290167"><ele>97.0</ele><time>2016-06-18T03:27:16.309Z</time></trkpt><trkpt lat="58.41565667" lon="14.82290167"><ele>97.0</ele><time>2016-06-18T03:27:17.308Z</time></trkpt><trkpt lat="58.415525" lon="14.82274333"><ele>97.0</ele><time>2016-06-18T03:27:18.308Z</time></trkpt><trkpt lat="58.415525" lon="14.82274333"><ele>97.0</ele><time>2016-06-18T03:27:19.302Z</time></trkpt><trkpt lat="58.41539333" lon="14.82258"><ele>97.0</ele><time>2016-06-18T03:27:20.308Z</time></trkpt><trkpt lat="58.41539333" lon="14.82258"><ele>97.0</ele><time>2016-06-18T03:27:21.308Z</time></trkpt><trkpt lat="58.41525833" lon="14.82241333"><ele>97.0</ele><time>2016-06-18T03:27:22.311Z</time></trkpt><trkpt lat="58.41525833" lon="14.82241333"><ele>97.0</ele><time>2016-06-18T03:27:23.306Z</time></trkpt><trkpt lat="58.41512167" lon="14.82224833"><ele>97.0</ele><time>2016-06-18T03:27:24.311Z</time></trkpt><trkpt lat="58.41512167" lon="14.82224833"><ele>97.0</ele><time>2016-06-18T03:27:25.307Z</time></trkpt><trkpt lat="58.414985" lon="14.82208167"><ele>97.0</ele><time>2016-06-18T03:27:26.312Z</time></trkpt><trkpt lat="58.414985" lon="14.82208167"><ele>97.0</ele><time>2016-06-18T03:27:27.308Z</time></trkpt><trkpt lat="58.41485" lon="14.82191833"><ele>97.0</ele><time>2016-06-18T03:27:28.310Z</time></trkpt><trkpt lat="58.41485" lon="14.82191833"><ele>97.0</ele><time>2016-06-18T03:27:29.302Z</time></trkpt><trkpt lat="58.41471833" lon="14.82175667"><ele>97.0</ele><time>2016-06-18T03:27:30.311Z</time></trkpt><trkpt lat="58.41471833" lon="14.82175667"><ele>97.0</ele><time>2016-06-18T03:27:31.308Z</time></trkpt><trkpt lat="58.41458667" lon="14.821595"><ele>97.0</ele><time>2016-06-18T03:27:32.313Z</time></trkpt><trkpt lat="58.41452167" lon="14.82151833"><ele>97.0</ele><time>2016-06-18T03:27:33.312Z</time></trkpt><trkpt lat="58.41452167" lon="14.82151833"><ele>97.0</ele><time>2016-06-18T03:27:34.310Z</time></trkpt><trkpt lat="58.41439167" lon="14.82135167"><ele>97.0</ele><time>2016-06-18T03:27:35.302Z</time></trkpt><trkpt lat="58.414325" lon="14.82127167"><ele>97.0</ele><time>2016-06-18T03:27:36.309Z</time></trkpt><trkpt lat="58.414325" lon="14.82127167"><ele>97.0</ele><time>2016-06-18T03:27:37.303Z</time></trkpt><trkpt lat="58.41419" lon="14.82110333"><ele>97.0</ele><time>2016-06-18T03:27:38.311Z</time></trkpt><trkpt lat="58.41419" lon="14.82110333"><ele>97.0</ele><time>2016-06-18T03:27:39.309Z</time></trkpt><trkpt lat="58.41405833" lon="14.82094667"><ele>97.0</ele><time>2016-06-18T03:27:40.311Z</time></trkpt><trkpt lat="58.41405833" lon="14.82094667"><ele>97.0</ele><time>2016-06-18T03:27:41.305Z</time></trkpt><trkpt lat="58.41392333" lon="14.82078667"><ele>97.0</ele><time>2016-06-18T03:27:42.314Z</time></trkpt><trkpt lat="58.41392333" lon="14.82078667"><ele>97.0</ele><time>2016-06-18T03:27:43.308Z</time></trkpt><trkpt lat="58.41379" lon="14.82062667"><ele>97.0</ele><time>2016-06-18T03:27:44.309Z</time></trkpt><trkpt lat="58.41379" lon="14.82062667"><ele>97.0</ele><time>2016-06-18T03:27:45.312Z</time></trkpt><trkpt lat="58.41365333" lon="14.82046833"><ele>97.0</ele><time>2016-06-18T03:27:46.312Z</time></trkpt><trkpt lat="58.41365333" lon="14.82046833"><ele>97.0</ele><time>2016-06-18T03:27:47.308Z</time></trkpt><trkpt lat="58.41351833" lon="14.82031333"><ele>97.0</ele><time>2016-06-18T03:27:48.307Z</time></trkpt><trkpt lat="58.41351833" lon="14.82031333"><ele>97.0</ele><time>2016-06-18T03:27:49.307Z</time></trkpt><trkpt lat="58.41338167" lon="14.82015833"><ele>97.0</ele><time>2016-06-18T03:27:50.313Z</time></trkpt><trkpt lat="58.41331333" lon="14.82007833"><ele>97.0</ele><time>2016-06-18T03:27:51.312Z</time></trkpt><trkpt lat="58.41331333" lon="14.82007833"><ele>97.0</ele><time>2016-06-18T03:27:52.309Z</time></trkpt><trkpt lat="58.41317667" lon="14.81992"><ele>98.0</ele><time>2016-06-18T03:27:53.308Z</time></trkpt><trkpt lat="58.41317667" lon="14.81992"><ele>98.0</ele><time>2016-06-18T03:27:54.308Z</time></trkpt><trkpt lat="58.41304" lon="14.81976167"><ele>98.0</ele><time>2016-06-18T03:27:55.310Z</time></trkpt><trkpt lat="58.41297333" lon="14.819685"><ele>98.0</ele><time>2016-06-18T03:27:56.312Z</time></trkpt><trkpt lat="58.41297333" lon="14.819685"><ele>98.0</ele><time>2016-06-18T03:27:57.309Z</time></trkpt><trkpt lat="58.41284" lon="14.81952667"><ele>98.0</ele><time>2016-06-18T03:27:58.310Z</time></trkpt><trkpt lat="58.41284" lon="14.81952667"><ele>98.0</ele><time>2016-06-18T03:27:59.308Z</time></trkpt><trkpt lat="58.412705" lon="14.81936833"><ele>98.0</ele><time>2016-06-18T03:28:00.318Z</time></trkpt><trkpt lat="58.412705" lon="14.81936833"><ele>98.0</ele><time>2016-06-18T03:28:01.308Z</time></trkpt><trkpt lat="58.41257333" lon="14.81920667"><ele>98.0</ele><time>2016-06-18T03:28:02.314Z</time></trkpt><trkpt lat="58.41257333" lon="14.81920667"><ele>98.0</ele><time>2016-06-18T03:28:03.308Z</time></trkpt><trkpt lat="58.41244167" lon="14.81905"><ele>98.0</ele><time>2016-06-18T03:28:04.311Z</time></trkpt><trkpt lat="58.41244167" lon="14.81905"><ele>98.0</ele><time>2016-06-18T03:28:05.309Z</time></trkpt><trkpt lat="58.41231333" lon="14.81889"><ele>98.0</ele><time>2016-06-18T03:28:06.313Z</time></trkpt><trkpt lat="58.41231333" lon="14.81889"><ele>98.0</ele><time>2016-06-18T03:28:07.308Z</time></trkpt><trkpt lat="58.412185" lon="14.818735"><ele>99.0</ele><time>2016-06-18T03:28:08.313Z</time></trkpt><trkpt lat="58.412185" lon="14.818735"><ele>99.0</ele><time>2016-06-18T03:28:09.309Z</time></trkpt><trkpt lat="58.41206167" lon="14.81857833"><ele>99.0</ele><time>2016-06-18T03:28:10.313Z</time></trkpt><trkpt lat="58.41206167" lon="14.81857833"><ele>99.0</ele><time>2016-06-18T03:28:11.310Z</time></trkpt><trkpt lat="58.41194" lon="14.81842333"><ele>100.0</ele><time>2016-06-18T03:28:12.317Z</time></trkpt><trkpt lat="58.41194" lon="14.81842333"><ele>100.0</ele><time>2016-06-18T03:28:13.308Z</time></trkpt><trkpt lat="58.41182333" lon="14.818265"><ele>100.0</ele><time>2016-06-18T03:28:14.314Z</time></trkpt><trkpt lat="58.41182333" lon="14.818265"><ele>100.0</ele><time>2016-06-18T03:28:15.306Z</time></trkpt><trkpt lat="58.4117" lon="14.81810333"><ele>101.0</ele><time>2016-06-18T03:28:16.313Z</time></trkpt><trkpt lat="58.4117" lon="14.81810333"><ele>101.0</ele><time>2016-06-18T03:28:17.308Z</time></trkpt><trkpt lat="58.41157667" lon="14.81794167"><ele>102.0</ele><time>2016-06-18T03:28:18.308Z</time></trkpt><trkpt lat="58.41157667" lon="14.81794167"><ele>102.0</ele><time>2016-06-18T03:28:19.299Z</time></trkpt><trkpt lat="58.411455" lon="14.81777833"><ele>102.0</ele><time>2016-06-18T03:28:20.288Z</time></trkpt><trkpt lat="58.411455" lon="14.81777833"><ele>102.0</ele><time>2016-06-18T03:28:21.313Z</time></trkpt><trkpt lat="58.411335" lon="14.81761333"><ele>103.0</ele><time>2016-06-18T03:28:22.313Z</time></trkpt><trkpt lat="58.411335" lon="14.81761333"><ele>103.0</ele><time>2016-06-18T03:28:23.308Z</time></trkpt><trkpt lat="58.41121167" lon="14.817445"><ele>103.0</ele><time>2016-06-18T03:28:24.310Z</time></trkpt><trkpt lat="58.41115" lon="14.81736167"><ele>103.0</ele><time>2016-06-18T03:28:25.309Z</time></trkpt><trkpt lat="58.41115" lon="14.81736167"><ele>103.0</ele><time>2016-06-18T03:28:26.306Z</time></trkpt><trkpt lat="58.41102667" lon="14.81718833"><ele>103.0</ele><time>2016-06-18T03:28:27.308Z</time></trkpt><trkpt lat="58.41102667" lon="14.81718833"><ele>103.0</ele><time>2016-06-18T03:28:28.305Z</time></trkpt><trkpt lat="58.4109" lon="14.81701333"><ele>103.0</ele><time>2016-06-18T03:28:29.311Z</time></trkpt><trkpt lat="58.4109" lon="14.81701333"><ele>103.0</ele><time>2016-06-18T03:28:30.308Z</time></trkpt><trkpt lat="58.41077667" lon="14.81683833"><ele>104.0</ele><time>2016-06-18T03:28:31.308Z</time></trkpt><trkpt lat="58.410715" lon="14.81674833"><ele>104.0</ele><time>2016-06-18T03:28:32.313Z</time></trkpt><trkpt lat="58.410715" lon="14.81674833"><ele>104.0</ele><time>2016-06-18T03:28:33.309Z</time></trkpt><trkpt lat="58.41059167" lon="14.81656667"><ele>104.0</ele><time>2016-06-18T03:28:34.312Z</time></trkpt><trkpt lat="58.41059167" lon="14.81656667"><ele>104.0</ele><time>2016-06-18T03:28:35.306Z</time></trkpt><trkpt lat="58.41046333" lon="14.816385"><ele>104.0</ele><time>2016-06-18T03:28:36.312Z</time></trkpt><trkpt lat="58.41040167" lon="14.81629333"><ele>104.0</ele><time>2016-06-18T03:28:37.312Z</time></trkpt><trkpt lat="58.41040167" lon="14.81629333"><ele>104.0</ele><time>2016-06-18T03:28:38.311Z</time></trkpt><trkpt lat="58.41027667" lon="14.816105"><ele>104.0</ele><time>2016-06-18T03:28:39.309Z</time></trkpt><trkpt lat="58.41021333" lon="14.81601167"><ele>104.0</ele><time>2016-06-18T03:28:40.312Z</time></trkpt><trkpt lat="58.41021333" lon="14.81601167"><ele>104.0</ele><time>2016-06-18T03:28:41.303Z</time></trkpt><trkpt lat="58.41009" lon="14.815815"><ele>104.0</ele><time>2016-06-18T03:28:42.308Z</time></trkpt><trkpt lat="58.41009" lon="14.815815"><ele>104.0</ele><time>2016-06-18T03:28:43.306Z</time></trkpt><trkpt lat="58.409965" lon="14.81562167"><ele>104.0</ele><time>2016-06-18T03:28:44.311Z</time></trkpt><trkpt lat="58.409965" lon="14.81562167"><ele>104.0</ele><time>2016-06-18T03:28:45.307Z</time></trkpt><trkpt lat="58.409845" lon="14.81541833"><ele>105.0</ele><time>2016-06-18T03:28:46.311Z</time></trkpt><trkpt lat="58.409845" lon="14.81541833"><ele>105.0</ele><time>2016-06-18T03:28:47.299Z</time></trkpt><trkpt lat="58.40972833" lon="14.815205"><ele>105.0</ele><time>2016-06-18T03:28:48.308Z</time></trkpt><trkpt lat="58.40972833" lon="14.815205"><ele>105.0</ele><time>2016-06-18T03:28:49.308Z</time></trkpt><trkpt lat="58.40960833" lon="14.81499333"><ele>105.0</ele><time>2016-06-18T03:28:50.311Z</time></trkpt><trkpt lat="58.40960833" lon="14.81499333"><ele>105.0</ele><time>2016-06-18T03:28:51.306Z</time></trkpt><trkpt lat="58.40949" lon="14.81477833"><ele>105.0</ele><time>2016-06-18T03:28:52.312Z</time></trkpt><trkpt lat="58.40943" lon="14.81467"><ele>104.0</ele><time>2016-06-18T03:28:53.309Z</time></trkpt><trkpt lat="58.40943" lon="14.81467"><ele>104.0</ele><time>2016-06-18T03:28:54.309Z</time></trkpt><trkpt lat="58.40931167" lon="14.81445667"><ele>104.0</ele><time>2016-06-18T03:28:55.311Z</time></trkpt><trkpt lat="58.40925333" lon="14.81435"><ele>104.0</ele><time>2016-06-18T03:28:56.313Z</time></trkpt><trkpt lat="58.40925333" lon="14.81435"><ele>104.0</ele><time>2016-06-18T03:28:57.307Z</time></trkpt><trkpt lat="58.40913667" lon="14.81413333"><ele>104.0</ele><time>2016-06-18T03:28:58.311Z</time></trkpt><trkpt lat="58.40908" lon="14.814025"><ele>104.0</ele><time>2016-06-18T03:28:59.312Z</time></trkpt><trkpt lat="58.40908" lon="14.814025"><ele>104.0</ele><time>2016-06-18T03:29:00.309Z</time></trkpt><trkpt lat="58.40896667" lon="14.81380667"><ele>104.0</ele><time>2016-06-18T03:29:01.313Z</time></trkpt><trkpt lat="58.40891" lon="14.81369667"><ele>104.0</ele><time>2016-06-18T03:29:02.314Z</time></trkpt><trkpt lat="58.40891" lon="14.81369667"><ele>104.0</ele><time>2016-06-18T03:29:03.306Z</time></trkpt><trkpt lat="58.40879833" lon="14.813475"><ele>104.0</ele><time>2016-06-18T03:29:04.309Z</time></trkpt><trkpt lat="58.40879833" lon="14.813475"><ele>104.0</ele><time>2016-06-18T03:29:05.297Z</time></trkpt><trkpt lat="58.40868833" lon="14.813255"><ele>104.0</ele><time>2016-06-18T03:29:06.284Z</time></trkpt><trkpt lat="58.40863333" lon="14.813145"><ele>104.0</ele><time>2016-06-18T03:29:07.312Z</time></trkpt><trkpt lat="58.40858" lon="14.81303333"><ele>104.0</ele><time>2016-06-18T03:29:08.316Z</time></trkpt><trkpt lat="58.40858" lon="14.81303333"><ele>104.0</ele><time>2016-06-18T03:29:09.306Z</time></trkpt><trkpt lat="58.40847333" lon="14.81280833"><ele>104.0</ele><time>2016-06-18T03:29:10.315Z</time></trkpt><trkpt lat="58.40847333" lon="14.81280833"><ele>104.0</ele><time>2016-06-18T03:29:11.315Z</time></trkpt><trkpt lat="58.40837" lon="14.81257833"><ele>104.0</ele><time>2016-06-18T03:29:12.313Z</time></trkpt><trkpt lat="58.40837" lon="14.81257833"><ele>104.0</ele><time>2016-06-18T03:29:13.306Z</time></trkpt><trkpt lat="58.40826667" lon="14.81235333"><ele>104.0</ele><time>2016-06-18T03:29:14.293Z</time></trkpt><trkpt lat="58.40821667" lon="14.81224"><ele>105.0</ele><time>2016-06-18T03:29:15.290Z</time></trkpt><trkpt lat="58.40821667" lon="14.81224"><ele>105.0</ele><time>2016-06-18T03:29:16.317Z</time></trkpt><trkpt lat="58.408115" lon="14.81201833"><ele>105.0</ele><time>2016-06-18T03:29:17.313Z</time></trkpt><trkpt lat="58.408115" lon="14.81201833"><ele>105.0</ele><time>2016-06-18T03:29:18.307Z</time></trkpt><trkpt lat="58.408015" lon="14.811795"><ele>105.0</ele><time>2016-06-18T03:29:19.309Z</time></trkpt><trkpt lat="58.407965" lon="14.81168167"><ele>105.0</ele><time>2016-06-18T03:29:20.316Z</time></trkpt><trkpt lat="58.407965" lon="14.81168167"><ele>105.0</ele><time>2016-06-18T03:29:21.306Z</time></trkpt><trkpt lat="58.40787" lon="14.811455"><ele>105.0</ele><time>2016-06-18T03:29:22.312Z</time></trkpt><trkpt lat="58.40787" lon="14.811455"><ele>105.0</ele><time>2016-06-18T03:29:23.308Z</time></trkpt><trkpt lat="58.407775" lon="14.811225"><ele>105.0</ele><time>2016-06-18T03:29:24.313Z</time></trkpt><trkpt lat="58.407775" lon="14.811225"><ele>105.0</ele><time>2016-06-18T03:29:25.307Z</time></trkpt><trkpt lat="58.40768167" lon="14.81099167"><ele>105.0</ele><time>2016-06-18T03:29:26.293Z</time></trkpt><trkpt lat="58.407635" lon="14.81087667"><ele>105.0</ele><time>2016-06-18T03:29:27.287Z</time></trkpt><trkpt lat="58.407635" lon="14.81087667"><ele>105.0</ele><time>2016-06-18T03:29:28.314Z</time></trkpt><trkpt lat="58.40754" lon="14.81064333"><ele>105.0</ele><time>2016-06-18T03:29:29.313Z</time></trkpt><trkpt lat="58.40754" lon="14.81064333"><ele>105.0</ele><time>2016-06-18T03:29:30.307Z</time></trkpt><trkpt lat="58.40744333" lon="14.81041333"><ele>105.0</ele><time>2016-06-18T03:29:31.312Z</time></trkpt><trkpt lat="58.40739167" lon="14.81030167"><ele>105.0</ele><time>2016-06-18T03:29:32.315Z</time></trkpt><trkpt lat="58.40739167" lon="14.81030167"><ele>105.0</ele><time>2016-06-18T03:29:33.308Z</time></trkpt><trkpt lat="58.40728167" lon="14.81008833"><ele>105.0</ele><time>2016-06-18T03:29:34.314Z</time></trkpt><trkpt lat="58.40728167" lon="14.81008833"><ele>105.0</ele><time>2016-06-18T03:29:35.308Z</time></trkpt><trkpt lat="58.40716" lon="14.80989333"><ele>105.0</ele><time>2016-06-18T03:29:36.317Z</time></trkpt><trkpt lat="58.40709333" lon="14.80980333"><ele>105.0</ele><time>2016-06-18T03:29:37.313Z</time></trkpt><trkpt lat="58.40702833" lon="14.80971667"><ele>105.0</ele><time>2016-06-18T03:29:38.313Z</time></trkpt><trkpt lat="58.40702833" lon="14.80971667"><ele>105.0</ele><time>2016-06-18T03:29:39.307Z</time></trkpt><trkpt lat="58.40689167" lon="14.80955167"><ele>105.0</ele><time>2016-06-18T03:29:40.313Z</time></trkpt><trkpt lat="58.40689167" lon="14.80955167"><ele>105.0</ele><time>2016-06-18T03:29:41.307Z</time></trkpt><trkpt lat="58.40675167" lon="14.80939333"><ele>105.0</ele><time>2016-06-18T03:29:42.313Z</time></trkpt><trkpt lat="58.40675167" lon="14.80939333"><ele>105.0</ele><time>2016-06-18T03:29:43.308Z</time></trkpt><trkpt lat="58.40660667" lon="14.80924333"><ele>105.0</ele><time>2016-06-18T03:29:44.313Z</time></trkpt><trkpt lat="58.40660667" lon="14.80924333"><ele>105.0</ele><time>2016-06-18T03:29:45.307Z</time></trkpt><trkpt lat="58.40646" lon="14.80910167"><ele>104.0</ele><time>2016-06-18T03:29:46.313Z</time></trkpt><trkpt lat="58.40646" lon="14.80910167"><ele>104.0</ele><time>2016-06-18T03:29:47.310Z</time></trkpt><trkpt lat="58.40630667" lon="14.808975"><ele>104.0</ele><time>2016-06-18T03:29:48.310Z</time></trkpt><trkpt lat="58.40630667" lon="14.808975"><ele>104.0</ele><time>2016-06-18T03:29:49.307Z</time></trkpt><trkpt lat="58.40615167" lon="14.80884667"><ele>105.0</ele><time>2016-06-18T03:29:50.313Z</time></trkpt><trkpt lat="58.40615167" lon="14.80884667"><ele>105.0</ele><time>2016-06-18T03:29:51.304Z</time></trkpt><trkpt lat="58.40599667" lon="14.808725"><ele>105.0</ele><time>2016-06-18T03:29:52.313Z</time></trkpt><trkpt lat="58.40599667" lon="14.808725"><ele>105.0</ele><time>2016-06-18T03:29:53.288Z</time></trkpt><trkpt lat="58.40584333" lon="14.808605"><ele>105.0</ele><time>2016-06-18T03:29:54.312Z</time></trkpt><trkpt lat="58.40584333" lon="14.808605"><ele>105.0</ele><time>2016-06-18T03:29:55.307Z</time></trkpt><trkpt lat="58.40569333" lon="14.80848833"><ele>106.0</ele><time>2016-06-18T03:29:56.314Z</time></trkpt><trkpt lat="58.40569333" lon="14.80848833"><ele>106.0</ele><time>2016-06-18T03:29:57.307Z</time></trkpt><trkpt lat="58.40554" lon="14.80837667"><ele>106.0</ele><time>2016-06-18T03:29:58.313Z</time></trkpt><trkpt lat="58.40546167" lon="14.80831833"><ele>106.0</ele><time>2016-06-18T03:29:59.313Z</time></trkpt><trkpt lat="58.40546167" lon="14.80831833"><ele>106.0</ele><time>2016-06-18T03:30:00.312Z</time></trkpt><trkpt lat="58.40530333" lon="14.80821333"><ele>106.0</ele><time>2016-06-18T03:30:01.313Z</time></trkpt><trkpt lat="58.40530333" lon="14.80821333"><ele>106.0</ele><time>2016-06-18T03:30:02.308Z</time></trkpt><trkpt lat="58.40515" lon="14.80810667"><ele>106.0</ele><time>2016-06-18T03:30:03.287Z</time></trkpt><trkpt lat="58.40507167" lon="14.80805333"><ele>106.0</ele><time>2016-06-18T03:30:04.314Z</time></trkpt><trkpt lat="58.40507167" lon="14.80805333"><ele>106.0</ele><time>2016-06-18T03:30:05.308Z</time></trkpt><trkpt lat="58.40491667" lon="14.80794667"><ele>106.0</ele><time>2016-06-18T03:30:06.313Z</time></trkpt><trkpt lat="58.40483833" lon="14.80789333"><ele>106.0</ele><time>2016-06-18T03:30:07.313Z</time></trkpt><trkpt lat="58.40476" lon="14.80784167"><ele>106.0</ele><time>2016-06-18T03:30:08.314Z</time></trkpt><trkpt lat="58.40476" lon="14.80784167"><ele>106.0</ele><time>2016-06-18T03:30:09.309Z</time></trkpt><trkpt lat="58.40460167" lon="14.80773833"><ele>107.0</ele><time>2016-06-18T03:30:10.312Z</time></trkpt><trkpt lat="58.40460167" lon="14.80773833"><ele>107.0</ele><time>2016-06-18T03:30:11.310Z</time></trkpt><trkpt lat="58.404445" lon="14.80762833"><ele>106.0</ele><time>2016-06-18T03:30:12.313Z</time></trkpt><trkpt lat="58.404445" lon="14.80762833"><ele>106.0</ele><time>2016-06-18T03:30:13.308Z</time></trkpt><trkpt lat="58.40428667" lon="14.80751333"><ele>106.0</ele><time>2016-06-18T03:30:14.295Z</time></trkpt><trkpt lat="58.40428667" lon="14.80751333"><ele>106.0</ele><time>2016-06-18T03:30:15.290Z</time></trkpt><trkpt lat="58.40412833" lon="14.80738667"><ele>106.0</ele><time>2016-06-18T03:30:16.297Z</time></trkpt><trkpt lat="58.40412833" lon="14.80738667"><ele>106.0</ele><time>2016-06-18T03:30:17.317Z</time></trkpt><trkpt lat="58.40398" lon="14.807245"><ele>106.0</ele><time>2016-06-18T03:30:18.313Z</time></trkpt><trkpt lat="58.40398" lon="14.807245"><ele>106.0</ele><time>2016-06-18T03:30:19.306Z</time></trkpt><trkpt lat="58.40383167" lon="14.80708833"><ele>106.0</ele><time>2016-06-18T03:30:20.294Z</time></trkpt><trkpt lat="58.40383167" lon="14.80708833"><ele>106.0</ele><time>2016-06-18T03:30:21.302Z</time></trkpt><trkpt lat="58.40369" lon="14.80692167"><ele>106.0</ele><time>2016-06-18T03:30:22.313Z</time></trkpt><trkpt lat="58.40369" lon="14.80692167"><ele>106.0</ele><time>2016-06-18T03:30:23.308Z</time></trkpt><trkpt lat="58.40354667" lon="14.80674833"><ele>106.0</ele><time>2016-06-18T03:30:24.313Z</time></trkpt><trkpt lat="58.40354667" lon="14.80674833"><ele>106.0</ele><time>2016-06-18T03:30:25.308Z</time></trkpt><trkpt lat="58.4034" lon="14.80657"><ele>106.0</ele><time>2016-06-18T03:30:26.314Z</time></trkpt><trkpt lat="58.4034" lon="14.80657"><ele>106.0</ele><time>2016-06-18T03:30:27.307Z</time></trkpt><trkpt lat="58.40326" lon="14.80639333"><ele>105.0</ele><time>2016-06-18T03:30:28.312Z</time></trkpt><trkpt lat="58.40319" lon="14.806305"><ele>105.0</ele><time>2016-06-18T03:30:29.311Z</time></trkpt><trkpt lat="58.40319" lon="14.806305"><ele>105.0</ele><time>2016-06-18T03:30:30.307Z</time></trkpt><trkpt lat="58.40305" lon="14.80613667"><ele>105.0</ele><time>2016-06-18T03:30:31.313Z</time></trkpt><trkpt lat="58.40298" lon="14.80605333"><ele>106.0</ele><time>2016-06-18T03:30:32.315Z</time></trkpt><trkpt lat="58.40298" lon="14.80605333"><ele>106.0</ele><time>2016-06-18T03:30:33.288Z</time></trkpt><trkpt lat="58.40283833" lon="14.805885"><ele>106.0</ele><time>2016-06-18T03:30:34.316Z</time></trkpt><trkpt lat="58.40283833" lon="14.805885"><ele>106.0</ele><time>2016-06-18T03:30:35.308Z</time></trkpt><trkpt lat="58.40269667" lon="14.805715"><ele>106.0</ele><time>2016-06-18T03:30:36.313Z</time></trkpt><trkpt lat="58.40269667" lon="14.805715"><ele>106.0</ele><time>2016-06-18T03:30:37.314Z</time></trkpt><trkpt lat="58.40255833" lon="14.80553833"><ele>106.0</ele><time>2016-06-18T03:30:38.314Z</time></trkpt><trkpt lat="58.40255833" lon="14.80553833"><ele>106.0</ele><time>2016-06-18T03:30:39.307Z</time></trkpt><trkpt lat="58.40242" lon="14.805365"><ele>106.0</ele><time>2016-06-18T03:30:40.313Z</time></trkpt><trkpt lat="58.40242" lon="14.805365"><ele>106.0</ele><time>2016-06-18T03:30:41.307Z</time></trkpt><trkpt lat="58.402285" lon="14.80519167"><ele>106.0</ele><time>2016-06-18T03:30:42.313Z</time></trkpt><trkpt lat="58.402285" lon="14.80519167"><ele>106.0</ele><time>2016-06-18T03:30:43.308Z</time></trkpt><trkpt lat="58.40214667" lon="14.80502"><ele>106.0</ele><time>2016-06-18T03:30:44.315Z</time></trkpt><trkpt lat="58.40214667" lon="14.80502"><ele>106.0</ele><time>2016-06-18T03:30:45.308Z</time></trkpt><trkpt lat="58.40200667" lon="14.80484833"><ele>106.0</ele><time>2016-06-18T03:30:46.313Z</time></trkpt><trkpt lat="58.40200667" lon="14.80484833"><ele>106.0</ele><time>2016-06-18T03:30:47.305Z</time></trkpt><trkpt lat="58.40187167" lon="14.80468333"><ele>106.0</ele><time>2016-06-18T03:30:48.313Z</time></trkpt><trkpt lat="58.401805" lon="14.80460167"><ele>106.0</ele><time>2016-06-18T03:30:49.315Z</time></trkpt><trkpt lat="58.40174" lon="14.80452333"><ele>107.0</ele><time>2016-06-18T03:30:50.314Z</time></trkpt><trkpt lat="58.40174" lon="14.80452333"><ele>107.0</ele><time>2016-06-18T03:30:51.307Z</time></trkpt><trkpt lat="58.40161167" lon="14.80436833"><ele>107.0</ele><time>2016-06-18T03:30:52.313Z</time></trkpt><trkpt lat="58.40161167" lon="14.80436833"><ele>107.0</ele><time>2016-06-18T03:30:53.308Z</time></trkpt><trkpt lat="58.40148667" lon="14.80421667"><ele>107.0</ele><time>2016-06-18T03:30:54.314Z</time></trkpt><trkpt lat="58.40148667" lon="14.80421667"><ele>107.0</ele><time>2016-06-18T03:30:55.307Z</time></trkpt><trkpt lat="58.40136167" lon="14.804065"><ele>107.0</ele><time>2016-06-18T03:30:56.315Z</time></trkpt><trkpt lat="58.40136167" lon="14.804065"><ele>107.0</ele><time>2016-06-18T03:30:57.310Z</time></trkpt><trkpt lat="58.40123833" lon="14.80391333"><ele>107.0</ele><time>2016-06-18T03:30:58.313Z</time></trkpt><trkpt lat="58.40123833" lon="14.80391333"><ele>107.0</ele><time>2016-06-18T03:30:59.308Z</time></trkpt><trkpt lat="58.401115" lon="14.80376"><ele>107.0</ele><time>2016-06-18T03:31:00.284Z</time></trkpt><trkpt lat="58.401115" lon="14.80376"><ele>107.0</ele><time>2016-06-18T03:31:01.312Z</time></trkpt><trkpt lat="58.40099167" lon="14.80359833"><ele>107.0</ele><time>2016-06-18T03:31:02.315Z</time></trkpt><trkpt lat="58.40093" lon="14.80351833"><ele>107.0</ele><time>2016-06-18T03:31:03.289Z</time></trkpt><trkpt lat="58.40093" lon="14.80351833"><ele>107.0</ele><time>2016-06-18T03:31:04.316Z</time></trkpt><trkpt lat="58.400805" lon="14.80335833"><ele>107.0</ele><time>2016-06-18T03:31:05.321Z</time></trkpt><trkpt lat="58.400805" lon="14.80335833"><ele>107.0</ele><time>2016-06-18T03:31:06.310Z</time></trkpt><trkpt lat="58.40068333" lon="14.80319"><ele>107.0</ele><time>2016-06-18T03:31:07.313Z</time></trkpt><trkpt lat="58.40062167" lon="14.80310167"><ele>107.0</ele><time>2016-06-18T03:31:08.314Z</time></trkpt><trkpt lat="58.40062167" lon="14.80310167"><ele>107.0</ele><time>2016-06-18T03:31:09.308Z</time></trkpt><trkpt lat="58.4005" lon="14.80292833"><ele>107.0</ele><time>2016-06-18T03:31:10.313Z</time></trkpt><trkpt lat="58.4005" lon="14.80292833"><ele>107.0</ele><time>2016-06-18T03:31:11.317Z</time></trkpt><trkpt lat="58.40038167" lon="14.80275833"><ele>107.0</ele><time>2016-06-18T03:31:12.283Z</time></trkpt><trkpt lat="58.400325" lon="14.80267667"><ele>107.0</ele><time>2016-06-18T03:31:13.285Z</time></trkpt><trkpt lat="58.40027" lon="14.80259667"><ele>107.0</ele><time>2016-06-18T03:31:14.283Z</time></trkpt><trkpt lat="58.400215" lon="14.802515"><ele>107.0</ele><time>2016-06-18T03:31:15.290Z</time></trkpt><trkpt lat="58.400215" lon="14.802515"><ele>107.0</ele><time>2016-06-18T03:31:16.284Z</time></trkpt><trkpt lat="58.40010333" lon="14.80235167"><ele>108.0</ele><time>2016-06-18T03:31:17.317Z</time></trkpt><trkpt lat="58.40004667" lon="14.80227167"><ele>108.0</ele><time>2016-06-18T03:31:18.319Z</time></trkpt><trkpt lat="58.40004667" lon="14.80227167"><ele>108.0</ele><time>2016-06-18T03:31:19.315Z</time></trkpt><trkpt lat="58.39993167" lon="14.802105"><ele>108.0</ele><time>2016-06-18T03:31:20.315Z</time></trkpt><trkpt lat="58.39987333" lon="14.80202833"><ele>108.0</ele><time>2016-06-18T03:31:21.315Z</time></trkpt><trkpt lat="58.39981667" lon="14.801955"><ele>108.0</ele><time>2016-06-18T03:31:22.318Z</time></trkpt><trkpt lat="58.39981667" lon="14.801955"><ele>108.0</ele><time>2016-06-18T03:31:23.315Z</time></trkpt><trkpt lat="58.3997" lon="14.80180333"><ele>108.0</ele><time>2016-06-18T03:31:24.316Z</time></trkpt><trkpt lat="58.39964" lon="14.80172667"><ele>108.0</ele><time>2016-06-18T03:31:25.316Z</time></trkpt><trkpt lat="58.39958" lon="14.80164833"><ele>108.0</ele><time>2016-06-18T03:31:26.317Z</time></trkpt><trkpt lat="58.39958" lon="14.80164833"><ele>108.0</ele><time>2016-06-18T03:31:27.314Z</time></trkpt><trkpt lat="58.39945833" lon="14.80149333"><ele>108.0</ele><time>2016-06-18T03:31:28.320Z</time></trkpt><trkpt lat="58.39945833" lon="14.80149333"><ele>108.0</ele><time>2016-06-18T03:31:29.314Z</time></trkpt><trkpt lat="58.39933333" lon="14.80132833"><ele>108.0</ele><time>2016-06-18T03:31:30.316Z</time></trkpt><trkpt lat="58.39933333" lon="14.80132833"><ele>108.0</ele><time>2016-06-18T03:31:31.313Z</time></trkpt><trkpt lat="58.39920333" lon="14.80116833"><ele>108.0</ele><time>2016-06-18T03:31:32.317Z</time></trkpt><trkpt lat="58.39920333" lon="14.80116833"><ele>108.0</ele><time>2016-06-18T03:31:33.317Z</time></trkpt><trkpt lat="58.39907333" lon="14.80100333"><ele>108.0</ele><time>2016-06-18T03:31:34.289Z</time></trkpt><trkpt lat="58.39901" lon="14.80092167"><ele>108.0</ele><time>2016-06-18T03:31:35.287Z</time></trkpt><trkpt lat="58.39901" lon="14.80092167"><ele>108.0</ele><time>2016-06-18T03:31:36.282Z</time></trkpt><trkpt lat="58.39887667" lon="14.80076667"><ele>108.0</ele><time>2016-06-18T03:31:37.315Z</time></trkpt><trkpt lat="58.39881" lon="14.80069"><ele>108.0</ele><time>2016-06-18T03:31:38.312Z</time></trkpt><trkpt lat="58.39881" lon="14.80069"><ele>108.0</ele><time>2016-06-18T03:31:39.306Z</time></trkpt><trkpt lat="58.39867833" lon="14.800535"><ele>108.0</ele><time>2016-06-18T03:31:40.317Z</time></trkpt><trkpt lat="58.39867833" lon="14.800535"><ele>108.0</ele><time>2016-06-18T03:31:41.312Z</time></trkpt><trkpt lat="58.398545" lon="14.80038667"><ele>108.0</ele><time>2016-06-18T03:31:42.314Z</time></trkpt><trkpt lat="58.39848" lon="14.80031"><ele>108.0</ele><time>2016-06-18T03:31:43.292Z</time></trkpt><trkpt lat="58.39848" lon="14.80031"><ele>108.0</ele><time>2016-06-18T03:31:44.285Z</time></trkpt><trkpt lat="58.39835167" lon="14.80015667"><ele>108.0</ele><time>2016-06-18T03:31:45.320Z</time></trkpt><trkpt lat="58.39828667" lon="14.80008167"><ele>108.0</ele><time>2016-06-18T03:31:46.314Z</time></trkpt><trkpt lat="58.39828667" lon="14.80008167"><ele>108.0</ele><time>2016-06-18T03:31:47.311Z</time></trkpt><trkpt lat="58.39815667" lon="14.79993333"><ele>109.0</ele><time>2016-06-18T03:31:48.315Z</time></trkpt><trkpt lat="58.39815667" lon="14.79993333"><ele>109.0</ele><time>2016-06-18T03:31:49.314Z</time></trkpt><trkpt lat="58.39802833" lon="14.79978"><ele>109.0</ele><time>2016-06-18T03:31:50.316Z</time></trkpt><trkpt lat="58.39802833" lon="14.79978"><ele>109.0</ele><time>2016-06-18T03:31:51.310Z</time></trkpt><trkpt lat="58.39790167" lon="14.79961"><ele>109.0</ele><time>2016-06-18T03:31:52.312Z</time></trkpt><trkpt lat="58.39790167" lon="14.79961"><ele>109.0</ele><time>2016-06-18T03:31:53.290Z</time></trkpt><trkpt lat="58.39777167" lon="14.79946667"><ele>109.0</ele><time>2016-06-18T03:31:54.285Z</time></trkpt><trkpt lat="58.39770333" lon="14.79939833"><ele>109.0</ele><time>2016-06-18T03:31:55.316Z</time></trkpt><trkpt lat="58.39763667" lon="14.79933"><ele>109.0</ele><time>2016-06-18T03:31:56.317Z</time></trkpt><trkpt lat="58.39763667" lon="14.79933"><ele>109.0</ele><time>2016-06-18T03:31:57.312Z</time></trkpt><trkpt lat="58.39751167" lon="14.79917833"><ele>108.0</ele><time>2016-06-18T03:31:58.313Z</time></trkpt><trkpt lat="58.39751167" lon="14.79917833"><ele>108.0</ele><time>2016-06-18T03:31:59.307Z</time></trkpt><trkpt lat="58.397385" lon="14.79902333"><ele>109.0</ele><time>2016-06-18T03:32:00.317Z</time></trkpt><trkpt lat="58.397385" lon="14.79902333"><ele>109.0</ele><time>2016-06-18T03:32:01.309Z</time></trkpt><trkpt lat="58.39726" lon="14.79886833"><ele>110.0</ele><time>2016-06-18T03:32:02.315Z</time></trkpt><trkpt lat="58.39726" lon="14.79886833"><ele>110.0</ele><time>2016-06-18T03:32:03.312Z</time></trkpt><trkpt lat="58.39713333" lon="14.79870667"><ele>110.0</ele><time>2016-06-18T03:32:04.314Z</time></trkpt><trkpt lat="58.39707" lon="14.79862333"><ele>110.0</ele><time>2016-06-18T03:32:05.314Z</time></trkpt><trkpt lat="58.39700667" lon="14.79854667"><ele>110.0</ele><time>2016-06-18T03:32:06.315Z</time></trkpt><trkpt lat="58.39700667" lon="14.79854667"><ele>110.0</ele><time>2016-06-18T03:32:07.312Z</time></trkpt><trkpt lat="58.39688" lon="14.79839667"><ele>111.0</ele><time>2016-06-18T03:32:08.315Z</time></trkpt><trkpt lat="58.39688" lon="14.79839667"><ele>111.0</ele><time>2016-06-18T03:32:09.313Z</time></trkpt><trkpt lat="58.39676" lon="14.79824167"><ele>111.0</ele><time>2016-06-18T03:32:10.314Z</time></trkpt><trkpt lat="58.39676" lon="14.79824167"><ele>111.0</ele><time>2016-06-18T03:32:11.313Z</time></trkpt><trkpt lat="58.39664" lon="14.798085"><ele>111.0</ele><time>2016-06-18T03:32:12.317Z</time></trkpt><trkpt lat="58.39664" lon="14.798085"><ele>111.0</ele><time>2016-06-18T03:32:13.311Z</time></trkpt><trkpt lat="58.39652" lon="14.797915"><ele>111.0</ele><time>2016-06-18T03:32:14.316Z</time></trkpt><trkpt lat="58.39652" lon="14.797915"><ele>111.0</ele><time>2016-06-18T03:32:15.310Z</time></trkpt><trkpt lat="58.3964" lon="14.79773833"><ele>111.0</ele><time>2016-06-18T03:32:16.315Z</time></trkpt><trkpt lat="58.3964" lon="14.79773833"><ele>111.0</ele><time>2016-06-18T03:32:17.312Z</time></trkpt><trkpt lat="58.39628" lon="14.79756667"><ele>111.0</ele><time>2016-06-18T03:32:18.315Z</time></trkpt><trkpt lat="58.39628" lon="14.79756667"><ele>111.0</ele><time>2016-06-18T03:32:19.311Z</time></trkpt><trkpt lat="58.396165" lon="14.79739333"><ele>111.0</ele><time>2016-06-18T03:32:20.316Z</time></trkpt><trkpt lat="58.396165" lon="14.79739333"><ele>111.0</ele><time>2016-06-18T03:32:21.312Z</time></trkpt><trkpt lat="58.39606333" lon="14.79721333"><ele>111.0</ele><time>2016-06-18T03:32:22.313Z</time></trkpt><trkpt lat="58.39606333" lon="14.79721333"><ele>111.0</ele><time>2016-06-18T03:32:23.311Z</time></trkpt><trkpt lat="58.395965" lon="14.79704333"><ele>111.0</ele><time>2016-06-18T03:32:24.316Z</time></trkpt><trkpt lat="58.395915" lon="14.79695167"><ele>111.0</ele><time>2016-06-18T03:32:25.311Z</time></trkpt><trkpt lat="58.39586167" lon="14.79686167"><ele>111.0</ele><time>2016-06-18T03:32:26.315Z</time></trkpt><trkpt lat="58.39586167" lon="14.79686167"><ele>111.0</ele><time>2016-06-18T03:32:27.309Z</time></trkpt><trkpt lat="58.39575833" lon="14.79667"><ele>111.0</ele><time>2016-06-18T03:32:28.315Z</time></trkpt><trkpt lat="58.395705" lon="14.79657167"><ele>111.0</ele><time>2016-06-18T03:32:29.315Z</time></trkpt><trkpt lat="58.39564667" lon="14.79646833"><ele>111.0</ele><time>2016-06-18T03:32:30.313Z</time></trkpt><trkpt lat="58.39564667" lon="14.79646833"><ele>111.0</ele><time>2016-06-18T03:32:31.311Z</time></trkpt><trkpt lat="58.39554167" lon="14.79626833"><ele>111.0</ele><time>2016-06-18T03:32:32.315Z</time></trkpt><trkpt lat="58.39554167" lon="14.79626833"><ele>111.0</ele><time>2016-06-18T03:32:33.312Z</time></trkpt><trkpt lat="58.39544167" lon="14.79606333"><ele>111.0</ele><time>2016-06-18T03:32:34.314Z</time></trkpt><trkpt lat="58.39544167" lon="14.79606333"><ele>111.0</ele><time>2016-06-18T03:32:35.293Z</time></trkpt><trkpt lat="58.39534667" lon="14.795855"><ele>111.0</ele><time>2016-06-18T03:32:36.317Z</time></trkpt><trkpt lat="58.39529833" lon="14.79574667"><ele>111.0</ele><time>2016-06-18T03:32:37.318Z</time></trkpt><trkpt lat="58.39529833" lon="14.79574667"><ele>111.0</ele><time>2016-06-18T03:32:38.313Z</time></trkpt><trkpt lat="58.3952" lon="14.79552667"><ele>110.0</ele><time>2016-06-18T03:32:39.315Z</time></trkpt><trkpt lat="58.39515167" lon="14.79541167"><ele>110.0</ele><time>2016-06-18T03:32:40.318Z</time></trkpt><trkpt lat="58.39515167" lon="14.79541167"><ele>110.0</ele><time>2016-06-18T03:32:41.310Z</time></trkpt><trkpt lat="58.39506" lon="14.79517667"><ele>110.0</ele><time>2016-06-18T03:32:42.286Z</time></trkpt><trkpt lat="58.39506" lon="14.79517667"><ele>110.0</ele><time>2016-06-18T03:32:43.289Z</time></trkpt><trkpt lat="58.39496833" lon="14.79493"><ele>110.0</ele><time>2016-06-18T03:32:44.320Z</time></trkpt><trkpt lat="58.39496833" lon="14.79493"><ele>110.0</ele><time>2016-06-18T03:32:45.309Z</time></trkpt><trkpt lat="58.39487167" lon="14.794675"><ele>111.0</ele><time>2016-06-18T03:32:46.314Z</time></trkpt><trkpt lat="58.39487167" lon="14.794675"><ele>111.0</ele><time>2016-06-18T03:32:47.321Z</time></trkpt><trkpt lat="58.39478" lon="14.79441833"><ele>111.0</ele><time>2016-06-18T03:32:48.316Z</time></trkpt><trkpt lat="58.39478" lon="14.79441833"><ele>111.0</ele><time>2016-06-18T03:32:49.308Z</time></trkpt><trkpt lat="58.39469167" lon="14.79415167"><ele>110.0</ele><time>2016-06-18T03:32:50.316Z</time></trkpt><trkpt lat="58.39469167" lon="14.79415167"><ele>110.0</ele><time>2016-06-18T03:32:51.312Z</time></trkpt><trkpt lat="58.39461167" lon="14.79388"><ele>110.0</ele><time>2016-06-18T03:32:52.314Z</time></trkpt><trkpt lat="58.39461167" lon="14.79388"><ele>110.0</ele><time>2016-06-18T03:32:53.312Z</time></trkpt><trkpt lat="58.39453833" lon="14.79361"><ele>110.0</ele><time>2016-06-18T03:32:54.282Z</time></trkpt><trkpt lat="58.39450333" lon="14.79348"><ele>110.0</ele><time>2016-06-18T03:32:55.315Z</time></trkpt><trkpt lat="58.39447" lon="14.79335"><ele>110.0</ele><time>2016-06-18T03:32:56.317Z</time></trkpt><trkpt lat="58.39447" lon="14.79335"><ele>110.0</ele><time>2016-06-18T03:32:57.312Z</time></trkpt><trkpt lat="58.394405" lon="14.79308667"><ele>110.0</ele><time>2016-06-18T03:32:58.315Z</time></trkpt><trkpt lat="58.394375" lon="14.792955"><ele>110.0</ele><time>2016-06-18T03:32:59.314Z</time></trkpt><trkpt lat="58.394375" lon="14.792955"><ele>110.0</ele><time>2016-06-18T03:33:00.312Z</time></trkpt><trkpt lat="58.39431333" lon="14.7927"><ele>110.0</ele><time>2016-06-18T03:33:01.314Z</time></trkpt><trkpt lat="58.39428" lon="14.79257167"><ele>110.0</ele><time>2016-06-18T03:33:02.321Z</time></trkpt><trkpt lat="58.39428" lon="14.79257167"><ele>110.0</ele><time>2016-06-18T03:33:03.312Z</time></trkpt><trkpt lat="58.39422" lon="14.79231167"><ele>110.0</ele><time>2016-06-18T03:33:04.316Z</time></trkpt><trkpt lat="58.39422" lon="14.79231167"><ele>110.0</ele><time>2016-06-18T03:33:05.309Z</time></trkpt><trkpt lat="58.39416333" lon="14.79206167"><ele>110.0</ele><time>2016-06-18T03:33:06.316Z</time></trkpt><trkpt lat="58.39413667" lon="14.79193833"><ele>110.0</ele><time>2016-06-18T03:33:07.315Z</time></trkpt><trkpt lat="58.39413667" lon="14.79193833"><ele>110.0</ele><time>2016-06-18T03:33:08.309Z</time></trkpt><trkpt lat="58.39408167" lon="14.79169667"><ele>110.0</ele><time>2016-06-18T03:33:09.317Z</time></trkpt><trkpt lat="58.39405333" lon="14.791575"><ele>110.0</ele><time>2016-06-18T03:33:10.317Z</time></trkpt><trkpt lat="58.39405333" lon="14.791575"><ele>110.0</ele><time>2016-06-18T03:33:11.316Z</time></trkpt><trkpt lat="58.39400333" lon="14.79133333"><ele>109.0</ele><time>2016-06-18T03:33:12.318Z</time></trkpt><trkpt lat="58.39400333" lon="14.79133333"><ele>109.0</ele><time>2016-06-18T03:33:13.288Z</time></trkpt><trkpt lat="58.39395333" lon="14.79109167"><ele>109.0</ele><time>2016-06-18T03:33:14.317Z</time></trkpt><trkpt lat="58.39393" lon="14.79097"><ele>109.0</ele><time>2016-06-18T03:33:15.316Z</time></trkpt><trkpt lat="58.393905" lon="14.790845"><ele>109.0</ele><time>2016-06-18T03:33:16.315Z</time></trkpt><trkpt lat="58.393905" lon="14.790845"><ele>109.0</ele><time>2016-06-18T03:33:17.306Z</time></trkpt><trkpt lat="58.39386167" lon="14.79059167"><ele>110.0</ele><time>2016-06-18T03:33:18.307Z</time></trkpt><trkpt lat="58.39384167" lon="14.79046333"><ele>110.0</ele><time>2016-06-18T03:33:19.314Z</time></trkpt><trkpt lat="58.39382" lon="14.79033167"><ele>110.0</ele><time>2016-06-18T03:33:20.315Z</time></trkpt><trkpt lat="58.39382" lon="14.79033167"><ele>110.0</ele><time>2016-06-18T03:33:21.309Z</time></trkpt><trkpt lat="58.39378" lon="14.790075"><ele>110.0</ele><time>2016-06-18T03:33:22.314Z</time></trkpt><trkpt lat="58.39378" lon="14.790075"><ele>110.0</ele><time>2016-06-18T03:33:23.291Z</time></trkpt><trkpt lat="58.39373667" lon="14.78981"><ele>110.0</ele><time>2016-06-18T03:33:24.319Z</time></trkpt><trkpt lat="58.39373667" lon="14.78981"><ele>110.0</ele><time>2016-06-18T03:33:25.309Z</time></trkpt><trkpt lat="58.39370167" lon="14.78954167"><ele>111.0</ele><time>2016-06-18T03:33:26.316Z</time></trkpt><trkpt lat="58.39370167" lon="14.78954167"><ele>111.0</ele><time>2016-06-18T03:33:27.310Z</time></trkpt><trkpt lat="58.39367167" lon="14.78928667"><ele>111.0</ele><time>2016-06-18T03:33:28.296Z</time></trkpt><trkpt lat="58.39365667" lon="14.78916"><ele>111.0</ele><time>2016-06-18T03:33:29.290Z</time></trkpt><trkpt lat="58.39365667" lon="14.78916"><ele>111.0</ele><time>2016-06-18T03:33:30.318Z</time></trkpt><trkpt lat="58.39362833" lon="14.78889833"><ele>112.0</ele><time>2016-06-18T03:33:31.314Z</time></trkpt><trkpt lat="58.39362833" lon="14.78889833"><ele>112.0</ele><time>2016-06-18T03:33:32.307Z</time></trkpt><trkpt lat="58.3936" lon="14.78863833"><ele>112.0</ele><time>2016-06-18T03:33:33.314Z</time></trkpt><trkpt lat="58.39358667" lon="14.78851"><ele>112.0</ele><time>2016-06-18T03:33:34.315Z</time></trkpt><trkpt lat="58.39358667" lon="14.78851"><ele>112.0</ele><time>2016-06-18T03:33:35.307Z</time></trkpt><trkpt lat="58.39355667" lon="14.78825167"><ele>112.0</ele><time>2016-06-18T03:33:36.314Z</time></trkpt><trkpt lat="58.39355667" lon="14.78825167"><ele>112.0</ele><time>2016-06-18T03:33:37.311Z</time></trkpt><trkpt lat="58.393525" lon="14.78800333"><ele>112.0</ele><time>2016-06-18T03:33:38.317Z</time></trkpt><trkpt lat="58.393525" lon="14.78800333"><ele>112.0</ele><time>2016-06-18T03:33:39.312Z</time></trkpt><trkpt lat="58.39349333" lon="14.78775667"><ele>112.0</ele><time>2016-06-18T03:33:40.315Z</time></trkpt><trkpt lat="58.39349333" lon="14.78775667"><ele>112.0</ele><time>2016-06-18T03:33:41.313Z</time></trkpt><trkpt lat="58.39346333" lon="14.787505"><ele>112.0</ele><time>2016-06-18T03:33:42.315Z</time></trkpt><trkpt lat="58.39344333" lon="14.78737333"><ele>111.0</ele><time>2016-06-18T03:33:43.316Z</time></trkpt><trkpt lat="58.39344333" lon="14.78737333"><ele>111.0</ele><time>2016-06-18T03:33:44.307Z</time></trkpt><trkpt lat="58.39340667" lon="14.78711167"><ele>111.0</ele><time>2016-06-18T03:33:45.316Z</time></trkpt><trkpt lat="58.39338833" lon="14.78697833"><ele>111.0</ele><time>2016-06-18T03:33:46.315Z</time></trkpt><trkpt lat="58.39338833" lon="14.78697833"><ele>111.0</ele><time>2016-06-18T03:33:47.310Z</time></trkpt><trkpt lat="58.39335333" lon="14.78671333"><ele>111.0</ele><time>2016-06-18T03:33:48.316Z</time></trkpt><trkpt lat="58.39335333" lon="14.78671333"><ele>111.0</ele><time>2016-06-18T03:33:49.310Z</time></trkpt><trkpt lat="58.39331667" lon="14.78644833"><ele>111.0</ele><time>2016-06-18T03:33:50.315Z</time></trkpt><trkpt lat="58.39331667" lon="14.78644833"><ele>111.0</ele><time>2016-06-18T03:33:51.309Z</time></trkpt><trkpt lat="58.393275" lon="14.78617667"><ele>111.0</ele><time>2016-06-18T03:33:52.316Z</time></trkpt><trkpt lat="58.393275" lon="14.78617667"><ele>111.0</ele><time>2016-06-18T03:33:53.313Z</time></trkpt><trkpt lat="58.39323833" lon="14.78589833"><ele>111.0</ele><time>2016-06-18T03:33:54.282Z</time></trkpt><trkpt lat="58.39323833" lon="14.78589833"><ele>111.0</ele><time>2016-06-18T03:33:55.311Z</time></trkpt><trkpt lat="58.39320167" lon="14.78559833"><ele>110.0</ele><time>2016-06-18T03:33:56.317Z</time></trkpt><trkpt lat="58.39320167" lon="14.78559833"><ele>110.0</ele><time>2016-06-18T03:33:57.313Z</time></trkpt><trkpt lat="58.39316333" lon="14.78530833"><ele>110.0</ele><time>2016-06-18T03:33:58.314Z</time></trkpt><trkpt lat="58.39316333" lon="14.78530833"><ele>110.0</ele><time>2016-06-18T03:33:59.314Z</time></trkpt><trkpt lat="58.39312333" lon="14.78501667"><ele>110.0</ele><time>2016-06-18T03:34:00.317Z</time></trkpt><trkpt lat="58.39312333" lon="14.78501667"><ele>110.0</ele><time>2016-06-18T03:34:01.312Z</time></trkpt><trkpt lat="58.39308167" lon="14.78473167"><ele>110.0</ele><time>2016-06-18T03:34:02.317Z</time></trkpt><trkpt lat="58.39306167" lon="14.78459333"><ele>110.0</ele><time>2016-06-18T03:34:03.316Z</time></trkpt><trkpt lat="58.39306167" lon="14.78459333"><ele>110.0</ele><time>2016-06-18T03:34:04.310Z</time></trkpt><trkpt lat="58.393025" lon="14.78432167"><ele>110.0</ele><time>2016-06-18T03:34:05.315Z</time></trkpt><trkpt lat="58.393025" lon="14.78432167"><ele>110.0</ele><time>2016-06-18T03:34:06.311Z</time></trkpt><trkpt lat="58.39298833" lon="14.78405167"><ele>110.0</ele><time>2016-06-18T03:34:07.315Z</time></trkpt><trkpt lat="58.39296833" lon="14.78391833"><ele>110.0</ele><time>2016-06-18T03:34:08.317Z</time></trkpt><trkpt lat="58.39296833" lon="14.78391833"><ele>110.0</ele><time>2016-06-18T03:34:09.306Z</time></trkpt><trkpt lat="58.39293" lon="14.78365333"><ele>110.0</ele><time>2016-06-18T03:34:10.316Z</time></trkpt><trkpt lat="58.39293" lon="14.78365333"><ele>110.0</ele><time>2016-06-18T03:34:11.314Z</time></trkpt><trkpt lat="58.39289333" lon="14.783375"><ele>110.0</ele><time>2016-06-18T03:34:12.321Z</time></trkpt><trkpt lat="58.39287333" lon="14.78323167"><ele>110.0</ele><time>2016-06-18T03:34:13.287Z</time></trkpt><trkpt lat="58.39287333" lon="14.78323167"><ele>110.0</ele><time>2016-06-18T03:34:14.293Z</time></trkpt><trkpt lat="58.39283333" lon="14.78294833"><ele>110.0</ele><time>2016-06-18T03:34:15.282Z</time></trkpt><trkpt lat="58.39283333" lon="14.78294833"><ele>110.0</ele><time>2016-06-18T03:34:16.313Z</time></trkpt><trkpt lat="58.39279333" lon="14.78266667"><ele>110.0</ele><time>2016-06-18T03:34:17.291Z</time></trkpt><trkpt lat="58.39279333" lon="14.78266667"><ele>110.0</ele><time>2016-06-18T03:34:18.282Z</time></trkpt><trkpt lat="58.39275667" lon="14.78238667"><ele>110.0</ele><time>2016-06-18T03:34:19.316Z</time></trkpt><trkpt lat="58.39275667" lon="14.78238667"><ele>110.0</ele><time>2016-06-18T03:34:20.314Z</time></trkpt><trkpt lat="58.39271167" lon="14.78211667"><ele>109.0</ele><time>2016-06-18T03:34:21.315Z</time></trkpt><trkpt lat="58.39269" lon="14.78198167"><ele>109.0</ele><time>2016-06-18T03:34:22.313Z</time></trkpt><trkpt lat="58.39269" lon="14.78198167"><ele>109.0</ele><time>2016-06-18T03:34:23.312Z</time></trkpt><trkpt lat="58.39264167" lon="14.78172333"><ele>109.0</ele><time>2016-06-18T03:34:24.316Z</time></trkpt><trkpt lat="58.39262" lon="14.78159"><ele>109.0</ele><time>2016-06-18T03:34:25.313Z</time></trkpt><trkpt lat="58.39262" lon="14.78159"><ele>109.0</ele><time>2016-06-18T03:34:26.315Z</time></trkpt><trkpt lat="58.39257167" lon="14.78132833"><ele>109.0</ele><time>2016-06-18T03:34:27.316Z</time></trkpt><trkpt lat="58.39257167" lon="14.78132833"><ele>109.0</ele><time>2016-06-18T03:34:28.310Z</time></trkpt><trkpt lat="58.392525" lon="14.78107667"><ele>109.0</ele><time>2016-06-18T03:34:29.316Z</time></trkpt><trkpt lat="58.392525" lon="14.78107667"><ele>109.0</ele><time>2016-06-18T03:34:30.314Z</time></trkpt><trkpt lat="58.39247833" lon="14.78082333"><ele>109.0</ele><time>2016-06-18T03:34:31.315Z</time></trkpt><trkpt lat="58.39247833" lon="14.78082333"><ele>109.0</ele><time>2016-06-18T03:34:32.312Z</time></trkpt><trkpt lat="58.39244" lon="14.78055833"><ele>109.0</ele><time>2016-06-18T03:34:33.315Z</time></trkpt><trkpt lat="58.39244" lon="14.78055833"><ele>109.0</ele><time>2016-06-18T03:34:34.315Z</time></trkpt><trkpt lat="58.39239333" lon="14.780295"><ele>109.0</ele><time>2016-06-18T03:34:35.316Z</time></trkpt><trkpt lat="58.39239333" lon="14.780295"><ele>109.0</ele><time>2016-06-18T03:34:36.311Z</time></trkpt><trkpt lat="58.392345" lon="14.78002"><ele>109.0</ele><time>2016-06-18T03:34:37.316Z</time></trkpt><trkpt lat="58.392345" lon="14.78002"><ele>109.0</ele><time>2016-06-18T03:34:38.317Z</time></trkpt><trkpt lat="58.392295" lon="14.77974167"><ele>109.0</ele><time>2016-06-18T03:34:39.312Z</time></trkpt><trkpt lat="58.39226667" lon="14.77959667"><ele>109.0</ele><time>2016-06-18T03:34:40.315Z</time></trkpt><trkpt lat="58.39224167" lon="14.779455"><ele>109.0</ele><time>2016-06-18T03:34:41.316Z</time></trkpt><trkpt lat="58.39224167" lon="14.779455"><ele>109.0</ele><time>2016-06-18T03:34:42.314Z</time></trkpt><trkpt lat="58.39219167" lon="14.77916667"><ele>109.0</ele><time>2016-06-18T03:34:43.319Z</time></trkpt><trkpt lat="58.392165" lon="14.77902333"><ele>109.0</ele><time>2016-06-18T03:34:44.317Z</time></trkpt><trkpt lat="58.39214" lon="14.77888333"><ele>109.0</ele><time>2016-06-18T03:34:45.317Z</time></trkpt><trkpt lat="58.39214" lon="14.77888333"><ele>109.0</ele><time>2016-06-18T03:34:46.314Z</time></trkpt><trkpt lat="58.39209" lon="14.77861"><ele>108.0</ele><time>2016-06-18T03:34:47.317Z</time></trkpt><trkpt lat="58.39209" lon="14.77861"><ele>108.0</ele><time>2016-06-18T03:34:48.314Z</time></trkpt><trkpt lat="58.39204" lon="14.77834333"><ele>108.0</ele><time>2016-06-18T03:34:49.318Z</time></trkpt><trkpt lat="58.39204" lon="14.77834333"><ele>108.0</ele><time>2016-06-18T03:34:50.312Z</time></trkpt><trkpt lat="58.39199167" lon="14.77808833"><ele>108.0</ele><time>2016-06-18T03:34:51.316Z</time></trkpt><trkpt lat="58.39199167" lon="14.77808833"><ele>108.0</ele><time>2016-06-18T03:34:52.314Z</time></trkpt><trkpt lat="58.39194667" lon="14.77783833"><ele>108.0</ele><time>2016-06-18T03:34:53.316Z</time></trkpt><trkpt lat="58.391925" lon="14.77771667"><ele>108.0</ele><time>2016-06-18T03:34:54.316Z</time></trkpt><trkpt lat="58.391925" lon="14.77771667"><ele>108.0</ele><time>2016-06-18T03:34:55.314Z</time></trkpt><trkpt lat="58.39188333" lon="14.777465"><ele>108.0</ele><time>2016-06-18T03:34:56.317Z</time></trkpt><trkpt lat="58.39188333" lon="14.777465"><ele>108.0</ele><time>2016-06-18T03:34:57.314Z</time></trkpt><trkpt lat="58.39183833" lon="14.77720333"><ele>108.0</ele><time>2016-06-18T03:34:58.315Z</time></trkpt><trkpt lat="58.391815" lon="14.77707667"><ele>108.0</ele><time>2016-06-18T03:34:59.315Z</time></trkpt><trkpt lat="58.39179333" lon="14.77694833"><ele>109.0</ele><time>2016-06-18T03:35:00.317Z</time></trkpt><trkpt lat="58.39179333" lon="14.77694833"><ele>109.0</ele><time>2016-06-18T03:35:01.313Z</time></trkpt><trkpt lat="58.39174833" lon="14.77668667"><ele>109.0</ele><time>2016-06-18T03:35:02.316Z</time></trkpt><trkpt lat="58.39174833" lon="14.77668667"><ele>109.0</ele><time>2016-06-18T03:35:03.314Z</time></trkpt><trkpt lat="58.3917" lon="14.77641833"><ele>108.0</ele><time>2016-06-18T03:35:04.315Z</time></trkpt><trkpt lat="58.391675" lon="14.77628"><ele>108.0</ele><time>2016-06-18T03:35:05.287Z</time></trkpt><trkpt lat="58.391675" lon="14.77628"><ele>108.0</ele><time>2016-06-18T03:35:06.315Z</time></trkpt><trkpt lat="58.391625" lon="14.77599333"><ele>108.0</ele><time>2016-06-18T03:35:07.317Z</time></trkpt><trkpt lat="58.391625" lon="14.77599333"><ele>108.0</ele><time>2016-06-18T03:35:08.315Z</time></trkpt><trkpt lat="58.39157333" lon="14.7757"><ele>108.0</ele><time>2016-06-18T03:35:09.314Z</time></trkpt><trkpt lat="58.391545" lon="14.77555333"><ele>107.0</ele><time>2016-06-18T03:35:10.317Z</time></trkpt><trkpt lat="58.391545" lon="14.77555333"><ele>107.0</ele><time>2016-06-18T03:35:11.319Z</time></trkpt><trkpt lat="58.39148833" lon="14.77525167"><ele>107.0</ele><time>2016-06-18T03:35:12.318Z</time></trkpt><trkpt lat="58.39148833" lon="14.77525167"><ele>107.0</ele><time>2016-06-18T03:35:13.315Z</time></trkpt><trkpt lat="58.39143167" lon="14.77493833"><ele>107.0</ele><time>2016-06-18T03:35:14.317Z</time></trkpt><trkpt lat="58.39143167" lon="14.77493833"><ele>107.0</ele><time>2016-06-18T03:35:15.312Z</time></trkpt><trkpt lat="58.39137333" lon="14.77462667"><ele>107.0</ele><time>2016-06-18T03:35:16.316Z</time></trkpt><trkpt lat="58.39137333" lon="14.77462667"><ele>107.0</ele><time>2016-06-18T03:35:17.314Z</time></trkpt><trkpt lat="58.391315" lon="14.774325"><ele>107.0</ele><time>2016-06-18T03:35:18.317Z</time></trkpt><trkpt lat="58.391315" lon="14.774325"><ele>107.0</ele><time>2016-06-18T03:35:19.296Z</time></trkpt><trkpt lat="58.39126167" lon="14.77402333"><ele>107.0</ele><time>2016-06-18T03:35:20.284Z</time></trkpt><trkpt lat="58.39123833" lon="14.77388"><ele>107.0</ele><time>2016-06-18T03:35:21.317Z</time></trkpt><trkpt lat="58.39121667" lon="14.77373333"><ele>107.0</ele><time>2016-06-18T03:35:22.316Z</time></trkpt><trkpt lat="58.39121667" lon="14.77373333"><ele>107.0</ele><time>2016-06-18T03:35:23.289Z</time></trkpt><trkpt lat="58.39117" lon="14.77346667"><ele>107.0</ele><time>2016-06-18T03:35:24.317Z</time></trkpt><trkpt lat="58.39117" lon="14.77346667"><ele>107.0</ele><time>2016-06-18T03:35:25.314Z</time></trkpt><trkpt lat="58.39111667" lon="14.77320833"><ele>107.0</ele><time>2016-06-18T03:35:26.317Z</time></trkpt><trkpt lat="58.39111667" lon="14.77320833"><ele>107.0</ele><time>2016-06-18T03:35:27.313Z</time></trkpt><trkpt lat="58.39106833" lon="14.77295333"><ele>107.0</ele><time>2016-06-18T03:35:28.316Z</time></trkpt><trkpt lat="58.39106833" lon="14.77295333"><ele>107.0</ele><time>2016-06-18T03:35:29.316Z</time></trkpt><trkpt lat="58.39102167" lon="14.77269333"><ele>107.0</ele><time>2016-06-18T03:35:30.316Z</time></trkpt><trkpt lat="58.391" lon="14.77256167"><ele>106.0</ele><time>2016-06-18T03:35:31.316Z</time></trkpt><trkpt lat="58.391" lon="14.77256167"><ele>106.0</ele><time>2016-06-18T03:35:32.315Z</time></trkpt><trkpt lat="58.39095333" lon="14.7723"><ele>106.0</ele><time>2016-06-18T03:35:33.316Z</time></trkpt><trkpt lat="58.39092833" lon="14.77217167"><ele>106.0</ele><time>2016-06-18T03:35:34.288Z</time></trkpt><trkpt lat="58.39092833" lon="14.77217167"><ele>106.0</ele><time>2016-06-18T03:35:35.314Z</time></trkpt><trkpt lat="58.39087833" lon="14.77192167"><ele>106.0</ele><time>2016-06-18T03:35:36.316Z</time></trkpt><trkpt lat="58.39087833" lon="14.77192167"><ele>106.0</ele><time>2016-06-18T03:35:37.313Z</time></trkpt><trkpt lat="58.39083" lon="14.77166667"><ele>106.0</ele><time>2016-06-18T03:35:38.317Z</time></trkpt><trkpt lat="58.39083" lon="14.77166667"><ele>106.0</ele><time>2016-06-18T03:35:39.319Z</time></trkpt><trkpt lat="58.390785" lon="14.771405"><ele>106.0</ele><time>2016-06-18T03:35:40.317Z</time></trkpt><trkpt lat="58.390785" lon="14.771405"><ele>106.0</ele><time>2016-06-18T03:35:41.314Z</time></trkpt><trkpt lat="58.39073833" lon="14.77113667"><ele>107.0</ele><time>2016-06-18T03:35:42.316Z</time></trkpt><trkpt lat="58.39071333" lon="14.77100333"><ele>106.0</ele><time>2016-06-18T03:35:43.317Z</time></trkpt><trkpt lat="58.39071333" lon="14.77100333"><ele>106.0</ele><time>2016-06-18T03:35:44.315Z</time></trkpt><trkpt lat="58.39066333" lon="14.770735"><ele>106.0</ele><time>2016-06-18T03:35:45.316Z</time></trkpt><trkpt lat="58.39063833" lon="14.7706"><ele>106.0</ele><time>2016-06-18T03:35:46.318Z</time></trkpt><trkpt lat="58.39063833" lon="14.7706"><ele>106.0</ele><time>2016-06-18T03:35:47.312Z</time></trkpt><trkpt lat="58.39058667" lon="14.77033"><ele>107.0</ele><time>2016-06-18T03:35:48.316Z</time></trkpt><trkpt lat="58.39058667" lon="14.77033"><ele>107.0</ele><time>2016-06-18T03:35:49.318Z</time></trkpt><trkpt lat="58.39053167" lon="14.77006333"><ele>107.0</ele><time>2016-06-18T03:35:50.317Z</time></trkpt><trkpt lat="58.39053167" lon="14.77006333"><ele>107.0</ele><time>2016-06-18T03:35:51.312Z</time></trkpt><trkpt lat="58.39047167" lon="14.769805"><ele>107.0</ele><time>2016-06-18T03:35:52.316Z</time></trkpt><trkpt lat="58.39047167" lon="14.769805"><ele>107.0</ele><time>2016-06-18T03:35:53.313Z</time></trkpt><trkpt lat="58.39041" lon="14.769545"><ele>106.0</ele><time>2016-06-18T03:35:54.316Z</time></trkpt><trkpt lat="58.39041" lon="14.769545"><ele>106.0</ele><time>2016-06-18T03:35:55.314Z</time></trkpt><trkpt lat="58.39033167" lon="14.76930167"><ele>106.0</ele><time>2016-06-18T03:35:56.317Z</time></trkpt><trkpt lat="58.39033167" lon="14.76930167"><ele>106.0</ele><time>2016-06-18T03:35:57.314Z</time></trkpt><trkpt lat="58.39025" lon="14.76905"><ele>106.0</ele><time>2016-06-18T03:35:58.318Z</time></trkpt><trkpt lat="58.39025" lon="14.76905"><ele>106.0</ele><time>2016-06-18T03:35:59.321Z</time></trkpt><trkpt lat="58.39016333" lon="14.76879833"><ele>106.0</ele><time>2016-06-18T03:36:00.318Z</time></trkpt><trkpt lat="58.39016333" lon="14.76879833"><ele>106.0</ele><time>2016-06-18T03:36:01.314Z</time></trkpt><trkpt lat="58.39006833" lon="14.76854"><ele>106.0</ele><time>2016-06-18T03:36:02.317Z</time></trkpt><trkpt lat="58.39006833" lon="14.76854"><ele>106.0</ele><time>2016-06-18T03:36:03.312Z</time></trkpt><trkpt lat="58.38997" lon="14.76827667"><ele>106.0</ele><time>2016-06-18T03:36:04.316Z</time></trkpt><trkpt lat="58.38997" lon="14.76827667"><ele>106.0</ele><time>2016-06-18T03:36:05.299Z</time></trkpt><trkpt lat="58.38986667" lon="14.768015"><ele>105.0</ele><time>2016-06-18T03:36:06.288Z</time></trkpt><trkpt lat="58.38986667" lon="14.768015"><ele>105.0</ele><time>2016-06-18T03:36:07.318Z</time></trkpt><trkpt lat="58.38976" lon="14.76775667"><ele>105.0</ele><time>2016-06-18T03:36:08.318Z</time></trkpt><trkpt lat="58.38976" lon="14.76775667"><ele>105.0</ele><time>2016-06-18T03:36:09.318Z</time></trkpt><trkpt lat="58.38965667" lon="14.7675"><ele>105.0</ele><time>2016-06-18T03:36:10.319Z</time></trkpt><trkpt lat="58.38965667" lon="14.7675"><ele>105.0</ele><time>2016-06-18T03:36:11.286Z</time></trkpt><trkpt lat="58.38955167" lon="14.767255"><ele>105.0</ele><time>2016-06-18T03:36:12.319Z</time></trkpt><trkpt lat="58.38955167" lon="14.767255"><ele>105.0</ele><time>2016-06-18T03:36:13.313Z</time></trkpt><trkpt lat="58.38945333" lon="14.76703167"><ele>105.0</ele><time>2016-06-18T03:36:14.318Z</time></trkpt><trkpt lat="58.38945333" lon="14.76703167"><ele>105.0</ele><time>2016-06-18T03:36:15.314Z</time></trkpt><trkpt lat="58.389365" lon="14.76683"><ele>105.0</ele><time>2016-06-18T03:36:16.314Z</time></trkpt><trkpt lat="58.38932167" lon="14.76673167"><ele>105.0</ele><time>2016-06-18T03:36:17.317Z</time></trkpt><trkpt lat="58.38932167" lon="14.76673167"><ele>105.0</ele><time>2016-06-18T03:36:18.313Z</time></trkpt><trkpt lat="58.38923833" lon="14.76653833"><ele>105.0</ele><time>2016-06-18T03:36:19.316Z</time></trkpt><trkpt lat="58.389195" lon="14.76644167"><ele>105.0</ele><time>2016-06-18T03:36:20.317Z</time></trkpt><trkpt lat="58.389195" lon="14.76644167"><ele>105.0</ele><time>2016-06-18T03:36:21.312Z</time></trkpt><trkpt lat="58.38910833" lon="14.76624167"><ele>105.0</ele><time>2016-06-18T03:36:22.316Z</time></trkpt><trkpt lat="58.38910833" lon="14.76624167"><ele>105.0</ele><time>2016-06-18T03:36:23.314Z</time></trkpt><trkpt lat="58.389015" lon="14.76604167"><ele>105.0</ele><time>2016-06-18T03:36:24.316Z</time></trkpt><trkpt lat="58.389015" lon="14.76604167"><ele>105.0</ele><time>2016-06-18T03:36:25.311Z</time></trkpt><trkpt lat="58.38891833" lon="14.76584"><ele>105.0</ele><time>2016-06-18T03:36:26.319Z</time></trkpt><trkpt lat="58.38891833" lon="14.76584"><ele>105.0</ele><time>2016-06-18T03:36:27.314Z</time></trkpt><trkpt lat="58.38881167" lon="14.76562833"><ele>105.0</ele><time>2016-06-18T03:36:28.316Z</time></trkpt><trkpt lat="58.38881167" lon="14.76562833"><ele>105.0</ele><time>2016-06-18T03:36:29.314Z</time></trkpt><trkpt lat="58.38870167" lon="14.7654"><ele>104.0</ele><time>2016-06-18T03:36:30.317Z</time></trkpt><trkpt lat="58.38870167" lon="14.7654"><ele>104.0</ele><time>2016-06-18T03:36:31.314Z</time></trkpt><trkpt lat="58.38858667" lon="14.76516"><ele>104.0</ele><time>2016-06-18T03:36:32.318Z</time></trkpt><trkpt lat="58.38858667" lon="14.76516"><ele>104.0</ele><time>2016-06-18T03:36:33.299Z</time></trkpt><trkpt lat="58.38847167" lon="14.76491667"><ele>104.0</ele><time>2016-06-18T03:36:34.287Z</time></trkpt><trkpt lat="58.38847167" lon="14.76491667"><ele>104.0</ele><time>2016-06-18T03:36:35.315Z</time></trkpt><trkpt lat="58.38835667" lon="14.76467333"><ele>104.0</ele><time>2016-06-18T03:36:36.318Z</time></trkpt><trkpt lat="58.38835667" lon="14.76467333"><ele>104.0</ele><time>2016-06-18T03:36:37.314Z</time></trkpt><trkpt lat="58.38824167" lon="14.76442333"><ele>104.0</ele><time>2016-06-18T03:36:38.315Z</time></trkpt><trkpt lat="58.38824167" lon="14.76442333"><ele>104.0</ele><time>2016-06-18T03:36:39.309Z</time></trkpt><trkpt lat="58.38812333" lon="14.76416667"><ele>104.0</ele><time>2016-06-18T03:36:40.317Z</time></trkpt><trkpt lat="58.38812333" lon="14.76416667"><ele>104.0</ele><time>2016-06-18T03:36:41.315Z</time></trkpt><trkpt lat="58.38800667" lon="14.76390667"><ele>104.0</ele><time>2016-06-18T03:36:42.318Z</time></trkpt><trkpt lat="58.38800667" lon="14.76390667"><ele>104.0</ele><time>2016-06-18T03:36:43.306Z</time></trkpt><trkpt lat="58.38788667" lon="14.76364333"><ele>104.0</ele><time>2016-06-18T03:36:44.318Z</time></trkpt><trkpt lat="58.38788667" lon="14.76364333"><ele>104.0</ele><time>2016-06-18T03:36:45.313Z</time></trkpt><trkpt lat="58.387765" lon="14.76338"><ele>104.0</ele><time>2016-06-18T03:36:46.317Z</time></trkpt><trkpt lat="58.387765" lon="14.76338"><ele>104.0</ele><time>2016-06-18T03:36:47.315Z</time></trkpt><trkpt lat="58.38764333" lon="14.76311333"><ele>104.0</ele><time>2016-06-18T03:36:48.317Z</time></trkpt><trkpt lat="58.38764333" lon="14.76311333"><ele>104.0</ele><time>2016-06-18T03:36:49.314Z</time></trkpt><trkpt lat="58.38752333" lon="14.76285"><ele>104.0</ele><time>2016-06-18T03:36:50.318Z</time></trkpt><trkpt lat="58.38752333" lon="14.76285"><ele>104.0</ele><time>2016-06-18T03:36:51.315Z</time></trkpt><trkpt lat="58.387405" lon="14.76258333"><ele>104.0</ele><time>2016-06-18T03:36:52.317Z</time></trkpt><trkpt lat="58.387405" lon="14.76258333"><ele>104.0</ele><time>2016-06-18T03:36:53.289Z</time></trkpt><trkpt lat="58.38728667" lon="14.76232167"><ele>104.0</ele><time>2016-06-18T03:36:54.319Z</time></trkpt><trkpt lat="58.38728667" lon="14.76232167"><ele>104.0</ele><time>2016-06-18T03:36:55.315Z</time></trkpt><trkpt lat="58.38717167" lon="14.76206"><ele>104.0</ele><time>2016-06-18T03:36:56.317Z</time></trkpt><trkpt lat="58.387115" lon="14.76192833"><ele>104.0</ele><time>2016-06-18T03:36:57.316Z</time></trkpt><trkpt lat="58.38705833" lon="14.76179667"><ele>104.0</ele><time>2016-06-18T03:36:58.317Z</time></trkpt><trkpt lat="58.38705833" lon="14.76179667"><ele>104.0</ele><time>2016-06-18T03:36:59.314Z</time></trkpt><trkpt lat="58.38694833" lon="14.76153167"><ele>104.0</ele><time>2016-06-18T03:37:00.320Z</time></trkpt><trkpt lat="58.38689167" lon="14.7614"><ele>103.0</ele><time>2016-06-18T03:37:01.321Z</time></trkpt><trkpt lat="58.386835" lon="14.76127"><ele>103.0</ele><time>2016-06-18T03:37:02.318Z</time></trkpt><trkpt lat="58.386835" lon="14.76127"><ele>103.0</ele><time>2016-06-18T03:37:03.312Z</time></trkpt><trkpt lat="58.38672167" lon="14.76101167"><ele>103.0</ele><time>2016-06-18T03:37:04.283Z</time></trkpt><trkpt lat="58.38672167" lon="14.76101167"><ele>103.0</ele><time>2016-06-18T03:37:05.315Z</time></trkpt><trkpt lat="58.38660667" lon="14.76075667"><ele>103.0</ele><time>2016-06-18T03:37:06.317Z</time></trkpt><trkpt lat="58.38660667" lon="14.76075667"><ele>103.0</ele><time>2016-06-18T03:37:07.311Z</time></trkpt><trkpt lat="58.38649" lon="14.76050667"><ele>103.0</ele><time>2016-06-18T03:37:08.318Z</time></trkpt><trkpt lat="58.38649" lon="14.76050667"><ele>103.0</ele><time>2016-06-18T03:37:09.314Z</time></trkpt><trkpt lat="58.38637333" lon="14.76025167"><ele>103.0</ele><time>2016-06-18T03:37:10.293Z</time></trkpt><trkpt lat="58.386315" lon="14.76012167"><ele>103.0</ele><time>2016-06-18T03:37:11.320Z</time></trkpt><trkpt lat="58.386315" lon="14.76012167"><ele>103.0</ele><time>2016-06-18T03:37:12.293Z</time></trkpt><trkpt lat="58.386195" lon="14.75986167"><ele>103.0</ele><time>2016-06-18T03:37:13.306Z</time></trkpt><trkpt lat="58.386135" lon="14.75972833"><ele>102.0</ele><time>2016-06-18T03:37:14.314Z</time></trkpt><trkpt lat="58.386075" lon="14.75959667"><ele>102.0</ele><time>2016-06-18T03:37:15.284Z</time></trkpt><trkpt lat="58.386075" lon="14.75959667"><ele>102.0</ele><time>2016-06-18T03:37:16.312Z</time></trkpt><trkpt lat="58.385955" lon="14.75933333"><ele>102.0</ele><time>2016-06-18T03:37:17.317Z</time></trkpt><trkpt lat="58.385955" lon="14.75933333"><ele>102.0</ele><time>2016-06-18T03:37:18.314Z</time></trkpt><trkpt lat="58.385835" lon="14.75907333"><ele>102.0</ele><time>2016-06-18T03:37:19.317Z</time></trkpt><trkpt lat="58.385835" lon="14.75907333"><ele>102.0</ele><time>2016-06-18T03:37:20.316Z</time></trkpt><trkpt lat="58.38571667" lon="14.75881167"><ele>102.0</ele><time>2016-06-18T03:37:21.294Z</time></trkpt><trkpt lat="58.38571667" lon="14.75881167"><ele>102.0</ele><time>2016-06-18T03:37:22.290Z</time></trkpt><trkpt lat="58.38559833" lon="14.75855"><ele>101.0</ele><time>2016-06-18T03:37:23.317Z</time></trkpt><trkpt lat="58.38559833" lon="14.75855"><ele>101.0</ele><time>2016-06-18T03:37:24.315Z</time></trkpt><trkpt lat="58.38547833" lon="14.75829167"><ele>101.0</ele><time>2016-06-18T03:37:25.314Z</time></trkpt><trkpt lat="58.38541833" lon="14.75816333"><ele>101.0</ele><time>2016-06-18T03:37:26.317Z</time></trkpt><trkpt lat="58.38541833" lon="14.75816333"><ele>101.0</ele><time>2016-06-18T03:37:27.314Z</time></trkpt><trkpt lat="58.3853" lon="14.75790833"><ele>101.0</ele><time>2016-06-18T03:37:28.317Z</time></trkpt><trkpt lat="58.3853" lon="14.75790833"><ele>101.0</ele><time>2016-06-18T03:37:29.315Z</time></trkpt><trkpt lat="58.38518" lon="14.75765"><ele>101.0</ele><time>2016-06-18T03:37:30.317Z</time></trkpt><trkpt lat="58.38518" lon="14.75765"><ele>101.0</ele><time>2016-06-18T03:37:31.315Z</time></trkpt><trkpt lat="58.38506" lon="14.75739167"><ele>101.0</ele><time>2016-06-18T03:37:32.319Z</time></trkpt><trkpt lat="58.38506" lon="14.75739167"><ele>101.0</ele><time>2016-06-18T03:37:33.314Z</time></trkpt><trkpt lat="58.38493833" lon="14.75713167"><ele>100.0</ele><time>2016-06-18T03:37:34.317Z</time></trkpt><trkpt lat="58.38493833" lon="14.75713167"><ele>100.0</ele><time>2016-06-18T03:37:35.318Z</time></trkpt><trkpt lat="58.38481833" lon="14.75687167"><ele>100.0</ele><time>2016-06-18T03:37:36.317Z</time></trkpt><trkpt lat="58.38481833" lon="14.75687167"><ele>100.0</ele><time>2016-06-18T03:37:37.315Z</time></trkpt><trkpt lat="58.38469667" lon="14.75661"><ele>100.0</ele><time>2016-06-18T03:37:38.318Z</time></trkpt><trkpt lat="58.38469667" lon="14.75661"><ele>100.0</ele><time>2016-06-18T03:37:39.315Z</time></trkpt><trkpt lat="58.38457333" lon="14.75634167"><ele>99.0</ele><time>2016-06-18T03:37:40.317Z</time></trkpt><trkpt lat="58.38451" lon="14.756205"><ele>99.0</ele><time>2016-06-18T03:37:41.318Z</time></trkpt><trkpt lat="58.38451" lon="14.756205"><ele>99.0</ele><time>2016-06-18T03:37:42.316Z</time></trkpt><trkpt lat="58.384385" lon="14.755935"><ele>99.0</ele><time>2016-06-18T03:37:43.284Z</time></trkpt><trkpt lat="58.384385" lon="14.755935"><ele>99.0</ele><time>2016-06-18T03:37:44.318Z</time></trkpt><trkpt lat="58.38426333" lon="14.75566667"><ele>99.0</ele><time>2016-06-18T03:37:45.290Z</time></trkpt><trkpt lat="58.38420167" lon="14.75553333"><ele>99.0</ele><time>2016-06-18T03:37:46.318Z</time></trkpt><trkpt lat="58.38420167" lon="14.75553333"><ele>99.0</ele><time>2016-06-18T03:37:47.309Z</time></trkpt><trkpt lat="58.38407833" lon="14.75526833"><ele>99.0</ele><time>2016-06-18T03:37:48.315Z</time></trkpt><trkpt lat="58.38401833" lon="14.75513667"><ele>99.0</ele><time>2016-06-18T03:37:49.318Z</time></trkpt><trkpt lat="58.38395667" lon="14.755005"><ele>99.0</ele><time>2016-06-18T03:37:50.287Z</time></trkpt><trkpt lat="58.38395667" lon="14.755005"><ele>99.0</ele><time>2016-06-18T03:37:51.317Z</time></trkpt><trkpt lat="58.383835" lon="14.75474"><ele>99.0</ele><time>2016-06-18T03:37:52.317Z</time></trkpt><trkpt lat="58.383835" lon="14.75474"><ele>99.0</ele><time>2016-06-18T03:37:53.315Z</time></trkpt><trkpt lat="58.38371167" lon="14.75447667"><ele>99.0</ele><time>2016-06-18T03:37:54.318Z</time></trkpt><trkpt lat="58.38371167" lon="14.75447667"><ele>99.0</ele><time>2016-06-18T03:37:55.315Z</time></trkpt><trkpt lat="58.383585" lon="14.75421"><ele>98.0</ele><time>2016-06-18T03:37:56.318Z</time></trkpt><trkpt lat="58.383585" lon="14.75421"><ele>98.0</ele><time>2016-06-18T03:37:57.315Z</time></trkpt><trkpt lat="58.38345833" lon="14.75393833"><ele>98.0</ele><time>2016-06-18T03:37:58.315Z</time></trkpt><trkpt lat="58.383395" lon="14.75380333"><ele>98.0</ele><time>2016-06-18T03:37:59.318Z</time></trkpt><trkpt lat="58.383395" lon="14.75380333"><ele>98.0</ele><time>2016-06-18T03:38:00.319Z</time></trkpt><trkpt lat="58.38327" lon="14.75353"><ele>98.0</ele><time>2016-06-18T03:38:01.318Z</time></trkpt><trkpt lat="58.38321" lon="14.75339167"><ele>98.0</ele><time>2016-06-18T03:38:02.319Z</time></trkpt><trkpt lat="58.38321" lon="14.75339167"><ele>98.0</ele><time>2016-06-18T03:38:03.312Z</time></trkpt><trkpt lat="58.38308833" lon="14.75312"><ele>98.0</ele><time>2016-06-18T03:38:04.318Z</time></trkpt><trkpt lat="58.38308833" lon="14.75312"><ele>98.0</ele><time>2016-06-18T03:38:05.315Z</time></trkpt><trkpt lat="58.38296" lon="14.75285333"><ele>98.0</ele><time>2016-06-18T03:38:06.309Z</time></trkpt><trkpt lat="58.3829" lon="14.75272333"><ele>98.0</ele><time>2016-06-18T03:38:07.317Z</time></trkpt><trkpt lat="58.38283667" lon="14.75259333"><ele>97.0</ele><time>2016-06-18T03:38:08.318Z</time></trkpt><trkpt lat="58.38283667" lon="14.75259333"><ele>97.0</ele><time>2016-06-18T03:38:09.315Z</time></trkpt><trkpt lat="58.38271167" lon="14.75233667"><ele>97.0</ele><time>2016-06-18T03:38:10.318Z</time></trkpt><trkpt lat="58.38271167" lon="14.75233667"><ele>97.0</ele><time>2016-06-18T03:38:11.315Z</time></trkpt><trkpt lat="58.382585" lon="14.75208"><ele>97.0</ele><time>2016-06-18T03:38:12.317Z</time></trkpt><trkpt lat="58.382585" lon="14.75208"><ele>97.0</ele><time>2016-06-18T03:38:13.284Z</time></trkpt><trkpt lat="58.38246333" lon="14.751825"><ele>97.0</ele><time>2016-06-18T03:38:14.292Z</time></trkpt><trkpt lat="58.38240167" lon="14.75169833"><ele>97.0</ele><time>2016-06-18T03:38:15.319Z</time></trkpt><trkpt lat="58.38234" lon="14.75157333"><ele>97.0</ele><time>2016-06-18T03:38:16.319Z</time></trkpt><trkpt lat="58.38234" lon="14.75157333"><ele>97.0</ele><time>2016-06-18T03:38:17.316Z</time></trkpt><trkpt lat="58.38221" lon="14.751325"><ele>97.0</ele><time>2016-06-18T03:38:18.317Z</time></trkpt><trkpt lat="58.38214667" lon="14.75120167"><ele>96.0</ele><time>2016-06-18T03:38:19.319Z</time></trkpt><trkpt lat="58.38208333" lon="14.75107667"><ele>96.0</ele><time>2016-06-18T03:38:20.321Z</time></trkpt><trkpt lat="58.38208333" lon="14.75107667"><ele>96.0</ele><time>2016-06-18T03:38:21.313Z</time></trkpt><trkpt lat="58.38195333" lon="14.75082667"><ele>96.0</ele><time>2016-06-18T03:38:22.318Z</time></trkpt><trkpt lat="58.38195333" lon="14.75082667"><ele>96.0</ele><time>2016-06-18T03:38:23.316Z</time></trkpt><trkpt lat="58.38182667" lon="14.75057833"><ele>96.0</ele><time>2016-06-18T03:38:24.318Z</time></trkpt><trkpt lat="58.38182667" lon="14.75057833"><ele>96.0</ele><time>2016-06-18T03:38:25.313Z</time></trkpt><trkpt lat="58.38169667" lon="14.75033167"><ele>96.0</ele><time>2016-06-18T03:38:26.318Z</time></trkpt><trkpt lat="58.38169667" lon="14.75033167"><ele>96.0</ele><time>2016-06-18T03:38:27.316Z</time></trkpt><trkpt lat="58.38157167" lon="14.75008833"><ele>96.0</ele><time>2016-06-18T03:38:28.318Z</time></trkpt><trkpt lat="58.38157167" lon="14.75008833"><ele>96.0</ele><time>2016-06-18T03:38:29.315Z</time></trkpt><trkpt lat="58.38144833" lon="14.74984333"><ele>96.0</ele><time>2016-06-18T03:38:30.317Z</time></trkpt><trkpt lat="58.38138167" lon="14.74972333"><ele>96.0</ele><time>2016-06-18T03:38:31.318Z</time></trkpt><trkpt lat="58.38131667" lon="14.74959833"><ele>97.0</ele><time>2016-06-18T03:38:32.319Z</time></trkpt><trkpt lat="58.38131667" lon="14.74959833"><ele>97.0</ele><time>2016-06-18T03:38:33.315Z</time></trkpt><trkpt lat="58.38118333" lon="14.74934833"><ele>97.0</ele><time>2016-06-18T03:38:34.318Z</time></trkpt><trkpt lat="58.38118333" lon="14.74934833"><ele>97.0</ele><time>2016-06-18T03:38:35.315Z</time></trkpt><trkpt lat="58.38104833" lon="14.749085"><ele>97.0</ele><time>2016-06-18T03:38:36.318Z</time></trkpt><trkpt lat="58.38104833" lon="14.749085"><ele>97.0</ele><time>2016-06-18T03:38:37.315Z</time></trkpt><trkpt lat="58.38091167" lon="14.74882667"><ele>97.0</ele><time>2016-06-18T03:38:38.284Z</time></trkpt><trkpt lat="58.38091167" lon="14.74882667"><ele>97.0</ele><time>2016-06-18T03:38:39.313Z</time></trkpt><trkpt lat="58.380775" lon="14.748565"><ele>97.0</ele><time>2016-06-18T03:38:40.318Z</time></trkpt><trkpt lat="58.380775" lon="14.748565"><ele>97.0</ele><time>2016-06-18T03:38:41.320Z</time></trkpt><trkpt lat="58.38063667" lon="14.74830833"><ele>97.0</ele><time>2016-06-18T03:38:42.318Z</time></trkpt><trkpt lat="58.38063667" lon="14.74830833"><ele>97.0</ele><time>2016-06-18T03:38:43.307Z</time></trkpt><trkpt lat="58.38050333" lon="14.74805833"><ele>98.0</ele><time>2016-06-18T03:38:44.295Z</time></trkpt><trkpt lat="58.38050333" lon="14.74805833"><ele>98.0</ele><time>2016-06-18T03:38:45.288Z</time></trkpt><trkpt lat="58.380365" lon="14.74780833"><ele>98.0</ele><time>2016-06-18T03:38:46.318Z</time></trkpt><trkpt lat="58.380365" lon="14.74780833"><ele>98.0</ele><time>2016-06-18T03:38:47.316Z</time></trkpt><trkpt lat="58.380225" lon="14.74755"><ele>98.0</ele><time>2016-06-18T03:38:48.318Z</time></trkpt><trkpt lat="58.380155" lon="14.74742"><ele>98.0</ele><time>2016-06-18T03:38:49.318Z</time></trkpt><trkpt lat="58.380085" lon="14.74728667"><ele>98.0</ele><time>2016-06-18T03:38:50.319Z</time></trkpt><trkpt lat="58.380085" lon="14.74728667"><ele>98.0</ele><time>2016-06-18T03:38:51.315Z</time></trkpt><trkpt lat="58.37994" lon="14.74703667"><ele>99.0</ele><time>2016-06-18T03:38:52.315Z</time></trkpt><trkpt lat="58.37994" lon="14.74703667"><ele>99.0</ele><time>2016-06-18T03:38:53.316Z</time></trkpt><trkpt lat="58.37980333" lon="14.74677667"><ele>99.0</ele><time>2016-06-18T03:38:54.318Z</time></trkpt><trkpt lat="58.379735" lon="14.74664667"><ele>99.0</ele><time>2016-06-18T03:38:55.318Z</time></trkpt><trkpt lat="58.37966833" lon="14.74652"><ele>100.0</ele><time>2016-06-18T03:38:56.319Z</time></trkpt><trkpt lat="58.37966833" lon="14.74652"><ele>100.0</ele><time>2016-06-18T03:38:57.310Z</time></trkpt><trkpt lat="58.37953333" lon="14.74626333"><ele>100.0</ele><time>2016-06-18T03:38:58.319Z</time></trkpt><trkpt lat="58.37953333" lon="14.74626333"><ele>100.0</ele><time>2016-06-18T03:38:59.316Z</time></trkpt><trkpt lat="58.3794" lon="14.74600667"><ele>100.0</ele><time>2016-06-18T03:39:00.308Z</time></trkpt><trkpt lat="58.3794" lon="14.74600667"><ele>100.0</ele><time>2016-06-18T03:39:01.285Z</time></trkpt><trkpt lat="58.37926667" lon="14.74574833"><ele>99.0</ele><time>2016-06-18T03:39:02.319Z</time></trkpt><trkpt lat="58.37926667" lon="14.74574833"><ele>99.0</ele><time>2016-06-18T03:39:03.312Z</time></trkpt><trkpt lat="58.379135" lon="14.74549167"><ele>99.0</ele><time>2016-06-18T03:39:04.320Z</time></trkpt><trkpt lat="58.379135" lon="14.74549167"><ele>99.0</ele><time>2016-06-18T03:39:05.313Z</time></trkpt><trkpt lat="58.37900167" lon="14.74524"><ele>99.0</ele><time>2016-06-18T03:39:06.317Z</time></trkpt><trkpt lat="58.378935" lon="14.74511667"><ele>99.0</ele><time>2016-06-18T03:39:07.318Z</time></trkpt><trkpt lat="58.37887167" lon="14.74499333"><ele>99.0</ele><time>2016-06-18T03:39:08.320Z</time></trkpt><trkpt lat="58.37887167" lon="14.74499333"><ele>99.0</ele><time>2016-06-18T03:39:09.283Z</time></trkpt><trkpt lat="58.37873833" lon="14.74474833"><ele>99.0</ele><time>2016-06-18T03:39:10.316Z</time></trkpt><trkpt lat="58.37873833" lon="14.74474833"><ele>99.0</ele><time>2016-06-18T03:39:11.320Z</time></trkpt><trkpt lat="58.378605" lon="14.74450333"><ele>99.0</ele><time>2016-06-18T03:39:12.282Z</time></trkpt><trkpt lat="58.378605" lon="14.74450333"><ele>99.0</ele><time>2016-06-18T03:39:13.290Z</time></trkpt><trkpt lat="58.37847333" lon="14.74425667"><ele>99.0</ele><time>2016-06-18T03:39:14.319Z</time></trkpt><trkpt lat="58.37847333" lon="14.74425667"><ele>99.0</ele><time>2016-06-18T03:39:15.313Z</time></trkpt><trkpt lat="58.37834333" lon="14.74401333"><ele>99.0</ele><time>2016-06-18T03:39:16.316Z</time></trkpt><trkpt lat="58.37834333" lon="14.74401333"><ele>99.0</ele><time>2016-06-18T03:39:17.316Z</time></trkpt><trkpt lat="58.37821333" lon="14.74376833"><ele>99.0</ele><time>2016-06-18T03:39:18.318Z</time></trkpt><trkpt lat="58.37814667" lon="14.74364667"><ele>99.0</ele><time>2016-06-18T03:39:19.319Z</time></trkpt><trkpt lat="58.37808167" lon="14.74352333"><ele>99.0</ele><time>2016-06-18T03:39:20.320Z</time></trkpt><trkpt lat="58.37808167" lon="14.74352333"><ele>99.0</ele><time>2016-06-18T03:39:21.319Z</time></trkpt><trkpt lat="58.37795167" lon="14.74327667"><ele>99.0</ele><time>2016-06-18T03:39:22.319Z</time></trkpt><trkpt lat="58.37795167" lon="14.74327667"><ele>99.0</ele><time>2016-06-18T03:39:23.316Z</time></trkpt><trkpt lat="58.37781833" lon="14.74302333"><ele>99.0</ele><time>2016-06-18T03:39:24.316Z</time></trkpt><trkpt lat="58.37781833" lon="14.74302333"><ele>99.0</ele><time>2016-06-18T03:39:25.314Z</time></trkpt><trkpt lat="58.37768667" lon="14.74277167"><ele>99.0</ele><time>2016-06-18T03:39:26.319Z</time></trkpt><trkpt lat="58.37768667" lon="14.74277167"><ele>99.0</ele><time>2016-06-18T03:39:27.316Z</time></trkpt><trkpt lat="58.37755333" lon="14.74251833"><ele>98.0</ele><time>2016-06-18T03:39:28.318Z</time></trkpt><trkpt lat="58.37755333" lon="14.74251833"><ele>98.0</ele><time>2016-06-18T03:39:29.314Z</time></trkpt><trkpt lat="58.37742333" lon="14.74227333"><ele>99.0</ele><time>2016-06-18T03:39:30.319Z</time></trkpt><trkpt lat="58.37742333" lon="14.74227333"><ele>99.0</ele><time>2016-06-18T03:39:31.319Z</time></trkpt><trkpt lat="58.377295" lon="14.74203167"><ele>99.0</ele><time>2016-06-18T03:39:32.320Z</time></trkpt><trkpt lat="58.377295" lon="14.74203167"><ele>99.0</ele><time>2016-06-18T03:39:33.315Z</time></trkpt><trkpt lat="58.37717" lon="14.74179833"><ele>99.0</ele><time>2016-06-18T03:39:34.320Z</time></trkpt><trkpt lat="58.37710833" lon="14.74168167"><ele>99.0</ele><time>2016-06-18T03:39:35.318Z</time></trkpt><trkpt lat="58.37710833" lon="14.74168167"><ele>99.0</ele><time>2016-06-18T03:39:36.320Z</time></trkpt><trkpt lat="58.37698333" lon="14.741445"><ele>99.0</ele><time>2016-06-18T03:39:37.320Z</time></trkpt><trkpt lat="58.37698333" lon="14.741445"><ele>99.0</ele><time>2016-06-18T03:39:38.312Z</time></trkpt><trkpt lat="58.37685833" lon="14.74120667"><ele>99.0</ele><time>2016-06-18T03:39:39.318Z</time></trkpt><trkpt lat="58.37679667" lon="14.74109"><ele>99.0</ele><time>2016-06-18T03:39:40.319Z</time></trkpt><trkpt lat="58.37679667" lon="14.74109"><ele>99.0</ele><time>2016-06-18T03:39:41.282Z</time></trkpt><trkpt lat="58.37666833" lon="14.740855"><ele>99.0</ele><time>2016-06-18T03:39:42.318Z</time></trkpt><trkpt lat="58.376605" lon="14.74073833"><ele>99.0</ele><time>2016-06-18T03:39:43.288Z</time></trkpt><trkpt lat="58.37654167" lon="14.74062"><ele>99.0</ele><time>2016-06-18T03:39:44.283Z</time></trkpt><trkpt lat="58.37654167" lon="14.74062"><ele>99.0</ele><time>2016-06-18T03:39:45.316Z</time></trkpt><trkpt lat="58.37641833" lon="14.74038333"><ele>100.0</ele><time>2016-06-18T03:39:46.319Z</time></trkpt><trkpt lat="58.37641833" lon="14.74038333"><ele>100.0</ele><time>2016-06-18T03:39:47.314Z</time></trkpt><trkpt lat="58.376295" lon="14.74014333"><ele>100.0</ele><time>2016-06-18T03:39:48.318Z</time></trkpt><trkpt lat="58.376295" lon="14.74014333"><ele>100.0</ele><time>2016-06-18T03:39:49.315Z</time></trkpt><trkpt lat="58.37617167" lon="14.73990667"><ele>100.0</ele><time>2016-06-18T03:39:50.319Z</time></trkpt><trkpt lat="58.37617167" lon="14.73990667"><ele>100.0</ele><time>2016-06-18T03:39:51.318Z</time></trkpt><trkpt lat="58.37604667" lon="14.73967667"><ele>100.0</ele><time>2016-06-18T03:39:52.318Z</time></trkpt><trkpt lat="58.37604667" lon="14.73967667"><ele>100.0</ele><time>2016-06-18T03:39:53.315Z</time></trkpt><trkpt lat="58.37592833" lon="14.73945333"><ele>100.0</ele><time>2016-06-18T03:39:54.318Z</time></trkpt><trkpt lat="58.37592833" lon="14.73945333"><ele>100.0</ele><time>2016-06-18T03:39:55.316Z</time></trkpt><trkpt lat="58.37581" lon="14.739235"><ele>101.0</ele><time>2016-06-18T03:39:56.320Z</time></trkpt><trkpt lat="58.37581" lon="14.739235"><ele>101.0</ele><time>2016-06-18T03:39:57.317Z</time></trkpt><trkpt lat="58.37569" lon="14.73902"><ele>101.0</ele><time>2016-06-18T03:39:58.319Z</time></trkpt><trkpt lat="58.37569" lon="14.73902"><ele>101.0</ele><time>2016-06-18T03:39:59.315Z</time></trkpt><trkpt lat="58.37556833" lon="14.73879833"><ele>100.0</ele><time>2016-06-18T03:40:00.319Z</time></trkpt><trkpt lat="58.37556833" lon="14.73879833"><ele>100.0</ele><time>2016-06-18T03:40:01.317Z</time></trkpt><trkpt lat="58.37544" lon="14.73857"><ele>100.0</ele><time>2016-06-18T03:40:02.320Z</time></trkpt><trkpt lat="58.37544" lon="14.73857"><ele>100.0</ele><time>2016-06-18T03:40:03.314Z</time></trkpt><trkpt lat="58.375305" lon="14.73833667"><ele>100.0</ele><time>2016-06-18T03:40:04.320Z</time></trkpt><trkpt lat="58.375305" lon="14.73833667"><ele>100.0</ele><time>2016-06-18T03:40:05.317Z</time></trkpt><trkpt lat="58.37517167" lon="14.73810167"><ele>100.0</ele><time>2016-06-18T03:40:06.319Z</time></trkpt><trkpt lat="58.37510333" lon="14.737985"><ele>100.0</ele><time>2016-06-18T03:40:07.319Z</time></trkpt><trkpt lat="58.375035" lon="14.73787"><ele>99.0</ele><time>2016-06-18T03:40:08.319Z</time></trkpt><trkpt lat="58.375035" lon="14.73787"><ele>99.0</ele><time>2016-06-18T03:40:09.316Z</time></trkpt><trkpt lat="58.37490167" lon="14.73763833"><ele>99.0</ele><time>2016-06-18T03:40:10.316Z</time></trkpt><trkpt lat="58.37490167" lon="14.73763833"><ele>99.0</ele><time>2016-06-18T03:40:11.320Z</time></trkpt><trkpt lat="58.37476833" lon="14.73740833"><ele>99.0</ele><time>2016-06-18T03:40:12.288Z</time></trkpt><trkpt lat="58.37476833" lon="14.73740833"><ele>99.0</ele><time>2016-06-18T03:40:13.295Z</time></trkpt><trkpt lat="58.37463667" lon="14.73718333"><ele>99.0</ele><time>2016-06-18T03:40:14.311Z</time></trkpt><trkpt lat="58.37457167" lon="14.73707"><ele>99.0</ele><time>2016-06-18T03:40:15.320Z</time></trkpt><trkpt lat="58.37450667" lon="14.73695833"><ele>99.0</ele><time>2016-06-18T03:40:16.317Z</time></trkpt><trkpt lat="58.37450667" lon="14.73695833"><ele>99.0</ele><time>2016-06-18T03:40:17.317Z</time></trkpt><trkpt lat="58.37437667" lon="14.73674167"><ele>100.0</ele><time>2016-06-18T03:40:18.318Z</time></trkpt><trkpt lat="58.37437667" lon="14.73674167"><ele>100.0</ele><time>2016-06-18T03:40:19.317Z</time></trkpt><trkpt lat="58.37425" lon="14.73652833"><ele>100.0</ele><time>2016-06-18T03:40:20.285Z</time></trkpt><trkpt lat="58.37425" lon="14.73652833"><ele>100.0</ele><time>2016-06-18T03:40:21.314Z</time></trkpt><trkpt lat="58.374125" lon="14.73631833"><ele>100.0</ele><time>2016-06-18T03:40:22.320Z</time></trkpt><trkpt lat="58.374125" lon="14.73631833"><ele>100.0</ele><time>2016-06-18T03:40:23.317Z</time></trkpt><trkpt lat="58.37399667" lon="14.736115"><ele>100.0</ele><time>2016-06-18T03:40:24.320Z</time></trkpt><trkpt lat="58.37399667" lon="14.736115"><ele>100.0</ele><time>2016-06-18T03:40:25.311Z</time></trkpt><trkpt lat="58.37387" lon="14.73591667"><ele>101.0</ele><time>2016-06-18T03:40:26.319Z</time></trkpt><trkpt lat="58.37387" lon="14.73591667"><ele>101.0</ele><time>2016-06-18T03:40:27.317Z</time></trkpt><trkpt lat="58.37374167" lon="14.735715"><ele>101.0</ele><time>2016-06-18T03:40:28.319Z</time></trkpt><trkpt lat="58.37367833" lon="14.73561"><ele>101.0</ele><time>2016-06-18T03:40:29.293Z</time></trkpt><trkpt lat="58.373615" lon="14.73550667"><ele>101.0</ele><time>2016-06-18T03:40:30.320Z</time></trkpt><trkpt lat="58.373615" lon="14.73550667"><ele>101.0</ele><time>2016-06-18T03:40:31.317Z</time></trkpt><trkpt lat="58.37348833" lon="14.73530167"><ele>101.0</ele><time>2016-06-18T03:40:32.319Z</time></trkpt><trkpt lat="58.37348833" lon="14.73530167"><ele>101.0</ele><time>2016-06-18T03:40:33.317Z</time></trkpt><trkpt lat="58.37335833" lon="14.73510167"><ele>101.0</ele><time>2016-06-18T03:40:34.319Z</time></trkpt><trkpt lat="58.37335833" lon="14.73510167"><ele>101.0</ele><time>2016-06-18T03:40:35.317Z</time></trkpt><trkpt lat="58.37322667" lon="14.73490667"><ele>101.0</ele><time>2016-06-18T03:40:36.319Z</time></trkpt><trkpt lat="58.37322667" lon="14.73490667"><ele>101.0</ele><time>2016-06-18T03:40:37.317Z</time></trkpt><trkpt lat="58.37309833" lon="14.73471333"><ele>101.0</ele><time>2016-06-18T03:40:38.320Z</time></trkpt><trkpt lat="58.37303333" lon="14.73461667"><ele>101.0</ele><time>2016-06-18T03:40:39.304Z</time></trkpt><trkpt lat="58.37303333" lon="14.73461667"><ele>101.0</ele><time>2016-06-18T03:40:40.291Z</time></trkpt><trkpt lat="58.37291" lon="14.734425"><ele>101.0</ele><time>2016-06-18T03:40:41.319Z</time></trkpt><trkpt lat="58.37291" lon="14.734425"><ele>101.0</ele><time>2016-06-18T03:40:42.310Z</time></trkpt><trkpt lat="58.372785" lon="14.73424"><ele>102.0</ele><time>2016-06-18T03:40:43.284Z</time></trkpt><trkpt lat="58.37272333" lon="14.734145"><ele>102.0</ele><time>2016-06-18T03:40:44.285Z</time></trkpt><trkpt lat="58.37272333" lon="14.734145"><ele>102.0</ele><time>2016-06-18T03:40:45.317Z</time></trkpt><trkpt lat="58.3726" lon="14.73396"><ele>102.0</ele><time>2016-06-18T03:40:46.320Z</time></trkpt><trkpt lat="58.3726" lon="14.73396"><ele>102.0</ele><time>2016-06-18T03:40:47.314Z</time></trkpt><trkpt lat="58.37247667" lon="14.73377667"><ele>103.0</ele><time>2016-06-18T03:40:48.319Z</time></trkpt><trkpt lat="58.37247667" lon="14.73377667"><ele>103.0</ele><time>2016-06-18T03:40:49.316Z</time></trkpt><trkpt lat="58.37235167" lon="14.7336"><ele>103.0</ele><time>2016-06-18T03:40:50.318Z</time></trkpt><trkpt lat="58.37235167" lon="14.7336"><ele>103.0</ele><time>2016-06-18T03:40:51.317Z</time></trkpt><trkpt lat="58.37223167" lon="14.73342"><ele>104.0</ele><time>2016-06-18T03:40:52.287Z</time></trkpt><trkpt lat="58.37217167" lon="14.73332833"><ele>104.0</ele><time>2016-06-18T03:40:53.294Z</time></trkpt><trkpt lat="58.37217167" lon="14.73332833"><ele>104.0</ele><time>2016-06-18T03:40:54.321Z</time></trkpt><trkpt lat="58.37205167" lon="14.733155"><ele>105.0</ele><time>2016-06-18T03:40:55.320Z</time></trkpt><trkpt lat="58.37199" lon="14.73307"><ele>105.0</ele><time>2016-06-18T03:40:56.321Z</time></trkpt><trkpt lat="58.37199" lon="14.73307"><ele>105.0</ele><time>2016-06-18T03:40:57.318Z</time></trkpt><trkpt lat="58.37186667" lon="14.73289667"><ele>106.0</ele><time>2016-06-18T03:40:58.319Z</time></trkpt><trkpt lat="58.371805" lon="14.732805"><ele>106.0</ele><time>2016-06-18T03:40:59.320Z</time></trkpt><trkpt lat="58.371805" lon="14.732805"><ele>106.0</ele><time>2016-06-18T03:41:00.316Z</time></trkpt><trkpt lat="58.371685" lon="14.73261833"><ele>106.0</ele><time>2016-06-18T03:41:01.319Z</time></trkpt><trkpt lat="58.37162667" lon="14.73252"><ele>107.0</ele><time>2016-06-18T03:41:02.283Z</time></trkpt><trkpt lat="58.37162667" lon="14.73252"><ele>107.0</ele><time>2016-06-18T03:41:03.317Z</time></trkpt><trkpt lat="58.37150833" lon="14.73232667"><ele>107.0</ele><time>2016-06-18T03:41:04.320Z</time></trkpt><trkpt lat="58.37150833" lon="14.73232667"><ele>107.0</ele><time>2016-06-18T03:41:05.317Z</time></trkpt><trkpt lat="58.37138833" lon="14.73213333"><ele>107.0</ele><time>2016-06-18T03:41:06.319Z</time></trkpt><trkpt lat="58.37133333" lon="14.73203167"><ele>107.0</ele><time>2016-06-18T03:41:07.320Z</time></trkpt><trkpt lat="58.37133333" lon="14.73203167"><ele>107.0</ele><time>2016-06-18T03:41:08.318Z</time></trkpt><trkpt lat="58.37122" lon="14.73184333"><ele>107.0</ele><time>2016-06-18T03:41:09.319Z</time></trkpt><trkpt lat="58.37116667" lon="14.73175333"><ele>107.0</ele><time>2016-06-18T03:41:10.320Z</time></trkpt><trkpt lat="58.37116667" lon="14.73175333"><ele>107.0</ele><time>2016-06-18T03:41:11.314Z</time></trkpt><trkpt lat="58.37105833" lon="14.73157"><ele>107.0</ele><time>2016-06-18T03:41:12.283Z</time></trkpt><trkpt lat="58.37105833" lon="14.73157"><ele>107.0</ele><time>2016-06-18T03:41:13.318Z</time></trkpt><trkpt lat="58.37094667" lon="14.73139667"><ele>107.0</ele><time>2016-06-18T03:41:14.320Z</time></trkpt><trkpt lat="58.37094667" lon="14.73139667"><ele>107.0</ele><time>2016-06-18T03:41:15.316Z</time></trkpt><trkpt lat="58.370835" lon="14.73122"><ele>108.0</ele><time>2016-06-18T03:41:16.320Z</time></trkpt><trkpt lat="58.370835" lon="14.73122"><ele>108.0</ele><time>2016-06-18T03:41:17.318Z</time></trkpt><trkpt lat="58.37072333" lon="14.731055"><ele>108.0</ele><time>2016-06-18T03:41:18.319Z</time></trkpt><trkpt lat="58.37072333" lon="14.731055"><ele>108.0</ele><time>2016-06-18T03:41:19.318Z</time></trkpt><trkpt lat="58.37061833" lon="14.73089833"><ele>108.0</ele><time>2016-06-18T03:41:20.322Z</time></trkpt><trkpt lat="58.37061833" lon="14.73089833"><ele>108.0</ele><time>2016-06-18T03:41:21.317Z</time></trkpt><trkpt lat="58.370515" lon="14.73073833"><ele>108.0</ele><time>2016-06-18T03:41:22.285Z</time></trkpt><trkpt lat="58.370515" lon="14.73073833"><ele>108.0</ele><time>2016-06-18T03:41:23.318Z</time></trkpt><trkpt lat="58.37041167" lon="14.73057667"><ele>108.0</ele><time>2016-06-18T03:41:24.292Z</time></trkpt><trkpt lat="58.37036167" lon="14.73049667"><ele>109.0</ele><time>2016-06-18T03:41:25.320Z</time></trkpt><trkpt lat="58.37036167" lon="14.73049667"><ele>109.0</ele><time>2016-06-18T03:41:26.318Z</time></trkpt><trkpt lat="58.37025833" lon="14.73033167"><ele>109.0</ele><time>2016-06-18T03:41:27.320Z</time></trkpt><trkpt lat="58.37020833" lon="14.73024833"><ele>109.0</ele><time>2016-06-18T03:41:28.319Z</time></trkpt><trkpt lat="58.37020833" lon="14.73024833"><ele>109.0</ele><time>2016-06-18T03:41:29.315Z</time></trkpt><trkpt lat="58.37010667" lon="14.730085"><ele>110.0</ele><time>2016-06-18T03:41:30.318Z</time></trkpt><trkpt lat="58.37010667" lon="14.730085"><ele>110.0</ele><time>2016-06-18T03:41:31.318Z</time></trkpt><trkpt lat="58.37001167" lon="14.72993"><ele>111.0</ele><time>2016-06-18T03:41:32.313Z</time></trkpt><trkpt lat="58.37001167" lon="14.72993"><ele>111.0</ele><time>2016-06-18T03:41:33.299Z</time></trkpt><trkpt lat="58.36991833" lon="14.72978167"><ele>111.0</ele><time>2016-06-18T03:41:34.291Z</time></trkpt><trkpt lat="58.36987167" lon="14.72970833"><ele>112.0</ele><time>2016-06-18T03:41:35.319Z</time></trkpt><trkpt lat="58.36987167" lon="14.72970833"><ele>112.0</ele><time>2016-06-18T03:41:36.318Z</time></trkpt><trkpt lat="58.36977167" lon="14.72957167"><ele>112.0</ele><time>2016-06-18T03:41:37.282Z</time></trkpt><trkpt lat="58.369725" lon="14.72950333"><ele>112.0</ele><time>2016-06-18T03:41:38.321Z</time></trkpt><trkpt lat="58.369725" lon="14.72950333"><ele>112.0</ele><time>2016-06-18T03:41:39.293Z</time></trkpt><trkpt lat="58.36963333" lon="14.72936667"><ele>112.0</ele><time>2016-06-18T03:41:40.321Z</time></trkpt><trkpt lat="58.36963333" lon="14.72936667"><ele>112.0</ele><time>2016-06-18T03:41:41.318Z</time></trkpt><trkpt lat="58.369545" lon="14.72923"><ele>113.0</ele><time>2016-06-18T03:41:42.318Z</time></trkpt><trkpt lat="58.369545" lon="14.72923"><ele>113.0</ele><time>2016-06-18T03:41:43.315Z</time></trkpt><trkpt lat="58.36945833" lon="14.729095"><ele>113.0</ele><time>2016-06-18T03:41:44.282Z</time></trkpt><trkpt lat="58.36945833" lon="14.729095"><ele>113.0</ele><time>2016-06-18T03:41:45.318Z</time></trkpt><trkpt lat="58.369365" lon="14.72896167"><ele>114.0</ele><time>2016-06-18T03:41:46.320Z</time></trkpt><trkpt lat="58.36932" lon="14.72889333"><ele>114.0</ele><time>2016-06-18T03:41:47.320Z</time></trkpt><trkpt lat="58.36932" lon="14.72889333"><ele>114.0</ele><time>2016-06-18T03:41:48.317Z</time></trkpt><trkpt lat="58.36923" lon="14.72875667"><ele>114.0</ele><time>2016-06-18T03:41:49.321Z</time></trkpt><trkpt lat="58.369185" lon="14.72868833"><ele>114.0</ele><time>2016-06-18T03:41:50.319Z</time></trkpt><trkpt lat="58.369185" lon="14.72868833"><ele>114.0</ele><time>2016-06-18T03:41:51.316Z</time></trkpt><trkpt lat="58.36908667" lon="14.72853667"><ele>115.0</ele><time>2016-06-18T03:41:52.320Z</time></trkpt><trkpt lat="58.36908667" lon="14.72853667"><ele>115.0</ele><time>2016-06-18T03:41:53.318Z</time></trkpt><trkpt lat="58.36898667" lon="14.72839667"><ele>114.0</ele><time>2016-06-18T03:41:54.320Z</time></trkpt><trkpt lat="58.36898667" lon="14.72839667"><ele>114.0</ele><time>2016-06-18T03:41:55.318Z</time></trkpt><trkpt lat="58.36888167" lon="14.72826"><ele>114.0</ele><time>2016-06-18T03:41:56.283Z</time></trkpt><trkpt lat="58.36888167" lon="14.72826"><ele>114.0</ele><time>2016-06-18T03:41:57.318Z</time></trkpt><trkpt lat="58.36877667" lon="14.728115"><ele>115.0</ele><time>2016-06-18T03:41:58.317Z</time></trkpt><trkpt lat="58.36877667" lon="14.728115"><ele>115.0</ele><time>2016-06-18T03:41:59.318Z</time></trkpt><trkpt lat="58.36867167" lon="14.72797"><ele>115.0</ele><time>2016-06-18T03:42:00.284Z</time></trkpt><trkpt lat="58.36867167" lon="14.72797"><ele>115.0</ele><time>2016-06-18T03:42:01.318Z</time></trkpt><trkpt lat="58.36856667" lon="14.72782667"><ele>115.0</ele><time>2016-06-18T03:42:02.318Z</time></trkpt><trkpt lat="58.368515" lon="14.72775667"><ele>115.0</ele><time>2016-06-18T03:42:03.296Z</time></trkpt><trkpt lat="58.368515" lon="14.72775667"><ele>115.0</ele><time>2016-06-18T03:42:04.282Z</time></trkpt><trkpt lat="58.36840833" lon="14.727615"><ele>115.0</ele><time>2016-06-18T03:42:05.318Z</time></trkpt><trkpt lat="58.36840833" lon="14.727615"><ele>115.0</ele><time>2016-06-18T03:42:06.315Z</time></trkpt><trkpt lat="58.36830333" lon="14.72747"><ele>115.0</ele><time>2016-06-18T03:42:07.309Z</time></trkpt><trkpt lat="58.36825167" lon="14.72739833"><ele>115.0</ele><time>2016-06-18T03:42:08.297Z</time></trkpt><trkpt lat="58.36825167" lon="14.72739833"><ele>115.0</ele><time>2016-06-18T03:42:09.283Z</time></trkpt><trkpt lat="58.368145" lon="14.72725333"><ele>115.0</ele><time>2016-06-18T03:42:10.320Z</time></trkpt><trkpt lat="58.368145" lon="14.72725333"><ele>115.0</ele><time>2016-06-18T03:42:11.320Z</time></trkpt><trkpt lat="58.36803667" lon="14.727105"><ele>116.0</ele><time>2016-06-18T03:42:12.293Z</time></trkpt><trkpt lat="58.36803667" lon="14.727105"><ele>116.0</ele><time>2016-06-18T03:42:13.291Z</time></trkpt><trkpt lat="58.36792667" lon="14.726955"><ele>116.0</ele><time>2016-06-18T03:42:14.283Z</time></trkpt><trkpt lat="58.36792667" lon="14.726955"><ele>116.0</ele><time>2016-06-18T03:42:15.317Z</time></trkpt><trkpt lat="58.36781333" lon="14.72680833"><ele>116.0</ele><time>2016-06-18T03:42:16.319Z</time></trkpt><trkpt lat="58.36781333" lon="14.72680833"><ele>116.0</ele><time>2016-06-18T03:42:17.318Z</time></trkpt><trkpt lat="58.3677" lon="14.72666"><ele>116.0</ele><time>2016-06-18T03:42:18.321Z</time></trkpt><trkpt lat="58.3677" lon="14.72666"><ele>116.0</ele><time>2016-06-18T03:42:19.313Z</time></trkpt><trkpt lat="58.36758667" lon="14.72650667"><ele>117.0</ele><time>2016-06-18T03:42:20.283Z</time></trkpt><trkpt lat="58.36758667" lon="14.72650667"><ele>117.0</ele><time>2016-06-18T03:42:21.319Z</time></trkpt><trkpt lat="58.36747167" lon="14.72635667"><ele>117.0</ele><time>2016-06-18T03:42:22.321Z</time></trkpt><trkpt lat="58.36747167" lon="14.72635667"><ele>117.0</ele><time>2016-06-18T03:42:23.318Z</time></trkpt><trkpt lat="58.367355" lon="14.72620333"><ele>117.0</ele><time>2016-06-18T03:42:24.321Z</time></trkpt><trkpt lat="58.367355" lon="14.72620333"><ele>117.0</ele><time>2016-06-18T03:42:25.316Z</time></trkpt><trkpt lat="58.36724167" lon="14.72605167"><ele>117.0</ele><time>2016-06-18T03:42:26.283Z</time></trkpt><trkpt lat="58.36724167" lon="14.72605167"><ele>117.0</ele><time>2016-06-18T03:42:27.318Z</time></trkpt><trkpt lat="58.36712667" lon="14.72590167"><ele>117.0</ele><time>2016-06-18T03:42:28.320Z</time></trkpt><trkpt lat="58.36707167" lon="14.725825"><ele>117.0</ele><time>2016-06-18T03:42:29.320Z</time></trkpt><trkpt lat="58.36707167" lon="14.725825"><ele>117.0</ele><time>2016-06-18T03:42:30.319Z</time></trkpt><trkpt lat="58.36696" lon="14.725665"><ele>117.0</ele><time>2016-06-18T03:42:31.320Z</time></trkpt><trkpt lat="58.36690167" lon="14.72558667"><ele>117.0</ele><time>2016-06-18T03:42:32.283Z</time></trkpt><trkpt lat="58.36690167" lon="14.72558667"><ele>117.0</ele><time>2016-06-18T03:42:33.313Z</time></trkpt><trkpt lat="58.36679" lon="14.72541667"><ele>117.0</ele><time>2016-06-18T03:42:34.320Z</time></trkpt><trkpt lat="58.36679" lon="14.72541667"><ele>117.0</ele><time>2016-06-18T03:42:35.318Z</time></trkpt><trkpt lat="58.36667167" lon="14.72524833"><ele>117.0</ele><time>2016-06-18T03:42:36.321Z</time></trkpt><trkpt lat="58.36667167" lon="14.72524833"><ele>117.0</ele><time>2016-06-18T03:42:37.316Z</time></trkpt><trkpt lat="58.36655833" lon="14.725085"><ele>117.0</ele><time>2016-06-18T03:42:38.318Z</time></trkpt><trkpt lat="58.36655833" lon="14.725085"><ele>117.0</ele><time>2016-06-18T03:42:39.299Z</time></trkpt><trkpt lat="58.36644" lon="14.72491667"><ele>117.0</ele><time>2016-06-18T03:42:40.288Z</time></trkpt><trkpt lat="58.36637833" lon="14.72482833"><ele>117.0</ele><time>2016-06-18T03:42:41.321Z</time></trkpt><trkpt lat="58.36631333" lon="14.724745"><ele>117.0</ele><time>2016-06-18T03:42:42.318Z</time></trkpt><trkpt lat="58.36631333" lon="14.724745"><ele>117.0</ele><time>2016-06-18T03:42:43.296Z</time></trkpt><trkpt lat="58.36619" lon="14.72456833"><ele>117.0</ele><time>2016-06-18T03:42:44.284Z</time></trkpt><trkpt lat="58.36619" lon="14.72456833"><ele>117.0</ele><time>2016-06-18T03:42:45.319Z</time></trkpt><trkpt lat="58.36607167" lon="14.72438667"><ele>117.0</ele><time>2016-06-18T03:42:46.320Z</time></trkpt><trkpt lat="58.36601" lon="14.72429667"><ele>117.0</ele><time>2016-06-18T03:42:47.318Z</time></trkpt><trkpt lat="58.36601" lon="14.72429667"><ele>117.0</ele><time>2016-06-18T03:42:48.319Z</time></trkpt><trkpt lat="58.36589" lon="14.72412667"><ele>117.0</ele><time>2016-06-18T03:42:49.318Z</time></trkpt><trkpt lat="58.36583" lon="14.72404167"><ele>117.0</ele><time>2016-06-18T03:42:50.282Z</time></trkpt><trkpt lat="58.36576833" lon="14.723955"><ele>117.0</ele><time>2016-06-18T03:42:51.283Z</time></trkpt><trkpt lat="58.36576833" lon="14.723955"><ele>117.0</ele><time>2016-06-18T03:42:52.319Z</time></trkpt><trkpt lat="58.36564333" lon="14.72378"><ele>117.0</ele><time>2016-06-18T03:42:53.285Z</time></trkpt><trkpt lat="58.36564333" lon="14.72378"><ele>117.0</ele><time>2016-06-18T03:42:54.319Z</time></trkpt><trkpt lat="58.365515" lon="14.72360667"><ele>117.0</ele><time>2016-06-18T03:42:55.321Z</time></trkpt><trkpt lat="58.36544833" lon="14.72352167"><ele>116.0</ele><time>2016-06-18T03:42:56.283Z</time></trkpt><trkpt lat="58.36544833" lon="14.72352167"><ele>116.0</ele><time>2016-06-18T03:42:57.318Z</time></trkpt><trkpt lat="58.36531667" lon="14.72334167"><ele>116.0</ele><time>2016-06-18T03:42:58.320Z</time></trkpt><trkpt lat="58.36525" lon="14.72325333"><ele>116.0</ele><time>2016-06-18T03:42:59.321Z</time></trkpt><trkpt lat="58.36518167" lon="14.72316667"><ele>116.0</ele><time>2016-06-18T03:43:00.294Z</time></trkpt><trkpt lat="58.36518167" lon="14.72316667"><ele>116.0</ele><time>2016-06-18T03:43:01.320Z</time></trkpt><trkpt lat="58.36504833" lon="14.72299"><ele>116.0</ele><time>2016-06-18T03:43:02.283Z</time></trkpt><trkpt lat="58.36504833" lon="14.72299"><ele>116.0</ele><time>2016-06-18T03:43:03.285Z</time></trkpt><trkpt lat="58.36491333" lon="14.722815"><ele>116.0</ele><time>2016-06-18T03:43:04.320Z</time></trkpt><trkpt lat="58.36484667" lon="14.72272667"><ele>116.0</ele><time>2016-06-18T03:43:05.318Z</time></trkpt><trkpt lat="58.36484667" lon="14.72272667"><ele>116.0</ele><time>2016-06-18T03:43:06.316Z</time></trkpt><trkpt lat="58.364715" lon="14.722555"><ele>117.0</ele><time>2016-06-18T03:43:07.318Z</time></trkpt><trkpt lat="58.36465" lon="14.72246667"><ele>117.0</ele><time>2016-06-18T03:43:08.283Z</time></trkpt><trkpt lat="58.36465" lon="14.72246667"><ele>117.0</ele><time>2016-06-18T03:43:09.316Z</time></trkpt><trkpt lat="58.36452167" lon="14.72228167"><ele>117.0</ele><time>2016-06-18T03:43:10.282Z</time></trkpt><trkpt lat="58.36452167" lon="14.72228167"><ele>117.0</ele><time>2016-06-18T03:43:11.319Z</time></trkpt><trkpt lat="58.364385" lon="14.722115"><ele>117.0</ele><time>2016-06-18T03:43:12.321Z</time></trkpt><trkpt lat="58.36431167" lon="14.72204"><ele>117.0</ele><time>2016-06-18T03:43:13.288Z</time></trkpt><trkpt lat="58.36424" lon="14.72196667"><ele>117.0</ele><time>2016-06-18T03:43:14.285Z</time></trkpt><trkpt lat="58.36424" lon="14.72196667"><ele>117.0</ele><time>2016-06-18T03:43:15.317Z</time></trkpt><trkpt lat="58.364095" lon="14.72181833"><ele>117.0</ele><time>2016-06-18T03:43:16.283Z</time></trkpt><trkpt lat="58.364095" lon="14.72181833"><ele>117.0</ele><time>2016-06-18T03:43:17.316Z</time></trkpt><trkpt lat="58.36395167" lon="14.72166667"><ele>117.0</ele><time>2016-06-18T03:43:18.319Z</time></trkpt><trkpt lat="58.36395167" lon="14.72166667"><ele>117.0</ele><time>2016-06-18T03:43:19.317Z</time></trkpt><trkpt lat="58.36380833" lon="14.72151333"><ele>117.0</ele><time>2016-06-18T03:43:20.283Z</time></trkpt><trkpt lat="58.36380833" lon="14.72151333"><ele>117.0</ele><time>2016-06-18T03:43:21.320Z</time></trkpt><trkpt lat="58.36367167" lon="14.721355"><ele>117.0</ele><time>2016-06-18T03:43:22.282Z</time></trkpt><trkpt lat="58.36367167" lon="14.721355"><ele>117.0</ele><time>2016-06-18T03:43:23.295Z</time></trkpt><trkpt lat="58.36353333" lon="14.72120167"><ele>117.0</ele><time>2016-06-18T03:43:24.285Z</time></trkpt><trkpt lat="58.36353333" lon="14.72120167"><ele>117.0</ele><time>2016-06-18T03:43:25.282Z</time></trkpt><trkpt lat="58.36339833" lon="14.72104667"><ele>117.0</ele><time>2016-06-18T03:43:26.283Z</time></trkpt><trkpt lat="58.36339833" lon="14.72104667"><ele>117.0</ele><time>2016-06-18T03:43:27.317Z</time></trkpt><trkpt lat="58.363265" lon="14.72089"><ele>117.0</ele><time>2016-06-18T03:43:28.282Z</time></trkpt><trkpt lat="58.363265" lon="14.72089"><ele>117.0</ele><time>2016-06-18T03:43:29.316Z</time></trkpt><trkpt lat="58.36313" lon="14.72073167"><ele>117.0</ele><time>2016-06-18T03:43:30.319Z</time></trkpt><trkpt lat="58.36313" lon="14.72073167"><ele>117.0</ele><time>2016-06-18T03:43:31.317Z</time></trkpt><trkpt lat="58.36299667" lon="14.72057667"><ele>117.0</ele><time>2016-06-18T03:43:32.304Z</time></trkpt><trkpt lat="58.36299667" lon="14.72057667"><ele>117.0</ele><time>2016-06-18T03:43:33.318Z</time></trkpt><trkpt lat="58.36286167" lon="14.72042"><ele>117.0</ele><time>2016-06-18T03:43:34.284Z</time></trkpt><trkpt lat="58.36286167" lon="14.72042"><ele>117.0</ele><time>2016-06-18T03:43:35.316Z</time></trkpt><trkpt lat="58.36272833" lon="14.720265"><ele>118.0</ele><time>2016-06-18T03:43:36.283Z</time></trkpt><trkpt lat="58.36272833" lon="14.720265"><ele>118.0</ele><time>2016-06-18T03:43:37.316Z</time></trkpt><trkpt lat="58.36259833" lon="14.72011167"><ele>118.0</ele><time>2016-06-18T03:43:38.308Z</time></trkpt><trkpt lat="58.36259833" lon="14.72011167"><ele>118.0</ele><time>2016-06-18T03:43:39.321Z</time></trkpt><trkpt lat="58.36246833" lon="14.71996667"><ele>118.0</ele><time>2016-06-18T03:43:40.288Z</time></trkpt><trkpt lat="58.36240333" lon="14.71988833"><ele>118.0</ele><time>2016-06-18T03:43:41.295Z</time></trkpt><trkpt lat="58.36240333" lon="14.71988833"><ele>118.0</ele><time>2016-06-18T03:43:42.303Z</time></trkpt><trkpt lat="58.36227667" lon="14.71973833"><ele>119.0</ele><time>2016-06-18T03:43:43.311Z</time></trkpt><trkpt lat="58.36221167" lon="14.71967"><ele>118.0</ele><time>2016-06-18T03:43:44.305Z</time></trkpt><trkpt lat="58.36221167" lon="14.71967"><ele>118.0</ele><time>2016-06-18T03:43:45.318Z</time></trkpt><trkpt lat="58.362085" lon="14.719535"><ele>118.0</ele><time>2016-06-18T03:43:46.284Z</time></trkpt><trkpt lat="58.362085" lon="14.719535"><ele>118.0</ele><time>2016-06-18T03:43:47.290Z</time></trkpt><trkpt lat="58.36196" lon="14.71939167"><ele>119.0</ele><time>2016-06-18T03:43:48.296Z</time></trkpt><trkpt lat="58.361895" lon="14.71932"><ele>119.0</ele><time>2016-06-18T03:43:49.283Z</time></trkpt><trkpt lat="58.36183" lon="14.71924833"><ele>119.0</ele><time>2016-06-18T03:43:50.283Z</time></trkpt><trkpt lat="58.36183" lon="14.71924833"><ele>119.0</ele><time>2016-06-18T03:43:51.284Z</time></trkpt><trkpt lat="58.36169333" lon="14.71910833"><ele>118.0</ele><time>2016-06-18T03:43:52.282Z</time></trkpt><trkpt lat="58.36169333" lon="14.71910833"><ele>118.0</ele><time>2016-06-18T03:43:53.317Z</time></trkpt><trkpt lat="58.36156333" lon="14.718975"><ele>118.0</ele><time>2016-06-18T03:43:54.282Z</time></trkpt><trkpt lat="58.36150167" lon="14.71890333"><ele>118.0</ele><time>2016-06-18T03:43:55.283Z</time></trkpt><trkpt lat="58.36143833" lon="14.71883333"><ele>118.0</ele><time>2016-06-18T03:43:56.289Z</time></trkpt><trkpt lat="58.36143833" lon="14.71883333"><ele>118.0</ele><time>2016-06-18T03:43:57.317Z</time></trkpt><trkpt lat="58.36130667" lon="14.718695"><ele>118.0</ele><time>2016-06-18T03:43:58.282Z</time></trkpt><trkpt lat="58.36130667" lon="14.718695"><ele>118.0</ele><time>2016-06-18T03:43:59.320Z</time></trkpt><trkpt lat="58.36116667" lon="14.71856167"><ele>118.0</ele><time>2016-06-18T03:44:00.298Z</time></trkpt><trkpt lat="58.36116667" lon="14.71856167"><ele>118.0</ele><time>2016-06-18T03:44:01.285Z</time></trkpt><trkpt lat="58.36102667" lon="14.71843667"><ele>118.0</ele><time>2016-06-18T03:44:02.285Z</time></trkpt><trkpt lat="58.360955" lon="14.71837"><ele>118.0</ele><time>2016-06-18T03:44:03.286Z</time></trkpt><trkpt lat="58.360955" lon="14.71837"><ele>118.0</ele><time>2016-06-18T03:44:04.309Z</time></trkpt><trkpt lat="58.36080833" lon="14.718245"><ele>118.0</ele><time>2016-06-18T03:44:05.283Z</time></trkpt><trkpt lat="58.36080833" lon="14.718245"><ele>118.0</ele><time>2016-06-18T03:44:06.318Z</time></trkpt><trkpt lat="58.360655" lon="14.71812667"><ele>118.0</ele><time>2016-06-18T03:44:07.284Z</time></trkpt><trkpt lat="58.36058167" lon="14.71807"><ele>118.0</ele><time>2016-06-18T03:44:08.286Z</time></trkpt><trkpt lat="58.36058167" lon="14.71807"><ele>118.0</ele><time>2016-06-18T03:44:09.317Z</time></trkpt><trkpt lat="58.36042833" lon="14.71793833"><ele>117.0</ele><time>2016-06-18T03:44:10.283Z</time></trkpt><trkpt lat="58.36042833" lon="14.71793833"><ele>117.0</ele><time>2016-06-18T03:44:11.286Z</time></trkpt><trkpt lat="58.36027" lon="14.71779"><ele>117.0</ele><time>2016-06-18T03:44:12.295Z</time></trkpt><trkpt lat="58.36027" lon="14.71779"><ele>117.0</ele><time>2016-06-18T03:44:13.290Z</time></trkpt><trkpt lat="58.36010833" lon="14.71762667"><ele>117.0</ele><time>2016-06-18T03:44:14.286Z</time></trkpt><trkpt lat="58.36010833" lon="14.71762667"><ele>117.0</ele><time>2016-06-18T03:44:15.317Z</time></trkpt><trkpt lat="58.35994833" lon="14.717455"><ele>117.0</ele><time>2016-06-18T03:44:16.282Z</time></trkpt><trkpt lat="58.35994833" lon="14.717455"><ele>117.0</ele><time>2016-06-18T03:44:17.317Z</time></trkpt><trkpt lat="58.35979167" lon="14.717265"><ele>116.0</ele><time>2016-06-18T03:44:18.283Z</time></trkpt><trkpt lat="58.35971333" lon="14.71716"><ele>116.0</ele><time>2016-06-18T03:44:19.283Z</time></trkpt><trkpt lat="58.35963" lon="14.71706"><ele>115.0</ele><time>2016-06-18T03:44:20.285Z</time></trkpt><trkpt lat="58.35963" lon="14.71706"><ele>115.0</ele><time>2016-06-18T03:44:21.319Z</time></trkpt><trkpt lat="58.35946667" lon="14.71686"><ele>115.0</ele><time>2016-06-18T03:44:22.283Z</time></trkpt><trkpt lat="58.35946667" lon="14.71686"><ele>115.0</ele><time>2016-06-18T03:44:23.293Z</time></trkpt><trkpt lat="58.359305" lon="14.71666"><ele>115.0</ele><time>2016-06-18T03:44:24.283Z</time></trkpt><trkpt lat="58.35922667" lon="14.71656"><ele>115.0</ele><time>2016-06-18T03:44:25.283Z</time></trkpt><trkpt lat="58.35914833" lon="14.71646333"><ele>115.0</ele><time>2016-06-18T03:44:26.285Z</time></trkpt><trkpt lat="58.35914833" lon="14.71646333"><ele>115.0</ele><time>2016-06-18T03:44:27.317Z</time></trkpt><trkpt lat="58.358985" lon="14.716265"><ele>115.0</ele><time>2016-06-18T03:44:28.283Z</time></trkpt><trkpt lat="58.358985" lon="14.716265"><ele>115.0</ele><time>2016-06-18T03:44:29.320Z</time></trkpt><trkpt lat="58.35881167" lon="14.716055"><ele>114.0</ele><time>2016-06-18T03:44:30.283Z</time></trkpt><trkpt lat="58.35881167" lon="14.716055"><ele>114.0</ele><time>2016-06-18T03:44:31.317Z</time></trkpt><trkpt lat="58.35864" lon="14.71585"><ele>113.0</ele><time>2016-06-18T03:44:32.304Z</time></trkpt><trkpt lat="58.35864" lon="14.71585"><ele>113.0</ele><time>2016-06-18T03:44:33.297Z</time></trkpt><trkpt lat="58.35846833" lon="14.71564"><ele>113.0</ele><time>2016-06-18T03:44:34.285Z</time></trkpt><trkpt lat="58.35838333" lon="14.71553167"><ele>113.0</ele><time>2016-06-18T03:44:35.283Z</time></trkpt><trkpt lat="58.35838333" lon="14.71553167"><ele>113.0</ele><time>2016-06-18T03:44:36.317Z</time></trkpt><trkpt lat="58.358215" lon="14.71532"><ele>112.0</ele><time>2016-06-18T03:44:37.283Z</time></trkpt><trkpt lat="58.35813" lon="14.71521833"><ele>112.0</ele><time>2016-06-18T03:44:38.316Z</time></trkpt><trkpt lat="58.35813" lon="14.71521833"><ele>112.0</ele><time>2016-06-18T03:44:39.317Z</time></trkpt><trkpt lat="58.357965" lon="14.715015"><ele>111.0</ele><time>2016-06-18T03:44:40.283Z</time></trkpt><trkpt lat="58.357965" lon="14.715015"><ele>111.0</ele><time>2016-06-18T03:44:41.318Z</time></trkpt><trkpt lat="58.35780167" lon="14.71481667"><ele>111.0</ele><time>2016-06-18T03:44:42.283Z</time></trkpt><trkpt lat="58.35780167" lon="14.71481667"><ele>111.0</ele><time>2016-06-18T03:44:43.318Z</time></trkpt><trkpt lat="58.35763833" lon="14.714625"><ele>111.0</ele><time>2016-06-18T03:44:44.286Z</time></trkpt><trkpt lat="58.35763833" lon="14.714625"><ele>111.0</ele><time>2016-06-18T03:44:45.319Z</time></trkpt><trkpt lat="58.35747833" lon="14.71443167"><ele>111.0</ele><time>2016-06-18T03:44:46.283Z</time></trkpt><trkpt lat="58.35739833" lon="14.714335"><ele>111.0</ele><time>2016-06-18T03:44:47.284Z</time></trkpt><trkpt lat="58.35739833" lon="14.714335"><ele>111.0</ele><time>2016-06-18T03:44:48.318Z</time></trkpt><trkpt lat="58.35724" lon="14.71414833"><ele>111.0</ele><time>2016-06-18T03:44:49.283Z</time></trkpt><trkpt lat="58.35716167" lon="14.71405167"><ele>111.0</ele><time>2016-06-18T03:44:50.283Z</time></trkpt><trkpt lat="58.35716167" lon="14.71405167"><ele>111.0</ele><time>2016-06-18T03:44:51.318Z</time></trkpt><trkpt lat="58.35700667" lon="14.71386333"><ele>111.0</ele><time>2016-06-18T03:44:52.282Z</time></trkpt><trkpt lat="58.35700667" lon="14.71386333"><ele>111.0</ele><time>2016-06-18T03:44:53.318Z</time></trkpt><trkpt lat="58.35684833" lon="14.71367833"><ele>110.0</ele><time>2016-06-18T03:44:54.293Z</time></trkpt><trkpt lat="58.35684833" lon="14.71367833"><ele>110.0</ele><time>2016-06-18T03:44:55.320Z</time></trkpt><trkpt lat="58.35669333" lon="14.71349667"><ele>110.0</ele><time>2016-06-18T03:44:56.286Z</time></trkpt><trkpt lat="58.35669333" lon="14.71349667"><ele>110.0</ele><time>2016-06-18T03:44:57.317Z</time></trkpt><trkpt lat="58.35653833" lon="14.71331167"><ele>110.0</ele><time>2016-06-18T03:44:58.283Z</time></trkpt><trkpt lat="58.35646333" lon="14.71321833"><ele>110.0</ele><time>2016-06-18T03:44:59.283Z</time></trkpt><trkpt lat="58.35646333" lon="14.71321833"><ele>110.0</ele><time>2016-06-18T03:45:00.282Z</time></trkpt><trkpt lat="58.356315" lon="14.713035"><ele>110.0</ele><time>2016-06-18T03:45:01.283Z</time></trkpt><trkpt lat="58.35624167" lon="14.71294167"><ele>110.0</ele><time>2016-06-18T03:45:02.284Z</time></trkpt><trkpt lat="58.35624167" lon="14.71294167"><ele>110.0</ele><time>2016-06-18T03:45:03.317Z</time></trkpt><trkpt lat="58.35609333" lon="14.71275333"><ele>110.0</ele><time>2016-06-18T03:45:04.283Z</time></trkpt><trkpt lat="58.35609333" lon="14.71275333"><ele>110.0</ele><time>2016-06-18T03:45:05.318Z</time></trkpt><trkpt lat="58.35594833" lon="14.71256333"><ele>110.0</ele><time>2016-06-18T03:45:06.289Z</time></trkpt><trkpt lat="58.355875" lon="14.71247"><ele>110.0</ele><time>2016-06-18T03:45:07.283Z</time></trkpt><trkpt lat="58.35580167" lon="14.71237833"><ele>110.0</ele><time>2016-06-18T03:45:08.286Z</time></trkpt><trkpt lat="58.35580167" lon="14.71237833"><ele>110.0</ele><time>2016-06-18T03:45:09.319Z</time></trkpt><trkpt lat="58.35565667" lon="14.71219667"><ele>110.0</ele><time>2016-06-18T03:45:10.284Z</time></trkpt><trkpt lat="58.35565667" lon="14.71219667"><ele>110.0</ele><time>2016-06-18T03:45:11.285Z</time></trkpt><trkpt lat="58.35551" lon="14.71201667"><ele>110.0</ele><time>2016-06-18T03:45:12.286Z</time></trkpt><trkpt lat="58.35551" lon="14.71201667"><ele>110.0</ele><time>2016-06-18T03:45:13.319Z</time></trkpt><trkpt lat="58.35536833" lon="14.711835"><ele>110.0</ele><time>2016-06-18T03:45:14.305Z</time></trkpt><trkpt lat="58.35536833" lon="14.711835"><ele>110.0</ele><time>2016-06-18T03:45:15.284Z</time></trkpt><trkpt lat="58.35522333" lon="14.711655"><ele>110.0</ele><time>2016-06-18T03:45:16.284Z</time></trkpt><trkpt lat="58.35522333" lon="14.711655"><ele>110.0</ele><time>2016-06-18T03:45:17.315Z</time></trkpt><trkpt lat="58.35507833" lon="14.71147167"><ele>110.0</ele><time>2016-06-18T03:45:18.283Z</time></trkpt><trkpt lat="58.35507833" lon="14.71147167"><ele>110.0</ele><time>2016-06-18T03:45:19.321Z</time></trkpt><trkpt lat="58.35493167" lon="14.71128667"><ele>110.0</ele><time>2016-06-18T03:45:20.286Z</time></trkpt><trkpt lat="58.35493167" lon="14.71128667"><ele>110.0</ele><time>2016-06-18T03:45:21.319Z</time></trkpt><trkpt lat="58.354785" lon="14.71110167"><ele>109.0</ele><time>2016-06-18T03:45:22.283Z</time></trkpt><trkpt lat="58.354785" lon="14.71110167"><ele>109.0</ele><time>2016-06-18T03:45:23.318Z</time></trkpt><trkpt lat="58.354635" lon="14.71091333"><ele>109.0</ele><time>2016-06-18T03:45:24.284Z</time></trkpt><trkpt lat="58.35456" lon="14.71081833"><ele>108.0</ele><time>2016-06-18T03:45:25.283Z</time></trkpt><trkpt lat="58.354485" lon="14.710725"><ele>108.0</ele><time>2016-06-18T03:45:26.286Z</time></trkpt><trkpt lat="58.354485" lon="14.710725"><ele>108.0</ele><time>2016-06-18T03:45:27.319Z</time></trkpt><trkpt lat="58.35433833" lon="14.71053667"><ele>108.0</ele><time>2016-06-18T03:45:28.284Z</time></trkpt><trkpt lat="58.35433833" lon="14.71053667"><ele>108.0</ele><time>2016-06-18T03:45:29.316Z</time></trkpt><trkpt lat="58.35419" lon="14.710345"><ele>108.0</ele><time>2016-06-18T03:45:30.321Z</time></trkpt><trkpt lat="58.35419" lon="14.710345"><ele>108.0</ele><time>2016-06-18T03:45:31.318Z</time></trkpt><trkpt lat="58.35404" lon="14.710155"><ele>107.0</ele><time>2016-06-18T03:45:32.285Z</time></trkpt><trkpt lat="58.35396667" lon="14.71006333"><ele>107.0</ele><time>2016-06-18T03:45:33.303Z</time></trkpt><trkpt lat="58.35396667" lon="14.71006333"><ele>107.0</ele><time>2016-06-18T03:45:34.296Z</time></trkpt><trkpt lat="58.35381667" lon="14.70988167"><ele>107.0</ele><time>2016-06-18T03:45:35.288Z</time></trkpt><trkpt lat="58.35381667" lon="14.70988167"><ele>107.0</ele><time>2016-06-18T03:45:36.294Z</time></trkpt><trkpt lat="58.353665" lon="14.70969"><ele>107.0</ele><time>2016-06-18T03:45:37.286Z</time></trkpt><trkpt lat="58.353665" lon="14.70969"><ele>107.0</ele><time>2016-06-18T03:45:38.292Z</time></trkpt><trkpt lat="58.35350833" lon="14.70949333"><ele>106.0</ele><time>2016-06-18T03:45:39.284Z</time></trkpt><trkpt lat="58.35342667" lon="14.709395"><ele>106.0</ele><time>2016-06-18T03:45:40.284Z</time></trkpt><trkpt lat="58.35342667" lon="14.709395"><ele>106.0</ele><time>2016-06-18T03:45:41.316Z</time></trkpt><trkpt lat="58.353265" lon="14.70919167"><ele>105.0</ele><time>2016-06-18T03:45:42.282Z</time></trkpt><trkpt lat="58.353265" lon="14.70919167"><ele>105.0</ele><time>2016-06-18T03:45:43.319Z</time></trkpt><trkpt lat="58.35309833" lon="14.708985"><ele>105.0</ele><time>2016-06-18T03:45:44.286Z</time></trkpt><trkpt lat="58.35309833" lon="14.708985"><ele>105.0</ele><time>2016-06-18T03:45:45.318Z</time></trkpt><trkpt lat="58.35293" lon="14.70877333"><ele>105.0</ele><time>2016-06-18T03:45:46.284Z</time></trkpt><trkpt lat="58.35293" lon="14.70877333"><ele>105.0</ele><time>2016-06-18T03:45:47.316Z</time></trkpt><trkpt lat="58.35276667" lon="14.70856667"><ele>104.0</ele><time>2016-06-18T03:45:48.283Z</time></trkpt><trkpt lat="58.35276667" lon="14.70856667"><ele>104.0</ele><time>2016-06-18T03:45:49.284Z</time></trkpt><trkpt lat="58.35260167" lon="14.70836333"><ele>104.0</ele><time>2016-06-18T03:45:50.286Z</time></trkpt><trkpt lat="58.35260167" lon="14.70836333"><ele>104.0</ele><time>2016-06-18T03:45:51.318Z</time></trkpt><trkpt lat="58.35244" lon="14.70816"><ele>104.0</ele><time>2016-06-18T03:45:52.283Z</time></trkpt><trkpt lat="58.35244" lon="14.70816"><ele>104.0</ele><time>2016-06-18T03:45:53.319Z</time></trkpt><trkpt lat="58.352285" lon="14.70795833"><ele>104.0</ele><time>2016-06-18T03:45:54.283Z</time></trkpt><trkpt lat="58.352285" lon="14.70795833"><ele>104.0</ele><time>2016-06-18T03:45:55.319Z</time></trkpt><trkpt lat="58.35212833" lon="14.70776"><ele>104.0</ele><time>2016-06-18T03:45:56.283Z</time></trkpt><trkpt lat="58.35212833" lon="14.70776"><ele>104.0</ele><time>2016-06-18T03:45:57.319Z</time></trkpt><trkpt lat="58.351975" lon="14.70756167"><ele>104.0</ele><time>2016-06-18T03:45:58.283Z</time></trkpt><trkpt lat="58.351975" lon="14.70756167"><ele>104.0</ele><time>2016-06-18T03:45:59.316Z</time></trkpt><trkpt lat="58.35182333" lon="14.70736333"><ele>104.0</ele><time>2016-06-18T03:46:00.308Z</time></trkpt><trkpt lat="58.35182333" lon="14.70736333"><ele>104.0</ele><time>2016-06-18T03:46:01.294Z</time></trkpt><trkpt lat="58.351675" lon="14.707165"><ele>104.0</ele><time>2016-06-18T03:46:02.287Z</time></trkpt><trkpt lat="58.351675" lon="14.707165"><ele>104.0</ele><time>2016-06-18T03:46:03.316Z</time></trkpt><trkpt lat="58.35153" lon="14.70697"><ele>104.0</ele><time>2016-06-18T03:46:04.282Z</time></trkpt><trkpt lat="58.35153" lon="14.70697"><ele>104.0</ele><time>2016-06-18T03:46:05.319Z</time></trkpt><trkpt lat="58.35138667" lon="14.70677167"><ele>104.0</ele><time>2016-06-18T03:46:06.285Z</time></trkpt><trkpt lat="58.35138667" lon="14.70677167"><ele>104.0</ele><time>2016-06-18T03:46:07.316Z</time></trkpt><trkpt lat="58.35124667" lon="14.706575"><ele>104.0</ele><time>2016-06-18T03:46:08.305Z</time></trkpt><trkpt lat="58.35124667" lon="14.706575"><ele>104.0</ele><time>2016-06-18T03:46:09.294Z</time></trkpt><trkpt lat="58.35110667" lon="14.70637667"><ele>104.0</ele><time>2016-06-18T03:46:10.284Z</time></trkpt><trkpt lat="58.35110667" lon="14.70637667"><ele>104.0</ele><time>2016-06-18T03:46:11.282Z</time></trkpt><trkpt lat="58.35096667" lon="14.70617833"><ele>104.0</ele><time>2016-06-18T03:46:12.292Z</time></trkpt><trkpt lat="58.35096667" lon="14.70617833"><ele>104.0</ele><time>2016-06-18T03:46:13.290Z</time></trkpt><trkpt lat="58.35082667" lon="14.70599167"><ele>104.0</ele><time>2016-06-18T03:46:14.289Z</time></trkpt><trkpt lat="58.35082667" lon="14.70599167"><ele>104.0</ele><time>2016-06-18T03:46:15.286Z</time></trkpt><trkpt lat="58.35068833" lon="14.705805"><ele>104.0</ele><time>2016-06-18T03:46:16.285Z</time></trkpt><trkpt lat="58.35068833" lon="14.705805"><ele>104.0</ele><time>2016-06-18T03:46:17.282Z</time></trkpt><trkpt lat="58.35055333" lon="14.70561167"><ele>104.0</ele><time>2016-06-18T03:46:18.290Z</time></trkpt><trkpt lat="58.35055333" lon="14.70561167"><ele>104.0</ele><time>2016-06-18T03:46:19.282Z</time></trkpt><trkpt lat="58.350415" lon="14.70542167"><ele>104.0</ele><time>2016-06-18T03:46:20.287Z</time></trkpt><trkpt lat="58.350415" lon="14.70542167"><ele>104.0</ele><time>2016-06-18T03:46:21.321Z</time></trkpt><trkpt lat="58.35027833" lon="14.70523333"><ele>104.0</ele><time>2016-06-18T03:46:22.285Z</time></trkpt><trkpt lat="58.35027833" lon="14.70523333"><ele>104.0</ele><time>2016-06-18T03:46:23.322Z</time></trkpt><trkpt lat="58.35013833" lon="14.70504167"><ele>104.0</ele><time>2016-06-18T03:46:24.285Z</time></trkpt><trkpt lat="58.35013833" lon="14.70504167"><ele>104.0</ele><time>2016-06-18T03:46:25.319Z</time></trkpt><trkpt lat="58.34999667" lon="14.70485333"><ele>104.0</ele><time>2016-06-18T03:46:26.283Z</time></trkpt><trkpt lat="58.34999667" lon="14.70485333"><ele>104.0</ele><time>2016-06-18T03:46:27.319Z</time></trkpt><trkpt lat="58.34985667" lon="14.70466"><ele>104.0</ele><time>2016-06-18T03:46:28.283Z</time></trkpt><trkpt lat="58.34985667" lon="14.70466"><ele>104.0</ele><time>2016-06-18T03:46:29.321Z</time></trkpt><trkpt lat="58.349715" lon="14.70446667"><ele>105.0</ele><time>2016-06-18T03:46:30.284Z</time></trkpt><trkpt lat="58.349715" lon="14.70446667"><ele>105.0</ele><time>2016-06-18T03:46:31.316Z</time></trkpt><trkpt lat="58.349575" lon="14.70428167"><ele>105.0</ele><time>2016-06-18T03:46:32.301Z</time></trkpt><trkpt lat="58.349575" lon="14.70428167"><ele>105.0</ele><time>2016-06-18T03:46:33.290Z</time></trkpt><trkpt lat="58.34944" lon="14.70409667"><ele>105.0</ele><time>2016-06-18T03:46:34.284Z</time></trkpt><trkpt lat="58.34944" lon="14.70409667"><ele>105.0</ele><time>2016-06-18T03:46:35.291Z</time></trkpt><trkpt lat="58.349315" lon="14.70392167"><ele>105.0</ele><time>2016-06-18T03:46:36.284Z</time></trkpt><trkpt lat="58.349315" lon="14.70392167"><ele>105.0</ele><time>2016-06-18T03:46:37.282Z</time></trkpt><trkpt lat="58.34919833" lon="14.70376167"><ele>105.0</ele><time>2016-06-18T03:46:38.295Z</time></trkpt><trkpt lat="58.34919833" lon="14.70376167"><ele>105.0</ele><time>2016-06-18T03:46:39.283Z</time></trkpt><trkpt lat="58.34908667" lon="14.703605"><ele>105.0</ele><time>2016-06-18T03:46:40.284Z</time></trkpt><trkpt lat="58.34908667" lon="14.703605"><ele>105.0</ele><time>2016-06-18T03:46:41.320Z</time></trkpt><trkpt lat="58.34897833" lon="14.70345167"><ele>105.0</ele><time>2016-06-18T03:46:42.285Z</time></trkpt><trkpt lat="58.34897833" lon="14.70345167"><ele>105.0</ele><time>2016-06-18T03:46:43.287Z</time></trkpt><trkpt lat="58.34886833" lon="14.703295"><ele>105.0</ele><time>2016-06-18T03:46:44.286Z</time></trkpt><trkpt lat="58.34886833" lon="14.703295"><ele>105.0</ele><time>2016-06-18T03:46:45.321Z</time></trkpt><trkpt lat="58.34875667" lon="14.70313833"><ele>105.0</ele><time>2016-06-18T03:46:46.285Z</time></trkpt><trkpt lat="58.34875667" lon="14.70313833"><ele>105.0</ele><time>2016-06-18T03:46:47.316Z</time></trkpt><trkpt lat="58.348645" lon="14.70297833"><ele>105.0</ele><time>2016-06-18T03:46:48.284Z</time></trkpt><trkpt lat="58.348645" lon="14.70297833"><ele>105.0</ele><time>2016-06-18T03:46:49.316Z</time></trkpt><trkpt lat="58.34853167" lon="14.70282"><ele>106.0</ele><time>2016-06-18T03:46:50.287Z</time></trkpt><trkpt lat="58.34853167" lon="14.70282"><ele>106.0</ele><time>2016-06-18T03:46:51.316Z</time></trkpt><trkpt lat="58.34841833" lon="14.70266167"><ele>106.0</ele><time>2016-06-18T03:46:52.284Z</time></trkpt><trkpt lat="58.34841833" lon="14.70266167"><ele>106.0</ele><time>2016-06-18T03:46:53.319Z</time></trkpt><trkpt lat="58.348305" lon="14.70250167"><ele>106.0</ele><time>2016-06-18T03:46:54.284Z</time></trkpt><trkpt lat="58.348305" lon="14.70250167"><ele>106.0</ele><time>2016-06-18T03:46:55.288Z</time></trkpt><trkpt lat="58.34819333" lon="14.702345"><ele>106.0</ele><time>2016-06-18T03:46:56.285Z</time></trkpt><trkpt lat="58.34819333" lon="14.702345"><ele>106.0</ele><time>2016-06-18T03:46:57.283Z</time></trkpt><trkpt lat="58.348085" lon="14.70218833"><ele>107.0</ele><time>2016-06-18T03:46:58.284Z</time></trkpt><trkpt lat="58.348085" lon="14.70218833"><ele>107.0</ele><time>2016-06-18T03:46:59.322Z</time></trkpt><trkpt lat="58.34797833" lon="14.702035"><ele>107.0</ele><time>2016-06-18T03:47:00.294Z</time></trkpt><trkpt lat="58.34797833" lon="14.702035"><ele>107.0</ele><time>2016-06-18T03:47:01.288Z</time></trkpt><trkpt lat="58.34787333" lon="14.70188333"><ele>107.0</ele><time>2016-06-18T03:47:02.287Z</time></trkpt><trkpt lat="58.34787333" lon="14.70188333"><ele>107.0</ele><time>2016-06-18T03:47:03.290Z</time></trkpt><trkpt lat="58.34777167" lon="14.701735"><ele>108.0</ele><time>2016-06-18T03:47:04.285Z</time></trkpt><trkpt lat="58.34772167" lon="14.701665"><ele>108.0</ele><time>2016-06-18T03:47:05.283Z</time></trkpt><trkpt lat="58.34767333" lon="14.70159333"><ele>108.0</ele><time>2016-06-18T03:47:06.285Z</time></trkpt><trkpt lat="58.34767333" lon="14.70159333"><ele>108.0</ele><time>2016-06-18T03:47:07.283Z</time></trkpt><trkpt lat="58.34757667" lon="14.70145333"><ele>108.0</ele><time>2016-06-18T03:47:08.287Z</time></trkpt><trkpt lat="58.34757667" lon="14.70145333"><ele>108.0</ele><time>2016-06-18T03:47:09.284Z</time></trkpt><trkpt lat="58.34748167" lon="14.70131833"><ele>109.0</ele><time>2016-06-18T03:47:10.285Z</time></trkpt><trkpt lat="58.34748167" lon="14.70131833"><ele>109.0</ele><time>2016-06-18T03:47:11.282Z</time></trkpt><trkpt lat="58.34739" lon="14.70118667"><ele>109.0</ele><time>2016-06-18T03:47:12.284Z</time></trkpt><trkpt lat="58.34739" lon="14.70118667"><ele>109.0</ele><time>2016-06-18T03:47:13.290Z</time></trkpt><trkpt lat="58.34730167" lon="14.70105667"><ele>110.0</ele><time>2016-06-18T03:47:14.286Z</time></trkpt><trkpt lat="58.34725833" lon="14.700995"><ele>110.0</ele><time>2016-06-18T03:47:15.295Z</time></trkpt><trkpt lat="58.34725833" lon="14.700995"><ele>110.0</ele><time>2016-06-18T03:47:16.282Z</time></trkpt><trkpt lat="58.34717333" lon="14.70087167"><ele>111.0</ele><time>2016-06-18T03:47:17.284Z</time></trkpt><trkpt lat="58.34717333" lon="14.70087167"><ele>111.0</ele><time>2016-06-18T03:47:18.282Z</time></trkpt><trkpt lat="58.34708833" lon="14.700755"><ele>112.0</ele><time>2016-06-18T03:47:19.285Z</time></trkpt><trkpt lat="58.34704667" lon="14.70069667"><ele>112.0</ele><time>2016-06-18T03:47:20.287Z</time></trkpt><trkpt lat="58.34704667" lon="14.70069667"><ele>112.0</ele><time>2016-06-18T03:47:21.282Z</time></trkpt><trkpt lat="58.34696667" lon="14.70057833"><ele>113.0</ele><time>2016-06-18T03:47:22.283Z</time></trkpt><trkpt lat="58.34696667" lon="14.70057833"><ele>113.0</ele><time>2016-06-18T03:47:23.320Z</time></trkpt><trkpt lat="58.34688333" lon="14.70046167"><ele>112.0</ele><time>2016-06-18T03:47:24.285Z</time></trkpt><trkpt lat="58.34688333" lon="14.70046167"><ele>112.0</ele><time>2016-06-18T03:47:25.318Z</time></trkpt><trkpt lat="58.346805" lon="14.70034333"><ele>113.0</ele><time>2016-06-18T03:47:26.301Z</time></trkpt><trkpt lat="58.346805" lon="14.70034333"><ele>113.0</ele><time>2016-06-18T03:47:27.287Z</time></trkpt><trkpt lat="58.34672833" lon="14.70022667"><ele>113.0</ele><time>2016-06-18T03:47:28.284Z</time></trkpt><trkpt lat="58.34672833" lon="14.70022667"><ele>113.0</ele><time>2016-06-18T03:47:29.292Z</time></trkpt><trkpt lat="58.34665667" lon="14.70011833"><ele>113.0</ele><time>2016-06-18T03:47:30.285Z</time></trkpt><trkpt lat="58.34665667" lon="14.70011833"><ele>113.0</ele><time>2016-06-18T03:47:31.320Z</time></trkpt><trkpt lat="58.346585" lon="14.70000333"><ele>114.0</ele><time>2016-06-18T03:47:32.307Z</time></trkpt><trkpt lat="58.346585" lon="14.70000333"><ele>114.0</ele><time>2016-06-18T03:47:33.299Z</time></trkpt><trkpt lat="58.34651" lon="14.69989"><ele>115.0</ele><time>2016-06-18T03:47:34.313Z</time></trkpt><trkpt lat="58.34651" lon="14.69989"><ele>115.0</ele><time>2016-06-18T03:47:35.321Z</time></trkpt><trkpt lat="58.34643" lon="14.69977833"><ele>115.0</ele><time>2016-06-18T03:47:36.284Z</time></trkpt><trkpt lat="58.34639333" lon="14.69972167"><ele>115.0</ele><time>2016-06-18T03:47:37.285Z</time></trkpt><trkpt lat="58.34635333" lon="14.69966333"><ele>115.0</ele><time>2016-06-18T03:47:38.319Z</time></trkpt><trkpt lat="58.34635333" lon="14.69966333"><ele>115.0</ele><time>2016-06-18T03:47:39.321Z</time></trkpt><trkpt lat="58.34627333" lon="14.699545"><ele>115.0</ele><time>2016-06-18T03:47:40.282Z</time></trkpt><trkpt lat="58.34627333" lon="14.699545"><ele>115.0</ele><time>2016-06-18T03:47:41.320Z</time></trkpt><trkpt lat="58.346195" lon="14.69941667"><ele>115.0</ele><time>2016-06-18T03:47:42.284Z</time></trkpt><trkpt lat="58.346195" lon="14.69941667"><ele>115.0</ele><time>2016-06-18T03:47:43.289Z</time></trkpt><trkpt lat="58.34611333" lon="14.69928667"><ele>116.0</ele><time>2016-06-18T03:47:44.288Z</time></trkpt><trkpt lat="58.34611333" lon="14.69928667"><ele>116.0</ele><time>2016-06-18T03:47:45.282Z</time></trkpt><trkpt lat="58.34602667" lon="14.69915167"><ele>116.0</ele><time>2016-06-18T03:47:46.284Z</time></trkpt><trkpt lat="58.34602667" lon="14.69915167"><ele>116.0</ele><time>2016-06-18T03:47:47.282Z</time></trkpt><trkpt lat="58.34593667" lon="14.69901833"><ele>116.0</ele><time>2016-06-18T03:47:48.284Z</time></trkpt><trkpt lat="58.34593667" lon="14.69901833"><ele>116.0</ele><time>2016-06-18T03:47:49.282Z</time></trkpt><trkpt lat="58.34585167" lon="14.69888667"><ele>117.0</ele><time>2016-06-18T03:47:50.288Z</time></trkpt><trkpt lat="58.34585167" lon="14.69888667"><ele>117.0</ele><time>2016-06-18T03:47:51.320Z</time></trkpt><trkpt lat="58.345775" lon="14.69875167"><ele>118.0</ele><time>2016-06-18T03:47:52.285Z</time></trkpt><trkpt lat="58.345775" lon="14.69875167"><ele>118.0</ele><time>2016-06-18T03:47:53.290Z</time></trkpt><trkpt lat="58.34569833" lon="14.69862667"><ele>118.0</ele><time>2016-06-18T03:47:54.286Z</time></trkpt><trkpt lat="58.34569833" lon="14.69862667"><ele>118.0</ele><time>2016-06-18T03:47:55.320Z</time></trkpt><trkpt lat="58.34562333" lon="14.69850167"><ele>119.0</ele><time>2016-06-18T03:47:56.283Z</time></trkpt><trkpt lat="58.34562333" lon="14.69850167"><ele>119.0</ele><time>2016-06-18T03:47:57.283Z</time></trkpt><trkpt lat="58.34554833" lon="14.69837833"><ele>120.0</ele><time>2016-06-18T03:47:58.285Z</time></trkpt><trkpt lat="58.34554833" lon="14.69837833"><ele>120.0</ele><time>2016-06-18T03:47:59.320Z</time></trkpt><trkpt lat="58.34547" lon="14.698255"><ele>120.0</ele><time>2016-06-18T03:48:00.294Z</time></trkpt><trkpt lat="58.34547" lon="14.698255"><ele>120.0</ele><time>2016-06-18T03:48:01.282Z</time></trkpt><trkpt lat="58.345395" lon="14.69813167"><ele>121.0</ele><time>2016-06-18T03:48:02.288Z</time></trkpt><trkpt lat="58.345395" lon="14.69813167"><ele>121.0</ele><time>2016-06-18T03:48:03.317Z</time></trkpt><trkpt lat="58.34531833" lon="14.698"><ele>121.0</ele><time>2016-06-18T03:48:04.288Z</time></trkpt><trkpt lat="58.34531833" lon="14.698"><ele>121.0</ele><time>2016-06-18T03:48:05.316Z</time></trkpt><trkpt lat="58.345245" lon="14.69786833"><ele>122.0</ele><time>2016-06-18T03:48:06.285Z</time></trkpt><trkpt lat="58.345245" lon="14.69786833"><ele>122.0</ele><time>2016-06-18T03:48:07.320Z</time></trkpt><trkpt lat="58.34517167" lon="14.69773333"><ele>123.0</ele><time>2016-06-18T03:48:08.287Z</time></trkpt><trkpt lat="58.34517167" lon="14.69773333"><ele>123.0</ele><time>2016-06-18T03:48:09.320Z</time></trkpt><trkpt lat="58.34509833" lon="14.69759"><ele>123.0</ele><time>2016-06-18T03:48:10.285Z</time></trkpt><trkpt lat="58.34506167" lon="14.69751333"><ele>123.0</ele><time>2016-06-18T03:48:11.286Z</time></trkpt><trkpt lat="58.34506167" lon="14.69751333"><ele>123.0</ele><time>2016-06-18T03:48:12.295Z</time></trkpt><trkpt lat="58.34498667" lon="14.697375"><ele>124.0</ele><time>2016-06-18T03:48:13.290Z</time></trkpt><trkpt lat="58.34494667" lon="14.69731"><ele>124.0</ele><time>2016-06-18T03:48:14.286Z</time></trkpt><trkpt lat="58.34494667" lon="14.69731"><ele>124.0</ele><time>2016-06-18T03:48:15.321Z</time></trkpt><trkpt lat="58.34487" lon="14.69719167"><ele>125.0</ele><time>2016-06-18T03:48:16.318Z</time></trkpt><trkpt lat="58.34483333" lon="14.69713"><ele>125.0</ele><time>2016-06-18T03:48:17.286Z</time></trkpt><trkpt lat="58.34483333" lon="14.69713"><ele>125.0</ele><time>2016-06-18T03:48:18.319Z</time></trkpt><trkpt lat="58.344765" lon="14.697005"><ele>126.0</ele><time>2016-06-18T03:48:19.285Z</time></trkpt><trkpt lat="58.344725" lon="14.696945"><ele>126.0</ele><time>2016-06-18T03:48:20.286Z</time></trkpt><trkpt lat="58.344725" lon="14.696945"><ele>126.0</ele><time>2016-06-18T03:48:21.317Z</time></trkpt><trkpt lat="58.34464333" lon="14.69682833"><ele>126.0</ele><time>2016-06-18T03:48:22.285Z</time></trkpt><trkpt lat="58.34460167" lon="14.69676833"><ele>125.0</ele><time>2016-06-18T03:48:23.290Z</time></trkpt><trkpt lat="58.34460167" lon="14.69676833"><ele>125.0</ele><time>2016-06-18T03:48:24.288Z</time></trkpt><trkpt lat="58.34450667" lon="14.69664167"><ele>125.0</ele><time>2016-06-18T03:48:25.286Z</time></trkpt><trkpt lat="58.34450667" lon="14.69664167"><ele>125.0</ele><time>2016-06-18T03:48:26.288Z</time></trkpt><trkpt lat="58.34440167" lon="14.696515"><ele>125.0</ele><time>2016-06-18T03:48:27.285Z</time></trkpt><trkpt lat="58.34434333" lon="14.69644833"><ele>125.0</ele><time>2016-06-18T03:48:28.285Z</time></trkpt><trkpt lat="58.34428333" lon="14.69638667"><ele>125.0</ele><time>2016-06-18T03:48:29.285Z</time></trkpt><trkpt lat="58.34428333" lon="14.69638667"><ele>125.0</ele><time>2016-06-18T03:48:30.317Z</time></trkpt><trkpt lat="58.344155" lon="14.69626167"><ele>124.0</ele><time>2016-06-18T03:48:31.285Z</time></trkpt><trkpt lat="58.34408667" lon="14.6962"><ele>124.0</ele><time>2016-06-18T03:48:32.287Z</time></trkpt><trkpt lat="58.34408667" lon="14.6962"><ele>124.0</ele><time>2016-06-18T03:48:33.290Z</time></trkpt><trkpt lat="58.34394167" lon="14.696065"><ele>123.0</ele><time>2016-06-18T03:48:34.286Z</time></trkpt><trkpt lat="58.34394167" lon="14.696065"><ele>123.0</ele><time>2016-06-18T03:48:35.317Z</time></trkpt><trkpt lat="58.34378833" lon="14.69592833"><ele>122.0</ele><time>2016-06-18T03:48:36.297Z</time></trkpt><trkpt lat="58.34378833" lon="14.69592833"><ele>122.0</ele><time>2016-06-18T03:48:37.283Z</time></trkpt><trkpt lat="58.343635" lon="14.69578667"><ele>122.0</ele><time>2016-06-18T03:48:38.319Z</time></trkpt><trkpt lat="58.343635" lon="14.69578667"><ele>122.0</ele><time>2016-06-18T03:48:39.283Z</time></trkpt><trkpt lat="58.34347667" lon="14.695635"><ele>121.0</ele><time>2016-06-18T03:48:40.286Z</time></trkpt><trkpt lat="58.34347667" lon="14.695635"><ele>121.0</ele><time>2016-06-18T03:48:41.290Z</time></trkpt><trkpt lat="58.34331833" lon="14.695465"><ele>120.0</ele><time>2016-06-18T03:48:42.285Z</time></trkpt><trkpt lat="58.34324" lon="14.69537167"><ele>120.0</ele><time>2016-06-18T03:48:43.288Z</time></trkpt><trkpt lat="58.34316333" lon="14.69527333"><ele>120.0</ele><time>2016-06-18T03:48:44.287Z</time></trkpt><trkpt lat="58.34309" lon="14.695175"><ele>120.0</ele><time>2016-06-18T03:48:45.286Z</time></trkpt><trkpt lat="58.34309" lon="14.695175"><ele>120.0</ele><time>2016-06-18T03:48:46.287Z</time></trkpt><trkpt lat="58.342945" lon="14.69496667"><ele>119.0</ele><time>2016-06-18T03:48:47.286Z</time></trkpt><trkpt lat="58.34287333" lon="14.69486167"><ele>119.0</ele><time>2016-06-18T03:48:48.284Z</time></trkpt><trkpt lat="58.34287333" lon="14.69486167"><ele>119.0</ele><time>2016-06-18T03:48:49.284Z</time></trkpt><trkpt lat="58.34273667" lon="14.69464333"><ele>119.0</ele><time>2016-06-18T03:48:50.288Z</time></trkpt><trkpt lat="58.34266667" lon="14.694535"><ele>119.0</ele><time>2016-06-18T03:48:51.289Z</time></trkpt><trkpt lat="58.34266667" lon="14.694535"><ele>119.0</ele><time>2016-06-18T03:48:52.284Z</time></trkpt><trkpt lat="58.34253333" lon="14.69430333"><ele>119.0</ele><time>2016-06-18T03:48:53.290Z</time></trkpt><trkpt lat="58.34253333" lon="14.69430333"><ele>119.0</ele><time>2016-06-18T03:48:54.283Z</time></trkpt><trkpt lat="58.34240333" lon="14.69407"><ele>119.0</ele><time>2016-06-18T03:48:55.283Z</time></trkpt><trkpt lat="58.34234167" lon="14.69396"><ele>119.0</ele><time>2016-06-18T03:48:56.297Z</time></trkpt><trkpt lat="58.34234167" lon="14.69396"><ele>119.0</ele><time>2016-06-18T03:48:57.283Z</time></trkpt><trkpt lat="58.34222333" lon="14.69375333"><ele>119.0</ele><time>2016-06-18T03:48:58.285Z</time></trkpt><trkpt lat="58.34216833" lon="14.693655"><ele>119.0</ele><time>2016-06-18T03:48:59.290Z</time></trkpt><trkpt lat="58.34216833" lon="14.693655"><ele>119.0</ele><time>2016-06-18T03:49:00.302Z</time></trkpt><trkpt lat="58.34206" lon="14.693455"><ele>119.0</ele><time>2016-06-18T03:49:01.288Z</time></trkpt><trkpt lat="58.34200333" lon="14.693355"><ele>119.0</ele><time>2016-06-18T03:49:02.287Z</time></trkpt><trkpt lat="58.34194667" lon="14.69325667"><ele>119.0</ele><time>2016-06-18T03:49:03.289Z</time></trkpt><trkpt lat="58.34194667" lon="14.69325667"><ele>119.0</ele><time>2016-06-18T03:49:04.321Z</time></trkpt><trkpt lat="58.34183833" lon="14.69306167"><ele>119.0</ele><time>2016-06-18T03:49:05.287Z</time></trkpt><trkpt lat="58.34183833" lon="14.69306167"><ele>119.0</ele><time>2016-06-18T03:49:06.293Z</time></trkpt><trkpt lat="58.34172667" lon="14.69285667"><ele>119.0</ele><time>2016-06-18T03:49:07.286Z</time></trkpt><trkpt lat="58.34172667" lon="14.69285667"><ele>119.0</ele><time>2016-06-18T03:49:08.285Z</time></trkpt><trkpt lat="58.34161333" lon="14.69264333"><ele>119.0</ele><time>2016-06-18T03:49:09.284Z</time></trkpt><trkpt lat="58.341555" lon="14.692535"><ele>120.0</ele><time>2016-06-18T03:49:10.301Z</time></trkpt><trkpt lat="58.341555" lon="14.692535"><ele>120.0</ele><time>2016-06-18T03:49:11.290Z</time></trkpt><trkpt lat="58.34144167" lon="14.69231333"><ele>120.0</ele><time>2016-06-18T03:49:12.297Z</time></trkpt><trkpt lat="58.34144167" lon="14.69231333"><ele>120.0</ele><time>2016-06-18T03:49:13.290Z</time></trkpt><trkpt lat="58.341335" lon="14.692085"><ele>120.0</ele><time>2016-06-18T03:49:14.288Z</time></trkpt><trkpt lat="58.341285" lon="14.691965"><ele>120.0</ele><time>2016-06-18T03:49:15.287Z</time></trkpt><trkpt lat="58.341235" lon="14.69184333"><ele>121.0</ele><time>2016-06-18T03:49:16.286Z</time></trkpt><trkpt lat="58.341235" lon="14.69184333"><ele>121.0</ele><time>2016-06-18T03:49:17.284Z</time></trkpt><trkpt lat="58.34113833" lon="14.691605"><ele>121.0</ele><time>2016-06-18T03:49:18.287Z</time></trkpt><trkpt lat="58.34113833" lon="14.691605"><ele>121.0</ele><time>2016-06-18T03:49:19.283Z</time></trkpt><trkpt lat="58.341045" lon="14.69137167"><ele>121.0</ele><time>2016-06-18T03:49:20.288Z</time></trkpt><trkpt lat="58.341045" lon="14.69137167"><ele>121.0</ele><time>2016-06-18T03:49:21.284Z</time></trkpt><trkpt lat="58.340955" lon="14.69115833"><ele>122.0</ele><time>2016-06-18T03:49:22.286Z</time></trkpt><trkpt lat="58.340955" lon="14.69115833"><ele>122.0</ele><time>2016-06-18T03:49:23.290Z</time></trkpt><trkpt lat="58.34087167" lon="14.69096667"><ele>123.0</ele><time>2016-06-18T03:49:24.287Z</time></trkpt><trkpt lat="58.34083833" lon="14.69087333"><ele>124.0</ele><time>2016-06-18T03:49:25.286Z</time></trkpt><trkpt lat="58.34083833" lon="14.69087333"><ele>124.0</ele><time>2016-06-18T03:49:26.286Z</time></trkpt><trkpt lat="58.34076833" lon="14.6907"><ele>124.0</ele><time>2016-06-18T03:49:27.305Z</time></trkpt><trkpt lat="58.34073" lon="14.69062333"><ele>124.0</ele><time>2016-06-18T03:49:28.294Z</time></trkpt><trkpt lat="58.34073" lon="14.69062333"><ele>124.0</ele><time>2016-06-18T03:49:29.283Z</time></trkpt><trkpt lat="58.34064667" lon="14.69048167"><ele>124.0</ele><time>2016-06-18T03:49:30.285Z</time></trkpt><trkpt lat="58.34060333" lon="14.69041167"><ele>124.0</ele><time>2016-06-18T03:49:31.286Z</time></trkpt><trkpt lat="58.34060333" lon="14.69041167"><ele>124.0</ele><time>2016-06-18T03:49:32.285Z</time></trkpt><trkpt lat="58.34051167" lon="14.690285"><ele>124.0</ele><time>2016-06-18T03:49:33.290Z</time></trkpt><trkpt lat="58.34051167" lon="14.690285"><ele>124.0</ele><time>2016-06-18T03:49:34.282Z</time></trkpt><trkpt lat="58.34040667" lon="14.69017167"><ele>125.0</ele><time>2016-06-18T03:49:35.286Z</time></trkpt><trkpt lat="58.34040667" lon="14.69017167"><ele>125.0</ele><time>2016-06-18T03:49:36.284Z</time></trkpt><trkpt lat="58.34029167" lon="14.69007333"><ele>125.0</ele><time>2016-06-18T03:49:37.286Z</time></trkpt><trkpt lat="58.340225" lon="14.69004667"><ele>126.0</ele><time>2016-06-18T03:49:38.319Z</time></trkpt><trkpt lat="58.340225" lon="14.69004667"><ele>126.0</ele><time>2016-06-18T03:49:39.284Z</time></trkpt><trkpt lat="58.34009833" lon="14.689975"><ele>127.0</ele><time>2016-06-18T03:49:40.287Z</time></trkpt><trkpt lat="58.34009833" lon="14.689975"><ele>127.0</ele><time>2016-06-18T03:49:41.284Z</time></trkpt><trkpt lat="58.33996" lon="14.689935"><ele>128.0</ele><time>2016-06-18T03:49:42.287Z</time></trkpt><trkpt lat="58.33996" lon="14.689935"><ele>128.0</ele><time>2016-06-18T03:49:43.286Z</time></trkpt><trkpt lat="58.339825" lon="14.68991833"><ele>128.0</ele><time>2016-06-18T03:49:44.289Z</time></trkpt><trkpt lat="58.33975833" lon="14.68991167"><ele>129.0</ele><time>2016-06-18T03:49:45.291Z</time></trkpt><trkpt lat="58.33969" lon="14.68991333"><ele>129.0</ele><time>2016-06-18T03:49:46.287Z</time></trkpt><trkpt lat="58.33969" lon="14.68991333"><ele>129.0</ele><time>2016-06-18T03:49:47.284Z</time></trkpt><trkpt lat="58.33955" lon="14.68991667"><ele>129.0</ele><time>2016-06-18T03:49:48.286Z</time></trkpt><trkpt lat="58.33955" lon="14.68991667"><ele>129.0</ele><time>2016-06-18T03:49:49.321Z</time></trkpt><trkpt lat="58.33940833" lon="14.68992167"><ele>129.0</ele><time>2016-06-18T03:49:50.288Z</time></trkpt><trkpt lat="58.33940833" lon="14.68992167"><ele>129.0</ele><time>2016-06-18T03:49:51.284Z</time></trkpt><trkpt lat="58.33925833" lon="14.68993167"><ele>128.0</ele><time>2016-06-18T03:49:52.299Z</time></trkpt><trkpt lat="58.33925833" lon="14.68993167"><ele>128.0</ele><time>2016-06-18T03:49:53.290Z</time></trkpt><trkpt lat="58.33911333" lon="14.68994167"><ele>128.0</ele><time>2016-06-18T03:49:54.287Z</time></trkpt><trkpt lat="58.33911333" lon="14.68994167"><ele>128.0</ele><time>2016-06-18T03:49:55.284Z</time></trkpt><trkpt lat="58.33895" lon="14.68995333"><ele>128.0</ele><time>2016-06-18T03:49:56.287Z</time></trkpt><trkpt lat="58.33895" lon="14.68995333"><ele>128.0</ele><time>2016-06-18T03:49:57.317Z</time></trkpt><trkpt lat="58.33879" lon="14.68996"><ele>128.0</ele><time>2016-06-18T03:49:58.285Z</time></trkpt><trkpt lat="58.33879" lon="14.68996"><ele>128.0</ele><time>2016-06-18T03:49:59.320Z</time></trkpt><trkpt lat="58.33862167" lon="14.68997"><ele>127.0</ele><time>2016-06-18T03:50:00.291Z</time></trkpt><trkpt lat="58.33853667" lon="14.68997333"><ele>127.0</ele><time>2016-06-18T03:50:01.306Z</time></trkpt><trkpt lat="58.33853667" lon="14.68997333"><ele>127.0</ele><time>2016-06-18T03:50:02.293Z</time></trkpt><trkpt lat="58.338365" lon="14.68997833"><ele>126.0</ele><time>2016-06-18T03:50:03.290Z</time></trkpt><trkpt lat="58.33827833" lon="14.68998"><ele>126.0</ele><time>2016-06-18T03:50:04.286Z</time></trkpt><trkpt lat="58.33827833" lon="14.68998"><ele>126.0</ele><time>2016-06-18T03:50:05.282Z</time></trkpt><trkpt lat="58.33810667" lon="14.68998333"><ele>126.0</ele><time>2016-06-18T03:50:06.309Z</time></trkpt><trkpt lat="58.33810667" lon="14.68998333"><ele>126.0</ele><time>2016-06-18T03:50:07.295Z</time></trkpt><trkpt lat="58.33794667" lon="14.68998333"><ele>126.0</ele><time>2016-06-18T03:50:08.289Z</time></trkpt><trkpt lat="58.33794667" lon="14.68998333"><ele>126.0</ele><time>2016-06-18T03:50:09.321Z</time></trkpt><trkpt lat="58.33779167" lon="14.689985"><ele>126.0</ele><time>2016-06-18T03:50:10.287Z</time></trkpt><trkpt lat="58.33779167" lon="14.689985"><ele>126.0</ele><time>2016-06-18T03:50:11.289Z</time></trkpt><trkpt lat="58.33764333" lon="14.68997333"><ele>126.0</ele><time>2016-06-18T03:50:12.315Z</time></trkpt><trkpt lat="58.33764333" lon="14.68997333"><ele>126.0</ele><time>2016-06-18T03:50:13.282Z</time></trkpt><trkpt lat="58.33748667" lon="14.68995833"><ele>125.0</ele><time>2016-06-18T03:50:14.288Z</time></trkpt><trkpt lat="58.33741167" lon="14.68994167"><ele>125.0</ele><time>2016-06-18T03:50:15.287Z</time></trkpt><trkpt lat="58.33733333" lon="14.68992833"><ele>125.0</ele><time>2016-06-18T03:50:16.287Z</time></trkpt><trkpt lat="58.33733333" lon="14.68992833"><ele>125.0</ele><time>2016-06-18T03:50:17.299Z</time></trkpt><trkpt lat="58.33717833" lon="14.68990167"><ele>124.0</ele><time>2016-06-18T03:50:18.288Z</time></trkpt><trkpt lat="58.33717833" lon="14.68990167"><ele>124.0</ele><time>2016-06-18T03:50:19.282Z</time></trkpt><trkpt lat="58.337015" lon="14.68987333"><ele>124.0</ele><time>2016-06-18T03:50:20.287Z</time></trkpt><trkpt lat="58.337015" lon="14.68987333"><ele>124.0</ele><time>2016-06-18T03:50:21.284Z</time></trkpt><trkpt lat="58.33685" lon="14.68984667"><ele>124.0</ele><time>2016-06-18T03:50:22.286Z</time></trkpt><trkpt lat="58.33685" lon="14.68984667"><ele>124.0</ele><time>2016-06-18T03:50:23.290Z</time></trkpt><trkpt lat="58.33667333" lon="14.68983167"><ele>124.0</ele><time>2016-06-18T03:50:24.285Z</time></trkpt><trkpt lat="58.33659333" lon="14.68981333"><ele>124.0</ele><time>2016-06-18T03:50:25.286Z</time></trkpt><trkpt lat="58.33651167" lon="14.68980167"><ele>124.0</ele><time>2016-06-18T03:50:26.288Z</time></trkpt><trkpt lat="58.33651167" lon="14.68980167"><ele>124.0</ele><time>2016-06-18T03:50:27.284Z</time></trkpt><trkpt lat="58.33634833" lon="14.68977667"><ele>124.0</ele><time>2016-06-18T03:50:28.286Z</time></trkpt><trkpt lat="58.33634833" lon="14.68977667"><ele>124.0</ele><time>2016-06-18T03:50:29.283Z</time></trkpt><trkpt lat="58.33618167" lon="14.68975167"><ele>124.0</ele><time>2016-06-18T03:50:30.286Z</time></trkpt><trkpt lat="58.33618167" lon="14.68975167"><ele>124.0</ele><time>2016-06-18T03:50:31.284Z</time></trkpt><trkpt lat="58.33601167" lon="14.68973167"><ele>125.0</ele><time>2016-06-18T03:50:32.287Z</time></trkpt><trkpt lat="58.33601167" lon="14.68973167"><ele>125.0</ele><time>2016-06-18T03:50:33.290Z</time></trkpt><trkpt lat="58.335845" lon="14.68971"><ele>125.0</ele><time>2016-06-18T03:50:34.284Z</time></trkpt><trkpt lat="58.335845" lon="14.68971"><ele>125.0</ele><time>2016-06-18T03:50:35.285Z</time></trkpt><trkpt lat="58.33567833" lon="14.68969"><ele>125.0</ele><time>2016-06-18T03:50:36.284Z</time></trkpt><trkpt lat="58.33567833" lon="14.68969"><ele>125.0</ele><time>2016-06-18T03:50:37.282Z</time></trkpt><trkpt lat="58.33551167" lon="14.68967"><ele>125.0</ele><time>2016-06-18T03:50:38.288Z</time></trkpt><trkpt lat="58.33551167" lon="14.68967"><ele>125.0</ele><time>2016-06-18T03:50:39.291Z</time></trkpt><trkpt lat="58.335345" lon="14.68966"><ele>125.0</ele><time>2016-06-18T03:50:40.287Z</time></trkpt><trkpt lat="58.335345" lon="14.68966"><ele>125.0</ele><time>2016-06-18T03:50:41.283Z</time></trkpt><trkpt lat="58.33518" lon="14.68964667"><ele>124.0</ele><time>2016-06-18T03:50:42.288Z</time></trkpt><trkpt lat="58.33518" lon="14.68964667"><ele>124.0</ele><time>2016-06-18T03:50:43.290Z</time></trkpt><trkpt lat="58.33501833" lon="14.68963333"><ele>124.0</ele><time>2016-06-18T03:50:44.289Z</time></trkpt><trkpt lat="58.33501833" lon="14.68963333"><ele>124.0</ele><time>2016-06-18T03:50:45.284Z</time></trkpt><trkpt lat="58.33485333" lon="14.689625"><ele>123.0</ele><time>2016-06-18T03:50:46.285Z</time></trkpt><trkpt lat="58.33485333" lon="14.689625"><ele>123.0</ele><time>2016-06-18T03:50:47.283Z</time></trkpt><trkpt lat="58.33468167" lon="14.68962167"><ele>123.0</ele><time>2016-06-18T03:50:48.287Z</time></trkpt><trkpt lat="58.33468167" lon="14.68962167"><ele>123.0</ele><time>2016-06-18T03:50:49.284Z</time></trkpt><trkpt lat="58.33450167" lon="14.68961333"><ele>122.0</ele><time>2016-06-18T03:50:50.287Z</time></trkpt><trkpt lat="58.33450167" lon="14.68961333"><ele>122.0</ele><time>2016-06-18T03:50:51.285Z</time></trkpt><trkpt lat="58.33431333" lon="14.689615"><ele>122.0</ele><time>2016-06-18T03:50:52.287Z</time></trkpt><trkpt lat="58.33431333" lon="14.689615"><ele>122.0</ele><time>2016-06-18T03:50:53.290Z</time></trkpt><trkpt lat="58.33413" lon="14.68961833"><ele>121.0</ele><time>2016-06-18T03:50:54.284Z</time></trkpt><trkpt lat="58.33413" lon="14.68961833"><ele>121.0</ele><time>2016-06-18T03:50:55.282Z</time></trkpt><trkpt lat="58.33395167" lon="14.68962167"><ele>121.0</ele><time>2016-06-18T03:50:56.288Z</time></trkpt><trkpt lat="58.33395167" lon="14.68962167"><ele>121.0</ele><time>2016-06-18T03:50:57.285Z</time></trkpt><trkpt lat="58.33378167" lon="14.689645"><ele>121.0</ele><time>2016-06-18T03:50:58.287Z</time></trkpt><trkpt lat="58.33378167" lon="14.689645"><ele>121.0</ele><time>2016-06-18T03:50:59.282Z</time></trkpt><trkpt lat="58.33360833" lon="14.689675"><ele>120.0</ele><time>2016-06-18T03:51:00.295Z</time></trkpt><trkpt lat="58.33360833" lon="14.689675"><ele>120.0</ele><time>2016-06-18T03:51:01.284Z</time></trkpt><trkpt lat="58.33342833" lon="14.68970667"><ele>119.0</ele><time>2016-06-18T03:51:02.287Z</time></trkpt><trkpt lat="58.33342833" lon="14.68970667"><ele>119.0</ele><time>2016-06-18T03:51:03.290Z</time></trkpt><trkpt lat="58.333245" lon="14.68974333"><ele>118.0</ele><time>2016-06-18T03:51:04.286Z</time></trkpt><trkpt lat="58.333245" lon="14.68974333"><ele>118.0</ele><time>2016-06-18T03:51:05.314Z</time></trkpt><trkpt lat="58.33306" lon="14.68978"><ele>118.0</ele><time>2016-06-18T03:51:06.295Z</time></trkpt><trkpt lat="58.33306" lon="14.68978"><ele>118.0</ele><time>2016-06-18T03:51:07.285Z</time></trkpt><trkpt lat="58.33287" lon="14.68981167"><ele>117.0</ele><time>2016-06-18T03:51:08.304Z</time></trkpt><trkpt lat="58.33287" lon="14.68981167"><ele>117.0</ele><time>2016-06-18T03:51:09.291Z</time></trkpt><trkpt lat="58.33268333" lon="14.68983167"><ele>117.0</ele><time>2016-06-18T03:51:10.288Z</time></trkpt><trkpt lat="58.33268333" lon="14.68983167"><ele>117.0</ele><time>2016-06-18T03:51:11.286Z</time></trkpt><trkpt lat="58.332495" lon="14.68984167"><ele>117.0</ele><time>2016-06-18T03:51:12.287Z</time></trkpt><trkpt lat="58.332495" lon="14.68984167"><ele>117.0</ele><time>2016-06-18T03:51:13.290Z</time></trkpt><trkpt lat="58.33231833" lon="14.68984833"><ele>117.0</ele><time>2016-06-18T03:51:14.287Z</time></trkpt><trkpt lat="58.33231833" lon="14.68984833"><ele>117.0</ele><time>2016-06-18T03:51:15.319Z</time></trkpt><trkpt lat="58.33214833" lon="14.68985333"><ele>117.0</ele><time>2016-06-18T03:51:16.288Z</time></trkpt><trkpt lat="58.33206667" lon="14.68985667"><ele>117.0</ele><time>2016-06-18T03:51:17.288Z</time></trkpt><trkpt lat="58.33206667" lon="14.68985667"><ele>117.0</ele><time>2016-06-18T03:51:18.292Z</time></trkpt><trkpt lat="58.3319" lon="14.68986333"><ele>116.0</ele><time>2016-06-18T03:51:19.288Z</time></trkpt><trkpt lat="58.3319" lon="14.68986333"><ele>116.0</ele><time>2016-06-18T03:51:20.286Z</time></trkpt><trkpt lat="58.33173333" lon="14.689865"><ele>116.0</ele><time>2016-06-18T03:51:21.288Z</time></trkpt><trkpt lat="58.33164833" lon="14.68986833"><ele>116.0</ele><time>2016-06-18T03:51:22.291Z</time></trkpt><trkpt lat="58.33164833" lon="14.68986833"><ele>116.0</ele><time>2016-06-18T03:51:23.294Z</time></trkpt><trkpt lat="58.33148167" lon="14.68987667"><ele>115.0</ele><time>2016-06-18T03:51:24.300Z</time></trkpt><trkpt lat="58.33148167" lon="14.68987667"><ele>115.0</ele><time>2016-06-18T03:51:25.285Z</time></trkpt><trkpt lat="58.33131" lon="14.68988167"><ele>115.0</ele><time>2016-06-18T03:51:26.296Z</time></trkpt><trkpt lat="58.33131" lon="14.68988167"><ele>115.0</ele><time>2016-06-18T03:51:27.284Z</time></trkpt><trkpt lat="58.33113667" lon="14.68988167"><ele>115.0</ele><time>2016-06-18T03:51:28.296Z</time></trkpt><trkpt lat="58.33113667" lon="14.68988167"><ele>115.0</ele><time>2016-06-18T03:51:29.285Z</time></trkpt><trkpt lat="58.33095667" lon="14.68987833"><ele>114.0</ele><time>2016-06-18T03:51:30.297Z</time></trkpt><trkpt lat="58.33095667" lon="14.68987833"><ele>114.0</ele><time>2016-06-18T03:51:31.285Z</time></trkpt><trkpt lat="58.33077167" lon="14.68988333"><ele>114.0</ele><time>2016-06-18T03:51:32.304Z</time></trkpt><trkpt lat="58.33077167" lon="14.68988333"><ele>114.0</ele><time>2016-06-18T03:51:33.319Z</time></trkpt><trkpt lat="58.33058667" lon="14.68988833"><ele>113.0</ele><time>2016-06-18T03:51:34.290Z</time></trkpt><trkpt lat="58.33049167" lon="14.68988833"><ele>113.0</ele><time>2016-06-18T03:51:35.298Z</time></trkpt><trkpt lat="58.330395" lon="14.68988667"><ele>112.0</ele><time>2016-06-18T03:51:36.283Z</time></trkpt><trkpt lat="58.330395" lon="14.68988667"><ele>112.0</ele><time>2016-06-18T03:51:37.292Z</time></trkpt><trkpt lat="58.33020167" lon="14.68987833"><ele>111.0</ele><time>2016-06-18T03:51:38.292Z</time></trkpt><trkpt lat="58.33020167" lon="14.68987833"><ele>111.0</ele><time>2016-06-18T03:51:39.301Z</time></trkpt><trkpt lat="58.33000833" lon="14.68986333"><ele>111.0</ele><time>2016-06-18T03:51:40.299Z</time></trkpt><trkpt lat="58.33000833" lon="14.68986333"><ele>111.0</ele><time>2016-06-18T03:51:41.292Z</time></trkpt><trkpt lat="58.32981167" lon="14.68985"><ele>110.0</ele><time>2016-06-18T03:51:42.307Z</time></trkpt><trkpt lat="58.32981167" lon="14.68985"><ele>110.0</ele><time>2016-06-18T03:51:43.293Z</time></trkpt><trkpt lat="58.32961167" lon="14.68984167"><ele>109.0</ele><time>2016-06-18T03:51:44.313Z</time></trkpt><trkpt lat="58.32961167" lon="14.68984167"><ele>109.0</ele><time>2016-06-18T03:51:45.284Z</time></trkpt><trkpt lat="58.32941" lon="14.689825"><ele>109.0</ele><time>2016-06-18T03:51:46.309Z</time></trkpt><trkpt lat="58.329305" lon="14.68981667"><ele>108.0</ele><time>2016-06-18T03:51:47.298Z</time></trkpt><trkpt lat="58.329305" lon="14.68981667"><ele>108.0</ele><time>2016-06-18T03:51:48.294Z</time></trkpt><trkpt lat="58.32909667" lon="14.68977667"><ele>107.0</ele><time>2016-06-18T03:51:49.298Z</time></trkpt><trkpt lat="58.32909667" lon="14.68977667"><ele>107.0</ele><time>2016-06-18T03:51:50.296Z</time></trkpt><trkpt lat="58.32888833" lon="14.68972"><ele>107.0</ele><time>2016-06-18T03:51:51.301Z</time></trkpt><trkpt lat="58.32878833" lon="14.68968833"><ele>106.0</ele><time>2016-06-18T03:51:52.303Z</time></trkpt><trkpt lat="58.32878833" lon="14.68968833"><ele>106.0</ele><time>2016-06-18T03:51:53.282Z</time></trkpt><trkpt lat="58.328595" lon="14.68961167"><ele>106.0</ele><time>2016-06-18T03:51:54.297Z</time></trkpt><trkpt lat="58.328595" lon="14.68961167"><ele>106.0</ele><time>2016-06-18T03:51:55.287Z</time></trkpt><trkpt lat="58.32840667" lon="14.68951667"><ele>105.0</ele><time>2016-06-18T03:51:56.298Z</time></trkpt><trkpt lat="58.32840667" lon="14.68951667"><ele>105.0</ele><time>2016-06-18T03:51:57.293Z</time></trkpt><trkpt lat="58.32823" lon="14.68939667"><ele>104.0</ele><time>2016-06-18T03:51:58.297Z</time></trkpt><trkpt lat="58.32814167" lon="14.68933667"><ele>104.0</ele><time>2016-06-18T03:51:59.299Z</time></trkpt><trkpt lat="58.32814167" lon="14.68933667"><ele>104.0</ele><time>2016-06-18T03:52:00.300Z</time></trkpt><trkpt lat="58.32797167" lon="14.68922667"><ele>104.0</ele><time>2016-06-18T03:52:01.298Z</time></trkpt><trkpt lat="58.32797167" lon="14.68922667"><ele>104.0</ele><time>2016-06-18T03:52:02.287Z</time></trkpt><trkpt lat="58.32781167" lon="14.68911833"><ele>104.0</ele><time>2016-06-18T03:52:03.308Z</time></trkpt><trkpt lat="58.32781167" lon="14.68911833"><ele>104.0</ele><time>2016-06-18T03:52:04.284Z</time></trkpt><trkpt lat="58.32765" lon="14.68901833"><ele>104.0</ele><time>2016-06-18T03:52:05.300Z</time></trkpt><trkpt lat="58.32765" lon="14.68901833"><ele>104.0</ele><time>2016-06-18T03:52:06.290Z</time></trkpt><trkpt lat="58.32748667" lon="14.68893"><ele>103.0</ele><time>2016-06-18T03:52:07.308Z</time></trkpt><trkpt lat="58.32748667" lon="14.68893"><ele>103.0</ele><time>2016-06-18T03:52:08.319Z</time></trkpt><trkpt lat="58.32732" lon="14.68884667"><ele>102.0</ele><time>2016-06-18T03:52:09.318Z</time></trkpt><trkpt lat="58.32732" lon="14.68884667"><ele>102.0</ele><time>2016-06-18T03:52:10.284Z</time></trkpt><trkpt lat="58.32715167" lon="14.68875667"><ele>102.0</ele><time>2016-06-18T03:52:11.300Z</time></trkpt><trkpt lat="58.32715167" lon="14.68875667"><ele>102.0</ele><time>2016-06-18T03:52:12.291Z</time></trkpt><trkpt lat="58.32699" lon="14.68865667"><ele>101.0</ele><time>2016-06-18T03:52:13.285Z</time></trkpt><trkpt lat="58.32691" lon="14.6886"><ele>101.0</ele><time>2016-06-18T03:52:14.308Z</time></trkpt><trkpt lat="58.32683833" lon="14.68854333"><ele>100.0</ele><time>2016-06-18T03:52:15.303Z</time></trkpt><trkpt lat="58.32683833" lon="14.68854333"><ele>100.0</ele><time>2016-06-18T03:52:16.285Z</time></trkpt><trkpt lat="58.32668667" lon="14.68843"><ele>100.0</ele><time>2016-06-18T03:52:17.300Z</time></trkpt><trkpt lat="58.32661167" lon="14.68836667"><ele>100.0</ele><time>2016-06-18T03:52:18.321Z</time></trkpt><trkpt lat="58.32661167" lon="14.68836667"><ele>100.0</ele><time>2016-06-18T03:52:19.285Z</time></trkpt><trkpt lat="58.32646833" lon="14.68825333"><ele>100.0</ele><time>2016-06-18T03:52:20.312Z</time></trkpt><trkpt lat="58.32646833" lon="14.68825333"><ele>100.0</ele><time>2016-06-18T03:52:21.285Z</time></trkpt><trkpt lat="58.32632333" lon="14.68813333"><ele>100.0</ele><time>2016-06-18T03:52:22.306Z</time></trkpt><trkpt lat="58.32632333" lon="14.68813333"><ele>100.0</ele><time>2016-06-18T03:52:23.290Z</time></trkpt><trkpt lat="58.32617167" lon="14.68803167"><ele>101.0</ele><time>2016-06-18T03:52:24.301Z</time></trkpt><trkpt lat="58.32617167" lon="14.68803167"><ele>101.0</ele><time>2016-06-18T03:52:25.299Z</time></trkpt><trkpt lat="58.32602333" lon="14.68793167"><ele>101.0</ele><time>2016-06-18T03:52:26.299Z</time></trkpt><trkpt lat="58.32602333" lon="14.68793167"><ele>101.0</ele><time>2016-06-18T03:52:27.296Z</time></trkpt><trkpt lat="58.325875" lon="14.68783667"><ele>102.0</ele><time>2016-06-18T03:52:28.307Z</time></trkpt><trkpt lat="58.325875" lon="14.68783667"><ele>102.0</ele><time>2016-06-18T03:52:29.282Z</time></trkpt><trkpt lat="58.32572333" lon="14.68776"><ele>102.0</ele><time>2016-06-18T03:52:30.308Z</time></trkpt><trkpt lat="58.32572333" lon="14.68776"><ele>102.0</ele><time>2016-06-18T03:52:31.309Z</time></trkpt><trkpt lat="58.32556667" lon="14.68769167"><ele>102.0</ele><time>2016-06-18T03:52:32.283Z</time></trkpt><trkpt lat="58.32556667" lon="14.68769167"><ele>102.0</ele><time>2016-06-18T03:52:33.295Z</time></trkpt><trkpt lat="58.32540667" lon="14.68764833"><ele>102.0</ele><time>2016-06-18T03:52:34.313Z</time></trkpt><trkpt lat="58.32540667" lon="14.68764833"><ele>102.0</ele><time>2016-06-18T03:52:35.285Z</time></trkpt><trkpt lat="58.325245" lon="14.68761667"><ele>102.0</ele><time>2016-06-18T03:52:36.299Z</time></trkpt><trkpt lat="58.325245" lon="14.68761667"><ele>102.0</ele><time>2016-06-18T03:52:37.306Z</time></trkpt><trkpt lat="58.32507833" lon="14.687595"><ele>102.0</ele><time>2016-06-18T03:52:38.318Z</time></trkpt><trkpt lat="58.32507833" lon="14.687595"><ele>102.0</ele><time>2016-06-18T03:52:39.284Z</time></trkpt><trkpt lat="58.32490833" lon="14.68756333"><ele>102.0</ele><time>2016-06-18T03:52:40.309Z</time></trkpt><trkpt lat="58.32490833" lon="14.68756333"><ele>102.0</ele><time>2016-06-18T03:52:41.285Z</time></trkpt><trkpt lat="58.32474167" lon="14.68751333"><ele>102.0</ele><time>2016-06-18T03:52:42.308Z</time></trkpt><trkpt lat="58.32474167" lon="14.68751333"><ele>102.0</ele><time>2016-06-18T03:52:43.285Z</time></trkpt><trkpt lat="58.32457667" lon="14.68745667"><ele>102.0</ele><time>2016-06-18T03:52:44.309Z</time></trkpt><trkpt lat="58.32457667" lon="14.68745667"><ele>102.0</ele><time>2016-06-18T03:52:45.284Z</time></trkpt><trkpt lat="58.32441833" lon="14.68738333"><ele>101.0</ele><time>2016-06-18T03:52:46.301Z</time></trkpt><trkpt lat="58.32441833" lon="14.68738333"><ele>101.0</ele><time>2016-06-18T03:52:47.291Z</time></trkpt><trkpt lat="58.32426167" lon="14.68731"><ele>101.0</ele><time>2016-06-18T03:52:48.324Z</time></trkpt><trkpt lat="58.32426167" lon="14.68731"><ele>101.0</ele><time>2016-06-18T03:52:49.309Z</time></trkpt><trkpt lat="58.32411" lon="14.68724167"><ele>101.0</ele><time>2016-06-18T03:52:50.283Z</time></trkpt><trkpt lat="58.32411" lon="14.68724167"><ele>101.0</ele><time>2016-06-18T03:52:51.292Z</time></trkpt><trkpt lat="58.32395333" lon="14.68716833"><ele>101.0</ele><time>2016-06-18T03:52:52.300Z</time></trkpt><trkpt lat="58.32395333" lon="14.68716833"><ele>101.0</ele><time>2016-06-18T03:52:53.290Z</time></trkpt><trkpt lat="58.323795" lon="14.68710667"><ele>101.0</ele><time>2016-06-18T03:52:54.298Z</time></trkpt><trkpt lat="58.323795" lon="14.68710667"><ele>101.0</ele><time>2016-06-18T03:52:55.305Z</time></trkpt><trkpt lat="58.32363333" lon="14.68704167"><ele>101.0</ele><time>2016-06-18T03:52:56.304Z</time></trkpt><trkpt lat="58.32363333" lon="14.68704167"><ele>101.0</ele><time>2016-06-18T03:52:57.285Z</time></trkpt><trkpt lat="58.323475" lon="14.68698"><ele>102.0</ele><time>2016-06-18T03:52:58.309Z</time></trkpt><trkpt lat="58.323395" lon="14.68695167"><ele>102.0</ele><time>2016-06-18T03:52:59.310Z</time></trkpt><trkpt lat="58.323395" lon="14.68695167"><ele>102.0</ele><time>2016-06-18T03:53:00.294Z</time></trkpt><trkpt lat="58.32324" lon="14.686895"><ele>102.0</ele><time>2016-06-18T03:53:01.308Z</time></trkpt><trkpt lat="58.32324" lon="14.686895"><ele>102.0</ele><time>2016-06-18T03:53:02.282Z</time></trkpt><trkpt lat="58.32308333" lon="14.68682833"><ele>102.0</ele><time>2016-06-18T03:53:03.295Z</time></trkpt><trkpt lat="58.32308333" lon="14.68682833"><ele>102.0</ele><time>2016-06-18T03:53:04.301Z</time></trkpt><trkpt lat="58.32293333" lon="14.68675333"><ele>102.0</ele><time>2016-06-18T03:53:05.308Z</time></trkpt><trkpt lat="58.32293333" lon="14.68675333"><ele>102.0</ele><time>2016-06-18T03:53:06.285Z</time></trkpt><trkpt lat="58.32278167" lon="14.68668"><ele>102.0</ele><time>2016-06-18T03:53:07.302Z</time></trkpt><trkpt lat="58.322705" lon="14.68664"><ele>102.0</ele><time>2016-06-18T03:53:08.303Z</time></trkpt><trkpt lat="58.322705" lon="14.68664"><ele>102.0</ele><time>2016-06-18T03:53:09.303Z</time></trkpt><trkpt lat="58.32255667" lon="14.68655667"><ele>102.0</ele><time>2016-06-18T03:53:10.298Z</time></trkpt><trkpt lat="58.32255667" lon="14.68655667"><ele>102.0</ele><time>2016-06-18T03:53:11.317Z</time></trkpt><trkpt lat="58.32241333" lon="14.68648"><ele>102.0</ele><time>2016-06-18T03:53:12.286Z</time></trkpt><trkpt lat="58.32241333" lon="14.68648"><ele>102.0</ele><time>2016-06-18T03:53:13.294Z</time></trkpt><trkpt lat="58.32226833" lon="14.68641667"><ele>103.0</ele><time>2016-06-18T03:53:14.318Z</time></trkpt><trkpt lat="58.322195" lon="14.686385"><ele>103.0</ele><time>2016-06-18T03:53:15.301Z</time></trkpt><trkpt lat="58.32212333" lon="14.68635333"><ele>103.0</ele><time>2016-06-18T03:53:16.282Z</time></trkpt><trkpt lat="58.32212333" lon="14.68635333"><ele>103.0</ele><time>2016-06-18T03:53:17.293Z</time></trkpt><trkpt lat="58.32197833" lon="14.68628167"><ele>103.0</ele><time>2016-06-18T03:53:18.298Z</time></trkpt><trkpt lat="58.32197833" lon="14.68628167"><ele>103.0</ele><time>2016-06-18T03:53:19.299Z</time></trkpt><trkpt lat="58.32184667" lon="14.68621833"><ele>103.0</ele><time>2016-06-18T03:53:20.318Z</time></trkpt><trkpt lat="58.32184667" lon="14.68621833"><ele>103.0</ele><time>2016-06-18T03:53:21.290Z</time></trkpt><trkpt lat="58.32169" lon="14.686155"><ele>103.0</ele><time>2016-06-18T03:53:22.301Z</time></trkpt><trkpt lat="58.321615" lon="14.686125"><ele>103.0</ele><time>2016-06-18T03:53:23.288Z</time></trkpt><trkpt lat="58.321615" lon="14.686125"><ele>103.0</ele><time>2016-06-18T03:53:24.285Z</time></trkpt><trkpt lat="58.32145667" lon="14.68605833"><ele>103.0</ele><time>2016-06-18T03:53:25.284Z</time></trkpt><trkpt lat="58.32145667" lon="14.68605833"><ele>103.0</ele><time>2016-06-18T03:53:26.298Z</time></trkpt><trkpt lat="58.32129333" lon="14.68599167"><ele>103.0</ele><time>2016-06-18T03:53:27.299Z</time></trkpt><trkpt lat="58.32121" lon="14.68595667"><ele>103.0</ele><time>2016-06-18T03:53:28.303Z</time></trkpt><trkpt lat="58.32121" lon="14.68595667"><ele>103.0</ele><time>2016-06-18T03:53:29.301Z</time></trkpt><trkpt lat="58.32105167" lon="14.68588333"><ele>103.0</ele><time>2016-06-18T03:53:30.290Z</time></trkpt><trkpt lat="58.32105167" lon="14.68588333"><ele>103.0</ele><time>2016-06-18T03:53:31.282Z</time></trkpt><trkpt lat="58.32088667" lon="14.685805"><ele>103.0</ele><time>2016-06-18T03:53:32.298Z</time></trkpt><trkpt lat="58.32088667" lon="14.685805"><ele>103.0</ele><time>2016-06-18T03:53:33.288Z</time></trkpt><trkpt lat="58.320725" lon="14.68573167"><ele>103.0</ele><time>2016-06-18T03:53:34.308Z</time></trkpt><trkpt lat="58.320725" lon="14.68573167"><ele>103.0</ele><time>2016-06-18T03:53:35.285Z</time></trkpt><trkpt lat="58.32055833" lon="14.68566167"><ele>103.0</ele><time>2016-06-18T03:53:36.309Z</time></trkpt><trkpt lat="58.32047667" lon="14.68562667"><ele>103.0</ele><time>2016-06-18T03:53:37.298Z</time></trkpt><trkpt lat="58.320395" lon="14.68559"><ele>103.0</ele><time>2016-06-18T03:53:38.318Z</time></trkpt><trkpt lat="58.320395" lon="14.68559"><ele>103.0</ele><time>2016-06-18T03:53:39.282Z</time></trkpt><trkpt lat="58.32024" lon="14.68551"><ele>103.0</ele><time>2016-06-18T03:53:40.309Z</time></trkpt><trkpt lat="58.32024" lon="14.68551"><ele>103.0</ele><time>2016-06-18T03:53:41.283Z</time></trkpt><trkpt lat="58.320095" lon="14.685425"><ele>103.0</ele><time>2016-06-18T03:53:42.304Z</time></trkpt><trkpt lat="58.320095" lon="14.685425"><ele>103.0</ele><time>2016-06-18T03:53:43.303Z</time></trkpt><trkpt lat="58.31994" lon="14.685345"><ele>102.0</ele><time>2016-06-18T03:53:44.310Z</time></trkpt><trkpt lat="58.31994" lon="14.685345"><ele>102.0</ele><time>2016-06-18T03:53:45.296Z</time></trkpt><trkpt lat="58.31978333" lon="14.68525333"><ele>101.0</ele><time>2016-06-18T03:53:46.318Z</time></trkpt><trkpt lat="58.31978333" lon="14.68525333"><ele>101.0</ele><time>2016-06-18T03:53:47.310Z</time></trkpt><trkpt lat="58.31962833" lon="14.68514333"><ele>100.0</ele><time>2016-06-18T03:53:48.298Z</time></trkpt><trkpt lat="58.31955" lon="14.68508333"><ele>100.0</ele><time>2016-06-18T03:53:49.308Z</time></trkpt><trkpt lat="58.31947167" lon="14.68502833"><ele>100.0</ele><time>2016-06-18T03:53:50.309Z</time></trkpt><trkpt lat="58.31947167" lon="14.68502833"><ele>100.0</ele><time>2016-06-18T03:53:51.284Z</time></trkpt><trkpt lat="58.31933167" lon="14.68490167"><ele>100.0</ele><time>2016-06-18T03:53:52.303Z</time></trkpt><trkpt lat="58.31933167" lon="14.68490167"><ele>100.0</ele><time>2016-06-18T03:53:53.290Z</time></trkpt><trkpt lat="58.31919667" lon="14.68478167"><ele>100.0</ele><time>2016-06-18T03:53:54.301Z</time></trkpt><trkpt lat="58.31919667" lon="14.68478167"><ele>100.0</ele><time>2016-06-18T03:53:55.295Z</time></trkpt><trkpt lat="58.31905333" lon="14.68466667"><ele>100.0</ele><time>2016-06-18T03:53:56.303Z</time></trkpt><trkpt lat="58.31905333" lon="14.68466667"><ele>100.0</ele><time>2016-06-18T03:53:57.291Z</time></trkpt><trkpt lat="58.31890333" lon="14.68455167"><ele>99.0</ele><time>2016-06-18T03:53:58.309Z</time></trkpt><trkpt lat="58.31890333" lon="14.68455167"><ele>99.0</ele><time>2016-06-18T03:53:59.289Z</time></trkpt><trkpt lat="58.31875167" lon="14.68444"><ele>99.0</ele><time>2016-06-18T03:54:00.308Z</time></trkpt><trkpt lat="58.318675" lon="14.68438167"><ele>99.0</ele><time>2016-06-18T03:54:01.308Z</time></trkpt><trkpt lat="58.31859667" lon="14.68432333"><ele>99.0</ele><time>2016-06-18T03:54:02.305Z</time></trkpt><trkpt lat="58.31859667" lon="14.68432333"><ele>99.0</ele><time>2016-06-18T03:54:03.309Z</time></trkpt><trkpt lat="58.31845" lon="14.6842"><ele>99.0</ele><time>2016-06-18T03:54:04.298Z</time></trkpt><trkpt lat="58.31845" lon="14.6842"><ele>99.0</ele><time>2016-06-18T03:54:05.306Z</time></trkpt><trkpt lat="58.31831333" lon="14.684065"><ele>98.0</ele><time>2016-06-18T03:54:06.307Z</time></trkpt><trkpt lat="58.31824167" lon="14.68399167"><ele>98.0</ele><time>2016-06-18T03:54:07.289Z</time></trkpt><trkpt lat="58.31824167" lon="14.68399167"><ele>98.0</ele><time>2016-06-18T03:54:08.298Z</time></trkpt><trkpt lat="58.318105" lon="14.68384667"><ele>98.0</ele><time>2016-06-18T03:54:09.289Z</time></trkpt><trkpt lat="58.31803833" lon="14.683775"><ele>98.0</ele><time>2016-06-18T03:54:10.284Z</time></trkpt><trkpt lat="58.31803833" lon="14.683775"><ele>98.0</ele><time>2016-06-18T03:54:11.315Z</time></trkpt><trkpt lat="58.31790667" lon="14.68362833"><ele>98.0</ele><time>2016-06-18T03:54:12.284Z</time></trkpt><trkpt lat="58.317845" lon="14.68355333"><ele>98.0</ele><time>2016-06-18T03:54:13.295Z</time></trkpt><trkpt lat="58.31778333" lon="14.68347667"><ele>98.0</ele><time>2016-06-18T03:54:14.317Z</time></trkpt><trkpt lat="58.31778333" lon="14.68347667"><ele>98.0</ele><time>2016-06-18T03:54:15.285Z</time></trkpt><trkpt lat="58.31765333" lon="14.683335"><ele>97.0</ele><time>2016-06-18T03:54:16.292Z</time></trkpt><trkpt lat="58.31765333" lon="14.683335"><ele>97.0</ele><time>2016-06-18T03:54:17.299Z</time></trkpt><trkpt lat="58.31752167" lon="14.683185"><ele>97.0</ele><time>2016-06-18T03:54:18.297Z</time></trkpt><trkpt lat="58.31745" lon="14.683115"><ele>97.0</ele><time>2016-06-18T03:54:19.285Z</time></trkpt><trkpt lat="58.317385" lon="14.683025"><ele>97.0</ele><time>2016-06-18T03:54:20.295Z</time></trkpt><trkpt lat="58.317385" lon="14.683025"><ele>97.0</ele><time>2016-06-18T03:54:21.282Z</time></trkpt><trkpt lat="58.31724167" lon="14.68287667"><ele>97.0</ele><time>2016-06-18T03:54:22.307Z</time></trkpt><trkpt lat="58.31724167" lon="14.68287667"><ele>97.0</ele><time>2016-06-18T03:54:23.290Z</time></trkpt><trkpt lat="58.31711833" lon="14.68272167"><ele>97.0</ele><time>2016-06-18T03:54:24.298Z</time></trkpt><trkpt lat="58.31705" lon="14.68264833"><ele>97.0</ele><time>2016-06-18T03:54:25.308Z</time></trkpt><trkpt lat="58.31698333" lon="14.68256833"><ele>97.0</ele><time>2016-06-18T03:54:26.295Z</time></trkpt><trkpt lat="58.31698333" lon="14.68256833"><ele>97.0</ele><time>2016-06-18T03:54:27.286Z</time></trkpt><trkpt lat="58.316845" lon="14.68243167"><ele>98.0</ele><time>2016-06-18T03:54:28.312Z</time></trkpt><trkpt lat="58.316845" lon="14.68243167"><ele>98.0</ele><time>2016-06-18T03:54:29.285Z</time></trkpt><trkpt lat="58.316715" lon="14.68229833"><ele>98.0</ele><time>2016-06-18T03:54:30.308Z</time></trkpt><trkpt lat="58.316715" lon="14.68229833"><ele>98.0</ele><time>2016-06-18T03:54:31.288Z</time></trkpt><trkpt lat="58.316585" lon="14.68214333"><ele>98.0</ele><time>2016-06-18T03:54:32.312Z</time></trkpt><trkpt lat="58.316585" lon="14.68214333"><ele>98.0</ele><time>2016-06-18T03:54:33.290Z</time></trkpt><trkpt lat="58.31646" lon="14.681985"><ele>98.0</ele><time>2016-06-18T03:54:34.309Z</time></trkpt><trkpt lat="58.31646" lon="14.681985"><ele>98.0</ele><time>2016-06-18T03:54:35.284Z</time></trkpt><trkpt lat="58.31633667" lon="14.681825"><ele>98.0</ele><time>2016-06-18T03:54:36.298Z</time></trkpt><trkpt lat="58.31633667" lon="14.681825"><ele>98.0</ele><time>2016-06-18T03:54:37.287Z</time></trkpt><trkpt lat="58.31621167" lon="14.68165333"><ele>98.0</ele><time>2016-06-18T03:54:38.308Z</time></trkpt><trkpt lat="58.31621167" lon="14.68165333"><ele>98.0</ele><time>2016-06-18T03:54:39.285Z</time></trkpt><trkpt lat="58.316095" lon="14.68147667"><ele>98.0</ele><time>2016-06-18T03:54:40.301Z</time></trkpt><trkpt lat="58.316095" lon="14.68147667"><ele>98.0</ele><time>2016-06-18T03:54:41.303Z</time></trkpt><trkpt lat="58.315975" lon="14.68129167"><ele>98.0</ele><time>2016-06-18T03:54:42.299Z</time></trkpt><trkpt lat="58.31592" lon="14.6812"><ele>98.0</ele><time>2016-06-18T03:54:43.318Z</time></trkpt><trkpt lat="58.31586167" lon="14.68111333"><ele>98.0</ele><time>2016-06-18T03:54:44.328Z</time></trkpt><trkpt lat="58.31586167" lon="14.68111333"><ele>98.0</ele><time>2016-06-18T03:54:45.287Z</time></trkpt><trkpt lat="58.31575" lon="14.68093667"><ele>98.0</ele><time>2016-06-18T03:54:46.305Z</time></trkpt><trkpt lat="58.31569333" lon="14.68085333"><ele>98.0</ele><time>2016-06-18T03:54:47.302Z</time></trkpt><trkpt lat="58.31569333" lon="14.68085333"><ele>98.0</ele><time>2016-06-18T03:54:48.285Z</time></trkpt><trkpt lat="58.31557667" lon="14.68068833"><ele>98.0</ele><time>2016-06-18T03:54:49.308Z</time></trkpt><trkpt lat="58.31551333" lon="14.68060667"><ele>99.0</ele><time>2016-06-18T03:54:50.293Z</time></trkpt><trkpt lat="58.31551333" lon="14.68060667"><ele>99.0</ele><time>2016-06-18T03:54:51.283Z</time></trkpt><trkpt lat="58.31538833" lon="14.68043167"><ele>99.0</ele><time>2016-06-18T03:54:52.301Z</time></trkpt><trkpt lat="58.31538833" lon="14.68043167"><ele>99.0</ele><time>2016-06-18T03:54:53.317Z</time></trkpt><trkpt lat="58.31526667" lon="14.68027167"><ele>99.0</ele><time>2016-06-18T03:54:54.294Z</time></trkpt><trkpt lat="58.31526667" lon="14.68027167"><ele>99.0</ele><time>2016-06-18T03:54:55.304Z</time></trkpt><trkpt lat="58.31513833" lon="14.68009333"><ele>99.0</ele><time>2016-06-18T03:54:56.318Z</time></trkpt><trkpt lat="58.31513833" lon="14.68009333"><ele>99.0</ele><time>2016-06-18T03:54:57.299Z</time></trkpt><trkpt lat="58.315015" lon="14.679925"><ele>99.0</ele><time>2016-06-18T03:54:58.308Z</time></trkpt><trkpt lat="58.315015" lon="14.679925"><ele>99.0</ele><time>2016-06-18T03:54:59.284Z</time></trkpt><trkpt lat="58.31490167" lon="14.67977"><ele>100.0</ele><time>2016-06-18T03:55:00.328Z</time></trkpt><trkpt lat="58.314835" lon="14.67968667"><ele>100.0</ele><time>2016-06-18T03:55:01.305Z</time></trkpt><trkpt lat="58.314835" lon="14.67968667"><ele>100.0</ele><time>2016-06-18T03:55:02.306Z</time></trkpt><trkpt lat="58.3147" lon="14.679535"><ele>100.0</ele><time>2016-06-18T03:55:03.295Z</time></trkpt><trkpt lat="58.31464167" lon="14.67945833"><ele>100.0</ele><time>2016-06-18T03:55:04.316Z</time></trkpt><trkpt lat="58.31464167" lon="14.67945833"><ele>100.0</ele><time>2016-06-18T03:55:05.287Z</time></trkpt><trkpt lat="58.31453833" lon="14.679305"><ele>101.0</ele><time>2016-06-18T03:55:06.287Z</time></trkpt><trkpt lat="58.314485" lon="14.67922167"><ele>101.0</ele><time>2016-06-18T03:55:07.304Z</time></trkpt><trkpt lat="58.314485" lon="14.67922167"><ele>101.0</ele><time>2016-06-18T03:55:08.316Z</time></trkpt><trkpt lat="58.31435333" lon="14.67905"><ele>101.0</ele><time>2016-06-18T03:55:09.296Z</time></trkpt><trkpt lat="58.31435333" lon="14.67905"><ele>101.0</ele><time>2016-06-18T03:55:10.284Z</time></trkpt><trkpt lat="58.314225" lon="14.67888167"><ele>101.0</ele><time>2016-06-18T03:55:11.303Z</time></trkpt><trkpt lat="58.314225" lon="14.67888167"><ele>101.0</ele><time>2016-06-18T03:55:12.285Z</time></trkpt><trkpt lat="58.31408167" lon="14.67871167"><ele>102.0</ele><time>2016-06-18T03:55:13.318Z</time></trkpt><trkpt lat="58.31400667" lon="14.67863333"><ele>102.0</ele><time>2016-06-18T03:55:14.317Z</time></trkpt><trkpt lat="58.31400667" lon="14.67863333"><ele>102.0</ele><time>2016-06-18T03:55:15.283Z</time></trkpt><trkpt lat="58.313845" lon="14.678485"><ele>102.0</ele><time>2016-06-18T03:55:16.304Z</time></trkpt><trkpt lat="58.31375833" lon="14.678425"><ele>102.0</ele><time>2016-06-18T03:55:17.312Z</time></trkpt><trkpt lat="58.31375833" lon="14.678425"><ele>102.0</ele><time>2016-06-18T03:55:18.286Z</time></trkpt><trkpt lat="58.31359833" lon="14.67832833"><ele>103.0</ele><time>2016-06-18T03:55:19.306Z</time></trkpt><trkpt lat="58.31359833" lon="14.67832833"><ele>103.0</ele><time>2016-06-18T03:55:20.282Z</time></trkpt><trkpt lat="58.31344" lon="14.67823833"><ele>103.0</ele><time>2016-06-18T03:55:21.302Z</time></trkpt><trkpt lat="58.313365" lon="14.67818833"><ele>103.0</ele><time>2016-06-18T03:55:22.314Z</time></trkpt><trkpt lat="58.313365" lon="14.67818833"><ele>103.0</ele><time>2016-06-18T03:55:23.290Z</time></trkpt><trkpt lat="58.31321833" lon="14.67808"><ele>103.0</ele><time>2016-06-18T03:55:24.313Z</time></trkpt><trkpt lat="58.31321833" lon="14.67808"><ele>103.0</ele><time>2016-06-18T03:55:25.284Z</time></trkpt><trkpt lat="58.313095" lon="14.67797833"><ele>104.0</ele><time>2016-06-18T03:55:26.301Z</time></trkpt><trkpt lat="58.313095" lon="14.67797833"><ele>104.0</ele><time>2016-06-18T03:55:27.290Z</time></trkpt><trkpt lat="58.31295833" lon="14.67788667"><ele>104.0</ele><time>2016-06-18T03:55:28.318Z</time></trkpt><trkpt lat="58.31295833" lon="14.67788667"><ele>104.0</ele><time>2016-06-18T03:55:29.292Z</time></trkpt><trkpt lat="58.31281833" lon="14.67782667"><ele>105.0</ele><time>2016-06-18T03:55:30.292Z</time></trkpt><trkpt lat="58.31273833" lon="14.67778167"><ele>105.0</ele><time>2016-06-18T03:55:31.284Z</time></trkpt><trkpt lat="58.31265667" lon="14.67774833"><ele>105.0</ele><time>2016-06-18T03:55:32.291Z</time></trkpt><trkpt lat="58.31265667" lon="14.67774833"><ele>105.0</ele><time>2016-06-18T03:55:33.290Z</time></trkpt><trkpt lat="58.31250167" lon="14.67765333"><ele>105.0</ele><time>2016-06-18T03:55:34.318Z</time></trkpt><trkpt lat="58.31250167" lon="14.67765333"><ele>105.0</ele><time>2016-06-18T03:55:35.288Z</time></trkpt><trkpt lat="58.31235167" lon="14.67755333"><ele>105.0</ele><time>2016-06-18T03:55:36.306Z</time></trkpt><trkpt lat="58.31235167" lon="14.67755333"><ele>105.0</ele><time>2016-06-18T03:55:37.302Z</time></trkpt><trkpt lat="58.312195" lon="14.677455"><ele>105.0</ele><time>2016-06-18T03:55:38.319Z</time></trkpt><trkpt lat="58.312195" lon="14.677455"><ele>105.0</ele><time>2016-06-18T03:55:39.301Z</time></trkpt><trkpt lat="58.31204167" lon="14.67734833"><ele>104.0</ele><time>2016-06-18T03:55:40.311Z</time></trkpt><trkpt lat="58.31196167" lon="14.677295"><ele>104.0</ele><time>2016-06-18T03:55:41.303Z</time></trkpt><trkpt lat="58.31196167" lon="14.677295"><ele>104.0</ele><time>2016-06-18T03:55:42.287Z</time></trkpt><trkpt lat="58.31180333" lon="14.67719667"><ele>104.0</ele><time>2016-06-18T03:55:43.316Z</time></trkpt><trkpt lat="58.31172167" lon="14.67714833"><ele>104.0</ele><time>2016-06-18T03:55:44.305Z</time></trkpt><trkpt lat="58.31172167" lon="14.67714833"><ele>104.0</ele><time>2016-06-18T03:55:45.293Z</time></trkpt><trkpt lat="58.311555" lon="14.67705333"><ele>104.0</ele><time>2016-06-18T03:55:46.309Z</time></trkpt><trkpt lat="58.311555" lon="14.67705333"><ele>104.0</ele><time>2016-06-18T03:55:47.285Z</time></trkpt><trkpt lat="58.311395" lon="14.67696667"><ele>104.0</ele><time>2016-06-18T03:55:48.313Z</time></trkpt><trkpt lat="58.31131333" lon="14.676925"><ele>104.0</ele><time>2016-06-18T03:55:49.291Z</time></trkpt><trkpt lat="58.31131333" lon="14.676925"><ele>104.0</ele><time>2016-06-18T03:55:50.313Z</time></trkpt><trkpt lat="58.31115" lon="14.67683667"><ele>104.0</ele><time>2016-06-18T03:55:51.297Z</time></trkpt><trkpt lat="58.31107333" lon="14.67679167"><ele>104.0</ele><time>2016-06-18T03:55:52.320Z</time></trkpt><trkpt lat="58.31107333" lon="14.67679167"><ele>104.0</ele><time>2016-06-18T03:55:53.290Z</time></trkpt><trkpt lat="58.31092333" lon="14.67670667"><ele>104.0</ele><time>2016-06-18T03:55:54.324Z</time></trkpt><trkpt lat="58.31092333" lon="14.67670667"><ele>104.0</ele><time>2016-06-18T03:55:55.286Z</time></trkpt><trkpt lat="58.310765" lon="14.67660667"><ele>103.0</ele><time>2016-06-18T03:55:56.311Z</time></trkpt><trkpt lat="58.310765" lon="14.67660667"><ele>103.0</ele><time>2016-06-18T03:55:57.289Z</time></trkpt><trkpt lat="58.31061667" lon="14.67651333"><ele>103.0</ele><time>2016-06-18T03:55:58.304Z</time></trkpt><trkpt lat="58.310545" lon="14.676465"><ele>103.0</ele><time>2016-06-18T03:55:59.313Z</time></trkpt><trkpt lat="58.310545" lon="14.676465"><ele>103.0</ele><time>2016-06-18T03:56:00.301Z</time></trkpt><trkpt lat="58.3104" lon="14.67637167"><ele>103.0</ele><time>2016-06-18T03:56:01.301Z</time></trkpt><trkpt lat="58.31032833" lon="14.67633167"><ele>103.0</ele><time>2016-06-18T03:56:02.306Z</time></trkpt><trkpt lat="58.31032833" lon="14.67633167"><ele>103.0</ele><time>2016-06-18T03:56:03.290Z</time></trkpt><trkpt lat="58.31019833" lon="14.67624333"><ele>103.0</ele><time>2016-06-18T03:56:04.305Z</time></trkpt><trkpt lat="58.31012833" lon="14.67621333"><ele>102.0</ele><time>2016-06-18T03:56:05.318Z</time></trkpt><trkpt lat="58.31012833" lon="14.67621333"><ele>102.0</ele><time>2016-06-18T03:56:06.286Z</time></trkpt><trkpt lat="58.30999667" lon="14.67613333"><ele>102.0</ele><time>2016-06-18T03:56:07.311Z</time></trkpt><trkpt lat="58.30992833" lon="14.67608667"><ele>102.0</ele><time>2016-06-18T03:56:08.317Z</time></trkpt><trkpt lat="58.30992833" lon="14.67608667"><ele>102.0</ele><time>2016-06-18T03:56:09.286Z</time></trkpt><trkpt lat="58.309795" lon="14.67600333"><ele>102.0</ele><time>2016-06-18T03:56:10.308Z</time></trkpt><trkpt lat="58.309795" lon="14.67600333"><ele>102.0</ele><time>2016-06-18T03:56:11.294Z</time></trkpt><trkpt lat="58.30966" lon="14.67590167"><ele>102.0</ele><time>2016-06-18T03:56:12.300Z</time></trkpt><trkpt lat="58.30966" lon="14.67590167"><ele>102.0</ele><time>2016-06-18T03:56:13.305Z</time></trkpt><trkpt lat="58.30952" lon="14.67577667"><ele>102.0</ele><time>2016-06-18T03:56:14.309Z</time></trkpt><trkpt lat="58.30944833" lon="14.67571333"><ele>102.0</ele><time>2016-06-18T03:56:15.306Z</time></trkpt><trkpt lat="58.30944833" lon="14.67571333"><ele>102.0</ele><time>2016-06-18T03:56:16.319Z</time></trkpt><trkpt lat="58.30929667" lon="14.67557667"><ele>102.0</ele><time>2016-06-18T03:56:17.311Z</time></trkpt><trkpt lat="58.30929667" lon="14.67557667"><ele>102.0</ele><time>2016-06-18T03:56:18.287Z</time></trkpt><trkpt lat="58.30914833" lon="14.67543833"><ele>101.0</ele><time>2016-06-18T03:56:19.288Z</time></trkpt><trkpt lat="58.30907667" lon="14.67536667"><ele>101.0</ele><time>2016-06-18T03:56:20.305Z</time></trkpt><trkpt lat="58.30907667" lon="14.67536667"><ele>101.0</ele><time>2016-06-18T03:56:21.286Z</time></trkpt><trkpt lat="58.30894167" lon="14.67522667"><ele>101.0</ele><time>2016-06-18T03:56:22.310Z</time></trkpt><trkpt lat="58.30887167" lon="14.675155"><ele>101.0</ele><time>2016-06-18T03:56:23.282Z</time></trkpt><trkpt lat="58.30887167" lon="14.675155"><ele>101.0</ele><time>2016-06-18T03:56:24.285Z</time></trkpt><trkpt lat="58.30873167" lon="14.675005"><ele>101.0</ele><time>2016-06-18T03:56:25.304Z</time></trkpt><trkpt lat="58.30866167" lon="14.67492333"><ele>101.0</ele><time>2016-06-18T03:56:26.312Z</time></trkpt><trkpt lat="58.30866167" lon="14.67492333"><ele>101.0</ele><time>2016-06-18T03:56:27.286Z</time></trkpt><trkpt lat="58.30852333" lon="14.67476167"><ele>101.0</ele><time>2016-06-18T03:56:28.310Z</time></trkpt><trkpt lat="58.30852333" lon="14.67476167"><ele>101.0</ele><time>2016-06-18T03:56:29.284Z</time></trkpt><trkpt lat="58.308395" lon="14.67462167"><ele>101.0</ele><time>2016-06-18T03:56:30.324Z</time></trkpt><trkpt lat="58.30833167" lon="14.67455333"><ele>101.0</ele><time>2016-06-18T03:56:31.312Z</time></trkpt><trkpt lat="58.30826167" lon="14.67449333"><ele>101.0</ele><time>2016-06-18T03:56:32.321Z</time></trkpt><trkpt lat="58.30826167" lon="14.67449333"><ele>101.0</ele><time>2016-06-18T03:56:33.290Z</time></trkpt><trkpt lat="58.30811667" lon="14.67436"><ele>100.0</ele><time>2016-06-18T03:56:34.304Z</time></trkpt><trkpt lat="58.30811667" lon="14.67436"><ele>100.0</ele><time>2016-06-18T03:56:35.287Z</time></trkpt><trkpt lat="58.30797167" lon="14.67422833"><ele>100.0</ele><time>2016-06-18T03:56:36.311Z</time></trkpt><trkpt lat="58.30797167" lon="14.67422833"><ele>100.0</ele><time>2016-06-18T03:56:37.289Z</time></trkpt><trkpt lat="58.30782833" lon="14.67409667"><ele>100.0</ele><time>2016-06-18T03:56:38.309Z</time></trkpt><trkpt lat="58.30782833" lon="14.67409667"><ele>100.0</ele><time>2016-06-18T03:56:39.309Z</time></trkpt><trkpt lat="58.30768" lon="14.67397833"><ele>100.0</ele><time>2016-06-18T03:56:40.292Z</time></trkpt><trkpt lat="58.30768" lon="14.67397833"><ele>100.0</ele><time>2016-06-18T03:56:41.312Z</time></trkpt><trkpt lat="58.307535" lon="14.67387667"><ele>100.0</ele><time>2016-06-18T03:56:42.298Z</time></trkpt><trkpt lat="58.307535" lon="14.67387667"><ele>100.0</ele><time>2016-06-18T03:56:43.290Z</time></trkpt><trkpt lat="58.30738833" lon="14.673765"><ele>100.0</ele><time>2016-06-18T03:56:44.306Z</time></trkpt><trkpt lat="58.30738833" lon="14.673765"><ele>100.0</ele><time>2016-06-18T03:56:45.286Z</time></trkpt><trkpt lat="58.30723833" lon="14.67367333"><ele>100.0</ele><time>2016-06-18T03:56:46.318Z</time></trkpt><trkpt lat="58.30723833" lon="14.67367333"><ele>100.0</ele><time>2016-06-18T03:56:47.287Z</time></trkpt><trkpt lat="58.30708833" lon="14.67358167"><ele>100.0</ele><time>2016-06-18T03:56:48.304Z</time></trkpt><trkpt lat="58.30701333" lon="14.67353667"><ele>100.0</ele><time>2016-06-18T03:56:49.306Z</time></trkpt><trkpt lat="58.30701333" lon="14.67353667"><ele>100.0</ele><time>2016-06-18T03:56:50.287Z</time></trkpt><trkpt lat="58.30686167" lon="14.67343667"><ele>100.0</ele><time>2016-06-18T03:56:51.308Z</time></trkpt><trkpt lat="58.30678333" lon="14.67338833"><ele>100.0</ele><time>2016-06-18T03:56:52.318Z</time></trkpt><trkpt lat="58.30670667" lon="14.673345"><ele>100.0</ele><time>2016-06-18T03:56:53.318Z</time></trkpt><trkpt lat="58.30670667" lon="14.673345"><ele>100.0</ele><time>2016-06-18T03:56:54.287Z</time></trkpt><trkpt lat="58.30655333" lon="14.67325667"><ele>99.0</ele><time>2016-06-18T03:56:55.312Z</time></trkpt><trkpt lat="58.30647833" lon="14.67320667"><ele>99.0</ele><time>2016-06-18T03:56:56.318Z</time></trkpt><trkpt lat="58.30647833" lon="14.67320667"><ele>99.0</ele><time>2016-06-18T03:56:57.292Z</time></trkpt><trkpt lat="58.30632833" lon="14.67311333"><ele>99.0</ele><time>2016-06-18T03:56:58.313Z</time></trkpt><trkpt lat="58.30625333" lon="14.67306333"><ele>99.0</ele><time>2016-06-18T03:56:59.304Z</time></trkpt><trkpt lat="58.30625333" lon="14.67306333"><ele>99.0</ele><time>2016-06-18T03:57:00.292Z</time></trkpt><trkpt lat="58.30610167" lon="14.67296667"><ele>99.0</ele><time>2016-06-18T03:57:01.302Z</time></trkpt><trkpt lat="58.306025" lon="14.67292167"><ele>99.0</ele><time>2016-06-18T03:57:02.312Z</time></trkpt><trkpt lat="58.306025" lon="14.67292167"><ele>99.0</ele><time>2016-06-18T03:57:03.290Z</time></trkpt><trkpt lat="58.305875" lon="14.672835"><ele>99.0</ele><time>2016-06-18T03:57:04.308Z</time></trkpt><trkpt lat="58.3058" lon="14.67279333"><ele>99.0</ele><time>2016-06-18T03:57:05.307Z</time></trkpt><trkpt lat="58.3058" lon="14.67279333"><ele>99.0</ele><time>2016-06-18T03:57:06.287Z</time></trkpt><trkpt lat="58.30565167" lon="14.67270333"><ele>99.0</ele><time>2016-06-18T03:57:07.311Z</time></trkpt><trkpt lat="58.30557667" lon="14.67265833"><ele>99.0</ele><time>2016-06-18T03:57:08.317Z</time></trkpt><trkpt lat="58.30557667" lon="14.67265833"><ele>99.0</ele><time>2016-06-18T03:57:09.285Z</time></trkpt><trkpt lat="58.30542667" lon="14.67257167"><ele>99.0</ele><time>2016-06-18T03:57:10.307Z</time></trkpt><trkpt lat="58.30542667" lon="14.67257167"><ele>99.0</ele><time>2016-06-18T03:57:11.299Z</time></trkpt><trkpt lat="58.30527333" lon="14.67247833"><ele>99.0</ele><time>2016-06-18T03:57:12.308Z</time></trkpt><trkpt lat="58.30527333" lon="14.67247833"><ele>99.0</ele><time>2016-06-18T03:57:13.285Z</time></trkpt><trkpt lat="58.30511833" lon="14.67238833"><ele>99.0</ele><time>2016-06-18T03:57:14.316Z</time></trkpt><trkpt lat="58.30511833" lon="14.67238833"><ele>99.0</ele><time>2016-06-18T03:57:15.287Z</time></trkpt><trkpt lat="58.30496333" lon="14.67230167"><ele>99.0</ele><time>2016-06-18T03:57:16.313Z</time></trkpt><trkpt lat="58.30496333" lon="14.67230167"><ele>99.0</ele><time>2016-06-18T03:57:17.293Z</time></trkpt><trkpt lat="58.30480667" lon="14.67221167"><ele>99.0</ele><time>2016-06-18T03:57:18.312Z</time></trkpt><trkpt lat="58.30480667" lon="14.67221167"><ele>99.0</ele><time>2016-06-18T03:57:19.287Z</time></trkpt><trkpt lat="58.30465167" lon="14.67212"><ele>98.0</ele><time>2016-06-18T03:57:20.294Z</time></trkpt><trkpt lat="58.30465167" lon="14.67212"><ele>98.0</ele><time>2016-06-18T03:57:21.313Z</time></trkpt><trkpt lat="58.3045" lon="14.67203"><ele>98.0</ele><time>2016-06-18T03:57:22.297Z</time></trkpt><trkpt lat="58.3045" lon="14.67203"><ele>98.0</ele><time>2016-06-18T03:57:23.290Z</time></trkpt><trkpt lat="58.30434667" lon="14.67194167"><ele>99.0</ele><time>2016-06-18T03:57:24.307Z</time></trkpt><trkpt lat="58.30427" lon="14.67190167"><ele>98.0</ele><time>2016-06-18T03:57:25.304Z</time></trkpt><trkpt lat="58.30419333" lon="14.67186167"><ele>99.0</ele><time>2016-06-18T03:57:26.313Z</time></trkpt><trkpt lat="58.30419333" lon="14.67186167"><ele>99.0</ele><time>2016-06-18T03:57:27.288Z</time></trkpt><trkpt lat="58.30405167" lon="14.67178"><ele>99.0</ele><time>2016-06-18T03:57:28.305Z</time></trkpt><trkpt lat="58.303985" lon="14.67173667"><ele>99.0</ele><time>2016-06-18T03:57:29.304Z</time></trkpt><trkpt lat="58.303985" lon="14.67173667"><ele>99.0</ele><time>2016-06-18T03:57:30.288Z</time></trkpt><trkpt lat="58.30385167" lon="14.67165167"><ele>99.0</ele><time>2016-06-18T03:57:31.283Z</time></trkpt><trkpt lat="58.30378667" lon="14.67161667"><ele>99.0</ele><time>2016-06-18T03:57:32.306Z</time></trkpt><trkpt lat="58.30378667" lon="14.67161667"><ele>99.0</ele><time>2016-06-18T03:57:33.290Z</time></trkpt><trkpt lat="58.30364667" lon="14.67152667"><ele>99.0</ele><time>2016-06-18T03:57:34.304Z</time></trkpt><trkpt lat="58.30364667" lon="14.67152667"><ele>99.0</ele><time>2016-06-18T03:57:35.287Z</time></trkpt><trkpt lat="58.30350167" lon="14.67144167"><ele>99.0</ele><time>2016-06-18T03:57:36.312Z</time></trkpt><trkpt lat="58.30350167" lon="14.67144167"><ele>99.0</ele><time>2016-06-18T03:57:37.287Z</time></trkpt><trkpt lat="58.303355" lon="14.67135333"><ele>99.0</ele><time>2016-06-18T03:57:38.305Z</time></trkpt><trkpt lat="58.303355" lon="14.67135333"><ele>99.0</ele><time>2016-06-18T03:57:39.287Z</time></trkpt><trkpt lat="58.30320167" lon="14.67126667"><ele>99.0</ele><time>2016-06-18T03:57:40.284Z</time></trkpt><trkpt lat="58.30320167" lon="14.67126667"><ele>99.0</ele><time>2016-06-18T03:57:41.288Z</time></trkpt><trkpt lat="58.30305333" lon="14.67118"><ele>99.0</ele><time>2016-06-18T03:57:42.307Z</time></trkpt><trkpt lat="58.30305333" lon="14.67118"><ele>99.0</ele><time>2016-06-18T03:57:43.295Z</time></trkpt><trkpt lat="58.30290833" lon="14.671095"><ele>99.0</ele><time>2016-06-18T03:57:44.308Z</time></trkpt><trkpt lat="58.30290833" lon="14.671095"><ele>99.0</ele><time>2016-06-18T03:57:45.308Z</time></trkpt><trkpt lat="58.302755" lon="14.67100833"><ele>99.0</ele><time>2016-06-18T03:57:46.298Z</time></trkpt><trkpt lat="58.30267667" lon="14.670965"><ele>99.0</ele><time>2016-06-18T03:57:47.304Z</time></trkpt><trkpt lat="58.30259667" lon="14.67092167"><ele>99.0</ele><time>2016-06-18T03:57:48.306Z</time></trkpt><trkpt lat="58.30259667" lon="14.67092167"><ele>99.0</ele><time>2016-06-18T03:57:49.310Z</time></trkpt><trkpt lat="58.30243833" lon="14.67083"><ele>99.0</ele><time>2016-06-18T03:57:50.285Z</time></trkpt><trkpt lat="58.30243833" lon="14.67083"><ele>99.0</ele><time>2016-06-18T03:57:51.309Z</time></trkpt><trkpt lat="58.30228167" lon="14.67073833"><ele>99.0</ele><time>2016-06-18T03:57:52.304Z</time></trkpt><trkpt lat="58.30228167" lon="14.67073833"><ele>99.0</ele><time>2016-06-18T03:57:53.290Z</time></trkpt><trkpt lat="58.302125" lon="14.67064667"><ele>99.0</ele><time>2016-06-18T03:57:54.313Z</time></trkpt><trkpt lat="58.30204667" lon="14.67059667"><ele>99.0</ele><time>2016-06-18T03:57:55.319Z</time></trkpt><trkpt lat="58.30197" lon="14.67054833"><ele>99.0</ele><time>2016-06-18T03:57:56.311Z</time></trkpt><trkpt lat="58.30197" lon="14.67054833"><ele>99.0</ele><time>2016-06-18T03:57:57.285Z</time></trkpt><trkpt lat="58.301815" lon="14.67045667"><ele>99.0</ele><time>2016-06-18T03:57:58.306Z</time></trkpt><trkpt lat="58.301815" lon="14.67045667"><ele>99.0</ele><time>2016-06-18T03:57:59.287Z</time></trkpt><trkpt lat="58.30166667" lon="14.67036833"><ele>100.0</ele><time>2016-06-18T03:58:00.338Z</time></trkpt><trkpt lat="58.30166667" lon="14.67036833"><ele>100.0</ele><time>2016-06-18T03:58:01.287Z</time></trkpt><trkpt lat="58.30152167" lon="14.670285"><ele>100.0</ele><time>2016-06-18T03:58:02.319Z</time></trkpt><trkpt lat="58.30152167" lon="14.670285"><ele>100.0</ele><time>2016-06-18T03:58:03.298Z</time></trkpt><trkpt lat="58.30138" lon="14.67021"><ele>100.0</ele><time>2016-06-18T03:58:04.307Z</time></trkpt><trkpt lat="58.30131167" lon="14.67016833"><ele>100.0</ele><time>2016-06-18T03:58:05.288Z</time></trkpt><trkpt lat="58.30131167" lon="14.67016833"><ele>100.0</ele><time>2016-06-18T03:58:06.288Z</time></trkpt><trkpt lat="58.30117667" lon="14.67008167"><ele>100.0</ele><time>2016-06-18T03:58:07.318Z</time></trkpt><trkpt lat="58.30110833" lon="14.67003667"><ele>100.0</ele><time>2016-06-18T03:58:08.306Z</time></trkpt><trkpt lat="58.30110833" lon="14.67003667"><ele>100.0</ele><time>2016-06-18T03:58:09.282Z</time></trkpt><trkpt lat="58.300965" lon="14.66994833"><ele>100.0</ele><time>2016-06-18T03:58:10.294Z</time></trkpt><trkpt lat="58.300965" lon="14.66994833"><ele>100.0</ele><time>2016-06-18T03:58:11.305Z</time></trkpt><trkpt lat="58.30081667" lon="14.66986"><ele>99.0</ele><time>2016-06-18T03:58:12.317Z</time></trkpt><trkpt lat="58.30081667" lon="14.66986"><ele>99.0</ele><time>2016-06-18T03:58:13.292Z</time></trkpt><trkpt lat="58.30067167" lon="14.66976667"><ele>99.0</ele><time>2016-06-18T03:58:14.298Z</time></trkpt><trkpt lat="58.30067167" lon="14.66976667"><ele>99.0</ele><time>2016-06-18T03:58:15.287Z</time></trkpt><trkpt lat="58.300525" lon="14.66967"><ele>99.0</ele><time>2016-06-18T03:58:16.318Z</time></trkpt><trkpt lat="58.30045" lon="14.66962"><ele>99.0</ele><time>2016-06-18T03:58:17.316Z</time></trkpt><trkpt lat="58.30045" lon="14.66962"><ele>99.0</ele><time>2016-06-18T03:58:18.286Z</time></trkpt><trkpt lat="58.3003" lon="14.669515"><ele>99.0</ele><time>2016-06-18T03:58:19.285Z</time></trkpt><trkpt lat="58.30022333" lon="14.66946"><ele>99.0</ele><time>2016-06-18T03:58:20.317Z</time></trkpt><trkpt lat="58.30022333" lon="14.66946"><ele>99.0</ele><time>2016-06-18T03:58:21.288Z</time></trkpt><trkpt lat="58.30007" lon="14.669345"><ele>98.0</ele><time>2016-06-18T03:58:22.307Z</time></trkpt><trkpt lat="58.30007" lon="14.669345"><ele>98.0</ele><time>2016-06-18T03:58:23.290Z</time></trkpt><trkpt lat="58.299915" lon="14.66923167"><ele>98.0</ele><time>2016-06-18T03:58:24.323Z</time></trkpt><trkpt lat="58.299915" lon="14.66923167"><ele>98.0</ele><time>2016-06-18T03:58:25.287Z</time></trkpt><trkpt lat="58.29976167" lon="14.66911333"><ele>98.0</ele><time>2016-06-18T03:58:26.307Z</time></trkpt><trkpt lat="58.29976167" lon="14.66911333"><ele>98.0</ele><time>2016-06-18T03:58:27.285Z</time></trkpt><trkpt lat="58.299605" lon="14.668985"><ele>98.0</ele><time>2016-06-18T03:58:28.308Z</time></trkpt><trkpt lat="58.29952833" lon="14.66891833"><ele>98.0</ele><time>2016-06-18T03:58:29.317Z</time></trkpt><trkpt lat="58.29952833" lon="14.66891833"><ele>98.0</ele><time>2016-06-18T03:58:30.296Z</time></trkpt><trkpt lat="58.29937833" lon="14.668785"><ele>98.0</ele><time>2016-06-18T03:58:31.297Z</time></trkpt><trkpt lat="58.29937833" lon="14.668785"><ele>98.0</ele><time>2016-06-18T03:58:32.285Z</time></trkpt><trkpt lat="58.29923" lon="14.66865167"><ele>97.0</ele><time>2016-06-18T03:58:33.295Z</time></trkpt><trkpt lat="58.29915833" lon="14.668585"><ele>97.0</ele><time>2016-06-18T03:58:34.318Z</time></trkpt><trkpt lat="58.29915833" lon="14.668585"><ele>97.0</ele><time>2016-06-18T03:58:35.295Z</time></trkpt><trkpt lat="58.29901" lon="14.66844667"><ele>96.0</ele><time>2016-06-18T03:58:36.297Z</time></trkpt><trkpt lat="58.29901" lon="14.66844667"><ele>96.0</ele><time>2016-06-18T03:58:37.286Z</time></trkpt><trkpt lat="58.29885833" lon="14.668315"><ele>96.0</ele><time>2016-06-18T03:58:38.312Z</time></trkpt><trkpt lat="58.29885833" lon="14.668315"><ele>96.0</ele><time>2016-06-18T03:58:39.285Z</time></trkpt><trkpt lat="58.29870833" lon="14.66818167"><ele>97.0</ele><time>2016-06-18T03:58:40.315Z</time></trkpt><trkpt lat="58.29870833" lon="14.66818167"><ele>97.0</ele><time>2016-06-18T03:58:41.287Z</time></trkpt><trkpt lat="58.298565" lon="14.668045"><ele>97.0</ele><time>2016-06-18T03:58:42.306Z</time></trkpt><trkpt lat="58.298565" lon="14.668045"><ele>97.0</ele><time>2016-06-18T03:58:43.292Z</time></trkpt><trkpt lat="58.298435" lon="14.66789667"><ele>96.0</ele><time>2016-06-18T03:58:44.308Z</time></trkpt><trkpt lat="58.298435" lon="14.66789667"><ele>96.0</ele><time>2016-06-18T03:58:45.286Z</time></trkpt><trkpt lat="58.29831167" lon="14.66774667"><ele>96.0</ele><time>2016-06-18T03:58:46.312Z</time></trkpt><trkpt lat="58.29831167" lon="14.66774667"><ele>96.0</ele><time>2016-06-18T03:58:47.286Z</time></trkpt><trkpt lat="58.298185" lon="14.66759667"><ele>96.0</ele><time>2016-06-18T03:58:48.305Z</time></trkpt><trkpt lat="58.298185" lon="14.66759667"><ele>96.0</ele><time>2016-06-18T03:58:49.286Z</time></trkpt><trkpt lat="58.29806" lon="14.66744"><ele>95.0</ele><time>2016-06-18T03:58:50.308Z</time></trkpt><trkpt lat="58.29806" lon="14.66744"><ele>95.0</ele><time>2016-06-18T03:58:51.302Z</time></trkpt><trkpt lat="58.29793167" lon="14.66728667"><ele>95.0</ele><time>2016-06-18T03:58:52.317Z</time></trkpt><trkpt lat="58.29786667" lon="14.66721"><ele>95.0</ele><time>2016-06-18T03:58:53.304Z</time></trkpt><trkpt lat="58.29780167" lon="14.66713333"><ele>95.0</ele><time>2016-06-18T03:58:54.316Z</time></trkpt><trkpt lat="58.29780167" lon="14.66713333"><ele>95.0</ele><time>2016-06-18T03:58:55.296Z</time></trkpt><trkpt lat="58.297675" lon="14.666975"><ele>95.0</ele><time>2016-06-18T03:58:56.308Z</time></trkpt><trkpt lat="58.29761" lon="14.66689333"><ele>95.0</ele><time>2016-06-18T03:58:57.308Z</time></trkpt><trkpt lat="58.29761" lon="14.66689333"><ele>95.0</ele><time>2016-06-18T03:58:58.286Z</time></trkpt><trkpt lat="58.29747667" lon="14.66673"><ele>95.0</ele><time>2016-06-18T03:58:59.321Z</time></trkpt><trkpt lat="58.29747667" lon="14.66673"><ele>95.0</ele><time>2016-06-18T03:59:00.291Z</time></trkpt><trkpt lat="58.29734833" lon="14.66656333"><ele>95.0</ele><time>2016-06-18T03:59:01.303Z</time></trkpt><trkpt lat="58.29734833" lon="14.66656333"><ele>95.0</ele><time>2016-06-18T03:59:02.293Z</time></trkpt><trkpt lat="58.29722167" lon="14.66639667"><ele>95.0</ele><time>2016-06-18T03:59:03.308Z</time></trkpt><trkpt lat="58.29722167" lon="14.66639667"><ele>95.0</ele><time>2016-06-18T03:59:04.286Z</time></trkpt><trkpt lat="58.2971" lon="14.66622667"><ele>95.0</ele><time>2016-06-18T03:59:05.306Z</time></trkpt><trkpt lat="58.29703667" lon="14.66614"><ele>95.0</ele><time>2016-06-18T03:59:06.317Z</time></trkpt><trkpt lat="58.29703667" lon="14.66614"><ele>95.0</ele><time>2016-06-18T03:59:07.286Z</time></trkpt><trkpt lat="58.29691667" lon="14.66596833"><ele>95.0</ele><time>2016-06-18T03:59:08.308Z</time></trkpt><trkpt lat="58.29691667" lon="14.66596833"><ele>95.0</ele><time>2016-06-18T03:59:09.287Z</time></trkpt><trkpt lat="58.296805" lon="14.66580333"><ele>95.0</ele><time>2016-06-18T03:59:10.306Z</time></trkpt><trkpt lat="58.296805" lon="14.66580333"><ele>95.0</ele><time>2016-06-18T03:59:11.318Z</time></trkpt><trkpt lat="58.29669333" lon="14.66563167"><ele>94.0</ele><time>2016-06-18T03:59:12.298Z</time></trkpt><trkpt lat="58.29663833" lon="14.665545"><ele>94.0</ele><time>2016-06-18T03:59:13.290Z</time></trkpt><trkpt lat="58.296585" lon="14.66545667"><ele>94.0</ele><time>2016-06-18T03:59:14.289Z</time></trkpt><trkpt lat="58.296585" lon="14.66545667"><ele>94.0</ele><time>2016-06-18T03:59:15.300Z</time></trkpt><trkpt lat="58.29647667" lon="14.66527333"><ele>94.0</ele><time>2016-06-18T03:59:16.306Z</time></trkpt><trkpt lat="58.29642167" lon="14.66518333"><ele>94.0</ele><time>2016-06-18T03:59:17.318Z</time></trkpt><trkpt lat="58.29642167" lon="14.66518333"><ele>94.0</ele><time>2016-06-18T03:59:18.286Z</time></trkpt><trkpt lat="58.29630833" lon="14.665"><ele>94.0</ele><time>2016-06-18T03:59:19.316Z</time></trkpt><trkpt lat="58.29625167" lon="14.664905"><ele>94.0</ele><time>2016-06-18T03:59:20.319Z</time></trkpt><trkpt lat="58.29625167" lon="14.664905"><ele>94.0</ele><time>2016-06-18T03:59:21.300Z</time></trkpt><trkpt lat="58.29614" lon="14.66471167"><ele>94.0</ele><time>2016-06-18T03:59:22.304Z</time></trkpt><trkpt lat="58.29608333" lon="14.664615"><ele>93.0</ele><time>2016-06-18T03:59:23.294Z</time></trkpt><trkpt lat="58.29608333" lon="14.664615"><ele>93.0</ele><time>2016-06-18T03:59:24.304Z</time></trkpt><trkpt lat="58.29596833" lon="14.66442667"><ele>93.0</ele><time>2016-06-18T03:59:25.317Z</time></trkpt><trkpt lat="58.29591" lon="14.66433167"><ele>93.0</ele><time>2016-06-18T03:59:26.296Z</time></trkpt><trkpt lat="58.29591" lon="14.66433167"><ele>93.0</ele><time>2016-06-18T03:59:27.289Z</time></trkpt><trkpt lat="58.29579333" lon="14.66414167"><ele>93.0</ele><time>2016-06-18T03:59:28.307Z</time></trkpt><trkpt lat="58.29579333" lon="14.66414167"><ele>93.0</ele><time>2016-06-18T03:59:29.286Z</time></trkpt><trkpt lat="58.29568" lon="14.66394167"><ele>93.0</ele><time>2016-06-18T03:59:30.307Z</time></trkpt><trkpt lat="58.29562167" lon="14.66384"><ele>93.0</ele><time>2016-06-18T03:59:31.308Z</time></trkpt><trkpt lat="58.29556167" lon="14.66374167"><ele>93.0</ele><time>2016-06-18T03:59:32.298Z</time></trkpt><trkpt lat="58.29556167" lon="14.66374167"><ele>93.0</ele><time>2016-06-18T03:59:33.290Z</time></trkpt><trkpt lat="58.29544333" lon="14.66354333"><ele>93.0</ele><time>2016-06-18T03:59:34.308Z</time></trkpt><trkpt lat="58.29544333" lon="14.66354333"><ele>93.0</ele><time>2016-06-18T03:59:35.303Z</time></trkpt><trkpt lat="58.29532833" lon="14.66333833"><ele>93.0</ele><time>2016-06-18T03:59:36.318Z</time></trkpt><trkpt lat="58.29532833" lon="14.66333833"><ele>93.0</ele><time>2016-06-18T03:59:37.288Z</time></trkpt><trkpt lat="58.29521" lon="14.663135"><ele>93.0</ele><time>2016-06-18T03:59:38.318Z</time></trkpt><trkpt lat="58.29521" lon="14.663135"><ele>93.0</ele><time>2016-06-18T03:59:39.300Z</time></trkpt><trkpt lat="58.29509333" lon="14.66293667"><ele>93.0</ele><time>2016-06-18T03:59:40.297Z</time></trkpt><trkpt lat="58.295035" lon="14.66283333"><ele>93.0</ele><time>2016-06-18T03:59:41.308Z</time></trkpt><trkpt lat="58.29497667" lon="14.66273333"><ele>93.0</ele><time>2016-06-18T03:59:42.318Z</time></trkpt><trkpt lat="58.29497667" lon="14.66273333"><ele>93.0</ele><time>2016-06-18T03:59:43.299Z</time></trkpt><trkpt lat="58.29485833" lon="14.66253167"><ele>93.0</ele><time>2016-06-18T03:59:44.316Z</time></trkpt><trkpt lat="58.29485833" lon="14.66253167"><ele>93.0</ele><time>2016-06-18T03:59:45.286Z</time></trkpt><trkpt lat="58.29474" lon="14.66232667"><ele>93.0</ele><time>2016-06-18T03:59:46.308Z</time></trkpt><trkpt lat="58.29474" lon="14.66232667"><ele>93.0</ele><time>2016-06-18T03:59:47.288Z</time></trkpt><trkpt lat="58.29462167" lon="14.66212333"><ele>93.0</ele><time>2016-06-18T03:59:48.307Z</time></trkpt><trkpt lat="58.29462167" lon="14.66212333"><ele>93.0</ele><time>2016-06-18T03:59:49.286Z</time></trkpt><trkpt lat="58.294505" lon="14.66192333"><ele>93.0</ele><time>2016-06-18T03:59:50.318Z</time></trkpt><trkpt lat="58.294505" lon="14.66192333"><ele>93.0</ele><time>2016-06-18T03:59:51.304Z</time></trkpt><trkpt lat="58.29439" lon="14.66173167"><ele>93.0</ele><time>2016-06-18T03:59:52.307Z</time></trkpt><trkpt lat="58.29439" lon="14.66173167"><ele>93.0</ele><time>2016-06-18T03:59:53.299Z</time></trkpt><trkpt lat="58.294275" lon="14.66153667"><ele>93.0</ele><time>2016-06-18T03:59:54.312Z</time></trkpt><trkpt lat="58.294275" lon="14.66153667"><ele>93.0</ele><time>2016-06-18T03:59:55.290Z</time></trkpt><trkpt lat="58.29416333" lon="14.66134333"><ele>93.0</ele><time>2016-06-18T03:59:56.318Z</time></trkpt><trkpt lat="58.29416333" lon="14.66134333"><ele>93.0</ele><time>2016-06-18T03:59:57.313Z</time></trkpt><trkpt lat="58.29404833" lon="14.66115"><ele>93.0</ele><time>2016-06-18T03:59:58.297Z</time></trkpt><trkpt lat="58.29399167" lon="14.66105167"><ele>93.0</ele><time>2016-06-18T03:59:59.311Z</time></trkpt><trkpt lat="58.29399167" lon="14.66105167"><ele>93.0</ele><time>2016-06-18T04:00:00.295Z</time></trkpt><trkpt lat="58.29388" lon="14.66086333"><ele>93.0</ele><time>2016-06-18T04:00:01.308Z</time></trkpt><trkpt lat="58.293825" lon="14.66076833"><ele>93.0</ele><time>2016-06-18T04:00:02.308Z</time></trkpt><trkpt lat="58.293825" lon="14.66076833"><ele>93.0</ele><time>2016-06-18T04:00:03.293Z</time></trkpt><trkpt lat="58.29371167" lon="14.66057333"><ele>93.0</ele><time>2016-06-18T04:00:04.316Z</time></trkpt><trkpt lat="58.293655" lon="14.66047"><ele>93.0</ele><time>2016-06-18T04:00:05.316Z</time></trkpt><trkpt lat="58.293655" lon="14.66047"><ele>93.0</ele><time>2016-06-18T04:00:06.286Z</time></trkpt><trkpt lat="58.29354667" lon="14.66028"><ele>94.0</ele><time>2016-06-18T04:00:07.308Z</time></trkpt><trkpt lat="58.29349167" lon="14.66018167"><ele>94.0</ele><time>2016-06-18T04:00:08.308Z</time></trkpt><trkpt lat="58.29349167" lon="14.66018167"><ele>94.0</ele><time>2016-06-18T04:00:09.289Z</time></trkpt><trkpt lat="58.29338" lon="14.65999833"><ele>93.0</ele><time>2016-06-18T04:00:10.308Z</time></trkpt><trkpt lat="58.29338" lon="14.65999833"><ele>93.0</ele><time>2016-06-18T04:00:11.311Z</time></trkpt><trkpt lat="58.29326667" lon="14.65980833"><ele>93.0</ele><time>2016-06-18T04:00:12.321Z</time></trkpt><trkpt lat="58.29326667" lon="14.65980833"><ele>93.0</ele><time>2016-06-18T04:00:13.293Z</time></trkpt><trkpt lat="58.29315167" lon="14.65961667"><ele>93.0</ele><time>2016-06-18T04:00:14.306Z</time></trkpt><trkpt lat="58.29315167" lon="14.65961667"><ele>93.0</ele><time>2016-06-18T04:00:15.287Z</time></trkpt><trkpt lat="58.29303667" lon="14.65941833"><ele>93.0</ele><time>2016-06-18T04:00:16.310Z</time></trkpt><trkpt lat="58.29303667" lon="14.65941833"><ele>93.0</ele><time>2016-06-18T04:00:17.286Z</time></trkpt><trkpt lat="58.29292" lon="14.65922"><ele>93.0</ele><time>2016-06-18T04:00:18.318Z</time></trkpt><trkpt lat="58.29292" lon="14.65922"><ele>93.0</ele><time>2016-06-18T04:00:19.296Z</time></trkpt><trkpt lat="58.2928" lon="14.65902333"><ele>93.0</ele><time>2016-06-18T04:00:20.307Z</time></trkpt><trkpt lat="58.29274167" lon="14.65892333"><ele>93.0</ele><time>2016-06-18T04:00:21.307Z</time></trkpt><trkpt lat="58.29274167" lon="14.65892333"><ele>93.0</ele><time>2016-06-18T04:00:22.287Z</time></trkpt><trkpt lat="58.29262333" lon="14.65872333"><ele>93.0</ele><time>2016-06-18T04:00:23.298Z</time></trkpt><trkpt lat="58.29256667" lon="14.65862333"><ele>93.0</ele><time>2016-06-18T04:00:24.289Z</time></trkpt><trkpt lat="58.29256667" lon="14.65862333"><ele>93.0</ele><time>2016-06-18T04:00:25.308Z</time></trkpt><trkpt lat="58.29245" lon="14.65842"><ele>93.0</ele><time>2016-06-18T04:00:26.288Z</time></trkpt><trkpt lat="58.29245" lon="14.65842"><ele>93.0</ele><time>2016-06-18T04:00:27.293Z</time></trkpt><trkpt lat="58.29233667" lon="14.65821833"><ele>93.0</ele><time>2016-06-18T04:00:28.307Z</time></trkpt><trkpt lat="58.29233667" lon="14.65821833"><ele>93.0</ele><time>2016-06-18T04:00:29.288Z</time></trkpt><trkpt lat="58.29222167" lon="14.65802167"><ele>94.0</ele><time>2016-06-18T04:00:30.313Z</time></trkpt><trkpt lat="58.29216333" lon="14.65792333"><ele>94.0</ele><time>2016-06-18T04:00:31.319Z</time></trkpt><trkpt lat="58.292105" lon="14.65782667"><ele>94.0</ele><time>2016-06-18T04:00:32.298Z</time></trkpt><trkpt lat="58.292105" lon="14.65782667"><ele>94.0</ele><time>2016-06-18T04:00:33.320Z</time></trkpt><trkpt lat="58.29198833" lon="14.65762833"><ele>94.0</ele><time>2016-06-18T04:00:34.293Z</time></trkpt><trkpt lat="58.29198833" lon="14.65762833"><ele>94.0</ele><time>2016-06-18T04:00:35.305Z</time></trkpt><trkpt lat="58.29186833" lon="14.65742833"><ele>93.0</ele><time>2016-06-18T04:00:36.297Z</time></trkpt><trkpt lat="58.29186833" lon="14.65742833"><ele>93.0</ele><time>2016-06-18T04:00:37.287Z</time></trkpt><trkpt lat="58.29175333" lon="14.65723333"><ele>93.0</ele><time>2016-06-18T04:00:38.307Z</time></trkpt><trkpt lat="58.29169667" lon="14.65713833"><ele>93.0</ele><time>2016-06-18T04:00:39.319Z</time></trkpt><trkpt lat="58.29169667" lon="14.65713833"><ele>93.0</ele><time>2016-06-18T04:00:40.299Z</time></trkpt><trkpt lat="58.29158333" lon="14.65694833"><ele>94.0</ele><time>2016-06-18T04:00:41.307Z</time></trkpt><trkpt lat="58.29158333" lon="14.65694833"><ele>94.0</ele><time>2016-06-18T04:00:42.287Z</time></trkpt><trkpt lat="58.29146333" lon="14.65676167"><ele>93.0</ele><time>2016-06-18T04:00:43.298Z</time></trkpt><trkpt lat="58.291405" lon="14.656665"><ele>93.0</ele><time>2016-06-18T04:00:44.313Z</time></trkpt><trkpt lat="58.291405" lon="14.656665"><ele>93.0</ele><time>2016-06-18T04:00:45.285Z</time></trkpt><trkpt lat="58.29128667" lon="14.65646667"><ele>93.0</ele><time>2016-06-18T04:00:46.307Z</time></trkpt><trkpt lat="58.29128667" lon="14.65646667"><ele>93.0</ele><time>2016-06-18T04:00:47.287Z</time></trkpt><trkpt lat="58.29117" lon="14.65626333"><ele>94.0</ele><time>2016-06-18T04:00:48.308Z</time></trkpt><trkpt lat="58.29111333" lon="14.65616333"><ele>94.0</ele><time>2016-06-18T04:00:49.316Z</time></trkpt><trkpt lat="58.29105667" lon="14.65606167"><ele>94.0</ele><time>2016-06-18T04:00:50.316Z</time></trkpt><trkpt lat="58.29105667" lon="14.65606167"><ele>94.0</ele><time>2016-06-18T04:00:51.312Z</time></trkpt><trkpt lat="58.29094167" lon="14.655865"><ele>94.0</ele><time>2016-06-18T04:00:52.318Z</time></trkpt><trkpt lat="58.29094167" lon="14.655865"><ele>94.0</ele><time>2016-06-18T04:00:53.300Z</time></trkpt><trkpt lat="58.29082667" lon="14.65566667"><ele>94.0</ele><time>2016-06-18T04:00:54.318Z</time></trkpt><trkpt lat="58.29076833" lon="14.65556833"><ele>94.0</ele><time>2016-06-18T04:00:55.297Z</time></trkpt><trkpt lat="58.29071167" lon="14.65547333"><ele>94.0</ele><time>2016-06-18T04:00:56.318Z</time></trkpt><trkpt lat="58.29071167" lon="14.65547333"><ele>94.0</ele><time>2016-06-18T04:00:57.306Z</time></trkpt><trkpt lat="58.29059667" lon="14.65527833"><ele>94.0</ele><time>2016-06-18T04:00:58.305Z</time></trkpt><trkpt lat="58.29059667" lon="14.65527833"><ele>94.0</ele><time>2016-06-18T04:00:59.313Z</time></trkpt><trkpt lat="58.29048" lon="14.65508"><ele>94.0</ele><time>2016-06-18T04:01:00.298Z</time></trkpt><trkpt lat="58.29048" lon="14.65508"><ele>94.0</ele><time>2016-06-18T04:01:01.305Z</time></trkpt><trkpt lat="58.29036167" lon="14.654885"><ele>94.0</ele><time>2016-06-18T04:01:02.315Z</time></trkpt><trkpt lat="58.2903" lon="14.65479167"><ele>94.0</ele><time>2016-06-18T04:01:03.313Z</time></trkpt><trkpt lat="58.2903" lon="14.65479167"><ele>94.0</ele><time>2016-06-18T04:01:04.284Z</time></trkpt><trkpt lat="58.29017667" lon="14.6546"><ele>94.0</ele><time>2016-06-18T04:01:05.306Z</time></trkpt><trkpt lat="58.29017667" lon="14.6546"><ele>94.0</ele><time>2016-06-18T04:01:06.287Z</time></trkpt><trkpt lat="58.29005667" lon="14.65441167"><ele>94.0</ele><time>2016-06-18T04:01:07.314Z</time></trkpt><trkpt lat="58.28999333" lon="14.65431833"><ele>94.0</ele><time>2016-06-18T04:01:08.308Z</time></trkpt><trkpt lat="58.28999333" lon="14.65431833"><ele>94.0</ele><time>2016-06-18T04:01:09.303Z</time></trkpt><trkpt lat="58.28986833" lon="14.654135"><ele>94.0</ele><time>2016-06-18T04:01:10.308Z</time></trkpt><trkpt lat="58.28986833" lon="14.654135"><ele>94.0</ele><time>2016-06-18T04:01:11.295Z</time></trkpt><trkpt lat="58.28974" lon="14.65395667"><ele>94.0</ele><time>2016-06-18T04:01:12.288Z</time></trkpt><trkpt lat="58.289675" lon="14.65386833"><ele>94.0</ele><time>2016-06-18T04:01:13.308Z</time></trkpt><trkpt lat="58.289675" lon="14.65386833"><ele>94.0</ele><time>2016-06-18T04:01:14.288Z</time></trkpt><trkpt lat="58.28955" lon="14.65369333"><ele>94.0</ele><time>2016-06-18T04:01:15.295Z</time></trkpt><trkpt lat="58.28955" lon="14.65369333"><ele>94.0</ele><time>2016-06-18T04:01:16.304Z</time></trkpt><trkpt lat="58.28942833" lon="14.65351833"><ele>94.0</ele><time>2016-06-18T04:01:17.321Z</time></trkpt><trkpt lat="58.28942833" lon="14.65351833"><ele>94.0</ele><time>2016-06-18T04:01:18.302Z</time></trkpt><trkpt lat="58.28930333" lon="14.65335167"><ele>94.0</ele><time>2016-06-18T04:01:19.317Z</time></trkpt><trkpt lat="58.28923833" lon="14.65326833"><ele>94.0</ele><time>2016-06-18T04:01:20.287Z</time></trkpt><trkpt lat="58.28923833" lon="14.65326833"><ele>94.0</ele><time>2016-06-18T04:01:21.288Z</time></trkpt><trkpt lat="58.28910667" lon="14.65310167"><ele>94.0</ele><time>2016-06-18T04:01:22.316Z</time></trkpt><trkpt lat="58.28903833" lon="14.65302167"><ele>94.0</ele><time>2016-06-18T04:01:23.312Z</time></trkpt><trkpt lat="58.28903833" lon="14.65302167"><ele>94.0</ele><time>2016-06-18T04:01:24.292Z</time></trkpt><trkpt lat="58.28890333" lon="14.65285667"><ele>94.0</ele><time>2016-06-18T04:01:25.316Z</time></trkpt><trkpt lat="58.288835" lon="14.652775"><ele>94.0</ele><time>2016-06-18T04:01:26.318Z</time></trkpt><trkpt lat="58.288835" lon="14.652775"><ele>94.0</ele><time>2016-06-18T04:01:27.308Z</time></trkpt><trkpt lat="58.28869667" lon="14.652615"><ele>94.0</ele><time>2016-06-18T04:01:28.308Z</time></trkpt><trkpt lat="58.28862667" lon="14.65253667"><ele>94.0</ele><time>2016-06-18T04:01:29.303Z</time></trkpt><trkpt lat="58.28862667" lon="14.65253667"><ele>94.0</ele><time>2016-06-18T04:01:30.320Z</time></trkpt><trkpt lat="58.28848833" lon="14.65237833"><ele>94.0</ele><time>2016-06-18T04:01:31.288Z</time></trkpt><trkpt lat="58.28841833" lon="14.65230333"><ele>94.0</ele><time>2016-06-18T04:01:32.301Z</time></trkpt><trkpt lat="58.28834667" lon="14.65223"><ele>94.0</ele><time>2016-06-18T04:01:33.327Z</time></trkpt><trkpt lat="58.28834667" lon="14.65223"><ele>94.0</ele><time>2016-06-18T04:01:34.288Z</time></trkpt><trkpt lat="58.28820667" lon="14.65208"><ele>94.0</ele><time>2016-06-18T04:01:35.322Z</time></trkpt><trkpt lat="58.28820667" lon="14.65208"><ele>94.0</ele><time>2016-06-18T04:01:36.302Z</time></trkpt><trkpt lat="58.288065" lon="14.65192833"><ele>94.0</ele><time>2016-06-18T04:01:37.311Z</time></trkpt><trkpt lat="58.28799333" lon="14.65185667"><ele>94.0</ele><time>2016-06-18T04:01:38.318Z</time></trkpt><trkpt lat="58.28799333" lon="14.65185667"><ele>94.0</ele><time>2016-06-18T04:01:39.288Z</time></trkpt><trkpt lat="58.28785333" lon="14.65171833"><ele>94.0</ele><time>2016-06-18T04:01:40.318Z</time></trkpt><trkpt lat="58.28785333" lon="14.65171833"><ele>94.0</ele><time>2016-06-18T04:01:41.295Z</time></trkpt><trkpt lat="58.28771667" lon="14.65158667"><ele>95.0</ele><time>2016-06-18T04:01:42.316Z</time></trkpt><trkpt lat="58.28771667" lon="14.65158667"><ele>95.0</ele><time>2016-06-18T04:01:43.309Z</time></trkpt><trkpt lat="58.28758167" lon="14.65146"><ele>95.0</ele><time>2016-06-18T04:01:44.307Z</time></trkpt><trkpt lat="58.28758167" lon="14.65146"><ele>95.0</ele><time>2016-06-18T04:01:45.288Z</time></trkpt><trkpt lat="58.28744167" lon="14.65133333"><ele>95.0</ele><time>2016-06-18T04:01:46.317Z</time></trkpt><trkpt lat="58.28744167" lon="14.65133333"><ele>95.0</ele><time>2016-06-18T04:01:47.294Z</time></trkpt><trkpt lat="58.28730333" lon="14.65121167"><ele>95.0</ele><time>2016-06-18T04:01:48.317Z</time></trkpt><trkpt lat="58.28730333" lon="14.65121167"><ele>95.0</ele><time>2016-06-18T04:01:49.300Z</time></trkpt><trkpt lat="58.28716667" lon="14.6511"><ele>95.0</ele><time>2016-06-18T04:01:50.307Z</time></trkpt><trkpt lat="58.28716667" lon="14.6511"><ele>95.0</ele><time>2016-06-18T04:01:51.309Z</time></trkpt><trkpt lat="58.28702833" lon="14.65098167"><ele>95.0</ele><time>2016-06-18T04:01:52.312Z</time></trkpt><trkpt lat="58.28702833" lon="14.65098167"><ele>95.0</ele><time>2016-06-18T04:01:53.296Z</time></trkpt><trkpt lat="58.28689" lon="14.65087167"><ele>95.0</ele><time>2016-06-18T04:01:54.318Z</time></trkpt><trkpt lat="58.28689" lon="14.65087167"><ele>95.0</ele><time>2016-06-18T04:01:55.298Z</time></trkpt><trkpt lat="58.28675167" lon="14.65077167"><ele>95.0</ele><time>2016-06-18T04:01:56.320Z</time></trkpt><trkpt lat="58.28668167" lon="14.65072167"><ele>95.0</ele><time>2016-06-18T04:01:57.308Z</time></trkpt><trkpt lat="58.28668167" lon="14.65072167"><ele>95.0</ele><time>2016-06-18T04:01:58.288Z</time></trkpt><trkpt lat="58.28654167" lon="14.65061333"><ele>95.0</ele><time>2016-06-18T04:01:59.318Z</time></trkpt><trkpt lat="58.28654167" lon="14.65061333"><ele>95.0</ele><time>2016-06-18T04:02:00.301Z</time></trkpt><trkpt lat="58.2864" lon="14.65050833"><ele>95.0</ele><time>2016-06-18T04:02:01.316Z</time></trkpt><trkpt lat="58.28632667" lon="14.65046"><ele>95.0</ele><time>2016-06-18T04:02:02.293Z</time></trkpt><trkpt lat="58.28625333" lon="14.65041"><ele>95.0</ele><time>2016-06-18T04:02:03.305Z</time></trkpt><trkpt lat="58.28625333" lon="14.65041"><ele>95.0</ele><time>2016-06-18T04:02:04.299Z</time></trkpt><trkpt lat="58.28610667" lon="14.65031167"><ele>95.0</ele><time>2016-06-18T04:02:05.318Z</time></trkpt><trkpt lat="58.28610667" lon="14.65031167"><ele>95.0</ele><time>2016-06-18T04:02:06.300Z</time></trkpt><trkpt lat="58.285955" lon="14.65022167"><ele>95.0</ele><time>2016-06-18T04:02:07.317Z</time></trkpt><trkpt lat="58.28587667" lon="14.65018167"><ele>95.0</ele><time>2016-06-18T04:02:08.284Z</time></trkpt><trkpt lat="58.28587667" lon="14.65018167"><ele>95.0</ele><time>2016-06-18T04:02:09.299Z</time></trkpt><trkpt lat="58.28572333" lon="14.65009"><ele>95.0</ele><time>2016-06-18T04:02:10.308Z</time></trkpt><trkpt lat="58.28572333" lon="14.65009"><ele>95.0</ele><time>2016-06-18T04:02:11.310Z</time></trkpt><trkpt lat="58.285575" lon="14.64999667"><ele>95.0</ele><time>2016-06-18T04:02:12.312Z</time></trkpt><trkpt lat="58.28550333" lon="14.64995833"><ele>95.0</ele><time>2016-06-18T04:02:13.308Z</time></trkpt><trkpt lat="58.28543333" lon="14.64992167"><ele>95.0</ele><time>2016-06-18T04:02:14.291Z</time></trkpt><trkpt lat="58.28543333" lon="14.64992167"><ele>95.0</ele><time>2016-06-18T04:02:15.301Z</time></trkpt><trkpt lat="58.28529667" lon="14.64984833"><ele>94.0</ele><time>2016-06-18T04:02:16.308Z</time></trkpt><trkpt lat="58.28529667" lon="14.64984833"><ele>94.0</ele><time>2016-06-18T04:02:17.287Z</time></trkpt><trkpt lat="58.28516167" lon="14.649775"><ele>94.0</ele><time>2016-06-18T04:02:18.309Z</time></trkpt><trkpt lat="58.28516167" lon="14.649775"><ele>94.0</ele><time>2016-06-18T04:02:19.290Z</time></trkpt><trkpt lat="58.28502333" lon="14.64970667"><ele>94.0</ele><time>2016-06-18T04:02:20.318Z</time></trkpt><trkpt lat="58.28495333" lon="14.64967333"><ele>94.0</ele><time>2016-06-18T04:02:21.295Z</time></trkpt><trkpt lat="58.28495333" lon="14.64967333"><ele>94.0</ele><time>2016-06-18T04:02:22.303Z</time></trkpt><trkpt lat="58.28481333" lon="14.64960167"><ele>94.0</ele><time>2016-06-18T04:02:23.294Z</time></trkpt><trkpt lat="58.28481333" lon="14.64960167"><ele>94.0</ele><time>2016-06-18T04:02:24.317Z</time></trkpt><trkpt lat="58.28467167" lon="14.64953333"><ele>94.0</ele><time>2016-06-18T04:02:25.289Z</time></trkpt><trkpt lat="58.2846" lon="14.64950333"><ele>94.0</ele><time>2016-06-18T04:02:26.321Z</time></trkpt><trkpt lat="58.2846" lon="14.64950333"><ele>94.0</ele><time>2016-06-18T04:02:27.307Z</time></trkpt><trkpt lat="58.284455" lon="14.64944667"><ele>94.0</ele><time>2016-06-18T04:02:28.316Z</time></trkpt><trkpt lat="58.28438167" lon="14.64942"><ele>94.0</ele><time>2016-06-18T04:02:29.317Z</time></trkpt><trkpt lat="58.28431" lon="14.64939167"><ele>95.0</ele><time>2016-06-18T04:02:30.298Z</time></trkpt><trkpt lat="58.28431" lon="14.64939167"><ele>95.0</ele><time>2016-06-18T04:02:31.283Z</time></trkpt><trkpt lat="58.28416667" lon="14.649335"><ele>95.0</ele><time>2016-06-18T04:02:32.290Z</time></trkpt><trkpt lat="58.28416667" lon="14.649335"><ele>95.0</ele><time>2016-06-18T04:02:33.307Z</time></trkpt><trkpt lat="58.284025" lon="14.64929167"><ele>95.0</ele><time>2016-06-18T04:02:34.291Z</time></trkpt><trkpt lat="58.283955" lon="14.64927167"><ele>95.0</ele><time>2016-06-18T04:02:35.307Z</time></trkpt><trkpt lat="58.283955" lon="14.64927167"><ele>95.0</ele><time>2016-06-18T04:02:36.289Z</time></trkpt><trkpt lat="58.28381167" lon="14.64923333"><ele>95.0</ele><time>2016-06-18T04:02:37.286Z</time></trkpt><trkpt lat="58.28381167" lon="14.64923333"><ele>95.0</ele><time>2016-06-18T04:02:38.299Z</time></trkpt><trkpt lat="58.28365833" lon="14.64919167"><ele>95.0</ele><time>2016-06-18T04:02:39.288Z</time></trkpt><trkpt lat="58.28365833" lon="14.64919167"><ele>95.0</ele><time>2016-06-18T04:02:40.288Z</time></trkpt><trkpt lat="58.28350333" lon="14.64915167"><ele>95.0</ele><time>2016-06-18T04:02:41.319Z</time></trkpt><trkpt lat="58.28350333" lon="14.64915167"><ele>95.0</ele><time>2016-06-18T04:02:42.301Z</time></trkpt><trkpt lat="58.28334667" lon="14.64911667"><ele>95.0</ele><time>2016-06-18T04:02:43.317Z</time></trkpt><trkpt lat="58.28326833" lon="14.64909667"><ele>95.0</ele><time>2016-06-18T04:02:44.294Z</time></trkpt><trkpt lat="58.28326833" lon="14.64909667"><ele>95.0</ele><time>2016-06-18T04:02:45.297Z</time></trkpt><trkpt lat="58.28311" lon="14.64906"><ele>95.0</ele><time>2016-06-18T04:02:46.313Z</time></trkpt><trkpt lat="58.28303" lon="14.64904667"><ele>95.0</ele><time>2016-06-18T04:02:47.317Z</time></trkpt><trkpt lat="58.28303" lon="14.64904667"><ele>95.0</ele><time>2016-06-18T04:02:48.309Z</time></trkpt><trkpt lat="58.28286833" lon="14.64901667"><ele>95.0</ele><time>2016-06-18T04:02:49.316Z</time></trkpt><trkpt lat="58.28278833" lon="14.64900167"><ele>95.0</ele><time>2016-06-18T04:02:50.297Z</time></trkpt><trkpt lat="58.28278833" lon="14.64900167"><ele>95.0</ele><time>2016-06-18T04:02:51.309Z</time></trkpt><trkpt lat="58.28262833" lon="14.64897333"><ele>95.0</ele><time>2016-06-18T04:02:52.308Z</time></trkpt><trkpt lat="58.28262833" lon="14.64897333"><ele>95.0</ele><time>2016-06-18T04:02:53.294Z</time></trkpt><trkpt lat="58.28247" lon="14.64895167"><ele>95.0</ele><time>2016-06-18T04:02:54.308Z</time></trkpt><trkpt lat="58.28247" lon="14.64895167"><ele>95.0</ele><time>2016-06-18T04:02:55.291Z</time></trkpt><trkpt lat="58.282315" lon="14.64893667"><ele>95.0</ele><time>2016-06-18T04:02:56.320Z</time></trkpt><trkpt lat="58.282315" lon="14.64893667"><ele>95.0</ele><time>2016-06-18T04:02:57.305Z</time></trkpt><trkpt lat="58.28216167" lon="14.64892833"><ele>95.0</ele><time>2016-06-18T04:02:58.318Z</time></trkpt><trkpt lat="58.28216167" lon="14.64892833"><ele>95.0</ele><time>2016-06-18T04:02:59.309Z</time></trkpt><trkpt lat="58.28200833" lon="14.64892333"><ele>95.0</ele><time>2016-06-18T04:03:00.317Z</time></trkpt><trkpt lat="58.28200833" lon="14.64892333"><ele>95.0</ele><time>2016-06-18T04:03:01.299Z</time></trkpt><trkpt lat="58.28185667" lon="14.648915"><ele>95.0</ele><time>2016-06-18T04:03:02.321Z</time></trkpt><trkpt lat="58.28185667" lon="14.648915"><ele>95.0</ele><time>2016-06-18T04:03:03.315Z</time></trkpt><trkpt lat="58.281705" lon="14.64891333"><ele>95.0</ele><time>2016-06-18T04:03:04.289Z</time></trkpt><trkpt lat="58.28163" lon="14.64891333"><ele>95.0</ele><time>2016-06-18T04:03:05.307Z</time></trkpt><trkpt lat="58.28163" lon="14.64891333"><ele>95.0</ele><time>2016-06-18T04:03:06.290Z</time></trkpt><trkpt lat="58.28147833" lon="14.64891667"><ele>95.0</ele><time>2016-06-18T04:03:07.320Z</time></trkpt><trkpt lat="58.28147833" lon="14.64891667"><ele>95.0</ele><time>2016-06-18T04:03:08.301Z</time></trkpt><trkpt lat="58.28133" lon="14.64891833"><ele>95.0</ele><time>2016-06-18T04:03:09.317Z</time></trkpt><trkpt lat="58.28125667" lon="14.64892167"><ele>95.0</ele><time>2016-06-18T04:03:10.305Z</time></trkpt><trkpt lat="58.28125667" lon="14.64892167"><ele>95.0</ele><time>2016-06-18T04:03:11.310Z</time></trkpt><trkpt lat="58.28111667" lon="14.64893333"><ele>95.0</ele><time>2016-06-18T04:03:12.303Z</time></trkpt><trkpt lat="58.28104833" lon="14.64894"><ele>95.0</ele><time>2016-06-18T04:03:13.288Z</time></trkpt><trkpt lat="58.28098167" lon="14.64894667"><ele>95.0</ele><time>2016-06-18T04:03:14.308Z</time></trkpt><trkpt lat="58.28098167" lon="14.64894667"><ele>95.0</ele><time>2016-06-18T04:03:15.290Z</time></trkpt><trkpt lat="58.28084333" lon="14.64895667"><ele>95.0</ele><time>2016-06-18T04:03:16.308Z</time></trkpt><trkpt lat="58.28084333" lon="14.64895667"><ele>95.0</ele><time>2016-06-18T04:03:17.288Z</time></trkpt><trkpt lat="58.28070333" lon="14.648965"><ele>95.0</ele><time>2016-06-18T04:03:18.318Z</time></trkpt><trkpt lat="58.28070333" lon="14.648965"><ele>95.0</ele><time>2016-06-18T04:03:19.291Z</time></trkpt><trkpt lat="58.28056333" lon="14.64898"><ele>95.0</ele><time>2016-06-18T04:03:20.321Z</time></trkpt><trkpt lat="58.28056333" lon="14.64898"><ele>95.0</ele><time>2016-06-18T04:03:21.309Z</time></trkpt><trkpt lat="58.28041833" lon="14.64899167"><ele>95.0</ele><time>2016-06-18T04:03:22.318Z</time></trkpt><trkpt lat="58.28034333" lon="14.649"><ele>95.0</ele><time>2016-06-18T04:03:23.288Z</time></trkpt><trkpt lat="58.28034333" lon="14.649"><ele>95.0</ele><time>2016-06-18T04:03:24.294Z</time></trkpt><trkpt lat="58.28019333" lon="14.64901833"><ele>96.0</ele><time>2016-06-18T04:03:25.321Z</time></trkpt><trkpt lat="58.28011667" lon="14.649025"><ele>96.0</ele><time>2016-06-18T04:03:26.308Z</time></trkpt><trkpt lat="58.28011667" lon="14.649025"><ele>96.0</ele><time>2016-06-18T04:03:27.306Z</time></trkpt><trkpt lat="58.27996333" lon="14.64904333"><ele>96.0</ele><time>2016-06-18T04:03:28.318Z</time></trkpt><trkpt lat="58.27996333" lon="14.64904333"><ele>96.0</ele><time>2016-06-18T04:03:29.299Z</time></trkpt><trkpt lat="58.27981" lon="14.64905667"><ele>96.0</ele><time>2016-06-18T04:03:30.287Z</time></trkpt><trkpt lat="58.27981" lon="14.64905667"><ele>96.0</ele><time>2016-06-18T04:03:31.290Z</time></trkpt><trkpt lat="58.27966167" lon="14.64906167"><ele>96.0</ele><time>2016-06-18T04:03:32.313Z</time></trkpt><trkpt lat="58.27966167" lon="14.64906167"><ele>96.0</ele><time>2016-06-18T04:03:33.292Z</time></trkpt><trkpt lat="58.279515" lon="14.64906833"><ele>96.0</ele><time>2016-06-18T04:03:34.288Z</time></trkpt><trkpt lat="58.279515" lon="14.64906833"><ele>96.0</ele><time>2016-06-18T04:03:35.288Z</time></trkpt><trkpt lat="58.27936667" lon="14.64908333"><ele>96.0</ele><time>2016-06-18T04:03:36.328Z</time></trkpt><trkpt lat="58.27936667" lon="14.64908333"><ele>96.0</ele><time>2016-06-18T04:03:37.303Z</time></trkpt><trkpt lat="58.27921667" lon="14.64909833"><ele>96.0</ele><time>2016-06-18T04:03:38.319Z</time></trkpt><trkpt lat="58.27921667" lon="14.64909833"><ele>96.0</ele><time>2016-06-18T04:03:39.296Z</time></trkpt><trkpt lat="58.279065" lon="14.64912"><ele>96.0</ele><time>2016-06-18T04:03:40.328Z</time></trkpt><trkpt lat="58.279065" lon="14.64912"><ele>96.0</ele><time>2016-06-18T04:03:41.303Z</time></trkpt><trkpt lat="58.27891167" lon="14.64912833"><ele>96.0</ele><time>2016-06-18T04:03:42.285Z</time></trkpt><trkpt lat="58.27891167" lon="14.64912833"><ele>96.0</ele><time>2016-06-18T04:03:43.313Z</time></trkpt><trkpt lat="58.27875667" lon="14.64913833"><ele>97.0</ele><time>2016-06-18T04:03:44.321Z</time></trkpt><trkpt lat="58.27875667" lon="14.64913833"><ele>97.0</ele><time>2016-06-18T04:03:45.309Z</time></trkpt><trkpt lat="58.27860333" lon="14.64915667"><ele>97.0</ele><time>2016-06-18T04:03:46.308Z</time></trkpt><trkpt lat="58.27860333" lon="14.64915667"><ele>97.0</ele><time>2016-06-18T04:03:47.291Z</time></trkpt><trkpt lat="58.27845" lon="14.649175"><ele>97.0</ele><time>2016-06-18T04:03:48.318Z</time></trkpt><trkpt lat="58.27837333" lon="14.64918333"><ele>97.0</ele><time>2016-06-18T04:03:49.321Z</time></trkpt><trkpt lat="58.278295" lon="14.64919"><ele>97.0</ele><time>2016-06-18T04:03:50.302Z</time></trkpt><trkpt lat="58.27821833" lon="14.649195"><ele>97.0</ele><time>2016-06-18T04:03:51.314Z</time></trkpt><trkpt lat="58.27821833" lon="14.649195"><ele>97.0</ele><time>2016-06-18T04:03:52.292Z</time></trkpt><trkpt lat="58.278065" lon="14.64920833"><ele>97.0</ele><time>2016-06-18T04:03:53.317Z</time></trkpt><trkpt lat="58.278065" lon="14.64920833"><ele>97.0</ele><time>2016-06-18T04:03:54.292Z</time></trkpt><trkpt lat="58.27791167" lon="14.64922167"><ele>97.0</ele><time>2016-06-18T04:03:55.298Z</time></trkpt><trkpt lat="58.277835" lon="14.64923"><ele>97.0</ele><time>2016-06-18T04:03:56.318Z</time></trkpt><trkpt lat="58.27775833" lon="14.64923667"><ele>97.0</ele><time>2016-06-18T04:03:57.318Z</time></trkpt><trkpt lat="58.27775833" lon="14.64923667"><ele>97.0</ele><time>2016-06-18T04:03:58.298Z</time></trkpt><trkpt lat="58.27760333" lon="14.64924833"><ele>98.0</ele><time>2016-06-18T04:03:59.328Z</time></trkpt><trkpt lat="58.27752667" lon="14.64925167"><ele>98.0</ele><time>2016-06-18T04:04:00.319Z</time></trkpt><trkpt lat="58.27752667" lon="14.64925167"><ele>98.0</ele><time>2016-06-18T04:04:01.290Z</time></trkpt><trkpt lat="58.277375" lon="14.64926167"><ele>98.0</ele><time>2016-06-18T04:04:02.287Z</time></trkpt><trkpt lat="58.277375" lon="14.64926167"><ele>98.0</ele><time>2016-06-18T04:04:03.309Z</time></trkpt><trkpt lat="58.27722833" lon="14.64927167"><ele>99.0</ele><time>2016-06-18T04:04:04.287Z</time></trkpt><trkpt lat="58.27722833" lon="14.64927167"><ele>99.0</ele><time>2016-06-18T04:04:05.309Z</time></trkpt><trkpt lat="58.27708" lon="14.64928167"><ele>99.0</ele><time>2016-06-18T04:04:06.318Z</time></trkpt><trkpt lat="58.27708" lon="14.64928167"><ele>99.0</ele><time>2016-06-18T04:04:07.299Z</time></trkpt><trkpt lat="58.27693" lon="14.64929"><ele>99.0</ele><time>2016-06-18T04:04:08.298Z</time></trkpt><trkpt lat="58.27693" lon="14.64929"><ele>99.0</ele><time>2016-06-18T04:04:09.292Z</time></trkpt><trkpt lat="58.27677333" lon="14.649295"><ele>99.0</ele><time>2016-06-18T04:04:10.313Z</time></trkpt><trkpt lat="58.27677333" lon="14.649295"><ele>99.0</ele><time>2016-06-18T04:04:11.312Z</time></trkpt><trkpt lat="58.276615" lon="14.64929833"><ele>99.0</ele><time>2016-06-18T04:04:12.315Z</time></trkpt><trkpt lat="58.276615" lon="14.64929833"><ele>99.0</ele><time>2016-06-18T04:04:13.282Z</time></trkpt><trkpt lat="58.27645667" lon="14.64930167"><ele>99.0</ele><time>2016-06-18T04:04:14.302Z</time></trkpt><trkpt lat="58.27645667" lon="14.64930167"><ele>99.0</ele><time>2016-06-18T04:04:15.290Z</time></trkpt><trkpt lat="58.27630667" lon="14.64930167"><ele>99.0</ele><time>2016-06-18T04:04:16.317Z</time></trkpt><trkpt lat="58.27630667" lon="14.64930167"><ele>99.0</ele><time>2016-06-18T04:04:17.300Z</time></trkpt><trkpt lat="58.27616333" lon="14.64929833"><ele>99.0</ele><time>2016-06-18T04:04:18.288Z</time></trkpt><trkpt lat="58.27609167" lon="14.64929833"><ele>99.0</ele><time>2016-06-18T04:04:19.285Z</time></trkpt><trkpt lat="58.27609167" lon="14.64929833"><ele>99.0</ele><time>2016-06-18T04:04:20.300Z</time></trkpt><trkpt lat="58.27594833" lon="14.6493"><ele>100.0</ele><time>2016-06-18T04:04:21.328Z</time></trkpt><trkpt lat="58.27594833" lon="14.6493"><ele>100.0</ele><time>2016-06-18T04:04:22.300Z</time></trkpt><trkpt lat="58.275805" lon="14.64929667"><ele>100.0</ele><time>2016-06-18T04:04:23.298Z</time></trkpt><trkpt lat="58.275805" lon="14.64929667"><ele>100.0</ele><time>2016-06-18T04:04:24.305Z</time></trkpt><trkpt lat="58.27566333" lon="14.649295"><ele>100.0</ele><time>2016-06-18T04:04:25.296Z</time></trkpt><trkpt lat="58.27566333" lon="14.649295"><ele>100.0</ele><time>2016-06-18T04:04:26.299Z</time></trkpt><trkpt lat="58.27552" lon="14.64929833"><ele>100.0</ele><time>2016-06-18T04:04:27.288Z</time></trkpt><trkpt lat="58.27545" lon="14.6493"><ele>100.0</ele><time>2016-06-18T04:04:28.297Z</time></trkpt><trkpt lat="58.27545" lon="14.6493"><ele>100.0</ele><time>2016-06-18T04:04:29.292Z</time></trkpt><trkpt lat="58.27530667" lon="14.64929667"><ele>100.0</ele><time>2016-06-18T04:04:30.316Z</time></trkpt><trkpt lat="58.27530667" lon="14.64929667"><ele>100.0</ele><time>2016-06-18T04:04:31.300Z</time></trkpt><trkpt lat="58.27516333" lon="14.64929"><ele>100.0</ele><time>2016-06-18T04:04:32.300Z</time></trkpt><trkpt lat="58.27509167" lon="14.649285"><ele>101.0</ele><time>2016-06-18T04:04:33.287Z</time></trkpt><trkpt lat="58.27509167" lon="14.649285"><ele>101.0</ele><time>2016-06-18T04:04:34.302Z</time></trkpt><trkpt lat="58.274945" lon="14.64927333"><ele>101.0</ele><time>2016-06-18T04:04:35.289Z</time></trkpt><trkpt lat="58.274945" lon="14.64927333"><ele>101.0</ele><time>2016-06-18T04:04:36.303Z</time></trkpt><trkpt lat="58.2748" lon="14.64926333"><ele>101.0</ele><time>2016-06-18T04:04:37.318Z</time></trkpt><trkpt lat="58.2748" lon="14.64926333"><ele>101.0</ele><time>2016-06-18T04:04:38.297Z</time></trkpt><trkpt lat="58.27465333" lon="14.64925167"><ele>101.0</ele><time>2016-06-18T04:04:39.319Z</time></trkpt><trkpt lat="58.27457833" lon="14.649245"><ele>101.0</ele><time>2016-06-18T04:04:40.297Z</time></trkpt><trkpt lat="58.27450333" lon="14.64923667"><ele>101.0</ele><time>2016-06-18T04:04:41.318Z</time></trkpt><trkpt lat="58.27450333" lon="14.64923667"><ele>101.0</ele><time>2016-06-18T04:04:42.299Z</time></trkpt><trkpt lat="58.27435167" lon="14.64922833"><ele>101.0</ele><time>2016-06-18T04:04:43.301Z</time></trkpt><trkpt lat="58.27435167" lon="14.64922833"><ele>101.0</ele><time>2016-06-18T04:04:44.303Z</time></trkpt><trkpt lat="58.27420167" lon="14.64921833"><ele>101.0</ele><time>2016-06-18T04:04:45.339Z</time></trkpt><trkpt lat="58.274125" lon="14.64921333"><ele>101.0</ele><time>2016-06-18T04:04:46.308Z</time></trkpt><trkpt lat="58.274125" lon="14.64921333"><ele>101.0</ele><time>2016-06-18T04:04:47.290Z</time></trkpt><trkpt lat="58.27397167" lon="14.6492"><ele>101.0</ele><time>2016-06-18T04:04:48.315Z</time></trkpt><trkpt lat="58.27397167" lon="14.6492"><ele>101.0</ele><time>2016-06-18T04:04:49.300Z</time></trkpt><trkpt lat="58.27382" lon="14.64918"><ele>101.0</ele><time>2016-06-18T04:04:50.318Z</time></trkpt><trkpt lat="58.27382" lon="14.64918"><ele>101.0</ele><time>2016-06-18T04:04:51.301Z</time></trkpt><trkpt lat="58.27366667" lon="14.64916167"><ele>101.0</ele><time>2016-06-18T04:04:52.321Z</time></trkpt><trkpt lat="58.27366667" lon="14.64916167"><ele>101.0</ele><time>2016-06-18T04:04:53.316Z</time></trkpt><trkpt lat="58.27351333" lon="14.64914333"><ele>101.0</ele><time>2016-06-18T04:04:54.329Z</time></trkpt><trkpt lat="58.27351333" lon="14.64914333"><ele>101.0</ele><time>2016-06-18T04:04:55.308Z</time></trkpt><trkpt lat="58.27335833" lon="14.64912167"><ele>101.0</ele><time>2016-06-18T04:04:56.288Z</time></trkpt><trkpt lat="58.27328167" lon="14.64911167"><ele>101.0</ele><time>2016-06-18T04:04:57.321Z</time></trkpt><trkpt lat="58.27328167" lon="14.64911167"><ele>101.0</ele><time>2016-06-18T04:04:58.290Z</time></trkpt><trkpt lat="58.27312833" lon="14.64909333"><ele>101.0</ele><time>2016-06-18T04:04:59.320Z</time></trkpt><trkpt lat="58.27312833" lon="14.64909333"><ele>101.0</ele><time>2016-06-18T04:05:00.301Z</time></trkpt><trkpt lat="58.27297833" lon="14.64907"><ele>101.0</ele><time>2016-06-18T04:05:01.328Z</time></trkpt><trkpt lat="58.27297833" lon="14.64907"><ele>101.0</ele><time>2016-06-18T04:05:02.302Z</time></trkpt><trkpt lat="58.27283333" lon="14.64905167"><ele>101.0</ele><time>2016-06-18T04:05:03.295Z</time></trkpt><trkpt lat="58.27276333" lon="14.64903833"><ele>101.0</ele><time>2016-06-18T04:05:04.284Z</time></trkpt><trkpt lat="58.27276333" lon="14.64903833"><ele>101.0</ele><time>2016-06-18T04:05:05.311Z</time></trkpt><trkpt lat="58.27262167" lon="14.64901"><ele>101.0</ele><time>2016-06-18T04:05:06.288Z</time></trkpt><trkpt lat="58.27255167" lon="14.64899833"><ele>101.0</ele><time>2016-06-18T04:05:07.288Z</time></trkpt><trkpt lat="58.27255167" lon="14.64899833"><ele>101.0</ele><time>2016-06-18T04:05:08.288Z</time></trkpt><trkpt lat="58.27241333" lon="14.648975"><ele>101.0</ele><time>2016-06-18T04:05:09.298Z</time></trkpt><trkpt lat="58.272345" lon="14.64896"><ele>102.0</ele><time>2016-06-18T04:05:10.318Z</time></trkpt><trkpt lat="58.27227667" lon="14.64894833"><ele>102.0</ele><time>2016-06-18T04:05:11.318Z</time></trkpt><trkpt lat="58.27227667" lon="14.64894833"><ele>102.0</ele><time>2016-06-18T04:05:12.304Z</time></trkpt><trkpt lat="58.27214167" lon="14.64892333"><ele>102.0</ele><time>2016-06-18T04:05:13.312Z</time></trkpt><trkpt lat="58.272075" lon="14.64891333"><ele>102.0</ele><time>2016-06-18T04:05:14.302Z</time></trkpt><trkpt lat="58.27200667" lon="14.648895"><ele>102.0</ele><time>2016-06-18T04:05:15.291Z</time></trkpt><trkpt lat="58.27193667" lon="14.64888"><ele>102.0</ele><time>2016-06-18T04:05:16.308Z</time></trkpt><trkpt lat="58.27193667" lon="14.64888"><ele>102.0</ele><time>2016-06-18T04:05:17.311Z</time></trkpt><trkpt lat="58.271795" lon="14.64885"><ele>101.0</ele><time>2016-06-18T04:05:18.320Z</time></trkpt><trkpt lat="58.27172333" lon="14.64883333"><ele>101.0</ele><time>2016-06-18T04:05:19.321Z</time></trkpt><trkpt lat="58.27172333" lon="14.64883333"><ele>101.0</ele><time>2016-06-18T04:05:20.312Z</time></trkpt><trkpt lat="58.27157667" lon="14.648805"><ele>101.0</ele><time>2016-06-18T04:05:21.288Z</time></trkpt><trkpt lat="58.27150333" lon="14.64879"><ele>101.0</ele><time>2016-06-18T04:05:22.288Z</time></trkpt><trkpt lat="58.27150333" lon="14.64879"><ele>101.0</ele><time>2016-06-18T04:05:23.300Z</time></trkpt><trkpt lat="58.27135667" lon="14.648755"><ele>102.0</ele><time>2016-06-18T04:05:24.328Z</time></trkpt><trkpt lat="58.27135667" lon="14.648755"><ele>102.0</ele><time>2016-06-18T04:05:25.293Z</time></trkpt><trkpt lat="58.271215" lon="14.64872167"><ele>102.0</ele><time>2016-06-18T04:05:26.315Z</time></trkpt><trkpt lat="58.27114333" lon="14.64870333"><ele>102.0</ele><time>2016-06-18T04:05:27.288Z</time></trkpt><trkpt lat="58.27114333" lon="14.64870333"><ele>102.0</ele><time>2016-06-18T04:05:28.310Z</time></trkpt><trkpt lat="58.27099667" lon="14.648665"><ele>102.0</ele><time>2016-06-18T04:05:29.328Z</time></trkpt><trkpt lat="58.27092333" lon="14.64864667"><ele>102.0</ele><time>2016-06-18T04:05:30.307Z</time></trkpt><trkpt lat="58.27092333" lon="14.64864667"><ele>102.0</ele><time>2016-06-18T04:05:31.283Z</time></trkpt><trkpt lat="58.27077333" lon="14.64861667"><ele>102.0</ele><time>2016-06-18T04:05:32.303Z</time></trkpt><trkpt lat="58.27077333" lon="14.64861667"><ele>102.0</ele><time>2016-06-18T04:05:33.309Z</time></trkpt><trkpt lat="58.27063" lon="14.64858667"><ele>102.0</ele><time>2016-06-18T04:05:34.283Z</time></trkpt><trkpt lat="58.27063" lon="14.64858667"><ele>102.0</ele><time>2016-06-18T04:05:35.290Z</time></trkpt><trkpt lat="58.27049167" lon="14.64855"><ele>102.0</ele><time>2016-06-18T04:05:36.308Z</time></trkpt><trkpt lat="58.27042167" lon="14.64853167"><ele>102.0</ele><time>2016-06-18T04:05:37.322Z</time></trkpt><trkpt lat="58.27042167" lon="14.64853167"><ele>102.0</ele><time>2016-06-18T04:05:38.292Z</time></trkpt><trkpt lat="58.27028333" lon="14.64849833"><ele>102.0</ele><time>2016-06-18T04:05:39.282Z</time></trkpt><trkpt lat="58.27028333" lon="14.64849833"><ele>102.0</ele><time>2016-06-18T04:05:40.293Z</time></trkpt><trkpt lat="58.270145" lon="14.64847"><ele>102.0</ele><time>2016-06-18T04:05:41.300Z</time></trkpt><trkpt lat="58.27007333" lon="14.64845333"><ele>102.0</ele><time>2016-06-18T04:05:42.288Z</time></trkpt><trkpt lat="58.27000167" lon="14.64843667"><ele>102.0</ele><time>2016-06-18T04:05:43.288Z</time></trkpt><trkpt lat="58.26993167" lon="14.64841833"><ele>102.0</ele><time>2016-06-18T04:05:44.298Z</time></trkpt><trkpt lat="58.26993167" lon="14.64841833"><ele>102.0</ele><time>2016-06-18T04:05:45.311Z</time></trkpt><trkpt lat="58.269795" lon="14.64838667"><ele>102.0</ele><time>2016-06-18T04:05:46.299Z</time></trkpt><trkpt lat="58.269795" lon="14.64838667"><ele>102.0</ele><time>2016-06-18T04:05:47.293Z</time></trkpt><trkpt lat="58.26965667" lon="14.64835667"><ele>102.0</ele><time>2016-06-18T04:05:48.298Z</time></trkpt><trkpt lat="58.26958667" lon="14.64834167"><ele>102.0</ele><time>2016-06-18T04:05:49.305Z</time></trkpt><trkpt lat="58.26958667" lon="14.64834167"><ele>102.0</ele><time>2016-06-18T04:05:50.299Z</time></trkpt><trkpt lat="58.26944833" lon="14.64831167"><ele>102.0</ele><time>2016-06-18T04:05:51.298Z</time></trkpt><trkpt lat="58.26937667" lon="14.64829667"><ele>102.0</ele><time>2016-06-18T04:05:52.288Z</time></trkpt><trkpt lat="58.26937667" lon="14.64829667"><ele>102.0</ele><time>2016-06-18T04:05:53.312Z</time></trkpt><trkpt lat="58.26923333" lon="14.64827"><ele>102.0</ele><time>2016-06-18T04:05:54.287Z</time></trkpt><trkpt lat="58.26923333" lon="14.64827"><ele>102.0</ele><time>2016-06-18T04:05:55.294Z</time></trkpt><trkpt lat="58.26908833" lon="14.64824667"><ele>102.0</ele><time>2016-06-18T04:05:56.289Z</time></trkpt><trkpt lat="58.26908833" lon="14.64824667"><ele>102.0</ele><time>2016-06-18T04:05:57.291Z</time></trkpt><trkpt lat="58.26894333" lon="14.64822333"><ele>102.0</ele><time>2016-06-18T04:05:58.328Z</time></trkpt><trkpt lat="58.26894333" lon="14.64822333"><ele>102.0</ele><time>2016-06-18T04:05:59.311Z</time></trkpt><trkpt lat="58.26880167" lon="14.64819833"><ele>102.0</ele><time>2016-06-18T04:06:00.285Z</time></trkpt><trkpt lat="58.26880167" lon="14.64819833"><ele>102.0</ele><time>2016-06-18T04:06:01.308Z</time></trkpt><trkpt lat="58.26866" lon="14.64817667"><ele>103.0</ele><time>2016-06-18T04:06:02.287Z</time></trkpt><trkpt lat="58.26866" lon="14.64817667"><ele>103.0</ele><time>2016-06-18T04:06:03.302Z</time></trkpt><trkpt lat="58.26851667" lon="14.64816"><ele>103.0</ele><time>2016-06-18T04:06:04.285Z</time></trkpt><trkpt lat="58.26851667" lon="14.64816"><ele>103.0</ele><time>2016-06-18T04:06:05.294Z</time></trkpt><trkpt lat="58.268375" lon="14.64813667"><ele>103.0</ele><time>2016-06-18T04:06:06.295Z</time></trkpt><trkpt lat="58.268375" lon="14.64813667"><ele>103.0</ele><time>2016-06-18T04:06:07.294Z</time></trkpt><trkpt lat="58.26823167" lon="14.648115"><ele>103.0</ele><time>2016-06-18T04:06:08.286Z</time></trkpt><trkpt lat="58.26823167" lon="14.648115"><ele>103.0</ele><time>2016-06-18T04:06:09.310Z</time></trkpt><trkpt lat="58.26808667" lon="14.64810167"><ele>103.0</ele><time>2016-06-18T04:06:10.288Z</time></trkpt><trkpt lat="58.26808667" lon="14.64810167"><ele>103.0</ele><time>2016-06-18T04:06:11.317Z</time></trkpt><trkpt lat="58.26794" lon="14.64808667"><ele>103.0</ele><time>2016-06-18T04:06:12.311Z</time></trkpt><trkpt lat="58.26786333" lon="14.64807833"><ele>103.0</ele><time>2016-06-18T04:06:13.310Z</time></trkpt><trkpt lat="58.26778833" lon="14.64806833"><ele>103.0</ele><time>2016-06-18T04:06:14.295Z</time></trkpt><trkpt lat="58.26778833" lon="14.64806833"><ele>103.0</ele><time>2016-06-18T04:06:15.295Z</time></trkpt><trkpt lat="58.267635" lon="14.64804667"><ele>103.0</ele><time>2016-06-18T04:06:16.319Z</time></trkpt><trkpt lat="58.267635" lon="14.64804667"><ele>103.0</ele><time>2016-06-18T04:06:17.302Z</time></trkpt><trkpt lat="58.26747833" lon="14.64803167"><ele>103.0</ele><time>2016-06-18T04:06:18.282Z</time></trkpt><trkpt lat="58.26747833" lon="14.64803167"><ele>103.0</ele><time>2016-06-18T04:06:19.295Z</time></trkpt><trkpt lat="58.267325" lon="14.64801"><ele>104.0</ele><time>2016-06-18T04:06:20.288Z</time></trkpt><trkpt lat="58.267325" lon="14.64801"><ele>104.0</ele><time>2016-06-18T04:06:21.302Z</time></trkpt><trkpt lat="58.26717167" lon="14.64799333"><ele>104.0</ele><time>2016-06-18T04:06:22.282Z</time></trkpt><trkpt lat="58.26717167" lon="14.64799333"><ele>104.0</ele><time>2016-06-18T04:06:23.300Z</time></trkpt><trkpt lat="58.267015" lon="14.64798"><ele>104.0</ele><time>2016-06-18T04:06:24.282Z</time></trkpt><trkpt lat="58.267015" lon="14.64798"><ele>104.0</ele><time>2016-06-18T04:06:25.296Z</time></trkpt><trkpt lat="58.26686" lon="14.64796833"><ele>104.0</ele><time>2016-06-18T04:06:26.286Z</time></trkpt><trkpt lat="58.26686" lon="14.64796833"><ele>104.0</ele><time>2016-06-18T04:06:27.295Z</time></trkpt><trkpt lat="58.266705" lon="14.64796167"><ele>104.0</ele><time>2016-06-18T04:06:28.328Z</time></trkpt><trkpt lat="58.266705" lon="14.64796167"><ele>104.0</ele><time>2016-06-18T04:06:29.306Z</time></trkpt><trkpt lat="58.266555" lon="14.64795333"><ele>104.0</ele><time>2016-06-18T04:06:30.318Z</time></trkpt><trkpt lat="58.266555" lon="14.64795333"><ele>104.0</ele><time>2016-06-18T04:06:31.309Z</time></trkpt><trkpt lat="58.26641" lon="14.64794333"><ele>104.0</ele><time>2016-06-18T04:06:32.295Z</time></trkpt><trkpt lat="58.26641" lon="14.64794333"><ele>104.0</ele><time>2016-06-18T04:06:33.298Z</time></trkpt><trkpt lat="58.26626833" lon="14.64793667"><ele>104.0</ele><time>2016-06-18T04:06:34.327Z</time></trkpt><trkpt lat="58.26626833" lon="14.64793667"><ele>104.0</ele><time>2016-06-18T04:06:35.306Z</time></trkpt><trkpt lat="58.266125" lon="14.64793"><ele>104.0</ele><time>2016-06-18T04:06:36.318Z</time></trkpt><trkpt lat="58.26605333" lon="14.64793"><ele>104.0</ele><time>2016-06-18T04:06:37.308Z</time></trkpt><trkpt lat="58.26605333" lon="14.64793"><ele>104.0</ele><time>2016-06-18T04:06:38.296Z</time></trkpt><trkpt lat="58.26591167" lon="14.64793167"><ele>104.0</ele><time>2016-06-18T04:06:39.318Z</time></trkpt><trkpt lat="58.26591167" lon="14.64793167"><ele>104.0</ele><time>2016-06-18T04:06:40.302Z</time></trkpt><trkpt lat="58.26577333" lon="14.64792667"><ele>105.0</ele><time>2016-06-18T04:06:41.284Z</time></trkpt><trkpt lat="58.26577333" lon="14.64792667"><ele>105.0</ele><time>2016-06-18T04:06:42.309Z</time></trkpt><trkpt lat="58.26563833" lon="14.64792333"><ele>105.0</ele><time>2016-06-18T04:06:43.308Z</time></trkpt><trkpt lat="58.26557333" lon="14.647925"><ele>105.0</ele><time>2016-06-18T04:06:44.287Z</time></trkpt><trkpt lat="58.26557333" lon="14.647925"><ele>105.0</ele><time>2016-06-18T04:06:45.295Z</time></trkpt><trkpt lat="58.26544167" lon="14.64792833"><ele>105.0</ele><time>2016-06-18T04:06:46.283Z</time></trkpt><trkpt lat="58.26544167" lon="14.64792833"><ele>105.0</ele><time>2016-06-18T04:06:47.304Z</time></trkpt><trkpt lat="58.26530667" lon="14.64793"><ele>105.0</ele><time>2016-06-18T04:06:48.325Z</time></trkpt><trkpt lat="58.26530667" lon="14.64793"><ele>105.0</ele><time>2016-06-18T04:06:49.295Z</time></trkpt><trkpt lat="58.26516667" lon="14.64793833"><ele>105.0</ele><time>2016-06-18T04:06:50.286Z</time></trkpt><trkpt lat="58.26516667" lon="14.64793833"><ele>105.0</ele><time>2016-06-18T04:06:51.289Z</time></trkpt><trkpt lat="58.26502667" lon="14.64793833"><ele>105.0</ele><time>2016-06-18T04:06:52.295Z</time></trkpt><trkpt lat="58.26502667" lon="14.64793833"><ele>105.0</ele><time>2016-06-18T04:06:53.296Z</time></trkpt><trkpt lat="58.26488333" lon="14.647945"><ele>105.0</ele><time>2016-06-18T04:06:54.299Z</time></trkpt><trkpt lat="58.26488333" lon="14.647945"><ele>105.0</ele><time>2016-06-18T04:06:55.294Z</time></trkpt><trkpt lat="58.26474" lon="14.64795167"><ele>105.0</ele><time>2016-06-18T04:06:56.298Z</time></trkpt><trkpt lat="58.26474" lon="14.64795167"><ele>105.0</ele><time>2016-06-18T04:06:57.297Z</time></trkpt><trkpt lat="58.264595" lon="14.64796333"><ele>106.0</ele><time>2016-06-18T04:06:58.286Z</time></trkpt><trkpt lat="58.264595" lon="14.64796333"><ele>106.0</ele><time>2016-06-18T04:06:59.303Z</time></trkpt><trkpt lat="58.264445" lon="14.64797167"><ele>105.0</ele><time>2016-06-18T04:07:00.284Z</time></trkpt><trkpt lat="58.264445" lon="14.64797167"><ele>105.0</ele><time>2016-06-18T04:07:01.307Z</time></trkpt><trkpt lat="58.26429333" lon="14.64797833"><ele>106.0</ele><time>2016-06-18T04:07:02.286Z</time></trkpt><trkpt lat="58.26429333" lon="14.64797833"><ele>106.0</ele><time>2016-06-18T04:07:03.300Z</time></trkpt><trkpt lat="58.26414" lon="14.64799"><ele>106.0</ele><time>2016-06-18T04:07:04.298Z</time></trkpt><trkpt lat="58.26414" lon="14.64799"><ele>106.0</ele><time>2016-06-18T04:07:05.295Z</time></trkpt><trkpt lat="58.26398333" lon="14.64800167"><ele>106.0</ele><time>2016-06-18T04:07:06.288Z</time></trkpt><trkpt lat="58.26398333" lon="14.64800167"><ele>106.0</ele><time>2016-06-18T04:07:07.305Z</time></trkpt><trkpt lat="58.26382833" lon="14.64802"><ele>106.0</ele><time>2016-06-18T04:07:08.298Z</time></trkpt><trkpt lat="58.26382833" lon="14.64802"><ele>106.0</ele><time>2016-06-18T04:07:09.296Z</time></trkpt><trkpt lat="58.26367167" lon="14.648035"><ele>106.0</ele><time>2016-06-18T04:07:10.298Z</time></trkpt><trkpt lat="58.26367167" lon="14.648035"><ele>106.0</ele><time>2016-06-18T04:07:11.289Z</time></trkpt><trkpt lat="58.26351667" lon="14.64805"><ele>106.0</ele><time>2016-06-18T04:07:12.318Z</time></trkpt><trkpt lat="58.26344" lon="14.648055"><ele>106.0</ele><time>2016-06-18T04:07:13.317Z</time></trkpt><trkpt lat="58.26336167" lon="14.64806167"><ele>106.0</ele><time>2016-06-18T04:07:14.298Z</time></trkpt><trkpt lat="58.26336167" lon="14.64806167"><ele>106.0</ele><time>2016-06-18T04:07:15.295Z</time></trkpt><trkpt lat="58.26320833" lon="14.64808333"><ele>106.0</ele><time>2016-06-18T04:07:16.298Z</time></trkpt><trkpt lat="58.26313167" lon="14.648095"><ele>106.0</ele><time>2016-06-18T04:07:17.302Z</time></trkpt><trkpt lat="58.26313167" lon="14.648095"><ele>106.0</ele><time>2016-06-18T04:07:18.294Z</time></trkpt><trkpt lat="58.26297833" lon="14.64811667"><ele>106.0</ele><time>2016-06-18T04:07:19.308Z</time></trkpt><trkpt lat="58.26290167" lon="14.64812833"><ele>107.0</ele><time>2016-06-18T04:07:20.308Z</time></trkpt><trkpt lat="58.26290167" lon="14.64812833"><ele>107.0</ele><time>2016-06-18T04:07:21.295Z</time></trkpt><trkpt lat="58.26275333" lon="14.64815167"><ele>107.0</ele><time>2016-06-18T04:07:22.286Z</time></trkpt><trkpt lat="58.26267833" lon="14.64816667"><ele>107.0</ele><time>2016-06-18T04:07:23.288Z</time></trkpt><trkpt lat="58.26267833" lon="14.64816667"><ele>107.0</ele><time>2016-06-18T04:07:24.310Z</time></trkpt><trkpt lat="58.26253167" lon="14.64819833"><ele>107.0</ele><time>2016-06-18T04:07:25.308Z</time></trkpt><trkpt lat="58.26245667" lon="14.64821167"><ele>107.0</ele><time>2016-06-18T04:07:26.305Z</time></trkpt><trkpt lat="58.26245667" lon="14.64821167"><ele>107.0</ele><time>2016-06-18T04:07:27.303Z</time></trkpt><trkpt lat="58.26231333" lon="14.648235"><ele>107.0</ele><time>2016-06-18T04:07:28.308Z</time></trkpt><trkpt lat="58.26231333" lon="14.648235"><ele>107.0</ele><time>2016-06-18T04:07:29.310Z</time></trkpt><trkpt lat="58.26217" lon="14.648265"><ele>107.0</ele><time>2016-06-18T04:07:30.308Z</time></trkpt><trkpt lat="58.26217" lon="14.648265"><ele>107.0</ele><time>2016-06-18T04:07:31.295Z</time></trkpt><trkpt lat="58.26202667" lon="14.648295"><ele>107.0</ele><time>2016-06-18T04:07:32.286Z</time></trkpt><trkpt lat="58.26202667" lon="14.648295"><ele>107.0</ele><time>2016-06-18T04:07:33.289Z</time></trkpt><trkpt lat="58.26188167" lon="14.648325"><ele>107.0</ele><time>2016-06-18T04:07:34.308Z</time></trkpt><trkpt lat="58.26188167" lon="14.648325"><ele>107.0</ele><time>2016-06-18T04:07:35.295Z</time></trkpt><trkpt lat="58.261735" lon="14.64834833"><ele>108.0</ele><time>2016-06-18T04:07:36.299Z</time></trkpt><trkpt lat="58.261735" lon="14.64834833"><ele>108.0</ele><time>2016-06-18T04:07:37.307Z</time></trkpt><trkpt lat="58.26159" lon="14.64838"><ele>108.0</ele><time>2016-06-18T04:07:38.298Z</time></trkpt><trkpt lat="58.26159" lon="14.64838"><ele>108.0</ele><time>2016-06-18T04:07:39.296Z</time></trkpt><trkpt lat="58.26145" lon="14.64841333"><ele>108.0</ele><time>2016-06-18T04:07:40.298Z</time></trkpt><trkpt lat="58.26145" lon="14.64841333"><ele>108.0</ele><time>2016-06-18T04:07:41.292Z</time></trkpt><trkpt lat="58.26131" lon="14.64845"><ele>108.0</ele><time>2016-06-18T04:07:42.298Z</time></trkpt><trkpt lat="58.26131" lon="14.64845"><ele>108.0</ele><time>2016-06-18T04:07:43.299Z</time></trkpt><trkpt lat="58.26116833" lon="14.64848"><ele>108.0</ele><time>2016-06-18T04:07:44.291Z</time></trkpt><trkpt lat="58.26116833" lon="14.64848"><ele>108.0</ele><time>2016-06-18T04:07:45.295Z</time></trkpt><trkpt lat="58.26102333" lon="14.64851667"><ele>108.0</ele><time>2016-06-18T04:07:46.285Z</time></trkpt><trkpt lat="58.26102333" lon="14.64851667"><ele>108.0</ele><time>2016-06-18T04:07:47.297Z</time></trkpt><trkpt lat="58.26087667" lon="14.648555"><ele>108.0</ele><time>2016-06-18T04:07:48.298Z</time></trkpt><trkpt lat="58.26087667" lon="14.648555"><ele>108.0</ele><time>2016-06-18T04:07:49.296Z</time></trkpt><trkpt lat="58.26073" lon="14.64859167"><ele>109.0</ele><time>2016-06-18T04:07:50.318Z</time></trkpt><trkpt lat="58.26073" lon="14.64859167"><ele>109.0</ele><time>2016-06-18T04:07:51.316Z</time></trkpt><trkpt lat="58.26058333" lon="14.64862167"><ele>109.0</ele><time>2016-06-18T04:07:52.298Z</time></trkpt><trkpt lat="58.26058333" lon="14.64862167"><ele>109.0</ele><time>2016-06-18T04:07:53.300Z</time></trkpt><trkpt lat="58.26043833" lon="14.64866"><ele>109.0</ele><time>2016-06-18T04:07:54.288Z</time></trkpt><trkpt lat="58.26036667" lon="14.64868"><ele>109.0</ele><time>2016-06-18T04:07:55.318Z</time></trkpt><trkpt lat="58.26029667" lon="14.64870167"><ele>109.0</ele><time>2016-06-18T04:07:56.308Z</time></trkpt><trkpt lat="58.26029667" lon="14.64870167"><ele>109.0</ele><time>2016-06-18T04:07:57.298Z</time></trkpt><trkpt lat="58.260155" lon="14.64874167"><ele>109.0</ele><time>2016-06-18T04:07:58.299Z</time></trkpt><trkpt lat="58.260155" lon="14.64874167"><ele>109.0</ele><time>2016-06-18T04:07:59.302Z</time></trkpt><trkpt lat="58.26001167" lon="14.648785"><ele>110.0</ele><time>2016-06-18T04:08:00.320Z</time></trkpt><trkpt lat="58.25993833" lon="14.64880333"><ele>110.0</ele><time>2016-06-18T04:08:01.285Z</time></trkpt><trkpt lat="58.25986833" lon="14.64882167"><ele>110.0</ele><time>2016-06-18T04:08:02.285Z</time></trkpt><trkpt lat="58.25986833" lon="14.64882167"><ele>110.0</ele><time>2016-06-18T04:08:03.300Z</time></trkpt><trkpt lat="58.25972333" lon="14.64886167"><ele>110.0</ele><time>2016-06-18T04:08:04.298Z</time></trkpt><trkpt lat="58.25972333" lon="14.64886167"><ele>110.0</ele><time>2016-06-18T04:08:05.295Z</time></trkpt><trkpt lat="58.25957833" lon="14.64890333"><ele>110.0</ele><time>2016-06-18T04:08:06.298Z</time></trkpt><trkpt lat="58.25957833" lon="14.64890333"><ele>110.0</ele><time>2016-06-18T04:08:07.293Z</time></trkpt><trkpt lat="58.25943167" lon="14.648945"><ele>110.0</ele><time>2016-06-18T04:08:08.285Z</time></trkpt><trkpt lat="58.25943167" lon="14.648945"><ele>110.0</ele><time>2016-06-18T04:08:09.298Z</time></trkpt><trkpt lat="58.259285" lon="14.64899833"><ele>110.0</ele><time>2016-06-18T04:08:10.286Z</time></trkpt><trkpt lat="58.259285" lon="14.64899833"><ele>110.0</ele><time>2016-06-18T04:08:11.310Z</time></trkpt><trkpt lat="58.25914" lon="14.64905"><ele>110.0</ele><time>2016-06-18T04:08:12.321Z</time></trkpt><trkpt lat="58.25914" lon="14.64905"><ele>110.0</ele><time>2016-06-18T04:08:13.298Z</time></trkpt><trkpt lat="58.25899333" lon="14.64909667"><ele>111.0</ele><time>2016-06-18T04:08:14.308Z</time></trkpt><trkpt lat="58.25899333" lon="14.64909667"><ele>111.0</ele><time>2016-06-18T04:08:15.295Z</time></trkpt><trkpt lat="58.25884833" lon="14.64914833"><ele>111.0</ele><time>2016-06-18T04:08:16.285Z</time></trkpt><trkpt lat="58.25884833" lon="14.64914833"><ele>111.0</ele><time>2016-06-18T04:08:17.300Z</time></trkpt><trkpt lat="58.25870667" lon="14.64920333"><ele>111.0</ele><time>2016-06-18T04:08:18.282Z</time></trkpt><trkpt lat="58.25870667" lon="14.64920333"><ele>111.0</ele><time>2016-06-18T04:08:19.299Z</time></trkpt><trkpt lat="58.25856333" lon="14.64925333"><ele>111.0</ele><time>2016-06-18T04:08:20.291Z</time></trkpt><trkpt lat="58.25849" lon="14.64927667"><ele>111.0</ele><time>2016-06-18T04:08:21.313Z</time></trkpt><trkpt lat="58.25849" lon="14.64927667"><ele>111.0</ele><time>2016-06-18T04:08:22.295Z</time></trkpt><trkpt lat="58.25834667" lon="14.64932333"><ele>111.0</ele><time>2016-06-18T04:08:23.328Z</time></trkpt><trkpt lat="58.25834667" lon="14.64932333"><ele>111.0</ele><time>2016-06-18T04:08:24.301Z</time></trkpt><trkpt lat="58.25820167" lon="14.64938"><ele>111.0</ele><time>2016-06-18T04:08:25.292Z</time></trkpt><trkpt lat="58.25820167" lon="14.64938"><ele>111.0</ele><time>2016-06-18T04:08:26.288Z</time></trkpt><trkpt lat="58.258055" lon="14.64944"><ele>112.0</ele><time>2016-06-18T04:08:27.295Z</time></trkpt><trkpt lat="58.25798167" lon="14.64947"><ele>112.0</ele><time>2016-06-18T04:08:28.308Z</time></trkpt><trkpt lat="58.25798167" lon="14.64947"><ele>112.0</ele><time>2016-06-18T04:08:29.295Z</time></trkpt><trkpt lat="58.25783333" lon="14.649525"><ele>112.0</ele><time>2016-06-18T04:08:30.302Z</time></trkpt><trkpt lat="58.25775833" lon="14.64955333"><ele>112.0</ele><time>2016-06-18T04:08:31.308Z</time></trkpt><trkpt lat="58.257685" lon="14.64958167"><ele>112.0</ele><time>2016-06-18T04:08:32.288Z</time></trkpt><trkpt lat="58.257685" lon="14.64958167"><ele>112.0</ele><time>2016-06-18T04:08:33.309Z</time></trkpt><trkpt lat="58.25753667" lon="14.64963333"><ele>113.0</ele><time>2016-06-18T04:08:34.289Z</time></trkpt><trkpt lat="58.25753667" lon="14.64963333"><ele>113.0</ele><time>2016-06-18T04:08:35.306Z</time></trkpt><trkpt lat="58.25739" lon="14.64969"><ele>113.0</ele><time>2016-06-18T04:08:36.285Z</time></trkpt><trkpt lat="58.25739" lon="14.64969"><ele>113.0</ele><time>2016-06-18T04:08:37.294Z</time></trkpt><trkpt lat="58.257245" lon="14.64974667"><ele>113.0</ele><time>2016-06-18T04:08:38.297Z</time></trkpt><trkpt lat="58.257245" lon="14.64974667"><ele>113.0</ele><time>2016-06-18T04:08:39.297Z</time></trkpt><trkpt lat="58.25710167" lon="14.64979833"><ele>113.0</ele><time>2016-06-18T04:08:40.284Z</time></trkpt><trkpt lat="58.25710167" lon="14.64979833"><ele>113.0</ele><time>2016-06-18T04:08:41.293Z</time></trkpt><trkpt lat="58.25696" lon="14.649855"><ele>114.0</ele><time>2016-06-18T04:08:42.283Z</time></trkpt><trkpt lat="58.25696" lon="14.649855"><ele>114.0</ele><time>2016-06-18T04:08:43.297Z</time></trkpt><trkpt lat="58.25681833" lon="14.649905"><ele>114.0</ele><time>2016-06-18T04:08:44.288Z</time></trkpt><trkpt lat="58.25681833" lon="14.649905"><ele>114.0</ele><time>2016-06-18T04:08:45.310Z</time></trkpt><trkpt lat="58.25667333" lon="14.64995667"><ele>114.0</ele><time>2016-06-18T04:08:46.284Z</time></trkpt><trkpt lat="58.25667333" lon="14.64995667"><ele>114.0</ele><time>2016-06-18T04:08:47.286Z</time></trkpt><trkpt lat="58.25653167" lon="14.65000833"><ele>115.0</ele><time>2016-06-18T04:08:48.296Z</time></trkpt><trkpt lat="58.25653167" lon="14.65000833"><ele>115.0</ele><time>2016-06-18T04:08:49.294Z</time></trkpt><trkpt lat="58.25639" lon="14.65006"><ele>115.0</ele><time>2016-06-18T04:08:50.285Z</time></trkpt><trkpt lat="58.25639" lon="14.65006"><ele>115.0</ele><time>2016-06-18T04:08:51.303Z</time></trkpt><trkpt lat="58.25624333" lon="14.65011167"><ele>115.0</ele><time>2016-06-18T04:08:52.295Z</time></trkpt><trkpt lat="58.25624333" lon="14.65011167"><ele>115.0</ele><time>2016-06-18T04:08:53.297Z</time></trkpt><trkpt lat="58.2561" lon="14.650165"><ele>115.0</ele><time>2016-06-18T04:08:54.288Z</time></trkpt><trkpt lat="58.2561" lon="14.650165"><ele>115.0</ele><time>2016-06-18T04:08:55.317Z</time></trkpt><trkpt lat="58.255955" lon="14.65022167"><ele>115.0</ele><time>2016-06-18T04:08:56.285Z</time></trkpt><trkpt lat="58.255955" lon="14.65022167"><ele>115.0</ele><time>2016-06-18T04:08:57.295Z</time></trkpt><trkpt lat="58.25581" lon="14.65028"><ele>115.0</ele><time>2016-06-18T04:08:58.306Z</time></trkpt><trkpt lat="58.25573833" lon="14.65030833"><ele>115.0</ele><time>2016-06-18T04:08:59.312Z</time></trkpt><trkpt lat="58.25573833" lon="14.65030833"><ele>115.0</ele><time>2016-06-18T04:09:00.298Z</time></trkpt><trkpt lat="58.255595" lon="14.65035833"><ele>115.0</ele><time>2016-06-18T04:09:01.282Z</time></trkpt><trkpt lat="58.25552167" lon="14.65038333"><ele>115.0</ele><time>2016-06-18T04:09:02.305Z</time></trkpt><trkpt lat="58.25552167" lon="14.65038333"><ele>115.0</ele><time>2016-06-18T04:09:03.300Z</time></trkpt><trkpt lat="58.25537667" lon="14.65043667"><ele>115.0</ele><time>2016-06-18T04:09:04.294Z</time></trkpt><trkpt lat="58.25537667" lon="14.65043667"><ele>115.0</ele><time>2016-06-18T04:09:05.296Z</time></trkpt><trkpt lat="58.25523333" lon="14.65049"><ele>116.0</ele><time>2016-06-18T04:09:06.318Z</time></trkpt><trkpt lat="58.25523333" lon="14.65049"><ele>116.0</ele><time>2016-06-18T04:09:07.295Z</time></trkpt><trkpt lat="58.25508667" lon="14.65054333"><ele>116.0</ele><time>2016-06-18T04:09:08.290Z</time></trkpt><trkpt lat="58.25501333" lon="14.65057333"><ele>116.0</ele><time>2016-06-18T04:09:09.298Z</time></trkpt><trkpt lat="58.25494" lon="14.65060333"><ele>116.0</ele><time>2016-06-18T04:09:10.298Z</time></trkpt><trkpt lat="58.25494" lon="14.65060333"><ele>116.0</ele><time>2016-06-18T04:09:11.300Z</time></trkpt><trkpt lat="58.25479333" lon="14.65065667"><ele>116.0</ele><time>2016-06-18T04:09:12.315Z</time></trkpt><trkpt lat="58.25471833" lon="14.650685"><ele>116.0</ele><time>2016-06-18T04:09:13.302Z</time></trkpt><trkpt lat="58.254645" lon="14.65071167"><ele>116.0</ele><time>2016-06-18T04:09:14.298Z</time></trkpt><trkpt lat="58.254645" lon="14.65071167"><ele>116.0</ele><time>2016-06-18T04:09:15.296Z</time></trkpt><trkpt lat="58.25449833" lon="14.65076333"><ele>116.0</ele><time>2016-06-18T04:09:16.317Z</time></trkpt><trkpt lat="58.25449833" lon="14.65076333"><ele>116.0</ele><time>2016-06-18T04:09:17.295Z</time></trkpt><trkpt lat="58.25435167" lon="14.650815"><ele>116.0</ele><time>2016-06-18T04:09:18.328Z</time></trkpt><trkpt lat="58.25428" lon="14.65084167"><ele>116.0</ele><time>2016-06-18T04:09:19.308Z</time></trkpt><trkpt lat="58.25420833" lon="14.65087"><ele>116.0</ele><time>2016-06-18T04:09:20.328Z</time></trkpt><trkpt lat="58.25420833" lon="14.65087"><ele>116.0</ele><time>2016-06-18T04:09:21.310Z</time></trkpt><trkpt lat="58.25406833" lon="14.650925"><ele>116.0</ele><time>2016-06-18T04:09:22.287Z</time></trkpt><trkpt lat="58.25406833" lon="14.650925"><ele>116.0</ele><time>2016-06-18T04:09:23.300Z</time></trkpt><trkpt lat="58.25392667" lon="14.650975"><ele>116.0</ele><time>2016-06-18T04:09:24.303Z</time></trkpt><trkpt lat="58.25385667" lon="14.65099667"><ele>116.0</ele><time>2016-06-18T04:09:25.308Z</time></trkpt><trkpt lat="58.25378667" lon="14.65102"><ele>117.0</ele><time>2016-06-18T04:09:26.307Z</time></trkpt><trkpt lat="58.25378667" lon="14.65102"><ele>117.0</ele><time>2016-06-18T04:09:27.296Z</time></trkpt><trkpt lat="58.25364167" lon="14.65106833"><ele>117.0</ele><time>2016-06-18T04:09:28.286Z</time></trkpt><trkpt lat="58.25364167" lon="14.65106833"><ele>117.0</ele><time>2016-06-18T04:09:29.318Z</time></trkpt><trkpt lat="58.25350167" lon="14.65112"><ele>118.0</ele><time>2016-06-18T04:09:30.298Z</time></trkpt><trkpt lat="58.25350167" lon="14.65112"><ele>118.0</ele><time>2016-06-18T04:09:31.296Z</time></trkpt><trkpt lat="58.25336333" lon="14.65116667"><ele>118.0</ele><time>2016-06-18T04:09:32.289Z</time></trkpt><trkpt lat="58.253295" lon="14.65119333"><ele>119.0</ele><time>2016-06-18T04:09:33.299Z</time></trkpt><trkpt lat="58.253295" lon="14.65119333"><ele>119.0</ele><time>2016-06-18T04:09:34.306Z</time></trkpt><trkpt lat="58.25315667" lon="14.65124667"><ele>119.0</ele><time>2016-06-18T04:09:35.318Z</time></trkpt><trkpt lat="58.253085" lon="14.65127667"><ele>120.0</ele><time>2016-06-18T04:09:36.308Z</time></trkpt><trkpt lat="58.25301333" lon="14.65130667"><ele>120.0</ele><time>2016-06-18T04:09:37.286Z</time></trkpt><trkpt lat="58.25294333" lon="14.65133833"><ele>120.0</ele><time>2016-06-18T04:09:38.298Z</time></trkpt><trkpt lat="58.25294333" lon="14.65133833"><ele>120.0</ele><time>2016-06-18T04:09:39.311Z</time></trkpt><trkpt lat="58.25280167" lon="14.65140667"><ele>121.0</ele><time>2016-06-18T04:09:40.285Z</time></trkpt><trkpt lat="58.25280167" lon="14.65140667"><ele>121.0</ele><time>2016-06-18T04:09:41.302Z</time></trkpt><trkpt lat="58.25265833" lon="14.65147833"><ele>121.0</ele><time>2016-06-18T04:09:42.283Z</time></trkpt><trkpt lat="58.25265833" lon="14.65147833"><ele>121.0</ele><time>2016-06-18T04:09:43.300Z</time></trkpt><trkpt lat="58.25251833" lon="14.651555"><ele>121.0</ele><time>2016-06-18T04:09:44.319Z</time></trkpt><trkpt lat="58.25251833" lon="14.651555"><ele>121.0</ele><time>2016-06-18T04:09:45.297Z</time></trkpt><trkpt lat="58.25238167" lon="14.651635"><ele>122.0</ele><time>2016-06-18T04:09:46.285Z</time></trkpt><trkpt lat="58.25238167" lon="14.651635"><ele>122.0</ele><time>2016-06-18T04:09:47.296Z</time></trkpt><trkpt lat="58.25224667" lon="14.65171833"><ele>122.0</ele><time>2016-06-18T04:09:48.298Z</time></trkpt><trkpt lat="58.25224667" lon="14.65171833"><ele>122.0</ele><time>2016-06-18T04:09:49.296Z</time></trkpt><trkpt lat="58.25211667" lon="14.65180167"><ele>122.0</ele><time>2016-06-18T04:09:50.286Z</time></trkpt><trkpt lat="58.25211667" lon="14.65180167"><ele>122.0</ele><time>2016-06-18T04:09:51.294Z</time></trkpt><trkpt lat="58.25198667" lon="14.65189"><ele>123.0</ele><time>2016-06-18T04:09:52.298Z</time></trkpt><trkpt lat="58.25198667" lon="14.65189"><ele>123.0</ele><time>2016-06-18T04:09:53.298Z</time></trkpt><trkpt lat="58.25185667" lon="14.651985"><ele>123.0</ele><time>2016-06-18T04:09:54.297Z</time></trkpt><trkpt lat="58.25185667" lon="14.651985"><ele>123.0</ele><time>2016-06-18T04:09:55.297Z</time></trkpt><trkpt lat="58.25172667" lon="14.652085"><ele>123.0</ele><time>2016-06-18T04:09:56.287Z</time></trkpt><trkpt lat="58.25172667" lon="14.652085"><ele>123.0</ele><time>2016-06-18T04:09:57.304Z</time></trkpt><trkpt lat="58.25159667" lon="14.652185"><ele>123.0</ele><time>2016-06-18T04:09:58.298Z</time></trkpt><trkpt lat="58.25159667" lon="14.652185"><ele>123.0</ele><time>2016-06-18T04:09:59.297Z</time></trkpt><trkpt lat="58.251465" lon="14.65229333"><ele>123.0</ele><time>2016-06-18T04:10:00.318Z</time></trkpt><trkpt lat="58.251465" lon="14.65229333"><ele>123.0</ele><time>2016-06-18T04:10:01.297Z</time></trkpt><trkpt lat="58.251335" lon="14.652405"><ele>123.0</ele><time>2016-06-18T04:10:02.286Z</time></trkpt><trkpt lat="58.251335" lon="14.652405"><ele>123.0</ele><time>2016-06-18T04:10:03.304Z</time></trkpt><trkpt lat="58.25120333" lon="14.65251833"><ele>123.0</ele><time>2016-06-18T04:10:04.288Z</time></trkpt><trkpt lat="58.25120333" lon="14.65251833"><ele>123.0</ele><time>2016-06-18T04:10:05.297Z</time></trkpt><trkpt lat="58.25107333" lon="14.65263833"><ele>123.0</ele><time>2016-06-18T04:10:06.284Z</time></trkpt><trkpt lat="58.25100667" lon="14.65270167"><ele>123.0</ele><time>2016-06-18T04:10:07.286Z</time></trkpt><trkpt lat="58.25100667" lon="14.65270167"><ele>123.0</ele><time>2016-06-18T04:10:08.296Z</time></trkpt><trkpt lat="58.25087667" lon="14.65283"><ele>124.0</ele><time>2016-06-18T04:10:09.284Z</time></trkpt><trkpt lat="58.25081333" lon="14.65289667"><ele>124.0</ele><time>2016-06-18T04:10:10.307Z</time></trkpt><trkpt lat="58.25081333" lon="14.65289667"><ele>124.0</ele><time>2016-06-18T04:10:11.282Z</time></trkpt><trkpt lat="58.25068333" lon="14.65302667"><ele>124.0</ele><time>2016-06-18T04:10:12.287Z</time></trkpt><trkpt lat="58.25068333" lon="14.65302667"><ele>124.0</ele><time>2016-06-18T04:10:13.298Z</time></trkpt><trkpt lat="58.25055833" lon="14.65315833"><ele>124.0</ele><time>2016-06-18T04:10:14.308Z</time></trkpt><trkpt lat="58.25055833" lon="14.65315833"><ele>124.0</ele><time>2016-06-18T04:10:15.297Z</time></trkpt><trkpt lat="58.25043333" lon="14.65329833"><ele>124.0</ele><time>2016-06-18T04:10:16.308Z</time></trkpt><trkpt lat="58.25043333" lon="14.65329833"><ele>124.0</ele><time>2016-06-18T04:10:17.309Z</time></trkpt><trkpt lat="58.25031" lon="14.65344167"><ele>124.0</ele><time>2016-06-18T04:10:18.286Z</time></trkpt><trkpt lat="58.25031" lon="14.65344167"><ele>124.0</ele><time>2016-06-18T04:10:19.304Z</time></trkpt><trkpt lat="58.25019" lon="14.65358833"><ele>124.0</ele><time>2016-06-18T04:10:20.288Z</time></trkpt><trkpt lat="58.25019" lon="14.65358833"><ele>124.0</ele><time>2016-06-18T04:10:21.294Z</time></trkpt><trkpt lat="58.25006833" lon="14.65373667"><ele>124.0</ele><time>2016-06-18T04:10:22.314Z</time></trkpt><trkpt lat="58.25006833" lon="14.65373667"><ele>124.0</ele><time>2016-06-18T04:10:23.320Z</time></trkpt><trkpt lat="58.249945" lon="14.65388833"><ele>124.0</ele><time>2016-06-18T04:10:24.298Z</time></trkpt><trkpt lat="58.249945" lon="14.65388833"><ele>124.0</ele><time>2016-06-18T04:10:25.297Z</time></trkpt><trkpt lat="58.24982167" lon="14.65404"><ele>124.0</ele><time>2016-06-18T04:10:26.287Z</time></trkpt><trkpt lat="58.24982167" lon="14.65404"><ele>124.0</ele><time>2016-06-18T04:10:27.302Z</time></trkpt><trkpt lat="58.24969667" lon="14.65419"><ele>124.0</ele><time>2016-06-18T04:10:28.282Z</time></trkpt><trkpt lat="58.24969667" lon="14.65419"><ele>124.0</ele><time>2016-06-18T04:10:29.320Z</time></trkpt><trkpt lat="58.24957" lon="14.654345"><ele>124.0</ele><time>2016-06-18T04:10:30.305Z</time></trkpt><trkpt lat="58.24957" lon="14.654345"><ele>124.0</ele><time>2016-06-18T04:10:31.295Z</time></trkpt><trkpt lat="58.249445" lon="14.65450167"><ele>124.0</ele><time>2016-06-18T04:10:32.298Z</time></trkpt><trkpt lat="58.24938167" lon="14.65457833"><ele>124.0</ele><time>2016-06-18T04:10:33.298Z</time></trkpt><trkpt lat="58.24938167" lon="14.65457833"><ele>124.0</ele><time>2016-06-18T04:10:34.298Z</time></trkpt><trkpt lat="58.24925167" lon="14.65474"><ele>124.0</ele><time>2016-06-18T04:10:35.324Z</time></trkpt><trkpt lat="58.24918833" lon="14.65481833"><ele>124.0</ele><time>2016-06-18T04:10:36.298Z</time></trkpt><trkpt lat="58.24918833" lon="14.65481833"><ele>124.0</ele><time>2016-06-18T04:10:37.297Z</time></trkpt><trkpt lat="58.24906333" lon="14.65496833"><ele>124.0</ele><time>2016-06-18T04:10:38.298Z</time></trkpt><trkpt lat="58.24906333" lon="14.65496833"><ele>124.0</ele><time>2016-06-18T04:10:39.300Z</time></trkpt><trkpt lat="58.24893833" lon="14.65511833"><ele>124.0</ele><time>2016-06-18T04:10:40.293Z</time></trkpt><trkpt lat="58.24893833" lon="14.65511833"><ele>124.0</ele><time>2016-06-18T04:10:41.297Z</time></trkpt><trkpt lat="58.24880833" lon="14.65526833"><ele>125.0</ele><time>2016-06-18T04:10:42.298Z</time></trkpt><trkpt lat="58.24874667" lon="14.65534"><ele>125.0</ele><time>2016-06-18T04:10:43.324Z</time></trkpt><trkpt lat="58.248685" lon="14.655415"><ele>124.0</ele><time>2016-06-18T04:10:44.308Z</time></trkpt><trkpt lat="58.248685" lon="14.655415"><ele>124.0</ele><time>2016-06-18T04:10:45.295Z</time></trkpt><trkpt lat="58.24856167" lon="14.65556167"><ele>124.0</ele><time>2016-06-18T04:10:46.283Z</time></trkpt><trkpt lat="58.24856167" lon="14.65556167"><ele>124.0</ele><time>2016-06-18T04:10:47.300Z</time></trkpt><trkpt lat="58.24844" lon="14.65570667"><ele>125.0</ele><time>2016-06-18T04:10:48.298Z</time></trkpt><trkpt lat="58.24844" lon="14.65570667"><ele>125.0</ele><time>2016-06-18T04:10:49.321Z</time></trkpt><trkpt lat="58.24831333" lon="14.65585333"><ele>125.0</ele><time>2016-06-18T04:10:50.305Z</time></trkpt><trkpt lat="58.24831333" lon="14.65585333"><ele>125.0</ele><time>2016-06-18T04:10:51.297Z</time></trkpt><trkpt lat="58.24818833" lon="14.655995"><ele>125.0</ele><time>2016-06-18T04:10:52.288Z</time></trkpt><trkpt lat="58.24818833" lon="14.655995"><ele>125.0</ele><time>2016-06-18T04:10:53.300Z</time></trkpt><trkpt lat="58.24806833" lon="14.65613"><ele>125.0</ele><time>2016-06-18T04:10:54.288Z</time></trkpt><trkpt lat="58.24806833" lon="14.65613"><ele>125.0</ele><time>2016-06-18T04:10:55.303Z</time></trkpt><trkpt lat="58.247945" lon="14.65626667"><ele>125.0</ele><time>2016-06-18T04:10:56.303Z</time></trkpt><trkpt lat="58.247945" lon="14.65626667"><ele>125.0</ele><time>2016-06-18T04:10:57.296Z</time></trkpt><trkpt lat="58.247825" lon="14.656405"><ele>125.0</ele><time>2016-06-18T04:10:58.292Z</time></trkpt><trkpt lat="58.247825" lon="14.656405"><ele>125.0</ele><time>2016-06-18T04:10:59.298Z</time></trkpt><trkpt lat="58.247705" lon="14.65654167"><ele>126.0</ele><time>2016-06-18T04:11:00.288Z</time></trkpt><trkpt lat="58.247705" lon="14.65654167"><ele>126.0</ele><time>2016-06-18T04:11:01.295Z</time></trkpt><trkpt lat="58.24758167" lon="14.65667833"><ele>126.0</ele><time>2016-06-18T04:11:02.308Z</time></trkpt><trkpt lat="58.24758167" lon="14.65667833"><ele>126.0</ele><time>2016-06-18T04:11:03.300Z</time></trkpt><trkpt lat="58.24745833" lon="14.65681167"><ele>126.0</ele><time>2016-06-18T04:11:04.298Z</time></trkpt><trkpt lat="58.24745833" lon="14.65681167"><ele>126.0</ele><time>2016-06-18T04:11:05.298Z</time></trkpt><trkpt lat="58.24733667" lon="14.65695"><ele>126.0</ele><time>2016-06-18T04:11:06.284Z</time></trkpt><trkpt lat="58.247275" lon="14.65701833"><ele>126.0</ele><time>2016-06-18T04:11:07.287Z</time></trkpt><trkpt lat="58.247275" lon="14.65701833"><ele>126.0</ele><time>2016-06-18T04:11:08.302Z</time></trkpt><trkpt lat="58.24714667" lon="14.657155"><ele>126.0</ele><time>2016-06-18T04:11:09.296Z</time></trkpt><trkpt lat="58.24714667" lon="14.657155"><ele>126.0</ele><time>2016-06-18T04:11:10.304Z</time></trkpt><trkpt lat="58.24702" lon="14.65728833"><ele>127.0</ele><time>2016-06-18T04:11:11.297Z</time></trkpt><trkpt lat="58.246955" lon="14.657355"><ele>127.0</ele><time>2016-06-18T04:11:12.298Z</time></trkpt><trkpt lat="58.246955" lon="14.657355"><ele>127.0</ele><time>2016-06-18T04:11:13.300Z</time></trkpt><trkpt lat="58.24682667" lon="14.65749"><ele>127.0</ele><time>2016-06-18T04:11:14.298Z</time></trkpt><trkpt lat="58.24682667" lon="14.65749"><ele>127.0</ele><time>2016-06-18T04:11:15.298Z</time></trkpt><trkpt lat="58.24669833" lon="14.657625"><ele>127.0</ele><time>2016-06-18T04:11:16.285Z</time></trkpt><trkpt lat="58.24669833" lon="14.657625"><ele>127.0</ele><time>2016-06-18T04:11:17.300Z</time></trkpt><trkpt lat="58.24656833" lon="14.657755"><ele>127.0</ele><time>2016-06-18T04:11:18.293Z</time></trkpt><trkpt lat="58.24656833" lon="14.657755"><ele>127.0</ele><time>2016-06-18T04:11:19.301Z</time></trkpt><trkpt lat="58.24643833" lon="14.65788167"><ele>127.0</ele><time>2016-06-18T04:11:20.308Z</time></trkpt><trkpt lat="58.24643833" lon="14.65788167"><ele>127.0</ele><time>2016-06-18T04:11:21.296Z</time></trkpt><trkpt lat="58.24631167" lon="14.65801167"><ele>127.0</ele><time>2016-06-18T04:11:22.286Z</time></trkpt><trkpt lat="58.24631167" lon="14.65801167"><ele>127.0</ele><time>2016-06-18T04:11:23.299Z</time></trkpt><trkpt lat="58.24618667" lon="14.65813667"><ele>127.0</ele><time>2016-06-18T04:11:24.287Z</time></trkpt><trkpt lat="58.24618667" lon="14.65813667"><ele>127.0</ele><time>2016-06-18T04:11:25.297Z</time></trkpt><trkpt lat="58.24606167" lon="14.65826167"><ele>127.0</ele><time>2016-06-18T04:11:26.288Z</time></trkpt><trkpt lat="58.24606167" lon="14.65826167"><ele>127.0</ele><time>2016-06-18T04:11:27.297Z</time></trkpt><trkpt lat="58.24593833" lon="14.65838667"><ele>127.0</ele><time>2016-06-18T04:11:28.308Z</time></trkpt><trkpt lat="58.24593833" lon="14.65838667"><ele>127.0</ele><time>2016-06-18T04:11:29.308Z</time></trkpt><trkpt lat="58.245815" lon="14.65851"><ele>128.0</ele><time>2016-06-18T04:11:30.285Z</time></trkpt><trkpt lat="58.245755" lon="14.65857167"><ele>128.0</ele><time>2016-06-18T04:11:31.286Z</time></trkpt><trkpt lat="58.245755" lon="14.65857167"><ele>128.0</ele><time>2016-06-18T04:11:32.302Z</time></trkpt><trkpt lat="58.24563" lon="14.65868833"><ele>128.0</ele><time>2016-06-18T04:11:33.296Z</time></trkpt><trkpt lat="58.24556667" lon="14.65874833"><ele>128.0</ele><time>2016-06-18T04:11:34.319Z</time></trkpt><trkpt lat="58.24556667" lon="14.65874833"><ele>128.0</ele><time>2016-06-18T04:11:35.295Z</time></trkpt><trkpt lat="58.24544333" lon="14.65886833"><ele>129.0</ele><time>2016-06-18T04:11:36.295Z</time></trkpt><trkpt lat="58.24544333" lon="14.65886833"><ele>129.0</ele><time>2016-06-18T04:11:37.298Z</time></trkpt><trkpt lat="58.24532" lon="14.65899"><ele>129.0</ele><time>2016-06-18T04:11:38.318Z</time></trkpt><trkpt lat="58.24532" lon="14.65899"><ele>129.0</ele><time>2016-06-18T04:11:39.303Z</time></trkpt><trkpt lat="58.24519833" lon="14.65910667"><ele>129.0</ele><time>2016-06-18T04:11:40.298Z</time></trkpt><trkpt lat="58.24519833" lon="14.65910667"><ele>129.0</ele><time>2016-06-18T04:11:41.297Z</time></trkpt><trkpt lat="58.24507333" lon="14.65922167"><ele>130.0</ele><time>2016-06-18T04:11:42.294Z</time></trkpt><trkpt lat="58.24507333" lon="14.65922167"><ele>130.0</ele><time>2016-06-18T04:11:43.300Z</time></trkpt><trkpt lat="58.24495167" lon="14.65933333"><ele>130.0</ele><time>2016-06-18T04:11:44.298Z</time></trkpt><trkpt lat="58.24495167" lon="14.65933333"><ele>130.0</ele><time>2016-06-18T04:11:45.297Z</time></trkpt><trkpt lat="58.24483" lon="14.659445"><ele>130.0</ele><time>2016-06-18T04:11:46.298Z</time></trkpt><trkpt lat="58.24483" lon="14.659445"><ele>130.0</ele><time>2016-06-18T04:11:47.298Z</time></trkpt><trkpt lat="58.24470833" lon="14.659555"><ele>130.0</ele><time>2016-06-18T04:11:48.288Z</time></trkpt><trkpt lat="58.24464667" lon="14.65960833"><ele>130.0</ele><time>2016-06-18T04:11:49.284Z</time></trkpt><trkpt lat="58.24458667" lon="14.65966333"><ele>130.0</ele><time>2016-06-18T04:11:50.297Z</time></trkpt><trkpt lat="58.24458667" lon="14.65966333"><ele>130.0</ele><time>2016-06-18T04:11:51.297Z</time></trkpt><trkpt lat="58.244465" lon="14.65977167"><ele>130.0</ele><time>2016-06-18T04:11:52.287Z</time></trkpt><trkpt lat="58.244465" lon="14.65977167"><ele>130.0</ele><time>2016-06-18T04:11:53.315Z</time></trkpt><trkpt lat="58.244345" lon="14.659875"><ele>131.0</ele><time>2016-06-18T04:11:54.286Z</time></trkpt><trkpt lat="58.244345" lon="14.659875"><ele>131.0</ele><time>2016-06-18T04:11:55.298Z</time></trkpt><trkpt lat="58.24422333" lon="14.65998167"><ele>131.0</ele><time>2016-06-18T04:11:56.298Z</time></trkpt><trkpt lat="58.24422333" lon="14.65998167"><ele>131.0</ele><time>2016-06-18T04:11:57.298Z</time></trkpt><trkpt lat="58.244105" lon="14.66008833"><ele>131.0</ele><time>2016-06-18T04:11:58.284Z</time></trkpt><trkpt lat="58.244105" lon="14.66008833"><ele>131.0</ele><time>2016-06-18T04:11:59.301Z</time></trkpt><trkpt lat="58.243985" lon="14.66019167"><ele>132.0</ele><time>2016-06-18T04:12:00.291Z</time></trkpt><trkpt lat="58.24392667" lon="14.66024667"><ele>132.0</ele><time>2016-06-18T04:12:01.288Z</time></trkpt><trkpt lat="58.24392667" lon="14.66024667"><ele>132.0</ele><time>2016-06-18T04:12:02.304Z</time></trkpt><trkpt lat="58.24381" lon="14.66034833"><ele>132.0</ele><time>2016-06-18T04:12:03.291Z</time></trkpt><trkpt lat="58.24381" lon="14.66034833"><ele>132.0</ele><time>2016-06-18T04:12:04.310Z</time></trkpt><trkpt lat="58.243685" lon="14.660445"><ele>132.0</ele><time>2016-06-18T04:12:05.308Z</time></trkpt><trkpt lat="58.24362667" lon="14.66049167"><ele>133.0</ele><time>2016-06-18T04:12:06.304Z</time></trkpt><trkpt lat="58.24362667" lon="14.66049167"><ele>133.0</ele><time>2016-06-18T04:12:07.297Z</time></trkpt><trkpt lat="58.243515" lon="14.66058667"><ele>133.0</ele><time>2016-06-18T04:12:08.307Z</time></trkpt><trkpt lat="58.243515" lon="14.66058667"><ele>133.0</ele><time>2016-06-18T04:12:09.298Z</time></trkpt><trkpt lat="58.24340333" lon="14.66068"><ele>133.0</ele><time>2016-06-18T04:12:10.289Z</time></trkpt><trkpt lat="58.24340333" lon="14.66068"><ele>133.0</ele><time>2016-06-18T04:12:11.290Z</time></trkpt><trkpt lat="58.24329" lon="14.66078167"><ele>134.0</ele><time>2016-06-18T04:12:12.289Z</time></trkpt><trkpt lat="58.24329" lon="14.66078167"><ele>134.0</ele><time>2016-06-18T04:12:13.304Z</time></trkpt><trkpt lat="58.24317167" lon="14.66088667"><ele>134.0</ele><time>2016-06-18T04:12:14.321Z</time></trkpt><trkpt lat="58.24317167" lon="14.66088667"><ele>134.0</ele><time>2016-06-18T04:12:15.296Z</time></trkpt><trkpt lat="58.24305167" lon="14.66099667"><ele>133.0</ele><time>2016-06-18T04:12:16.298Z</time></trkpt><trkpt lat="58.24305167" lon="14.66099667"><ele>133.0</ele><time>2016-06-18T04:12:17.309Z</time></trkpt><trkpt lat="58.24293" lon="14.661105"><ele>133.0</ele><time>2016-06-18T04:12:18.293Z</time></trkpt><trkpt lat="58.24293" lon="14.661105"><ele>133.0</ele><time>2016-06-18T04:12:19.300Z</time></trkpt><trkpt lat="58.24280833" lon="14.66120833"><ele>134.0</ele><time>2016-06-18T04:12:20.287Z</time></trkpt><trkpt lat="58.24274833" lon="14.66126167"><ele>133.0</ele><time>2016-06-18T04:12:21.298Z</time></trkpt><trkpt lat="58.24269" lon="14.661315"><ele>134.0</ele><time>2016-06-18T04:12:22.298Z</time></trkpt><trkpt lat="58.24269" lon="14.661315"><ele>134.0</ele><time>2016-06-18T04:12:23.300Z</time></trkpt><trkpt lat="58.24257" lon="14.66142"><ele>134.0</ele><time>2016-06-18T04:12:24.286Z</time></trkpt><trkpt lat="58.24250833" lon="14.66147167"><ele>135.0</ele><time>2016-06-18T04:12:25.286Z</time></trkpt><trkpt lat="58.24250833" lon="14.66147167"><ele>135.0</ele><time>2016-06-18T04:12:26.302Z</time></trkpt><trkpt lat="58.24238" lon="14.661575"><ele>135.0</ele><time>2016-06-18T04:12:27.318Z</time></trkpt><trkpt lat="58.24231833" lon="14.66163"><ele>135.0</ele><time>2016-06-18T04:12:28.298Z</time></trkpt><trkpt lat="58.24231833" lon="14.66163"><ele>135.0</ele><time>2016-06-18T04:12:29.301Z</time></trkpt><trkpt lat="58.24219333" lon="14.66173667"><ele>135.0</ele><time>2016-06-18T04:12:30.292Z</time></trkpt><trkpt lat="58.24213" lon="14.66178833"><ele>135.0</ele><time>2016-06-18T04:12:31.298Z</time></trkpt><trkpt lat="58.24206833" lon="14.66183833"><ele>135.0</ele><time>2016-06-18T04:12:32.286Z</time></trkpt><trkpt lat="58.24206833" lon="14.66183833"><ele>135.0</ele><time>2016-06-18T04:12:33.302Z</time></trkpt><trkpt lat="58.24195167" lon="14.66193667"><ele>135.0</ele><time>2016-06-18T04:12:34.290Z</time></trkpt><trkpt lat="58.24195167" lon="14.66193667"><ele>135.0</ele><time>2016-06-18T04:12:35.307Z</time></trkpt><trkpt lat="58.24184333" lon="14.662035"><ele>135.0</ele><time>2016-06-18T04:12:36.298Z</time></trkpt><trkpt lat="58.24178833" lon="14.66208167"><ele>136.0</ele><time>2016-06-18T04:12:37.298Z</time></trkpt><trkpt lat="58.24178833" lon="14.66208167"><ele>136.0</ele><time>2016-06-18T04:12:38.296Z</time></trkpt><trkpt lat="58.24167" lon="14.66217833"><ele>136.0</ele><time>2016-06-18T04:12:39.304Z</time></trkpt><trkpt lat="58.24160833" lon="14.66223"><ele>136.0</ele><time>2016-06-18T04:12:40.287Z</time></trkpt><trkpt lat="58.24160833" lon="14.66223"><ele>136.0</ele><time>2016-06-18T04:12:41.297Z</time></trkpt><trkpt lat="58.24149" lon="14.66234333"><ele>136.0</ele><time>2016-06-18T04:12:42.299Z</time></trkpt><trkpt lat="58.24149" lon="14.66234333"><ele>136.0</ele><time>2016-06-18T04:12:43.314Z</time></trkpt><trkpt lat="58.24136833" lon="14.66245667"><ele>136.0</ele><time>2016-06-18T04:12:44.295Z</time></trkpt><trkpt lat="58.24136833" lon="14.66245667"><ele>136.0</ele><time>2016-06-18T04:12:45.296Z</time></trkpt><trkpt lat="58.24124667" lon="14.66257"><ele>136.0</ele><time>2016-06-18T04:12:46.298Z</time></trkpt><trkpt lat="58.24124667" lon="14.66257"><ele>136.0</ele><time>2016-06-18T04:12:47.297Z</time></trkpt><trkpt lat="58.24112333" lon="14.662685"><ele>136.0</ele><time>2016-06-18T04:12:48.307Z</time></trkpt><trkpt lat="58.24112333" lon="14.662685"><ele>136.0</ele><time>2016-06-18T04:12:49.307Z</time></trkpt><trkpt lat="58.24100167" lon="14.662805"><ele>137.0</ele><time>2016-06-18T04:12:50.305Z</time></trkpt><trkpt lat="58.24100167" lon="14.662805"><ele>137.0</ele><time>2016-06-18T04:12:51.295Z</time></trkpt><trkpt lat="58.24088" lon="14.66293"><ele>137.0</ele><time>2016-06-18T04:12:52.285Z</time></trkpt><trkpt lat="58.24082" lon="14.66299333"><ele>137.0</ele><time>2016-06-18T04:12:53.282Z</time></trkpt><trkpt lat="58.24082" lon="14.66299333"><ele>137.0</ele><time>2016-06-18T04:12:54.297Z</time></trkpt><trkpt lat="58.24069667" lon="14.66311667"><ele>138.0</ele><time>2016-06-18T04:12:55.308Z</time></trkpt><trkpt lat="58.24064" lon="14.66317833"><ele>138.0</ele><time>2016-06-18T04:12:56.298Z</time></trkpt><trkpt lat="58.24064" lon="14.66317833"><ele>138.0</ele><time>2016-06-18T04:12:57.296Z</time></trkpt><trkpt lat="58.240525" lon="14.663305"><ele>139.0</ele><time>2016-06-18T04:12:58.288Z</time></trkpt><trkpt lat="58.240525" lon="14.663305"><ele>139.0</ele><time>2016-06-18T04:12:59.305Z</time></trkpt><trkpt lat="58.24041333" lon="14.66342833"><ele>139.0</ele><time>2016-06-18T04:13:00.321Z</time></trkpt><trkpt lat="58.24041333" lon="14.66342833"><ele>139.0</ele><time>2016-06-18T04:13:01.310Z</time></trkpt><trkpt lat="58.24030167" lon="14.66355333"><ele>139.0</ele><time>2016-06-18T04:13:02.306Z</time></trkpt><trkpt lat="58.24030167" lon="14.66355333"><ele>139.0</ele><time>2016-06-18T04:13:03.302Z</time></trkpt><trkpt lat="58.24018833" lon="14.66368667"><ele>140.0</ele><time>2016-06-18T04:13:04.286Z</time></trkpt><trkpt lat="58.24018833" lon="14.66368667"><ele>140.0</ele><time>2016-06-18T04:13:05.315Z</time></trkpt><trkpt lat="58.24007333" lon="14.66382167"><ele>140.0</ele><time>2016-06-18T04:13:06.298Z</time></trkpt><trkpt lat="58.24007333" lon="14.66382167"><ele>140.0</ele><time>2016-06-18T04:13:07.296Z</time></trkpt><trkpt lat="58.239965" lon="14.66396"><ele>140.0</ele><time>2016-06-18T04:13:08.289Z</time></trkpt><trkpt lat="58.239965" lon="14.66396"><ele>140.0</ele><time>2016-06-18T04:13:09.307Z</time></trkpt><trkpt lat="58.239855" lon="14.66409667"><ele>140.0</ele><time>2016-06-18T04:13:10.287Z</time></trkpt><trkpt lat="58.239855" lon="14.66409667"><ele>140.0</ele><time>2016-06-18T04:13:11.282Z</time></trkpt><trkpt lat="58.239745" lon="14.66423167"><ele>140.0</ele><time>2016-06-18T04:13:12.316Z</time></trkpt><trkpt lat="58.239745" lon="14.66423167"><ele>140.0</ele><time>2016-06-18T04:13:13.297Z</time></trkpt><trkpt lat="58.23963333" lon="14.664365"><ele>140.0</ele><time>2016-06-18T04:13:14.322Z</time></trkpt><trkpt lat="58.23963333" lon="14.664365"><ele>140.0</ele><time>2016-06-18T04:13:15.301Z</time></trkpt><trkpt lat="58.23952667" lon="14.664505"><ele>140.0</ele><time>2016-06-18T04:13:16.298Z</time></trkpt><trkpt lat="58.23952667" lon="14.664505"><ele>140.0</ele><time>2016-06-18T04:13:17.307Z</time></trkpt><trkpt lat="58.23942" lon="14.66464333"><ele>140.0</ele><time>2016-06-18T04:13:18.319Z</time></trkpt><trkpt lat="58.23942" lon="14.66464333"><ele>140.0</ele><time>2016-06-18T04:13:19.296Z</time></trkpt><trkpt lat="58.23931333" lon="14.66477667"><ele>140.0</ele><time>2016-06-18T04:13:20.298Z</time></trkpt><trkpt lat="58.23931333" lon="14.66477667"><ele>140.0</ele><time>2016-06-18T04:13:21.296Z</time></trkpt><trkpt lat="58.23921333" lon="14.66490667"><ele>141.0</ele><time>2016-06-18T04:13:22.284Z</time></trkpt><trkpt lat="58.23921333" lon="14.66490667"><ele>141.0</ele><time>2016-06-18T04:13:23.319Z</time></trkpt><trkpt lat="58.23911833" lon="14.66504"><ele>141.0</ele><time>2016-06-18T04:13:24.320Z</time></trkpt><trkpt lat="58.23907" lon="14.66510833"><ele>141.0</ele><time>2016-06-18T04:13:25.298Z</time></trkpt><trkpt lat="58.23902167" lon="14.66517167"><ele>141.0</ele><time>2016-06-18T04:13:26.287Z</time></trkpt><trkpt lat="58.23902167" lon="14.66517167"><ele>141.0</ele><time>2016-06-18T04:13:27.306Z</time></trkpt><trkpt lat="58.23892167" lon="14.66528"><ele>141.0</ele><time>2016-06-18T04:13:28.321Z</time></trkpt><trkpt lat="58.23892167" lon="14.66528"><ele>141.0</ele><time>2016-06-18T04:13:29.301Z</time></trkpt><trkpt lat="58.23881167" lon="14.66531333"><ele>141.0</ele><time>2016-06-18T04:13:30.288Z</time></trkpt><trkpt lat="58.23881167" lon="14.66531333"><ele>141.0</ele><time>2016-06-18T04:13:31.311Z</time></trkpt><trkpt lat="58.23870833" lon="14.66521667"><ele>142.0</ele><time>2016-06-18T04:13:32.288Z</time></trkpt><trkpt lat="58.23870833" lon="14.66521667"><ele>142.0</ele><time>2016-06-18T04:13:33.307Z</time></trkpt><trkpt lat="58.23862167" lon="14.66503667"><ele>142.0</ele><time>2016-06-18T04:13:34.298Z</time></trkpt><trkpt lat="58.23862167" lon="14.66503667"><ele>142.0</ele><time>2016-06-18T04:13:35.311Z</time></trkpt><trkpt lat="58.23853667" lon="14.664835"><ele>142.0</ele><time>2016-06-18T04:13:36.298Z</time></trkpt><trkpt lat="58.23853667" lon="14.664835"><ele>142.0</ele><time>2016-06-18T04:13:37.297Z</time></trkpt><trkpt lat="58.238455" lon="14.66462333"><ele>142.0</ele><time>2016-06-18T04:13:38.289Z</time></trkpt><trkpt lat="58.238455" lon="14.66462333"><ele>142.0</ele><time>2016-06-18T04:13:39.310Z</time></trkpt><trkpt lat="58.23837333" lon="14.66439833"><ele>142.0</ele><time>2016-06-18T04:13:40.298Z</time></trkpt><trkpt lat="58.23837333" lon="14.66439833"><ele>142.0</ele><time>2016-06-18T04:13:41.297Z</time></trkpt><trkpt lat="58.23829333" lon="14.66417167"><ele>142.0</ele><time>2016-06-18T04:13:42.321Z</time></trkpt><trkpt lat="58.23825333" lon="14.66405333"><ele>142.0</ele><time>2016-06-18T04:13:43.318Z</time></trkpt><trkpt lat="58.23821667" lon="14.66392833"><ele>142.0</ele><time>2016-06-18T04:13:44.306Z</time></trkpt><trkpt lat="58.23821667" lon="14.66392833"><ele>142.0</ele><time>2016-06-18T04:13:45.296Z</time></trkpt><trkpt lat="58.23814667" lon="14.66367167"><ele>141.0</ele><time>2016-06-18T04:13:46.298Z</time></trkpt><trkpt lat="58.23814667" lon="14.66367167"><ele>141.0</ele><time>2016-06-18T04:13:47.296Z</time></trkpt><trkpt lat="58.23808" lon="14.66340667"><ele>141.0</ele><time>2016-06-18T04:13:48.305Z</time></trkpt><trkpt lat="58.23808" lon="14.66340667"><ele>141.0</ele><time>2016-06-18T04:13:49.306Z</time></trkpt><trkpt lat="58.238015" lon="14.66313833"><ele>141.0</ele><time>2016-06-18T04:13:50.297Z</time></trkpt><trkpt lat="58.238015" lon="14.66313833"><ele>141.0</ele><time>2016-06-18T04:13:51.302Z</time></trkpt><trkpt lat="58.23794667" lon="14.66286833"><ele>140.0</ele><time>2016-06-18T04:13:52.296Z</time></trkpt><trkpt lat="58.23794667" lon="14.66286833"><ele>140.0</ele><time>2016-06-18T04:13:53.300Z</time></trkpt><trkpt lat="58.23787833" lon="14.66259333"><ele>140.0</ele><time>2016-06-18T04:13:54.286Z</time></trkpt><trkpt lat="58.23787833" lon="14.66259333"><ele>140.0</ele><time>2016-06-18T04:13:55.310Z</time></trkpt><trkpt lat="58.23781" lon="14.662315"><ele>140.0</ele><time>2016-06-18T04:13:56.297Z</time></trkpt><trkpt lat="58.23781" lon="14.662315"><ele>140.0</ele><time>2016-06-18T04:13:57.297Z</time></trkpt><trkpt lat="58.23774" lon="14.66203167"><ele>140.0</ele><time>2016-06-18T04:13:58.321Z</time></trkpt><trkpt lat="58.23774" lon="14.66203167"><ele>140.0</ele><time>2016-06-18T04:13:59.302Z</time></trkpt><trkpt lat="58.23767167" lon="14.66175"><ele>139.0</ele><time>2016-06-18T04:14:00.318Z</time></trkpt><trkpt lat="58.23767167" lon="14.66175"><ele>139.0</ele><time>2016-06-18T04:14:01.297Z</time></trkpt><trkpt lat="58.23760333" lon="14.66147333"><ele>139.0</ele><time>2016-06-18T04:14:02.304Z</time></trkpt><trkpt lat="58.23760333" lon="14.66147333"><ele>139.0</ele><time>2016-06-18T04:14:03.315Z</time></trkpt><trkpt lat="58.237535" lon="14.6612"><ele>139.0</ele><time>2016-06-18T04:14:04.295Z</time></trkpt><trkpt lat="58.237535" lon="14.6612"><ele>139.0</ele><time>2016-06-18T04:14:05.296Z</time></trkpt><trkpt lat="58.237465" lon="14.66093"><ele>139.0</ele><time>2016-06-18T04:14:06.298Z</time></trkpt><trkpt lat="58.237465" lon="14.66093"><ele>139.0</ele><time>2016-06-18T04:14:07.297Z</time></trkpt><trkpt lat="58.23740167" lon="14.66066833"><ele>138.0</ele><time>2016-06-18T04:14:08.282Z</time></trkpt><trkpt lat="58.23740167" lon="14.66066833"><ele>138.0</ele><time>2016-06-18T04:14:09.305Z</time></trkpt><trkpt lat="58.23734" lon="14.660415"><ele>138.0</ele><time>2016-06-18T04:14:10.298Z</time></trkpt><trkpt lat="58.23734" lon="14.660415"><ele>138.0</ele><time>2016-06-18T04:14:11.319Z</time></trkpt><trkpt lat="58.23727667" lon="14.66016167"><ele>138.0</ele><time>2016-06-18T04:14:12.315Z</time></trkpt><trkpt lat="58.23724333" lon="14.660035"><ele>138.0</ele><time>2016-06-18T04:14:13.302Z</time></trkpt><trkpt lat="58.23724333" lon="14.660035"><ele>138.0</ele><time>2016-06-18T04:14:14.316Z</time></trkpt><trkpt lat="58.23717167" lon="14.65978167"><ele>137.0</ele><time>2016-06-18T04:14:15.306Z</time></trkpt><trkpt lat="58.237135" lon="14.65966"><ele>137.0</ele><time>2016-06-18T04:14:16.303Z</time></trkpt><trkpt lat="58.237135" lon="14.65966"><ele>137.0</ele><time>2016-06-18T04:14:17.311Z</time></trkpt><trkpt lat="58.23706167" lon="14.65942667"><ele>137.0</ele><time>2016-06-18T04:14:18.291Z</time></trkpt><trkpt lat="58.23706167" lon="14.65942667"><ele>137.0</ele><time>2016-06-18T04:14:19.309Z</time></trkpt><trkpt lat="58.23699333" lon="14.65920167"><ele>137.0</ele><time>2016-06-18T04:14:20.305Z</time></trkpt><trkpt lat="58.23699333" lon="14.65920167"><ele>137.0</ele><time>2016-06-18T04:14:21.297Z</time></trkpt><trkpt lat="58.23692167" lon="14.65896833"><ele>137.0</ele><time>2016-06-18T04:14:22.298Z</time></trkpt><trkpt lat="58.23692167" lon="14.65896833"><ele>137.0</ele><time>2016-06-18T04:14:23.300Z</time></trkpt><trkpt lat="58.23684667" lon="14.658725"><ele>136.0</ele><time>2016-06-18T04:14:24.288Z</time></trkpt><trkpt lat="58.23684667" lon="14.658725"><ele>136.0</ele><time>2016-06-18T04:14:25.297Z</time></trkpt><trkpt lat="58.23676667" lon="14.65847"><ele>136.0</ele><time>2016-06-18T04:14:26.308Z</time></trkpt><trkpt lat="58.23676667" lon="14.65847"><ele>136.0</ele><time>2016-06-18T04:14:27.298Z</time></trkpt><trkpt lat="58.23668333" lon="14.65820333"><ele>135.0</ele><time>2016-06-18T04:14:28.288Z</time></trkpt><trkpt lat="58.23664333" lon="14.65807333"><ele>135.0</ele><time>2016-06-18T04:14:29.298Z</time></trkpt><trkpt lat="58.23664333" lon="14.65807333"><ele>135.0</ele><time>2016-06-18T04:14:30.302Z</time></trkpt><trkpt lat="58.23656167" lon="14.657805"><ele>134.0</ele><time>2016-06-18T04:14:31.294Z</time></trkpt><trkpt lat="58.23651667" lon="14.657665"><ele>133.0</ele><time>2016-06-18T04:14:32.321Z</time></trkpt><trkpt lat="58.23651667" lon="14.657665"><ele>133.0</ele><time>2016-06-18T04:14:33.300Z</time></trkpt><trkpt lat="58.23642333" lon="14.65739"><ele>132.0</ele><time>2016-06-18T04:14:34.287Z</time></trkpt><trkpt lat="58.23642333" lon="14.65739"><ele>132.0</ele><time>2016-06-18T04:14:35.296Z</time></trkpt><trkpt lat="58.23632167" lon="14.65713"><ele>131.0</ele><time>2016-06-18T04:14:36.295Z</time></trkpt><trkpt lat="58.23632167" lon="14.65713"><ele>131.0</ele><time>2016-06-18T04:14:37.300Z</time></trkpt><trkpt lat="58.236215" lon="14.656875"><ele>131.0</ele><time>2016-06-18T04:14:38.289Z</time></trkpt><trkpt lat="58.236215" lon="14.656875"><ele>131.0</ele><time>2016-06-18T04:14:39.302Z</time></trkpt><trkpt lat="58.2361" lon="14.65661667"><ele>129.0</ele><time>2016-06-18T04:14:40.303Z</time></trkpt><trkpt lat="58.23604333" lon="14.656485"><ele>129.0</ele><time>2016-06-18T04:14:41.296Z</time></trkpt><trkpt lat="58.23604333" lon="14.656485"><ele>129.0</ele><time>2016-06-18T04:14:42.300Z</time></trkpt><trkpt lat="58.23592333" lon="14.65621"><ele>128.0</ele><time>2016-06-18T04:14:43.298Z</time></trkpt><trkpt lat="58.23592333" lon="14.65621"><ele>128.0</ele><time>2016-06-18T04:14:44.302Z</time></trkpt><trkpt lat="58.23579667" lon="14.65593167"><ele>127.0</ele><time>2016-06-18T04:14:45.298Z</time></trkpt><trkpt lat="58.235735" lon="14.65579333"><ele>127.0</ele><time>2016-06-18T04:14:46.295Z</time></trkpt><trkpt lat="58.235735" lon="14.65579333"><ele>127.0</ele><time>2016-06-18T04:14:47.312Z</time></trkpt><trkpt lat="58.235615" lon="14.65552"><ele>126.0</ele><time>2016-06-18T04:14:48.290Z</time></trkpt><trkpt lat="58.235615" lon="14.65552"><ele>126.0</ele><time>2016-06-18T04:14:49.304Z</time></trkpt><trkpt lat="58.23549667" lon="14.65525"><ele>126.0</ele><time>2016-06-18T04:14:50.298Z</time></trkpt><trkpt lat="58.23549667" lon="14.65525"><ele>126.0</ele><time>2016-06-18T04:14:51.310Z</time></trkpt><trkpt lat="58.23538333" lon="14.65498333"><ele>126.0</ele><time>2016-06-18T04:14:52.290Z</time></trkpt><trkpt lat="58.23532833" lon="14.65485333"><ele>126.0</ele><time>2016-06-18T04:14:53.282Z</time></trkpt><trkpt lat="58.23532833" lon="14.65485333"><ele>126.0</ele><time>2016-06-18T04:14:54.310Z</time></trkpt><trkpt lat="58.23522167" lon="14.6546"><ele>126.0</ele><time>2016-06-18T04:14:55.286Z</time></trkpt><trkpt lat="58.23517" lon="14.654475"><ele>125.0</ele><time>2016-06-18T04:14:56.290Z</time></trkpt><trkpt lat="58.23517" lon="14.654475"><ele>125.0</ele><time>2016-06-18T04:14:57.318Z</time></trkpt><trkpt lat="58.23506667" lon="14.65423"><ele>125.0</ele><time>2016-06-18T04:14:58.288Z</time></trkpt><trkpt lat="58.23506667" lon="14.65423"><ele>125.0</ele><time>2016-06-18T04:14:59.304Z</time></trkpt><trkpt lat="58.234965" lon="14.65399"><ele>125.0</ele><time>2016-06-18T04:15:00.293Z</time></trkpt><trkpt lat="58.23491667" lon="14.65386833"><ele>125.0</ele><time>2016-06-18T04:15:01.305Z</time></trkpt><trkpt lat="58.23487" lon="14.653745"><ele>125.0</ele><time>2016-06-18T04:15:02.298Z</time></trkpt><trkpt lat="58.23487" lon="14.653745"><ele>125.0</ele><time>2016-06-18T04:15:03.309Z</time></trkpt><trkpt lat="58.23478333" lon="14.653495"><ele>125.0</ele><time>2016-06-18T04:15:04.318Z</time></trkpt><trkpt lat="58.23474333" lon="14.65336833"><ele>125.0</ele><time>2016-06-18T04:15:05.289Z</time></trkpt><trkpt lat="58.23474333" lon="14.65336833"><ele>125.0</ele><time>2016-06-18T04:15:06.305Z</time></trkpt><trkpt lat="58.23467167" lon="14.65311"><ele>124.0</ele><time>2016-06-18T04:15:07.292Z</time></trkpt><trkpt lat="58.23463333" lon="14.65297833"><ele>124.0</ele><time>2016-06-18T04:15:08.290Z</time></trkpt><trkpt lat="58.23463333" lon="14.65297833"><ele>124.0</ele><time>2016-06-18T04:15:09.308Z</time></trkpt><trkpt lat="58.23455333" lon="14.65272"><ele>124.0</ele><time>2016-06-18T04:15:10.298Z</time></trkpt><trkpt lat="58.23455333" lon="14.65272"><ele>124.0</ele><time>2016-06-18T04:15:11.309Z</time></trkpt><trkpt lat="58.23447667" lon="14.65246"><ele>124.0</ele><time>2016-06-18T04:15:12.318Z</time></trkpt><trkpt lat="58.23443667" lon="14.65233167"><ele>124.0</ele><time>2016-06-18T04:15:13.316Z</time></trkpt><trkpt lat="58.23439833" lon="14.65220167"><ele>124.0</ele><time>2016-06-18T04:15:14.292Z</time></trkpt><trkpt lat="58.23439833" lon="14.65220167"><ele>124.0</ele><time>2016-06-18T04:15:15.311Z</time></trkpt><trkpt lat="58.23432167" lon="14.65194333"><ele>124.0</ele><time>2016-06-18T04:15:16.290Z</time></trkpt><trkpt lat="58.23432167" lon="14.65194333"><ele>124.0</ele><time>2016-06-18T04:15:17.308Z</time></trkpt><trkpt lat="58.234245" lon="14.65169167"><ele>124.0</ele><time>2016-06-18T04:15:18.290Z</time></trkpt><trkpt lat="58.234245" lon="14.65169167"><ele>124.0</ele><time>2016-06-18T04:15:19.306Z</time></trkpt><trkpt lat="58.23416833" lon="14.65143833"><ele>124.0</ele><time>2016-06-18T04:15:20.288Z</time></trkpt><trkpt lat="58.23416833" lon="14.65143833"><ele>124.0</ele><time>2016-06-18T04:15:21.307Z</time></trkpt><trkpt lat="58.23409167" lon="14.651185"><ele>124.0</ele><time>2016-06-18T04:15:22.289Z</time></trkpt><trkpt lat="58.23405333" lon="14.65106"><ele>124.0</ele><time>2016-06-18T04:15:23.303Z</time></trkpt><trkpt lat="58.23405333" lon="14.65106"><ele>124.0</ele><time>2016-06-18T04:15:24.310Z</time></trkpt><trkpt lat="58.23397833" lon="14.65081"><ele>124.0</ele><time>2016-06-18T04:15:25.308Z</time></trkpt><trkpt lat="58.23394167" lon="14.65069"><ele>124.0</ele><time>2016-06-18T04:15:26.291Z</time></trkpt><trkpt lat="58.23394167" lon="14.65069"><ele>124.0</ele><time>2016-06-18T04:15:27.319Z</time></trkpt><trkpt lat="58.23386667" lon="14.65044167"><ele>124.0</ele><time>2016-06-18T04:15:28.308Z</time></trkpt><trkpt lat="58.23386667" lon="14.65044167"><ele>124.0</ele><time>2016-06-18T04:15:29.313Z</time></trkpt><trkpt lat="58.23379167" lon="14.65019667"><ele>124.0</ele><time>2016-06-18T04:15:30.320Z</time></trkpt><trkpt lat="58.23375333" lon="14.650075"><ele>124.0</ele><time>2016-06-18T04:15:31.319Z</time></trkpt><trkpt lat="58.23375333" lon="14.650075"><ele>124.0</ele><time>2016-06-18T04:15:32.319Z</time></trkpt><trkpt lat="58.233675" lon="14.64982667"><ele>124.0</ele><time>2016-06-18T04:15:33.291Z</time></trkpt><trkpt lat="58.233635" lon="14.64970167"><ele>124.0</ele><time>2016-06-18T04:15:34.298Z</time></trkpt><trkpt lat="58.233635" lon="14.64970167"><ele>124.0</ele><time>2016-06-18T04:15:35.298Z</time></trkpt><trkpt lat="58.23354333" lon="14.64945667"><ele>123.0</ele><time>2016-06-18T04:15:36.290Z</time></trkpt><trkpt lat="58.23354333" lon="14.64945667"><ele>123.0</ele><time>2016-06-18T04:15:37.295Z</time></trkpt><trkpt lat="58.23344333" lon="14.64921167"><ele>123.0</ele><time>2016-06-18T04:15:38.288Z</time></trkpt><trkpt lat="58.23344333" lon="14.64921167"><ele>123.0</ele><time>2016-06-18T04:15:39.298Z</time></trkpt><trkpt lat="58.23335167" lon="14.64897167"><ele>123.0</ele><time>2016-06-18T04:15:40.296Z</time></trkpt><trkpt lat="58.23335167" lon="14.64897167"><ele>123.0</ele><time>2016-06-18T04:15:41.298Z</time></trkpt><trkpt lat="58.233265" lon="14.64872333"><ele>123.0</ele><time>2016-06-18T04:15:42.317Z</time></trkpt><trkpt lat="58.23322667" lon="14.64859833"><ele>123.0</ele><time>2016-06-18T04:15:43.283Z</time></trkpt><trkpt lat="58.233195" lon="14.64847333"><ele>124.0</ele><time>2016-06-18T04:15:44.309Z</time></trkpt><trkpt lat="58.233195" lon="14.64847333"><ele>124.0</ele><time>2016-06-18T04:15:45.298Z</time></trkpt><trkpt lat="58.233155" lon="14.64820333"><ele>124.0</ele><time>2016-06-18T04:15:46.290Z</time></trkpt><trkpt lat="58.233155" lon="14.64820333"><ele>124.0</ele><time>2016-06-18T04:15:47.303Z</time></trkpt><trkpt lat="58.233135" lon="14.64792667"><ele>124.0</ele><time>2016-06-18T04:15:48.298Z</time></trkpt><trkpt lat="58.233135" lon="14.64792667"><ele>124.0</ele><time>2016-06-18T04:15:49.297Z</time></trkpt><trkpt lat="58.23312667" lon="14.64763833"><ele>124.0</ele><time>2016-06-18T04:15:50.307Z</time></trkpt><trkpt lat="58.23312667" lon="14.64763833"><ele>124.0</ele><time>2016-06-18T04:15:51.296Z</time></trkpt><trkpt lat="58.23312833" lon="14.64734833"><ele>124.0</ele><time>2016-06-18T04:15:52.320Z</time></trkpt><trkpt lat="58.23312833" lon="14.64734833"><ele>124.0</ele><time>2016-06-18T04:15:53.290Z</time></trkpt><trkpt lat="58.23313" lon="14.64704833"><ele>124.0</ele><time>2016-06-18T04:15:54.297Z</time></trkpt><trkpt lat="58.23313" lon="14.64704833"><ele>124.0</ele><time>2016-06-18T04:15:55.316Z</time></trkpt><trkpt lat="58.23313167" lon="14.64674167"><ele>124.0</ele><time>2016-06-18T04:15:56.290Z</time></trkpt><trkpt lat="58.23313167" lon="14.64674167"><ele>124.0</ele><time>2016-06-18T04:15:57.316Z</time></trkpt><trkpt lat="58.233135" lon="14.64642833"><ele>124.0</ele><time>2016-06-18T04:15:58.298Z</time></trkpt><trkpt lat="58.233135" lon="14.64642833"><ele>124.0</ele><time>2016-06-18T04:15:59.298Z</time></trkpt><trkpt lat="58.23313167" lon="14.64611833"><ele>124.0</ele><time>2016-06-18T04:16:00.302Z</time></trkpt><trkpt lat="58.23313167" lon="14.64611833"><ele>124.0</ele><time>2016-06-18T04:16:01.299Z</time></trkpt><trkpt lat="58.23311333" lon="14.64581167"><ele>123.0</ele><time>2016-06-18T04:16:02.295Z</time></trkpt><trkpt lat="58.23311333" lon="14.64581167"><ele>123.0</ele><time>2016-06-18T04:16:03.300Z</time></trkpt><trkpt lat="58.23307" lon="14.64551333"><ele>123.0</ele><time>2016-06-18T04:16:04.309Z</time></trkpt><trkpt lat="58.23307" lon="14.64551333"><ele>123.0</ele><time>2016-06-18T04:16:05.298Z</time></trkpt><trkpt lat="58.23300833" lon="14.645225"><ele>123.0</ele><time>2016-06-18T04:16:06.288Z</time></trkpt><trkpt lat="58.23297167" lon="14.64508667"><ele>123.0</ele><time>2016-06-18T04:16:07.291Z</time></trkpt><trkpt lat="58.23297167" lon="14.64508667"><ele>123.0</ele><time>2016-06-18T04:16:08.303Z</time></trkpt><trkpt lat="58.23288667" lon="14.64482667"><ele>123.0</ele><time>2016-06-18T04:16:09.288Z</time></trkpt><trkpt lat="58.23284" lon="14.64470333"><ele>123.0</ele><time>2016-06-18T04:16:10.322Z</time></trkpt><trkpt lat="58.23284" lon="14.64470333"><ele>123.0</ele><time>2016-06-18T04:16:11.321Z</time></trkpt><trkpt lat="58.23274167" lon="14.64447333"><ele>123.0</ele><time>2016-06-18T04:16:12.299Z</time></trkpt><trkpt lat="58.23274167" lon="14.64447333"><ele>123.0</ele><time>2016-06-18T04:16:13.310Z</time></trkpt><trkpt lat="58.23264" lon="14.64424833"><ele>123.0</ele><time>2016-06-18T04:16:14.288Z</time></trkpt><trkpt lat="58.23259" lon="14.644135"><ele>123.0</ele><time>2016-06-18T04:16:15.293Z</time></trkpt><trkpt lat="58.23254167" lon="14.64402"><ele>123.0</ele><time>2016-06-18T04:16:16.290Z</time></trkpt><trkpt lat="58.23254167" lon="14.64402"><ele>123.0</ele><time>2016-06-18T04:16:17.308Z</time></trkpt><trkpt lat="58.23244333" lon="14.64379833"><ele>123.0</ele><time>2016-06-18T04:16:18.288Z</time></trkpt><trkpt lat="58.23244333" lon="14.64379833"><ele>123.0</ele><time>2016-06-18T04:16:19.283Z</time></trkpt><trkpt lat="58.232345" lon="14.643575"><ele>124.0</ele><time>2016-06-18T04:16:20.286Z</time></trkpt><trkpt lat="58.232345" lon="14.643575"><ele>124.0</ele><time>2016-06-18T04:16:21.308Z</time></trkpt><trkpt lat="58.23225" lon="14.64335333"><ele>124.0</ele><time>2016-06-18T04:16:22.294Z</time></trkpt><trkpt lat="58.23225" lon="14.64335333"><ele>124.0</ele><time>2016-06-18T04:16:23.305Z</time></trkpt><trkpt lat="58.23215167" lon="14.64312833"><ele>124.0</ele><time>2016-06-18T04:16:24.325Z</time></trkpt><trkpt lat="58.23215167" lon="14.64312833"><ele>124.0</ele><time>2016-06-18T04:16:25.301Z</time></trkpt><trkpt lat="58.23205" lon="14.64290333"><ele>124.0</ele><time>2016-06-18T04:16:26.289Z</time></trkpt><trkpt lat="58.23205" lon="14.64290333"><ele>124.0</ele><time>2016-06-18T04:16:27.308Z</time></trkpt><trkpt lat="58.23194833" lon="14.64267833"><ele>125.0</ele><time>2016-06-18T04:16:28.298Z</time></trkpt><trkpt lat="58.23194833" lon="14.64267833"><ele>125.0</ele><time>2016-06-18T04:16:29.299Z</time></trkpt><trkpt lat="58.23185333" lon="14.642455"><ele>125.0</ele><time>2016-06-18T04:16:30.285Z</time></trkpt><trkpt lat="58.23185333" lon="14.642455"><ele>125.0</ele><time>2016-06-18T04:16:31.319Z</time></trkpt><trkpt lat="58.23175833" lon="14.64223333"><ele>125.0</ele><time>2016-06-18T04:16:32.290Z</time></trkpt><trkpt lat="58.23175833" lon="14.64223333"><ele>125.0</ele><time>2016-06-18T04:16:33.308Z</time></trkpt><trkpt lat="58.23166167" lon="14.64201333"><ele>124.0</ele><time>2016-06-18T04:16:34.308Z</time></trkpt><trkpt lat="58.23166167" lon="14.64201333"><ele>124.0</ele><time>2016-06-18T04:16:35.314Z</time></trkpt><trkpt lat="58.23156333" lon="14.64179833"><ele>125.0</ele><time>2016-06-18T04:16:36.308Z</time></trkpt><trkpt lat="58.23151333" lon="14.64169667"><ele>125.0</ele><time>2016-06-18T04:16:37.291Z</time></trkpt><trkpt lat="58.23151333" lon="14.64169667"><ele>125.0</ele><time>2016-06-18T04:16:38.315Z</time></trkpt><trkpt lat="58.231425" lon="14.64148833"><ele>125.0</ele><time>2016-06-18T04:16:39.318Z</time></trkpt><trkpt lat="58.23138333" lon="14.64138167"><ele>125.0</ele><time>2016-06-18T04:16:40.321Z</time></trkpt><trkpt lat="58.23138333" lon="14.64138167"><ele>125.0</ele><time>2016-06-18T04:16:41.300Z</time></trkpt><trkpt lat="58.23129833" lon="14.64116167"><ele>125.0</ele><time>2016-06-18T04:16:42.288Z</time></trkpt><trkpt lat="58.23129833" lon="14.64116167"><ele>125.0</ele><time>2016-06-18T04:16:43.300Z</time></trkpt><trkpt lat="58.23120667" lon="14.640945"><ele>125.0</ele><time>2016-06-18T04:16:44.298Z</time></trkpt><trkpt lat="58.23115833" lon="14.64083667"><ele>125.0</ele><time>2016-06-18T04:16:45.308Z</time></trkpt><trkpt lat="58.23111167" lon="14.640725"><ele>125.0</ele><time>2016-06-18T04:16:46.291Z</time></trkpt><trkpt lat="58.23111167" lon="14.640725"><ele>125.0</ele><time>2016-06-18T04:16:47.309Z</time></trkpt><trkpt lat="58.23101333" lon="14.64050333"><ele>125.0</ele><time>2016-06-18T04:16:48.298Z</time></trkpt><trkpt lat="58.23096333" lon="14.64039"><ele>125.0</ele><time>2016-06-18T04:16:49.294Z</time></trkpt><trkpt lat="58.23091167" lon="14.64027667"><ele>125.0</ele><time>2016-06-18T04:16:50.322Z</time></trkpt><trkpt lat="58.23091167" lon="14.64027667"><ele>125.0</ele><time>2016-06-18T04:16:51.303Z</time></trkpt><trkpt lat="58.23081" lon="14.64005167"><ele>125.0</ele><time>2016-06-18T04:16:52.307Z</time></trkpt><trkpt lat="58.23081" lon="14.64005167"><ele>125.0</ele><time>2016-06-18T04:16:53.300Z</time></trkpt><trkpt lat="58.23070833" lon="14.639825"><ele>124.0</ele><time>2016-06-18T04:16:54.308Z</time></trkpt><trkpt lat="58.23070833" lon="14.639825"><ele>124.0</ele><time>2016-06-18T04:16:55.305Z</time></trkpt><trkpt lat="58.23059667" lon="14.63959833"><ele>124.0</ele><time>2016-06-18T04:16:56.313Z</time></trkpt><trkpt lat="58.23059667" lon="14.63959833"><ele>124.0</ele><time>2016-06-18T04:16:57.318Z</time></trkpt><trkpt lat="58.23048833" lon="14.639365"><ele>124.0</ele><time>2016-06-18T04:16:58.298Z</time></trkpt><trkpt lat="58.23043333" lon="14.63924667"><ele>124.0</ele><time>2016-06-18T04:16:59.290Z</time></trkpt><trkpt lat="58.23043333" lon="14.63924667"><ele>124.0</ele><time>2016-06-18T04:17:00.300Z</time></trkpt><trkpt lat="58.23032667" lon="14.63902"><ele>124.0</ele><time>2016-06-18T04:17:01.296Z</time></trkpt><trkpt lat="58.23027167" lon="14.63892833"><ele>125.0</ele><time>2016-06-18T04:17:02.293Z</time></trkpt><trkpt lat="58.23027167" lon="14.63892833"><ele>125.0</ele><time>2016-06-18T04:17:03.282Z</time></trkpt><trkpt lat="58.23017333" lon="14.638705"><ele>125.0</ele><time>2016-06-18T04:17:04.314Z</time></trkpt><trkpt lat="58.23017333" lon="14.638705"><ele>125.0</ele><time>2016-06-18T04:17:05.300Z</time></trkpt><trkpt lat="58.23007167" lon="14.63849833"><ele>125.0</ele><time>2016-06-18T04:17:06.322Z</time></trkpt><trkpt lat="58.23007167" lon="14.63849833"><ele>125.0</ele><time>2016-06-18T04:17:07.300Z</time></trkpt><trkpt lat="58.22997167" lon="14.63828333"><ele>125.0</ele><time>2016-06-18T04:17:08.308Z</time></trkpt><trkpt lat="58.22997167" lon="14.63828333"><ele>125.0</ele><time>2016-06-18T04:17:09.300Z</time></trkpt><trkpt lat="58.22987333" lon="14.63808"><ele>125.0</ele><time>2016-06-18T04:17:10.298Z</time></trkpt><trkpt lat="58.22987333" lon="14.63808"><ele>125.0</ele><time>2016-06-18T04:17:11.301Z</time></trkpt><trkpt lat="58.229785" lon="14.63787667"><ele>126.0</ele><time>2016-06-18T04:17:12.308Z</time></trkpt><trkpt lat="58.229785" lon="14.63787667"><ele>126.0</ele><time>2016-06-18T04:17:13.300Z</time></trkpt><trkpt lat="58.22969833" lon="14.63767333"><ele>126.0</ele><time>2016-06-18T04:17:14.308Z</time></trkpt><trkpt lat="58.22969833" lon="14.63767333"><ele>126.0</ele><time>2016-06-18T04:17:15.283Z</time></trkpt><trkpt lat="58.22961167" lon="14.63748167"><ele>126.0</ele><time>2016-06-18T04:17:16.308Z</time></trkpt><trkpt lat="58.22961167" lon="14.63748167"><ele>126.0</ele><time>2016-06-18T04:17:17.300Z</time></trkpt><trkpt lat="58.22953333" lon="14.637285"><ele>126.0</ele><time>2016-06-18T04:17:18.288Z</time></trkpt><trkpt lat="58.22953333" lon="14.637285"><ele>126.0</ele><time>2016-06-18T04:17:19.306Z</time></trkpt><trkpt lat="58.22948" lon="14.63705833"><ele>126.0</ele><time>2016-06-18T04:17:20.297Z</time></trkpt><trkpt lat="58.22948" lon="14.63705833"><ele>126.0</ele><time>2016-06-18T04:17:21.302Z</time></trkpt><trkpt lat="58.22944" lon="14.636805"><ele>127.0</ele><time>2016-06-18T04:17:22.289Z</time></trkpt><trkpt lat="58.22944" lon="14.636805"><ele>127.0</ele><time>2016-06-18T04:17:23.294Z</time></trkpt><trkpt lat="58.22941333" lon="14.63652833"><ele>127.0</ele><time>2016-06-18T04:17:24.298Z</time></trkpt><trkpt lat="58.22941333" lon="14.63652833"><ele>127.0</ele><time>2016-06-18T04:17:25.302Z</time></trkpt><trkpt lat="58.22938667" lon="14.63623333"><ele>127.0</ele><time>2016-06-18T04:17:26.293Z</time></trkpt><trkpt lat="58.22938667" lon="14.63623333"><ele>127.0</ele><time>2016-06-18T04:17:27.319Z</time></trkpt><trkpt lat="58.22936333" lon="14.63592667"><ele>127.0</ele><time>2016-06-18T04:17:28.288Z</time></trkpt><trkpt lat="58.22936333" lon="14.63592667"><ele>127.0</ele><time>2016-06-18T04:17:29.305Z</time></trkpt><trkpt lat="58.22933167" lon="14.63560667"><ele>128.0</ele><time>2016-06-18T04:17:30.296Z</time></trkpt><trkpt lat="58.22933167" lon="14.63560667"><ele>128.0</ele><time>2016-06-18T04:17:31.300Z</time></trkpt><trkpt lat="58.22927667" lon="14.63528333"><ele>127.0</ele><time>2016-06-18T04:17:32.307Z</time></trkpt><trkpt lat="58.22927667" lon="14.63528333"><ele>127.0</ele><time>2016-06-18T04:17:33.303Z</time></trkpt><trkpt lat="58.229205" lon="14.63497667"><ele>127.0</ele><time>2016-06-18T04:17:34.298Z</time></trkpt><trkpt lat="58.229205" lon="14.63497667"><ele>127.0</ele><time>2016-06-18T04:17:35.321Z</time></trkpt><trkpt lat="58.22912333" lon="14.634695"><ele>128.0</ele><time>2016-06-18T04:17:36.290Z</time></trkpt><trkpt lat="58.22907833" lon="14.63456833"><ele>128.0</ele><time>2016-06-18T04:17:37.287Z</time></trkpt><trkpt lat="58.22903167" lon="14.63444833"><ele>128.0</ele><time>2016-06-18T04:17:38.298Z</time></trkpt><trkpt lat="58.22903167" lon="14.63444833"><ele>128.0</ele><time>2016-06-18T04:17:39.304Z</time></trkpt><trkpt lat="58.22893833" lon="14.63421667"><ele>127.0</ele><time>2016-06-18T04:17:40.308Z</time></trkpt><trkpt lat="58.22889" lon="14.63410667"><ele>127.0</ele><time>2016-06-18T04:17:41.320Z</time></trkpt><trkpt lat="58.22889" lon="14.63410667"><ele>127.0</ele><time>2016-06-18T04:17:42.311Z</time></trkpt><trkpt lat="58.22878667" lon="14.63389667"><ele>127.0</ele><time>2016-06-18T04:17:43.282Z</time></trkpt><trkpt lat="58.22873167" lon="14.63379333"><ele>127.0</ele><time>2016-06-18T04:17:44.288Z</time></trkpt><trkpt lat="58.22873167" lon="14.63379333"><ele>127.0</ele><time>2016-06-18T04:17:45.311Z</time></trkpt><trkpt lat="58.22862333" lon="14.63359333"><ele>127.0</ele><time>2016-06-18T04:17:46.288Z</time></trkpt><trkpt lat="58.22862333" lon="14.63359333"><ele>127.0</ele><time>2016-06-18T04:17:47.305Z</time></trkpt><trkpt lat="58.22852" lon="14.63339833"><ele>127.0</ele><time>2016-06-18T04:17:48.296Z</time></trkpt><trkpt lat="58.22852" lon="14.63339833"><ele>127.0</ele><time>2016-06-18T04:17:49.300Z</time></trkpt><trkpt lat="58.22841333" lon="14.63319833"><ele>127.0</ele><time>2016-06-18T04:17:50.308Z</time></trkpt><trkpt lat="58.22841333" lon="14.63319833"><ele>127.0</ele><time>2016-06-18T04:17:51.302Z</time></trkpt><trkpt lat="58.2283" lon="14.63300167"><ele>127.0</ele><time>2016-06-18T04:17:52.303Z</time></trkpt><trkpt lat="58.22824167" lon="14.632905"><ele>127.0</ele><time>2016-06-18T04:17:53.316Z</time></trkpt><trkpt lat="58.22824167" lon="14.632905"><ele>127.0</ele><time>2016-06-18T04:17:54.301Z</time></trkpt><trkpt lat="58.22811667" lon="14.63272333"><ele>127.0</ele><time>2016-06-18T04:17:55.310Z</time></trkpt><trkpt lat="58.22805" lon="14.632645"><ele>127.0</ele><time>2016-06-18T04:17:56.320Z</time></trkpt><trkpt lat="58.22805" lon="14.632645"><ele>127.0</ele><time>2016-06-18T04:17:57.308Z</time></trkpt><trkpt lat="58.227905" lon="14.63252"><ele>127.0</ele><time>2016-06-18T04:17:58.291Z</time></trkpt><trkpt lat="58.227905" lon="14.63252"><ele>127.0</ele><time>2016-06-18T04:17:59.310Z</time></trkpt><trkpt lat="58.227755" lon="14.63243833"><ele>127.0</ele><time>2016-06-18T04:18:00.284Z</time></trkpt><trkpt lat="58.227755" lon="14.63243833"><ele>127.0</ele><time>2016-06-18T04:18:01.301Z</time></trkpt><trkpt lat="58.22760333" lon="14.63238833"><ele>127.0</ele><time>2016-06-18T04:18:02.308Z</time></trkpt><trkpt lat="58.22760333" lon="14.63238833"><ele>127.0</ele><time>2016-06-18T04:18:03.314Z</time></trkpt><trkpt lat="58.22745333" lon="14.63237"><ele>127.0</ele><time>2016-06-18T04:18:04.301Z</time></trkpt><trkpt lat="58.22745333" lon="14.63237"><ele>127.0</ele><time>2016-06-18T04:18:05.304Z</time></trkpt><trkpt lat="58.22730667" lon="14.63239167"><ele>127.0</ele><time>2016-06-18T04:18:06.293Z</time></trkpt><trkpt lat="58.22730667" lon="14.63239167"><ele>127.0</ele><time>2016-06-18T04:18:07.319Z</time></trkpt><trkpt lat="58.22715833" lon="14.63245"><ele>127.0</ele><time>2016-06-18T04:18:08.298Z</time></trkpt><trkpt lat="58.22715833" lon="14.63245"><ele>127.0</ele><time>2016-06-18T04:18:09.300Z</time></trkpt><trkpt lat="58.22701167" lon="14.63253833"><ele>127.0</ele><time>2016-06-18T04:18:10.293Z</time></trkpt><trkpt lat="58.22701167" lon="14.63253833"><ele>127.0</ele><time>2016-06-18T04:18:11.300Z</time></trkpt><trkpt lat="58.22687" lon="14.632655"><ele>127.0</ele><time>2016-06-18T04:18:12.309Z</time></trkpt><trkpt lat="58.2268" lon="14.63272333"><ele>127.0</ele><time>2016-06-18T04:18:13.308Z</time></trkpt><trkpt lat="58.22673" lon="14.63279333"><ele>127.0</ele><time>2016-06-18T04:18:14.296Z</time></trkpt><trkpt lat="58.22673" lon="14.63279333"><ele>127.0</ele><time>2016-06-18T04:18:15.319Z</time></trkpt><trkpt lat="58.22659333" lon="14.63293167"><ele>127.0</ele><time>2016-06-18T04:18:16.288Z</time></trkpt><trkpt lat="58.22652333" lon="14.633"><ele>127.0</ele><time>2016-06-18T04:18:17.288Z</time></trkpt><trkpt lat="58.22645667" lon="14.633065"><ele>127.0</ele><time>2016-06-18T04:18:18.288Z</time></trkpt><trkpt lat="58.22645667" lon="14.633065"><ele>127.0</ele><time>2016-06-18T04:18:19.316Z</time></trkpt><trkpt lat="58.22632667" lon="14.63319167"><ele>128.0</ele><time>2016-06-18T04:18:20.295Z</time></trkpt><trkpt lat="58.22632667" lon="14.63319167"><ele>128.0</ele><time>2016-06-18T04:18:21.302Z</time></trkpt><trkpt lat="58.22620333" lon="14.63331167"><ele>128.0</ele><time>2016-06-18T04:18:22.322Z</time></trkpt><trkpt lat="58.22620333" lon="14.63331167"><ele>128.0</ele><time>2016-06-18T04:18:23.304Z</time></trkpt><trkpt lat="58.226085" lon="14.63342833"><ele>128.0</ele><time>2016-06-18T04:18:24.294Z</time></trkpt><trkpt lat="58.226085" lon="14.63342833"><ele>128.0</ele><time>2016-06-18T04:18:25.309Z</time></trkpt><trkpt lat="58.22597333" lon="14.63354833"><ele>128.0</ele><time>2016-06-18T04:18:26.307Z</time></trkpt><trkpt lat="58.22597333" lon="14.63354833"><ele>128.0</ele><time>2016-06-18T04:18:27.315Z</time></trkpt><trkpt lat="58.22586667" lon="14.63367167"><ele>129.0</ele><time>2016-06-18T04:18:28.282Z</time></trkpt><trkpt lat="58.22581667" lon="14.63373167"><ele>129.0</ele><time>2016-06-18T04:18:29.316Z</time></trkpt><trkpt lat="58.22581667" lon="14.63373167"><ele>129.0</ele><time>2016-06-18T04:18:30.297Z</time></trkpt><trkpt lat="58.22570333" lon="14.63380333"><ele>129.0</ele><time>2016-06-18T04:18:31.304Z</time></trkpt><trkpt lat="58.22570333" lon="14.63380333"><ele>129.0</ele><time>2016-06-18T04:18:32.300Z</time></trkpt><trkpt lat="58.22557833" lon="14.63375333"><ele>129.0</ele><time>2016-06-18T04:18:33.327Z</time></trkpt><trkpt lat="58.22557833" lon="14.63375333"><ele>129.0</ele><time>2016-06-18T04:18:34.303Z</time></trkpt><trkpt lat="58.225485" lon="14.63356333"><ele>129.0</ele><time>2016-06-18T04:18:35.298Z</time></trkpt><trkpt lat="58.225485" lon="14.63356333"><ele>129.0</ele><time>2016-06-18T04:18:36.300Z</time></trkpt><trkpt lat="58.22539167" lon="14.633345"><ele>128.0</ele><time>2016-06-18T04:18:37.292Z</time></trkpt><trkpt lat="58.22534" lon="14.63323167"><ele>128.0</ele><time>2016-06-18T04:18:38.307Z</time></trkpt><trkpt lat="58.22534" lon="14.63323167"><ele>128.0</ele><time>2016-06-18T04:18:39.301Z</time></trkpt><trkpt lat="58.22522833" lon="14.633005"><ele>128.0</ele><time>2016-06-18T04:18:40.298Z</time></trkpt><trkpt lat="58.22522833" lon="14.633005"><ele>128.0</ele><time>2016-06-18T04:18:41.300Z</time></trkpt><trkpt lat="58.225105" lon="14.63278333"><ele>128.0</ele><time>2016-06-18T04:18:42.293Z</time></trkpt><trkpt lat="58.225105" lon="14.63278333"><ele>128.0</ele><time>2016-06-18T04:18:43.314Z</time></trkpt><trkpt lat="58.22497333" lon="14.63258"><ele>128.0</ele><time>2016-06-18T04:18:44.291Z</time></trkpt><trkpt lat="58.22497333" lon="14.63258"><ele>128.0</ele><time>2016-06-18T04:18:45.308Z</time></trkpt><trkpt lat="58.224835" lon="14.63239167"><ele>127.0</ele><time>2016-06-18T04:18:46.302Z</time></trkpt><trkpt lat="58.224835" lon="14.63239167"><ele>127.0</ele><time>2016-06-18T04:18:47.300Z</time></trkpt><trkpt lat="58.22469333" lon="14.63222667"><ele>127.0</ele><time>2016-06-18T04:18:48.289Z</time></trkpt><trkpt lat="58.22469333" lon="14.63222667"><ele>127.0</ele><time>2016-06-18T04:18:49.300Z</time></trkpt><trkpt lat="58.22455" lon="14.63207167"><ele>127.0</ele><time>2016-06-18T04:18:50.298Z</time></trkpt><trkpt lat="58.22455" lon="14.63207167"><ele>127.0</ele><time>2016-06-18T04:18:51.301Z</time></trkpt><trkpt lat="58.22441333" lon="14.63191833"><ele>127.0</ele><time>2016-06-18T04:18:52.294Z</time></trkpt><trkpt lat="58.22441333" lon="14.63191833"><ele>127.0</ele><time>2016-06-18T04:18:53.300Z</time></trkpt><trkpt lat="58.224275" lon="14.63177833"><ele>127.0</ele><time>2016-06-18T04:18:54.283Z</time></trkpt><trkpt lat="58.224205" lon="14.63170833"><ele>127.0</ele><time>2016-06-18T04:18:55.286Z</time></trkpt><trkpt lat="58.224135" lon="14.631635"><ele>127.0</ele><time>2016-06-18T04:18:56.322Z</time></trkpt><trkpt lat="58.224135" lon="14.631635"><ele>127.0</ele><time>2016-06-18T04:18:57.300Z</time></trkpt><trkpt lat="58.22398833" lon="14.63149"><ele>127.0</ele><time>2016-06-18T04:18:58.292Z</time></trkpt><trkpt lat="58.22398833" lon="14.63149"><ele>127.0</ele><time>2016-06-18T04:18:59.309Z</time></trkpt><trkpt lat="58.22384333" lon="14.63134667"><ele>127.0</ele><time>2016-06-18T04:19:00.295Z</time></trkpt><trkpt lat="58.22384333" lon="14.63134667"><ele>127.0</ele><time>2016-06-18T04:19:01.300Z</time></trkpt><trkpt lat="58.223705" lon="14.63120667"><ele>126.0</ele><time>2016-06-18T04:19:02.308Z</time></trkpt><trkpt lat="58.223705" lon="14.63120667"><ele>126.0</ele><time>2016-06-18T04:19:03.309Z</time></trkpt><trkpt lat="58.22356667" lon="14.631065"><ele>126.0</ele><time>2016-06-18T04:19:04.308Z</time></trkpt><trkpt lat="58.2235" lon="14.63099667"><ele>126.0</ele><time>2016-06-18T04:19:05.308Z</time></trkpt><trkpt lat="58.2235" lon="14.63099667"><ele>126.0</ele><time>2016-06-18T04:19:06.302Z</time></trkpt><trkpt lat="58.22336167" lon="14.63086167"><ele>126.0</ele><time>2016-06-18T04:19:07.298Z</time></trkpt><trkpt lat="58.223295" lon="14.630795"><ele>126.0</ele><time>2016-06-18T04:19:08.296Z</time></trkpt><trkpt lat="58.223295" lon="14.630795"><ele>126.0</ele><time>2016-06-18T04:19:09.300Z</time></trkpt><trkpt lat="58.22316333" lon="14.63066167"><ele>126.0</ele><time>2016-06-18T04:19:10.306Z</time></trkpt><trkpt lat="58.22316333" lon="14.63066167"><ele>126.0</ele><time>2016-06-18T04:19:11.300Z</time></trkpt><trkpt lat="58.22303667" lon="14.63053"><ele>126.0</ele><time>2016-06-18T04:19:12.285Z</time></trkpt><trkpt lat="58.22303667" lon="14.63053"><ele>126.0</ele><time>2016-06-18T04:19:13.305Z</time></trkpt><trkpt lat="58.22292" lon="14.63040333"><ele>127.0</ele><time>2016-06-18T04:19:14.292Z</time></trkpt><trkpt lat="58.22292" lon="14.63040333"><ele>127.0</ele><time>2016-06-18T04:19:15.297Z</time></trkpt><trkpt lat="58.22280333" lon="14.63028167"><ele>128.0</ele><time>2016-06-18T04:19:16.304Z</time></trkpt><trkpt lat="58.22280333" lon="14.63028167"><ele>128.0</ele><time>2016-06-18T04:19:17.316Z</time></trkpt><trkpt lat="58.222685" lon="14.63016167"><ele>128.0</ele><time>2016-06-18T04:19:18.297Z</time></trkpt><trkpt lat="58.222685" lon="14.63016167"><ele>128.0</ele><time>2016-06-18T04:19:19.288Z</time></trkpt><trkpt lat="58.22256833" lon="14.63004333"><ele>128.0</ele><time>2016-06-18T04:19:20.323Z</time></trkpt><trkpt lat="58.22256833" lon="14.63004333"><ele>128.0</ele><time>2016-06-18T04:19:21.302Z</time></trkpt><trkpt lat="58.22245833" lon="14.629935"><ele>128.0</ele><time>2016-06-18T04:19:22.297Z</time></trkpt><trkpt lat="58.222405" lon="14.62988667"><ele>129.0</ele><time>2016-06-18T04:19:23.284Z</time></trkpt><trkpt lat="58.222405" lon="14.62988667"><ele>129.0</ele><time>2016-06-18T04:19:24.303Z</time></trkpt><trkpt lat="58.22229833" lon="14.62978167"><ele>129.0</ele><time>2016-06-18T04:19:25.289Z</time></trkpt><trkpt lat="58.222245" lon="14.62971667"><ele>130.0</ele><time>2016-06-18T04:19:26.287Z</time></trkpt><trkpt lat="58.222245" lon="14.62971667"><ele>130.0</ele><time>2016-06-18T04:19:27.282Z</time></trkpt><trkpt lat="58.222135" lon="14.6296"><ele>131.0</ele><time>2016-06-18T04:19:28.296Z</time></trkpt><trkpt lat="58.22207833" lon="14.62953833"><ele>131.0</ele><time>2016-06-18T04:19:29.367Z</time></trkpt><trkpt lat="58.22207833" lon="14.62953833"><ele>131.0</ele><time>2016-06-18T04:19:30.305Z</time></trkpt><trkpt lat="58.22196" lon="14.62941667"><ele>131.0</ele><time>2016-06-18T04:19:31.315Z</time></trkpt><trkpt lat="58.22190167" lon="14.62935333"><ele>131.0</ele><time>2016-06-18T04:19:32.296Z</time></trkpt><trkpt lat="58.22190167" lon="14.62935333"><ele>131.0</ele><time>2016-06-18T04:19:33.317Z</time></trkpt><trkpt lat="58.22179333" lon="14.62923333"><ele>131.0</ele><time>2016-06-18T04:19:34.293Z</time></trkpt><trkpt lat="58.22173833" lon="14.629175"><ele>131.0</ele><time>2016-06-18T04:19:35.313Z</time></trkpt><trkpt lat="58.22173833" lon="14.629175"><ele>131.0</ele><time>2016-06-18T04:19:36.295Z</time></trkpt><trkpt lat="58.22162833" lon="14.62906"><ele>132.0</ele><time>2016-06-18T04:19:37.303Z</time></trkpt><trkpt lat="58.22157333" lon="14.62900167"><ele>132.0</ele><time>2016-06-18T04:19:38.302Z</time></trkpt><trkpt lat="58.22157333" lon="14.62900167"><ele>132.0</ele><time>2016-06-18T04:19:39.283Z</time></trkpt><trkpt lat="58.22146167" lon="14.628885"><ele>132.0</ele><time>2016-06-18T04:19:40.306Z</time></trkpt><trkpt lat="58.221405" lon="14.628825"><ele>132.0</ele><time>2016-06-18T04:19:41.295Z</time></trkpt><trkpt lat="58.221405" lon="14.628825"><ele>132.0</ele><time>2016-06-18T04:19:42.310Z</time></trkpt><trkpt lat="58.22129167" lon="14.62870833"><ele>132.0</ele><time>2016-06-18T04:19:43.284Z</time></trkpt><trkpt lat="58.22129167" lon="14.62870833"><ele>132.0</ele><time>2016-06-18T04:19:44.293Z</time></trkpt><trkpt lat="58.22117833" lon="14.62860167"><ele>133.0</ele><time>2016-06-18T04:19:45.308Z</time></trkpt><trkpt lat="58.22117833" lon="14.62860167"><ele>133.0</ele><time>2016-06-18T04:19:46.284Z</time></trkpt><trkpt lat="58.22106" lon="14.628495"><ele>133.0</ele><time>2016-06-18T04:19:47.294Z</time></trkpt><trkpt lat="58.22100333" lon="14.62844167"><ele>133.0</ele><time>2016-06-18T04:19:48.288Z</time></trkpt><trkpt lat="58.220945" lon="14.62838667"><ele>133.0</ele><time>2016-06-18T04:19:49.298Z</time></trkpt><trkpt lat="58.220945" lon="14.62838667"><ele>133.0</ele><time>2016-06-18T04:19:50.297Z</time></trkpt><trkpt lat="58.22083" lon="14.62826667"><ele>133.0</ele><time>2016-06-18T04:19:51.308Z</time></trkpt><trkpt lat="58.22083" lon="14.62826667"><ele>133.0</ele><time>2016-06-18T04:19:52.299Z</time></trkpt><trkpt lat="58.220715" lon="14.62816167"><ele>133.0</ele><time>2016-06-18T04:19:53.292Z</time></trkpt><trkpt lat="58.22065833" lon="14.628115"><ele>133.0</ele><time>2016-06-18T04:19:54.298Z</time></trkpt><trkpt lat="58.22065833" lon="14.628115"><ele>133.0</ele><time>2016-06-18T04:19:55.315Z</time></trkpt><trkpt lat="58.220545" lon="14.628025"><ele>134.0</ele><time>2016-06-18T04:19:56.283Z</time></trkpt><trkpt lat="58.220545" lon="14.628025"><ele>134.0</ele><time>2016-06-18T04:19:57.291Z</time></trkpt><trkpt lat="58.22042833" lon="14.62793833"><ele>134.0</ele><time>2016-06-18T04:19:58.298Z</time></trkpt><trkpt lat="58.22042833" lon="14.62793833"><ele>134.0</ele><time>2016-06-18T04:19:59.305Z</time></trkpt><trkpt lat="58.22030667" lon="14.62786167"><ele>134.0</ele><time>2016-06-18T04:20:00.291Z</time></trkpt><trkpt lat="58.22030667" lon="14.62786167"><ele>134.0</ele><time>2016-06-18T04:20:01.309Z</time></trkpt><trkpt lat="58.220185" lon="14.627785"><ele>135.0</ele><time>2016-06-18T04:20:02.318Z</time></trkpt><trkpt lat="58.220185" lon="14.627785"><ele>135.0</ele><time>2016-06-18T04:20:03.301Z</time></trkpt><trkpt lat="58.22005833" lon="14.62771333"><ele>135.0</ele><time>2016-06-18T04:20:04.308Z</time></trkpt><trkpt lat="58.22005833" lon="14.62771333"><ele>135.0</ele><time>2016-06-18T04:20:05.307Z</time></trkpt><trkpt lat="58.21992667" lon="14.62764833"><ele>135.0</ele><time>2016-06-18T04:20:06.288Z</time></trkpt><trkpt lat="58.21992667" lon="14.62764833"><ele>135.0</ele><time>2016-06-18T04:20:07.318Z</time></trkpt><trkpt lat="58.21979333" lon="14.627585"><ele>135.0</ele><time>2016-06-18T04:20:08.296Z</time></trkpt><trkpt lat="58.21979333" lon="14.627585"><ele>135.0</ele><time>2016-06-18T04:20:09.318Z</time></trkpt><trkpt lat="58.21965833" lon="14.62751833"><ele>135.0</ele><time>2016-06-18T04:20:10.310Z</time></trkpt><trkpt lat="58.21965833" lon="14.62751833"><ele>135.0</ele><time>2016-06-18T04:20:11.315Z</time></trkpt><trkpt lat="58.219525" lon="14.62745"><ele>135.0</ele><time>2016-06-18T04:20:12.299Z</time></trkpt><trkpt lat="58.21945833" lon="14.62742"><ele>135.0</ele><time>2016-06-18T04:20:13.285Z</time></trkpt><trkpt lat="58.21945833" lon="14.62742"><ele>135.0</ele><time>2016-06-18T04:20:14.295Z</time></trkpt><trkpt lat="58.21933" lon="14.62736833"><ele>135.0</ele><time>2016-06-18T04:20:15.322Z</time></trkpt><trkpt lat="58.21926667" lon="14.62734167"><ele>135.0</ele><time>2016-06-18T04:20:16.308Z</time></trkpt><trkpt lat="58.21926667" lon="14.62734167"><ele>135.0</ele><time>2016-06-18T04:20:17.308Z</time></trkpt><trkpt lat="58.21914333" lon="14.62727667"><ele>135.0</ele><time>2016-06-18T04:20:18.323Z</time></trkpt><trkpt lat="58.21914333" lon="14.62727667"><ele>135.0</ele><time>2016-06-18T04:20:19.300Z</time></trkpt><trkpt lat="58.21902" lon="14.62721667"><ele>135.0</ele><time>2016-06-18T04:20:20.298Z</time></trkpt><trkpt lat="58.21902" lon="14.62721667"><ele>135.0</ele><time>2016-06-18T04:20:21.304Z</time></trkpt><trkpt lat="58.218895" lon="14.62715167"><ele>135.0</ele><time>2016-06-18T04:20:22.308Z</time></trkpt><trkpt lat="58.218895" lon="14.62715167"><ele>135.0</ele><time>2016-06-18T04:20:23.308Z</time></trkpt><trkpt lat="58.21876667" lon="14.62708667"><ele>135.0</ele><time>2016-06-18T04:20:24.303Z</time></trkpt><trkpt lat="58.2187" lon="14.62705667"><ele>135.0</ele><time>2016-06-18T04:20:25.319Z</time></trkpt><trkpt lat="58.2187" lon="14.62705667"><ele>135.0</ele><time>2016-06-18T04:20:26.307Z</time></trkpt><trkpt lat="58.21857" lon="14.62699"><ele>135.0</ele><time>2016-06-18T04:20:27.295Z</time></trkpt><trkpt lat="58.21857" lon="14.62699"><ele>135.0</ele><time>2016-06-18T04:20:28.310Z</time></trkpt><trkpt lat="58.21843667" lon="14.62692167"><ele>135.0</ele><time>2016-06-18T04:20:29.291Z</time></trkpt><trkpt lat="58.21843667" lon="14.62692167"><ele>135.0</ele><time>2016-06-18T04:20:30.303Z</time></trkpt><trkpt lat="58.21830167" lon="14.62684667"><ele>135.0</ele><time>2016-06-18T04:20:31.288Z</time></trkpt><trkpt lat="58.21830167" lon="14.62684667"><ele>135.0</ele><time>2016-06-18T04:20:32.299Z</time></trkpt><trkpt lat="58.21816667" lon="14.62676667"><ele>135.0</ele><time>2016-06-18T04:20:33.307Z</time></trkpt><trkpt lat="58.21816667" lon="14.62676667"><ele>135.0</ele><time>2016-06-18T04:20:34.287Z</time></trkpt><trkpt lat="58.21803833" lon="14.62668167"><ele>135.0</ele><time>2016-06-18T04:20:35.308Z</time></trkpt><trkpt lat="58.217975" lon="14.626635"><ele>134.0</ele><time>2016-06-18T04:20:36.308Z</time></trkpt><trkpt lat="58.217975" lon="14.626635"><ele>134.0</ele><time>2016-06-18T04:20:37.304Z</time></trkpt><trkpt lat="58.21785" lon="14.626545"><ele>134.0</ele><time>2016-06-18T04:20:38.296Z</time></trkpt><trkpt lat="58.21785" lon="14.626545"><ele>134.0</ele><time>2016-06-18T04:20:39.301Z</time></trkpt><trkpt lat="58.21772833" lon="14.62645833"><ele>134.0</ele><time>2016-06-18T04:20:40.325Z</time></trkpt><trkpt lat="58.21766667" lon="14.62641167"><ele>134.0</ele><time>2016-06-18T04:20:41.307Z</time></trkpt><trkpt lat="58.217605" lon="14.626365"><ele>134.0</ele><time>2016-06-18T04:20:42.291Z</time></trkpt><trkpt lat="58.21754167" lon="14.62631667"><ele>134.0</ele><time>2016-06-18T04:20:43.318Z</time></trkpt><trkpt lat="58.21754167" lon="14.62631667"><ele>134.0</ele><time>2016-06-18T04:20:44.295Z</time></trkpt><trkpt lat="58.21741333" lon="14.62620667"><ele>134.0</ele><time>2016-06-18T04:20:45.309Z</time></trkpt><trkpt lat="58.21734833" lon="14.62615167"><ele>134.0</ele><time>2016-06-18T04:20:46.318Z</time></trkpt><trkpt lat="58.217285" lon="14.62609667"><ele>133.0</ele><time>2016-06-18T04:20:47.298Z</time></trkpt><trkpt lat="58.217285" lon="14.62609667"><ele>133.0</ele><time>2016-06-18T04:20:48.307Z</time></trkpt><trkpt lat="58.21716167" lon="14.62598167"><ele>133.0</ele><time>2016-06-18T04:20:49.296Z</time></trkpt><trkpt lat="58.21710167" lon="14.62592333"><ele>133.0</ele><time>2016-06-18T04:20:50.289Z</time></trkpt><trkpt lat="58.21704" lon="14.62586667"><ele>133.0</ele><time>2016-06-18T04:20:51.292Z</time></trkpt><trkpt lat="58.21704" lon="14.62586667"><ele>133.0</ele><time>2016-06-18T04:20:52.308Z</time></trkpt><trkpt lat="58.216915" lon="14.62574667"><ele>133.0</ele><time>2016-06-18T04:20:53.308Z</time></trkpt><trkpt lat="58.216915" lon="14.62574667"><ele>133.0</ele><time>2016-06-18T04:20:54.301Z</time></trkpt><trkpt lat="58.21679" lon="14.625625"><ele>133.0</ele><time>2016-06-18T04:20:55.310Z</time></trkpt><trkpt lat="58.21672833" lon="14.625565"><ele>133.0</ele><time>2016-06-18T04:20:56.317Z</time></trkpt><trkpt lat="58.21672833" lon="14.625565"><ele>133.0</ele><time>2016-06-18T04:20:57.283Z</time></trkpt><trkpt lat="58.216605" lon="14.62543833"><ele>133.0</ele><time>2016-06-18T04:20:58.318Z</time></trkpt><trkpt lat="58.21654333" lon="14.62537167"><ele>133.0</ele><time>2016-06-18T04:20:59.294Z</time></trkpt><trkpt lat="58.21654333" lon="14.62537167"><ele>133.0</ele><time>2016-06-18T04:21:00.313Z</time></trkpt><trkpt lat="58.21642167" lon="14.62524"><ele>133.0</ele><time>2016-06-18T04:21:01.294Z</time></trkpt><trkpt lat="58.21636167" lon="14.62517167"><ele>132.0</ele><time>2016-06-18T04:21:02.295Z</time></trkpt><trkpt lat="58.21636167" lon="14.62517167"><ele>132.0</ele><time>2016-06-18T04:21:03.319Z</time></trkpt><trkpt lat="58.21624167" lon="14.62503167"><ele>132.0</ele><time>2016-06-18T04:21:04.298Z</time></trkpt><trkpt lat="58.21618167" lon="14.62496167"><ele>132.0</ele><time>2016-06-18T04:21:05.324Z</time></trkpt><trkpt lat="58.21618167" lon="14.62496167"><ele>132.0</ele><time>2016-06-18T04:21:06.320Z</time></trkpt><trkpt lat="58.21606333" lon="14.62481667"><ele>133.0</ele><time>2016-06-18T04:21:07.289Z</time></trkpt><trkpt lat="58.21606333" lon="14.62481667"><ele>133.0</ele><time>2016-06-18T04:21:08.307Z</time></trkpt><trkpt lat="58.21594833" lon="14.62466833"><ele>133.0</ele><time>2016-06-18T04:21:09.298Z</time></trkpt><trkpt lat="58.21594833" lon="14.62466833"><ele>133.0</ele><time>2016-06-18T04:21:10.289Z</time></trkpt><trkpt lat="58.21583333" lon="14.62452167"><ele>133.0</ele><time>2016-06-18T04:21:11.304Z</time></trkpt><trkpt lat="58.215775" lon="14.62444333"><ele>133.0</ele><time>2016-06-18T04:21:12.324Z</time></trkpt><trkpt lat="58.215775" lon="14.62444333"><ele>133.0</ele><time>2016-06-18T04:21:13.320Z</time></trkpt><trkpt lat="58.21566" lon="14.62428833"><ele>133.0</ele><time>2016-06-18T04:21:14.308Z</time></trkpt><trkpt lat="58.21566" lon="14.62428833"><ele>133.0</ele><time>2016-06-18T04:21:15.312Z</time></trkpt><trkpt lat="58.21554833" lon="14.62413"><ele>133.0</ele><time>2016-06-18T04:21:16.308Z</time></trkpt><trkpt lat="58.21554833" lon="14.62413"><ele>133.0</ele><time>2016-06-18T04:21:17.318Z</time></trkpt><trkpt lat="58.21543167" lon="14.62397333"><ele>133.0</ele><time>2016-06-18T04:21:18.298Z</time></trkpt><trkpt lat="58.21543167" lon="14.62397333"><ele>133.0</ele><time>2016-06-18T04:21:19.319Z</time></trkpt><trkpt lat="58.21531667" lon="14.623815"><ele>134.0</ele><time>2016-06-18T04:21:20.294Z</time></trkpt><trkpt lat="58.21531667" lon="14.623815"><ele>134.0</ele><time>2016-06-18T04:21:21.298Z</time></trkpt><trkpt lat="58.21520333" lon="14.62365833"><ele>134.0</ele><time>2016-06-18T04:21:22.305Z</time></trkpt><trkpt lat="58.21520333" lon="14.62365833"><ele>134.0</ele><time>2016-06-18T04:21:23.315Z</time></trkpt><trkpt lat="58.21509667" lon="14.623505"><ele>134.0</ele><time>2016-06-18T04:21:24.286Z</time></trkpt><trkpt lat="58.21509667" lon="14.623505"><ele>134.0</ele><time>2016-06-18T04:21:25.304Z</time></trkpt><trkpt lat="58.21499333" lon="14.62335667"><ele>135.0</ele><time>2016-06-18T04:21:26.282Z</time></trkpt><trkpt lat="58.21499333" lon="14.62335667"><ele>135.0</ele><time>2016-06-18T04:21:27.295Z</time></trkpt><trkpt lat="58.21489667" lon="14.623215"><ele>135.0</ele><time>2016-06-18T04:21:28.298Z</time></trkpt><trkpt lat="58.21489667" lon="14.623215"><ele>135.0</ele><time>2016-06-18T04:21:29.305Z</time></trkpt><trkpt lat="58.2148" lon="14.62309"><ele>136.0</ele><time>2016-06-18T04:21:30.293Z</time></trkpt><trkpt lat="58.2148" lon="14.62309"><ele>136.0</ele><time>2016-06-18T04:21:31.319Z</time></trkpt><trkpt lat="58.21471" lon="14.62296833"><ele>136.0</ele><time>2016-06-18T04:21:32.298Z</time></trkpt><trkpt lat="58.21471" lon="14.62296833"><ele>136.0</ele><time>2016-06-18T04:21:33.282Z</time></trkpt><trkpt lat="58.21462167" lon="14.622845"><ele>137.0</ele><time>2016-06-18T04:21:34.291Z</time></trkpt><trkpt lat="58.21462167" lon="14.622845"><ele>137.0</ele><time>2016-06-18T04:21:35.313Z</time></trkpt><trkpt lat="58.21453333" lon="14.62272167"><ele>137.0</ele><time>2016-06-18T04:21:36.285Z</time></trkpt><trkpt lat="58.21453333" lon="14.62272167"><ele>137.0</ele><time>2016-06-18T04:21:37.318Z</time></trkpt><trkpt lat="58.21444333" lon="14.6226"><ele>138.0</ele><time>2016-06-18T04:21:38.298Z</time></trkpt><trkpt lat="58.21444333" lon="14.6226"><ele>138.0</ele><time>2016-06-18T04:21:39.304Z</time></trkpt><trkpt lat="58.214355" lon="14.62247667"><ele>138.0</ele><time>2016-06-18T04:21:40.298Z</time></trkpt><trkpt lat="58.214355" lon="14.62247667"><ele>138.0</ele><time>2016-06-18T04:21:41.308Z</time></trkpt><trkpt lat="58.21427" lon="14.62235333"><ele>138.0</ele><time>2016-06-18T04:21:42.297Z</time></trkpt><trkpt lat="58.21427" lon="14.62235333"><ele>138.0</ele><time>2016-06-18T04:21:43.309Z</time></trkpt><trkpt lat="58.21418167" lon="14.62223167"><ele>139.0</ele><time>2016-06-18T04:21:44.308Z</time></trkpt><trkpt lat="58.21418167" lon="14.62223167"><ele>139.0</ele><time>2016-06-18T04:21:45.282Z</time></trkpt><trkpt lat="58.21408833" lon="14.62211"><ele>139.0</ele><time>2016-06-18T04:21:46.304Z</time></trkpt><trkpt lat="58.21408833" lon="14.62211"><ele>139.0</ele><time>2016-06-18T04:21:47.318Z</time></trkpt><trkpt lat="58.21398833" lon="14.621995"><ele>140.0</ele><time>2016-06-18T04:21:48.308Z</time></trkpt><trkpt lat="58.21393667" lon="14.621935"><ele>140.0</ele><time>2016-06-18T04:21:49.291Z</time></trkpt><trkpt lat="58.21393667" lon="14.621935"><ele>140.0</ele><time>2016-06-18T04:21:50.312Z</time></trkpt><trkpt lat="58.21382667" lon="14.62181833"><ele>140.0</ele><time>2016-06-18T04:21:51.308Z</time></trkpt><trkpt lat="58.213765" lon="14.62176167"><ele>140.0</ele><time>2016-06-18T04:21:52.324Z</time></trkpt><trkpt lat="58.213765" lon="14.62176167"><ele>140.0</ele><time>2016-06-18T04:21:53.300Z</time></trkpt><trkpt lat="58.21364333" lon="14.62164833"><ele>140.0</ele><time>2016-06-18T04:21:54.308Z</time></trkpt><trkpt lat="58.21358167" lon="14.621595"><ele>140.0</ele><time>2016-06-18T04:21:55.305Z</time></trkpt><trkpt lat="58.21358167" lon="14.621595"><ele>140.0</ele><time>2016-06-18T04:21:56.315Z</time></trkpt><trkpt lat="58.21346" lon="14.62149167"><ele>140.0</ele><time>2016-06-18T04:21:57.308Z</time></trkpt><trkpt lat="58.21346" lon="14.62149167"><ele>140.0</ele><time>2016-06-18T04:21:58.310Z</time></trkpt><trkpt lat="58.21333" lon="14.62138833"><ele>140.0</ele><time>2016-06-18T04:21:59.299Z</time></trkpt><trkpt lat="58.21333" lon="14.62138833"><ele>140.0</ele><time>2016-06-18T04:22:00.320Z</time></trkpt><trkpt lat="58.21319333" lon="14.62127833"><ele>140.0</ele><time>2016-06-18T04:22:01.293Z</time></trkpt><trkpt lat="58.21312333" lon="14.62122333"><ele>139.0</ele><time>2016-06-18T04:22:02.288Z</time></trkpt><trkpt lat="58.21312333" lon="14.62122333"><ele>139.0</ele><time>2016-06-18T04:22:03.309Z</time></trkpt><trkpt lat="58.21296667" lon="14.62111833"><ele>139.0</ele><time>2016-06-18T04:22:04.296Z</time></trkpt><trkpt lat="58.21296667" lon="14.62111833"><ele>139.0</ele><time>2016-06-18T04:22:05.303Z</time></trkpt><trkpt lat="58.21281167" lon="14.62100667"><ele>138.0</ele><time>2016-06-18T04:22:06.307Z</time></trkpt><trkpt lat="58.21281167" lon="14.62100667"><ele>138.0</ele><time>2016-06-18T04:22:07.304Z</time></trkpt><trkpt lat="58.21265667" lon="14.620895"><ele>137.0</ele><time>2016-06-18T04:22:08.296Z</time></trkpt><trkpt lat="58.21257833" lon="14.620835"><ele>137.0</ele><time>2016-06-18T04:22:09.303Z</time></trkpt><trkpt lat="58.21257833" lon="14.620835"><ele>137.0</ele><time>2016-06-18T04:22:10.315Z</time></trkpt><trkpt lat="58.21242167" lon="14.62071333"><ele>137.0</ele><time>2016-06-18T04:22:11.304Z</time></trkpt><trkpt lat="58.21234333" lon="14.62065"><ele>137.0</ele><time>2016-06-18T04:22:12.282Z</time></trkpt><trkpt lat="58.212265" lon="14.62059"><ele>136.0</ele><time>2016-06-18T04:22:13.290Z</time></trkpt><trkpt lat="58.212265" lon="14.62059"><ele>136.0</ele><time>2016-06-18T04:22:14.297Z</time></trkpt><trkpt lat="58.21210667" lon="14.62047333"><ele>136.0</ele><time>2016-06-18T04:22:15.308Z</time></trkpt><trkpt lat="58.21210667" lon="14.62047333"><ele>136.0</ele><time>2016-06-18T04:22:16.314Z</time></trkpt><trkpt lat="58.21195667" lon="14.62035667"><ele>136.0</ele><time>2016-06-18T04:22:17.314Z</time></trkpt><trkpt lat="58.21195667" lon="14.62035667"><ele>136.0</ele><time>2016-06-18T04:22:18.319Z</time></trkpt><trkpt lat="58.211815" lon="14.62024833"><ele>136.0</ele><time>2016-06-18T04:22:19.308Z</time></trkpt><trkpt lat="58.21174667" lon="14.620195"><ele>136.0</ele><time>2016-06-18T04:22:20.308Z</time></trkpt><trkpt lat="58.21174667" lon="14.620195"><ele>136.0</ele><time>2016-06-18T04:22:21.321Z</time></trkpt><trkpt lat="58.21160667" lon="14.62008833"><ele>137.0</ele><time>2016-06-18T04:22:22.318Z</time></trkpt><trkpt lat="58.21160667" lon="14.62008833"><ele>137.0</ele><time>2016-06-18T04:22:23.309Z</time></trkpt><trkpt lat="58.21147" lon="14.61998"><ele>136.0</ele><time>2016-06-18T04:22:24.297Z</time></trkpt><trkpt lat="58.21147" lon="14.61998"><ele>136.0</ele><time>2016-06-18T04:22:25.304Z</time></trkpt><trkpt lat="58.21133167" lon="14.61987667"><ele>136.0</ele><time>2016-06-18T04:22:26.295Z</time></trkpt><trkpt lat="58.21126333" lon="14.61982833"><ele>136.0</ele><time>2016-06-18T04:22:27.318Z</time></trkpt><trkpt lat="58.21119667" lon="14.61977833"><ele>136.0</ele><time>2016-06-18T04:22:28.297Z</time></trkpt><trkpt lat="58.21119667" lon="14.61977833"><ele>136.0</ele><time>2016-06-18T04:22:29.313Z</time></trkpt><trkpt lat="58.21106" lon="14.61967333"><ele>136.0</ele><time>2016-06-18T04:22:30.293Z</time></trkpt><trkpt lat="58.21106" lon="14.61967333"><ele>136.0</ele><time>2016-06-18T04:22:31.310Z</time></trkpt><trkpt lat="58.21092333" lon="14.619565"><ele>136.0</ele><time>2016-06-18T04:22:32.298Z</time></trkpt><trkpt lat="58.21092333" lon="14.619565"><ele>136.0</ele><time>2016-06-18T04:22:33.285Z</time></trkpt><trkpt lat="58.21078" lon="14.61946"><ele>137.0</ele><time>2016-06-18T04:22:34.298Z</time></trkpt><trkpt lat="58.21071" lon="14.61940667"><ele>137.0</ele><time>2016-06-18T04:22:35.319Z</time></trkpt><trkpt lat="58.21071" lon="14.61940667"><ele>137.0</ele><time>2016-06-18T04:22:36.302Z</time></trkpt><trkpt lat="58.21056833" lon="14.6193"><ele>137.0</ele><time>2016-06-18T04:22:37.293Z</time></trkpt><trkpt lat="58.21056833" lon="14.6193"><ele>137.0</ele><time>2016-06-18T04:22:38.315Z</time></trkpt><trkpt lat="58.21043167" lon="14.61919833"><ele>137.0</ele><time>2016-06-18T04:22:39.308Z</time></trkpt><trkpt lat="58.21036167" lon="14.61915"><ele>137.0</ele><time>2016-06-18T04:22:40.284Z</time></trkpt><trkpt lat="58.21036167" lon="14.61915"><ele>137.0</ele><time>2016-06-18T04:22:41.316Z</time></trkpt><trkpt lat="58.21023" lon="14.61905667"><ele>138.0</ele><time>2016-06-18T04:22:42.288Z</time></trkpt><trkpt lat="58.21023" lon="14.61905667"><ele>138.0</ele><time>2016-06-18T04:22:43.305Z</time></trkpt><trkpt lat="58.210105" lon="14.61896167"><ele>138.0</ele><time>2016-06-18T04:22:44.298Z</time></trkpt><trkpt lat="58.210105" lon="14.61896167"><ele>138.0</ele><time>2016-06-18T04:22:45.320Z</time></trkpt><trkpt lat="58.209985" lon="14.618875"><ele>138.0</ele><time>2016-06-18T04:22:46.289Z</time></trkpt><trkpt lat="58.209985" lon="14.618875"><ele>138.0</ele><time>2016-06-18T04:22:47.301Z</time></trkpt><trkpt lat="58.20986833" lon="14.61878833"><ele>139.0</ele><time>2016-06-18T04:22:48.323Z</time></trkpt><trkpt lat="58.20986833" lon="14.61878833"><ele>139.0</ele><time>2016-06-18T04:22:49.310Z</time></trkpt><trkpt lat="58.20975" lon="14.61869833"><ele>140.0</ele><time>2016-06-18T04:22:50.283Z</time></trkpt><trkpt lat="58.20975" lon="14.61869833"><ele>140.0</ele><time>2016-06-18T04:22:51.310Z</time></trkpt><trkpt lat="58.20963167" lon="14.6186"><ele>140.0</ele><time>2016-06-18T04:22:52.308Z</time></trkpt><trkpt lat="58.20963167" lon="14.6186"><ele>140.0</ele><time>2016-06-18T04:22:53.304Z</time></trkpt><trkpt lat="58.20951167" lon="14.61850333"><ele>140.0</ele><time>2016-06-18T04:22:54.298Z</time></trkpt><trkpt lat="58.20951167" lon="14.61850333"><ele>140.0</ele><time>2016-06-18T04:22:55.305Z</time></trkpt><trkpt lat="58.20939333" lon="14.618405"><ele>140.0</ele><time>2016-06-18T04:22:56.313Z</time></trkpt><trkpt lat="58.20939333" lon="14.618405"><ele>140.0</ele><time>2016-06-18T04:22:57.308Z</time></trkpt><trkpt lat="58.209275" lon="14.61830667"><ele>141.0</ele><time>2016-06-18T04:22:58.315Z</time></trkpt><trkpt lat="58.209275" lon="14.61830667"><ele>141.0</ele><time>2016-06-18T04:22:59.282Z</time></trkpt><trkpt lat="58.209165" lon="14.61822"><ele>141.0</ele><time>2016-06-18T04:23:00.289Z</time></trkpt><trkpt lat="58.209165" lon="14.61822"><ele>141.0</ele><time>2016-06-18T04:23:01.299Z</time></trkpt><trkpt lat="58.20905" lon="14.61813833"><ele>141.0</ele><time>2016-06-18T04:23:02.306Z</time></trkpt><trkpt lat="58.20905" lon="14.61813833"><ele>141.0</ele><time>2016-06-18T04:23:03.315Z</time></trkpt><trkpt lat="58.208935" lon="14.61805"><ele>141.0</ele><time>2016-06-18T04:23:04.294Z</time></trkpt><trkpt lat="58.208935" lon="14.61805"><ele>141.0</ele><time>2016-06-18T04:23:05.301Z</time></trkpt><trkpt lat="58.208825" lon="14.61796167"><ele>142.0</ele><time>2016-06-18T04:23:06.311Z</time></trkpt><trkpt lat="58.20877167" lon="14.61792"><ele>142.0</ele><time>2016-06-18T04:23:07.283Z</time></trkpt><trkpt lat="58.20871833" lon="14.61787667"><ele>143.0</ele><time>2016-06-18T04:23:08.325Z</time></trkpt><trkpt lat="58.20871833" lon="14.61787667"><ele>143.0</ele><time>2016-06-18T04:23:09.315Z</time></trkpt><trkpt lat="58.20860833" lon="14.61779833"><ele>143.0</ele><time>2016-06-18T04:23:10.286Z</time></trkpt><trkpt lat="58.20860833" lon="14.61779833"><ele>143.0</ele><time>2016-06-18T04:23:11.301Z</time></trkpt><trkpt lat="58.208495" lon="14.61771167"><ele>143.0</ele><time>2016-06-18T04:23:12.298Z</time></trkpt><trkpt lat="58.208495" lon="14.61771167"><ele>143.0</ele><time>2016-06-18T04:23:13.291Z</time></trkpt><trkpt lat="58.20839" lon="14.617625"><ele>143.0</ele><time>2016-06-18T04:23:14.324Z</time></trkpt><trkpt lat="58.20839" lon="14.617625"><ele>143.0</ele><time>2016-06-18T04:23:15.320Z</time></trkpt><trkpt lat="58.20828333" lon="14.61754"><ele>143.0</ele><time>2016-06-18T04:23:16.301Z</time></trkpt><trkpt lat="58.20828333" lon="14.61754"><ele>143.0</ele><time>2016-06-18T04:23:17.300Z</time></trkpt><trkpt lat="58.20817167" lon="14.61745333"><ele>144.0</ele><time>2016-06-18T04:23:18.325Z</time></trkpt><trkpt lat="58.20817167" lon="14.61745333"><ele>144.0</ele><time>2016-06-18T04:23:19.305Z</time></trkpt><trkpt lat="58.20806" lon="14.61736333"><ele>144.0</ele><time>2016-06-18T04:23:20.287Z</time></trkpt><trkpt lat="58.20806" lon="14.61736333"><ele>144.0</ele><time>2016-06-18T04:23:21.319Z</time></trkpt><trkpt lat="58.20794333" lon="14.617275"><ele>144.0</ele><time>2016-06-18T04:23:22.328Z</time></trkpt><trkpt lat="58.20794333" lon="14.617275"><ele>144.0</ele><time>2016-06-18T04:23:23.319Z</time></trkpt><trkpt lat="58.207825" lon="14.61718167"><ele>144.0</ele><time>2016-06-18T04:23:24.293Z</time></trkpt><trkpt lat="58.207825" lon="14.61718167"><ele>144.0</ele><time>2016-06-18T04:23:25.288Z</time></trkpt><trkpt lat="58.207705" lon="14.61707167"><ele>143.0</ele><time>2016-06-18T04:23:26.284Z</time></trkpt><trkpt lat="58.20764" lon="14.617025"><ele>143.0</ele><time>2016-06-18T04:23:27.324Z</time></trkpt><trkpt lat="58.20764" lon="14.617025"><ele>143.0</ele><time>2016-06-18T04:23:28.308Z</time></trkpt><trkpt lat="58.20751167" lon="14.61693"><ele>143.0</ele><time>2016-06-18T04:23:29.308Z</time></trkpt><trkpt lat="58.207445" lon="14.61688"><ele>143.0</ele><time>2016-06-18T04:23:30.320Z</time></trkpt><trkpt lat="58.207445" lon="14.61688"><ele>143.0</ele><time>2016-06-18T04:23:31.307Z</time></trkpt><trkpt lat="58.20731667" lon="14.61678"><ele>144.0</ele><time>2016-06-18T04:23:32.308Z</time></trkpt><trkpt lat="58.20731667" lon="14.61678"><ele>144.0</ele><time>2016-06-18T04:23:33.283Z</time></trkpt><trkpt lat="58.20719" lon="14.616685"><ele>144.0</ele><time>2016-06-18T04:23:34.300Z</time></trkpt><trkpt lat="58.20719" lon="14.616685"><ele>144.0</ele><time>2016-06-18T04:23:35.315Z</time></trkpt><trkpt lat="58.207065" lon="14.61659"><ele>144.0</ele><time>2016-06-18T04:23:36.321Z</time></trkpt><trkpt lat="58.207065" lon="14.61659"><ele>144.0</ele><time>2016-06-18T04:23:37.304Z</time></trkpt><trkpt lat="58.20693833" lon="14.61649833"><ele>144.0</ele><time>2016-06-18T04:23:38.308Z</time></trkpt><trkpt lat="58.20693833" lon="14.61649833"><ele>144.0</ele><time>2016-06-18T04:23:39.306Z</time></trkpt><trkpt lat="58.206815" lon="14.61639667"><ele>144.0</ele><time>2016-06-18T04:23:40.297Z</time></trkpt><trkpt lat="58.206815" lon="14.61639667"><ele>144.0</ele><time>2016-06-18T04:23:41.302Z</time></trkpt><trkpt lat="58.20669167" lon="14.6163"><ele>143.0</ele><time>2016-06-18T04:23:42.308Z</time></trkpt><trkpt lat="58.20669167" lon="14.6163"><ele>143.0</ele><time>2016-06-18T04:23:43.282Z</time></trkpt><trkpt lat="58.20655833" lon="14.61619833"><ele>142.0</ele><time>2016-06-18T04:23:44.288Z</time></trkpt><trkpt lat="58.20655833" lon="14.61619833"><ele>142.0</ele><time>2016-06-18T04:23:45.303Z</time></trkpt><trkpt lat="58.20642167" lon="14.6161"><ele>142.0</ele><time>2016-06-18T04:23:46.311Z</time></trkpt><trkpt lat="58.20642167" lon="14.6161"><ele>142.0</ele><time>2016-06-18T04:23:47.282Z</time></trkpt><trkpt lat="58.206285" lon="14.61599"><ele>142.0</ele><time>2016-06-18T04:23:48.322Z</time></trkpt><trkpt lat="58.206285" lon="14.61599"><ele>142.0</ele><time>2016-06-18T04:23:49.311Z</time></trkpt><trkpt lat="58.20614667" lon="14.61588333"><ele>142.0</ele><time>2016-06-18T04:23:50.282Z</time></trkpt><trkpt lat="58.20614667" lon="14.61588333"><ele>142.0</ele><time>2016-06-18T04:23:51.305Z</time></trkpt><trkpt lat="58.20601" lon="14.61577667"><ele>142.0</ele><time>2016-06-18T04:23:52.324Z</time></trkpt><trkpt lat="58.20601" lon="14.61577667"><ele>142.0</ele><time>2016-06-18T04:23:53.310Z</time></trkpt><trkpt lat="58.20587167" lon="14.61567667"><ele>142.0</ele><time>2016-06-18T04:23:54.285Z</time></trkpt><trkpt lat="58.20587167" lon="14.61567667"><ele>142.0</ele><time>2016-06-18T04:23:55.282Z</time></trkpt><trkpt lat="58.20573833" lon="14.61557167"><ele>142.0</ele><time>2016-06-18T04:23:56.282Z</time></trkpt><trkpt lat="58.20573833" lon="14.61557167"><ele>142.0</ele><time>2016-06-18T04:23:57.318Z</time></trkpt><trkpt lat="58.20560833" lon="14.61547167"><ele>142.0</ele><time>2016-06-18T04:23:58.288Z</time></trkpt><trkpt lat="58.20560833" lon="14.61547167"><ele>142.0</ele><time>2016-06-18T04:23:59.291Z</time></trkpt><trkpt lat="58.20547833" lon="14.61537167"><ele>143.0</ele><time>2016-06-18T04:24:00.303Z</time></trkpt><trkpt lat="58.20547833" lon="14.61537167"><ele>143.0</ele><time>2016-06-18T04:24:01.319Z</time></trkpt><trkpt lat="58.20535333" lon="14.61528"><ele>144.0</ele><time>2016-06-18T04:24:02.296Z</time></trkpt><trkpt lat="58.20535333" lon="14.61528"><ele>144.0</ele><time>2016-06-18T04:24:03.300Z</time></trkpt><trkpt lat="58.205235" lon="14.61519"><ele>145.0</ele><time>2016-06-18T04:24:04.308Z</time></trkpt><trkpt lat="58.20517667" lon="14.61514333"><ele>145.0</ele><time>2016-06-18T04:24:05.293Z</time></trkpt><trkpt lat="58.20517667" lon="14.61514333"><ele>145.0</ele><time>2016-06-18T04:24:06.301Z</time></trkpt><trkpt lat="58.20506333" lon="14.615055"><ele>146.0</ele><time>2016-06-18T04:24:07.284Z</time></trkpt><trkpt lat="58.205005" lon="14.61501333"><ele>146.0</ele><time>2016-06-18T04:24:08.308Z</time></trkpt><trkpt lat="58.205005" lon="14.61501333"><ele>146.0</ele><time>2016-06-18T04:24:09.304Z</time></trkpt><trkpt lat="58.20488833" lon="14.61493"><ele>147.0</ele><time>2016-06-18T04:24:10.298Z</time></trkpt><trkpt lat="58.20488833" lon="14.61493"><ele>147.0</ele><time>2016-06-18T04:24:11.318Z</time></trkpt><trkpt lat="58.20477333" lon="14.61484667"><ele>147.0</ele><time>2016-06-18T04:24:12.302Z</time></trkpt><trkpt lat="58.20471667" lon="14.614805"><ele>148.0</ele><time>2016-06-18T04:24:13.320Z</time></trkpt><trkpt lat="58.20471667" lon="14.614805"><ele>148.0</ele><time>2016-06-18T04:24:14.286Z</time></trkpt><trkpt lat="58.20460167" lon="14.61471833"><ele>148.0</ele><time>2016-06-18T04:24:15.294Z</time></trkpt><trkpt lat="58.204545" lon="14.614675"><ele>149.0</ele><time>2016-06-18T04:24:16.282Z</time></trkpt><trkpt lat="58.204545" lon="14.614675"><ele>149.0</ele><time>2016-06-18T04:24:17.283Z</time></trkpt><trkpt lat="58.20443167" lon="14.614585"><ele>150.0</ele><time>2016-06-18T04:24:18.320Z</time></trkpt><trkpt lat="58.20443167" lon="14.614585"><ele>150.0</ele><time>2016-06-18T04:24:19.305Z</time></trkpt><trkpt lat="58.20432" lon="14.61449333"><ele>150.0</ele><time>2016-06-18T04:24:20.284Z</time></trkpt><trkpt lat="58.20432" lon="14.61449333"><ele>150.0</ele><time>2016-06-18T04:24:21.305Z</time></trkpt><trkpt lat="58.20421167" lon="14.614415"><ele>150.0</ele><time>2016-06-18T04:24:22.288Z</time></trkpt><trkpt lat="58.20421167" lon="14.614415"><ele>150.0</ele><time>2016-06-18T04:24:23.318Z</time></trkpt><trkpt lat="58.20410833" lon="14.614335"><ele>151.0</ele><time>2016-06-18T04:24:24.298Z</time></trkpt><trkpt lat="58.20410833" lon="14.614335"><ele>151.0</ele><time>2016-06-18T04:24:25.316Z</time></trkpt><trkpt lat="58.204" lon="14.61425167"><ele>151.0</ele><time>2016-06-18T04:24:26.283Z</time></trkpt><trkpt lat="58.204" lon="14.61425167"><ele>151.0</ele><time>2016-06-18T04:24:27.312Z</time></trkpt><trkpt lat="58.20388667" lon="14.61417167"><ele>151.0</ele><time>2016-06-18T04:24:28.297Z</time></trkpt><trkpt lat="58.20388667" lon="14.61417167"><ele>151.0</ele><time>2016-06-18T04:24:29.284Z</time></trkpt><trkpt lat="58.20377" lon="14.61408667"><ele>151.0</ele><time>2016-06-18T04:24:30.308Z</time></trkpt><trkpt lat="58.20377" lon="14.61408667"><ele>151.0</ele><time>2016-06-18T04:24:31.312Z</time></trkpt><trkpt lat="58.20365" lon="14.61399667"><ele>150.0</ele><time>2016-06-18T04:24:32.297Z</time></trkpt><trkpt lat="58.20365" lon="14.61399667"><ele>150.0</ele><time>2016-06-18T04:24:33.319Z</time></trkpt><trkpt lat="58.203525" lon="14.61391333"><ele>150.0</ele><time>2016-06-18T04:24:34.297Z</time></trkpt><trkpt lat="58.203525" lon="14.61391333"><ele>150.0</ele><time>2016-06-18T04:24:35.311Z</time></trkpt><trkpt lat="58.20339667" lon="14.61383"><ele>149.0</ele><time>2016-06-18T04:24:36.318Z</time></trkpt><trkpt lat="58.20333167" lon="14.61379167"><ele>149.0</ele><time>2016-06-18T04:24:37.284Z</time></trkpt><trkpt lat="58.203265" lon="14.61375167"><ele>149.0</ele><time>2016-06-18T04:24:38.286Z</time></trkpt><trkpt lat="58.203265" lon="14.61375167"><ele>149.0</ele><time>2016-06-18T04:24:39.303Z</time></trkpt><trkpt lat="58.20313167" lon="14.61367833"><ele>149.0</ele><time>2016-06-18T04:24:40.308Z</time></trkpt><trkpt lat="58.20313167" lon="14.61367833"><ele>149.0</ele><time>2016-06-18T04:24:41.319Z</time></trkpt><trkpt lat="58.202995" lon="14.61361"><ele>149.0</ele><time>2016-06-18T04:24:42.296Z</time></trkpt><trkpt lat="58.202995" lon="14.61361"><ele>149.0</ele><time>2016-06-18T04:24:43.283Z</time></trkpt><trkpt lat="58.20285833" lon="14.61354667"><ele>149.0</ele><time>2016-06-18T04:24:44.298Z</time></trkpt><trkpt lat="58.20285833" lon="14.61354667"><ele>149.0</ele><time>2016-06-18T04:24:45.302Z</time></trkpt><trkpt lat="58.20271667" lon="14.61348667"><ele>150.0</ele><time>2016-06-18T04:24:46.314Z</time></trkpt><trkpt lat="58.20264667" lon="14.61345667"><ele>149.0</ele><time>2016-06-18T04:24:47.318Z</time></trkpt><trkpt lat="58.20264667" lon="14.61345667"><ele>149.0</ele><time>2016-06-18T04:24:48.285Z</time></trkpt><trkpt lat="58.20250333" lon="14.61339333"><ele>149.0</ele><time>2016-06-18T04:24:49.293Z</time></trkpt><trkpt lat="58.20243" lon="14.61336667"><ele>149.0</ele><time>2016-06-18T04:24:50.318Z</time></trkpt><trkpt lat="58.20243" lon="14.61336667"><ele>149.0</ele><time>2016-06-18T04:24:51.310Z</time></trkpt><trkpt lat="58.20228" lon="14.61332"><ele>149.0</ele><time>2016-06-18T04:24:52.296Z</time></trkpt><trkpt lat="58.20228" lon="14.61332"><ele>149.0</ele><time>2016-06-18T04:24:53.309Z</time></trkpt><trkpt lat="58.20212667" lon="14.61327167"><ele>148.0</ele><time>2016-06-18T04:24:54.308Z</time></trkpt><trkpt lat="58.20212667" lon="14.61327167"><ele>148.0</ele><time>2016-06-18T04:24:55.321Z</time></trkpt><trkpt lat="58.20197167" lon="14.61322667"><ele>148.0</ele><time>2016-06-18T04:24:56.304Z</time></trkpt><trkpt lat="58.20197167" lon="14.61322667"><ele>148.0</ele><time>2016-06-18T04:24:57.310Z</time></trkpt><trkpt lat="58.20181333" lon="14.61318833"><ele>148.0</ele><time>2016-06-18T04:24:58.283Z</time></trkpt><trkpt lat="58.20181333" lon="14.61318833"><ele>148.0</ele><time>2016-06-18T04:24:59.319Z</time></trkpt><trkpt lat="58.20165167" lon="14.61316"><ele>147.0</ele><time>2016-06-18T04:25:00.298Z</time></trkpt><trkpt lat="58.20165167" lon="14.61316"><ele>147.0</ele><time>2016-06-18T04:25:01.284Z</time></trkpt><trkpt lat="58.20149" lon="14.61313167"><ele>147.0</ele><time>2016-06-18T04:25:02.297Z</time></trkpt><trkpt lat="58.20149" lon="14.61313167"><ele>147.0</ele><time>2016-06-18T04:25:03.316Z</time></trkpt><trkpt lat="58.20132833" lon="14.61309333"><ele>147.0</ele><time>2016-06-18T04:25:04.298Z</time></trkpt><trkpt lat="58.20132833" lon="14.61309333"><ele>147.0</ele><time>2016-06-18T04:25:05.310Z</time></trkpt><trkpt lat="58.20116833" lon="14.61305667"><ele>146.0</ele><time>2016-06-18T04:25:06.317Z</time></trkpt><trkpt lat="58.20116833" lon="14.61305667"><ele>146.0</ele><time>2016-06-18T04:25:07.299Z</time></trkpt><trkpt lat="58.20100667" lon="14.613035"><ele>145.0</ele><time>2016-06-18T04:25:08.296Z</time></trkpt><trkpt lat="58.20100667" lon="14.613035"><ele>145.0</ele><time>2016-06-18T04:25:09.305Z</time></trkpt><trkpt lat="58.20085167" lon="14.613015"><ele>145.0</ele><time>2016-06-18T04:25:10.296Z</time></trkpt><trkpt lat="58.20085167" lon="14.613015"><ele>145.0</ele><time>2016-06-18T04:25:11.306Z</time></trkpt><trkpt lat="58.2007" lon="14.612995"><ele>145.0</ele><time>2016-06-18T04:25:12.318Z</time></trkpt><trkpt lat="58.200625" lon="14.61298333"><ele>145.0</ele><time>2016-06-18T04:25:13.317Z</time></trkpt><trkpt lat="58.20055167" lon="14.61297167"><ele>145.0</ele><time>2016-06-18T04:25:14.300Z</time></trkpt><trkpt lat="58.20055167" lon="14.61297167"><ele>145.0</ele><time>2016-06-18T04:25:15.320Z</time></trkpt><trkpt lat="58.20040167" lon="14.61295"><ele>144.0</ele><time>2016-06-18T04:25:16.294Z</time></trkpt><trkpt lat="58.20040167" lon="14.61295"><ele>144.0</ele><time>2016-06-18T04:25:17.320Z</time></trkpt><trkpt lat="58.20024667" lon="14.612925"><ele>144.0</ele><time>2016-06-18T04:25:18.297Z</time></trkpt><trkpt lat="58.20024667" lon="14.612925"><ele>144.0</ele><time>2016-06-18T04:25:19.305Z</time></trkpt><trkpt lat="58.20008833" lon="14.61289333"><ele>143.0</ele><time>2016-06-18T04:25:20.284Z</time></trkpt><trkpt lat="58.20008833" lon="14.61289333"><ele>143.0</ele><time>2016-06-18T04:25:21.305Z</time></trkpt><trkpt lat="58.19992833" lon="14.612855"><ele>143.0</ele><time>2016-06-18T04:25:22.324Z</time></trkpt><trkpt lat="58.19992833" lon="14.612855"><ele>143.0</ele><time>2016-06-18T04:25:23.309Z</time></trkpt><trkpt lat="58.19976667" lon="14.61280833"><ele>143.0</ele><time>2016-06-18T04:25:24.286Z</time></trkpt><trkpt lat="58.19976667" lon="14.61280833"><ele>143.0</ele><time>2016-06-18T04:25:25.315Z</time></trkpt><trkpt lat="58.19961167" lon="14.612745"><ele>143.0</ele><time>2016-06-18T04:25:26.308Z</time></trkpt><trkpt lat="58.19961167" lon="14.612745"><ele>143.0</ele><time>2016-06-18T04:25:27.306Z</time></trkpt><trkpt lat="58.199445" lon="14.61267667"><ele>143.0</ele><time>2016-06-18T04:25:28.299Z</time></trkpt><trkpt lat="58.199445" lon="14.61267667"><ele>143.0</ele><time>2016-06-18T04:25:29.307Z</time></trkpt><trkpt lat="58.19927667" lon="14.61259333"><ele>143.0</ele><time>2016-06-18T04:25:30.318Z</time></trkpt><trkpt lat="58.19927667" lon="14.61259333"><ele>143.0</ele><time>2016-06-18T04:25:31.292Z</time></trkpt><trkpt lat="58.19910833" lon="14.61248667"><ele>143.0</ele><time>2016-06-18T04:25:32.303Z</time></trkpt><trkpt lat="58.19910833" lon="14.61248667"><ele>143.0</ele><time>2016-06-18T04:25:33.282Z</time></trkpt><trkpt lat="58.19894" lon="14.61236167"><ele>143.0</ele><time>2016-06-18T04:25:34.318Z</time></trkpt><trkpt lat="58.19894" lon="14.61236167"><ele>143.0</ele><time>2016-06-18T04:25:35.295Z</time></trkpt><trkpt lat="58.19877667" lon="14.612225"><ele>142.0</ele><time>2016-06-18T04:25:36.303Z</time></trkpt><trkpt lat="58.19869333" lon="14.612155"><ele>142.0</ele><time>2016-06-18T04:25:37.298Z</time></trkpt><trkpt lat="58.19861333" lon="14.61208833"><ele>142.0</ele><time>2016-06-18T04:25:38.286Z</time></trkpt><trkpt lat="58.19861333" lon="14.61208833"><ele>142.0</ele><time>2016-06-18T04:25:39.320Z</time></trkpt><trkpt lat="58.19845333" lon="14.611945"><ele>142.0</ele><time>2016-06-18T04:25:40.288Z</time></trkpt><trkpt lat="58.19845333" lon="14.611945"><ele>142.0</ele><time>2016-06-18T04:25:41.303Z</time></trkpt><trkpt lat="58.198305" lon="14.61177667"><ele>143.0</ele><time>2016-06-18T04:25:42.310Z</time></trkpt><trkpt lat="58.198305" lon="14.61177667"><ele>143.0</ele><time>2016-06-18T04:25:43.283Z</time></trkpt><trkpt lat="58.19815333" lon="14.61159167"><ele>144.0</ele><time>2016-06-18T04:25:44.327Z</time></trkpt><trkpt lat="58.19815333" lon="14.61159167"><ele>144.0</ele><time>2016-06-18T04:25:45.306Z</time></trkpt><trkpt lat="58.198005" lon="14.61138667"><ele>144.0</ele><time>2016-06-18T04:25:46.288Z</time></trkpt><trkpt lat="58.198005" lon="14.61138667"><ele>144.0</ele><time>2016-06-18T04:25:47.302Z</time></trkpt><trkpt lat="58.197865" lon="14.61116333"><ele>145.0</ele><time>2016-06-18T04:25:48.309Z</time></trkpt><trkpt lat="58.19780167" lon="14.61105"><ele>145.0</ele><time>2016-06-18T04:25:49.295Z</time></trkpt><trkpt lat="58.19780167" lon="14.61105"><ele>145.0</ele><time>2016-06-18T04:25:50.307Z</time></trkpt><trkpt lat="58.19767667" lon="14.61081667"><ele>146.0</ele><time>2016-06-18T04:25:51.287Z</time></trkpt><trkpt lat="58.19767667" lon="14.61081667"><ele>146.0</ele><time>2016-06-18T04:25:52.306Z</time></trkpt><trkpt lat="58.19755833" lon="14.61058167"><ele>147.0</ele><time>2016-06-18T04:25:53.293Z</time></trkpt><trkpt lat="58.19755833" lon="14.61058167"><ele>147.0</ele><time>2016-06-18T04:25:54.322Z</time></trkpt><trkpt lat="58.197445" lon="14.61035333"><ele>147.0</ele><time>2016-06-18T04:25:55.289Z</time></trkpt><trkpt lat="58.19739167" lon="14.61024333"><ele>147.0</ele><time>2016-06-18T04:25:56.287Z</time></trkpt><trkpt lat="58.19739167" lon="14.61024333"><ele>147.0</ele><time>2016-06-18T04:25:57.306Z</time></trkpt><trkpt lat="58.19728167" lon="14.61002667"><ele>148.0</ele><time>2016-06-18T04:25:58.308Z</time></trkpt><trkpt lat="58.19722833" lon="14.60991667"><ele>147.0</ele><time>2016-06-18T04:25:59.295Z</time></trkpt><trkpt lat="58.19722833" lon="14.60991667"><ele>147.0</ele><time>2016-06-18T04:26:00.292Z</time></trkpt><trkpt lat="58.19713167" lon="14.60968833"><ele>148.0</ele><time>2016-06-18T04:26:01.294Z</time></trkpt><trkpt lat="58.19713167" lon="14.60968833"><ele>148.0</ele><time>2016-06-18T04:26:02.301Z</time></trkpt><trkpt lat="58.19703167" lon="14.60945333"><ele>148.0</ele><time>2016-06-18T04:26:03.309Z</time></trkpt><trkpt lat="58.19703167" lon="14.60945333"><ele>148.0</ele><time>2016-06-18T04:26:04.315Z</time></trkpt><trkpt lat="58.19692667" lon="14.60921833"><ele>147.0</ele><time>2016-06-18T04:26:05.308Z</time></trkpt><trkpt lat="58.19692667" lon="14.60921833"><ele>147.0</ele><time>2016-06-18T04:26:06.306Z</time></trkpt><trkpt lat="58.196825" lon="14.60899"><ele>147.0</ele><time>2016-06-18T04:26:07.308Z</time></trkpt><trkpt lat="58.196825" lon="14.60899"><ele>147.0</ele><time>2016-06-18T04:26:08.303Z</time></trkpt><trkpt lat="58.19673" lon="14.60876833"><ele>147.0</ele><time>2016-06-18T04:26:09.298Z</time></trkpt><trkpt lat="58.19673" lon="14.60876833"><ele>147.0</ele><time>2016-06-18T04:26:10.303Z</time></trkpt><trkpt lat="58.19663333" lon="14.60854667"><ele>147.0</ele><time>2016-06-18T04:26:11.306Z</time></trkpt><trkpt lat="58.19663333" lon="14.60854667"><ele>147.0</ele><time>2016-06-18T04:26:12.316Z</time></trkpt><trkpt lat="58.19653167" lon="14.60832"><ele>146.0</ele><time>2016-06-18T04:26:13.286Z</time></trkpt><trkpt lat="58.19648167" lon="14.60820833"><ele>147.0</ele><time>2016-06-18T04:26:14.308Z</time></trkpt><trkpt lat="58.19648167" lon="14.60820833"><ele>147.0</ele><time>2016-06-18T04:26:15.309Z</time></trkpt><trkpt lat="58.196385" lon="14.60798667"><ele>146.0</ele><time>2016-06-18T04:26:16.320Z</time></trkpt><trkpt lat="58.196385" lon="14.60798667"><ele>146.0</ele><time>2016-06-18T04:26:17.287Z</time></trkpt><trkpt lat="58.19628333" lon="14.607765"><ele>146.0</ele><time>2016-06-18T04:26:18.300Z</time></trkpt><trkpt lat="58.19623333" lon="14.60765333"><ele>147.0</ele><time>2016-06-18T04:26:19.306Z</time></trkpt><trkpt lat="58.19618" lon="14.60754167"><ele>147.0</ele><time>2016-06-18T04:26:20.308Z</time></trkpt><trkpt lat="58.19618" lon="14.60754167"><ele>147.0</ele><time>2016-06-18T04:26:21.306Z</time></trkpt><trkpt lat="58.19607333" lon="14.60731833"><ele>147.0</ele><time>2016-06-18T04:26:22.298Z</time></trkpt><trkpt lat="58.19607333" lon="14.60731833"><ele>147.0</ele><time>2016-06-18T04:26:23.287Z</time></trkpt><trkpt lat="58.19596" lon="14.60710333"><ele>146.0</ele><time>2016-06-18T04:26:24.324Z</time></trkpt><trkpt lat="58.19596" lon="14.60710333"><ele>146.0</ele><time>2016-06-18T04:26:25.309Z</time></trkpt><trkpt lat="58.19584667" lon="14.606895"><ele>146.0</ele><time>2016-06-18T04:26:26.287Z</time></trkpt><trkpt lat="58.19584667" lon="14.606895"><ele>146.0</ele><time>2016-06-18T04:26:27.303Z</time></trkpt><trkpt lat="58.195725" lon="14.6067"><ele>146.0</ele><time>2016-06-18T04:26:28.308Z</time></trkpt><trkpt lat="58.195725" lon="14.6067"><ele>146.0</ele><time>2016-06-18T04:26:29.317Z</time></trkpt><trkpt lat="58.19560167" lon="14.60651"><ele>146.0</ele><time>2016-06-18T04:26:30.284Z</time></trkpt><trkpt lat="58.19560167" lon="14.60651"><ele>146.0</ele><time>2016-06-18T04:26:31.298Z</time></trkpt><trkpt lat="58.19547167" lon="14.60633667"><ele>146.0</ele><time>2016-06-18T04:26:32.308Z</time></trkpt><trkpt lat="58.19547167" lon="14.60633667"><ele>146.0</ele><time>2016-06-18T04:26:33.310Z</time></trkpt><trkpt lat="58.19534" lon="14.60616167"><ele>146.0</ele><time>2016-06-18T04:26:34.308Z</time></trkpt><trkpt lat="58.195275" lon="14.60607833"><ele>146.0</ele><time>2016-06-18T04:26:35.300Z</time></trkpt><trkpt lat="58.195275" lon="14.60607833"><ele>146.0</ele><time>2016-06-18T04:26:36.284Z</time></trkpt><trkpt lat="58.19514333" lon="14.605925"><ele>146.0</ele><time>2016-06-18T04:26:37.308Z</time></trkpt><trkpt lat="58.19507833" lon="14.60585167"><ele>146.0</ele><time>2016-06-18T04:26:38.308Z</time></trkpt><trkpt lat="58.19507833" lon="14.60585167"><ele>146.0</ele><time>2016-06-18T04:26:39.289Z</time></trkpt><trkpt lat="58.19494167" lon="14.605715"><ele>146.0</ele><time>2016-06-18T04:26:40.296Z</time></trkpt><trkpt lat="58.19494167" lon="14.605715"><ele>146.0</ele><time>2016-06-18T04:26:41.306Z</time></trkpt><trkpt lat="58.19479833" lon="14.60558167"><ele>146.0</ele><time>2016-06-18T04:26:42.308Z</time></trkpt><trkpt lat="58.19479833" lon="14.60558167"><ele>146.0</ele><time>2016-06-18T04:26:43.320Z</time></trkpt><trkpt lat="58.194655" lon="14.60545"><ele>146.0</ele><time>2016-06-18T04:26:44.308Z</time></trkpt><trkpt lat="58.194655" lon="14.60545"><ele>146.0</ele><time>2016-06-18T04:26:45.316Z</time></trkpt><trkpt lat="58.194515" lon="14.60532667"><ele>146.0</ele><time>2016-06-18T04:26:46.308Z</time></trkpt><trkpt lat="58.19444667" lon="14.605265"><ele>146.0</ele><time>2016-06-18T04:26:47.295Z</time></trkpt><trkpt lat="58.19444667" lon="14.605265"><ele>146.0</ele><time>2016-06-18T04:26:48.321Z</time></trkpt><trkpt lat="58.194315" lon="14.60514333"><ele>146.0</ele><time>2016-06-18T04:26:49.288Z</time></trkpt><trkpt lat="58.19424833" lon="14.60508333"><ele>146.0</ele><time>2016-06-18T04:26:50.287Z</time></trkpt><trkpt lat="58.19424833" lon="14.60508333"><ele>146.0</ele><time>2016-06-18T04:26:51.304Z</time></trkpt><trkpt lat="58.194115" lon="14.60495667"><ele>146.0</ele><time>2016-06-18T04:26:52.312Z</time></trkpt><trkpt lat="58.194115" lon="14.60495667"><ele>146.0</ele><time>2016-06-18T04:26:53.283Z</time></trkpt><trkpt lat="58.19397667" lon="14.604825"><ele>146.0</ele><time>2016-06-18T04:26:54.298Z</time></trkpt><trkpt lat="58.19391" lon="14.604755"><ele>146.0</ele><time>2016-06-18T04:26:55.297Z</time></trkpt><trkpt lat="58.19391" lon="14.604755"><ele>146.0</ele><time>2016-06-18T04:26:56.301Z</time></trkpt><trkpt lat="58.193775" lon="14.60461"><ele>146.0</ele><time>2016-06-18T04:26:57.308Z</time></trkpt><trkpt lat="58.193775" lon="14.60461"><ele>146.0</ele><time>2016-06-18T04:26:58.282Z</time></trkpt><trkpt lat="58.19364333" lon="14.60446"><ele>147.0</ele><time>2016-06-18T04:26:59.317Z</time></trkpt><trkpt lat="58.19357833" lon="14.60438667"><ele>147.0</ele><time>2016-06-18T04:27:00.288Z</time></trkpt><trkpt lat="58.19357833" lon="14.60438667"><ele>147.0</ele><time>2016-06-18T04:27:01.298Z</time></trkpt><trkpt lat="58.193455" lon="14.60423333"><ele>147.0</ele><time>2016-06-18T04:27:02.285Z</time></trkpt><trkpt lat="58.193455" lon="14.60423333"><ele>147.0</ele><time>2016-06-18T04:27:03.309Z</time></trkpt><trkpt lat="58.19334167" lon="14.604075"><ele>147.0</ele><time>2016-06-18T04:27:04.298Z</time></trkpt><trkpt lat="58.19334167" lon="14.604075"><ele>147.0</ele><time>2016-06-18T04:27:05.298Z</time></trkpt><trkpt lat="58.19323" lon="14.60390833"><ele>147.0</ele><time>2016-06-18T04:27:06.306Z</time></trkpt><trkpt lat="58.19317167" lon="14.60382"><ele>147.0</ele><time>2016-06-18T04:27:07.320Z</time></trkpt><trkpt lat="58.19311333" lon="14.60372667"><ele>147.0</ele><time>2016-06-18T04:27:08.299Z</time></trkpt><trkpt lat="58.19311333" lon="14.60372667"><ele>147.0</ele><time>2016-06-18T04:27:09.317Z</time></trkpt><trkpt lat="58.19299833" lon="14.60353333"><ele>146.0</ele><time>2016-06-18T04:27:10.283Z</time></trkpt><trkpt lat="58.19294" lon="14.60343167"><ele>146.0</ele><time>2016-06-18T04:27:11.308Z</time></trkpt><trkpt lat="58.19294" lon="14.60343167"><ele>146.0</ele><time>2016-06-18T04:27:12.307Z</time></trkpt><trkpt lat="58.192825" lon="14.60321833"><ele>146.0</ele><time>2016-06-18T04:27:13.299Z</time></trkpt><trkpt lat="58.192825" lon="14.60321833"><ele>146.0</ele><time>2016-06-18T04:27:14.314Z</time></trkpt><trkpt lat="58.19270833" lon="14.602995"><ele>146.0</ele><time>2016-06-18T04:27:15.321Z</time></trkpt><trkpt lat="58.19270833" lon="14.602995"><ele>146.0</ele><time>2016-06-18T04:27:16.309Z</time></trkpt><trkpt lat="58.19259333" lon="14.60276833"><ele>145.0</ele><time>2016-06-18T04:27:17.282Z</time></trkpt><trkpt lat="58.19259333" lon="14.60276833"><ele>145.0</ele><time>2016-06-18T04:27:18.303Z</time></trkpt><trkpt lat="58.19248167" lon="14.60253333"><ele>146.0</ele><time>2016-06-18T04:27:19.309Z</time></trkpt><trkpt lat="58.19242667" lon="14.602415"><ele>146.0</ele><time>2016-06-18T04:27:20.302Z</time></trkpt><trkpt lat="58.19237" lon="14.602295"><ele>146.0</ele><time>2016-06-18T04:27:21.308Z</time></trkpt><trkpt lat="58.19237" lon="14.602295"><ele>146.0</ele><time>2016-06-18T04:27:22.304Z</time></trkpt><trkpt lat="58.19225667" lon="14.60206"><ele>145.0</ele><time>2016-06-18T04:27:23.318Z</time></trkpt><trkpt lat="58.19225667" lon="14.60206"><ele>145.0</ele><time>2016-06-18T04:27:24.288Z</time></trkpt><trkpt lat="58.19215" lon="14.60183167"><ele>145.0</ele><time>2016-06-18T04:27:25.300Z</time></trkpt><trkpt lat="58.192095" lon="14.60172"><ele>145.0</ele><time>2016-06-18T04:27:26.299Z</time></trkpt><trkpt lat="58.192095" lon="14.60172"><ele>145.0</ele><time>2016-06-18T04:27:27.311Z</time></trkpt><trkpt lat="58.19198833" lon="14.601495"><ele>145.0</ele><time>2016-06-18T04:27:28.290Z</time></trkpt><trkpt lat="58.19198833" lon="14.601495"><ele>145.0</ele><time>2016-06-18T04:27:29.298Z</time></trkpt><trkpt lat="58.19187667" lon="14.60126167"><ele>145.0</ele><time>2016-06-18T04:27:30.308Z</time></trkpt><trkpt lat="58.19187667" lon="14.60126167"><ele>145.0</ele><time>2016-06-18T04:27:31.307Z</time></trkpt><trkpt lat="58.19176333" lon="14.60102167"><ele>145.0</ele><time>2016-06-18T04:27:32.288Z</time></trkpt><trkpt lat="58.19176333" lon="14.60102167"><ele>145.0</ele><time>2016-06-18T04:27:33.304Z</time></trkpt><trkpt lat="58.19164667" lon="14.60078167"><ele>145.0</ele><time>2016-06-18T04:27:34.312Z</time></trkpt><trkpt lat="58.19158667" lon="14.60065833"><ele>145.0</ele><time>2016-06-18T04:27:35.308Z</time></trkpt><trkpt lat="58.19158667" lon="14.60065833"><ele>145.0</ele><time>2016-06-18T04:27:36.283Z</time></trkpt><trkpt lat="58.19147167" lon="14.60041167"><ele>145.0</ele><time>2016-06-18T04:27:37.308Z</time></trkpt><trkpt lat="58.19141667" lon="14.60028833"><ele>145.0</ele><time>2016-06-18T04:27:38.302Z</time></trkpt><trkpt lat="58.19141667" lon="14.60028833"><ele>145.0</ele><time>2016-06-18T04:27:39.315Z</time></trkpt><trkpt lat="58.19130333" lon="14.60005333"><ele>145.0</ele><time>2016-06-18T04:27:40.299Z</time></trkpt><trkpt lat="58.19130333" lon="14.60005333"><ele>145.0</ele><time>2016-06-18T04:27:41.305Z</time></trkpt><trkpt lat="58.19119167" lon="14.59982667"><ele>145.0</ele><time>2016-06-18T04:27:42.284Z</time></trkpt><trkpt lat="58.19119167" lon="14.59982667"><ele>145.0</ele><time>2016-06-18T04:27:43.307Z</time></trkpt><trkpt lat="58.19108333" lon="14.59959667"><ele>145.0</ele><time>2016-06-18T04:27:44.282Z</time></trkpt><trkpt lat="58.19108333" lon="14.59959667"><ele>145.0</ele><time>2016-06-18T04:27:45.307Z</time></trkpt><trkpt lat="58.19098" lon="14.59937333"><ele>145.0</ele><time>2016-06-18T04:27:46.308Z</time></trkpt><trkpt lat="58.19098" lon="14.59937333"><ele>145.0</ele><time>2016-06-18T04:27:47.283Z</time></trkpt><trkpt lat="58.190875" lon="14.59914667"><ele>145.0</ele><time>2016-06-18T04:27:48.300Z</time></trkpt><trkpt lat="58.190875" lon="14.59914667"><ele>145.0</ele><time>2016-06-18T04:27:49.300Z</time></trkpt><trkpt lat="58.19076833" lon="14.59893667"><ele>144.0</ele><time>2016-06-18T04:27:50.304Z</time></trkpt><trkpt lat="58.19076833" lon="14.59893667"><ele>144.0</ele><time>2016-06-18T04:27:51.310Z</time></trkpt><trkpt lat="58.190665" lon="14.598715"><ele>145.0</ele><time>2016-06-18T04:27:52.317Z</time></trkpt><trkpt lat="58.190665" lon="14.598715"><ele>145.0</ele><time>2016-06-18T04:27:53.286Z</time></trkpt><trkpt lat="58.19056167" lon="14.59849333"><ele>145.0</ele><time>2016-06-18T04:27:54.308Z</time></trkpt><trkpt lat="58.19056167" lon="14.59849333"><ele>145.0</ele><time>2016-06-18T04:27:55.289Z</time></trkpt><trkpt lat="58.19045333" lon="14.59827"><ele>145.0</ele><time>2016-06-18T04:27:56.288Z</time></trkpt><trkpt lat="58.19045333" lon="14.59827"><ele>145.0</ele><time>2016-06-18T04:27:57.308Z</time></trkpt><trkpt lat="58.19034833" lon="14.59805333"><ele>145.0</ele><time>2016-06-18T04:27:58.318Z</time></trkpt><trkpt lat="58.19034833" lon="14.59805333"><ele>145.0</ele><time>2016-06-18T04:27:59.315Z</time></trkpt><trkpt lat="58.19023833" lon="14.59783333"><ele>145.0</ele><time>2016-06-18T04:28:00.318Z</time></trkpt><trkpt lat="58.19023833" lon="14.59783333"><ele>145.0</ele><time>2016-06-18T04:28:01.309Z</time></trkpt><trkpt lat="58.19014333" lon="14.59760833"><ele>145.0</ele><time>2016-06-18T04:28:02.316Z</time></trkpt><trkpt lat="58.19014333" lon="14.59760833"><ele>145.0</ele><time>2016-06-18T04:28:03.286Z</time></trkpt><trkpt lat="58.19004" lon="14.59738333"><ele>145.0</ele><time>2016-06-18T04:28:04.304Z</time></trkpt><trkpt lat="58.19004" lon="14.59738333"><ele>145.0</ele><time>2016-06-18T04:28:05.283Z</time></trkpt><trkpt lat="58.18992333" lon="14.59715667"><ele>145.0</ele><time>2016-06-18T04:28:06.298Z</time></trkpt><trkpt lat="58.18992333" lon="14.59715667"><ele>145.0</ele><time>2016-06-18T04:28:07.321Z</time></trkpt><trkpt lat="58.18981" lon="14.59692333"><ele>145.0</ele><time>2016-06-18T04:28:08.302Z</time></trkpt><trkpt lat="58.18981" lon="14.59692333"><ele>145.0</ele><time>2016-06-18T04:28:09.302Z</time></trkpt><trkpt lat="58.18969833" lon="14.59669"><ele>145.0</ele><time>2016-06-18T04:28:10.308Z</time></trkpt><trkpt lat="58.18964333" lon="14.59657"><ele>145.0</ele><time>2016-06-18T04:28:11.283Z</time></trkpt><trkpt lat="58.18964333" lon="14.59657"><ele>145.0</ele><time>2016-06-18T04:28:12.291Z</time></trkpt><trkpt lat="58.189535" lon="14.59633833"><ele>144.0</ele><time>2016-06-18T04:28:13.309Z</time></trkpt><trkpt lat="58.18948" lon="14.59622167"><ele>144.0</ele><time>2016-06-18T04:28:14.287Z</time></trkpt><trkpt lat="58.18948" lon="14.59622167"><ele>144.0</ele><time>2016-06-18T04:28:15.321Z</time></trkpt><trkpt lat="58.18937667" lon="14.59598167"><ele>144.0</ele><time>2016-06-18T04:28:16.288Z</time></trkpt><trkpt lat="58.18932667" lon="14.59587"><ele>144.0</ele><time>2016-06-18T04:28:17.319Z</time></trkpt><trkpt lat="58.18928" lon="14.59574833"><ele>144.0</ele><time>2016-06-18T04:28:18.286Z</time></trkpt><trkpt lat="58.18923167" lon="14.59563333"><ele>144.0</ele><time>2016-06-18T04:28:19.313Z</time></trkpt><trkpt lat="58.18923167" lon="14.59563333"><ele>144.0</ele><time>2016-06-18T04:28:20.289Z</time></trkpt><trkpt lat="58.18912833" lon="14.59540333"><ele>144.0</ele><time>2016-06-18T04:28:21.301Z</time></trkpt><trkpt lat="58.18912833" lon="14.59540333"><ele>144.0</ele><time>2016-06-18T04:28:22.312Z</time></trkpt><trkpt lat="58.18902833" lon="14.595175"><ele>144.0</ele><time>2016-06-18T04:28:23.300Z</time></trkpt><trkpt lat="58.18902833" lon="14.595175"><ele>144.0</ele><time>2016-06-18T04:28:24.302Z</time></trkpt><trkpt lat="58.18892167" lon="14.594965"><ele>144.0</ele><time>2016-06-18T04:28:25.283Z</time></trkpt><trkpt lat="58.18887" lon="14.59485167"><ele>143.0</ele><time>2016-06-18T04:28:26.288Z</time></trkpt><trkpt lat="58.18887" lon="14.59485167"><ele>143.0</ele><time>2016-06-18T04:28:27.321Z</time></trkpt><trkpt lat="58.18876333" lon="14.59465333"><ele>143.0</ele><time>2016-06-18T04:28:28.316Z</time></trkpt><trkpt lat="58.18876333" lon="14.59465333"><ele>143.0</ele><time>2016-06-18T04:28:29.308Z</time></trkpt><trkpt lat="58.18866833" lon="14.59444167"><ele>143.0</ele><time>2016-06-18T04:28:30.308Z</time></trkpt><trkpt lat="58.18866833" lon="14.59444167"><ele>143.0</ele><time>2016-06-18T04:28:31.307Z</time></trkpt><trkpt lat="58.18856667" lon="14.59423"><ele>143.0</ele><time>2016-06-18T04:28:32.308Z</time></trkpt><trkpt lat="58.18856667" lon="14.59423"><ele>143.0</ele><time>2016-06-18T04:28:33.322Z</time></trkpt><trkpt lat="58.18844167" lon="14.59404"><ele>143.0</ele><time>2016-06-18T04:28:34.307Z</time></trkpt><trkpt lat="58.18844167" lon="14.59404"><ele>143.0</ele><time>2016-06-18T04:28:35.314Z</time></trkpt><trkpt lat="58.18832167" lon="14.59384"><ele>143.0</ele><time>2016-06-18T04:28:36.321Z</time></trkpt><trkpt lat="58.18824833" lon="14.59374"><ele>143.0</ele><time>2016-06-18T04:28:37.308Z</time></trkpt><trkpt lat="58.18816667" lon="14.59365667"><ele>143.0</ele><time>2016-06-18T04:28:38.317Z</time></trkpt><trkpt lat="58.18816667" lon="14.59365667"><ele>143.0</ele><time>2016-06-18T04:28:39.294Z</time></trkpt><trkpt lat="58.18802" lon="14.59347333"><ele>143.0</ele><time>2016-06-18T04:28:40.302Z</time></trkpt><trkpt lat="58.187945" lon="14.59338667"><ele>143.0</ele><time>2016-06-18T04:28:41.319Z</time></trkpt><trkpt lat="58.18787333" lon="14.59330333"><ele>143.0</ele><time>2016-06-18T04:28:42.298Z</time></trkpt><trkpt lat="58.18787333" lon="14.59330333"><ele>143.0</ele><time>2016-06-18T04:28:43.303Z</time></trkpt><trkpt lat="58.18772833" lon="14.59314833"><ele>143.0</ele><time>2016-06-18T04:28:44.309Z</time></trkpt><trkpt lat="58.18772833" lon="14.59314833"><ele>143.0</ele><time>2016-06-18T04:28:45.315Z</time></trkpt><trkpt lat="58.18758667" lon="14.592995"><ele>143.0</ele><time>2016-06-18T04:28:46.318Z</time></trkpt><trkpt lat="58.18751667" lon="14.59291833"><ele>143.0</ele><time>2016-06-18T04:28:47.299Z</time></trkpt><trkpt lat="58.18751667" lon="14.59291833"><ele>143.0</ele><time>2016-06-18T04:28:48.308Z</time></trkpt><trkpt lat="58.18737667" lon="14.592775"><ele>143.0</ele><time>2016-06-18T04:28:49.318Z</time></trkpt><trkpt lat="58.18730333" lon="14.59271333"><ele>144.0</ele><time>2016-06-18T04:28:50.318Z</time></trkpt><trkpt lat="58.18730333" lon="14.59271333"><ele>144.0</ele><time>2016-06-18T04:28:51.304Z</time></trkpt><trkpt lat="58.18716167" lon="14.59258"><ele>144.0</ele><time>2016-06-18T04:28:52.282Z</time></trkpt><trkpt lat="58.18708667" lon="14.592515"><ele>143.0</ele><time>2016-06-18T04:28:53.308Z</time></trkpt><trkpt lat="58.18708667" lon="14.592515"><ele>143.0</ele><time>2016-06-18T04:28:54.283Z</time></trkpt><trkpt lat="58.186925" lon="14.59239333"><ele>143.0</ele><time>2016-06-18T04:28:55.298Z</time></trkpt><trkpt lat="58.18684" lon="14.59234167"><ele>143.0</ele><time>2016-06-18T04:28:56.298Z</time></trkpt><trkpt lat="58.18684" lon="14.59234167"><ele>143.0</ele><time>2016-06-18T04:28:57.307Z</time></trkpt><trkpt lat="58.18666667" lon="14.59224"><ele>142.0</ele><time>2016-06-18T04:28:58.308Z</time></trkpt><trkpt lat="58.18666667" lon="14.59224"><ele>142.0</ele><time>2016-06-18T04:28:59.308Z</time></trkpt><trkpt lat="58.18648667" lon="14.59215333"><ele>142.0</ele><time>2016-06-18T04:29:00.288Z</time></trkpt><trkpt lat="58.18648667" lon="14.59215333"><ele>142.0</ele><time>2016-06-18T04:29:01.302Z</time></trkpt><trkpt lat="58.186305" lon="14.59208333"><ele>142.0</ele><time>2016-06-18T04:29:02.309Z</time></trkpt><trkpt lat="58.186215" lon="14.59204833"><ele>142.0</ele><time>2016-06-18T04:29:03.308Z</time></trkpt><trkpt lat="58.186215" lon="14.59204833"><ele>142.0</ele><time>2016-06-18T04:29:04.316Z</time></trkpt><trkpt lat="58.18603833" lon="14.59197167"><ele>141.0</ele><time>2016-06-18T04:29:05.308Z</time></trkpt><trkpt lat="58.185955" lon="14.591935"><ele>141.0</ele><time>2016-06-18T04:29:06.299Z</time></trkpt><trkpt lat="58.185955" lon="14.591935"><ele>141.0</ele><time>2016-06-18T04:29:07.308Z</time></trkpt><trkpt lat="58.18579667" lon="14.59186167"><ele>142.0</ele><time>2016-06-18T04:29:08.302Z</time></trkpt><trkpt lat="58.18571833" lon="14.591825"><ele>142.0</ele><time>2016-06-18T04:29:09.298Z</time></trkpt><trkpt lat="58.18571833" lon="14.591825"><ele>142.0</ele><time>2016-06-18T04:29:10.311Z</time></trkpt><trkpt lat="58.18556333" lon="14.59176"><ele>142.0</ele><time>2016-06-18T04:29:11.321Z</time></trkpt><trkpt lat="58.18548667" lon="14.59173167"><ele>142.0</ele><time>2016-06-18T04:29:12.288Z</time></trkpt><trkpt lat="58.18541333" lon="14.5917"><ele>142.0</ele><time>2016-06-18T04:29:13.282Z</time></trkpt><trkpt lat="58.18534" lon="14.59166667"><ele>142.0</ele><time>2016-06-18T04:29:14.298Z</time></trkpt><trkpt lat="58.18534" lon="14.59166667"><ele>142.0</ele><time>2016-06-18T04:29:15.282Z</time></trkpt><trkpt lat="58.18519167" lon="14.59160333"><ele>142.0</ele><time>2016-06-18T04:29:16.325Z</time></trkpt><trkpt lat="58.18512" lon="14.59157333"><ele>143.0</ele><time>2016-06-18T04:29:17.304Z</time></trkpt><trkpt lat="58.18512" lon="14.59157333"><ele>143.0</ele><time>2016-06-18T04:29:18.305Z</time></trkpt><trkpt lat="58.18498333" lon="14.591515"><ele>143.0</ele><time>2016-06-18T04:29:19.298Z</time></trkpt><trkpt lat="58.18498333" lon="14.591515"><ele>143.0</ele><time>2016-06-18T04:29:20.306Z</time></trkpt><trkpt lat="58.18484833" lon="14.591455"><ele>143.0</ele><time>2016-06-18T04:29:21.313Z</time></trkpt><trkpt lat="58.18478167" lon="14.59142833"><ele>143.0</ele><time>2016-06-18T04:29:22.318Z</time></trkpt><trkpt lat="58.18471333" lon="14.5914"><ele>143.0</ele><time>2016-06-18T04:29:23.282Z</time></trkpt><trkpt lat="58.18471333" lon="14.5914"><ele>143.0</ele><time>2016-06-18T04:29:24.285Z</time></trkpt><trkpt lat="58.18457833" lon="14.59134"><ele>143.0</ele><time>2016-06-18T04:29:25.308Z</time></trkpt><trkpt lat="58.18451" lon="14.59131"><ele>144.0</ele><time>2016-06-18T04:29:26.306Z</time></trkpt><trkpt lat="58.18451" lon="14.59131"><ele>144.0</ele><time>2016-06-18T04:29:27.306Z</time></trkpt><trkpt lat="58.18437" lon="14.59125"><ele>144.0</ele><time>2016-06-18T04:29:28.300Z</time></trkpt><trkpt lat="58.18429833" lon="14.59122"><ele>144.0</ele><time>2016-06-18T04:29:29.328Z</time></trkpt><trkpt lat="58.18429833" lon="14.59122"><ele>144.0</ele><time>2016-06-18T04:29:30.283Z</time></trkpt><trkpt lat="58.18416167" lon="14.591165"><ele>144.0</ele><time>2016-06-18T04:29:31.308Z</time></trkpt><trkpt lat="58.18409667" lon="14.59113667"><ele>144.0</ele><time>2016-06-18T04:29:32.298Z</time></trkpt><trkpt lat="58.18409667" lon="14.59113667"><ele>144.0</ele><time>2016-06-18T04:29:33.288Z</time></trkpt><trkpt lat="58.18396833" lon="14.59108333"><ele>144.0</ele><time>2016-06-18T04:29:34.308Z</time></trkpt><trkpt lat="58.18396833" lon="14.59108333"><ele>144.0</ele><time>2016-06-18T04:29:35.306Z</time></trkpt><trkpt lat="58.18384" lon="14.59103667"><ele>144.0</ele><time>2016-06-18T04:29:36.305Z</time></trkpt><trkpt lat="58.18384" lon="14.59103667"><ele>144.0</ele><time>2016-06-18T04:29:37.309Z</time></trkpt><trkpt lat="58.18371" lon="14.59098"><ele>144.0</ele><time>2016-06-18T04:29:38.301Z</time></trkpt><trkpt lat="58.18371" lon="14.59098"><ele>144.0</ele><time>2016-06-18T04:29:39.305Z</time></trkpt><trkpt lat="58.18357333" lon="14.59092"><ele>145.0</ele><time>2016-06-18T04:29:40.313Z</time></trkpt><trkpt lat="58.183505" lon="14.59089167"><ele>145.0</ele><time>2016-06-18T04:29:41.304Z</time></trkpt><trkpt lat="58.18343333" lon="14.59086333"><ele>145.0</ele><time>2016-06-18T04:29:42.288Z</time></trkpt><trkpt lat="58.18343333" lon="14.59086333"><ele>145.0</ele><time>2016-06-18T04:29:43.308Z</time></trkpt><trkpt lat="58.18329667" lon="14.59080667"><ele>145.0</ele><time>2016-06-18T04:29:44.327Z</time></trkpt><trkpt lat="58.18329667" lon="14.59080667"><ele>145.0</ele><time>2016-06-18T04:29:45.282Z</time></trkpt><trkpt lat="58.18316" lon="14.59075333"><ele>145.0</ele><time>2016-06-18T04:29:46.300Z</time></trkpt><trkpt lat="58.18309333" lon="14.59072333"><ele>145.0</ele><time>2016-06-18T04:29:47.307Z</time></trkpt><trkpt lat="58.18309333" lon="14.59072333"><ele>145.0</ele><time>2016-06-18T04:29:48.313Z</time></trkpt><trkpt lat="58.182955" lon="14.59066167"><ele>145.0</ele><time>2016-06-18T04:29:49.292Z</time></trkpt><trkpt lat="58.182955" lon="14.59066167"><ele>145.0</ele><time>2016-06-18T04:29:50.285Z</time></trkpt><trkpt lat="58.18281333" lon="14.59060167"><ele>146.0</ele><time>2016-06-18T04:29:51.308Z</time></trkpt><trkpt lat="58.18281333" lon="14.59060167"><ele>146.0</ele><time>2016-06-18T04:29:52.283Z</time></trkpt><trkpt lat="58.18267167" lon="14.59054"><ele>146.0</ele><time>2016-06-18T04:29:53.320Z</time></trkpt><trkpt lat="58.18267167" lon="14.59054"><ele>146.0</ele><time>2016-06-18T04:29:54.310Z</time></trkpt><trkpt lat="58.182525" lon="14.59047833"><ele>146.0</ele><time>2016-06-18T04:29:55.317Z</time></trkpt><trkpt lat="58.18245167" lon="14.59044667"><ele>146.0</ele><time>2016-06-18T04:29:56.284Z</time></trkpt><trkpt lat="58.18245167" lon="14.59044667"><ele>146.0</ele><time>2016-06-18T04:29:57.307Z</time></trkpt><trkpt lat="58.18230333" lon="14.590385"><ele>146.0</ele><time>2016-06-18T04:29:58.289Z</time></trkpt><trkpt lat="58.18230333" lon="14.590385"><ele>146.0</ele><time>2016-06-18T04:29:59.308Z</time></trkpt><trkpt lat="58.182155" lon="14.59031333"><ele>145.0</ele><time>2016-06-18T04:30:00.302Z</time></trkpt><trkpt lat="58.18208167" lon="14.59027667"><ele>145.0</ele><time>2016-06-18T04:30:01.320Z</time></trkpt><trkpt lat="58.18208167" lon="14.59027667"><ele>145.0</ele><time>2016-06-18T04:30:02.287Z</time></trkpt><trkpt lat="58.18193833" lon="14.59019833"><ele>144.0</ele><time>2016-06-18T04:30:03.288Z</time></trkpt><trkpt lat="58.18186833" lon="14.590155"><ele>144.0</ele><time>2016-06-18T04:30:04.306Z</time></trkpt><trkpt lat="58.18186833" lon="14.590155"><ele>144.0</ele><time>2016-06-18T04:30:05.322Z</time></trkpt><trkpt lat="58.18172667" lon="14.59005667"><ele>144.0</ele><time>2016-06-18T04:30:06.289Z</time></trkpt><trkpt lat="58.181655" lon="14.58999833"><ele>143.0</ele><time>2016-06-18T04:30:07.297Z</time></trkpt><trkpt lat="58.18158333" lon="14.58993667"><ele>143.0</ele><time>2016-06-18T04:30:08.284Z</time></trkpt><trkpt lat="58.18158333" lon="14.58993667"><ele>143.0</ele><time>2016-06-18T04:30:09.320Z</time></trkpt><trkpt lat="58.18143333" lon="14.58979333"><ele>143.0</ele><time>2016-06-18T04:30:10.295Z</time></trkpt><trkpt lat="58.18143333" lon="14.58979333"><ele>143.0</ele><time>2016-06-18T04:30:11.288Z</time></trkpt><trkpt lat="58.181295" lon="14.58964167"><ele>143.0</ele><time>2016-06-18T04:30:12.296Z</time></trkpt><trkpt lat="58.181225" lon="14.58956667"><ele>143.0</ele><time>2016-06-18T04:30:13.321Z</time></trkpt><trkpt lat="58.181155" lon="14.589495"><ele>143.0</ele><time>2016-06-18T04:30:14.283Z</time></trkpt><trkpt lat="58.181155" lon="14.589495"><ele>143.0</ele><time>2016-06-18T04:30:15.282Z</time></trkpt><trkpt lat="58.18101667" lon="14.58933833"><ele>143.0</ele><time>2016-06-18T04:30:16.318Z</time></trkpt><trkpt lat="58.18101667" lon="14.58933833"><ele>143.0</ele><time>2016-06-18T04:30:17.308Z</time></trkpt><trkpt lat="58.18087667" lon="14.58916833"><ele>143.0</ele><time>2016-06-18T04:30:18.298Z</time></trkpt><trkpt lat="58.18087667" lon="14.58916833"><ele>143.0</ele><time>2016-06-18T04:30:19.291Z</time></trkpt><trkpt lat="58.18074167" lon="14.58898167"><ele>143.0</ele><time>2016-06-18T04:30:20.294Z</time></trkpt><trkpt lat="58.18074167" lon="14.58898167"><ele>143.0</ele><time>2016-06-18T04:30:21.282Z</time></trkpt><trkpt lat="58.18061333" lon="14.58878333"><ele>143.0</ele><time>2016-06-18T04:30:22.288Z</time></trkpt><trkpt lat="58.18061333" lon="14.58878333"><ele>143.0</ele><time>2016-06-18T04:30:23.295Z</time></trkpt><trkpt lat="58.18049167" lon="14.58858333"><ele>143.0</ele><time>2016-06-18T04:30:24.322Z</time></trkpt><trkpt lat="58.18043333" lon="14.58848333"><ele>143.0</ele><time>2016-06-18T04:30:25.284Z</time></trkpt><trkpt lat="58.180375" lon="14.58838833"><ele>143.0</ele><time>2016-06-18T04:30:26.292Z</time></trkpt><trkpt lat="58.180375" lon="14.58838833"><ele>143.0</ele><time>2016-06-18T04:30:27.318Z</time></trkpt><trkpt lat="58.18026" lon="14.58819167"><ele>143.0</ele><time>2016-06-18T04:30:28.284Z</time></trkpt><trkpt lat="58.18026" lon="14.58819167"><ele>143.0</ele><time>2016-06-18T04:30:29.301Z</time></trkpt><trkpt lat="58.18014333" lon="14.58799667"><ele>144.0</ele><time>2016-06-18T04:30:30.314Z</time></trkpt><trkpt lat="58.18014333" lon="14.58799667"><ele>144.0</ele><time>2016-06-18T04:30:31.306Z</time></trkpt><trkpt lat="58.18002667" lon="14.58779333"><ele>144.0</ele><time>2016-06-18T04:30:32.298Z</time></trkpt><trkpt lat="58.18002667" lon="14.58779333"><ele>144.0</ele><time>2016-06-18T04:30:33.309Z</time></trkpt><trkpt lat="58.17990833" lon="14.58758667"><ele>144.0</ele><time>2016-06-18T04:30:34.308Z</time></trkpt><trkpt lat="58.17984833" lon="14.58748333"><ele>144.0</ele><time>2016-06-18T04:30:35.288Z</time></trkpt><trkpt lat="58.17984833" lon="14.58748333"><ele>144.0</ele><time>2016-06-18T04:30:36.292Z</time></trkpt><trkpt lat="58.17972833" lon="14.587285"><ele>144.0</ele><time>2016-06-18T04:30:37.299Z</time></trkpt><trkpt lat="58.17967" lon="14.587195"><ele>144.0</ele><time>2016-06-18T04:30:38.296Z</time></trkpt><trkpt lat="58.17967" lon="14.587195"><ele>144.0</ele><time>2016-06-18T04:30:39.308Z</time></trkpt><trkpt lat="58.179555" lon="14.58701833"><ele>144.0</ele><time>2016-06-18T04:30:40.302Z</time></trkpt><trkpt lat="58.179555" lon="14.58701833"><ele>144.0</ele><time>2016-06-18T04:30:41.290Z</time></trkpt><trkpt lat="58.17943833" lon="14.58684333"><ele>144.0</ele><time>2016-06-18T04:30:42.296Z</time></trkpt><trkpt lat="58.17938" lon="14.58675167"><ele>144.0</ele><time>2016-06-18T04:30:43.320Z</time></trkpt><trkpt lat="58.17932" lon="14.58667167"><ele>144.0</ele><time>2016-06-18T04:30:44.308Z</time></trkpt><trkpt lat="58.17932" lon="14.58667167"><ele>144.0</ele><time>2016-06-18T04:30:45.314Z</time></trkpt><trkpt lat="58.17919167" lon="14.586515"><ele>144.0</ele><time>2016-06-18T04:30:46.282Z</time></trkpt><trkpt lat="58.17919167" lon="14.586515"><ele>144.0</ele><time>2016-06-18T04:30:47.291Z</time></trkpt><trkpt lat="58.17906167" lon="14.58636667"><ele>144.0</ele><time>2016-06-18T04:30:48.287Z</time></trkpt><trkpt lat="58.17906167" lon="14.58636667"><ele>144.0</ele><time>2016-06-18T04:30:49.310Z</time></trkpt><trkpt lat="58.17893" lon="14.58622667"><ele>144.0</ele><time>2016-06-18T04:30:50.316Z</time></trkpt><trkpt lat="58.17893" lon="14.58622667"><ele>144.0</ele><time>2016-06-18T04:30:51.284Z</time></trkpt><trkpt lat="58.17879833" lon="14.58608667"><ele>144.0</ele><time>2016-06-18T04:30:52.306Z</time></trkpt><trkpt lat="58.17879833" lon="14.58608667"><ele>144.0</ele><time>2016-06-18T04:30:53.314Z</time></trkpt><trkpt lat="58.17866667" lon="14.58594667"><ele>144.0</ele><time>2016-06-18T04:30:54.320Z</time></trkpt><trkpt lat="58.17859833" lon="14.58587667"><ele>144.0</ele><time>2016-06-18T04:30:55.320Z</time></trkpt><trkpt lat="58.17853" lon="14.58580667"><ele>144.0</ele><time>2016-06-18T04:30:56.283Z</time></trkpt><trkpt lat="58.17853" lon="14.58580667"><ele>144.0</ele><time>2016-06-18T04:30:57.306Z</time></trkpt><trkpt lat="58.17838667" lon="14.585665"><ele>144.0</ele><time>2016-06-18T04:30:58.302Z</time></trkpt><trkpt lat="58.17838667" lon="14.585665"><ele>144.0</ele><time>2016-06-18T04:30:59.307Z</time></trkpt><trkpt lat="58.17824" lon="14.58551167"><ele>144.0</ele><time>2016-06-18T04:31:00.292Z</time></trkpt><trkpt lat="58.17824" lon="14.58551167"><ele>144.0</ele><time>2016-06-18T04:31:01.299Z</time></trkpt><trkpt lat="58.17809167" lon="14.58535667"><ele>144.0</ele><time>2016-06-18T04:31:02.306Z</time></trkpt><trkpt lat="58.17809167" lon="14.58535667"><ele>144.0</ele><time>2016-06-18T04:31:03.283Z</time></trkpt><trkpt lat="58.17793833" lon="14.5852"><ele>143.0</ele><time>2016-06-18T04:31:04.306Z</time></trkpt><trkpt lat="58.17793833" lon="14.5852"><ele>143.0</ele><time>2016-06-18T04:31:05.317Z</time></trkpt><trkpt lat="58.17778667" lon="14.58503667"><ele>143.0</ele><time>2016-06-18T04:31:06.317Z</time></trkpt><trkpt lat="58.17778667" lon="14.58503667"><ele>143.0</ele><time>2016-06-18T04:31:07.283Z</time></trkpt><trkpt lat="58.17763333" lon="14.58486"><ele>143.0</ele><time>2016-06-18T04:31:08.308Z</time></trkpt><trkpt lat="58.17763333" lon="14.58486"><ele>143.0</ele><time>2016-06-18T04:31:09.307Z</time></trkpt><trkpt lat="58.177475" lon="14.58469"><ele>143.0</ele><time>2016-06-18T04:31:10.302Z</time></trkpt><trkpt lat="58.177475" lon="14.58469"><ele>143.0</ele><time>2016-06-18T04:31:11.290Z</time></trkpt><trkpt lat="58.17731667" lon="14.58452"><ele>143.0</ele><time>2016-06-18T04:31:12.304Z</time></trkpt><trkpt lat="58.177235" lon="14.58443667"><ele>142.0</ele><time>2016-06-18T04:31:13.283Z</time></trkpt><trkpt lat="58.17715333" lon="14.58435"><ele>142.0</ele><time>2016-06-18T04:31:14.305Z</time></trkpt><trkpt lat="58.17715333" lon="14.58435"><ele>142.0</ele><time>2016-06-18T04:31:15.308Z</time></trkpt><trkpt lat="58.17698833" lon="14.584175"><ele>142.0</ele><time>2016-06-18T04:31:16.314Z</time></trkpt><trkpt lat="58.17690667" lon="14.58408833"><ele>142.0</ele><time>2016-06-18T04:31:17.308Z</time></trkpt><trkpt lat="58.176825" lon="14.58400333"><ele>142.0</ele><time>2016-06-18T04:31:18.306Z</time></trkpt><trkpt lat="58.176825" lon="14.58400333"><ele>142.0</ele><time>2016-06-18T04:31:19.311Z</time></trkpt><trkpt lat="58.17666667" lon="14.58383167"><ele>142.0</ele><time>2016-06-18T04:31:20.318Z</time></trkpt><trkpt lat="58.17666667" lon="14.58383167"><ele>142.0</ele><time>2016-06-18T04:31:21.307Z</time></trkpt><trkpt lat="58.17651833" lon="14.583675"><ele>142.0</ele><time>2016-06-18T04:31:22.291Z</time></trkpt><trkpt lat="58.17651833" lon="14.583675"><ele>142.0</ele><time>2016-06-18T04:31:23.306Z</time></trkpt><trkpt lat="58.17637833" lon="14.58352667"><ele>142.0</ele><time>2016-06-18T04:31:24.314Z</time></trkpt><trkpt lat="58.17637833" lon="14.58352667"><ele>142.0</ele><time>2016-06-18T04:31:25.286Z</time></trkpt><trkpt lat="58.17624167" lon="14.58338333"><ele>142.0</ele><time>2016-06-18T04:31:26.301Z</time></trkpt><trkpt lat="58.17624167" lon="14.58338333"><ele>142.0</ele><time>2016-06-18T04:31:27.294Z</time></trkpt><trkpt lat="58.17610667" lon="14.58323333"><ele>142.0</ele><time>2016-06-18T04:31:28.283Z</time></trkpt><trkpt lat="58.17610667" lon="14.58323333"><ele>142.0</ele><time>2016-06-18T04:31:29.285Z</time></trkpt><trkpt lat="58.17597" lon="14.58308333"><ele>142.0</ele><time>2016-06-18T04:31:30.302Z</time></trkpt><trkpt lat="58.17597" lon="14.58308333"><ele>142.0</ele><time>2016-06-18T04:31:31.310Z</time></trkpt><trkpt lat="58.17583" lon="14.58293833"><ele>142.0</ele><time>2016-06-18T04:31:32.316Z</time></trkpt><trkpt lat="58.17583" lon="14.58293833"><ele>142.0</ele><time>2016-06-18T04:31:33.291Z</time></trkpt><trkpt lat="58.17569167" lon="14.58279"><ele>142.0</ele><time>2016-06-18T04:31:34.317Z</time></trkpt><trkpt lat="58.17569167" lon="14.58279"><ele>142.0</ele><time>2016-06-18T04:31:35.310Z</time></trkpt><trkpt lat="58.17555333" lon="14.58265"><ele>142.0</ele><time>2016-06-18T04:31:36.285Z</time></trkpt><trkpt lat="58.17555333" lon="14.58265"><ele>142.0</ele><time>2016-06-18T04:31:37.310Z</time></trkpt><trkpt lat="58.17541333" lon="14.58251"><ele>142.0</ele><time>2016-06-18T04:31:38.317Z</time></trkpt><trkpt lat="58.17541333" lon="14.58251"><ele>142.0</ele><time>2016-06-18T04:31:39.301Z</time></trkpt><trkpt lat="58.175275" lon="14.582365"><ele>141.0</ele><time>2016-06-18T04:31:40.287Z</time></trkpt><trkpt lat="58.175275" lon="14.582365"><ele>141.0</ele><time>2016-06-18T04:31:41.310Z</time></trkpt><trkpt lat="58.17513833" lon="14.58222167"><ele>141.0</ele><time>2016-06-18T04:31:42.308Z</time></trkpt><trkpt lat="58.17513833" lon="14.58222167"><ele>141.0</ele><time>2016-06-18T04:31:43.311Z</time></trkpt><trkpt lat="58.175005" lon="14.58208"><ele>141.0</ele><time>2016-06-18T04:31:44.318Z</time></trkpt><trkpt lat="58.17493833" lon="14.58201167"><ele>141.0</ele><time>2016-06-18T04:31:45.311Z</time></trkpt><trkpt lat="58.17493833" lon="14.58201167"><ele>141.0</ele><time>2016-06-18T04:31:46.284Z</time></trkpt><trkpt lat="58.17480333" lon="14.58187167"><ele>141.0</ele><time>2016-06-18T04:31:47.291Z</time></trkpt><trkpt lat="58.17480333" lon="14.58187167"><ele>141.0</ele><time>2016-06-18T04:31:48.297Z</time></trkpt><trkpt lat="58.174665" lon="14.58173167"><ele>141.0</ele><time>2016-06-18T04:31:49.304Z</time></trkpt><trkpt lat="58.174665" lon="14.58173167"><ele>141.0</ele><time>2016-06-18T04:31:50.310Z</time></trkpt><trkpt lat="58.174525" lon="14.58158833"><ele>141.0</ele><time>2016-06-18T04:31:51.284Z</time></trkpt><trkpt lat="58.174525" lon="14.58158833"><ele>141.0</ele><time>2016-06-18T04:31:52.296Z</time></trkpt><trkpt lat="58.17438667" lon="14.58144"><ele>141.0</ele><time>2016-06-18T04:31:53.308Z</time></trkpt><trkpt lat="58.17438667" lon="14.58144"><ele>141.0</ele><time>2016-06-18T04:31:54.315Z</time></trkpt><trkpt lat="58.17424667" lon="14.58128333"><ele>141.0</ele><time>2016-06-18T04:31:55.321Z</time></trkpt><trkpt lat="58.17418" lon="14.58120667"><ele>141.0</ele><time>2016-06-18T04:31:56.301Z</time></trkpt><trkpt lat="58.17418" lon="14.58120667"><ele>141.0</ele><time>2016-06-18T04:31:57.309Z</time></trkpt><trkpt lat="58.174045" lon="14.581065"><ele>141.0</ele><time>2016-06-18T04:31:58.316Z</time></trkpt><trkpt lat="58.174045" lon="14.581065"><ele>141.0</ele><time>2016-06-18T04:31:59.286Z</time></trkpt><trkpt lat="58.17390833" lon="14.58092333"><ele>141.0</ele><time>2016-06-18T04:32:00.298Z</time></trkpt><trkpt lat="58.17384333" lon="14.58084667"><ele>141.0</ele><time>2016-06-18T04:32:01.306Z</time></trkpt><trkpt lat="58.17384333" lon="14.58084667"><ele>141.0</ele><time>2016-06-18T04:32:02.312Z</time></trkpt><trkpt lat="58.17370833" lon="14.58069"><ele>140.0</ele><time>2016-06-18T04:32:03.288Z</time></trkpt><trkpt lat="58.17370833" lon="14.58069"><ele>140.0</ele><time>2016-06-18T04:32:04.308Z</time></trkpt><trkpt lat="58.173565" lon="14.580535"><ele>140.0</ele><time>2016-06-18T04:32:05.308Z</time></trkpt><trkpt lat="58.173565" lon="14.580535"><ele>140.0</ele><time>2016-06-18T04:32:06.287Z</time></trkpt><trkpt lat="58.17342167" lon="14.580375"><ele>140.0</ele><time>2016-06-18T04:32:07.293Z</time></trkpt><trkpt lat="58.17335" lon="14.58029167"><ele>140.0</ele><time>2016-06-18T04:32:08.318Z</time></trkpt><trkpt lat="58.17327833" lon="14.58020833"><ele>140.0</ele><time>2016-06-18T04:32:09.282Z</time></trkpt><trkpt lat="58.17327833" lon="14.58020833"><ele>140.0</ele><time>2016-06-18T04:32:10.298Z</time></trkpt><trkpt lat="58.17313333" lon="14.58004"><ele>139.0</ele><time>2016-06-18T04:32:11.288Z</time></trkpt><trkpt lat="58.17305833" lon="14.579955"><ele>139.0</ele><time>2016-06-18T04:32:12.301Z</time></trkpt><trkpt lat="58.17305833" lon="14.579955"><ele>139.0</ele><time>2016-06-18T04:32:13.283Z</time></trkpt><trkpt lat="58.17291167" lon="14.57979333"><ele>139.0</ele><time>2016-06-18T04:32:14.290Z</time></trkpt><trkpt lat="58.17291167" lon="14.57979333"><ele>139.0</ele><time>2016-06-18T04:32:15.307Z</time></trkpt><trkpt lat="58.17276667" lon="14.57962333"><ele>138.0</ele><time>2016-06-18T04:32:16.315Z</time></trkpt><trkpt lat="58.17276667" lon="14.57962333"><ele>138.0</ele><time>2016-06-18T04:32:17.302Z</time></trkpt><trkpt lat="58.17261833" lon="14.57945667"><ele>138.0</ele><time>2016-06-18T04:32:18.309Z</time></trkpt><trkpt lat="58.17261833" lon="14.57945667"><ele>138.0</ele><time>2016-06-18T04:32:19.296Z</time></trkpt><trkpt lat="58.17247167" lon="14.57928833"><ele>138.0</ele><time>2016-06-18T04:32:20.283Z</time></trkpt><trkpt lat="58.17247167" lon="14.57928833"><ele>138.0</ele><time>2016-06-18T04:32:21.318Z</time></trkpt><trkpt lat="58.17232833" lon="14.57912167"><ele>137.0</ele><time>2016-06-18T04:32:22.304Z</time></trkpt><trkpt lat="58.17232833" lon="14.57912167"><ele>137.0</ele><time>2016-06-18T04:32:23.286Z</time></trkpt><trkpt lat="58.17218" lon="14.578965"><ele>137.0</ele><time>2016-06-18T04:32:24.298Z</time></trkpt><trkpt lat="58.17218" lon="14.578965"><ele>137.0</ele><time>2016-06-18T04:32:25.320Z</time></trkpt><trkpt lat="58.17203333" lon="14.57881333"><ele>137.0</ele><time>2016-06-18T04:32:26.292Z</time></trkpt><trkpt lat="58.17203333" lon="14.57881333"><ele>137.0</ele><time>2016-06-18T04:32:27.311Z</time></trkpt><trkpt lat="58.17188667" lon="14.57867"><ele>136.0</ele><time>2016-06-18T04:32:28.285Z</time></trkpt><trkpt lat="58.17181167" lon="14.57860167"><ele>136.0</ele><time>2016-06-18T04:32:29.293Z</time></trkpt><trkpt lat="58.17181167" lon="14.57860167"><ele>136.0</ele><time>2016-06-18T04:32:30.300Z</time></trkpt><trkpt lat="58.17166" lon="14.57847167"><ele>136.0</ele><time>2016-06-18T04:32:31.288Z</time></trkpt><trkpt lat="58.17166" lon="14.57847167"><ele>136.0</ele><time>2016-06-18T04:32:32.296Z</time></trkpt><trkpt lat="58.171505" lon="14.57834833"><ele>135.0</ele><time>2016-06-18T04:32:33.303Z</time></trkpt><trkpt lat="58.171505" lon="14.57834833"><ele>135.0</ele><time>2016-06-18T04:32:34.286Z</time></trkpt><trkpt lat="58.17134667" lon="14.57823"><ele>135.0</ele><time>2016-06-18T04:32:35.305Z</time></trkpt><trkpt lat="58.17134667" lon="14.57823"><ele>135.0</ele><time>2016-06-18T04:32:36.308Z</time></trkpt><trkpt lat="58.17118667" lon="14.57810333"><ele>134.0</ele><time>2016-06-18T04:32:37.297Z</time></trkpt><trkpt lat="58.17118667" lon="14.57810333"><ele>134.0</ele><time>2016-06-18T04:32:38.303Z</time></trkpt><trkpt lat="58.17102333" lon="14.57798167"><ele>133.0</ele><time>2016-06-18T04:32:39.310Z</time></trkpt><trkpt lat="58.17094" lon="14.57792333"><ele>133.0</ele><time>2016-06-18T04:32:40.321Z</time></trkpt><trkpt lat="58.17085667" lon="14.57786167"><ele>133.0</ele><time>2016-06-18T04:32:41.292Z</time></trkpt><trkpt lat="58.17085667" lon="14.57786167"><ele>133.0</ele><time>2016-06-18T04:32:42.305Z</time></trkpt><trkpt lat="58.17069167" lon="14.57772833"><ele>132.0</ele><time>2016-06-18T04:32:43.313Z</time></trkpt><trkpt lat="58.17060667" lon="14.57766167"><ele>132.0</ele><time>2016-06-18T04:32:44.301Z</time></trkpt><trkpt lat="58.17060667" lon="14.57766167"><ele>132.0</ele><time>2016-06-18T04:32:45.284Z</time></trkpt><trkpt lat="58.17043333" lon="14.57752833"><ele>131.0</ele><time>2016-06-18T04:32:46.286Z</time></trkpt><trkpt lat="58.17043333" lon="14.57752833"><ele>131.0</ele><time>2016-06-18T04:32:47.293Z</time></trkpt><trkpt lat="58.17025667" lon="14.577395"><ele>130.0</ele><time>2016-06-18T04:32:48.302Z</time></trkpt><trkpt lat="58.17025667" lon="14.577395"><ele>130.0</ele><time>2016-06-18T04:32:49.285Z</time></trkpt><trkpt lat="58.17007833" lon="14.577255"><ele>130.0</ele><time>2016-06-18T04:32:50.288Z</time></trkpt><trkpt lat="58.17007833" lon="14.577255"><ele>130.0</ele><time>2016-06-18T04:32:51.309Z</time></trkpt><trkpt lat="58.16989667" lon="14.57711"><ele>129.0</ele><time>2016-06-18T04:32:52.316Z</time></trkpt><trkpt lat="58.16980333" lon="14.57703833"><ele>129.0</ele><time>2016-06-18T04:32:53.308Z</time></trkpt><trkpt lat="58.16980333" lon="14.57703833"><ele>129.0</ele><time>2016-06-18T04:32:54.285Z</time></trkpt><trkpt lat="58.16962" lon="14.57689833"><ele>128.0</ele><time>2016-06-18T04:32:55.292Z</time></trkpt><trkpt lat="58.16962" lon="14.57689833"><ele>128.0</ele><time>2016-06-18T04:32:56.308Z</time></trkpt><trkpt lat="58.16943833" lon="14.57675667"><ele>127.0</ele><time>2016-06-18T04:32:57.318Z</time></trkpt><trkpt lat="58.16943833" lon="14.57675667"><ele>127.0</ele><time>2016-06-18T04:32:58.286Z</time></trkpt><trkpt lat="58.16926667" lon="14.57662833"><ele>127.0</ele><time>2016-06-18T04:32:59.294Z</time></trkpt><trkpt lat="58.16926667" lon="14.57662833"><ele>127.0</ele><time>2016-06-18T04:33:00.305Z</time></trkpt><trkpt lat="58.16911" lon="14.57651"><ele>127.0</ele><time>2016-06-18T04:33:01.313Z</time></trkpt><trkpt lat="58.16904" lon="14.57644667"><ele>126.0</ele><time>2016-06-18T04:33:02.285Z</time></trkpt><trkpt lat="58.16904" lon="14.57644667"><ele>126.0</ele><time>2016-06-18T04:33:03.294Z</time></trkpt><trkpt lat="58.16889667" lon="14.57632833"><ele>126.0</ele><time>2016-06-18T04:33:04.301Z</time></trkpt><trkpt lat="58.16889667" lon="14.57632833"><ele>126.0</ele><time>2016-06-18T04:33:05.284Z</time></trkpt><trkpt lat="58.16875167" lon="14.57621167"><ele>125.0</ele><time>2016-06-18T04:33:06.288Z</time></trkpt><trkpt lat="58.16875167" lon="14.57621167"><ele>125.0</ele><time>2016-06-18T04:33:07.315Z</time></trkpt><trkpt lat="58.16859333" lon="14.576105"><ele>125.0</ele><time>2016-06-18T04:33:08.308Z</time></trkpt><trkpt lat="58.16859333" lon="14.576105"><ele>125.0</ele><time>2016-06-18T04:33:09.284Z</time></trkpt><trkpt lat="58.16842667" lon="14.575995"><ele>125.0</ele><time>2016-06-18T04:33:10.298Z</time></trkpt><trkpt lat="58.16842667" lon="14.575995"><ele>125.0</ele><time>2016-06-18T04:33:11.312Z</time></trkpt><trkpt lat="58.168265" lon="14.57588833"><ele>126.0</ele><time>2016-06-18T04:33:12.320Z</time></trkpt><trkpt lat="58.16818333" lon="14.57583"><ele>126.0</ele><time>2016-06-18T04:33:13.310Z</time></trkpt><trkpt lat="58.16810167" lon="14.57577167"><ele>126.0</ele><time>2016-06-18T04:33:14.293Z</time></trkpt><trkpt lat="58.16810167" lon="14.57577167"><ele>126.0</ele><time>2016-06-18T04:33:15.302Z</time></trkpt><trkpt lat="58.16794167" lon="14.57566833"><ele>126.0</ele><time>2016-06-18T04:33:16.308Z</time></trkpt><trkpt lat="58.16794167" lon="14.57566833"><ele>126.0</ele><time>2016-06-18T04:33:17.289Z</time></trkpt><trkpt lat="58.16778333" lon="14.575565"><ele>126.0</ele><time>2016-06-18T04:33:18.298Z</time></trkpt><trkpt lat="58.16778333" lon="14.575565"><ele>126.0</ele><time>2016-06-18T04:33:19.310Z</time></trkpt><trkpt lat="58.16763333" lon="14.57545833"><ele>127.0</ele><time>2016-06-18T04:33:20.318Z</time></trkpt><trkpt lat="58.16763333" lon="14.57545833"><ele>127.0</ele><time>2016-06-18T04:33:21.311Z</time></trkpt><trkpt lat="58.16749" lon="14.575355"><ele>127.0</ele><time>2016-06-18T04:33:22.309Z</time></trkpt><trkpt lat="58.16742" lon="14.57530667"><ele>127.0</ele><time>2016-06-18T04:33:23.296Z</time></trkpt><trkpt lat="58.16742" lon="14.57530667"><ele>127.0</ele><time>2016-06-18T04:33:24.303Z</time></trkpt><trkpt lat="58.167285" lon="14.57519167"><ele>127.0</ele><time>2016-06-18T04:33:25.305Z</time></trkpt><trkpt lat="58.167285" lon="14.57519167"><ele>127.0</ele><time>2016-06-18T04:33:26.311Z</time></trkpt><trkpt lat="58.167155" lon="14.57509667"><ele>128.0</ele><time>2016-06-18T04:33:27.285Z</time></trkpt><trkpt lat="58.16709333" lon="14.57505"><ele>128.0</ele><time>2016-06-18T04:33:28.283Z</time></trkpt><trkpt lat="58.16709333" lon="14.57505"><ele>128.0</ele><time>2016-06-18T04:33:29.290Z</time></trkpt><trkpt lat="58.16696167" lon="14.57496667"><ele>128.0</ele><time>2016-06-18T04:33:30.307Z</time></trkpt><trkpt lat="58.166895" lon="14.57492667"><ele>128.0</ele><time>2016-06-18T04:33:31.320Z</time></trkpt><trkpt lat="58.166895" lon="14.57492667"><ele>128.0</ele><time>2016-06-18T04:33:32.288Z</time></trkpt><trkpt lat="58.166775" lon="14.57484167"><ele>128.0</ele><time>2016-06-18T04:33:33.295Z</time></trkpt><trkpt lat="58.16672" lon="14.57480333"><ele>129.0</ele><time>2016-06-18T04:33:34.298Z</time></trkpt><trkpt lat="58.16672" lon="14.57480333"><ele>129.0</ele><time>2016-06-18T04:33:35.289Z</time></trkpt><trkpt lat="58.16661833" lon="14.57474"><ele>129.0</ele><time>2016-06-18T04:33:36.300Z</time></trkpt><trkpt lat="58.16661833" lon="14.57474"><ele>129.0</ele><time>2016-06-18T04:33:37.306Z</time></trkpt><trkpt lat="58.16652167" lon="14.57467667"><ele>129.0</ele><time>2016-06-18T04:33:38.315Z</time></trkpt><trkpt lat="58.16652167" lon="14.57467667"><ele>129.0</ele><time>2016-06-18T04:33:39.287Z</time></trkpt><trkpt lat="58.16641667" lon="14.57461667"><ele>130.0</ele><time>2016-06-18T04:33:40.308Z</time></trkpt><trkpt lat="58.16641667" lon="14.57461667"><ele>130.0</ele><time>2016-06-18T04:33:41.310Z</time></trkpt><trkpt lat="58.16631333" lon="14.57456167"><ele>130.0</ele><time>2016-06-18T04:33:42.318Z</time></trkpt><trkpt lat="58.16625667" lon="14.57453333"><ele>130.0</ele><time>2016-06-18T04:33:43.308Z</time></trkpt><trkpt lat="58.1662" lon="14.574505"><ele>131.0</ele><time>2016-06-18T04:33:44.308Z</time></trkpt><trkpt lat="58.1662" lon="14.574505"><ele>131.0</ele><time>2016-06-18T04:33:45.316Z</time></trkpt><trkpt lat="58.16608" lon="14.57447"><ele>131.0</ele><time>2016-06-18T04:33:46.283Z</time></trkpt><trkpt lat="58.16602333" lon="14.574455"><ele>131.0</ele><time>2016-06-18T04:33:47.287Z</time></trkpt><trkpt lat="58.16602333" lon="14.574455"><ele>131.0</ele><time>2016-06-18T04:33:48.320Z</time></trkpt><trkpt lat="58.16590833" lon="14.57440667"><ele>131.0</ele><time>2016-06-18T04:33:49.286Z</time></trkpt><trkpt lat="58.165845" lon="14.574385"><ele>131.0</ele><time>2016-06-18T04:33:50.318Z</time></trkpt><trkpt lat="58.16578333" lon="14.57435833"><ele>131.0</ele><time>2016-06-18T04:33:51.308Z</time></trkpt><trkpt lat="58.16578333" lon="14.57435833"><ele>131.0</ele><time>2016-06-18T04:33:52.317Z</time></trkpt><trkpt lat="58.16565833" lon="14.57430333"><ele>131.0</ele><time>2016-06-18T04:33:53.286Z</time></trkpt><trkpt lat="58.16565833" lon="14.57430333"><ele>131.0</ele><time>2016-06-18T04:33:54.304Z</time></trkpt><trkpt lat="58.165535" lon="14.57423833"><ele>131.0</ele><time>2016-06-18T04:33:55.301Z</time></trkpt><trkpt lat="58.165535" lon="14.57423833"><ele>131.0</ele><time>2016-06-18T04:33:56.309Z</time></trkpt><trkpt lat="58.16541333" lon="14.57421"><ele>131.0</ele><time>2016-06-18T04:33:57.316Z</time></trkpt><trkpt lat="58.16541333" lon="14.57421"><ele>131.0</ele><time>2016-06-18T04:33:58.286Z</time></trkpt><trkpt lat="58.16529167" lon="14.57417"><ele>131.0</ele><time>2016-06-18T04:33:59.305Z</time></trkpt><trkpt lat="58.16529167" lon="14.57417"><ele>131.0</ele><time>2016-06-18T04:34:00.311Z</time></trkpt><trkpt lat="58.16516833" lon="14.57413667"><ele>132.0</ele><time>2016-06-18T04:34:01.318Z</time></trkpt><trkpt lat="58.16511" lon="14.57412667"><ele>132.0</ele><time>2016-06-18T04:34:02.287Z</time></trkpt><trkpt lat="58.16511" lon="14.57412667"><ele>132.0</ele><time>2016-06-18T04:34:03.292Z</time></trkpt><trkpt lat="58.16500167" lon="14.57408833"><ele>132.0</ele><time>2016-06-18T04:34:04.299Z</time></trkpt><trkpt lat="58.164945" lon="14.57407"><ele>132.0</ele><time>2016-06-18T04:34:05.301Z</time></trkpt><trkpt lat="58.164945" lon="14.57407"><ele>132.0</ele><time>2016-06-18T04:34:06.318Z</time></trkpt><trkpt lat="58.16483" lon="14.57404333"><ele>132.0</ele><time>2016-06-18T04:34:07.308Z</time></trkpt><trkpt lat="58.16483" lon="14.57404333"><ele>132.0</ele><time>2016-06-18T04:34:08.288Z</time></trkpt><trkpt lat="58.16471667" lon="14.57399333"><ele>133.0</ele><time>2016-06-18T04:34:09.320Z</time></trkpt><trkpt lat="58.16471667" lon="14.57399333"><ele>133.0</ele><time>2016-06-18T04:34:10.292Z</time></trkpt><trkpt lat="58.164605" lon="14.57395167"><ele>133.0</ele><time>2016-06-18T04:34:11.294Z</time></trkpt><trkpt lat="58.164605" lon="14.57395167"><ele>133.0</ele><time>2016-06-18T04:34:12.317Z</time></trkpt><trkpt lat="58.16449667" lon="14.57390667"><ele>133.0</ele><time>2016-06-18T04:34:13.282Z</time></trkpt><trkpt lat="58.16444833" lon="14.573885"><ele>133.0</ele><time>2016-06-18T04:34:14.286Z</time></trkpt><trkpt lat="58.16444833" lon="14.573885"><ele>133.0</ele><time>2016-06-18T04:34:15.310Z</time></trkpt><trkpt lat="58.164345" lon="14.57383167"><ele>133.0</ele><time>2016-06-18T04:34:16.308Z</time></trkpt><trkpt lat="58.164345" lon="14.57383167"><ele>133.0</ele><time>2016-06-18T04:34:17.311Z</time></trkpt><trkpt lat="58.16423833" lon="14.57377667"><ele>133.0</ele><time>2016-06-18T04:34:18.282Z</time></trkpt><trkpt lat="58.16423833" lon="14.57377667"><ele>133.0</ele><time>2016-06-18T04:34:19.296Z</time></trkpt><trkpt lat="58.16412333" lon="14.57372"><ele>133.0</ele><time>2016-06-18T04:34:20.308Z</time></trkpt><trkpt lat="58.16412333" lon="14.57372"><ele>133.0</ele><time>2016-06-18T04:34:21.312Z</time></trkpt><trkpt lat="58.16398167" lon="14.57365833"><ele>133.0</ele><time>2016-06-18T04:34:22.323Z</time></trkpt><trkpt lat="58.16398167" lon="14.57365833"><ele>133.0</ele><time>2016-06-18T04:34:23.293Z</time></trkpt><trkpt lat="58.16382667" lon="14.57356667"><ele>134.0</ele><time>2016-06-18T04:34:24.304Z</time></trkpt><trkpt lat="58.16382667" lon="14.57356667"><ele>134.0</ele><time>2016-06-18T04:34:25.292Z</time></trkpt><trkpt lat="58.16366667" lon="14.573445"><ele>134.0</ele><time>2016-06-18T04:34:26.306Z</time></trkpt><trkpt lat="58.16366667" lon="14.573445"><ele>134.0</ele><time>2016-06-18T04:34:27.318Z</time></trkpt><trkpt lat="58.16352667" lon="14.573335"><ele>134.0</ele><time>2016-06-18T04:34:28.298Z</time></trkpt><trkpt lat="58.16345167" lon="14.57328333"><ele>134.0</ele><time>2016-06-18T04:34:29.298Z</time></trkpt><trkpt lat="58.16345167" lon="14.57328333"><ele>134.0</ele><time>2016-06-18T04:34:30.304Z</time></trkpt><trkpt lat="58.16329667" lon="14.573175"><ele>134.0</ele><time>2016-06-18T04:34:31.310Z</time></trkpt><trkpt lat="58.16322167" lon="14.57311167"><ele>134.0</ele><time>2016-06-18T04:34:32.308Z</time></trkpt><trkpt lat="58.16322167" lon="14.57311167"><ele>134.0</ele><time>2016-06-18T04:34:33.301Z</time></trkpt><trkpt lat="58.16306667" lon="14.572985"><ele>134.0</ele><time>2016-06-18T04:34:34.307Z</time></trkpt><trkpt lat="58.16306667" lon="14.572985"><ele>134.0</ele><time>2016-06-18T04:34:35.319Z</time></trkpt><trkpt lat="58.1629" lon="14.57286"><ele>134.0</ele><time>2016-06-18T04:34:36.298Z</time></trkpt><trkpt lat="58.1629" lon="14.57286"><ele>134.0</ele><time>2016-06-18T04:34:37.309Z</time></trkpt><trkpt lat="58.16273333" lon="14.57273167"><ele>134.0</ele><time>2016-06-18T04:34:38.316Z</time></trkpt><trkpt lat="58.16273333" lon="14.57273167"><ele>134.0</ele><time>2016-06-18T04:34:39.295Z</time></trkpt><trkpt lat="58.16256" lon="14.57258167"><ele>134.0</ele><time>2016-06-18T04:34:40.298Z</time></trkpt><trkpt lat="58.16256" lon="14.57258167"><ele>134.0</ele><time>2016-06-18T04:34:41.294Z</time></trkpt><trkpt lat="58.16238333" lon="14.57243667"><ele>134.0</ele><time>2016-06-18T04:34:42.307Z</time></trkpt><trkpt lat="58.16238333" lon="14.57243667"><ele>134.0</ele><time>2016-06-18T04:34:43.287Z</time></trkpt><trkpt lat="58.16221" lon="14.57229167"><ele>134.0</ele><time>2016-06-18T04:34:44.291Z</time></trkpt><trkpt lat="58.16212667" lon="14.57222"><ele>134.0</ele><time>2016-06-18T04:34:45.312Z</time></trkpt><trkpt lat="58.16212667" lon="14.57222"><ele>134.0</ele><time>2016-06-18T04:34:46.290Z</time></trkpt><trkpt lat="58.16197167" lon="14.57208833"><ele>134.0</ele><time>2016-06-18T04:34:47.288Z</time></trkpt><trkpt lat="58.16189" lon="14.57203167"><ele>134.0</ele><time>2016-06-18T04:34:48.295Z</time></trkpt><trkpt lat="58.16181" lon="14.57197833"><ele>134.0</ele><time>2016-06-18T04:34:49.306Z</time></trkpt><trkpt lat="58.16181" lon="14.57197833"><ele>134.0</ele><time>2016-06-18T04:34:50.283Z</time></trkpt><trkpt lat="58.16164833" lon="14.57187667"><ele>134.0</ele><time>2016-06-18T04:34:51.291Z</time></trkpt><trkpt lat="58.16164833" lon="14.57187667"><ele>134.0</ele><time>2016-06-18T04:34:52.306Z</time></trkpt><trkpt lat="58.16149" lon="14.57177833"><ele>134.0</ele><time>2016-06-18T04:34:53.317Z</time></trkpt><trkpt lat="58.16141167" lon="14.571735"><ele>133.0</ele><time>2016-06-18T04:34:54.313Z</time></trkpt><trkpt lat="58.16141167" lon="14.571735"><ele>133.0</ele><time>2016-06-18T04:34:55.289Z</time></trkpt><trkpt lat="58.16126" lon="14.571645"><ele>134.0</ele><time>2016-06-18T04:34:56.312Z</time></trkpt><trkpt lat="58.16118167" lon="14.5716"><ele>134.0</ele><time>2016-06-18T04:34:57.282Z</time></trkpt><trkpt lat="58.16118167" lon="14.5716"><ele>134.0</ele><time>2016-06-18T04:34:58.298Z</time></trkpt><trkpt lat="58.16102167" lon="14.57151667"><ele>134.0</ele><time>2016-06-18T04:34:59.284Z</time></trkpt><trkpt lat="58.16094167" lon="14.57147167"><ele>133.0</ele><time>2016-06-18T04:35:00.315Z</time></trkpt><trkpt lat="58.16086167" lon="14.57142667"><ele>133.0</ele><time>2016-06-18T04:35:01.286Z</time></trkpt><trkpt lat="58.16078" lon="14.57138"><ele>133.0</ele><time>2016-06-18T04:35:02.295Z</time></trkpt><trkpt lat="58.16078" lon="14.57138"><ele>133.0</ele><time>2016-06-18T04:35:03.322Z</time></trkpt><trkpt lat="58.160605" lon="14.57130167"><ele>133.0</ele><time>2016-06-18T04:35:04.300Z</time></trkpt><trkpt lat="58.160605" lon="14.57130167"><ele>133.0</ele><time>2016-06-18T04:35:05.305Z</time></trkpt><trkpt lat="58.16043" lon="14.57123167"><ele>132.0</ele><time>2016-06-18T04:35:06.312Z</time></trkpt><trkpt lat="58.16034333" lon="14.57119833"><ele>132.0</ele><time>2016-06-18T04:35:07.294Z</time></trkpt><trkpt lat="58.16025667" lon="14.57116667"><ele>132.0</ele><time>2016-06-18T04:35:08.318Z</time></trkpt><trkpt lat="58.16025667" lon="14.57116667"><ele>132.0</ele><time>2016-06-18T04:35:09.306Z</time></trkpt><trkpt lat="58.16009" lon="14.57109667"><ele>132.0</ele><time>2016-06-18T04:35:10.328Z</time></trkpt><trkpt lat="58.16000333" lon="14.57106167"><ele>132.0</ele><time>2016-06-18T04:35:11.308Z</time></trkpt><trkpt lat="58.16000333" lon="14.57106167"><ele>132.0</ele><time>2016-06-18T04:35:12.297Z</time></trkpt><trkpt lat="58.15982333" lon="14.57099667"><ele>131.0</ele><time>2016-06-18T04:35:13.287Z</time></trkpt><trkpt lat="58.15973167" lon="14.57096167"><ele>131.0</ele><time>2016-06-18T04:35:14.312Z</time></trkpt><trkpt lat="58.15963833" lon="14.57093"><ele>131.0</ele><time>2016-06-18T04:35:15.309Z</time></trkpt><trkpt lat="58.15963833" lon="14.57093"><ele>131.0</ele><time>2016-06-18T04:35:16.322Z</time></trkpt><trkpt lat="58.15945667" lon="14.570875"><ele>130.0</ele><time>2016-06-18T04:35:17.288Z</time></trkpt><trkpt lat="58.15945667" lon="14.570875"><ele>130.0</ele><time>2016-06-18T04:35:18.313Z</time></trkpt><trkpt lat="58.159275" lon="14.57082333"><ele>130.0</ele><time>2016-06-18T04:35:19.284Z</time></trkpt><trkpt lat="58.159275" lon="14.57082333"><ele>130.0</ele><time>2016-06-18T04:35:20.314Z</time></trkpt><trkpt lat="58.15910333" lon="14.57077167"><ele>130.0</ele><time>2016-06-18T04:35:21.321Z</time></trkpt><trkpt lat="58.15902333" lon="14.57074833"><ele>130.0</ele><time>2016-06-18T04:35:22.305Z</time></trkpt><trkpt lat="58.15902333" lon="14.57074833"><ele>130.0</ele><time>2016-06-18T04:35:23.310Z</time></trkpt><trkpt lat="58.15886667" lon="14.570695"><ele>130.0</ele><time>2016-06-18T04:35:24.285Z</time></trkpt><trkpt lat="58.15886667" lon="14.570695"><ele>130.0</ele><time>2016-06-18T04:35:25.321Z</time></trkpt><trkpt lat="58.15871333" lon="14.57064667"><ele>130.0</ele><time>2016-06-18T04:35:26.288Z</time></trkpt><trkpt lat="58.15871333" lon="14.57064667"><ele>130.0</ele><time>2016-06-18T04:35:27.303Z</time></trkpt><trkpt lat="58.15856" lon="14.57060833"><ele>129.0</ele><time>2016-06-18T04:35:28.298Z</time></trkpt><trkpt lat="58.15856" lon="14.57060833"><ele>129.0</ele><time>2016-06-18T04:35:29.303Z</time></trkpt><trkpt lat="58.15841167" lon="14.57055667"><ele>129.0</ele><time>2016-06-18T04:35:30.319Z</time></trkpt><trkpt lat="58.158335" lon="14.57053"><ele>129.0</ele><time>2016-06-18T04:35:31.308Z</time></trkpt><trkpt lat="58.158335" lon="14.57053"><ele>129.0</ele><time>2016-06-18T04:35:32.318Z</time></trkpt><trkpt lat="58.15817333" lon="14.57047"><ele>129.0</ele><time>2016-06-18T04:35:33.309Z</time></trkpt><trkpt lat="58.15817333" lon="14.57047"><ele>129.0</ele><time>2016-06-18T04:35:34.288Z</time></trkpt><trkpt lat="58.158015" lon="14.57041833"><ele>129.0</ele><time>2016-06-18T04:35:35.293Z</time></trkpt><trkpt lat="58.158015" lon="14.57041833"><ele>129.0</ele><time>2016-06-18T04:35:36.304Z</time></trkpt><trkpt lat="58.15785833" lon="14.570365"><ele>129.0</ele><time>2016-06-18T04:35:37.314Z</time></trkpt><trkpt lat="58.157775" lon="14.57033167"><ele>129.0</ele><time>2016-06-18T04:35:38.299Z</time></trkpt><trkpt lat="58.157775" lon="14.57033167"><ele>129.0</ele><time>2016-06-18T04:35:39.305Z</time></trkpt><trkpt lat="58.157605" lon="14.570275"><ele>129.0</ele><time>2016-06-18T04:35:40.315Z</time></trkpt><trkpt lat="58.15752" lon="14.570245"><ele>129.0</ele><time>2016-06-18T04:35:41.318Z</time></trkpt><trkpt lat="58.15752" lon="14.570245"><ele>129.0</ele><time>2016-06-18T04:35:42.315Z</time></trkpt><trkpt lat="58.15734833" lon="14.57019833"><ele>128.0</ele><time>2016-06-18T04:35:43.288Z</time></trkpt><trkpt lat="58.15734833" lon="14.57019833"><ele>128.0</ele><time>2016-06-18T04:35:44.303Z</time></trkpt><trkpt lat="58.15717833" lon="14.57014333"><ele>128.0</ele><time>2016-06-18T04:35:45.315Z</time></trkpt><trkpt lat="58.15717833" lon="14.57014333"><ele>128.0</ele><time>2016-06-18T04:35:46.320Z</time></trkpt><trkpt lat="58.15700333" lon="14.57008333"><ele>128.0</ele><time>2016-06-18T04:35:47.286Z</time></trkpt><trkpt lat="58.15691833" lon="14.57005667"><ele>128.0</ele><time>2016-06-18T04:35:48.283Z</time></trkpt><trkpt lat="58.15684" lon="14.57003667"><ele>128.0</ele><time>2016-06-18T04:35:49.308Z</time></trkpt><trkpt lat="58.15684" lon="14.57003667"><ele>128.0</ele><time>2016-06-18T04:35:50.308Z</time></trkpt><trkpt lat="58.156675" lon="14.569985"><ele>128.0</ele><time>2016-06-18T04:35:51.316Z</time></trkpt><trkpt lat="58.15659333" lon="14.56995667"><ele>128.0</ele><time>2016-06-18T04:35:52.300Z</time></trkpt><trkpt lat="58.15651667" lon="14.56992833"><ele>127.0</ele><time>2016-06-18T04:35:53.292Z</time></trkpt><trkpt lat="58.15651667" lon="14.56992833"><ele>127.0</ele><time>2016-06-18T04:35:54.315Z</time></trkpt><trkpt lat="58.15636833" lon="14.56987667"><ele>127.0</ele><time>2016-06-18T04:35:55.286Z</time></trkpt><trkpt lat="58.15629167" lon="14.56984833"><ele>127.0</ele><time>2016-06-18T04:35:56.318Z</time></trkpt><trkpt lat="58.15629167" lon="14.56984833"><ele>127.0</ele><time>2016-06-18T04:35:57.306Z</time></trkpt><trkpt lat="58.15613833" lon="14.56980333"><ele>127.0</ele><time>2016-06-18T04:35:58.313Z</time></trkpt><trkpt lat="58.15613833" lon="14.56980333"><ele>127.0</ele><time>2016-06-18T04:35:59.321Z</time></trkpt><trkpt lat="58.15598667" lon="14.56972667"><ele>127.0</ele><time>2016-06-18T04:36:00.314Z</time></trkpt><trkpt lat="58.15598667" lon="14.56972667"><ele>127.0</ele><time>2016-06-18T04:36:01.289Z</time></trkpt><trkpt lat="58.15584333" lon="14.569655"><ele>127.0</ele><time>2016-06-18T04:36:02.296Z</time></trkpt><trkpt lat="58.15576" lon="14.56963833"><ele>127.0</ele><time>2016-06-18T04:36:03.303Z</time></trkpt><trkpt lat="58.15576" lon="14.56963833"><ele>127.0</ele><time>2016-06-18T04:36:04.282Z</time></trkpt><trkpt lat="58.15560833" lon="14.5696"><ele>127.0</ele><time>2016-06-18T04:36:05.289Z</time></trkpt><trkpt lat="58.15553333" lon="14.569585"><ele>127.0</ele><time>2016-06-18T04:36:06.316Z</time></trkpt><trkpt lat="58.15553333" lon="14.569585"><ele>127.0</ele><time>2016-06-18T04:36:07.296Z</time></trkpt><trkpt lat="58.155385" lon="14.56955167"><ele>128.0</ele><time>2016-06-18T04:36:08.306Z</time></trkpt><trkpt lat="58.155385" lon="14.56955167"><ele>128.0</ele><time>2016-06-18T04:36:09.286Z</time></trkpt><trkpt lat="58.155245" lon="14.569505"><ele>128.0</ele><time>2016-06-18T04:36:10.302Z</time></trkpt><trkpt lat="58.155245" lon="14.569505"><ele>128.0</ele><time>2016-06-18T04:36:11.317Z</time></trkpt><trkpt lat="58.15510667" lon="14.56945"><ele>128.0</ele><time>2016-06-18T04:36:12.304Z</time></trkpt><trkpt lat="58.15503333" lon="14.56942333"><ele>128.0</ele><time>2016-06-18T04:36:13.298Z</time></trkpt><trkpt lat="58.15496" lon="14.56940667"><ele>129.0</ele><time>2016-06-18T04:36:14.309Z</time></trkpt><trkpt lat="58.15496" lon="14.56940667"><ele>129.0</ele><time>2016-06-18T04:36:15.292Z</time></trkpt><trkpt lat="58.15482167" lon="14.56936"><ele>129.0</ele><time>2016-06-18T04:36:16.302Z</time></trkpt><trkpt lat="58.15482167" lon="14.56936"><ele>129.0</ele><time>2016-06-18T04:36:17.315Z</time></trkpt><trkpt lat="58.15468667" lon="14.56931"><ele>130.0</ele><time>2016-06-18T04:36:18.321Z</time></trkpt><trkpt lat="58.154625" lon="14.56928667"><ele>130.0</ele><time>2016-06-18T04:36:19.325Z</time></trkpt><trkpt lat="58.154565" lon="14.56926167"><ele>130.0</ele><time>2016-06-18T04:36:20.298Z</time></trkpt><trkpt lat="58.154565" lon="14.56926167"><ele>130.0</ele><time>2016-06-18T04:36:21.312Z</time></trkpt><trkpt lat="58.15444667" lon="14.56922333"><ele>130.0</ele><time>2016-06-18T04:36:22.319Z</time></trkpt><trkpt lat="58.15444667" lon="14.56922333"><ele>130.0</ele><time>2016-06-18T04:36:23.292Z</time></trkpt><trkpt lat="58.15432667" lon="14.569185"><ele>131.0</ele><time>2016-06-18T04:36:24.298Z</time></trkpt><trkpt lat="58.15432667" lon="14.569185"><ele>131.0</ele><time>2016-06-18T04:36:25.306Z</time></trkpt><trkpt lat="58.154205" lon="14.569145"><ele>131.0</ele><time>2016-06-18T04:36:26.312Z</time></trkpt><trkpt lat="58.15414" lon="14.56912833"><ele>131.0</ele><time>2016-06-18T04:36:27.296Z</time></trkpt><trkpt lat="58.15407667" lon="14.56910667"><ele>131.0</ele><time>2016-06-18T04:36:28.308Z</time></trkpt><trkpt lat="58.15407667" lon="14.56910667"><ele>131.0</ele><time>2016-06-18T04:36:29.319Z</time></trkpt><trkpt lat="58.15394" lon="14.56907"><ele>132.0</ele><time>2016-06-18T04:36:30.285Z</time></trkpt><trkpt lat="58.15394" lon="14.56907"><ele>132.0</ele><time>2016-06-18T04:36:31.292Z</time></trkpt><trkpt lat="58.15381667" lon="14.569015"><ele>132.0</ele><time>2016-06-18T04:36:32.284Z</time></trkpt><trkpt lat="58.15381667" lon="14.569015"><ele>132.0</ele><time>2016-06-18T04:36:33.294Z</time></trkpt><trkpt lat="58.15369" lon="14.56896833"><ele>132.0</ele><time>2016-06-18T04:36:34.308Z</time></trkpt><trkpt lat="58.15369" lon="14.56896833"><ele>132.0</ele><time>2016-06-18T04:36:35.291Z</time></trkpt><trkpt lat="58.15355667" lon="14.56892"><ele>133.0</ele><time>2016-06-18T04:36:36.318Z</time></trkpt><trkpt lat="58.15355667" lon="14.56892"><ele>133.0</ele><time>2016-06-18T04:36:37.313Z</time></trkpt><trkpt lat="58.153415" lon="14.56886667"><ele>133.0</ele><time>2016-06-18T04:36:38.320Z</time></trkpt><trkpt lat="58.153415" lon="14.56886667"><ele>133.0</ele><time>2016-06-18T04:36:39.292Z</time></trkpt><trkpt lat="58.15327333" lon="14.56881667"><ele>133.0</ele><time>2016-06-18T04:36:40.284Z</time></trkpt><trkpt lat="58.15327333" lon="14.56881667"><ele>133.0</ele><time>2016-06-18T04:36:41.306Z</time></trkpt><trkpt lat="58.15312" lon="14.56877333"><ele>133.0</ele><time>2016-06-18T04:36:42.315Z</time></trkpt><trkpt lat="58.15304333" lon="14.56875167"><ele>133.0</ele><time>2016-06-18T04:36:43.314Z</time></trkpt><trkpt lat="58.15304333" lon="14.56875167"><ele>133.0</ele><time>2016-06-18T04:36:44.287Z</time></trkpt><trkpt lat="58.15289333" lon="14.56870167"><ele>133.0</ele><time>2016-06-18T04:36:45.302Z</time></trkpt><trkpt lat="58.15281333" lon="14.56867333"><ele>133.0</ele><time>2016-06-18T04:36:46.282Z</time></trkpt><trkpt lat="58.15281333" lon="14.56867333"><ele>133.0</ele><time>2016-06-18T04:36:47.309Z</time></trkpt><trkpt lat="58.15264833" lon="14.56861833"><ele>133.0</ele><time>2016-06-18T04:36:48.315Z</time></trkpt><trkpt lat="58.15264833" lon="14.56861833"><ele>133.0</ele><time>2016-06-18T04:36:49.321Z</time></trkpt><trkpt lat="58.15246833" lon="14.56857"><ele>133.0</ele><time>2016-06-18T04:36:50.312Z</time></trkpt><trkpt lat="58.15246833" lon="14.56857"><ele>133.0</ele><time>2016-06-18T04:36:51.282Z</time></trkpt><trkpt lat="58.152285" lon="14.56853"><ele>133.0</ele><time>2016-06-18T04:36:52.289Z</time></trkpt><trkpt lat="58.152285" lon="14.56853"><ele>133.0</ele><time>2016-06-18T04:36:53.309Z</time></trkpt><trkpt lat="58.152095" lon="14.56849"><ele>133.0</ele><time>2016-06-18T04:36:54.285Z</time></trkpt><trkpt lat="58.152095" lon="14.56849"><ele>133.0</ele><time>2016-06-18T04:36:55.283Z</time></trkpt><trkpt lat="58.15190333" lon="14.56846"><ele>133.0</ele><time>2016-06-18T04:36:56.308Z</time></trkpt><trkpt lat="58.15180833" lon="14.568445"><ele>133.0</ele><time>2016-06-18T04:36:57.308Z</time></trkpt><trkpt lat="58.15171333" lon="14.56843333"><ele>133.0</ele><time>2016-06-18T04:36:58.304Z</time></trkpt><trkpt lat="58.15171333" lon="14.56843333"><ele>133.0</ele><time>2016-06-18T04:36:59.289Z</time></trkpt><trkpt lat="58.15152167" lon="14.56842333"><ele>133.0</ele><time>2016-06-18T04:37:00.296Z</time></trkpt><trkpt lat="58.151425" lon="14.56842"><ele>133.0</ele><time>2016-06-18T04:37:01.309Z</time></trkpt><trkpt lat="58.151425" lon="14.56842"><ele>133.0</ele><time>2016-06-18T04:37:02.314Z</time></trkpt><trkpt lat="58.151235" lon="14.568415"><ele>132.0</ele><time>2016-06-18T04:37:03.321Z</time></trkpt><trkpt lat="58.151235" lon="14.568415"><ele>132.0</ele><time>2016-06-18T04:37:04.288Z</time></trkpt><trkpt lat="58.15104" lon="14.568415"><ele>132.0</ele><time>2016-06-18T04:37:05.288Z</time></trkpt><trkpt lat="58.15104" lon="14.568415"><ele>132.0</ele><time>2016-06-18T04:37:06.295Z</time></trkpt><trkpt lat="58.15084333" lon="14.56842167"><ele>132.0</ele><time>2016-06-18T04:37:07.306Z</time></trkpt><trkpt lat="58.15074333" lon="14.56843"><ele>133.0</ele><time>2016-06-18T04:37:08.289Z</time></trkpt><trkpt lat="58.150645" lon="14.56844"><ele>133.0</ele><time>2016-06-18T04:37:09.325Z</time></trkpt><trkpt lat="58.150645" lon="14.56844"><ele>133.0</ele><time>2016-06-18T04:37:10.310Z</time></trkpt><trkpt lat="58.15044667" lon="14.56845667"><ele>133.0</ele><time>2016-06-18T04:37:11.288Z</time></trkpt><trkpt lat="58.15034667" lon="14.56847"><ele>133.0</ele><time>2016-06-18T04:37:12.294Z</time></trkpt><trkpt lat="58.15034667" lon="14.56847"><ele>133.0</ele><time>2016-06-18T04:37:13.303Z</time></trkpt><trkpt lat="58.15014667" lon="14.568495"><ele>133.0</ele><time>2016-06-18T04:37:14.310Z</time></trkpt><trkpt lat="58.15004667" lon="14.56850667"><ele>133.0</ele><time>2016-06-18T04:37:15.318Z</time></trkpt><trkpt lat="58.15004667" lon="14.56850667"><ele>133.0</ele><time>2016-06-18T04:37:16.317Z</time></trkpt><trkpt lat="58.14985167" lon="14.56853333"><ele>133.0</ele><time>2016-06-18T04:37:17.284Z</time></trkpt><trkpt lat="58.14985167" lon="14.56853333"><ele>133.0</ele><time>2016-06-18T04:37:18.302Z</time></trkpt><trkpt lat="58.14966" lon="14.56856"><ele>133.0</ele><time>2016-06-18T04:37:19.306Z</time></trkpt><trkpt lat="58.14966" lon="14.56856"><ele>133.0</ele><time>2016-06-18T04:37:20.314Z</time></trkpt><trkpt lat="58.14947167" lon="14.56858333"><ele>134.0</ele><time>2016-06-18T04:37:21.320Z</time></trkpt><trkpt lat="58.14937667" lon="14.568595"><ele>134.0</ele><time>2016-06-18T04:37:22.316Z</time></trkpt><trkpt lat="58.14937667" lon="14.568595"><ele>134.0</ele><time>2016-06-18T04:37:23.290Z</time></trkpt><trkpt lat="58.14919" lon="14.56862"><ele>134.0</ele><time>2016-06-18T04:37:24.314Z</time></trkpt><trkpt lat="58.14909833" lon="14.56863333"><ele>134.0</ele><time>2016-06-18T04:37:25.288Z</time></trkpt><trkpt lat="58.149005" lon="14.56864667"><ele>134.0</ele><time>2016-06-18T04:37:26.308Z</time></trkpt><trkpt lat="58.149005" lon="14.56864667"><ele>134.0</ele><time>2016-06-18T04:37:27.289Z</time></trkpt><trkpt lat="58.14882" lon="14.56867833"><ele>134.0</ele><time>2016-06-18T04:37:28.308Z</time></trkpt><trkpt lat="58.14872667" lon="14.56869333"><ele>135.0</ele><time>2016-06-18T04:37:29.314Z</time></trkpt><trkpt lat="58.14872667" lon="14.56869333"><ele>135.0</ele><time>2016-06-18T04:37:30.304Z</time></trkpt><trkpt lat="58.14853833" lon="14.56871667"><ele>135.0</ele><time>2016-06-18T04:37:31.312Z</time></trkpt><trkpt lat="58.148445" lon="14.56872833"><ele>135.0</ele><time>2016-06-18T04:37:32.288Z</time></trkpt><trkpt lat="58.148445" lon="14.56872833"><ele>135.0</ele><time>2016-06-18T04:37:33.308Z</time></trkpt><trkpt lat="58.14825333" lon="14.568755"><ele>134.0</ele><time>2016-06-18T04:37:34.282Z</time></trkpt><trkpt lat="58.14825333" lon="14.568755"><ele>134.0</ele><time>2016-06-18T04:37:35.287Z</time></trkpt><trkpt lat="58.14806" lon="14.56878167"><ele>134.0</ele><time>2016-06-18T04:37:36.282Z</time></trkpt><trkpt lat="58.14806" lon="14.56878167"><ele>134.0</ele><time>2016-06-18T04:37:37.297Z</time></trkpt><trkpt lat="58.14787" lon="14.56880667"><ele>134.0</ele><time>2016-06-18T04:37:38.305Z</time></trkpt><trkpt lat="58.14787" lon="14.56880667"><ele>134.0</ele><time>2016-06-18T04:37:39.286Z</time></trkpt><trkpt lat="58.147685" lon="14.56883"><ele>134.0</ele><time>2016-06-18T04:37:40.313Z</time></trkpt><trkpt lat="58.147685" lon="14.56883"><ele>134.0</ele><time>2016-06-18T04:37:41.318Z</time></trkpt><trkpt lat="58.14751" lon="14.56885167"><ele>134.0</ele><time>2016-06-18T04:37:42.285Z</time></trkpt><trkpt lat="58.14742333" lon="14.568865"><ele>134.0</ele><time>2016-06-18T04:37:43.305Z</time></trkpt><trkpt lat="58.14742333" lon="14.568865"><ele>134.0</ele><time>2016-06-18T04:37:44.287Z</time></trkpt><trkpt lat="58.147255" lon="14.56888667"><ele>134.0</ele><time>2016-06-18T04:37:45.295Z</time></trkpt><trkpt lat="58.14717167" lon="14.56889833"><ele>134.0</ele><time>2016-06-18T04:37:46.298Z</time></trkpt><trkpt lat="58.14717167" lon="14.56889833"><ele>134.0</ele><time>2016-06-18T04:37:47.321Z</time></trkpt><trkpt lat="58.147005" lon="14.56892333"><ele>133.0</ele><time>2016-06-18T04:37:48.287Z</time></trkpt><trkpt lat="58.147005" lon="14.56892333"><ele>133.0</ele><time>2016-06-18T04:37:49.297Z</time></trkpt><trkpt lat="58.146835" lon="14.56894167"><ele>133.0</ele><time>2016-06-18T04:37:50.318Z</time></trkpt><trkpt lat="58.146835" lon="14.56894167"><ele>133.0</ele><time>2016-06-18T04:37:51.296Z</time></trkpt><trkpt lat="58.14666333" lon="14.56895167"><ele>133.0</ele><time>2016-06-18T04:37:52.308Z</time></trkpt><trkpt lat="58.14657667" lon="14.568955"><ele>133.0</ele><time>2016-06-18T04:37:53.319Z</time></trkpt><trkpt lat="58.14657667" lon="14.568955"><ele>133.0</ele><time>2016-06-18T04:37:54.287Z</time></trkpt><trkpt lat="58.1464" lon="14.56896167"><ele>133.0</ele><time>2016-06-18T04:37:55.286Z</time></trkpt><trkpt lat="58.14631167" lon="14.56896333"><ele>133.0</ele><time>2016-06-18T04:37:56.282Z</time></trkpt><trkpt lat="58.14631167" lon="14.56896333"><ele>133.0</ele><time>2016-06-18T04:37:57.288Z</time></trkpt><trkpt lat="58.14614" lon="14.568965"><ele>133.0</ele><time>2016-06-18T04:37:58.307Z</time></trkpt><trkpt lat="58.14605333" lon="14.56896667"><ele>133.0</ele><time>2016-06-18T04:37:59.310Z</time></trkpt><trkpt lat="58.14605333" lon="14.56896667"><ele>133.0</ele><time>2016-06-18T04:38:00.291Z</time></trkpt><trkpt lat="58.145885" lon="14.568965"><ele>133.0</ele><time>2016-06-18T04:38:01.315Z</time></trkpt><trkpt lat="58.14580167" lon="14.56896167"><ele>132.0</ele><time>2016-06-18T04:38:02.287Z</time></trkpt><trkpt lat="58.14580167" lon="14.56896167"><ele>132.0</ele><time>2016-06-18T04:38:03.307Z</time></trkpt><trkpt lat="58.145635" lon="14.56894833"><ele>132.0</ele><time>2016-06-18T04:38:04.293Z</time></trkpt><trkpt lat="58.145635" lon="14.56894833"><ele>132.0</ele><time>2016-06-18T04:38:05.298Z</time></trkpt><trkpt lat="58.14546333" lon="14.56892833"><ele>132.0</ele><time>2016-06-18T04:38:06.305Z</time></trkpt><trkpt lat="58.14537833" lon="14.56891667"><ele>132.0</ele><time>2016-06-18T04:38:07.292Z</time></trkpt><trkpt lat="58.14529167" lon="14.568905"><ele>132.0</ele><time>2016-06-18T04:38:08.298Z</time></trkpt><trkpt lat="58.14529167" lon="14.568905"><ele>132.0</ele><time>2016-06-18T04:38:09.307Z</time></trkpt><trkpt lat="58.145115" lon="14.56888"><ele>132.0</ele><time>2016-06-18T04:38:10.315Z</time></trkpt><trkpt lat="58.145115" lon="14.56888"><ele>132.0</ele><time>2016-06-18T04:38:11.300Z</time></trkpt><trkpt lat="58.14493667" lon="14.56884667"><ele>131.0</ele><time>2016-06-18T04:38:12.315Z</time></trkpt><trkpt lat="58.14484667" lon="14.56882333"><ele>131.0</ele><time>2016-06-18T04:38:13.282Z</time></trkpt><trkpt lat="58.14484667" lon="14.56882333"><ele>131.0</ele><time>2016-06-18T04:38:14.291Z</time></trkpt><trkpt lat="58.14466333" lon="14.568775"><ele>131.0</ele><time>2016-06-18T04:38:15.308Z</time></trkpt><trkpt lat="58.14466333" lon="14.568775"><ele>131.0</ele><time>2016-06-18T04:38:16.292Z</time></trkpt><trkpt lat="58.14447833" lon="14.56873333"><ele>130.0</ele><time>2016-06-18T04:38:17.320Z</time></trkpt><trkpt lat="58.14447833" lon="14.56873333"><ele>130.0</ele><time>2016-06-18T04:38:18.308Z</time></trkpt><trkpt lat="58.14429667" lon="14.56869167"><ele>130.0</ele><time>2016-06-18T04:38:19.315Z</time></trkpt><trkpt lat="58.14429667" lon="14.56869167"><ele>130.0</ele><time>2016-06-18T04:38:20.291Z</time></trkpt><trkpt lat="58.144115" lon="14.56864"><ele>129.0</ele><time>2016-06-18T04:38:21.288Z</time></trkpt><trkpt lat="58.144115" lon="14.56864"><ele>129.0</ele><time>2016-06-18T04:38:22.309Z</time></trkpt><trkpt lat="58.14393333" lon="14.56859667"><ele>129.0</ele><time>2016-06-18T04:38:23.317Z</time></trkpt><trkpt lat="58.14384167" lon="14.56857333"><ele>129.0</ele><time>2016-06-18T04:38:24.285Z</time></trkpt><trkpt lat="58.14384167" lon="14.56857333"><ele>129.0</ele><time>2016-06-18T04:38:25.290Z</time></trkpt><trkpt lat="58.14365333" lon="14.568525"><ele>128.0</ele><time>2016-06-18T04:38:26.297Z</time></trkpt><trkpt lat="58.14365333" lon="14.568525"><ele>128.0</ele><time>2016-06-18T04:38:27.303Z</time></trkpt><trkpt lat="58.14346667" lon="14.56847833"><ele>128.0</ele><time>2016-06-18T04:38:28.289Z</time></trkpt><trkpt lat="58.14337" lon="14.568455"><ele>128.0</ele><time>2016-06-18T04:38:29.314Z</time></trkpt><trkpt lat="58.14337" lon="14.568455"><ele>128.0</ele><time>2016-06-18T04:38:30.291Z</time></trkpt><trkpt lat="58.14317167" lon="14.56841333"><ele>127.0</ele><time>2016-06-18T04:38:31.319Z</time></trkpt><trkpt lat="58.14307167" lon="14.568395"><ele>127.0</ele><time>2016-06-18T04:38:32.289Z</time></trkpt><trkpt lat="58.14307167" lon="14.568395"><ele>127.0</ele><time>2016-06-18T04:38:33.321Z</time></trkpt><trkpt lat="58.14287667" lon="14.568355"><ele>127.0</ele><time>2016-06-18T04:38:34.300Z</time></trkpt><trkpt lat="58.14287667" lon="14.568355"><ele>127.0</ele><time>2016-06-18T04:38:35.317Z</time></trkpt><trkpt lat="58.14268" lon="14.568305"><ele>126.0</ele><time>2016-06-18T04:38:36.284Z</time></trkpt><trkpt lat="58.14258167" lon="14.568285"><ele>126.0</ele><time>2016-06-18T04:38:37.292Z</time></trkpt><trkpt lat="58.14258167" lon="14.568285"><ele>126.0</ele><time>2016-06-18T04:38:38.305Z</time></trkpt><trkpt lat="58.142385" lon="14.56824167"><ele>125.0</ele><time>2016-06-18T04:38:39.312Z</time></trkpt><trkpt lat="58.142385" lon="14.56824167"><ele>125.0</ele><time>2016-06-18T04:38:40.292Z</time></trkpt><trkpt lat="58.14219" lon="14.56820167"><ele>125.0</ele><time>2016-06-18T04:38:41.306Z</time></trkpt><trkpt lat="58.14219" lon="14.56820167"><ele>125.0</ele><time>2016-06-18T04:38:42.301Z</time></trkpt><trkpt lat="58.14199167" lon="14.56815667"><ele>124.0</ele><time>2016-06-18T04:38:43.310Z</time></trkpt><trkpt lat="58.14189667" lon="14.56813667"><ele>124.0</ele><time>2016-06-18T04:38:44.303Z</time></trkpt><trkpt lat="58.14189667" lon="14.56813667"><ele>124.0</ele><time>2016-06-18T04:38:45.315Z</time></trkpt><trkpt lat="58.14171333" lon="14.56809333"><ele>124.0</ele><time>2016-06-18T04:38:46.308Z</time></trkpt><trkpt lat="58.14171333" lon="14.56809333"><ele>124.0</ele><time>2016-06-18T04:38:47.287Z</time></trkpt><trkpt lat="58.14152667" lon="14.56803167"><ele>125.0</ele><time>2016-06-18T04:38:48.294Z</time></trkpt><trkpt lat="58.14152667" lon="14.56803167"><ele>125.0</ele><time>2016-06-18T04:38:49.304Z</time></trkpt><trkpt lat="58.14134167" lon="14.56797833"><ele>126.0</ele><time>2016-06-18T04:38:50.319Z</time></trkpt><trkpt lat="58.14134167" lon="14.56797833"><ele>126.0</ele><time>2016-06-18T04:38:51.284Z</time></trkpt><trkpt lat="58.14116333" lon="14.567935"><ele>127.0</ele><time>2016-06-18T04:38:52.291Z</time></trkpt><trkpt lat="58.141075" lon="14.567915"><ele>127.0</ele><time>2016-06-18T04:38:53.308Z</time></trkpt><trkpt lat="58.141075" lon="14.567915"><ele>127.0</ele><time>2016-06-18T04:38:54.313Z</time></trkpt><trkpt lat="58.14090167" lon="14.567875"><ele>128.0</ele><time>2016-06-18T04:38:55.294Z</time></trkpt><trkpt lat="58.14081333" lon="14.56785667"><ele>128.0</ele><time>2016-06-18T04:38:56.306Z</time></trkpt><trkpt lat="58.14081333" lon="14.56785667"><ele>128.0</ele><time>2016-06-18T04:38:57.288Z</time></trkpt><trkpt lat="58.14064167" lon="14.56782"><ele>128.0</ele><time>2016-06-18T04:38:58.294Z</time></trkpt><trkpt lat="58.14064167" lon="14.56782"><ele>128.0</ele><time>2016-06-18T04:38:59.315Z</time></trkpt><trkpt lat="58.14046833" lon="14.567785"><ele>129.0</ele><time>2016-06-18T04:39:00.301Z</time></trkpt><trkpt lat="58.14046833" lon="14.567785"><ele>129.0</ele><time>2016-06-18T04:39:01.287Z</time></trkpt><trkpt lat="58.14028833" lon="14.56774833"><ele>129.0</ele><time>2016-06-18T04:39:02.295Z</time></trkpt><trkpt lat="58.14028833" lon="14.56774833"><ele>129.0</ele><time>2016-06-18T04:39:03.314Z</time></trkpt><trkpt lat="58.140105" lon="14.56770667"><ele>129.0</ele><time>2016-06-18T04:39:04.302Z</time></trkpt><trkpt lat="58.140105" lon="14.56770667"><ele>129.0</ele><time>2016-06-18T04:39:05.319Z</time></trkpt><trkpt lat="58.13992" lon="14.56766"><ele>130.0</ele><time>2016-06-18T04:39:06.285Z</time></trkpt><trkpt lat="58.13982833" lon="14.56763667"><ele>130.0</ele><time>2016-06-18T04:39:07.327Z</time></trkpt><trkpt lat="58.13982833" lon="14.56763667"><ele>130.0</ele><time>2016-06-18T04:39:08.302Z</time></trkpt><trkpt lat="58.13964167" lon="14.56758667"><ele>130.0</ele><time>2016-06-18T04:39:09.309Z</time></trkpt><trkpt lat="58.13964167" lon="14.56758667"><ele>130.0</ele><time>2016-06-18T04:39:10.289Z</time></trkpt><trkpt lat="58.13946167" lon="14.56752667"><ele>130.0</ele><time>2016-06-18T04:39:11.304Z</time></trkpt><trkpt lat="58.13937333" lon="14.567495"><ele>131.0</ele><time>2016-06-18T04:39:12.312Z</time></trkpt><trkpt lat="58.13937333" lon="14.567495"><ele>131.0</ele><time>2016-06-18T04:39:13.288Z</time></trkpt><trkpt lat="58.139205" lon="14.56742"><ele>131.0</ele><time>2016-06-18T04:39:14.295Z</time></trkpt><trkpt lat="58.139205" lon="14.56742"><ele>131.0</ele><time>2016-06-18T04:39:15.313Z</time></trkpt><trkpt lat="58.139045" lon="14.567335"><ele>132.0</ele><time>2016-06-18T04:39:16.315Z</time></trkpt><trkpt lat="58.139045" lon="14.567335"><ele>132.0</ele><time>2016-06-18T04:39:17.282Z</time></trkpt><trkpt lat="58.13889333" lon="14.56724833"><ele>132.0</ele><time>2016-06-18T04:39:18.289Z</time></trkpt><trkpt lat="58.13889333" lon="14.56724833"><ele>132.0</ele><time>2016-06-18T04:39:19.315Z</time></trkpt><trkpt lat="58.13874833" lon="14.56715667"><ele>133.0</ele><time>2016-06-18T04:39:20.284Z</time></trkpt><trkpt lat="58.13874833" lon="14.56715667"><ele>133.0</ele><time>2016-06-18T04:39:21.289Z</time></trkpt><trkpt lat="58.13860667" lon="14.56705667"><ele>133.0</ele><time>2016-06-18T04:39:22.295Z</time></trkpt><trkpt lat="58.13853833" lon="14.56700333"><ele>134.0</ele><time>2016-06-18T04:39:23.288Z</time></trkpt><trkpt lat="58.13853833" lon="14.56700333"><ele>134.0</ele><time>2016-06-18T04:39:24.308Z</time></trkpt><trkpt lat="58.13840167" lon="14.56689333"><ele>134.0</ele><time>2016-06-18T04:39:25.319Z</time></trkpt><trkpt lat="58.13833167" lon="14.566835"><ele>135.0</ele><time>2016-06-18T04:39:26.304Z</time></trkpt><trkpt lat="58.13833167" lon="14.566835"><ele>135.0</ele><time>2016-06-18T04:39:27.282Z</time></trkpt><trkpt lat="58.13820167" lon="14.56672167"><ele>136.0</ele><time>2016-06-18T04:39:28.288Z</time></trkpt><trkpt lat="58.13813833" lon="14.566665"><ele>136.0</ele><time>2016-06-18T04:39:29.308Z</time></trkpt><trkpt lat="58.13807333" lon="14.56660833"><ele>136.0</ele><time>2016-06-18T04:39:30.317Z</time></trkpt><trkpt lat="58.13807333" lon="14.56660833"><ele>136.0</ele><time>2016-06-18T04:39:31.290Z</time></trkpt><trkpt lat="58.13794167" lon="14.56648833"><ele>136.0</ele><time>2016-06-18T04:39:32.304Z</time></trkpt><trkpt lat="58.13794167" lon="14.56648833"><ele>136.0</ele><time>2016-06-18T04:39:33.287Z</time></trkpt><trkpt lat="58.13781" lon="14.56636833"><ele>137.0</ele><time>2016-06-18T04:39:34.305Z</time></trkpt><trkpt lat="58.13781" lon="14.56636833"><ele>137.0</ele><time>2016-06-18T04:39:35.287Z</time></trkpt><trkpt lat="58.137675" lon="14.56624667"><ele>137.0</ele><time>2016-06-18T04:39:36.294Z</time></trkpt><trkpt lat="58.13760667" lon="14.56618833"><ele>137.0</ele><time>2016-06-18T04:39:37.285Z</time></trkpt><trkpt lat="58.13753667" lon="14.566125"><ele>137.0</ele><time>2016-06-18T04:39:38.293Z</time></trkpt><trkpt lat="58.13753667" lon="14.566125"><ele>137.0</ele><time>2016-06-18T04:39:39.309Z</time></trkpt><trkpt lat="58.137395" lon="14.56599833"><ele>138.0</ele><time>2016-06-18T04:39:40.303Z</time></trkpt><trkpt lat="58.137395" lon="14.56599833"><ele>138.0</ele><time>2016-06-18T04:39:41.315Z</time></trkpt><trkpt lat="58.137255" lon="14.56587333"><ele>138.0</ele><time>2016-06-18T04:39:42.322Z</time></trkpt><trkpt lat="58.13718333" lon="14.56581167"><ele>138.0</ele><time>2016-06-18T04:39:43.316Z</time></trkpt><trkpt lat="58.13718333" lon="14.56581167"><ele>138.0</ele><time>2016-06-18T04:39:44.291Z</time></trkpt><trkpt lat="58.13704333" lon="14.56568667"><ele>138.0</ele><time>2016-06-18T04:39:45.302Z</time></trkpt><trkpt lat="58.13697667" lon="14.56562667"><ele>139.0</ele><time>2016-06-18T04:39:46.318Z</time></trkpt><trkpt lat="58.13697667" lon="14.56562667"><ele>139.0</ele><time>2016-06-18T04:39:47.321Z</time></trkpt><trkpt lat="58.136845" lon="14.56550167"><ele>139.0</ele><time>2016-06-18T04:39:48.287Z</time></trkpt><trkpt lat="58.136775" lon="14.56543833"><ele>139.0</ele><time>2016-06-18T04:39:49.294Z</time></trkpt><trkpt lat="58.136775" lon="14.56543833"><ele>139.0</ele><time>2016-06-18T04:39:50.286Z</time></trkpt><trkpt lat="58.13663667" lon="14.56531833"><ele>139.0</ele><time>2016-06-18T04:39:51.295Z</time></trkpt><trkpt lat="58.13663667" lon="14.56531833"><ele>139.0</ele><time>2016-06-18T04:39:52.304Z</time></trkpt><trkpt lat="58.13649333" lon="14.56519"><ele>139.0</ele><time>2016-06-18T04:39:53.290Z</time></trkpt><trkpt lat="58.13649333" lon="14.56519"><ele>139.0</ele><time>2016-06-18T04:39:54.317Z</time></trkpt><trkpt lat="58.13634333" lon="14.56507"><ele>138.0</ele><time>2016-06-18T04:39:55.288Z</time></trkpt><trkpt lat="58.13626667" lon="14.56500833"><ele>138.0</ele><time>2016-06-18T04:39:56.308Z</time></trkpt><trkpt lat="58.13619" lon="14.564945"><ele>138.0</ele><time>2016-06-18T04:39:57.307Z</time></trkpt><trkpt lat="58.13619" lon="14.564945"><ele>138.0</ele><time>2016-06-18T04:39:58.283Z</time></trkpt><trkpt lat="58.13603667" lon="14.564805"><ele>138.0</ele><time>2016-06-18T04:39:59.284Z</time></trkpt><trkpt lat="58.13595833" lon="14.564725"><ele>137.0</ele><time>2016-06-18T04:40:00.296Z</time></trkpt><trkpt lat="58.13595833" lon="14.564725"><ele>137.0</ele><time>2016-06-18T04:40:01.307Z</time></trkpt><trkpt lat="58.13579833" lon="14.56454833"><ele>136.0</ele><time>2016-06-18T04:40:02.288Z</time></trkpt><trkpt lat="58.13579833" lon="14.56454833"><ele>136.0</ele><time>2016-06-18T04:40:03.319Z</time></trkpt><trkpt lat="58.13564" lon="14.56434667"><ele>136.0</ele><time>2016-06-18T04:40:04.327Z</time></trkpt><trkpt lat="58.13564" lon="14.56434667"><ele>136.0</ele><time>2016-06-18T04:40:05.310Z</time></trkpt><trkpt lat="58.13547833" lon="14.56412167"><ele>135.0</ele><time>2016-06-18T04:40:06.319Z</time></trkpt><trkpt lat="58.13539667" lon="14.56400333"><ele>135.0</ele><time>2016-06-18T04:40:07.314Z</time></trkpt><trkpt lat="58.13539667" lon="14.56400333"><ele>135.0</ele><time>2016-06-18T04:40:08.320Z</time></trkpt><trkpt lat="58.13523167" lon="14.56376333"><ele>134.0</ele><time>2016-06-18T04:40:09.289Z</time></trkpt><trkpt lat="58.13523167" lon="14.56376333"><ele>134.0</ele><time>2016-06-18T04:40:10.315Z</time></trkpt><trkpt lat="58.13505833" lon="14.56351167"><ele>133.0</ele><time>2016-06-18T04:40:11.300Z</time></trkpt><trkpt lat="58.13496833" lon="14.563385"><ele>133.0</ele><time>2016-06-18T04:40:12.298Z</time></trkpt><trkpt lat="58.13488167" lon="14.56326"><ele>132.0</ele><time>2016-06-18T04:40:13.305Z</time></trkpt><trkpt lat="58.13488167" lon="14.56326"><ele>132.0</ele><time>2016-06-18T04:40:14.284Z</time></trkpt><trkpt lat="58.134705" lon="14.56301667"><ele>132.0</ele><time>2016-06-18T04:40:15.298Z</time></trkpt><trkpt lat="58.134705" lon="14.56301667"><ele>132.0</ele><time>2016-06-18T04:40:16.305Z</time></trkpt><trkpt lat="58.13454" lon="14.56277667"><ele>132.0</ele><time>2016-06-18T04:40:17.308Z</time></trkpt><trkpt lat="58.13454" lon="14.56277667"><ele>132.0</ele><time>2016-06-18T04:40:18.290Z</time></trkpt><trkpt lat="58.13437833" lon="14.56253833"><ele>131.0</ele><time>2016-06-18T04:40:19.297Z</time></trkpt><trkpt lat="58.13429667" lon="14.56241833"><ele>131.0</ele><time>2016-06-18T04:40:20.306Z</time></trkpt><trkpt lat="58.13429667" lon="14.56241833"><ele>131.0</ele><time>2016-06-18T04:40:21.283Z</time></trkpt><trkpt lat="58.13413167" lon="14.56217167"><ele>131.0</ele><time>2016-06-18T04:40:22.294Z</time></trkpt><trkpt lat="58.13413167" lon="14.56217167"><ele>131.0</ele><time>2016-06-18T04:40:23.299Z</time></trkpt><trkpt lat="58.13396" lon="14.56191833"><ele>130.0</ele><time>2016-06-18T04:40:24.321Z</time></trkpt><trkpt lat="58.13396" lon="14.56191833"><ele>130.0</ele><time>2016-06-18T04:40:25.282Z</time></trkpt><trkpt lat="58.13378167" lon="14.56166167"><ele>128.0</ele><time>2016-06-18T04:40:26.289Z</time></trkpt><trkpt lat="58.13378167" lon="14.56166167"><ele>128.0</ele><time>2016-06-18T04:40:27.307Z</time></trkpt><trkpt lat="58.13359667" lon="14.561385"><ele>127.0</ele><time>2016-06-18T04:40:28.315Z</time></trkpt><trkpt lat="58.13359667" lon="14.561385"><ele>127.0</ele><time>2016-06-18T04:40:29.288Z</time></trkpt><trkpt lat="58.133415" lon="14.56107"><ele>126.0</ele><time>2016-06-18T04:40:30.295Z</time></trkpt><trkpt lat="58.133415" lon="14.56107"><ele>126.0</ele><time>2016-06-18T04:40:31.315Z</time></trkpt><trkpt lat="58.13324833" lon="14.560695"><ele>124.0</ele><time>2016-06-18T04:40:32.320Z</time></trkpt><trkpt lat="58.13324833" lon="14.560695"><ele>124.0</ele><time>2016-06-18T04:40:33.301Z</time></trkpt><trkpt lat="58.1331" lon="14.560275"><ele>123.0</ele><time>2016-06-18T04:40:34.319Z</time></trkpt><trkpt lat="58.1331" lon="14.560275"><ele>123.0</ele><time>2016-06-18T04:40:35.289Z</time></trkpt><trkpt lat="58.13294667" lon="14.55982667"><ele>121.0</ele><time>2016-06-18T04:40:36.304Z</time></trkpt><trkpt lat="58.13294667" lon="14.55982667"><ele>121.0</ele><time>2016-06-18T04:40:37.291Z</time></trkpt><trkpt lat="58.13278667" lon="14.55935"><ele>119.0</ele><time>2016-06-18T04:40:38.298Z</time></trkpt><trkpt lat="58.13278667" lon="14.55935"><ele>119.0</ele><time>2016-06-18T04:40:39.308Z</time></trkpt><trkpt lat="58.13263333" lon="14.55887333"><ele>117.0</ele><time>2016-06-18T04:40:40.308Z</time></trkpt><trkpt lat="58.13263333" lon="14.55887333"><ele>117.0</ele><time>2016-06-18T04:40:41.309Z</time></trkpt><trkpt lat="58.13247833" lon="14.55841667"><ele>116.0</ele><time>2016-06-18T04:40:42.317Z</time></trkpt><trkpt lat="58.13239667" lon="14.558195"><ele>115.0</ele><time>2016-06-18T04:40:43.308Z</time></trkpt><trkpt lat="58.13239667" lon="14.558195"><ele>115.0</ele><time>2016-06-18T04:40:44.298Z</time></trkpt><trkpt lat="58.13222833" lon="14.55776833"><ele>114.0</ele><time>2016-06-18T04:40:45.310Z</time></trkpt><trkpt lat="58.13222833" lon="14.55776833"><ele>114.0</ele><time>2016-06-18T04:40:46.291Z</time></trkpt><trkpt lat="58.13205333" lon="14.55740333"><ele>113.0</ele><time>2016-06-18T04:40:47.318Z</time></trkpt><trkpt lat="58.13205333" lon="14.55740333"><ele>113.0</ele><time>2016-06-18T04:40:48.299Z</time></trkpt><trkpt lat="58.13186667" lon="14.55710667"><ele>113.0</ele><time>2016-06-18T04:40:49.308Z</time></trkpt><trkpt lat="58.13176833" lon="14.55698333"><ele>112.0</ele><time>2016-06-18T04:40:50.287Z</time></trkpt><trkpt lat="58.13176833" lon="14.55698333"><ele>112.0</ele><time>2016-06-18T04:40:51.303Z</time></trkpt><trkpt lat="58.13157333" lon="14.55677667"><ele>112.0</ele><time>2016-06-18T04:40:52.313Z</time></trkpt><trkpt lat="58.13157333" lon="14.55677667"><ele>112.0</ele><time>2016-06-18T04:40:53.284Z</time></trkpt><trkpt lat="58.13137167" lon="14.55659167"><ele>112.0</ele><time>2016-06-18T04:40:54.285Z</time></trkpt><trkpt lat="58.13137167" lon="14.55659167"><ele>112.0</ele><time>2016-06-18T04:40:55.292Z</time></trkpt><trkpt lat="58.13117" lon="14.55641333"><ele>112.0</ele><time>2016-06-18T04:40:56.298Z</time></trkpt><trkpt lat="58.13117" lon="14.55641333"><ele>112.0</ele><time>2016-06-18T04:40:57.312Z</time></trkpt><trkpt lat="58.13097167" lon="14.55622667"><ele>111.0</ele><time>2016-06-18T04:40:58.308Z</time></trkpt><trkpt lat="58.13097167" lon="14.55622667"><ele>111.0</ele><time>2016-06-18T04:40:59.321Z</time></trkpt><trkpt lat="58.13077667" lon="14.55603333"><ele>111.0</ele><time>2016-06-18T04:41:00.288Z</time></trkpt><trkpt lat="58.13067667" lon="14.55594833"><ele>111.0</ele><time>2016-06-18T04:41:01.307Z</time></trkpt><trkpt lat="58.13067667" lon="14.55594833"><ele>111.0</ele><time>2016-06-18T04:41:02.289Z</time></trkpt><trkpt lat="58.13047167" lon="14.555775"><ele>111.0</ele><time>2016-06-18T04:41:03.295Z</time></trkpt><trkpt lat="58.13047167" lon="14.555775"><ele>111.0</ele><time>2016-06-18T04:41:04.307Z</time></trkpt><trkpt lat="58.13027667" lon="14.55560167"><ele>110.0</ele><time>2016-06-18T04:41:05.287Z</time></trkpt><trkpt lat="58.13027667" lon="14.55560167"><ele>110.0</ele><time>2016-06-18T04:41:06.293Z</time></trkpt><trkpt lat="58.13008667" lon="14.55543667"><ele>110.0</ele><time>2016-06-18T04:41:07.300Z</time></trkpt><trkpt lat="58.12999667" lon="14.55536333"><ele>110.0</ele><time>2016-06-18T04:41:08.300Z</time></trkpt><trkpt lat="58.129915" lon="14.55529"><ele>110.0</ele><time>2016-06-18T04:41:09.283Z</time></trkpt><trkpt lat="58.129915" lon="14.55529"><ele>110.0</ele><time>2016-06-18T04:41:10.304Z</time></trkpt><trkpt lat="58.12976" lon="14.55515667"><ele>111.0</ele><time>2016-06-18T04:41:11.310Z</time></trkpt><trkpt lat="58.129685" lon="14.55509833"><ele>111.0</ele><time>2016-06-18T04:41:12.285Z</time></trkpt><trkpt lat="58.129685" lon="14.55509833"><ele>111.0</ele><time>2016-06-18T04:41:13.310Z</time></trkpt><trkpt lat="58.129545" lon="14.55497833"><ele>112.0</ele><time>2016-06-18T04:41:14.319Z</time></trkpt><trkpt lat="58.129545" lon="14.55497833"><ele>112.0</ele><time>2016-06-18T04:41:15.298Z</time></trkpt><trkpt lat="58.12940667" lon="14.55486333"><ele>112.0</ele><time>2016-06-18T04:41:16.292Z</time></trkpt><trkpt lat="58.12933167" lon="14.55481667"><ele>112.0</ele><time>2016-06-18T04:41:17.303Z</time></trkpt><trkpt lat="58.12933167" lon="14.55481667"><ele>112.0</ele><time>2016-06-18T04:41:18.309Z</time></trkpt><trkpt lat="58.12919333" lon="14.55473833"><ele>114.0</ele><time>2016-06-18T04:41:19.316Z</time></trkpt><trkpt lat="58.12912333" lon="14.554705"><ele>114.0</ele><time>2016-06-18T04:41:20.289Z</time></trkpt><trkpt lat="58.12912333" lon="14.554705"><ele>114.0</ele><time>2016-06-18T04:41:21.312Z</time></trkpt><trkpt lat="58.128985" lon="14.55466167"><ele>115.0</ele><time>2016-06-18T04:41:22.320Z</time></trkpt><trkpt lat="58.12892167" lon="14.55465"><ele>115.0</ele><time>2016-06-18T04:41:23.288Z</time></trkpt><trkpt lat="58.12892167" lon="14.55465"><ele>115.0</ele><time>2016-06-18T04:41:24.288Z</time></trkpt><trkpt lat="58.12879667" lon="14.55463333"><ele>116.0</ele><time>2016-06-18T04:41:25.300Z</time></trkpt><trkpt lat="58.12879667" lon="14.55463333"><ele>116.0</ele><time>2016-06-18T04:41:26.314Z</time></trkpt><trkpt lat="58.12867" lon="14.55462667"><ele>116.0</ele><time>2016-06-18T04:41:27.289Z</time></trkpt><trkpt lat="58.12867" lon="14.55462667"><ele>116.0</ele><time>2016-06-18T04:41:28.306Z</time></trkpt><trkpt lat="58.12854333" lon="14.55462167"><ele>116.0</ele><time>2016-06-18T04:41:29.312Z</time></trkpt><trkpt lat="58.12854333" lon="14.55462167"><ele>116.0</ele><time>2016-06-18T04:41:30.291Z</time></trkpt><trkpt lat="58.12841667" lon="14.55461"><ele>117.0</ele><time>2016-06-18T04:41:31.298Z</time></trkpt><trkpt lat="58.12835333" lon="14.554605"><ele>116.0</ele><time>2016-06-18T04:41:32.288Z</time></trkpt><trkpt lat="58.12835333" lon="14.554605"><ele>116.0</ele><time>2016-06-18T04:41:33.296Z</time></trkpt><trkpt lat="58.128225" lon="14.554585"><ele>116.0</ele><time>2016-06-18T04:41:34.304Z</time></trkpt><trkpt lat="58.12816" lon="14.55456667"><ele>116.0</ele><time>2016-06-18T04:41:35.300Z</time></trkpt><trkpt lat="58.12809667" lon="14.554545"><ele>116.0</ele><time>2016-06-18T04:41:36.316Z</time></trkpt><trkpt lat="58.12809667" lon="14.554545"><ele>116.0</ele><time>2016-06-18T04:41:37.308Z</time></trkpt><trkpt lat="58.12796167" lon="14.554485"><ele>116.0</ele><time>2016-06-18T04:41:38.315Z</time></trkpt><trkpt lat="58.12796167" lon="14.554485"><ele>116.0</ele><time>2016-06-18T04:41:39.293Z</time></trkpt><trkpt lat="58.12781667" lon="14.55441167"><ele>116.0</ele><time>2016-06-18T04:41:40.325Z</time></trkpt><trkpt lat="58.12781667" lon="14.55441167"><ele>116.0</ele><time>2016-06-18T04:41:41.282Z</time></trkpt><trkpt lat="58.12765667" lon="14.55432167"><ele>114.0</ele><time>2016-06-18T04:41:42.289Z</time></trkpt><trkpt lat="58.12757333" lon="14.554275"><ele>114.0</ele><time>2016-06-18T04:41:43.308Z</time></trkpt><trkpt lat="58.12757333" lon="14.554275"><ele>114.0</ele><time>2016-06-18T04:41:44.309Z</time></trkpt><trkpt lat="58.12739833" lon="14.55417167"><ele>113.0</ele><time>2016-06-18T04:41:45.316Z</time></trkpt><trkpt lat="58.12739833" lon="14.55417167"><ele>113.0</ele><time>2016-06-18T04:41:46.293Z</time></trkpt><trkpt lat="58.12721333" lon="14.554065"><ele>112.0</ele><time>2016-06-18T04:41:47.314Z</time></trkpt><trkpt lat="58.12721333" lon="14.554065"><ele>112.0</ele><time>2016-06-18T04:41:48.283Z</time></trkpt><trkpt lat="58.12702167" lon="14.55395667"><ele>111.0</ele><time>2016-06-18T04:41:49.290Z</time></trkpt><trkpt lat="58.12702167" lon="14.55395667"><ele>111.0</ele><time>2016-06-18T04:41:50.315Z</time></trkpt><trkpt lat="58.12682667" lon="14.55385"><ele>110.0</ele><time>2016-06-18T04:41:51.312Z</time></trkpt><trkpt lat="58.12682667" lon="14.55385"><ele>110.0</ele><time>2016-06-18T04:41:52.293Z</time></trkpt><trkpt lat="58.12663" lon="14.55375"><ele>109.0</ele><time>2016-06-18T04:41:53.300Z</time></trkpt><trkpt lat="58.12663" lon="14.55375"><ele>109.0</ele><time>2016-06-18T04:41:54.283Z</time></trkpt><trkpt lat="58.12643167" lon="14.55365667"><ele>109.0</ele><time>2016-06-18T04:41:55.321Z</time></trkpt><trkpt lat="58.12643167" lon="14.55365667"><ele>109.0</ele><time>2016-06-18T04:41:56.305Z</time></trkpt><trkpt lat="58.12623" lon="14.553565"><ele>108.0</ele><time>2016-06-18T04:41:57.312Z</time></trkpt><trkpt lat="58.12623" lon="14.553565"><ele>108.0</ele><time>2016-06-18T04:41:58.294Z</time></trkpt><trkpt lat="58.126025" lon="14.55346833"><ele>107.0</ele><time>2016-06-18T04:41:59.298Z</time></trkpt><trkpt lat="58.126025" lon="14.55346833"><ele>107.0</ele><time>2016-06-18T04:42:00.313Z</time></trkpt><trkpt lat="58.12581833" lon="14.55336667"><ele>106.0</ele><time>2016-06-18T04:42:01.319Z</time></trkpt><trkpt lat="58.125715" lon="14.553315"><ele>106.0</ele><time>2016-06-18T04:42:02.322Z</time></trkpt><trkpt lat="58.125715" lon="14.553315"><ele>106.0</ele><time>2016-06-18T04:42:03.288Z</time></trkpt><trkpt lat="58.12550167" lon="14.55321833"><ele>106.0</ele><time>2016-06-18T04:42:04.299Z</time></trkpt><trkpt lat="58.12539667" lon="14.55316833"><ele>105.0</ele><time>2016-06-18T04:42:05.292Z</time></trkpt><trkpt lat="58.12539667" lon="14.55316833"><ele>105.0</ele><time>2016-06-18T04:42:06.308Z</time></trkpt><trkpt lat="58.12518833" lon="14.553065"><ele>105.0</ele><time>2016-06-18T04:42:07.315Z</time></trkpt><trkpt lat="58.12508833" lon="14.55301833"><ele>105.0</ele><time>2016-06-18T04:42:08.303Z</time></trkpt><trkpt lat="58.12499167" lon="14.55297333"><ele>105.0</ele><time>2016-06-18T04:42:09.318Z</time></trkpt><trkpt lat="58.12499167" lon="14.55297333"><ele>105.0</ele><time>2016-06-18T04:42:10.295Z</time></trkpt><trkpt lat="58.12479667" lon="14.55290167"><ele>104.0</ele><time>2016-06-18T04:42:11.286Z</time></trkpt><trkpt lat="58.12479667" lon="14.55290167"><ele>104.0</ele><time>2016-06-18T04:42:12.304Z</time></trkpt><trkpt lat="58.12461" lon="14.55284167"><ele>105.0</ele><time>2016-06-18T04:42:13.316Z</time></trkpt><trkpt lat="58.12452167" lon="14.55282"><ele>105.0</ele><time>2016-06-18T04:42:14.315Z</time></trkpt><trkpt lat="58.12452167" lon="14.55282"><ele>105.0</ele><time>2016-06-18T04:42:15.292Z</time></trkpt><trkpt lat="58.12435333" lon="14.55278667"><ele>105.0</ele><time>2016-06-18T04:42:16.300Z</time></trkpt><trkpt lat="58.124275" lon="14.55277"><ele>105.0</ele><time>2016-06-18T04:42:17.298Z</time></trkpt><trkpt lat="58.124275" lon="14.55277"><ele>105.0</ele><time>2016-06-18T04:42:18.306Z</time></trkpt><trkpt lat="58.12412833" lon="14.55274167"><ele>106.0</ele><time>2016-06-18T04:42:19.313Z</time></trkpt><trkpt lat="58.12406167" lon="14.55272833"><ele>106.0</ele><time>2016-06-18T04:42:20.294Z</time></trkpt><trkpt lat="58.12406167" lon="14.55272833"><ele>106.0</ele><time>2016-06-18T04:42:21.315Z</time></trkpt><trkpt lat="58.12392667" lon="14.552695"><ele>106.0</ele><time>2016-06-18T04:42:22.282Z</time></trkpt><trkpt lat="58.12392667" lon="14.552695"><ele>106.0</ele><time>2016-06-18T04:42:23.306Z</time></trkpt><trkpt lat="58.12378667" lon="14.55265667"><ele>106.0</ele><time>2016-06-18T04:42:24.299Z</time></trkpt><trkpt lat="58.12378667" lon="14.55265667"><ele>106.0</ele><time>2016-06-18T04:42:25.289Z</time></trkpt><trkpt lat="58.12364167" lon="14.552635"><ele>106.0</ele><time>2016-06-18T04:42:26.302Z</time></trkpt><trkpt lat="58.12364167" lon="14.552635"><ele>106.0</ele><time>2016-06-18T04:42:27.287Z</time></trkpt><trkpt lat="58.12349" lon="14.55261333"><ele>106.0</ele><time>2016-06-18T04:42:28.305Z</time></trkpt><trkpt lat="58.12349" lon="14.55261333"><ele>106.0</ele><time>2016-06-18T04:42:29.317Z</time></trkpt><trkpt lat="58.12334333" lon="14.55257833"><ele>106.0</ele><time>2016-06-18T04:42:30.288Z</time></trkpt><trkpt lat="58.12334333" lon="14.55257833"><ele>106.0</ele><time>2016-06-18T04:42:31.314Z</time></trkpt><trkpt lat="58.12318667" lon="14.55253667"><ele>106.0</ele><time>2016-06-18T04:42:32.328Z</time></trkpt><trkpt lat="58.12318667" lon="14.55253667"><ele>106.0</ele><time>2016-06-18T04:42:33.310Z</time></trkpt><trkpt lat="58.12302667" lon="14.55248167"><ele>106.0</ele><time>2016-06-18T04:42:34.293Z</time></trkpt><trkpt lat="58.12302667" lon="14.55248167"><ele>106.0</ele><time>2016-06-18T04:42:35.304Z</time></trkpt><trkpt lat="58.12286833" lon="14.55240833"><ele>107.0</ele><time>2016-06-18T04:42:36.312Z</time></trkpt><trkpt lat="58.12286833" lon="14.55240833"><ele>107.0</ele><time>2016-06-18T04:42:37.296Z</time></trkpt><trkpt lat="58.12271" lon="14.55232"><ele>106.0</ele><time>2016-06-18T04:42:38.298Z</time></trkpt><trkpt lat="58.12271" lon="14.55232"><ele>106.0</ele><time>2016-06-18T04:42:39.313Z</time></trkpt><trkpt lat="58.12254833" lon="14.552225"><ele>106.0</ele><time>2016-06-18T04:42:40.320Z</time></trkpt><trkpt lat="58.12246667" lon="14.55217833"><ele>106.0</ele><time>2016-06-18T04:42:41.308Z</time></trkpt><trkpt lat="58.12246667" lon="14.55217833"><ele>106.0</ele><time>2016-06-18T04:42:42.289Z</time></trkpt><trkpt lat="58.12230333" lon="14.55208"><ele>106.0</ele><time>2016-06-18T04:42:43.300Z</time></trkpt><trkpt lat="58.12222167" lon="14.55203"><ele>106.0</ele><time>2016-06-18T04:42:44.288Z</time></trkpt><trkpt lat="58.12222167" lon="14.55203"><ele>106.0</ele><time>2016-06-18T04:42:45.284Z</time></trkpt><trkpt lat="58.122055" lon="14.55193"><ele>105.0</ele><time>2016-06-18T04:42:46.291Z</time></trkpt><trkpt lat="58.122055" lon="14.55193"><ele>105.0</ele><time>2016-06-18T04:42:47.314Z</time></trkpt><trkpt lat="58.121885" lon="14.55182833"><ele>105.0</ele><time>2016-06-18T04:42:48.295Z</time></trkpt><trkpt lat="58.121885" lon="14.55182833"><ele>105.0</ele><time>2016-06-18T04:42:49.300Z</time></trkpt><trkpt lat="58.12170667" lon="14.55171167"><ele>104.0</ele><time>2016-06-18T04:42:50.309Z</time></trkpt><trkpt lat="58.12161667" lon="14.55165667"><ele>104.0</ele><time>2016-06-18T04:42:51.308Z</time></trkpt><trkpt lat="58.12161667" lon="14.55165667"><ele>104.0</ele><time>2016-06-18T04:42:52.310Z</time></trkpt><trkpt lat="58.12143333" lon="14.55154667"><ele>104.0</ele><time>2016-06-18T04:42:53.284Z</time></trkpt><trkpt lat="58.12143333" lon="14.55154667"><ele>104.0</ele><time>2016-06-18T04:42:54.309Z</time></trkpt><trkpt lat="58.12125167" lon="14.55143167"><ele>104.0</ele><time>2016-06-18T04:42:55.320Z</time></trkpt><trkpt lat="58.12125167" lon="14.55143167"><ele>104.0</ele><time>2016-06-18T04:42:56.289Z</time></trkpt><trkpt lat="58.12107" lon="14.55131167"><ele>104.0</ele><time>2016-06-18T04:42:57.296Z</time></trkpt><trkpt lat="58.12097833" lon="14.55125"><ele>104.0</ele><time>2016-06-18T04:42:58.314Z</time></trkpt><trkpt lat="58.12097833" lon="14.55125"><ele>104.0</ele><time>2016-06-18T04:42:59.295Z</time></trkpt><trkpt lat="58.12079667" lon="14.55113"><ele>104.0</ele><time>2016-06-18T04:43:00.312Z</time></trkpt><trkpt lat="58.12070667" lon="14.55106667"><ele>104.0</ele><time>2016-06-18T04:43:01.308Z</time></trkpt><trkpt lat="58.12070667" lon="14.55106667"><ele>104.0</ele><time>2016-06-18T04:43:02.317Z</time></trkpt><trkpt lat="58.12052333" lon="14.55094"><ele>103.0</ele><time>2016-06-18T04:43:03.285Z</time></trkpt><trkpt lat="58.12052333" lon="14.55094"><ele>103.0</ele><time>2016-06-18T04:43:04.309Z</time></trkpt><trkpt lat="58.12033833" lon="14.55081833"><ele>103.0</ele><time>2016-06-18T04:43:05.306Z</time></trkpt><trkpt lat="58.12033833" lon="14.55081833"><ele>103.0</ele><time>2016-06-18T04:43:06.288Z</time></trkpt><trkpt lat="58.12015333" lon="14.55069667"><ele>103.0</ele><time>2016-06-18T04:43:07.294Z</time></trkpt><trkpt lat="58.12006167" lon="14.550635"><ele>103.0</ele><time>2016-06-18T04:43:08.323Z</time></trkpt><trkpt lat="58.12006167" lon="14.550635"><ele>103.0</ele><time>2016-06-18T04:43:09.315Z</time></trkpt><trkpt lat="58.11988167" lon="14.55050833"><ele>103.0</ele><time>2016-06-18T04:43:10.322Z</time></trkpt><trkpt lat="58.11988167" lon="14.55050833"><ele>103.0</ele><time>2016-06-18T04:43:11.319Z</time></trkpt><trkpt lat="58.11969667" lon="14.55037667"><ele>103.0</ele><time>2016-06-18T04:43:12.310Z</time></trkpt><trkpt lat="58.11969667" lon="14.55037667"><ele>103.0</ele><time>2016-06-18T04:43:13.292Z</time></trkpt><trkpt lat="58.11950667" lon="14.55022833"><ele>103.0</ele><time>2016-06-18T04:43:14.308Z</time></trkpt><trkpt lat="58.11950667" lon="14.55022833"><ele>103.0</ele><time>2016-06-18T04:43:15.321Z</time></trkpt><trkpt lat="58.11932833" lon="14.550075"><ele>103.0</ele><time>2016-06-18T04:43:16.287Z</time></trkpt><trkpt lat="58.11932833" lon="14.550075"><ele>103.0</ele><time>2016-06-18T04:43:17.307Z</time></trkpt><trkpt lat="58.119155" lon="14.54992167"><ele>104.0</ele><time>2016-06-18T04:43:18.287Z</time></trkpt><trkpt lat="58.119155" lon="14.54992167"><ele>104.0</ele><time>2016-06-18T04:43:19.293Z</time></trkpt><trkpt lat="58.118985" lon="14.54977333"><ele>104.0</ele><time>2016-06-18T04:43:20.300Z</time></trkpt><trkpt lat="58.118985" lon="14.54977333"><ele>104.0</ele><time>2016-06-18T04:43:21.316Z</time></trkpt><trkpt lat="58.11882333" lon="14.54964167"><ele>104.0</ele><time>2016-06-18T04:43:22.308Z</time></trkpt><trkpt lat="58.11882333" lon="14.54964167"><ele>104.0</ele><time>2016-06-18T04:43:23.289Z</time></trkpt><trkpt lat="58.11867167" lon="14.54951333"><ele>104.0</ele><time>2016-06-18T04:43:24.296Z</time></trkpt><trkpt lat="58.11867167" lon="14.54951333"><ele>104.0</ele><time>2016-06-18T04:43:25.317Z</time></trkpt><trkpt lat="58.11850833" lon="14.549385"><ele>105.0</ele><time>2016-06-18T04:43:26.318Z</time></trkpt><trkpt lat="58.11850833" lon="14.549385"><ele>105.0</ele><time>2016-06-18T04:43:27.287Z</time></trkpt><trkpt lat="58.11836" lon="14.54925"><ele>105.0</ele><time>2016-06-18T04:43:28.294Z</time></trkpt><trkpt lat="58.11836" lon="14.54925"><ele>105.0</ele><time>2016-06-18T04:43:29.316Z</time></trkpt><trkpt lat="58.11822167" lon="14.54913167"><ele>105.0</ele><time>2016-06-18T04:43:30.305Z</time></trkpt><trkpt lat="58.11822167" lon="14.54913167"><ele>105.0</ele><time>2016-06-18T04:43:31.287Z</time></trkpt><trkpt lat="58.11808667" lon="14.54901667"><ele>105.0</ele><time>2016-06-18T04:43:32.294Z</time></trkpt><trkpt lat="58.11808667" lon="14.54901667"><ele>105.0</ele><time>2016-06-18T04:43:33.317Z</time></trkpt><trkpt lat="58.11795167" lon="14.54891167"><ele>105.0</ele><time>2016-06-18T04:43:34.293Z</time></trkpt><trkpt lat="58.11795167" lon="14.54891167"><ele>105.0</ele><time>2016-06-18T04:43:35.300Z</time></trkpt><trkpt lat="58.11782333" lon="14.54879167"><ele>106.0</ele><time>2016-06-18T04:43:36.313Z</time></trkpt><trkpt lat="58.11782333" lon="14.54879167"><ele>106.0</ele><time>2016-06-18T04:43:37.295Z</time></trkpt><trkpt lat="58.11769167" lon="14.548665"><ele>106.0</ele><time>2016-06-18T04:43:38.288Z</time></trkpt><trkpt lat="58.11769167" lon="14.548665"><ele>106.0</ele><time>2016-06-18T04:43:39.307Z</time></trkpt><trkpt lat="58.11756167" lon="14.54855"><ele>107.0</ele><time>2016-06-18T04:43:40.314Z</time></trkpt><trkpt lat="58.11749833" lon="14.54849333"><ele>107.0</ele><time>2016-06-18T04:43:41.287Z</time></trkpt><trkpt lat="58.11749833" lon="14.54849333"><ele>107.0</ele><time>2016-06-18T04:43:42.309Z</time></trkpt><trkpt lat="58.11737167" lon="14.548385"><ele>107.0</ele><time>2016-06-18T04:43:43.318Z</time></trkpt><trkpt lat="58.11731" lon="14.54832667"><ele>107.0</ele><time>2016-06-18T04:43:44.308Z</time></trkpt><trkpt lat="58.11731" lon="14.54832667"><ele>107.0</ele><time>2016-06-18T04:43:45.311Z</time></trkpt><trkpt lat="58.11718833" lon="14.54821333"><ele>108.0</ele><time>2016-06-18T04:43:46.319Z</time></trkpt><trkpt lat="58.11718833" lon="14.54821333"><ele>108.0</ele><time>2016-06-18T04:43:47.300Z</time></trkpt><trkpt lat="58.11706667" lon="14.548115"><ele>109.0</ele><time>2016-06-18T04:43:48.286Z</time></trkpt><trkpt lat="58.11706667" lon="14.548115"><ele>109.0</ele><time>2016-06-18T04:43:49.318Z</time></trkpt><trkpt lat="58.11694667" lon="14.54800833"><ele>110.0</ele><time>2016-06-18T04:43:50.284Z</time></trkpt><trkpt lat="58.11694667" lon="14.54800833"><ele>110.0</ele><time>2016-06-18T04:43:51.316Z</time></trkpt><trkpt lat="58.11682167" lon="14.54789667"><ele>110.0</ele><time>2016-06-18T04:43:52.309Z</time></trkpt><trkpt lat="58.11682167" lon="14.54789667"><ele>110.0</ele><time>2016-06-18T04:43:53.315Z</time></trkpt><trkpt lat="58.11669167" lon="14.547785"><ele>110.0</ele><time>2016-06-18T04:43:54.321Z</time></trkpt><trkpt lat="58.11662667" lon="14.54773"><ele>110.0</ele><time>2016-06-18T04:43:55.318Z</time></trkpt><trkpt lat="58.11662667" lon="14.54773"><ele>110.0</ele><time>2016-06-18T04:43:56.297Z</time></trkpt><trkpt lat="58.11649333" lon="14.547615"><ele>111.0</ele><time>2016-06-18T04:43:57.287Z</time></trkpt><trkpt lat="58.11649333" lon="14.547615"><ele>111.0</ele><time>2016-06-18T04:43:58.293Z</time></trkpt><trkpt lat="58.11635833" lon="14.54748333"><ele>111.0</ele><time>2016-06-18T04:43:59.288Z</time></trkpt><trkpt lat="58.11635833" lon="14.54748333"><ele>111.0</ele><time>2016-06-18T04:44:00.311Z</time></trkpt><trkpt lat="58.11621833" lon="14.54736667"><ele>111.0</ele><time>2016-06-18T04:44:01.318Z</time></trkpt><trkpt lat="58.11614833" lon="14.54730667"><ele>111.0</ele><time>2016-06-18T04:44:02.320Z</time></trkpt><trkpt lat="58.11614833" lon="14.54730667"><ele>111.0</ele><time>2016-06-18T04:44:03.299Z</time></trkpt><trkpt lat="58.11600833" lon="14.547185"><ele>111.0</ele><time>2016-06-18T04:44:04.315Z</time></trkpt><trkpt lat="58.11600833" lon="14.547185"><ele>111.0</ele><time>2016-06-18T04:44:05.300Z</time></trkpt><trkpt lat="58.11586667" lon="14.54706"><ele>110.0</ele><time>2016-06-18T04:44:06.308Z</time></trkpt><trkpt lat="58.11586667" lon="14.54706"><ele>110.0</ele><time>2016-06-18T04:44:07.319Z</time></trkpt><trkpt lat="58.11571833" lon="14.54694"><ele>110.0</ele><time>2016-06-18T04:44:08.285Z</time></trkpt><trkpt lat="58.11571833" lon="14.54694"><ele>110.0</ele><time>2016-06-18T04:44:09.308Z</time></trkpt><trkpt lat="58.11557" lon="14.546815"><ele>110.0</ele><time>2016-06-18T04:44:10.308Z</time></trkpt><trkpt lat="58.11557" lon="14.546815"><ele>110.0</ele><time>2016-06-18T04:44:11.308Z</time></trkpt><trkpt lat="58.11541833" lon="14.54668333"><ele>109.0</ele><time>2016-06-18T04:44:12.317Z</time></trkpt><trkpt lat="58.11541833" lon="14.54668333"><ele>109.0</ele><time>2016-06-18T04:44:13.291Z</time></trkpt><trkpt lat="58.11526167" lon="14.54653167"><ele>109.0</ele><time>2016-06-18T04:44:14.297Z</time></trkpt><trkpt lat="58.11518167" lon="14.54646333"><ele>109.0</ele><time>2016-06-18T04:44:15.284Z</time></trkpt><trkpt lat="58.11510167" lon="14.5464"><ele>109.0</ele><time>2016-06-18T04:44:16.308Z</time></trkpt><trkpt lat="58.11510167" lon="14.5464"><ele>109.0</ele><time>2016-06-18T04:44:17.322Z</time></trkpt><trkpt lat="58.11493667" lon="14.546265"><ele>109.0</ele><time>2016-06-18T04:44:18.287Z</time></trkpt><trkpt lat="58.114855" lon="14.54620667"><ele>109.0</ele><time>2016-06-18T04:44:19.298Z</time></trkpt><trkpt lat="58.11477333" lon="14.546155"><ele>109.0</ele><time>2016-06-18T04:44:20.312Z</time></trkpt><trkpt lat="58.11477333" lon="14.546155"><ele>109.0</ele><time>2016-06-18T04:44:21.317Z</time></trkpt><trkpt lat="58.11461" lon="14.54605167"><ele>109.0</ele><time>2016-06-18T04:44:22.292Z</time></trkpt><trkpt lat="58.11453" lon="14.546"><ele>108.0</ele><time>2016-06-18T04:44:23.302Z</time></trkpt><trkpt lat="58.11453" lon="14.546"><ele>108.0</ele><time>2016-06-18T04:44:24.314Z</time></trkpt><trkpt lat="58.11437" lon="14.54590667"><ele>108.0</ele><time>2016-06-18T04:44:25.318Z</time></trkpt><trkpt lat="58.11428833" lon="14.54586167"><ele>108.0</ele><time>2016-06-18T04:44:26.313Z</time></trkpt><trkpt lat="58.11428833" lon="14.54586167"><ele>108.0</ele><time>2016-06-18T04:44:27.290Z</time></trkpt><trkpt lat="58.11413667" lon="14.54576667"><ele>108.0</ele><time>2016-06-18T04:44:28.309Z</time></trkpt><trkpt lat="58.11413667" lon="14.54576667"><ele>108.0</ele><time>2016-06-18T04:44:29.292Z</time></trkpt><trkpt lat="58.11399" lon="14.54567167"><ele>108.0</ele><time>2016-06-18T04:44:30.299Z</time></trkpt><trkpt lat="58.11391667" lon="14.54563"><ele>108.0</ele><time>2016-06-18T04:44:31.320Z</time></trkpt><trkpt lat="58.11385333" lon="14.54559167"><ele>108.0</ele><time>2016-06-18T04:44:32.320Z</time></trkpt><trkpt lat="58.11385333" lon="14.54559167"><ele>108.0</ele><time>2016-06-18T04:44:33.299Z</time></trkpt><trkpt lat="58.11371333" lon="14.54552833"><ele>108.0</ele><time>2016-06-18T04:44:34.318Z</time></trkpt><trkpt lat="58.11371333" lon="14.54552833"><ele>108.0</ele><time>2016-06-18T04:44:35.319Z</time></trkpt><trkpt lat="58.11357167" lon="14.545465"><ele>108.0</ele><time>2016-06-18T04:44:36.286Z</time></trkpt><trkpt lat="58.11351167" lon="14.54542833"><ele>108.0</ele><time>2016-06-18T04:44:37.326Z</time></trkpt><trkpt lat="58.11351167" lon="14.54542833"><ele>108.0</ele><time>2016-06-18T04:44:38.302Z</time></trkpt><trkpt lat="58.11337667" lon="14.54536333"><ele>108.0</ele><time>2016-06-18T04:44:39.313Z</time></trkpt><trkpt lat="58.11330833" lon="14.54533"><ele>108.0</ele><time>2016-06-18T04:44:40.303Z</time></trkpt><trkpt lat="58.11323333" lon="14.545285"><ele>108.0</ele><time>2016-06-18T04:44:41.310Z</time></trkpt><trkpt lat="58.11316333" lon="14.54524"><ele>109.0</ele><time>2016-06-18T04:44:42.318Z</time></trkpt><trkpt lat="58.11316333" lon="14.54524"><ele>109.0</ele><time>2016-06-18T04:44:43.294Z</time></trkpt><trkpt lat="58.11301333" lon="14.54515667"><ele>109.0</ele><time>2016-06-18T04:44:44.301Z</time></trkpt><trkpt lat="58.11301333" lon="14.54515667"><ele>109.0</ele><time>2016-06-18T04:44:45.308Z</time></trkpt><trkpt lat="58.11285667" lon="14.54505667"><ele>109.0</ele><time>2016-06-18T04:44:46.298Z</time></trkpt><trkpt lat="58.11285667" lon="14.54505667"><ele>109.0</ele><time>2016-06-18T04:44:47.313Z</time></trkpt><trkpt lat="58.11270833" lon="14.54497"><ele>109.0</ele><time>2016-06-18T04:44:48.319Z</time></trkpt><trkpt lat="58.11270833" lon="14.54497"><ele>109.0</ele><time>2016-06-18T04:44:49.296Z</time></trkpt><trkpt lat="58.11257333" lon="14.54488833"><ele>109.0</ele><time>2016-06-18T04:44:50.319Z</time></trkpt><trkpt lat="58.11257333" lon="14.54488833"><ele>109.0</ele><time>2016-06-18T04:44:51.311Z</time></trkpt><trkpt lat="58.112445" lon="14.544825"><ele>109.0</ele><time>2016-06-18T04:44:52.317Z</time></trkpt><trkpt lat="58.11237167" lon="14.544795"><ele>109.0</ele><time>2016-06-18T04:44:53.297Z</time></trkpt><trkpt lat="58.11237167" lon="14.544795"><ele>109.0</ele><time>2016-06-18T04:44:54.313Z</time></trkpt><trkpt lat="58.11224" lon="14.54474"><ele>109.0</ele><time>2016-06-18T04:44:55.320Z</time></trkpt><trkpt lat="58.11217333" lon="14.54471167"><ele>109.0</ele><time>2016-06-18T04:44:56.314Z</time></trkpt><trkpt lat="58.11217333" lon="14.54471167"><ele>109.0</ele><time>2016-06-18T04:44:57.301Z</time></trkpt><trkpt lat="58.11204167" lon="14.54466333"><ele>109.0</ele><time>2016-06-18T04:44:58.314Z</time></trkpt><trkpt lat="58.11204167" lon="14.54466333"><ele>109.0</ele><time>2016-06-18T04:44:59.297Z</time></trkpt><trkpt lat="58.11187" lon="14.54457833"><ele>108.0</ele><time>2016-06-18T04:45:00.314Z</time></trkpt><trkpt lat="58.111785" lon="14.54454667"><ele>109.0</ele><time>2016-06-18T04:45:01.295Z</time></trkpt><trkpt lat="58.111785" lon="14.54454667"><ele>109.0</ele><time>2016-06-18T04:45:02.301Z</time></trkpt><trkpt lat="58.11162667" lon="14.54449"><ele>108.0</ele><time>2016-06-18T04:45:03.287Z</time></trkpt><trkpt lat="58.11162667" lon="14.54449"><ele>108.0</ele><time>2016-06-18T04:45:04.287Z</time></trkpt><trkpt lat="58.11147833" lon="14.54442333"><ele>108.0</ele><time>2016-06-18T04:45:05.294Z</time></trkpt><trkpt lat="58.11140333" lon="14.54438333"><ele>108.0</ele><time>2016-06-18T04:45:06.322Z</time></trkpt><trkpt lat="58.11132833" lon="14.54433667"><ele>108.0</ele><time>2016-06-18T04:45:07.318Z</time></trkpt><trkpt lat="58.11132833" lon="14.54433667"><ele>108.0</ele><time>2016-06-18T04:45:08.284Z</time></trkpt><trkpt lat="58.11118" lon="14.54422333"><ele>108.0</ele><time>2016-06-18T04:45:09.309Z</time></trkpt><trkpt lat="58.11118" lon="14.54422333"><ele>108.0</ele><time>2016-06-18T04:45:10.286Z</time></trkpt><trkpt lat="58.11102667" lon="14.544085"><ele>108.0</ele><time>2016-06-18T04:45:11.302Z</time></trkpt><trkpt lat="58.110955" lon="14.54400667"><ele>108.0</ele><time>2016-06-18T04:45:12.312Z</time></trkpt><trkpt lat="58.110955" lon="14.54400667"><ele>108.0</ele><time>2016-06-18T04:45:13.295Z</time></trkpt><trkpt lat="58.110815" lon="14.54384833"><ele>109.0</ele><time>2016-06-18T04:45:14.283Z</time></trkpt><trkpt lat="58.110815" lon="14.54384833"><ele>109.0</ele><time>2016-06-18T04:45:15.317Z</time></trkpt><trkpt lat="58.11067667" lon="14.54369"><ele>109.0</ele><time>2016-06-18T04:45:16.283Z</time></trkpt><trkpt lat="58.11061167" lon="14.54361"><ele>109.0</ele><time>2016-06-18T04:45:17.288Z</time></trkpt><trkpt lat="58.11061167" lon="14.54361"><ele>109.0</ele><time>2016-06-18T04:45:18.282Z</time></trkpt><trkpt lat="58.110485" lon="14.543445"><ele>109.0</ele><time>2016-06-18T04:45:19.289Z</time></trkpt><trkpt lat="58.110485" lon="14.543445"><ele>109.0</ele><time>2016-06-18T04:45:20.321Z</time></trkpt><trkpt lat="58.11035333" lon="14.54328833"><ele>110.0</ele><time>2016-06-18T04:45:21.310Z</time></trkpt><trkpt lat="58.11035333" lon="14.54328833"><ele>110.0</ele><time>2016-06-18T04:45:22.316Z</time></trkpt><trkpt lat="58.11022167" lon="14.54313"><ele>110.0</ele><time>2016-06-18T04:45:23.285Z</time></trkpt><trkpt lat="58.11022167" lon="14.54313"><ele>110.0</ele><time>2016-06-18T04:45:24.292Z</time></trkpt><trkpt lat="58.11009833" lon="14.542965"><ele>110.0</ele><time>2016-06-18T04:45:25.308Z</time></trkpt><trkpt lat="58.11009833" lon="14.542965"><ele>110.0</ele><time>2016-06-18T04:45:26.321Z</time></trkpt><trkpt lat="58.10996333" lon="14.54278833"><ele>110.0</ele><time>2016-06-18T04:45:27.287Z</time></trkpt><trkpt lat="58.10996333" lon="14.54278833"><ele>110.0</ele><time>2016-06-18T04:45:28.300Z</time></trkpt><trkpt lat="58.10982167" lon="14.54261333"><ele>110.0</ele><time>2016-06-18T04:45:29.321Z</time></trkpt><trkpt lat="58.10982167" lon="14.54261333"><ele>110.0</ele><time>2016-06-18T04:45:30.299Z</time></trkpt><trkpt lat="58.10967333" lon="14.54242333"><ele>110.0</ele><time>2016-06-18T04:45:31.307Z</time></trkpt><trkpt lat="58.10960167" lon="14.542325"><ele>110.0</ele><time>2016-06-18T04:45:32.322Z</time></trkpt><trkpt lat="58.10960167" lon="14.542325"><ele>110.0</ele><time>2016-06-18T04:45:33.282Z</time></trkpt><trkpt lat="58.10944" lon="14.542125"><ele>110.0</ele><time>2016-06-18T04:45:34.318Z</time></trkpt><trkpt lat="58.10944" lon="14.542125"><ele>110.0</ele><time>2016-06-18T04:45:35.296Z</time></trkpt><trkpt lat="58.10927333" lon="14.54193667"><ele>110.0</ele><time>2016-06-18T04:45:36.302Z</time></trkpt><trkpt lat="58.109185" lon="14.54184167"><ele>110.0</ele><time>2016-06-18T04:45:37.308Z</time></trkpt><trkpt lat="58.109185" lon="14.54184167"><ele>110.0</ele><time>2016-06-18T04:45:38.282Z</time></trkpt><trkpt lat="58.10900167" lon="14.54168"><ele>111.0</ele><time>2016-06-18T04:45:39.289Z</time></trkpt><trkpt lat="58.10890667" lon="14.541605"><ele>111.0</ele><time>2016-06-18T04:45:40.314Z</time></trkpt><trkpt lat="58.10890667" lon="14.541605"><ele>111.0</ele><time>2016-06-18T04:45:41.301Z</time></trkpt><trkpt lat="58.10871667" lon="14.54145333"><ele>111.0</ele><time>2016-06-18T04:45:42.312Z</time></trkpt><trkpt lat="58.10861833" lon="14.54138"><ele>111.0</ele><time>2016-06-18T04:45:43.321Z</time></trkpt><trkpt lat="58.10861833" lon="14.54138"><ele>111.0</ele><time>2016-06-18T04:45:44.289Z</time></trkpt><trkpt lat="58.10842167" lon="14.54124333"><ele>111.0</ele><time>2016-06-18T04:45:45.296Z</time></trkpt><trkpt lat="58.10832167" lon="14.54117"><ele>110.0</ele><time>2016-06-18T04:45:46.308Z</time></trkpt><trkpt lat="58.10822" lon="14.54109833"><ele>110.0</ele><time>2016-06-18T04:45:47.315Z</time></trkpt><trkpt lat="58.10822" lon="14.54109833"><ele>110.0</ele><time>2016-06-18T04:45:48.290Z</time></trkpt><trkpt lat="58.10801667" lon="14.540955"><ele>110.0</ele><time>2016-06-18T04:45:49.297Z</time></trkpt><trkpt lat="58.10791333" lon="14.540885"><ele>110.0</ele><time>2016-06-18T04:45:50.318Z</time></trkpt><trkpt lat="58.10791333" lon="14.540885"><ele>110.0</ele><time>2016-06-18T04:45:51.296Z</time></trkpt><trkpt lat="58.10771833" lon="14.540745"><ele>110.0</ele><time>2016-06-18T04:45:52.318Z</time></trkpt><trkpt lat="58.10762167" lon="14.54067333"><ele>110.0</ele><time>2016-06-18T04:45:53.302Z</time></trkpt><trkpt lat="58.10762167" lon="14.54067333"><ele>110.0</ele><time>2016-06-18T04:45:54.318Z</time></trkpt><trkpt lat="58.10743167" lon="14.54055167"><ele>110.0</ele><time>2016-06-18T04:45:55.318Z</time></trkpt><trkpt lat="58.10734167" lon="14.54048667"><ele>109.0</ele><time>2016-06-18T04:45:56.313Z</time></trkpt><trkpt lat="58.10734167" lon="14.54048667"><ele>109.0</ele><time>2016-06-18T04:45:57.298Z</time></trkpt><trkpt lat="58.10715833" lon="14.54034667"><ele>109.0</ele><time>2016-06-18T04:45:58.286Z</time></trkpt><trkpt lat="58.10715833" lon="14.54034667"><ele>109.0</ele><time>2016-06-18T04:45:59.284Z</time></trkpt><trkpt lat="58.10697333" lon="14.54022333"><ele>109.0</ele><time>2016-06-18T04:46:00.295Z</time></trkpt><trkpt lat="58.106885" lon="14.54016667"><ele>109.0</ele><time>2016-06-18T04:46:01.296Z</time></trkpt><trkpt lat="58.106885" lon="14.54016667"><ele>109.0</ele><time>2016-06-18T04:46:02.311Z</time></trkpt><trkpt lat="58.10671167" lon="14.54006167"><ele>108.0</ele><time>2016-06-18T04:46:03.321Z</time></trkpt><trkpt lat="58.10671167" lon="14.54006167"><ele>108.0</ele><time>2016-06-18T04:46:04.319Z</time></trkpt><trkpt lat="58.10653" lon="14.53995333"><ele>108.0</ele><time>2016-06-18T04:46:05.303Z</time></trkpt><trkpt lat="58.10644167" lon="14.53991"><ele>108.0</ele><time>2016-06-18T04:46:06.310Z</time></trkpt><trkpt lat="58.10644167" lon="14.53991"><ele>108.0</ele><time>2016-06-18T04:46:07.316Z</time></trkpt><trkpt lat="58.10627333" lon="14.53981333"><ele>108.0</ele><time>2016-06-18T04:46:08.296Z</time></trkpt><trkpt lat="58.10618667" lon="14.53975833"><ele>108.0</ele><time>2016-06-18T04:46:09.320Z</time></trkpt><trkpt lat="58.10618667" lon="14.53975833"><ele>108.0</ele><time>2016-06-18T04:46:10.300Z</time></trkpt><trkpt lat="58.10601333" lon="14.53964667"><ele>108.0</ele><time>2016-06-18T04:46:11.282Z</time></trkpt><trkpt lat="58.10592667" lon="14.53958167"><ele>108.0</ele><time>2016-06-18T04:46:12.301Z</time></trkpt><trkpt lat="58.10592667" lon="14.53958167"><ele>108.0</ele><time>2016-06-18T04:46:13.311Z</time></trkpt><trkpt lat="58.10575167" lon="14.53947167"><ele>108.0</ele><time>2016-06-18T04:46:14.319Z</time></trkpt><trkpt lat="58.10575167" lon="14.53947167"><ele>108.0</ele><time>2016-06-18T04:46:15.296Z</time></trkpt><trkpt lat="58.10557" lon="14.53935667"><ele>107.0</ele><time>2016-06-18T04:46:16.318Z</time></trkpt><trkpt lat="58.10557" lon="14.53935667"><ele>107.0</ele><time>2016-06-18T04:46:17.286Z</time></trkpt><trkpt lat="58.105395" lon="14.53924167"><ele>107.0</ele><time>2016-06-18T04:46:18.302Z</time></trkpt><trkpt lat="58.10530833" lon="14.53919167"><ele>107.0</ele><time>2016-06-18T04:46:19.289Z</time></trkpt><trkpt lat="58.10522167" lon="14.53914167"><ele>107.0</ele><time>2016-06-18T04:46:20.301Z</time></trkpt><trkpt lat="58.10522167" lon="14.53914167"><ele>107.0</ele><time>2016-06-18T04:46:21.307Z</time></trkpt><trkpt lat="58.10504" lon="14.53904333"><ele>107.0</ele><time>2016-06-18T04:46:22.288Z</time></trkpt><trkpt lat="58.10504" lon="14.53904333"><ele>107.0</ele><time>2016-06-18T04:46:23.286Z</time></trkpt><trkpt lat="58.104855" lon="14.53893667"><ele>107.0</ele><time>2016-06-18T04:46:24.292Z</time></trkpt><trkpt lat="58.10475833" lon="14.53888333"><ele>106.0</ele><time>2016-06-18T04:46:25.325Z</time></trkpt><trkpt lat="58.10475833" lon="14.53888333"><ele>106.0</ele><time>2016-06-18T04:46:26.311Z</time></trkpt><trkpt lat="58.10456667" lon="14.538765"><ele>106.0</ele><time>2016-06-18T04:46:27.319Z</time></trkpt><trkpt lat="58.10456667" lon="14.538765"><ele>106.0</ele><time>2016-06-18T04:46:28.299Z</time></trkpt><trkpt lat="58.10438333" lon="14.53866167"><ele>107.0</ele><time>2016-06-18T04:46:29.316Z</time></trkpt><trkpt lat="58.10438333" lon="14.53866167"><ele>107.0</ele><time>2016-06-18T04:46:30.295Z</time></trkpt><trkpt lat="58.104195" lon="14.53856333"><ele>107.0</ele><time>2016-06-18T04:46:31.302Z</time></trkpt><trkpt lat="58.104195" lon="14.53856333"><ele>107.0</ele><time>2016-06-18T04:46:32.317Z</time></trkpt><trkpt lat="58.10401" lon="14.538475"><ele>107.0</ele><time>2016-06-18T04:46:33.320Z</time></trkpt><trkpt lat="58.10401" lon="14.538475"><ele>107.0</ele><time>2016-06-18T04:46:34.314Z</time></trkpt><trkpt lat="58.10383333" lon="14.538405"><ele>107.0</ele><time>2016-06-18T04:46:35.283Z</time></trkpt><trkpt lat="58.10383333" lon="14.538405"><ele>107.0</ele><time>2016-06-18T04:46:36.320Z</time></trkpt><trkpt lat="58.10367" lon="14.53833667"><ele>107.0</ele><time>2016-06-18T04:46:37.286Z</time></trkpt><trkpt lat="58.10367" lon="14.53833667"><ele>107.0</ele><time>2016-06-18T04:46:38.305Z</time></trkpt><trkpt lat="58.10350333" lon="14.53827333"><ele>107.0</ele><time>2016-06-18T04:46:39.313Z</time></trkpt><trkpt lat="58.10343333" lon="14.538245"><ele>107.0</ele><time>2016-06-18T04:46:40.298Z</time></trkpt><trkpt lat="58.10343333" lon="14.538245"><ele>107.0</ele><time>2016-06-18T04:46:41.291Z</time></trkpt><trkpt lat="58.103285" lon="14.53818"><ele>107.0</ele><time>2016-06-18T04:46:42.298Z</time></trkpt><trkpt lat="58.103285" lon="14.53818"><ele>107.0</ele><time>2016-06-18T04:46:43.309Z</time></trkpt><trkpt lat="58.10313167" lon="14.538125"><ele>107.0</ele><time>2016-06-18T04:46:44.297Z</time></trkpt><trkpt lat="58.10313167" lon="14.538125"><ele>107.0</ele><time>2016-06-18T04:46:45.305Z</time></trkpt><trkpt lat="58.10299167" lon="14.53807"><ele>107.0</ele><time>2016-06-18T04:46:46.313Z</time></trkpt><trkpt lat="58.10292833" lon="14.53803667"><ele>108.0</ele><time>2016-06-18T04:46:47.321Z</time></trkpt><trkpt lat="58.10292833" lon="14.53803667"><ele>108.0</ele><time>2016-06-18T04:46:48.287Z</time></trkpt><trkpt lat="58.10279167" lon="14.53798"><ele>109.0</ele><time>2016-06-18T04:46:49.296Z</time></trkpt><trkpt lat="58.10279167" lon="14.53798"><ele>109.0</ele><time>2016-06-18T04:46:50.312Z</time></trkpt><trkpt lat="58.10265167" lon="14.53792667"><ele>109.0</ele><time>2016-06-18T04:46:51.303Z</time></trkpt><trkpt lat="58.10265167" lon="14.53792667"><ele>109.0</ele><time>2016-06-18T04:46:52.286Z</time></trkpt><trkpt lat="58.10251333" lon="14.53787167"><ele>110.0</ele><time>2016-06-18T04:46:53.293Z</time></trkpt><trkpt lat="58.10251333" lon="14.53787167"><ele>110.0</ele><time>2016-06-18T04:46:54.314Z</time></trkpt><trkpt lat="58.102375" lon="14.53782"><ele>110.0</ele><time>2016-06-18T04:46:55.282Z</time></trkpt><trkpt lat="58.102375" lon="14.53782"><ele>110.0</ele><time>2016-06-18T04:46:56.304Z</time></trkpt><trkpt lat="58.10224833" lon="14.53776333"><ele>111.0</ele><time>2016-06-18T04:46:57.282Z</time></trkpt><trkpt lat="58.102185" lon="14.53773833"><ele>111.0</ele><time>2016-06-18T04:46:58.309Z</time></trkpt><trkpt lat="58.102185" lon="14.53773833"><ele>111.0</ele><time>2016-06-18T04:46:59.319Z</time></trkpt><trkpt lat="58.10206" lon="14.537695"><ele>112.0</ele><time>2016-06-18T04:47:00.288Z</time></trkpt><trkpt lat="58.10199667" lon="14.537675"><ele>112.0</ele><time>2016-06-18T04:47:01.298Z</time></trkpt><trkpt lat="58.10199667" lon="14.537675"><ele>112.0</ele><time>2016-06-18T04:47:02.308Z</time></trkpt><trkpt lat="58.101865" lon="14.53762833"><ele>112.0</ele><time>2016-06-18T04:47:03.283Z</time></trkpt><trkpt lat="58.1018" lon="14.53761"><ele>112.0</ele><time>2016-06-18T04:47:04.299Z</time></trkpt><trkpt lat="58.1018" lon="14.53761"><ele>112.0</ele><time>2016-06-18T04:47:05.292Z</time></trkpt><trkpt lat="58.101675" lon="14.537585"><ele>113.0</ele><time>2016-06-18T04:47:06.298Z</time></trkpt><trkpt lat="58.10161667" lon="14.53758"><ele>114.0</ele><time>2016-06-18T04:47:07.318Z</time></trkpt><trkpt lat="58.10156" lon="14.537575"><ele>114.0</ele><time>2016-06-18T04:47:08.287Z</time></trkpt><trkpt lat="58.10156" lon="14.537575"><ele>114.0</ele><time>2016-06-18T04:47:09.321Z</time></trkpt><trkpt lat="58.101445" lon="14.53757667"><ele>115.0</ele><time>2016-06-18T04:47:10.288Z</time></trkpt><trkpt lat="58.101445" lon="14.53757667"><ele>115.0</ele><time>2016-06-18T04:47:11.298Z</time></trkpt><trkpt lat="58.10133" lon="14.53758833"><ele>116.0</ele><time>2016-06-18T04:47:12.316Z</time></trkpt><trkpt lat="58.10133" lon="14.53758833"><ele>116.0</ele><time>2016-06-18T04:47:13.294Z</time></trkpt><trkpt lat="58.10121167" lon="14.537595"><ele>117.0</ele><time>2016-06-18T04:47:14.306Z</time></trkpt><trkpt lat="58.10121167" lon="14.537595"><ele>117.0</ele><time>2016-06-18T04:47:15.283Z</time></trkpt><trkpt lat="58.10108833" lon="14.537605"><ele>117.0</ele><time>2016-06-18T04:47:16.290Z</time></trkpt><trkpt lat="58.101025" lon="14.53761"><ele>117.0</ele><time>2016-06-18T04:47:17.318Z</time></trkpt><trkpt lat="58.101025" lon="14.53761"><ele>117.0</ele><time>2016-06-18T04:47:18.289Z</time></trkpt><trkpt lat="58.10089833" lon="14.53761833"><ele>118.0</ele><time>2016-06-18T04:47:19.296Z</time></trkpt><trkpt lat="58.10083333" lon="14.53762333"><ele>118.0</ele><time>2016-06-18T04:47:20.296Z</time></trkpt><trkpt lat="58.10083333" lon="14.53762333"><ele>118.0</ele><time>2016-06-18T04:47:21.317Z</time></trkpt><trkpt lat="58.10070167" lon="14.53762833"><ele>119.0</ele><time>2016-06-18T04:47:22.283Z</time></trkpt><trkpt lat="58.10070167" lon="14.53762833"><ele>119.0</ele><time>2016-06-18T04:47:23.290Z</time></trkpt><trkpt lat="58.10057167" lon="14.537635"><ele>120.0</ele><time>2016-06-18T04:47:24.298Z</time></trkpt><trkpt lat="58.10057167" lon="14.537635"><ele>120.0</ele><time>2016-06-18T04:47:25.320Z</time></trkpt><trkpt lat="58.10045167" lon="14.53765833"><ele>120.0</ele><time>2016-06-18T04:47:26.286Z</time></trkpt><trkpt lat="58.10045167" lon="14.53765833"><ele>120.0</ele><time>2016-06-18T04:47:27.317Z</time></trkpt><trkpt lat="58.10033167" lon="14.53767"><ele>120.0</ele><time>2016-06-18T04:47:28.285Z</time></trkpt><trkpt lat="58.10033167" lon="14.53767"><ele>120.0</ele><time>2016-06-18T04:47:29.308Z</time></trkpt><trkpt lat="58.1002" lon="14.53767167"><ele>120.0</ele><time>2016-06-18T04:47:30.315Z</time></trkpt><trkpt lat="58.10012833" lon="14.53767667"><ele>120.0</ele><time>2016-06-18T04:47:31.287Z</time></trkpt><trkpt lat="58.10012833" lon="14.53767667"><ele>120.0</ele><time>2016-06-18T04:47:32.313Z</time></trkpt><trkpt lat="58.10000167" lon="14.53769167"><ele>120.0</ele><time>2016-06-18T04:47:33.318Z</time></trkpt><trkpt lat="58.09993833" lon="14.53768333"><ele>120.0</ele><time>2016-06-18T04:47:34.299Z</time></trkpt><trkpt lat="58.09993833" lon="14.53768333"><ele>120.0</ele><time>2016-06-18T04:47:35.283Z</time></trkpt><trkpt lat="58.09982" lon="14.53767667"><ele>120.0</ele><time>2016-06-18T04:47:36.315Z</time></trkpt><trkpt lat="58.09976333" lon="14.53766833"><ele>120.0</ele><time>2016-06-18T04:47:37.291Z</time></trkpt><trkpt lat="58.09976333" lon="14.53766833"><ele>120.0</ele><time>2016-06-18T04:47:38.313Z</time></trkpt><trkpt lat="58.09962333" lon="14.53765833"><ele>121.0</ele><time>2016-06-18T04:47:39.305Z</time></trkpt><trkpt lat="58.09962333" lon="14.53765833"><ele>121.0</ele><time>2016-06-18T04:47:40.290Z</time></trkpt><trkpt lat="58.09950667" lon="14.53763"><ele>121.0</ele><time>2016-06-18T04:47:41.297Z</time></trkpt><trkpt lat="58.09950667" lon="14.53763"><ele>121.0</ele><time>2016-06-18T04:47:42.284Z</time></trkpt><trkpt lat="58.09936833" lon="14.53760667"><ele>121.0</ele><time>2016-06-18T04:47:43.306Z</time></trkpt><trkpt lat="58.09936833" lon="14.53760667"><ele>121.0</ele><time>2016-06-18T04:47:44.312Z</time></trkpt><trkpt lat="58.09923333" lon="14.53756333"><ele>121.0</ele><time>2016-06-18T04:47:45.322Z</time></trkpt><trkpt lat="58.09917" lon="14.53753333"><ele>122.0</ele><time>2016-06-18T04:47:46.314Z</time></trkpt><trkpt lat="58.09917" lon="14.53753333"><ele>122.0</ele><time>2016-06-18T04:47:47.300Z</time></trkpt><trkpt lat="58.09905" lon="14.53747"><ele>122.0</ele><time>2016-06-18T04:47:48.309Z</time></trkpt><trkpt lat="58.09905" lon="14.53747"><ele>122.0</ele><time>2016-06-18T04:47:49.318Z</time></trkpt><trkpt lat="58.09892" lon="14.53740333"><ele>122.0</ele><time>2016-06-18T04:47:50.287Z</time></trkpt><trkpt lat="58.09892" lon="14.53740333"><ele>122.0</ele><time>2016-06-18T04:47:51.309Z</time></trkpt><trkpt lat="58.09877333" lon="14.53732"><ele>121.0</ele><time>2016-06-18T04:47:52.316Z</time></trkpt><trkpt lat="58.09870333" lon="14.53728333"><ele>121.0</ele><time>2016-06-18T04:47:53.317Z</time></trkpt><trkpt lat="58.09863167" lon="14.53723833"><ele>121.0</ele><time>2016-06-18T04:47:54.297Z</time></trkpt><trkpt lat="58.09863167" lon="14.53723833"><ele>121.0</ele><time>2016-06-18T04:47:55.283Z</time></trkpt><trkpt lat="58.09848833" lon="14.53713833"><ele>121.0</ele><time>2016-06-18T04:47:56.295Z</time></trkpt><trkpt lat="58.09848833" lon="14.53713833"><ele>121.0</ele><time>2016-06-18T04:47:57.318Z</time></trkpt><trkpt lat="58.09834167" lon="14.53703667"><ele>121.0</ele><time>2016-06-18T04:47:58.285Z</time></trkpt><trkpt lat="58.09826833" lon="14.53698833"><ele>121.0</ele><time>2016-06-18T04:47:59.305Z</time></trkpt><trkpt lat="58.09826833" lon="14.53698833"><ele>121.0</ele><time>2016-06-18T04:48:00.282Z</time></trkpt><trkpt lat="58.098115" lon="14.53688667"><ele>121.0</ele><time>2016-06-18T04:48:01.308Z</time></trkpt><trkpt lat="58.09803667" lon="14.536835"><ele>121.0</ele><time>2016-06-18T04:48:02.286Z</time></trkpt><trkpt lat="58.09803667" lon="14.536835"><ele>121.0</ele><time>2016-06-18T04:48:03.291Z</time></trkpt><trkpt lat="58.09788333" lon="14.536735"><ele>120.0</ele><time>2016-06-18T04:48:04.285Z</time></trkpt><trkpt lat="58.097805" lon="14.53669"><ele>120.0</ele><time>2016-06-18T04:48:05.300Z</time></trkpt><trkpt lat="58.097805" lon="14.53669"><ele>120.0</ele><time>2016-06-18T04:48:06.312Z</time></trkpt><trkpt lat="58.09764833" lon="14.53659167"><ele>119.0</ele><time>2016-06-18T04:48:07.302Z</time></trkpt><trkpt lat="58.09764833" lon="14.53659167"><ele>119.0</ele><time>2016-06-18T04:48:08.321Z</time></trkpt><trkpt lat="58.09749167" lon="14.536495"><ele>118.0</ele><time>2016-06-18T04:48:09.293Z</time></trkpt><trkpt lat="58.09741333" lon="14.53645"><ele>118.0</ele><time>2016-06-18T04:48:10.295Z</time></trkpt><trkpt lat="58.09741333" lon="14.53645"><ele>118.0</ele><time>2016-06-18T04:48:11.299Z</time></trkpt><trkpt lat="58.097255" lon="14.53634833"><ele>118.0</ele><time>2016-06-18T04:48:12.295Z</time></trkpt><trkpt lat="58.097255" lon="14.53634833"><ele>118.0</ele><time>2016-06-18T04:48:13.317Z</time></trkpt><trkpt lat="58.09709833" lon="14.53624667"><ele>118.0</ele><time>2016-06-18T04:48:14.285Z</time></trkpt><trkpt lat="58.09709833" lon="14.53624667"><ele>118.0</ele><time>2016-06-18T04:48:15.304Z</time></trkpt><trkpt lat="58.09694333" lon="14.53615"><ele>117.0</ele><time>2016-06-18T04:48:16.311Z</time></trkpt><trkpt lat="58.09694333" lon="14.53615"><ele>117.0</ele><time>2016-06-18T04:48:17.320Z</time></trkpt><trkpt lat="58.096795" lon="14.53606333"><ele>117.0</ele><time>2016-06-18T04:48:18.287Z</time></trkpt><trkpt lat="58.096795" lon="14.53606333"><ele>117.0</ele><time>2016-06-18T04:48:19.316Z</time></trkpt><trkpt lat="58.096655" lon="14.53598333"><ele>117.0</ele><time>2016-06-18T04:48:20.295Z</time></trkpt><trkpt lat="58.096655" lon="14.53598333"><ele>117.0</ele><time>2016-06-18T04:48:21.299Z</time></trkpt><trkpt lat="58.09652167" lon="14.53590833"><ele>117.0</ele><time>2016-06-18T04:48:22.317Z</time></trkpt><trkpt lat="58.09652167" lon="14.53590833"><ele>117.0</ele><time>2016-06-18T04:48:23.299Z</time></trkpt><trkpt lat="58.09639167" lon="14.53583667"><ele>116.0</ele><time>2016-06-18T04:48:24.293Z</time></trkpt><trkpt lat="58.09639167" lon="14.53583667"><ele>116.0</ele><time>2016-06-18T04:48:25.305Z</time></trkpt><trkpt lat="58.09626333" lon="14.53576833"><ele>116.0</ele><time>2016-06-18T04:48:26.314Z</time></trkpt><trkpt lat="58.09626333" lon="14.53576833"><ele>116.0</ele><time>2016-06-18T04:48:27.296Z</time></trkpt><trkpt lat="58.09613" lon="14.53570667"><ele>116.0</ele><time>2016-06-18T04:48:28.292Z</time></trkpt><trkpt lat="58.09613" lon="14.53570667"><ele>116.0</ele><time>2016-06-18T04:48:29.315Z</time></trkpt><trkpt lat="58.09600667" lon="14.535635"><ele>116.0</ele><time>2016-06-18T04:48:30.282Z</time></trkpt><trkpt lat="58.09594" lon="14.53559"><ele>116.0</ele><time>2016-06-18T04:48:31.297Z</time></trkpt><trkpt lat="58.09594" lon="14.53559"><ele>116.0</ele><time>2016-06-18T04:48:32.312Z</time></trkpt><trkpt lat="58.09580833" lon="14.53550667"><ele>116.0</ele><time>2016-06-18T04:48:33.319Z</time></trkpt><trkpt lat="58.09574167" lon="14.535465"><ele>116.0</ele><time>2016-06-18T04:48:34.288Z</time></trkpt><trkpt lat="58.09574167" lon="14.535465"><ele>116.0</ele><time>2016-06-18T04:48:35.292Z</time></trkpt><trkpt lat="58.095605" lon="14.535385"><ele>116.0</ele><time>2016-06-18T04:48:36.300Z</time></trkpt><trkpt lat="58.095535" lon="14.535345"><ele>116.0</ele><time>2016-06-18T04:48:37.315Z</time></trkpt><trkpt lat="58.09546667" lon="14.53530333"><ele>116.0</ele><time>2016-06-18T04:48:38.297Z</time></trkpt><trkpt lat="58.09546667" lon="14.53530333"><ele>116.0</ele><time>2016-06-18T04:48:39.311Z</time></trkpt><trkpt lat="58.09533" lon="14.53522"><ele>116.0</ele><time>2016-06-18T04:48:40.320Z</time></trkpt><trkpt lat="58.09533" lon="14.53522"><ele>116.0</ele><time>2016-06-18T04:48:41.302Z</time></trkpt><trkpt lat="58.09519333" lon="14.53513667"><ele>116.0</ele><time>2016-06-18T04:48:42.313Z</time></trkpt><trkpt lat="58.09512833" lon="14.53509333"><ele>116.0</ele><time>2016-06-18T04:48:43.308Z</time></trkpt><trkpt lat="58.09506" lon="14.53505167"><ele>116.0</ele><time>2016-06-18T04:48:44.299Z</time></trkpt><trkpt lat="58.09506" lon="14.53505167"><ele>116.0</ele><time>2016-06-18T04:48:45.321Z</time></trkpt><trkpt lat="58.094925" lon="14.53494333"><ele>116.0</ele><time>2016-06-18T04:48:46.328Z</time></trkpt><trkpt lat="58.094925" lon="14.53494333"><ele>116.0</ele><time>2016-06-18T04:48:47.313Z</time></trkpt><trkpt lat="58.09479167" lon="14.53483667"><ele>116.0</ele><time>2016-06-18T04:48:48.321Z</time></trkpt><trkpt lat="58.09479167" lon="14.53483667"><ele>116.0</ele><time>2016-06-18T04:48:49.294Z</time></trkpt><trkpt lat="58.09466333" lon="14.53471333"><ele>117.0</ele><time>2016-06-18T04:48:50.283Z</time></trkpt><trkpt lat="58.09466333" lon="14.53471333"><ele>117.0</ele><time>2016-06-18T04:48:51.296Z</time></trkpt><trkpt lat="58.09453167" lon="14.53459667"><ele>116.0</ele><time>2016-06-18T04:48:52.303Z</time></trkpt><trkpt lat="58.09453167" lon="14.53459667"><ele>116.0</ele><time>2016-06-18T04:48:53.315Z</time></trkpt><trkpt lat="58.09440167" lon="14.534485"><ele>117.0</ele><time>2016-06-18T04:48:54.313Z</time></trkpt><trkpt lat="58.09440167" lon="14.534485"><ele>117.0</ele><time>2016-06-18T04:48:55.319Z</time></trkpt><trkpt lat="58.09427333" lon="14.53436667"><ele>117.0</ele><time>2016-06-18T04:48:56.285Z</time></trkpt><trkpt lat="58.09420667" lon="14.53430667"><ele>117.0</ele><time>2016-06-18T04:48:57.298Z</time></trkpt><trkpt lat="58.09420667" lon="14.53430667"><ele>117.0</ele><time>2016-06-18T04:48:58.315Z</time></trkpt><trkpt lat="58.09407167" lon="14.5342"><ele>117.0</ele><time>2016-06-18T04:48:59.283Z</time></trkpt><trkpt lat="58.09400667" lon="14.53414667"><ele>118.0</ele><time>2016-06-18T04:49:00.320Z</time></trkpt><trkpt lat="58.09394333" lon="14.534085"><ele>118.0</ele><time>2016-06-18T04:49:01.302Z</time></trkpt><trkpt lat="58.09394333" lon="14.534085"><ele>118.0</ele><time>2016-06-18T04:49:02.320Z</time></trkpt><trkpt lat="58.09381333" lon="14.53396667"><ele>118.0</ele><time>2016-06-18T04:49:03.288Z</time></trkpt><trkpt lat="58.09381333" lon="14.53396667"><ele>118.0</ele><time>2016-06-18T04:49:04.309Z</time></trkpt><trkpt lat="58.09368" lon="14.53385167"><ele>119.0</ele><time>2016-06-18T04:49:05.287Z</time></trkpt><trkpt lat="58.09361333" lon="14.53379667"><ele>119.0</ele><time>2016-06-18T04:49:06.283Z</time></trkpt><trkpt lat="58.09361333" lon="14.53379667"><ele>119.0</ele><time>2016-06-18T04:49:07.303Z</time></trkpt><trkpt lat="58.09348" lon="14.533695"><ele>119.0</ele><time>2016-06-18T04:49:08.310Z</time></trkpt><trkpt lat="58.09348" lon="14.533695"><ele>119.0</ele><time>2016-06-18T04:49:09.290Z</time></trkpt><trkpt lat="58.09335333" lon="14.533615"><ele>120.0</ele><time>2016-06-18T04:49:10.313Z</time></trkpt><trkpt lat="58.09335333" lon="14.533615"><ele>120.0</ele><time>2016-06-18T04:49:11.309Z</time></trkpt><trkpt lat="58.093235" lon="14.533545"><ele>120.0</ele><time>2016-06-18T04:49:12.304Z</time></trkpt><trkpt lat="58.09317667" lon="14.53352"><ele>120.0</ele><time>2016-06-18T04:49:13.289Z</time></trkpt><trkpt lat="58.09317667" lon="14.53352"><ele>120.0</ele><time>2016-06-18T04:49:14.296Z</time></trkpt><trkpt lat="58.09303833" lon="14.53346333"><ele>120.0</ele><time>2016-06-18T04:49:15.308Z</time></trkpt><trkpt lat="58.09296333" lon="14.53343333"><ele>120.0</ele><time>2016-06-18T04:49:16.289Z</time></trkpt><trkpt lat="58.09289333" lon="14.5334"><ele>120.0</ele><time>2016-06-18T04:49:17.299Z</time></trkpt><trkpt lat="58.09289333" lon="14.5334"><ele>120.0</ele><time>2016-06-18T04:49:18.314Z</time></trkpt><trkpt lat="58.09274667" lon="14.53332833"><ele>120.0</ele><time>2016-06-18T04:49:19.286Z</time></trkpt><trkpt lat="58.09274667" lon="14.53332833"><ele>120.0</ele><time>2016-06-18T04:49:20.309Z</time></trkpt><trkpt lat="58.0926" lon="14.53325167"><ele>120.0</ele><time>2016-06-18T04:49:21.297Z</time></trkpt><trkpt lat="58.0926" lon="14.53325167"><ele>120.0</ele><time>2016-06-18T04:49:22.313Z</time></trkpt><trkpt lat="58.09245667" lon="14.53316667"><ele>121.0</ele><time>2016-06-18T04:49:23.284Z</time></trkpt><trkpt lat="58.09239" lon="14.533125"><ele>121.0</ele><time>2016-06-18T04:49:24.290Z</time></trkpt><trkpt lat="58.09239" lon="14.533125"><ele>121.0</ele><time>2016-06-18T04:49:25.299Z</time></trkpt><trkpt lat="58.09225833" lon="14.53304667"><ele>121.0</ele><time>2016-06-18T04:49:26.305Z</time></trkpt><trkpt lat="58.09225833" lon="14.53304667"><ele>121.0</ele><time>2016-06-18T04:49:27.314Z</time></trkpt><trkpt lat="58.09213333" lon="14.53296333"><ele>121.0</ele><time>2016-06-18T04:49:28.292Z</time></trkpt><trkpt lat="58.09213333" lon="14.53296333"><ele>121.0</ele><time>2016-06-18T04:49:29.318Z</time></trkpt><trkpt lat="58.09199833" lon="14.532875"><ele>121.0</ele><time>2016-06-18T04:49:30.284Z</time></trkpt><trkpt lat="58.09193167" lon="14.53283333"><ele>121.0</ele><time>2016-06-18T04:49:31.316Z</time></trkpt><trkpt lat="58.09186667" lon="14.53278667"><ele>121.0</ele><time>2016-06-18T04:49:32.296Z</time></trkpt><trkpt lat="58.09186667" lon="14.53278667"><ele>121.0</ele><time>2016-06-18T04:49:33.314Z</time></trkpt><trkpt lat="58.09172667" lon="14.53269833"><ele>121.0</ele><time>2016-06-18T04:49:34.308Z</time></trkpt><trkpt lat="58.09165667" lon="14.532655"><ele>121.0</ele><time>2016-06-18T04:49:35.291Z</time></trkpt><trkpt lat="58.09165667" lon="14.532655"><ele>121.0</ele><time>2016-06-18T04:49:36.314Z</time></trkpt><trkpt lat="58.091515" lon="14.53256833"><ele>121.0</ele><time>2016-06-18T04:49:37.294Z</time></trkpt><trkpt lat="58.091515" lon="14.53256833"><ele>121.0</ele><time>2016-06-18T04:49:38.312Z</time></trkpt><trkpt lat="58.09137333" lon="14.53247667"><ele>121.0</ele><time>2016-06-18T04:49:39.319Z</time></trkpt><trkpt lat="58.09137333" lon="14.53247667"><ele>121.0</ele><time>2016-06-18T04:49:40.285Z</time></trkpt><trkpt lat="58.091245" lon="14.53239167"><ele>122.0</ele><time>2016-06-18T04:49:41.284Z</time></trkpt><trkpt lat="58.091245" lon="14.53239167"><ele>122.0</ele><time>2016-06-18T04:49:42.290Z</time></trkpt><trkpt lat="58.09111333" lon="14.53230833"><ele>123.0</ele><time>2016-06-18T04:49:43.301Z</time></trkpt><trkpt lat="58.091045" lon="14.53226667"><ele>123.0</ele><time>2016-06-18T04:49:44.321Z</time></trkpt><trkpt lat="58.091045" lon="14.53226667"><ele>123.0</ele><time>2016-06-18T04:49:45.303Z</time></trkpt><trkpt lat="58.090905" lon="14.53219333"><ele>122.0</ele><time>2016-06-18T04:49:46.311Z</time></trkpt><trkpt lat="58.090905" lon="14.53219333"><ele>122.0</ele><time>2016-06-18T04:49:47.319Z</time></trkpt><trkpt lat="58.090765" lon="14.53209833"><ele>122.0</ele><time>2016-06-18T04:49:48.287Z</time></trkpt><trkpt lat="58.090765" lon="14.53209833"><ele>122.0</ele><time>2016-06-18T04:49:49.294Z</time></trkpt><trkpt lat="58.09062" lon="14.53201167"><ele>121.0</ele><time>2016-06-18T04:49:50.309Z</time></trkpt><trkpt lat="58.09054667" lon="14.53196333"><ele>121.0</ele><time>2016-06-18T04:49:51.306Z</time></trkpt><trkpt lat="58.09054667" lon="14.53196333"><ele>121.0</ele><time>2016-06-18T04:49:52.314Z</time></trkpt><trkpt lat="58.0904" lon="14.531865"><ele>121.0</ele><time>2016-06-18T04:49:53.286Z</time></trkpt><trkpt lat="58.09032667" lon="14.53180667"><ele>121.0</ele><time>2016-06-18T04:49:54.309Z</time></trkpt><trkpt lat="58.09032667" lon="14.53180667"><ele>121.0</ele><time>2016-06-18T04:49:55.287Z</time></trkpt><trkpt lat="58.09018333" lon="14.53170333"><ele>121.0</ele><time>2016-06-18T04:49:56.301Z</time></trkpt><trkpt lat="58.09018333" lon="14.53170333"><ele>121.0</ele><time>2016-06-18T04:49:57.284Z</time></trkpt><trkpt lat="58.09004167" lon="14.53159167"><ele>121.0</ele><time>2016-06-18T04:49:58.307Z</time></trkpt><trkpt lat="58.09004167" lon="14.53159167"><ele>121.0</ele><time>2016-06-18T04:49:59.289Z</time></trkpt><trkpt lat="58.08989833" lon="14.53147167"><ele>121.0</ele><time>2016-06-18T04:50:00.304Z</time></trkpt><trkpt lat="58.08983" lon="14.53141667"><ele>121.0</ele><time>2016-06-18T04:50:01.298Z</time></trkpt><trkpt lat="58.08976333" lon="14.53136167"><ele>120.0</ele><time>2016-06-18T04:50:02.289Z</time></trkpt><trkpt lat="58.08976333" lon="14.53136167"><ele>120.0</ele><time>2016-06-18T04:50:03.314Z</time></trkpt><trkpt lat="58.089635" lon="14.53124333"><ele>120.0</ele><time>2016-06-18T04:50:04.296Z</time></trkpt><trkpt lat="58.089635" lon="14.53124333"><ele>120.0</ele><time>2016-06-18T04:50:05.317Z</time></trkpt><trkpt lat="58.08949667" lon="14.53113"><ele>121.0</ele><time>2016-06-18T04:50:06.284Z</time></trkpt><trkpt lat="58.08949667" lon="14.53113"><ele>121.0</ele><time>2016-06-18T04:50:07.304Z</time></trkpt><trkpt lat="58.08935333" lon="14.53102167"><ele>121.0</ele><time>2016-06-18T04:50:08.308Z</time></trkpt><trkpt lat="58.08935333" lon="14.53102167"><ele>121.0</ele><time>2016-06-18T04:50:09.315Z</time></trkpt><trkpt lat="58.08920667" lon="14.53089833"><ele>121.0</ele><time>2016-06-18T04:50:10.300Z</time></trkpt><trkpt lat="58.08920667" lon="14.53089833"><ele>121.0</ele><time>2016-06-18T04:50:11.304Z</time></trkpt><trkpt lat="58.08905333" lon="14.53077833"><ele>121.0</ele><time>2016-06-18T04:50:12.289Z</time></trkpt><trkpt lat="58.08898" lon="14.53071833"><ele>121.0</ele><time>2016-06-18T04:50:13.318Z</time></trkpt><trkpt lat="58.08898" lon="14.53071833"><ele>121.0</ele><time>2016-06-18T04:50:14.289Z</time></trkpt><trkpt lat="58.08883" lon="14.53058833"><ele>122.0</ele><time>2016-06-18T04:50:15.291Z</time></trkpt><trkpt lat="58.08883" lon="14.53058833"><ele>122.0</ele><time>2016-06-18T04:50:16.315Z</time></trkpt><trkpt lat="58.08868167" lon="14.53045667"><ele>121.0</ele><time>2016-06-18T04:50:17.294Z</time></trkpt><trkpt lat="58.088605" lon="14.53039667"><ele>121.0</ele><time>2016-06-18T04:50:18.294Z</time></trkpt><trkpt lat="58.08853667" lon="14.53033833"><ele>121.0</ele><time>2016-06-18T04:50:19.316Z</time></trkpt><trkpt lat="58.08846833" lon="14.530275"><ele>121.0</ele><time>2016-06-18T04:50:20.301Z</time></trkpt><trkpt lat="58.08846833" lon="14.530275"><ele>121.0</ele><time>2016-06-18T04:50:21.321Z</time></trkpt><trkpt lat="58.08833167" lon="14.53014"><ele>120.0</ele><time>2016-06-18T04:50:22.288Z</time></trkpt><trkpt lat="58.08833167" lon="14.53014"><ele>120.0</ele><time>2016-06-18T04:50:23.313Z</time></trkpt><trkpt lat="58.08820333" lon="14.53000167"><ele>119.0</ele><time>2016-06-18T04:50:24.308Z</time></trkpt><trkpt lat="58.08820333" lon="14.53000167"><ele>119.0</ele><time>2016-06-18T04:50:25.315Z</time></trkpt><trkpt lat="58.08807333" lon="14.52985833"><ele>118.0</ele><time>2016-06-18T04:50:26.283Z</time></trkpt><trkpt lat="58.08807333" lon="14.52985833"><ele>118.0</ele><time>2016-06-18T04:50:27.304Z</time></trkpt><trkpt lat="58.08794667" lon="14.52971167"><ele>118.0</ele><time>2016-06-18T04:50:28.319Z</time></trkpt><trkpt lat="58.08794667" lon="14.52971167"><ele>118.0</ele><time>2016-06-18T04:50:29.301Z</time></trkpt><trkpt lat="58.08782" lon="14.52956167"><ele>118.0</ele><time>2016-06-18T04:50:30.326Z</time></trkpt><trkpt lat="58.08775667" lon="14.52948333"><ele>118.0</ele><time>2016-06-18T04:50:31.287Z</time></trkpt><trkpt lat="58.087695" lon="14.529405"><ele>117.0</ele><time>2016-06-18T04:50:32.308Z</time></trkpt><trkpt lat="58.087695" lon="14.529405"><ele>117.0</ele><time>2016-06-18T04:50:33.282Z</time></trkpt><trkpt lat="58.08756833" lon="14.52923667"><ele>117.0</ele><time>2016-06-18T04:50:34.285Z</time></trkpt><trkpt lat="58.08756833" lon="14.52923667"><ele>117.0</ele><time>2016-06-18T04:50:35.285Z</time></trkpt><trkpt lat="58.087445" lon="14.52906667"><ele>116.0</ele><time>2016-06-18T04:50:36.292Z</time></trkpt><trkpt lat="58.08738333" lon="14.528985"><ele>116.0</ele><time>2016-06-18T04:50:37.288Z</time></trkpt><trkpt lat="58.08738333" lon="14.528985"><ele>116.0</ele><time>2016-06-18T04:50:38.287Z</time></trkpt><trkpt lat="58.08726333" lon="14.52881167"><ele>116.0</ele><time>2016-06-18T04:50:39.295Z</time></trkpt><trkpt lat="58.08726333" lon="14.52881167"><ele>116.0</ele><time>2016-06-18T04:50:40.308Z</time></trkpt><trkpt lat="58.08714" lon="14.528625"><ele>116.0</ele><time>2016-06-18T04:50:41.287Z</time></trkpt><trkpt lat="58.08707833" lon="14.52852667"><ele>116.0</ele><time>2016-06-18T04:50:42.302Z</time></trkpt><trkpt lat="58.08707833" lon="14.52852667"><ele>116.0</ele><time>2016-06-18T04:50:43.289Z</time></trkpt><trkpt lat="58.08695833" lon="14.52833333"><ele>115.0</ele><time>2016-06-18T04:50:44.308Z</time></trkpt><trkpt lat="58.08695833" lon="14.52833333"><ele>115.0</ele><time>2016-06-18T04:50:45.290Z</time></trkpt><trkpt lat="58.08684167" lon="14.52814833"><ele>115.0</ele><time>2016-06-18T04:50:46.296Z</time></trkpt><trkpt lat="58.08684167" lon="14.52814833"><ele>115.0</ele><time>2016-06-18T04:50:47.317Z</time></trkpt><trkpt lat="58.08672667" lon="14.52795667"><ele>115.0</ele><time>2016-06-18T04:50:48.310Z</time></trkpt><trkpt lat="58.08672667" lon="14.52795667"><ele>115.0</ele><time>2016-06-18T04:50:49.290Z</time></trkpt><trkpt lat="58.08661167" lon="14.52777333"><ele>116.0</ele><time>2016-06-18T04:50:50.297Z</time></trkpt><trkpt lat="58.08655167" lon="14.52768167"><ele>115.0</ele><time>2016-06-18T04:50:51.292Z</time></trkpt><trkpt lat="58.08655167" lon="14.52768167"><ele>115.0</ele><time>2016-06-18T04:50:52.318Z</time></trkpt><trkpt lat="58.08643" lon="14.52750167"><ele>116.0</ele><time>2016-06-18T04:50:53.288Z</time></trkpt><trkpt lat="58.08643" lon="14.52750167"><ele>116.0</ele><time>2016-06-18T04:50:54.314Z</time></trkpt><trkpt lat="58.08631" lon="14.52732167"><ele>115.0</ele><time>2016-06-18T04:50:55.315Z</time></trkpt><trkpt lat="58.08631" lon="14.52732167"><ele>115.0</ele><time>2016-06-18T04:50:56.296Z</time></trkpt><trkpt lat="58.08619167" lon="14.52713333"><ele>115.0</ele><time>2016-06-18T04:50:57.303Z</time></trkpt><trkpt lat="58.08619167" lon="14.52713333"><ele>115.0</ele><time>2016-06-18T04:50:58.284Z</time></trkpt><trkpt lat="58.08607333" lon="14.52694"><ele>114.0</ele><time>2016-06-18T04:50:59.287Z</time></trkpt><trkpt lat="58.08607333" lon="14.52694"><ele>114.0</ele><time>2016-06-18T04:51:00.312Z</time></trkpt><trkpt lat="58.08595167" lon="14.52676"><ele>114.0</ele><time>2016-06-18T04:51:01.320Z</time></trkpt><trkpt lat="58.08589167" lon="14.52667"><ele>114.0</ele><time>2016-06-18T04:51:02.304Z</time></trkpt><trkpt lat="58.08583333" lon="14.526575"><ele>114.0</ele><time>2016-06-18T04:51:03.312Z</time></trkpt><trkpt lat="58.08583333" lon="14.526575"><ele>114.0</ele><time>2016-06-18T04:51:04.294Z</time></trkpt><trkpt lat="58.08571167" lon="14.526395"><ele>114.0</ele><time>2016-06-18T04:51:05.290Z</time></trkpt><trkpt lat="58.08565333" lon="14.52631"><ele>114.0</ele><time>2016-06-18T04:51:06.311Z</time></trkpt><trkpt lat="58.08565333" lon="14.52631"><ele>114.0</ele><time>2016-06-18T04:51:07.292Z</time></trkpt><trkpt lat="58.08553667" lon="14.52613667"><ele>114.0</ele><time>2016-06-18T04:51:08.328Z</time></trkpt><trkpt lat="58.08553667" lon="14.52613667"><ele>114.0</ele><time>2016-06-18T04:51:09.314Z</time></trkpt><trkpt lat="58.08541833" lon="14.52596"><ele>113.0</ele><time>2016-06-18T04:51:10.282Z</time></trkpt><trkpt lat="58.08541833" lon="14.52596"><ele>113.0</ele><time>2016-06-18T04:51:11.282Z</time></trkpt><trkpt lat="58.08529667" lon="14.52578833"><ele>113.0</ele><time>2016-06-18T04:51:12.292Z</time></trkpt><trkpt lat="58.085235" lon="14.525705"><ele>113.0</ele><time>2016-06-18T04:51:13.292Z</time></trkpt><trkpt lat="58.085235" lon="14.525705"><ele>113.0</ele><time>2016-06-18T04:51:14.316Z</time></trkpt><trkpt lat="58.08510667" lon="14.52552667"><ele>112.0</ele><time>2016-06-18T04:51:15.283Z</time></trkpt><trkpt lat="58.08504667" lon="14.52544"><ele>112.0</ele><time>2016-06-18T04:51:16.328Z</time></trkpt><trkpt lat="58.08504667" lon="14.52544"><ele>112.0</ele><time>2016-06-18T04:51:17.312Z</time></trkpt><trkpt lat="58.08490833" lon="14.52524833"><ele>112.0</ele><time>2016-06-18T04:51:18.319Z</time></trkpt><trkpt lat="58.08490833" lon="14.52524833"><ele>112.0</ele><time>2016-06-18T04:51:19.303Z</time></trkpt><trkpt lat="58.08476833" lon="14.52507333"><ele>113.0</ele><time>2016-06-18T04:51:20.288Z</time></trkpt><trkpt lat="58.08476833" lon="14.52507333"><ele>113.0</ele><time>2016-06-18T04:51:21.301Z</time></trkpt><trkpt lat="58.084635" lon="14.52487"><ele>112.0</ele><time>2016-06-18T04:51:22.317Z</time></trkpt><trkpt lat="58.084575" lon="14.524775"><ele>112.0</ele><time>2016-06-18T04:51:23.308Z</time></trkpt><trkpt lat="58.084575" lon="14.524775"><ele>112.0</ele><time>2016-06-18T04:51:24.290Z</time></trkpt><trkpt lat="58.08445" lon="14.52460333"><ele>112.0</ele><time>2016-06-18T04:51:25.297Z</time></trkpt><trkpt lat="58.08438" lon="14.52450167"><ele>112.0</ele><time>2016-06-18T04:51:26.308Z</time></trkpt><trkpt lat="58.08438" lon="14.52450167"><ele>112.0</ele><time>2016-06-18T04:51:27.321Z</time></trkpt><trkpt lat="58.08425" lon="14.52430667"><ele>112.0</ele><time>2016-06-18T04:51:28.288Z</time></trkpt><trkpt lat="58.08425" lon="14.52430667"><ele>112.0</ele><time>2016-06-18T04:51:29.320Z</time></trkpt><trkpt lat="58.08414333" lon="14.52410333"><ele>111.0</ele><time>2016-06-18T04:51:30.321Z</time></trkpt><trkpt lat="58.08414333" lon="14.52410333"><ele>111.0</ele><time>2016-06-18T04:51:31.305Z</time></trkpt><trkpt lat="58.08401833" lon="14.52390333"><ele>111.0</ele><time>2016-06-18T04:51:32.317Z</time></trkpt><trkpt lat="58.08401833" lon="14.52390333"><ele>111.0</ele><time>2016-06-18T04:51:33.301Z</time></trkpt><trkpt lat="58.08388833" lon="14.52370833"><ele>110.0</ele><time>2016-06-18T04:51:34.296Z</time></trkpt><trkpt lat="58.08388833" lon="14.52370833"><ele>110.0</ele><time>2016-06-18T04:51:35.310Z</time></trkpt><trkpt lat="58.08376" lon="14.52349167"><ele>110.0</ele><time>2016-06-18T04:51:36.318Z</time></trkpt><trkpt lat="58.08369833" lon="14.52338833"><ele>110.0</ele><time>2016-06-18T04:51:37.324Z</time></trkpt><trkpt lat="58.083635" lon="14.52328167"><ele>110.0</ele><time>2016-06-18T04:51:38.317Z</time></trkpt><trkpt lat="58.083635" lon="14.52328167"><ele>110.0</ele><time>2016-06-18T04:51:39.301Z</time></trkpt><trkpt lat="58.083505" lon="14.52307"><ele>109.0</ele><time>2016-06-18T04:51:40.310Z</time></trkpt><trkpt lat="58.083505" lon="14.52307"><ele>109.0</ele><time>2016-06-18T04:51:41.294Z</time></trkpt><trkpt lat="58.08335667" lon="14.52288333"><ele>108.0</ele><time>2016-06-18T04:51:42.301Z</time></trkpt><trkpt lat="58.08328833" lon="14.52278333"><ele>108.0</ele><time>2016-06-18T04:51:43.306Z</time></trkpt><trkpt lat="58.08328833" lon="14.52278333"><ele>108.0</ele><time>2016-06-18T04:51:44.321Z</time></trkpt><trkpt lat="58.08316" lon="14.52259667"><ele>107.0</ele><time>2016-06-18T04:51:45.287Z</time></trkpt><trkpt lat="58.083095" lon="14.52250833"><ele>107.0</ele><time>2016-06-18T04:51:46.311Z</time></trkpt><trkpt lat="58.083095" lon="14.52250833"><ele>107.0</ele><time>2016-06-18T04:51:47.293Z</time></trkpt><trkpt lat="58.08296667" lon="14.52233667"><ele>106.0</ele><time>2016-06-18T04:51:48.299Z</time></trkpt><trkpt lat="58.08296667" lon="14.52233667"><ele>106.0</ele><time>2016-06-18T04:51:49.308Z</time></trkpt><trkpt lat="58.08284333" lon="14.52215167"><ele>106.0</ele><time>2016-06-18T04:51:50.301Z</time></trkpt><trkpt lat="58.08284333" lon="14.52215167"><ele>106.0</ele><time>2016-06-18T04:51:51.289Z</time></trkpt><trkpt lat="58.08271167" lon="14.52198"><ele>105.0</ele><time>2016-06-18T04:51:52.296Z</time></trkpt><trkpt lat="58.08271167" lon="14.52198"><ele>105.0</ele><time>2016-06-18T04:51:53.305Z</time></trkpt><trkpt lat="58.082595" lon="14.52179"><ele>104.0</ele><time>2016-06-18T04:51:54.315Z</time></trkpt><trkpt lat="58.08253167" lon="14.5217"><ele>104.0</ele><time>2016-06-18T04:51:55.308Z</time></trkpt><trkpt lat="58.08253167" lon="14.5217"><ele>104.0</ele><time>2016-06-18T04:51:56.292Z</time></trkpt><trkpt lat="58.08239833" lon="14.521515"><ele>104.0</ele><time>2016-06-18T04:51:57.300Z</time></trkpt><trkpt lat="58.08239833" lon="14.521515"><ele>104.0</ele><time>2016-06-18T04:51:58.284Z</time></trkpt><trkpt lat="58.08226" lon="14.52133167"><ele>104.0</ele><time>2016-06-18T04:51:59.308Z</time></trkpt><trkpt lat="58.08226" lon="14.52133167"><ele>104.0</ele><time>2016-06-18T04:52:00.303Z</time></trkpt><trkpt lat="58.082125" lon="14.52115"><ele>104.0</ele><time>2016-06-18T04:52:01.319Z</time></trkpt><trkpt lat="58.082125" lon="14.52115"><ele>104.0</ele><time>2016-06-18T04:52:02.300Z</time></trkpt><trkpt lat="58.08197667" lon="14.52098333"><ele>106.0</ele><time>2016-06-18T04:52:03.297Z</time></trkpt><trkpt lat="58.08197667" lon="14.52098333"><ele>106.0</ele><time>2016-06-18T04:52:04.303Z</time></trkpt><trkpt lat="58.08181833" lon="14.52080667"><ele>108.0</ele><time>2016-06-18T04:52:05.311Z</time></trkpt><trkpt lat="58.08181833" lon="14.52080667"><ele>108.0</ele><time>2016-06-18T04:52:06.320Z</time></trkpt><trkpt lat="58.08167333" lon="14.52061167"><ele>109.0</ele><time>2016-06-18T04:52:07.317Z</time></trkpt><trkpt lat="58.08167333" lon="14.52061167"><ele>109.0</ele><time>2016-06-18T04:52:08.298Z</time></trkpt><trkpt lat="58.08152667" lon="14.52042667"><ele>109.0</ele><time>2016-06-18T04:52:09.305Z</time></trkpt><trkpt lat="58.08152667" lon="14.52042667"><ele>109.0</ele><time>2016-06-18T04:52:10.291Z</time></trkpt><trkpt lat="58.08138167" lon="14.52023667"><ele>110.0</ele><time>2016-06-18T04:52:11.293Z</time></trkpt><trkpt lat="58.08131" lon="14.52014333"><ele>110.0</ele><time>2016-06-18T04:52:12.319Z</time></trkpt><trkpt lat="58.08131" lon="14.52014333"><ele>110.0</ele><time>2016-06-18T04:52:13.303Z</time></trkpt><trkpt lat="58.08117" lon="14.519955"><ele>112.0</ele><time>2016-06-18T04:52:14.314Z</time></trkpt><trkpt lat="58.08110167" lon="14.51986333"><ele>112.0</ele><time>2016-06-18T04:52:15.308Z</time></trkpt><trkpt lat="58.08110167" lon="14.51986333"><ele>112.0</ele><time>2016-06-18T04:52:16.287Z</time></trkpt><trkpt lat="58.08095667" lon="14.51969333"><ele>113.0</ele><time>2016-06-18T04:52:17.293Z</time></trkpt><trkpt lat="58.08095667" lon="14.51969333"><ele>113.0</ele><time>2016-06-18T04:52:18.315Z</time></trkpt><trkpt lat="58.08082" lon="14.519505"><ele>114.0</ele><time>2016-06-18T04:52:19.298Z</time></trkpt><trkpt lat="58.08075167" lon="14.51940833"><ele>114.0</ele><time>2016-06-18T04:52:20.282Z</time></trkpt><trkpt lat="58.08075167" lon="14.51940833"><ele>114.0</ele><time>2016-06-18T04:52:21.304Z</time></trkpt><trkpt lat="58.080615" lon="14.5192"><ele>115.0</ele><time>2016-06-18T04:52:22.310Z</time></trkpt><trkpt lat="58.080615" lon="14.5192"><ele>115.0</ele><time>2016-06-18T04:52:23.288Z</time></trkpt><trkpt lat="58.08047667" lon="14.51902167"><ele>115.0</ele><time>2016-06-18T04:52:24.295Z</time></trkpt><trkpt lat="58.08047667" lon="14.51902167"><ele>115.0</ele><time>2016-06-18T04:52:25.318Z</time></trkpt><trkpt lat="58.08036167" lon="14.518865"><ele>116.0</ele><time>2016-06-18T04:52:26.315Z</time></trkpt><trkpt lat="58.08031" lon="14.51878"><ele>116.0</ele><time>2016-06-18T04:52:27.306Z</time></trkpt><trkpt lat="58.08031" lon="14.51878"><ele>116.0</ele><time>2016-06-18T04:52:28.287Z</time></trkpt><trkpt lat="58.080175" lon="14.51863667"><ele>116.0</ele><time>2016-06-18T04:52:29.308Z</time></trkpt><trkpt lat="58.08011" lon="14.51854833"><ele>117.0</ele><time>2016-06-18T04:52:30.314Z</time></trkpt><trkpt lat="58.08011" lon="14.51854833"><ele>117.0</ele><time>2016-06-18T04:52:31.296Z</time></trkpt><trkpt lat="58.07999167" lon="14.51835"><ele>117.0</ele><time>2016-06-18T04:52:32.287Z</time></trkpt><trkpt lat="58.07999167" lon="14.51835"><ele>117.0</ele><time>2016-06-18T04:52:33.313Z</time></trkpt><trkpt lat="58.07985833" lon="14.51817"><ele>117.0</ele><time>2016-06-18T04:52:34.321Z</time></trkpt><trkpt lat="58.07985833" lon="14.51817"><ele>117.0</ele><time>2016-06-18T04:52:35.306Z</time></trkpt><trkpt lat="58.07971667" lon="14.51800667"><ele>118.0</ele><time>2016-06-18T04:52:36.293Z</time></trkpt><trkpt lat="58.07971667" lon="14.51800667"><ele>118.0</ele><time>2016-06-18T04:52:37.305Z</time></trkpt><trkpt lat="58.07958833" lon="14.51784"><ele>118.0</ele><time>2016-06-18T04:52:38.314Z</time></trkpt><trkpt lat="58.07958833" lon="14.51784"><ele>118.0</ele><time>2016-06-18T04:52:39.297Z</time></trkpt><trkpt lat="58.07945333" lon="14.51766833"><ele>118.0</ele><time>2016-06-18T04:52:40.315Z</time></trkpt><trkpt lat="58.07945333" lon="14.51766833"><ele>118.0</ele><time>2016-06-18T04:52:41.299Z</time></trkpt><trkpt lat="58.07932333" lon="14.51750167"><ele>118.0</ele><time>2016-06-18T04:52:42.305Z</time></trkpt><trkpt lat="58.079255" lon="14.51741833"><ele>119.0</ele><time>2016-06-18T04:52:43.312Z</time></trkpt><trkpt lat="58.079185" lon="14.517335"><ele>119.0</ele><time>2016-06-18T04:52:44.293Z</time></trkpt><trkpt lat="58.079185" lon="14.517335"><ele>119.0</ele><time>2016-06-18T04:52:45.317Z</time></trkpt><trkpt lat="58.07905" lon="14.51716667"><ele>119.0</ele><time>2016-06-18T04:52:46.284Z</time></trkpt><trkpt lat="58.078985" lon="14.517075"><ele>120.0</ele><time>2016-06-18T04:52:47.318Z</time></trkpt><trkpt lat="58.078985" lon="14.517075"><ele>120.0</ele><time>2016-06-18T04:52:48.300Z</time></trkpt><trkpt lat="58.07885167" lon="14.516905"><ele>121.0</ele><time>2016-06-18T04:52:49.288Z</time></trkpt><trkpt lat="58.07878333" lon="14.51682"><ele>121.0</ele><time>2016-06-18T04:52:50.291Z</time></trkpt><trkpt lat="58.07878333" lon="14.51682"><ele>121.0</ele><time>2016-06-18T04:52:51.315Z</time></trkpt><trkpt lat="58.07864333" lon="14.51666"><ele>122.0</ele><time>2016-06-18T04:52:52.298Z</time></trkpt><trkpt lat="58.07864333" lon="14.51666"><ele>122.0</ele><time>2016-06-18T04:52:53.305Z</time></trkpt><trkpt lat="58.07850667" lon="14.51650667"><ele>123.0</ele><time>2016-06-18T04:52:54.316Z</time></trkpt><trkpt lat="58.07850667" lon="14.51650667"><ele>123.0</ele><time>2016-06-18T04:52:55.299Z</time></trkpt><trkpt lat="58.07837833" lon="14.51634167"><ele>123.0</ele><time>2016-06-18T04:52:56.306Z</time></trkpt><trkpt lat="58.07837833" lon="14.51634167"><ele>123.0</ele><time>2016-06-18T04:52:57.289Z</time></trkpt><trkpt lat="58.07824167" lon="14.51618833"><ele>123.0</ele><time>2016-06-18T04:52:58.318Z</time></trkpt><trkpt lat="58.07817667" lon="14.51610833"><ele>123.0</ele><time>2016-06-18T04:52:59.301Z</time></trkpt><trkpt lat="58.07817667" lon="14.51610833"><ele>123.0</ele><time>2016-06-18T04:53:00.283Z</time></trkpt><trkpt lat="58.078045" lon="14.51597"><ele>124.0</ele><time>2016-06-18T04:53:01.288Z</time></trkpt><trkpt lat="58.078045" lon="14.51597"><ele>124.0</ele><time>2016-06-18T04:53:02.316Z</time></trkpt><trkpt lat="58.07790833" lon="14.51581167"><ele>124.0</ele><time>2016-06-18T04:53:03.287Z</time></trkpt><trkpt lat="58.07784" lon="14.51572333"><ele>124.0</ele><time>2016-06-18T04:53:04.296Z</time></trkpt><trkpt lat="58.07784" lon="14.51572333"><ele>124.0</ele><time>2016-06-18T04:53:05.288Z</time></trkpt><trkpt lat="58.07770667" lon="14.51554667"><ele>124.0</ele><time>2016-06-18T04:53:06.295Z</time></trkpt><trkpt lat="58.07770667" lon="14.51554667"><ele>124.0</ele><time>2016-06-18T04:53:07.317Z</time></trkpt><trkpt lat="58.07757333" lon="14.51539167"><ele>124.0</ele><time>2016-06-18T04:53:08.318Z</time></trkpt><trkpt lat="58.07757333" lon="14.51539167"><ele>124.0</ele><time>2016-06-18T04:53:09.299Z</time></trkpt><trkpt lat="58.07744167" lon="14.515215"><ele>124.0</ele><time>2016-06-18T04:53:10.305Z</time></trkpt><trkpt lat="58.07744167" lon="14.515215"><ele>124.0</ele><time>2016-06-18T04:53:11.311Z</time></trkpt><trkpt lat="58.07730833" lon="14.51505333"><ele>124.0</ele><time>2016-06-18T04:53:12.315Z</time></trkpt><trkpt lat="58.07730833" lon="14.51505333"><ele>124.0</ele><time>2016-06-18T04:53:13.299Z</time></trkpt><trkpt lat="58.07717833" lon="14.51489"><ele>125.0</ele><time>2016-06-18T04:53:14.313Z</time></trkpt><trkpt lat="58.07717833" lon="14.51489"><ele>125.0</ele><time>2016-06-18T04:53:15.297Z</time></trkpt><trkpt lat="58.07704333" lon="14.51472167"><ele>125.0</ele><time>2016-06-18T04:53:16.304Z</time></trkpt><trkpt lat="58.07704333" lon="14.51472167"><ele>125.0</ele><time>2016-06-18T04:53:17.286Z</time></trkpt><trkpt lat="58.07690167" lon="14.51454833"><ele>125.0</ele><time>2016-06-18T04:53:18.283Z</time></trkpt><trkpt lat="58.07690167" lon="14.51454833"><ele>125.0</ele><time>2016-06-18T04:53:19.299Z</time></trkpt><trkpt lat="58.076765" lon="14.51437333"><ele>124.0</ele><time>2016-06-18T04:53:20.306Z</time></trkpt><trkpt lat="58.076765" lon="14.51437333"><ele>124.0</ele><time>2016-06-18T04:53:21.282Z</time></trkpt><trkpt lat="58.07662833" lon="14.51420333"><ele>123.0</ele><time>2016-06-18T04:53:22.312Z</time></trkpt><trkpt lat="58.07655667" lon="14.514125"><ele>123.0</ele><time>2016-06-18T04:53:23.295Z</time></trkpt><trkpt lat="58.07655667" lon="14.514125"><ele>123.0</ele><time>2016-06-18T04:53:24.319Z</time></trkpt><trkpt lat="58.07642167" lon="14.513955"><ele>122.0</ele><time>2016-06-18T04:53:25.284Z</time></trkpt><trkpt lat="58.07642167" lon="14.513955"><ele>122.0</ele><time>2016-06-18T04:53:26.315Z</time></trkpt><trkpt lat="58.076285" lon="14.51379333"><ele>122.0</ele><time>2016-06-18T04:53:27.283Z</time></trkpt><trkpt lat="58.076285" lon="14.51379333"><ele>122.0</ele><time>2016-06-18T04:53:28.306Z</time></trkpt><trkpt lat="58.07615" lon="14.513625"><ele>121.0</ele><time>2016-06-18T04:53:29.316Z</time></trkpt><trkpt lat="58.07615" lon="14.513625"><ele>121.0</ele><time>2016-06-18T04:53:30.297Z</time></trkpt><trkpt lat="58.07601333" lon="14.51344833"><ele>122.0</ele><time>2016-06-18T04:53:31.304Z</time></trkpt><trkpt lat="58.07601333" lon="14.51344833"><ele>122.0</ele><time>2016-06-18T04:53:32.287Z</time></trkpt><trkpt lat="58.07588167" lon="14.51327"><ele>122.0</ele><time>2016-06-18T04:53:33.305Z</time></trkpt><trkpt lat="58.07588167" lon="14.51327"><ele>122.0</ele><time>2016-06-18T04:53:34.286Z</time></trkpt><trkpt lat="58.07575333" lon="14.51308667"><ele>121.0</ele><time>2016-06-18T04:53:35.302Z</time></trkpt><trkpt lat="58.07569" lon="14.51300167"><ele>121.0</ele><time>2016-06-18T04:53:36.299Z</time></trkpt><trkpt lat="58.07569" lon="14.51300167"><ele>121.0</ele><time>2016-06-18T04:53:37.302Z</time></trkpt><trkpt lat="58.07556333" lon="14.51281833"><ele>121.0</ele><time>2016-06-18T04:53:38.317Z</time></trkpt><trkpt lat="58.07556333" lon="14.51281833"><ele>121.0</ele><time>2016-06-18T04:53:39.300Z</time></trkpt><trkpt lat="58.07543333" lon="14.512635"><ele>121.0</ele><time>2016-06-18T04:53:40.286Z</time></trkpt><trkpt lat="58.07543333" lon="14.512635"><ele>121.0</ele><time>2016-06-18T04:53:41.294Z</time></trkpt><trkpt lat="58.075305" lon="14.51245167"><ele>122.0</ele><time>2016-06-18T04:53:42.302Z</time></trkpt><trkpt lat="58.07524167" lon="14.51235667"><ele>122.0</ele><time>2016-06-18T04:53:43.307Z</time></trkpt><trkpt lat="58.07524167" lon="14.51235667"><ele>122.0</ele><time>2016-06-18T04:53:44.315Z</time></trkpt><trkpt lat="58.07511667" lon="14.512165"><ele>122.0</ele><time>2016-06-18T04:53:45.282Z</time></trkpt><trkpt lat="58.07511667" lon="14.512165"><ele>122.0</ele><time>2016-06-18T04:53:46.305Z</time></trkpt><trkpt lat="58.074995" lon="14.51196"><ele>121.0</ele><time>2016-06-18T04:53:47.295Z</time></trkpt><trkpt lat="58.074995" lon="14.51196"><ele>121.0</ele><time>2016-06-18T04:53:48.316Z</time></trkpt><trkpt lat="58.07486833" lon="14.51177333"><ele>122.0</ele><time>2016-06-18T04:53:49.284Z</time></trkpt><trkpt lat="58.07486833" lon="14.51177333"><ele>122.0</ele><time>2016-06-18T04:53:50.290Z</time></trkpt><trkpt lat="58.07474833" lon="14.51157833"><ele>122.0</ele><time>2016-06-18T04:53:51.308Z</time></trkpt><trkpt lat="58.07474833" lon="14.51157833"><ele>122.0</ele><time>2016-06-18T04:53:52.320Z</time></trkpt><trkpt lat="58.074625" lon="14.51138833"><ele>122.0</ele><time>2016-06-18T04:53:53.288Z</time></trkpt><trkpt lat="58.07456333" lon="14.511295"><ele>121.0</ele><time>2016-06-18T04:53:54.311Z</time></trkpt><trkpt lat="58.07456333" lon="14.511295"><ele>121.0</ele><time>2016-06-18T04:53:55.297Z</time></trkpt><trkpt lat="58.07444167" lon="14.51111167"><ele>122.0</ele><time>2016-06-18T04:53:56.304Z</time></trkpt><trkpt lat="58.07444167" lon="14.51111167"><ele>122.0</ele><time>2016-06-18T04:53:57.290Z</time></trkpt><trkpt lat="58.07431667" lon="14.51092"><ele>122.0</ele><time>2016-06-18T04:53:58.286Z</time></trkpt><trkpt lat="58.07431667" lon="14.51092"><ele>122.0</ele><time>2016-06-18T04:53:59.287Z</time></trkpt><trkpt lat="58.07419" lon="14.51072833"><ele>122.0</ele><time>2016-06-18T04:54:00.297Z</time></trkpt><trkpt lat="58.07419" lon="14.51072833"><ele>122.0</ele><time>2016-06-18T04:54:01.282Z</time></trkpt><trkpt lat="58.07406833" lon="14.51054"><ele>121.0</ele><time>2016-06-18T04:54:02.308Z</time></trkpt><trkpt lat="58.07406833" lon="14.51054"><ele>121.0</ele><time>2016-06-18T04:54:03.289Z</time></trkpt><trkpt lat="58.07394833" lon="14.51034"><ele>121.0</ele><time>2016-06-18T04:54:04.295Z</time></trkpt><trkpt lat="58.07394833" lon="14.51034"><ele>121.0</ele><time>2016-06-18T04:54:05.321Z</time></trkpt><trkpt lat="58.07382667" lon="14.510145"><ele>121.0</ele><time>2016-06-18T04:54:06.308Z</time></trkpt><trkpt lat="58.07382667" lon="14.510145"><ele>121.0</ele><time>2016-06-18T04:54:07.291Z</time></trkpt><trkpt lat="58.07370167" lon="14.50994833"><ele>121.0</ele><time>2016-06-18T04:54:08.299Z</time></trkpt><trkpt lat="58.07370167" lon="14.50994833"><ele>121.0</ele><time>2016-06-18T04:54:09.299Z</time></trkpt><trkpt lat="58.07357" lon="14.50975833"><ele>120.0</ele><time>2016-06-18T04:54:10.308Z</time></trkpt><trkpt lat="58.07357" lon="14.50975833"><ele>120.0</ele><time>2016-06-18T04:54:11.317Z</time></trkpt><trkpt lat="58.07344333" lon="14.50956167"><ele>120.0</ele><time>2016-06-18T04:54:12.320Z</time></trkpt><trkpt lat="58.07338" lon="14.509465"><ele>120.0</ele><time>2016-06-18T04:54:13.304Z</time></trkpt><trkpt lat="58.073315" lon="14.509365"><ele>120.0</ele><time>2016-06-18T04:54:14.312Z</time></trkpt><trkpt lat="58.073315" lon="14.509365"><ele>120.0</ele><time>2016-06-18T04:54:15.293Z</time></trkpt><trkpt lat="58.073185" lon="14.50916333"><ele>120.0</ele><time>2016-06-18T04:54:16.302Z</time></trkpt><trkpt lat="58.073185" lon="14.50916333"><ele>120.0</ele><time>2016-06-18T04:54:17.284Z</time></trkpt><trkpt lat="58.07305167" lon="14.50897"><ele>120.0</ele><time>2016-06-18T04:54:18.291Z</time></trkpt><trkpt lat="58.072985" lon="14.508875"><ele>120.0</ele><time>2016-06-18T04:54:19.312Z</time></trkpt><trkpt lat="58.07292" lon="14.508785"><ele>120.0</ele><time>2016-06-18T04:54:20.296Z</time></trkpt><trkpt lat="58.07292" lon="14.508785"><ele>120.0</ele><time>2016-06-18T04:54:21.319Z</time></trkpt><trkpt lat="58.07279833" lon="14.50859167"><ele>121.0</ele><time>2016-06-18T04:54:22.312Z</time></trkpt><trkpt lat="58.07279833" lon="14.50859167"><ele>121.0</ele><time>2016-06-18T04:54:23.294Z</time></trkpt><trkpt lat="58.07268167" lon="14.50837833"><ele>121.0</ele><time>2016-06-18T04:54:24.302Z</time></trkpt><trkpt lat="58.07268167" lon="14.50837833"><ele>121.0</ele><time>2016-06-18T04:54:25.285Z</time></trkpt><trkpt lat="58.07256167" lon="14.50817167"><ele>121.0</ele><time>2016-06-18T04:54:26.288Z</time></trkpt><trkpt lat="58.07256167" lon="14.50817167"><ele>121.0</ele><time>2016-06-18T04:54:27.289Z</time></trkpt><trkpt lat="58.072445" lon="14.50799167"><ele>121.0</ele><time>2016-06-18T04:54:28.297Z</time></trkpt><trkpt lat="58.07238833" lon="14.50791333"><ele>121.0</ele><time>2016-06-18T04:54:29.282Z</time></trkpt><trkpt lat="58.07232667" lon="14.50783667"><ele>121.0</ele><time>2016-06-18T04:54:30.318Z</time></trkpt><trkpt lat="58.07232667" lon="14.50783667"><ele>121.0</ele><time>2016-06-18T04:54:31.298Z</time></trkpt><trkpt lat="58.072205" lon="14.50767667"><ele>121.0</ele><time>2016-06-18T04:54:32.313Z</time></trkpt><trkpt lat="58.072205" lon="14.50767667"><ele>121.0</ele><time>2016-06-18T04:54:33.304Z</time></trkpt><trkpt lat="58.07210333" lon="14.5075"><ele>121.0</ele><time>2016-06-18T04:54:34.316Z</time></trkpt><trkpt lat="58.07210333" lon="14.5075"><ele>121.0</ele><time>2016-06-18T04:54:35.297Z</time></trkpt><trkpt lat="58.07198667" lon="14.50733167"><ele>121.0</ele><time>2016-06-18T04:54:36.285Z</time></trkpt><trkpt lat="58.07198667" lon="14.50733167"><ele>121.0</ele><time>2016-06-18T04:54:37.317Z</time></trkpt><trkpt lat="58.07186833" lon="14.50713333"><ele>120.0</ele><time>2016-06-18T04:54:38.284Z</time></trkpt><trkpt lat="58.07186833" lon="14.50713333"><ele>120.0</ele><time>2016-06-18T04:54:39.306Z</time></trkpt><trkpt lat="58.07175" lon="14.50694"><ele>119.0</ele><time>2016-06-18T04:54:40.318Z</time></trkpt><trkpt lat="58.07175" lon="14.50694"><ele>119.0</ele><time>2016-06-18T04:54:41.299Z</time></trkpt><trkpt lat="58.07163667" lon="14.50676833"><ele>118.0</ele><time>2016-06-18T04:54:42.306Z</time></trkpt><trkpt lat="58.07163667" lon="14.50676833"><ele>118.0</ele><time>2016-06-18T04:54:43.317Z</time></trkpt><trkpt lat="58.07152333" lon="14.50659667"><ele>117.0</ele><time>2016-06-18T04:54:44.318Z</time></trkpt><trkpt lat="58.07152333" lon="14.50659667"><ele>117.0</ele><time>2016-06-18T04:54:45.321Z</time></trkpt><trkpt lat="58.07140333" lon="14.506425"><ele>117.0</ele><time>2016-06-18T04:54:46.287Z</time></trkpt><trkpt lat="58.07140333" lon="14.506425"><ele>117.0</ele><time>2016-06-18T04:54:47.300Z</time></trkpt><trkpt lat="58.07128" lon="14.50623833"><ele>117.0</ele><time>2016-06-18T04:54:48.285Z</time></trkpt><trkpt lat="58.07128" lon="14.50623833"><ele>117.0</ele><time>2016-06-18T04:54:49.297Z</time></trkpt><trkpt lat="58.07115833" lon="14.50605167"><ele>117.0</ele><time>2016-06-18T04:54:50.304Z</time></trkpt><trkpt lat="58.07115833" lon="14.50605167"><ele>117.0</ele><time>2016-06-18T04:54:51.292Z</time></trkpt><trkpt lat="58.07103167" lon="14.50586167"><ele>118.0</ele><time>2016-06-18T04:54:52.317Z</time></trkpt><trkpt lat="58.07103167" lon="14.50586167"><ele>118.0</ele><time>2016-06-18T04:54:53.283Z</time></trkpt><trkpt lat="58.07090667" lon="14.50567667"><ele>118.0</ele><time>2016-06-18T04:54:54.289Z</time></trkpt><trkpt lat="58.07090667" lon="14.50567667"><ele>118.0</ele><time>2016-06-18T04:54:55.313Z</time></trkpt><trkpt lat="58.07077667" lon="14.50549167"><ele>119.0</ele><time>2016-06-18T04:54:56.284Z</time></trkpt><trkpt lat="58.07077667" lon="14.50549167"><ele>119.0</ele><time>2016-06-18T04:54:57.321Z</time></trkpt><trkpt lat="58.07065333" lon="14.5053"><ele>120.0</ele><time>2016-06-18T04:54:58.287Z</time></trkpt><trkpt lat="58.07065333" lon="14.5053"><ele>120.0</ele><time>2016-06-18T04:54:59.320Z</time></trkpt><trkpt lat="58.07053167" lon="14.50510833"><ele>121.0</ele><time>2016-06-18T04:55:00.284Z</time></trkpt><trkpt lat="58.07053167" lon="14.50510833"><ele>121.0</ele><time>2016-06-18T04:55:01.291Z</time></trkpt><trkpt lat="58.07041" lon="14.504925"><ele>121.0</ele><time>2016-06-18T04:55:02.298Z</time></trkpt><trkpt lat="58.07041" lon="14.504925"><ele>121.0</ele><time>2016-06-18T04:55:03.320Z</time></trkpt><trkpt lat="58.07029" lon="14.50474833"><ele>122.0</ele><time>2016-06-18T04:55:04.311Z</time></trkpt><trkpt lat="58.07029" lon="14.50474833"><ele>122.0</ele><time>2016-06-18T04:55:05.317Z</time></trkpt><trkpt lat="58.070175" lon="14.504585"><ele>122.0</ele><time>2016-06-18T04:55:06.286Z</time></trkpt><trkpt lat="58.070175" lon="14.504585"><ele>122.0</ele><time>2016-06-18T04:55:07.294Z</time></trkpt><trkpt lat="58.07008167" lon="14.50444167"><ele>122.0</ele><time>2016-06-18T04:55:08.320Z</time></trkpt><trkpt lat="58.07008167" lon="14.50444167"><ele>122.0</ele><time>2016-06-18T04:55:09.296Z</time></trkpt><trkpt lat="58.06999" lon="14.50432"><ele>123.0</ele><time>2016-06-18T04:55:10.308Z</time></trkpt><trkpt lat="58.06999" lon="14.50432"><ele>123.0</ele><time>2016-06-18T04:55:11.300Z</time></trkpt><trkpt lat="58.06989667" lon="14.50421"><ele>124.0</ele><time>2016-06-18T04:55:12.320Z</time></trkpt><trkpt lat="58.06989667" lon="14.50421"><ele>124.0</ele><time>2016-06-18T04:55:13.301Z</time></trkpt><trkpt lat="58.0698" lon="14.50410167"><ele>123.0</ele><time>2016-06-18T04:55:14.309Z</time></trkpt><trkpt lat="58.0698" lon="14.50410167"><ele>123.0</ele><time>2016-06-18T04:55:15.291Z</time></trkpt><trkpt lat="58.06970167" lon="14.503995"><ele>122.0</ele><time>2016-06-18T04:55:16.317Z</time></trkpt><trkpt lat="58.06970167" lon="14.503995"><ele>122.0</ele><time>2016-06-18T04:55:17.302Z</time></trkpt><trkpt lat="58.0696" lon="14.50389333"><ele>122.0</ele><time>2016-06-18T04:55:18.309Z</time></trkpt><trkpt lat="58.06955" lon="14.503845"><ele>122.0</ele><time>2016-06-18T04:55:19.308Z</time></trkpt><trkpt lat="58.06950333" lon="14.50379833"><ele>122.0</ele><time>2016-06-18T04:55:20.294Z</time></trkpt><trkpt lat="58.06950333" lon="14.50379833"><ele>122.0</ele><time>2016-06-18T04:55:21.318Z</time></trkpt><trkpt lat="58.069415" lon="14.50371333"><ele>122.0</ele><time>2016-06-18T04:55:22.305Z</time></trkpt><trkpt lat="58.06937167" lon="14.50367333"><ele>122.0</ele><time>2016-06-18T04:55:23.286Z</time></trkpt><trkpt lat="58.06937167" lon="14.50367333"><ele>122.0</ele><time>2016-06-18T04:55:24.309Z</time></trkpt><trkpt lat="58.06928333" lon="14.50358667"><ele>122.0</ele><time>2016-06-18T04:55:25.312Z</time></trkpt><trkpt lat="58.06923667" lon="14.503545"><ele>122.0</ele><time>2016-06-18T04:55:26.293Z</time></trkpt><trkpt lat="58.06919" lon="14.50350667"><ele>122.0</ele><time>2016-06-18T04:55:27.319Z</time></trkpt><trkpt lat="58.06919" lon="14.50350667"><ele>122.0</ele><time>2016-06-18T04:55:28.287Z</time></trkpt><trkpt lat="58.06909667" lon="14.503425"><ele>122.0</ele><time>2016-06-18T04:55:29.294Z</time></trkpt><trkpt lat="58.06904667" lon="14.50338333"><ele>123.0</ele><time>2016-06-18T04:55:30.291Z</time></trkpt><trkpt lat="58.069" lon="14.50334"><ele>123.0</ele><time>2016-06-18T04:55:31.296Z</time></trkpt><trkpt lat="58.069" lon="14.50334"><ele>123.0</ele><time>2016-06-18T04:55:32.304Z</time></trkpt><trkpt lat="58.06890833" lon="14.50326667"><ele>123.0</ele><time>2016-06-18T04:55:33.308Z</time></trkpt><trkpt lat="58.06890833" lon="14.50326667"><ele>123.0</ele><time>2016-06-18T04:55:34.315Z</time></trkpt><trkpt lat="58.06881667" lon="14.50320333"><ele>123.0</ele><time>2016-06-18T04:55:35.283Z</time></trkpt><trkpt lat="58.06877" lon="14.50317167"><ele>123.0</ele><time>2016-06-18T04:55:36.313Z</time></trkpt><trkpt lat="58.06872333" lon="14.50314833"><ele>123.0</ele><time>2016-06-18T04:55:37.297Z</time></trkpt><trkpt lat="58.06872333" lon="14.50314833"><ele>123.0</ele><time>2016-06-18T04:55:38.308Z</time></trkpt><trkpt lat="58.068635" lon="14.503105"><ele>123.0</ele><time>2016-06-18T04:55:39.320Z</time></trkpt><trkpt lat="58.068635" lon="14.503105"><ele>123.0</ele><time>2016-06-18T04:55:40.285Z</time></trkpt><trkpt lat="58.06855" lon="14.50306667"><ele>123.0</ele><time>2016-06-18T04:55:41.292Z</time></trkpt><trkpt lat="58.06855" lon="14.50306667"><ele>123.0</ele><time>2016-06-18T04:55:42.319Z</time></trkpt><trkpt lat="58.06846667" lon="14.503025"><ele>123.0</ele><time>2016-06-18T04:55:43.313Z</time></trkpt><trkpt lat="58.06842333" lon="14.503"><ele>124.0</ele><time>2016-06-18T04:55:44.295Z</time></trkpt><trkpt lat="58.06842333" lon="14.503"><ele>124.0</ele><time>2016-06-18T04:55:45.304Z</time></trkpt><trkpt lat="58.06833333" lon="14.502955"><ele>124.0</ele><time>2016-06-18T04:55:46.308Z</time></trkpt><trkpt lat="58.06828667" lon="14.50293"><ele>124.0</ele><time>2016-06-18T04:55:47.288Z</time></trkpt><trkpt lat="58.06823667" lon="14.502905"><ele>124.0</ele><time>2016-06-18T04:55:48.303Z</time></trkpt><trkpt lat="58.06823667" lon="14.502905"><ele>124.0</ele><time>2016-06-18T04:55:49.285Z</time></trkpt><trkpt lat="58.06813333" lon="14.50285667"><ele>124.0</ele><time>2016-06-18T04:55:50.291Z</time></trkpt><trkpt lat="58.06813333" lon="14.50285667"><ele>124.0</ele><time>2016-06-18T04:55:51.317Z</time></trkpt><trkpt lat="58.068025" lon="14.50280667"><ele>125.0</ele><time>2016-06-18T04:55:52.286Z</time></trkpt><trkpt lat="58.068025" lon="14.50280667"><ele>125.0</ele><time>2016-06-18T04:55:53.310Z</time></trkpt><trkpt lat="58.06791833" lon="14.50275667"><ele>125.0</ele><time>2016-06-18T04:55:54.319Z</time></trkpt><trkpt lat="58.06791833" lon="14.50275667"><ele>125.0</ele><time>2016-06-18T04:55:55.304Z</time></trkpt><trkpt lat="58.067815" lon="14.50270667"><ele>125.0</ele><time>2016-06-18T04:55:56.309Z</time></trkpt><trkpt lat="58.067815" lon="14.50270667"><ele>125.0</ele><time>2016-06-18T04:55:57.291Z</time></trkpt><trkpt lat="58.06771" lon="14.50265167"><ele>125.0</ele><time>2016-06-18T04:55:58.298Z</time></trkpt><trkpt lat="58.06765667" lon="14.502625"><ele>125.0</ele><time>2016-06-18T04:55:59.294Z</time></trkpt><trkpt lat="58.06765667" lon="14.502625"><ele>125.0</ele><time>2016-06-18T04:56:00.305Z</time></trkpt><trkpt lat="58.06754833" lon="14.50257"><ele>125.0</ele><time>2016-06-18T04:56:01.289Z</time></trkpt><trkpt lat="58.06749167" lon="14.502545"><ele>125.0</ele><time>2016-06-18T04:56:02.311Z</time></trkpt><trkpt lat="58.06749167" lon="14.502545"><ele>125.0</ele><time>2016-06-18T04:56:03.293Z</time></trkpt><trkpt lat="58.06737667" lon="14.50249167"><ele>125.0</ele><time>2016-06-18T04:56:04.314Z</time></trkpt><trkpt lat="58.06737667" lon="14.50249167"><ele>125.0</ele><time>2016-06-18T04:56:05.296Z</time></trkpt><trkpt lat="58.06726167" lon="14.50243667"><ele>125.0</ele><time>2016-06-18T04:56:06.304Z</time></trkpt><trkpt lat="58.06720333" lon="14.50241"><ele>126.0</ele><time>2016-06-18T04:56:07.290Z</time></trkpt><trkpt lat="58.067145" lon="14.50238333"><ele>126.0</ele><time>2016-06-18T04:56:08.297Z</time></trkpt><trkpt lat="58.067145" lon="14.50238333"><ele>126.0</ele><time>2016-06-18T04:56:09.319Z</time></trkpt><trkpt lat="58.06702833" lon="14.50232667"><ele>126.0</ele><time>2016-06-18T04:56:10.282Z</time></trkpt><trkpt lat="58.06702833" lon="14.50232667"><ele>126.0</ele><time>2016-06-18T04:56:11.304Z</time></trkpt><trkpt lat="58.06691" lon="14.50227167"><ele>126.0</ele><time>2016-06-18T04:56:12.285Z</time></trkpt><trkpt lat="58.06685167" lon="14.50224333"><ele>126.0</ele><time>2016-06-18T04:56:13.316Z</time></trkpt><trkpt lat="58.06679167" lon="14.50221333"><ele>126.0</ele><time>2016-06-18T04:56:14.299Z</time></trkpt><trkpt lat="58.06679167" lon="14.50221333"><ele>126.0</ele><time>2016-06-18T04:56:15.282Z</time></trkpt><trkpt lat="58.066675" lon="14.50215833"><ele>126.0</ele><time>2016-06-18T04:56:16.291Z</time></trkpt><trkpt lat="58.066675" lon="14.50215833"><ele>126.0</ele><time>2016-06-18T04:56:17.317Z</time></trkpt><trkpt lat="58.06655833" lon="14.50210167"><ele>126.0</ele><time>2016-06-18T04:56:18.308Z</time></trkpt><trkpt lat="58.06655833" lon="14.50210167"><ele>126.0</ele><time>2016-06-18T04:56:19.291Z</time></trkpt><trkpt lat="58.06644" lon="14.50205167"><ele>127.0</ele><time>2016-06-18T04:56:20.297Z</time></trkpt><trkpt lat="58.06644" lon="14.50205167"><ele>127.0</ele><time>2016-06-18T04:56:21.295Z</time></trkpt><trkpt lat="58.06632333" lon="14.50200167"><ele>127.0</ele><time>2016-06-18T04:56:22.316Z</time></trkpt><trkpt lat="58.06632333" lon="14.50200167"><ele>127.0</ele><time>2016-06-18T04:56:23.298Z</time></trkpt><trkpt lat="58.06620667" lon="14.50194167"><ele>127.0</ele><time>2016-06-18T04:56:24.304Z</time></trkpt><trkpt lat="58.06615" lon="14.50191333"><ele>127.0</ele><time>2016-06-18T04:56:25.308Z</time></trkpt><trkpt lat="58.06615" lon="14.50191333"><ele>127.0</ele><time>2016-06-18T04:56:26.293Z</time></trkpt><trkpt lat="58.06603333" lon="14.50185667"><ele>128.0</ele><time>2016-06-18T04:56:27.305Z</time></trkpt><trkpt lat="58.06603333" lon="14.50185667"><ele>128.0</ele><time>2016-06-18T04:56:28.286Z</time></trkpt><trkpt lat="58.06591333" lon="14.5018"><ele>128.0</ele><time>2016-06-18T04:56:29.326Z</time></trkpt><trkpt lat="58.06591333" lon="14.5018"><ele>128.0</ele><time>2016-06-18T04:56:30.286Z</time></trkpt><trkpt lat="58.06579667" lon="14.50174833"><ele>128.0</ele><time>2016-06-18T04:56:31.293Z</time></trkpt><trkpt lat="58.06574" lon="14.50172333"><ele>128.0</ele><time>2016-06-18T04:56:32.284Z</time></trkpt><trkpt lat="58.06574" lon="14.50172333"><ele>128.0</ele><time>2016-06-18T04:56:33.303Z</time></trkpt><trkpt lat="58.065635" lon="14.50167333"><ele>129.0</ele><time>2016-06-18T04:56:34.310Z</time></trkpt><trkpt lat="58.06558667" lon="14.50165167"><ele>129.0</ele><time>2016-06-18T04:56:35.318Z</time></trkpt><trkpt lat="58.06558667" lon="14.50165167"><ele>129.0</ele><time>2016-06-18T04:56:36.299Z</time></trkpt><trkpt lat="58.06549" lon="14.50160333"><ele>129.0</ele><time>2016-06-18T04:56:37.314Z</time></trkpt><trkpt lat="58.06544" lon="14.50157833"><ele>129.0</ele><time>2016-06-18T04:56:38.292Z</time></trkpt><trkpt lat="58.06544" lon="14.50157833"><ele>129.0</ele><time>2016-06-18T04:56:39.318Z</time></trkpt><trkpt lat="58.06533833" lon="14.50152833"><ele>130.0</ele><time>2016-06-18T04:56:40.284Z</time></trkpt><trkpt lat="58.06533833" lon="14.50152833"><ele>130.0</ele><time>2016-06-18T04:56:41.306Z</time></trkpt><trkpt lat="58.06523167" lon="14.50147833"><ele>130.0</ele><time>2016-06-18T04:56:42.315Z</time></trkpt><trkpt lat="58.06523167" lon="14.50147833"><ele>130.0</ele><time>2016-06-18T04:56:43.293Z</time></trkpt><trkpt lat="58.065125" lon="14.50142833"><ele>130.0</ele><time>2016-06-18T04:56:44.302Z</time></trkpt><trkpt lat="58.065125" lon="14.50142833"><ele>130.0</ele><time>2016-06-18T04:56:45.286Z</time></trkpt><trkpt lat="58.06501833" lon="14.50138333"><ele>130.0</ele><time>2016-06-18T04:56:46.318Z</time></trkpt><trkpt lat="58.06501833" lon="14.50138333"><ele>130.0</ele><time>2016-06-18T04:56:47.289Z</time></trkpt><trkpt lat="58.06490667" lon="14.50133167"><ele>130.0</ele><time>2016-06-18T04:56:48.296Z</time></trkpt><trkpt lat="58.06490667" lon="14.50133167"><ele>130.0</ele><time>2016-06-18T04:56:49.319Z</time></trkpt><trkpt lat="58.06479833" lon="14.50127667"><ele>131.0</ele><time>2016-06-18T04:56:50.313Z</time></trkpt><trkpt lat="58.06479833" lon="14.50127667"><ele>131.0</ele><time>2016-06-18T04:56:51.295Z</time></trkpt><trkpt lat="58.06469833" lon="14.50123"><ele>131.0</ele><time>2016-06-18T04:56:52.302Z</time></trkpt><trkpt lat="58.06469833" lon="14.50123"><ele>131.0</ele><time>2016-06-18T04:56:53.283Z</time></trkpt><trkpt lat="58.06460167" lon="14.50118167"><ele>131.0</ele><time>2016-06-18T04:56:54.285Z</time></trkpt><trkpt lat="58.06455333" lon="14.50115667"><ele>131.0</ele><time>2016-06-18T04:56:55.284Z</time></trkpt><trkpt lat="58.06455333" lon="14.50115667"><ele>131.0</ele><time>2016-06-18T04:56:56.305Z</time></trkpt><trkpt lat="58.064455" lon="14.50110667"><ele>131.0</ele><time>2016-06-18T04:56:57.291Z</time></trkpt><trkpt lat="58.064455" lon="14.50110667"><ele>131.0</ele><time>2016-06-18T04:56:58.287Z</time></trkpt><trkpt lat="58.06436" lon="14.50106167"><ele>132.0</ele><time>2016-06-18T04:56:59.294Z</time></trkpt><trkpt lat="58.06431667" lon="14.50104"><ele>132.0</ele><time>2016-06-18T04:57:00.303Z</time></trkpt><trkpt lat="58.06431667" lon="14.50104"><ele>132.0</ele><time>2016-06-18T04:57:01.298Z</time></trkpt><trkpt lat="58.064235" lon="14.50100333"><ele>132.0</ele><time>2016-06-18T04:57:02.305Z</time></trkpt><trkpt lat="58.064235" lon="14.50100333"><ele>132.0</ele><time>2016-06-18T04:57:03.286Z</time></trkpt><trkpt lat="58.064155" lon="14.50096667"><ele>132.0</ele><time>2016-06-18T04:57:04.302Z</time></trkpt><trkpt lat="58.064155" lon="14.50096667"><ele>132.0</ele><time>2016-06-18T04:57:05.285Z</time></trkpt><trkpt lat="58.06407167" lon="14.50093"><ele>132.0</ele><time>2016-06-18T04:57:06.292Z</time></trkpt><trkpt lat="58.06403" lon="14.50091"><ele>133.0</ele><time>2016-06-18T04:57:07.312Z</time></trkpt><trkpt lat="58.06403" lon="14.50091"><ele>133.0</ele><time>2016-06-18T04:57:08.289Z</time></trkpt><trkpt lat="58.06394333" lon="14.50087333"><ele>133.0</ele><time>2016-06-18T04:57:09.301Z</time></trkpt><trkpt lat="58.06394333" lon="14.50087333"><ele>133.0</ele><time>2016-06-18T04:57:10.286Z</time></trkpt><trkpt lat="58.06385833" lon="14.50083167"><ele>133.0</ele><time>2016-06-18T04:57:11.283Z</time></trkpt><trkpt lat="58.06385833" lon="14.50083167"><ele>133.0</ele><time>2016-06-18T04:57:12.287Z</time></trkpt><trkpt lat="58.063775" lon="14.50079"><ele>133.0</ele><time>2016-06-18T04:57:13.295Z</time></trkpt><trkpt lat="58.06373333" lon="14.50077"><ele>133.0</ele><time>2016-06-18T04:57:14.317Z</time></trkpt><trkpt lat="58.06369333" lon="14.50075167"><ele>134.0</ele><time>2016-06-18T04:57:15.300Z</time></trkpt><trkpt lat="58.06369333" lon="14.50075167"><ele>134.0</ele><time>2016-06-18T04:57:16.285Z</time></trkpt><trkpt lat="58.06361" lon="14.50070833"><ele>134.0</ele><time>2016-06-18T04:57:17.292Z</time></trkpt><trkpt lat="58.06361" lon="14.50070833"><ele>134.0</ele><time>2016-06-18T04:57:18.316Z</time></trkpt><trkpt lat="58.06352833" lon="14.50066667"><ele>135.0</ele><time>2016-06-18T04:57:19.310Z</time></trkpt><trkpt lat="58.063485" lon="14.50064833"><ele>135.0</ele><time>2016-06-18T04:57:20.296Z</time></trkpt><trkpt lat="58.063485" lon="14.50064833"><ele>135.0</ele><time>2016-06-18T04:57:21.320Z</time></trkpt><trkpt lat="58.0634" lon="14.50060667"><ele>135.0</ele><time>2016-06-18T04:57:22.290Z</time></trkpt><trkpt lat="58.06335667" lon="14.50058833"><ele>136.0</ele><time>2016-06-18T04:57:23.319Z</time></trkpt><trkpt lat="58.06335667" lon="14.50058833"><ele>136.0</ele><time>2016-06-18T04:57:24.301Z</time></trkpt><trkpt lat="58.06326833" lon="14.50055167"><ele>136.0</ele><time>2016-06-18T04:57:25.318Z</time></trkpt><trkpt lat="58.06326833" lon="14.50055167"><ele>136.0</ele><time>2016-06-18T04:57:26.309Z</time></trkpt><trkpt lat="58.06318" lon="14.50051667"><ele>136.0</ele><time>2016-06-18T04:57:27.316Z</time></trkpt><trkpt lat="58.06318" lon="14.50051667"><ele>136.0</ele><time>2016-06-18T04:57:28.298Z</time></trkpt><trkpt lat="58.063095" lon="14.50047"><ele>137.0</ele><time>2016-06-18T04:57:29.287Z</time></trkpt><trkpt lat="58.06305167" lon="14.50044667"><ele>137.0</ele><time>2016-06-18T04:57:30.309Z</time></trkpt><trkpt lat="58.06305167" lon="14.50044667"><ele>137.0</ele><time>2016-06-18T04:57:31.290Z</time></trkpt><trkpt lat="58.06296833" lon="14.50040833"><ele>137.0</ele><time>2016-06-18T04:57:32.313Z</time></trkpt><trkpt lat="58.06296833" lon="14.50040833"><ele>137.0</ele><time>2016-06-18T04:57:33.294Z</time></trkpt><trkpt lat="58.062885" lon="14.50037"><ele>137.0</ele><time>2016-06-18T04:57:34.301Z</time></trkpt><trkpt lat="58.06284167" lon="14.50034833"><ele>138.0</ele><time>2016-06-18T04:57:35.305Z</time></trkpt><trkpt lat="58.06284167" lon="14.50034833"><ele>138.0</ele><time>2016-06-18T04:57:36.316Z</time></trkpt><trkpt lat="58.06275333" lon="14.500305"><ele>138.0</ele><time>2016-06-18T04:57:37.309Z</time></trkpt><trkpt lat="58.06270833" lon="14.50028833"><ele>138.0</ele><time>2016-06-18T04:57:38.291Z</time></trkpt><trkpt lat="58.06270833" lon="14.50028833"><ele>138.0</ele><time>2016-06-18T04:57:39.319Z</time></trkpt><trkpt lat="58.06262" lon="14.50025167"><ele>139.0</ele><time>2016-06-18T04:57:40.285Z</time></trkpt><trkpt lat="58.06257667" lon="14.50022833"><ele>139.0</ele><time>2016-06-18T04:57:41.286Z</time></trkpt><trkpt lat="58.06253333" lon="14.50020667"><ele>139.0</ele><time>2016-06-18T04:57:42.317Z</time></trkpt><trkpt lat="58.06253333" lon="14.50020667"><ele>139.0</ele><time>2016-06-18T04:57:43.294Z</time></trkpt><trkpt lat="58.06245167" lon="14.50016333"><ele>139.0</ele><time>2016-06-18T04:57:44.309Z</time></trkpt><trkpt lat="58.06241" lon="14.500145"><ele>139.0</ele><time>2016-06-18T04:57:45.316Z</time></trkpt><trkpt lat="58.06241" lon="14.500145"><ele>139.0</ele><time>2016-06-18T04:57:46.299Z</time></trkpt><trkpt lat="58.06233833" lon="14.50011167"><ele>140.0</ele><time>2016-06-18T04:57:47.318Z</time></trkpt><trkpt lat="58.06233833" lon="14.50011167"><ele>140.0</ele><time>2016-06-18T04:57:48.301Z</time></trkpt><trkpt lat="58.06226833" lon="14.50008"><ele>140.0</ele><time>2016-06-18T04:57:49.311Z</time></trkpt><trkpt lat="58.06226833" lon="14.50008"><ele>140.0</ele><time>2016-06-18T04:57:50.292Z</time></trkpt><trkpt lat="58.06219667" lon="14.50004667"><ele>140.0</ele><time>2016-06-18T04:57:51.283Z</time></trkpt><trkpt lat="58.06219667" lon="14.50004667"><ele>140.0</ele><time>2016-06-18T04:57:52.308Z</time></trkpt><trkpt lat="58.06212167" lon="14.50001167"><ele>140.0</ele><time>2016-06-18T04:57:53.315Z</time></trkpt><trkpt lat="58.06208333" lon="14.49999667"><ele>141.0</ele><time>2016-06-18T04:57:54.324Z</time></trkpt><trkpt lat="58.06208333" lon="14.49999667"><ele>141.0</ele><time>2016-06-18T04:57:55.293Z</time></trkpt><trkpt lat="58.06200333" lon="14.49995833"><ele>141.0</ele><time>2016-06-18T04:57:56.300Z</time></trkpt><trkpt lat="58.06200333" lon="14.49995833"><ele>141.0</ele><time>2016-06-18T04:57:57.314Z</time></trkpt><trkpt lat="58.061925" lon="14.49992"><ele>141.0</ele><time>2016-06-18T04:57:58.286Z</time></trkpt><trkpt lat="58.061925" lon="14.49992"><ele>141.0</ele><time>2016-06-18T04:57:59.292Z</time></trkpt><trkpt lat="58.06184667" lon="14.49988167"><ele>141.0</ele><time>2016-06-18T04:58:00.299Z</time></trkpt><trkpt lat="58.06180667" lon="14.49986167"><ele>141.0</ele><time>2016-06-18T04:58:01.308Z</time></trkpt><trkpt lat="58.06180667" lon="14.49986167"><ele>141.0</ele><time>2016-06-18T04:58:02.290Z</time></trkpt><trkpt lat="58.06172667" lon="14.49982333"><ele>142.0</ele><time>2016-06-18T04:58:03.300Z</time></trkpt><trkpt lat="58.06172667" lon="14.49982333"><ele>142.0</ele><time>2016-06-18T04:58:04.283Z</time></trkpt><trkpt lat="58.06165167" lon="14.49978833"><ele>142.0</ele><time>2016-06-18T04:58:05.290Z</time></trkpt><trkpt lat="58.061615" lon="14.49977"><ele>142.0</ele><time>2016-06-18T04:58:06.296Z</time></trkpt><trkpt lat="58.061615" lon="14.49977"><ele>142.0</ele><time>2016-06-18T04:58:07.320Z</time></trkpt><trkpt lat="58.06153667" lon="14.499735"><ele>142.0</ele><time>2016-06-18T04:58:08.286Z</time></trkpt><trkpt lat="58.06153667" lon="14.499735"><ele>142.0</ele><time>2016-06-18T04:58:09.301Z</time></trkpt><trkpt lat="58.061455" lon="14.499695"><ele>142.0</ele><time>2016-06-18T04:58:10.320Z</time></trkpt><trkpt lat="58.061455" lon="14.499695"><ele>142.0</ele><time>2016-06-18T04:58:11.302Z</time></trkpt><trkpt lat="58.06137167" lon="14.49965333"><ele>143.0</ele><time>2016-06-18T04:58:12.314Z</time></trkpt><trkpt lat="58.06137167" lon="14.49965333"><ele>143.0</ele><time>2016-06-18T04:58:13.295Z</time></trkpt><trkpt lat="58.06128667" lon="14.499615"><ele>143.0</ele><time>2016-06-18T04:58:14.304Z</time></trkpt><trkpt lat="58.06128667" lon="14.499615"><ele>143.0</ele><time>2016-06-18T04:58:15.287Z</time></trkpt><trkpt lat="58.06119833" lon="14.49957167"><ele>143.0</ele><time>2016-06-18T04:58:16.318Z</time></trkpt><trkpt lat="58.06119833" lon="14.49957167"><ele>143.0</ele><time>2016-06-18T04:58:17.299Z</time></trkpt><trkpt lat="58.06111167" lon="14.49953"><ele>143.0</ele><time>2016-06-18T04:58:18.306Z</time></trkpt><trkpt lat="58.06111167" lon="14.49953"><ele>143.0</ele><time>2016-06-18T04:58:19.319Z</time></trkpt><trkpt lat="58.06102167" lon="14.49948833"><ele>143.0</ele><time>2016-06-18T04:58:20.286Z</time></trkpt><trkpt lat="58.06102167" lon="14.49948833"><ele>143.0</ele><time>2016-06-18T04:58:21.300Z</time></trkpt><trkpt lat="58.06092333" lon="14.499435"><ele>143.0</ele><time>2016-06-18T04:58:22.306Z</time></trkpt><trkpt lat="58.06092333" lon="14.499435"><ele>143.0</ele><time>2016-06-18T04:58:23.289Z</time></trkpt><trkpt lat="58.060825" lon="14.49938833"><ele>143.0</ele><time>2016-06-18T04:58:24.292Z</time></trkpt><trkpt lat="58.060825" lon="14.49938833"><ele>143.0</ele><time>2016-06-18T04:58:25.306Z</time></trkpt><trkpt lat="58.06073167" lon="14.49934"><ele>144.0</ele><time>2016-06-18T04:58:26.321Z</time></trkpt><trkpt lat="58.06073167" lon="14.49934"><ele>144.0</ele><time>2016-06-18T04:58:27.303Z</time></trkpt><trkpt lat="58.06063667" lon="14.49929833"><ele>144.0</ele><time>2016-06-18T04:58:28.318Z</time></trkpt><trkpt lat="58.06063667" lon="14.49929833"><ele>144.0</ele><time>2016-06-18T04:58:29.314Z</time></trkpt><trkpt lat="58.06054333" lon="14.49925833"><ele>144.0</ele><time>2016-06-18T04:58:30.321Z</time></trkpt><trkpt lat="58.06054333" lon="14.49925833"><ele>144.0</ele><time>2016-06-18T04:58:31.303Z</time></trkpt><trkpt lat="58.06044833" lon="14.49921833"><ele>144.0</ele><time>2016-06-18T04:58:32.318Z</time></trkpt><trkpt lat="58.06044833" lon="14.49921833"><ele>144.0</ele><time>2016-06-18T04:58:33.319Z</time></trkpt><trkpt lat="58.06035167" lon="14.49918"><ele>143.0</ele><time>2016-06-18T04:58:34.291Z</time></trkpt><trkpt lat="58.06035167" lon="14.49918"><ele>143.0</ele><time>2016-06-18T04:58:35.287Z</time></trkpt><trkpt lat="58.06024667" lon="14.49914"><ele>143.0</ele><time>2016-06-18T04:58:36.318Z</time></trkpt><trkpt lat="58.06024667" lon="14.49914"><ele>143.0</ele><time>2016-06-18T04:58:37.298Z</time></trkpt><trkpt lat="58.06013167" lon="14.49910167"><ele>143.0</ele><time>2016-06-18T04:58:38.305Z</time></trkpt><trkpt lat="58.06007333" lon="14.49908333"><ele>143.0</ele><time>2016-06-18T04:58:39.298Z</time></trkpt><trkpt lat="58.06007333" lon="14.49908333"><ele>143.0</ele><time>2016-06-18T04:58:40.301Z</time></trkpt><trkpt lat="58.05995167" lon="14.49904833"><ele>143.0</ele><time>2016-06-18T04:58:41.308Z</time></trkpt><trkpt lat="58.05995167" lon="14.49904833"><ele>143.0</ele><time>2016-06-18T04:58:42.291Z</time></trkpt><trkpt lat="58.05983333" lon="14.499005"><ele>143.0</ele><time>2016-06-18T04:58:43.318Z</time></trkpt><trkpt lat="58.05983333" lon="14.499005"><ele>143.0</ele><time>2016-06-18T04:58:44.283Z</time></trkpt><trkpt lat="58.05971333" lon="14.498955"><ele>143.0</ele><time>2016-06-18T04:58:45.290Z</time></trkpt><trkpt lat="58.05965167" lon="14.49892667"><ele>143.0</ele><time>2016-06-18T04:58:46.308Z</time></trkpt><trkpt lat="58.05965167" lon="14.49892667"><ele>143.0</ele><time>2016-06-18T04:58:47.315Z</time></trkpt><trkpt lat="58.05952833" lon="14.498875"><ele>143.0</ele><time>2016-06-18T04:58:48.283Z</time></trkpt><trkpt lat="58.05946667" lon="14.49884833"><ele>143.0</ele><time>2016-06-18T04:58:49.283Z</time></trkpt><trkpt lat="58.05946667" lon="14.49884833"><ele>143.0</ele><time>2016-06-18T04:58:50.320Z</time></trkpt><trkpt lat="58.059345" lon="14.49879333"><ele>142.0</ele><time>2016-06-18T04:58:51.287Z</time></trkpt><trkpt lat="58.059345" lon="14.49879333"><ele>142.0</ele><time>2016-06-18T04:58:52.309Z</time></trkpt><trkpt lat="58.05921833" lon="14.498745"><ele>142.0</ele><time>2016-06-18T04:58:53.318Z</time></trkpt><trkpt lat="58.05921833" lon="14.498745"><ele>142.0</ele><time>2016-06-18T04:58:54.292Z</time></trkpt><trkpt lat="58.05908667" lon="14.49871333"><ele>142.0</ele><time>2016-06-18T04:58:55.299Z</time></trkpt><trkpt lat="58.05901667" lon="14.49870333"><ele>142.0</ele><time>2016-06-18T04:58:56.282Z</time></trkpt><trkpt lat="58.05901667" lon="14.49870333"><ele>142.0</ele><time>2016-06-18T04:58:57.293Z</time></trkpt><trkpt lat="58.058875" lon="14.49868833"><ele>141.0</ele><time>2016-06-18T04:58:58.301Z</time></trkpt><trkpt lat="58.058875" lon="14.49868833"><ele>141.0</ele><time>2016-06-18T04:58:59.284Z</time></trkpt><trkpt lat="58.058725" lon="14.498675"><ele>141.0</ele><time>2016-06-18T04:59:00.315Z</time></trkpt><trkpt lat="58.058725" lon="14.498675"><ele>141.0</ele><time>2016-06-18T04:59:01.310Z</time></trkpt><trkpt lat="58.058565" lon="14.49866"><ele>140.0</ele><time>2016-06-18T04:59:02.321Z</time></trkpt><trkpt lat="58.058565" lon="14.49866"><ele>140.0</ele><time>2016-06-18T04:59:03.288Z</time></trkpt><trkpt lat="58.058395" lon="14.49864833"><ele>139.0</ele><time>2016-06-18T04:59:04.288Z</time></trkpt><trkpt lat="58.058395" lon="14.49864833"><ele>139.0</ele><time>2016-06-18T04:59:05.300Z</time></trkpt><trkpt lat="58.058215" lon="14.49863667"><ele>139.0</ele><time>2016-06-18T04:59:06.317Z</time></trkpt><trkpt lat="58.05812333" lon="14.49862833"><ele>139.0</ele><time>2016-06-18T04:59:07.313Z</time></trkpt><trkpt lat="58.05812333" lon="14.49862833"><ele>139.0</ele><time>2016-06-18T04:59:08.312Z</time></trkpt><trkpt lat="58.05794167" lon="14.49861667"><ele>139.0</ele><time>2016-06-18T04:59:09.321Z</time></trkpt><trkpt lat="58.05785167" lon="14.498615"><ele>138.0</ele><time>2016-06-18T04:59:10.288Z</time></trkpt><trkpt lat="58.05785167" lon="14.498615"><ele>138.0</ele><time>2016-06-18T04:59:11.303Z</time></trkpt><trkpt lat="58.05767" lon="14.49860333"><ele>138.0</ele><time>2016-06-18T04:59:12.300Z</time></trkpt><trkpt lat="58.05757833" lon="14.498595"><ele>138.0</ele><time>2016-06-18T04:59:13.289Z</time></trkpt><trkpt lat="58.05748667" lon="14.49858833"><ele>138.0</ele><time>2016-06-18T04:59:14.310Z</time></trkpt><trkpt lat="58.05748667" lon="14.49858833"><ele>138.0</ele><time>2016-06-18T04:59:15.294Z</time></trkpt><trkpt lat="58.05730167" lon="14.49858"><ele>137.0</ele><time>2016-06-18T04:59:16.326Z</time></trkpt><trkpt lat="58.05730167" lon="14.49858"><ele>137.0</ele><time>2016-06-18T04:59:17.320Z</time></trkpt><trkpt lat="58.05711167" lon="14.49856833"><ele>137.0</ele><time>2016-06-18T04:59:18.288Z</time></trkpt><trkpt lat="58.05711167" lon="14.49856833"><ele>137.0</ele><time>2016-06-18T04:59:19.309Z</time></trkpt><trkpt lat="58.05691833" lon="14.49856333"><ele>136.0</ele><time>2016-06-18T04:59:20.325Z</time></trkpt><trkpt lat="58.05691833" lon="14.49856333"><ele>136.0</ele><time>2016-06-18T04:59:21.296Z</time></trkpt><trkpt lat="58.05672333" lon="14.49855"><ele>136.0</ele><time>2016-06-18T04:59:22.304Z</time></trkpt><trkpt lat="58.05672333" lon="14.49855"><ele>136.0</ele><time>2016-06-18T04:59:23.286Z</time></trkpt><trkpt lat="58.05653" lon="14.498535"><ele>135.0</ele><time>2016-06-18T04:59:24.311Z</time></trkpt><trkpt lat="58.05653" lon="14.498535"><ele>135.0</ele><time>2016-06-18T04:59:25.293Z</time></trkpt><trkpt lat="58.05633333" lon="14.498505"><ele>135.0</ele><time>2016-06-18T04:59:26.301Z</time></trkpt><trkpt lat="58.056235" lon="14.49848167"><ele>135.0</ele><time>2016-06-18T04:59:27.318Z</time></trkpt><trkpt lat="58.056235" lon="14.49848167"><ele>135.0</ele><time>2016-06-18T04:59:28.299Z</time></trkpt><trkpt lat="58.05603833" lon="14.498425"><ele>135.0</ele><time>2016-06-18T04:59:29.306Z</time></trkpt><trkpt lat="58.05594167" lon="14.49838833"><ele>134.0</ele><time>2016-06-18T04:59:30.308Z</time></trkpt><trkpt lat="58.05594167" lon="14.49838833"><ele>134.0</ele><time>2016-06-18T04:59:31.320Z</time></trkpt><trkpt lat="58.055745" lon="14.49830667"><ele>134.0</ele><time>2016-06-18T04:59:32.290Z</time></trkpt><trkpt lat="58.055745" lon="14.49830667"><ele>134.0</ele><time>2016-06-18T04:59:33.311Z</time></trkpt><trkpt lat="58.05555167" lon="14.49823167"><ele>134.0</ele><time>2016-06-18T04:59:34.288Z</time></trkpt><trkpt lat="58.05555167" lon="14.49823167"><ele>134.0</ele><time>2016-06-18T04:59:35.297Z</time></trkpt><trkpt lat="58.05535" lon="14.49816"><ele>134.0</ele><time>2016-06-18T04:59:36.304Z</time></trkpt><trkpt lat="58.05535" lon="14.49816"><ele>134.0</ele><time>2016-06-18T04:59:37.284Z</time></trkpt><trkpt lat="58.05515167" lon="14.49808667"><ele>133.0</ele><time>2016-06-18T04:59:38.313Z</time></trkpt><trkpt lat="58.05515167" lon="14.49808667"><ele>133.0</ele><time>2016-06-18T04:59:39.296Z</time></trkpt><trkpt lat="58.05495" lon="14.49803167"><ele>133.0</ele><time>2016-06-18T04:59:40.303Z</time></trkpt><trkpt lat="58.05485" lon="14.49801"><ele>133.0</ele><time>2016-06-18T04:59:41.288Z</time></trkpt><trkpt lat="58.05485" lon="14.49801"><ele>133.0</ele><time>2016-06-18T04:59:42.299Z</time></trkpt><trkpt lat="58.05465" lon="14.49796667"><ele>133.0</ele><time>2016-06-18T04:59:43.306Z</time></trkpt><trkpt lat="58.05465" lon="14.49796667"><ele>133.0</ele><time>2016-06-18T04:59:44.290Z</time></trkpt><trkpt lat="58.05445833" lon="14.49791833"><ele>133.0</ele><time>2016-06-18T04:59:45.308Z</time></trkpt><trkpt lat="58.05445833" lon="14.49791833"><ele>133.0</ele><time>2016-06-18T04:59:46.283Z</time></trkpt><trkpt lat="58.05427667" lon="14.49787333"><ele>133.0</ele><time>2016-06-18T04:59:47.291Z</time></trkpt><trkpt lat="58.05427667" lon="14.49787333"><ele>133.0</ele><time>2016-06-18T04:59:48.318Z</time></trkpt><trkpt lat="58.05410167" lon="14.49782667"><ele>133.0</ele><time>2016-06-18T04:59:49.285Z</time></trkpt><trkpt lat="58.054015" lon="14.49780167"><ele>133.0</ele><time>2016-06-18T04:59:50.304Z</time></trkpt><trkpt lat="58.054015" lon="14.49780167"><ele>133.0</ele><time>2016-06-18T04:59:51.286Z</time></trkpt><trkpt lat="58.05384167" lon="14.49776"><ele>133.0</ele><time>2016-06-18T04:59:52.303Z</time></trkpt><trkpt lat="58.05384167" lon="14.49776"><ele>133.0</ele><time>2016-06-18T04:59:53.290Z</time></trkpt><trkpt lat="58.05366667" lon="14.497725"><ele>133.0</ele><time>2016-06-18T04:59:54.327Z</time></trkpt><trkpt lat="58.05366667" lon="14.497725"><ele>133.0</ele><time>2016-06-18T04:59:55.287Z</time></trkpt><trkpt lat="58.05349" lon="14.49769167"><ele>133.0</ele><time>2016-06-18T04:59:56.294Z</time></trkpt><trkpt lat="58.05349" lon="14.49769167"><ele>133.0</ele><time>2016-06-18T04:59:57.319Z</time></trkpt><trkpt lat="58.053315" lon="14.49765833"><ele>133.0</ele><time>2016-06-18T04:59:58.287Z</time></trkpt><trkpt lat="58.053315" lon="14.49765833"><ele>133.0</ele><time>2016-06-18T04:59:59.321Z</time></trkpt><trkpt lat="58.053145" lon="14.49763"><ele>132.0</ele><time>2016-06-18T05:00:00.290Z</time></trkpt><trkpt lat="58.053145" lon="14.49763"><ele>132.0</ele><time>2016-06-18T05:00:01.311Z</time></trkpt><trkpt lat="58.05298167" lon="14.497595"><ele>132.0</ele><time>2016-06-18T05:00:02.323Z</time></trkpt><trkpt lat="58.05298167" lon="14.497595"><ele>132.0</ele><time>2016-06-18T05:00:03.321Z</time></trkpt><trkpt lat="58.05282" lon="14.49755667"><ele>132.0</ele><time>2016-06-18T05:00:04.289Z</time></trkpt><trkpt lat="58.05282" lon="14.49755667"><ele>132.0</ele><time>2016-06-18T05:00:05.288Z</time></trkpt><trkpt lat="58.05265667" lon="14.49753"><ele>132.0</ele><time>2016-06-18T05:00:06.318Z</time></trkpt><trkpt lat="58.05265667" lon="14.49753"><ele>132.0</ele><time>2016-06-18T05:00:07.301Z</time></trkpt><trkpt lat="58.05249333" lon="14.49749667"><ele>132.0</ele><time>2016-06-18T05:00:08.308Z</time></trkpt><trkpt lat="58.05249333" lon="14.49749667"><ele>132.0</ele><time>2016-06-18T05:00:09.291Z</time></trkpt><trkpt lat="58.05232833" lon="14.49746167"><ele>132.0</ele><time>2016-06-18T05:00:10.318Z</time></trkpt><trkpt lat="58.05232833" lon="14.49746167"><ele>132.0</ele><time>2016-06-18T05:00:11.305Z</time></trkpt><trkpt lat="58.05216333" lon="14.49742833"><ele>131.0</ele><time>2016-06-18T05:00:12.290Z</time></trkpt><trkpt lat="58.05216333" lon="14.49742833"><ele>131.0</ele><time>2016-06-18T05:00:13.321Z</time></trkpt><trkpt lat="58.05199667" lon="14.49739667"><ele>131.0</ele><time>2016-06-18T05:00:14.289Z</time></trkpt><trkpt lat="58.05199667" lon="14.49739667"><ele>131.0</ele><time>2016-06-18T05:00:15.311Z</time></trkpt><trkpt lat="58.05182667" lon="14.49736333"><ele>131.0</ele><time>2016-06-18T05:00:16.318Z</time></trkpt><trkpt lat="58.05182667" lon="14.49736333"><ele>131.0</ele><time>2016-06-18T05:00:17.296Z</time></trkpt><trkpt lat="58.05166167" lon="14.49732833"><ele>131.0</ele><time>2016-06-18T05:00:18.303Z</time></trkpt><trkpt lat="58.05158" lon="14.49731167"><ele>131.0</ele><time>2016-06-18T05:00:19.312Z</time></trkpt><trkpt lat="58.0515" lon="14.49728833"><ele>131.0</ele><time>2016-06-18T05:00:20.305Z</time></trkpt><trkpt lat="58.0515" lon="14.49728833"><ele>131.0</ele><time>2016-06-18T05:00:21.321Z</time></trkpt><trkpt lat="58.05134" lon="14.49723667"><ele>131.0</ele><time>2016-06-18T05:00:22.287Z</time></trkpt><trkpt lat="58.05126167" lon="14.497205"><ele>131.0</ele><time>2016-06-18T05:00:23.302Z</time></trkpt><trkpt lat="58.05126167" lon="14.497205"><ele>131.0</ele><time>2016-06-18T05:00:24.282Z</time></trkpt><trkpt lat="58.05110167" lon="14.49714"><ele>130.0</ele><time>2016-06-18T05:00:25.289Z</time></trkpt><trkpt lat="58.05102167" lon="14.497105"><ele>130.0</ele><time>2016-06-18T05:00:26.288Z</time></trkpt><trkpt lat="58.05102167" lon="14.497105"><ele>130.0</ele><time>2016-06-18T05:00:27.286Z</time></trkpt><trkpt lat="58.05085833" lon="14.497035"><ele>130.0</ele><time>2016-06-18T05:00:28.292Z</time></trkpt><trkpt lat="58.05077667" lon="14.496995"><ele>131.0</ele><time>2016-06-18T05:00:29.318Z</time></trkpt><trkpt lat="58.05077667" lon="14.496995"><ele>131.0</ele><time>2016-06-18T05:00:30.282Z</time></trkpt><trkpt lat="58.05061667" lon="14.49693167"><ele>131.0</ele><time>2016-06-18T05:00:31.290Z</time></trkpt><trkpt lat="58.05061667" lon="14.49693167"><ele>131.0</ele><time>2016-06-18T05:00:32.311Z</time></trkpt><trkpt lat="58.05045833" lon="14.49686167"><ele>131.0</ele><time>2016-06-18T05:00:33.314Z</time></trkpt><trkpt lat="58.05045833" lon="14.49686167"><ele>131.0</ele><time>2016-06-18T05:00:34.307Z</time></trkpt><trkpt lat="58.05029833" lon="14.4968"><ele>131.0</ele><time>2016-06-18T05:00:35.283Z</time></trkpt><trkpt lat="58.05021833" lon="14.49677167"><ele>131.0</ele><time>2016-06-18T05:00:36.285Z</time></trkpt><trkpt lat="58.05021833" lon="14.49677167"><ele>131.0</ele><time>2016-06-18T05:00:37.297Z</time></trkpt><trkpt lat="58.05005833" lon="14.49671833"><ele>131.0</ele><time>2016-06-18T05:00:38.304Z</time></trkpt><trkpt lat="58.05005833" lon="14.49671833"><ele>131.0</ele><time>2016-06-18T05:00:39.287Z</time></trkpt><trkpt lat="58.04989833" lon="14.49668"><ele>131.0</ele><time>2016-06-18T05:00:40.288Z</time></trkpt><trkpt lat="58.04989833" lon="14.49668"><ele>131.0</ele><time>2016-06-18T05:00:41.321Z</time></trkpt><trkpt lat="58.049745" lon="14.49664833"><ele>131.0</ele><time>2016-06-18T05:00:42.289Z</time></trkpt><trkpt lat="58.04966833" lon="14.496625"><ele>131.0</ele><time>2016-06-18T05:00:43.289Z</time></trkpt><trkpt lat="58.04966833" lon="14.496625"><ele>131.0</ele><time>2016-06-18T05:00:44.310Z</time></trkpt><trkpt lat="58.04951833" lon="14.496585"><ele>131.0</ele><time>2016-06-18T05:00:45.293Z</time></trkpt><trkpt lat="58.04951833" lon="14.496585"><ele>131.0</ele><time>2016-06-18T05:00:46.319Z</time></trkpt><trkpt lat="58.04937333" lon="14.49655"><ele>131.0</ele><time>2016-06-18T05:00:47.286Z</time></trkpt><trkpt lat="58.0493" lon="14.49653"><ele>131.0</ele><time>2016-06-18T05:00:48.290Z</time></trkpt><trkpt lat="58.0493" lon="14.49653"><ele>131.0</ele><time>2016-06-18T05:00:49.312Z</time></trkpt><trkpt lat="58.04915833" lon="14.49648833"><ele>132.0</ele><time>2016-06-18T05:00:50.319Z</time></trkpt><trkpt lat="58.04915833" lon="14.49648833"><ele>132.0</ele><time>2016-06-18T05:00:51.307Z</time></trkpt><trkpt lat="58.04901667" lon="14.49642833"><ele>132.0</ele><time>2016-06-18T05:00:52.304Z</time></trkpt><trkpt lat="58.04901667" lon="14.49642833"><ele>132.0</ele><time>2016-06-18T05:00:53.316Z</time></trkpt><trkpt lat="58.04887833" lon="14.49634833"><ele>132.0</ele><time>2016-06-18T05:00:54.284Z</time></trkpt><trkpt lat="58.04887833" lon="14.49634833"><ele>132.0</ele><time>2016-06-18T05:00:55.305Z</time></trkpt><trkpt lat="58.04874" lon="14.49625333"><ele>133.0</ele><time>2016-06-18T05:00:56.312Z</time></trkpt><trkpt lat="58.04874" lon="14.49625333"><ele>133.0</ele><time>2016-06-18T05:00:57.305Z</time></trkpt><trkpt lat="58.048605" lon="14.49613667"><ele>133.0</ele><time>2016-06-18T05:00:58.316Z</time></trkpt><trkpt lat="58.048605" lon="14.49613667"><ele>133.0</ele><time>2016-06-18T05:00:59.297Z</time></trkpt><trkpt lat="58.04847" lon="14.496005"><ele>133.0</ele><time>2016-06-18T05:01:00.304Z</time></trkpt><trkpt lat="58.04847" lon="14.496005"><ele>133.0</ele><time>2016-06-18T05:01:01.289Z</time></trkpt><trkpt lat="58.048335" lon="14.49586"><ele>132.0</ele><time>2016-06-18T05:01:02.317Z</time></trkpt><trkpt lat="58.048335" lon="14.49586"><ele>132.0</ele><time>2016-06-18T05:01:03.288Z</time></trkpt><trkpt lat="58.04819667" lon="14.49571"><ele>132.0</ele><time>2016-06-18T05:01:04.310Z</time></trkpt><trkpt lat="58.04819667" lon="14.49571"><ele>132.0</ele><time>2016-06-18T05:01:05.292Z</time></trkpt><trkpt lat="58.04806" lon="14.49556167"><ele>132.0</ele><time>2016-06-18T05:01:06.300Z</time></trkpt><trkpt lat="58.04799167" lon="14.49548667"><ele>132.0</ele><time>2016-06-18T05:01:07.304Z</time></trkpt><trkpt lat="58.04799167" lon="14.49548667"><ele>132.0</ele><time>2016-06-18T05:01:08.305Z</time></trkpt><trkpt lat="58.04786167" lon="14.49534667"><ele>133.0</ele><time>2016-06-18T05:01:09.311Z</time></trkpt><trkpt lat="58.04786167" lon="14.49534667"><ele>133.0</ele><time>2016-06-18T05:01:10.291Z</time></trkpt><trkpt lat="58.04773667" lon="14.49521"><ele>133.0</ele><time>2016-06-18T05:01:11.290Z</time></trkpt><trkpt lat="58.047675" lon="14.49514"><ele>133.0</ele><time>2016-06-18T05:01:12.283Z</time></trkpt><trkpt lat="58.04761167" lon="14.49507"><ele>133.0</ele><time>2016-06-18T05:01:13.310Z</time></trkpt><trkpt lat="58.04761167" lon="14.49507"><ele>133.0</ele><time>2016-06-18T05:01:14.282Z</time></trkpt><trkpt lat="58.04748667" lon="14.49493"><ele>132.0</ele><time>2016-06-18T05:01:15.308Z</time></trkpt><trkpt lat="58.04748667" lon="14.49493"><ele>132.0</ele><time>2016-06-18T05:01:16.283Z</time></trkpt><trkpt lat="58.04735833" lon="14.49479"><ele>132.0</ele><time>2016-06-18T05:01:17.289Z</time></trkpt><trkpt lat="58.04735833" lon="14.49479"><ele>132.0</ele><time>2016-06-18T05:01:18.311Z</time></trkpt><trkpt lat="58.04722667" lon="14.49464667"><ele>132.0</ele><time>2016-06-18T05:01:19.288Z</time></trkpt><trkpt lat="58.04722667" lon="14.49464667"><ele>132.0</ele><time>2016-06-18T05:01:20.304Z</time></trkpt><trkpt lat="58.04709167" lon="14.49450333"><ele>132.0</ele><time>2016-06-18T05:01:21.310Z</time></trkpt><trkpt lat="58.04709167" lon="14.49450333"><ele>132.0</ele><time>2016-06-18T05:01:22.292Z</time></trkpt><trkpt lat="58.04695167" lon="14.49435167"><ele>132.0</ele><time>2016-06-18T05:01:23.318Z</time></trkpt><trkpt lat="58.04695167" lon="14.49435167"><ele>132.0</ele><time>2016-06-18T05:01:24.309Z</time></trkpt><trkpt lat="58.04680833" lon="14.494195"><ele>132.0</ele><time>2016-06-18T05:01:25.315Z</time></trkpt><trkpt lat="58.04680833" lon="14.494195"><ele>132.0</ele><time>2016-06-18T05:01:26.303Z</time></trkpt><trkpt lat="58.046665" lon="14.49404167"><ele>132.0</ele><time>2016-06-18T05:01:27.318Z</time></trkpt><trkpt lat="58.046665" lon="14.49404167"><ele>132.0</ele><time>2016-06-18T05:01:28.282Z</time></trkpt><trkpt lat="58.046525" lon="14.49388833"><ele>132.0</ele><time>2016-06-18T05:01:29.289Z</time></trkpt><trkpt lat="58.046525" lon="14.49388833"><ele>132.0</ele><time>2016-06-18T05:01:30.311Z</time></trkpt><trkpt lat="58.046385" lon="14.49373333"><ele>132.0</ele><time>2016-06-18T05:01:31.284Z</time></trkpt><trkpt lat="58.046385" lon="14.49373333"><ele>132.0</ele><time>2016-06-18T05:01:32.311Z</time></trkpt><trkpt lat="58.04624167" lon="14.49358"><ele>132.0</ele><time>2016-06-18T05:01:33.319Z</time></trkpt><trkpt lat="58.04624167" lon="14.49358"><ele>132.0</ele><time>2016-06-18T05:01:34.285Z</time></trkpt><trkpt lat="58.04609833" lon="14.49343"><ele>132.0</ele><time>2016-06-18T05:01:35.326Z</time></trkpt><trkpt lat="58.04609833" lon="14.49343"><ele>132.0</ele><time>2016-06-18T05:01:36.299Z</time></trkpt><trkpt lat="58.04596" lon="14.49328333"><ele>132.0</ele><time>2016-06-18T05:01:37.306Z</time></trkpt><trkpt lat="58.04589167" lon="14.49321"><ele>132.0</ele><time>2016-06-18T05:01:38.304Z</time></trkpt><trkpt lat="58.04589167" lon="14.49321"><ele>132.0</ele><time>2016-06-18T05:01:39.321Z</time></trkpt><trkpt lat="58.04575167" lon="14.49306"><ele>132.0</ele><time>2016-06-18T05:01:40.288Z</time></trkpt><trkpt lat="58.04568167" lon="14.492985"><ele>132.0</ele><time>2016-06-18T05:01:41.300Z</time></trkpt><trkpt lat="58.04568167" lon="14.492985"><ele>132.0</ele><time>2016-06-18T05:01:42.315Z</time></trkpt><trkpt lat="58.04554333" lon="14.49283833"><ele>132.0</ele><time>2016-06-18T05:01:43.291Z</time></trkpt><trkpt lat="58.04547333" lon="14.49276667"><ele>132.0</ele><time>2016-06-18T05:01:44.312Z</time></trkpt><trkpt lat="58.04547333" lon="14.49276667"><ele>132.0</ele><time>2016-06-18T05:01:45.295Z</time></trkpt><trkpt lat="58.04533667" lon="14.49262"><ele>133.0</ele><time>2016-06-18T05:01:46.313Z</time></trkpt><trkpt lat="58.04526667" lon="14.492545"><ele>133.0</ele><time>2016-06-18T05:01:47.313Z</time></trkpt><trkpt lat="58.04519667" lon="14.49247333"><ele>133.0</ele><time>2016-06-18T05:01:48.293Z</time></trkpt><trkpt lat="58.04519667" lon="14.49247333"><ele>133.0</ele><time>2016-06-18T05:01:49.303Z</time></trkpt><trkpt lat="58.045055" lon="14.492325"><ele>133.0</ele><time>2016-06-18T05:01:50.308Z</time></trkpt><trkpt lat="58.045055" lon="14.492325"><ele>133.0</ele><time>2016-06-18T05:01:51.290Z</time></trkpt><trkpt lat="58.04491167" lon="14.49217333"><ele>133.0</ele><time>2016-06-18T05:01:52.309Z</time></trkpt><trkpt lat="58.04491167" lon="14.49217333"><ele>133.0</ele><time>2016-06-18T05:01:53.294Z</time></trkpt><trkpt lat="58.04476833" lon="14.49201833"><ele>132.0</ele><time>2016-06-18T05:01:54.284Z</time></trkpt><trkpt lat="58.04476833" lon="14.49201833"><ele>132.0</ele><time>2016-06-18T05:01:55.314Z</time></trkpt><trkpt lat="58.04462333" lon="14.491865"><ele>132.0</ele><time>2016-06-18T05:01:56.287Z</time></trkpt><trkpt lat="58.04455167" lon="14.49178833"><ele>132.0</ele><time>2016-06-18T05:01:57.306Z</time></trkpt><trkpt lat="58.04447833" lon="14.49171"><ele>132.0</ele><time>2016-06-18T05:01:58.288Z</time></trkpt><trkpt lat="58.04447833" lon="14.49171"><ele>132.0</ele><time>2016-06-18T05:01:59.316Z</time></trkpt><trkpt lat="58.04433167" lon="14.49155333"><ele>132.0</ele><time>2016-06-18T05:02:00.288Z</time></trkpt><trkpt lat="58.04433167" lon="14.49155333"><ele>132.0</ele><time>2016-06-18T05:02:01.319Z</time></trkpt><trkpt lat="58.04418333" lon="14.4914"><ele>132.0</ele><time>2016-06-18T05:02:02.286Z</time></trkpt><trkpt lat="58.04411" lon="14.49132333"><ele>132.0</ele><time>2016-06-18T05:02:03.310Z</time></trkpt><trkpt lat="58.04411" lon="14.49132333"><ele>132.0</ele><time>2016-06-18T05:02:04.291Z</time></trkpt><trkpt lat="58.04396167" lon="14.49117167"><ele>132.0</ele><time>2016-06-18T05:02:05.301Z</time></trkpt><trkpt lat="58.04396167" lon="14.49117167"><ele>132.0</ele><time>2016-06-18T05:02:06.289Z</time></trkpt><trkpt lat="58.043815" lon="14.491015"><ele>132.0</ele><time>2016-06-18T05:02:07.310Z</time></trkpt><trkpt lat="58.043815" lon="14.491015"><ele>132.0</ele><time>2016-06-18T05:02:08.312Z</time></trkpt><trkpt lat="58.043665" lon="14.490855"><ele>132.0</ele><time>2016-06-18T05:02:09.320Z</time></trkpt><trkpt lat="58.043665" lon="14.490855"><ele>132.0</ele><time>2016-06-18T05:02:10.302Z</time></trkpt><trkpt lat="58.04350833" lon="14.49069333"><ele>131.0</ele><time>2016-06-18T05:02:11.310Z</time></trkpt><trkpt lat="58.04342833" lon="14.490615"><ele>131.0</ele><time>2016-06-18T05:02:12.294Z</time></trkpt><trkpt lat="58.04342833" lon="14.490615"><ele>131.0</ele><time>2016-06-18T05:02:13.320Z</time></trkpt><trkpt lat="58.04327" lon="14.49044833"><ele>131.0</ele><time>2016-06-18T05:02:14.286Z</time></trkpt><trkpt lat="58.04327" lon="14.49044833"><ele>131.0</ele><time>2016-06-18T05:02:15.310Z</time></trkpt><trkpt lat="58.04311" lon="14.49027"><ele>131.0</ele><time>2016-06-18T05:02:16.288Z</time></trkpt><trkpt lat="58.04311" lon="14.49027"><ele>131.0</ele><time>2016-06-18T05:02:17.316Z</time></trkpt><trkpt lat="58.042945" lon="14.49009833"><ele>130.0</ele><time>2016-06-18T05:02:18.284Z</time></trkpt><trkpt lat="58.04286167" lon="14.49001"><ele>130.0</ele><time>2016-06-18T05:02:19.307Z</time></trkpt><trkpt lat="58.04277833" lon="14.48992"><ele>130.0</ele><time>2016-06-18T05:02:20.292Z</time></trkpt><trkpt lat="58.04277833" lon="14.48992"><ele>130.0</ele><time>2016-06-18T05:02:21.314Z</time></trkpt><trkpt lat="58.04260667" lon="14.48974"><ele>129.0</ele><time>2016-06-18T05:02:22.303Z</time></trkpt><trkpt lat="58.04251833" lon="14.48964833"><ele>129.0</ele><time>2016-06-18T05:02:23.287Z</time></trkpt><trkpt lat="58.04243333" lon="14.48955167"><ele>128.0</ele><time>2016-06-18T05:02:24.306Z</time></trkpt><trkpt lat="58.04243333" lon="14.48955167"><ele>128.0</ele><time>2016-06-18T05:02:25.282Z</time></trkpt><trkpt lat="58.04226" lon="14.48935667"><ele>128.0</ele><time>2016-06-18T05:02:26.292Z</time></trkpt><trkpt lat="58.04226" lon="14.48935667"><ele>128.0</ele><time>2016-06-18T05:02:27.320Z</time></trkpt><trkpt lat="58.04207833" lon="14.48916167"><ele>127.0</ele><time>2016-06-18T05:02:28.326Z</time></trkpt><trkpt lat="58.04207833" lon="14.48916167"><ele>127.0</ele><time>2016-06-18T05:02:29.305Z</time></trkpt><trkpt lat="58.04191" lon="14.48897167"><ele>126.0</ele><time>2016-06-18T05:02:30.313Z</time></trkpt><trkpt lat="58.04182833" lon="14.48888"><ele>126.0</ele><time>2016-06-18T05:02:31.283Z</time></trkpt><trkpt lat="58.04182833" lon="14.48888"><ele>126.0</ele><time>2016-06-18T05:02:32.304Z</time></trkpt><trkpt lat="58.04167333" lon="14.48870167"><ele>126.0</ele><time>2016-06-18T05:02:33.313Z</time></trkpt><trkpt lat="58.04159667" lon="14.48861833"><ele>126.0</ele><time>2016-06-18T05:02:34.307Z</time></trkpt><trkpt lat="58.04152667" lon="14.48854167"><ele>127.0</ele><time>2016-06-18T05:02:35.291Z</time></trkpt><trkpt lat="58.04152667" lon="14.48854167"><ele>127.0</ele><time>2016-06-18T05:02:36.314Z</time></trkpt><trkpt lat="58.04137833" lon="14.48839"><ele>126.0</ele><time>2016-06-18T05:02:37.314Z</time></trkpt><trkpt lat="58.041305" lon="14.48830833"><ele>126.0</ele><time>2016-06-18T05:02:38.299Z</time></trkpt><trkpt lat="58.041305" lon="14.48830833"><ele>126.0</ele><time>2016-06-18T05:02:39.282Z</time></trkpt><trkpt lat="58.04115667" lon="14.48814"><ele>127.0</ele><time>2016-06-18T05:02:40.288Z</time></trkpt><trkpt lat="58.04115667" lon="14.48814"><ele>127.0</ele><time>2016-06-18T05:02:41.286Z</time></trkpt><trkpt lat="58.04100833" lon="14.48797167"><ele>127.0</ele><time>2016-06-18T05:02:42.293Z</time></trkpt><trkpt lat="58.04093" lon="14.487885"><ele>127.0</ele><time>2016-06-18T05:02:43.287Z</time></trkpt><trkpt lat="58.04093" lon="14.487885"><ele>127.0</ele><time>2016-06-18T05:02:44.310Z</time></trkpt><trkpt lat="58.04077" lon="14.48771333"><ele>127.0</ele><time>2016-06-18T05:02:45.283Z</time></trkpt><trkpt lat="58.04077" lon="14.48771333"><ele>127.0</ele><time>2016-06-18T05:02:46.304Z</time></trkpt><trkpt lat="58.04061167" lon="14.48754167"><ele>127.0</ele><time>2016-06-18T05:02:47.309Z</time></trkpt><trkpt lat="58.04061167" lon="14.48754167"><ele>127.0</ele><time>2016-06-18T05:02:48.291Z</time></trkpt><trkpt lat="58.040455" lon="14.48737333"><ele>126.0</ele><time>2016-06-18T05:02:49.299Z</time></trkpt><trkpt lat="58.040455" lon="14.48737333"><ele>126.0</ele><time>2016-06-18T05:02:50.284Z</time></trkpt><trkpt lat="58.04029167" lon="14.48719833"><ele>126.0</ele><time>2016-06-18T05:02:51.316Z</time></trkpt><trkpt lat="58.04029167" lon="14.48719833"><ele>126.0</ele><time>2016-06-18T05:02:52.305Z</time></trkpt><trkpt lat="58.04012667" lon="14.487015"><ele>125.0</ele><time>2016-06-18T05:02:53.317Z</time></trkpt><trkpt lat="58.04012667" lon="14.487015"><ele>125.0</ele><time>2016-06-18T05:02:54.300Z</time></trkpt><trkpt lat="58.03995833" lon="14.48682333"><ele>126.0</ele><time>2016-06-18T05:02:55.288Z</time></trkpt><trkpt lat="58.03995833" lon="14.48682333"><ele>126.0</ele><time>2016-06-18T05:02:56.301Z</time></trkpt><trkpt lat="58.03979333" lon="14.48664"><ele>126.0</ele><time>2016-06-18T05:02:57.308Z</time></trkpt><trkpt lat="58.03979333" lon="14.48664"><ele>126.0</ele><time>2016-06-18T05:02:58.291Z</time></trkpt><trkpt lat="58.03963333" lon="14.48646167"><ele>126.0</ele><time>2016-06-18T05:02:59.315Z</time></trkpt><trkpt lat="58.03963333" lon="14.48646167"><ele>126.0</ele><time>2016-06-18T05:03:00.293Z</time></trkpt><trkpt lat="58.03947" lon="14.48627667"><ele>125.0</ele><time>2016-06-18T05:03:01.299Z</time></trkpt><trkpt lat="58.03938833" lon="14.48619"><ele>125.0</ele><time>2016-06-18T05:03:02.313Z</time></trkpt><trkpt lat="58.03938833" lon="14.48619"><ele>125.0</ele><time>2016-06-18T05:03:03.294Z</time></trkpt><trkpt lat="58.03922333" lon="14.48601167"><ele>125.0</ele><time>2016-06-18T05:03:04.310Z</time></trkpt><trkpt lat="58.03914" lon="14.48592167"><ele>125.0</ele><time>2016-06-18T05:03:05.292Z</time></trkpt><trkpt lat="58.03914" lon="14.48592167"><ele>125.0</ele><time>2016-06-18T05:03:06.315Z</time></trkpt><trkpt lat="58.03897167" lon="14.48574167"><ele>124.0</ele><time>2016-06-18T05:03:07.288Z</time></trkpt><trkpt lat="58.038885" lon="14.48564667"><ele>124.0</ele><time>2016-06-18T05:03:08.288Z</time></trkpt><trkpt lat="58.038885" lon="14.48564667"><ele>124.0</ele><time>2016-06-18T05:03:09.321Z</time></trkpt><trkpt lat="58.03871667" lon="14.48544667"><ele>124.0</ele><time>2016-06-18T05:03:10.301Z</time></trkpt><trkpt lat="58.03871667" lon="14.48544667"><ele>124.0</ele><time>2016-06-18T05:03:11.310Z</time></trkpt><trkpt lat="58.03854667" lon="14.48525667"><ele>124.0</ele><time>2016-06-18T05:03:12.287Z</time></trkpt><trkpt lat="58.03854667" lon="14.48525667"><ele>124.0</ele><time>2016-06-18T05:03:13.310Z</time></trkpt><trkpt lat="58.03837333" lon="14.48505667"><ele>123.0</ele><time>2016-06-18T05:03:14.325Z</time></trkpt><trkpt lat="58.03837333" lon="14.48505667"><ele>123.0</ele><time>2016-06-18T05:03:15.309Z</time></trkpt><trkpt lat="58.03819" lon="14.484865"><ele>122.0</ele><time>2016-06-18T05:03:16.282Z</time></trkpt><trkpt lat="58.03819" lon="14.484865"><ele>122.0</ele><time>2016-06-18T05:03:17.307Z</time></trkpt><trkpt lat="58.03800333" lon="14.48467333"><ele>121.0</ele><time>2016-06-18T05:03:18.282Z</time></trkpt><trkpt lat="58.03800333" lon="14.48467333"><ele>121.0</ele><time>2016-06-18T05:03:19.289Z</time></trkpt><trkpt lat="58.03782" lon="14.48447667"><ele>121.0</ele><time>2016-06-18T05:03:20.301Z</time></trkpt><trkpt lat="58.03782" lon="14.48447667"><ele>121.0</ele><time>2016-06-18T05:03:21.300Z</time></trkpt><trkpt lat="58.03763833" lon="14.48427667"><ele>121.0</ele><time>2016-06-18T05:03:22.288Z</time></trkpt><trkpt lat="58.03763833" lon="14.48427667"><ele>121.0</ele><time>2016-06-18T05:03:23.303Z</time></trkpt><trkpt lat="58.03744833" lon="14.48407833"><ele>120.0</ele><time>2016-06-18T05:03:24.310Z</time></trkpt><trkpt lat="58.03744833" lon="14.48407833"><ele>120.0</ele><time>2016-06-18T05:03:25.292Z</time></trkpt><trkpt lat="58.03725667" lon="14.483875"><ele>119.0</ele><time>2016-06-18T05:03:26.284Z</time></trkpt><trkpt lat="58.03725667" lon="14.483875"><ele>119.0</ele><time>2016-06-18T05:03:27.284Z</time></trkpt><trkpt lat="58.03706667" lon="14.48366833"><ele>118.0</ele><time>2016-06-18T05:03:28.300Z</time></trkpt><trkpt lat="58.03706667" lon="14.48366833"><ele>118.0</ele><time>2016-06-18T05:03:29.284Z</time></trkpt><trkpt lat="58.03687667" lon="14.48346167"><ele>117.0</ele><time>2016-06-18T05:03:30.284Z</time></trkpt><trkpt lat="58.03687667" lon="14.48346167"><ele>117.0</ele><time>2016-06-18T05:03:31.287Z</time></trkpt><trkpt lat="58.03668667" lon="14.48325"><ele>117.0</ele><time>2016-06-18T05:03:32.294Z</time></trkpt><trkpt lat="58.03659167" lon="14.483145"><ele>117.0</ele><time>2016-06-18T05:03:33.321Z</time></trkpt><trkpt lat="58.03659167" lon="14.483145"><ele>117.0</ele><time>2016-06-18T05:03:34.303Z</time></trkpt><trkpt lat="58.03640333" lon="14.48293833"><ele>116.0</ele><time>2016-06-18T05:03:35.338Z</time></trkpt><trkpt lat="58.03640333" lon="14.48293833"><ele>116.0</ele><time>2016-06-18T05:03:36.282Z</time></trkpt><trkpt lat="58.03622" lon="14.482735"><ele>116.0</ele><time>2016-06-18T05:03:37.294Z</time></trkpt><trkpt lat="58.036135" lon="14.48263833"><ele>116.0</ele><time>2016-06-18T05:03:38.317Z</time></trkpt><trkpt lat="58.036135" lon="14.48263833"><ele>116.0</ele><time>2016-06-18T05:03:39.301Z</time></trkpt><trkpt lat="58.03596" lon="14.48245167"><ele>117.0</ele><time>2016-06-18T05:03:40.318Z</time></trkpt><trkpt lat="58.03596" lon="14.48245167"><ele>117.0</ele><time>2016-06-18T05:03:41.312Z</time></trkpt><trkpt lat="58.03578833" lon="14.48226167"><ele>116.0</ele><time>2016-06-18T05:03:42.284Z</time></trkpt><trkpt lat="58.03578833" lon="14.48226167"><ele>116.0</ele><time>2016-06-18T05:03:43.306Z</time></trkpt><trkpt lat="58.035625" lon="14.48208167"><ele>116.0</ele><time>2016-06-18T05:03:44.310Z</time></trkpt><trkpt lat="58.035625" lon="14.48208167"><ele>116.0</ele><time>2016-06-18T05:03:45.293Z</time></trkpt><trkpt lat="58.03546333" lon="14.48190667"><ele>115.0</ele><time>2016-06-18T05:03:46.300Z</time></trkpt><trkpt lat="58.03537833" lon="14.481815"><ele>114.0</ele><time>2016-06-18T05:03:47.302Z</time></trkpt><trkpt lat="58.035295" lon="14.48172667"><ele>115.0</ele><time>2016-06-18T05:03:48.315Z</time></trkpt><trkpt lat="58.03521" lon="14.48163167"><ele>114.0</ele><time>2016-06-18T05:03:49.296Z</time></trkpt><trkpt lat="58.03521" lon="14.48163167"><ele>114.0</ele><time>2016-06-18T05:03:50.283Z</time></trkpt><trkpt lat="58.03504167" lon="14.48144167"><ele>113.0</ele><time>2016-06-18T05:03:51.290Z</time></trkpt><trkpt lat="58.03504167" lon="14.48144167"><ele>113.0</ele><time>2016-06-18T05:03:52.314Z</time></trkpt><trkpt lat="58.034875" lon="14.48124667"><ele>113.0</ele><time>2016-06-18T05:03:53.310Z</time></trkpt><trkpt lat="58.034875" lon="14.48124667"><ele>113.0</ele><time>2016-06-18T05:03:54.321Z</time></trkpt><trkpt lat="58.03471833" lon="14.48106333"><ele>114.0</ele><time>2016-06-18T05:03:55.287Z</time></trkpt><trkpt lat="58.03463833" lon="14.48097833"><ele>114.0</ele><time>2016-06-18T05:03:56.285Z</time></trkpt><trkpt lat="58.03463833" lon="14.48097833"><ele>114.0</ele><time>2016-06-18T05:03:57.291Z</time></trkpt><trkpt lat="58.03446333" lon="14.48079167"><ele>113.0</ele><time>2016-06-18T05:03:58.297Z</time></trkpt><trkpt lat="58.03446333" lon="14.48079167"><ele>113.0</ele><time>2016-06-18T05:03:59.288Z</time></trkpt><trkpt lat="58.03429667" lon="14.48061"><ele>113.0</ele><time>2016-06-18T05:04:00.312Z</time></trkpt><trkpt lat="58.03429667" lon="14.48061"><ele>113.0</ele><time>2016-06-18T05:04:01.289Z</time></trkpt><trkpt lat="58.034135" lon="14.48043667"><ele>113.0</ele><time>2016-06-18T05:04:02.296Z</time></trkpt><trkpt lat="58.034055" lon="14.48034333"><ele>113.0</ele><time>2016-06-18T05:04:03.304Z</time></trkpt><trkpt lat="58.034055" lon="14.48034333"><ele>113.0</ele><time>2016-06-18T05:04:04.287Z</time></trkpt><trkpt lat="58.03389667" lon="14.48016833"><ele>112.0</ele><time>2016-06-18T05:04:05.294Z</time></trkpt><trkpt lat="58.03389667" lon="14.48016833"><ele>112.0</ele><time>2016-06-18T05:04:06.319Z</time></trkpt><trkpt lat="58.03374167" lon="14.47999667"><ele>113.0</ele><time>2016-06-18T05:04:07.318Z</time></trkpt><trkpt lat="58.03374167" lon="14.47999667"><ele>113.0</ele><time>2016-06-18T05:04:08.294Z</time></trkpt><trkpt lat="58.03359" lon="14.47982167"><ele>113.0</ele><time>2016-06-18T05:04:09.301Z</time></trkpt><trkpt lat="58.033515" lon="14.47973667"><ele>113.0</ele><time>2016-06-18T05:04:10.300Z</time></trkpt><trkpt lat="58.033515" lon="14.47973667"><ele>113.0</ele><time>2016-06-18T05:04:11.302Z</time></trkpt><trkpt lat="58.03336833" lon="14.47957167"><ele>113.0</ele><time>2016-06-18T05:04:12.319Z</time></trkpt><trkpt lat="58.03336833" lon="14.47957167"><ele>113.0</ele><time>2016-06-18T05:04:13.300Z</time></trkpt><trkpt lat="58.03322167" lon="14.47941333"><ele>113.0</ele><time>2016-06-18T05:04:14.307Z</time></trkpt><trkpt lat="58.03322167" lon="14.47941333"><ele>113.0</ele><time>2016-06-18T05:04:15.288Z</time></trkpt><trkpt lat="58.03306833" lon="14.47925167"><ele>112.0</ele><time>2016-06-18T05:04:16.315Z</time></trkpt><trkpt lat="58.03306833" lon="14.47925167"><ele>112.0</ele><time>2016-06-18T05:04:17.292Z</time></trkpt><trkpt lat="58.03291333" lon="14.47909333"><ele>112.0</ele><time>2016-06-18T05:04:18.304Z</time></trkpt><trkpt lat="58.03291333" lon="14.47909333"><ele>112.0</ele><time>2016-06-18T05:04:19.288Z</time></trkpt><trkpt lat="58.03276167" lon="14.47893167"><ele>112.0</ele><time>2016-06-18T05:04:20.308Z</time></trkpt><trkpt lat="58.03276167" lon="14.47893167"><ele>112.0</ele><time>2016-06-18T05:04:21.292Z</time></trkpt><trkpt lat="58.03261833" lon="14.478775"><ele>112.0</ele><time>2016-06-18T05:04:22.299Z</time></trkpt><trkpt lat="58.03254833" lon="14.47869833"><ele>112.0</ele><time>2016-06-18T05:04:23.308Z</time></trkpt><trkpt lat="58.03254833" lon="14.47869833"><ele>112.0</ele><time>2016-06-18T05:04:24.289Z</time></trkpt><trkpt lat="58.03241" lon="14.47854167"><ele>112.0</ele><time>2016-06-18T05:04:25.295Z</time></trkpt><trkpt lat="58.032335" lon="14.47846"><ele>112.0</ele><time>2016-06-18T05:04:26.318Z</time></trkpt><trkpt lat="58.032335" lon="14.47846"><ele>112.0</ele><time>2016-06-18T05:04:27.299Z</time></trkpt><trkpt lat="58.03218667" lon="14.4783"><ele>112.0</ele><time>2016-06-18T05:04:28.308Z</time></trkpt><trkpt lat="58.03211333" lon="14.47822167"><ele>112.0</ele><time>2016-06-18T05:04:29.306Z</time></trkpt><trkpt lat="58.03211333" lon="14.47822167"><ele>112.0</ele><time>2016-06-18T05:04:30.285Z</time></trkpt><trkpt lat="58.03197167" lon="14.47806667"><ele>112.0</ele><time>2016-06-18T05:04:31.291Z</time></trkpt><trkpt lat="58.0319" lon="14.47799167"><ele>112.0</ele><time>2016-06-18T05:04:32.318Z</time></trkpt><trkpt lat="58.0319" lon="14.47799167"><ele>112.0</ele><time>2016-06-18T05:04:33.301Z</time></trkpt><trkpt lat="58.03176167" lon="14.47784167"><ele>112.0</ele><time>2016-06-18T05:04:34.308Z</time></trkpt><trkpt lat="58.03176167" lon="14.47784167"><ele>112.0</ele><time>2016-06-18T05:04:35.291Z</time></trkpt><trkpt lat="58.031625" lon="14.47769167"><ele>112.0</ele><time>2016-06-18T05:04:36.297Z</time></trkpt><trkpt lat="58.031625" lon="14.47769167"><ele>112.0</ele><time>2016-06-18T05:04:37.283Z</time></trkpt><trkpt lat="58.031485" lon="14.47753833"><ele>112.0</ele><time>2016-06-18T05:04:38.312Z</time></trkpt><trkpt lat="58.031485" lon="14.47753833"><ele>112.0</ele><time>2016-06-18T05:04:39.295Z</time></trkpt><trkpt lat="58.03135" lon="14.47738667"><ele>111.0</ele><time>2016-06-18T05:04:40.303Z</time></trkpt><trkpt lat="58.03135" lon="14.47738667"><ele>111.0</ele><time>2016-06-18T05:04:41.288Z</time></trkpt><trkpt lat="58.03122" lon="14.47723833"><ele>111.0</ele><time>2016-06-18T05:04:42.319Z</time></trkpt><trkpt lat="58.03122" lon="14.47723833"><ele>111.0</ele><time>2016-06-18T05:04:43.282Z</time></trkpt><trkpt lat="58.03108833" lon="14.47709667"><ele>111.0</ele><time>2016-06-18T05:04:44.289Z</time></trkpt><trkpt lat="58.03108833" lon="14.47709667"><ele>111.0</ele><time>2016-06-18T05:04:45.311Z</time></trkpt><trkpt lat="58.030955" lon="14.476955"><ele>111.0</ele><time>2016-06-18T05:04:46.316Z</time></trkpt><trkpt lat="58.030955" lon="14.476955"><ele>111.0</ele><time>2016-06-18T05:04:47.299Z</time></trkpt><trkpt lat="58.03082167" lon="14.47680667"><ele>111.0</ele><time>2016-06-18T05:04:48.305Z</time></trkpt><trkpt lat="58.03075667" lon="14.47673333"><ele>111.0</ele><time>2016-06-18T05:04:49.298Z</time></trkpt><trkpt lat="58.03069167" lon="14.47665667"><ele>111.0</ele><time>2016-06-18T05:04:50.315Z</time></trkpt><trkpt lat="58.03069167" lon="14.47665667"><ele>111.0</ele><time>2016-06-18T05:04:51.297Z</time></trkpt><trkpt lat="58.03055667" lon="14.476515"><ele>111.0</ele><time>2016-06-18T05:04:52.305Z</time></trkpt><trkpt lat="58.03049167" lon="14.47644333"><ele>111.0</ele><time>2016-06-18T05:04:53.285Z</time></trkpt><trkpt lat="58.030425" lon="14.47636833"><ele>112.0</ele><time>2016-06-18T05:04:54.308Z</time></trkpt><trkpt lat="58.030425" lon="14.47636833"><ele>112.0</ele><time>2016-06-18T05:04:55.290Z</time></trkpt><trkpt lat="58.030295" lon="14.47621833"><ele>111.0</ele><time>2016-06-18T05:04:56.308Z</time></trkpt><trkpt lat="58.030295" lon="14.47621833"><ele>111.0</ele><time>2016-06-18T05:04:57.292Z</time></trkpt><trkpt lat="58.03016333" lon="14.47606833"><ele>111.0</ele><time>2016-06-18T05:04:58.299Z</time></trkpt><trkpt lat="58.03016333" lon="14.47606833"><ele>111.0</ele><time>2016-06-18T05:04:59.289Z</time></trkpt><trkpt lat="58.030035" lon="14.47593167"><ele>111.0</ele><time>2016-06-18T05:05:00.296Z</time></trkpt><trkpt lat="58.030035" lon="14.47593167"><ele>111.0</ele><time>2016-06-18T05:05:01.321Z</time></trkpt><trkpt lat="58.02991167" lon="14.47579833"><ele>111.0</ele><time>2016-06-18T05:05:02.288Z</time></trkpt><trkpt lat="58.02991167" lon="14.47579833"><ele>111.0</ele><time>2016-06-18T05:05:03.312Z</time></trkpt><trkpt lat="58.029785" lon="14.47566333"><ele>112.0</ele><time>2016-06-18T05:05:04.289Z</time></trkpt><trkpt lat="58.029785" lon="14.47566333"><ele>112.0</ele><time>2016-06-18T05:05:05.312Z</time></trkpt><trkpt lat="58.02965833" lon="14.47551833"><ele>112.0</ele><time>2016-06-18T05:05:06.283Z</time></trkpt><trkpt lat="58.029595" lon="14.47545"><ele>112.0</ele><time>2016-06-18T05:05:07.316Z</time></trkpt><trkpt lat="58.029595" lon="14.47545"><ele>112.0</ele><time>2016-06-18T05:05:08.312Z</time></trkpt><trkpt lat="58.02946667" lon="14.47530833"><ele>112.0</ele><time>2016-06-18T05:05:09.319Z</time></trkpt><trkpt lat="58.02940167" lon="14.475235"><ele>112.0</ele><time>2016-06-18T05:05:10.293Z</time></trkpt><trkpt lat="58.02940167" lon="14.475235"><ele>112.0</ele><time>2016-06-18T05:05:11.315Z</time></trkpt><trkpt lat="58.02927" lon="14.47509167"><ele>112.0</ele><time>2016-06-18T05:05:12.288Z</time></trkpt><trkpt lat="58.02920333" lon="14.47502"><ele>112.0</ele><time>2016-06-18T05:05:13.310Z</time></trkpt><trkpt lat="58.02920333" lon="14.47502"><ele>112.0</ele><time>2016-06-18T05:05:14.292Z</time></trkpt><trkpt lat="58.02907167" lon="14.47487833"><ele>112.0</ele><time>2016-06-18T05:05:15.318Z</time></trkpt><trkpt lat="58.02907167" lon="14.47487833"><ele>112.0</ele><time>2016-06-18T05:05:16.300Z</time></trkpt><trkpt lat="58.028945" lon="14.474745"><ele>112.0</ele><time>2016-06-18T05:05:17.306Z</time></trkpt><trkpt lat="58.028945" lon="14.474745"><ele>112.0</ele><time>2016-06-18T05:05:18.297Z</time></trkpt><trkpt lat="58.02883667" lon="14.47462833"><ele>112.0</ele><time>2016-06-18T05:05:19.318Z</time></trkpt><trkpt lat="58.02883667" lon="14.47462833"><ele>112.0</ele><time>2016-06-18T05:05:20.301Z</time></trkpt><trkpt lat="58.028745" lon="14.47452667"><ele>112.0</ele><time>2016-06-18T05:05:21.307Z</time></trkpt><trkpt lat="58.028745" lon="14.47452667"><ele>112.0</ele><time>2016-06-18T05:05:22.291Z</time></trkpt><trkpt lat="58.02865167" lon="14.47441333"><ele>112.0</ele><time>2016-06-18T05:05:23.298Z</time></trkpt><trkpt lat="58.02865167" lon="14.47441333"><ele>112.0</ele><time>2016-06-18T05:05:24.283Z</time></trkpt><trkpt lat="58.02854833" lon="14.47429667"><ele>112.0</ele><time>2016-06-18T05:05:25.303Z</time></trkpt><trkpt lat="58.02849667" lon="14.47423667"><ele>112.0</ele><time>2016-06-18T05:05:26.288Z</time></trkpt><trkpt lat="58.02849667" lon="14.47423667"><ele>112.0</ele><time>2016-06-18T05:05:27.291Z</time></trkpt><trkpt lat="58.02838667" lon="14.47411667"><ele>112.0</ele><time>2016-06-18T05:05:28.299Z</time></trkpt><trkpt lat="58.02833" lon="14.474055"><ele>112.0</ele><time>2016-06-18T05:05:29.321Z</time></trkpt><trkpt lat="58.02833" lon="14.474055"><ele>112.0</ele><time>2016-06-18T05:05:30.299Z</time></trkpt><trkpt lat="58.02821333" lon="14.47393"><ele>112.0</ele><time>2016-06-18T05:05:31.305Z</time></trkpt><trkpt lat="58.02821333" lon="14.47393"><ele>112.0</ele><time>2016-06-18T05:05:32.285Z</time></trkpt><trkpt lat="58.02809667" lon="14.4738"><ele>112.0</ele><time>2016-06-18T05:05:33.308Z</time></trkpt><trkpt lat="58.02809667" lon="14.4738"><ele>112.0</ele><time>2016-06-18T05:05:34.293Z</time></trkpt><trkpt lat="58.02798333" lon="14.473675"><ele>112.0</ele><time>2016-06-18T05:05:35.300Z</time></trkpt><trkpt lat="58.02793" lon="14.47362167"><ele>112.0</ele><time>2016-06-18T05:05:36.298Z</time></trkpt><trkpt lat="58.02788" lon="14.473565"><ele>112.0</ele><time>2016-06-18T05:05:37.285Z</time></trkpt><trkpt lat="58.02783" lon="14.47351"><ele>112.0</ele><time>2016-06-18T05:05:38.315Z</time></trkpt><trkpt lat="58.02783" lon="14.47351"><ele>112.0</ele><time>2016-06-18T05:05:39.285Z</time></trkpt><trkpt lat="58.02772833" lon="14.4734"><ele>112.0</ele><time>2016-06-18T05:05:40.296Z</time></trkpt><trkpt lat="58.02767667" lon="14.473345"><ele>112.0</ele><time>2016-06-18T05:05:41.305Z</time></trkpt><trkpt lat="58.027625" lon="14.47328833"><ele>112.0</ele><time>2016-06-18T05:05:42.315Z</time></trkpt><trkpt lat="58.02757167" lon="14.47323167"><ele>112.0</ele><time>2016-06-18T05:05:43.296Z</time></trkpt><trkpt lat="58.02751667" lon="14.47317667"><ele>112.0</ele><time>2016-06-18T05:05:44.319Z</time></trkpt><trkpt lat="58.02751667" lon="14.47317667"><ele>112.0</ele><time>2016-06-18T05:05:45.308Z</time></trkpt><trkpt lat="58.02741" lon="14.47305167"><ele>112.0</ele><time>2016-06-18T05:05:46.288Z</time></trkpt><trkpt lat="58.02735667" lon="14.47298667"><ele>112.0</ele><time>2016-06-18T05:05:47.310Z</time></trkpt><trkpt lat="58.02735667" lon="14.47298667"><ele>112.0</ele><time>2016-06-18T05:05:48.291Z</time></trkpt><trkpt lat="58.02724667" lon="14.47285667"><ele>112.0</ele><time>2016-06-18T05:05:49.298Z</time></trkpt><trkpt lat="58.027195" lon="14.472785"><ele>112.0</ele><time>2016-06-18T05:05:50.299Z</time></trkpt><trkpt lat="58.02714167" lon="14.47271167"><ele>111.0</ele><time>2016-06-18T05:05:51.309Z</time></trkpt><trkpt lat="58.02709167" lon="14.47264167"><ele>112.0</ele><time>2016-06-18T05:05:52.300Z</time></trkpt><trkpt lat="58.02709167" lon="14.47264167"><ele>112.0</ele><time>2016-06-18T05:05:53.282Z</time></trkpt><trkpt lat="58.02698667" lon="14.47250667"><ele>112.0</ele><time>2016-06-18T05:05:54.296Z</time></trkpt><trkpt lat="58.02698667" lon="14.47250667"><ele>112.0</ele><time>2016-06-18T05:05:55.282Z</time></trkpt><trkpt lat="58.02687667" lon="14.47236833"><ele>112.0</ele><time>2016-06-18T05:05:56.289Z</time></trkpt><trkpt lat="58.02687667" lon="14.47236833"><ele>112.0</ele><time>2016-06-18T05:05:57.314Z</time></trkpt><trkpt lat="58.02677" lon="14.47223"><ele>113.0</ele><time>2016-06-18T05:05:58.295Z</time></trkpt><trkpt lat="58.02677" lon="14.47223"><ele>113.0</ele><time>2016-06-18T05:05:59.321Z</time></trkpt><trkpt lat="58.02666333" lon="14.47209167"><ele>113.0</ele><time>2016-06-18T05:06:00.289Z</time></trkpt><trkpt lat="58.02660833" lon="14.47202167"><ele>113.0</ele><time>2016-06-18T05:06:01.312Z</time></trkpt><trkpt lat="58.02660833" lon="14.47202167"><ele>113.0</ele><time>2016-06-18T05:06:02.297Z</time></trkpt><trkpt lat="58.02650333" lon="14.47188833"><ele>114.0</ele><time>2016-06-18T05:06:03.305Z</time></trkpt><trkpt lat="58.02650333" lon="14.47188833"><ele>114.0</ele><time>2016-06-18T05:06:04.312Z</time></trkpt><trkpt lat="58.02639833" lon="14.47176"><ele>114.0</ele><time>2016-06-18T05:06:05.308Z</time></trkpt><trkpt lat="58.02639833" lon="14.47176"><ele>114.0</ele><time>2016-06-18T05:06:06.284Z</time></trkpt><trkpt lat="58.02629333" lon="14.47162667"><ele>114.0</ele><time>2016-06-18T05:06:07.292Z</time></trkpt><trkpt lat="58.02623833" lon="14.47155667"><ele>114.0</ele><time>2016-06-18T05:06:08.295Z</time></trkpt><trkpt lat="58.02623833" lon="14.47155667"><ele>114.0</ele><time>2016-06-18T05:06:09.284Z</time></trkpt><trkpt lat="58.02613167" lon="14.471415"><ele>114.0</ele><time>2016-06-18T05:06:10.292Z</time></trkpt><trkpt lat="58.02607667" lon="14.47134833"><ele>114.0</ele><time>2016-06-18T05:06:11.308Z</time></trkpt><trkpt lat="58.02607667" lon="14.47134833"><ele>114.0</ele><time>2016-06-18T05:06:12.284Z</time></trkpt><trkpt lat="58.025975" lon="14.47121167"><ele>114.0</ele><time>2016-06-18T05:06:13.295Z</time></trkpt><trkpt lat="58.02592167" lon="14.471145"><ele>115.0</ele><time>2016-06-18T05:06:14.305Z</time></trkpt><trkpt lat="58.02592167" lon="14.471145"><ele>115.0</ele><time>2016-06-18T05:06:15.321Z</time></trkpt><trkpt lat="58.02581167" lon="14.471015"><ele>115.0</ele><time>2016-06-18T05:06:16.288Z</time></trkpt><trkpt lat="58.02581167" lon="14.471015"><ele>115.0</ele><time>2016-06-18T05:06:17.310Z</time></trkpt><trkpt lat="58.025705" lon="14.47088667"><ele>115.0</ele><time>2016-06-18T05:06:18.288Z</time></trkpt><trkpt lat="58.025705" lon="14.47088667"><ele>115.0</ele><time>2016-06-18T05:06:19.311Z</time></trkpt><trkpt lat="58.02559333" lon="14.470755"><ele>115.0</ele><time>2016-06-18T05:06:20.288Z</time></trkpt><trkpt lat="58.02559333" lon="14.470755"><ele>115.0</ele><time>2016-06-18T05:06:21.298Z</time></trkpt><trkpt lat="58.02548167" lon="14.47063"><ele>116.0</ele><time>2016-06-18T05:06:22.309Z</time></trkpt><trkpt lat="58.02548167" lon="14.47063"><ele>116.0</ele><time>2016-06-18T05:06:23.291Z</time></trkpt><trkpt lat="58.025375" lon="14.470495"><ele>116.0</ele><time>2016-06-18T05:06:24.298Z</time></trkpt><trkpt lat="58.02532" lon="14.47042833"><ele>116.0</ele><time>2016-06-18T05:06:25.303Z</time></trkpt><trkpt lat="58.02532" lon="14.47042833"><ele>116.0</ele><time>2016-06-18T05:06:26.286Z</time></trkpt><trkpt lat="58.02521" lon="14.47029833"><ele>116.0</ele><time>2016-06-18T05:06:27.294Z</time></trkpt><trkpt lat="58.02521" lon="14.47029833"><ele>116.0</ele><time>2016-06-18T05:06:28.308Z</time></trkpt><trkpt lat="58.0251" lon="14.47017167"><ele>116.0</ele><time>2016-06-18T05:06:29.285Z</time></trkpt><trkpt lat="58.0251" lon="14.47017167"><ele>116.0</ele><time>2016-06-18T05:06:30.285Z</time></trkpt><trkpt lat="58.024995" lon="14.47005"><ele>117.0</ele><time>2016-06-18T05:06:31.293Z</time></trkpt><trkpt lat="58.02494333" lon="14.46998333"><ele>117.0</ele><time>2016-06-18T05:06:32.324Z</time></trkpt><trkpt lat="58.02494333" lon="14.46998333"><ele>117.0</ele><time>2016-06-18T05:06:33.294Z</time></trkpt><trkpt lat="58.02484333" lon="14.46986"><ele>117.0</ele><time>2016-06-18T05:06:34.318Z</time></trkpt><trkpt lat="58.02484333" lon="14.46986"><ele>117.0</ele><time>2016-06-18T05:06:35.312Z</time></trkpt><trkpt lat="58.02474" lon="14.46974"><ele>118.0</ele><time>2016-06-18T05:06:36.320Z</time></trkpt><trkpt lat="58.02468667" lon="14.46967833"><ele>118.0</ele><time>2016-06-18T05:06:37.318Z</time></trkpt><trkpt lat="58.02468667" lon="14.46967833"><ele>118.0</ele><time>2016-06-18T05:06:38.299Z</time></trkpt><trkpt lat="58.02457833" lon="14.46955"><ele>118.0</ele><time>2016-06-18T05:06:39.282Z</time></trkpt><trkpt lat="58.02452333" lon="14.46948833"><ele>118.0</ele><time>2016-06-18T05:06:40.298Z</time></trkpt><trkpt lat="58.02452333" lon="14.46948833"><ele>118.0</ele><time>2016-06-18T05:06:41.312Z</time></trkpt><trkpt lat="58.02442" lon="14.46935833"><ele>119.0</ele><time>2016-06-18T05:06:42.319Z</time></trkpt><trkpt lat="58.02442" lon="14.46935833"><ele>119.0</ele><time>2016-06-18T05:06:43.300Z</time></trkpt><trkpt lat="58.02431333" lon="14.46923"><ele>119.0</ele><time>2016-06-18T05:06:44.288Z</time></trkpt><trkpt lat="58.02431333" lon="14.46923"><ele>119.0</ele><time>2016-06-18T05:06:45.312Z</time></trkpt><trkpt lat="58.0242" lon="14.46909667"><ele>119.0</ele><time>2016-06-18T05:06:46.285Z</time></trkpt><trkpt lat="58.02414667" lon="14.46903167"><ele>119.0</ele><time>2016-06-18T05:06:47.318Z</time></trkpt><trkpt lat="58.02414667" lon="14.46903167"><ele>119.0</ele><time>2016-06-18T05:06:48.288Z</time></trkpt><trkpt lat="58.02404333" lon="14.46889833"><ele>118.0</ele><time>2016-06-18T05:06:49.295Z</time></trkpt><trkpt lat="58.02399167" lon="14.468835"><ele>119.0</ele><time>2016-06-18T05:06:50.289Z</time></trkpt><trkpt lat="58.02399167" lon="14.468835"><ele>119.0</ele><time>2016-06-18T05:06:51.298Z</time></trkpt><trkpt lat="58.02389333" lon="14.468715"><ele>119.0</ele><time>2016-06-18T05:06:52.306Z</time></trkpt><trkpt lat="58.02384333" lon="14.46865167"><ele>119.0</ele><time>2016-06-18T05:06:53.291Z</time></trkpt><trkpt lat="58.02379167" lon="14.468585"><ele>119.0</ele><time>2016-06-18T05:06:54.313Z</time></trkpt><trkpt lat="58.02379167" lon="14.468585"><ele>119.0</ele><time>2016-06-18T05:06:55.295Z</time></trkpt><trkpt lat="58.02368" lon="14.468465"><ele>119.0</ele><time>2016-06-18T05:06:56.318Z</time></trkpt><trkpt lat="58.02368" lon="14.468465"><ele>119.0</ele><time>2016-06-18T05:06:57.301Z</time></trkpt><trkpt lat="58.023565" lon="14.46832833"><ele>119.0</ele><time>2016-06-18T05:06:58.286Z</time></trkpt><trkpt lat="58.023565" lon="14.46832833"><ele>119.0</ele><time>2016-06-18T05:06:59.311Z</time></trkpt><trkpt lat="58.023455" lon="14.46820167"><ele>120.0</ele><time>2016-06-18T05:07:00.315Z</time></trkpt><trkpt lat="58.023455" lon="14.46820167"><ele>120.0</ele><time>2016-06-18T05:07:01.291Z</time></trkpt><trkpt lat="58.02333833" lon="14.46807667"><ele>120.0</ele><time>2016-06-18T05:07:02.297Z</time></trkpt><trkpt lat="58.02333833" lon="14.46807667"><ele>120.0</ele><time>2016-06-18T05:07:03.321Z</time></trkpt><trkpt lat="58.02322667" lon="14.46795333"><ele>121.0</ele><time>2016-06-18T05:07:04.283Z</time></trkpt><trkpt lat="58.02317333" lon="14.46789"><ele>121.0</ele><time>2016-06-18T05:07:05.311Z</time></trkpt><trkpt lat="58.02317333" lon="14.46789"><ele>121.0</ele><time>2016-06-18T05:07:06.296Z</time></trkpt><trkpt lat="58.02307" lon="14.46776167"><ele>121.0</ele><time>2016-06-18T05:07:07.318Z</time></trkpt><trkpt lat="58.02301833" lon="14.467695"><ele>120.0</ele><time>2016-06-18T05:07:08.316Z</time></trkpt><trkpt lat="58.02301833" lon="14.467695"><ele>120.0</ele><time>2016-06-18T05:07:09.299Z</time></trkpt><trkpt lat="58.02291167" lon="14.467565"><ele>120.0</ele><time>2016-06-18T05:07:10.319Z</time></trkpt><trkpt lat="58.02291167" lon="14.467565"><ele>120.0</ele><time>2016-06-18T05:07:11.282Z</time></trkpt><trkpt lat="58.02280667" lon="14.46743833"><ele>120.0</ele><time>2016-06-18T05:07:12.288Z</time></trkpt><trkpt lat="58.02275167" lon="14.46737167"><ele>119.0</ele><time>2016-06-18T05:07:13.314Z</time></trkpt><trkpt lat="58.022695" lon="14.467305"><ele>119.0</ele><time>2016-06-18T05:07:14.296Z</time></trkpt><trkpt lat="58.022695" lon="14.467305"><ele>119.0</ele><time>2016-06-18T05:07:15.286Z</time></trkpt><trkpt lat="58.02258667" lon="14.46717167"><ele>119.0</ele><time>2016-06-18T05:07:16.299Z</time></trkpt><trkpt lat="58.02253" lon="14.46710833"><ele>119.0</ele><time>2016-06-18T05:07:17.297Z</time></trkpt><trkpt lat="58.02247167" lon="14.46705"><ele>120.0</ele><time>2016-06-18T05:07:18.321Z</time></trkpt><trkpt lat="58.02247167" lon="14.46705"><ele>120.0</ele><time>2016-06-18T05:07:19.304Z</time></trkpt><trkpt lat="58.02235833" lon="14.46692"><ele>120.0</ele><time>2016-06-18T05:07:20.298Z</time></trkpt><trkpt lat="58.02235833" lon="14.46692"><ele>120.0</ele><time>2016-06-18T05:07:21.319Z</time></trkpt><trkpt lat="58.02224333" lon="14.46678333"><ele>119.0</ele><time>2016-06-18T05:07:22.285Z</time></trkpt><trkpt lat="58.02224333" lon="14.46678333"><ele>119.0</ele><time>2016-06-18T05:07:23.308Z</time></trkpt><trkpt lat="58.02212833" lon="14.46665"><ele>120.0</ele><time>2016-06-18T05:07:24.299Z</time></trkpt><trkpt lat="58.02212833" lon="14.46665"><ele>120.0</ele><time>2016-06-18T05:07:25.301Z</time></trkpt><trkpt lat="58.02201333" lon="14.46650667"><ele>119.0</ele><time>2016-06-18T05:07:26.308Z</time></trkpt><trkpt lat="58.02195667" lon="14.46643667"><ele>119.0</ele><time>2016-06-18T05:07:27.288Z</time></trkpt><trkpt lat="58.02195667" lon="14.46643667"><ele>119.0</ele><time>2016-06-18T05:07:28.299Z</time></trkpt><trkpt lat="58.02183" lon="14.46630167"><ele>120.0</ele><time>2016-06-18T05:07:29.309Z</time></trkpt><trkpt lat="58.02177667" lon="14.46623333"><ele>120.0</ele><time>2016-06-18T05:07:30.322Z</time></trkpt><trkpt lat="58.02177667" lon="14.46623333"><ele>120.0</ele><time>2016-06-18T05:07:31.308Z</time></trkpt><trkpt lat="58.02166333" lon="14.46609333"><ele>120.0</ele><time>2016-06-18T05:07:32.316Z</time></trkpt><trkpt lat="58.02166333" lon="14.46609333"><ele>120.0</ele><time>2016-06-18T05:07:33.299Z</time></trkpt><trkpt lat="58.021545" lon="14.46596"><ele>121.0</ele><time>2016-06-18T05:07:34.298Z</time></trkpt><trkpt lat="58.02148833" lon="14.46589"><ele>122.0</ele><time>2016-06-18T05:07:35.283Z</time></trkpt><trkpt lat="58.02148833" lon="14.46589"><ele>122.0</ele><time>2016-06-18T05:07:36.304Z</time></trkpt><trkpt lat="58.02137333" lon="14.46574167"><ele>122.0</ele><time>2016-06-18T05:07:37.298Z</time></trkpt><trkpt lat="58.02137333" lon="14.46574167"><ele>122.0</ele><time>2016-06-18T05:07:38.305Z</time></trkpt><trkpt lat="58.02125333" lon="14.46560167"><ele>122.0</ele><time>2016-06-18T05:07:39.320Z</time></trkpt><trkpt lat="58.02125333" lon="14.46560167"><ele>122.0</ele><time>2016-06-18T05:07:40.303Z</time></trkpt><trkpt lat="58.02113667" lon="14.465465"><ele>123.0</ele><time>2016-06-18T05:07:41.298Z</time></trkpt><trkpt lat="58.02113667" lon="14.465465"><ele>123.0</ele><time>2016-06-18T05:07:42.285Z</time></trkpt><trkpt lat="58.02102833" lon="14.46533167"><ele>123.0</ele><time>2016-06-18T05:07:43.297Z</time></trkpt><trkpt lat="58.02097833" lon="14.46526667"><ele>123.0</ele><time>2016-06-18T05:07:44.287Z</time></trkpt><trkpt lat="58.02097833" lon="14.46526667"><ele>123.0</ele><time>2016-06-18T05:07:45.309Z</time></trkpt><trkpt lat="58.020885" lon="14.465155"><ele>123.0</ele><time>2016-06-18T05:07:46.316Z</time></trkpt><trkpt lat="58.02084167" lon="14.46510167"><ele>123.0</ele><time>2016-06-18T05:07:47.318Z</time></trkpt><trkpt lat="58.02084167" lon="14.46510167"><ele>123.0</ele><time>2016-06-18T05:07:48.300Z</time></trkpt><trkpt lat="58.02075333" lon="14.46500833"><ele>124.0</ele><time>2016-06-18T05:07:49.311Z</time></trkpt><trkpt lat="58.02071167" lon="14.46495333"><ele>125.0</ele><time>2016-06-18T05:07:50.288Z</time></trkpt><trkpt lat="58.02071167" lon="14.46495333"><ele>125.0</ele><time>2016-06-18T05:07:51.291Z</time></trkpt><trkpt lat="58.02061833" lon="14.46485"><ele>125.0</ele><time>2016-06-18T05:07:52.298Z</time></trkpt><trkpt lat="58.02061833" lon="14.46485"><ele>125.0</ele><time>2016-06-18T05:07:53.312Z</time></trkpt><trkpt lat="58.02052" lon="14.464745"><ele>126.0</ele><time>2016-06-18T05:07:54.313Z</time></trkpt><trkpt lat="58.02052" lon="14.464745"><ele>126.0</ele><time>2016-06-18T05:07:55.295Z</time></trkpt><trkpt lat="58.02042333" lon="14.46464"><ele>126.0</ele><time>2016-06-18T05:07:56.302Z</time></trkpt><trkpt lat="58.02038167" lon="14.46458"><ele>126.0</ele><time>2016-06-18T05:07:57.288Z</time></trkpt><trkpt lat="58.02038167" lon="14.46458"><ele>126.0</ele><time>2016-06-18T05:07:58.296Z</time></trkpt><trkpt lat="58.02029" lon="14.464465"><ele>125.0</ele><time>2016-06-18T05:07:59.282Z</time></trkpt><trkpt lat="58.02023667" lon="14.46442167"><ele>126.0</ele><time>2016-06-18T05:08:00.288Z</time></trkpt><trkpt lat="58.02019167" lon="14.46436333"><ele>126.0</ele><time>2016-06-18T05:08:01.311Z</time></trkpt><trkpt lat="58.02019167" lon="14.46436333"><ele>126.0</ele><time>2016-06-18T05:08:02.293Z</time></trkpt><trkpt lat="58.02010167" lon="14.46425333"><ele>127.0</ele><time>2016-06-18T05:08:03.308Z</time></trkpt><trkpt lat="58.02010167" lon="14.46425333"><ele>127.0</ele><time>2016-06-18T05:08:04.306Z</time></trkpt><trkpt lat="58.02001333" lon="14.46412833"><ele>126.0</ele><time>2016-06-18T05:08:05.313Z</time></trkpt><trkpt lat="58.02001333" lon="14.46412833"><ele>126.0</ele><time>2016-06-18T05:08:06.294Z</time></trkpt><trkpt lat="58.01991833" lon="14.46400667"><ele>125.0</ele><time>2016-06-18T05:08:07.304Z</time></trkpt><trkpt lat="58.01991833" lon="14.46400667"><ele>125.0</ele><time>2016-06-18T05:08:08.287Z</time></trkpt><trkpt lat="58.01981" lon="14.46390167"><ele>125.0</ele><time>2016-06-18T05:08:09.306Z</time></trkpt><trkpt lat="58.01981" lon="14.46390167"><ele>125.0</ele><time>2016-06-18T05:08:10.301Z</time></trkpt><trkpt lat="58.019715" lon="14.46379333"><ele>125.0</ele><time>2016-06-18T05:08:11.292Z</time></trkpt><trkpt lat="58.01966667" lon="14.46373333"><ele>125.0</ele><time>2016-06-18T05:08:12.291Z</time></trkpt><trkpt lat="58.01966667" lon="14.46373333"><ele>125.0</ele><time>2016-06-18T05:08:13.314Z</time></trkpt><trkpt lat="58.01956833" lon="14.46362167"><ele>126.0</ele><time>2016-06-18T05:08:14.289Z</time></trkpt><trkpt lat="58.01956833" lon="14.46362167"><ele>126.0</ele><time>2016-06-18T05:08:15.313Z</time></trkpt><trkpt lat="58.01946667" lon="14.46351167"><ele>126.0</ele><time>2016-06-18T05:08:16.299Z</time></trkpt><trkpt lat="58.01946667" lon="14.46351167"><ele>126.0</ele><time>2016-06-18T05:08:17.288Z</time></trkpt><trkpt lat="58.01937167" lon="14.46340167"><ele>128.0</ele><time>2016-06-18T05:08:18.296Z</time></trkpt><trkpt lat="58.01937167" lon="14.46340167"><ele>128.0</ele><time>2016-06-18T05:08:19.321Z</time></trkpt><trkpt lat="58.01926833" lon="14.463295"><ele>128.0</ele><time>2016-06-18T05:08:20.288Z</time></trkpt><trkpt lat="58.01926833" lon="14.463295"><ele>128.0</ele><time>2016-06-18T05:08:21.289Z</time></trkpt><trkpt lat="58.019165" lon="14.463185"><ele>128.0</ele><time>2016-06-18T05:08:22.296Z</time></trkpt><trkpt lat="58.019165" lon="14.463185"><ele>128.0</ele><time>2016-06-18T05:08:23.307Z</time></trkpt><trkpt lat="58.01906" lon="14.46307"><ele>128.0</ele><time>2016-06-18T05:08:24.305Z</time></trkpt><trkpt lat="58.01906" lon="14.46307"><ele>128.0</ele><time>2016-06-18T05:08:25.289Z</time></trkpt><trkpt lat="58.018955" lon="14.462955"><ele>128.0</ele><time>2016-06-18T05:08:26.299Z</time></trkpt><trkpt lat="58.01889833" lon="14.4629"><ele>128.0</ele><time>2016-06-18T05:08:27.318Z</time></trkpt><trkpt lat="58.01889833" lon="14.4629"><ele>128.0</ele><time>2016-06-18T05:08:28.288Z</time></trkpt><trkpt lat="58.01877333" lon="14.46276833"><ele>128.0</ele><time>2016-06-18T05:08:29.294Z</time></trkpt><trkpt lat="58.01877333" lon="14.46276833"><ele>128.0</ele><time>2016-06-18T05:08:30.307Z</time></trkpt><trkpt lat="58.018645" lon="14.46263667"><ele>128.0</ele><time>2016-06-18T05:08:31.298Z</time></trkpt><trkpt lat="58.018645" lon="14.46263667"><ele>128.0</ele><time>2016-06-18T05:08:32.321Z</time></trkpt><trkpt lat="58.01851833" lon="14.46251833"><ele>127.0</ele><time>2016-06-18T05:08:33.294Z</time></trkpt><trkpt lat="58.01846" lon="14.462465"><ele>127.0</ele><time>2016-06-18T05:08:34.303Z</time></trkpt><trkpt lat="58.01840167" lon="14.46241667"><ele>128.0</ele><time>2016-06-18T05:08:35.304Z</time></trkpt><trkpt lat="58.01840167" lon="14.46241667"><ele>128.0</ele><time>2016-06-18T05:08:36.290Z</time></trkpt><trkpt lat="58.01828667" lon="14.462325"><ele>128.0</ele><time>2016-06-18T05:08:37.287Z</time></trkpt><trkpt lat="58.01828667" lon="14.462325"><ele>128.0</ele><time>2016-06-18T05:08:38.310Z</time></trkpt><trkpt lat="58.01817333" lon="14.46223167"><ele>129.0</ele><time>2016-06-18T05:08:39.317Z</time></trkpt><trkpt lat="58.01812" lon="14.46218667"><ele>129.0</ele><time>2016-06-18T05:08:40.316Z</time></trkpt><trkpt lat="58.01812" lon="14.46218667"><ele>129.0</ele><time>2016-06-18T05:08:41.292Z</time></trkpt><trkpt lat="58.01801667" lon="14.46209833"><ele>129.0</ele><time>2016-06-18T05:08:42.299Z</time></trkpt><trkpt lat="58.01801667" lon="14.46209833"><ele>129.0</ele><time>2016-06-18T05:08:43.282Z</time></trkpt><trkpt lat="58.01792167" lon="14.46201833"><ele>130.0</ele><time>2016-06-18T05:08:44.288Z</time></trkpt><trkpt lat="58.01792167" lon="14.46201833"><ele>130.0</ele><time>2016-06-18T05:08:45.299Z</time></trkpt><trkpt lat="58.01782333" lon="14.46194833"><ele>130.0</ele><time>2016-06-18T05:08:46.306Z</time></trkpt><trkpt lat="58.01777167" lon="14.46190833"><ele>130.0</ele><time>2016-06-18T05:08:47.318Z</time></trkpt><trkpt lat="58.01777167" lon="14.46190833"><ele>130.0</ele><time>2016-06-18T05:08:48.286Z</time></trkpt><trkpt lat="58.01765667" lon="14.461815"><ele>130.0</ele><time>2016-06-18T05:08:49.293Z</time></trkpt><trkpt lat="58.0176" lon="14.46176667"><ele>130.0</ele><time>2016-06-18T05:08:50.296Z</time></trkpt><trkpt lat="58.0176" lon="14.46176667"><ele>130.0</ele><time>2016-06-18T05:08:51.282Z</time></trkpt><trkpt lat="58.01748333" lon="14.46167333"><ele>130.0</ele><time>2016-06-18T05:08:52.288Z</time></trkpt><trkpt lat="58.01748333" lon="14.46167333"><ele>130.0</ele><time>2016-06-18T05:08:53.310Z</time></trkpt><trkpt lat="58.01736667" lon="14.46158333"><ele>130.0</ele><time>2016-06-18T05:08:54.287Z</time></trkpt><trkpt lat="58.01736667" lon="14.46158333"><ele>130.0</ele><time>2016-06-18T05:08:55.290Z</time></trkpt><trkpt lat="58.01725333" lon="14.461495"><ele>131.0</ele><time>2016-06-18T05:08:56.297Z</time></trkpt><trkpt lat="58.01725333" lon="14.461495"><ele>131.0</ele><time>2016-06-18T05:08:57.321Z</time></trkpt><trkpt lat="58.01714667" lon="14.461405"><ele>131.0</ele><time>2016-06-18T05:08:58.311Z</time></trkpt><trkpt lat="58.01714667" lon="14.461405"><ele>131.0</ele><time>2016-06-18T05:08:59.290Z</time></trkpt><trkpt lat="58.01703833" lon="14.46130167"><ele>131.0</ele><time>2016-06-18T05:09:00.310Z</time></trkpt><trkpt lat="58.01703833" lon="14.46130167"><ele>131.0</ele><time>2016-06-18T05:09:01.307Z</time></trkpt><trkpt lat="58.01692667" lon="14.46120333"><ele>131.0</ele><time>2016-06-18T05:09:02.314Z</time></trkpt><trkpt lat="58.01692667" lon="14.46120333"><ele>131.0</ele><time>2016-06-18T05:09:03.296Z</time></trkpt><trkpt lat="58.01682333" lon="14.46111667"><ele>131.0</ele><time>2016-06-18T05:09:04.298Z</time></trkpt><trkpt lat="58.01682333" lon="14.46111667"><ele>131.0</ele><time>2016-06-18T05:09:05.286Z</time></trkpt><trkpt lat="58.016715" lon="14.46103333"><ele>132.0</ele><time>2016-06-18T05:09:06.294Z</time></trkpt><trkpt lat="58.016715" lon="14.46103333"><ele>132.0</ele><time>2016-06-18T05:09:07.316Z</time></trkpt><trkpt lat="58.01660333" lon="14.460955"><ele>132.0</ele><time>2016-06-18T05:09:08.308Z</time></trkpt><trkpt lat="58.01660333" lon="14.460955"><ele>132.0</ele><time>2016-06-18T05:09:09.303Z</time></trkpt><trkpt lat="58.01649333" lon="14.46088"><ele>132.0</ele><time>2016-06-18T05:09:10.311Z</time></trkpt><trkpt lat="58.01649333" lon="14.46088"><ele>132.0</ele><time>2016-06-18T05:09:11.321Z</time></trkpt><trkpt lat="58.01638833" lon="14.46080333"><ele>133.0</ele><time>2016-06-18T05:09:12.295Z</time></trkpt><trkpt lat="58.01638833" lon="14.46080333"><ele>133.0</ele><time>2016-06-18T05:09:13.318Z</time></trkpt><trkpt lat="58.01627833" lon="14.460725"><ele>133.0</ele><time>2016-06-18T05:09:14.290Z</time></trkpt><trkpt lat="58.01627833" lon="14.460725"><ele>133.0</ele><time>2016-06-18T05:09:15.307Z</time></trkpt><trkpt lat="58.01616833" lon="14.46064333"><ele>133.0</ele><time>2016-06-18T05:09:16.283Z</time></trkpt><trkpt lat="58.01616833" lon="14.46064333"><ele>133.0</ele><time>2016-06-18T05:09:17.305Z</time></trkpt><trkpt lat="58.01606333" lon="14.46055833"><ele>134.0</ele><time>2016-06-18T05:09:18.312Z</time></trkpt><trkpt lat="58.01606333" lon="14.46055833"><ele>134.0</ele><time>2016-06-18T05:09:19.295Z</time></trkpt><trkpt lat="58.01596" lon="14.46048333"><ele>134.0</ele><time>2016-06-18T05:09:20.284Z</time></trkpt><trkpt lat="58.01591" lon="14.46044167"><ele>134.0</ele><time>2016-06-18T05:09:21.315Z</time></trkpt><trkpt lat="58.01591" lon="14.46044167"><ele>134.0</ele><time>2016-06-18T05:09:22.296Z</time></trkpt><trkpt lat="58.01580833" lon="14.46035667"><ele>134.0</ele><time>2016-06-18T05:09:23.318Z</time></trkpt><trkpt lat="58.01580833" lon="14.46035667"><ele>134.0</ele><time>2016-06-18T05:09:24.304Z</time></trkpt><trkpt lat="58.01569833" lon="14.46027"><ele>134.0</ele><time>2016-06-18T05:09:25.312Z</time></trkpt><trkpt lat="58.01569833" lon="14.46027"><ele>134.0</ele><time>2016-06-18T05:09:26.296Z</time></trkpt><trkpt lat="58.01558167" lon="14.46019167"><ele>134.0</ele><time>2016-06-18T05:09:27.284Z</time></trkpt><trkpt lat="58.01558167" lon="14.46019167"><ele>134.0</ele><time>2016-06-18T05:09:28.307Z</time></trkpt><trkpt lat="58.01546333" lon="14.46011167"><ele>134.0</ele><time>2016-06-18T05:09:29.319Z</time></trkpt><trkpt lat="58.01546333" lon="14.46011167"><ele>134.0</ele><time>2016-06-18T05:09:30.301Z</time></trkpt><trkpt lat="58.01535333" lon="14.460025"><ele>134.0</ele><time>2016-06-18T05:09:31.293Z</time></trkpt><trkpt lat="58.01529667" lon="14.45998"><ele>134.0</ele><time>2016-06-18T05:09:32.320Z</time></trkpt><trkpt lat="58.01524167" lon="14.459935"><ele>134.0</ele><time>2016-06-18T05:09:33.304Z</time></trkpt><trkpt lat="58.01524167" lon="14.459935"><ele>134.0</ele><time>2016-06-18T05:09:34.288Z</time></trkpt><trkpt lat="58.01513" lon="14.45984667"><ele>135.0</ele><time>2016-06-18T05:09:35.289Z</time></trkpt><trkpt lat="58.01513" lon="14.45984667"><ele>135.0</ele><time>2016-06-18T05:09:36.308Z</time></trkpt><trkpt lat="58.01502" lon="14.45976333"><ele>135.0</ele><time>2016-06-18T05:09:37.314Z</time></trkpt><trkpt lat="58.01502" lon="14.45976333"><ele>135.0</ele><time>2016-06-18T05:09:38.298Z</time></trkpt><trkpt lat="58.01490833" lon="14.45967667"><ele>135.0</ele><time>2016-06-18T05:09:39.310Z</time></trkpt><trkpt lat="58.01490833" lon="14.45967667"><ele>135.0</ele><time>2016-06-18T05:09:40.292Z</time></trkpt><trkpt lat="58.01479667" lon="14.459595"><ele>136.0</ele><time>2016-06-18T05:09:41.306Z</time></trkpt><trkpt lat="58.01479667" lon="14.459595"><ele>136.0</ele><time>2016-06-18T05:09:42.298Z</time></trkpt><trkpt lat="58.01469167" lon="14.45951167"><ele>137.0</ele><time>2016-06-18T05:09:43.304Z</time></trkpt><trkpt lat="58.01464" lon="14.45946667"><ele>137.0</ele><time>2016-06-18T05:09:44.298Z</time></trkpt><trkpt lat="58.01464" lon="14.45946667"><ele>137.0</ele><time>2016-06-18T05:09:45.294Z</time></trkpt><trkpt lat="58.01453167" lon="14.45937333"><ele>137.0</ele><time>2016-06-18T05:09:46.288Z</time></trkpt><trkpt lat="58.01453167" lon="14.45937333"><ele>137.0</ele><time>2016-06-18T05:09:47.307Z</time></trkpt><trkpt lat="58.01441833" lon="14.459285"><ele>138.0</ele><time>2016-06-18T05:09:48.314Z</time></trkpt><trkpt lat="58.01436" lon="14.45924"><ele>138.0</ele><time>2016-06-18T05:09:49.288Z</time></trkpt><trkpt lat="58.01430167" lon="14.459195"><ele>138.0</ele><time>2016-06-18T05:09:50.308Z</time></trkpt><trkpt lat="58.01430167" lon="14.459195"><ele>138.0</ele><time>2016-06-18T05:09:51.284Z</time></trkpt><trkpt lat="58.014185" lon="14.45910333"><ele>138.0</ele><time>2016-06-18T05:09:52.291Z</time></trkpt><trkpt lat="58.01413167" lon="14.45905667"><ele>139.0</ele><time>2016-06-18T05:09:53.311Z</time></trkpt><trkpt lat="58.01413167" lon="14.45905667"><ele>139.0</ele><time>2016-06-18T05:09:54.292Z</time></trkpt><trkpt lat="58.01401333" lon="14.45896333"><ele>139.0</ele><time>2016-06-18T05:09:55.298Z</time></trkpt><trkpt lat="58.013955" lon="14.45891667"><ele>140.0</ele><time>2016-06-18T05:09:56.310Z</time></trkpt><trkpt lat="58.013955" lon="14.45891667"><ele>140.0</ele><time>2016-06-18T05:09:57.299Z</time></trkpt><trkpt lat="58.01384167" lon="14.45882333"><ele>141.0</ele><time>2016-06-18T05:09:58.305Z</time></trkpt><trkpt lat="58.01384167" lon="14.45882333"><ele>141.0</ele><time>2016-06-18T05:09:59.289Z</time></trkpt><trkpt lat="58.01373167" lon="14.45872833"><ele>141.0</ele><time>2016-06-18T05:10:00.305Z</time></trkpt><trkpt lat="58.01373167" lon="14.45872833"><ele>141.0</ele><time>2016-06-18T05:10:01.306Z</time></trkpt><trkpt lat="58.01362167" lon="14.45864333"><ele>142.0</ele><time>2016-06-18T05:10:02.313Z</time></trkpt><trkpt lat="58.01362167" lon="14.45864333"><ele>142.0</ele><time>2016-06-18T05:10:03.296Z</time></trkpt><trkpt lat="58.01350167" lon="14.45856667"><ele>143.0</ele><time>2016-06-18T05:10:04.291Z</time></trkpt><trkpt lat="58.01350167" lon="14.45856667"><ele>143.0</ele><time>2016-06-18T05:10:05.299Z</time></trkpt><trkpt lat="58.01339" lon="14.45848"><ele>143.0</ele><time>2016-06-18T05:10:06.306Z</time></trkpt><trkpt lat="58.01333167" lon="14.45843833"><ele>143.0</ele><time>2016-06-18T05:10:07.291Z</time></trkpt><trkpt lat="58.01327333" lon="14.45839333"><ele>144.0</ele><time>2016-06-18T05:10:08.310Z</time></trkpt><trkpt lat="58.01327333" lon="14.45839333"><ele>144.0</ele><time>2016-06-18T05:10:09.294Z</time></trkpt><trkpt lat="58.01315833" lon="14.45830667"><ele>144.0</ele><time>2016-06-18T05:10:10.308Z</time></trkpt><trkpt lat="58.01315833" lon="14.45830667"><ele>144.0</ele><time>2016-06-18T05:10:11.317Z</time></trkpt><trkpt lat="58.01304667" lon="14.458225"><ele>145.0</ele><time>2016-06-18T05:10:12.288Z</time></trkpt><trkpt lat="58.01299167" lon="14.45818333"><ele>144.0</ele><time>2016-06-18T05:10:13.313Z</time></trkpt><trkpt lat="58.01294" lon="14.45813833"><ele>144.0</ele><time>2016-06-18T05:10:14.299Z</time></trkpt><trkpt lat="58.01294" lon="14.45813833"><ele>144.0</ele><time>2016-06-18T05:10:15.283Z</time></trkpt><trkpt lat="58.01282833" lon="14.45805333"><ele>145.0</ele><time>2016-06-18T05:10:16.291Z</time></trkpt><trkpt lat="58.01277167" lon="14.45801167"><ele>145.0</ele><time>2016-06-18T05:10:17.314Z</time></trkpt><trkpt lat="58.01277167" lon="14.45801167"><ele>145.0</ele><time>2016-06-18T05:10:18.295Z</time></trkpt><trkpt lat="58.01264667" lon="14.45791833"><ele>145.0</ele><time>2016-06-18T05:10:19.298Z</time></trkpt><trkpt lat="58.01258167" lon="14.45787167"><ele>145.0</ele><time>2016-06-18T05:10:20.317Z</time></trkpt><trkpt lat="58.01258167" lon="14.45787167"><ele>145.0</ele><time>2016-06-18T05:10:21.300Z</time></trkpt><trkpt lat="58.01245667" lon="14.457775"><ele>145.0</ele><time>2016-06-18T05:10:22.288Z</time></trkpt><trkpt lat="58.01239667" lon="14.45772667"><ele>145.0</ele><time>2016-06-18T05:10:23.314Z</time></trkpt><trkpt lat="58.01239667" lon="14.45772667"><ele>145.0</ele><time>2016-06-18T05:10:24.297Z</time></trkpt><trkpt lat="58.01227333" lon="14.457625"><ele>145.0</ele><time>2016-06-18T05:10:25.304Z</time></trkpt><trkpt lat="58.01221333" lon="14.457575"><ele>145.0</ele><time>2016-06-18T05:10:26.292Z</time></trkpt><trkpt lat="58.01221333" lon="14.457575"><ele>145.0</ele><time>2016-06-18T05:10:27.316Z</time></trkpt><trkpt lat="58.01208833" lon="14.45747833"><ele>145.0</ele><time>2016-06-18T05:10:28.285Z</time></trkpt><trkpt lat="58.01202833" lon="14.45743"><ele>145.0</ele><time>2016-06-18T05:10:29.282Z</time></trkpt><trkpt lat="58.01202833" lon="14.45743"><ele>145.0</ele><time>2016-06-18T05:10:30.317Z</time></trkpt><trkpt lat="58.01189833" lon="14.45732833"><ele>145.0</ele><time>2016-06-18T05:10:31.286Z</time></trkpt><trkpt lat="58.01189833" lon="14.45732833"><ele>145.0</ele><time>2016-06-18T05:10:32.309Z</time></trkpt><trkpt lat="58.01176333" lon="14.457215"><ele>145.0</ele><time>2016-06-18T05:10:33.316Z</time></trkpt><trkpt lat="58.01176333" lon="14.457215"><ele>145.0</ele><time>2016-06-18T05:10:34.297Z</time></trkpt><trkpt lat="58.01161833" lon="14.457095"><ele>144.0</ele><time>2016-06-18T05:10:35.303Z</time></trkpt><trkpt lat="58.01161833" lon="14.457095"><ele>144.0</ele><time>2016-06-18T05:10:36.295Z</time></trkpt><trkpt lat="58.01148167" lon="14.45697167"><ele>144.0</ele><time>2016-06-18T05:10:37.314Z</time></trkpt><trkpt lat="58.01141333" lon="14.45690833"><ele>144.0</ele><time>2016-06-18T05:10:38.316Z</time></trkpt><trkpt lat="58.01141333" lon="14.45690833"><ele>144.0</ele><time>2016-06-18T05:10:39.288Z</time></trkpt><trkpt lat="58.01127" lon="14.456785"><ele>143.0</ele><time>2016-06-18T05:10:40.318Z</time></trkpt><trkpt lat="58.01127" lon="14.456785"><ele>143.0</ele><time>2016-06-18T05:10:41.301Z</time></trkpt><trkpt lat="58.01112833" lon="14.45666167"><ele>142.0</ele><time>2016-06-18T05:10:42.308Z</time></trkpt><trkpt lat="58.01105333" lon="14.45660333"><ele>142.0</ele><time>2016-06-18T05:10:43.316Z</time></trkpt><trkpt lat="58.01105333" lon="14.45660333"><ele>142.0</ele><time>2016-06-18T05:10:44.298Z</time></trkpt><trkpt lat="58.01090667" lon="14.45650167"><ele>142.0</ele><time>2016-06-18T05:10:45.288Z</time></trkpt><trkpt lat="58.01090667" lon="14.45650167"><ele>142.0</ele><time>2016-06-18T05:10:46.290Z</time></trkpt><trkpt lat="58.010765" lon="14.456415"><ele>141.0</ele><time>2016-06-18T05:10:47.298Z</time></trkpt><trkpt lat="58.01069333" lon="14.45636833"><ele>141.0</ele><time>2016-06-18T05:10:48.296Z</time></trkpt><trkpt lat="58.01069333" lon="14.45636833"><ele>141.0</ele><time>2016-06-18T05:10:49.285Z</time></trkpt><trkpt lat="58.01054833" lon="14.45627"><ele>141.0</ele><time>2016-06-18T05:10:50.292Z</time></trkpt><trkpt lat="58.01054833" lon="14.45627"><ele>141.0</ele><time>2016-06-18T05:10:51.291Z</time></trkpt><trkpt lat="58.01040167" lon="14.45616333"><ele>141.0</ele><time>2016-06-18T05:10:52.298Z</time></trkpt><trkpt lat="58.01040167" lon="14.45616333"><ele>141.0</ele><time>2016-06-18T05:10:53.307Z</time></trkpt><trkpt lat="58.010255" lon="14.45606167"><ele>141.0</ele><time>2016-06-18T05:10:54.314Z</time></trkpt><trkpt lat="58.010255" lon="14.45606167"><ele>141.0</ele><time>2016-06-18T05:10:55.295Z</time></trkpt><trkpt lat="58.01010667" lon="14.45595667"><ele>141.0</ele><time>2016-06-18T05:10:56.285Z</time></trkpt><trkpt lat="58.01010667" lon="14.45595667"><ele>141.0</ele><time>2016-06-18T05:10:57.306Z</time></trkpt><trkpt lat="58.00995333" lon="14.45584667"><ele>141.0</ele><time>2016-06-18T05:10:58.312Z</time></trkpt><trkpt lat="58.00987833" lon="14.455795"><ele>141.0</ele><time>2016-06-18T05:10:59.308Z</time></trkpt><trkpt lat="58.00987833" lon="14.455795"><ele>141.0</ele><time>2016-06-18T05:11:00.291Z</time></trkpt><trkpt lat="58.00973333" lon="14.45569667"><ele>141.0</ele><time>2016-06-18T05:11:01.298Z</time></trkpt><trkpt lat="58.00966333" lon="14.45564667"><ele>142.0</ele><time>2016-06-18T05:11:02.288Z</time></trkpt><trkpt lat="58.00966333" lon="14.45564667"><ele>142.0</ele><time>2016-06-18T05:11:03.295Z</time></trkpt><trkpt lat="58.00952167" lon="14.45554167"><ele>142.0</ele><time>2016-06-18T05:11:04.302Z</time></trkpt><trkpt lat="58.00952167" lon="14.45554167"><ele>142.0</ele><time>2016-06-18T05:11:05.287Z</time></trkpt><trkpt lat="58.00937167" lon="14.45543333"><ele>142.0</ele><time>2016-06-18T05:11:06.288Z</time></trkpt><trkpt lat="58.00937167" lon="14.45543333"><ele>142.0</ele><time>2016-06-18T05:11:07.286Z</time></trkpt><trkpt lat="58.00922167" lon="14.45532667"><ele>142.0</ele><time>2016-06-18T05:11:08.318Z</time></trkpt><trkpt lat="58.00922167" lon="14.45532667"><ele>142.0</ele><time>2016-06-18T05:11:09.309Z</time></trkpt><trkpt lat="58.00907667" lon="14.45521667"><ele>142.0</ele><time>2016-06-18T05:11:10.288Z</time></trkpt><trkpt lat="58.00907667" lon="14.45521667"><ele>142.0</ele><time>2016-06-18T05:11:11.284Z</time></trkpt><trkpt lat="58.00892833" lon="14.45511667"><ele>142.0</ele><time>2016-06-18T05:11:12.298Z</time></trkpt><trkpt lat="58.008855" lon="14.45506667"><ele>142.0</ele><time>2016-06-18T05:11:13.284Z</time></trkpt><trkpt lat="58.008855" lon="14.45506667"><ele>142.0</ele><time>2016-06-18T05:11:14.298Z</time></trkpt><trkpt lat="58.00870667" lon="14.454965"><ele>141.0</ele><time>2016-06-18T05:11:15.305Z</time></trkpt><trkpt lat="58.00863833" lon="14.45491333"><ele>142.0</ele><time>2016-06-18T05:11:16.318Z</time></trkpt><trkpt lat="58.00863833" lon="14.45491333"><ele>142.0</ele><time>2016-06-18T05:11:17.300Z</time></trkpt><trkpt lat="58.008495" lon="14.45481"><ele>141.0</ele><time>2016-06-18T05:11:18.307Z</time></trkpt><trkpt lat="58.00842167" lon="14.45475833"><ele>141.0</ele><time>2016-06-18T05:11:19.292Z</time></trkpt><trkpt lat="58.00835167" lon="14.45470833"><ele>142.0</ele><time>2016-06-18T05:11:20.288Z</time></trkpt><trkpt lat="58.00835167" lon="14.45470833"><ele>142.0</ele><time>2016-06-18T05:11:21.321Z</time></trkpt><trkpt lat="58.00821667" lon="14.45461167"><ele>143.0</ele><time>2016-06-18T05:11:22.292Z</time></trkpt><trkpt lat="58.00821667" lon="14.45461167"><ele>143.0</ele><time>2016-06-18T05:11:23.315Z</time></trkpt><trkpt lat="58.00808333" lon="14.45452"><ele>144.0</ele><time>2016-06-18T05:11:24.292Z</time></trkpt><trkpt lat="58.00808333" lon="14.45452"><ele>144.0</ele><time>2016-06-18T05:11:25.315Z</time></trkpt><trkpt lat="58.00795333" lon="14.454425"><ele>144.0</ele><time>2016-06-18T05:11:26.291Z</time></trkpt><trkpt lat="58.00789167" lon="14.45438"><ele>145.0</ele><time>2016-06-18T05:11:27.285Z</time></trkpt><trkpt lat="58.00789167" lon="14.45438"><ele>145.0</ele><time>2016-06-18T05:11:28.307Z</time></trkpt><trkpt lat="58.00777667" lon="14.45429667"><ele>145.0</ele><time>2016-06-18T05:11:29.315Z</time></trkpt><trkpt lat="58.00771667" lon="14.45425833"><ele>145.0</ele><time>2016-06-18T05:11:30.286Z</time></trkpt><trkpt lat="58.00771667" lon="14.45425833"><ele>145.0</ele><time>2016-06-18T05:11:31.309Z</time></trkpt><trkpt lat="58.007595" lon="14.45417333"><ele>146.0</ele><time>2016-06-18T05:11:32.283Z</time></trkpt><trkpt lat="58.007595" lon="14.45417333"><ele>146.0</ele><time>2016-06-18T05:11:33.304Z</time></trkpt><trkpt lat="58.007465" lon="14.45408333"><ele>146.0</ele><time>2016-06-18T05:11:34.285Z</time></trkpt><trkpt lat="58.007465" lon="14.45408333"><ele>146.0</ele><time>2016-06-18T05:11:35.307Z</time></trkpt><trkpt lat="58.00734167" lon="14.45398833"><ele>146.0</ele><time>2016-06-18T05:11:36.314Z</time></trkpt><trkpt lat="58.00728333" lon="14.45394167"><ele>147.0</ele><time>2016-06-18T05:11:37.282Z</time></trkpt><trkpt lat="58.00728333" lon="14.45394167"><ele>147.0</ele><time>2016-06-18T05:11:38.305Z</time></trkpt><trkpt lat="58.007165" lon="14.45383333"><ele>147.0</ele><time>2016-06-18T05:11:39.315Z</time></trkpt><trkpt lat="58.007105" lon="14.45377833"><ele>147.0</ele><time>2016-06-18T05:11:40.284Z</time></trkpt><trkpt lat="58.007105" lon="14.45377833"><ele>147.0</ele><time>2016-06-18T05:11:41.303Z</time></trkpt><trkpt lat="58.00697667" lon="14.453665"><ele>148.0</ele><time>2016-06-18T05:11:42.310Z</time></trkpt><trkpt lat="58.00697667" lon="14.453665"><ele>148.0</ele><time>2016-06-18T05:11:43.298Z</time></trkpt><trkpt lat="58.00684833" lon="14.453545"><ele>148.0</ele><time>2016-06-18T05:11:44.288Z</time></trkpt><trkpt lat="58.00684833" lon="14.453545"><ele>148.0</ele><time>2016-06-18T05:11:45.289Z</time></trkpt><trkpt lat="58.00672" lon="14.45342167"><ele>148.0</ele><time>2016-06-18T05:11:46.296Z</time></trkpt><trkpt lat="58.006655" lon="14.45336667"><ele>148.0</ele><time>2016-06-18T05:11:47.324Z</time></trkpt><trkpt lat="58.006655" lon="14.45336667"><ele>148.0</ele><time>2016-06-18T05:11:48.313Z</time></trkpt><trkpt lat="58.00652333" lon="14.45325333"><ele>148.0</ele><time>2016-06-18T05:11:49.283Z</time></trkpt><trkpt lat="58.00652333" lon="14.45325333"><ele>148.0</ele><time>2016-06-18T05:11:50.291Z</time></trkpt><trkpt lat="58.00639333" lon="14.45314167"><ele>148.0</ele><time>2016-06-18T05:11:51.283Z</time></trkpt><trkpt lat="58.00639333" lon="14.45314167"><ele>148.0</ele><time>2016-06-18T05:11:52.310Z</time></trkpt><trkpt lat="58.00626" lon="14.453035"><ele>149.0</ele><time>2016-06-18T05:11:53.312Z</time></trkpt><trkpt lat="58.00626" lon="14.453035"><ele>149.0</ele><time>2016-06-18T05:11:54.294Z</time></trkpt><trkpt lat="58.00612333" lon="14.45294"><ele>149.0</ele><time>2016-06-18T05:11:55.301Z</time></trkpt><trkpt lat="58.00605667" lon="14.45289833"><ele>148.0</ele><time>2016-06-18T05:11:56.304Z</time></trkpt><trkpt lat="58.00599" lon="14.45286"><ele>148.0</ele><time>2016-06-18T05:11:57.288Z</time></trkpt><trkpt lat="58.00599" lon="14.45286"><ele>148.0</ele><time>2016-06-18T05:11:58.311Z</time></trkpt><trkpt lat="58.00586333" lon="14.45278833"><ele>149.0</ele><time>2016-06-18T05:11:59.291Z</time></trkpt><trkpt lat="58.00586333" lon="14.45278833"><ele>149.0</ele><time>2016-06-18T05:12:00.305Z</time></trkpt><trkpt lat="58.00573833" lon="14.452725"><ele>149.0</ele><time>2016-06-18T05:12:01.320Z</time></trkpt><trkpt lat="58.00573833" lon="14.452725"><ele>149.0</ele><time>2016-06-18T05:12:02.302Z</time></trkpt><trkpt lat="58.00561167" lon="14.45267"><ele>149.0</ele><time>2016-06-18T05:12:03.318Z</time></trkpt><trkpt lat="58.00561167" lon="14.45267"><ele>149.0</ele><time>2016-06-18T05:12:04.300Z</time></trkpt><trkpt lat="58.00548" lon="14.45262333"><ele>149.0</ele><time>2016-06-18T05:12:05.306Z</time></trkpt><trkpt lat="58.00548" lon="14.45262333"><ele>149.0</ele><time>2016-06-18T05:12:06.294Z</time></trkpt><trkpt lat="58.005345" lon="14.45258333"><ele>150.0</ele><time>2016-06-18T05:12:07.296Z</time></trkpt><trkpt lat="58.005345" lon="14.45258333"><ele>150.0</ele><time>2016-06-18T05:12:08.318Z</time></trkpt><trkpt lat="58.00521667" lon="14.45255333"><ele>150.0</ele><time>2016-06-18T05:12:09.286Z</time></trkpt><trkpt lat="58.00515667" lon="14.45254"><ele>150.0</ele><time>2016-06-18T05:12:10.283Z</time></trkpt><trkpt lat="58.00515667" lon="14.45254"><ele>150.0</ele><time>2016-06-18T05:12:11.316Z</time></trkpt><trkpt lat="58.00504167" lon="14.45251"><ele>151.0</ele><time>2016-06-18T05:12:12.298Z</time></trkpt><trkpt lat="58.00504167" lon="14.45251"><ele>151.0</ele><time>2016-06-18T05:12:13.288Z</time></trkpt><trkpt lat="58.004935" lon="14.45248"><ele>151.0</ele><time>2016-06-18T05:12:14.296Z</time></trkpt><trkpt lat="58.004935" lon="14.45248"><ele>151.0</ele><time>2016-06-18T05:12:15.318Z</time></trkpt><trkpt lat="58.00483167" lon="14.452445"><ele>152.0</ele><time>2016-06-18T05:12:16.300Z</time></trkpt><trkpt lat="58.00478333" lon="14.45243"><ele>152.0</ele><time>2016-06-18T05:12:17.313Z</time></trkpt><trkpt lat="58.004735" lon="14.452415"><ele>152.0</ele><time>2016-06-18T05:12:18.299Z</time></trkpt><trkpt lat="58.004735" lon="14.452415"><ele>152.0</ele><time>2016-06-18T05:12:19.285Z</time></trkpt><trkpt lat="58.00464167" lon="14.45238167"><ele>153.0</ele><time>2016-06-18T05:12:20.293Z</time></trkpt><trkpt lat="58.004595" lon="14.452365"><ele>153.0</ele><time>2016-06-18T05:12:21.292Z</time></trkpt><trkpt lat="58.004595" lon="14.452365"><ele>153.0</ele><time>2016-06-18T05:12:22.302Z</time></trkpt><trkpt lat="58.00449333" lon="14.45233"><ele>154.0</ele><time>2016-06-18T05:12:23.310Z</time></trkpt><trkpt lat="58.00449333" lon="14.45233"><ele>154.0</ele><time>2016-06-18T05:12:24.282Z</time></trkpt><trkpt lat="58.004395" lon="14.4523"><ele>155.0</ele><time>2016-06-18T05:12:25.315Z</time></trkpt><trkpt lat="58.004395" lon="14.4523"><ele>155.0</ele><time>2016-06-18T05:12:26.297Z</time></trkpt><trkpt lat="58.00429167" lon="14.452275"><ele>155.0</ele><time>2016-06-18T05:12:27.304Z</time></trkpt><trkpt lat="58.00429167" lon="14.452275"><ele>155.0</ele><time>2016-06-18T05:12:28.286Z</time></trkpt><trkpt lat="58.004195" lon="14.45223833"><ele>155.0</ele><time>2016-06-18T05:12:29.285Z</time></trkpt><trkpt lat="58.004195" lon="14.45223833"><ele>155.0</ele><time>2016-06-18T05:12:30.286Z</time></trkpt><trkpt lat="58.004105" lon="14.452205"><ele>156.0</ele><time>2016-06-18T05:12:31.293Z</time></trkpt><trkpt lat="58.00406" lon="14.45219167"><ele>156.0</ele><time>2016-06-18T05:12:32.298Z</time></trkpt><trkpt lat="58.00406" lon="14.45219167"><ele>156.0</ele><time>2016-06-18T05:12:33.321Z</time></trkpt><trkpt lat="58.00397" lon="14.45216833"><ele>157.0</ele><time>2016-06-18T05:12:34.289Z</time></trkpt><trkpt lat="58.00397" lon="14.45216833"><ele>157.0</ele><time>2016-06-18T05:12:35.319Z</time></trkpt><trkpt lat="58.00388333" lon="14.45214833"><ele>157.0</ele><time>2016-06-18T05:12:36.318Z</time></trkpt><trkpt lat="58.00388333" lon="14.45214833"><ele>157.0</ele><time>2016-06-18T05:12:37.301Z</time></trkpt><trkpt lat="58.00379333" lon="14.45213"><ele>158.0</ele><time>2016-06-18T05:12:38.309Z</time></trkpt><trkpt lat="58.00379333" lon="14.45213"><ele>158.0</ele><time>2016-06-18T05:12:39.292Z</time></trkpt><trkpt lat="58.00370333" lon="14.452125"><ele>159.0</ele><time>2016-06-18T05:12:40.282Z</time></trkpt><trkpt lat="58.00370333" lon="14.452125"><ele>159.0</ele><time>2016-06-18T05:12:41.303Z</time></trkpt><trkpt lat="58.00361167" lon="14.452115"><ele>159.0</ele><time>2016-06-18T05:12:42.311Z</time></trkpt><trkpt lat="58.00356833" lon="14.45210833"><ele>160.0</ele><time>2016-06-18T05:12:43.308Z</time></trkpt><trkpt lat="58.003525" lon="14.45210167"><ele>160.0</ele><time>2016-06-18T05:12:44.294Z</time></trkpt><trkpt lat="58.003525" lon="14.45210167"><ele>160.0</ele><time>2016-06-18T05:12:45.316Z</time></trkpt><trkpt lat="58.00343667" lon="14.45209"><ele>160.0</ele><time>2016-06-18T05:12:46.304Z</time></trkpt><trkpt lat="58.00343667" lon="14.45209"><ele>160.0</ele><time>2016-06-18T05:12:47.286Z</time></trkpt><trkpt lat="58.00334333" lon="14.45207667"><ele>160.0</ele><time>2016-06-18T05:12:48.296Z</time></trkpt><trkpt lat="58.003295" lon="14.452075"><ele>161.0</ele><time>2016-06-18T05:12:49.304Z</time></trkpt><trkpt lat="58.003295" lon="14.452075"><ele>161.0</ele><time>2016-06-18T05:12:50.300Z</time></trkpt><trkpt lat="58.003195" lon="14.45209"><ele>161.0</ele><time>2016-06-18T05:12:51.307Z</time></trkpt><trkpt lat="58.003195" lon="14.45209"><ele>161.0</ele><time>2016-06-18T05:12:52.290Z</time></trkpt><trkpt lat="58.003095" lon="14.45209333"><ele>161.0</ele><time>2016-06-18T05:12:53.307Z</time></trkpt><trkpt lat="58.003095" lon="14.45209333"><ele>161.0</ele><time>2016-06-18T05:12:54.291Z</time></trkpt><trkpt lat="58.00299333" lon="14.45204833"><ele>162.0</ele><time>2016-06-18T05:12:55.299Z</time></trkpt><trkpt lat="58.00294333" lon="14.45200833"><ele>162.0</ele><time>2016-06-18T05:12:56.318Z</time></trkpt><trkpt lat="58.00294333" lon="14.45200833"><ele>162.0</ele><time>2016-06-18T05:12:57.299Z</time></trkpt><trkpt lat="58.00285" lon="14.45191167"><ele>163.0</ele><time>2016-06-18T05:12:58.305Z</time></trkpt><trkpt lat="58.00280333" lon="14.451855"><ele>163.0</ele><time>2016-06-18T05:12:59.293Z</time></trkpt><trkpt lat="58.00280333" lon="14.451855"><ele>163.0</ele><time>2016-06-18T05:13:00.290Z</time></trkpt><trkpt lat="58.00270333" lon="14.45172167"><ele>163.0</ele><time>2016-06-18T05:13:01.297Z</time></trkpt><trkpt lat="58.00265333" lon="14.45165"><ele>164.0</ele><time>2016-06-18T05:13:02.289Z</time></trkpt><trkpt lat="58.00265333" lon="14.45165"><ele>164.0</ele><time>2016-06-18T05:13:03.313Z</time></trkpt><trkpt lat="58.00255" lon="14.451485"><ele>163.0</ele><time>2016-06-18T05:13:04.320Z</time></trkpt><trkpt lat="58.00249167" lon="14.45139"><ele>163.0</ele><time>2016-06-18T05:13:05.286Z</time></trkpt><trkpt lat="58.00249167" lon="14.45139"><ele>163.0</ele><time>2016-06-18T05:13:06.306Z</time></trkpt><trkpt lat="58.00236667" lon="14.45118167"><ele>162.0</ele><time>2016-06-18T05:13:07.313Z</time></trkpt><trkpt lat="58.00229833" lon="14.45107333"><ele>162.0</ele><time>2016-06-18T05:13:08.307Z</time></trkpt><trkpt lat="58.00223" lon="14.45096"><ele>162.0</ele><time>2016-06-18T05:13:09.303Z</time></trkpt><trkpt lat="58.00223" lon="14.45096"><ele>162.0</ele><time>2016-06-18T05:13:10.291Z</time></trkpt><trkpt lat="58.00209167" lon="14.45072"><ele>162.0</ele><time>2016-06-18T05:13:11.282Z</time></trkpt><trkpt lat="58.00209167" lon="14.45072"><ele>162.0</ele><time>2016-06-18T05:13:12.302Z</time></trkpt><trkpt lat="58.00195333" lon="14.45047833"><ele>162.0</ele><time>2016-06-18T05:13:13.320Z</time></trkpt><trkpt lat="58.00195333" lon="14.45047833"><ele>162.0</ele><time>2016-06-18T05:13:14.301Z</time></trkpt><trkpt lat="58.00182333" lon="14.45025"><ele>162.0</ele><time>2016-06-18T05:13:15.309Z</time></trkpt><trkpt lat="58.00182333" lon="14.45025"><ele>162.0</ele><time>2016-06-18T05:13:16.297Z</time></trkpt><trkpt lat="58.0017" lon="14.45003333"><ele>162.0</ele><time>2016-06-18T05:13:17.319Z</time></trkpt><trkpt lat="58.0017" lon="14.45003333"><ele>162.0</ele><time>2016-06-18T05:13:18.301Z</time></trkpt><trkpt lat="58.00158" lon="14.44983"><ele>163.0</ele><time>2016-06-18T05:13:19.309Z</time></trkpt><trkpt lat="58.00152" lon="14.44972667"><ele>163.0</ele><time>2016-06-18T05:13:20.288Z</time></trkpt><trkpt lat="58.00152" lon="14.44972667"><ele>163.0</ele><time>2016-06-18T05:13:21.308Z</time></trkpt><trkpt lat="58.00139833" lon="14.44951833"><ele>164.0</ele><time>2016-06-18T05:13:22.316Z</time></trkpt><trkpt lat="58.00133833" lon="14.44941833"><ele>164.0</ele><time>2016-06-18T05:13:23.319Z</time></trkpt><trkpt lat="58.00133833" lon="14.44941833"><ele>164.0</ele><time>2016-06-18T05:13:24.302Z</time></trkpt><trkpt lat="58.00122167" lon="14.44921"><ele>164.0</ele><time>2016-06-18T05:13:25.315Z</time></trkpt><trkpt lat="58.001165" lon="14.44911"><ele>165.0</ele><time>2016-06-18T05:13:26.297Z</time></trkpt><trkpt lat="58.001165" lon="14.44911"><ele>165.0</ele><time>2016-06-18T05:13:27.290Z</time></trkpt><trkpt lat="58.00104833" lon="14.44891"><ele>165.0</ele><time>2016-06-18T05:13:28.297Z</time></trkpt><trkpt lat="58.00099333" lon="14.44880833"><ele>165.0</ele><time>2016-06-18T05:13:29.324Z</time></trkpt><trkpt lat="58.00099333" lon="14.44880833"><ele>165.0</ele><time>2016-06-18T05:13:30.292Z</time></trkpt><trkpt lat="58.00088" lon="14.44860667"><ele>166.0</ele><time>2016-06-18T05:13:31.299Z</time></trkpt><trkpt lat="58.00082167" lon="14.44850333"><ele>166.0</ele><time>2016-06-18T05:13:32.294Z</time></trkpt><trkpt lat="58.00082167" lon="14.44850333"><ele>166.0</ele><time>2016-06-18T05:13:33.289Z</time></trkpt><trkpt lat="58.00070333" lon="14.44829667"><ele>166.0</ele><time>2016-06-18T05:13:34.296Z</time></trkpt><trkpt lat="58.00070333" lon="14.44829667"><ele>166.0</ele><time>2016-06-18T05:13:35.291Z</time></trkpt><trkpt lat="58.00057833" lon="14.44808833"><ele>167.0</ele><time>2016-06-18T05:13:36.296Z</time></trkpt><trkpt lat="58.00057833" lon="14.44808833"><ele>167.0</ele><time>2016-06-18T05:13:37.319Z</time></trkpt><trkpt lat="58.00045" lon="14.44788833"><ele>167.0</ele><time>2016-06-18T05:13:38.293Z</time></trkpt><trkpt lat="58.00045" lon="14.44788833"><ele>167.0</ele><time>2016-06-18T05:13:39.316Z</time></trkpt><trkpt lat="58.00032667" lon="14.447685"><ele>168.0</ele><time>2016-06-18T05:13:40.284Z</time></trkpt><trkpt lat="58.00032667" lon="14.447685"><ele>168.0</ele><time>2016-06-18T05:13:41.312Z</time></trkpt><trkpt lat="58.00021" lon="14.44749"><ele>168.0</ele><time>2016-06-18T05:13:42.282Z</time></trkpt><trkpt lat="58.00021" lon="14.44749"><ele>168.0</ele><time>2016-06-18T05:13:43.302Z</time></trkpt><trkpt lat="58.0001" lon="14.44731"><ele>169.0</ele><time>2016-06-18T05:13:44.297Z</time></trkpt><trkpt lat="58.0001" lon="14.44731"><ele>169.0</ele><time>2016-06-18T05:13:45.294Z</time></trkpt><trkpt lat="57.99999333" lon="14.44713"><ele>170.0</ele><time>2016-06-18T05:13:46.301Z</time></trkpt><trkpt lat="57.99999333" lon="14.44713"><ele>170.0</ele><time>2016-06-18T05:13:47.287Z</time></trkpt><trkpt lat="57.999885" lon="14.44694833"><ele>170.0</ele><time>2016-06-18T05:13:48.284Z</time></trkpt><trkpt lat="57.999885" lon="14.44694833"><ele>170.0</ele><time>2016-06-18T05:13:49.309Z</time></trkpt><trkpt lat="57.99978" lon="14.446775"><ele>170.0</ele><time>2016-06-18T05:13:50.316Z</time></trkpt><trkpt lat="57.99978" lon="14.446775"><ele>170.0</ele><time>2016-06-18T05:13:51.298Z</time></trkpt><trkpt lat="57.99966833" lon="14.44659167"><ele>169.0</ele><time>2016-06-18T05:13:52.293Z</time></trkpt><trkpt lat="57.99966833" lon="14.44659167"><ele>169.0</ele><time>2016-06-18T05:13:53.319Z</time></trkpt><trkpt lat="57.99955" lon="14.44639167"><ele>168.0</ele><time>2016-06-18T05:13:54.287Z</time></trkpt><trkpt lat="57.99948667" lon="14.44628333"><ele>168.0</ele><time>2016-06-18T05:13:55.311Z</time></trkpt><trkpt lat="57.99948667" lon="14.44628333"><ele>168.0</ele><time>2016-06-18T05:13:56.293Z</time></trkpt><trkpt lat="57.99935" lon="14.446045"><ele>167.0</ele><time>2016-06-18T05:13:57.301Z</time></trkpt><trkpt lat="57.999285" lon="14.44592833"><ele>167.0</ele><time>2016-06-18T05:13:58.290Z</time></trkpt><trkpt lat="57.999285" lon="14.44592833"><ele>167.0</ele><time>2016-06-18T05:13:59.317Z</time></trkpt><trkpt lat="57.999145" lon="14.44570667"><ele>167.0</ele><time>2016-06-18T05:14:00.292Z</time></trkpt><trkpt lat="57.999075" lon="14.445595"><ele>167.0</ele><time>2016-06-18T05:14:01.285Z</time></trkpt><trkpt lat="57.99900667" lon="14.44548333"><ele>167.0</ele><time>2016-06-18T05:14:02.313Z</time></trkpt><trkpt lat="57.99900667" lon="14.44548333"><ele>167.0</ele><time>2016-06-18T05:14:03.294Z</time></trkpt><trkpt lat="57.99888167" lon="14.44527667"><ele>167.0</ele><time>2016-06-18T05:14:04.311Z</time></trkpt><trkpt lat="57.99882167" lon="14.44518167"><ele>167.0</ele><time>2016-06-18T05:14:05.291Z</time></trkpt><trkpt lat="57.99882167" lon="14.44518167"><ele>167.0</ele><time>2016-06-18T05:14:06.311Z</time></trkpt><trkpt lat="57.99871667" lon="14.44500667"><ele>168.0</ele><time>2016-06-18T05:14:07.299Z</time></trkpt><trkpt lat="57.99866667" lon="14.44492333"><ele>168.0</ele><time>2016-06-18T05:14:08.308Z</time></trkpt><trkpt lat="57.99866667" lon="14.44492333"><ele>168.0</ele><time>2016-06-18T05:14:09.291Z</time></trkpt><trkpt lat="57.99857167" lon="14.44476833"><ele>167.0</ele><time>2016-06-18T05:14:10.298Z</time></trkpt><trkpt lat="57.99857167" lon="14.44476833"><ele>167.0</ele><time>2016-06-18T05:14:11.320Z</time></trkpt><trkpt lat="57.99848667" lon="14.44462167"><ele>168.0</ele><time>2016-06-18T05:14:12.312Z</time></trkpt><trkpt lat="57.99844333" lon="14.44455"><ele>168.0</ele><time>2016-06-18T05:14:13.286Z</time></trkpt><trkpt lat="57.99839833" lon="14.44447667"><ele>168.0</ele><time>2016-06-18T05:14:14.305Z</time></trkpt><trkpt lat="57.99839833" lon="14.44447667"><ele>168.0</ele><time>2016-06-18T05:14:15.288Z</time></trkpt><trkpt lat="57.998315" lon="14.44432667"><ele>170.0</ele><time>2016-06-18T05:14:16.298Z</time></trkpt><trkpt lat="57.99827167" lon="14.444245"><ele>170.0</ele><time>2016-06-18T05:14:17.288Z</time></trkpt><trkpt lat="57.99827167" lon="14.444245"><ele>170.0</ele><time>2016-06-18T05:14:18.306Z</time></trkpt><trkpt lat="57.99818" lon="14.44407333"><ele>171.0</ele><time>2016-06-18T05:14:19.313Z</time></trkpt><trkpt lat="57.99813667" lon="14.443995"><ele>171.0</ele><time>2016-06-18T05:14:20.318Z</time></trkpt><trkpt lat="57.99813667" lon="14.443995"><ele>171.0</ele><time>2016-06-18T05:14:21.318Z</time></trkpt><trkpt lat="57.99805833" lon="14.44387"><ele>172.0</ele><time>2016-06-18T05:14:22.289Z</time></trkpt><trkpt lat="57.99805833" lon="14.44387"><ele>172.0</ele><time>2016-06-18T05:14:23.314Z</time></trkpt><trkpt lat="57.99798167" lon="14.44374167"><ele>172.0</ele><time>2016-06-18T05:14:24.298Z</time></trkpt><trkpt lat="57.99798167" lon="14.44374167"><ele>172.0</ele><time>2016-06-18T05:14:25.300Z</time></trkpt><trkpt lat="57.9979" lon="14.44360833"><ele>173.0</ele><time>2016-06-18T05:14:26.306Z</time></trkpt><trkpt lat="57.9979" lon="14.44360833"><ele>173.0</ele><time>2016-06-18T05:14:27.311Z</time></trkpt><trkpt lat="57.99781833" lon="14.44347333"><ele>174.0</ele><time>2016-06-18T05:14:28.286Z</time></trkpt><trkpt lat="57.99781833" lon="14.44347333"><ele>174.0</ele><time>2016-06-18T05:14:29.308Z</time></trkpt><trkpt lat="57.99773833" lon="14.44334667"><ele>175.0</ele><time>2016-06-18T05:14:30.325Z</time></trkpt><trkpt lat="57.9977" lon="14.44328333"><ele>175.0</ele><time>2016-06-18T05:14:31.287Z</time></trkpt><trkpt lat="57.9977" lon="14.44328333"><ele>175.0</ele><time>2016-06-18T05:14:32.311Z</time></trkpt><trkpt lat="57.99762333" lon="14.44315167"><ele>176.0</ele><time>2016-06-18T05:14:33.321Z</time></trkpt><trkpt lat="57.99762333" lon="14.44315167"><ele>176.0</ele><time>2016-06-18T05:14:34.302Z</time></trkpt><trkpt lat="57.99754167" lon="14.443015"><ele>176.0</ele><time>2016-06-18T05:14:35.294Z</time></trkpt><trkpt lat="57.99754167" lon="14.443015"><ele>176.0</ele><time>2016-06-18T05:14:36.292Z</time></trkpt><trkpt lat="57.99745667" lon="14.44287167"><ele>177.0</ele><time>2016-06-18T05:14:37.300Z</time></trkpt><trkpt lat="57.99741167" lon="14.44279833"><ele>178.0</ele><time>2016-06-18T05:14:38.285Z</time></trkpt><trkpt lat="57.997365" lon="14.44272"><ele>178.0</ele><time>2016-06-18T05:14:39.288Z</time></trkpt><trkpt lat="57.997365" lon="14.44272"><ele>178.0</ele><time>2016-06-18T05:14:40.309Z</time></trkpt><trkpt lat="57.997275" lon="14.44256"><ele>178.0</ele><time>2016-06-18T05:14:41.316Z</time></trkpt><trkpt lat="57.997275" lon="14.44256"><ele>178.0</ele><time>2016-06-18T05:14:42.299Z</time></trkpt><trkpt lat="57.99718167" lon="14.44240667"><ele>178.0</ele><time>2016-06-18T05:14:43.327Z</time></trkpt><trkpt lat="57.99718167" lon="14.44240667"><ele>178.0</ele><time>2016-06-18T05:14:44.304Z</time></trkpt><trkpt lat="57.99708667" lon="14.442255"><ele>179.0</ele><time>2016-06-18T05:14:45.311Z</time></trkpt><trkpt lat="57.99703833" lon="14.44218"><ele>180.0</ele><time>2016-06-18T05:14:46.286Z</time></trkpt><trkpt lat="57.99703833" lon="14.44218"><ele>180.0</ele><time>2016-06-18T05:14:47.302Z</time></trkpt><trkpt lat="57.99694167" lon="14.44202167"><ele>180.0</ele><time>2016-06-18T05:14:48.311Z</time></trkpt><trkpt lat="57.99694167" lon="14.44202167"><ele>180.0</ele><time>2016-06-18T05:14:49.283Z</time></trkpt><trkpt lat="57.99684833" lon="14.44185833"><ele>179.0</ele><time>2016-06-18T05:14:50.288Z</time></trkpt><trkpt lat="57.99684833" lon="14.44185833"><ele>179.0</ele><time>2016-06-18T05:14:51.318Z</time></trkpt><trkpt lat="57.99675167" lon="14.441695"><ele>179.0</ele><time>2016-06-18T05:14:52.288Z</time></trkpt><trkpt lat="57.99675167" lon="14.441695"><ele>179.0</ele><time>2016-06-18T05:14:53.311Z</time></trkpt><trkpt lat="57.99664833" lon="14.44154"><ele>179.0</ele><time>2016-06-18T05:14:54.285Z</time></trkpt><trkpt lat="57.99664833" lon="14.44154"><ele>179.0</ele><time>2016-06-18T05:14:55.306Z</time></trkpt><trkpt lat="57.99654" lon="14.44138833"><ele>180.0</ele><time>2016-06-18T05:14:56.314Z</time></trkpt><trkpt lat="57.99648167" lon="14.44131167"><ele>180.0</ele><time>2016-06-18T05:14:57.296Z</time></trkpt><trkpt lat="57.99648167" lon="14.44131167"><ele>180.0</ele><time>2016-06-18T05:14:58.319Z</time></trkpt><trkpt lat="57.99636667" lon="14.44117167"><ele>179.0</ele><time>2016-06-18T05:14:59.289Z</time></trkpt><trkpt lat="57.99630667" lon="14.44111333"><ele>179.0</ele><time>2016-06-18T05:15:00.288Z</time></trkpt><trkpt lat="57.99624667" lon="14.44105833"><ele>179.0</ele><time>2016-06-18T05:15:01.298Z</time></trkpt><trkpt lat="57.99618833" lon="14.44100667"><ele>180.0</ele><time>2016-06-18T05:15:02.321Z</time></trkpt><trkpt lat="57.99618833" lon="14.44100667"><ele>180.0</ele><time>2016-06-18T05:15:03.307Z</time></trkpt><trkpt lat="57.99606833" lon="14.4409"><ele>180.0</ele><time>2016-06-18T05:15:04.314Z</time></trkpt><trkpt lat="57.99601" lon="14.44084667"><ele>180.0</ele><time>2016-06-18T05:15:05.314Z</time></trkpt><trkpt lat="57.99601" lon="14.44084667"><ele>180.0</ele><time>2016-06-18T05:15:06.309Z</time></trkpt><trkpt lat="57.995895" lon="14.44074833"><ele>180.0</ele><time>2016-06-18T05:15:07.315Z</time></trkpt><trkpt lat="57.99584" lon="14.44070333"><ele>180.0</ele><time>2016-06-18T05:15:08.294Z</time></trkpt><trkpt lat="57.99584" lon="14.44070333"><ele>180.0</ele><time>2016-06-18T05:15:09.314Z</time></trkpt><trkpt lat="57.995735" lon="14.44062333"><ele>180.0</ele><time>2016-06-18T05:15:10.321Z</time></trkpt><trkpt lat="57.995735" lon="14.44062333"><ele>180.0</ele><time>2016-06-18T05:15:11.290Z</time></trkpt><trkpt lat="57.995625" lon="14.44053667"><ele>181.0</ele><time>2016-06-18T05:15:12.315Z</time></trkpt><trkpt lat="57.995625" lon="14.44053667"><ele>181.0</ele><time>2016-06-18T05:15:13.296Z</time></trkpt><trkpt lat="57.99551333" lon="14.44044833"><ele>181.0</ele><time>2016-06-18T05:15:14.318Z</time></trkpt><trkpt lat="57.99551333" lon="14.44044833"><ele>181.0</ele><time>2016-06-18T05:15:15.302Z</time></trkpt><trkpt lat="57.99540167" lon="14.44036167"><ele>181.0</ele><time>2016-06-18T05:15:16.309Z</time></trkpt><trkpt lat="57.99540167" lon="14.44036167"><ele>181.0</ele><time>2016-06-18T05:15:17.293Z</time></trkpt><trkpt lat="57.99529667" lon="14.44027833"><ele>181.0</ele><time>2016-06-18T05:15:18.288Z</time></trkpt><trkpt lat="57.99529667" lon="14.44027833"><ele>181.0</ele><time>2016-06-18T05:15:19.293Z</time></trkpt><trkpt lat="57.995185" lon="14.44019333"><ele>181.0</ele><time>2016-06-18T05:15:20.300Z</time></trkpt><trkpt lat="57.995125" lon="14.44015"><ele>181.0</ele><time>2016-06-18T05:15:21.298Z</time></trkpt><trkpt lat="57.995125" lon="14.44015"><ele>181.0</ele><time>2016-06-18T05:15:22.319Z</time></trkpt><trkpt lat="57.995005" lon="14.44005333"><ele>182.0</ele><time>2016-06-18T05:15:23.289Z</time></trkpt><trkpt lat="57.995005" lon="14.44005333"><ele>182.0</ele><time>2016-06-18T05:15:24.312Z</time></trkpt><trkpt lat="57.99487667" lon="14.43995333"><ele>182.0</ele><time>2016-06-18T05:15:25.286Z</time></trkpt><trkpt lat="57.99487667" lon="14.43995333"><ele>182.0</ele><time>2016-06-18T05:15:26.303Z</time></trkpt><trkpt lat="57.994745" lon="14.43984667"><ele>182.0</ele><time>2016-06-18T05:15:27.309Z</time></trkpt><trkpt lat="57.994745" lon="14.43984667"><ele>182.0</ele><time>2016-06-18T05:15:28.293Z</time></trkpt><trkpt lat="57.99462167" lon="14.43974833"><ele>182.0</ele><time>2016-06-18T05:15:29.313Z</time></trkpt><trkpt lat="57.99462167" lon="14.43974833"><ele>182.0</ele><time>2016-06-18T05:15:30.295Z</time></trkpt><trkpt lat="57.99449833" lon="14.439645"><ele>182.0</ele><time>2016-06-18T05:15:31.311Z</time></trkpt><trkpt lat="57.99449833" lon="14.439645"><ele>182.0</ele><time>2016-06-18T05:15:32.293Z</time></trkpt><trkpt lat="57.994375" lon="14.43954167"><ele>182.0</ele><time>2016-06-18T05:15:33.304Z</time></trkpt><trkpt lat="57.994375" lon="14.43954167"><ele>182.0</ele><time>2016-06-18T05:15:34.321Z</time></trkpt><trkpt lat="57.994245" lon="14.43944"><ele>183.0</ele><time>2016-06-18T05:15:35.287Z</time></trkpt><trkpt lat="57.99418" lon="14.43939"><ele>183.0</ele><time>2016-06-18T05:15:36.298Z</time></trkpt><trkpt lat="57.99418" lon="14.43939"><ele>183.0</ele><time>2016-06-18T05:15:37.282Z</time></trkpt><trkpt lat="57.99404833" lon="14.439305"><ele>184.0</ele><time>2016-06-18T05:15:38.291Z</time></trkpt><trkpt lat="57.99404833" lon="14.439305"><ele>184.0</ele><time>2016-06-18T05:15:39.315Z</time></trkpt><trkpt lat="57.99391167" lon="14.439235"><ele>184.0</ele><time>2016-06-18T05:15:40.288Z</time></trkpt><trkpt lat="57.99391167" lon="14.439235"><ele>184.0</ele><time>2016-06-18T05:15:41.316Z</time></trkpt><trkpt lat="57.99376667" lon="14.43917833"><ele>184.0</ele><time>2016-06-18T05:15:42.284Z</time></trkpt><trkpt lat="57.99369333" lon="14.43915667"><ele>184.0</ele><time>2016-06-18T05:15:43.293Z</time></trkpt><trkpt lat="57.99369333" lon="14.43915667"><ele>184.0</ele><time>2016-06-18T05:15:44.292Z</time></trkpt><trkpt lat="57.99354333" lon="14.43912333"><ele>184.0</ele><time>2016-06-18T05:15:45.300Z</time></trkpt><trkpt lat="57.99354333" lon="14.43912333"><ele>184.0</ele><time>2016-06-18T05:15:46.294Z</time></trkpt><trkpt lat="57.99338667" lon="14.43911667"><ele>184.0</ele><time>2016-06-18T05:15:47.289Z</time></trkpt><trkpt lat="57.99338667" lon="14.43911667"><ele>184.0</ele><time>2016-06-18T05:15:48.321Z</time></trkpt><trkpt lat="57.99323" lon="14.43913"><ele>184.0</ele><time>2016-06-18T05:15:49.295Z</time></trkpt><trkpt lat="57.993155" lon="14.43914"><ele>184.0</ele><time>2016-06-18T05:15:50.288Z</time></trkpt><trkpt lat="57.993155" lon="14.43914"><ele>184.0</ele><time>2016-06-18T05:15:51.294Z</time></trkpt><trkpt lat="57.99300833" lon="14.43917"><ele>184.0</ele><time>2016-06-18T05:15:52.302Z</time></trkpt><trkpt lat="57.99293833" lon="14.43918167"><ele>184.0</ele><time>2016-06-18T05:15:53.283Z</time></trkpt><trkpt lat="57.99293833" lon="14.43918167"><ele>184.0</ele><time>2016-06-18T05:15:54.298Z</time></trkpt><trkpt lat="57.992795" lon="14.43919833"><ele>184.0</ele><time>2016-06-18T05:15:55.304Z</time></trkpt><trkpt lat="57.99272" lon="14.43920667"><ele>184.0</ele><time>2016-06-18T05:15:56.304Z</time></trkpt><trkpt lat="57.99272" lon="14.43920667"><ele>184.0</ele><time>2016-06-18T05:15:57.286Z</time></trkpt><trkpt lat="57.99256667" lon="14.43922167"><ele>184.0</ele><time>2016-06-18T05:15:58.293Z</time></trkpt><trkpt lat="57.99256667" lon="14.43922167"><ele>184.0</ele><time>2016-06-18T05:15:59.301Z</time></trkpt><trkpt lat="57.99242167" lon="14.43922333"><ele>185.0</ele><time>2016-06-18T05:16:00.288Z</time></trkpt><trkpt lat="57.99242167" lon="14.43922333"><ele>185.0</ele><time>2016-06-18T05:16:01.283Z</time></trkpt><trkpt lat="57.99228833" lon="14.43920167"><ele>185.0</ele><time>2016-06-18T05:16:02.293Z</time></trkpt><trkpt lat="57.99222167" lon="14.43918667"><ele>185.0</ele><time>2016-06-18T05:16:03.300Z</time></trkpt><trkpt lat="57.99222167" lon="14.43918667"><ele>185.0</ele><time>2016-06-18T05:16:04.313Z</time></trkpt><trkpt lat="57.99209" lon="14.43915"><ele>185.0</ele><time>2016-06-18T05:16:05.282Z</time></trkpt><trkpt lat="57.99202333" lon="14.43912667"><ele>185.0</ele><time>2016-06-18T05:16:06.286Z</time></trkpt><trkpt lat="57.99202333" lon="14.43912667"><ele>185.0</ele><time>2016-06-18T05:16:07.307Z</time></trkpt><trkpt lat="57.99189" lon="14.43906833"><ele>186.0</ele><time>2016-06-18T05:16:08.313Z</time></trkpt><trkpt lat="57.99189" lon="14.43906833"><ele>186.0</ele><time>2016-06-18T05:16:09.290Z</time></trkpt><trkpt lat="57.991755" lon="14.438995"><ele>186.0</ele><time>2016-06-18T05:16:10.301Z</time></trkpt><trkpt lat="57.991755" lon="14.438995"><ele>186.0</ele><time>2016-06-18T05:16:11.287Z</time></trkpt><trkpt lat="57.99162167" lon="14.43890333"><ele>186.0</ele><time>2016-06-18T05:16:12.310Z</time></trkpt><trkpt lat="57.991555" lon="14.43885"><ele>187.0</ele><time>2016-06-18T05:16:13.294Z</time></trkpt><trkpt lat="57.991555" lon="14.43885"><ele>187.0</ele><time>2016-06-18T05:16:14.307Z</time></trkpt><trkpt lat="57.99142333" lon="14.43873333"><ele>187.0</ele><time>2016-06-18T05:16:15.283Z</time></trkpt><trkpt lat="57.99142333" lon="14.43873333"><ele>187.0</ele><time>2016-06-18T05:16:16.314Z</time></trkpt><trkpt lat="57.99129333" lon="14.43860833"><ele>188.0</ele><time>2016-06-18T05:16:17.320Z</time></trkpt><trkpt lat="57.99129333" lon="14.43860833"><ele>188.0</ele><time>2016-06-18T05:16:18.303Z</time></trkpt><trkpt lat="57.99116167" lon="14.43848667"><ele>188.0</ele><time>2016-06-18T05:16:19.288Z</time></trkpt><trkpt lat="57.99109667" lon="14.43842333"><ele>189.0</ele><time>2016-06-18T05:16:20.312Z</time></trkpt><trkpt lat="57.99109667" lon="14.43842333"><ele>189.0</ele><time>2016-06-18T05:16:21.296Z</time></trkpt><trkpt lat="57.990965" lon="14.43829167"><ele>189.0</ele><time>2016-06-18T05:16:22.302Z</time></trkpt><trkpt lat="57.990965" lon="14.43829167"><ele>189.0</ele><time>2016-06-18T05:16:23.302Z</time></trkpt><trkpt lat="57.99083167" lon="14.43816"><ele>189.0</ele><time>2016-06-18T05:16:24.309Z</time></trkpt><trkpt lat="57.99076667" lon="14.43809667"><ele>190.0</ele><time>2016-06-18T05:16:25.306Z</time></trkpt><trkpt lat="57.9907" lon="14.43802833"><ele>190.0</ele><time>2016-06-18T05:16:26.293Z</time></trkpt><trkpt lat="57.9907" lon="14.43802833"><ele>190.0</ele><time>2016-06-18T05:16:27.317Z</time></trkpt><trkpt lat="57.99056667" lon="14.437905"><ele>191.0</ele><time>2016-06-18T05:16:28.313Z</time></trkpt><trkpt lat="57.99056667" lon="14.437905"><ele>191.0</ele><time>2016-06-18T05:16:29.293Z</time></trkpt><trkpt lat="57.990435" lon="14.43778833"><ele>191.0</ele><time>2016-06-18T05:16:30.300Z</time></trkpt><trkpt lat="57.99037167" lon="14.43772667"><ele>192.0</ele><time>2016-06-18T05:16:31.318Z</time></trkpt><trkpt lat="57.99031" lon="14.43766667"><ele>192.0</ele><time>2016-06-18T05:16:32.301Z</time></trkpt><trkpt lat="57.99031" lon="14.43766667"><ele>192.0</ele><time>2016-06-18T05:16:33.288Z</time></trkpt><trkpt lat="57.99018833" lon="14.43754833"><ele>192.0</ele><time>2016-06-18T05:16:34.308Z</time></trkpt><trkpt lat="57.99018833" lon="14.43754833"><ele>192.0</ele><time>2016-06-18T05:16:35.322Z</time></trkpt><trkpt lat="57.99005833" lon="14.43742333"><ele>192.0</ele><time>2016-06-18T05:16:36.294Z</time></trkpt><trkpt lat="57.99005833" lon="14.43742333"><ele>192.0</ele><time>2016-06-18T05:16:37.318Z</time></trkpt><trkpt lat="57.98992333" lon="14.437285"><ele>192.0</ele><time>2016-06-18T05:16:38.319Z</time></trkpt><trkpt lat="57.98992333" lon="14.437285"><ele>192.0</ele><time>2016-06-18T05:16:39.314Z</time></trkpt><trkpt lat="57.98978167" lon="14.43714667"><ele>191.0</ele><time>2016-06-18T05:16:40.308Z</time></trkpt><trkpt lat="57.98978167" lon="14.43714667"><ele>191.0</ele><time>2016-06-18T05:16:41.321Z</time></trkpt><trkpt lat="57.98963833" lon="14.43700833"><ele>191.0</ele><time>2016-06-18T05:16:42.295Z</time></trkpt><trkpt lat="57.98956833" lon="14.43694"><ele>191.0</ele><time>2016-06-18T05:16:43.291Z</time></trkpt><trkpt lat="57.98956833" lon="14.43694"><ele>191.0</ele><time>2016-06-18T05:16:44.316Z</time></trkpt><trkpt lat="57.98942833" lon="14.436805"><ele>191.0</ele><time>2016-06-18T05:16:45.294Z</time></trkpt><trkpt lat="57.98942833" lon="14.436805"><ele>191.0</ele><time>2016-06-18T05:16:46.316Z</time></trkpt><trkpt lat="57.98929167" lon="14.43666667"><ele>191.0</ele><time>2016-06-18T05:16:47.283Z</time></trkpt><trkpt lat="57.98929167" lon="14.43666667"><ele>191.0</ele><time>2016-06-18T05:16:48.300Z</time></trkpt><trkpt lat="57.98915333" lon="14.43654333"><ele>191.0</ele><time>2016-06-18T05:16:49.307Z</time></trkpt><trkpt lat="57.98908333" lon="14.43648"><ele>190.0</ele><time>2016-06-18T05:16:50.305Z</time></trkpt><trkpt lat="57.98908333" lon="14.43648"><ele>190.0</ele><time>2016-06-18T05:16:51.291Z</time></trkpt><trkpt lat="57.98894667" lon="14.43636"><ele>190.0</ele><time>2016-06-18T05:16:52.302Z</time></trkpt><trkpt lat="57.98894667" lon="14.43636"><ele>190.0</ele><time>2016-06-18T05:16:53.311Z</time></trkpt><trkpt lat="57.98881667" lon="14.43624333"><ele>190.0</ele><time>2016-06-18T05:16:54.317Z</time></trkpt><trkpt lat="57.98881667" lon="14.43624333"><ele>190.0</ele><time>2016-06-18T05:16:55.300Z</time></trkpt><trkpt lat="57.98867833" lon="14.43612167"><ele>190.0</ele><time>2016-06-18T05:16:56.301Z</time></trkpt><trkpt lat="57.98867833" lon="14.43612167"><ele>190.0</ele><time>2016-06-18T05:16:57.291Z</time></trkpt><trkpt lat="57.98853333" lon="14.436"><ele>190.0</ele><time>2016-06-18T05:16:58.300Z</time></trkpt><trkpt lat="57.98853333" lon="14.436"><ele>190.0</ele><time>2016-06-18T05:16:59.289Z</time></trkpt><trkpt lat="57.98837833" lon="14.435865"><ele>189.0</ele><time>2016-06-18T05:17:00.298Z</time></trkpt><trkpt lat="57.98837833" lon="14.435865"><ele>189.0</ele><time>2016-06-18T05:17:01.301Z</time></trkpt><trkpt lat="57.98821333" lon="14.43573167"><ele>188.0</ele><time>2016-06-18T05:17:02.307Z</time></trkpt><trkpt lat="57.98821333" lon="14.43573167"><ele>188.0</ele><time>2016-06-18T05:17:03.292Z</time></trkpt><trkpt lat="57.98803333" lon="14.43559333"><ele>188.0</ele><time>2016-06-18T05:17:04.286Z</time></trkpt><trkpt lat="57.98803333" lon="14.43559333"><ele>188.0</ele><time>2016-06-18T05:17:05.297Z</time></trkpt><trkpt lat="57.987845" lon="14.43544667"><ele>187.0</ele><time>2016-06-18T05:17:06.303Z</time></trkpt><trkpt lat="57.987845" lon="14.43544667"><ele>187.0</ele><time>2016-06-18T05:17:07.289Z</time></trkpt><trkpt lat="57.987655" lon="14.43529"><ele>186.0</ele><time>2016-06-18T05:17:08.288Z</time></trkpt><trkpt lat="57.987655" lon="14.43529"><ele>186.0</ele><time>2016-06-18T05:17:09.310Z</time></trkpt><trkpt lat="57.98746" lon="14.43512833"><ele>186.0</ele><time>2016-06-18T05:17:10.317Z</time></trkpt><trkpt lat="57.98746" lon="14.43512833"><ele>186.0</ele><time>2016-06-18T05:17:11.290Z</time></trkpt><trkpt lat="57.98727167" lon="14.43498667"><ele>185.0</ele><time>2016-06-18T05:17:12.287Z</time></trkpt><trkpt lat="57.98727167" lon="14.43498667"><ele>185.0</ele><time>2016-06-18T05:17:13.294Z</time></trkpt><trkpt lat="57.98708833" lon="14.43485167"><ele>184.0</ele><time>2016-06-18T05:17:14.302Z</time></trkpt><trkpt lat="57.98700167" lon="14.43478167"><ele>184.0</ele><time>2016-06-18T05:17:15.312Z</time></trkpt><trkpt lat="57.98700167" lon="14.43478167"><ele>184.0</ele><time>2016-06-18T05:17:16.293Z</time></trkpt><trkpt lat="57.98683" lon="14.43465167"><ele>183.0</ele><time>2016-06-18T05:17:17.300Z</time></trkpt><trkpt lat="57.98683" lon="14.43465167"><ele>183.0</ele><time>2016-06-18T05:17:18.291Z</time></trkpt><trkpt lat="57.98666833" lon="14.43453"><ele>183.0</ele><time>2016-06-18T05:17:19.313Z</time></trkpt><trkpt lat="57.98666833" lon="14.43453"><ele>183.0</ele><time>2016-06-18T05:17:20.293Z</time></trkpt><trkpt lat="57.986505" lon="14.434405"><ele>182.0</ele><time>2016-06-18T05:17:21.302Z</time></trkpt><trkpt lat="57.986505" lon="14.434405"><ele>182.0</ele><time>2016-06-18T05:17:22.289Z</time></trkpt><trkpt lat="57.98634" lon="14.43427833"><ele>182.0</ele><time>2016-06-18T05:17:23.315Z</time></trkpt><trkpt lat="57.98634" lon="14.43427833"><ele>182.0</ele><time>2016-06-18T05:17:24.298Z</time></trkpt><trkpt lat="57.986175" lon="14.434145"><ele>182.0</ele><time>2016-06-18T05:17:25.304Z</time></trkpt><trkpt lat="57.98609167" lon="14.43407667"><ele>182.0</ele><time>2016-06-18T05:17:26.282Z</time></trkpt><trkpt lat="57.98609167" lon="14.43407667"><ele>182.0</ele><time>2016-06-18T05:17:27.291Z</time></trkpt><trkpt lat="57.98591833" lon="14.43392167"><ele>182.0</ele><time>2016-06-18T05:17:28.310Z</time></trkpt><trkpt lat="57.98582833" lon="14.433845"><ele>182.0</ele><time>2016-06-18T05:17:29.294Z</time></trkpt><trkpt lat="57.98582833" lon="14.433845"><ele>182.0</ele><time>2016-06-18T05:17:30.314Z</time></trkpt><trkpt lat="57.98564333" lon="14.433695"><ele>182.0</ele><time>2016-06-18T05:17:31.321Z</time></trkpt><trkpt lat="57.985545" lon="14.43362"><ele>181.0</ele><time>2016-06-18T05:17:32.293Z</time></trkpt><trkpt lat="57.985545" lon="14.43362"><ele>181.0</ele><time>2016-06-18T05:17:33.314Z</time></trkpt><trkpt lat="57.985355" lon="14.43346167"><ele>182.0</ele><time>2016-06-18T05:17:34.301Z</time></trkpt><trkpt lat="57.98525833" lon="14.43338"><ele>182.0</ele><time>2016-06-18T05:17:35.285Z</time></trkpt><trkpt lat="57.98525833" lon="14.43338"><ele>182.0</ele><time>2016-06-18T05:17:36.308Z</time></trkpt><trkpt lat="57.985065" lon="14.43323"><ele>182.0</ele><time>2016-06-18T05:17:37.314Z</time></trkpt><trkpt lat="57.98497333" lon="14.43315833"><ele>182.0</ele><time>2016-06-18T05:17:38.298Z</time></trkpt><trkpt lat="57.98497333" lon="14.43315833"><ele>182.0</ele><time>2016-06-18T05:17:39.282Z</time></trkpt><trkpt lat="57.98479667" lon="14.43303167"><ele>182.0</ele><time>2016-06-18T05:17:40.290Z</time></trkpt><trkpt lat="57.98471333" lon="14.43298"><ele>183.0</ele><time>2016-06-18T05:17:41.318Z</time></trkpt><trkpt lat="57.98471333" lon="14.43298"><ele>183.0</ele><time>2016-06-18T05:17:42.292Z</time></trkpt><trkpt lat="57.984555" lon="14.43289667"><ele>183.0</ele><time>2016-06-18T05:17:43.299Z</time></trkpt><trkpt lat="57.98448167" lon="14.43286333"><ele>183.0</ele><time>2016-06-18T05:17:44.284Z</time></trkpt><trkpt lat="57.98448167" lon="14.43286333"><ele>183.0</ele><time>2016-06-18T05:17:45.306Z</time></trkpt><trkpt lat="57.98434333" lon="14.43279333"><ele>183.0</ele><time>2016-06-18T05:17:46.313Z</time></trkpt><trkpt lat="57.984275" lon="14.43276333"><ele>183.0</ele><time>2016-06-18T05:17:47.299Z</time></trkpt><trkpt lat="57.984275" lon="14.43276333"><ele>183.0</ele><time>2016-06-18T05:17:48.282Z</time></trkpt><trkpt lat="57.98413833" lon="14.43271833"><ele>184.0</ele><time>2016-06-18T05:17:49.295Z</time></trkpt><trkpt lat="57.98407" lon="14.4327"><ele>184.0</ele><time>2016-06-18T05:17:50.285Z</time></trkpt><trkpt lat="57.98399833" lon="14.43268167"><ele>184.0</ele><time>2016-06-18T05:17:51.303Z</time></trkpt><trkpt lat="57.98399833" lon="14.43268167"><ele>184.0</ele><time>2016-06-18T05:17:52.290Z</time></trkpt><trkpt lat="57.98386" lon="14.43264167"><ele>185.0</ele><time>2016-06-18T05:17:53.282Z</time></trkpt><trkpt lat="57.98386" lon="14.43264167"><ele>185.0</ele><time>2016-06-18T05:17:54.304Z</time></trkpt><trkpt lat="57.98373" lon="14.43261667"><ele>185.0</ele><time>2016-06-18T05:17:55.311Z</time></trkpt><trkpt lat="57.98366667" lon="14.43260833"><ele>185.0</ele><time>2016-06-18T05:17:56.308Z</time></trkpt><trkpt lat="57.98366667" lon="14.43260833"><ele>185.0</ele><time>2016-06-18T05:17:57.304Z</time></trkpt><trkpt lat="57.98354667" lon="14.43259167"><ele>186.0</ele><time>2016-06-18T05:17:58.314Z</time></trkpt><trkpt lat="57.983495" lon="14.432585"><ele>186.0</ele><time>2016-06-18T05:17:59.321Z</time></trkpt><trkpt lat="57.983495" lon="14.432585"><ele>186.0</ele><time>2016-06-18T05:18:00.292Z</time></trkpt><trkpt lat="57.98340167" lon="14.43257667"><ele>187.0</ele><time>2016-06-18T05:18:01.300Z</time></trkpt><trkpt lat="57.983355" lon="14.43257167"><ele>187.0</ele><time>2016-06-18T05:18:02.288Z</time></trkpt><trkpt lat="57.983355" lon="14.43257167"><ele>187.0</ele><time>2016-06-18T05:18:03.292Z</time></trkpt><trkpt lat="57.98326" lon="14.43256667"><ele>187.0</ele><time>2016-06-18T05:18:04.319Z</time></trkpt><trkpt lat="57.98326" lon="14.43256667"><ele>187.0</ele><time>2016-06-18T05:18:05.292Z</time></trkpt><trkpt lat="57.98316333" lon="14.43255833"><ele>187.0</ele><time>2016-06-18T05:18:06.308Z</time></trkpt><trkpt lat="57.98316333" lon="14.43255833"><ele>187.0</ele><time>2016-06-18T05:18:07.312Z</time></trkpt><trkpt lat="57.983055" lon="14.43254833"><ele>187.0</ele><time>2016-06-18T05:18:08.320Z</time></trkpt><trkpt lat="57.983055" lon="14.43254833"><ele>187.0</ele><time>2016-06-18T05:18:09.304Z</time></trkpt><trkpt lat="57.98294" lon="14.43253333"><ele>188.0</ele><time>2016-06-18T05:18:10.296Z</time></trkpt><trkpt lat="57.98294" lon="14.43253333"><ele>188.0</ele><time>2016-06-18T05:18:11.289Z</time></trkpt><trkpt lat="57.98282167" lon="14.43251167"><ele>188.0</ele><time>2016-06-18T05:18:12.293Z</time></trkpt><trkpt lat="57.98282167" lon="14.43251167"><ele>188.0</ele><time>2016-06-18T05:18:13.315Z</time></trkpt><trkpt lat="57.98269" lon="14.43249333"><ele>189.0</ele><time>2016-06-18T05:18:14.282Z</time></trkpt><trkpt lat="57.98269" lon="14.43249333"><ele>189.0</ele><time>2016-06-18T05:18:15.321Z</time></trkpt><trkpt lat="57.98255167" lon="14.43247167"><ele>189.0</ele><time>2016-06-18T05:18:16.294Z</time></trkpt><trkpt lat="57.98255167" lon="14.43247167"><ele>189.0</ele><time>2016-06-18T05:18:17.296Z</time></trkpt><trkpt lat="57.98240833" lon="14.432455"><ele>189.0</ele><time>2016-06-18T05:18:18.302Z</time></trkpt><trkpt lat="57.98240833" lon="14.432455"><ele>189.0</ele><time>2016-06-18T05:18:19.286Z</time></trkpt><trkpt lat="57.98226" lon="14.43243"><ele>189.0</ele><time>2016-06-18T05:18:20.307Z</time></trkpt><trkpt lat="57.98226" lon="14.43243"><ele>189.0</ele><time>2016-06-18T05:18:21.311Z</time></trkpt><trkpt lat="57.982105" lon="14.4324"><ele>188.0</ele><time>2016-06-18T05:18:22.317Z</time></trkpt><trkpt lat="57.982105" lon="14.4324"><ele>188.0</ele><time>2016-06-18T05:18:23.300Z</time></trkpt><trkpt lat="57.98194667" lon="14.43236"><ele>187.0</ele><time>2016-06-18T05:18:24.288Z</time></trkpt><trkpt lat="57.981865" lon="14.43234167"><ele>187.0</ele><time>2016-06-18T05:18:25.310Z</time></trkpt><trkpt lat="57.98178167" lon="14.43232333"><ele>187.0</ele><time>2016-06-18T05:18:26.298Z</time></trkpt><trkpt lat="57.98178167" lon="14.43232333"><ele>187.0</ele><time>2016-06-18T05:18:27.282Z</time></trkpt><trkpt lat="57.98160833" lon="14.432285"><ele>186.0</ele><time>2016-06-18T05:18:28.288Z</time></trkpt><trkpt lat="57.98160833" lon="14.432285"><ele>186.0</ele><time>2016-06-18T05:18:29.308Z</time></trkpt><trkpt lat="57.98143" lon="14.43223667"><ele>185.0</ele><time>2016-06-18T05:18:30.298Z</time></trkpt><trkpt lat="57.98133667" lon="14.43221"><ele>185.0</ele><time>2016-06-18T05:18:31.315Z</time></trkpt><trkpt lat="57.98133667" lon="14.43221"><ele>185.0</ele><time>2016-06-18T05:18:32.296Z</time></trkpt><trkpt lat="57.98114333" lon="14.43215"><ele>184.0</ele><time>2016-06-18T05:18:33.289Z</time></trkpt><trkpt lat="57.98114333" lon="14.43215"><ele>184.0</ele><time>2016-06-18T05:18:34.309Z</time></trkpt><trkpt lat="57.98094" lon="14.432085"><ele>183.0</ele><time>2016-06-18T05:18:35.328Z</time></trkpt><trkpt lat="57.98094" lon="14.432085"><ele>183.0</ele><time>2016-06-18T05:18:36.320Z</time></trkpt><trkpt lat="57.98072667" lon="14.43202167"><ele>182.0</ele><time>2016-06-18T05:18:37.287Z</time></trkpt><trkpt lat="57.98061833" lon="14.43198833"><ele>181.0</ele><time>2016-06-18T05:18:38.314Z</time></trkpt><trkpt lat="57.98061833" lon="14.43198833"><ele>181.0</ele><time>2016-06-18T05:18:39.308Z</time></trkpt><trkpt lat="57.98040333" lon="14.43192167"><ele>181.0</ele><time>2016-06-18T05:18:40.325Z</time></trkpt><trkpt lat="57.98040333" lon="14.43192167"><ele>181.0</ele><time>2016-06-18T05:18:41.304Z</time></trkpt><trkpt lat="57.98019167" lon="14.431855"><ele>181.0</ele><time>2016-06-18T05:18:42.311Z</time></trkpt><trkpt lat="57.98019167" lon="14.431855"><ele>181.0</ele><time>2016-06-18T05:18:43.294Z</time></trkpt><trkpt lat="57.97998333" lon="14.43178667"><ele>181.0</ele><time>2016-06-18T05:18:44.308Z</time></trkpt><trkpt lat="57.97998333" lon="14.43178667"><ele>181.0</ele><time>2016-06-18T05:18:45.308Z</time></trkpt><trkpt lat="57.97977667" lon="14.43172333"><ele>181.0</ele><time>2016-06-18T05:18:46.315Z</time></trkpt><trkpt lat="57.97967667" lon="14.431695"><ele>181.0</ele><time>2016-06-18T05:18:47.309Z</time></trkpt><trkpt lat="57.97967667" lon="14.431695"><ele>181.0</ele><time>2016-06-18T05:18:48.293Z</time></trkpt><trkpt lat="57.979475" lon="14.43164"><ele>181.0</ele><time>2016-06-18T05:18:49.302Z</time></trkpt><trkpt lat="57.979375" lon="14.43161333"><ele>181.0</ele><time>2016-06-18T05:18:50.308Z</time></trkpt><trkpt lat="57.979375" lon="14.43161333"><ele>181.0</ele><time>2016-06-18T05:18:51.299Z</time></trkpt><trkpt lat="57.97917333" lon="14.43156333"><ele>180.0</ele><time>2016-06-18T05:18:52.306Z</time></trkpt><trkpt lat="57.97906833" lon="14.43154167"><ele>180.0</ele><time>2016-06-18T05:18:53.298Z</time></trkpt><trkpt lat="57.97896167" lon="14.43152"><ele>179.0</ele><time>2016-06-18T05:18:54.290Z</time></trkpt><trkpt lat="57.97896167" lon="14.43152"><ele>179.0</ele><time>2016-06-18T05:18:55.313Z</time></trkpt><trkpt lat="57.97874167" lon="14.43148333"><ele>178.0</ele><time>2016-06-18T05:18:56.320Z</time></trkpt><trkpt lat="57.97874167" lon="14.43148333"><ele>178.0</ele><time>2016-06-18T05:18:57.303Z</time></trkpt><trkpt lat="57.97851167" lon="14.43144333"><ele>177.0</ele><time>2016-06-18T05:18:58.290Z</time></trkpt><trkpt lat="57.978395" lon="14.43142333"><ele>177.0</ele><time>2016-06-18T05:18:59.305Z</time></trkpt><trkpt lat="57.978395" lon="14.43142333"><ele>177.0</ele><time>2016-06-18T05:19:00.285Z</time></trkpt><trkpt lat="57.97815833" lon="14.43138167"><ele>176.0</ele><time>2016-06-18T05:19:01.298Z</time></trkpt><trkpt lat="57.97804167" lon="14.43136333"><ele>176.0</ele><time>2016-06-18T05:19:02.297Z</time></trkpt><trkpt lat="57.97804167" lon="14.43136333"><ele>176.0</ele><time>2016-06-18T05:19:03.318Z</time></trkpt><trkpt lat="57.97780833" lon="14.43133333"><ele>175.0</ele><time>2016-06-18T05:19:04.304Z</time></trkpt><trkpt lat="57.97780833" lon="14.43133333"><ele>175.0</ele><time>2016-06-18T05:19:05.298Z</time></trkpt><trkpt lat="57.97757667" lon="14.43130333"><ele>175.0</ele><time>2016-06-18T05:19:06.304Z</time></trkpt><trkpt lat="57.97746167" lon="14.43128833"><ele>174.0</ele><time>2016-06-18T05:19:07.308Z</time></trkpt><trkpt lat="57.97734833" lon="14.43127333"><ele>174.0</ele><time>2016-06-18T05:19:08.305Z</time></trkpt><trkpt lat="57.97734833" lon="14.43127333"><ele>174.0</ele><time>2016-06-18T05:19:09.291Z</time></trkpt><trkpt lat="57.97711667" lon="14.43125"><ele>173.0</ele><time>2016-06-18T05:19:10.295Z</time></trkpt><trkpt lat="57.97711667" lon="14.43125"><ele>173.0</ele><time>2016-06-18T05:19:11.289Z</time></trkpt><trkpt lat="57.97688" lon="14.431225"><ele>172.0</ele><time>2016-06-18T05:19:12.318Z</time></trkpt><trkpt lat="57.97675833" lon="14.43121167"><ele>172.0</ele><time>2016-06-18T05:19:13.302Z</time></trkpt><trkpt lat="57.97675833" lon="14.43121167"><ele>172.0</ele><time>2016-06-18T05:19:14.282Z</time></trkpt><trkpt lat="57.97651667" lon="14.43118167"><ele>171.0</ele><time>2016-06-18T05:19:15.308Z</time></trkpt><trkpt lat="57.97639667" lon="14.43116667"><ele>170.0</ele><time>2016-06-18T05:19:16.312Z</time></trkpt><trkpt lat="57.97639667" lon="14.43116667"><ele>170.0</ele><time>2016-06-18T05:19:17.298Z</time></trkpt><trkpt lat="57.97616833" lon="14.43114"><ele>170.0</ele><time>2016-06-18T05:19:18.288Z</time></trkpt><trkpt lat="57.97616833" lon="14.43114"><ele>170.0</ele><time>2016-06-18T05:19:19.310Z</time></trkpt><trkpt lat="57.975945" lon="14.43111667"><ele>169.0</ele><time>2016-06-18T05:19:20.318Z</time></trkpt><trkpt lat="57.97583333" lon="14.431105"><ele>168.0</ele><time>2016-06-18T05:19:21.308Z</time></trkpt><trkpt lat="57.97583333" lon="14.431105"><ele>168.0</ele><time>2016-06-18T05:19:22.296Z</time></trkpt><trkpt lat="57.97561667" lon="14.431075"><ele>168.0</ele><time>2016-06-18T05:19:23.308Z</time></trkpt><trkpt lat="57.97550667" lon="14.43106333"><ele>168.0</ele><time>2016-06-18T05:19:24.298Z</time></trkpt><trkpt lat="57.975395" lon="14.43105167"><ele>167.0</ele><time>2016-06-18T05:19:25.308Z</time></trkpt><trkpt lat="57.975395" lon="14.43105167"><ele>167.0</ele><time>2016-06-18T05:19:26.314Z</time></trkpt><trkpt lat="57.97516333" lon="14.43102667"><ele>167.0</ele><time>2016-06-18T05:19:27.321Z</time></trkpt><trkpt lat="57.97516333" lon="14.43102667"><ele>167.0</ele><time>2016-06-18T05:19:28.302Z</time></trkpt><trkpt lat="57.97492667" lon="14.43099667"><ele>167.0</ele><time>2016-06-18T05:19:29.297Z</time></trkpt><trkpt lat="57.97492667" lon="14.43099667"><ele>167.0</ele><time>2016-06-18T05:19:30.297Z</time></trkpt><trkpt lat="57.97469" lon="14.43096833"><ele>166.0</ele><time>2016-06-18T05:19:31.304Z</time></trkpt><trkpt lat="57.97457333" lon="14.430955"><ele>166.0</ele><time>2016-06-18T05:19:32.308Z</time></trkpt><trkpt lat="57.97457333" lon="14.430955"><ele>166.0</ele><time>2016-06-18T05:19:33.314Z</time></trkpt><trkpt lat="57.97434" lon="14.43092667"><ele>166.0</ele><time>2016-06-18T05:19:34.321Z</time></trkpt><trkpt lat="57.97434" lon="14.43092667"><ele>166.0</ele><time>2016-06-18T05:19:35.302Z</time></trkpt><trkpt lat="57.97410833" lon="14.43089833"><ele>165.0</ele><time>2016-06-18T05:19:36.298Z</time></trkpt><trkpt lat="57.97410833" lon="14.43089833"><ele>165.0</ele><time>2016-06-18T05:19:37.321Z</time></trkpt><trkpt lat="57.97387667" lon="14.43087"><ele>165.0</ele><time>2016-06-18T05:19:38.288Z</time></trkpt><trkpt lat="57.97387667" lon="14.43087"><ele>165.0</ele><time>2016-06-18T05:19:39.310Z</time></trkpt><trkpt lat="57.97365" lon="14.43083833"><ele>164.0</ele><time>2016-06-18T05:19:40.288Z</time></trkpt><trkpt lat="57.97365" lon="14.43083833"><ele>164.0</ele><time>2016-06-18T05:19:41.317Z</time></trkpt><trkpt lat="57.973425" lon="14.43079833"><ele>163.0</ele><time>2016-06-18T05:19:42.284Z</time></trkpt><trkpt lat="57.973425" lon="14.43079833"><ele>163.0</ele><time>2016-06-18T05:19:43.304Z</time></trkpt><trkpt lat="57.97319833" lon="14.43074167"><ele>163.0</ele><time>2016-06-18T05:19:44.295Z</time></trkpt><trkpt lat="57.97319833" lon="14.43074167"><ele>163.0</ele><time>2016-06-18T05:19:45.317Z</time></trkpt><trkpt lat="57.97296667" lon="14.43064333"><ele>162.0</ele><time>2016-06-18T05:19:46.284Z</time></trkpt><trkpt lat="57.97285167" lon="14.430575"><ele>161.0</ele><time>2016-06-18T05:19:47.287Z</time></trkpt><trkpt lat="57.97285167" lon="14.430575"><ele>161.0</ele><time>2016-06-18T05:19:48.282Z</time></trkpt><trkpt lat="57.97261833" lon="14.43040167"><ele>160.0</ele><time>2016-06-18T05:19:49.288Z</time></trkpt><trkpt lat="57.97250333" lon="14.43029833"><ele>159.0</ele><time>2016-06-18T05:19:50.287Z</time></trkpt><trkpt lat="57.97250333" lon="14.43029833"><ele>159.0</ele><time>2016-06-18T05:19:51.304Z</time></trkpt><trkpt lat="57.972275" lon="14.43007"><ele>158.0</ele><time>2016-06-18T05:19:52.311Z</time></trkpt><trkpt lat="57.972165" lon="14.429955"><ele>158.0</ele><time>2016-06-18T05:19:53.308Z</time></trkpt><trkpt lat="57.972165" lon="14.429955"><ele>158.0</ele><time>2016-06-18T05:19:54.311Z</time></trkpt><trkpt lat="57.97194333" lon="14.42972833"><ele>157.0</ele><time>2016-06-18T05:19:55.321Z</time></trkpt><trkpt lat="57.97194333" lon="14.42972833"><ele>157.0</ele><time>2016-06-18T05:19:56.300Z</time></trkpt><trkpt lat="57.97172333" lon="14.42950333"><ele>156.0</ele><time>2016-06-18T05:19:57.308Z</time></trkpt><trkpt lat="57.97172333" lon="14.42950333"><ele>156.0</ele><time>2016-06-18T05:19:58.311Z</time></trkpt><trkpt lat="57.97150333" lon="14.429275"><ele>156.0</ele><time>2016-06-18T05:19:59.318Z</time></trkpt><trkpt lat="57.971395" lon="14.42916"><ele>156.0</ele><time>2016-06-18T05:20:00.314Z</time></trkpt><trkpt lat="57.971395" lon="14.42916"><ele>156.0</ele><time>2016-06-18T05:20:01.294Z</time></trkpt><trkpt lat="57.97118" lon="14.42893833"><ele>155.0</ele><time>2016-06-18T05:20:02.301Z</time></trkpt><trkpt lat="57.97118" lon="14.42893833"><ele>155.0</ele><time>2016-06-18T05:20:03.283Z</time></trkpt><trkpt lat="57.97096667" lon="14.42872333"><ele>155.0</ele><time>2016-06-18T05:20:04.318Z</time></trkpt><trkpt lat="57.97096667" lon="14.42872333"><ele>155.0</ele><time>2016-06-18T05:20:05.282Z</time></trkpt><trkpt lat="57.970755" lon="14.428515"><ele>155.0</ele><time>2016-06-18T05:20:06.298Z</time></trkpt><trkpt lat="57.970755" lon="14.428515"><ele>155.0</ele><time>2016-06-18T05:20:07.319Z</time></trkpt><trkpt lat="57.970545" lon="14.42831667"><ele>155.0</ele><time>2016-06-18T05:20:08.298Z</time></trkpt><trkpt lat="57.970545" lon="14.42831667"><ele>155.0</ele><time>2016-06-18T05:20:09.299Z</time></trkpt><trkpt lat="57.97032833" lon="14.42813"><ele>155.0</ele><time>2016-06-18T05:20:10.306Z</time></trkpt><trkpt lat="57.97032833" lon="14.42813"><ele>155.0</ele><time>2016-06-18T05:20:11.309Z</time></trkpt><trkpt lat="57.970115" lon="14.42793833"><ele>155.0</ele><time>2016-06-18T05:20:12.282Z</time></trkpt><trkpt lat="57.970115" lon="14.42793833"><ele>155.0</ele><time>2016-06-18T05:20:13.314Z</time></trkpt><trkpt lat="57.9699" lon="14.427725"><ele>156.0</ele><time>2016-06-18T05:20:14.321Z</time></trkpt><trkpt lat="57.9699" lon="14.427725"><ele>156.0</ele><time>2016-06-18T05:20:15.310Z</time></trkpt><trkpt lat="57.96968333" lon="14.427505"><ele>156.0</ele><time>2016-06-18T05:20:16.290Z</time></trkpt><trkpt lat="57.96968333" lon="14.427505"><ele>156.0</ele><time>2016-06-18T05:20:17.310Z</time></trkpt><trkpt lat="57.96947" lon="14.42729667"><ele>156.0</ele><time>2016-06-18T05:20:18.317Z</time></trkpt><trkpt lat="57.96936667" lon="14.42719333"><ele>156.0</ele><time>2016-06-18T05:20:19.296Z</time></trkpt><trkpt lat="57.96936667" lon="14.42719333"><ele>156.0</ele><time>2016-06-18T05:20:20.293Z</time></trkpt><trkpt lat="57.96916333" lon="14.42699333"><ele>156.0</ele><time>2016-06-18T05:20:21.300Z</time></trkpt><trkpt lat="57.96916333" lon="14.42699333"><ele>156.0</ele><time>2016-06-18T05:20:22.300Z</time></trkpt><trkpt lat="57.96896167" lon="14.42680167"><ele>156.0</ele><time>2016-06-18T05:20:23.317Z</time></trkpt><trkpt lat="57.96896167" lon="14.42680167"><ele>156.0</ele><time>2016-06-18T05:20:24.301Z</time></trkpt><trkpt lat="57.96877333" lon="14.42661333"><ele>157.0</ele><time>2016-06-18T05:20:25.308Z</time></trkpt><trkpt lat="57.96868" lon="14.42652167"><ele>157.0</ele><time>2016-06-18T05:20:26.283Z</time></trkpt><trkpt lat="57.96868" lon="14.42652167"><ele>157.0</ele><time>2016-06-18T05:20:27.295Z</time></trkpt><trkpt lat="57.9685" lon="14.42634667"><ele>157.0</ele><time>2016-06-18T05:20:28.302Z</time></trkpt><trkpt lat="57.96841333" lon="14.42626333"><ele>157.0</ele><time>2016-06-18T05:20:29.290Z</time></trkpt><trkpt lat="57.96841333" lon="14.42626333"><ele>157.0</ele><time>2016-06-18T05:20:30.310Z</time></trkpt><trkpt lat="57.96824667" lon="14.4261"><ele>157.0</ele><time>2016-06-18T05:20:31.317Z</time></trkpt><trkpt lat="57.968165" lon="14.42601833"><ele>157.0</ele><time>2016-06-18T05:20:32.315Z</time></trkpt><trkpt lat="57.968085" lon="14.42593833"><ele>158.0</ele><time>2016-06-18T05:20:33.299Z</time></trkpt><trkpt lat="57.968085" lon="14.42593833"><ele>158.0</ele><time>2016-06-18T05:20:34.282Z</time></trkpt><trkpt lat="57.96793167" lon="14.42578667"><ele>158.0</ele><time>2016-06-18T05:20:35.288Z</time></trkpt><trkpt lat="57.96793167" lon="14.42578667"><ele>158.0</ele><time>2016-06-18T05:20:36.317Z</time></trkpt><trkpt lat="57.96778833" lon="14.42564833"><ele>159.0</ele><time>2016-06-18T05:20:37.284Z</time></trkpt><trkpt lat="57.96772" lon="14.42558667"><ele>159.0</ele><time>2016-06-18T05:20:38.282Z</time></trkpt><trkpt lat="57.96772" lon="14.42558667"><ele>159.0</ele><time>2016-06-18T05:20:39.305Z</time></trkpt><trkpt lat="57.967585" lon="14.42545167"><ele>160.0</ele><time>2016-06-18T05:20:40.282Z</time></trkpt><trkpt lat="57.967515" lon="14.42538667"><ele>160.0</ele><time>2016-06-18T05:20:41.288Z</time></trkpt><trkpt lat="57.96744833" lon="14.42532333"><ele>161.0</ele><time>2016-06-18T05:20:42.311Z</time></trkpt><trkpt lat="57.96744833" lon="14.42532333"><ele>161.0</ele><time>2016-06-18T05:20:43.295Z</time></trkpt><trkpt lat="57.96732" lon="14.42520167"><ele>161.0</ele><time>2016-06-18T05:20:44.317Z</time></trkpt><trkpt lat="57.96732" lon="14.42520167"><ele>161.0</ele><time>2016-06-18T05:20:45.308Z</time></trkpt><trkpt lat="57.967195" lon="14.425075"><ele>162.0</ele><time>2016-06-18T05:20:46.318Z</time></trkpt><trkpt lat="57.96713333" lon="14.42501667"><ele>162.0</ele><time>2016-06-18T05:20:47.323Z</time></trkpt><trkpt lat="57.96713333" lon="14.42501667"><ele>162.0</ele><time>2016-06-18T05:20:48.296Z</time></trkpt><trkpt lat="57.967015" lon="14.42490333"><ele>163.0</ele><time>2016-06-18T05:20:49.303Z</time></trkpt><trkpt lat="57.967015" lon="14.42490333"><ele>163.0</ele><time>2016-06-18T05:20:50.286Z</time></trkpt><trkpt lat="57.96689833" lon="14.42478333"><ele>163.0</ele><time>2016-06-18T05:20:51.308Z</time></trkpt><trkpt lat="57.96689833" lon="14.42478333"><ele>163.0</ele><time>2016-06-18T05:20:52.296Z</time></trkpt><trkpt lat="57.96678333" lon="14.42467167"><ele>163.0</ele><time>2016-06-18T05:20:53.303Z</time></trkpt><trkpt lat="57.96678333" lon="14.42467167"><ele>163.0</ele><time>2016-06-18T05:20:54.287Z</time></trkpt><trkpt lat="57.96667" lon="14.424555"><ele>164.0</ele><time>2016-06-18T05:20:55.308Z</time></trkpt><trkpt lat="57.96667" lon="14.424555"><ele>164.0</ele><time>2016-06-18T05:20:56.303Z</time></trkpt><trkpt lat="57.96655833" lon="14.42444333"><ele>165.0</ele><time>2016-06-18T05:20:57.310Z</time></trkpt><trkpt lat="57.96655833" lon="14.42444333"><ele>165.0</ele><time>2016-06-18T05:20:58.291Z</time></trkpt><trkpt lat="57.96644833" lon="14.42434"><ele>166.0</ele><time>2016-06-18T05:20:59.308Z</time></trkpt><trkpt lat="57.96644833" lon="14.42434"><ele>166.0</ele><time>2016-06-18T05:21:00.294Z</time></trkpt><trkpt lat="57.96634333" lon="14.42424"><ele>167.0</ele><time>2016-06-18T05:21:01.283Z</time></trkpt><trkpt lat="57.96634333" lon="14.42424"><ele>167.0</ele><time>2016-06-18T05:21:02.289Z</time></trkpt><trkpt lat="57.96624333" lon="14.42414"><ele>167.0</ele><time>2016-06-18T05:21:03.293Z</time></trkpt><trkpt lat="57.96624333" lon="14.42414"><ele>167.0</ele><time>2016-06-18T05:21:04.312Z</time></trkpt><trkpt lat="57.96613833" lon="14.42403833"><ele>168.0</ele><time>2016-06-18T05:21:05.319Z</time></trkpt><trkpt lat="57.96613833" lon="14.42403833"><ele>168.0</ele><time>2016-06-18T05:21:06.305Z</time></trkpt><trkpt lat="57.96602667" lon="14.42393333"><ele>169.0</ele><time>2016-06-18T05:21:07.288Z</time></trkpt><trkpt lat="57.96602667" lon="14.42393333"><ele>169.0</ele><time>2016-06-18T05:21:08.311Z</time></trkpt><trkpt lat="57.96590833" lon="14.42383167"><ele>169.0</ele><time>2016-06-18T05:21:09.319Z</time></trkpt><trkpt lat="57.96590833" lon="14.42383167"><ele>169.0</ele><time>2016-06-18T05:21:10.298Z</time></trkpt><trkpt lat="57.96578333" lon="14.42373167"><ele>169.0</ele><time>2016-06-18T05:21:11.308Z</time></trkpt><trkpt lat="57.96578333" lon="14.42373167"><ele>169.0</ele><time>2016-06-18T05:21:12.305Z</time></trkpt><trkpt lat="57.96565167" lon="14.423625"><ele>169.0</ele><time>2016-06-18T05:21:13.315Z</time></trkpt><trkpt lat="57.96558167" lon="14.42357167"><ele>169.0</ele><time>2016-06-18T05:21:14.298Z</time></trkpt><trkpt lat="57.96558167" lon="14.42357167"><ele>169.0</ele><time>2016-06-18T05:21:15.321Z</time></trkpt><trkpt lat="57.96543333" lon="14.42348"><ele>169.0</ele><time>2016-06-18T05:21:16.300Z</time></trkpt><trkpt lat="57.96543333" lon="14.42348"><ele>169.0</ele><time>2016-06-18T05:21:17.306Z</time></trkpt><trkpt lat="57.96527" lon="14.42339167"><ele>168.0</ele><time>2016-06-18T05:21:18.315Z</time></trkpt><trkpt lat="57.96527" lon="14.42339167"><ele>168.0</ele><time>2016-06-18T05:21:19.296Z</time></trkpt><trkpt lat="57.96508833" lon="14.42330833"><ele>167.0</ele><time>2016-06-18T05:21:20.296Z</time></trkpt><trkpt lat="57.96508833" lon="14.42330833"><ele>167.0</ele><time>2016-06-18T05:21:21.284Z</time></trkpt><trkpt lat="57.96489833" lon="14.42322333"><ele>167.0</ele><time>2016-06-18T05:21:22.296Z</time></trkpt><trkpt lat="57.96479833" lon="14.42318333"><ele>166.0</ele><time>2016-06-18T05:21:23.308Z</time></trkpt><trkpt lat="57.96479833" lon="14.42318333"><ele>166.0</ele><time>2016-06-18T05:21:24.289Z</time></trkpt><trkpt lat="57.96459167" lon="14.423105"><ele>165.0</ele><time>2016-06-18T05:21:25.300Z</time></trkpt><trkpt lat="57.964485" lon="14.423065"><ele>164.0</ele><time>2016-06-18T05:21:26.286Z</time></trkpt><trkpt lat="57.964485" lon="14.423065"><ele>164.0</ele><time>2016-06-18T05:21:27.305Z</time></trkpt><trkpt lat="57.96427333" lon="14.42298667"><ele>164.0</ele><time>2016-06-18T05:21:28.315Z</time></trkpt><trkpt lat="57.96427333" lon="14.42298667"><ele>164.0</ele><time>2016-06-18T05:21:29.282Z</time></trkpt><trkpt lat="57.96405333" lon="14.422905"><ele>163.0</ele><time>2016-06-18T05:21:30.290Z</time></trkpt><trkpt lat="57.96405333" lon="14.422905"><ele>163.0</ele><time>2016-06-18T05:21:31.321Z</time></trkpt><trkpt lat="57.96383" lon="14.42282667"><ele>162.0</ele><time>2016-06-18T05:21:32.287Z</time></trkpt><trkpt lat="57.96371667" lon="14.42278667"><ele>162.0</ele><time>2016-06-18T05:21:33.324Z</time></trkpt><trkpt lat="57.96371667" lon="14.42278667"><ele>162.0</ele><time>2016-06-18T05:21:34.300Z</time></trkpt><trkpt lat="57.96349667" lon="14.42271"><ele>162.0</ele><time>2016-06-18T05:21:35.308Z</time></trkpt><trkpt lat="57.96339333" lon="14.42267167"><ele>162.0</ele><time>2016-06-18T05:21:36.287Z</time></trkpt><trkpt lat="57.96329" lon="14.42263667"><ele>162.0</ele><time>2016-06-18T05:21:37.311Z</time></trkpt><trkpt lat="57.96329" lon="14.42263667"><ele>162.0</ele><time>2016-06-18T05:21:38.292Z</time></trkpt><trkpt lat="57.963095" lon="14.42256"><ele>163.0</ele><time>2016-06-18T05:21:39.299Z</time></trkpt><trkpt lat="57.963095" lon="14.42256"><ele>163.0</ele><time>2016-06-18T05:21:40.282Z</time></trkpt><trkpt lat="57.96291833" lon="14.42248833"><ele>164.0</ele><time>2016-06-18T05:21:41.298Z</time></trkpt><trkpt lat="57.96283" lon="14.42245333"><ele>164.0</ele><time>2016-06-18T05:21:42.301Z</time></trkpt><trkpt lat="57.96283" lon="14.42245333"><ele>164.0</ele><time>2016-06-18T05:21:43.314Z</time></trkpt><trkpt lat="57.96264667" lon="14.42239167"><ele>164.0</ele><time>2016-06-18T05:21:44.322Z</time></trkpt><trkpt lat="57.96255167" lon="14.42236"><ele>164.0</ele><time>2016-06-18T05:21:45.322Z</time></trkpt><trkpt lat="57.96255167" lon="14.42236"><ele>164.0</ele><time>2016-06-18T05:21:46.322Z</time></trkpt><trkpt lat="57.96236333" lon="14.42229"><ele>164.0</ele><time>2016-06-18T05:21:47.293Z</time></trkpt><trkpt lat="57.962265" lon="14.42224667"><ele>164.0</ele><time>2016-06-18T05:21:48.297Z</time></trkpt><trkpt lat="57.962265" lon="14.42224667"><ele>164.0</ele><time>2016-06-18T05:21:49.288Z</time></trkpt><trkpt lat="57.96207833" lon="14.42215333"><ele>164.0</ele><time>2016-06-18T05:21:50.299Z</time></trkpt><trkpt lat="57.96207833" lon="14.42215333"><ele>164.0</ele><time>2016-06-18T05:21:51.282Z</time></trkpt><trkpt lat="57.96189333" lon="14.42205167"><ele>164.0</ele><time>2016-06-18T05:21:52.308Z</time></trkpt><trkpt lat="57.96189333" lon="14.42205167"><ele>164.0</ele><time>2016-06-18T05:21:53.293Z</time></trkpt><trkpt lat="57.96170333" lon="14.42194333"><ele>165.0</ele><time>2016-06-18T05:21:54.304Z</time></trkpt><trkpt lat="57.96170333" lon="14.42194333"><ele>165.0</ele><time>2016-06-18T05:21:55.296Z</time></trkpt><trkpt lat="57.96150333" lon="14.421835"><ele>164.0</ele><time>2016-06-18T05:21:56.297Z</time></trkpt><trkpt lat="57.96150333" lon="14.421835"><ele>164.0</ele><time>2016-06-18T05:21:57.300Z</time></trkpt><trkpt lat="57.96130333" lon="14.42171167"><ele>164.0</ele><time>2016-06-18T05:21:58.306Z</time></trkpt><trkpt lat="57.96130333" lon="14.42171167"><ele>164.0</ele><time>2016-06-18T05:21:59.292Z</time></trkpt><trkpt lat="57.96111167" lon="14.42158167"><ele>164.0</ele><time>2016-06-18T05:22:00.326Z</time></trkpt><trkpt lat="57.96111167" lon="14.42158167"><ele>164.0</ele><time>2016-06-18T05:22:01.290Z</time></trkpt><trkpt lat="57.96093333" lon="14.421455"><ele>164.0</ele><time>2016-06-18T05:22:02.297Z</time></trkpt><trkpt lat="57.96085" lon="14.421395"><ele>163.0</ele><time>2016-06-18T05:22:03.286Z</time></trkpt><trkpt lat="57.96085" lon="14.421395"><ele>163.0</ele><time>2016-06-18T05:22:04.309Z</time></trkpt><trkpt lat="57.960695" lon="14.42128833"><ele>165.0</ele><time>2016-06-18T05:22:05.316Z</time></trkpt><trkpt lat="57.960615" lon="14.42123"><ele>165.0</ele><time>2016-06-18T05:22:06.308Z</time></trkpt><trkpt lat="57.960615" lon="14.42123"><ele>165.0</ele><time>2016-06-18T05:22:07.320Z</time></trkpt><trkpt lat="57.96045667" lon="14.42109833"><ele>165.0</ele><time>2016-06-18T05:22:08.287Z</time></trkpt><trkpt lat="57.96045667" lon="14.42109833"><ele>165.0</ele><time>2016-06-18T05:22:09.310Z</time></trkpt><trkpt lat="57.96030167" lon="14.42095833"><ele>165.0</ele><time>2016-06-18T05:22:10.287Z</time></trkpt><trkpt lat="57.96030167" lon="14.42095833"><ele>165.0</ele><time>2016-06-18T05:22:11.290Z</time></trkpt><trkpt lat="57.96015167" lon="14.42081333"><ele>166.0</ele><time>2016-06-18T05:22:12.284Z</time></trkpt><trkpt lat="57.96015167" lon="14.42081333"><ele>166.0</ele><time>2016-06-18T05:22:13.306Z</time></trkpt><trkpt lat="57.96001" lon="14.42067667"><ele>166.0</ele><time>2016-06-18T05:22:14.314Z</time></trkpt><trkpt lat="57.96001" lon="14.42067667"><ele>166.0</ele><time>2016-06-18T05:22:15.297Z</time></trkpt><trkpt lat="57.959885" lon="14.42054833"><ele>166.0</ele><time>2016-06-18T05:22:16.296Z</time></trkpt><trkpt lat="57.959885" lon="14.42054833"><ele>166.0</ele><time>2016-06-18T05:22:17.314Z</time></trkpt><trkpt lat="57.95976" lon="14.42042"><ele>166.0</ele><time>2016-06-18T05:22:18.320Z</time></trkpt><trkpt lat="57.95976" lon="14.42042"><ele>166.0</ele><time>2016-06-18T05:22:19.312Z</time></trkpt><trkpt lat="57.95963833" lon="14.42029833"><ele>165.0</ele><time>2016-06-18T05:22:20.289Z</time></trkpt><trkpt lat="57.95963833" lon="14.42029833"><ele>165.0</ele><time>2016-06-18T05:22:21.286Z</time></trkpt><trkpt lat="57.95951333" lon="14.42017833"><ele>165.0</ele><time>2016-06-18T05:22:22.292Z</time></trkpt><trkpt lat="57.95951333" lon="14.42017833"><ele>165.0</ele><time>2016-06-18T05:22:23.282Z</time></trkpt><trkpt lat="57.95939" lon="14.42004833"><ele>166.0</ele><time>2016-06-18T05:22:24.287Z</time></trkpt><trkpt lat="57.95939" lon="14.42004833"><ele>166.0</ele><time>2016-06-18T05:22:25.309Z</time></trkpt><trkpt lat="57.95926167" lon="14.41991667"><ele>166.0</ele><time>2016-06-18T05:22:26.316Z</time></trkpt><trkpt lat="57.95926167" lon="14.41991667"><ele>166.0</ele><time>2016-06-18T05:22:27.299Z</time></trkpt><trkpt lat="57.95913" lon="14.41978833"><ele>166.0</ele><time>2016-06-18T05:22:28.290Z</time></trkpt><trkpt lat="57.95913" lon="14.41978833"><ele>166.0</ele><time>2016-06-18T05:22:29.289Z</time></trkpt><trkpt lat="57.95899667" lon="14.41966"><ele>167.0</ele><time>2016-06-18T05:22:30.296Z</time></trkpt><trkpt lat="57.95892667" lon="14.41959167"><ele>167.0</ele><time>2016-06-18T05:22:31.292Z</time></trkpt><trkpt lat="57.958855" lon="14.41952333"><ele>167.0</ele><time>2016-06-18T05:22:32.314Z</time></trkpt><trkpt lat="57.958855" lon="14.41952333"><ele>167.0</ele><time>2016-06-18T05:22:33.296Z</time></trkpt><trkpt lat="57.95871333" lon="14.41938667"><ele>167.0</ele><time>2016-06-18T05:22:34.321Z</time></trkpt><trkpt lat="57.95871333" lon="14.41938667"><ele>167.0</ele><time>2016-06-18T05:22:35.303Z</time></trkpt><trkpt lat="57.95856833" lon="14.41924167"><ele>167.0</ele><time>2016-06-18T05:22:36.310Z</time></trkpt><trkpt lat="57.95856833" lon="14.41924167"><ele>167.0</ele><time>2016-06-18T05:22:37.301Z</time></trkpt><trkpt lat="57.958425" lon="14.41910167"><ele>167.0</ele><time>2016-06-18T05:22:38.318Z</time></trkpt><trkpt lat="57.958425" lon="14.41910167"><ele>167.0</ele><time>2016-06-18T05:22:39.300Z</time></trkpt><trkpt lat="57.958275" lon="14.41896167"><ele>168.0</ele><time>2016-06-18T05:22:40.307Z</time></trkpt><trkpt lat="57.95820167" lon="14.418895"><ele>168.0</ele><time>2016-06-18T05:22:41.298Z</time></trkpt><trkpt lat="57.95820167" lon="14.418895"><ele>168.0</ele><time>2016-06-18T05:22:42.308Z</time></trkpt><trkpt lat="57.95805333" lon="14.41874"><ele>168.0</ele><time>2016-06-18T05:22:43.314Z</time></trkpt><trkpt lat="57.95797833" lon="14.41865833"><ele>168.0</ele><time>2016-06-18T05:22:44.318Z</time></trkpt><trkpt lat="57.95797833" lon="14.41865833"><ele>168.0</ele><time>2016-06-18T05:22:45.299Z</time></trkpt><trkpt lat="57.95783" lon="14.41851333"><ele>168.0</ele><time>2016-06-18T05:22:46.306Z</time></trkpt><trkpt lat="57.95783" lon="14.41851333"><ele>168.0</ele><time>2016-06-18T05:22:47.300Z</time></trkpt><trkpt lat="57.95769167" lon="14.41837"><ele>169.0</ele><time>2016-06-18T05:22:48.287Z</time></trkpt><trkpt lat="57.95769167" lon="14.41837"><ele>169.0</ele><time>2016-06-18T05:22:49.283Z</time></trkpt><trkpt lat="57.957535" lon="14.41822"><ele>169.0</ele><time>2016-06-18T05:22:50.299Z</time></trkpt><trkpt lat="57.957535" lon="14.41822"><ele>169.0</ele><time>2016-06-18T05:22:51.282Z</time></trkpt><trkpt lat="57.95739" lon="14.41807833"><ele>169.0</ele><time>2016-06-18T05:22:52.308Z</time></trkpt><trkpt lat="57.95739" lon="14.41807833"><ele>169.0</ele><time>2016-06-18T05:22:53.309Z</time></trkpt><trkpt lat="57.95724167" lon="14.41793667"><ele>169.0</ele><time>2016-06-18T05:22:54.316Z</time></trkpt><trkpt lat="57.95724167" lon="14.41793667"><ele>169.0</ele><time>2016-06-18T05:22:55.297Z</time></trkpt><trkpt lat="57.95708667" lon="14.41780833"><ele>168.0</ele><time>2016-06-18T05:22:56.308Z</time></trkpt><trkpt lat="57.95708667" lon="14.41780833"><ele>168.0</ele><time>2016-06-18T05:22:57.283Z</time></trkpt><trkpt lat="57.95693167" lon="14.41768667"><ele>168.0</ele><time>2016-06-18T05:22:58.294Z</time></trkpt><trkpt lat="57.95693167" lon="14.41768667"><ele>168.0</ele><time>2016-06-18T05:22:59.318Z</time></trkpt><trkpt lat="57.95674833" lon="14.417585"><ele>169.0</ele><time>2016-06-18T05:23:00.282Z</time></trkpt><trkpt lat="57.95674833" lon="14.417585"><ele>169.0</ele><time>2016-06-18T05:23:01.304Z</time></trkpt><trkpt lat="57.956565" lon="14.41748333"><ele>169.0</ele><time>2016-06-18T05:23:02.311Z</time></trkpt><trkpt lat="57.956565" lon="14.41748333"><ele>169.0</ele><time>2016-06-18T05:23:03.293Z</time></trkpt><trkpt lat="57.956395" lon="14.41737833"><ele>169.0</ele><time>2016-06-18T05:23:04.303Z</time></trkpt><trkpt lat="57.956395" lon="14.41737833"><ele>169.0</ele><time>2016-06-18T05:23:05.303Z</time></trkpt><trkpt lat="57.95622333" lon="14.41727333"><ele>168.0</ele><time>2016-06-18T05:23:06.310Z</time></trkpt><trkpt lat="57.95622333" lon="14.41727333"><ele>168.0</ele><time>2016-06-18T05:23:07.296Z</time></trkpt><trkpt lat="57.95605167" lon="14.41716833"><ele>168.0</ele><time>2016-06-18T05:23:08.295Z</time></trkpt><trkpt lat="57.95605167" lon="14.41716833"><ele>168.0</ele><time>2016-06-18T05:23:09.299Z</time></trkpt><trkpt lat="57.95587667" lon="14.41706167"><ele>168.0</ele><time>2016-06-18T05:23:10.306Z</time></trkpt><trkpt lat="57.95587667" lon="14.41706167"><ele>168.0</ele><time>2016-06-18T05:23:11.309Z</time></trkpt><trkpt lat="57.95570167" lon="14.41695167"><ele>169.0</ele><time>2016-06-18T05:23:12.297Z</time></trkpt><trkpt lat="57.95570167" lon="14.41695167"><ele>169.0</ele><time>2016-06-18T05:23:13.302Z</time></trkpt><trkpt lat="57.95553333" lon="14.41684"><ele>168.0</ele><time>2016-06-18T05:23:14.290Z</time></trkpt><trkpt lat="57.95545" lon="14.41678667"><ele>168.0</ele><time>2016-06-18T05:23:15.321Z</time></trkpt><trkpt lat="57.95545" lon="14.41678667"><ele>168.0</ele><time>2016-06-18T05:23:16.304Z</time></trkpt><trkpt lat="57.955275" lon="14.41667167"><ele>168.0</ele><time>2016-06-18T05:23:17.288Z</time></trkpt><trkpt lat="57.955275" lon="14.41667167"><ele>168.0</ele><time>2016-06-18T05:23:18.287Z</time></trkpt><trkpt lat="57.95509" lon="14.41655167"><ele>168.0</ele><time>2016-06-18T05:23:19.295Z</time></trkpt><trkpt lat="57.95509" lon="14.41655167"><ele>168.0</ele><time>2016-06-18T05:23:20.320Z</time></trkpt><trkpt lat="57.95490333" lon="14.416425"><ele>169.0</ele><time>2016-06-18T05:23:21.290Z</time></trkpt><trkpt lat="57.95490333" lon="14.416425"><ele>169.0</ele><time>2016-06-18T05:23:22.296Z</time></trkpt><trkpt lat="57.954725" lon="14.41630667"><ele>169.0</ele><time>2016-06-18T05:23:23.304Z</time></trkpt><trkpt lat="57.95463833" lon="14.416245"><ele>169.0</ele><time>2016-06-18T05:23:24.285Z</time></trkpt><trkpt lat="57.95463833" lon="14.416245"><ele>169.0</ele><time>2016-06-18T05:23:25.307Z</time></trkpt><trkpt lat="57.95447167" lon="14.41612"><ele>169.0</ele><time>2016-06-18T05:23:26.285Z</time></trkpt><trkpt lat="57.95439" lon="14.41605667"><ele>169.0</ele><time>2016-06-18T05:23:27.313Z</time></trkpt><trkpt lat="57.95439" lon="14.41605667"><ele>169.0</ele><time>2016-06-18T05:23:28.296Z</time></trkpt><trkpt lat="57.95423167" lon="14.41592833"><ele>170.0</ele><time>2016-06-18T05:23:29.305Z</time></trkpt><trkpt lat="57.95415667" lon="14.41586333"><ele>170.0</ele><time>2016-06-18T05:23:30.285Z</time></trkpt><trkpt lat="57.95415667" lon="14.41586333"><ele>170.0</ele><time>2016-06-18T05:23:31.319Z</time></trkpt><trkpt lat="57.95400667" lon="14.41573833"><ele>171.0</ele><time>2016-06-18T05:23:32.285Z</time></trkpt><trkpt lat="57.95400667" lon="14.41573833"><ele>171.0</ele><time>2016-06-18T05:23:33.308Z</time></trkpt><trkpt lat="57.95386333" lon="14.41561667"><ele>171.0</ele><time>2016-06-18T05:23:34.318Z</time></trkpt><trkpt lat="57.95379833" lon="14.415555"><ele>172.0</ele><time>2016-06-18T05:23:35.298Z</time></trkpt><trkpt lat="57.95379833" lon="14.415555"><ele>172.0</ele><time>2016-06-18T05:23:36.321Z</time></trkpt><trkpt lat="57.95366167" lon="14.41543"><ele>172.0</ele><time>2016-06-18T05:23:37.294Z</time></trkpt><trkpt lat="57.95359167" lon="14.41536667"><ele>172.0</ele><time>2016-06-18T05:23:38.321Z</time></trkpt><trkpt lat="57.95359167" lon="14.41536667"><ele>172.0</ele><time>2016-06-18T05:23:39.315Z</time></trkpt><trkpt lat="57.95344833" lon="14.41524"><ele>172.0</ele><time>2016-06-18T05:23:40.282Z</time></trkpt><trkpt lat="57.95337167" lon="14.41518"><ele>172.0</ele><time>2016-06-18T05:23:41.290Z</time></trkpt><trkpt lat="57.95337167" lon="14.41518"><ele>172.0</ele><time>2016-06-18T05:23:42.313Z</time></trkpt><trkpt lat="57.95321167" lon="14.41508667"><ele>172.0</ele><time>2016-06-18T05:23:43.282Z</time></trkpt><trkpt lat="57.95321167" lon="14.41508667"><ele>172.0</ele><time>2016-06-18T05:23:44.305Z</time></trkpt><trkpt lat="57.95303667" lon="14.41501833"><ele>171.0</ele><time>2016-06-18T05:23:45.316Z</time></trkpt><trkpt lat="57.95303667" lon="14.41501833"><ele>171.0</ele><time>2016-06-18T05:23:46.297Z</time></trkpt><trkpt lat="57.95285333" lon="14.414975"><ele>169.0</ele><time>2016-06-18T05:23:47.317Z</time></trkpt><trkpt lat="57.95285333" lon="14.414975"><ele>169.0</ele><time>2016-06-18T05:23:48.297Z</time></trkpt><trkpt lat="57.95266167" lon="14.41494667"><ele>169.0</ele><time>2016-06-18T05:23:49.302Z</time></trkpt><trkpt lat="57.95256167" lon="14.41492833"><ele>169.0</ele><time>2016-06-18T05:23:50.295Z</time></trkpt><trkpt lat="57.95256167" lon="14.41492833"><ele>169.0</ele><time>2016-06-18T05:23:51.315Z</time></trkpt><trkpt lat="57.95235833" lon="14.4149"><ele>168.0</ele><time>2016-06-18T05:23:52.282Z</time></trkpt><trkpt lat="57.95225333" lon="14.41488833"><ele>168.0</ele><time>2016-06-18T05:23:53.296Z</time></trkpt><trkpt lat="57.95225333" lon="14.41488833"><ele>168.0</ele><time>2016-06-18T05:23:54.318Z</time></trkpt><trkpt lat="57.95203667" lon="14.41485667"><ele>167.0</ele><time>2016-06-18T05:23:55.286Z</time></trkpt><trkpt lat="57.95192833" lon="14.41484333"><ele>167.0</ele><time>2016-06-18T05:23:56.288Z</time></trkpt><trkpt lat="57.95192833" lon="14.41484333"><ele>167.0</ele><time>2016-06-18T05:23:57.289Z</time></trkpt><trkpt lat="57.95171167" lon="14.41482"><ele>166.0</ele><time>2016-06-18T05:23:58.305Z</time></trkpt><trkpt lat="57.951605" lon="14.41481167"><ele>166.0</ele><time>2016-06-18T05:23:59.289Z</time></trkpt><trkpt lat="57.951605" lon="14.41481167"><ele>166.0</ele><time>2016-06-18T05:24:00.298Z</time></trkpt><trkpt lat="57.95140167" lon="14.41478667"><ele>166.0</ele><time>2016-06-18T05:24:01.307Z</time></trkpt><trkpt lat="57.951305" lon="14.41477"><ele>165.0</ele><time>2016-06-18T05:24:02.289Z</time></trkpt><trkpt lat="57.951305" lon="14.41477"><ele>165.0</ele><time>2016-06-18T05:24:03.312Z</time></trkpt><trkpt lat="57.95112333" lon="14.41474167"><ele>166.0</ele><time>2016-06-18T05:24:04.319Z</time></trkpt><trkpt lat="57.95103667" lon="14.414725"><ele>166.0</ele><time>2016-06-18T05:24:05.316Z</time></trkpt><trkpt lat="57.95103667" lon="14.414725"><ele>166.0</ele><time>2016-06-18T05:24:06.296Z</time></trkpt><trkpt lat="57.95087" lon="14.41468333"><ele>167.0</ele><time>2016-06-18T05:24:07.304Z</time></trkpt><trkpt lat="57.95078833" lon="14.41465833"><ele>167.0</ele><time>2016-06-18T05:24:08.286Z</time></trkpt><trkpt lat="57.95078833" lon="14.41465833"><ele>167.0</ele><time>2016-06-18T05:24:09.313Z</time></trkpt><trkpt lat="57.95063" lon="14.41461833"><ele>167.0</ele><time>2016-06-18T05:24:10.286Z</time></trkpt><trkpt lat="57.95063" lon="14.41461833"><ele>167.0</ele><time>2016-06-18T05:24:11.299Z</time></trkpt><trkpt lat="57.950465" lon="14.41458667"><ele>168.0</ele><time>2016-06-18T05:24:12.319Z</time></trkpt><trkpt lat="57.950465" lon="14.41458667"><ele>168.0</ele><time>2016-06-18T05:24:13.302Z</time></trkpt><trkpt lat="57.950285" lon="14.41455167"><ele>168.0</ele><time>2016-06-18T05:24:14.298Z</time></trkpt><trkpt lat="57.950285" lon="14.41455167"><ele>168.0</ele><time>2016-06-18T05:24:15.312Z</time></trkpt><trkpt lat="57.95010167" lon="14.414515"><ele>168.0</ele><time>2016-06-18T05:24:16.319Z</time></trkpt><trkpt lat="57.95010167" lon="14.414515"><ele>168.0</ele><time>2016-06-18T05:24:17.302Z</time></trkpt><trkpt lat="57.94991667" lon="14.41447167"><ele>168.0</ele><time>2016-06-18T05:24:18.307Z</time></trkpt><trkpt lat="57.94991667" lon="14.41447167"><ele>168.0</ele><time>2016-06-18T05:24:19.313Z</time></trkpt><trkpt lat="57.94974167" lon="14.41442333"><ele>168.0</ele><time>2016-06-18T05:24:20.320Z</time></trkpt><trkpt lat="57.94974167" lon="14.41442333"><ele>168.0</ele><time>2016-06-18T05:24:21.301Z</time></trkpt><trkpt lat="57.949575" lon="14.41436667"><ele>168.0</ele><time>2016-06-18T05:24:22.287Z</time></trkpt><trkpt lat="57.949575" lon="14.41436667"><ele>168.0</ele><time>2016-06-18T05:24:23.306Z</time></trkpt><trkpt lat="57.94942" lon="14.41429667"><ele>169.0</ele><time>2016-06-18T05:24:24.312Z</time></trkpt><trkpt lat="57.94942" lon="14.41429667"><ele>169.0</ele><time>2016-06-18T05:24:25.294Z</time></trkpt><trkpt lat="57.94927333" lon="14.41420833"><ele>169.0</ele><time>2016-06-18T05:24:26.323Z</time></trkpt><trkpt lat="57.94927333" lon="14.41420833"><ele>169.0</ele><time>2016-06-18T05:24:27.300Z</time></trkpt><trkpt lat="57.94913667" lon="14.414105"><ele>170.0</ele><time>2016-06-18T05:24:28.306Z</time></trkpt><trkpt lat="57.94913667" lon="14.414105"><ele>170.0</ele><time>2016-06-18T05:24:29.296Z</time></trkpt><trkpt lat="57.949005" lon="14.41399833"><ele>171.0</ele><time>2016-06-18T05:24:30.288Z</time></trkpt><trkpt lat="57.949005" lon="14.41399833"><ele>171.0</ele><time>2016-06-18T05:24:31.317Z</time></trkpt><trkpt lat="57.94888667" lon="14.41389333"><ele>172.0</ele><time>2016-06-18T05:24:32.283Z</time></trkpt><trkpt lat="57.94888667" lon="14.41389333"><ele>172.0</ele><time>2016-06-18T05:24:33.306Z</time></trkpt><trkpt lat="57.94878833" lon="14.413795"><ele>173.0</ele><time>2016-06-18T05:24:34.294Z</time></trkpt><trkpt lat="57.94878833" lon="14.413795"><ele>173.0</ele><time>2016-06-18T05:24:35.299Z</time></trkpt><trkpt lat="57.94870667" lon="14.41371167"><ele>174.0</ele><time>2016-06-18T05:24:36.307Z</time></trkpt><trkpt lat="57.94870667" lon="14.41371167"><ele>174.0</ele><time>2016-06-18T05:24:37.295Z</time></trkpt><trkpt lat="57.94863333" lon="14.41363333"><ele>175.0</ele><time>2016-06-18T05:24:38.311Z</time></trkpt><trkpt lat="57.94859667" lon="14.41359333"><ele>175.0</ele><time>2016-06-18T05:24:39.295Z</time></trkpt><trkpt lat="57.94859667" lon="14.41359333"><ele>175.0</ele><time>2016-06-18T05:24:40.313Z</time></trkpt><trkpt lat="57.94852667" lon="14.41350833"><ele>176.0</ele><time>2016-06-18T05:24:41.318Z</time></trkpt><trkpt lat="57.94852667" lon="14.41350833"><ele>176.0</ele><time>2016-06-18T05:24:42.289Z</time></trkpt><trkpt lat="57.94845833" lon="14.41341667"><ele>177.0</ele><time>2016-06-18T05:24:43.300Z</time></trkpt><trkpt lat="57.94842833" lon="14.41337333"><ele>178.0</ele><time>2016-06-18T05:24:44.297Z</time></trkpt><trkpt lat="57.94842833" lon="14.41337333"><ele>178.0</ele><time>2016-06-18T05:24:45.319Z</time></trkpt><trkpt lat="57.948365" lon="14.413285"><ele>179.0</ele><time>2016-06-18T05:24:46.286Z</time></trkpt><trkpt lat="57.948365" lon="14.413285"><ele>179.0</ele><time>2016-06-18T05:24:47.310Z</time></trkpt><trkpt lat="57.94829667" lon="14.41319167"><ele>180.0</ele><time>2016-06-18T05:24:48.298Z</time></trkpt><trkpt lat="57.94826" lon="14.413145"><ele>181.0</ele><time>2016-06-18T05:24:49.282Z</time></trkpt><trkpt lat="57.94822667" lon="14.41309167"><ele>181.0</ele><time>2016-06-18T05:24:50.297Z</time></trkpt><trkpt lat="57.94822667" lon="14.41309167"><ele>181.0</ele><time>2016-06-18T05:24:51.304Z</time></trkpt><trkpt lat="57.94814333" lon="14.41298833"><ele>182.0</ele><time>2016-06-18T05:24:52.310Z</time></trkpt><trkpt lat="57.94814333" lon="14.41298833"><ele>182.0</ele><time>2016-06-18T05:24:53.296Z</time></trkpt><trkpt lat="57.948055" lon="14.41288833"><ele>184.0</ele><time>2016-06-18T05:24:54.291Z</time></trkpt><trkpt lat="57.94800667" lon="14.41283"><ele>184.0</ele><time>2016-06-18T05:24:55.299Z</time></trkpt><trkpt lat="57.94800667" lon="14.41283"><ele>184.0</ele><time>2016-06-18T05:24:56.321Z</time></trkpt><trkpt lat="57.9479" lon="14.41271"><ele>184.0</ele><time>2016-06-18T05:24:57.288Z</time></trkpt><trkpt lat="57.9479" lon="14.41271"><ele>184.0</ele><time>2016-06-18T05:24:58.298Z</time></trkpt><trkpt lat="57.94779333" lon="14.41257167"><ele>185.0</ele><time>2016-06-18T05:24:59.305Z</time></trkpt><trkpt lat="57.94779333" lon="14.41257167"><ele>185.0</ele><time>2016-06-18T05:25:00.298Z</time></trkpt><trkpt lat="57.94765667" lon="14.41241333"><ele>186.0</ele><time>2016-06-18T05:25:01.287Z</time></trkpt><trkpt lat="57.94765667" lon="14.41241333"><ele>186.0</ele><time>2016-06-18T05:25:02.312Z</time></trkpt><trkpt lat="57.94753" lon="14.41223167"><ele>186.0</ele><time>2016-06-18T05:25:03.283Z</time></trkpt><trkpt lat="57.947465" lon="14.41213833"><ele>186.0</ele><time>2016-06-18T05:25:04.306Z</time></trkpt><trkpt lat="57.947465" lon="14.41213833"><ele>186.0</ele><time>2016-06-18T05:25:05.288Z</time></trkpt><trkpt lat="57.947335" lon="14.41193"><ele>186.0</ele><time>2016-06-18T05:25:06.299Z</time></trkpt><trkpt lat="57.947335" lon="14.41193"><ele>186.0</ele><time>2016-06-18T05:25:07.282Z</time></trkpt><trkpt lat="57.94720167" lon="14.411715"><ele>186.0</ele><time>2016-06-18T05:25:08.308Z</time></trkpt><trkpt lat="57.94720167" lon="14.411715"><ele>186.0</ele><time>2016-06-18T05:25:09.311Z</time></trkpt><trkpt lat="57.94705667" lon="14.41150333"><ele>186.0</ele><time>2016-06-18T05:25:10.317Z</time></trkpt><trkpt lat="57.94705667" lon="14.41150333"><ele>186.0</ele><time>2016-06-18T05:25:11.321Z</time></trkpt><trkpt lat="57.94690833" lon="14.41130667"><ele>186.0</ele><time>2016-06-18T05:25:12.307Z</time></trkpt><trkpt lat="57.94690833" lon="14.41130667"><ele>186.0</ele><time>2016-06-18T05:25:13.292Z</time></trkpt><trkpt lat="57.94676833" lon="14.41112167"><ele>186.0</ele><time>2016-06-18T05:25:14.285Z</time></trkpt><trkpt lat="57.94676833" lon="14.41112167"><ele>186.0</ele><time>2016-06-18T05:25:15.313Z</time></trkpt><trkpt lat="57.946625" lon="14.41091833"><ele>185.0</ele><time>2016-06-18T05:25:16.321Z</time></trkpt><trkpt lat="57.946625" lon="14.41091833"><ele>185.0</ele><time>2016-06-18T05:25:17.302Z</time></trkpt><trkpt lat="57.94648" lon="14.41071167"><ele>184.0</ele><time>2016-06-18T05:25:18.284Z</time></trkpt><trkpt lat="57.94648" lon="14.41071167"><ele>184.0</ele><time>2016-06-18T05:25:19.308Z</time></trkpt><trkpt lat="57.94632667" lon="14.41052667"><ele>182.0</ele><time>2016-06-18T05:25:20.315Z</time></trkpt><trkpt lat="57.94632667" lon="14.41052667"><ele>182.0</ele><time>2016-06-18T05:25:21.319Z</time></trkpt><trkpt lat="57.94615833" lon="14.41036"><ele>181.0</ele><time>2016-06-18T05:25:22.304Z</time></trkpt><trkpt lat="57.94615833" lon="14.41036"><ele>181.0</ele><time>2016-06-18T05:25:23.298Z</time></trkpt><trkpt lat="57.94598333" lon="14.41021667"><ele>180.0</ele><time>2016-06-18T05:25:24.305Z</time></trkpt><trkpt lat="57.94589167" lon="14.41015167"><ele>179.0</ele><time>2016-06-18T05:25:25.306Z</time></trkpt><trkpt lat="57.9458" lon="14.41009167"><ele>178.0</ele><time>2016-06-18T05:25:26.292Z</time></trkpt><trkpt lat="57.9458" lon="14.41009167"><ele>178.0</ele><time>2016-06-18T05:25:27.314Z</time></trkpt><trkpt lat="57.94560333" lon="14.40998667"><ele>177.0</ele><time>2016-06-18T05:25:28.288Z</time></trkpt><trkpt lat="57.94560333" lon="14.40998667"><ele>177.0</ele><time>2016-06-18T05:25:29.310Z</time></trkpt><trkpt lat="57.9454" lon="14.409895"><ele>176.0</ele><time>2016-06-18T05:25:30.287Z</time></trkpt><trkpt lat="57.94530333" lon="14.40985167"><ele>177.0</ele><time>2016-06-18T05:25:31.286Z</time></trkpt><trkpt lat="57.94530333" lon="14.40985167"><ele>177.0</ele><time>2016-06-18T05:25:32.318Z</time></trkpt><trkpt lat="57.94510167" lon="14.40977833"><ele>177.0</ele><time>2016-06-18T05:25:33.289Z</time></trkpt><trkpt lat="57.94510167" lon="14.40977833"><ele>177.0</ele><time>2016-06-18T05:25:34.313Z</time></trkpt><trkpt lat="57.94491167" lon="14.40970667"><ele>177.0</ele><time>2016-06-18T05:25:35.288Z</time></trkpt><trkpt lat="57.94491167" lon="14.40970667"><ele>177.0</ele><time>2016-06-18T05:25:36.299Z</time></trkpt><trkpt lat="57.94473833" lon="14.40964167"><ele>177.0</ele><time>2016-06-18T05:25:37.294Z</time></trkpt><trkpt lat="57.94473833" lon="14.40964167"><ele>177.0</ele><time>2016-06-18T05:25:38.317Z</time></trkpt><trkpt lat="57.94457833" lon="14.40958"><ele>177.0</ele><time>2016-06-18T05:25:39.319Z</time></trkpt><trkpt lat="57.94457833" lon="14.40958"><ele>177.0</ele><time>2016-06-18T05:25:40.300Z</time></trkpt><trkpt lat="57.94442667" lon="14.40952"><ele>176.0</ele><time>2016-06-18T05:25:41.308Z</time></trkpt><trkpt lat="57.944355" lon="14.40949333"><ele>176.0</ele><time>2016-06-18T05:25:42.292Z</time></trkpt><trkpt lat="57.94428167" lon="14.40946667"><ele>176.0</ele><time>2016-06-18T05:25:43.323Z</time></trkpt><trkpt lat="57.94428167" lon="14.40946667"><ele>176.0</ele><time>2016-06-18T05:25:44.296Z</time></trkpt><trkpt lat="57.94413333" lon="14.40941"><ele>175.0</ele><time>2016-06-18T05:25:45.304Z</time></trkpt><trkpt lat="57.94405833" lon="14.40938167"><ele>175.0</ele><time>2016-06-18T05:25:46.308Z</time></trkpt><trkpt lat="57.94405833" lon="14.40938167"><ele>175.0</ele><time>2016-06-18T05:25:47.295Z</time></trkpt><trkpt lat="57.943905" lon="14.409325"><ele>175.0</ele><time>2016-06-18T05:25:48.302Z</time></trkpt><trkpt lat="57.943905" lon="14.409325"><ele>175.0</ele><time>2016-06-18T05:25:49.287Z</time></trkpt><trkpt lat="57.94376167" lon="14.409275"><ele>174.0</ele><time>2016-06-18T05:25:50.297Z</time></trkpt><trkpt lat="57.94376167" lon="14.409275"><ele>174.0</ele><time>2016-06-18T05:25:51.313Z</time></trkpt><trkpt lat="57.94363333" lon="14.40923833"><ele>173.0</ele><time>2016-06-18T05:25:52.320Z</time></trkpt><trkpt lat="57.94357833" lon="14.40922833"><ele>173.0</ele><time>2016-06-18T05:25:53.287Z</time></trkpt><trkpt lat="57.94357833" lon="14.40922833"><ele>173.0</ele><time>2016-06-18T05:25:54.313Z</time></trkpt><trkpt lat="57.94346667" lon="14.40920667"><ele>173.0</ele><time>2016-06-18T05:25:55.320Z</time></trkpt><trkpt lat="57.94340333" lon="14.40918833"><ele>173.0</ele><time>2016-06-18T05:25:56.293Z</time></trkpt><trkpt lat="57.94340333" lon="14.40918833"><ele>173.0</ele><time>2016-06-18T05:25:57.307Z</time></trkpt><trkpt lat="57.943275" lon="14.40915667"><ele>173.0</ele><time>2016-06-18T05:25:58.318Z</time></trkpt><trkpt lat="57.943275" lon="14.40915667"><ele>173.0</ele><time>2016-06-18T05:25:59.310Z</time></trkpt><trkpt lat="57.94313833" lon="14.40913"><ele>173.0</ele><time>2016-06-18T05:26:00.285Z</time></trkpt><trkpt lat="57.94313833" lon="14.40913"><ele>173.0</ele><time>2016-06-18T05:26:01.306Z</time></trkpt><trkpt lat="57.94300667" lon="14.409105"><ele>173.0</ele><time>2016-06-18T05:26:02.302Z</time></trkpt><trkpt lat="57.94300667" lon="14.409105"><ele>173.0</ele><time>2016-06-18T05:26:03.286Z</time></trkpt><trkpt lat="57.94287" lon="14.40908333"><ele>173.0</ele><time>2016-06-18T05:26:04.298Z</time></trkpt><trkpt lat="57.94287" lon="14.40908333"><ele>173.0</ele><time>2016-06-18T05:26:05.313Z</time></trkpt><trkpt lat="57.94273333" lon="14.40906167"><ele>173.0</ele><time>2016-06-18T05:26:06.294Z</time></trkpt><trkpt lat="57.942665" lon="14.40904667"><ele>173.0</ele><time>2016-06-18T05:26:07.318Z</time></trkpt><trkpt lat="57.942665" lon="14.40904667"><ele>173.0</ele><time>2016-06-18T05:26:08.300Z</time></trkpt><trkpt lat="57.94252833" lon="14.40901167"><ele>173.0</ele><time>2016-06-18T05:26:09.320Z</time></trkpt><trkpt lat="57.94246" lon="14.40899167"><ele>172.0</ele><time>2016-06-18T05:26:10.286Z</time></trkpt><trkpt lat="57.94246" lon="14.40899167"><ele>172.0</ele><time>2016-06-18T05:26:11.298Z</time></trkpt><trkpt lat="57.94233" lon="14.40894667"><ele>172.0</ele><time>2016-06-18T05:26:12.283Z</time></trkpt><trkpt lat="57.94233" lon="14.40894667"><ele>172.0</ele><time>2016-06-18T05:26:13.308Z</time></trkpt><trkpt lat="57.94220167" lon="14.4089"><ele>172.0</ele><time>2016-06-18T05:26:14.314Z</time></trkpt><trkpt lat="57.94220167" lon="14.4089"><ele>172.0</ele><time>2016-06-18T05:26:15.296Z</time></trkpt><trkpt lat="57.94208" lon="14.40885667"><ele>173.0</ele><time>2016-06-18T05:26:16.303Z</time></trkpt><trkpt lat="57.94208" lon="14.40885667"><ele>173.0</ele><time>2016-06-18T05:26:17.286Z</time></trkpt><trkpt lat="57.94196833" lon="14.40880333"><ele>173.0</ele><time>2016-06-18T05:26:18.309Z</time></trkpt><trkpt lat="57.94196833" lon="14.40880333"><ele>173.0</ele><time>2016-06-18T05:26:19.285Z</time></trkpt><trkpt lat="57.94185667" lon="14.408745"><ele>174.0</ele><time>2016-06-18T05:26:20.307Z</time></trkpt><trkpt lat="57.94185667" lon="14.408745"><ele>174.0</ele><time>2016-06-18T05:26:21.312Z</time></trkpt><trkpt lat="57.94173667" lon="14.40868"><ele>174.0</ele><time>2016-06-18T05:26:22.318Z</time></trkpt><trkpt lat="57.94173667" lon="14.40868"><ele>174.0</ele><time>2016-06-18T05:26:23.302Z</time></trkpt><trkpt lat="57.94161333" lon="14.408595"><ele>175.0</ele><time>2016-06-18T05:26:24.306Z</time></trkpt><trkpt lat="57.94161333" lon="14.408595"><ele>175.0</ele><time>2016-06-18T05:26:25.285Z</time></trkpt><trkpt lat="57.94148667" lon="14.40849167"><ele>175.0</ele><time>2016-06-18T05:26:26.288Z</time></trkpt><trkpt lat="57.94148667" lon="14.40849167"><ele>175.0</ele><time>2016-06-18T05:26:27.321Z</time></trkpt><trkpt lat="57.94135333" lon="14.40837167"><ele>175.0</ele><time>2016-06-18T05:26:28.290Z</time></trkpt><trkpt lat="57.94135333" lon="14.40837167"><ele>175.0</ele><time>2016-06-18T05:26:29.318Z</time></trkpt><trkpt lat="57.94122" lon="14.40824667"><ele>175.0</ele><time>2016-06-18T05:26:30.290Z</time></trkpt><trkpt lat="57.94122" lon="14.40824667"><ele>175.0</ele><time>2016-06-18T05:26:31.297Z</time></trkpt><trkpt lat="57.94108667" lon="14.408125"><ele>175.0</ele><time>2016-06-18T05:26:32.304Z</time></trkpt><trkpt lat="57.94108667" lon="14.408125"><ele>175.0</ele><time>2016-06-18T05:26:33.285Z</time></trkpt><trkpt lat="57.94095" lon="14.40801"><ele>176.0</ele><time>2016-06-18T05:26:34.300Z</time></trkpt><trkpt lat="57.94088167" lon="14.40795167"><ele>176.0</ele><time>2016-06-18T05:26:35.307Z</time></trkpt><trkpt lat="57.94088167" lon="14.40795167"><ele>176.0</ele><time>2016-06-18T05:26:36.289Z</time></trkpt><trkpt lat="57.94075" lon="14.40784833"><ele>176.0</ele><time>2016-06-18T05:26:37.294Z</time></trkpt><trkpt lat="57.94075" lon="14.40784833"><ele>176.0</ele><time>2016-06-18T05:26:38.317Z</time></trkpt><trkpt lat="57.94062167" lon="14.40774833"><ele>176.0</ele><time>2016-06-18T05:26:39.284Z</time></trkpt><trkpt lat="57.94056" lon="14.40770833"><ele>176.0</ele><time>2016-06-18T05:26:40.298Z</time></trkpt><trkpt lat="57.94056" lon="14.40770833"><ele>176.0</ele><time>2016-06-18T05:26:41.314Z</time></trkpt><trkpt lat="57.94043833" lon="14.40763833"><ele>176.0</ele><time>2016-06-18T05:26:42.286Z</time></trkpt><trkpt lat="57.94043833" lon="14.40763833"><ele>176.0</ele><time>2016-06-18T05:26:43.309Z</time></trkpt><trkpt lat="57.94031667" lon="14.40757833"><ele>177.0</ele><time>2016-06-18T05:26:44.298Z</time></trkpt><trkpt lat="57.94031667" lon="14.40757833"><ele>177.0</ele><time>2016-06-18T05:26:45.296Z</time></trkpt><trkpt lat="57.94017333" lon="14.407505"><ele>176.0</ele><time>2016-06-18T05:26:46.303Z</time></trkpt><trkpt lat="57.940095" lon="14.40746833"><ele>176.0</ele><time>2016-06-18T05:26:47.287Z</time></trkpt><trkpt lat="57.94001667" lon="14.407435"><ele>176.0</ele><time>2016-06-18T05:26:48.308Z</time></trkpt><trkpt lat="57.94001667" lon="14.407435"><ele>176.0</ele><time>2016-06-18T05:26:49.316Z</time></trkpt><trkpt lat="57.93985" lon="14.407365"><ele>176.0</ele><time>2016-06-18T05:26:50.283Z</time></trkpt><trkpt lat="57.93985" lon="14.407365"><ele>176.0</ele><time>2016-06-18T05:26:51.306Z</time></trkpt><trkpt lat="57.93967833" lon="14.40729167"><ele>176.0</ele><time>2016-06-18T05:26:52.298Z</time></trkpt><trkpt lat="57.93967833" lon="14.40729167"><ele>176.0</ele><time>2016-06-18T05:26:53.321Z</time></trkpt><trkpt lat="57.93950667" lon="14.40721833"><ele>176.0</ele><time>2016-06-18T05:26:54.288Z</time></trkpt><trkpt lat="57.93942333" lon="14.407185"><ele>176.0</ele><time>2016-06-18T05:26:55.285Z</time></trkpt><trkpt lat="57.93934" lon="14.40715333"><ele>176.0</ele><time>2016-06-18T05:26:56.308Z</time></trkpt><trkpt lat="57.93934" lon="14.40715333"><ele>176.0</ele><time>2016-06-18T05:26:57.300Z</time></trkpt><trkpt lat="57.93917333" lon="14.40709167"><ele>176.0</ele><time>2016-06-18T05:26:58.308Z</time></trkpt><trkpt lat="57.93908833" lon="14.40706"><ele>176.0</ele><time>2016-06-18T05:26:59.291Z</time></trkpt><trkpt lat="57.93908833" lon="14.40706"><ele>176.0</ele><time>2016-06-18T05:27:00.312Z</time></trkpt><trkpt lat="57.938925" lon="14.40699833"><ele>176.0</ele><time>2016-06-18T05:27:01.319Z</time></trkpt><trkpt lat="57.93884167" lon="14.40697167"><ele>176.0</ele><time>2016-06-18T05:27:02.303Z</time></trkpt><trkpt lat="57.93884167" lon="14.40697167"><ele>176.0</ele><time>2016-06-18T05:27:03.284Z</time></trkpt><trkpt lat="57.93867667" lon="14.406915"><ele>177.0</ele><time>2016-06-18T05:27:04.299Z</time></trkpt><trkpt lat="57.93859333" lon="14.40688167"><ele>177.0</ele><time>2016-06-18T05:27:05.288Z</time></trkpt><trkpt lat="57.93851" lon="14.40684833"><ele>177.0</ele><time>2016-06-18T05:27:06.287Z</time></trkpt><trkpt lat="57.93851" lon="14.40684833"><ele>177.0</ele><time>2016-06-18T05:27:07.311Z</time></trkpt><trkpt lat="57.93834333" lon="14.40677167"><ele>176.0</ele><time>2016-06-18T05:27:08.318Z</time></trkpt><trkpt lat="57.93834333" lon="14.40677167"><ele>176.0</ele><time>2016-06-18T05:27:09.309Z</time></trkpt><trkpt lat="57.93817" lon="14.40669"><ele>176.0</ele><time>2016-06-18T05:27:10.298Z</time></trkpt><trkpt lat="57.93817" lon="14.40669"><ele>176.0</ele><time>2016-06-18T05:27:11.297Z</time></trkpt><trkpt lat="57.93800167" lon="14.40662167"><ele>176.0</ele><time>2016-06-18T05:27:12.321Z</time></trkpt><trkpt lat="57.93800167" lon="14.40662167"><ele>176.0</ele><time>2016-06-18T05:27:13.313Z</time></trkpt><trkpt lat="57.93784" lon="14.40655833"><ele>177.0</ele><time>2016-06-18T05:27:14.320Z</time></trkpt><trkpt lat="57.93776333" lon="14.40653333"><ele>178.0</ele><time>2016-06-18T05:27:15.305Z</time></trkpt><trkpt lat="57.937685" lon="14.40651333"><ele>177.0</ele><time>2016-06-18T05:27:16.308Z</time></trkpt><trkpt lat="57.937685" lon="14.40651333"><ele>177.0</ele><time>2016-06-18T05:27:17.315Z</time></trkpt><trkpt lat="57.93754167" lon="14.40644667"><ele>178.0</ele><time>2016-06-18T05:27:18.321Z</time></trkpt><trkpt lat="57.93754167" lon="14.40644667"><ele>178.0</ele><time>2016-06-18T05:27:19.310Z</time></trkpt><trkpt lat="57.93738667" lon="14.40636667"><ele>178.0</ele><time>2016-06-18T05:27:20.304Z</time></trkpt><trkpt lat="57.93738667" lon="14.40636667"><ele>178.0</ele><time>2016-06-18T05:27:21.317Z</time></trkpt><trkpt lat="57.937225" lon="14.40628833"><ele>178.0</ele><time>2016-06-18T05:27:22.284Z</time></trkpt><trkpt lat="57.937225" lon="14.40628833"><ele>178.0</ele><time>2016-06-18T05:27:23.299Z</time></trkpt><trkpt lat="57.93706667" lon="14.40620333"><ele>178.0</ele><time>2016-06-18T05:27:24.320Z</time></trkpt><trkpt lat="57.93706667" lon="14.40620333"><ele>178.0</ele><time>2016-06-18T05:27:25.303Z</time></trkpt><trkpt lat="57.936915" lon="14.40610667"><ele>178.0</ele><time>2016-06-18T05:27:26.310Z</time></trkpt><trkpt lat="57.936915" lon="14.40610667"><ele>178.0</ele><time>2016-06-18T05:27:27.294Z</time></trkpt><trkpt lat="57.936765" lon="14.405985"><ele>177.0</ele><time>2016-06-18T05:27:28.289Z</time></trkpt><trkpt lat="57.936765" lon="14.405985"><ele>177.0</ele><time>2016-06-18T05:27:29.311Z</time></trkpt><trkpt lat="57.93661333" lon="14.40584667"><ele>177.0</ele><time>2016-06-18T05:27:30.326Z</time></trkpt><trkpt lat="57.93661333" lon="14.40584667"><ele>177.0</ele><time>2016-06-18T05:27:31.320Z</time></trkpt><trkpt lat="57.93646" lon="14.40569167"><ele>177.0</ele><time>2016-06-18T05:27:32.301Z</time></trkpt><trkpt lat="57.93646" lon="14.40569167"><ele>177.0</ele><time>2016-06-18T05:27:33.286Z</time></trkpt><trkpt lat="57.93631" lon="14.40553333"><ele>177.0</ele><time>2016-06-18T05:27:34.303Z</time></trkpt><trkpt lat="57.93631" lon="14.40553333"><ele>177.0</ele><time>2016-06-18T05:27:35.314Z</time></trkpt><trkpt lat="57.93616167" lon="14.40537"><ele>177.0</ele><time>2016-06-18T05:27:36.307Z</time></trkpt><trkpt lat="57.93608833" lon="14.40529"><ele>178.0</ele><time>2016-06-18T05:27:37.318Z</time></trkpt><trkpt lat="57.93608833" lon="14.40529"><ele>178.0</ele><time>2016-06-18T05:27:38.300Z</time></trkpt><trkpt lat="57.93593667" lon="14.405125"><ele>178.0</ele><time>2016-06-18T05:27:39.312Z</time></trkpt><trkpt lat="57.93593667" lon="14.405125"><ele>178.0</ele><time>2016-06-18T05:27:40.295Z</time></trkpt><trkpt lat="57.93579" lon="14.40496667"><ele>178.0</ele><time>2016-06-18T05:27:41.310Z</time></trkpt><trkpt lat="57.93571833" lon="14.40488833"><ele>178.0</ele><time>2016-06-18T05:27:42.294Z</time></trkpt><trkpt lat="57.93571833" lon="14.40488833"><ele>178.0</ele><time>2016-06-18T05:27:43.318Z</time></trkpt><trkpt lat="57.93557333" lon="14.40473"><ele>178.0</ele><time>2016-06-18T05:27:44.291Z</time></trkpt><trkpt lat="57.93557333" lon="14.40473"><ele>178.0</ele><time>2016-06-18T05:27:45.293Z</time></trkpt><trkpt lat="57.93542667" lon="14.40457167"><ele>178.0</ele><time>2016-06-18T05:27:46.301Z</time></trkpt><trkpt lat="57.93535167" lon="14.40448667"><ele>178.0</ele><time>2016-06-18T05:27:47.284Z</time></trkpt><trkpt lat="57.93535167" lon="14.40448667"><ele>178.0</ele><time>2016-06-18T05:27:48.306Z</time></trkpt><trkpt lat="57.9352" lon="14.40432"><ele>179.0</ele><time>2016-06-18T05:27:49.316Z</time></trkpt><trkpt lat="57.9352" lon="14.40432"><ele>179.0</ele><time>2016-06-18T05:27:50.290Z</time></trkpt><trkpt lat="57.93504667" lon="14.40415333"><ele>179.0</ele><time>2016-06-18T05:27:51.323Z</time></trkpt><trkpt lat="57.93504667" lon="14.40415333"><ele>179.0</ele><time>2016-06-18T05:27:52.297Z</time></trkpt><trkpt lat="57.93488667" lon="14.40398"><ele>179.0</ele><time>2016-06-18T05:27:53.308Z</time></trkpt><trkpt lat="57.93480667" lon="14.40389333"><ele>179.0</ele><time>2016-06-18T05:27:54.298Z</time></trkpt><trkpt lat="57.93472667" lon="14.40380667"><ele>179.0</ele><time>2016-06-18T05:27:55.282Z</time></trkpt><trkpt lat="57.93464667" lon="14.40371833"><ele>179.0</ele><time>2016-06-18T05:27:56.305Z</time></trkpt><trkpt lat="57.93464667" lon="14.40371833"><ele>179.0</ele><time>2016-06-18T05:27:57.287Z</time></trkpt><trkpt lat="57.934485" lon="14.403545"><ele>180.0</ele><time>2016-06-18T05:27:58.301Z</time></trkpt><trkpt lat="57.934485" lon="14.403545"><ele>180.0</ele><time>2016-06-18T05:27:59.285Z</time></trkpt><trkpt lat="57.93432167" lon="14.40337"><ele>180.0</ele><time>2016-06-18T05:28:00.298Z</time></trkpt><trkpt lat="57.93432167" lon="14.40337"><ele>180.0</ele><time>2016-06-18T05:28:01.316Z</time></trkpt><trkpt lat="57.93416" lon="14.40320333"><ele>180.0</ele><time>2016-06-18T05:28:02.287Z</time></trkpt><trkpt lat="57.93416" lon="14.40320333"><ele>180.0</ele><time>2016-06-18T05:28:03.311Z</time></trkpt><trkpt lat="57.934005" lon="14.40304333"><ele>180.0</ele><time>2016-06-18T05:28:04.297Z</time></trkpt><trkpt lat="57.934005" lon="14.40304333"><ele>180.0</ele><time>2016-06-18T05:28:05.304Z</time></trkpt><trkpt lat="57.93385667" lon="14.40287667"><ele>180.0</ele><time>2016-06-18T05:28:06.311Z</time></trkpt><trkpt lat="57.93378333" lon="14.402795"><ele>180.0</ele><time>2016-06-18T05:28:07.301Z</time></trkpt><trkpt lat="57.93378333" lon="14.402795"><ele>180.0</ele><time>2016-06-18T05:28:08.284Z</time></trkpt><trkpt lat="57.93362833" lon="14.402635"><ele>181.0</ele><time>2016-06-18T05:28:09.300Z</time></trkpt><trkpt lat="57.93362833" lon="14.402635"><ele>181.0</ele><time>2016-06-18T05:28:10.284Z</time></trkpt><trkpt lat="57.933475" lon="14.402475"><ele>181.0</ele><time>2016-06-18T05:28:11.295Z</time></trkpt><trkpt lat="57.9334" lon="14.402395"><ele>181.0</ele><time>2016-06-18T05:28:12.322Z</time></trkpt><trkpt lat="57.9334" lon="14.402395"><ele>181.0</ele><time>2016-06-18T05:28:13.304Z</time></trkpt><trkpt lat="57.93325333" lon="14.402245"><ele>181.0</ele><time>2016-06-18T05:28:14.312Z</time></trkpt><trkpt lat="57.93318167" lon="14.402175"><ele>182.0</ele><time>2016-06-18T05:28:15.284Z</time></trkpt><trkpt lat="57.93318167" lon="14.402175"><ele>182.0</ele><time>2016-06-18T05:28:16.307Z</time></trkpt><trkpt lat="57.93303667" lon="14.40203167"><ele>182.0</ele><time>2016-06-18T05:28:17.313Z</time></trkpt><trkpt lat="57.93303667" lon="14.40203167"><ele>182.0</ele><time>2016-06-18T05:28:18.294Z</time></trkpt><trkpt lat="57.93289667" lon="14.40188167"><ele>182.0</ele><time>2016-06-18T05:28:19.318Z</time></trkpt><trkpt lat="57.93282333" lon="14.40181"><ele>182.0</ele><time>2016-06-18T05:28:20.301Z</time></trkpt><trkpt lat="57.93282333" lon="14.40181"><ele>182.0</ele><time>2016-06-18T05:28:21.283Z</time></trkpt><trkpt lat="57.93268" lon="14.40167"><ele>182.0</ele><time>2016-06-18T05:28:22.308Z</time></trkpt><trkpt lat="57.93261" lon="14.40160333"><ele>181.0</ele><time>2016-06-18T05:28:23.289Z</time></trkpt><trkpt lat="57.93261" lon="14.40160333"><ele>181.0</ele><time>2016-06-18T05:28:24.312Z</time></trkpt><trkpt lat="57.93247167" lon="14.40147333"><ele>181.0</ele><time>2016-06-18T05:28:25.298Z</time></trkpt><trkpt lat="57.93247167" lon="14.40147333"><ele>181.0</ele><time>2016-06-18T05:28:26.320Z</time></trkpt><trkpt lat="57.932335" lon="14.40133667"><ele>180.0</ele><time>2016-06-18T05:28:27.287Z</time></trkpt><trkpt lat="57.932335" lon="14.40133667"><ele>180.0</ele><time>2016-06-18T05:28:28.310Z</time></trkpt><trkpt lat="57.932195" lon="14.40119833"><ele>180.0</ele><time>2016-06-18T05:28:29.294Z</time></trkpt><trkpt lat="57.932195" lon="14.40119833"><ele>180.0</ele><time>2016-06-18T05:28:30.313Z</time></trkpt><trkpt lat="57.932045" lon="14.40106"><ele>180.0</ele><time>2016-06-18T05:28:31.319Z</time></trkpt><trkpt lat="57.931965" lon="14.40098667"><ele>179.0</ele><time>2016-06-18T05:28:32.288Z</time></trkpt><trkpt lat="57.931965" lon="14.40098667"><ele>179.0</ele><time>2016-06-18T05:28:33.285Z</time></trkpt><trkpt lat="57.93180333" lon="14.40084"><ele>179.0</ele><time>2016-06-18T05:28:34.294Z</time></trkpt><trkpt lat="57.93172167" lon="14.40076667"><ele>179.0</ele><time>2016-06-18T05:28:35.289Z</time></trkpt><trkpt lat="57.93172167" lon="14.40076667"><ele>179.0</ele><time>2016-06-18T05:28:36.282Z</time></trkpt><trkpt lat="57.93155667" lon="14.40061667"><ele>179.0</ele><time>2016-06-18T05:28:37.288Z</time></trkpt><trkpt lat="57.93147167" lon="14.40054167"><ele>179.0</ele><time>2016-06-18T05:28:38.312Z</time></trkpt><trkpt lat="57.93138333" lon="14.40046333"><ele>179.0</ele><time>2016-06-18T05:28:39.289Z</time></trkpt><trkpt lat="57.93138333" lon="14.40046333"><ele>179.0</ele><time>2016-06-18T05:28:40.313Z</time></trkpt><trkpt lat="57.931205" lon="14.400315"><ele>179.0</ele><time>2016-06-18T05:28:41.311Z</time></trkpt><trkpt lat="57.93111667" lon="14.40024"><ele>179.0</ele><time>2016-06-18T05:28:42.296Z</time></trkpt><trkpt lat="57.93111667" lon="14.40024"><ele>179.0</ele><time>2016-06-18T05:28:43.321Z</time></trkpt><trkpt lat="57.93094667" lon="14.400095"><ele>179.0</ele><time>2016-06-18T05:28:44.298Z</time></trkpt><trkpt lat="57.93094667" lon="14.400095"><ele>179.0</ele><time>2016-06-18T05:28:45.301Z</time></trkpt><trkpt lat="57.93077833" lon="14.399945"><ele>179.0</ele><time>2016-06-18T05:28:46.320Z</time></trkpt><trkpt lat="57.930695" lon="14.39987167"><ele>179.0</ele><time>2016-06-18T05:28:47.303Z</time></trkpt><trkpt lat="57.930695" lon="14.39987167"><ele>179.0</ele><time>2016-06-18T05:28:48.305Z</time></trkpt><trkpt lat="57.93053" lon="14.39973333"><ele>180.0</ele><time>2016-06-18T05:28:49.308Z</time></trkpt><trkpt lat="57.93053" lon="14.39973333"><ele>180.0</ele><time>2016-06-18T05:28:50.304Z</time></trkpt><trkpt lat="57.930375" lon="14.39960667"><ele>180.0</ele><time>2016-06-18T05:28:51.311Z</time></trkpt><trkpt lat="57.930375" lon="14.39960667"><ele>180.0</ele><time>2016-06-18T05:28:52.294Z</time></trkpt><trkpt lat="57.93022833" lon="14.399485"><ele>180.0</ele><time>2016-06-18T05:28:53.327Z</time></trkpt><trkpt lat="57.93022833" lon="14.399485"><ele>180.0</ele><time>2016-06-18T05:28:54.315Z</time></trkpt><trkpt lat="57.93008333" lon="14.39937"><ele>180.0</ele><time>2016-06-18T05:28:55.282Z</time></trkpt><trkpt lat="57.93001333" lon="14.39931167"><ele>180.0</ele><time>2016-06-18T05:28:56.321Z</time></trkpt><trkpt lat="57.93001333" lon="14.39931167"><ele>180.0</ele><time>2016-06-18T05:28:57.287Z</time></trkpt><trkpt lat="57.92987" lon="14.39919833"><ele>181.0</ele><time>2016-06-18T05:28:58.294Z</time></trkpt><trkpt lat="57.92979667" lon="14.399145"><ele>181.0</ele><time>2016-06-18T05:28:59.314Z</time></trkpt><trkpt lat="57.92979667" lon="14.399145"><ele>181.0</ele><time>2016-06-18T05:29:00.291Z</time></trkpt><trkpt lat="57.92965333" lon="14.39904167"><ele>181.0</ele><time>2016-06-18T05:29:01.308Z</time></trkpt><trkpt lat="57.92958333" lon="14.39899167"><ele>182.0</ele><time>2016-06-18T05:29:02.286Z</time></trkpt><trkpt lat="57.92958333" lon="14.39899167"><ele>182.0</ele><time>2016-06-18T05:29:03.310Z</time></trkpt><trkpt lat="57.92945167" lon="14.3989"><ele>182.0</ele><time>2016-06-18T05:29:04.288Z</time></trkpt><trkpt lat="57.92945167" lon="14.3989"><ele>182.0</ele><time>2016-06-18T05:29:05.300Z</time></trkpt><trkpt lat="57.92933333" lon="14.39881667"><ele>183.0</ele><time>2016-06-18T05:29:06.310Z</time></trkpt><trkpt lat="57.92927333" lon="14.398775"><ele>184.0</ele><time>2016-06-18T05:29:07.302Z</time></trkpt><trkpt lat="57.92921333" lon="14.39873333"><ele>184.0</ele><time>2016-06-18T05:29:08.310Z</time></trkpt><trkpt lat="57.92921333" lon="14.39873333"><ele>184.0</ele><time>2016-06-18T05:29:09.293Z</time></trkpt><trkpt lat="57.92909333" lon="14.398655"><ele>185.0</ele><time>2016-06-18T05:29:10.308Z</time></trkpt><trkpt lat="57.92909333" lon="14.398655"><ele>185.0</ele><time>2016-06-18T05:29:11.297Z</time></trkpt><trkpt lat="57.92897833" lon="14.39859333"><ele>186.0</ele><time>2016-06-18T05:29:12.316Z</time></trkpt><trkpt lat="57.92892" lon="14.39856667"><ele>187.0</ele><time>2016-06-18T05:29:13.302Z</time></trkpt><trkpt lat="57.92892" lon="14.39856667"><ele>187.0</ele><time>2016-06-18T05:29:14.286Z</time></trkpt><trkpt lat="57.92880333" lon="14.39850167"><ele>188.0</ele><time>2016-06-18T05:29:15.324Z</time></trkpt><trkpt lat="57.92880333" lon="14.39850167"><ele>188.0</ele><time>2016-06-18T05:29:16.317Z</time></trkpt><trkpt lat="57.92869" lon="14.39843667"><ele>189.0</ele><time>2016-06-18T05:29:17.284Z</time></trkpt><trkpt lat="57.92869" lon="14.39843667"><ele>189.0</ele><time>2016-06-18T05:29:18.301Z</time></trkpt><trkpt lat="57.928575" lon="14.39838"><ele>190.0</ele><time>2016-06-18T05:29:19.284Z</time></trkpt><trkpt lat="57.92851667" lon="14.398355"><ele>189.0</ele><time>2016-06-18T05:29:20.313Z</time></trkpt><trkpt lat="57.92851667" lon="14.398355"><ele>189.0</ele><time>2016-06-18T05:29:21.300Z</time></trkpt><trkpt lat="57.92839667" lon="14.39829"><ele>189.0</ele><time>2016-06-18T05:29:22.307Z</time></trkpt><trkpt lat="57.92839667" lon="14.39829"><ele>189.0</ele><time>2016-06-18T05:29:23.290Z</time></trkpt><trkpt lat="57.928265" lon="14.39821167"><ele>189.0</ele><time>2016-06-18T05:29:24.301Z</time></trkpt><trkpt lat="57.928265" lon="14.39821167"><ele>189.0</ele><time>2016-06-18T05:29:25.285Z</time></trkpt><trkpt lat="57.92811333" lon="14.39812"><ele>188.0</ele><time>2016-06-18T05:29:26.286Z</time></trkpt><trkpt lat="57.92811333" lon="14.39812"><ele>188.0</ele><time>2016-06-18T05:29:27.291Z</time></trkpt><trkpt lat="57.927955" lon="14.39803167"><ele>187.0</ele><time>2016-06-18T05:29:28.298Z</time></trkpt><trkpt lat="57.92787333" lon="14.39798333"><ele>187.0</ele><time>2016-06-18T05:29:29.298Z</time></trkpt><trkpt lat="57.92787333" lon="14.39798333"><ele>187.0</ele><time>2016-06-18T05:29:30.321Z</time></trkpt><trkpt lat="57.92771167" lon="14.39789167"><ele>187.0</ele><time>2016-06-18T05:29:31.287Z</time></trkpt><trkpt lat="57.92763167" lon="14.39784333"><ele>187.0</ele><time>2016-06-18T05:29:32.320Z</time></trkpt><trkpt lat="57.92763167" lon="14.39784333"><ele>187.0</ele><time>2016-06-18T05:29:33.299Z</time></trkpt><trkpt lat="57.92747333" lon="14.39773667"><ele>187.0</ele><time>2016-06-18T05:29:34.308Z</time></trkpt><trkpt lat="57.92739333" lon="14.39767833"><ele>187.0</ele><time>2016-06-18T05:29:35.298Z</time></trkpt><trkpt lat="57.92739333" lon="14.39767833"><ele>187.0</ele><time>2016-06-18T05:29:36.304Z</time></trkpt><trkpt lat="57.92723167" lon="14.39755833"><ele>186.0</ele><time>2016-06-18T05:29:37.311Z</time></trkpt><trkpt lat="57.92714667" lon="14.3975"><ele>187.0</ele><time>2016-06-18T05:29:38.304Z</time></trkpt><trkpt lat="57.92714667" lon="14.3975"><ele>187.0</ele><time>2016-06-18T05:29:39.287Z</time></trkpt><trkpt lat="57.92697167" lon="14.39738667"><ele>186.0</ele><time>2016-06-18T05:29:40.296Z</time></trkpt><trkpt lat="57.926885" lon="14.39732833"><ele>186.0</ele><time>2016-06-18T05:29:41.294Z</time></trkpt><trkpt lat="57.926885" lon="14.39732833"><ele>186.0</ele><time>2016-06-18T05:29:42.282Z</time></trkpt><trkpt lat="57.92671667" lon="14.39721667"><ele>186.0</ele><time>2016-06-18T05:29:43.298Z</time></trkpt><trkpt lat="57.92663333" lon="14.39715833"><ele>186.0</ele><time>2016-06-18T05:29:44.318Z</time></trkpt><trkpt lat="57.92663333" lon="14.39715833"><ele>186.0</ele><time>2016-06-18T05:29:45.299Z</time></trkpt><trkpt lat="57.92646667" lon="14.39703667"><ele>186.0</ele><time>2016-06-18T05:29:46.309Z</time></trkpt><trkpt lat="57.92646667" lon="14.39703667"><ele>186.0</ele><time>2016-06-18T05:29:47.300Z</time></trkpt><trkpt lat="57.92630167" lon="14.39690667"><ele>186.0</ele><time>2016-06-18T05:29:48.298Z</time></trkpt><trkpt lat="57.92622167" lon="14.39684"><ele>186.0</ele><time>2016-06-18T05:29:49.290Z</time></trkpt><trkpt lat="57.92622167" lon="14.39684"><ele>186.0</ele><time>2016-06-18T05:29:50.314Z</time></trkpt><trkpt lat="57.92606333" lon="14.39671833"><ele>185.0</ele><time>2016-06-18T05:29:51.300Z</time></trkpt><trkpt lat="57.92606333" lon="14.39671833"><ele>185.0</ele><time>2016-06-18T05:29:52.282Z</time></trkpt><trkpt lat="57.92591833" lon="14.39661167"><ele>185.0</ele><time>2016-06-18T05:29:53.296Z</time></trkpt><trkpt lat="57.92591833" lon="14.39661167"><ele>185.0</ele><time>2016-06-18T05:29:54.321Z</time></trkpt><trkpt lat="57.92577833" lon="14.39650667"><ele>185.0</ele><time>2016-06-18T05:29:55.308Z</time></trkpt><trkpt lat="57.92577833" lon="14.39650667"><ele>185.0</ele><time>2016-06-18T05:29:56.309Z</time></trkpt><trkpt lat="57.92564167" lon="14.39639667"><ele>184.0</ele><time>2016-06-18T05:29:57.316Z</time></trkpt><trkpt lat="57.92557" lon="14.39633833"><ele>184.0</ele><time>2016-06-18T05:29:58.299Z</time></trkpt><trkpt lat="57.92557" lon="14.39633833"><ele>184.0</ele><time>2016-06-18T05:29:59.284Z</time></trkpt><trkpt lat="57.92542167" lon="14.39621167"><ele>183.0</ele><time>2016-06-18T05:30:00.303Z</time></trkpt><trkpt lat="57.92535167" lon="14.39615167"><ele>183.0</ele><time>2016-06-18T05:30:01.318Z</time></trkpt><trkpt lat="57.92535167" lon="14.39615167"><ele>183.0</ele><time>2016-06-18T05:30:02.294Z</time></trkpt><trkpt lat="57.92521667" lon="14.39603333"><ele>183.0</ele><time>2016-06-18T05:30:03.303Z</time></trkpt><trkpt lat="57.92521667" lon="14.39603333"><ele>183.0</ele><time>2016-06-18T05:30:04.284Z</time></trkpt><trkpt lat="57.92508333" lon="14.39592"><ele>182.0</ele><time>2016-06-18T05:30:05.298Z</time></trkpt><trkpt lat="57.92508333" lon="14.39592"><ele>182.0</ele><time>2016-06-18T05:30:06.296Z</time></trkpt><trkpt lat="57.92495333" lon="14.39580333"><ele>182.0</ele><time>2016-06-18T05:30:07.303Z</time></trkpt><trkpt lat="57.92489" lon="14.39574"><ele>182.0</ele><time>2016-06-18T05:30:08.284Z</time></trkpt><trkpt lat="57.92483333" lon="14.39566833"><ele>182.0</ele><time>2016-06-18T05:30:09.297Z</time></trkpt><trkpt lat="57.92483333" lon="14.39566833"><ele>182.0</ele><time>2016-06-18T05:30:10.320Z</time></trkpt><trkpt lat="57.92474167" lon="14.395495"><ele>182.0</ele><time>2016-06-18T05:30:11.297Z</time></trkpt><trkpt lat="57.924695" lon="14.395435"><ele>182.0</ele><time>2016-06-18T05:30:12.282Z</time></trkpt><trkpt lat="57.924695" lon="14.395435"><ele>182.0</ele><time>2016-06-18T05:30:13.306Z</time></trkpt><trkpt lat="57.92457833" lon="14.39542667"><ele>183.0</ele><time>2016-06-18T05:30:14.313Z</time></trkpt><trkpt lat="57.92457833" lon="14.39542667"><ele>183.0</ele><time>2016-06-18T05:30:15.285Z</time></trkpt><trkpt lat="57.92444" lon="14.39538333"><ele>183.0</ele><time>2016-06-18T05:30:16.298Z</time></trkpt><trkpt lat="57.92444" lon="14.39538333"><ele>183.0</ele><time>2016-06-18T05:30:17.297Z</time></trkpt><trkpt lat="57.9243" lon="14.39526667"><ele>184.0</ele><time>2016-06-18T05:30:18.311Z</time></trkpt><trkpt lat="57.92423" lon="14.3952"><ele>184.0</ele><time>2016-06-18T05:30:19.287Z</time></trkpt><trkpt lat="57.92415667" lon="14.39513"><ele>184.0</ele><time>2016-06-18T05:30:20.311Z</time></trkpt><trkpt lat="57.92415667" lon="14.39513"><ele>184.0</ele><time>2016-06-18T05:30:21.300Z</time></trkpt><trkpt lat="57.92400333" lon="14.39499"><ele>184.0</ele><time>2016-06-18T05:30:22.316Z</time></trkpt><trkpt lat="57.92392333" lon="14.39492"><ele>184.0</ele><time>2016-06-18T05:30:23.314Z</time></trkpt><trkpt lat="57.92392333" lon="14.39492"><ele>184.0</ele><time>2016-06-18T05:30:24.296Z</time></trkpt><trkpt lat="57.92376333" lon="14.394785"><ele>185.0</ele><time>2016-06-18T05:30:25.292Z</time></trkpt><trkpt lat="57.92367833" lon="14.39472"><ele>183.0</ele><time>2016-06-18T05:30:26.303Z</time></trkpt><trkpt lat="57.923605" lon="14.39465833"><ele>184.0</ele><time>2016-06-18T05:30:27.286Z</time></trkpt><trkpt lat="57.923605" lon="14.39465833"><ele>184.0</ele><time>2016-06-18T05:30:28.309Z</time></trkpt><trkpt lat="57.92345833" lon="14.394535"><ele>184.0</ele><time>2016-06-18T05:30:29.315Z</time></trkpt><trkpt lat="57.92338667" lon="14.394475"><ele>184.0</ele><time>2016-06-18T05:30:30.294Z</time></trkpt><trkpt lat="57.92338667" lon="14.394475"><ele>184.0</ele><time>2016-06-18T05:30:31.317Z</time></trkpt><trkpt lat="57.92325" lon="14.39435667"><ele>184.0</ele><time>2016-06-18T05:30:32.284Z</time></trkpt><trkpt lat="57.92325" lon="14.39435667"><ele>184.0</ele><time>2016-06-18T05:30:33.294Z</time></trkpt><trkpt lat="57.92311667" lon="14.39424833"><ele>184.0</ele><time>2016-06-18T05:30:34.308Z</time></trkpt><trkpt lat="57.92305333" lon="14.39419833"><ele>184.0</ele><time>2016-06-18T05:30:35.285Z</time></trkpt><trkpt lat="57.92305333" lon="14.39419833"><ele>184.0</ele><time>2016-06-18T05:30:36.309Z</time></trkpt><trkpt lat="57.92292667" lon="14.39409333"><ele>184.0</ele><time>2016-06-18T05:30:37.319Z</time></trkpt><trkpt lat="57.92286167" lon="14.39404167"><ele>184.0</ele><time>2016-06-18T05:30:38.294Z</time></trkpt><trkpt lat="57.92286167" lon="14.39404167"><ele>184.0</ele><time>2016-06-18T05:30:39.296Z</time></trkpt><trkpt lat="57.922735" lon="14.39394167"><ele>184.0</ele><time>2016-06-18T05:30:40.303Z</time></trkpt><trkpt lat="57.922735" lon="14.39394167"><ele>184.0</ele><time>2016-06-18T05:30:41.282Z</time></trkpt><trkpt lat="57.922605" lon="14.39383667"><ele>184.0</ele><time>2016-06-18T05:30:42.298Z</time></trkpt><trkpt lat="57.922605" lon="14.39383667"><ele>184.0</ele><time>2016-06-18T05:30:43.297Z</time></trkpt><trkpt lat="57.92247167" lon="14.39373333"><ele>184.0</ele><time>2016-06-18T05:30:44.304Z</time></trkpt><trkpt lat="57.92240333" lon="14.39368"><ele>184.0</ele><time>2016-06-18T05:30:45.309Z</time></trkpt><trkpt lat="57.92240333" lon="14.39368"><ele>184.0</ele><time>2016-06-18T05:30:46.320Z</time></trkpt><trkpt lat="57.92226667" lon="14.39356667"><ele>183.0</ele><time>2016-06-18T05:30:47.288Z</time></trkpt><trkpt lat="57.92219667" lon="14.39351333"><ele>183.0</ele><time>2016-06-18T05:30:48.285Z</time></trkpt><trkpt lat="57.92212667" lon="14.39346"><ele>183.0</ele><time>2016-06-18T05:30:49.282Z</time></trkpt><trkpt lat="57.92205833" lon="14.39340667"><ele>183.0</ele><time>2016-06-18T05:30:50.318Z</time></trkpt><trkpt lat="57.92205833" lon="14.39340667"><ele>183.0</ele><time>2016-06-18T05:30:51.311Z</time></trkpt><trkpt lat="57.921925" lon="14.39330333"><ele>182.0</ele><time>2016-06-18T05:30:52.320Z</time></trkpt><trkpt lat="57.92185833" lon="14.39325167"><ele>182.0</ele><time>2016-06-18T05:30:53.304Z</time></trkpt><trkpt lat="57.92179167" lon="14.393195"><ele>182.0</ele><time>2016-06-18T05:30:54.318Z</time></trkpt><trkpt lat="57.92179167" lon="14.393195"><ele>182.0</ele><time>2016-06-18T05:30:55.305Z</time></trkpt><trkpt lat="57.92165333" lon="14.39308667"><ele>182.0</ele><time>2016-06-18T05:30:56.313Z</time></trkpt><trkpt lat="57.92158" lon="14.393025"><ele>182.0</ele><time>2016-06-18T05:30:57.295Z</time></trkpt><trkpt lat="57.92158" lon="14.393025"><ele>182.0</ele><time>2016-06-18T05:30:58.318Z</time></trkpt><trkpt lat="57.92142833" lon="14.39290333"><ele>182.0</ele><time>2016-06-18T05:30:59.286Z</time></trkpt><trkpt lat="57.92142833" lon="14.39290333"><ele>182.0</ele><time>2016-06-18T05:31:00.310Z</time></trkpt><trkpt lat="57.92127333" lon="14.39277833"><ele>183.0</ele><time>2016-06-18T05:31:01.302Z</time></trkpt><trkpt lat="57.92127333" lon="14.39277833"><ele>183.0</ele><time>2016-06-18T05:31:02.285Z</time></trkpt><trkpt lat="57.92112" lon="14.39265333"><ele>184.0</ele><time>2016-06-18T05:31:03.295Z</time></trkpt><trkpt lat="57.92104167" lon="14.39259"><ele>184.0</ele><time>2016-06-18T05:31:04.318Z</time></trkpt><trkpt lat="57.92104167" lon="14.39259"><ele>184.0</ele><time>2016-06-18T05:31:05.301Z</time></trkpt><trkpt lat="57.92088833" lon="14.39247"><ele>184.0</ele><time>2016-06-18T05:31:06.318Z</time></trkpt><trkpt lat="57.92081167" lon="14.39240667"><ele>184.0</ele><time>2016-06-18T05:31:07.321Z</time></trkpt><trkpt lat="57.92081167" lon="14.39240667"><ele>184.0</ele><time>2016-06-18T05:31:08.303Z</time></trkpt><trkpt lat="57.92065833" lon="14.39228667"><ele>185.0</ele><time>2016-06-18T05:31:09.311Z</time></trkpt><trkpt lat="57.92058" lon="14.39222833"><ele>185.0</ele><time>2016-06-18T05:31:10.298Z</time></trkpt><trkpt lat="57.92058" lon="14.39222833"><ele>185.0</ele><time>2016-06-18T05:31:11.296Z</time></trkpt><trkpt lat="57.920425" lon="14.39212"><ele>185.0</ele><time>2016-06-18T05:31:12.316Z</time></trkpt><trkpt lat="57.920425" lon="14.39212"><ele>185.0</ele><time>2016-06-18T05:31:13.301Z</time></trkpt><trkpt lat="57.92027333" lon="14.39201333"><ele>185.0</ele><time>2016-06-18T05:31:14.310Z</time></trkpt><trkpt lat="57.92027333" lon="14.39201333"><ele>185.0</ele><time>2016-06-18T05:31:15.310Z</time></trkpt><trkpt lat="57.92013167" lon="14.391905"><ele>186.0</ele><time>2016-06-18T05:31:16.286Z</time></trkpt><trkpt lat="57.92013167" lon="14.391905"><ele>186.0</ele><time>2016-06-18T05:31:17.300Z</time></trkpt><trkpt lat="57.919995" lon="14.39179333"><ele>187.0</ele><time>2016-06-18T05:31:18.306Z</time></trkpt><trkpt lat="57.919995" lon="14.39179333"><ele>187.0</ele><time>2016-06-18T05:31:19.314Z</time></trkpt><trkpt lat="57.91986" lon="14.39168333"><ele>187.0</ele><time>2016-06-18T05:31:20.309Z</time></trkpt><trkpt lat="57.91986" lon="14.39168333"><ele>187.0</ele><time>2016-06-18T05:31:21.294Z</time></trkpt><trkpt lat="57.91972833" lon="14.39157"><ele>187.0</ele><time>2016-06-18T05:31:22.303Z</time></trkpt><trkpt lat="57.91972833" lon="14.39157"><ele>187.0</ele><time>2016-06-18T05:31:23.284Z</time></trkpt><trkpt lat="57.91959833" lon="14.39145833"><ele>187.0</ele><time>2016-06-18T05:31:24.311Z</time></trkpt><trkpt lat="57.91959833" lon="14.39145833"><ele>187.0</ele><time>2016-06-18T05:31:25.305Z</time></trkpt><trkpt lat="57.91946167" lon="14.39134667"><ele>187.0</ele><time>2016-06-18T05:31:26.312Z</time></trkpt><trkpt lat="57.91946167" lon="14.39134667"><ele>187.0</ele><time>2016-06-18T05:31:27.301Z</time></trkpt><trkpt lat="57.91932333" lon="14.39122833"><ele>188.0</ele><time>2016-06-18T05:31:28.316Z</time></trkpt><trkpt lat="57.91925333" lon="14.39116833"><ele>188.0</ele><time>2016-06-18T05:31:29.302Z</time></trkpt><trkpt lat="57.91925333" lon="14.39116833"><ele>188.0</ele><time>2016-06-18T05:31:30.286Z</time></trkpt><trkpt lat="57.91911167" lon="14.39105333"><ele>188.0</ele><time>2016-06-18T05:31:31.333Z</time></trkpt><trkpt lat="57.91911167" lon="14.39105333"><ele>188.0</ele><time>2016-06-18T05:31:32.311Z</time></trkpt><trkpt lat="57.91897167" lon="14.390945"><ele>188.0</ele><time>2016-06-18T05:31:33.301Z</time></trkpt><trkpt lat="57.91897167" lon="14.390945"><ele>188.0</ele><time>2016-06-18T05:31:34.308Z</time></trkpt><trkpt lat="57.91883833" lon="14.39084"><ele>189.0</ele><time>2016-06-18T05:31:35.306Z</time></trkpt><trkpt lat="57.91883833" lon="14.39084"><ele>189.0</ele><time>2016-06-18T05:31:36.291Z</time></trkpt><trkpt lat="57.91871" lon="14.390735"><ele>189.0</ele><time>2016-06-18T05:31:37.299Z</time></trkpt><trkpt lat="57.918645" lon="14.39068833"><ele>189.0</ele><time>2016-06-18T05:31:38.283Z</time></trkpt><trkpt lat="57.918645" lon="14.39068833"><ele>189.0</ele><time>2016-06-18T05:31:39.303Z</time></trkpt><trkpt lat="57.918515" lon="14.39059333"><ele>189.0</ele><time>2016-06-18T05:31:40.310Z</time></trkpt><trkpt lat="57.918515" lon="14.39059333"><ele>189.0</ele><time>2016-06-18T05:31:41.296Z</time></trkpt><trkpt lat="57.91838333" lon="14.390495"><ele>190.0</ele><time>2016-06-18T05:31:42.283Z</time></trkpt><trkpt lat="57.91838333" lon="14.390495"><ele>190.0</ele><time>2016-06-18T05:31:43.316Z</time></trkpt><trkpt lat="57.918245" lon="14.39041333"><ele>190.0</ele><time>2016-06-18T05:31:44.283Z</time></trkpt><trkpt lat="57.91817833" lon="14.39036833"><ele>190.0</ele><time>2016-06-18T05:31:45.288Z</time></trkpt><trkpt lat="57.91817833" lon="14.39036833"><ele>190.0</ele><time>2016-06-18T05:31:46.308Z</time></trkpt><trkpt lat="57.91804167" lon="14.39027333"><ele>191.0</ele><time>2016-06-18T05:31:47.314Z</time></trkpt><trkpt lat="57.91797" lon="14.39022667"><ele>191.0</ele><time>2016-06-18T05:31:48.309Z</time></trkpt><trkpt lat="57.91797" lon="14.39022667"><ele>191.0</ele><time>2016-06-18T05:31:49.303Z</time></trkpt><trkpt lat="57.91782667" lon="14.39014"><ele>191.0</ele><time>2016-06-18T05:31:50.311Z</time></trkpt><trkpt lat="57.91782667" lon="14.39014"><ele>191.0</ele><time>2016-06-18T05:31:51.312Z</time></trkpt><trkpt lat="57.91767833" lon="14.39006"><ele>191.0</ele><time>2016-06-18T05:31:52.311Z</time></trkpt><trkpt lat="57.91767833" lon="14.39006"><ele>191.0</ele><time>2016-06-18T05:31:53.300Z</time></trkpt><trkpt lat="57.91752667" lon="14.38998833"><ele>192.0</ele><time>2016-06-18T05:31:54.307Z</time></trkpt><trkpt lat="57.91745167" lon="14.389955"><ele>192.0</ele><time>2016-06-18T05:31:55.310Z</time></trkpt><trkpt lat="57.917375" lon="14.38992667"><ele>192.0</ele><time>2016-06-18T05:31:56.292Z</time></trkpt><trkpt lat="57.917375" lon="14.38992667"><ele>192.0</ele><time>2016-06-18T05:31:57.316Z</time></trkpt><trkpt lat="57.91722167" lon="14.38987667"><ele>192.0</ele><time>2016-06-18T05:31:58.307Z</time></trkpt><trkpt lat="57.91714833" lon="14.38985333"><ele>192.0</ele><time>2016-06-18T05:31:59.290Z</time></trkpt><trkpt lat="57.91707667" lon="14.38983333"><ele>192.0</ele><time>2016-06-18T05:32:00.315Z</time></trkpt><trkpt lat="57.91707667" lon="14.38983333"><ele>192.0</ele><time>2016-06-18T05:32:01.296Z</time></trkpt><trkpt lat="57.91693333" lon="14.38980167"><ele>192.0</ele><time>2016-06-18T05:32:02.303Z</time></trkpt><trkpt lat="57.91686" lon="14.38979333"><ele>192.0</ele><time>2016-06-18T05:32:03.321Z</time></trkpt><trkpt lat="57.91686" lon="14.38979333"><ele>192.0</ele><time>2016-06-18T05:32:04.301Z</time></trkpt><trkpt lat="57.916715" lon="14.389785"><ele>192.0</ele><time>2016-06-18T05:32:05.308Z</time></trkpt><trkpt lat="57.916715" lon="14.389785"><ele>192.0</ele><time>2016-06-18T05:32:06.292Z</time></trkpt><trkpt lat="57.91656667" lon="14.38979333"><ele>192.0</ele><time>2016-06-18T05:32:07.292Z</time></trkpt><trkpt lat="57.916495" lon="14.3898"><ele>192.0</ele><time>2016-06-18T05:32:08.304Z</time></trkpt><trkpt lat="57.916495" lon="14.3898"><ele>192.0</ele><time>2016-06-18T05:32:09.288Z</time></trkpt><trkpt lat="57.91634833" lon="14.389805"><ele>192.0</ele><time>2016-06-18T05:32:10.314Z</time></trkpt><trkpt lat="57.91634833" lon="14.389805"><ele>192.0</ele><time>2016-06-18T05:32:11.302Z</time></trkpt><trkpt lat="57.91619833" lon="14.38981667"><ele>192.0</ele><time>2016-06-18T05:32:12.299Z</time></trkpt><trkpt lat="57.91619833" lon="14.38981667"><ele>192.0</ele><time>2016-06-18T05:32:13.321Z</time></trkpt><trkpt lat="57.916055" lon="14.389845"><ele>192.0</ele><time>2016-06-18T05:32:14.288Z</time></trkpt><trkpt lat="57.916055" lon="14.389845"><ele>192.0</ele><time>2016-06-18T05:32:15.311Z</time></trkpt><trkpt lat="57.91593" lon="14.38986"><ele>192.0</ele><time>2016-06-18T05:32:16.308Z</time></trkpt><trkpt lat="57.91593" lon="14.38986"><ele>192.0</ele><time>2016-06-18T05:32:17.290Z</time></trkpt><trkpt lat="57.91581167" lon="14.38986833"><ele>193.0</ele><time>2016-06-18T05:32:18.307Z</time></trkpt><trkpt lat="57.91581167" lon="14.38986833"><ele>193.0</ele><time>2016-06-18T05:32:19.290Z</time></trkpt><trkpt lat="57.9157" lon="14.38986667"><ele>193.0</ele><time>2016-06-18T05:32:20.315Z</time></trkpt><trkpt lat="57.9157" lon="14.38986667"><ele>193.0</ele><time>2016-06-18T05:32:21.293Z</time></trkpt><trkpt lat="57.91557833" lon="14.38986833"><ele>194.0</ele><time>2016-06-18T05:32:22.300Z</time></trkpt><trkpt lat="57.915515" lon="14.38986667"><ele>194.0</ele><time>2016-06-18T05:32:23.310Z</time></trkpt><trkpt lat="57.915515" lon="14.38986667"><ele>194.0</ele><time>2016-06-18T05:32:24.302Z</time></trkpt><trkpt lat="57.91538167" lon="14.38987"><ele>194.0</ele><time>2016-06-18T05:32:25.309Z</time></trkpt><trkpt lat="57.91538167" lon="14.38987"><ele>194.0</ele><time>2016-06-18T05:32:26.293Z</time></trkpt><trkpt lat="57.91525333" lon="14.38989"><ele>194.0</ele><time>2016-06-18T05:32:27.293Z</time></trkpt><trkpt lat="57.91525333" lon="14.38989"><ele>194.0</ele><time>2016-06-18T05:32:28.303Z</time></trkpt><trkpt lat="57.915125" lon="14.389905"><ele>194.0</ele><time>2016-06-18T05:32:29.310Z</time></trkpt><trkpt lat="57.915125" lon="14.389905"><ele>194.0</ele><time>2016-06-18T05:32:30.302Z</time></trkpt><trkpt lat="57.91499667" lon="14.38991667"><ele>195.0</ele><time>2016-06-18T05:32:31.312Z</time></trkpt><trkpt lat="57.91499667" lon="14.38991667"><ele>195.0</ele><time>2016-06-18T05:32:32.300Z</time></trkpt><trkpt lat="57.914875" lon="14.38993667"><ele>196.0</ele><time>2016-06-18T05:32:33.313Z</time></trkpt><trkpt lat="57.914875" lon="14.38993667"><ele>196.0</ele><time>2016-06-18T05:32:34.302Z</time></trkpt><trkpt lat="57.91476333" lon="14.38995"><ele>196.0</ele><time>2016-06-18T05:32:35.298Z</time></trkpt><trkpt lat="57.91476333" lon="14.38995"><ele>196.0</ele><time>2016-06-18T05:32:36.320Z</time></trkpt><trkpt lat="57.91465667" lon="14.389965"><ele>197.0</ele><time>2016-06-18T05:32:37.287Z</time></trkpt><trkpt lat="57.91460333" lon="14.38996833"><ele>197.0</ele><time>2016-06-18T05:32:38.293Z</time></trkpt><trkpt lat="57.91460333" lon="14.38996833"><ele>197.0</ele><time>2016-06-18T05:32:39.316Z</time></trkpt><trkpt lat="57.91449667" lon="14.38998167"><ele>197.0</ele><time>2016-06-18T05:32:40.285Z</time></trkpt><trkpt lat="57.91444333" lon="14.389985"><ele>197.0</ele><time>2016-06-18T05:32:41.324Z</time></trkpt><trkpt lat="57.91444333" lon="14.389985"><ele>197.0</ele><time>2016-06-18T05:32:42.317Z</time></trkpt><trkpt lat="57.914345" lon="14.389995"><ele>198.0</ele><time>2016-06-18T05:32:43.287Z</time></trkpt><trkpt lat="57.914295" lon="14.38999833"><ele>198.0</ele><time>2016-06-18T05:32:44.314Z</time></trkpt><trkpt lat="57.914295" lon="14.38999833"><ele>198.0</ele><time>2016-06-18T05:32:45.299Z</time></trkpt><trkpt lat="57.914195" lon="14.39001"><ele>198.0</ele><time>2016-06-18T05:32:46.306Z</time></trkpt><trkpt lat="57.914145" lon="14.39001667"><ele>198.0</ele><time>2016-06-18T05:32:47.306Z</time></trkpt><trkpt lat="57.914095" lon="14.39002167"><ele>199.0</ele><time>2016-06-18T05:32:48.301Z</time></trkpt><trkpt lat="57.914095" lon="14.39002167"><ele>199.0</ele><time>2016-06-18T05:32:49.315Z</time></trkpt><trkpt lat="57.914" lon="14.39002833"><ele>199.0</ele><time>2016-06-18T05:32:50.318Z</time></trkpt><trkpt lat="57.914" lon="14.39002833"><ele>199.0</ele><time>2016-06-18T05:32:51.302Z</time></trkpt><trkpt lat="57.913895" lon="14.39004333"><ele>200.0</ele><time>2016-06-18T05:32:52.316Z</time></trkpt><trkpt lat="57.913895" lon="14.39004333"><ele>200.0</ele><time>2016-06-18T05:32:53.301Z</time></trkpt><trkpt lat="57.91379167" lon="14.39007333"><ele>200.0</ele><time>2016-06-18T05:32:54.306Z</time></trkpt><trkpt lat="57.91373833" lon="14.39008"><ele>200.0</ele><time>2016-06-18T05:32:55.307Z</time></trkpt><trkpt lat="57.91373833" lon="14.39008"><ele>200.0</ele><time>2016-06-18T05:32:56.289Z</time></trkpt><trkpt lat="57.91364333" lon="14.39010167"><ele>200.0</ele><time>2016-06-18T05:32:57.289Z</time></trkpt><trkpt lat="57.91364333" lon="14.39010167"><ele>200.0</ele><time>2016-06-18T05:32:58.286Z</time></trkpt><trkpt lat="57.91354667" lon="14.39011167"><ele>201.0</ele><time>2016-06-18T05:32:59.293Z</time></trkpt><trkpt lat="57.91354667" lon="14.39011167"><ele>201.0</ele><time>2016-06-18T05:33:00.315Z</time></trkpt><trkpt lat="57.91345" lon="14.390125"><ele>202.0</ele><time>2016-06-18T05:33:01.318Z</time></trkpt><trkpt lat="57.91345" lon="14.390125"><ele>202.0</ele><time>2016-06-18T05:33:02.303Z</time></trkpt><trkpt lat="57.91335167" lon="14.39014167"><ele>202.0</ele><time>2016-06-18T05:33:03.318Z</time></trkpt><trkpt lat="57.91335167" lon="14.39014167"><ele>202.0</ele><time>2016-06-18T05:33:04.288Z</time></trkpt><trkpt lat="57.91324333" lon="14.390155"><ele>203.0</ele><time>2016-06-18T05:33:05.290Z</time></trkpt><trkpt lat="57.91324333" lon="14.390155"><ele>203.0</ele><time>2016-06-18T05:33:06.314Z</time></trkpt><trkpt lat="57.91313333" lon="14.39016833"><ele>203.0</ele><time>2016-06-18T05:33:07.321Z</time></trkpt><trkpt lat="57.91308333" lon="14.39018333"><ele>203.0</ele><time>2016-06-18T05:33:08.288Z</time></trkpt><trkpt lat="57.91308333" lon="14.39018333"><ele>203.0</ele><time>2016-06-18T05:33:09.284Z</time></trkpt><trkpt lat="57.91297833" lon="14.39021833"><ele>204.0</ele><time>2016-06-18T05:33:10.290Z</time></trkpt><trkpt lat="57.91292667" lon="14.39023333"><ele>204.0</ele><time>2016-06-18T05:33:11.308Z</time></trkpt><trkpt lat="57.91292667" lon="14.39023333"><ele>204.0</ele><time>2016-06-18T05:33:12.288Z</time></trkpt><trkpt lat="57.91282667" lon="14.390275"><ele>204.0</ele><time>2016-06-18T05:33:13.304Z</time></trkpt><trkpt lat="57.91277333" lon="14.39029167"><ele>205.0</ele><time>2016-06-18T05:33:14.286Z</time></trkpt><trkpt lat="57.91277333" lon="14.39029167"><ele>205.0</ele><time>2016-06-18T05:33:15.309Z</time></trkpt><trkpt lat="57.91266333" lon="14.390315"><ele>206.0</ele><time>2016-06-18T05:33:16.286Z</time></trkpt><trkpt lat="57.9126" lon="14.39031833"><ele>206.0</ele><time>2016-06-18T05:33:17.312Z</time></trkpt><trkpt lat="57.9126" lon="14.39031833"><ele>206.0</ele><time>2016-06-18T05:33:18.303Z</time></trkpt><trkpt lat="57.91245" lon="14.39031333"><ele>205.0</ele><time>2016-06-18T05:33:19.300Z</time></trkpt><trkpt lat="57.91245" lon="14.39031333"><ele>205.0</ele><time>2016-06-18T05:33:20.282Z</time></trkpt><trkpt lat="57.91227" lon="14.390285"><ele>205.0</ele><time>2016-06-18T05:33:21.293Z</time></trkpt><trkpt lat="57.91227" lon="14.390285"><ele>205.0</ele><time>2016-06-18T05:33:22.316Z</time></trkpt><trkpt lat="57.9121" lon="14.39029833"><ele>205.0</ele><time>2016-06-18T05:33:23.288Z</time></trkpt><trkpt lat="57.9121" lon="14.39029833"><ele>205.0</ele><time>2016-06-18T05:33:24.310Z</time></trkpt><trkpt lat="57.91192333" lon="14.39034"><ele>204.0</ele><time>2016-06-18T05:33:25.317Z</time></trkpt><trkpt lat="57.91182667" lon="14.39035667"><ele>203.0</ele><time>2016-06-18T05:33:26.285Z</time></trkpt><trkpt lat="57.91182667" lon="14.39035667"><ele>203.0</ele><time>2016-06-18T05:33:27.308Z</time></trkpt><trkpt lat="57.911645" lon="14.39039833"><ele>203.0</ele><time>2016-06-18T05:33:28.314Z</time></trkpt><trkpt lat="57.911645" lon="14.39039833"><ele>203.0</ele><time>2016-06-18T05:33:29.297Z</time></trkpt><trkpt lat="57.91145333" lon="14.390415"><ele>202.0</ele><time>2016-06-18T05:33:30.319Z</time></trkpt><trkpt lat="57.91145333" lon="14.390415"><ele>202.0</ele><time>2016-06-18T05:33:31.318Z</time></trkpt><trkpt lat="57.911275" lon="14.39043833"><ele>202.0</ele><time>2016-06-18T05:33:32.294Z</time></trkpt><trkpt lat="57.911275" lon="14.39043833"><ele>202.0</ele><time>2016-06-18T05:33:33.310Z</time></trkpt><trkpt lat="57.91110667" lon="14.39044833"><ele>202.0</ele><time>2016-06-18T05:33:34.303Z</time></trkpt><trkpt lat="57.91110667" lon="14.39044833"><ele>202.0</ele><time>2016-06-18T05:33:35.285Z</time></trkpt><trkpt lat="57.91091333" lon="14.39044333"><ele>201.0</ele><time>2016-06-18T05:33:36.292Z</time></trkpt><trkpt lat="57.91091333" lon="14.39044333"><ele>201.0</ele><time>2016-06-18T05:33:37.315Z</time></trkpt><trkpt lat="57.91071333" lon="14.390405"><ele>201.0</ele><time>2016-06-18T05:33:38.295Z</time></trkpt><trkpt lat="57.91071333" lon="14.390405"><ele>201.0</ele><time>2016-06-18T05:33:39.312Z</time></trkpt><trkpt lat="57.91051" lon="14.39032333"><ele>201.0</ele><time>2016-06-18T05:33:40.319Z</time></trkpt><trkpt lat="57.91040167" lon="14.39027833"><ele>201.0</ele><time>2016-06-18T05:33:41.318Z</time></trkpt><trkpt lat="57.91040167" lon="14.39027833"><ele>201.0</ele><time>2016-06-18T05:33:42.304Z</time></trkpt><trkpt lat="57.91017833" lon="14.39016167"><ele>200.0</ele><time>2016-06-18T05:33:43.318Z</time></trkpt><trkpt lat="57.91006333" lon="14.39008333"><ele>200.0</ele><time>2016-06-18T05:33:44.318Z</time></trkpt><trkpt lat="57.91006333" lon="14.39008333"><ele>200.0</ele><time>2016-06-18T05:33:45.301Z</time></trkpt><trkpt lat="57.90983" lon="14.38992"><ele>200.0</ele><time>2016-06-18T05:33:46.307Z</time></trkpt><trkpt lat="57.90983" lon="14.38992"><ele>200.0</ele><time>2016-06-18T05:33:47.293Z</time></trkpt><trkpt lat="57.909575" lon="14.38976333"><ele>200.0</ele><time>2016-06-18T05:33:48.284Z</time></trkpt><trkpt lat="57.909575" lon="14.38976333"><ele>200.0</ele><time>2016-06-18T05:33:49.290Z</time></trkpt><trkpt lat="57.909315" lon="14.38962"><ele>199.0</ele><time>2016-06-18T05:33:50.305Z</time></trkpt><trkpt lat="57.909185" lon="14.389535"><ele>199.0</ele><time>2016-06-18T05:33:51.298Z</time></trkpt><trkpt lat="57.909185" lon="14.389535"><ele>199.0</ele><time>2016-06-18T05:33:52.320Z</time></trkpt><trkpt lat="57.90892167" lon="14.38935333"><ele>197.0</ele><time>2016-06-18T05:33:53.289Z</time></trkpt><trkpt lat="57.90879167" lon="14.38927"><ele>196.0</ele><time>2016-06-18T05:33:54.284Z</time></trkpt><trkpt lat="57.90879167" lon="14.38927"><ele>196.0</ele><time>2016-06-18T05:33:55.305Z</time></trkpt><trkpt lat="57.90853" lon="14.38910167"><ele>194.0</ele><time>2016-06-18T05:33:56.312Z</time></trkpt><trkpt lat="57.90853" lon="14.38910167"><ele>194.0</ele><time>2016-06-18T05:33:57.310Z</time></trkpt><trkpt lat="57.90827667" lon="14.38895"><ele>193.0</ele><time>2016-06-18T05:33:58.301Z</time></trkpt><trkpt lat="57.90827667" lon="14.38895"><ele>193.0</ele><time>2016-06-18T05:33:59.306Z</time></trkpt><trkpt lat="57.90804167" lon="14.38879833"><ele>192.0</ele><time>2016-06-18T05:34:00.318Z</time></trkpt><trkpt lat="57.90804167" lon="14.38879833"><ele>192.0</ele><time>2016-06-18T05:34:01.317Z</time></trkpt><trkpt lat="57.90781667" lon="14.38865167"><ele>192.0</ele><time>2016-06-18T05:34:02.307Z</time></trkpt><trkpt lat="57.90781667" lon="14.38865167"><ele>192.0</ele><time>2016-06-18T05:34:03.289Z</time></trkpt><trkpt lat="57.9076" lon="14.388515"><ele>191.0</ele><time>2016-06-18T05:34:04.308Z</time></trkpt><trkpt lat="57.90749333" lon="14.38844"><ele>190.0</ele><time>2016-06-18T05:34:05.291Z</time></trkpt><trkpt lat="57.90749333" lon="14.38844"><ele>190.0</ele><time>2016-06-18T05:34:06.312Z</time></trkpt><trkpt lat="57.90727667" lon="14.38828833"><ele>189.0</ele><time>2016-06-18T05:34:07.318Z</time></trkpt><trkpt lat="57.90716667" lon="14.38821833"><ele>189.0</ele><time>2016-06-18T05:34:08.291Z</time></trkpt><trkpt lat="57.90716667" lon="14.38821833"><ele>189.0</ele><time>2016-06-18T05:34:09.310Z</time></trkpt><trkpt lat="57.90694167" lon="14.38807833"><ele>188.0</ele><time>2016-06-18T05:34:10.317Z</time></trkpt><trkpt lat="57.90694167" lon="14.38807833"><ele>188.0</ele><time>2016-06-18T05:34:11.309Z</time></trkpt><trkpt lat="57.906715" lon="14.38792333"><ele>187.0</ele><time>2016-06-18T05:34:12.313Z</time></trkpt><trkpt lat="57.906715" lon="14.38792333"><ele>187.0</ele><time>2016-06-18T05:34:13.310Z</time></trkpt><trkpt lat="57.90649" lon="14.38777333"><ele>186.0</ele><time>2016-06-18T05:34:14.317Z</time></trkpt><trkpt lat="57.90649" lon="14.38777333"><ele>186.0</ele><time>2016-06-18T05:34:15.312Z</time></trkpt><trkpt lat="57.90627" lon="14.38762667"><ele>185.0</ele><time>2016-06-18T05:34:16.304Z</time></trkpt><trkpt lat="57.90627" lon="14.38762667"><ele>185.0</ele><time>2016-06-18T05:34:17.287Z</time></trkpt><trkpt lat="57.906055" lon="14.387485"><ele>185.0</ele><time>2016-06-18T05:34:18.305Z</time></trkpt><trkpt lat="57.906055" lon="14.387485"><ele>185.0</ele><time>2016-06-18T05:34:19.289Z</time></trkpt><trkpt lat="57.90584833" lon="14.38735"><ele>185.0</ele><time>2016-06-18T05:34:20.313Z</time></trkpt><trkpt lat="57.90584833" lon="14.38735"><ele>185.0</ele><time>2016-06-18T05:34:21.302Z</time></trkpt><trkpt lat="57.90565667" lon="14.38722167"><ele>185.0</ele><time>2016-06-18T05:34:22.310Z</time></trkpt><trkpt lat="57.90565667" lon="14.38722167"><ele>185.0</ele><time>2016-06-18T05:34:23.299Z</time></trkpt><trkpt lat="57.905485" lon="14.38710333"><ele>186.0</ele><time>2016-06-18T05:34:24.308Z</time></trkpt><trkpt lat="57.905485" lon="14.38710333"><ele>186.0</ele><time>2016-06-18T05:34:25.313Z</time></trkpt><trkpt lat="57.90533167" lon="14.38699333"><ele>187.0</ele><time>2016-06-18T05:34:26.319Z</time></trkpt><trkpt lat="57.90533167" lon="14.38699333"><ele>187.0</ele><time>2016-06-18T05:34:27.301Z</time></trkpt><trkpt lat="57.90519333" lon="14.38689"><ele>187.0</ele><time>2016-06-18T05:34:28.307Z</time></trkpt><trkpt lat="57.90519333" lon="14.38689"><ele>187.0</ele><time>2016-06-18T05:34:29.289Z</time></trkpt><trkpt lat="57.905065" lon="14.386785"><ele>188.0</ele><time>2016-06-18T05:34:30.307Z</time></trkpt><trkpt lat="57.90500167" lon="14.38673333"><ele>188.0</ele><time>2016-06-18T05:34:31.307Z</time></trkpt><trkpt lat="57.90500167" lon="14.38673333"><ele>188.0</ele><time>2016-06-18T05:34:32.291Z</time></trkpt><trkpt lat="57.90487833" lon="14.38662833"><ele>189.0</ele><time>2016-06-18T05:34:33.303Z</time></trkpt><trkpt lat="57.90481667" lon="14.38656833"><ele>189.0</ele><time>2016-06-18T05:34:34.288Z</time></trkpt><trkpt lat="57.90481667" lon="14.38656833"><ele>189.0</ele><time>2016-06-18T05:34:35.312Z</time></trkpt><trkpt lat="57.904695" lon="14.38643833"><ele>189.0</ele><time>2016-06-18T05:34:36.318Z</time></trkpt><trkpt lat="57.904695" lon="14.38643833"><ele>189.0</ele><time>2016-06-18T05:34:37.303Z</time></trkpt><trkpt lat="57.90457167" lon="14.38629"><ele>190.0</ele><time>2016-06-18T05:34:38.289Z</time></trkpt><trkpt lat="57.90457167" lon="14.38629"><ele>190.0</ele><time>2016-06-18T05:34:39.312Z</time></trkpt><trkpt lat="57.904445" lon="14.38611833"><ele>190.0</ele><time>2016-06-18T05:34:40.318Z</time></trkpt><trkpt lat="57.90438333" lon="14.38602667"><ele>190.0</ele><time>2016-06-18T05:34:41.311Z</time></trkpt><trkpt lat="57.90438333" lon="14.38602667"><ele>190.0</ele><time>2016-06-18T05:34:42.293Z</time></trkpt><trkpt lat="57.90426167" lon="14.38584333"><ele>190.0</ele><time>2016-06-18T05:34:43.305Z</time></trkpt><trkpt lat="57.90420667" lon="14.38574667"><ele>191.0</ele><time>2016-06-18T05:34:44.316Z</time></trkpt><trkpt lat="57.90420667" lon="14.38574667"><ele>191.0</ele><time>2016-06-18T05:34:45.301Z</time></trkpt><trkpt lat="57.904105" lon="14.38557"><ele>191.0</ele><time>2016-06-18T05:34:46.310Z</time></trkpt><trkpt lat="57.90405667" lon="14.38549"><ele>191.0</ele><time>2016-06-18T05:34:47.304Z</time></trkpt><trkpt lat="57.90405667" lon="14.38549"><ele>191.0</ele><time>2016-06-18T05:34:48.286Z</time></trkpt><trkpt lat="57.90397" lon="14.38535333"><ele>191.0</ele><time>2016-06-18T05:34:49.296Z</time></trkpt><trkpt lat="57.90393333" lon="14.38528333"><ele>191.0</ele><time>2016-06-18T05:34:50.294Z</time></trkpt><trkpt lat="57.90393333" lon="14.38528333"><ele>191.0</ele><time>2016-06-18T05:34:51.288Z</time></trkpt><trkpt lat="57.90386333" lon="14.38514667"><ele>192.0</ele><time>2016-06-18T05:34:52.296Z</time></trkpt><trkpt lat="57.90386333" lon="14.38514667"><ele>192.0</ele><time>2016-06-18T05:34:53.317Z</time></trkpt><trkpt lat="57.90379" lon="14.385015"><ele>193.0</ele><time>2016-06-18T05:34:54.288Z</time></trkpt><trkpt lat="57.90379" lon="14.385015"><ele>193.0</ele><time>2016-06-18T05:34:55.314Z</time></trkpt><trkpt lat="57.90372167" lon="14.38489833"><ele>193.0</ele><time>2016-06-18T05:34:56.320Z</time></trkpt><trkpt lat="57.90372167" lon="14.38489833"><ele>193.0</ele><time>2016-06-18T05:34:57.310Z</time></trkpt><trkpt lat="57.90365167" lon="14.38478"><ele>194.0</ele><time>2016-06-18T05:34:58.318Z</time></trkpt><trkpt lat="57.90365167" lon="14.38478"><ele>194.0</ele><time>2016-06-18T05:34:59.303Z</time></trkpt><trkpt lat="57.90359" lon="14.38466167"><ele>194.0</ele><time>2016-06-18T05:35:00.309Z</time></trkpt><trkpt lat="57.90355" lon="14.38462"><ele>195.0</ele><time>2016-06-18T05:35:01.293Z</time></trkpt><trkpt lat="57.90355" lon="14.38462"><ele>195.0</ele><time>2016-06-18T05:35:02.313Z</time></trkpt><trkpt lat="57.90347667" lon="14.38452"><ele>195.0</ele><time>2016-06-18T05:35:03.321Z</time></trkpt><trkpt lat="57.90347667" lon="14.38452"><ele>195.0</ele><time>2016-06-18T05:35:04.291Z</time></trkpt><trkpt lat="57.903405" lon="14.38442833"><ele>196.0</ele><time>2016-06-18T05:35:05.318Z</time></trkpt><trkpt lat="57.903405" lon="14.38442833"><ele>196.0</ele><time>2016-06-18T05:35:06.321Z</time></trkpt><trkpt lat="57.90333333" lon="14.38433833"><ele>197.0</ele><time>2016-06-18T05:35:07.288Z</time></trkpt><trkpt lat="57.90329833" lon="14.38429167"><ele>197.0</ele><time>2016-06-18T05:35:08.313Z</time></trkpt><trkpt lat="57.90326333" lon="14.38424667"><ele>197.0</ele><time>2016-06-18T05:35:09.308Z</time></trkpt><trkpt lat="57.90326333" lon="14.38424667"><ele>197.0</ele><time>2016-06-18T05:35:10.290Z</time></trkpt><trkpt lat="57.90319667" lon="14.38416667"><ele>198.0</ele><time>2016-06-18T05:35:11.298Z</time></trkpt><trkpt lat="57.90316167" lon="14.38413167"><ele>198.0</ele><time>2016-06-18T05:35:12.294Z</time></trkpt><trkpt lat="57.903125" lon="14.38409333"><ele>199.0</ele><time>2016-06-18T05:35:13.315Z</time></trkpt><trkpt lat="57.903125" lon="14.38409333"><ele>199.0</ele><time>2016-06-18T05:35:14.305Z</time></trkpt><trkpt lat="57.90304833" lon="14.38401333"><ele>200.0</ele><time>2016-06-18T05:35:15.312Z</time></trkpt><trkpt lat="57.90304833" lon="14.38401333"><ele>200.0</ele><time>2016-06-18T05:35:16.294Z</time></trkpt><trkpt lat="57.90296667" lon="14.38393667"><ele>201.0</ele><time>2016-06-18T05:35:17.304Z</time></trkpt><trkpt lat="57.90296667" lon="14.38393667"><ele>201.0</ele><time>2016-06-18T05:35:18.286Z</time></trkpt><trkpt lat="57.90288167" lon="14.383875"><ele>201.0</ele><time>2016-06-18T05:35:19.293Z</time></trkpt><trkpt lat="57.90284167" lon="14.38384667"><ele>201.0</ele><time>2016-06-18T05:35:20.288Z</time></trkpt><trkpt lat="57.90284167" lon="14.38384667"><ele>201.0</ele><time>2016-06-18T05:35:21.288Z</time></trkpt><trkpt lat="57.90276167" lon="14.38379167"><ele>202.0</ele><time>2016-06-18T05:35:22.297Z</time></trkpt><trkpt lat="57.90276167" lon="14.38379167"><ele>202.0</ele><time>2016-06-18T05:35:23.312Z</time></trkpt><trkpt lat="57.90268167" lon="14.38374167"><ele>202.0</ele><time>2016-06-18T05:35:24.305Z</time></trkpt><trkpt lat="57.90268167" lon="14.38374167"><ele>202.0</ele><time>2016-06-18T05:35:25.293Z</time></trkpt><trkpt lat="57.902605" lon="14.383695"><ele>203.0</ele><time>2016-06-18T05:35:26.310Z</time></trkpt><trkpt lat="57.902605" lon="14.383695"><ele>203.0</ele><time>2016-06-18T05:35:27.294Z</time></trkpt><trkpt lat="57.90253" lon="14.38365833"><ele>203.0</ele><time>2016-06-18T05:35:28.318Z</time></trkpt><trkpt lat="57.90249167" lon="14.38364167"><ele>203.0</ele><time>2016-06-18T05:35:29.300Z</time></trkpt><trkpt lat="57.90249167" lon="14.38364167"><ele>203.0</ele><time>2016-06-18T05:35:30.283Z</time></trkpt><trkpt lat="57.90241" lon="14.38361333"><ele>204.0</ele><time>2016-06-18T05:35:31.320Z</time></trkpt><trkpt lat="57.90236667" lon="14.38359833"><ele>204.0</ele><time>2016-06-18T05:35:32.303Z</time></trkpt><trkpt lat="57.90236667" lon="14.38359833"><ele>204.0</ele><time>2016-06-18T05:35:33.286Z</time></trkpt><trkpt lat="57.90227167" lon="14.383565"><ele>205.0</ele><time>2016-06-18T05:35:34.310Z</time></trkpt><trkpt lat="57.902225" lon="14.383545"><ele>205.0</ele><time>2016-06-18T05:35:35.306Z</time></trkpt><trkpt lat="57.902225" lon="14.383545"><ele>205.0</ele><time>2016-06-18T05:35:36.320Z</time></trkpt><trkpt lat="57.90212833" lon="14.38351"><ele>207.0</ele><time>2016-06-18T05:35:37.303Z</time></trkpt><trkpt lat="57.90207833" lon="14.383495"><ele>207.0</ele><time>2016-06-18T05:35:38.288Z</time></trkpt><trkpt lat="57.90207833" lon="14.383495"><ele>207.0</ele><time>2016-06-18T05:35:39.305Z</time></trkpt><trkpt lat="57.901975" lon="14.38347"><ele>207.0</ele><time>2016-06-18T05:35:40.283Z</time></trkpt><trkpt lat="57.901975" lon="14.38347"><ele>207.0</ele><time>2016-06-18T05:35:41.317Z</time></trkpt><trkpt lat="57.90186833" lon="14.38343667"><ele>206.0</ele><time>2016-06-18T05:35:42.289Z</time></trkpt><trkpt lat="57.90186833" lon="14.38343667"><ele>206.0</ele><time>2016-06-18T05:35:43.306Z</time></trkpt><trkpt lat="57.90176333" lon="14.38341"><ele>207.0</ele><time>2016-06-18T05:35:44.298Z</time></trkpt><trkpt lat="57.90176333" lon="14.38341"><ele>207.0</ele><time>2016-06-18T05:35:45.322Z</time></trkpt><trkpt lat="57.90164833" lon="14.38338333"><ele>206.0</ele><time>2016-06-18T05:35:46.289Z</time></trkpt><trkpt lat="57.90158667" lon="14.38336833"><ele>206.0</ele><time>2016-06-18T05:35:47.290Z</time></trkpt><trkpt lat="57.90158667" lon="14.38336833"><ele>206.0</ele><time>2016-06-18T05:35:48.295Z</time></trkpt><trkpt lat="57.90145167" lon="14.38333333"><ele>205.0</ele><time>2016-06-18T05:35:49.302Z</time></trkpt><trkpt lat="57.90145167" lon="14.38333333"><ele>205.0</ele><time>2016-06-18T05:35:50.318Z</time></trkpt><trkpt lat="57.90130333" lon="14.38329667"><ele>204.0</ele><time>2016-06-18T05:35:51.301Z</time></trkpt><trkpt lat="57.90130333" lon="14.38329667"><ele>204.0</ele><time>2016-06-18T05:35:52.283Z</time></trkpt><trkpt lat="57.901145" lon="14.38325667"><ele>203.0</ele><time>2016-06-18T05:35:53.291Z</time></trkpt><trkpt lat="57.901145" lon="14.38325667"><ele>203.0</ele><time>2016-06-18T05:35:54.307Z</time></trkpt><trkpt lat="57.90097833" lon="14.38321167"><ele>202.0</ele><time>2016-06-18T05:35:55.326Z</time></trkpt><trkpt lat="57.90097833" lon="14.38321167"><ele>202.0</ele><time>2016-06-18T05:35:56.285Z</time></trkpt><trkpt lat="57.90080667" lon="14.38315167"><ele>201.0</ele><time>2016-06-18T05:35:57.294Z</time></trkpt><trkpt lat="57.90080667" lon="14.38315167"><ele>201.0</ele><time>2016-06-18T05:35:58.317Z</time></trkpt><trkpt lat="57.900635" lon="14.38307167"><ele>200.0</ele><time>2016-06-18T05:35:59.313Z</time></trkpt><trkpt lat="57.90055167" lon="14.38302833"><ele>200.0</ele><time>2016-06-18T05:36:00.315Z</time></trkpt><trkpt lat="57.90047" lon="14.38298"><ele>199.0</ele><time>2016-06-18T05:36:01.298Z</time></trkpt><trkpt lat="57.90047" lon="14.38298"><ele>199.0</ele><time>2016-06-18T05:36:02.319Z</time></trkpt><trkpt lat="57.90031" lon="14.38287"><ele>198.0</ele><time>2016-06-18T05:36:03.287Z</time></trkpt><trkpt lat="57.90031" lon="14.38287"><ele>198.0</ele><time>2016-06-18T05:36:04.320Z</time></trkpt><trkpt lat="57.90015" lon="14.382745"><ele>197.0</ele><time>2016-06-18T05:36:05.287Z</time></trkpt><trkpt lat="57.90006833" lon="14.382675"><ele>197.0</ele><time>2016-06-18T05:36:06.312Z</time></trkpt><trkpt lat="57.90006833" lon="14.382675"><ele>197.0</ele><time>2016-06-18T05:36:07.303Z</time></trkpt><trkpt lat="57.89991" lon="14.38252"><ele>196.0</ele><time>2016-06-18T05:36:08.312Z</time></trkpt><trkpt lat="57.89991" lon="14.38252"><ele>196.0</ele><time>2016-06-18T05:36:09.294Z</time></trkpt><trkpt lat="57.89975" lon="14.38234"><ele>195.0</ele><time>2016-06-18T05:36:10.314Z</time></trkpt><trkpt lat="57.89975" lon="14.38234"><ele>195.0</ele><time>2016-06-18T05:36:11.304Z</time></trkpt><trkpt lat="57.89958833" lon="14.38214"><ele>194.0</ele><time>2016-06-18T05:36:12.295Z</time></trkpt><trkpt lat="57.89951" lon="14.38203333"><ele>194.0</ele><time>2016-06-18T05:36:13.317Z</time></trkpt><trkpt lat="57.89951" lon="14.38203333"><ele>194.0</ele><time>2016-06-18T05:36:14.304Z</time></trkpt><trkpt lat="57.899355" lon="14.38181667"><ele>193.0</ele><time>2016-06-18T05:36:15.318Z</time></trkpt><trkpt lat="57.899355" lon="14.38181667"><ele>193.0</ele><time>2016-06-18T05:36:16.320Z</time></trkpt><trkpt lat="57.899205" lon="14.38159667"><ele>193.0</ele><time>2016-06-18T05:36:17.287Z</time></trkpt><trkpt lat="57.899205" lon="14.38159667"><ele>193.0</ele><time>2016-06-18T05:36:18.310Z</time></trkpt><trkpt lat="57.899055" lon="14.38137667"><ele>192.0</ele><time>2016-06-18T05:36:19.294Z</time></trkpt><trkpt lat="57.89898" lon="14.38127"><ele>192.0</ele><time>2016-06-18T05:36:20.288Z</time></trkpt><trkpt lat="57.898905" lon="14.38116"><ele>191.0</ele><time>2016-06-18T05:36:21.309Z</time></trkpt><trkpt lat="57.898905" lon="14.38116"><ele>191.0</ele><time>2016-06-18T05:36:22.292Z</time></trkpt><trkpt lat="57.898755" lon="14.38093167"><ele>190.0</ele><time>2016-06-18T05:36:23.313Z</time></trkpt><trkpt lat="57.898755" lon="14.38093167"><ele>190.0</ele><time>2016-06-18T05:36:24.303Z</time></trkpt><trkpt lat="57.898595" lon="14.38068667"><ele>189.0</ele><time>2016-06-18T05:36:25.318Z</time></trkpt><trkpt lat="57.89851333" lon="14.38056667"><ele>188.0</ele><time>2016-06-18T05:36:26.289Z</time></trkpt><trkpt lat="57.89851333" lon="14.38056667"><ele>188.0</ele><time>2016-06-18T05:36:27.311Z</time></trkpt><trkpt lat="57.898345" lon="14.38031833"><ele>187.0</ele><time>2016-06-18T05:36:28.318Z</time></trkpt><trkpt lat="57.89825833" lon="14.38018833"><ele>186.0</ele><time>2016-06-18T05:36:29.297Z</time></trkpt><trkpt lat="57.89825833" lon="14.38018833"><ele>186.0</ele><time>2016-06-18T05:36:30.306Z</time></trkpt><trkpt lat="57.89807833" lon="14.37991"><ele>184.0</ele><time>2016-06-18T05:36:31.314Z</time></trkpt><trkpt lat="57.897985" lon="14.37976333"><ele>183.0</ele><time>2016-06-18T05:36:32.320Z</time></trkpt><trkpt lat="57.897985" lon="14.37976333"><ele>183.0</ele><time>2016-06-18T05:36:33.303Z</time></trkpt><trkpt lat="57.897795" lon="14.37946667"><ele>182.0</ele><time>2016-06-18T05:36:34.310Z</time></trkpt><trkpt lat="57.897795" lon="14.37946667"><ele>182.0</ele><time>2016-06-18T05:36:35.291Z</time></trkpt><trkpt lat="57.89760667" lon="14.37917167"><ele>182.0</ele><time>2016-06-18T05:36:36.318Z</time></trkpt><trkpt lat="57.89760667" lon="14.37917167"><ele>182.0</ele><time>2016-06-18T05:36:37.302Z</time></trkpt><trkpt lat="57.897425" lon="14.37888167"><ele>181.0</ele><time>2016-06-18T05:36:38.308Z</time></trkpt><trkpt lat="57.897425" lon="14.37888167"><ele>181.0</ele><time>2016-06-18T05:36:39.291Z</time></trkpt><trkpt lat="57.89724167" lon="14.37860167"><ele>181.0</ele><time>2016-06-18T05:36:40.307Z</time></trkpt><trkpt lat="57.89724167" lon="14.37860167"><ele>181.0</ele><time>2016-06-18T05:36:41.318Z</time></trkpt><trkpt lat="57.89706333" lon="14.378325"><ele>180.0</ele><time>2016-06-18T05:36:42.291Z</time></trkpt><trkpt lat="57.89706333" lon="14.378325"><ele>180.0</ele><time>2016-06-18T05:36:43.314Z</time></trkpt><trkpt lat="57.896885" lon="14.37805333"><ele>179.0</ele><time>2016-06-18T05:36:44.290Z</time></trkpt><trkpt lat="57.896795" lon="14.37792"><ele>178.0</ele><time>2016-06-18T05:36:45.321Z</time></trkpt><trkpt lat="57.896795" lon="14.37792"><ele>178.0</ele><time>2016-06-18T05:36:46.304Z</time></trkpt><trkpt lat="57.89660833" lon="14.377645"><ele>177.0</ele><time>2016-06-18T05:36:47.312Z</time></trkpt><trkpt lat="57.89651833" lon="14.37750833"><ele>177.0</ele><time>2016-06-18T05:36:48.316Z</time></trkpt><trkpt lat="57.89651833" lon="14.37750833"><ele>177.0</ele><time>2016-06-18T05:36:49.319Z</time></trkpt><trkpt lat="57.89634" lon="14.377235"><ele>175.0</ele><time>2016-06-18T05:36:50.285Z</time></trkpt><trkpt lat="57.89634" lon="14.377235"><ele>175.0</ele><time>2016-06-18T05:36:51.308Z</time></trkpt><trkpt lat="57.89616167" lon="14.37697"><ele>174.0</ele><time>2016-06-18T05:36:52.287Z</time></trkpt><trkpt lat="57.89607" lon="14.376835"><ele>173.0</ele><time>2016-06-18T05:36:53.309Z</time></trkpt><trkpt lat="57.89607" lon="14.376835"><ele>173.0</ele><time>2016-06-18T05:36:54.291Z</time></trkpt><trkpt lat="57.89589" lon="14.37655833"><ele>172.0</ele><time>2016-06-18T05:36:55.316Z</time></trkpt><trkpt lat="57.8958" lon="14.37641667"><ele>171.0</ele><time>2016-06-18T05:36:56.296Z</time></trkpt><trkpt lat="57.8958" lon="14.37641667"><ele>171.0</ele><time>2016-06-18T05:36:57.316Z</time></trkpt><trkpt lat="57.89562" lon="14.37613167"><ele>171.0</ele><time>2016-06-18T05:36:58.282Z</time></trkpt><trkpt lat="57.89562" lon="14.37613167"><ele>171.0</ele><time>2016-06-18T05:36:59.304Z</time></trkpt><trkpt lat="57.89544167" lon="14.375855"><ele>170.0</ele><time>2016-06-18T05:37:00.314Z</time></trkpt><trkpt lat="57.89544167" lon="14.375855"><ele>170.0</ele><time>2016-06-18T05:37:01.298Z</time></trkpt><trkpt lat="57.89526333" lon="14.37557333"><ele>169.0</ele><time>2016-06-18T05:37:02.299Z</time></trkpt><trkpt lat="57.89526333" lon="14.37557333"><ele>169.0</ele><time>2016-06-18T05:37:03.298Z</time></trkpt><trkpt lat="57.895085" lon="14.375295"><ele>168.0</ele><time>2016-06-18T05:37:04.306Z</time></trkpt><trkpt lat="57.895085" lon="14.375295"><ele>168.0</ele><time>2016-06-18T05:37:05.289Z</time></trkpt><trkpt lat="57.89490167" lon="14.375015"><ele>166.0</ele><time>2016-06-18T05:37:06.287Z</time></trkpt><trkpt lat="57.89490167" lon="14.375015"><ele>166.0</ele><time>2016-06-18T05:37:07.317Z</time></trkpt><trkpt lat="57.89471833" lon="14.37473167"><ele>166.0</ele><time>2016-06-18T05:37:08.298Z</time></trkpt><trkpt lat="57.89471833" lon="14.37473167"><ele>166.0</ele><time>2016-06-18T05:37:09.314Z</time></trkpt><trkpt lat="57.89453667" lon="14.37445333"><ele>165.0</ele><time>2016-06-18T05:37:10.288Z</time></trkpt><trkpt lat="57.89453667" lon="14.37445333"><ele>165.0</ele><time>2016-06-18T05:37:11.311Z</time></trkpt><trkpt lat="57.894355" lon="14.37417167"><ele>163.0</ele><time>2016-06-18T05:37:12.310Z</time></trkpt><trkpt lat="57.894355" lon="14.37417167"><ele>163.0</ele><time>2016-06-18T05:37:13.296Z</time></trkpt><trkpt lat="57.89417" lon="14.37388833"><ele>163.0</ele><time>2016-06-18T05:37:14.317Z</time></trkpt><trkpt lat="57.89407833" lon="14.37375"><ele>163.0</ele><time>2016-06-18T05:37:15.307Z</time></trkpt><trkpt lat="57.89407833" lon="14.37375"><ele>163.0</ele><time>2016-06-18T05:37:16.287Z</time></trkpt><trkpt lat="57.89389" lon="14.37348833"><ele>162.0</ele><time>2016-06-18T05:37:17.297Z</time></trkpt><trkpt lat="57.893795" lon="14.37336333"><ele>162.0</ele><time>2016-06-18T05:37:18.321Z</time></trkpt><trkpt lat="57.893795" lon="14.37336333"><ele>162.0</ele><time>2016-06-18T05:37:19.310Z</time></trkpt><trkpt lat="57.89361833" lon="14.37313333"><ele>162.0</ele><time>2016-06-18T05:37:20.318Z</time></trkpt><trkpt lat="57.89361833" lon="14.37313333"><ele>162.0</ele><time>2016-06-18T05:37:21.320Z</time></trkpt><trkpt lat="57.89344833" lon="14.37288167"><ele>162.0</ele><time>2016-06-18T05:37:22.294Z</time></trkpt><trkpt lat="57.89344833" lon="14.37288167"><ele>162.0</ele><time>2016-06-18T05:37:23.289Z</time></trkpt><trkpt lat="57.89329167" lon="14.37262833"><ele>162.0</ele><time>2016-06-18T05:37:24.290Z</time></trkpt><trkpt lat="57.89329167" lon="14.37262833"><ele>162.0</ele><time>2016-06-18T05:37:25.306Z</time></trkpt><trkpt lat="57.89314" lon="14.37237667"><ele>162.0</ele><time>2016-06-18T05:37:26.314Z</time></trkpt><trkpt lat="57.89314" lon="14.37237667"><ele>162.0</ele><time>2016-06-18T05:37:27.286Z</time></trkpt><trkpt lat="57.89299167" lon="14.37213333"><ele>162.0</ele><time>2016-06-18T05:37:28.321Z</time></trkpt><trkpt lat="57.89299167" lon="14.37213333"><ele>162.0</ele><time>2016-06-18T05:37:29.316Z</time></trkpt><trkpt lat="57.892845" lon="14.37189333"><ele>163.0</ele><time>2016-06-18T05:37:30.285Z</time></trkpt><trkpt lat="57.892845" lon="14.37189333"><ele>163.0</ele><time>2016-06-18T05:37:31.315Z</time></trkpt><trkpt lat="57.89270333" lon="14.37165667"><ele>163.0</ele><time>2016-06-18T05:37:32.287Z</time></trkpt><trkpt lat="57.89270333" lon="14.37165667"><ele>163.0</ele><time>2016-06-18T05:37:33.294Z</time></trkpt><trkpt lat="57.892565" lon="14.37142667"><ele>163.0</ele><time>2016-06-18T05:37:34.314Z</time></trkpt><trkpt lat="57.892565" lon="14.37142667"><ele>163.0</ele><time>2016-06-18T05:37:35.287Z</time></trkpt><trkpt lat="57.89243" lon="14.37121"><ele>164.0</ele><time>2016-06-18T05:37:36.316Z</time></trkpt><trkpt lat="57.89243" lon="14.37121"><ele>164.0</ele><time>2016-06-18T05:37:37.313Z</time></trkpt><trkpt lat="57.892305" lon="14.37100167"><ele>164.0</ele><time>2016-06-18T05:37:38.284Z</time></trkpt><trkpt lat="57.892305" lon="14.37100167"><ele>164.0</ele><time>2016-06-18T05:37:39.295Z</time></trkpt><trkpt lat="57.89218333" lon="14.37080167"><ele>165.0</ele><time>2016-06-18T05:37:40.312Z</time></trkpt><trkpt lat="57.89218333" lon="14.37080167"><ele>165.0</ele><time>2016-06-18T05:37:41.309Z</time></trkpt><trkpt lat="57.89206333" lon="14.37060833"><ele>166.0</ele><time>2016-06-18T05:37:42.317Z</time></trkpt><trkpt lat="57.892" lon="14.37051"><ele>166.0</ele><time>2016-06-18T05:37:43.319Z</time></trkpt><trkpt lat="57.892" lon="14.37051"><ele>166.0</ele><time>2016-06-18T05:37:44.288Z</time></trkpt><trkpt lat="57.891875" lon="14.37030667"><ele>167.0</ele><time>2016-06-18T05:37:45.298Z</time></trkpt><trkpt lat="57.891875" lon="14.37030667"><ele>167.0</ele><time>2016-06-18T05:37:46.282Z</time></trkpt><trkpt lat="57.89174833" lon="14.370095"><ele>167.0</ele><time>2016-06-18T05:37:47.292Z</time></trkpt><trkpt lat="57.89168167" lon="14.36998667"><ele>167.0</ele><time>2016-06-18T05:37:48.325Z</time></trkpt><trkpt lat="57.891615" lon="14.36987333"><ele>167.0</ele><time>2016-06-18T05:37:49.308Z</time></trkpt><trkpt lat="57.891615" lon="14.36987333"><ele>167.0</ele><time>2016-06-18T05:37:50.296Z</time></trkpt><trkpt lat="57.89147667" lon="14.369645"><ele>166.0</ele><time>2016-06-18T05:37:51.310Z</time></trkpt><trkpt lat="57.89147667" lon="14.369645"><ele>166.0</ele><time>2016-06-18T05:37:52.295Z</time></trkpt><trkpt lat="57.89133833" lon="14.36942167"><ele>166.0</ele><time>2016-06-18T05:37:53.299Z</time></trkpt><trkpt lat="57.89133833" lon="14.36942167"><ele>166.0</ele><time>2016-06-18T05:37:54.290Z</time></trkpt><trkpt lat="57.89120333" lon="14.36920667"><ele>166.0</ele><time>2016-06-18T05:37:55.297Z</time></trkpt><trkpt lat="57.89113667" lon="14.3691"><ele>166.0</ele><time>2016-06-18T05:37:56.308Z</time></trkpt><trkpt lat="57.89113667" lon="14.3691"><ele>166.0</ele><time>2016-06-18T05:37:57.293Z</time></trkpt><trkpt lat="57.89101" lon="14.36889667"><ele>166.0</ele><time>2016-06-18T05:37:58.302Z</time></trkpt><trkpt lat="57.89094667" lon="14.36879833"><ele>166.0</ele><time>2016-06-18T05:37:59.286Z</time></trkpt><trkpt lat="57.89094667" lon="14.36879833"><ele>166.0</ele><time>2016-06-18T05:38:00.312Z</time></trkpt><trkpt lat="57.89082333" lon="14.36861167"><ele>166.0</ele><time>2016-06-18T05:38:01.298Z</time></trkpt><trkpt lat="57.89082333" lon="14.36861167"><ele>166.0</ele><time>2016-06-18T05:38:02.308Z</time></trkpt><trkpt lat="57.890705" lon="14.368435"><ele>165.0</ele><time>2016-06-18T05:38:03.318Z</time></trkpt><trkpt lat="57.890705" lon="14.368435"><ele>165.0</ele><time>2016-06-18T05:38:04.306Z</time></trkpt><trkpt lat="57.89058667" lon="14.36825833"><ele>165.0</ele><time>2016-06-18T05:38:05.317Z</time></trkpt><trkpt lat="57.89058667" lon="14.36825833"><ele>165.0</ele><time>2016-06-18T05:38:06.293Z</time></trkpt><trkpt lat="57.89046333" lon="14.36807333"><ele>165.0</ele><time>2016-06-18T05:38:07.308Z</time></trkpt><trkpt lat="57.89039667" lon="14.36797833"><ele>165.0</ele><time>2016-06-18T05:38:08.289Z</time></trkpt><trkpt lat="57.89039667" lon="14.36797833"><ele>165.0</ele><time>2016-06-18T05:38:09.306Z</time></trkpt><trkpt lat="57.89026333" lon="14.36777667"><ele>165.0</ele><time>2016-06-18T05:38:10.313Z</time></trkpt><trkpt lat="57.89026333" lon="14.36777667"><ele>165.0</ele><time>2016-06-18T05:38:11.313Z</time></trkpt><trkpt lat="57.89012167" lon="14.36758"><ele>164.0</ele><time>2016-06-18T05:38:12.307Z</time></trkpt><trkpt lat="57.89005167" lon="14.36747833"><ele>164.0</ele><time>2016-06-18T05:38:13.292Z</time></trkpt><trkpt lat="57.89005167" lon="14.36747833"><ele>164.0</ele><time>2016-06-18T05:38:14.320Z</time></trkpt><trkpt lat="57.88991333" lon="14.36727833"><ele>164.0</ele><time>2016-06-18T05:38:15.296Z</time></trkpt><trkpt lat="57.889845" lon="14.36718"><ele>163.0</ele><time>2016-06-18T05:38:16.297Z</time></trkpt><trkpt lat="57.889845" lon="14.36718"><ele>163.0</ele><time>2016-06-18T05:38:17.321Z</time></trkpt><trkpt lat="57.88971167" lon="14.36699167"><ele>163.0</ele><time>2016-06-18T05:38:18.289Z</time></trkpt><trkpt lat="57.88971167" lon="14.36699167"><ele>163.0</ele><time>2016-06-18T05:38:19.313Z</time></trkpt><trkpt lat="57.88958667" lon="14.366815"><ele>162.0</ele><time>2016-06-18T05:38:20.321Z</time></trkpt><trkpt lat="57.88953" lon="14.36673833"><ele>162.0</ele><time>2016-06-18T05:38:21.288Z</time></trkpt><trkpt lat="57.88953" lon="14.36673833"><ele>162.0</ele><time>2016-06-18T05:38:22.311Z</time></trkpt><trkpt lat="57.88943" lon="14.36659333"><ele>162.0</ele><time>2016-06-18T05:38:23.289Z</time></trkpt><trkpt lat="57.88943" lon="14.36659333"><ele>162.0</ele><time>2016-06-18T05:38:24.311Z</time></trkpt><trkpt lat="57.88934833" lon="14.36642167"><ele>161.0</ele><time>2016-06-18T05:38:25.308Z</time></trkpt><trkpt lat="57.88934833" lon="14.36642167"><ele>161.0</ele><time>2016-06-18T05:38:26.292Z</time></trkpt><trkpt lat="57.889265" lon="14.36623667"><ele>162.0</ele><time>2016-06-18T05:38:27.299Z</time></trkpt><trkpt lat="57.889265" lon="14.36623667"><ele>162.0</ele><time>2016-06-18T05:38:28.283Z</time></trkpt><trkpt lat="57.889135" lon="14.36611167"><ele>162.0</ele><time>2016-06-18T05:38:29.324Z</time></trkpt><trkpt lat="57.889135" lon="14.36611167"><ele>162.0</ele><time>2016-06-18T05:38:30.314Z</time></trkpt><trkpt lat="57.88898667" lon="14.36596667"><ele>161.0</ele><time>2016-06-18T05:38:31.282Z</time></trkpt><trkpt lat="57.88898667" lon="14.36596667"><ele>161.0</ele><time>2016-06-18T05:38:32.305Z</time></trkpt><trkpt lat="57.88883667" lon="14.36577333"><ele>160.0</ele><time>2016-06-18T05:38:33.316Z</time></trkpt><trkpt lat="57.88883667" lon="14.36577333"><ele>160.0</ele><time>2016-06-18T05:38:34.297Z</time></trkpt><trkpt lat="57.888685" lon="14.36555833"><ele>160.0</ele><time>2016-06-18T05:38:35.310Z</time></trkpt><trkpt lat="57.88861167" lon="14.36544667"><ele>160.0</ele><time>2016-06-18T05:38:36.318Z</time></trkpt><trkpt lat="57.88861167" lon="14.36544667"><ele>160.0</ele><time>2016-06-18T05:38:37.289Z</time></trkpt><trkpt lat="57.88845833" lon="14.36522167"><ele>159.0</ele><time>2016-06-18T05:38:38.297Z</time></trkpt><trkpt lat="57.88845833" lon="14.36522167"><ele>159.0</ele><time>2016-06-18T05:38:39.321Z</time></trkpt><trkpt lat="57.88829667" lon="14.36499833"><ele>159.0</ele><time>2016-06-18T05:38:40.318Z</time></trkpt><trkpt lat="57.88829667" lon="14.36499833"><ele>159.0</ele><time>2016-06-18T05:38:41.317Z</time></trkpt><trkpt lat="57.888135" lon="14.36476833"><ele>158.0</ele><time>2016-06-18T05:38:42.284Z</time></trkpt><trkpt lat="57.888135" lon="14.36476833"><ele>158.0</ele><time>2016-06-18T05:38:43.308Z</time></trkpt><trkpt lat="57.88797333" lon="14.364545"><ele>158.0</ele><time>2016-06-18T05:38:44.308Z</time></trkpt><trkpt lat="57.88797333" lon="14.364545"><ele>158.0</ele><time>2016-06-18T05:38:45.300Z</time></trkpt><trkpt lat="57.88781833" lon="14.36433"><ele>157.0</ele><time>2016-06-18T05:38:46.308Z</time></trkpt><trkpt lat="57.88781833" lon="14.36433"><ele>157.0</ele><time>2016-06-18T05:38:47.290Z</time></trkpt><trkpt lat="57.88767" lon="14.36413167"><ele>157.0</ele><time>2016-06-18T05:38:48.307Z</time></trkpt><trkpt lat="57.88767" lon="14.36413167"><ele>157.0</ele><time>2016-06-18T05:38:49.310Z</time></trkpt><trkpt lat="57.88753667" lon="14.36394333"><ele>157.0</ele><time>2016-06-18T05:38:50.319Z</time></trkpt><trkpt lat="57.88753667" lon="14.36394333"><ele>157.0</ele><time>2016-06-18T05:38:51.287Z</time></trkpt><trkpt lat="57.88740833" lon="14.36375"><ele>157.0</ele><time>2016-06-18T05:38:52.308Z</time></trkpt><trkpt lat="57.88740833" lon="14.36375"><ele>157.0</ele><time>2016-06-18T05:38:53.319Z</time></trkpt><trkpt lat="57.887285" lon="14.36355333"><ele>157.0</ele><time>2016-06-18T05:38:54.286Z</time></trkpt><trkpt lat="57.887285" lon="14.36355333"><ele>157.0</ele><time>2016-06-18T05:38:55.308Z</time></trkpt><trkpt lat="57.887155" lon="14.36336"><ele>157.0</ele><time>2016-06-18T05:38:56.307Z</time></trkpt><trkpt lat="57.887155" lon="14.36336"><ele>157.0</ele><time>2016-06-18T05:38:57.295Z</time></trkpt><trkpt lat="57.88701833" lon="14.363165"><ele>156.0</ele><time>2016-06-18T05:38:58.306Z</time></trkpt><trkpt lat="57.88694667" lon="14.36306333"><ele>156.0</ele><time>2016-06-18T05:38:59.298Z</time></trkpt><trkpt lat="57.88694667" lon="14.36306333"><ele>156.0</ele><time>2016-06-18T05:39:00.290Z</time></trkpt><trkpt lat="57.88680667" lon="14.36286667"><ele>156.0</ele><time>2016-06-18T05:39:01.298Z</time></trkpt><trkpt lat="57.88673667" lon="14.36276667"><ele>155.0</ele><time>2016-06-18T05:39:02.298Z</time></trkpt><trkpt lat="57.88673667" lon="14.36276667"><ele>155.0</ele><time>2016-06-18T05:39:03.287Z</time></trkpt><trkpt lat="57.88659833" lon="14.36256833"><ele>155.0</ele><time>2016-06-18T05:39:04.295Z</time></trkpt><trkpt lat="57.88659833" lon="14.36256833"><ele>155.0</ele><time>2016-06-18T05:39:05.315Z</time></trkpt><trkpt lat="57.88646333" lon="14.36237333"><ele>154.0</ele><time>2016-06-18T05:39:06.310Z</time></trkpt><trkpt lat="57.88646333" lon="14.36237333"><ele>154.0</ele><time>2016-06-18T05:39:07.293Z</time></trkpt><trkpt lat="57.886335" lon="14.36218"><ele>154.0</ele><time>2016-06-18T05:39:08.311Z</time></trkpt><trkpt lat="57.886335" lon="14.36218"><ele>154.0</ele><time>2016-06-18T05:39:09.295Z</time></trkpt><trkpt lat="57.88619833" lon="14.36199167"><ele>154.0</ele><time>2016-06-18T05:39:10.318Z</time></trkpt><trkpt lat="57.88619833" lon="14.36199167"><ele>154.0</ele><time>2016-06-18T05:39:11.307Z</time></trkpt><trkpt lat="57.886065" lon="14.36179667"><ele>154.0</ele><time>2016-06-18T05:39:12.294Z</time></trkpt><trkpt lat="57.88599667" lon="14.36170167"><ele>154.0</ele><time>2016-06-18T05:39:13.309Z</time></trkpt><trkpt lat="57.88599667" lon="14.36170167"><ele>154.0</ele><time>2016-06-18T05:39:14.290Z</time></trkpt><trkpt lat="57.88586667" lon="14.36151667"><ele>154.0</ele><time>2016-06-18T05:39:15.321Z</time></trkpt><trkpt lat="57.88586667" lon="14.36151667"><ele>154.0</ele><time>2016-06-18T05:39:16.284Z</time></trkpt><trkpt lat="57.88574333" lon="14.36133167"><ele>154.0</ele><time>2016-06-18T05:39:17.292Z</time></trkpt><trkpt lat="57.88574333" lon="14.36133167"><ele>154.0</ele><time>2016-06-18T05:39:18.315Z</time></trkpt><trkpt lat="57.88562167" lon="14.36115"><ele>154.0</ele><time>2016-06-18T05:39:19.294Z</time></trkpt><trkpt lat="57.88556" lon="14.36106"><ele>154.0</ele><time>2016-06-18T05:39:20.290Z</time></trkpt><trkpt lat="57.8855" lon="14.36097333"><ele>155.0</ele><time>2016-06-18T05:39:21.315Z</time></trkpt><trkpt lat="57.8855" lon="14.36097333"><ele>155.0</ele><time>2016-06-18T05:39:22.298Z</time></trkpt><trkpt lat="57.88537667" lon="14.36079667"><ele>155.0</ele><time>2016-06-18T05:39:23.308Z</time></trkpt><trkpt lat="57.88537667" lon="14.36079667"><ele>155.0</ele><time>2016-06-18T05:39:24.289Z</time></trkpt><trkpt lat="57.88524833" lon="14.36062"><ele>155.0</ele><time>2016-06-18T05:39:25.299Z</time></trkpt><trkpt lat="57.88524833" lon="14.36062"><ele>155.0</ele><time>2016-06-18T05:39:26.321Z</time></trkpt><trkpt lat="57.88511833" lon="14.360435"><ele>155.0</ele><time>2016-06-18T05:39:27.288Z</time></trkpt><trkpt lat="57.88511833" lon="14.360435"><ele>155.0</ele><time>2016-06-18T05:39:28.312Z</time></trkpt><trkpt lat="57.88498333" lon="14.36024333"><ele>155.0</ele><time>2016-06-18T05:39:29.318Z</time></trkpt><trkpt lat="57.88498333" lon="14.36024333"><ele>155.0</ele><time>2016-06-18T05:39:30.294Z</time></trkpt><trkpt lat="57.884845" lon="14.36004167"><ele>154.0</ele><time>2016-06-18T05:39:31.308Z</time></trkpt><trkpt lat="57.88477333" lon="14.35993833"><ele>154.0</ele><time>2016-06-18T05:39:32.306Z</time></trkpt><trkpt lat="57.88470167" lon="14.35983667"><ele>154.0</ele><time>2016-06-18T05:39:33.291Z</time></trkpt><trkpt lat="57.88470167" lon="14.35983667"><ele>154.0</ele><time>2016-06-18T05:39:34.311Z</time></trkpt><trkpt lat="57.88455667" lon="14.35962667"><ele>154.0</ele><time>2016-06-18T05:39:35.328Z</time></trkpt><trkpt lat="57.88455667" lon="14.35962667"><ele>154.0</ele><time>2016-06-18T05:39:36.307Z</time></trkpt><trkpt lat="57.88441167" lon="14.35941667"><ele>153.0</ele><time>2016-06-18T05:39:37.289Z</time></trkpt><trkpt lat="57.88434" lon="14.359315"><ele>153.0</ele><time>2016-06-18T05:39:38.314Z</time></trkpt><trkpt lat="57.88434" lon="14.359315"><ele>153.0</ele><time>2016-06-18T05:39:39.298Z</time></trkpt><trkpt lat="57.884195" lon="14.359105"><ele>153.0</ele><time>2016-06-18T05:39:40.309Z</time></trkpt><trkpt lat="57.88412" lon="14.35899833"><ele>153.0</ele><time>2016-06-18T05:39:41.308Z</time></trkpt><trkpt lat="57.88412" lon="14.35899833"><ele>153.0</ele><time>2016-06-18T05:39:42.292Z</time></trkpt><trkpt lat="57.88397333" lon="14.358785"><ele>153.0</ele><time>2016-06-18T05:39:43.308Z</time></trkpt><trkpt lat="57.88390167" lon="14.35867833"><ele>152.0</ele><time>2016-06-18T05:39:44.291Z</time></trkpt><trkpt lat="57.88390167" lon="14.35867833"><ele>152.0</ele><time>2016-06-18T05:39:45.314Z</time></trkpt><trkpt lat="57.88375667" lon="14.35847"><ele>152.0</ele><time>2016-06-18T05:39:46.321Z</time></trkpt><trkpt lat="57.88375667" lon="14.35847"><ele>152.0</ele><time>2016-06-18T05:39:47.288Z</time></trkpt><trkpt lat="57.88361333" lon="14.35826333"><ele>152.0</ele><time>2016-06-18T05:39:48.312Z</time></trkpt><trkpt lat="57.88361333" lon="14.35826333"><ele>152.0</ele><time>2016-06-18T05:39:49.295Z</time></trkpt><trkpt lat="57.88347333" lon="14.35806167"><ele>152.0</ele><time>2016-06-18T05:39:50.302Z</time></trkpt><trkpt lat="57.88340167" lon="14.35796"><ele>151.0</ele><time>2016-06-18T05:39:51.304Z</time></trkpt><trkpt lat="57.88340167" lon="14.35796"><ele>151.0</ele><time>2016-06-18T05:39:52.286Z</time></trkpt><trkpt lat="57.883255" lon="14.357745"><ele>151.0</ele><time>2016-06-18T05:39:53.293Z</time></trkpt><trkpt lat="57.883255" lon="14.357745"><ele>151.0</ele><time>2016-06-18T05:39:54.317Z</time></trkpt><trkpt lat="57.8831" lon="14.35752667"><ele>151.0</ele><time>2016-06-18T05:39:55.307Z</time></trkpt><trkpt lat="57.8831" lon="14.35752667"><ele>151.0</ele><time>2016-06-18T05:39:56.301Z</time></trkpt><trkpt lat="57.88294167" lon="14.35729833"><ele>151.0</ele><time>2016-06-18T05:39:57.308Z</time></trkpt><trkpt lat="57.88294167" lon="14.35729833"><ele>151.0</ele><time>2016-06-18T05:39:58.290Z</time></trkpt><trkpt lat="57.882785" lon="14.357075"><ele>151.0</ele><time>2016-06-18T05:39:59.324Z</time></trkpt><trkpt lat="57.882785" lon="14.357075"><ele>151.0</ele><time>2016-06-18T05:40:00.314Z</time></trkpt><trkpt lat="57.88263333" lon="14.35685833"><ele>151.0</ele><time>2016-06-18T05:40:01.321Z</time></trkpt><trkpt lat="57.88263333" lon="14.35685833"><ele>151.0</ele><time>2016-06-18T05:40:02.314Z</time></trkpt><trkpt lat="57.88249" lon="14.35665667"><ele>150.0</ele><time>2016-06-18T05:40:03.287Z</time></trkpt><trkpt lat="57.88249" lon="14.35665667"><ele>150.0</ele><time>2016-06-18T05:40:04.288Z</time></trkpt><trkpt lat="57.88234833" lon="14.35645667"><ele>150.0</ele><time>2016-06-18T05:40:05.298Z</time></trkpt><trkpt lat="57.88227667" lon="14.35635667"><ele>150.0</ele><time>2016-06-18T05:40:06.308Z</time></trkpt><trkpt lat="57.88227667" lon="14.35635667"><ele>150.0</ele><time>2016-06-18T05:40:07.321Z</time></trkpt><trkpt lat="57.88213667" lon="14.35616"><ele>150.0</ele><time>2016-06-18T05:40:08.288Z</time></trkpt><trkpt lat="57.88213667" lon="14.35616"><ele>150.0</ele><time>2016-06-18T05:40:09.297Z</time></trkpt><trkpt lat="57.88199833" lon="14.35596"><ele>149.0</ele><time>2016-06-18T05:40:10.308Z</time></trkpt><trkpt lat="57.88199833" lon="14.35596"><ele>149.0</ele><time>2016-06-18T05:40:11.297Z</time></trkpt><trkpt lat="57.88185833" lon="14.355765"><ele>149.0</ele><time>2016-06-18T05:40:12.289Z</time></trkpt><trkpt lat="57.88179333" lon="14.35567333"><ele>149.0</ele><time>2016-06-18T05:40:13.316Z</time></trkpt><trkpt lat="57.88173167" lon="14.355585"><ele>148.0</ele><time>2016-06-18T05:40:14.300Z</time></trkpt><trkpt lat="57.88173167" lon="14.355585"><ele>148.0</ele><time>2016-06-18T05:40:15.283Z</time></trkpt><trkpt lat="57.88161" lon="14.355415"><ele>148.0</ele><time>2016-06-18T05:40:16.291Z</time></trkpt><trkpt lat="57.88154833" lon="14.35532667"><ele>148.0</ele><time>2016-06-18T05:40:17.316Z</time></trkpt><trkpt lat="57.88154833" lon="14.35532667"><ele>148.0</ele><time>2016-06-18T05:40:18.300Z</time></trkpt><trkpt lat="57.88142333" lon="14.35515167"><ele>148.0</ele><time>2016-06-18T05:40:19.309Z</time></trkpt><trkpt lat="57.88142333" lon="14.35515167"><ele>148.0</ele><time>2016-06-18T05:40:20.291Z</time></trkpt><trkpt lat="57.88129667" lon="14.35497167"><ele>148.0</ele><time>2016-06-18T05:40:21.309Z</time></trkpt><trkpt lat="57.88129667" lon="14.35497167"><ele>148.0</ele><time>2016-06-18T05:40:22.295Z</time></trkpt><trkpt lat="57.88117" lon="14.35478667"><ele>148.0</ele><time>2016-06-18T05:40:23.315Z</time></trkpt><trkpt lat="57.88110667" lon="14.35469667"><ele>148.0</ele><time>2016-06-18T05:40:24.318Z</time></trkpt><trkpt lat="57.88104333" lon="14.35460667"><ele>148.0</ele><time>2016-06-18T05:40:25.292Z</time></trkpt><trkpt lat="57.88104333" lon="14.35460667"><ele>148.0</ele><time>2016-06-18T05:40:26.316Z</time></trkpt><trkpt lat="57.880925" lon="14.35443667"><ele>148.0</ele><time>2016-06-18T05:40:27.298Z</time></trkpt><trkpt lat="57.880925" lon="14.35443667"><ele>148.0</ele><time>2016-06-18T05:40:28.305Z</time></trkpt><trkpt lat="57.880815" lon="14.35428833"><ele>148.0</ele><time>2016-06-18T05:40:29.318Z</time></trkpt><trkpt lat="57.880815" lon="14.35428833"><ele>148.0</ele><time>2016-06-18T05:40:30.296Z</time></trkpt><trkpt lat="57.88070833" lon="14.35413833"><ele>148.0</ele><time>2016-06-18T05:40:31.320Z</time></trkpt><trkpt lat="57.88070833" lon="14.35413833"><ele>148.0</ele><time>2016-06-18T05:40:32.310Z</time></trkpt><trkpt lat="57.8806" lon="14.353965"><ele>148.0</ele><time>2016-06-18T05:40:33.318Z</time></trkpt><trkpt lat="57.8806" lon="14.353965"><ele>148.0</ele><time>2016-06-18T05:40:34.296Z</time></trkpt><trkpt lat="57.88048333" lon="14.35377833"><ele>148.0</ele><time>2016-06-18T05:40:35.298Z</time></trkpt><trkpt lat="57.88048333" lon="14.35377833"><ele>148.0</ele><time>2016-06-18T05:40:36.307Z</time></trkpt><trkpt lat="57.88035167" lon="14.35358667"><ele>148.0</ele><time>2016-06-18T05:40:37.283Z</time></trkpt><trkpt lat="57.88028333" lon="14.35348833"><ele>148.0</ele><time>2016-06-18T05:40:38.309Z</time></trkpt><trkpt lat="57.88028333" lon="14.35348833"><ele>148.0</ele><time>2016-06-18T05:40:39.292Z</time></trkpt><trkpt lat="57.88014167" lon="14.353285"><ele>148.0</ele><time>2016-06-18T05:40:40.308Z</time></trkpt><trkpt lat="57.88007" lon="14.35317833"><ele>148.0</ele><time>2016-06-18T05:40:41.319Z</time></trkpt><trkpt lat="57.87999667" lon="14.35306833"><ele>148.0</ele><time>2016-06-18T05:40:42.308Z</time></trkpt><trkpt lat="57.87999667" lon="14.35306833"><ele>148.0</ele><time>2016-06-18T05:40:43.291Z</time></trkpt><trkpt lat="57.87984333" lon="14.35284167"><ele>149.0</ele><time>2016-06-18T05:40:44.299Z</time></trkpt><trkpt lat="57.87984333" lon="14.35284167"><ele>149.0</ele><time>2016-06-18T05:40:45.283Z</time></trkpt><trkpt lat="57.879685" lon="14.35261667"><ele>149.0</ele><time>2016-06-18T05:40:46.285Z</time></trkpt><trkpt lat="57.87960833" lon="14.35250833"><ele>149.0</ele><time>2016-06-18T05:40:47.305Z</time></trkpt><trkpt lat="57.87960833" lon="14.35250833"><ele>149.0</ele><time>2016-06-18T05:40:48.288Z</time></trkpt><trkpt lat="57.87946" lon="14.35229833"><ele>149.0</ele><time>2016-06-18T05:40:49.299Z</time></trkpt><trkpt lat="57.87938667" lon="14.35219833"><ele>149.0</ele><time>2016-06-18T05:40:50.310Z</time></trkpt><trkpt lat="57.87938667" lon="14.35219833"><ele>149.0</ele><time>2016-06-18T05:40:51.289Z</time></trkpt><trkpt lat="57.87923833" lon="14.35199167"><ele>148.0</ele><time>2016-06-18T05:40:52.295Z</time></trkpt><trkpt lat="57.87916333" lon="14.35188833"><ele>148.0</ele><time>2016-06-18T05:40:53.321Z</time></trkpt><trkpt lat="57.87916333" lon="14.35188833"><ele>148.0</ele><time>2016-06-18T05:40:54.304Z</time></trkpt><trkpt lat="57.87901167" lon="14.35168833"><ele>148.0</ele><time>2016-06-18T05:40:55.315Z</time></trkpt><trkpt lat="57.87893333" lon="14.351595"><ele>148.0</ele><time>2016-06-18T05:40:56.286Z</time></trkpt><trkpt lat="57.87893333" lon="14.351595"><ele>148.0</ele><time>2016-06-18T05:40:57.286Z</time></trkpt><trkpt lat="57.87877167" lon="14.35144667"><ele>148.0</ele><time>2016-06-18T05:40:58.293Z</time></trkpt><trkpt lat="57.87877167" lon="14.35144667"><ele>148.0</ele><time>2016-06-18T05:40:59.315Z</time></trkpt><trkpt lat="57.87859833" lon="14.351355"><ele>148.0</ele><time>2016-06-18T05:41:00.311Z</time></trkpt><trkpt lat="57.87859833" lon="14.351355"><ele>148.0</ele><time>2016-06-18T05:41:01.303Z</time></trkpt><trkpt lat="57.878415" lon="14.35129"><ele>148.0</ele><time>2016-06-18T05:41:02.287Z</time></trkpt><trkpt lat="57.87832167" lon="14.35126333"><ele>148.0</ele><time>2016-06-18T05:41:03.309Z</time></trkpt><trkpt lat="57.87832167" lon="14.35126333"><ele>148.0</ele><time>2016-06-18T05:41:04.291Z</time></trkpt><trkpt lat="57.878135" lon="14.35121833"><ele>148.0</ele><time>2016-06-18T05:41:05.308Z</time></trkpt><trkpt lat="57.878135" lon="14.35121833"><ele>148.0</ele><time>2016-06-18T05:41:06.318Z</time></trkpt><trkpt lat="57.87795" lon="14.35118333"><ele>148.0</ele><time>2016-06-18T05:41:07.286Z</time></trkpt><trkpt lat="57.87785833" lon="14.35116667"><ele>148.0</ele><time>2016-06-18T05:41:08.310Z</time></trkpt><trkpt lat="57.87776833" lon="14.35115333"><ele>147.0</ele><time>2016-06-18T05:41:09.293Z</time></trkpt><trkpt lat="57.87776833" lon="14.35115333"><ele>147.0</ele><time>2016-06-18T05:41:10.321Z</time></trkpt><trkpt lat="57.87759333" lon="14.35112167"><ele>147.0</ele><time>2016-06-18T05:41:11.309Z</time></trkpt><trkpt lat="57.87750667" lon="14.35110667"><ele>147.0</ele><time>2016-06-18T05:41:12.291Z</time></trkpt><trkpt lat="57.87742167" lon="14.35109333"><ele>147.0</ele><time>2016-06-18T05:41:13.314Z</time></trkpt><trkpt lat="57.87742167" lon="14.35109333"><ele>147.0</ele><time>2016-06-18T05:41:14.297Z</time></trkpt><trkpt lat="57.87725167" lon="14.351065"><ele>147.0</ele><time>2016-06-18T05:41:15.309Z</time></trkpt><trkpt lat="57.87725167" lon="14.351065"><ele>147.0</ele><time>2016-06-18T05:41:16.290Z</time></trkpt><trkpt lat="57.877085" lon="14.35102833"><ele>147.0</ele><time>2016-06-18T05:41:17.288Z</time></trkpt><trkpt lat="57.877085" lon="14.35102833"><ele>147.0</ele><time>2016-06-18T05:41:18.309Z</time></trkpt><trkpt lat="57.876915" lon="14.350995"><ele>147.0</ele><time>2016-06-18T05:41:19.316Z</time></trkpt><trkpt lat="57.876915" lon="14.350995"><ele>147.0</ele><time>2016-06-18T05:41:20.299Z</time></trkpt><trkpt lat="57.87674" lon="14.35096"><ele>146.0</ele><time>2016-06-18T05:41:21.311Z</time></trkpt><trkpt lat="57.87674" lon="14.35096"><ele>146.0</ele><time>2016-06-18T05:41:22.319Z</time></trkpt><trkpt lat="57.876565" lon="14.35093333"><ele>146.0</ele><time>2016-06-18T05:41:23.286Z</time></trkpt><trkpt lat="57.876565" lon="14.35093333"><ele>146.0</ele><time>2016-06-18T05:41:24.309Z</time></trkpt><trkpt lat="57.87639333" lon="14.35090333"><ele>147.0</ele><time>2016-06-18T05:41:25.302Z</time></trkpt><trkpt lat="57.87639333" lon="14.35090333"><ele>147.0</ele><time>2016-06-18T05:41:26.312Z</time></trkpt><trkpt lat="57.87621833" lon="14.35087333"><ele>147.0</ele><time>2016-06-18T05:41:27.318Z</time></trkpt><trkpt lat="57.87621833" lon="14.35087333"><ele>147.0</ele><time>2016-06-18T05:41:28.300Z</time></trkpt><trkpt lat="57.87604" lon="14.35084"><ele>147.0</ele><time>2016-06-18T05:41:29.298Z</time></trkpt><trkpt lat="57.875955" lon="14.35082333"><ele>147.0</ele><time>2016-06-18T05:41:30.311Z</time></trkpt><trkpt lat="57.875955" lon="14.35082333"><ele>147.0</ele><time>2016-06-18T05:41:31.293Z</time></trkpt><trkpt lat="57.87576833" lon="14.35079167"><ele>148.0</ele><time>2016-06-18T05:41:32.315Z</time></trkpt><trkpt lat="57.87576833" lon="14.35079167"><ele>148.0</ele><time>2016-06-18T05:41:33.292Z</time></trkpt><trkpt lat="57.87558" lon="14.35075167"><ele>148.0</ele><time>2016-06-18T05:41:34.299Z</time></trkpt><trkpt lat="57.87548833" lon="14.35073167"><ele>149.0</ele><time>2016-06-18T05:41:35.307Z</time></trkpt><trkpt lat="57.87548833" lon="14.35073167"><ele>149.0</ele><time>2016-06-18T05:41:36.289Z</time></trkpt><trkpt lat="57.87531167" lon="14.3507"><ele>149.0</ele><time>2016-06-18T05:41:37.314Z</time></trkpt><trkpt lat="57.87531167" lon="14.3507"><ele>149.0</ele><time>2016-06-18T05:41:38.298Z</time></trkpt><trkpt lat="57.87513833" lon="14.35067167"><ele>149.0</ele><time>2016-06-18T05:41:39.283Z</time></trkpt><trkpt lat="57.87513833" lon="14.35067167"><ele>149.0</ele><time>2016-06-18T05:41:40.291Z</time></trkpt><trkpt lat="57.874975" lon="14.35063833"><ele>149.0</ele><time>2016-06-18T05:41:41.298Z</time></trkpt><trkpt lat="57.874975" lon="14.35063833"><ele>149.0</ele><time>2016-06-18T05:41:42.321Z</time></trkpt><trkpt lat="57.87482667" lon="14.350605"><ele>149.0</ele><time>2016-06-18T05:41:43.308Z</time></trkpt><trkpt lat="57.87482667" lon="14.350605"><ele>149.0</ele><time>2016-06-18T05:41:44.289Z</time></trkpt><trkpt lat="57.87468" lon="14.35057167"><ele>149.0</ele><time>2016-06-18T05:41:45.296Z</time></trkpt><trkpt lat="57.87460333" lon="14.35055"><ele>150.0</ele><time>2016-06-18T05:41:46.288Z</time></trkpt><trkpt lat="57.87460333" lon="14.35055"><ele>150.0</ele><time>2016-06-18T05:41:47.313Z</time></trkpt><trkpt lat="57.87444167" lon="14.35050833"><ele>150.0</ele><time>2016-06-18T05:41:48.321Z</time></trkpt><trkpt lat="57.87444167" lon="14.35050833"><ele>150.0</ele><time>2016-06-18T05:41:49.303Z</time></trkpt><trkpt lat="57.87428167" lon="14.35046"><ele>150.0</ele><time>2016-06-18T05:41:50.309Z</time></trkpt><trkpt lat="57.87428167" lon="14.35046"><ele>150.0</ele><time>2016-06-18T05:41:51.295Z</time></trkpt><trkpt lat="57.87412" lon="14.35039667"><ele>150.0</ele><time>2016-06-18T05:41:52.306Z</time></trkpt><trkpt lat="57.87403833" lon="14.35035667"><ele>150.0</ele><time>2016-06-18T05:41:53.298Z</time></trkpt><trkpt lat="57.87403833" lon="14.35035667"><ele>150.0</ele><time>2016-06-18T05:41:54.312Z</time></trkpt><trkpt lat="57.87387833" lon="14.350265"><ele>150.0</ele><time>2016-06-18T05:41:55.319Z</time></trkpt><trkpt lat="57.87379833" lon="14.350215"><ele>150.0</ele><time>2016-06-18T05:41:56.318Z</time></trkpt><trkpt lat="57.87379833" lon="14.350215"><ele>150.0</ele><time>2016-06-18T05:41:57.305Z</time></trkpt><trkpt lat="57.87364" lon="14.35010333"><ele>151.0</ele><time>2016-06-18T05:41:58.313Z</time></trkpt><trkpt lat="57.87364" lon="14.35010333"><ele>151.0</ele><time>2016-06-18T05:41:59.298Z</time></trkpt><trkpt lat="57.87348333" lon="14.34995833"><ele>150.0</ele><time>2016-06-18T05:42:00.318Z</time></trkpt><trkpt lat="57.87348333" lon="14.34995833"><ele>150.0</ele><time>2016-06-18T05:42:01.306Z</time></trkpt><trkpt lat="57.87333167" lon="14.34979"><ele>151.0</ele><time>2016-06-18T05:42:02.312Z</time></trkpt><trkpt lat="57.87333167" lon="14.34979"><ele>151.0</ele><time>2016-06-18T05:42:03.296Z</time></trkpt><trkpt lat="57.87318833" lon="14.34960167"><ele>151.0</ele><time>2016-06-18T05:42:04.316Z</time></trkpt><trkpt lat="57.87318833" lon="14.34960167"><ele>151.0</ele><time>2016-06-18T05:42:05.299Z</time></trkpt><trkpt lat="57.87305333" lon="14.349385"><ele>151.0</ele><time>2016-06-18T05:42:06.307Z</time></trkpt><trkpt lat="57.87305333" lon="14.349385"><ele>151.0</ele><time>2016-06-18T05:42:07.289Z</time></trkpt><trkpt lat="57.87292667" lon="14.34915667"><ele>152.0</ele><time>2016-06-18T05:42:08.323Z</time></trkpt><trkpt lat="57.87292667" lon="14.34915667"><ele>152.0</ele><time>2016-06-18T05:42:09.309Z</time></trkpt><trkpt lat="57.87280167" lon="14.34891833"><ele>152.0</ele><time>2016-06-18T05:42:10.328Z</time></trkpt><trkpt lat="57.87280167" lon="14.34891833"><ele>152.0</ele><time>2016-06-18T05:42:11.320Z</time></trkpt><trkpt lat="57.87267667" lon="14.34868667"><ele>152.0</ele><time>2016-06-18T05:42:12.311Z</time></trkpt><trkpt lat="57.87261833" lon="14.34857833"><ele>152.0</ele><time>2016-06-18T05:42:13.296Z</time></trkpt><trkpt lat="57.87261833" lon="14.34857833"><ele>152.0</ele><time>2016-06-18T05:42:14.320Z</time></trkpt><trkpt lat="57.872515" lon="14.34836833"><ele>153.0</ele><time>2016-06-18T05:42:15.290Z</time></trkpt><trkpt lat="57.872465" lon="14.34826"><ele>153.0</ele><time>2016-06-18T05:42:16.298Z</time></trkpt><trkpt lat="57.872465" lon="14.34826"><ele>153.0</ele><time>2016-06-18T05:42:17.321Z</time></trkpt><trkpt lat="57.872365" lon="14.34803667"><ele>153.0</ele><time>2016-06-18T05:42:18.288Z</time></trkpt><trkpt lat="57.872365" lon="14.34803667"><ele>153.0</ele><time>2016-06-18T05:42:19.314Z</time></trkpt><trkpt lat="57.872265" lon="14.34781667"><ele>153.0</ele><time>2016-06-18T05:42:20.282Z</time></trkpt><trkpt lat="57.872265" lon="14.34781667"><ele>153.0</ele><time>2016-06-18T05:42:21.319Z</time></trkpt><trkpt lat="57.87215667" lon="14.34758833"><ele>153.0</ele><time>2016-06-18T05:42:22.286Z</time></trkpt><trkpt lat="57.87215667" lon="14.34758833"><ele>153.0</ele><time>2016-06-18T05:42:23.311Z</time></trkpt><trkpt lat="57.87204167" lon="14.34735"><ele>153.0</ele><time>2016-06-18T05:42:24.299Z</time></trkpt><trkpt lat="57.87204167" lon="14.34735"><ele>153.0</ele><time>2016-06-18T05:42:25.315Z</time></trkpt><trkpt lat="57.871925" lon="14.34711667"><ele>153.0</ele><time>2016-06-18T05:42:26.321Z</time></trkpt><trkpt lat="57.871925" lon="14.34711667"><ele>153.0</ele><time>2016-06-18T05:42:27.315Z</time></trkpt><trkpt lat="57.87180833" lon="14.34689167"><ele>153.0</ele><time>2016-06-18T05:42:28.298Z</time></trkpt><trkpt lat="57.87180833" lon="14.34689167"><ele>153.0</ele><time>2016-06-18T05:42:29.321Z</time></trkpt><trkpt lat="57.87169667" lon="14.34666667"><ele>153.0</ele><time>2016-06-18T05:42:30.289Z</time></trkpt><trkpt lat="57.87163833" lon="14.34655833"><ele>153.0</ele><time>2016-06-18T05:42:31.313Z</time></trkpt><trkpt lat="57.87163833" lon="14.34655833"><ele>153.0</ele><time>2016-06-18T05:42:32.293Z</time></trkpt><trkpt lat="57.87151833" lon="14.34633667"><ele>153.0</ele><time>2016-06-18T05:42:33.309Z</time></trkpt><trkpt lat="57.87151833" lon="14.34633667"><ele>153.0</ele><time>2016-06-18T05:42:34.291Z</time></trkpt><trkpt lat="57.871395" lon="14.346115"><ele>153.0</ele><time>2016-06-18T05:42:35.306Z</time></trkpt><trkpt lat="57.871395" lon="14.346115"><ele>153.0</ele><time>2016-06-18T05:42:36.298Z</time></trkpt><trkpt lat="57.87126167" lon="14.345905"><ele>153.0</ele><time>2016-06-18T05:42:37.311Z</time></trkpt><trkpt lat="57.87119" lon="14.34580667"><ele>152.0</ele><time>2016-06-18T05:42:38.301Z</time></trkpt><trkpt lat="57.87119" lon="14.34580667"><ele>152.0</ele><time>2016-06-18T05:42:39.321Z</time></trkpt><trkpt lat="57.87103833" lon="14.34562"><ele>152.0</ele><time>2016-06-18T05:42:40.288Z</time></trkpt><trkpt lat="57.87095667" lon="14.34553667"><ele>152.0</ele><time>2016-06-18T05:42:41.303Z</time></trkpt><trkpt lat="57.87095667" lon="14.34553667"><ele>152.0</ele><time>2016-06-18T05:42:42.286Z</time></trkpt><trkpt lat="57.87079667" lon="14.34538667"><ele>152.0</ele><time>2016-06-18T05:42:43.296Z</time></trkpt><trkpt lat="57.87072333" lon="14.34531833"><ele>152.0</ele><time>2016-06-18T05:42:44.318Z</time></trkpt><trkpt lat="57.87072333" lon="14.34531833"><ele>152.0</ele><time>2016-06-18T05:42:45.284Z</time></trkpt><trkpt lat="57.87058167" lon="14.34518833"><ele>152.0</ele><time>2016-06-18T05:42:46.291Z</time></trkpt><trkpt lat="57.87058167" lon="14.34518833"><ele>152.0</ele><time>2016-06-18T05:42:47.315Z</time></trkpt><trkpt lat="57.87045167" lon="14.345065"><ele>152.0</ele><time>2016-06-18T05:42:48.282Z</time></trkpt><trkpt lat="57.87045167" lon="14.345065"><ele>152.0</ele><time>2016-06-18T05:42:49.298Z</time></trkpt><trkpt lat="57.870325" lon="14.34494167"><ele>152.0</ele><time>2016-06-18T05:42:50.308Z</time></trkpt><trkpt lat="57.870325" lon="14.34494167"><ele>152.0</ele><time>2016-06-18T05:42:51.290Z</time></trkpt><trkpt lat="57.87020167" lon="14.34481333"><ele>152.0</ele><time>2016-06-18T05:42:52.324Z</time></trkpt><trkpt lat="57.87020167" lon="14.34481333"><ele>152.0</ele><time>2016-06-18T05:42:53.308Z</time></trkpt><trkpt lat="57.870075" lon="14.34469"><ele>152.0</ele><time>2016-06-18T05:42:54.316Z</time></trkpt><trkpt lat="57.870075" lon="14.34469"><ele>152.0</ele><time>2016-06-18T05:42:55.283Z</time></trkpt><trkpt lat="57.86995" lon="14.34456167"><ele>152.0</ele><time>2016-06-18T05:42:56.311Z</time></trkpt><trkpt lat="57.86995" lon="14.34456167"><ele>152.0</ele><time>2016-06-18T05:42:57.285Z</time></trkpt><trkpt lat="57.86982333" lon="14.34443"><ele>152.0</ele><time>2016-06-18T05:42:58.292Z</time></trkpt><trkpt lat="57.86982333" lon="14.34443"><ele>152.0</ele><time>2016-06-18T05:42:59.316Z</time></trkpt><trkpt lat="57.86969" lon="14.344295"><ele>152.0</ele><time>2016-06-18T05:43:00.309Z</time></trkpt><trkpt lat="57.86969" lon="14.344295"><ele>152.0</ele><time>2016-06-18T05:43:01.310Z</time></trkpt><trkpt lat="57.86955167" lon="14.34416"><ele>152.0</ele><time>2016-06-18T05:43:02.316Z</time></trkpt><trkpt lat="57.86955167" lon="14.34416"><ele>152.0</ele><time>2016-06-18T05:43:03.300Z</time></trkpt><trkpt lat="57.869415" lon="14.344025"><ele>152.0</ele><time>2016-06-18T05:43:04.318Z</time></trkpt><trkpt lat="57.869345" lon="14.343955"><ele>152.0</ele><time>2016-06-18T05:43:05.284Z</time></trkpt><trkpt lat="57.869345" lon="14.343955"><ele>152.0</ele><time>2016-06-18T05:43:06.285Z</time></trkpt><trkpt lat="57.86920667" lon="14.343815"><ele>152.0</ele><time>2016-06-18T05:43:07.296Z</time></trkpt><trkpt lat="57.86913333" lon="14.34374333"><ele>151.0</ele><time>2016-06-18T05:43:08.318Z</time></trkpt><trkpt lat="57.86913333" lon="14.34374333"><ele>151.0</ele><time>2016-06-18T05:43:09.304Z</time></trkpt><trkpt lat="57.86898167" lon="14.34358333"><ele>151.0</ele><time>2016-06-18T05:43:10.312Z</time></trkpt><trkpt lat="57.86898167" lon="14.34358333"><ele>151.0</ele><time>2016-06-18T05:43:11.306Z</time></trkpt><trkpt lat="57.86883333" lon="14.34340667"><ele>151.0</ele><time>2016-06-18T05:43:12.300Z</time></trkpt><trkpt lat="57.86883333" lon="14.34340667"><ele>151.0</ele><time>2016-06-18T05:43:13.321Z</time></trkpt><trkpt lat="57.86869667" lon="14.34322"><ele>150.0</ele><time>2016-06-18T05:43:14.300Z</time></trkpt><trkpt lat="57.86863" lon="14.34312333"><ele>150.0</ele><time>2016-06-18T05:43:15.299Z</time></trkpt><trkpt lat="57.86863" lon="14.34312333"><ele>150.0</ele><time>2016-06-18T05:43:16.282Z</time></trkpt><trkpt lat="57.86850333" lon="14.34292"><ele>150.0</ele><time>2016-06-18T05:43:17.318Z</time></trkpt><trkpt lat="57.86850333" lon="14.34292"><ele>150.0</ele><time>2016-06-18T05:43:18.300Z</time></trkpt><trkpt lat="57.86838333" lon="14.3427"><ele>150.0</ele><time>2016-06-18T05:43:19.308Z</time></trkpt><trkpt lat="57.86832833" lon="14.34257833"><ele>150.0</ele><time>2016-06-18T05:43:20.292Z</time></trkpt><trkpt lat="57.86832833" lon="14.34257833"><ele>150.0</ele><time>2016-06-18T05:43:21.315Z</time></trkpt><trkpt lat="57.868215" lon="14.34231"><ele>150.0</ele><time>2016-06-18T05:43:22.282Z</time></trkpt><trkpt lat="57.86816" lon="14.34216833"><ele>150.0</ele><time>2016-06-18T05:43:23.286Z</time></trkpt><trkpt lat="57.86816" lon="14.34216833"><ele>150.0</ele><time>2016-06-18T05:43:24.309Z</time></trkpt><trkpt lat="57.868065" lon="14.34187167"><ele>150.0</ele><time>2016-06-18T05:43:25.315Z</time></trkpt><trkpt lat="57.86802" lon="14.34172"><ele>150.0</ele><time>2016-06-18T05:43:26.313Z</time></trkpt><trkpt lat="57.86802" lon="14.34172"><ele>150.0</ele><time>2016-06-18T05:43:27.289Z</time></trkpt><trkpt lat="57.86793667" lon="14.34142"><ele>150.0</ele><time>2016-06-18T05:43:28.294Z</time></trkpt><trkpt lat="57.86789667" lon="14.341275"><ele>150.0</ele><time>2016-06-18T05:43:29.318Z</time></trkpt><trkpt lat="57.86789667" lon="14.341275"><ele>150.0</ele><time>2016-06-18T05:43:30.304Z</time></trkpt><trkpt lat="57.86782333" lon="14.34099167"><ele>150.0</ele><time>2016-06-18T05:43:31.311Z</time></trkpt><trkpt lat="57.867785" lon="14.34085833"><ele>150.0</ele><time>2016-06-18T05:43:32.310Z</time></trkpt><trkpt lat="57.867785" lon="14.34085833"><ele>150.0</ele><time>2016-06-18T05:43:33.308Z</time></trkpt><trkpt lat="57.86771167" lon="14.34059"><ele>150.0</ele><time>2016-06-18T05:43:34.317Z</time></trkpt><trkpt lat="57.86771167" lon="14.34059"><ele>150.0</ele><time>2016-06-18T05:43:35.294Z</time></trkpt><trkpt lat="57.86763667" lon="14.34032"><ele>150.0</ele><time>2016-06-18T05:43:36.318Z</time></trkpt><trkpt lat="57.86763667" lon="14.34032"><ele>150.0</ele><time>2016-06-18T05:43:37.301Z</time></trkpt><trkpt lat="57.867565" lon="14.34003833"><ele>150.0</ele><time>2016-06-18T05:43:38.318Z</time></trkpt><trkpt lat="57.867565" lon="14.34003833"><ele>150.0</ele><time>2016-06-18T05:43:39.300Z</time></trkpt><trkpt lat="57.86748833" lon="14.33975333"><ele>150.0</ele><time>2016-06-18T05:43:40.305Z</time></trkpt><trkpt lat="57.86748833" lon="14.33975333"><ele>150.0</ele><time>2016-06-18T05:43:41.287Z</time></trkpt><trkpt lat="57.86741" lon="14.33946667"><ele>150.0</ele><time>2016-06-18T05:43:42.293Z</time></trkpt><trkpt lat="57.86741" lon="14.33946667"><ele>150.0</ele><time>2016-06-18T05:43:43.317Z</time></trkpt><trkpt lat="57.86733333" lon="14.339185"><ele>150.0</ele><time>2016-06-18T05:43:44.312Z</time></trkpt><trkpt lat="57.86733333" lon="14.339185"><ele>150.0</ele><time>2016-06-18T05:43:45.296Z</time></trkpt><trkpt lat="57.86725333" lon="14.3389"><ele>150.0</ele><time>2016-06-18T05:43:46.307Z</time></trkpt><trkpt lat="57.86725333" lon="14.3389"><ele>150.0</ele><time>2016-06-18T05:43:47.288Z</time></trkpt><trkpt lat="57.86717" lon="14.338605"><ele>150.0</ele><time>2016-06-18T05:43:48.308Z</time></trkpt><trkpt lat="57.86717" lon="14.338605"><ele>150.0</ele><time>2016-06-18T05:43:49.314Z</time></trkpt><trkpt lat="57.86709167" lon="14.33829667"><ele>150.0</ele><time>2016-06-18T05:43:50.321Z</time></trkpt><trkpt lat="57.86709167" lon="14.33829667"><ele>150.0</ele><time>2016-06-18T05:43:51.320Z</time></trkpt><trkpt lat="57.86701" lon="14.33799"><ele>150.0</ele><time>2016-06-18T05:43:52.307Z</time></trkpt><trkpt lat="57.86701" lon="14.33799"><ele>150.0</ele><time>2016-06-18T05:43:53.283Z</time></trkpt><trkpt lat="57.86693167" lon="14.33769167"><ele>151.0</ele><time>2016-06-18T05:43:54.290Z</time></trkpt><trkpt lat="57.866895" lon="14.33754667"><ele>151.0</ele><time>2016-06-18T05:43:55.325Z</time></trkpt><trkpt lat="57.86686" lon="14.33740667"><ele>151.0</ele><time>2016-06-18T05:43:56.290Z</time></trkpt><trkpt lat="57.86686" lon="14.33740667"><ele>151.0</ele><time>2016-06-18T05:43:57.312Z</time></trkpt><trkpt lat="57.86678333" lon="14.33712833"><ele>152.0</ele><time>2016-06-18T05:43:58.298Z</time></trkpt><trkpt lat="57.866745" lon="14.33698833"><ele>152.0</ele><time>2016-06-18T05:43:59.286Z</time></trkpt><trkpt lat="57.866745" lon="14.33698833"><ele>152.0</ele><time>2016-06-18T05:44:00.309Z</time></trkpt><trkpt lat="57.86667" lon="14.33670667"><ele>152.0</ele><time>2016-06-18T05:44:01.318Z</time></trkpt><trkpt lat="57.86663167" lon="14.336565"><ele>152.0</ele><time>2016-06-18T05:44:02.300Z</time></trkpt><trkpt lat="57.86663167" lon="14.336565"><ele>152.0</ele><time>2016-06-18T05:44:03.289Z</time></trkpt><trkpt lat="57.86655667" lon="14.33628333"><ele>153.0</ele><time>2016-06-18T05:44:04.298Z</time></trkpt><trkpt lat="57.86655667" lon="14.33628333"><ele>153.0</ele><time>2016-06-18T05:44:05.315Z</time></trkpt><trkpt lat="57.86648167" lon="14.33600667"><ele>153.0</ele><time>2016-06-18T05:44:06.308Z</time></trkpt><trkpt lat="57.86648167" lon="14.33600667"><ele>153.0</ele><time>2016-06-18T05:44:07.316Z</time></trkpt><trkpt lat="57.86640667" lon="14.33572333"><ele>152.0</ele><time>2016-06-18T05:44:08.283Z</time></trkpt><trkpt lat="57.86640667" lon="14.33572333"><ele>152.0</ele><time>2016-06-18T05:44:09.312Z</time></trkpt><trkpt lat="57.86633167" lon="14.33543667"><ele>152.0</ele><time>2016-06-18T05:44:10.319Z</time></trkpt><trkpt lat="57.86633167" lon="14.33543667"><ele>152.0</ele><time>2016-06-18T05:44:11.307Z</time></trkpt><trkpt lat="57.86625167" lon="14.33514"><ele>152.0</ele><time>2016-06-18T05:44:12.296Z</time></trkpt><trkpt lat="57.86625167" lon="14.33514"><ele>152.0</ele><time>2016-06-18T05:44:13.321Z</time></trkpt><trkpt lat="57.866175" lon="14.33483167"><ele>151.0</ele><time>2016-06-18T05:44:14.287Z</time></trkpt><trkpt lat="57.866175" lon="14.33483167"><ele>151.0</ele><time>2016-06-18T05:44:15.311Z</time></trkpt><trkpt lat="57.86609833" lon="14.33454667"><ele>151.0</ele><time>2016-06-18T05:44:16.308Z</time></trkpt><trkpt lat="57.86609833" lon="14.33454667"><ele>151.0</ele><time>2016-06-18T05:44:17.289Z</time></trkpt><trkpt lat="57.86601667" lon="14.33426"><ele>151.0</ele><time>2016-06-18T05:44:18.296Z</time></trkpt><trkpt lat="57.86601667" lon="14.33426"><ele>151.0</ele><time>2016-06-18T05:44:19.320Z</time></trkpt><trkpt lat="57.865935" lon="14.33396667"><ele>151.0</ele><time>2016-06-18T05:44:20.284Z</time></trkpt><trkpt lat="57.865935" lon="14.33396667"><ele>151.0</ele><time>2016-06-18T05:44:21.301Z</time></trkpt><trkpt lat="57.86585833" lon="14.333675"><ele>151.0</ele><time>2016-06-18T05:44:22.308Z</time></trkpt><trkpt lat="57.86585833" lon="14.333675"><ele>151.0</ele><time>2016-06-18T05:44:23.299Z</time></trkpt><trkpt lat="57.86577833" lon="14.33337833"><ele>151.0</ele><time>2016-06-18T05:44:24.318Z</time></trkpt><trkpt lat="57.86573833" lon="14.33322833"><ele>151.0</ele><time>2016-06-18T05:44:25.301Z</time></trkpt><trkpt lat="57.86570333" lon="14.33307667"><ele>151.0</ele><time>2016-06-18T05:44:26.284Z</time></trkpt><trkpt lat="57.86570333" lon="14.33307667"><ele>151.0</ele><time>2016-06-18T05:44:27.310Z</time></trkpt><trkpt lat="57.86563333" lon="14.33277333"><ele>151.0</ele><time>2016-06-18T05:44:28.320Z</time></trkpt><trkpt lat="57.86563333" lon="14.33277333"><ele>151.0</ele><time>2016-06-18T05:44:29.309Z</time></trkpt><trkpt lat="57.86556167" lon="14.33247333"><ele>151.0</ele><time>2016-06-18T05:44:30.288Z</time></trkpt><trkpt lat="57.86556167" lon="14.33247333"><ele>151.0</ele><time>2016-06-18T05:44:31.302Z</time></trkpt><trkpt lat="57.86549" lon="14.33216833"><ele>151.0</ele><time>2016-06-18T05:44:32.312Z</time></trkpt><trkpt lat="57.86549" lon="14.33216833"><ele>151.0</ele><time>2016-06-18T05:44:33.294Z</time></trkpt><trkpt lat="57.86541333" lon="14.33185833"><ele>151.0</ele><time>2016-06-18T05:44:34.323Z</time></trkpt><trkpt lat="57.86541333" lon="14.33185833"><ele>151.0</ele><time>2016-06-18T05:44:35.290Z</time></trkpt><trkpt lat="57.86533" lon="14.33154167"><ele>151.0</ele><time>2016-06-18T05:44:36.297Z</time></trkpt><trkpt lat="57.86528833" lon="14.33137667"><ele>151.0</ele><time>2016-06-18T05:44:37.288Z</time></trkpt><trkpt lat="57.865245" lon="14.33121833"><ele>151.0</ele><time>2016-06-18T05:44:38.291Z</time></trkpt><trkpt lat="57.865245" lon="14.33121833"><ele>151.0</ele><time>2016-06-18T05:44:39.313Z</time></trkpt><trkpt lat="57.86516333" lon="14.33088833"><ele>151.0</ele><time>2016-06-18T05:44:40.321Z</time></trkpt><trkpt lat="57.86516333" lon="14.33088833"><ele>151.0</ele><time>2016-06-18T05:44:41.291Z</time></trkpt><trkpt lat="57.86507833" lon="14.33055333"><ele>151.0</ele><time>2016-06-18T05:44:42.282Z</time></trkpt><trkpt lat="57.86503667" lon="14.33039333"><ele>151.0</ele><time>2016-06-18T05:44:43.313Z</time></trkpt><trkpt lat="57.86503667" lon="14.33039333"><ele>151.0</ele><time>2016-06-18T05:44:44.295Z</time></trkpt><trkpt lat="57.86495833" lon="14.33007333"><ele>151.0</ele><time>2016-06-18T05:44:45.282Z</time></trkpt><trkpt lat="57.86495833" lon="14.33007333"><ele>151.0</ele><time>2016-06-18T05:44:46.304Z</time></trkpt><trkpt lat="57.86488333" lon="14.32975667"><ele>151.0</ele><time>2016-06-18T05:44:47.312Z</time></trkpt><trkpt lat="57.86488333" lon="14.32975667"><ele>151.0</ele><time>2016-06-18T05:44:48.297Z</time></trkpt><trkpt lat="57.86481333" lon="14.32945833"><ele>151.0</ele><time>2016-06-18T05:44:49.320Z</time></trkpt><trkpt lat="57.86481333" lon="14.32945833"><ele>151.0</ele><time>2016-06-18T05:44:50.320Z</time></trkpt><trkpt lat="57.86474833" lon="14.32921"><ele>151.0</ele><time>2016-06-18T05:44:51.288Z</time></trkpt><trkpt lat="57.86472" lon="14.32909833"><ele>151.0</ele><time>2016-06-18T05:44:52.314Z</time></trkpt><trkpt lat="57.86469" lon="14.32898667"><ele>152.0</ele><time>2016-06-18T05:44:53.293Z</time></trkpt><trkpt lat="57.86469" lon="14.32898667"><ele>152.0</ele><time>2016-06-18T05:44:54.299Z</time></trkpt><trkpt lat="57.86463333" lon="14.32876"><ele>152.0</ele><time>2016-06-18T05:44:55.308Z</time></trkpt><trkpt lat="57.86460167" lon="14.328645"><ele>152.0</ele><time>2016-06-18T05:44:56.308Z</time></trkpt><trkpt lat="57.86460167" lon="14.328645"><ele>152.0</ele><time>2016-06-18T05:44:57.315Z</time></trkpt><trkpt lat="57.86454" lon="14.3284"><ele>152.0</ele><time>2016-06-18T05:44:58.287Z</time></trkpt><trkpt lat="57.86454" lon="14.3284"><ele>152.0</ele><time>2016-06-18T05:44:59.310Z</time></trkpt><trkpt lat="57.86447" lon="14.32813"><ele>152.0</ele><time>2016-06-18T05:45:00.288Z</time></trkpt><trkpt lat="57.86447" lon="14.32813"><ele>152.0</ele><time>2016-06-18T05:45:01.321Z</time></trkpt><trkpt lat="57.86439667" lon="14.32785167"><ele>153.0</ele><time>2016-06-18T05:45:02.287Z</time></trkpt><trkpt lat="57.86439667" lon="14.32785167"><ele>153.0</ele><time>2016-06-18T05:45:03.310Z</time></trkpt><trkpt lat="57.86432333" lon="14.32755333"><ele>153.0</ele><time>2016-06-18T05:45:04.308Z</time></trkpt><trkpt lat="57.86432333" lon="14.32755333"><ele>153.0</ele><time>2016-06-18T05:45:05.292Z</time></trkpt><trkpt lat="57.86425167" lon="14.32725167"><ele>153.0</ele><time>2016-06-18T05:45:06.315Z</time></trkpt><trkpt lat="57.86425167" lon="14.32725167"><ele>153.0</ele><time>2016-06-18T05:45:07.299Z</time></trkpt><trkpt lat="57.86417667" lon="14.32694833"><ele>153.0</ele><time>2016-06-18T05:45:08.282Z</time></trkpt><trkpt lat="57.86417667" lon="14.32694833"><ele>153.0</ele><time>2016-06-18T05:45:09.284Z</time></trkpt><trkpt lat="57.86410333" lon="14.32666333"><ele>153.0</ele><time>2016-06-18T05:45:10.291Z</time></trkpt><trkpt lat="57.86410333" lon="14.32666333"><ele>153.0</ele><time>2016-06-18T05:45:11.316Z</time></trkpt><trkpt lat="57.864035" lon="14.32640333"><ele>153.0</ele><time>2016-06-18T05:45:12.283Z</time></trkpt><trkpt lat="57.86400333" lon="14.32628333"><ele>153.0</ele><time>2016-06-18T05:45:13.307Z</time></trkpt><trkpt lat="57.86400333" lon="14.32628333"><ele>153.0</ele><time>2016-06-18T05:45:14.314Z</time></trkpt><trkpt lat="57.86393667" lon="14.32605333"><ele>153.0</ele><time>2016-06-18T05:45:15.282Z</time></trkpt><trkpt lat="57.86393667" lon="14.32605333"><ele>153.0</ele><time>2016-06-18T05:45:16.308Z</time></trkpt><trkpt lat="57.86386" lon="14.32582833"><ele>153.0</ele><time>2016-06-18T05:45:17.285Z</time></trkpt><trkpt lat="57.86386" lon="14.32582833"><ele>153.0</ele><time>2016-06-18T05:45:18.310Z</time></trkpt><trkpt lat="57.86377833" lon="14.32561333"><ele>153.0</ele><time>2016-06-18T05:45:19.320Z</time></trkpt><trkpt lat="57.86374" lon="14.32551167"><ele>153.0</ele><time>2016-06-18T05:45:20.300Z</time></trkpt><trkpt lat="57.86374" lon="14.32551167"><ele>153.0</ele><time>2016-06-18T05:45:21.283Z</time></trkpt><trkpt lat="57.86366167" lon="14.325305"><ele>153.0</ele><time>2016-06-18T05:45:22.290Z</time></trkpt><trkpt lat="57.86361833" lon="14.32520167"><ele>153.0</ele><time>2016-06-18T05:45:23.287Z</time></trkpt><trkpt lat="57.86361833" lon="14.32520167"><ele>153.0</ele><time>2016-06-18T05:45:24.298Z</time></trkpt><trkpt lat="57.86352667" lon="14.32499667"><ele>153.0</ele><time>2016-06-18T05:45:25.312Z</time></trkpt><trkpt lat="57.86347833" lon="14.32489167"><ele>153.0</ele><time>2016-06-18T05:45:26.308Z</time></trkpt><trkpt lat="57.86347833" lon="14.32489167"><ele>153.0</ele><time>2016-06-18T05:45:27.298Z</time></trkpt><trkpt lat="57.86337333" lon="14.32468167"><ele>153.0</ele><time>2016-06-18T05:45:28.316Z</time></trkpt><trkpt lat="57.86331833" lon="14.324575"><ele>153.0</ele><time>2016-06-18T05:45:29.299Z</time></trkpt><trkpt lat="57.86326167" lon="14.32446833"><ele>153.0</ele><time>2016-06-18T05:45:30.321Z</time></trkpt><trkpt lat="57.86326167" lon="14.32446833"><ele>153.0</ele><time>2016-06-18T05:45:31.291Z</time></trkpt><trkpt lat="57.86314333" lon="14.32425"><ele>153.0</ele><time>2016-06-18T05:45:32.298Z</time></trkpt><trkpt lat="57.86314333" lon="14.32425"><ele>153.0</ele><time>2016-06-18T05:45:33.320Z</time></trkpt><trkpt lat="57.86302333" lon="14.32402833"><ele>153.0</ele><time>2016-06-18T05:45:34.302Z</time></trkpt><trkpt lat="57.86296333" lon="14.32392"><ele>153.0</ele><time>2016-06-18T05:45:35.287Z</time></trkpt><trkpt lat="57.86296333" lon="14.32392"><ele>153.0</ele><time>2016-06-18T05:45:36.310Z</time></trkpt><trkpt lat="57.86284667" lon="14.323705"><ele>153.0</ele><time>2016-06-18T05:45:37.318Z</time></trkpt><trkpt lat="57.86279" lon="14.3236"><ele>152.0</ele><time>2016-06-18T05:45:38.305Z</time></trkpt><trkpt lat="57.86279" lon="14.3236"><ele>152.0</ele><time>2016-06-18T05:45:39.307Z</time></trkpt><trkpt lat="57.86267667" lon="14.32339333"><ele>152.0</ele><time>2016-06-18T05:45:40.320Z</time></trkpt><trkpt lat="57.86262" lon="14.32328833"><ele>152.0</ele><time>2016-06-18T05:45:41.314Z</time></trkpt><trkpt lat="57.86262" lon="14.32328833"><ele>152.0</ele><time>2016-06-18T05:45:42.297Z</time></trkpt><trkpt lat="57.86250167" lon="14.32307167"><ele>152.0</ele><time>2016-06-18T05:45:43.313Z</time></trkpt><trkpt lat="57.86244333" lon="14.32296"><ele>152.0</ele><time>2016-06-18T05:45:44.295Z</time></trkpt><trkpt lat="57.86244333" lon="14.32296"><ele>152.0</ele><time>2016-06-18T05:45:45.292Z</time></trkpt><trkpt lat="57.86233167" lon="14.32273667"><ele>152.0</ele><time>2016-06-18T05:45:46.301Z</time></trkpt><trkpt lat="57.86233167" lon="14.32273667"><ele>152.0</ele><time>2016-06-18T05:45:47.283Z</time></trkpt><trkpt lat="57.862225" lon="14.32250833"><ele>151.0</ele><time>2016-06-18T05:45:48.289Z</time></trkpt><trkpt lat="57.86217167" lon="14.32239"><ele>151.0</ele><time>2016-06-18T05:45:49.290Z</time></trkpt><trkpt lat="57.86212167" lon="14.32227"><ele>151.0</ele><time>2016-06-18T05:45:50.313Z</time></trkpt><trkpt lat="57.86212167" lon="14.32227"><ele>151.0</ele><time>2016-06-18T05:45:51.296Z</time></trkpt><trkpt lat="57.86202333" lon="14.32202833"><ele>151.0</ele><time>2016-06-18T05:45:52.303Z</time></trkpt><trkpt lat="57.86202333" lon="14.32202833"><ele>151.0</ele><time>2016-06-18T05:45:53.287Z</time></trkpt><trkpt lat="57.86193167" lon="14.32178333"><ele>151.0</ele><time>2016-06-18T05:45:54.309Z</time></trkpt><trkpt lat="57.86193167" lon="14.32178333"><ele>151.0</ele><time>2016-06-18T05:45:55.291Z</time></trkpt><trkpt lat="57.86185" lon="14.32153167"><ele>150.0</ele><time>2016-06-18T05:45:56.298Z</time></trkpt><trkpt lat="57.86185" lon="14.32153167"><ele>150.0</ele><time>2016-06-18T05:45:57.320Z</time></trkpt><trkpt lat="57.861775" lon="14.32127167"><ele>150.0</ele><time>2016-06-18T05:45:58.308Z</time></trkpt><trkpt lat="57.861775" lon="14.32127167"><ele>150.0</ele><time>2016-06-18T05:45:59.295Z</time></trkpt><trkpt lat="57.86170333" lon="14.321"><ele>150.0</ele><time>2016-06-18T05:46:00.318Z</time></trkpt><trkpt lat="57.86170333" lon="14.321"><ele>150.0</ele><time>2016-06-18T05:46:01.293Z</time></trkpt><trkpt lat="57.86163" lon="14.32072833"><ele>149.0</ele><time>2016-06-18T05:46:02.299Z</time></trkpt><trkpt lat="57.86163" lon="14.32072833"><ele>149.0</ele><time>2016-06-18T05:46:03.321Z</time></trkpt><trkpt lat="57.86156" lon="14.32046"><ele>149.0</ele><time>2016-06-18T05:46:04.308Z</time></trkpt><trkpt lat="57.861525" lon="14.320325"><ele>149.0</ele><time>2016-06-18T05:46:05.287Z</time></trkpt><trkpt lat="57.861525" lon="14.320325"><ele>149.0</ele><time>2016-06-18T05:46:06.310Z</time></trkpt><trkpt lat="57.86145167" lon="14.32005333"><ele>149.0</ele><time>2016-06-18T05:46:07.319Z</time></trkpt><trkpt lat="57.861415" lon="14.31991667"><ele>149.0</ele><time>2016-06-18T05:46:08.294Z</time></trkpt><trkpt lat="57.861415" lon="14.31991667"><ele>149.0</ele><time>2016-06-18T05:46:09.318Z</time></trkpt><trkpt lat="57.86133667" lon="14.31964"><ele>149.0</ele><time>2016-06-18T05:46:10.286Z</time></trkpt><trkpt lat="57.86129833" lon="14.31949833"><ele>149.0</ele><time>2016-06-18T05:46:11.312Z</time></trkpt><trkpt lat="57.86129833" lon="14.31949833"><ele>149.0</ele><time>2016-06-18T05:46:12.299Z</time></trkpt><trkpt lat="57.861225" lon="14.31922333"><ele>149.0</ele><time>2016-06-18T05:46:13.310Z</time></trkpt><trkpt lat="57.86118833" lon="14.31909167"><ele>149.0</ele><time>2016-06-18T05:46:14.292Z</time></trkpt><trkpt lat="57.86118833" lon="14.31909167"><ele>149.0</ele><time>2016-06-18T05:46:15.317Z</time></trkpt><trkpt lat="57.86112167" lon="14.31884167"><ele>148.0</ele><time>2016-06-18T05:46:16.302Z</time></trkpt><trkpt lat="57.86112167" lon="14.31884167"><ele>148.0</ele><time>2016-06-18T05:46:17.318Z</time></trkpt><trkpt lat="57.86106167" lon="14.3186"><ele>148.0</ele><time>2016-06-18T05:46:18.285Z</time></trkpt><trkpt lat="57.86106167" lon="14.3186"><ele>148.0</ele><time>2016-06-18T05:46:19.308Z</time></trkpt><trkpt lat="57.86099833" lon="14.31835333"><ele>148.0</ele><time>2016-06-18T05:46:20.308Z</time></trkpt><trkpt lat="57.86099833" lon="14.31835333"><ele>148.0</ele><time>2016-06-18T05:46:21.309Z</time></trkpt><trkpt lat="57.86093" lon="14.31809"><ele>148.0</ele><time>2016-06-18T05:46:22.316Z</time></trkpt><trkpt lat="57.860895" lon="14.31795"><ele>148.0</ele><time>2016-06-18T05:46:23.288Z</time></trkpt><trkpt lat="57.860895" lon="14.31795"><ele>148.0</ele><time>2016-06-18T05:46:24.293Z</time></trkpt><trkpt lat="57.86082167" lon="14.31766333"><ele>148.0</ele><time>2016-06-18T05:46:25.299Z</time></trkpt><trkpt lat="57.86078333" lon="14.31752167"><ele>148.0</ele><time>2016-06-18T05:46:26.319Z</time></trkpt><trkpt lat="57.86078333" lon="14.31752167"><ele>148.0</ele><time>2016-06-18T05:46:27.298Z</time></trkpt><trkpt lat="57.86070833" lon="14.31724333"><ele>148.0</ele><time>2016-06-18T05:46:28.287Z</time></trkpt><trkpt lat="57.86070833" lon="14.31724333"><ele>148.0</ele><time>2016-06-18T05:46:29.311Z</time></trkpt><trkpt lat="57.860635" lon="14.31696833"><ele>147.0</ele><time>2016-06-18T05:46:30.318Z</time></trkpt><trkpt lat="57.860635" lon="14.31696833"><ele>147.0</ele><time>2016-06-18T05:46:31.302Z</time></trkpt><trkpt lat="57.86056333" lon="14.31669833"><ele>147.0</ele><time>2016-06-18T05:46:32.293Z</time></trkpt><trkpt lat="57.86056333" lon="14.31669833"><ele>147.0</ele><time>2016-06-18T05:46:33.312Z</time></trkpt><trkpt lat="57.86048833" lon="14.31642333"><ele>147.0</ele><time>2016-06-18T05:46:34.319Z</time></trkpt><trkpt lat="57.86048833" lon="14.31642333"><ele>147.0</ele><time>2016-06-18T05:46:35.296Z</time></trkpt><trkpt lat="57.86041333" lon="14.31614833"><ele>147.0</ele><time>2016-06-18T05:46:36.308Z</time></trkpt><trkpt lat="57.86041333" lon="14.31614833"><ele>147.0</ele><time>2016-06-18T05:46:37.298Z</time></trkpt><trkpt lat="57.86034333" lon="14.315885"><ele>147.0</ele><time>2016-06-18T05:46:38.312Z</time></trkpt><trkpt lat="57.86034333" lon="14.315885"><ele>147.0</ele><time>2016-06-18T05:46:39.295Z</time></trkpt><trkpt lat="57.86027333" lon="14.31561833"><ele>147.0</ele><time>2016-06-18T05:46:40.287Z</time></trkpt><trkpt lat="57.86027333" lon="14.31561833"><ele>147.0</ele><time>2016-06-18T05:46:41.289Z</time></trkpt><trkpt lat="57.86020833" lon="14.31534833"><ele>147.0</ele><time>2016-06-18T05:46:42.296Z</time></trkpt><trkpt lat="57.86020833" lon="14.31534833"><ele>147.0</ele><time>2016-06-18T05:46:43.318Z</time></trkpt><trkpt lat="57.86014" lon="14.31508167"><ele>147.0</ele><time>2016-06-18T05:46:44.295Z</time></trkpt><trkpt lat="57.86014" lon="14.31508167"><ele>147.0</ele><time>2016-06-18T05:46:45.313Z</time></trkpt><trkpt lat="57.86007167" lon="14.31482333"><ele>147.0</ele><time>2016-06-18T05:46:46.320Z</time></trkpt><trkpt lat="57.86003833" lon="14.31469667"><ele>147.0</ele><time>2016-06-18T05:46:47.316Z</time></trkpt><trkpt lat="57.86003833" lon="14.31469667"><ele>147.0</ele><time>2016-06-18T05:46:48.312Z</time></trkpt><trkpt lat="57.859975" lon="14.31444667"><ele>147.0</ele><time>2016-06-18T05:46:49.282Z</time></trkpt><trkpt lat="57.85994333" lon="14.31432167"><ele>147.0</ele><time>2016-06-18T05:46:50.296Z</time></trkpt><trkpt lat="57.85994333" lon="14.31432167"><ele>147.0</ele><time>2016-06-18T05:46:51.295Z</time></trkpt><trkpt lat="57.85987667" lon="14.31408"><ele>147.0</ele><time>2016-06-18T05:46:52.301Z</time></trkpt><trkpt lat="57.85987667" lon="14.31408"><ele>147.0</ele><time>2016-06-18T05:46:53.285Z</time></trkpt><trkpt lat="57.85981333" lon="14.31384"><ele>147.0</ele><time>2016-06-18T05:46:54.288Z</time></trkpt><trkpt lat="57.85981333" lon="14.31384"><ele>147.0</ele><time>2016-06-18T05:46:55.310Z</time></trkpt><trkpt lat="57.859745" lon="14.31359833"><ele>147.0</ele><time>2016-06-18T05:46:56.288Z</time></trkpt><trkpt lat="57.859745" lon="14.31359833"><ele>147.0</ele><time>2016-06-18T05:46:57.312Z</time></trkpt><trkpt lat="57.85968333" lon="14.313345"><ele>147.0</ele><time>2016-06-18T05:46:58.293Z</time></trkpt><trkpt lat="57.85968333" lon="14.313345"><ele>147.0</ele><time>2016-06-18T05:46:59.287Z</time></trkpt><trkpt lat="57.85961833" lon="14.31310167"><ele>147.0</ele><time>2016-06-18T05:47:00.296Z</time></trkpt><trkpt lat="57.859585" lon="14.31298167"><ele>148.0</ele><time>2016-06-18T05:47:01.290Z</time></trkpt><trkpt lat="57.859585" lon="14.31298167"><ele>148.0</ele><time>2016-06-18T05:47:02.313Z</time></trkpt><trkpt lat="57.85952167" lon="14.31274333"><ele>147.0</ele><time>2016-06-18T05:47:03.320Z</time></trkpt><trkpt lat="57.85952167" lon="14.31274333"><ele>147.0</ele><time>2016-06-18T05:47:04.312Z</time></trkpt><trkpt lat="57.85946167" lon="14.312515"><ele>148.0</ele><time>2016-06-18T05:47:05.286Z</time></trkpt><trkpt lat="57.85946167" lon="14.312515"><ele>148.0</ele><time>2016-06-18T05:47:06.292Z</time></trkpt><trkpt lat="57.85940667" lon="14.31228833"><ele>148.0</ele><time>2016-06-18T05:47:07.299Z</time></trkpt><trkpt lat="57.85940667" lon="14.31228833"><ele>148.0</ele><time>2016-06-18T05:47:08.282Z</time></trkpt><trkpt lat="57.85935167" lon="14.31205833"><ele>148.0</ele><time>2016-06-18T05:47:09.318Z</time></trkpt><trkpt lat="57.85935167" lon="14.31205833"><ele>148.0</ele><time>2016-06-18T05:47:10.294Z</time></trkpt><trkpt lat="57.85929333" lon="14.31183167"><ele>148.0</ele><time>2016-06-18T05:47:11.298Z</time></trkpt><trkpt lat="57.85926333" lon="14.31172167"><ele>149.0</ele><time>2016-06-18T05:47:12.282Z</time></trkpt><trkpt lat="57.85926333" lon="14.31172167"><ele>149.0</ele><time>2016-06-18T05:47:13.322Z</time></trkpt><trkpt lat="57.85921" lon="14.31150667"><ele>149.0</ele><time>2016-06-18T05:47:14.290Z</time></trkpt><trkpt lat="57.85921" lon="14.31150667"><ele>149.0</ele><time>2016-06-18T05:47:15.306Z</time></trkpt><trkpt lat="57.85916" lon="14.31130333"><ele>149.0</ele><time>2016-06-18T05:47:16.316Z</time></trkpt><trkpt lat="57.85916" lon="14.31130333"><ele>149.0</ele><time>2016-06-18T05:47:17.302Z</time></trkpt><trkpt lat="57.859105" lon="14.3111"><ele>149.0</ele><time>2016-06-18T05:47:18.304Z</time></trkpt><trkpt lat="57.859105" lon="14.3111"><ele>149.0</ele><time>2016-06-18T05:47:19.300Z</time></trkpt><trkpt lat="57.85905833" lon="14.31091"><ele>149.0</ele><time>2016-06-18T05:47:20.311Z</time></trkpt><trkpt lat="57.85903333" lon="14.31081667"><ele>149.0</ele><time>2016-06-18T05:47:21.318Z</time></trkpt><trkpt lat="57.85903333" lon="14.31081667"><ele>149.0</ele><time>2016-06-18T05:47:22.302Z</time></trkpt><trkpt lat="57.85898333" lon="14.310625"><ele>149.0</ele><time>2016-06-18T05:47:23.317Z</time></trkpt><trkpt lat="57.85898333" lon="14.310625"><ele>149.0</ele><time>2016-06-18T05:47:24.300Z</time></trkpt><trkpt lat="57.85893" lon="14.31042333"><ele>149.0</ele><time>2016-06-18T05:47:25.318Z</time></trkpt><trkpt lat="57.85893" lon="14.31042333"><ele>149.0</ele><time>2016-06-18T05:47:26.300Z</time></trkpt><trkpt lat="57.85887833" lon="14.31020667"><ele>149.0</ele><time>2016-06-18T05:47:27.310Z</time></trkpt><trkpt lat="57.85887833" lon="14.31020667"><ele>149.0</ele><time>2016-06-18T05:47:28.293Z</time></trkpt><trkpt lat="57.85882" lon="14.30998167"><ele>149.0</ele><time>2016-06-18T05:47:29.318Z</time></trkpt><trkpt lat="57.85879" lon="14.30986833"><ele>149.0</ele><time>2016-06-18T05:47:30.313Z</time></trkpt><trkpt lat="57.85879" lon="14.30986833"><ele>149.0</ele><time>2016-06-18T05:47:31.298Z</time></trkpt><trkpt lat="57.85873167" lon="14.30965167"><ele>150.0</ele><time>2016-06-18T05:47:32.307Z</time></trkpt><trkpt lat="57.85873167" lon="14.30965167"><ele>150.0</ele><time>2016-06-18T05:47:33.317Z</time></trkpt><trkpt lat="57.85868" lon="14.309445"><ele>150.0</ele><time>2016-06-18T05:47:34.299Z</time></trkpt><trkpt lat="57.85868" lon="14.309445"><ele>150.0</ele><time>2016-06-18T05:47:35.321Z</time></trkpt><trkpt lat="57.85863167" lon="14.309255"><ele>150.0</ele><time>2016-06-18T05:47:36.287Z</time></trkpt><trkpt lat="57.85860833" lon="14.30916167"><ele>150.0</ele><time>2016-06-18T05:47:37.318Z</time></trkpt><trkpt lat="57.85860833" lon="14.30916167"><ele>150.0</ele><time>2016-06-18T05:47:38.313Z</time></trkpt><trkpt lat="57.858565" lon="14.30899333"><ele>151.0</ele><time>2016-06-18T05:47:39.322Z</time></trkpt><trkpt lat="57.858565" lon="14.30899333"><ele>151.0</ele><time>2016-06-18T05:47:40.301Z</time></trkpt><trkpt lat="57.85852667" lon="14.30884167"><ele>151.0</ele><time>2016-06-18T05:47:41.309Z</time></trkpt><trkpt lat="57.85852667" lon="14.30884167"><ele>151.0</ele><time>2016-06-18T05:47:42.292Z</time></trkpt><trkpt lat="57.85848667" lon="14.30868333"><ele>151.0</ele><time>2016-06-18T05:47:43.285Z</time></trkpt><trkpt lat="57.85846833" lon="14.30860333"><ele>151.0</ele><time>2016-06-18T05:47:44.314Z</time></trkpt><trkpt lat="57.85844833" lon="14.30852167"><ele>151.0</ele><time>2016-06-18T05:47:45.298Z</time></trkpt><trkpt lat="57.85844833" lon="14.30852167"><ele>151.0</ele><time>2016-06-18T05:47:46.320Z</time></trkpt><trkpt lat="57.85840667" lon="14.30835667"><ele>152.0</ele><time>2016-06-18T05:47:47.286Z</time></trkpt><trkpt lat="57.858385" lon="14.308275"><ele>151.0</ele><time>2016-06-18T05:47:48.289Z</time></trkpt><trkpt lat="57.858385" lon="14.308275"><ele>151.0</ele><time>2016-06-18T05:47:49.311Z</time></trkpt><trkpt lat="57.85834" lon="14.30811833"><ele>152.0</ele><time>2016-06-18T05:47:50.318Z</time></trkpt><trkpt lat="57.858315" lon="14.30804667"><ele>152.0</ele><time>2016-06-18T05:47:51.309Z</time></trkpt><trkpt lat="57.858315" lon="14.30804667"><ele>152.0</ele><time>2016-06-18T05:47:52.300Z</time></trkpt><trkpt lat="57.85826833" lon="14.30791833"><ele>152.0</ele><time>2016-06-18T05:47:53.308Z</time></trkpt><trkpt lat="57.85824333" lon="14.307855"><ele>153.0</ele><time>2016-06-18T05:47:54.292Z</time></trkpt><trkpt lat="57.85824333" lon="14.307855"><ele>153.0</ele><time>2016-06-18T05:47:55.313Z</time></trkpt><trkpt lat="57.85819333" lon="14.30773333"><ele>153.0</ele><time>2016-06-18T05:47:56.320Z</time></trkpt><trkpt lat="57.85819333" lon="14.30773333"><ele>153.0</ele><time>2016-06-18T05:47:57.301Z</time></trkpt><trkpt lat="57.85814333" lon="14.30762833"><ele>153.0</ele><time>2016-06-18T05:47:58.296Z</time></trkpt><trkpt lat="57.85814333" lon="14.30762833"><ele>153.0</ele><time>2016-06-18T05:47:59.317Z</time></trkpt><trkpt lat="57.85809667" lon="14.30754333"><ele>154.0</ele><time>2016-06-18T05:48:00.294Z</time></trkpt><trkpt lat="57.85807333" lon="14.30750333"><ele>154.0</ele><time>2016-06-18T05:48:01.320Z</time></trkpt><trkpt lat="57.85807333" lon="14.30750333"><ele>154.0</ele><time>2016-06-18T05:48:02.300Z</time></trkpt><trkpt lat="57.85802833" lon="14.30742333"><ele>155.0</ele><time>2016-06-18T05:48:03.310Z</time></trkpt><trkpt lat="57.85800667" lon="14.30738667"><ele>155.0</ele><time>2016-06-18T05:48:04.296Z</time></trkpt><trkpt lat="57.85800667" lon="14.30738667"><ele>155.0</ele><time>2016-06-18T05:48:05.318Z</time></trkpt><trkpt lat="57.85795167" lon="14.30731333"><ele>156.0</ele><time>2016-06-18T05:48:06.291Z</time></trkpt><trkpt lat="57.85795167" lon="14.30731333"><ele>156.0</ele><time>2016-06-18T05:48:07.294Z</time></trkpt><trkpt lat="57.85789333" lon="14.30723667"><ele>156.0</ele><time>2016-06-18T05:48:08.301Z</time></trkpt><trkpt lat="57.85789333" lon="14.30723667"><ele>156.0</ele><time>2016-06-18T05:48:09.285Z</time></trkpt><trkpt lat="57.85783" lon="14.30716333"><ele>157.0</ele><time>2016-06-18T05:48:10.316Z</time></trkpt><trkpt lat="57.85783" lon="14.30716333"><ele>157.0</ele><time>2016-06-18T05:48:11.311Z</time></trkpt><trkpt lat="57.85776833" lon="14.30709833"><ele>158.0</ele><time>2016-06-18T05:48:12.320Z</time></trkpt><trkpt lat="57.85773833" lon="14.30706833"><ele>158.0</ele><time>2016-06-18T05:48:13.296Z</time></trkpt><trkpt lat="57.85773833" lon="14.30706833"><ele>158.0</ele><time>2016-06-18T05:48:14.314Z</time></trkpt><trkpt lat="57.85767833" lon="14.30701167"><ele>158.0</ele><time>2016-06-18T05:48:15.306Z</time></trkpt><trkpt lat="57.85767833" lon="14.30701167"><ele>158.0</ele><time>2016-06-18T05:48:16.285Z</time></trkpt><trkpt lat="57.85761667" lon="14.30696667"><ele>159.0</ele><time>2016-06-18T05:48:17.292Z</time></trkpt><trkpt lat="57.85758667" lon="14.30694833"><ele>159.0</ele><time>2016-06-18T05:48:18.317Z</time></trkpt><trkpt lat="57.85756" lon="14.30693"><ele>159.0</ele><time>2016-06-18T05:48:19.300Z</time></trkpt><trkpt lat="57.85756" lon="14.30693"><ele>159.0</ele><time>2016-06-18T05:48:20.282Z</time></trkpt><trkpt lat="57.85750333" lon="14.30689333"><ele>160.0</ele><time>2016-06-18T05:48:21.298Z</time></trkpt><trkpt lat="57.85750333" lon="14.30689333"><ele>160.0</ele><time>2016-06-18T05:48:22.296Z</time></trkpt><trkpt lat="57.85744333" lon="14.30685667"><ele>160.0</ele><time>2016-06-18T05:48:23.317Z</time></trkpt><trkpt lat="57.85741167" lon="14.30683667"><ele>160.0</ele><time>2016-06-18T05:48:24.320Z</time></trkpt><trkpt lat="57.85741167" lon="14.30683667"><ele>160.0</ele><time>2016-06-18T05:48:25.283Z</time></trkpt><trkpt lat="57.85734833" lon="14.30680667"><ele>160.0</ele><time>2016-06-18T05:48:26.289Z</time></trkpt><trkpt lat="57.85734833" lon="14.30680667"><ele>160.0</ele><time>2016-06-18T05:48:27.311Z</time></trkpt><trkpt lat="57.85728333" lon="14.30678"><ele>161.0</ele><time>2016-06-18T05:48:28.298Z</time></trkpt><trkpt lat="57.85725" lon="14.30677167"><ele>161.0</ele><time>2016-06-18T05:48:29.293Z</time></trkpt><trkpt lat="57.85725" lon="14.30677167"><ele>161.0</ele><time>2016-06-18T05:48:30.313Z</time></trkpt><trkpt lat="57.857185" lon="14.30676167"><ele>161.0</ele><time>2016-06-18T05:48:31.310Z</time></trkpt><trkpt lat="57.857185" lon="14.30676167"><ele>161.0</ele><time>2016-06-18T05:48:32.317Z</time></trkpt><trkpt lat="57.85711833" lon="14.30675"><ele>162.0</ele><time>2016-06-18T05:48:33.289Z</time></trkpt><trkpt lat="57.85711833" lon="14.30675"><ele>162.0</ele><time>2016-06-18T05:48:34.311Z</time></trkpt><trkpt lat="57.85705" lon="14.30674333"><ele>162.0</ele><time>2016-06-18T05:48:35.313Z</time></trkpt><trkpt lat="57.85705" lon="14.30674333"><ele>162.0</ele><time>2016-06-18T05:48:36.297Z</time></trkpt><trkpt lat="57.85698167" lon="14.30674667"><ele>162.0</ele><time>2016-06-18T05:48:37.288Z</time></trkpt><trkpt lat="57.85694667" lon="14.30674833"><ele>162.0</ele><time>2016-06-18T05:48:38.311Z</time></trkpt><trkpt lat="57.85694667" lon="14.30674833"><ele>162.0</ele><time>2016-06-18T05:48:39.293Z</time></trkpt><trkpt lat="57.85687667" lon="14.306755"><ele>163.0</ele><time>2016-06-18T05:48:40.314Z</time></trkpt><trkpt lat="57.85687667" lon="14.306755"><ele>163.0</ele><time>2016-06-18T05:48:41.296Z</time></trkpt><trkpt lat="57.85680833" lon="14.30675667"><ele>163.0</ele><time>2016-06-18T05:48:42.305Z</time></trkpt><trkpt lat="57.85680833" lon="14.30675667"><ele>163.0</ele><time>2016-06-18T05:48:43.288Z</time></trkpt><trkpt lat="57.856745" lon="14.30675167"><ele>164.0</ele><time>2016-06-18T05:48:44.319Z</time></trkpt><trkpt lat="57.856745" lon="14.30675167"><ele>164.0</ele><time>2016-06-18T05:48:45.290Z</time></trkpt><trkpt lat="57.85668167" lon="14.30674667"><ele>164.0</ele><time>2016-06-18T05:48:46.297Z</time></trkpt><trkpt lat="57.85668167" lon="14.30674667"><ele>164.0</ele><time>2016-06-18T05:48:47.320Z</time></trkpt><trkpt lat="57.85661667" lon="14.30674833"><ele>164.0</ele><time>2016-06-18T05:48:48.318Z</time></trkpt><trkpt lat="57.85661667" lon="14.30674833"><ele>164.0</ele><time>2016-06-18T05:48:49.318Z</time></trkpt><trkpt lat="57.85655667" lon="14.30674833"><ele>165.0</ele><time>2016-06-18T05:48:50.285Z</time></trkpt><trkpt lat="57.85652333" lon="14.306745"><ele>165.0</ele><time>2016-06-18T05:48:51.314Z</time></trkpt><trkpt lat="57.85652333" lon="14.306745"><ele>165.0</ele><time>2016-06-18T05:48:52.294Z</time></trkpt><trkpt lat="57.85645167" lon="14.30673833"><ele>166.0</ele><time>2016-06-18T05:48:53.310Z</time></trkpt><trkpt lat="57.85645167" lon="14.30673833"><ele>166.0</ele><time>2016-06-18T05:48:54.295Z</time></trkpt><trkpt lat="57.85638167" lon="14.30673333"><ele>167.0</ele><time>2016-06-18T05:48:55.282Z</time></trkpt><trkpt lat="57.85638167" lon="14.30673333"><ele>167.0</ele><time>2016-06-18T05:48:56.301Z</time></trkpt><trkpt lat="57.85630167" lon="14.30672167"><ele>165.0</ele><time>2016-06-18T05:48:57.314Z</time></trkpt><trkpt lat="57.85630167" lon="14.30672167"><ele>165.0</ele><time>2016-06-18T05:48:58.296Z</time></trkpt><trkpt lat="57.85622667" lon="14.30671"><ele>165.0</ele><time>2016-06-18T05:48:59.298Z</time></trkpt><trkpt lat="57.85619" lon="14.30670167"><ele>166.0</ele><time>2016-06-18T05:49:00.292Z</time></trkpt><trkpt lat="57.85619" lon="14.30670167"><ele>166.0</ele><time>2016-06-18T05:49:01.313Z</time></trkpt><trkpt lat="57.85611333" lon="14.30668"><ele>166.0</ele><time>2016-06-18T05:49:02.284Z</time></trkpt><trkpt lat="57.85611333" lon="14.30668"><ele>166.0</ele><time>2016-06-18T05:49:03.306Z</time></trkpt><trkpt lat="57.85603667" lon="14.306665"><ele>167.0</ele><time>2016-06-18T05:49:04.318Z</time></trkpt><trkpt lat="57.85599833" lon="14.30665833"><ele>167.0</ele><time>2016-06-18T05:49:05.315Z</time></trkpt><trkpt lat="57.85596333" lon="14.30665"><ele>167.0</ele><time>2016-06-18T05:49:06.300Z</time></trkpt><trkpt lat="57.85596333" lon="14.30665"><ele>167.0</ele><time>2016-06-18T05:49:07.290Z</time></trkpt><trkpt lat="57.85588667" lon="14.30663167"><ele>168.0</ele><time>2016-06-18T05:49:08.289Z</time></trkpt><trkpt lat="57.85588667" lon="14.30663167"><ele>168.0</ele><time>2016-06-18T05:49:09.312Z</time></trkpt><trkpt lat="57.85581333" lon="14.30661"><ele>169.0</ele><time>2016-06-18T05:49:10.289Z</time></trkpt><trkpt lat="57.85581333" lon="14.30661"><ele>169.0</ele><time>2016-06-18T05:49:11.308Z</time></trkpt><trkpt lat="57.85573333" lon="14.30658833"><ele>170.0</ele><time>2016-06-18T05:49:12.306Z</time></trkpt><trkpt lat="57.85569333" lon="14.30658167"><ele>170.0</ele><time>2016-06-18T05:49:13.310Z</time></trkpt><trkpt lat="57.85565167" lon="14.30656833"><ele>170.0</ele><time>2016-06-18T05:49:14.317Z</time></trkpt><trkpt lat="57.85565167" lon="14.30656833"><ele>170.0</ele><time>2016-06-18T05:49:15.288Z</time></trkpt><trkpt lat="57.85557167" lon="14.306545"><ele>171.0</ele><time>2016-06-18T05:49:16.293Z</time></trkpt><trkpt lat="57.85557167" lon="14.306545"><ele>171.0</ele><time>2016-06-18T05:49:17.314Z</time></trkpt><trkpt lat="57.85549" lon="14.30652"><ele>171.0</ele><time>2016-06-18T05:49:18.283Z</time></trkpt><trkpt lat="57.85549" lon="14.30652"><ele>171.0</ele><time>2016-06-18T05:49:19.311Z</time></trkpt><trkpt lat="57.85541667" lon="14.30649833"><ele>171.0</ele><time>2016-06-18T05:49:20.301Z</time></trkpt><trkpt lat="57.85541667" lon="14.30649833"><ele>171.0</ele><time>2016-06-18T05:49:21.285Z</time></trkpt><trkpt lat="57.85534167" lon="14.30647667"><ele>171.0</ele><time>2016-06-18T05:49:22.294Z</time></trkpt><trkpt lat="57.85534167" lon="14.30647667"><ele>171.0</ele><time>2016-06-18T05:49:23.315Z</time></trkpt><trkpt lat="57.85526333" lon="14.306455"><ele>171.0</ele><time>2016-06-18T05:49:24.317Z</time></trkpt><trkpt lat="57.85522833" lon="14.30644333"><ele>172.0</ele><time>2016-06-18T05:49:25.284Z</time></trkpt><trkpt lat="57.85519" lon="14.30643667"><ele>172.0</ele><time>2016-06-18T05:49:26.317Z</time></trkpt><trkpt lat="57.85519" lon="14.30643667"><ele>172.0</ele><time>2016-06-18T05:49:27.302Z</time></trkpt><trkpt lat="57.85511833" lon="14.30641333"><ele>172.0</ele><time>2016-06-18T05:49:28.311Z</time></trkpt><trkpt lat="57.85511833" lon="14.30641333"><ele>172.0</ele><time>2016-06-18T05:49:29.296Z</time></trkpt><trkpt lat="57.85504833" lon="14.30639"><ele>173.0</ele><time>2016-06-18T05:49:30.314Z</time></trkpt><trkpt lat="57.85504833" lon="14.30639"><ele>173.0</ele><time>2016-06-18T05:49:31.304Z</time></trkpt><trkpt lat="57.85497333" lon="14.30636167"><ele>173.0</ele><time>2016-06-18T05:49:32.313Z</time></trkpt><trkpt lat="57.85497333" lon="14.30636167"><ele>173.0</ele><time>2016-06-18T05:49:33.308Z</time></trkpt><trkpt lat="57.85489667" lon="14.30634"><ele>174.0</ele><time>2016-06-18T05:49:34.285Z</time></trkpt><trkpt lat="57.85489667" lon="14.30634"><ele>174.0</ele><time>2016-06-18T05:49:35.293Z</time></trkpt><trkpt lat="57.85482167" lon="14.30632167"><ele>175.0</ele><time>2016-06-18T05:49:36.299Z</time></trkpt><trkpt lat="57.85482167" lon="14.30632167"><ele>175.0</ele><time>2016-06-18T05:49:37.282Z</time></trkpt><trkpt lat="57.85475" lon="14.306305"><ele>175.0</ele><time>2016-06-18T05:49:38.310Z</time></trkpt><trkpt lat="57.85475" lon="14.306305"><ele>175.0</ele><time>2016-06-18T05:49:39.291Z</time></trkpt><trkpt lat="57.85468167" lon="14.30628667"><ele>176.0</ele><time>2016-06-18T05:49:40.298Z</time></trkpt><trkpt lat="57.85464667" lon="14.30627667"><ele>176.0</ele><time>2016-06-18T05:49:41.317Z</time></trkpt><trkpt lat="57.85464667" lon="14.30627667"><ele>176.0</ele><time>2016-06-18T05:49:42.301Z</time></trkpt><trkpt lat="57.85457833" lon="14.30625167"><ele>176.0</ele><time>2016-06-18T05:49:43.316Z</time></trkpt><trkpt lat="57.85454333" lon="14.30623833"><ele>177.0</ele><time>2016-06-18T05:49:44.286Z</time></trkpt><trkpt lat="57.85454333" lon="14.30623833"><ele>177.0</ele><time>2016-06-18T05:49:45.297Z</time></trkpt><trkpt lat="57.85447833" lon="14.30621333"><ele>177.0</ele><time>2016-06-18T05:49:46.282Z</time></trkpt><trkpt lat="57.85447833" lon="14.30621333"><ele>177.0</ele><time>2016-06-18T05:49:47.313Z</time></trkpt><trkpt lat="57.85440667" lon="14.30619167"><ele>178.0</ele><time>2016-06-18T05:49:48.320Z</time></trkpt><trkpt lat="57.85440667" lon="14.30619167"><ele>178.0</ele><time>2016-06-18T05:49:49.304Z</time></trkpt><trkpt lat="57.854335" lon="14.30616167"><ele>178.0</ele><time>2016-06-18T05:49:50.318Z</time></trkpt><trkpt lat="57.854335" lon="14.30616167"><ele>178.0</ele><time>2016-06-18T05:49:51.320Z</time></trkpt><trkpt lat="57.854265" lon="14.30613333"><ele>179.0</ele><time>2016-06-18T05:49:52.287Z</time></trkpt><trkpt lat="57.854265" lon="14.30613333"><ele>179.0</ele><time>2016-06-18T05:49:53.311Z</time></trkpt><trkpt lat="57.85419667" lon="14.306115"><ele>180.0</ele><time>2016-06-18T05:49:54.304Z</time></trkpt><trkpt lat="57.85416333" lon="14.30610667"><ele>180.0</ele><time>2016-06-18T05:49:55.314Z</time></trkpt><trkpt lat="57.85412833" lon="14.30609667"><ele>180.0</ele><time>2016-06-18T05:49:56.299Z</time></trkpt><trkpt lat="57.85412833" lon="14.30609667"><ele>180.0</ele><time>2016-06-18T05:49:57.282Z</time></trkpt><trkpt lat="57.85406333" lon="14.306075"><ele>181.0</ele><time>2016-06-18T05:49:58.288Z</time></trkpt><trkpt lat="57.85406333" lon="14.306075"><ele>181.0</ele><time>2016-06-18T05:49:59.311Z</time></trkpt><trkpt lat="57.853995" lon="14.306055"><ele>182.0</ele><time>2016-06-18T05:50:00.318Z</time></trkpt><trkpt lat="57.853995" lon="14.306055"><ele>182.0</ele><time>2016-06-18T05:50:01.317Z</time></trkpt><trkpt lat="57.85392333" lon="14.30603167"><ele>182.0</ele><time>2016-06-18T05:50:02.283Z</time></trkpt><trkpt lat="57.85392333" lon="14.30603167"><ele>182.0</ele><time>2016-06-18T05:50:03.303Z</time></trkpt><trkpt lat="57.85385167" lon="14.30600667"><ele>182.0</ele><time>2016-06-18T05:50:04.285Z</time></trkpt><trkpt lat="57.85385167" lon="14.30600667"><ele>182.0</ele><time>2016-06-18T05:50:05.294Z</time></trkpt><trkpt lat="57.85377833" lon="14.30597833"><ele>183.0</ele><time>2016-06-18T05:50:06.302Z</time></trkpt><trkpt lat="57.853745" lon="14.30597167"><ele>183.0</ele><time>2016-06-18T05:50:07.285Z</time></trkpt><trkpt lat="57.853745" lon="14.30597167"><ele>183.0</ele><time>2016-06-18T05:50:08.311Z</time></trkpt><trkpt lat="57.85368333" lon="14.30596167"><ele>183.0</ele><time>2016-06-18T05:50:09.318Z</time></trkpt><trkpt lat="57.85368333" lon="14.30596167"><ele>183.0</ele><time>2016-06-18T05:50:10.299Z</time></trkpt><trkpt lat="57.85362" lon="14.30594333"><ele>183.0</ele><time>2016-06-18T05:50:11.321Z</time></trkpt><trkpt lat="57.85358667" lon="14.30593333"><ele>183.0</ele><time>2016-06-18T05:50:12.321Z</time></trkpt><trkpt lat="57.85358667" lon="14.30593333"><ele>183.0</ele><time>2016-06-18T05:50:13.303Z</time></trkpt><trkpt lat="57.85352" lon="14.30591333"><ele>184.0</ele><time>2016-06-18T05:50:14.315Z</time></trkpt><trkpt lat="57.85352" lon="14.30591333"><ele>184.0</ele><time>2016-06-18T05:50:15.301Z</time></trkpt><trkpt lat="57.85344833" lon="14.30589333"><ele>184.0</ele><time>2016-06-18T05:50:16.319Z</time></trkpt><trkpt lat="57.85341667" lon="14.30588167"><ele>184.0</ele><time>2016-06-18T05:50:17.288Z</time></trkpt><trkpt lat="57.85341667" lon="14.30588167"><ele>184.0</ele><time>2016-06-18T05:50:18.304Z</time></trkpt><trkpt lat="57.85334833" lon="14.30586"><ele>185.0</ele><time>2016-06-18T05:50:19.312Z</time></trkpt><trkpt lat="57.85331333" lon="14.30585"><ele>185.0</ele><time>2016-06-18T05:50:20.303Z</time></trkpt><trkpt lat="57.85331333" lon="14.30585"><ele>185.0</ele><time>2016-06-18T05:50:21.301Z</time></trkpt><trkpt lat="57.853245" lon="14.30582833"><ele>186.0</ele><time>2016-06-18T05:50:22.309Z</time></trkpt><trkpt lat="57.85321167" lon="14.30581667"><ele>186.0</ele><time>2016-06-18T05:50:23.300Z</time></trkpt><trkpt lat="57.85321167" lon="14.30581667"><ele>186.0</ele><time>2016-06-18T05:50:24.302Z</time></trkpt><trkpt lat="57.853145" lon="14.305795"><ele>187.0</ele><time>2016-06-18T05:50:25.315Z</time></trkpt><trkpt lat="57.85311333" lon="14.30578667"><ele>187.0</ele><time>2016-06-18T05:50:26.318Z</time></trkpt><trkpt lat="57.85311333" lon="14.30578667"><ele>187.0</ele><time>2016-06-18T05:50:27.283Z</time></trkpt><trkpt lat="57.853045" lon="14.30576667"><ele>187.0</ele><time>2016-06-18T05:50:28.291Z</time></trkpt><trkpt lat="57.853045" lon="14.30576667"><ele>187.0</ele><time>2016-06-18T05:50:29.312Z</time></trkpt><trkpt lat="57.85297" lon="14.30574167"><ele>188.0</ele><time>2016-06-18T05:50:30.318Z</time></trkpt><trkpt lat="57.85297" lon="14.30574167"><ele>188.0</ele><time>2016-06-18T05:50:31.296Z</time></trkpt><trkpt lat="57.85289667" lon="14.30571"><ele>189.0</ele><time>2016-06-18T05:50:32.302Z</time></trkpt><trkpt lat="57.85285833" lon="14.30569833"><ele>189.0</ele><time>2016-06-18T05:50:33.296Z</time></trkpt><trkpt lat="57.85285833" lon="14.30569833"><ele>189.0</ele><time>2016-06-18T05:50:34.321Z</time></trkpt><trkpt lat="57.85278333" lon="14.30567833"><ele>189.0</ele><time>2016-06-18T05:50:35.287Z</time></trkpt><trkpt lat="57.85278333" lon="14.30567833"><ele>189.0</ele><time>2016-06-18T05:50:36.318Z</time></trkpt><trkpt lat="57.85271167" lon="14.30565833"><ele>189.0</ele><time>2016-06-18T05:50:37.288Z</time></trkpt><trkpt lat="57.85271167" lon="14.30565833"><ele>189.0</ele><time>2016-06-18T05:50:38.321Z</time></trkpt><trkpt lat="57.85264167" lon="14.305635"><ele>190.0</ele><time>2016-06-18T05:50:39.288Z</time></trkpt><trkpt lat="57.85260667" lon="14.30562333"><ele>190.0</ele><time>2016-06-18T05:50:40.316Z</time></trkpt><trkpt lat="57.85260667" lon="14.30562333"><ele>190.0</ele><time>2016-06-18T05:50:41.292Z</time></trkpt><trkpt lat="57.85253333" lon="14.305605"><ele>191.0</ele><time>2016-06-18T05:50:42.300Z</time></trkpt><trkpt lat="57.85253333" lon="14.305605"><ele>191.0</ele><time>2016-06-18T05:50:43.321Z</time></trkpt><trkpt lat="57.852465" lon="14.305585"><ele>191.0</ele><time>2016-06-18T05:50:44.310Z</time></trkpt><trkpt lat="57.85243167" lon="14.30557333"><ele>192.0</ele><time>2016-06-18T05:50:45.287Z</time></trkpt><trkpt lat="57.85243167" lon="14.30557333"><ele>192.0</ele><time>2016-06-18T05:50:46.312Z</time></trkpt><trkpt lat="57.85236333" lon="14.30555333"><ele>192.0</ele><time>2016-06-18T05:50:47.321Z</time></trkpt><trkpt lat="57.85236333" lon="14.30555333"><ele>192.0</ele><time>2016-06-18T05:50:48.304Z</time></trkpt><trkpt lat="57.8523" lon="14.30553"><ele>193.0</ele><time>2016-06-18T05:50:49.314Z</time></trkpt><trkpt lat="57.852265" lon="14.30552"><ele>193.0</ele><time>2016-06-18T05:50:50.318Z</time></trkpt><trkpt lat="57.852265" lon="14.30552"><ele>193.0</ele><time>2016-06-18T05:50:51.283Z</time></trkpt><trkpt lat="57.85219833" lon="14.30549833"><ele>193.0</ele><time>2016-06-18T05:50:52.290Z</time></trkpt><trkpt lat="57.852165" lon="14.30548667"><ele>194.0</ele><time>2016-06-18T05:50:53.318Z</time></trkpt><trkpt lat="57.852165" lon="14.30548667"><ele>194.0</ele><time>2016-06-18T05:50:54.302Z</time></trkpt><trkpt lat="57.8521" lon="14.30547167"><ele>194.0</ele><time>2016-06-18T05:50:55.316Z</time></trkpt><trkpt lat="57.85206667" lon="14.30546167"><ele>194.0</ele><time>2016-06-18T05:50:56.317Z</time></trkpt><trkpt lat="57.85206667" lon="14.30546167"><ele>194.0</ele><time>2016-06-18T05:50:57.299Z</time></trkpt><trkpt lat="57.85200167" lon="14.30544"><ele>195.0</ele><time>2016-06-18T05:50:58.306Z</time></trkpt><trkpt lat="57.85200167" lon="14.30544"><ele>195.0</ele><time>2016-06-18T05:50:59.290Z</time></trkpt><trkpt lat="57.85192833" lon="14.30541667"><ele>195.0</ele><time>2016-06-18T05:51:00.318Z</time></trkpt><trkpt lat="57.85192833" lon="14.30541667"><ele>195.0</ele><time>2016-06-18T05:51:01.286Z</time></trkpt><trkpt lat="57.85185667" lon="14.30539333"><ele>195.0</ele><time>2016-06-18T05:51:02.293Z</time></trkpt><trkpt lat="57.85185667" lon="14.30539333"><ele>195.0</ele><time>2016-06-18T05:51:03.315Z</time></trkpt><trkpt lat="57.85178333" lon="14.30537"><ele>196.0</ele><time>2016-06-18T05:51:04.297Z</time></trkpt><trkpt lat="57.85174667" lon="14.30535667"><ele>196.0</ele><time>2016-06-18T05:51:05.283Z</time></trkpt><trkpt lat="57.85174667" lon="14.30535667"><ele>196.0</ele><time>2016-06-18T05:51:06.307Z</time></trkpt><trkpt lat="57.85167333" lon="14.30533667"><ele>196.0</ele><time>2016-06-18T05:51:07.315Z</time></trkpt><trkpt lat="57.85163667" lon="14.30532167"><ele>197.0</ele><time>2016-06-18T05:51:08.282Z</time></trkpt><trkpt lat="57.85163667" lon="14.30532167"><ele>197.0</ele><time>2016-06-18T05:51:09.312Z</time></trkpt><trkpt lat="57.85156833" lon="14.30529333"><ele>197.0</ele><time>2016-06-18T05:51:10.318Z</time></trkpt><trkpt lat="57.85156833" lon="14.30529333"><ele>197.0</ele><time>2016-06-18T05:51:11.313Z</time></trkpt><trkpt lat="57.85151167" lon="14.30526833"><ele>197.0</ele><time>2016-06-18T05:51:12.287Z</time></trkpt><trkpt lat="57.85148667" lon="14.305255"><ele>198.0</ele><time>2016-06-18T05:51:13.311Z</time></trkpt><trkpt lat="57.85145333" lon="14.30524333"><ele>198.0</ele><time>2016-06-18T05:51:14.290Z</time></trkpt><trkpt lat="57.85145333" lon="14.30524333"><ele>198.0</ele><time>2016-06-18T05:51:15.303Z</time></trkpt><trkpt lat="57.85138667" lon="14.30521"><ele>198.0</ele><time>2016-06-18T05:51:16.310Z</time></trkpt><trkpt lat="57.85138667" lon="14.30521"><ele>198.0</ele><time>2016-06-18T05:51:17.294Z</time></trkpt><trkpt lat="57.85131833" lon="14.30516667"><ele>198.0</ele><time>2016-06-18T05:51:18.307Z</time></trkpt><trkpt lat="57.85131833" lon="14.30516667"><ele>198.0</ele><time>2016-06-18T05:51:19.291Z</time></trkpt><trkpt lat="57.85125667" lon="14.30511833"><ele>198.0</ele><time>2016-06-18T05:51:20.298Z</time></trkpt><trkpt lat="57.85125667" lon="14.30511833"><ele>198.0</ele><time>2016-06-18T05:51:21.318Z</time></trkpt><trkpt lat="57.85119167" lon="14.30506667"><ele>198.0</ele><time>2016-06-18T05:51:22.302Z</time></trkpt><trkpt lat="57.85119167" lon="14.30506667"><ele>198.0</ele><time>2016-06-18T05:51:23.284Z</time></trkpt><trkpt lat="57.85112833" lon="14.30500833"><ele>199.0</ele><time>2016-06-18T05:51:24.292Z</time></trkpt><trkpt lat="57.85112833" lon="14.30500833"><ele>199.0</ele><time>2016-06-18T05:51:25.316Z</time></trkpt><trkpt lat="57.85106333" lon="14.30493333"><ele>199.0</ele><time>2016-06-18T05:51:26.284Z</time></trkpt><trkpt lat="57.85106333" lon="14.30493333"><ele>199.0</ele><time>2016-06-18T05:51:27.299Z</time></trkpt><trkpt lat="57.85099167" lon="14.304855"><ele>200.0</ele><time>2016-06-18T05:51:28.305Z</time></trkpt><trkpt lat="57.85099167" lon="14.304855"><ele>200.0</ele><time>2016-06-18T05:51:29.289Z</time></trkpt><trkpt lat="57.85091333" lon="14.30476833"><ele>199.0</ele><time>2016-06-18T05:51:30.315Z</time></trkpt><trkpt lat="57.85091333" lon="14.30476833"><ele>199.0</ele><time>2016-06-18T05:51:31.300Z</time></trkpt><trkpt lat="57.85083333" lon="14.30465167"><ele>200.0</ele><time>2016-06-18T05:51:32.305Z</time></trkpt><trkpt lat="57.85083333" lon="14.30465167"><ele>200.0</ele><time>2016-06-18T05:51:33.291Z</time></trkpt><trkpt lat="57.85074667" lon="14.30451333"><ele>200.0</ele><time>2016-06-18T05:51:34.284Z</time></trkpt><trkpt lat="57.85074667" lon="14.30451333"><ele>200.0</ele><time>2016-06-18T05:51:35.320Z</time></trkpt><trkpt lat="57.85066167" lon="14.30437167"><ele>200.0</ele><time>2016-06-18T05:51:36.287Z</time></trkpt><trkpt lat="57.85066167" lon="14.30437167"><ele>200.0</ele><time>2016-06-18T05:51:37.312Z</time></trkpt><trkpt lat="57.85057667" lon="14.30422167"><ele>200.0</ele><time>2016-06-18T05:51:38.288Z</time></trkpt><trkpt lat="57.85057667" lon="14.30422167"><ele>200.0</ele><time>2016-06-18T05:51:39.287Z</time></trkpt><trkpt lat="57.85049667" lon="14.30406333"><ele>200.0</ele><time>2016-06-18T05:51:40.317Z</time></trkpt><trkpt lat="57.85045667" lon="14.303975"><ele>200.0</ele><time>2016-06-18T05:51:41.283Z</time></trkpt><trkpt lat="57.85045667" lon="14.303975"><ele>200.0</ele><time>2016-06-18T05:51:42.314Z</time></trkpt><trkpt lat="57.85038167" lon="14.30379"><ele>200.0</ele><time>2016-06-18T05:51:43.282Z</time></trkpt><trkpt lat="57.85034" lon="14.30369667"><ele>200.0</ele><time>2016-06-18T05:51:44.284Z</time></trkpt><trkpt lat="57.85034" lon="14.30369667"><ele>200.0</ele><time>2016-06-18T05:51:45.291Z</time></trkpt><trkpt lat="57.85026" lon="14.30350167"><ele>199.0</ele><time>2016-06-18T05:51:46.298Z</time></trkpt><trkpt lat="57.85021833" lon="14.30339333"><ele>199.0</ele><time>2016-06-18T05:51:47.321Z</time></trkpt><trkpt lat="57.85018167" lon="14.30329167"><ele>199.0</ele><time>2016-06-18T05:51:48.305Z</time></trkpt><trkpt lat="57.85018167" lon="14.30329167"><ele>199.0</ele><time>2016-06-18T05:51:49.287Z</time></trkpt><trkpt lat="57.8501" lon="14.303085"><ele>199.0</ele><time>2016-06-18T05:51:50.305Z</time></trkpt><trkpt lat="57.8501" lon="14.303085"><ele>199.0</ele><time>2016-06-18T05:51:51.288Z</time></trkpt><trkpt lat="57.85001" lon="14.302865"><ele>199.0</ele><time>2016-06-18T05:51:52.295Z</time></trkpt><trkpt lat="57.85001" lon="14.302865"><ele>199.0</ele><time>2016-06-18T05:51:53.316Z</time></trkpt><trkpt lat="57.849915" lon="14.30263333"><ele>198.0</ele><time>2016-06-18T05:51:54.282Z</time></trkpt><trkpt lat="57.849915" lon="14.30263333"><ele>198.0</ele><time>2016-06-18T05:51:55.305Z</time></trkpt><trkpt lat="57.84981" lon="14.30238667"><ele>198.0</ele><time>2016-06-18T05:51:56.300Z</time></trkpt><trkpt lat="57.84981" lon="14.30238667"><ele>198.0</ele><time>2016-06-18T05:51:57.301Z</time></trkpt><trkpt lat="57.84970167" lon="14.30211833"><ele>198.0</ele><time>2016-06-18T05:51:58.316Z</time></trkpt><trkpt lat="57.84970167" lon="14.30211833"><ele>198.0</ele><time>2016-06-18T05:51:59.302Z</time></trkpt><trkpt lat="57.84958333" lon="14.30184167"><ele>197.0</ele><time>2016-06-18T05:52:00.311Z</time></trkpt><trkpt lat="57.84958333" lon="14.30184167"><ele>197.0</ele><time>2016-06-18T05:52:01.296Z</time></trkpt><trkpt lat="57.84946167" lon="14.30156167"><ele>197.0</ele><time>2016-06-18T05:52:02.293Z</time></trkpt><trkpt lat="57.84946167" lon="14.30156167"><ele>197.0</ele><time>2016-06-18T05:52:03.317Z</time></trkpt><trkpt lat="57.84935" lon="14.3013"><ele>197.0</ele><time>2016-06-18T05:52:04.284Z</time></trkpt><trkpt lat="57.84935" lon="14.3013"><ele>197.0</ele><time>2016-06-18T05:52:05.290Z</time></trkpt><trkpt lat="57.84925167" lon="14.30106167"><ele>197.0</ele><time>2016-06-18T05:52:06.305Z</time></trkpt><trkpt lat="57.84925167" lon="14.30106167"><ele>197.0</ele><time>2016-06-18T05:52:07.293Z</time></trkpt><trkpt lat="57.84916333" lon="14.300845"><ele>197.0</ele><time>2016-06-18T05:52:08.300Z</time></trkpt><trkpt lat="57.84916333" lon="14.300845"><ele>197.0</ele><time>2016-06-18T05:52:09.291Z</time></trkpt><trkpt lat="57.84907667" lon="14.30063667"><ele>198.0</ele><time>2016-06-18T05:52:10.317Z</time></trkpt><trkpt lat="57.84907667" lon="14.30063667"><ele>198.0</ele><time>2016-06-18T05:52:11.316Z</time></trkpt><trkpt lat="57.848995" lon="14.30043833"><ele>198.0</ele><time>2016-06-18T05:52:12.288Z</time></trkpt><trkpt lat="57.84895333" lon="14.30034333"><ele>198.0</ele><time>2016-06-18T05:52:13.319Z</time></trkpt><trkpt lat="57.84891" lon="14.30025"><ele>198.0</ele><time>2016-06-18T05:52:14.303Z</time></trkpt><trkpt lat="57.84891" lon="14.30025"><ele>198.0</ele><time>2016-06-18T05:52:15.284Z</time></trkpt><trkpt lat="57.84882333" lon="14.30006833"><ele>198.0</ele><time>2016-06-18T05:52:16.290Z</time></trkpt><trkpt lat="57.84882333" lon="14.30006833"><ele>198.0</ele><time>2016-06-18T05:52:17.314Z</time></trkpt><trkpt lat="57.84873167" lon="14.29988333"><ele>199.0</ele><time>2016-06-18T05:52:18.288Z</time></trkpt><trkpt lat="57.84873167" lon="14.29988333"><ele>199.0</ele><time>2016-06-18T05:52:19.298Z</time></trkpt><trkpt lat="57.84863667" lon="14.29969167"><ele>199.0</ele><time>2016-06-18T05:52:20.305Z</time></trkpt><trkpt lat="57.84863667" lon="14.29969167"><ele>199.0</ele><time>2016-06-18T05:52:21.287Z</time></trkpt><trkpt lat="57.84854167" lon="14.299495"><ele>199.0</ele><time>2016-06-18T05:52:22.285Z</time></trkpt><trkpt lat="57.84854167" lon="14.299495"><ele>199.0</ele><time>2016-06-18T05:52:23.314Z</time></trkpt><trkpt lat="57.84844333" lon="14.29929667"><ele>199.0</ele><time>2016-06-18T05:52:24.282Z</time></trkpt><trkpt lat="57.84844333" lon="14.29929667"><ele>199.0</ele><time>2016-06-18T05:52:25.305Z</time></trkpt><trkpt lat="57.84834167" lon="14.299095"><ele>199.0</ele><time>2016-06-18T05:52:26.318Z</time></trkpt><trkpt lat="57.84834167" lon="14.299095"><ele>199.0</ele><time>2016-06-18T05:52:27.286Z</time></trkpt><trkpt lat="57.84823667" lon="14.29888333"><ele>199.0</ele><time>2016-06-18T05:52:28.293Z</time></trkpt><trkpt lat="57.84818333" lon="14.298775"><ele>199.0</ele><time>2016-06-18T05:52:29.308Z</time></trkpt><trkpt lat="57.84818333" lon="14.298775"><ele>199.0</ele><time>2016-06-18T05:52:30.315Z</time></trkpt><trkpt lat="57.84807333" lon="14.29857"><ele>199.0</ele><time>2016-06-18T05:52:31.283Z</time></trkpt><trkpt lat="57.84807333" lon="14.29857"><ele>199.0</ele><time>2016-06-18T05:52:32.304Z</time></trkpt><trkpt lat="57.847965" lon="14.29835667"><ele>199.0</ele><time>2016-06-18T05:52:33.298Z</time></trkpt><trkpt lat="57.847965" lon="14.29835667"><ele>199.0</ele><time>2016-06-18T05:52:34.286Z</time></trkpt><trkpt lat="57.847855" lon="14.298145"><ele>198.0</ele><time>2016-06-18T05:52:35.293Z</time></trkpt><trkpt lat="57.847855" lon="14.298145"><ele>198.0</ele><time>2016-06-18T05:52:36.285Z</time></trkpt><trkpt lat="57.84774" lon="14.29792167"><ele>198.0</ele><time>2016-06-18T05:52:37.319Z</time></trkpt><trkpt lat="57.84774" lon="14.29792167"><ele>198.0</ele><time>2016-06-18T05:52:38.285Z</time></trkpt><trkpt lat="57.84762" lon="14.29769833"><ele>197.0</ele><time>2016-06-18T05:52:39.292Z</time></trkpt><trkpt lat="57.84762" lon="14.29769833"><ele>197.0</ele><time>2016-06-18T05:52:40.317Z</time></trkpt><trkpt lat="57.84749833" lon="14.29747167"><ele>197.0</ele><time>2016-06-18T05:52:41.318Z</time></trkpt><trkpt lat="57.84749833" lon="14.29747167"><ele>197.0</ele><time>2016-06-18T05:52:42.302Z</time></trkpt><trkpt lat="57.84737667" lon="14.29724333"><ele>196.0</ele><time>2016-06-18T05:52:43.319Z</time></trkpt><trkpt lat="57.84731667" lon="14.29713"><ele>196.0</ele><time>2016-06-18T05:52:44.282Z</time></trkpt><trkpt lat="57.84731667" lon="14.29713"><ele>196.0</ele><time>2016-06-18T05:52:45.303Z</time></trkpt><trkpt lat="57.84719833" lon="14.29691"><ele>196.0</ele><time>2016-06-18T05:52:46.314Z</time></trkpt><trkpt lat="57.84719833" lon="14.29691"><ele>196.0</ele><time>2016-06-18T05:52:47.296Z</time></trkpt><trkpt lat="57.84708167" lon="14.29669333"><ele>195.0</ele><time>2016-06-18T05:52:48.308Z</time></trkpt><trkpt lat="57.84708167" lon="14.29669333"><ele>195.0</ele><time>2016-06-18T05:52:49.298Z</time></trkpt><trkpt lat="57.846965" lon="14.29646333"><ele>194.0</ele><time>2016-06-18T05:52:50.304Z</time></trkpt><trkpt lat="57.846965" lon="14.29646333"><ele>194.0</ele><time>2016-06-18T05:52:51.285Z</time></trkpt><trkpt lat="57.84684833" lon="14.296225"><ele>193.0</ele><time>2016-06-18T05:52:52.313Z</time></trkpt><trkpt lat="57.84684833" lon="14.296225"><ele>193.0</ele><time>2016-06-18T05:52:53.306Z</time></trkpt><trkpt lat="57.84672333" lon="14.29597833"><ele>193.0</ele><time>2016-06-18T05:52:54.315Z</time></trkpt><trkpt lat="57.84672333" lon="14.29597833"><ele>193.0</ele><time>2016-06-18T05:52:55.298Z</time></trkpt><trkpt lat="57.84658667" lon="14.29571833"><ele>192.0</ele><time>2016-06-18T05:52:56.303Z</time></trkpt><trkpt lat="57.84658667" lon="14.29571833"><ele>192.0</ele><time>2016-06-18T05:52:57.315Z</time></trkpt><trkpt lat="57.846445" lon="14.29545167"><ele>191.0</ele><time>2016-06-18T05:52:58.288Z</time></trkpt><trkpt lat="57.846445" lon="14.29545167"><ele>191.0</ele><time>2016-06-18T05:52:59.297Z</time></trkpt><trkpt lat="57.84630167" lon="14.29518"><ele>190.0</ele><time>2016-06-18T05:53:00.319Z</time></trkpt><trkpt lat="57.84630167" lon="14.29518"><ele>190.0</ele><time>2016-06-18T05:53:01.293Z</time></trkpt><trkpt lat="57.846155" lon="14.2949"><ele>189.0</ele><time>2016-06-18T05:53:02.307Z</time></trkpt><trkpt lat="57.846155" lon="14.2949"><ele>189.0</ele><time>2016-06-18T05:53:03.290Z</time></trkpt><trkpt lat="57.84600167" lon="14.29460667"><ele>188.0</ele><time>2016-06-18T05:53:04.313Z</time></trkpt><trkpt lat="57.84592167" lon="14.29445667"><ele>187.0</ele><time>2016-06-18T05:53:05.318Z</time></trkpt><trkpt lat="57.84592167" lon="14.29445667"><ele>187.0</ele><time>2016-06-18T05:53:06.301Z</time></trkpt><trkpt lat="57.845765" lon="14.29415833"><ele>186.0</ele><time>2016-06-18T05:53:07.300Z</time></trkpt><trkpt lat="57.845765" lon="14.29415833"><ele>186.0</ele><time>2016-06-18T05:53:08.282Z</time></trkpt><trkpt lat="57.84560667" lon="14.29385667"><ele>185.0</ele><time>2016-06-18T05:53:09.289Z</time></trkpt><trkpt lat="57.84560667" lon="14.29385667"><ele>185.0</ele><time>2016-06-18T05:53:10.312Z</time></trkpt><trkpt lat="57.84544833" lon="14.29355667"><ele>184.0</ele><time>2016-06-18T05:53:11.286Z</time></trkpt><trkpt lat="57.84536667" lon="14.293405"><ele>184.0</ele><time>2016-06-18T05:53:12.288Z</time></trkpt><trkpt lat="57.84536667" lon="14.293405"><ele>184.0</ele><time>2016-06-18T05:53:13.313Z</time></trkpt><trkpt lat="57.8452" lon="14.29309333"><ele>183.0</ele><time>2016-06-18T05:53:14.320Z</time></trkpt><trkpt lat="57.8452" lon="14.29309333"><ele>183.0</ele><time>2016-06-18T05:53:15.305Z</time></trkpt><trkpt lat="57.845035" lon="14.29277833"><ele>182.0</ele><time>2016-06-18T05:53:16.318Z</time></trkpt><trkpt lat="57.84495333" lon="14.29262333"><ele>181.0</ele><time>2016-06-18T05:53:17.303Z</time></trkpt><trkpt lat="57.84495333" lon="14.29262333"><ele>181.0</ele><time>2016-06-18T05:53:18.282Z</time></trkpt><trkpt lat="57.84479667" lon="14.29232333"><ele>181.0</ele><time>2016-06-18T05:53:19.307Z</time></trkpt><trkpt lat="57.84472333" lon="14.29217833"><ele>180.0</ele><time>2016-06-18T05:53:20.289Z</time></trkpt><trkpt lat="57.84472333" lon="14.29217833"><ele>180.0</ele><time>2016-06-18T05:53:21.314Z</time></trkpt><trkpt lat="57.84457667" lon="14.29189667"><ele>180.0</ele><time>2016-06-18T05:53:22.318Z</time></trkpt><trkpt lat="57.84457667" lon="14.29189667"><ele>180.0</ele><time>2016-06-18T05:53:23.313Z</time></trkpt><trkpt lat="57.84443" lon="14.29162167"><ele>180.0</ele><time>2016-06-18T05:53:24.320Z</time></trkpt><trkpt lat="57.84443" lon="14.29162167"><ele>180.0</ele><time>2016-06-18T05:53:25.286Z</time></trkpt><trkpt lat="57.84429167" lon="14.29135333"><ele>179.0</ele><time>2016-06-18T05:53:26.318Z</time></trkpt><trkpt lat="57.84429167" lon="14.29135333"><ele>179.0</ele><time>2016-06-18T05:53:27.315Z</time></trkpt><trkpt lat="57.84415667" lon="14.29109333"><ele>179.0</ele><time>2016-06-18T05:53:28.282Z</time></trkpt><trkpt lat="57.84415667" lon="14.29109333"><ele>179.0</ele><time>2016-06-18T05:53:29.304Z</time></trkpt><trkpt lat="57.84402333" lon="14.290835"><ele>179.0</ele><time>2016-06-18T05:53:30.307Z</time></trkpt><trkpt lat="57.84402333" lon="14.290835"><ele>179.0</ele><time>2016-06-18T05:53:31.314Z</time></trkpt><trkpt lat="57.84388833" lon="14.29058"><ele>179.0</ele><time>2016-06-18T05:53:32.286Z</time></trkpt><trkpt lat="57.84388833" lon="14.29058"><ele>179.0</ele><time>2016-06-18T05:53:33.287Z</time></trkpt><trkpt lat="57.843755" lon="14.290325"><ele>179.0</ele><time>2016-06-18T05:53:34.295Z</time></trkpt><trkpt lat="57.84369167" lon="14.29020167"><ele>178.0</ele><time>2016-06-18T05:53:35.320Z</time></trkpt><trkpt lat="57.84362833" lon="14.290075"><ele>178.0</ele><time>2016-06-18T05:53:36.305Z</time></trkpt><trkpt lat="57.84356667" lon="14.289945"><ele>178.0</ele><time>2016-06-18T05:53:37.288Z</time></trkpt><trkpt lat="57.84356667" lon="14.289945"><ele>178.0</ele><time>2016-06-18T05:53:38.317Z</time></trkpt><trkpt lat="57.84344833" lon="14.289665"><ele>178.0</ele><time>2016-06-18T05:53:39.285Z</time></trkpt><trkpt lat="57.84339167" lon="14.28951667"><ele>178.0</ele><time>2016-06-18T05:53:40.318Z</time></trkpt><trkpt lat="57.843335" lon="14.28936333"><ele>178.0</ele><time>2016-06-18T05:53:41.317Z</time></trkpt><trkpt lat="57.843335" lon="14.28936333"><ele>178.0</ele><time>2016-06-18T05:53:42.303Z</time></trkpt><trkpt lat="57.84323" lon="14.28903667"><ele>177.0</ele><time>2016-06-18T05:53:43.298Z</time></trkpt><trkpt lat="57.84318333" lon="14.28887333"><ele>177.0</ele><time>2016-06-18T05:53:44.309Z</time></trkpt><trkpt lat="57.84318333" lon="14.28887333"><ele>177.0</ele><time>2016-06-18T05:53:45.289Z</time></trkpt><trkpt lat="57.84309833" lon="14.28856667"><ele>177.0</ele><time>2016-06-18T05:53:46.312Z</time></trkpt><trkpt lat="57.84305667" lon="14.28840833"><ele>177.0</ele><time>2016-06-18T05:53:47.291Z</time></trkpt><trkpt lat="57.84305667" lon="14.28840833"><ele>177.0</ele><time>2016-06-18T05:53:48.313Z</time></trkpt><trkpt lat="57.84298" lon="14.28808333"><ele>176.0</ele><time>2016-06-18T05:53:49.293Z</time></trkpt><trkpt lat="57.84294333" lon="14.28792"><ele>176.0</ele><time>2016-06-18T05:53:50.317Z</time></trkpt><trkpt lat="57.84294333" lon="14.28792"><ele>176.0</ele><time>2016-06-18T05:53:51.299Z</time></trkpt><trkpt lat="57.84287333" lon="14.28757667"><ele>176.0</ele><time>2016-06-18T05:53:52.319Z</time></trkpt><trkpt lat="57.84287333" lon="14.28757667"><ele>176.0</ele><time>2016-06-18T05:53:53.301Z</time></trkpt><trkpt lat="57.84280333" lon="14.28724"><ele>175.0</ele><time>2016-06-18T05:53:54.318Z</time></trkpt><trkpt lat="57.84280333" lon="14.28724"><ele>175.0</ele><time>2016-06-18T05:53:55.292Z</time></trkpt><trkpt lat="57.84273167" lon="14.286905"><ele>175.0</ele><time>2016-06-18T05:53:56.298Z</time></trkpt><trkpt lat="57.84273167" lon="14.286905"><ele>175.0</ele><time>2016-06-18T05:53:57.320Z</time></trkpt><trkpt lat="57.84266167" lon="14.28657167"><ele>174.0</ele><time>2016-06-18T05:53:58.300Z</time></trkpt><trkpt lat="57.84266167" lon="14.28657167"><ele>174.0</ele><time>2016-06-18T05:53:59.321Z</time></trkpt><trkpt lat="57.84259" lon="14.28623167"><ele>174.0</ele><time>2016-06-18T05:54:00.294Z</time></trkpt><trkpt lat="57.84255333" lon="14.28606"><ele>174.0</ele><time>2016-06-18T05:54:01.324Z</time></trkpt><trkpt lat="57.84251333" lon="14.28588333"><ele>173.0</ele><time>2016-06-18T05:54:02.286Z</time></trkpt><trkpt lat="57.84251333" lon="14.28588333"><ele>173.0</ele><time>2016-06-18T05:54:03.316Z</time></trkpt><trkpt lat="57.84242833" lon="14.28551167"><ele>173.0</ele><time>2016-06-18T05:54:04.300Z</time></trkpt><trkpt lat="57.84242833" lon="14.28551167"><ele>173.0</ele><time>2016-06-18T05:54:05.305Z</time></trkpt><trkpt lat="57.84234167" lon="14.28513167"><ele>172.0</ele><time>2016-06-18T05:54:06.319Z</time></trkpt><trkpt lat="57.84234167" lon="14.28513167"><ele>172.0</ele><time>2016-06-18T05:54:07.305Z</time></trkpt><trkpt lat="57.84226167" lon="14.28475667"><ele>171.0</ele><time>2016-06-18T05:54:08.288Z</time></trkpt><trkpt lat="57.84226167" lon="14.28475667"><ele>171.0</ele><time>2016-06-18T05:54:09.312Z</time></trkpt><trkpt lat="57.84218" lon="14.28438667"><ele>171.0</ele><time>2016-06-18T05:54:10.321Z</time></trkpt><trkpt lat="57.84218" lon="14.28438667"><ele>171.0</ele><time>2016-06-18T05:54:11.320Z</time></trkpt><trkpt lat="57.8421" lon="14.28401"><ele>170.0</ele><time>2016-06-18T05:54:12.293Z</time></trkpt><trkpt lat="57.8421" lon="14.28401"><ele>170.0</ele><time>2016-06-18T05:54:13.305Z</time></trkpt><trkpt lat="57.842015" lon="14.28363333"><ele>169.0</ele><time>2016-06-18T05:54:14.284Z</time></trkpt><trkpt lat="57.842015" lon="14.28363333"><ele>169.0</ele><time>2016-06-18T05:54:15.285Z</time></trkpt><trkpt lat="57.84192833" lon="14.28324667"><ele>168.0</ele><time>2016-06-18T05:54:16.292Z</time></trkpt><trkpt lat="57.84192833" lon="14.28324667"><ele>168.0</ele><time>2016-06-18T05:54:17.316Z</time></trkpt><trkpt lat="57.84184" lon="14.28285"><ele>167.0</ele><time>2016-06-18T05:54:18.283Z</time></trkpt><trkpt lat="57.84184" lon="14.28285"><ele>167.0</ele><time>2016-06-18T05:54:19.288Z</time></trkpt><trkpt lat="57.84174833" lon="14.28245833"><ele>166.0</ele><time>2016-06-18T05:54:20.295Z</time></trkpt><trkpt lat="57.84170333" lon="14.28226167"><ele>166.0</ele><time>2016-06-18T05:54:21.292Z</time></trkpt><trkpt lat="57.84170333" lon="14.28226167"><ele>166.0</ele><time>2016-06-18T05:54:22.317Z</time></trkpt><trkpt lat="57.84161833" lon="14.28185333"><ele>165.0</ele><time>2016-06-18T05:54:23.284Z</time></trkpt><trkpt lat="57.84157667" lon="14.28164167"><ele>164.0</ele><time>2016-06-18T05:54:24.319Z</time></trkpt><trkpt lat="57.84157667" lon="14.28164167"><ele>164.0</ele><time>2016-06-18T05:54:25.301Z</time></trkpt><trkpt lat="57.84148667" lon="14.28123167"><ele>164.0</ele><time>2016-06-18T05:54:26.308Z</time></trkpt><trkpt lat="57.84148667" lon="14.28123167"><ele>164.0</ele><time>2016-06-18T05:54:27.288Z</time></trkpt><trkpt lat="57.8414" lon="14.280835"><ele>163.0</ele><time>2016-06-18T05:54:28.287Z</time></trkpt><trkpt lat="57.8414" lon="14.280835"><ele>163.0</ele><time>2016-06-18T05:54:29.283Z</time></trkpt><trkpt lat="57.841315" lon="14.28045833"><ele>163.0</ele><time>2016-06-18T05:54:30.289Z</time></trkpt><trkpt lat="57.84127333" lon="14.28027"><ele>162.0</ele><time>2016-06-18T05:54:31.314Z</time></trkpt><trkpt lat="57.84123167" lon="14.28008833"><ele>162.0</ele><time>2016-06-18T05:54:32.301Z</time></trkpt><trkpt lat="57.84123167" lon="14.28008833"><ele>162.0</ele><time>2016-06-18T05:54:33.284Z</time></trkpt><trkpt lat="57.84115" lon="14.27971333"><ele>161.0</ele><time>2016-06-18T05:54:34.313Z</time></trkpt><trkpt lat="57.84110833" lon="14.27952167"><ele>161.0</ele><time>2016-06-18T05:54:35.300Z</time></trkpt><trkpt lat="57.84110833" lon="14.27952167"><ele>161.0</ele><time>2016-06-18T05:54:36.284Z</time></trkpt><trkpt lat="57.84102333" lon="14.27914167"><ele>160.0</ele><time>2016-06-18T05:54:37.303Z</time></trkpt><trkpt lat="57.84098" lon="14.27894833"><ele>160.0</ele><time>2016-06-18T05:54:38.284Z</time></trkpt><trkpt lat="57.84098" lon="14.27894833"><ele>160.0</ele><time>2016-06-18T05:54:39.307Z</time></trkpt><trkpt lat="57.840885" lon="14.27856833"><ele>159.0</ele><time>2016-06-18T05:54:40.314Z</time></trkpt><trkpt lat="57.840885" lon="14.27856833"><ele>159.0</ele><time>2016-06-18T05:54:41.319Z</time></trkpt><trkpt lat="57.84077833" lon="14.27819167"><ele>158.0</ele><time>2016-06-18T05:54:42.286Z</time></trkpt><trkpt lat="57.84077833" lon="14.27819167"><ele>158.0</ele><time>2016-06-18T05:54:43.316Z</time></trkpt><trkpt lat="57.84066333" lon="14.277825"><ele>157.0</ele><time>2016-06-18T05:54:44.286Z</time></trkpt><trkpt lat="57.84066333" lon="14.277825"><ele>157.0</ele><time>2016-06-18T05:54:45.313Z</time></trkpt><trkpt lat="57.84054167" lon="14.27747833"><ele>157.0</ele><time>2016-06-18T05:54:46.287Z</time></trkpt><trkpt lat="57.84047667" lon="14.27730667"><ele>156.0</ele><time>2016-06-18T05:54:47.291Z</time></trkpt><trkpt lat="57.84047667" lon="14.27730667"><ele>156.0</ele><time>2016-06-18T05:54:48.284Z</time></trkpt><trkpt lat="57.84034667" lon="14.27697333"><ele>156.0</ele><time>2016-06-18T05:54:49.291Z</time></trkpt><trkpt lat="57.84027667" lon="14.27681"><ele>155.0</ele><time>2016-06-18T05:54:50.302Z</time></trkpt><trkpt lat="57.84027667" lon="14.27681"><ele>155.0</ele><time>2016-06-18T05:54:51.283Z</time></trkpt><trkpt lat="57.84013167" lon="14.276495"><ele>154.0</ele><time>2016-06-18T05:54:52.290Z</time></trkpt><trkpt lat="57.84013167" lon="14.276495"><ele>154.0</ele><time>2016-06-18T05:54:53.314Z</time></trkpt><trkpt lat="57.83999333" lon="14.27618333"><ele>153.0</ele><time>2016-06-18T05:54:54.288Z</time></trkpt><trkpt lat="57.83999333" lon="14.27618333"><ele>153.0</ele><time>2016-06-18T05:54:55.284Z</time></trkpt><trkpt lat="57.83986167" lon="14.27589667"><ele>152.0</ele><time>2016-06-18T05:54:56.308Z</time></trkpt><trkpt lat="57.83986167" lon="14.27589667"><ele>152.0</ele><time>2016-06-18T05:54:57.289Z</time></trkpt><trkpt lat="57.839735" lon="14.27560833"><ele>151.0</ele><time>2016-06-18T05:54:58.308Z</time></trkpt><trkpt lat="57.83967" lon="14.27546"><ele>150.0</ele><time>2016-06-18T05:54:59.316Z</time></trkpt><trkpt lat="57.83967" lon="14.27546"><ele>150.0</ele><time>2016-06-18T05:55:00.301Z</time></trkpt><trkpt lat="57.83953833" lon="14.275165"><ele>150.0</ele><time>2016-06-18T05:55:01.285Z</time></trkpt><trkpt lat="57.839475" lon="14.27501667"><ele>149.0</ele><time>2016-06-18T05:55:02.320Z</time></trkpt><trkpt lat="57.839475" lon="14.27501667"><ele>149.0</ele><time>2016-06-18T05:55:03.309Z</time></trkpt><trkpt lat="57.839345" lon="14.27472333"><ele>149.0</ele><time>2016-06-18T05:55:04.285Z</time></trkpt><trkpt lat="57.83928167" lon="14.27457667"><ele>149.0</ele><time>2016-06-18T05:55:05.307Z</time></trkpt><trkpt lat="57.83928167" lon="14.27457667"><ele>149.0</ele><time>2016-06-18T05:55:06.290Z</time></trkpt><trkpt lat="57.83915167" lon="14.27429667"><ele>149.0</ele><time>2016-06-18T05:55:07.297Z</time></trkpt><trkpt lat="57.83908167" lon="14.274165"><ele>149.0</ele><time>2016-06-18T05:55:08.320Z</time></trkpt><trkpt lat="57.83908167" lon="14.274165"><ele>149.0</ele><time>2016-06-18T05:55:09.305Z</time></trkpt><trkpt lat="57.83893333" lon="14.273915"><ele>148.0</ele><time>2016-06-18T05:55:10.287Z</time></trkpt><trkpt lat="57.83893333" lon="14.273915"><ele>148.0</ele><time>2016-06-18T05:55:11.320Z</time></trkpt><trkpt lat="57.83876667" lon="14.27369167"><ele>148.0</ele><time>2016-06-18T05:55:12.292Z</time></trkpt><trkpt lat="57.83876667" lon="14.27369167"><ele>148.0</ele><time>2016-06-18T05:55:13.282Z</time></trkpt><trkpt lat="57.83858667" lon="14.273475"><ele>146.0</ele><time>2016-06-18T05:55:14.289Z</time></trkpt><trkpt lat="57.83858667" lon="14.273475"><ele>146.0</ele><time>2016-06-18T05:55:15.317Z</time></trkpt><trkpt lat="57.83838833" lon="14.27328333"><ele>145.0</ele><time>2016-06-18T05:55:16.325Z</time></trkpt><trkpt lat="57.83838833" lon="14.27328333"><ele>145.0</ele><time>2016-06-18T05:55:17.319Z</time></trkpt><trkpt lat="57.83817" lon="14.27311667"><ele>143.0</ele><time>2016-06-18T05:55:18.285Z</time></trkpt><trkpt lat="57.83817" lon="14.27311667"><ele>143.0</ele><time>2016-06-18T05:55:19.310Z</time></trkpt><trkpt lat="57.83794" lon="14.27298"><ele>141.0</ele><time>2016-06-18T05:55:20.283Z</time></trkpt><trkpt lat="57.83794" lon="14.27298"><ele>141.0</ele><time>2016-06-18T05:55:21.311Z</time></trkpt><trkpt lat="57.83771" lon="14.27288667"><ele>139.0</ele><time>2016-06-18T05:55:22.320Z</time></trkpt><trkpt lat="57.83771" lon="14.27288667"><ele>139.0</ele><time>2016-06-18T05:55:23.304Z</time></trkpt><trkpt lat="57.83749167" lon="14.27281833"><ele>138.0</ele><time>2016-06-18T05:55:24.315Z</time></trkpt><trkpt lat="57.83749167" lon="14.27281833"><ele>138.0</ele><time>2016-06-18T05:55:25.296Z</time></trkpt><trkpt lat="57.83727333" lon="14.27276667"><ele>136.0</ele><time>2016-06-18T05:55:26.303Z</time></trkpt><trkpt lat="57.83727333" lon="14.27276667"><ele>136.0</ele><time>2016-06-18T05:55:27.320Z</time></trkpt><trkpt lat="57.83704667" lon="14.27271833"><ele>135.0</ele><time>2016-06-18T05:55:28.317Z</time></trkpt><trkpt lat="57.83704667" lon="14.27271833"><ele>135.0</ele><time>2016-06-18T05:55:29.300Z</time></trkpt><trkpt lat="57.83681833" lon="14.27265833"><ele>134.0</ele><time>2016-06-18T05:55:30.308Z</time></trkpt><trkpt lat="57.836705" lon="14.27262833"><ele>133.0</ele><time>2016-06-18T05:55:31.305Z</time></trkpt><trkpt lat="57.836705" lon="14.27262833"><ele>133.0</ele><time>2016-06-18T05:55:32.296Z</time></trkpt><trkpt lat="57.83647333" lon="14.27256667"><ele>132.0</ele><time>2016-06-18T05:55:33.311Z</time></trkpt><trkpt lat="57.83647333" lon="14.27256667"><ele>132.0</ele><time>2016-06-18T05:55:34.294Z</time></trkpt><trkpt lat="57.83623333" lon="14.27250833"><ele>130.0</ele><time>2016-06-18T05:55:35.301Z</time></trkpt><trkpt lat="57.83623333" lon="14.27250833"><ele>130.0</ele><time>2016-06-18T05:55:36.320Z</time></trkpt><trkpt lat="57.83598667" lon="14.27243333"><ele>129.0</ele><time>2016-06-18T05:55:37.318Z</time></trkpt><trkpt lat="57.83598667" lon="14.27243333"><ele>129.0</ele><time>2016-06-18T05:55:38.283Z</time></trkpt><trkpt lat="57.83573667" lon="14.27235167"><ele>127.0</ele><time>2016-06-18T05:55:39.290Z</time></trkpt><trkpt lat="57.83561833" lon="14.27231"><ele>126.0</ele><time>2016-06-18T05:55:40.291Z</time></trkpt><trkpt lat="57.8355" lon="14.27227167"><ele>125.0</ele><time>2016-06-18T05:55:41.297Z</time></trkpt><trkpt lat="57.8355" lon="14.27227167"><ele>125.0</ele><time>2016-06-18T05:55:42.319Z</time></trkpt><trkpt lat="57.83525667" lon="14.272205"><ele>124.0</ele><time>2016-06-18T05:55:43.307Z</time></trkpt><trkpt lat="57.83513167" lon="14.27217"><ele>123.0</ele><time>2016-06-18T05:55:44.320Z</time></trkpt><trkpt lat="57.83513167" lon="14.27217"><ele>123.0</ele><time>2016-06-18T05:55:45.298Z</time></trkpt><trkpt lat="57.83487167" lon="14.272105"><ele>121.0</ele><time>2016-06-18T05:55:46.305Z</time></trkpt><trkpt lat="57.83487167" lon="14.272105"><ele>121.0</ele><time>2016-06-18T05:55:47.286Z</time></trkpt><trkpt lat="57.834605" lon="14.27204333"><ele>120.0</ele><time>2016-06-18T05:55:48.293Z</time></trkpt><trkpt lat="57.83447" lon="14.27201"><ele>119.0</ele><time>2016-06-18T05:55:49.283Z</time></trkpt><trkpt lat="57.834335" lon="14.27197167"><ele>118.0</ele><time>2016-06-18T05:55:50.290Z</time></trkpt><trkpt lat="57.834335" lon="14.27197167"><ele>118.0</ele><time>2016-06-18T05:55:51.317Z</time></trkpt><trkpt lat="57.83406833" lon="14.27189667"><ele>117.0</ele><time>2016-06-18T05:55:52.286Z</time></trkpt><trkpt lat="57.83406833" lon="14.27189667"><ele>117.0</ele><time>2016-06-18T05:55:53.292Z</time></trkpt><trkpt lat="57.83380667" lon="14.27182667"><ele>116.0</ele><time>2016-06-18T05:55:54.301Z</time></trkpt><trkpt lat="57.83368167" lon="14.271795"><ele>116.0</ele><time>2016-06-18T05:55:55.288Z</time></trkpt><trkpt lat="57.83355667" lon="14.271765"><ele>116.0</ele><time>2016-06-18T05:55:56.320Z</time></trkpt><trkpt lat="57.83355667" lon="14.271765"><ele>116.0</ele><time>2016-06-18T05:55:57.306Z</time></trkpt><trkpt lat="57.83330667" lon="14.27169667"><ele>115.0</ele><time>2016-06-18T05:55:58.314Z</time></trkpt><trkpt lat="57.83330667" lon="14.27169667"><ele>115.0</ele><time>2016-06-18T05:55:59.288Z</time></trkpt><trkpt lat="57.83306" lon="14.27163"><ele>114.0</ele><time>2016-06-18T05:56:00.299Z</time></trkpt><trkpt lat="57.83293667" lon="14.27159667"><ele>114.0</ele><time>2016-06-18T05:56:01.316Z</time></trkpt><trkpt lat="57.83293667" lon="14.27159667"><ele>114.0</ele><time>2016-06-18T05:56:02.298Z</time></trkpt><trkpt lat="57.832695" lon="14.27153"><ele>114.0</ele><time>2016-06-18T05:56:03.305Z</time></trkpt><trkpt lat="57.83257833" lon="14.27150333"><ele>113.0</ele><time>2016-06-18T05:56:04.303Z</time></trkpt><trkpt lat="57.83257833" lon="14.27150333"><ele>113.0</ele><time>2016-06-18T05:56:05.297Z</time></trkpt><trkpt lat="57.83234667" lon="14.27146333"><ele>113.0</ele><time>2016-06-18T05:56:06.304Z</time></trkpt><trkpt lat="57.83223" lon="14.271445"><ele>112.0</ele><time>2016-06-18T05:56:07.286Z</time></trkpt><trkpt lat="57.83211" lon="14.271425"><ele>112.0</ele><time>2016-06-18T05:56:08.286Z</time></trkpt><trkpt lat="57.83211" lon="14.271425"><ele>112.0</ele><time>2016-06-18T05:56:09.306Z</time></trkpt><trkpt lat="57.83187" lon="14.27138333"><ele>111.0</ele><time>2016-06-18T05:56:10.322Z</time></trkpt><trkpt lat="57.83187" lon="14.27138333"><ele>111.0</ele><time>2016-06-18T05:56:11.299Z</time></trkpt><trkpt lat="57.83163833" lon="14.27133333"><ele>111.0</ele><time>2016-06-18T05:56:12.319Z</time></trkpt><trkpt lat="57.831525" lon="14.27131"><ele>111.0</ele><time>2016-06-18T05:56:13.302Z</time></trkpt><trkpt lat="57.83141667" lon="14.27129167"><ele>111.0</ele><time>2016-06-18T05:56:14.287Z</time></trkpt><trkpt lat="57.83141667" lon="14.27129167"><ele>111.0</ele><time>2016-06-18T05:56:15.311Z</time></trkpt><trkpt lat="57.83121667" lon="14.27125667"><ele>112.0</ele><time>2016-06-18T05:56:16.318Z</time></trkpt><trkpt lat="57.83121667" lon="14.27125667"><ele>112.0</ele><time>2016-06-18T05:56:17.318Z</time></trkpt><trkpt lat="57.83103333" lon="14.27122833"><ele>112.0</ele><time>2016-06-18T05:56:18.286Z</time></trkpt><trkpt lat="57.83103333" lon="14.27122833"><ele>112.0</ele><time>2016-06-18T05:56:19.309Z</time></trkpt><trkpt lat="57.83086" lon="14.27121167"><ele>113.0</ele><time>2016-06-18T05:56:20.319Z</time></trkpt><trkpt lat="57.83086" lon="14.27121167"><ele>113.0</ele><time>2016-06-18T05:56:21.301Z</time></trkpt><trkpt lat="57.83069333" lon="14.27118667"><ele>113.0</ele><time>2016-06-18T05:56:22.308Z</time></trkpt><trkpt lat="57.830615" lon="14.27117167"><ele>113.0</ele><time>2016-06-18T05:56:23.294Z</time></trkpt><trkpt lat="57.830615" lon="14.27117167"><ele>113.0</ele><time>2016-06-18T05:56:24.316Z</time></trkpt><trkpt lat="57.83046167" lon="14.271145"><ele>114.0</ele><time>2016-06-18T05:56:25.318Z</time></trkpt><trkpt lat="57.83038667" lon="14.27113333"><ele>115.0</ele><time>2016-06-18T05:56:26.312Z</time></trkpt><trkpt lat="57.83038667" lon="14.27113333"><ele>115.0</ele><time>2016-06-18T05:56:27.293Z</time></trkpt><trkpt lat="57.83024667" lon="14.27111833"><ele>116.0</ele><time>2016-06-18T05:56:28.300Z</time></trkpt><trkpt lat="57.83024667" lon="14.27111833"><ele>116.0</ele><time>2016-06-18T05:56:29.282Z</time></trkpt><trkpt lat="57.83011333" lon="14.27110333"><ele>116.0</ele><time>2016-06-18T05:56:30.289Z</time></trkpt><trkpt lat="57.83011333" lon="14.27110333"><ele>116.0</ele><time>2016-06-18T05:56:31.284Z</time></trkpt><trkpt lat="57.83" lon="14.27107833"><ele>117.0</ele><time>2016-06-18T05:56:32.284Z</time></trkpt><trkpt lat="57.83" lon="14.27107833"><ele>117.0</ele><time>2016-06-18T05:56:33.283Z</time></trkpt><trkpt lat="57.82990167" lon="14.27106"><ele>117.0</ele><time>2016-06-18T05:56:34.291Z</time></trkpt><trkpt lat="57.82985333" lon="14.27105333"><ele>118.0</ele><time>2016-06-18T05:56:35.305Z</time></trkpt><trkpt lat="57.82985333" lon="14.27105333"><ele>118.0</ele><time>2016-06-18T05:56:36.319Z</time></trkpt><trkpt lat="57.82975167" lon="14.271035"><ele>118.0</ele><time>2016-06-18T05:56:37.288Z</time></trkpt><trkpt lat="57.82969833" lon="14.27103"><ele>118.0</ele><time>2016-06-18T05:56:38.310Z</time></trkpt><trkpt lat="57.82969833" lon="14.27103"><ele>118.0</ele><time>2016-06-18T05:56:39.294Z</time></trkpt><trkpt lat="57.829595" lon="14.27101167"><ele>119.0</ele><time>2016-06-18T05:56:40.302Z</time></trkpt><trkpt lat="57.829545" lon="14.271"><ele>120.0</ele><time>2016-06-18T05:56:41.301Z</time></trkpt><trkpt lat="57.829545" lon="14.271"><ele>120.0</ele><time>2016-06-18T05:56:42.300Z</time></trkpt><trkpt lat="57.82944333" lon="14.27098167"><ele>121.0</ele><time>2016-06-18T05:56:43.284Z</time></trkpt><trkpt lat="57.82944333" lon="14.27098167"><ele>121.0</ele><time>2016-06-18T05:56:44.307Z</time></trkpt><trkpt lat="57.82935167" lon="14.27096667"><ele>121.0</ele><time>2016-06-18T05:56:45.286Z</time></trkpt><trkpt lat="57.82935167" lon="14.27096667"><ele>121.0</ele><time>2016-06-18T05:56:46.291Z</time></trkpt><trkpt lat="57.829265" lon="14.27095333"><ele>122.0</ele><time>2016-06-18T05:56:47.298Z</time></trkpt><trkpt lat="57.829225" lon="14.27094667"><ele>122.0</ele><time>2016-06-18T05:56:48.293Z</time></trkpt><trkpt lat="57.829225" lon="14.27094667"><ele>122.0</ele><time>2016-06-18T05:56:49.322Z</time></trkpt><trkpt lat="57.82915" lon="14.27093333"><ele>123.0</ele><time>2016-06-18T05:56:50.299Z</time></trkpt><trkpt lat="57.82915" lon="14.27093333"><ele>123.0</ele><time>2016-06-18T05:56:51.320Z</time></trkpt><trkpt lat="57.82907167" lon="14.27092333"><ele>124.0</ele><time>2016-06-18T05:56:52.325Z</time></trkpt><trkpt lat="57.82907167" lon="14.27092333"><ele>124.0</ele><time>2016-06-18T05:56:53.320Z</time></trkpt><trkpt lat="57.82898667" lon="14.27090833"><ele>124.0</ele><time>2016-06-18T05:56:54.289Z</time></trkpt><trkpt lat="57.828945" lon="14.27090167"><ele>125.0</ele><time>2016-06-18T05:56:55.313Z</time></trkpt><trkpt lat="57.8289" lon="14.27089333"><ele>125.0</ele><time>2016-06-18T05:56:56.298Z</time></trkpt><trkpt lat="57.8289" lon="14.27089333"><ele>125.0</ele><time>2016-06-18T05:56:57.316Z</time></trkpt><trkpt lat="57.82881167" lon="14.27088"><ele>125.0</ele><time>2016-06-18T05:56:58.284Z</time></trkpt><trkpt lat="57.82876667" lon="14.270875"><ele>125.0</ele><time>2016-06-18T05:56:59.318Z</time></trkpt><trkpt lat="57.82876667" lon="14.270875"><ele>125.0</ele><time>2016-06-18T05:57:00.288Z</time></trkpt><trkpt lat="57.828685" lon="14.27086167"><ele>126.0</ele><time>2016-06-18T05:57:01.299Z</time></trkpt><trkpt lat="57.82864667" lon="14.27085333"><ele>126.0</ele><time>2016-06-18T05:57:02.283Z</time></trkpt><trkpt lat="57.82864667" lon="14.27085333"><ele>126.0</ele><time>2016-06-18T05:57:03.304Z</time></trkpt><trkpt lat="57.82857167" lon="14.27085167"><ele>126.0</ele><time>2016-06-18T05:57:04.320Z</time></trkpt><trkpt lat="57.82857167" lon="14.27085167"><ele>126.0</ele><time>2016-06-18T05:57:05.302Z</time></trkpt><trkpt lat="57.82849333" lon="14.27084333"><ele>126.0</ele><time>2016-06-18T05:57:06.315Z</time></trkpt><trkpt lat="57.82849333" lon="14.27084333"><ele>126.0</ele><time>2016-06-18T05:57:07.309Z</time></trkpt><trkpt lat="57.82841333" lon="14.27083167"><ele>126.0</ele><time>2016-06-18T05:57:08.282Z</time></trkpt><trkpt lat="57.828375" lon="14.27083"><ele>126.0</ele><time>2016-06-18T05:57:09.309Z</time></trkpt><trkpt lat="57.828375" lon="14.27083"><ele>126.0</ele><time>2016-06-18T05:57:10.312Z</time></trkpt><trkpt lat="57.82829833" lon="14.27082"><ele>127.0</ele><time>2016-06-18T05:57:11.299Z</time></trkpt><trkpt lat="57.82825833" lon="14.270815"><ele>127.0</ele><time>2016-06-18T05:57:12.285Z</time></trkpt><trkpt lat="57.82825833" lon="14.270815"><ele>127.0</ele><time>2016-06-18T05:57:13.309Z</time></trkpt><trkpt lat="57.82817167" lon="14.27080167"><ele>127.0</ele><time>2016-06-18T05:57:14.284Z</time></trkpt><trkpt lat="57.82817167" lon="14.27080167"><ele>127.0</ele><time>2016-06-18T05:57:15.306Z</time></trkpt><trkpt lat="57.82808833" lon="14.27078333"><ele>128.0</ele><time>2016-06-18T05:57:16.317Z</time></trkpt><trkpt lat="57.82808833" lon="14.27078333"><ele>128.0</ele><time>2016-06-18T05:57:17.299Z</time></trkpt><trkpt lat="57.82801833" lon="14.27077"><ele>128.0</ele><time>2016-06-18T05:57:18.325Z</time></trkpt><trkpt lat="57.82801833" lon="14.27077"><ele>128.0</ele><time>2016-06-18T05:57:19.304Z</time></trkpt><trkpt lat="57.82794" lon="14.27075333"><ele>129.0</ele><time>2016-06-18T05:57:20.311Z</time></trkpt><trkpt lat="57.82794" lon="14.27075333"><ele>129.0</ele><time>2016-06-18T05:57:21.292Z</time></trkpt><trkpt lat="57.82785667" lon="14.27074333"><ele>129.0</ele><time>2016-06-18T05:57:22.282Z</time></trkpt><trkpt lat="57.82785667" lon="14.27074333"><ele>129.0</ele><time>2016-06-18T05:57:23.319Z</time></trkpt><trkpt lat="57.82777" lon="14.27073167"><ele>129.0</ele><time>2016-06-18T05:57:24.292Z</time></trkpt><trkpt lat="57.82777" lon="14.27073167"><ele>129.0</ele><time>2016-06-18T05:57:25.315Z</time></trkpt><trkpt lat="57.82768167" lon="14.27071667"><ele>130.0</ele><time>2016-06-18T05:57:26.298Z</time></trkpt><trkpt lat="57.82768167" lon="14.27071667"><ele>130.0</ele><time>2016-06-18T05:57:27.306Z</time></trkpt><trkpt lat="57.82758667" lon="14.27069833"><ele>131.0</ele><time>2016-06-18T05:57:28.282Z</time></trkpt><trkpt lat="57.82758667" lon="14.27069833"><ele>131.0</ele><time>2016-06-18T05:57:29.304Z</time></trkpt><trkpt lat="57.82749667" lon="14.27068333"><ele>131.0</ele><time>2016-06-18T05:57:30.286Z</time></trkpt><trkpt lat="57.82749667" lon="14.27068333"><ele>131.0</ele><time>2016-06-18T05:57:31.301Z</time></trkpt><trkpt lat="57.827415" lon="14.27067167"><ele>132.0</ele><time>2016-06-18T05:57:32.308Z</time></trkpt><trkpt lat="57.827415" lon="14.27067167"><ele>132.0</ele><time>2016-06-18T05:57:33.291Z</time></trkpt><trkpt lat="57.82733167" lon="14.27066333"><ele>132.0</ele><time>2016-06-18T05:57:34.296Z</time></trkpt><trkpt lat="57.82728833" lon="14.27065667"><ele>132.0</ele><time>2016-06-18T05:57:35.317Z</time></trkpt><trkpt lat="57.82728833" lon="14.27065667"><ele>132.0</ele><time>2016-06-18T05:57:36.299Z</time></trkpt><trkpt lat="57.82719833" lon="14.27064"><ele>133.0</ele><time>2016-06-18T05:57:37.305Z</time></trkpt><trkpt lat="57.82715167" lon="14.270635"><ele>133.0</ele><time>2016-06-18T05:57:38.287Z</time></trkpt><trkpt lat="57.82715167" lon="14.270635"><ele>133.0</ele><time>2016-06-18T05:57:39.310Z</time></trkpt><trkpt lat="57.82705667" lon="14.270625"><ele>133.0</ele><time>2016-06-18T05:57:40.295Z</time></trkpt><trkpt lat="57.82705667" lon="14.270625"><ele>133.0</ele><time>2016-06-18T05:57:41.318Z</time></trkpt><trkpt lat="57.82696333" lon="14.27061667"><ele>134.0</ele><time>2016-06-18T05:57:42.289Z</time></trkpt><trkpt lat="57.82696333" lon="14.27061667"><ele>134.0</ele><time>2016-06-18T05:57:43.316Z</time></trkpt><trkpt lat="57.826865" lon="14.27060333"><ele>134.0</ele><time>2016-06-18T05:57:44.318Z</time></trkpt><trkpt lat="57.826865" lon="14.27060333"><ele>134.0</ele><time>2016-06-18T05:57:45.296Z</time></trkpt><trkpt lat="57.82676333" lon="14.27058833"><ele>135.0</ele><time>2016-06-18T05:57:46.309Z</time></trkpt><trkpt lat="57.82671167" lon="14.27058"><ele>135.0</ele><time>2016-06-18T05:57:47.287Z</time></trkpt><trkpt lat="57.82671167" lon="14.27058"><ele>135.0</ele><time>2016-06-18T05:57:48.311Z</time></trkpt><trkpt lat="57.82660833" lon="14.27057167"><ele>135.0</ele><time>2016-06-18T05:57:49.319Z</time></trkpt><trkpt lat="57.82655333" lon="14.27056667"><ele>135.0</ele><time>2016-06-18T05:57:50.300Z</time></trkpt><trkpt lat="57.82655333" lon="14.27056667"><ele>135.0</ele><time>2016-06-18T05:57:51.285Z</time></trkpt><trkpt lat="57.82643667" lon="14.270565"><ele>136.0</ele><time>2016-06-18T05:57:52.292Z</time></trkpt><trkpt lat="57.82637667" lon="14.27056667"><ele>136.0</ele><time>2016-06-18T05:57:53.319Z</time></trkpt><trkpt lat="57.82631667" lon="14.27056333"><ele>136.0</ele><time>2016-06-18T05:57:54.303Z</time></trkpt><trkpt lat="57.82631667" lon="14.27056333"><ele>136.0</ele><time>2016-06-18T05:57:55.283Z</time></trkpt><trkpt lat="57.82619833" lon="14.270555"><ele>136.0</ele><time>2016-06-18T05:57:56.288Z</time></trkpt><trkpt lat="57.82619833" lon="14.270555"><ele>136.0</ele><time>2016-06-18T05:57:57.310Z</time></trkpt><trkpt lat="57.82607167" lon="14.270545"><ele>136.0</ele><time>2016-06-18T05:57:58.298Z</time></trkpt><trkpt lat="57.82600667" lon="14.27054167"><ele>136.0</ele><time>2016-06-18T05:57:59.307Z</time></trkpt><trkpt lat="57.82600667" lon="14.27054167"><ele>136.0</ele><time>2016-06-18T05:58:00.290Z</time></trkpt><trkpt lat="57.825875" lon="14.27053833"><ele>136.0</ele><time>2016-06-18T05:58:01.316Z</time></trkpt><trkpt lat="57.82580667" lon="14.27053333"><ele>136.0</ele><time>2016-06-18T05:58:02.299Z</time></trkpt><trkpt lat="57.82580667" lon="14.27053333"><ele>136.0</ele><time>2016-06-18T05:58:03.284Z</time></trkpt><trkpt lat="57.82567" lon="14.27053333"><ele>137.0</ele><time>2016-06-18T05:58:04.290Z</time></trkpt><trkpt lat="57.82560167" lon="14.270535"><ele>137.0</ele><time>2016-06-18T05:58:05.321Z</time></trkpt><trkpt lat="57.82560167" lon="14.270535"><ele>137.0</ele><time>2016-06-18T05:58:06.307Z</time></trkpt><trkpt lat="57.82545833" lon="14.27053833"><ele>137.0</ele><time>2016-06-18T05:58:07.287Z</time></trkpt><trkpt lat="57.82545833" lon="14.27053833"><ele>137.0</ele><time>2016-06-18T05:58:08.309Z</time></trkpt><trkpt lat="57.82531" lon="14.27053833"><ele>136.0</ele><time>2016-06-18T05:58:09.317Z</time></trkpt><trkpt lat="57.82523333" lon="14.27053667"><ele>136.0</ele><time>2016-06-18T05:58:10.283Z</time></trkpt><trkpt lat="57.82523333" lon="14.27053667"><ele>136.0</ele><time>2016-06-18T05:58:11.290Z</time></trkpt><trkpt lat="57.82507667" lon="14.27054"><ele>136.0</ele><time>2016-06-18T05:58:12.303Z</time></trkpt><trkpt lat="57.824995" lon="14.27054167"><ele>136.0</ele><time>2016-06-18T05:58:13.287Z</time></trkpt><trkpt lat="57.82491667" lon="14.27054667"><ele>136.0</ele><time>2016-06-18T05:58:14.310Z</time></trkpt><trkpt lat="57.82491667" lon="14.27054667"><ele>136.0</ele><time>2016-06-18T05:58:15.292Z</time></trkpt><trkpt lat="57.82476" lon="14.27055"><ele>136.0</ele><time>2016-06-18T05:58:16.299Z</time></trkpt><trkpt lat="57.82476" lon="14.27055"><ele>136.0</ele><time>2016-06-18T05:58:17.321Z</time></trkpt><trkpt lat="57.82460167" lon="14.270555"><ele>135.0</ele><time>2016-06-18T05:58:18.308Z</time></trkpt><trkpt lat="57.82460167" lon="14.270555"><ele>135.0</ele><time>2016-06-18T05:58:19.290Z</time></trkpt><trkpt lat="57.82445333" lon="14.27056333"><ele>135.0</ele><time>2016-06-18T05:58:20.297Z</time></trkpt><trkpt lat="57.82445333" lon="14.27056333"><ele>135.0</ele><time>2016-06-18T05:58:21.321Z</time></trkpt><trkpt lat="57.82430833" lon="14.27057667"><ele>135.0</ele><time>2016-06-18T05:58:22.298Z</time></trkpt><trkpt lat="57.82430833" lon="14.27057667"><ele>135.0</ele><time>2016-06-18T05:58:23.319Z</time></trkpt><trkpt lat="57.82416333" lon="14.27059167"><ele>135.0</ele><time>2016-06-18T05:58:24.285Z</time></trkpt><trkpt lat="57.82416333" lon="14.27059167"><ele>135.0</ele><time>2016-06-18T05:58:25.308Z</time></trkpt><trkpt lat="57.82401" lon="14.27060667"><ele>134.0</ele><time>2016-06-18T05:58:26.318Z</time></trkpt><trkpt lat="57.82401" lon="14.27060667"><ele>134.0</ele><time>2016-06-18T05:58:27.309Z</time></trkpt><trkpt lat="57.82384667" lon="14.27063333"><ele>134.0</ele><time>2016-06-18T05:58:28.289Z</time></trkpt><trkpt lat="57.82384667" lon="14.27063333"><ele>134.0</ele><time>2016-06-18T05:58:29.287Z</time></trkpt><trkpt lat="57.82368" lon="14.27066833"><ele>133.0</ele><time>2016-06-18T05:58:30.325Z</time></trkpt><trkpt lat="57.82368" lon="14.27066833"><ele>133.0</ele><time>2016-06-18T05:58:31.292Z</time></trkpt><trkpt lat="57.823505" lon="14.27070167"><ele>133.0</ele><time>2016-06-18T05:58:32.299Z</time></trkpt><trkpt lat="57.823505" lon="14.27070167"><ele>133.0</ele><time>2016-06-18T05:58:33.284Z</time></trkpt><trkpt lat="57.82332333" lon="14.27074667"><ele>132.0</ele><time>2016-06-18T05:58:34.308Z</time></trkpt><trkpt lat="57.82322833" lon="14.27077333"><ele>132.0</ele><time>2016-06-18T05:58:35.290Z</time></trkpt><trkpt lat="57.82313333" lon="14.2708"><ele>131.0</ele><time>2016-06-18T05:58:36.282Z</time></trkpt><trkpt lat="57.82313333" lon="14.2708"><ele>131.0</ele><time>2016-06-18T05:58:37.303Z</time></trkpt><trkpt lat="57.82294" lon="14.270855"><ele>131.0</ele><time>2016-06-18T05:58:38.309Z</time></trkpt><trkpt lat="57.82294" lon="14.270855"><ele>131.0</ele><time>2016-06-18T05:58:39.293Z</time></trkpt><trkpt lat="57.82274667" lon="14.27092"><ele>130.0</ele><time>2016-06-18T05:58:40.318Z</time></trkpt><trkpt lat="57.82274667" lon="14.27092"><ele>130.0</ele><time>2016-06-18T05:58:41.314Z</time></trkpt><trkpt lat="57.822555" lon="14.271"><ele>129.0</ele><time>2016-06-18T05:58:42.321Z</time></trkpt><trkpt lat="57.822555" lon="14.271"><ele>129.0</ele><time>2016-06-18T05:58:43.306Z</time></trkpt><trkpt lat="57.822365" lon="14.27108"><ele>129.0</ele><time>2016-06-18T05:58:44.288Z</time></trkpt><trkpt lat="57.822365" lon="14.27108"><ele>129.0</ele><time>2016-06-18T05:58:45.287Z</time></trkpt><trkpt lat="57.82217167" lon="14.27115833"><ele>128.0</ele><time>2016-06-18T05:58:46.294Z</time></trkpt><trkpt lat="57.822075" lon="14.271195"><ele>128.0</ele><time>2016-06-18T05:58:47.306Z</time></trkpt><trkpt lat="57.822075" lon="14.271195"><ele>128.0</ele><time>2016-06-18T05:58:48.282Z</time></trkpt><trkpt lat="57.82188333" lon="14.27127"><ele>128.0</ele><time>2016-06-18T05:58:49.289Z</time></trkpt><trkpt lat="57.82178667" lon="14.27131"><ele>128.0</ele><time>2016-06-18T05:58:50.296Z</time></trkpt><trkpt lat="57.82178667" lon="14.27131"><ele>128.0</ele><time>2016-06-18T05:58:51.319Z</time></trkpt><trkpt lat="57.82159667" lon="14.27139"><ele>128.0</ele><time>2016-06-18T05:58:52.286Z</time></trkpt><trkpt lat="57.82150833" lon="14.27142833"><ele>128.0</ele><time>2016-06-18T05:58:53.311Z</time></trkpt><trkpt lat="57.82150833" lon="14.27142833"><ele>128.0</ele><time>2016-06-18T05:58:54.295Z</time></trkpt><trkpt lat="57.82133667" lon="14.27150667"><ele>128.0</ele><time>2016-06-18T05:58:55.313Z</time></trkpt><trkpt lat="57.82125" lon="14.27155"><ele>128.0</ele><time>2016-06-18T05:58:56.308Z</time></trkpt><trkpt lat="57.82125" lon="14.27155"><ele>128.0</ele><time>2016-06-18T05:58:57.292Z</time></trkpt><trkpt lat="57.82107833" lon="14.27163333"><ele>128.0</ele><time>2016-06-18T05:58:58.303Z</time></trkpt><trkpt lat="57.82107833" lon="14.27163333"><ele>128.0</ele><time>2016-06-18T05:58:59.286Z</time></trkpt><trkpt lat="57.820905" lon="14.27170833"><ele>128.0</ele><time>2016-06-18T05:59:00.300Z</time></trkpt><trkpt lat="57.820905" lon="14.27170833"><ele>128.0</ele><time>2016-06-18T05:59:01.282Z</time></trkpt><trkpt lat="57.82073167" lon="14.271785"><ele>128.0</ele><time>2016-06-18T05:59:02.286Z</time></trkpt><trkpt lat="57.82073167" lon="14.271785"><ele>128.0</ele><time>2016-06-18T05:59:03.312Z</time></trkpt><trkpt lat="57.820565" lon="14.27186167"><ele>129.0</ele><time>2016-06-18T05:59:04.284Z</time></trkpt><trkpt lat="57.820565" lon="14.27186167"><ele>129.0</ele><time>2016-06-18T05:59:05.306Z</time></trkpt><trkpt lat="57.82040167" lon="14.271935"><ele>129.0</ele><time>2016-06-18T05:59:06.315Z</time></trkpt><trkpt lat="57.82040167" lon="14.271935"><ele>129.0</ele><time>2016-06-18T05:59:07.297Z</time></trkpt><trkpt lat="57.82024" lon="14.27200167"><ele>129.0</ele><time>2016-06-18T05:59:08.305Z</time></trkpt><trkpt lat="57.82024" lon="14.27200167"><ele>129.0</ele><time>2016-06-18T05:59:09.287Z</time></trkpt><trkpt lat="57.82008" lon="14.27207"><ele>129.0</ele><time>2016-06-18T05:59:10.288Z</time></trkpt><trkpt lat="57.82008" lon="14.27207"><ele>129.0</ele><time>2016-06-18T05:59:11.290Z</time></trkpt><trkpt lat="57.81992667" lon="14.27213167"><ele>130.0</ele><time>2016-06-18T05:59:12.291Z</time></trkpt><trkpt lat="57.81985167" lon="14.27216167"><ele>130.0</ele><time>2016-06-18T05:59:13.286Z</time></trkpt><trkpt lat="57.81985167" lon="14.27216167"><ele>130.0</ele><time>2016-06-18T05:59:14.308Z</time></trkpt><trkpt lat="57.81969833" lon="14.27221667"><ele>130.0</ele><time>2016-06-18T05:59:15.291Z</time></trkpt><trkpt lat="57.81969833" lon="14.27221667"><ele>130.0</ele><time>2016-06-18T05:59:16.301Z</time></trkpt><trkpt lat="57.81954333" lon="14.27225667"><ele>130.0</ele><time>2016-06-18T05:59:17.307Z</time></trkpt><trkpt lat="57.81954333" lon="14.27225667"><ele>130.0</ele><time>2016-06-18T05:59:18.299Z</time></trkpt><trkpt lat="57.819395" lon="14.2723"><ele>131.0</ele><time>2016-06-18T05:59:19.284Z</time></trkpt><trkpt lat="57.81932" lon="14.27232333"><ele>131.0</ele><time>2016-06-18T05:59:20.308Z</time></trkpt><trkpt lat="57.81924333" lon="14.27234833"><ele>131.0</ele><time>2016-06-18T05:59:21.311Z</time></trkpt><trkpt lat="57.81924333" lon="14.27234833"><ele>131.0</ele><time>2016-06-18T05:59:22.296Z</time></trkpt><trkpt lat="57.81908" lon="14.27239333"><ele>131.0</ele><time>2016-06-18T05:59:23.303Z</time></trkpt><trkpt lat="57.81908" lon="14.27239333"><ele>131.0</ele><time>2016-06-18T05:59:24.287Z</time></trkpt><trkpt lat="57.81890833" lon="14.27242"><ele>131.0</ele><time>2016-06-18T05:59:25.298Z</time></trkpt><trkpt lat="57.81890833" lon="14.27242"><ele>131.0</ele><time>2016-06-18T05:59:26.290Z</time></trkpt><trkpt lat="57.81873667" lon="14.27243833"><ele>131.0</ele><time>2016-06-18T05:59:27.296Z</time></trkpt><trkpt lat="57.81873667" lon="14.27243833"><ele>131.0</ele><time>2016-06-18T05:59:28.320Z</time></trkpt><trkpt lat="57.81854833" lon="14.272455"><ele>130.0</ele><time>2016-06-18T05:59:29.288Z</time></trkpt><trkpt lat="57.81854833" lon="14.272455"><ele>130.0</ele><time>2016-06-18T05:59:30.290Z</time></trkpt><trkpt lat="57.81835167" lon="14.27247167"><ele>129.0</ele><time>2016-06-18T05:59:31.296Z</time></trkpt><trkpt lat="57.81825167" lon="14.27247667"><ele>129.0</ele><time>2016-06-18T05:59:32.297Z</time></trkpt><trkpt lat="57.81825167" lon="14.27247667"><ele>129.0</ele><time>2016-06-18T05:59:33.303Z</time></trkpt><trkpt lat="57.81805" lon="14.27249"><ele>128.0</ele><time>2016-06-18T05:59:34.309Z</time></trkpt><trkpt lat="57.81794667" lon="14.27249833"><ele>128.0</ele><time>2016-06-18T05:59:35.295Z</time></trkpt><trkpt lat="57.81784" lon="14.27251167"><ele>127.0</ele><time>2016-06-18T05:59:36.316Z</time></trkpt><trkpt lat="57.81784" lon="14.27251167"><ele>127.0</ele><time>2016-06-18T05:59:37.296Z</time></trkpt><trkpt lat="57.81762667" lon="14.27253667"><ele>127.0</ele><time>2016-06-18T05:59:38.300Z</time></trkpt><trkpt lat="57.81762667" lon="14.27253667"><ele>127.0</ele><time>2016-06-18T05:59:39.283Z</time></trkpt><trkpt lat="57.81741" lon="14.27257"><ele>126.0</ele><time>2016-06-18T05:59:40.290Z</time></trkpt><trkpt lat="57.8173" lon="14.272595"><ele>125.0</ele><time>2016-06-18T05:59:41.318Z</time></trkpt><trkpt lat="57.8173" lon="14.272595"><ele>125.0</ele><time>2016-06-18T05:59:42.318Z</time></trkpt><trkpt lat="57.81707833" lon="14.27265667"><ele>125.0</ele><time>2016-06-18T05:59:43.285Z</time></trkpt><trkpt lat="57.81696667" lon="14.27269"><ele>124.0</ele><time>2016-06-18T05:59:44.328Z</time></trkpt><trkpt lat="57.81696667" lon="14.27269"><ele>124.0</ele><time>2016-06-18T05:59:45.321Z</time></trkpt><trkpt lat="57.81674167" lon="14.27276333"><ele>124.0</ele><time>2016-06-18T05:59:46.288Z</time></trkpt><trkpt lat="57.81674167" lon="14.27276333"><ele>124.0</ele><time>2016-06-18T05:59:47.310Z</time></trkpt><trkpt lat="57.81652167" lon="14.27285333"><ele>123.0</ele><time>2016-06-18T05:59:48.319Z</time></trkpt><trkpt lat="57.81652167" lon="14.27285333"><ele>123.0</ele><time>2016-06-18T05:59:49.300Z</time></trkpt><trkpt lat="57.81630667" lon="14.272945"><ele>122.0</ele><time>2016-06-18T05:59:50.307Z</time></trkpt><trkpt lat="57.81620167" lon="14.27299167"><ele>122.0</ele><time>2016-06-18T05:59:51.313Z</time></trkpt><trkpt lat="57.81620167" lon="14.27299167"><ele>122.0</ele><time>2016-06-18T05:59:52.295Z</time></trkpt><trkpt lat="57.81599667" lon="14.27308333"><ele>121.0</ele><time>2016-06-18T05:59:53.304Z</time></trkpt><trkpt lat="57.81589167" lon="14.27313"><ele>121.0</ele><time>2016-06-18T05:59:54.283Z</time></trkpt><trkpt lat="57.81589167" lon="14.27313"><ele>121.0</ele><time>2016-06-18T05:59:55.289Z</time></trkpt><trkpt lat="57.81568" lon="14.27323"><ele>120.0</ele><time>2016-06-18T05:59:56.296Z</time></trkpt><trkpt lat="57.81568" lon="14.27323"><ele>120.0</ele><time>2016-06-18T05:59:57.319Z</time></trkpt><trkpt lat="57.81546333" lon="14.27333167"><ele>120.0</ele><time>2016-06-18T05:59:58.295Z</time></trkpt><trkpt lat="57.81546333" lon="14.27333167"><ele>120.0</ele><time>2016-06-18T05:59:59.305Z</time></trkpt><trkpt lat="57.81524167" lon="14.27342833"><ele>119.0</ele><time>2016-06-18T06:00:00.312Z</time></trkpt><trkpt lat="57.81524167" lon="14.27342833"><ele>119.0</ele><time>2016-06-18T06:00:01.301Z</time></trkpt><trkpt lat="57.81502" lon="14.273515"><ele>118.0</ele><time>2016-06-18T06:00:02.294Z</time></trkpt><trkpt lat="57.81502" lon="14.273515"><ele>118.0</ele><time>2016-06-18T06:00:03.285Z</time></trkpt><trkpt lat="57.81479" lon="14.27350667"><ele>117.0</ele><time>2016-06-18T06:00:04.293Z</time></trkpt><trkpt lat="57.81479" lon="14.27350667"><ele>117.0</ele><time>2016-06-18T06:00:05.288Z</time></trkpt><trkpt lat="57.81456333" lon="14.27344333"><ele>117.0</ele><time>2016-06-18T06:00:06.323Z</time></trkpt><trkpt lat="57.81445333" lon="14.27341"><ele>117.0</ele><time>2016-06-18T06:00:07.297Z</time></trkpt><trkpt lat="57.81445333" lon="14.27341"><ele>117.0</ele><time>2016-06-18T06:00:08.321Z</time></trkpt><trkpt lat="57.81423833" lon="14.27334167"><ele>117.0</ele><time>2016-06-18T06:00:09.287Z</time></trkpt><trkpt lat="57.814135" lon="14.27331167"><ele>117.0</ele><time>2016-06-18T06:00:10.303Z</time></trkpt><trkpt lat="57.814135" lon="14.27331167"><ele>117.0</ele><time>2016-06-18T06:00:11.315Z</time></trkpt><trkpt lat="57.81393667" lon="14.27326333"><ele>117.0</ele><time>2016-06-18T06:00:12.301Z</time></trkpt><trkpt lat="57.81384" lon="14.27324667"><ele>117.0</ele><time>2016-06-18T06:00:13.285Z</time></trkpt><trkpt lat="57.81374333" lon="14.273245"><ele>117.0</ele><time>2016-06-18T06:00:14.309Z</time></trkpt><trkpt lat="57.81374333" lon="14.273245"><ele>117.0</ele><time>2016-06-18T06:00:15.289Z</time></trkpt><trkpt lat="57.813545" lon="14.27328833"><ele>118.0</ele><time>2016-06-18T06:00:16.326Z</time></trkpt><trkpt lat="57.813545" lon="14.27328833"><ele>118.0</ele><time>2016-06-18T06:00:17.291Z</time></trkpt><trkpt lat="57.81335" lon="14.27336167"><ele>118.0</ele><time>2016-06-18T06:00:18.299Z</time></trkpt><trkpt lat="57.81335" lon="14.27336167"><ele>118.0</ele><time>2016-06-18T06:00:19.320Z</time></trkpt><trkpt lat="57.81314333" lon="14.273435"><ele>119.0</ele><time>2016-06-18T06:00:20.298Z</time></trkpt><trkpt lat="57.81314333" lon="14.273435"><ele>119.0</ele><time>2016-06-18T06:00:21.321Z</time></trkpt><trkpt lat="57.81293833" lon="14.27350667"><ele>119.0</ele><time>2016-06-18T06:00:22.287Z</time></trkpt><trkpt lat="57.812835" lon="14.273545"><ele>119.0</ele><time>2016-06-18T06:00:23.284Z</time></trkpt><trkpt lat="57.812835" lon="14.273545"><ele>119.0</ele><time>2016-06-18T06:00:24.292Z</time></trkpt><trkpt lat="57.81263333" lon="14.27361667"><ele>119.0</ele><time>2016-06-18T06:00:25.299Z</time></trkpt><trkpt lat="57.81253333" lon="14.273655"><ele>119.0</ele><time>2016-06-18T06:00:26.315Z</time></trkpt><trkpt lat="57.81253333" lon="14.273655"><ele>119.0</ele><time>2016-06-18T06:00:27.320Z</time></trkpt><trkpt lat="57.81233333" lon="14.27372833"><ele>120.0</ele><time>2016-06-18T06:00:28.286Z</time></trkpt><trkpt lat="57.81233333" lon="14.27372833"><ele>120.0</ele><time>2016-06-18T06:00:29.309Z</time></trkpt><trkpt lat="57.81213" lon="14.27379833"><ele>120.0</ele><time>2016-06-18T06:00:30.317Z</time></trkpt><trkpt lat="57.81213" lon="14.27379833"><ele>120.0</ele><time>2016-06-18T06:00:31.313Z</time></trkpt><trkpt lat="57.81192833" lon="14.27387333"><ele>121.0</ele><time>2016-06-18T06:00:32.320Z</time></trkpt><trkpt lat="57.81192833" lon="14.27387333"><ele>121.0</ele><time>2016-06-18T06:00:33.309Z</time></trkpt><trkpt lat="57.81172" lon="14.27393833"><ele>121.0</ele><time>2016-06-18T06:00:34.287Z</time></trkpt><trkpt lat="57.81172" lon="14.27393833"><ele>121.0</ele><time>2016-06-18T06:00:35.289Z</time></trkpt><trkpt lat="57.81151333" lon="14.27401167"><ele>121.0</ele><time>2016-06-18T06:00:36.295Z</time></trkpt><trkpt lat="57.81141333" lon="14.27404833"><ele>121.0</ele><time>2016-06-18T06:00:37.286Z</time></trkpt><trkpt lat="57.81141333" lon="14.27404833"><ele>121.0</ele><time>2016-06-18T06:00:38.305Z</time></trkpt><trkpt lat="57.81121333" lon="14.27412"><ele>121.0</ele><time>2016-06-18T06:00:39.285Z</time></trkpt><trkpt lat="57.81121333" lon="14.27412"><ele>121.0</ele><time>2016-06-18T06:00:40.308Z</time></trkpt><trkpt lat="57.81101167" lon="14.274195"><ele>122.0</ele><time>2016-06-18T06:00:41.283Z</time></trkpt><trkpt lat="57.81101167" lon="14.274195"><ele>122.0</ele><time>2016-06-18T06:00:42.317Z</time></trkpt><trkpt lat="57.81080333" lon="14.27427167"><ele>122.0</ele><time>2016-06-18T06:00:43.284Z</time></trkpt><trkpt lat="57.81080333" lon="14.27427167"><ele>122.0</ele><time>2016-06-18T06:00:44.308Z</time></trkpt><trkpt lat="57.81059" lon="14.27435"><ele>121.0</ele><time>2016-06-18T06:00:45.316Z</time></trkpt><trkpt lat="57.81059" lon="14.27435"><ele>121.0</ele><time>2016-06-18T06:00:46.309Z</time></trkpt><trkpt lat="57.81037" lon="14.27443167"><ele>121.0</ele><time>2016-06-18T06:00:47.282Z</time></trkpt><trkpt lat="57.81026167" lon="14.274475"><ele>121.0</ele><time>2016-06-18T06:00:48.322Z</time></trkpt><trkpt lat="57.81026167" lon="14.274475"><ele>121.0</ele><time>2016-06-18T06:00:49.308Z</time></trkpt><trkpt lat="57.81005333" lon="14.27455333"><ele>121.0</ele><time>2016-06-18T06:00:50.288Z</time></trkpt><trkpt lat="57.81005333" lon="14.27455333"><ele>121.0</ele><time>2016-06-18T06:00:51.310Z</time></trkpt><trkpt lat="57.80984667" lon="14.27462333"><ele>120.0</ele><time>2016-06-18T06:00:52.320Z</time></trkpt><trkpt lat="57.80984667" lon="14.27462333"><ele>120.0</ele><time>2016-06-18T06:00:53.311Z</time></trkpt><trkpt lat="57.80964833" lon="14.27467833"><ele>119.0</ele><time>2016-06-18T06:00:54.284Z</time></trkpt><trkpt lat="57.80954667" lon="14.27470333"><ele>119.0</ele><time>2016-06-18T06:00:55.298Z</time></trkpt><trkpt lat="57.80954667" lon="14.27470333"><ele>119.0</ele><time>2016-06-18T06:00:56.320Z</time></trkpt><trkpt lat="57.80934333" lon="14.27474667"><ele>119.0</ele><time>2016-06-18T06:00:57.290Z</time></trkpt><trkpt lat="57.80934333" lon="14.27474667"><ele>119.0</ele><time>2016-06-18T06:00:58.314Z</time></trkpt><trkpt lat="57.80913667" lon="14.27479167"><ele>119.0</ele><time>2016-06-18T06:00:59.318Z</time></trkpt><trkpt lat="57.80913667" lon="14.27479167"><ele>119.0</ele><time>2016-06-18T06:01:00.321Z</time></trkpt><trkpt lat="57.80894167" lon="14.27483"><ele>118.0</ele><time>2016-06-18T06:01:01.287Z</time></trkpt><trkpt lat="57.808845" lon="14.27484833"><ele>118.0</ele><time>2016-06-18T06:01:02.318Z</time></trkpt><trkpt lat="57.808845" lon="14.27484833"><ele>118.0</ele><time>2016-06-18T06:01:03.285Z</time></trkpt><trkpt lat="57.80864667" lon="14.27488333"><ele>118.0</ele><time>2016-06-18T06:01:04.288Z</time></trkpt><trkpt lat="57.80864667" lon="14.27488333"><ele>118.0</ele><time>2016-06-18T06:01:05.309Z</time></trkpt><trkpt lat="57.80844667" lon="14.274905"><ele>117.0</ele><time>2016-06-18T06:01:06.289Z</time></trkpt><trkpt lat="57.80844667" lon="14.274905"><ele>117.0</ele><time>2016-06-18T06:01:07.312Z</time></trkpt><trkpt lat="57.80824167" lon="14.27492167"><ele>117.0</ele><time>2016-06-18T06:01:08.313Z</time></trkpt><trkpt lat="57.80824167" lon="14.27492167"><ele>117.0</ele><time>2016-06-18T06:01:09.308Z</time></trkpt><trkpt lat="57.808035" lon="14.27492333"><ele>116.0</ele><time>2016-06-18T06:01:10.319Z</time></trkpt><trkpt lat="57.808035" lon="14.27492333"><ele>116.0</ele><time>2016-06-18T06:01:11.299Z</time></trkpt><trkpt lat="57.80783167" lon="14.27491667"><ele>115.0</ele><time>2016-06-18T06:01:12.296Z</time></trkpt><trkpt lat="57.80783167" lon="14.27491667"><ele>115.0</ele><time>2016-06-18T06:01:13.321Z</time></trkpt><trkpt lat="57.80763667" lon="14.27491167"><ele>115.0</ele><time>2016-06-18T06:01:14.308Z</time></trkpt><trkpt lat="57.80763667" lon="14.27491167"><ele>115.0</ele><time>2016-06-18T06:01:15.295Z</time></trkpt><trkpt lat="57.80745" lon="14.27490667"><ele>114.0</ele><time>2016-06-18T06:01:16.312Z</time></trkpt><trkpt lat="57.80745" lon="14.27490667"><ele>114.0</ele><time>2016-06-18T06:01:17.294Z</time></trkpt><trkpt lat="57.80726" lon="14.27490667"><ele>114.0</ele><time>2016-06-18T06:01:18.312Z</time></trkpt><trkpt lat="57.80716333" lon="14.27490333"><ele>114.0</ele><time>2016-06-18T06:01:19.315Z</time></trkpt><trkpt lat="57.807065" lon="14.2749"><ele>114.0</ele><time>2016-06-18T06:01:20.288Z</time></trkpt><trkpt lat="57.806965" lon="14.274895"><ele>113.0</ele><time>2016-06-18T06:01:21.312Z</time></trkpt><trkpt lat="57.806965" lon="14.274895"><ele>113.0</ele><time>2016-06-18T06:01:22.321Z</time></trkpt><trkpt lat="57.80676667" lon="14.27488"><ele>113.0</ele><time>2016-06-18T06:01:23.304Z</time></trkpt><trkpt lat="57.80676667" lon="14.27488"><ele>113.0</ele><time>2016-06-18T06:01:24.289Z</time></trkpt><trkpt lat="57.80656833" lon="14.274855"><ele>112.0</ele><time>2016-06-18T06:01:25.295Z</time></trkpt><trkpt lat="57.80646833" lon="14.274845"><ele>112.0</ele><time>2016-06-18T06:01:26.299Z</time></trkpt><trkpt lat="57.80646833" lon="14.274845"><ele>112.0</ele><time>2016-06-18T06:01:27.292Z</time></trkpt><trkpt lat="57.80627667" lon="14.27482"><ele>111.0</ele><time>2016-06-18T06:01:28.299Z</time></trkpt><trkpt lat="57.80618833" lon="14.27480833"><ele>111.0</ele><time>2016-06-18T06:01:29.283Z</time></trkpt><trkpt lat="57.80618833" lon="14.27480833"><ele>111.0</ele><time>2016-06-18T06:01:30.304Z</time></trkpt><trkpt lat="57.80602" lon="14.27477333"><ele>110.0</ele><time>2016-06-18T06:01:31.311Z</time></trkpt><trkpt lat="57.80602" lon="14.27477333"><ele>110.0</ele><time>2016-06-18T06:01:32.292Z</time></trkpt><trkpt lat="57.80584833" lon="14.27474167"><ele>110.0</ele><time>2016-06-18T06:01:33.295Z</time></trkpt><trkpt lat="57.80584833" lon="14.27474167"><ele>110.0</ele><time>2016-06-18T06:01:34.292Z</time></trkpt><trkpt lat="57.80566833" lon="14.27470333"><ele>110.0</ele><time>2016-06-18T06:01:35.298Z</time></trkpt><trkpt lat="57.80566833" lon="14.27470333"><ele>110.0</ele><time>2016-06-18T06:01:36.321Z</time></trkpt><trkpt lat="57.80548167" lon="14.27465833"><ele>110.0</ele><time>2016-06-18T06:01:37.282Z</time></trkpt><trkpt lat="57.80548167" lon="14.27465833"><ele>110.0</ele><time>2016-06-18T06:01:38.296Z</time></trkpt><trkpt lat="57.80529" lon="14.27461167"><ele>110.0</ele><time>2016-06-18T06:01:39.320Z</time></trkpt><trkpt lat="57.80519333" lon="14.27458667"><ele>110.0</ele><time>2016-06-18T06:01:40.302Z</time></trkpt><trkpt lat="57.80519333" lon="14.27458667"><ele>110.0</ele><time>2016-06-18T06:01:41.284Z</time></trkpt><trkpt lat="57.805" lon="14.274535"><ele>110.0</ele><time>2016-06-18T06:01:42.291Z</time></trkpt><trkpt lat="57.805" lon="14.274535"><ele>110.0</ele><time>2016-06-18T06:01:43.316Z</time></trkpt><trkpt lat="57.804805" lon="14.27448"><ele>110.0</ele><time>2016-06-18T06:01:44.300Z</time></trkpt><trkpt lat="57.804805" lon="14.27448"><ele>110.0</ele><time>2016-06-18T06:01:45.285Z</time></trkpt><trkpt lat="57.80461" lon="14.27441833"><ele>110.0</ele><time>2016-06-18T06:01:46.310Z</time></trkpt><trkpt lat="57.80461" lon="14.27441833"><ele>110.0</ele><time>2016-06-18T06:01:47.294Z</time></trkpt><trkpt lat="57.80441" lon="14.27436167"><ele>109.0</ele><time>2016-06-18T06:01:48.300Z</time></trkpt><trkpt lat="57.80441" lon="14.27436167"><ele>109.0</ele><time>2016-06-18T06:01:49.282Z</time></trkpt><trkpt lat="57.80421333" lon="14.27429833"><ele>108.0</ele><time>2016-06-18T06:01:50.296Z</time></trkpt><trkpt lat="57.80421333" lon="14.27429833"><ele>108.0</ele><time>2016-06-18T06:01:51.284Z</time></trkpt><trkpt lat="57.80402833" lon="14.27423"><ele>107.0</ele><time>2016-06-18T06:01:52.318Z</time></trkpt><trkpt lat="57.80402833" lon="14.27423"><ele>107.0</ele><time>2016-06-18T06:01:53.312Z</time></trkpt><trkpt lat="57.803845" lon="14.27415333"><ele>107.0</ele><time>2016-06-18T06:01:54.327Z</time></trkpt><trkpt lat="57.803845" lon="14.27415333"><ele>107.0</ele><time>2016-06-18T06:01:55.321Z</time></trkpt><trkpt lat="57.80366" lon="14.27407333"><ele>106.0</ele><time>2016-06-18T06:01:56.289Z</time></trkpt><trkpt lat="57.80366" lon="14.27407333"><ele>106.0</ele><time>2016-06-18T06:01:57.294Z</time></trkpt><trkpt lat="57.80347167" lon="14.27399333"><ele>106.0</ele><time>2016-06-18T06:01:58.299Z</time></trkpt><trkpt lat="57.80347167" lon="14.27399333"><ele>106.0</ele><time>2016-06-18T06:01:59.320Z</time></trkpt><trkpt lat="57.80327833" lon="14.27390167"><ele>105.0</ele><time>2016-06-18T06:02:00.298Z</time></trkpt><trkpt lat="57.80318167" lon="14.27385333"><ele>105.0</ele><time>2016-06-18T06:02:01.295Z</time></trkpt><trkpt lat="57.80308333" lon="14.273805"><ele>105.0</ele><time>2016-06-18T06:02:02.305Z</time></trkpt><trkpt lat="57.80308333" lon="14.273805"><ele>105.0</ele><time>2016-06-18T06:02:03.287Z</time></trkpt><trkpt lat="57.80288833" lon="14.27370167"><ele>105.0</ele><time>2016-06-18T06:02:04.298Z</time></trkpt><trkpt lat="57.80288833" lon="14.27370167"><ele>105.0</ele><time>2016-06-18T06:02:05.310Z</time></trkpt><trkpt lat="57.802695" lon="14.27359833"><ele>104.0</ele><time>2016-06-18T06:02:06.284Z</time></trkpt><trkpt lat="57.802695" lon="14.27359833"><ele>104.0</ele><time>2016-06-18T06:02:07.307Z</time></trkpt><trkpt lat="57.80250667" lon="14.2735"><ele>104.0</ele><time>2016-06-18T06:02:08.314Z</time></trkpt><trkpt lat="57.80250667" lon="14.2735"><ele>104.0</ele><time>2016-06-18T06:02:09.297Z</time></trkpt><trkpt lat="57.802325" lon="14.2734"><ele>104.0</ele><time>2016-06-18T06:02:10.297Z</time></trkpt><trkpt lat="57.802325" lon="14.2734"><ele>104.0</ele><time>2016-06-18T06:02:11.296Z</time></trkpt><trkpt lat="57.80215167" lon="14.27330167"><ele>103.0</ele><time>2016-06-18T06:02:12.284Z</time></trkpt><trkpt lat="57.802065" lon="14.273255"><ele>103.0</ele><time>2016-06-18T06:02:13.317Z</time></trkpt><trkpt lat="57.802065" lon="14.273255"><ele>103.0</ele><time>2016-06-18T06:02:14.300Z</time></trkpt><trkpt lat="57.801895" lon="14.27316"><ele>103.0</ele><time>2016-06-18T06:02:15.322Z</time></trkpt><trkpt lat="57.80181333" lon="14.27311333"><ele>102.0</ele><time>2016-06-18T06:02:16.283Z</time></trkpt><trkpt lat="57.80181333" lon="14.27311333"><ele>102.0</ele><time>2016-06-18T06:02:17.305Z</time></trkpt><trkpt lat="57.80164833" lon="14.27302"><ele>102.0</ele><time>2016-06-18T06:02:18.324Z</time></trkpt><trkpt lat="57.80164833" lon="14.27302"><ele>102.0</ele><time>2016-06-18T06:02:19.320Z</time></trkpt><trkpt lat="57.80150333" lon="14.27294333"><ele>102.0</ele><time>2016-06-18T06:02:20.290Z</time></trkpt><trkpt lat="57.80150333" lon="14.27294333"><ele>102.0</ele><time>2016-06-18T06:02:21.312Z</time></trkpt><trkpt lat="57.80138" lon="14.272875"><ele>101.0</ele><time>2016-06-18T06:02:22.285Z</time></trkpt><trkpt lat="57.80138" lon="14.272875"><ele>101.0</ele><time>2016-06-18T06:02:23.316Z</time></trkpt><trkpt lat="57.80125833" lon="14.27281167"><ele>101.0</ele><time>2016-06-18T06:02:24.284Z</time></trkpt><trkpt lat="57.80125833" lon="14.27281167"><ele>101.0</ele><time>2016-06-18T06:02:25.306Z</time></trkpt><trkpt lat="57.80113833" lon="14.27274833"><ele>101.0</ele><time>2016-06-18T06:02:26.317Z</time></trkpt><trkpt lat="57.80113833" lon="14.27274833"><ele>101.0</ele><time>2016-06-18T06:02:27.310Z</time></trkpt><trkpt lat="57.80102" lon="14.27268167"><ele>101.0</ele><time>2016-06-18T06:02:28.318Z</time></trkpt><trkpt lat="57.80102" lon="14.27268167"><ele>101.0</ele><time>2016-06-18T06:02:29.297Z</time></trkpt><trkpt lat="57.80090167" lon="14.27261667"><ele>100.0</ele><time>2016-06-18T06:02:30.308Z</time></trkpt><trkpt lat="57.80090167" lon="14.27261667"><ele>100.0</ele><time>2016-06-18T06:02:31.290Z</time></trkpt><trkpt lat="57.80078167" lon="14.27255167"><ele>100.0</ele><time>2016-06-18T06:02:32.296Z</time></trkpt><trkpt lat="57.80078167" lon="14.27255167"><ele>100.0</ele><time>2016-06-18T06:02:33.317Z</time></trkpt><trkpt lat="57.80067333" lon="14.27249833"><ele>100.0</ele><time>2016-06-18T06:02:34.294Z</time></trkpt><trkpt lat="57.80067333" lon="14.27249833"><ele>100.0</ele><time>2016-06-18T06:02:35.317Z</time></trkpt><trkpt lat="57.80057667" lon="14.27244667"><ele>100.0</ele><time>2016-06-18T06:02:36.285Z</time></trkpt><trkpt lat="57.80057667" lon="14.27244667"><ele>100.0</ele><time>2016-06-18T06:02:37.306Z</time></trkpt><trkpt lat="57.800525" lon="14.27239167"><ele>101.0</ele><time>2016-06-18T06:02:38.308Z</time></trkpt><trkpt lat="57.800525" lon="14.27239167"><ele>101.0</ele><time>2016-06-18T06:02:39.311Z</time></trkpt><trkpt lat="57.80052" lon="14.27233667"><ele>101.0</ele><time>2016-06-18T06:02:40.318Z</time></trkpt><trkpt lat="57.80052" lon="14.27233667"><ele>101.0</ele><time>2016-06-18T06:02:41.299Z</time></trkpt><trkpt lat="57.80054167" lon="14.27228"><ele>101.0</ele><time>2016-06-18T06:02:42.326Z</time></trkpt><trkpt lat="57.80054167" lon="14.27228"><ele>101.0</ele><time>2016-06-18T06:02:43.296Z</time></trkpt><trkpt lat="57.80059333" lon="14.27225333"><ele>102.0</ele><time>2016-06-18T06:02:44.303Z</time></trkpt><trkpt lat="57.80061833" lon="14.27224833"><ele>103.0</ele><time>2016-06-18T06:02:45.298Z</time></trkpt><trkpt lat="57.80061833" lon="14.27224833"><ele>103.0</ele><time>2016-06-18T06:02:46.320Z</time></trkpt><trkpt lat="57.80066333" lon="14.272265"><ele>103.0</ele><time>2016-06-18T06:02:47.286Z</time></trkpt><trkpt lat="57.80067667" lon="14.27225"><ele>104.0</ele><time>2016-06-18T06:02:48.321Z</time></trkpt><trkpt lat="57.80067667" lon="14.27225"><ele>104.0</ele><time>2016-06-18T06:02:49.290Z</time></trkpt><trkpt lat="57.80068333" lon="14.27223833"><ele>106.0</ele><time>2016-06-18T06:02:50.296Z</time></trkpt><trkpt lat="57.80068333" lon="14.27223833"><ele>106.0</ele><time>2016-06-18T06:02:51.321Z</time></trkpt><trkpt lat="57.80068" lon="14.27224333"><ele>105.0</ele><time>2016-06-18T06:02:52.306Z</time></trkpt><trkpt lat="57.80068" lon="14.27224333"><ele>105.0</ele><time>2016-06-18T06:02:53.299Z</time></trkpt><trkpt lat="57.80068" lon="14.27224833"><ele>105.0</ele><time>2016-06-18T06:02:54.317Z</time></trkpt><trkpt lat="57.80068" lon="14.27224833"><ele>105.0</ele><time>2016-06-18T06:02:55.302Z</time></trkpt><trkpt lat="57.80068" lon="14.27224833"><ele>105.0</ele><time>2016-06-18T06:02:56.309Z</time></trkpt><trkpt lat="57.80068" lon="14.27224833"><ele>105.0</ele><time>2016-06-18T06:02:57.286Z</time></trkpt><trkpt lat="57.80068" lon="14.27224833"><ele>105.0</ele><time>2016-06-18T06:02:58.292Z</time></trkpt><trkpt lat="57.80068" lon="14.27224833"><ele>105.0</ele><time>2016-06-18T06:02:59.291Z</time></trkpt><trkpt lat="57.80068" lon="14.27224833"><ele>105.0</ele><time>2016-06-18T06:03:00.291Z</time></trkpt><trkpt lat="57.80068" lon="14.27224833"><ele>105.0</ele><time>2016-06-18T06:03:01.293Z</time></trkpt><trkpt lat="57.80068" lon="14.27224833"><ele>105.0</ele><time>2016-06-18T06:03:02.291Z</time></trkpt><trkpt lat="57.80068" lon="14.27224833"><ele>105.0</ele><time>2016-06-18T06:03:03.288Z</time></trkpt><trkpt lat="57.80068" lon="14.27224833"><ele>105.0</ele><time>2016-06-18T06:03:04.284Z</time></trkpt><trkpt lat="57.80068" lon="14.27224833"><ele>105.0</ele><time>2016-06-18T06:03:05.291Z</time></trkpt><trkpt lat="57.80068" lon="14.27224833"><ele>105.0</ele><time>2016-06-18T06:03:06.292Z</time></trkpt><trkpt lat="57.80068" lon="14.27224833"><ele>105.0</ele><time>2016-06-18T06:03:07.292Z</time></trkpt><trkpt lat="57.80068" lon="14.27224833"><ele>105.0</ele><time>2016-06-18T06:03:08.293Z</time></trkpt><trkpt lat="57.80068" lon="14.27224833"><ele>105.0</ele><time>2016-06-18T06:03:09.294Z</time></trkpt><trkpt lat="57.80068" lon="14.27224833"><ele>105.0</ele><time>2016-06-18T06:03:10.290Z</time></trkpt><trkpt lat="57.80068" lon="14.27224833"><ele>105.0</ele><time>2016-06-18T06:03:11.282Z</time></trkpt><trkpt lat="57.80068" lon="14.27224833"><ele>105.0</ele><time>2016-06-18T06:03:12.293Z</time></trkpt><trkpt lat="57.80068" lon="14.27224833"><ele>105.0</ele><time>2016-06-18T06:03:13.300Z</time></trkpt><trkpt lat="57.80068" lon="14.27224833"><ele>105.0</ele><time>2016-06-18T06:03:14.307Z</time></trkpt><trkpt lat="57.80068" lon="14.27224833"><ele>105.0</ele><time>2016-06-18T06:03:15.295Z</time></trkpt><trkpt lat="57.80068" lon="14.27224833"><ele>105.0</ele><time>2016-06-18T06:03:16.292Z</time></trkpt><trkpt lat="57.80068" lon="14.27224833"><ele>105.0</ele><time>2016-06-18T06:03:17.289Z</time></trkpt><trkpt lat="57.80068" lon="14.27224833"><ele>105.0</ele><time>2016-06-18T06:03:18.294Z</time></trkpt><trkpt lat="57.80068" lon="14.27224833"><ele>105.0</ele><time>2016-06-18T06:03:19.285Z</time></trkpt><trkpt lat="57.80068" lon="14.27224833"><ele>105.0</ele><time>2016-06-18T06:03:20.294Z</time></trkpt><trkpt lat="57.80068" lon="14.27224833"><ele>105.0</ele><time>2016-06-18T06:03:21.288Z</time></trkpt><trkpt lat="57.80068" lon="14.27224833"><ele>105.0</ele><time>2016-06-18T06:03:22.292Z</time></trkpt><trkpt lat="57.80068" lon="14.27224833"><ele>105.0</ele><time>2016-06-18T06:03:23.288Z</time></trkpt><trkpt lat="57.80068" lon="14.27224833"><ele>105.0</ele><time>2016-06-18T06:03:24.293Z</time></trkpt><trkpt lat="57.80068" lon="14.27224833"><ele>105.0</ele><time>2016-06-18T06:03:25.288Z</time></trkpt><trkpt lat="57.80068" lon="14.27224833"><ele>105.0</ele><time>2016-06-18T06:03:26.295Z</time></trkpt><trkpt lat="57.80068" lon="14.27224833"><ele>105.0</ele><time>2016-06-18T06:03:27.300Z</time></trkpt><trkpt lat="57.80068" lon="14.27224833"><ele>105.0</ele><time>2016-06-18T06:03:28.294Z</time></trkpt><trkpt lat="57.80068" lon="14.27224833"><ele>105.0</ele><time>2016-06-18T06:03:29.285Z</time></trkpt><trkpt lat="57.80068" lon="14.27224833"><ele>105.0</ele><time>2016-06-18T06:03:30.293Z</time></trkpt><trkpt lat="57.80068" lon="14.27224833"><ele>105.0</ele><time>2016-06-18T06:03:31.290Z</time></trkpt><trkpt lat="57.80068" lon="14.27224833"><ele>105.0</ele><time>2016-06-18T06:03:32.294Z</time></trkpt><trkpt lat="57.80068" lon="14.27224833"><ele>105.0</ele><time>2016-06-18T06:03:33.288Z</time></trkpt><trkpt lat="57.80068" lon="14.27224833"><ele>105.0</ele><time>2016-06-18T06:03:34.293Z</time></trkpt><trkpt lat="57.80068" lon="14.27224833"><ele>105.0</ele><time>2016-06-18T06:03:35.293Z</time></trkpt><trkpt lat="57.80068" lon="14.27224833"><ele>105.0</ele><time>2016-06-18T06:03:36.288Z</time></trkpt><trkpt lat="57.80068" lon="14.27224833"><ele>105.0</ele><time>2016-06-18T06:03:37.298Z</time></trkpt><trkpt lat="57.80068" lon="14.27224833"><ele>105.0</ele><time>2016-06-18T06:03:38.307Z</time></trkpt><trkpt lat="57.80068" lon="14.27224833"><ele>105.0</ele><time>2016-06-18T06:03:39.291Z</time></trkpt><trkpt lat="57.80068" lon="14.27224833"><ele>105.0</ele><time>2016-06-18T06:03:40.293Z</time></trkpt><trkpt lat="57.80068" lon="14.27224833"><ele>105.0</ele><time>2016-06-18T06:03:41.288Z</time></trkpt><trkpt lat="57.80068" lon="14.27224833"><ele>105.0</ele><time>2016-06-18T06:03:42.295Z</time></trkpt><trkpt lat="57.80068" lon="14.27224833"><ele>105.0</ele><time>2016-06-18T06:03:43.288Z</time></trkpt><trkpt lat="57.80068" lon="14.27224833"><ele>105.0</ele><time>2016-06-18T06:03:44.295Z</time></trkpt><trkpt lat="57.80068" lon="14.27224833"><ele>105.0</ele><time>2016-06-18T06:03:45.287Z</time></trkpt><trkpt lat="57.80068" lon="14.27224833"><ele>105.0</ele><time>2016-06-18T06:03:46.292Z</time></trkpt><trkpt lat="57.80068" lon="14.27224833"><ele>105.0</ele><time>2016-06-18T06:03:47.288Z</time></trkpt><trkpt lat="57.80068" lon="14.27224833"><ele>105.0</ele><time>2016-06-18T06:03:48.293Z</time></trkpt><trkpt lat="57.80068" lon="14.27224833"><ele>105.0</ele><time>2016-06-18T06:03:49.288Z</time></trkpt><trkpt lat="57.80068" lon="14.27224833"><ele>105.0</ele><time>2016-06-18T06:03:50.294Z</time></trkpt><trkpt lat="57.80068" lon="14.27224833"><ele>105.0</ele><time>2016-06-18T06:03:51.291Z</time></trkpt><trkpt lat="57.80068" lon="14.27224833"><ele>105.0</ele><time>2016-06-18T06:03:52.293Z</time></trkpt><trkpt lat="57.80068" lon="14.27224833"><ele>105.0</ele><time>2016-06-18T06:03:53.299Z</time></trkpt><trkpt lat="57.80068" lon="14.27224833"><ele>105.0</ele><time>2016-06-18T06:03:54.293Z</time></trkpt><trkpt lat="57.80068" lon="14.27224833"><ele>105.0</ele><time>2016-06-18T06:03:55.291Z</time></trkpt><trkpt lat="57.80068" lon="14.27224833"><ele>105.0</ele><time>2016-06-18T06:03:56.298Z</time></trkpt><trkpt lat="57.80068" lon="14.27224833"><ele>105.0</ele><time>2016-06-18T06:03:57.291Z</time></trkpt><trkpt lat="57.80068" lon="14.27224833"><ele>105.0</ele><time>2016-06-18T06:03:58.294Z</time></trkpt><trkpt lat="57.80068" lon="14.27224833"><ele>105.0</ele><time>2016-06-18T06:03:59.288Z</time></trkpt><trkpt lat="57.80068" lon="14.27224833"><ele>105.0</ele><time>2016-06-18T06:04:00.287Z</time></trkpt><trkpt lat="57.80068" lon="14.27224833"><ele>105.0</ele><time>2016-06-18T06:04:01.298Z</time></trkpt><trkpt lat="57.80068" lon="14.27224833"><ele>105.0</ele><time>2016-06-18T06:04:02.295Z</time></trkpt><trkpt lat="57.80068" lon="14.27224833"><ele>105.0</ele><time>2016-06-18T06:04:03.300Z</time></trkpt><trkpt lat="57.80068" lon="14.27224833"><ele>105.0</ele><time>2016-06-18T06:04:04.294Z</time></trkpt><trkpt lat="57.80068" lon="14.27224833"><ele>105.0</ele><time>2016-06-18T06:04:05.308Z</time></trkpt><trkpt lat="57.80068" lon="14.27224833"><ele>105.0</ele><time>2016-06-18T06:04:06.291Z</time></trkpt><trkpt lat="57.80068" lon="14.27224833"><ele>105.0</ele><time>2016-06-18T06:04:07.294Z</time></trkpt><trkpt lat="57.80068" lon="14.27224833"><ele>105.0</ele><time>2016-06-18T06:04:08.296Z</time></trkpt><trkpt lat="57.80068" lon="14.27224833"><ele>105.0</ele><time>2016-06-18T06:04:09.293Z</time></trkpt><trkpt lat="57.80068" lon="14.27224833"><ele>105.0</ele><time>2016-06-18T06:04:10.294Z</time></trkpt><trkpt lat="57.80068" lon="14.27224833"><ele>105.0</ele><time>2016-06-18T06:04:11.309Z</time></trkpt><trkpt lat="57.80068" lon="14.27224833"><ele>105.0</ele><time>2016-06-18T06:04:12.296Z</time></trkpt><trkpt lat="57.80068" lon="14.27224833"><ele>105.0</ele><time>2016-06-18T06:04:13.303Z</time></trkpt><trkpt lat="57.80068" lon="14.27224833"><ele>105.0</ele><time>2016-06-18T06:04:14.310Z</time></trkpt><trkpt lat="57.80068" lon="14.27224833"><ele>105.0</ele><time>2016-06-18T06:04:15.288Z</time></trkpt><trkpt lat="57.80068" lon="14.27224833"><ele>105.0</ele><time>2016-06-18T06:04:16.295Z</time></trkpt><trkpt lat="57.80068" lon="14.27224833"><ele>105.0</ele><time>2016-06-18T06:04:17.291Z</time></trkpt><trkpt lat="57.80068" lon="14.27224833"><ele>105.0</ele><time>2016-06-18T06:04:18.293Z</time></trkpt><trkpt lat="57.80068" lon="14.27224833"><ele>105.0</ele><time>2016-06-18T06:04:19.288Z</time></trkpt><trkpt lat="57.80068" lon="14.27224833"><ele>105.0</ele><time>2016-06-18T06:04:20.296Z</time></trkpt><trkpt lat="57.80068" lon="14.27224833"><ele>105.0</ele><time>2016-06-18T06:04:21.314Z</time></trkpt><trkpt lat="57.80068" lon="14.27224833"><ele>105.0</ele><time>2016-06-18T06:04:22.304Z</time></trkpt><trkpt lat="57.80068" lon="14.27224833"><ele>105.0</ele><time>2016-06-18T06:04:23.304Z</time></trkpt><trkpt lat="57.80068" lon="14.27224833"><ele>105.0</ele><time>2016-06-18T06:04:24.289Z</time></trkpt><trkpt lat="57.80068" lon="14.27224833"><ele>105.0</ele><time>2016-06-18T06:04:25.293Z</time></trkpt><trkpt lat="57.80068" lon="14.27224833"><ele>105.0</ele><time>2016-06-18T06:04:26.295Z</time></trkpt><trkpt lat="57.80068" lon="14.27224833"><ele>105.0</ele><time>2016-06-18T06:04:27.292Z</time></trkpt><trkpt lat="57.80068" lon="14.27224833"><ele>105.0</ele><time>2016-06-18T06:04:28.293Z</time></trkpt><trkpt lat="57.80068" lon="14.27224833"><ele>105.0</ele><time>2016-06-18T06:04:29.306Z</time></trkpt><trkpt lat="57.80068" lon="14.27224833"><ele>105.0</ele><time>2016-06-18T06:04:30.292Z</time></trkpt><trkpt lat="57.80068" lon="14.27224833"><ele>105.0</ele><time>2016-06-18T06:04:31.293Z</time></trkpt><trkpt lat="57.80068" lon="14.27224833"><ele>105.0</ele><time>2016-06-18T06:04:32.295Z</time></trkpt><trkpt lat="57.80068" lon="14.27224833"><ele>105.0</ele><time>2016-06-18T06:04:33.300Z</time></trkpt><trkpt lat="57.80068" lon="14.27224833"><ele>105.0</ele><time>2016-06-18T06:04:34.292Z</time></trkpt><trkpt lat="57.80068" lon="14.27224833"><ele>105.0</ele><time>2016-06-18T06:04:35.294Z</time></trkpt><trkpt lat="57.80068" lon="14.27224833"><ele>105.0</ele><time>2016-06-18T06:04:36.291Z</time></trkpt><trkpt lat="57.80068" lon="14.27224833"><ele>105.0</ele><time>2016-06-18T06:04:37.294Z</time></trkpt><trkpt lat="57.80068" lon="14.27224833"><ele>105.0</ele><time>2016-06-18T06:04:38.295Z</time></trkpt><trkpt lat="57.80068" lon="14.27224833"><ele>105.0</ele><time>2016-06-18T06:04:39.292Z</time></trkpt><trkpt lat="57.80068" lon="14.27224833"><ele>105.0</ele><time>2016-06-18T06:04:40.291Z</time></trkpt><trkpt lat="57.80068" lon="14.27224833"><ele>105.0</ele><time>2016-06-18T06:04:41.289Z</time></trkpt><trkpt lat="57.80068" lon="14.27224833"><ele>105.0</ele><time>2016-06-18T06:04:42.295Z</time></trkpt><trkpt lat="57.80068" lon="14.27224833"><ele>105.0</ele><time>2016-06-18T06:04:43.289Z</time></trkpt><trkpt lat="57.80068" lon="14.27224833"><ele>105.0</ele><time>2016-06-18T06:04:44.316Z</time></trkpt><trkpt lat="57.80068" lon="14.27224833"><ele>105.0</ele><time>2016-06-18T06:04:45.304Z</time></trkpt><trkpt lat="57.80068" lon="14.27224833"><ele>105.0</ele><time>2016-06-18T06:04:46.295Z</time></trkpt><trkpt lat="57.80068" lon="14.27224833"><ele>105.0</ele><time>2016-06-18T06:04:47.294Z</time></trkpt><trkpt lat="57.80068" lon="14.27224833"><ele>105.0</ele><time>2016-06-18T06:04:48.292Z</time></trkpt><trkpt lat="57.80068" lon="14.27224833"><ele>105.0</ele><time>2016-06-18T06:04:49.293Z</time></trkpt><trkpt lat="57.80068" lon="14.27224833"><ele>105.0</ele><time>2016-06-18T06:04:50.295Z</time></trkpt><trkpt lat="57.80068" lon="14.27224833"><ele>105.0</ele><time>2016-06-18T06:04:51.289Z</time></trkpt><trkpt lat="57.80068" lon="14.27224833"><ele>105.0</ele><time>2016-06-18T06:04:52.294Z</time></trkpt><trkpt lat="57.80068" lon="14.27224833"><ele>105.0</ele><time>2016-06-18T06:04:53.293Z</time></trkpt><trkpt lat="57.80068" lon="14.27224833"><ele>105.0</ele><time>2016-06-18T06:04:54.291Z</time></trkpt><trkpt lat="57.80068" lon="14.27224833"><ele>105.0</ele><time>2016-06-18T06:04:55.294Z</time></trkpt><trkpt lat="57.80068" lon="14.27224833"><ele>105.0</ele><time>2016-06-18T06:04:56.294Z</time></trkpt><trkpt lat="57.80068" lon="14.27224833"><ele>105.0</ele><time>2016-06-18T06:04:57.308Z</time></trkpt><trkpt lat="57.80068" lon="14.27224833"><ele>105.0</ele><time>2016-06-18T06:04:58.295Z</time></trkpt><trkpt lat="57.80068" lon="14.27224833"><ele>105.0</ele><time>2016-06-18T06:04:59.291Z</time></trkpt><trkpt lat="57.80068" lon="14.27224833"><ele>105.0</ele><time>2016-06-18T06:05:00.299Z</time></trkpt><trkpt lat="57.80068" lon="14.27224833"><ele>105.0</ele><time>2016-06-18T06:05:01.290Z</time></trkpt><trkpt lat="57.80068" lon="14.27224833"><ele>105.0</ele><time>2016-06-18T06:05:02.307Z</time></trkpt><trkpt lat="57.80068" lon="14.27224833"><ele>105.0</ele><time>2016-06-18T06:05:03.319Z</time></trkpt><trkpt lat="57.80068" lon="14.27224833"><ele>105.0</ele><time>2016-06-18T06:05:04.310Z</time></trkpt><trkpt lat="57.80068" lon="14.27224833"><ele>105.0</ele><time>2016-06-18T06:05:05.297Z</time></trkpt><trkpt lat="57.80068" lon="14.27224833"><ele>105.0</ele><time>2016-06-18T06:05:06.296Z</time></trkpt><trkpt lat="57.80068" lon="14.27224833"><ele>105.0</ele><time>2016-06-18T06:05:07.291Z</time></trkpt><trkpt lat="57.80068" lon="14.27224833"><ele>105.0</ele><time>2016-06-18T06:05:08.296Z</time></trkpt><trkpt lat="57.80068" lon="14.27224833"><ele>105.0</ele><time>2016-06-18T06:05:09.296Z</time></trkpt><trkpt lat="57.80068" lon="14.27224833"><ele>105.0</ele><time>2016-06-18T06:05:10.295Z</time></trkpt><trkpt lat="57.80068" lon="14.27224833"><ele>105.0</ele><time>2016-06-18T06:05:11.304Z</time></trkpt><trkpt lat="57.80068" lon="14.27224833"><ele>105.0</ele><time>2016-06-18T06:05:12.288Z</time></trkpt><trkpt lat="57.80068" lon="14.27224833"><ele>105.0</ele><time>2016-06-18T06:05:13.295Z</time></trkpt><trkpt lat="57.80068" lon="14.27224833"><ele>105.0</ele><time>2016-06-18T06:05:14.305Z</time></trkpt><trkpt lat="57.80068" lon="14.27224833"><ele>105.0</ele><time>2016-06-18T06:05:15.292Z</time></trkpt><trkpt lat="57.80068" lon="14.27224833"><ele>105.0</ele><time>2016-06-18T06:05:16.305Z</time></trkpt><trkpt lat="57.80068" lon="14.27224833"><ele>105.0</ele><time>2016-06-18T06:05:17.295Z</time></trkpt><trkpt lat="57.80068" lon="14.27224833"><ele>105.0</ele><time>2016-06-18T06:05:18.295Z</time></trkpt><trkpt lat="57.80068" lon="14.27224833"><ele>105.0</ele><time>2016-06-18T06:05:19.314Z</time></trkpt><trkpt lat="57.80068" lon="14.27224833"><ele>105.0</ele><time>2016-06-18T06:05:20.305Z</time></trkpt><trkpt lat="57.80068" lon="14.27224833"><ele>105.0</ele><time>2016-06-18T06:05:21.292Z</time></trkpt><trkpt lat="57.80068" lon="14.27224833"><ele>105.0</ele><time>2016-06-18T06:05:22.294Z</time></trkpt><trkpt lat="57.80068" lon="14.27224833"><ele>105.0</ele><time>2016-06-18T06:05:23.303Z</time></trkpt><trkpt lat="57.80068" lon="14.27224833"><ele>105.0</ele><time>2016-06-18T06:05:24.293Z</time></trkpt><trkpt lat="57.80068" lon="14.27224833"><ele>105.0</ele><time>2016-06-18T06:05:25.295Z</time></trkpt><trkpt lat="57.80068" lon="14.27224833"><ele>105.0</ele><time>2016-06-18T06:05:26.293Z</time></trkpt><trkpt lat="57.80068" lon="14.27224833"><ele>105.0</ele><time>2016-06-18T06:05:27.296Z</time></trkpt><trkpt lat="57.80068" lon="14.27224833"><ele>105.0</ele><time>2016-06-18T06:05:28.295Z</time></trkpt><trkpt lat="57.80068" lon="14.27224833"><ele>105.0</ele><time>2016-06-18T06:05:29.296Z</time></trkpt><trkpt lat="57.80068" lon="14.27224833"><ele>105.0</ele><time>2016-06-18T06:05:30.294Z</time></trkpt><trkpt lat="57.80068" lon="14.27224833"><ele>105.0</ele><time>2016-06-18T06:05:31.295Z</time></trkpt><trkpt lat="57.80068" lon="14.27224833"><ele>105.0</ele><time>2016-06-18T06:05:32.293Z</time></trkpt><trkpt lat="57.80068" lon="14.27224833"><ele>105.0</ele><time>2016-06-18T06:05:33.292Z</time></trkpt><trkpt lat="57.80068" lon="14.27224833"><ele>105.0</ele><time>2016-06-18T06:05:34.297Z</time></trkpt><trkpt lat="57.80068" lon="14.27224833"><ele>105.0</ele><time>2016-06-18T06:05:35.292Z</time></trkpt><trkpt lat="57.80068" lon="14.27224833"><ele>105.0</ele><time>2016-06-18T06:05:36.295Z</time></trkpt><trkpt lat="57.80068" lon="14.27224833"><ele>105.0</ele><time>2016-06-18T06:05:37.289Z</time></trkpt><trkpt lat="57.80068" lon="14.27224833"><ele>105.0</ele><time>2016-06-18T06:05:38.316Z</time></trkpt><trkpt lat="57.80068" lon="14.27224833"><ele>105.0</ele><time>2016-06-18T06:05:39.314Z</time></trkpt><trkpt lat="57.80068" lon="14.27224833"><ele>105.0</ele><time>2016-06-18T06:05:40.300Z</time></trkpt><trkpt lat="57.80068" lon="14.27224833"><ele>105.0</ele><time>2016-06-18T06:05:41.292Z</time></trkpt><trkpt lat="57.80068333" lon="14.27223833"><ele>103.0</ele><time>2016-06-18T06:05:42.295Z</time></trkpt><trkpt lat="57.80068333" lon="14.27223833"><ele>103.0</ele><time>2016-06-18T06:05:43.299Z</time></trkpt><trkpt lat="57.80066833" lon="14.272235"><ele>103.0</ele><time>2016-06-18T06:05:44.298Z</time></trkpt><trkpt lat="57.80066833" lon="14.272235"><ele>103.0</ele><time>2016-06-18T06:05:45.293Z</time></trkpt><trkpt lat="57.80065333" lon="14.27221833"><ele>103.0</ele><time>2016-06-18T06:05:46.323Z</time></trkpt><trkpt lat="57.80065333" lon="14.27221833"><ele>103.0</ele><time>2016-06-18T06:05:47.319Z</time></trkpt><trkpt lat="57.80064" lon="14.27220833"><ele>103.0</ele><time>2016-06-18T06:05:48.286Z</time></trkpt><trkpt lat="57.800635" lon="14.27220333"><ele>103.0</ele><time>2016-06-18T06:05:49.284Z</time></trkpt><trkpt lat="57.80063167" lon="14.27220167"><ele>103.0</ele><time>2016-06-18T06:05:50.293Z</time></trkpt><trkpt lat="57.80063167" lon="14.27220167"><ele>103.0</ele><time>2016-06-18T06:05:51.291Z</time></trkpt><trkpt lat="57.800625" lon="14.27219833"><ele>104.0</ele><time>2016-06-18T06:05:52.295Z</time></trkpt><trkpt lat="57.80062" lon="14.27219833"><ele>104.0</ele><time>2016-06-18T06:05:53.301Z</time></trkpt><trkpt lat="57.80062" lon="14.27219833"><ele>104.0</ele><time>2016-06-18T06:05:54.311Z</time></trkpt><trkpt lat="57.80061" lon="14.272195"><ele>104.0</ele><time>2016-06-18T06:05:55.284Z</time></trkpt><trkpt lat="57.800605" lon="14.27219833"><ele>104.0</ele><time>2016-06-18T06:05:56.312Z</time></trkpt><trkpt lat="57.800605" lon="14.2722"><ele>104.0</ele><time>2016-06-18T06:05:57.309Z</time></trkpt><trkpt lat="57.80060833" lon="14.27219833"><ele>104.0</ele><time>2016-06-18T06:05:58.297Z</time></trkpt><trkpt lat="57.80060833" lon="14.27219833"><ele>104.0</ele><time>2016-06-18T06:05:59.294Z</time></trkpt><trkpt lat="57.80060667" lon="14.27219667"><ele>104.0</ele><time>2016-06-18T06:06:00.296Z</time></trkpt><trkpt lat="57.80060667" lon="14.27219667"><ele>104.0</ele><time>2016-06-18T06:06:01.297Z</time></trkpt><trkpt lat="57.80060667" lon="14.27219667"><ele>104.0</ele><time>2016-06-18T06:06:02.295Z</time></trkpt><trkpt lat="57.80060667" lon="14.27219667"><ele>104.0</ele><time>2016-06-18T06:06:03.307Z</time></trkpt><trkpt lat="57.80060667" lon="14.27219667"><ele>104.0</ele><time>2016-06-18T06:06:04.294Z</time></trkpt><trkpt lat="57.80060667" lon="14.27219667"><ele>104.0</ele><time>2016-06-18T06:06:05.293Z</time></trkpt><trkpt lat="57.80060667" lon="14.27219667"><ele>104.0</ele><time>2016-06-18T06:06:06.291Z</time></trkpt><trkpt lat="57.80060667" lon="14.27219667"><ele>104.0</ele><time>2016-06-18T06:06:07.296Z</time></trkpt><trkpt lat="57.80060667" lon="14.27219667"><ele>104.0</ele><time>2016-06-18T06:06:08.295Z</time></trkpt><trkpt lat="57.80060667" lon="14.27219667"><ele>104.0</ele><time>2016-06-18T06:06:09.293Z</time></trkpt><trkpt lat="57.80060667" lon="14.27219667"><ele>104.0</ele><time>2016-06-18T06:06:10.295Z</time></trkpt><trkpt lat="57.80060667" lon="14.27219667"><ele>104.0</ele><time>2016-06-18T06:06:11.290Z</time></trkpt><trkpt lat="57.80060667" lon="14.27219667"><ele>104.0</ele><time>2016-06-18T06:06:12.285Z</time></trkpt><trkpt lat="57.80060667" lon="14.27219667"><ele>104.0</ele><time>2016-06-18T06:06:13.295Z</time></trkpt><trkpt lat="57.80060667" lon="14.27219667"><ele>104.0</ele><time>2016-06-18T06:06:14.319Z</time></trkpt><trkpt lat="57.80060667" lon="14.27219667"><ele>104.0</ele><time>2016-06-18T06:06:15.286Z</time></trkpt><trkpt lat="57.80060667" lon="14.27219667"><ele>104.0</ele><time>2016-06-18T06:06:16.293Z</time></trkpt><trkpt lat="57.80059" lon="14.272205"><ele>105.0</ele><time>2016-06-18T06:06:17.318Z</time></trkpt><trkpt lat="57.80059" lon="14.272205"><ele>105.0</ele><time>2016-06-18T06:06:18.296Z</time></trkpt><trkpt lat="57.800585" lon="14.27221667"><ele>105.0</ele><time>2016-06-18T06:06:19.302Z</time></trkpt><trkpt lat="57.80058333" lon="14.27222167"><ele>105.0</ele><time>2016-06-18T06:06:20.315Z</time></trkpt><trkpt lat="57.80058333" lon="14.27222167"><ele>105.0</ele><time>2016-06-18T06:06:21.305Z</time></trkpt><trkpt lat="57.80057" lon="14.27223333"><ele>105.0</ele><time>2016-06-18T06:06:22.296Z</time></trkpt><trkpt lat="57.80057" lon="14.27223333"><ele>105.0</ele><time>2016-06-18T06:06:23.315Z</time></trkpt><trkpt lat="57.80055667" lon="14.272245"><ele>105.0</ele><time>2016-06-18T06:06:24.301Z</time></trkpt><trkpt lat="57.80055667" lon="14.272245"><ele>105.0</ele><time>2016-06-18T06:06:25.311Z</time></trkpt><trkpt lat="57.80054667" lon="14.27225333"><ele>105.0</ele><time>2016-06-18T06:06:26.318Z</time></trkpt><trkpt lat="57.80054667" lon="14.27225333"><ele>105.0</ele><time>2016-06-18T06:06:27.284Z</time></trkpt><trkpt lat="57.80054" lon="14.27226"><ele>105.0</ele><time>2016-06-18T06:06:28.292Z</time></trkpt><trkpt lat="57.80054" lon="14.27226167"><ele>105.0</ele><time>2016-06-18T06:06:29.296Z</time></trkpt><trkpt lat="57.80054" lon="14.27226167"><ele>105.0</ele><time>2016-06-18T06:06:30.299Z</time></trkpt><trkpt lat="57.80053833" lon="14.272265"><ele>105.0</ele><time>2016-06-18T06:06:31.309Z</time></trkpt><trkpt lat="57.80053833" lon="14.272265"><ele>105.0</ele><time>2016-06-18T06:06:32.294Z</time></trkpt><trkpt lat="57.80052333" lon="14.27229167"><ele>105.0</ele><time>2016-06-18T06:06:33.318Z</time></trkpt><trkpt lat="57.80052333" lon="14.27229167"><ele>105.0</ele><time>2016-06-18T06:06:34.299Z</time></trkpt><trkpt lat="57.800515" lon="14.27229667"><ele>105.0</ele><time>2016-06-18T06:06:35.305Z</time></trkpt><trkpt lat="57.800515" lon="14.27229667"><ele>105.0</ele><time>2016-06-18T06:06:36.311Z</time></trkpt><trkpt lat="57.80050833" lon="14.2723"><ele>105.0</ele><time>2016-06-18T06:06:37.297Z</time></trkpt><trkpt lat="57.80050667" lon="14.27230167"><ele>105.0</ele><time>2016-06-18T06:06:38.299Z</time></trkpt><trkpt lat="57.80050667" lon="14.27230167"><ele>105.0</ele><time>2016-06-18T06:06:39.288Z</time></trkpt><trkpt lat="57.8005" lon="14.2723"><ele>106.0</ele><time>2016-06-18T06:06:40.286Z</time></trkpt><trkpt lat="57.8005" lon="14.2723"><ele>106.0</ele><time>2016-06-18T06:06:41.286Z</time></trkpt><trkpt lat="57.80045333" lon="14.272315"><ele>106.0</ele><time>2016-06-18T06:06:42.293Z</time></trkpt><trkpt lat="57.80045333" lon="14.272315"><ele>106.0</ele><time>2016-06-18T06:06:43.314Z</time></trkpt><trkpt lat="57.80042333" lon="14.27232667"><ele>106.0</ele><time>2016-06-18T06:06:44.288Z</time></trkpt><trkpt lat="57.80042333" lon="14.27232667"><ele>106.0</ele><time>2016-06-18T06:06:45.300Z</time></trkpt><trkpt lat="57.80039333" lon="14.272315"><ele>106.0</ele><time>2016-06-18T06:06:46.315Z</time></trkpt><trkpt lat="57.80039333" lon="14.272315"><ele>106.0</ele><time>2016-06-18T06:06:47.287Z</time></trkpt><trkpt lat="57.80035167" lon="14.27229167"><ele>106.0</ele><time>2016-06-18T06:06:48.289Z</time></trkpt><trkpt lat="57.80035167" lon="14.27229167"><ele>106.0</ele><time>2016-06-18T06:06:49.310Z</time></trkpt><trkpt lat="57.80028833" lon="14.27225667"><ele>105.0</ele><time>2016-06-18T06:06:50.318Z</time></trkpt><trkpt lat="57.80028833" lon="14.27225667"><ele>105.0</ele><time>2016-06-18T06:06:51.301Z</time></trkpt><trkpt lat="57.80021833" lon="14.27221167"><ele>105.0</ele><time>2016-06-18T06:06:52.317Z</time></trkpt><trkpt lat="57.80021833" lon="14.27221167"><ele>105.0</ele><time>2016-06-18T06:06:53.301Z</time></trkpt><trkpt lat="57.80013667" lon="14.27216"><ele>105.0</ele><time>2016-06-18T06:06:54.308Z</time></trkpt><trkpt lat="57.80009167" lon="14.27213333"><ele>105.0</ele><time>2016-06-18T06:06:55.312Z</time></trkpt><trkpt lat="57.80004667" lon="14.272105"><ele>105.0</ele><time>2016-06-18T06:06:56.296Z</time></trkpt><trkpt lat="57.80004667" lon="14.272105"><ele>105.0</ele><time>2016-06-18T06:06:57.318Z</time></trkpt><trkpt lat="57.79994833" lon="14.27204667"><ele>105.0</ele><time>2016-06-18T06:06:58.308Z</time></trkpt><trkpt lat="57.79994833" lon="14.27204667"><ele>105.0</ele><time>2016-06-18T06:06:59.285Z</time></trkpt><trkpt lat="57.79984" lon="14.271975"><ele>105.0</ele><time>2016-06-18T06:07:00.293Z</time></trkpt><trkpt lat="57.79978333" lon="14.27194167"><ele>105.0</ele><time>2016-06-18T06:07:01.283Z</time></trkpt><trkpt lat="57.79978333" lon="14.27194167"><ele>105.0</ele><time>2016-06-18T06:07:02.305Z</time></trkpt><trkpt lat="57.799675" lon="14.27188333"><ele>105.0</ele><time>2016-06-18T06:07:03.319Z</time></trkpt><trkpt lat="57.799675" lon="14.27188333"><ele>105.0</ele><time>2016-06-18T06:07:04.296Z</time></trkpt><trkpt lat="57.799565" lon="14.27181167"><ele>104.0</ele><time>2016-06-18T06:07:05.317Z</time></trkpt><trkpt lat="57.799565" lon="14.27181167"><ele>104.0</ele><time>2016-06-18T06:07:06.293Z</time></trkpt><trkpt lat="57.799455" lon="14.27171833"><ele>104.0</ele><time>2016-06-18T06:07:07.300Z</time></trkpt><trkpt lat="57.79939833" lon="14.27166667"><ele>104.0</ele><time>2016-06-18T06:07:08.291Z</time></trkpt><trkpt lat="57.79939833" lon="14.27166667"><ele>104.0</ele><time>2016-06-18T06:07:09.295Z</time></trkpt><trkpt lat="57.79928167" lon="14.27156"><ele>103.0</ele><time>2016-06-18T06:07:10.303Z</time></trkpt><trkpt lat="57.79928167" lon="14.27156"><ele>103.0</ele><time>2016-06-18T06:07:11.317Z</time></trkpt><trkpt lat="57.79916333" lon="14.271445"><ele>103.0</ele><time>2016-06-18T06:07:12.307Z</time></trkpt><trkpt lat="57.7991" lon="14.27138833"><ele>102.0</ele><time>2016-06-18T06:07:13.290Z</time></trkpt><trkpt lat="57.799035" lon="14.27133333"><ele>102.0</ele><time>2016-06-18T06:07:14.314Z</time></trkpt><trkpt lat="57.799035" lon="14.27133333"><ele>102.0</ele><time>2016-06-18T06:07:15.298Z</time></trkpt><trkpt lat="57.798915" lon="14.27123"><ele>102.0</ele><time>2016-06-18T06:07:16.319Z</time></trkpt><trkpt lat="57.79885833" lon="14.271175"><ele>102.0</ele><time>2016-06-18T06:07:17.301Z</time></trkpt><trkpt lat="57.79885833" lon="14.271175"><ele>102.0</ele><time>2016-06-18T06:07:18.285Z</time></trkpt><trkpt lat="57.79874333" lon="14.27106833"><ele>101.0</ele><time>2016-06-18T06:07:19.314Z</time></trkpt><trkpt lat="57.79868333" lon="14.27101667"><ele>101.0</ele><time>2016-06-18T06:07:20.294Z</time></trkpt><trkpt lat="57.79868333" lon="14.27101667"><ele>101.0</ele><time>2016-06-18T06:07:21.316Z</time></trkpt><trkpt lat="57.79856167" lon="14.27091667"><ele>101.0</ele><time>2016-06-18T06:07:22.298Z</time></trkpt><trkpt lat="57.79856167" lon="14.27091667"><ele>101.0</ele><time>2016-06-18T06:07:23.284Z</time></trkpt><trkpt lat="57.79844333" lon="14.27081833"><ele>101.0</ele><time>2016-06-18T06:07:24.300Z</time></trkpt><trkpt lat="57.79838333" lon="14.27076667"><ele>101.0</ele><time>2016-06-18T06:07:25.320Z</time></trkpt><trkpt lat="57.79838333" lon="14.27076667"><ele>101.0</ele><time>2016-06-18T06:07:26.319Z</time></trkpt><trkpt lat="57.798265" lon="14.27066333"><ele>101.0</ele><time>2016-06-18T06:07:27.286Z</time></trkpt><trkpt lat="57.798265" lon="14.27066333"><ele>101.0</ele><time>2016-06-18T06:07:28.298Z</time></trkpt><trkpt lat="57.79814333" lon="14.270565"><ele>100.0</ele><time>2016-06-18T06:07:29.314Z</time></trkpt><trkpt lat="57.79814333" lon="14.270565"><ele>100.0</ele><time>2016-06-18T06:07:30.304Z</time></trkpt><trkpt lat="57.79802" lon="14.27045667"><ele>100.0</ele><time>2016-06-18T06:07:31.310Z</time></trkpt><trkpt lat="57.79795833" lon="14.27039833"><ele>100.0</ele><time>2016-06-18T06:07:32.295Z</time></trkpt><trkpt lat="57.79795833" lon="14.27039833"><ele>100.0</ele><time>2016-06-18T06:07:33.291Z</time></trkpt><trkpt lat="57.79782833" lon="14.27027667"><ele>99.0</ele><time>2016-06-18T06:07:34.317Z</time></trkpt><trkpt lat="57.79782833" lon="14.27027667"><ele>99.0</ele><time>2016-06-18T06:07:35.313Z</time></trkpt><trkpt lat="57.7977" lon="14.27015"><ele>99.0</ele><time>2016-06-18T06:07:36.286Z</time></trkpt><trkpt lat="57.7977" lon="14.27015"><ele>99.0</ele><time>2016-06-18T06:07:37.308Z</time></trkpt><trkpt lat="57.79757" lon="14.27003"><ele>99.0</ele><time>2016-06-18T06:07:38.315Z</time></trkpt><trkpt lat="57.79757" lon="14.27003"><ele>99.0</ele><time>2016-06-18T06:07:39.299Z</time></trkpt><trkpt lat="57.79743833" lon="14.26991"><ele>98.0</ele><time>2016-06-18T06:07:40.308Z</time></trkpt><trkpt lat="57.79737167" lon="14.26984833"><ele>98.0</ele><time>2016-06-18T06:07:41.282Z</time></trkpt><trkpt lat="57.79730333" lon="14.26978667"><ele>98.0</ele><time>2016-06-18T06:07:42.310Z</time></trkpt><trkpt lat="57.79730333" lon="14.26978667"><ele>98.0</ele><time>2016-06-18T06:07:43.294Z</time></trkpt><trkpt lat="57.79716833" lon="14.269665"><ele>97.0</ele><time>2016-06-18T06:07:44.290Z</time></trkpt><trkpt lat="57.79716833" lon="14.269665"><ele>97.0</ele><time>2016-06-18T06:07:45.287Z</time></trkpt><trkpt lat="57.797035" lon="14.26954167"><ele>97.0</ele><time>2016-06-18T06:07:46.293Z</time></trkpt><trkpt lat="57.797035" lon="14.26954167"><ele>97.0</ele><time>2016-06-18T06:07:47.306Z</time></trkpt><trkpt lat="57.79689833" lon="14.26942"><ele>97.0</ele><time>2016-06-18T06:07:48.318Z</time></trkpt><trkpt lat="57.79689833" lon="14.26942"><ele>97.0</ele><time>2016-06-18T06:07:49.301Z</time></trkpt><trkpt lat="57.79676333" lon="14.26928667"><ele>96.0</ele><time>2016-06-18T06:07:50.308Z</time></trkpt><trkpt lat="57.79676333" lon="14.26928667"><ele>96.0</ele><time>2016-06-18T06:07:51.309Z</time></trkpt><trkpt lat="57.79662333" lon="14.26914667"><ele>96.0</ele><time>2016-06-18T06:07:52.287Z</time></trkpt><trkpt lat="57.79662333" lon="14.26914667"><ele>96.0</ele><time>2016-06-18T06:07:53.313Z</time></trkpt><trkpt lat="57.79648333" lon="14.26900333"><ele>95.0</ele><time>2016-06-18T06:07:54.284Z</time></trkpt><trkpt lat="57.79648333" lon="14.26900333"><ele>95.0</ele><time>2016-06-18T06:07:55.306Z</time></trkpt><trkpt lat="57.79634" lon="14.26886333"><ele>95.0</ele><time>2016-06-18T06:07:56.288Z</time></trkpt><trkpt lat="57.79634" lon="14.26886333"><ele>95.0</ele><time>2016-06-18T06:07:57.304Z</time></trkpt><trkpt lat="57.7962" lon="14.26873333"><ele>95.0</ele><time>2016-06-18T06:07:58.311Z</time></trkpt><trkpt lat="57.7962" lon="14.26873333"><ele>95.0</ele><time>2016-06-18T06:07:59.294Z</time></trkpt><trkpt lat="57.79606167" lon="14.26862"><ele>95.0</ele><time>2016-06-18T06:08:00.318Z</time></trkpt><trkpt lat="57.79606167" lon="14.26862"><ele>95.0</ele><time>2016-06-18T06:08:01.314Z</time></trkpt><trkpt lat="57.79592333" lon="14.26851167"><ele>95.0</ele><time>2016-06-18T06:08:02.283Z</time></trkpt><trkpt lat="57.79592333" lon="14.26851167"><ele>95.0</ele><time>2016-06-18T06:08:03.309Z</time></trkpt><trkpt lat="57.79579" lon="14.26841667"><ele>95.0</ele><time>2016-06-18T06:08:04.283Z</time></trkpt><trkpt lat="57.79579" lon="14.26841667"><ele>95.0</ele><time>2016-06-18T06:08:05.285Z</time></trkpt><trkpt lat="57.79566333" lon="14.26834167"><ele>95.0</ele><time>2016-06-18T06:08:06.294Z</time></trkpt><trkpt lat="57.79566333" lon="14.26834167"><ele>95.0</ele><time>2016-06-18T06:08:07.314Z</time></trkpt><trkpt lat="57.79554667" lon="14.268265"><ele>95.0</ele><time>2016-06-18T06:08:08.290Z</time></trkpt><trkpt lat="57.79554667" lon="14.268265"><ele>95.0</ele><time>2016-06-18T06:08:09.296Z</time></trkpt><trkpt lat="57.79544667" lon="14.26820167"><ele>95.0</ele><time>2016-06-18T06:08:10.310Z</time></trkpt><trkpt lat="57.79544667" lon="14.26820167"><ele>95.0</ele><time>2016-06-18T06:08:11.311Z</time></trkpt><trkpt lat="57.79535833" lon="14.26825167"><ele>95.0</ele><time>2016-06-18T06:08:12.298Z</time></trkpt><trkpt lat="57.79535833" lon="14.26825167"><ele>95.0</ele><time>2016-06-18T06:08:13.284Z</time></trkpt><trkpt lat="57.79526833" lon="14.26838667"><ele>96.0</ele><time>2016-06-18T06:08:14.288Z</time></trkpt><trkpt lat="57.79526833" lon="14.26838667"><ele>96.0</ele><time>2016-06-18T06:08:15.294Z</time></trkpt><trkpt lat="57.79516167" lon="14.26850167"><ele>96.0</ele><time>2016-06-18T06:08:16.301Z</time></trkpt><trkpt lat="57.7951" lon="14.26855167"><ele>97.0</ele><time>2016-06-18T06:08:17.298Z</time></trkpt><trkpt lat="57.7951" lon="14.26855167"><ele>97.0</ele><time>2016-06-18T06:08:18.301Z</time></trkpt><trkpt lat="57.794965" lon="14.26864667"><ele>97.0</ele><time>2016-06-18T06:08:19.308Z</time></trkpt><trkpt lat="57.794965" lon="14.26864667"><ele>97.0</ele><time>2016-06-18T06:08:20.316Z</time></trkpt><trkpt lat="57.79482167" lon="14.26875"><ele>98.0</ele><time>2016-06-18T06:08:21.314Z</time></trkpt><trkpt lat="57.79482167" lon="14.26875"><ele>98.0</ele><time>2016-06-18T06:08:22.301Z</time></trkpt><trkpt lat="57.79467833" lon="14.26884333"><ele>98.0</ele><time>2016-06-18T06:08:23.309Z</time></trkpt><trkpt lat="57.79467833" lon="14.26884333"><ele>98.0</ele><time>2016-06-18T06:08:24.290Z</time></trkpt><trkpt lat="57.79453167" lon="14.26893833"><ele>99.0</ele><time>2016-06-18T06:08:25.287Z</time></trkpt><trkpt lat="57.79445667" lon="14.26898667"><ele>99.0</ele><time>2016-06-18T06:08:26.318Z</time></trkpt><trkpt lat="57.79445667" lon="14.26898667"><ele>99.0</ele><time>2016-06-18T06:08:27.301Z</time></trkpt><trkpt lat="57.79431167" lon="14.26908167"><ele>100.0</ele><time>2016-06-18T06:08:28.288Z</time></trkpt><trkpt lat="57.79431167" lon="14.26908167"><ele>100.0</ele><time>2016-06-18T06:08:29.309Z</time></trkpt><trkpt lat="57.79416667" lon="14.26917"><ele>100.0</ele><time>2016-06-18T06:08:30.316Z</time></trkpt><trkpt lat="57.79409667" lon="14.26922"><ele>100.0</ele><time>2016-06-18T06:08:31.315Z</time></trkpt><trkpt lat="57.79409667" lon="14.26922"><ele>100.0</ele><time>2016-06-18T06:08:32.320Z</time></trkpt><trkpt lat="57.79396" lon="14.26931167"><ele>101.0</ele><time>2016-06-18T06:08:33.288Z</time></trkpt><trkpt lat="57.79389333" lon="14.269355"><ele>101.0</ele><time>2016-06-18T06:08:34.283Z</time></trkpt><trkpt lat="57.79389333" lon="14.269355"><ele>101.0</ele><time>2016-06-18T06:08:35.311Z</time></trkpt><trkpt lat="57.79376333" lon="14.269435"><ele>102.0</ele><time>2016-06-18T06:08:36.320Z</time></trkpt><trkpt lat="57.79376333" lon="14.269435"><ele>102.0</ele><time>2016-06-18T06:08:37.305Z</time></trkpt><trkpt lat="57.79364333" lon="14.26951333"><ele>103.0</ele><time>2016-06-18T06:08:38.297Z</time></trkpt><trkpt lat="57.79364333" lon="14.26951333"><ele>103.0</ele><time>2016-06-18T06:08:39.283Z</time></trkpt><trkpt lat="57.79352333" lon="14.26959"><ele>104.0</ele><time>2016-06-18T06:08:40.291Z</time></trkpt><trkpt lat="57.79346333" lon="14.26962167"><ele>105.0</ele><time>2016-06-18T06:08:41.287Z</time></trkpt><trkpt lat="57.79346333" lon="14.26962167"><ele>105.0</ele><time>2016-06-18T06:08:42.309Z</time></trkpt><trkpt lat="57.79335" lon="14.26968833"><ele>106.0</ele><time>2016-06-18T06:08:43.319Z</time></trkpt><trkpt lat="57.79335" lon="14.26968833"><ele>106.0</ele><time>2016-06-18T06:08:44.301Z</time></trkpt><trkpt lat="57.79324" lon="14.26976167"><ele>106.0</ele><time>2016-06-18T06:08:45.292Z</time></trkpt><trkpt lat="57.79324" lon="14.26976167"><ele>106.0</ele><time>2016-06-18T06:08:46.314Z</time></trkpt><trkpt lat="57.79313333" lon="14.269835"><ele>107.0</ele><time>2016-06-18T06:08:47.286Z</time></trkpt><trkpt lat="57.793085" lon="14.269875"><ele>107.0</ele><time>2016-06-18T06:08:48.315Z</time></trkpt><trkpt lat="57.793085" lon="14.269875"><ele>107.0</ele><time>2016-06-18T06:08:49.308Z</time></trkpt><trkpt lat="57.79299833" lon="14.26994833"><ele>106.0</ele><time>2016-06-18T06:08:50.319Z</time></trkpt><trkpt lat="57.79299833" lon="14.26994833"><ele>106.0</ele><time>2016-06-18T06:08:51.301Z</time></trkpt><trkpt lat="57.79292667" lon="14.26997833"><ele>107.0</ele><time>2016-06-18T06:08:52.282Z</time></trkpt><trkpt lat="57.79292667" lon="14.26997833"><ele>107.0</ele><time>2016-06-18T06:08:53.304Z</time></trkpt><trkpt lat="57.79284" lon="14.269935"><ele>107.0</ele><time>2016-06-18T06:08:54.312Z</time></trkpt><trkpt lat="57.79280333" lon="14.269875"><ele>107.0</ele><time>2016-06-18T06:08:55.282Z</time></trkpt><trkpt lat="57.79280333" lon="14.269875"><ele>107.0</ele><time>2016-06-18T06:08:56.313Z</time></trkpt><trkpt lat="57.792755" lon="14.269695"><ele>106.0</ele><time>2016-06-18T06:08:57.286Z</time></trkpt><trkpt lat="57.792755" lon="14.269695"><ele>106.0</ele><time>2016-06-18T06:08:58.308Z</time></trkpt><trkpt lat="57.79271" lon="14.26947333"><ele>106.0</ele><time>2016-06-18T06:08:59.316Z</time></trkpt><trkpt lat="57.79271" lon="14.26947333"><ele>106.0</ele><time>2016-06-18T06:09:00.300Z</time></trkpt><trkpt lat="57.79267" lon="14.26923333"><ele>106.0</ele><time>2016-06-18T06:09:01.315Z</time></trkpt><trkpt lat="57.79267" lon="14.26923333"><ele>106.0</ele><time>2016-06-18T06:09:02.309Z</time></trkpt><trkpt lat="57.792625" lon="14.26896833"><ele>105.0</ele><time>2016-06-18T06:09:03.286Z</time></trkpt><trkpt lat="57.792625" lon="14.26896833"><ele>105.0</ele><time>2016-06-18T06:09:04.307Z</time></trkpt><trkpt lat="57.79257667" lon="14.26868"><ele>105.0</ele><time>2016-06-18T06:09:05.326Z</time></trkpt><trkpt lat="57.79257667" lon="14.26868"><ele>105.0</ele><time>2016-06-18T06:09:06.321Z</time></trkpt><trkpt lat="57.79253167" lon="14.26837"><ele>104.0</ele><time>2016-06-18T06:09:07.288Z</time></trkpt><trkpt lat="57.792515" lon="14.26821167"><ele>103.0</ele><time>2016-06-18T06:09:08.311Z</time></trkpt><trkpt lat="57.792515" lon="14.26821167"><ele>103.0</ele><time>2016-06-18T06:09:09.294Z</time></trkpt><trkpt lat="57.79248" lon="14.26788667"><ele>102.0</ele><time>2016-06-18T06:09:10.310Z</time></trkpt><trkpt lat="57.79246167" lon="14.26772333"><ele>102.0</ele><time>2016-06-18T06:09:11.296Z</time></trkpt><trkpt lat="57.79246167" lon="14.26772333"><ele>102.0</ele><time>2016-06-18T06:09:12.282Z</time></trkpt><trkpt lat="57.79243833" lon="14.26739833"><ele>101.0</ele><time>2016-06-18T06:09:13.289Z</time></trkpt><trkpt lat="57.79243333" lon="14.267235"><ele>101.0</ele><time>2016-06-18T06:09:14.311Z</time></trkpt><trkpt lat="57.79243333" lon="14.267235"><ele>101.0</ele><time>2016-06-18T06:09:15.294Z</time></trkpt><trkpt lat="57.79243" lon="14.266915"><ele>101.0</ele><time>2016-06-18T06:09:16.317Z</time></trkpt><trkpt lat="57.79243" lon="14.266915"><ele>101.0</ele><time>2016-06-18T06:09:17.299Z</time></trkpt><trkpt lat="57.79243167" lon="14.26662167"><ele>101.0</ele><time>2016-06-18T06:09:18.306Z</time></trkpt><trkpt lat="57.79243333" lon="14.26648333"><ele>101.0</ele><time>2016-06-18T06:09:19.293Z</time></trkpt><trkpt lat="57.79243333" lon="14.26648333"><ele>101.0</ele><time>2016-06-18T06:09:20.298Z</time></trkpt><trkpt lat="57.79243167" lon="14.26621667"><ele>102.0</ele><time>2016-06-18T06:09:21.305Z</time></trkpt><trkpt lat="57.79243" lon="14.26608333"><ele>102.0</ele><time>2016-06-18T06:09:22.303Z</time></trkpt><trkpt lat="57.79243" lon="14.26608333"><ele>102.0</ele><time>2016-06-18T06:09:23.291Z</time></trkpt><trkpt lat="57.79242167" lon="14.26582333"><ele>102.0</ele><time>2016-06-18T06:09:24.298Z</time></trkpt><trkpt lat="57.79242167" lon="14.26582333"><ele>102.0</ele><time>2016-06-18T06:09:25.284Z</time></trkpt><trkpt lat="57.79241167" lon="14.26556167"><ele>102.0</ele><time>2016-06-18T06:09:26.288Z</time></trkpt><trkpt lat="57.79241167" lon="14.26556167"><ele>102.0</ele><time>2016-06-18T06:09:27.302Z</time></trkpt><trkpt lat="57.7924" lon="14.265305"><ele>101.0</ele><time>2016-06-18T06:09:28.311Z</time></trkpt><trkpt lat="57.79239167" lon="14.265175"><ele>101.0</ele><time>2016-06-18T06:09:29.314Z</time></trkpt><trkpt lat="57.79239167" lon="14.265175"><ele>101.0</ele><time>2016-06-18T06:09:30.316Z</time></trkpt><trkpt lat="57.792375" lon="14.26490333"><ele>101.0</ele><time>2016-06-18T06:09:31.289Z</time></trkpt><trkpt lat="57.792375" lon="14.26490333"><ele>101.0</ele><time>2016-06-18T06:09:32.309Z</time></trkpt><trkpt lat="57.79235167" lon="14.26462667"><ele>101.0</ele><time>2016-06-18T06:09:33.288Z</time></trkpt><trkpt lat="57.79235167" lon="14.26462667"><ele>101.0</ele><time>2016-06-18T06:09:34.312Z</time></trkpt><trkpt lat="57.79232667" lon="14.26435167"><ele>100.0</ele><time>2016-06-18T06:09:35.301Z</time></trkpt><trkpt lat="57.79232667" lon="14.26435167"><ele>100.0</ele><time>2016-06-18T06:09:36.284Z</time></trkpt><trkpt lat="57.792295" lon="14.264075"><ele>100.0</ele><time>2016-06-18T06:09:37.290Z</time></trkpt><trkpt lat="57.792295" lon="14.264075"><ele>100.0</ele><time>2016-06-18T06:09:38.312Z</time></trkpt><trkpt lat="57.79225833" lon="14.26377833"><ele>99.0</ele><time>2016-06-18T06:09:39.293Z</time></trkpt><trkpt lat="57.79225833" lon="14.26377833"><ele>99.0</ele><time>2016-06-18T06:09:40.310Z</time></trkpt><trkpt lat="57.79221" lon="14.263465"><ele>98.0</ele><time>2016-06-18T06:09:41.294Z</time></trkpt><trkpt lat="57.79221" lon="14.263465"><ele>98.0</ele><time>2016-06-18T06:09:42.316Z</time></trkpt><trkpt lat="57.792155" lon="14.26313667"><ele>98.0</ele><time>2016-06-18T06:09:43.304Z</time></trkpt><trkpt lat="57.792155" lon="14.26313667"><ele>98.0</ele><time>2016-06-18T06:09:44.287Z</time></trkpt><trkpt lat="57.792095" lon="14.26281333"><ele>97.0</ele><time>2016-06-18T06:09:45.294Z</time></trkpt><trkpt lat="57.79206833" lon="14.26265167"><ele>97.0</ele><time>2016-06-18T06:09:46.298Z</time></trkpt><trkpt lat="57.79206833" lon="14.26265167"><ele>97.0</ele><time>2016-06-18T06:09:47.292Z</time></trkpt><trkpt lat="57.79200667" lon="14.26233333"><ele>97.0</ele><time>2016-06-18T06:09:48.304Z</time></trkpt><trkpt lat="57.79200667" lon="14.26233333"><ele>97.0</ele><time>2016-06-18T06:09:49.297Z</time></trkpt><trkpt lat="57.79195167" lon="14.26202"><ele>97.0</ele><time>2016-06-18T06:09:50.304Z</time></trkpt><trkpt lat="57.79195167" lon="14.26202"><ele>97.0</ele><time>2016-06-18T06:09:51.294Z</time></trkpt><trkpt lat="57.7919" lon="14.26172167"><ele>97.0</ele><time>2016-06-18T06:09:52.316Z</time></trkpt><trkpt lat="57.7919" lon="14.26172167"><ele>97.0</ele><time>2016-06-18T06:09:53.298Z</time></trkpt><trkpt lat="57.791855" lon="14.26142333"><ele>97.0</ele><time>2016-06-18T06:09:54.305Z</time></trkpt><trkpt lat="57.79182833" lon="14.261275"><ele>97.0</ele><time>2016-06-18T06:09:55.308Z</time></trkpt><trkpt lat="57.79180333" lon="14.26112167"><ele>96.0</ele><time>2016-06-18T06:09:56.296Z</time></trkpt><trkpt lat="57.79180333" lon="14.26112167"><ele>96.0</ele><time>2016-06-18T06:09:57.320Z</time></trkpt><trkpt lat="57.79175" lon="14.26081"><ele>96.0</ele><time>2016-06-18T06:09:58.287Z</time></trkpt><trkpt lat="57.79172167" lon="14.260655"><ele>96.0</ele><time>2016-06-18T06:09:59.310Z</time></trkpt><trkpt lat="57.79172167" lon="14.260655"><ele>96.0</ele><time>2016-06-18T06:10:00.299Z</time></trkpt><trkpt lat="57.79166833" lon="14.26033833"><ele>95.0</ele><time>2016-06-18T06:10:01.296Z</time></trkpt><trkpt lat="57.79164" lon="14.26018"><ele>95.0</ele><time>2016-06-18T06:10:02.318Z</time></trkpt><trkpt lat="57.79164" lon="14.26018"><ele>95.0</ele><time>2016-06-18T06:10:03.301Z</time></trkpt><trkpt lat="57.79158167" lon="14.259865"><ele>95.0</ele><time>2016-06-18T06:10:04.287Z</time></trkpt><trkpt lat="57.79155333" lon="14.25970833"><ele>95.0</ele><time>2016-06-18T06:10:05.294Z</time></trkpt><trkpt lat="57.79155333" lon="14.25970833"><ele>95.0</ele><time>2016-06-18T06:10:06.314Z</time></trkpt><trkpt lat="57.79150167" lon="14.25940167"><ele>95.0</ele><time>2016-06-18T06:10:07.326Z</time></trkpt><trkpt lat="57.79147333" lon="14.25924833"><ele>96.0</ele><time>2016-06-18T06:10:08.291Z</time></trkpt><trkpt lat="57.79147333" lon="14.25924833"><ele>96.0</ele><time>2016-06-18T06:10:09.312Z</time></trkpt><trkpt lat="57.79142167" lon="14.25894167"><ele>96.0</ele><time>2016-06-18T06:10:10.293Z</time></trkpt><trkpt lat="57.79142167" lon="14.25894167"><ele>96.0</ele><time>2016-06-18T06:10:11.310Z</time></trkpt><trkpt lat="57.79136833" lon="14.25863667"><ele>97.0</ele><time>2016-06-18T06:10:12.300Z</time></trkpt><trkpt lat="57.79134167" lon="14.258485"><ele>97.0</ele><time>2016-06-18T06:10:13.285Z</time></trkpt><trkpt lat="57.79131333" lon="14.25834"><ele>97.0</ele><time>2016-06-18T06:10:14.307Z</time></trkpt><trkpt lat="57.79131333" lon="14.25834"><ele>97.0</ele><time>2016-06-18T06:10:15.290Z</time></trkpt><trkpt lat="57.79126333" lon="14.25806833"><ele>98.0</ele><time>2016-06-18T06:10:16.297Z</time></trkpt><trkpt lat="57.79124333" lon="14.25794167"><ele>98.0</ele><time>2016-06-18T06:10:17.312Z</time></trkpt><trkpt lat="57.79124333" lon="14.25794167"><ele>98.0</ele><time>2016-06-18T06:10:18.289Z</time></trkpt><trkpt lat="57.79120333" lon="14.257695"><ele>98.0</ele><time>2016-06-18T06:10:19.295Z</time></trkpt><trkpt lat="57.79118167" lon="14.25756833"><ele>98.0</ele><time>2016-06-18T06:10:20.319Z</time></trkpt><trkpt lat="57.79118167" lon="14.25756833"><ele>98.0</ele><time>2016-06-18T06:10:21.314Z</time></trkpt><trkpt lat="57.79114" lon="14.25730833"><ele>98.0</ele><time>2016-06-18T06:10:22.305Z</time></trkpt><trkpt lat="57.79114" lon="14.25730833"><ele>98.0</ele><time>2016-06-18T06:10:23.300Z</time></trkpt><trkpt lat="57.79109167" lon="14.25704"><ele>98.0</ele><time>2016-06-18T06:10:24.307Z</time></trkpt><trkpt lat="57.79109167" lon="14.25704"><ele>98.0</ele><time>2016-06-18T06:10:25.290Z</time></trkpt><trkpt lat="57.791045" lon="14.25677667"><ele>98.0</ele><time>2016-06-18T06:10:26.283Z</time></trkpt><trkpt lat="57.791045" lon="14.25677667"><ele>98.0</ele><time>2016-06-18T06:10:27.321Z</time></trkpt><trkpt lat="57.791005" lon="14.25650167"><ele>98.0</ele><time>2016-06-18T06:10:28.288Z</time></trkpt><trkpt lat="57.790995" lon="14.25636167"><ele>99.0</ele><time>2016-06-18T06:10:29.309Z</time></trkpt><trkpt lat="57.790995" lon="14.25636167"><ele>99.0</ele><time>2016-06-18T06:10:30.299Z</time></trkpt><trkpt lat="57.79097" lon="14.25608"><ele>99.0</ele><time>2016-06-18T06:10:31.317Z</time></trkpt><trkpt lat="57.79097" lon="14.25608"><ele>99.0</ele><time>2016-06-18T06:10:32.315Z</time></trkpt><trkpt lat="57.79096" lon="14.25579333"><ele>99.0</ele><time>2016-06-18T06:10:33.291Z</time></trkpt><trkpt lat="57.79096" lon="14.25579333"><ele>99.0</ele><time>2016-06-18T06:10:34.312Z</time></trkpt><trkpt lat="57.79093833" lon="14.25551"><ele>100.0</ele><time>2016-06-18T06:10:35.288Z</time></trkpt><trkpt lat="57.79093" lon="14.25537"><ele>100.0</ele><time>2016-06-18T06:10:36.305Z</time></trkpt><trkpt lat="57.79093" lon="14.25537"><ele>100.0</ele><time>2016-06-18T06:10:37.287Z</time></trkpt><trkpt lat="57.790925" lon="14.255095"><ele>99.0</ele><time>2016-06-18T06:10:38.295Z</time></trkpt><trkpt lat="57.790925" lon="14.255095"><ele>99.0</ele><time>2016-06-18T06:10:39.317Z</time></trkpt><trkpt lat="57.79093167" lon="14.25482333"><ele>99.0</ele><time>2016-06-18T06:10:40.299Z</time></trkpt><trkpt lat="57.79093167" lon="14.25482333"><ele>99.0</ele><time>2016-06-18T06:10:41.293Z</time></trkpt><trkpt lat="57.79095" lon="14.25454333"><ele>99.0</ele><time>2016-06-18T06:10:42.327Z</time></trkpt><trkpt lat="57.79095" lon="14.25454333"><ele>99.0</ele><time>2016-06-18T06:10:43.311Z</time></trkpt><trkpt lat="57.790975" lon="14.25426667"><ele>99.0</ele><time>2016-06-18T06:10:44.318Z</time></trkpt><trkpt lat="57.790975" lon="14.25426667"><ele>99.0</ele><time>2016-06-18T06:10:45.308Z</time></trkpt><trkpt lat="57.791005" lon="14.25398167"><ele>99.0</ele><time>2016-06-18T06:10:46.287Z</time></trkpt><trkpt lat="57.791005" lon="14.25398167"><ele>99.0</ele><time>2016-06-18T06:10:47.321Z</time></trkpt><trkpt lat="57.79103333" lon="14.25369333"><ele>99.0</ele><time>2016-06-18T06:10:48.288Z</time></trkpt><trkpt lat="57.79103333" lon="14.25369333"><ele>99.0</ele><time>2016-06-18T06:10:49.317Z</time></trkpt><trkpt lat="57.791065" lon="14.25341"><ele>99.0</ele><time>2016-06-18T06:10:50.283Z</time></trkpt><trkpt lat="57.791065" lon="14.25341"><ele>99.0</ele><time>2016-06-18T06:10:51.305Z</time></trkpt><trkpt lat="57.79109333" lon="14.25312667"><ele>99.0</ele><time>2016-06-18T06:10:52.313Z</time></trkpt><trkpt lat="57.79109333" lon="14.25312667"><ele>99.0</ele><time>2016-06-18T06:10:53.296Z</time></trkpt><trkpt lat="57.79112833" lon="14.25284667"><ele>99.0</ele><time>2016-06-18T06:10:54.307Z</time></trkpt><trkpt lat="57.79112833" lon="14.25284667"><ele>99.0</ele><time>2016-06-18T06:10:55.301Z</time></trkpt><trkpt lat="57.79116" lon="14.25256333"><ele>99.0</ele><time>2016-06-18T06:10:56.308Z</time></trkpt><trkpt lat="57.79116" lon="14.25256333"><ele>99.0</ele><time>2016-06-18T06:10:57.291Z</time></trkpt><trkpt lat="57.79118833" lon="14.252275"><ele>99.0</ele><time>2016-06-18T06:10:58.299Z</time></trkpt><trkpt lat="57.79118833" lon="14.252275"><ele>99.0</ele><time>2016-06-18T06:10:59.305Z</time></trkpt><trkpt lat="57.79119833" lon="14.251985"><ele>99.0</ele><time>2016-06-18T06:11:00.312Z</time></trkpt><trkpt lat="57.79119833" lon="14.251985"><ele>99.0</ele><time>2016-06-18T06:11:01.307Z</time></trkpt><trkpt lat="57.79120667" lon="14.25169667"><ele>99.0</ele><time>2016-06-18T06:11:02.318Z</time></trkpt><trkpt lat="57.79120667" lon="14.25169667"><ele>99.0</ele><time>2016-06-18T06:11:03.318Z</time></trkpt><trkpt lat="57.79120833" lon="14.251415"><ele>99.0</ele><time>2016-06-18T06:11:04.286Z</time></trkpt><trkpt lat="57.79120833" lon="14.251415"><ele>99.0</ele><time>2016-06-18T06:11:05.312Z</time></trkpt><trkpt lat="57.7912" lon="14.25112333"><ele>99.0</ele><time>2016-06-18T06:11:06.316Z</time></trkpt><trkpt lat="57.7912" lon="14.25112333"><ele>99.0</ele><time>2016-06-18T06:11:07.297Z</time></trkpt><trkpt lat="57.79118667" lon="14.25083"><ele>99.0</ele><time>2016-06-18T06:11:08.309Z</time></trkpt><trkpt lat="57.79118667" lon="14.25083"><ele>99.0</ele><time>2016-06-18T06:11:09.291Z</time></trkpt><trkpt lat="57.79116167" lon="14.25054333"><ele>100.0</ele><time>2016-06-18T06:11:10.287Z</time></trkpt><trkpt lat="57.79116167" lon="14.25054333"><ele>100.0</ele><time>2016-06-18T06:11:11.288Z</time></trkpt><trkpt lat="57.79113667" lon="14.25027167"><ele>100.0</ele><time>2016-06-18T06:11:12.314Z</time></trkpt><trkpt lat="57.79112667" lon="14.25013833"><ele>99.0</ele><time>2016-06-18T06:11:13.303Z</time></trkpt><trkpt lat="57.79111167" lon="14.25000333"><ele>99.0</ele><time>2016-06-18T06:11:14.291Z</time></trkpt><trkpt lat="57.79111167" lon="14.25000333"><ele>99.0</ele><time>2016-06-18T06:11:15.313Z</time></trkpt><trkpt lat="57.79108" lon="14.24973167"><ele>99.0</ele><time>2016-06-18T06:11:16.299Z</time></trkpt><trkpt lat="57.79106667" lon="14.2496"><ele>99.0</ele><time>2016-06-18T06:11:17.322Z</time></trkpt><trkpt lat="57.79106667" lon="14.2496"><ele>99.0</ele><time>2016-06-18T06:11:18.303Z</time></trkpt><trkpt lat="57.79104833" lon="14.24934667"><ele>100.0</ele><time>2016-06-18T06:11:19.311Z</time></trkpt><trkpt lat="57.79103833" lon="14.24922333"><ele>100.0</ele><time>2016-06-18T06:11:20.295Z</time></trkpt><trkpt lat="57.79103833" lon="14.24922333"><ele>100.0</ele><time>2016-06-18T06:11:21.282Z</time></trkpt><trkpt lat="57.791015" lon="14.248975"><ele>100.0</ele><time>2016-06-18T06:11:22.321Z</time></trkpt><trkpt lat="57.791015" lon="14.248975"><ele>100.0</ele><time>2016-06-18T06:11:23.303Z</time></trkpt><trkpt lat="57.790985" lon="14.248715"><ele>100.0</ele><time>2016-06-18T06:11:24.310Z</time></trkpt><trkpt lat="57.790985" lon="14.248715"><ele>100.0</ele><time>2016-06-18T06:11:25.295Z</time></trkpt><trkpt lat="57.79095333" lon="14.24844"><ele>100.0</ele><time>2016-06-18T06:11:26.316Z</time></trkpt><trkpt lat="57.79095333" lon="14.24844"><ele>100.0</ele><time>2016-06-18T06:11:27.295Z</time></trkpt><trkpt lat="57.79091833" lon="14.248155"><ele>100.0</ele><time>2016-06-18T06:11:28.302Z</time></trkpt><trkpt lat="57.7909" lon="14.24801333"><ele>100.0</ele><time>2016-06-18T06:11:29.283Z</time></trkpt><trkpt lat="57.7909" lon="14.24801333"><ele>100.0</ele><time>2016-06-18T06:11:30.309Z</time></trkpt><trkpt lat="57.79086667" lon="14.24772833"><ele>100.0</ele><time>2016-06-18T06:11:31.321Z</time></trkpt><trkpt lat="57.79085" lon="14.247585"><ele>100.0</ele><time>2016-06-18T06:11:32.318Z</time></trkpt><trkpt lat="57.79085" lon="14.247585"><ele>100.0</ele><time>2016-06-18T06:11:33.282Z</time></trkpt><trkpt lat="57.790815" lon="14.24730333"><ele>101.0</ele><time>2016-06-18T06:11:34.290Z</time></trkpt><trkpt lat="57.79079833" lon="14.24716333"><ele>101.0</ele><time>2016-06-18T06:11:35.295Z</time></trkpt><trkpt lat="57.79079833" lon="14.24716333"><ele>101.0</ele><time>2016-06-18T06:11:36.305Z</time></trkpt><trkpt lat="57.79076833" lon="14.24689167"><ele>101.0</ele><time>2016-06-18T06:11:37.311Z</time></trkpt><trkpt lat="57.79075" lon="14.24676667"><ele>101.0</ele><time>2016-06-18T06:11:38.318Z</time></trkpt><trkpt lat="57.79075" lon="14.24676667"><ele>101.0</ele><time>2016-06-18T06:11:39.286Z</time></trkpt><trkpt lat="57.79071167" lon="14.24651"><ele>101.0</ele><time>2016-06-18T06:11:40.297Z</time></trkpt><trkpt lat="57.79069167" lon="14.24638167"><ele>101.0</ele><time>2016-06-18T06:11:41.305Z</time></trkpt><trkpt lat="57.79069167" lon="14.24638167"><ele>101.0</ele><time>2016-06-18T06:11:42.289Z</time></trkpt><trkpt lat="57.79065667" lon="14.24612167"><ele>101.0</ele><time>2016-06-18T06:11:43.314Z</time></trkpt><trkpt lat="57.79063667" lon="14.24598333"><ele>101.0</ele><time>2016-06-18T06:11:44.297Z</time></trkpt><trkpt lat="57.79063667" lon="14.24598333"><ele>101.0</ele><time>2016-06-18T06:11:45.319Z</time></trkpt><trkpt lat="57.79059667" lon="14.24571"><ele>102.0</ele><time>2016-06-18T06:11:46.286Z</time></trkpt><trkpt lat="57.79057833" lon="14.24558"><ele>102.0</ele><time>2016-06-18T06:11:47.308Z</time></trkpt><trkpt lat="57.79057833" lon="14.24558"><ele>102.0</ele><time>2016-06-18T06:11:48.287Z</time></trkpt><trkpt lat="57.79054333" lon="14.24532833"><ele>102.0</ele><time>2016-06-18T06:11:49.298Z</time></trkpt><trkpt lat="57.79052833" lon="14.245205"><ele>103.0</ele><time>2016-06-18T06:11:50.291Z</time></trkpt><trkpt lat="57.79052833" lon="14.245205"><ele>103.0</ele><time>2016-06-18T06:11:51.311Z</time></trkpt><trkpt lat="57.79049" lon="14.24495333"><ele>103.0</ele><time>2016-06-18T06:11:52.297Z</time></trkpt><trkpt lat="57.790465" lon="14.24482667"><ele>104.0</ele><time>2016-06-18T06:11:53.286Z</time></trkpt><trkpt lat="57.790465" lon="14.24482667"><ele>104.0</ele><time>2016-06-18T06:11:54.308Z</time></trkpt><trkpt lat="57.79040667" lon="14.24458167"><ele>104.0</ele><time>2016-06-18T06:11:55.288Z</time></trkpt><trkpt lat="57.79037333" lon="14.24446"><ele>104.0</ele><time>2016-06-18T06:11:56.312Z</time></trkpt><trkpt lat="57.79037333" lon="14.24446"><ele>104.0</ele><time>2016-06-18T06:11:57.294Z</time></trkpt><trkpt lat="57.79030333" lon="14.24423333"><ele>105.0</ele><time>2016-06-18T06:11:58.301Z</time></trkpt><trkpt lat="57.790265" lon="14.24412333"><ele>105.0</ele><time>2016-06-18T06:11:59.290Z</time></trkpt><trkpt lat="57.790265" lon="14.24412333"><ele>105.0</ele><time>2016-06-18T06:12:00.311Z</time></trkpt><trkpt lat="57.790185" lon="14.24391"><ele>105.0</ele><time>2016-06-18T06:12:01.307Z</time></trkpt><trkpt lat="57.79014" lon="14.24380833"><ele>105.0</ele><time>2016-06-18T06:12:02.298Z</time></trkpt><trkpt lat="57.79014" lon="14.24380833"><ele>105.0</ele><time>2016-06-18T06:12:03.318Z</time></trkpt><trkpt lat="57.79005" lon="14.24359667"><ele>105.0</ele><time>2016-06-18T06:12:04.307Z</time></trkpt><trkpt lat="57.79000333" lon="14.24349667"><ele>105.0</ele><time>2016-06-18T06:12:05.293Z</time></trkpt><trkpt lat="57.78995833" lon="14.2434"><ele>106.0</ele><time>2016-06-18T06:12:06.316Z</time></trkpt><trkpt lat="57.78995833" lon="14.2434"><ele>106.0</ele><time>2016-06-18T06:12:07.299Z</time></trkpt><trkpt lat="57.789875" lon="14.24321333"><ele>106.0</ele><time>2016-06-18T06:12:08.306Z</time></trkpt><trkpt lat="57.789875" lon="14.24321333"><ele>106.0</ele><time>2016-06-18T06:12:09.288Z</time></trkpt><trkpt lat="57.78979833" lon="14.24302167"><ele>106.0</ele><time>2016-06-18T06:12:10.322Z</time></trkpt><trkpt lat="57.78979833" lon="14.24302167"><ele>106.0</ele><time>2016-06-18T06:12:11.309Z</time></trkpt><trkpt lat="57.78972167" lon="14.24284833"><ele>107.0</ele><time>2016-06-18T06:12:12.312Z</time></trkpt><trkpt lat="57.78972167" lon="14.24284833"><ele>107.0</ele><time>2016-06-18T06:12:13.296Z</time></trkpt><trkpt lat="57.78964333" lon="14.242685"><ele>107.0</ele><time>2016-06-18T06:12:14.303Z</time></trkpt><trkpt lat="57.78964333" lon="14.242685"><ele>107.0</ele><time>2016-06-18T06:12:15.294Z</time></trkpt><trkpt lat="57.789565" lon="14.24252333"><ele>108.0</ele><time>2016-06-18T06:12:16.293Z</time></trkpt><trkpt lat="57.789565" lon="14.24252333"><ele>108.0</ele><time>2016-06-18T06:12:17.316Z</time></trkpt><trkpt lat="57.78948833" lon="14.24237167"><ele>108.0</ele><time>2016-06-18T06:12:18.286Z</time></trkpt><trkpt lat="57.78948833" lon="14.24237167"><ele>108.0</ele><time>2016-06-18T06:12:19.309Z</time></trkpt><trkpt lat="57.789415" lon="14.24221667"><ele>109.0</ele><time>2016-06-18T06:12:20.308Z</time></trkpt><trkpt lat="57.789415" lon="14.24221667"><ele>109.0</ele><time>2016-06-18T06:12:21.291Z</time></trkpt><trkpt lat="57.78934167" lon="14.24205167"><ele>109.0</ele><time>2016-06-18T06:12:22.298Z</time></trkpt><trkpt lat="57.78934167" lon="14.24205167"><ele>109.0</ele><time>2016-06-18T06:12:23.287Z</time></trkpt><trkpt lat="57.78926667" lon="14.24189167"><ele>110.0</ele><time>2016-06-18T06:12:24.298Z</time></trkpt><trkpt lat="57.78926667" lon="14.24189167"><ele>110.0</ele><time>2016-06-18T06:12:25.284Z</time></trkpt><trkpt lat="57.7892" lon="14.24174"><ele>110.0</ele><time>2016-06-18T06:12:26.292Z</time></trkpt><trkpt lat="57.7892" lon="14.24174"><ele>110.0</ele><time>2016-06-18T06:12:27.314Z</time></trkpt><trkpt lat="57.78914167" lon="14.24159333"><ele>111.0</ele><time>2016-06-18T06:12:28.310Z</time></trkpt><trkpt lat="57.78914167" lon="14.24159333"><ele>111.0</ele><time>2016-06-18T06:12:29.293Z</time></trkpt><trkpt lat="57.789085" lon="14.241455"><ele>110.0</ele><time>2016-06-18T06:12:30.299Z</time></trkpt><trkpt lat="57.789055" lon="14.24138833"><ele>110.0</ele><time>2016-06-18T06:12:31.282Z</time></trkpt><trkpt lat="57.789055" lon="14.24138833"><ele>110.0</ele><time>2016-06-18T06:12:32.303Z</time></trkpt><trkpt lat="57.78899333" lon="14.241255"><ele>110.0</ele><time>2016-06-18T06:12:33.322Z</time></trkpt><trkpt lat="57.78899333" lon="14.241255"><ele>110.0</ele><time>2016-06-18T06:12:34.304Z</time></trkpt><trkpt lat="57.78893" lon="14.24111333"><ele>110.0</ele><time>2016-06-18T06:12:35.318Z</time></trkpt><trkpt lat="57.78893" lon="14.24111333"><ele>110.0</ele><time>2016-06-18T06:12:36.287Z</time></trkpt><trkpt lat="57.78886833" lon="14.240965"><ele>111.0</ele><time>2016-06-18T06:12:37.294Z</time></trkpt><trkpt lat="57.788835" lon="14.24089"><ele>111.0</ele><time>2016-06-18T06:12:38.321Z</time></trkpt><trkpt lat="57.788835" lon="14.24089"><ele>111.0</ele><time>2016-06-18T06:12:39.309Z</time></trkpt><trkpt lat="57.788775" lon="14.24074"><ele>111.0</ele><time>2016-06-18T06:12:40.315Z</time></trkpt><trkpt lat="57.788745" lon="14.24066333"><ele>111.0</ele><time>2016-06-18T06:12:41.306Z</time></trkpt><trkpt lat="57.788745" lon="14.24066333"><ele>111.0</ele><time>2016-06-18T06:12:42.288Z</time></trkpt><trkpt lat="57.78868833" lon="14.24050833"><ele>110.0</ele><time>2016-06-18T06:12:43.284Z</time></trkpt><trkpt lat="57.78868833" lon="14.24050833"><ele>110.0</ele><time>2016-06-18T06:12:44.308Z</time></trkpt><trkpt lat="57.78863833" lon="14.24034833"><ele>111.0</ele><time>2016-06-18T06:12:45.315Z</time></trkpt><trkpt lat="57.78863833" lon="14.24034833"><ele>111.0</ele><time>2016-06-18T06:12:46.297Z</time></trkpt><trkpt lat="57.78858833" lon="14.240185"><ele>110.0</ele><time>2016-06-18T06:12:47.293Z</time></trkpt><trkpt lat="57.78858833" lon="14.240185"><ele>110.0</ele><time>2016-06-18T06:12:48.288Z</time></trkpt><trkpt lat="57.78854" lon="14.240015"><ele>110.0</ele><time>2016-06-18T06:12:49.295Z</time></trkpt><trkpt lat="57.78851833" lon="14.23991833"><ele>110.0</ele><time>2016-06-18T06:12:50.288Z</time></trkpt><trkpt lat="57.78851833" lon="14.23991833"><ele>110.0</ele><time>2016-06-18T06:12:51.288Z</time></trkpt><trkpt lat="57.78848" lon="14.23971"><ele>110.0</ele><time>2016-06-18T06:12:52.295Z</time></trkpt><trkpt lat="57.78846167" lon="14.23959667"><ele>109.0</ele><time>2016-06-18T06:12:53.288Z</time></trkpt><trkpt lat="57.78846167" lon="14.23959667"><ele>109.0</ele><time>2016-06-18T06:12:54.295Z</time></trkpt><trkpt lat="57.78842833" lon="14.239355"><ele>109.0</ele><time>2016-06-18T06:12:55.302Z</time></trkpt><trkpt lat="57.78841" lon="14.23922333"><ele>108.0</ele><time>2016-06-18T06:12:56.314Z</time></trkpt><trkpt lat="57.78841" lon="14.23922333"><ele>108.0</ele><time>2016-06-18T06:12:57.287Z</time></trkpt><trkpt lat="57.78836167" lon="14.23895"><ele>108.0</ele><time>2016-06-18T06:12:58.294Z</time></trkpt><trkpt lat="57.78836167" lon="14.23895"><ele>108.0</ele><time>2016-06-18T06:12:59.316Z</time></trkpt><trkpt lat="57.788315" lon="14.238665"><ele>108.0</ele><time>2016-06-18T06:13:00.308Z</time></trkpt><trkpt lat="57.788315" lon="14.238665"><ele>108.0</ele><time>2016-06-18T06:13:01.289Z</time></trkpt><trkpt lat="57.78826833" lon="14.23838167"><ele>107.0</ele><time>2016-06-18T06:13:02.296Z</time></trkpt><trkpt lat="57.78826833" lon="14.23838167"><ele>107.0</ele><time>2016-06-18T06:13:03.302Z</time></trkpt><trkpt lat="57.78822333" lon="14.23811167"><ele>107.0</ele><time>2016-06-18T06:13:04.309Z</time></trkpt><trkpt lat="57.7882" lon="14.23798667"><ele>107.0</ele><time>2016-06-18T06:13:05.310Z</time></trkpt><trkpt lat="57.7882" lon="14.23798667"><ele>107.0</ele><time>2016-06-18T06:13:06.292Z</time></trkpt><trkpt lat="57.788155" lon="14.23774833"><ele>107.0</ele><time>2016-06-18T06:13:07.299Z</time></trkpt><trkpt lat="57.788135" lon="14.23764333"><ele>107.0</ele><time>2016-06-18T06:13:08.298Z</time></trkpt><trkpt lat="57.788135" lon="14.23764333"><ele>107.0</ele><time>2016-06-18T06:13:09.313Z</time></trkpt><trkpt lat="57.7881" lon="14.23744333"><ele>107.0</ele><time>2016-06-18T06:13:10.320Z</time></trkpt><trkpt lat="57.7881" lon="14.23744333"><ele>107.0</ele><time>2016-06-18T06:13:11.300Z</time></trkpt><trkpt lat="57.78805333" lon="14.237235"><ele>108.0</ele><time>2016-06-18T06:13:12.313Z</time></trkpt><trkpt lat="57.78803" lon="14.23712667"><ele>108.0</ele><time>2016-06-18T06:13:13.301Z</time></trkpt><trkpt lat="57.78800667" lon="14.23701833"><ele>108.0</ele><time>2016-06-18T06:13:14.284Z</time></trkpt><trkpt lat="57.78800667" lon="14.23701833"><ele>108.0</ele><time>2016-06-18T06:13:15.304Z</time></trkpt><trkpt lat="57.78796667" lon="14.23679667"><ele>108.0</ele><time>2016-06-18T06:13:16.312Z</time></trkpt><trkpt lat="57.78796667" lon="14.23679667"><ele>108.0</ele><time>2016-06-18T06:13:17.296Z</time></trkpt><trkpt lat="57.78792667" lon="14.23658833"><ele>108.0</ele><time>2016-06-18T06:13:18.287Z</time></trkpt><trkpt lat="57.78792667" lon="14.23658833"><ele>108.0</ele><time>2016-06-18T06:13:19.289Z</time></trkpt><trkpt lat="57.78788" lon="14.23636167"><ele>109.0</ele><time>2016-06-18T06:13:20.297Z</time></trkpt><trkpt lat="57.78788" lon="14.23636167"><ele>109.0</ele><time>2016-06-18T06:13:21.294Z</time></trkpt><trkpt lat="57.78781833" lon="14.23612833"><ele>110.0</ele><time>2016-06-18T06:13:22.318Z</time></trkpt><trkpt lat="57.78781833" lon="14.23612833"><ele>110.0</ele><time>2016-06-18T06:13:23.309Z</time></trkpt><trkpt lat="57.78775667" lon="14.23590833"><ele>110.0</ele><time>2016-06-18T06:13:24.316Z</time></trkpt><trkpt lat="57.78772667" lon="14.23581"><ele>110.0</ele><time>2016-06-18T06:13:25.314Z</time></trkpt><trkpt lat="57.78770167" lon="14.23572667"><ele>110.0</ele><time>2016-06-18T06:13:26.293Z</time></trkpt><trkpt lat="57.78770167" lon="14.23572667"><ele>110.0</ele><time>2016-06-18T06:13:27.316Z</time></trkpt><trkpt lat="57.787665" lon="14.2356"><ele>111.0</ele><time>2016-06-18T06:13:28.283Z</time></trkpt><trkpt lat="57.787665" lon="14.2356"><ele>111.0</ele><time>2016-06-18T06:13:29.304Z</time></trkpt><trkpt lat="57.787635" lon="14.23552167"><ele>111.0</ele><time>2016-06-18T06:13:30.311Z</time></trkpt><trkpt lat="57.78761833" lon="14.23548333"><ele>111.0</ele><time>2016-06-18T06:13:31.308Z</time></trkpt><trkpt lat="57.78760167" lon="14.235445"><ele>111.0</ele><time>2016-06-18T06:13:32.282Z</time></trkpt><trkpt lat="57.78760167" lon="14.235445"><ele>111.0</ele><time>2016-06-18T06:13:33.305Z</time></trkpt><trkpt lat="57.78757" lon="14.23535833"><ele>112.0</ele><time>2016-06-18T06:13:34.313Z</time></trkpt><trkpt lat="57.78757" lon="14.23535833"><ele>112.0</ele><time>2016-06-18T06:13:35.295Z</time></trkpt><trkpt lat="57.78751833" lon="14.23526833"><ele>112.0</ele><time>2016-06-18T06:13:36.283Z</time></trkpt><trkpt lat="57.78751833" lon="14.23526833"><ele>112.0</ele><time>2016-06-18T06:13:37.289Z</time></trkpt><trkpt lat="57.78746333" lon="14.23518833"><ele>113.0</ele><time>2016-06-18T06:13:38.296Z</time></trkpt><trkpt lat="57.78746333" lon="14.23518833"><ele>113.0</ele><time>2016-06-18T06:13:39.318Z</time></trkpt><trkpt lat="57.787405" lon="14.23510333"><ele>113.0</ele><time>2016-06-18T06:13:40.321Z</time></trkpt><trkpt lat="57.787405" lon="14.23510333"><ele>113.0</ele><time>2016-06-18T06:13:41.300Z</time></trkpt><trkpt lat="57.787345" lon="14.23499333"><ele>114.0</ele><time>2016-06-18T06:13:42.318Z</time></trkpt><trkpt lat="57.787345" lon="14.23499333"><ele>114.0</ele><time>2016-06-18T06:13:43.317Z</time></trkpt><trkpt lat="57.78728" lon="14.23486167"><ele>114.0</ele><time>2016-06-18T06:13:44.292Z</time></trkpt><trkpt lat="57.78728" lon="14.23486167"><ele>114.0</ele><time>2016-06-18T06:13:45.317Z</time></trkpt><trkpt lat="57.787215" lon="14.234725"><ele>115.0</ele><time>2016-06-18T06:13:46.288Z</time></trkpt><trkpt lat="57.787215" lon="14.234725"><ele>115.0</ele><time>2016-06-18T06:13:47.296Z</time></trkpt><trkpt lat="57.78716667" lon="14.23456167"><ele>115.0</ele><time>2016-06-18T06:13:48.302Z</time></trkpt><trkpt lat="57.78716667" lon="14.23456167"><ele>115.0</ele><time>2016-06-18T06:13:49.286Z</time></trkpt><trkpt lat="57.78714333" lon="14.23435"><ele>115.0</ele><time>2016-06-18T06:13:50.307Z</time></trkpt><trkpt lat="57.78714333" lon="14.23435"><ele>115.0</ele><time>2016-06-18T06:13:51.319Z</time></trkpt><trkpt lat="57.78712" lon="14.23413833"><ele>114.0</ele><time>2016-06-18T06:13:52.286Z</time></trkpt><trkpt lat="57.78709333" lon="14.23404667"><ele>114.0</ele><time>2016-06-18T06:13:53.298Z</time></trkpt><trkpt lat="57.78709333" lon="14.23404667"><ele>114.0</ele><time>2016-06-18T06:13:54.300Z</time></trkpt><trkpt lat="57.78700333" lon="14.23391"><ele>114.0</ele><time>2016-06-18T06:13:55.307Z</time></trkpt><trkpt lat="57.78695" lon="14.23386"><ele>114.0</ele><time>2016-06-18T06:13:56.294Z</time></trkpt><trkpt lat="57.78695" lon="14.23386"><ele>114.0</ele><time>2016-06-18T06:13:57.297Z</time></trkpt><trkpt lat="57.78683167" lon="14.23376667"><ele>114.0</ele><time>2016-06-18T06:13:58.304Z</time></trkpt><trkpt lat="57.78683167" lon="14.23376667"><ele>114.0</ele><time>2016-06-18T06:13:59.317Z</time></trkpt><trkpt lat="57.78671" lon="14.23366"><ele>113.0</ele><time>2016-06-18T06:14:00.307Z</time></trkpt><trkpt lat="57.78671" lon="14.23366"><ele>113.0</ele><time>2016-06-18T06:14:01.313Z</time></trkpt><trkpt lat="57.78657333" lon="14.23353167"><ele>113.0</ele><time>2016-06-18T06:14:02.320Z</time></trkpt><trkpt lat="57.78657333" lon="14.23353167"><ele>113.0</ele><time>2016-06-18T06:14:03.310Z</time></trkpt><trkpt lat="57.78643333" lon="14.23338833"><ele>113.0</ele><time>2016-06-18T06:14:04.302Z</time></trkpt><trkpt lat="57.78643333" lon="14.23338833"><ele>113.0</ele><time>2016-06-18T06:14:05.284Z</time></trkpt><trkpt lat="57.78629167" lon="14.23322833"><ele>113.0</ele><time>2016-06-18T06:14:06.292Z</time></trkpt><trkpt lat="57.786225" lon="14.233135"><ele>113.0</ele><time>2016-06-18T06:14:07.296Z</time></trkpt><trkpt lat="57.786225" lon="14.233135"><ele>113.0</ele><time>2016-06-18T06:14:08.292Z</time></trkpt><trkpt lat="57.78609333" lon="14.23293833"><ele>113.0</ele><time>2016-06-18T06:14:09.298Z</time></trkpt><trkpt lat="57.78609333" lon="14.23293833"><ele>113.0</ele><time>2016-06-18T06:14:10.321Z</time></trkpt><trkpt lat="57.78598" lon="14.23271167"><ele>113.0</ele><time>2016-06-18T06:14:11.319Z</time></trkpt><trkpt lat="57.78598" lon="14.23271167"><ele>113.0</ele><time>2016-06-18T06:14:12.310Z</time></trkpt><trkpt lat="57.78587333" lon="14.23248667"><ele>114.0</ele><time>2016-06-18T06:14:13.321Z</time></trkpt><trkpt lat="57.785825" lon="14.23237167"><ele>114.0</ele><time>2016-06-18T06:14:14.305Z</time></trkpt><trkpt lat="57.785825" lon="14.23237167"><ele>114.0</ele><time>2016-06-18T06:14:15.286Z</time></trkpt><trkpt lat="57.78575333" lon="14.23213667"><ele>115.0</ele><time>2016-06-18T06:14:16.297Z</time></trkpt><trkpt lat="57.78575333" lon="14.23213667"><ele>115.0</ele><time>2016-06-18T06:14:17.318Z</time></trkpt><trkpt lat="57.78570167" lon="14.23189833"><ele>115.0</ele><time>2016-06-18T06:14:18.291Z</time></trkpt><trkpt lat="57.78570167" lon="14.23189833"><ele>115.0</ele><time>2016-06-18T06:14:19.297Z</time></trkpt><trkpt lat="57.78566167" lon="14.23166833"><ele>116.0</ele><time>2016-06-18T06:14:20.286Z</time></trkpt><trkpt lat="57.78566167" lon="14.23166833"><ele>116.0</ele><time>2016-06-18T06:14:21.308Z</time></trkpt><trkpt lat="57.78562667" lon="14.23144333"><ele>116.0</ele><time>2016-06-18T06:14:22.314Z</time></trkpt><trkpt lat="57.78562667" lon="14.23144333"><ele>116.0</ele><time>2016-06-18T06:14:23.293Z</time></trkpt><trkpt lat="57.78558833" lon="14.23121667"><ele>117.0</ele><time>2016-06-18T06:14:24.284Z</time></trkpt><trkpt lat="57.78558833" lon="14.23121667"><ele>117.0</ele><time>2016-06-18T06:14:25.309Z</time></trkpt><trkpt lat="57.78554833" lon="14.23098667"><ele>117.0</ele><time>2016-06-18T06:14:26.316Z</time></trkpt><trkpt lat="57.78554833" lon="14.23098667"><ele>117.0</ele><time>2016-06-18T06:14:27.296Z</time></trkpt><trkpt lat="57.78551333" lon="14.23074333"><ele>118.0</ele><time>2016-06-18T06:14:28.290Z</time></trkpt><trkpt lat="57.78551333" lon="14.23074333"><ele>118.0</ele><time>2016-06-18T06:14:29.286Z</time></trkpt><trkpt lat="57.78547667" lon="14.23049"><ele>118.0</ele><time>2016-06-18T06:14:30.294Z</time></trkpt><trkpt lat="57.78547667" lon="14.23049"><ele>118.0</ele><time>2016-06-18T06:14:31.317Z</time></trkpt><trkpt lat="57.785435" lon="14.23024167"><ele>119.0</ele><time>2016-06-18T06:14:32.292Z</time></trkpt><trkpt lat="57.785435" lon="14.23024167"><ele>119.0</ele><time>2016-06-18T06:14:33.292Z</time></trkpt><trkpt lat="57.78538333" lon="14.22999667"><ele>119.0</ele><time>2016-06-18T06:14:34.298Z</time></trkpt><trkpt lat="57.78536333" lon="14.22987167"><ele>119.0</ele><time>2016-06-18T06:14:35.283Z</time></trkpt><trkpt lat="57.78536333" lon="14.22987167"><ele>119.0</ele><time>2016-06-18T06:14:36.294Z</time></trkpt><trkpt lat="57.78531833" lon="14.22962333"><ele>119.0</ele><time>2016-06-18T06:14:37.301Z</time></trkpt><trkpt lat="57.78529667" lon="14.22949667"><ele>119.0</ele><time>2016-06-18T06:14:38.299Z</time></trkpt><trkpt lat="57.78529667" lon="14.22949667"><ele>119.0</ele><time>2016-06-18T06:14:39.319Z</time></trkpt><trkpt lat="57.78524667" lon="14.22924833"><ele>119.0</ele><time>2016-06-18T06:14:40.286Z</time></trkpt><trkpt lat="57.785225" lon="14.229125"><ele>120.0</ele><time>2016-06-18T06:14:41.284Z</time></trkpt><trkpt lat="57.785225" lon="14.229125"><ele>120.0</ele><time>2016-06-18T06:14:42.306Z</time></trkpt><trkpt lat="57.78518333" lon="14.22887167"><ele>120.0</ele><time>2016-06-18T06:14:43.315Z</time></trkpt><trkpt lat="57.78516167" lon="14.22874167"><ele>119.0</ele><time>2016-06-18T06:14:44.283Z</time></trkpt><trkpt lat="57.78516167" lon="14.22874167"><ele>119.0</ele><time>2016-06-18T06:14:45.292Z</time></trkpt><trkpt lat="57.78512" lon="14.22848167"><ele>119.0</ele><time>2016-06-18T06:14:46.299Z</time></trkpt><trkpt lat="57.78509667" lon="14.22835333"><ele>120.0</ele><time>2016-06-18T06:14:47.304Z</time></trkpt><trkpt lat="57.78509667" lon="14.22835333"><ele>120.0</ele><time>2016-06-18T06:14:48.313Z</time></trkpt><trkpt lat="57.785045" lon="14.22809667"><ele>120.0</ele><time>2016-06-18T06:14:49.283Z</time></trkpt><trkpt lat="57.78502" lon="14.227985"><ele>120.0</ele><time>2016-06-18T06:14:50.312Z</time></trkpt><trkpt lat="57.78502" lon="14.227985"><ele>120.0</ele><time>2016-06-18T06:14:51.295Z</time></trkpt><trkpt lat="57.78497" lon="14.227735"><ele>119.0</ele><time>2016-06-18T06:14:52.301Z</time></trkpt><trkpt lat="57.78497" lon="14.227735"><ele>119.0</ele><time>2016-06-18T06:14:53.288Z</time></trkpt><trkpt lat="57.78491667" lon="14.227485"><ele>119.0</ele><time>2016-06-18T06:14:54.307Z</time></trkpt><trkpt lat="57.78491667" lon="14.227485"><ele>119.0</ele><time>2016-06-18T06:14:55.290Z</time></trkpt><trkpt lat="57.784865" lon="14.22724"><ele>119.0</ele><time>2016-06-18T06:14:56.298Z</time></trkpt><trkpt lat="57.784865" lon="14.22724"><ele>119.0</ele><time>2016-06-18T06:14:57.291Z</time></trkpt><trkpt lat="57.78481833" lon="14.22700167"><ele>120.0</ele><time>2016-06-18T06:14:58.285Z</time></trkpt><trkpt lat="57.78481833" lon="14.22700167"><ele>120.0</ele><time>2016-06-18T06:14:59.309Z</time></trkpt><trkpt lat="57.78477" lon="14.22676667"><ele>120.0</ele><time>2016-06-18T06:15:00.326Z</time></trkpt><trkpt lat="57.78474667" lon="14.22664167"><ele>120.0</ele><time>2016-06-18T06:15:01.306Z</time></trkpt><trkpt lat="57.78472167" lon="14.22652167"><ele>120.0</ele><time>2016-06-18T06:15:02.302Z</time></trkpt><trkpt lat="57.78472167" lon="14.22652167"><ele>120.0</ele><time>2016-06-18T06:15:03.286Z</time></trkpt><trkpt lat="57.78467167" lon="14.22627333"><ele>120.0</ele><time>2016-06-18T06:15:04.298Z</time></trkpt><trkpt lat="57.78467167" lon="14.22627333"><ele>120.0</ele><time>2016-06-18T06:15:05.302Z</time></trkpt><trkpt lat="57.78461167" lon="14.22603167"><ele>120.0</ele><time>2016-06-18T06:15:06.310Z</time></trkpt><trkpt lat="57.78458" lon="14.22591333"><ele>120.0</ele><time>2016-06-18T06:15:07.314Z</time></trkpt><trkpt lat="57.78458" lon="14.22591333"><ele>120.0</ele><time>2016-06-18T06:15:08.296Z</time></trkpt><trkpt lat="57.78451833" lon="14.225675"><ele>120.0</ele><time>2016-06-18T06:15:09.302Z</time></trkpt><trkpt lat="57.784485" lon="14.225555"><ele>120.0</ele><time>2016-06-18T06:15:10.305Z</time></trkpt><trkpt lat="57.784485" lon="14.225555"><ele>120.0</ele><time>2016-06-18T06:15:11.300Z</time></trkpt><trkpt lat="57.78441833" lon="14.225305"><ele>120.0</ele><time>2016-06-18T06:15:12.289Z</time></trkpt><trkpt lat="57.78438667" lon="14.22517667"><ele>120.0</ele><time>2016-06-18T06:15:13.283Z</time></trkpt><trkpt lat="57.78438667" lon="14.22517667"><ele>120.0</ele><time>2016-06-18T06:15:14.307Z</time></trkpt><trkpt lat="57.78431833" lon="14.22492"><ele>119.0</ele><time>2016-06-18T06:15:15.293Z</time></trkpt><trkpt lat="57.78431833" lon="14.22492"><ele>119.0</ele><time>2016-06-18T06:15:16.297Z</time></trkpt><trkpt lat="57.78424833" lon="14.224655"><ele>119.0</ele><time>2016-06-18T06:15:17.305Z</time></trkpt><trkpt lat="57.78424833" lon="14.224655"><ele>119.0</ele><time>2016-06-18T06:15:18.285Z</time></trkpt><trkpt lat="57.78417833" lon="14.22438333"><ele>119.0</ele><time>2016-06-18T06:15:19.292Z</time></trkpt><trkpt lat="57.78417833" lon="14.22438333"><ele>119.0</ele><time>2016-06-18T06:15:20.320Z</time></trkpt><trkpt lat="57.78410333" lon="14.22409333"><ele>119.0</ele><time>2016-06-18T06:15:21.287Z</time></trkpt><trkpt lat="57.78410333" lon="14.22409333"><ele>119.0</ele><time>2016-06-18T06:15:22.311Z</time></trkpt><trkpt lat="57.78403167" lon="14.22380667"><ele>119.0</ele><time>2016-06-18T06:15:23.282Z</time></trkpt><trkpt lat="57.78403167" lon="14.22380667"><ele>119.0</ele><time>2016-06-18T06:15:24.289Z</time></trkpt><trkpt lat="57.78396" lon="14.22353167"><ele>119.0</ele><time>2016-06-18T06:15:25.296Z</time></trkpt><trkpt lat="57.78393" lon="14.22339"><ele>119.0</ele><time>2016-06-18T06:15:26.312Z</time></trkpt><trkpt lat="57.78393" lon="14.22339"><ele>119.0</ele><time>2016-06-18T06:15:27.311Z</time></trkpt><trkpt lat="57.78386667" lon="14.22310833"><ele>119.0</ele><time>2016-06-18T06:15:28.317Z</time></trkpt><trkpt lat="57.78386667" lon="14.22310833"><ele>119.0</ele><time>2016-06-18T06:15:29.300Z</time></trkpt><trkpt lat="57.78380667" lon="14.22285333"><ele>119.0</ele><time>2016-06-18T06:15:30.307Z</time></trkpt><trkpt lat="57.78380667" lon="14.22285333"><ele>119.0</ele><time>2016-06-18T06:15:31.301Z</time></trkpt><trkpt lat="57.78374833" lon="14.222605"><ele>119.0</ele><time>2016-06-18T06:15:32.308Z</time></trkpt><trkpt lat="57.78374833" lon="14.222605"><ele>119.0</ele><time>2016-06-18T06:15:33.290Z</time></trkpt><trkpt lat="57.78369833" lon="14.22234833"><ele>119.0</ele><time>2016-06-18T06:15:34.308Z</time></trkpt><trkpt lat="57.78369833" lon="14.22234833"><ele>119.0</ele><time>2016-06-18T06:15:35.299Z</time></trkpt><trkpt lat="57.78364167" lon="14.22209833"><ele>119.0</ele><time>2016-06-18T06:15:36.306Z</time></trkpt><trkpt lat="57.783615" lon="14.221965"><ele>119.0</ele><time>2016-06-18T06:15:37.298Z</time></trkpt><trkpt lat="57.783595" lon="14.22183167"><ele>120.0</ele><time>2016-06-18T06:15:38.301Z</time></trkpt><trkpt lat="57.783595" lon="14.22183167"><ele>120.0</ele><time>2016-06-18T06:15:39.321Z</time></trkpt><trkpt lat="57.78355833" lon="14.22154833"><ele>120.0</ele><time>2016-06-18T06:15:40.288Z</time></trkpt><trkpt lat="57.78355833" lon="14.22154833"><ele>120.0</ele><time>2016-06-18T06:15:41.312Z</time></trkpt><trkpt lat="57.78351667" lon="14.22125667"><ele>120.0</ele><time>2016-06-18T06:15:42.319Z</time></trkpt><trkpt lat="57.78351667" lon="14.22125667"><ele>120.0</ele><time>2016-06-18T06:15:43.308Z</time></trkpt><trkpt lat="57.78347833" lon="14.22097833"><ele>120.0</ele><time>2016-06-18T06:15:44.318Z</time></trkpt><trkpt lat="57.78347833" lon="14.22097833"><ele>120.0</ele><time>2016-06-18T06:15:45.292Z</time></trkpt><trkpt lat="57.78344" lon="14.22071333"><ele>120.0</ele><time>2016-06-18T06:15:46.299Z</time></trkpt><trkpt lat="57.78341667" lon="14.22058333"><ele>120.0</ele><time>2016-06-18T06:15:47.321Z</time></trkpt><trkpt lat="57.78341667" lon="14.22058333"><ele>120.0</ele><time>2016-06-18T06:15:48.302Z</time></trkpt><trkpt lat="57.78337333" lon="14.22031333"><ele>120.0</ele><time>2016-06-18T06:15:49.309Z</time></trkpt><trkpt lat="57.783355" lon="14.22017"><ele>120.0</ele><time>2016-06-18T06:15:50.314Z</time></trkpt><trkpt lat="57.783355" lon="14.22017"><ele>120.0</ele><time>2016-06-18T06:15:51.299Z</time></trkpt><trkpt lat="57.78331167" lon="14.21987"><ele>119.0</ele><time>2016-06-18T06:15:52.306Z</time></trkpt><trkpt lat="57.78328" lon="14.21971"><ele>119.0</ele><time>2016-06-18T06:15:53.287Z</time></trkpt><trkpt lat="57.78328" lon="14.21971"><ele>119.0</ele><time>2016-06-18T06:15:54.311Z</time></trkpt><trkpt lat="57.78323333" lon="14.219395"><ele>119.0</ele><time>2016-06-18T06:15:55.319Z</time></trkpt><trkpt lat="57.78321" lon="14.219235"><ele>119.0</ele><time>2016-06-18T06:15:56.319Z</time></trkpt><trkpt lat="57.78321" lon="14.219235"><ele>119.0</ele><time>2016-06-18T06:15:57.301Z</time></trkpt><trkpt lat="57.78316833" lon="14.21891667"><ele>118.0</ele><time>2016-06-18T06:15:58.318Z</time></trkpt><trkpt lat="57.78315" lon="14.21875667"><ele>118.0</ele><time>2016-06-18T06:15:59.321Z</time></trkpt><trkpt lat="57.78315" lon="14.21875667"><ele>118.0</ele><time>2016-06-18T06:16:00.305Z</time></trkpt><trkpt lat="57.78311333" lon="14.21842833"><ele>118.0</ele><time>2016-06-18T06:16:01.312Z</time></trkpt><trkpt lat="57.78309" lon="14.21826333"><ele>117.0</ele><time>2016-06-18T06:16:02.313Z</time></trkpt><trkpt lat="57.78309" lon="14.21826333"><ele>117.0</ele><time>2016-06-18T06:16:03.296Z</time></trkpt><trkpt lat="57.78304167" lon="14.21793167"><ele>117.0</ele><time>2016-06-18T06:16:04.304Z</time></trkpt><trkpt lat="57.78301833" lon="14.21776833"><ele>117.0</ele><time>2016-06-18T06:16:05.294Z</time></trkpt><trkpt lat="57.78301833" lon="14.21776833"><ele>117.0</ele><time>2016-06-18T06:16:06.287Z</time></trkpt><trkpt lat="57.782975" lon="14.21744667"><ele>116.0</ele><time>2016-06-18T06:16:07.294Z</time></trkpt><trkpt lat="57.782955" lon="14.217285"><ele>116.0</ele><time>2016-06-18T06:16:08.290Z</time></trkpt><trkpt lat="57.782955" lon="14.217285"><ele>116.0</ele><time>2016-06-18T06:16:09.292Z</time></trkpt><trkpt lat="57.78291167" lon="14.21695"><ele>116.0</ele><time>2016-06-18T06:16:10.298Z</time></trkpt><trkpt lat="57.78291167" lon="14.21695"><ele>116.0</ele><time>2016-06-18T06:16:11.320Z</time></trkpt><trkpt lat="57.78286667" lon="14.21661667"><ele>116.0</ele><time>2016-06-18T06:16:12.292Z</time></trkpt><trkpt lat="57.78286667" lon="14.21661667"><ele>116.0</ele><time>2016-06-18T06:16:13.311Z</time></trkpt><trkpt lat="57.78281833" lon="14.216275"><ele>115.0</ele><time>2016-06-18T06:16:14.318Z</time></trkpt><trkpt lat="57.78281833" lon="14.216275"><ele>115.0</ele><time>2016-06-18T06:16:15.284Z</time></trkpt><trkpt lat="57.78277333" lon="14.21592667"><ele>115.0</ele><time>2016-06-18T06:16:16.291Z</time></trkpt><trkpt lat="57.78277333" lon="14.21592667"><ele>115.0</ele><time>2016-06-18T06:16:17.315Z</time></trkpt><trkpt lat="57.78273167" lon="14.21557333"><ele>114.0</ele><time>2016-06-18T06:16:18.288Z</time></trkpt><trkpt lat="57.78273167" lon="14.21557333"><ele>114.0</ele><time>2016-06-18T06:16:19.288Z</time></trkpt><trkpt lat="57.78269333" lon="14.21521167"><ele>114.0</ele><time>2016-06-18T06:16:20.295Z</time></trkpt><trkpt lat="57.782675" lon="14.21503167"><ele>113.0</ele><time>2016-06-18T06:16:21.284Z</time></trkpt><trkpt lat="57.782675" lon="14.21503167"><ele>113.0</ele><time>2016-06-18T06:16:22.306Z</time></trkpt><trkpt lat="57.78263667" lon="14.21467333"><ele>113.0</ele><time>2016-06-18T06:16:23.318Z</time></trkpt><trkpt lat="57.78261833" lon="14.21449167"><ele>112.0</ele><time>2016-06-18T06:16:24.296Z</time></trkpt><trkpt lat="57.78259833" lon="14.21431"><ele>112.0</ele><time>2016-06-18T06:16:25.319Z</time></trkpt><trkpt lat="57.78259833" lon="14.21431"><ele>112.0</ele><time>2016-06-18T06:16:26.300Z</time></trkpt><trkpt lat="57.78255" lon="14.21394167"><ele>111.0</ele><time>2016-06-18T06:16:27.287Z</time></trkpt><trkpt lat="57.782525" lon="14.21374667"><ele>110.0</ele><time>2016-06-18T06:16:28.308Z</time></trkpt><trkpt lat="57.782525" lon="14.21374667"><ele>110.0</ele><time>2016-06-18T06:16:29.291Z</time></trkpt><trkpt lat="57.78248167" lon="14.21335167"><ele>109.0</ele><time>2016-06-18T06:16:30.297Z</time></trkpt><trkpt lat="57.78248167" lon="14.21335167"><ele>109.0</ele><time>2016-06-18T06:16:31.310Z</time></trkpt><trkpt lat="57.78243667" lon="14.21295833"><ele>108.0</ele><time>2016-06-18T06:16:32.317Z</time></trkpt><trkpt lat="57.78243667" lon="14.21295833"><ele>108.0</ele><time>2016-06-18T06:16:33.298Z</time></trkpt><trkpt lat="57.78239" lon="14.212555"><ele>107.0</ele><time>2016-06-18T06:16:34.294Z</time></trkpt><trkpt lat="57.78236833" lon="14.21235833"><ele>107.0</ele><time>2016-06-18T06:16:35.321Z</time></trkpt><trkpt lat="57.78236833" lon="14.21235833"><ele>107.0</ele><time>2016-06-18T06:16:36.303Z</time></trkpt><trkpt lat="57.78232333" lon="14.21195333"><ele>106.0</ele><time>2016-06-18T06:16:37.290Z</time></trkpt><trkpt lat="57.78229667" lon="14.211745"><ele>105.0</ele><time>2016-06-18T06:16:38.301Z</time></trkpt><trkpt lat="57.78229667" lon="14.211745"><ele>105.0</ele><time>2016-06-18T06:16:39.299Z</time></trkpt><trkpt lat="57.78224167" lon="14.21132833"><ele>104.0</ele><time>2016-06-18T06:16:40.296Z</time></trkpt><trkpt lat="57.78224167" lon="14.21132833"><ele>104.0</ele><time>2016-06-18T06:16:41.289Z</time></trkpt><trkpt lat="57.78219833" lon="14.21092333"><ele>103.0</ele><time>2016-06-18T06:16:42.299Z</time></trkpt><trkpt lat="57.78218" lon="14.21071"><ele>102.0</ele><time>2016-06-18T06:16:43.298Z</time></trkpt><trkpt lat="57.78216167" lon="14.210495"><ele>101.0</ele><time>2016-06-18T06:16:44.313Z</time></trkpt><trkpt lat="57.78216167" lon="14.210495"><ele>101.0</ele><time>2016-06-18T06:16:45.298Z</time></trkpt><trkpt lat="57.78212667" lon="14.21005833"><ele>100.0</ele><time>2016-06-18T06:16:46.319Z</time></trkpt><trkpt lat="57.78212667" lon="14.21005833"><ele>100.0</ele><time>2016-06-18T06:16:47.303Z</time></trkpt><trkpt lat="57.78209167" lon="14.20963833"><ele>99.0</ele><time>2016-06-18T06:16:48.311Z</time></trkpt><trkpt lat="57.78207667" lon="14.209445"><ele>98.0</ele><time>2016-06-18T06:16:49.283Z</time></trkpt><trkpt lat="57.78206" lon="14.20924667"><ele>97.0</ele><time>2016-06-18T06:16:50.312Z</time></trkpt><trkpt lat="57.78206" lon="14.20924667"><ele>97.0</ele><time>2016-06-18T06:16:51.294Z</time></trkpt><trkpt lat="57.78203167" lon="14.208845"><ele>96.0</ele><time>2016-06-18T06:16:52.318Z</time></trkpt><trkpt lat="57.78203167" lon="14.208845"><ele>96.0</ele><time>2016-06-18T06:16:53.310Z</time></trkpt><trkpt lat="57.782" lon="14.20844"><ele>95.0</ele><time>2016-06-18T06:16:54.282Z</time></trkpt><trkpt lat="57.781985" lon="14.20824333"><ele>95.0</ele><time>2016-06-18T06:16:55.308Z</time></trkpt><trkpt lat="57.781965" lon="14.20804667"><ele>95.0</ele><time>2016-06-18T06:16:56.295Z</time></trkpt><trkpt lat="57.781965" lon="14.20804667"><ele>95.0</ele><time>2016-06-18T06:16:57.312Z</time></trkpt><trkpt lat="57.78193167" lon="14.20766167"><ele>94.0</ele><time>2016-06-18T06:16:58.288Z</time></trkpt><trkpt lat="57.78191667" lon="14.20747"><ele>94.0</ele><time>2016-06-18T06:16:59.311Z</time></trkpt><trkpt lat="57.78191667" lon="14.20747"><ele>94.0</ele><time>2016-06-18T06:17:00.293Z</time></trkpt><trkpt lat="57.781885" lon="14.20708833"><ele>94.0</ele><time>2016-06-18T06:17:01.297Z</time></trkpt><trkpt lat="57.781885" lon="14.20708833"><ele>94.0</ele><time>2016-06-18T06:17:02.292Z</time></trkpt><trkpt lat="57.78185333" lon="14.20670667"><ele>94.0</ele><time>2016-06-18T06:17:03.300Z</time></trkpt><trkpt lat="57.781845" lon="14.20651667"><ele>95.0</ele><time>2016-06-18T06:17:04.298Z</time></trkpt><trkpt lat="57.781845" lon="14.20651667"><ele>95.0</ele><time>2016-06-18T06:17:05.291Z</time></trkpt><trkpt lat="57.78181167" lon="14.20614333"><ele>95.0</ele><time>2016-06-18T06:17:06.301Z</time></trkpt><trkpt lat="57.78181167" lon="14.20614333"><ele>95.0</ele><time>2016-06-18T06:17:07.289Z</time></trkpt><trkpt lat="57.78178" lon="14.20577333"><ele>94.0</ele><time>2016-06-18T06:17:08.312Z</time></trkpt><trkpt lat="57.78178" lon="14.20577333"><ele>94.0</ele><time>2016-06-18T06:17:09.295Z</time></trkpt><trkpt lat="57.781735" lon="14.20540167"><ele>94.0</ele><time>2016-06-18T06:17:10.302Z</time></trkpt><trkpt lat="57.781735" lon="14.20540167"><ele>94.0</ele><time>2016-06-18T06:17:11.300Z</time></trkpt><trkpt lat="57.7817" lon="14.20502667"><ele>94.0</ele><time>2016-06-18T06:17:12.310Z</time></trkpt><trkpt lat="57.7817" lon="14.20502667"><ele>94.0</ele><time>2016-06-18T06:17:13.291Z</time></trkpt><trkpt lat="57.78167667" lon="14.20464667"><ele>95.0</ele><time>2016-06-18T06:17:14.301Z</time></trkpt><trkpt lat="57.78167667" lon="14.20464667"><ele>95.0</ele><time>2016-06-18T06:17:15.284Z</time></trkpt><trkpt lat="57.78166333" lon="14.20426"><ele>95.0</ele><time>2016-06-18T06:17:16.307Z</time></trkpt><trkpt lat="57.78166333" lon="14.20426"><ele>95.0</ele><time>2016-06-18T06:17:17.291Z</time></trkpt><trkpt lat="57.78163333" lon="14.20387"><ele>94.0</ele><time>2016-06-18T06:17:18.299Z</time></trkpt><trkpt lat="57.78162" lon="14.203675"><ele>94.0</ele><time>2016-06-18T06:17:19.283Z</time></trkpt><trkpt lat="57.78160333" lon="14.20347833"><ele>94.0</ele><time>2016-06-18T06:17:20.310Z</time></trkpt><trkpt lat="57.78160333" lon="14.20347833"><ele>94.0</ele><time>2016-06-18T06:17:21.310Z</time></trkpt><trkpt lat="57.78156" lon="14.20309167"><ele>94.0</ele><time>2016-06-18T06:17:22.317Z</time></trkpt><trkpt lat="57.78156" lon="14.20309167"><ele>94.0</ele><time>2016-06-18T06:17:23.300Z</time></trkpt><trkpt lat="57.78152167" lon="14.20270333"><ele>93.0</ele><time>2016-06-18T06:17:24.283Z</time></trkpt><trkpt lat="57.78152167" lon="14.20270333"><ele>93.0</ele><time>2016-06-18T06:17:25.314Z</time></trkpt><trkpt lat="57.78147333" lon="14.20231833"><ele>93.0</ele><time>2016-06-18T06:17:26.321Z</time></trkpt><trkpt lat="57.78147333" lon="14.20231833"><ele>93.0</ele><time>2016-06-18T06:17:27.304Z</time></trkpt><trkpt lat="57.781445" lon="14.201925"><ele>93.0</ele><time>2016-06-18T06:17:28.300Z</time></trkpt><trkpt lat="57.781445" lon="14.201925"><ele>93.0</ele><time>2016-06-18T06:17:29.294Z</time></trkpt><trkpt lat="57.78141833" lon="14.20153167"><ele>92.0</ele><time>2016-06-18T06:17:30.302Z</time></trkpt><trkpt lat="57.78140167" lon="14.20133667"><ele>92.0</ele><time>2016-06-18T06:17:31.287Z</time></trkpt><trkpt lat="57.78138833" lon="14.201145"><ele>92.0</ele><time>2016-06-18T06:17:32.311Z</time></trkpt><trkpt lat="57.78138833" lon="14.201145"><ele>92.0</ele><time>2016-06-18T06:17:33.292Z</time></trkpt><trkpt lat="57.781345" lon="14.20077"><ele>92.0</ele><time>2016-06-18T06:17:34.308Z</time></trkpt><trkpt lat="57.781345" lon="14.20077"><ele>92.0</ele><time>2016-06-18T06:17:35.297Z</time></trkpt><trkpt lat="57.781315" lon="14.2004"><ele>91.0</ele><time>2016-06-18T06:17:36.304Z</time></trkpt><trkpt lat="57.78129667" lon="14.200215"><ele>91.0</ele><time>2016-06-18T06:17:37.294Z</time></trkpt><trkpt lat="57.78128667" lon="14.20003167"><ele>91.0</ele><time>2016-06-18T06:17:38.296Z</time></trkpt><trkpt lat="57.78128667" lon="14.20003167"><ele>91.0</ele><time>2016-06-18T06:17:39.304Z</time></trkpt><trkpt lat="57.78126833" lon="14.19967167"><ele>91.0</ele><time>2016-06-18T06:17:40.312Z</time></trkpt><trkpt lat="57.78124833" lon="14.19949333"><ele>91.0</ele><time>2016-06-18T06:17:41.286Z</time></trkpt><trkpt lat="57.78124833" lon="14.19949333"><ele>91.0</ele><time>2016-06-18T06:17:42.293Z</time></trkpt><trkpt lat="57.78124" lon="14.19914"><ele>91.0</ele><time>2016-06-18T06:17:43.305Z</time></trkpt><trkpt lat="57.78124" lon="14.19896833"><ele>91.0</ele><time>2016-06-18T06:17:44.305Z</time></trkpt><trkpt lat="57.78124" lon="14.19896833"><ele>91.0</ele><time>2016-06-18T06:17:45.296Z</time></trkpt><trkpt lat="57.78123833" lon="14.19862667"><ele>91.0</ele><time>2016-06-18T06:17:46.302Z</time></trkpt><trkpt lat="57.78124" lon="14.19846333"><ele>92.0</ele><time>2016-06-18T06:17:47.301Z</time></trkpt><trkpt lat="57.78124" lon="14.19846333"><ele>92.0</ele><time>2016-06-18T06:17:48.306Z</time></trkpt><trkpt lat="57.78125" lon="14.19818833"><ele>92.0</ele><time>2016-06-18T06:17:49.312Z</time></trkpt><trkpt lat="57.78125" lon="14.19806333"><ele>92.0</ele><time>2016-06-18T06:17:50.319Z</time></trkpt><trkpt lat="57.78125" lon="14.19806333"><ele>92.0</ele><time>2016-06-18T06:17:51.286Z</time></trkpt><trkpt lat="57.78126167" lon="14.19781667"><ele>92.0</ele><time>2016-06-18T06:17:52.304Z</time></trkpt><trkpt lat="57.78127" lon="14.197695"><ele>93.0</ele><time>2016-06-18T06:17:53.298Z</time></trkpt><trkpt lat="57.78127" lon="14.197695"><ele>93.0</ele><time>2016-06-18T06:17:54.300Z</time></trkpt><trkpt lat="57.78126167" lon="14.19745333"><ele>93.0</ele><time>2016-06-18T06:17:55.307Z</time></trkpt><trkpt lat="57.78124833" lon="14.197335"><ele>93.0</ele><time>2016-06-18T06:17:56.288Z</time></trkpt><trkpt lat="57.78124833" lon="14.197335"><ele>93.0</ele><time>2016-06-18T06:17:57.316Z</time></trkpt><trkpt lat="57.78123667" lon="14.19707667"><ele>94.0</ele><time>2016-06-18T06:17:58.282Z</time></trkpt><trkpt lat="57.78123167" lon="14.19694"><ele>94.0</ele><time>2016-06-18T06:17:59.314Z</time></trkpt><trkpt lat="57.78123167" lon="14.19694"><ele>94.0</ele><time>2016-06-18T06:18:00.295Z</time></trkpt><trkpt lat="57.78123333" lon="14.19665"><ele>94.0</ele><time>2016-06-18T06:18:01.302Z</time></trkpt><trkpt lat="57.78123667" lon="14.19650333"><ele>94.0</ele><time>2016-06-18T06:18:02.300Z</time></trkpt><trkpt lat="57.78123667" lon="14.19650333"><ele>94.0</ele><time>2016-06-18T06:18:03.316Z</time></trkpt><trkpt lat="57.781255" lon="14.19620333"><ele>95.0</ele><time>2016-06-18T06:18:04.283Z</time></trkpt><trkpt lat="57.78126833" lon="14.19605167"><ele>95.0</ele><time>2016-06-18T06:18:05.308Z</time></trkpt><trkpt lat="57.78126833" lon="14.19605167"><ele>95.0</ele><time>2016-06-18T06:18:06.293Z</time></trkpt><trkpt lat="57.78128333" lon="14.19574333"><ele>95.0</ele><time>2016-06-18T06:18:07.299Z</time></trkpt><trkpt lat="57.78128667" lon="14.19559167"><ele>95.0</ele><time>2016-06-18T06:18:08.283Z</time></trkpt><trkpt lat="57.78128667" lon="14.19559167"><ele>95.0</ele><time>2016-06-18T06:18:09.303Z</time></trkpt><trkpt lat="57.781295" lon="14.19528667"><ele>95.0</ele><time>2016-06-18T06:18:10.311Z</time></trkpt><trkpt lat="57.781295" lon="14.19528667"><ele>95.0</ele><time>2016-06-18T06:18:11.310Z</time></trkpt><trkpt lat="57.78129833" lon="14.19496833"><ele>95.0</ele><time>2016-06-18T06:18:12.303Z</time></trkpt><trkpt lat="57.78129833" lon="14.19496833"><ele>95.0</ele><time>2016-06-18T06:18:13.290Z</time></trkpt><trkpt lat="57.7813" lon="14.194645"><ele>96.0</ele><time>2016-06-18T06:18:14.287Z</time></trkpt><trkpt lat="57.7813" lon="14.194645"><ele>96.0</ele><time>2016-06-18T06:18:15.313Z</time></trkpt><trkpt lat="57.78130667" lon="14.194315"><ele>96.0</ele><time>2016-06-18T06:18:16.284Z</time></trkpt><trkpt lat="57.78130667" lon="14.194315"><ele>96.0</ele><time>2016-06-18T06:18:17.307Z</time></trkpt><trkpt lat="57.78131167" lon="14.19398833"><ele>96.0</ele><time>2016-06-18T06:18:18.315Z</time></trkpt><trkpt lat="57.781315" lon="14.19382667"><ele>96.0</ele><time>2016-06-18T06:18:19.318Z</time></trkpt><trkpt lat="57.78131667" lon="14.19366833"><ele>96.0</ele><time>2016-06-18T06:18:20.316Z</time></trkpt><trkpt lat="57.78131667" lon="14.19366833"><ele>96.0</ele><time>2016-06-18T06:18:21.298Z</time></trkpt><trkpt lat="57.78131833" lon="14.19336333"><ele>96.0</ele><time>2016-06-18T06:18:22.318Z</time></trkpt><trkpt lat="57.78131833" lon="14.19336333"><ele>96.0</ele><time>2016-06-18T06:18:23.319Z</time></trkpt><trkpt lat="57.78132667" lon="14.19307167"><ele>96.0</ele><time>2016-06-18T06:18:24.286Z</time></trkpt><trkpt lat="57.78132667" lon="14.19307167"><ele>96.0</ele><time>2016-06-18T06:18:25.313Z</time></trkpt><trkpt lat="57.78134" lon="14.19278667"><ele>96.0</ele><time>2016-06-18T06:18:26.291Z</time></trkpt><trkpt lat="57.78134" lon="14.19278667"><ele>96.0</ele><time>2016-06-18T06:18:27.313Z</time></trkpt><trkpt lat="57.78135333" lon="14.19250333"><ele>96.0</ele><time>2016-06-18T06:18:28.320Z</time></trkpt><trkpt lat="57.78135333" lon="14.19250333"><ele>96.0</ele><time>2016-06-18T06:18:29.301Z</time></trkpt><trkpt lat="57.78137333" lon="14.19220667"><ele>96.0</ele><time>2016-06-18T06:18:30.293Z</time></trkpt><trkpt lat="57.78137333" lon="14.19220667"><ele>96.0</ele><time>2016-06-18T06:18:31.303Z</time></trkpt><trkpt lat="57.78137667" lon="14.191915"><ele>96.0</ele><time>2016-06-18T06:18:32.311Z</time></trkpt><trkpt lat="57.78137667" lon="14.191915"><ele>96.0</ele><time>2016-06-18T06:18:33.294Z</time></trkpt><trkpt lat="57.78137667" lon="14.19162"><ele>96.0</ele><time>2016-06-18T06:18:34.296Z</time></trkpt><trkpt lat="57.78137667" lon="14.19162"><ele>96.0</ele><time>2016-06-18T06:18:35.302Z</time></trkpt><trkpt lat="57.78138167" lon="14.19132667"><ele>97.0</ele><time>2016-06-18T06:18:36.309Z</time></trkpt><trkpt lat="57.78138333" lon="14.19118167"><ele>97.0</ele><time>2016-06-18T06:18:37.308Z</time></trkpt><trkpt lat="57.78138667" lon="14.19102833"><ele>97.0</ele><time>2016-06-18T06:18:38.295Z</time></trkpt><trkpt lat="57.78138667" lon="14.19102833"><ele>97.0</ele><time>2016-06-18T06:18:39.317Z</time></trkpt><trkpt lat="57.78141333" lon="14.19072167"><ele>97.0</ele><time>2016-06-18T06:18:40.314Z</time></trkpt><trkpt lat="57.78141333" lon="14.19072167"><ele>97.0</ele><time>2016-06-18T06:18:41.295Z</time></trkpt><trkpt lat="57.78149667" lon="14.19045"><ele>97.0</ele><time>2016-06-18T06:18:42.302Z</time></trkpt><trkpt lat="57.78149667" lon="14.19045"><ele>97.0</ele><time>2016-06-18T06:18:43.293Z</time></trkpt><trkpt lat="57.78160167" lon="14.19020667"><ele>97.0</ele><time>2016-06-18T06:18:44.309Z</time></trkpt><trkpt lat="57.78160167" lon="14.19020667"><ele>97.0</ele><time>2016-06-18T06:18:45.290Z</time></trkpt><trkpt lat="57.78166667" lon="14.18993333"><ele>97.0</ele><time>2016-06-18T06:18:46.302Z</time></trkpt><trkpt lat="57.78168" lon="14.18978667"><ele>97.0</ele><time>2016-06-18T06:18:47.300Z</time></trkpt><trkpt lat="57.78168667" lon="14.18963333"><ele>96.0</ele><time>2016-06-18T06:18:48.295Z</time></trkpt><trkpt lat="57.78168667" lon="14.18963333"><ele>96.0</ele><time>2016-06-18T06:18:49.320Z</time></trkpt><trkpt lat="57.78168833" lon="14.18931167"><ele>97.0</ele><time>2016-06-18T06:18:50.288Z</time></trkpt><trkpt lat="57.78168833" lon="14.18931167"><ele>97.0</ele><time>2016-06-18T06:18:51.296Z</time></trkpt><trkpt lat="57.78167" lon="14.18900167"><ele>97.0</ele><time>2016-06-18T06:18:52.302Z</time></trkpt><trkpt lat="57.781675" lon="14.18884833"><ele>97.0</ele><time>2016-06-18T06:18:53.307Z</time></trkpt><trkpt lat="57.781675" lon="14.18884833"><ele>97.0</ele><time>2016-06-18T06:18:54.306Z</time></trkpt><trkpt lat="57.78171167" lon="14.18855"><ele>98.0</ele><time>2016-06-18T06:18:55.293Z</time></trkpt><trkpt lat="57.78173667" lon="14.18840333"><ele>98.0</ele><time>2016-06-18T06:18:56.288Z</time></trkpt><trkpt lat="57.78173667" lon="14.18840333"><ele>98.0</ele><time>2016-06-18T06:18:57.310Z</time></trkpt><trkpt lat="57.78179" lon="14.1881"><ele>98.0</ele><time>2016-06-18T06:18:58.317Z</time></trkpt><trkpt lat="57.78179" lon="14.1881"><ele>98.0</ele><time>2016-06-18T06:18:59.301Z</time></trkpt><trkpt lat="57.78184" lon="14.18777833"><ele>97.0</ele><time>2016-06-18T06:19:00.307Z</time></trkpt><trkpt lat="57.78184" lon="14.18777833"><ele>97.0</ele><time>2016-06-18T06:19:01.284Z</time></trkpt><trkpt lat="57.78189333" lon="14.18744833"><ele>97.0</ele><time>2016-06-18T06:19:02.291Z</time></trkpt><trkpt lat="57.78189333" lon="14.18744833"><ele>97.0</ele><time>2016-06-18T06:19:03.315Z</time></trkpt><trkpt lat="57.78193" lon="14.18711333"><ele>96.0</ele><time>2016-06-18T06:19:04.293Z</time></trkpt><trkpt lat="57.78193" lon="14.18711333"><ele>96.0</ele><time>2016-06-18T06:19:05.300Z</time></trkpt><trkpt lat="57.78195667" lon="14.18677167"><ele>96.0</ele><time>2016-06-18T06:19:06.307Z</time></trkpt><trkpt lat="57.78196833" lon="14.18659667"><ele>96.0</ele><time>2016-06-18T06:19:07.308Z</time></trkpt><trkpt lat="57.78198167" lon="14.18642167"><ele>96.0</ele><time>2016-06-18T06:19:08.308Z</time></trkpt><trkpt lat="57.78198167" lon="14.18642167"><ele>96.0</ele><time>2016-06-18T06:19:09.307Z</time></trkpt><trkpt lat="57.782015" lon="14.18607167"><ele>97.0</ele><time>2016-06-18T06:19:10.315Z</time></trkpt><trkpt lat="57.782015" lon="14.18607167"><ele>97.0</ele><time>2016-06-18T06:19:11.292Z</time></trkpt><trkpt lat="57.78203333" lon="14.18572"><ele>97.0</ele><time>2016-06-18T06:19:12.306Z</time></trkpt><trkpt lat="57.78203333" lon="14.18572"><ele>97.0</ele><time>2016-06-18T06:19:13.291Z</time></trkpt><trkpt lat="57.782045" lon="14.18537333"><ele>97.0</ele><time>2016-06-18T06:19:14.298Z</time></trkpt><trkpt lat="57.782055" lon="14.18519833"><ele>97.0</ele><time>2016-06-18T06:19:15.304Z</time></trkpt><trkpt lat="57.782055" lon="14.18519833"><ele>97.0</ele><time>2016-06-18T06:19:16.320Z</time></trkpt><trkpt lat="57.78207" lon="14.18484"><ele>97.0</ele><time>2016-06-18T06:19:17.286Z</time></trkpt><trkpt lat="57.78207" lon="14.18484"><ele>97.0</ele><time>2016-06-18T06:19:18.309Z</time></trkpt><trkpt lat="57.78208167" lon="14.18447833"><ele>96.0</ele><time>2016-06-18T06:19:19.289Z</time></trkpt><trkpt lat="57.78208833" lon="14.18430333"><ele>96.0</ele><time>2016-06-18T06:19:20.295Z</time></trkpt><trkpt lat="57.78208833" lon="14.18430333"><ele>96.0</ele><time>2016-06-18T06:19:21.320Z</time></trkpt><trkpt lat="57.7821" lon="14.18395833"><ele>96.0</ele><time>2016-06-18T06:19:22.291Z</time></trkpt><trkpt lat="57.78210833" lon="14.18379"><ele>95.0</ele><time>2016-06-18T06:19:23.324Z</time></trkpt><trkpt lat="57.78210833" lon="14.18379"><ele>95.0</ele><time>2016-06-18T06:19:24.310Z</time></trkpt><trkpt lat="57.782125" lon="14.18345167"><ele>95.0</ele><time>2016-06-18T06:19:25.283Z</time></trkpt><trkpt lat="57.78213333" lon="14.18328333"><ele>95.0</ele><time>2016-06-18T06:19:26.300Z</time></trkpt><trkpt lat="57.78213333" lon="14.18328333"><ele>95.0</ele><time>2016-06-18T06:19:27.312Z</time></trkpt><trkpt lat="57.78215" lon="14.18295167"><ele>95.0</ele><time>2016-06-18T06:19:28.318Z</time></trkpt><trkpt lat="57.78215" lon="14.18295167"><ele>95.0</ele><time>2016-06-18T06:19:29.299Z</time></trkpt><trkpt lat="57.78216833" lon="14.18262833"><ele>95.0</ele><time>2016-06-18T06:19:30.287Z</time></trkpt><trkpt lat="57.78216833" lon="14.18262833"><ele>95.0</ele><time>2016-06-18T06:19:31.306Z</time></trkpt><trkpt lat="57.78219167" lon="14.18230833"><ele>94.0</ele><time>2016-06-18T06:19:32.313Z</time></trkpt><trkpt lat="57.78219167" lon="14.18230833"><ele>94.0</ele><time>2016-06-18T06:19:33.311Z</time></trkpt><trkpt lat="57.78221667" lon="14.18199333"><ele>94.0</ele><time>2016-06-18T06:19:34.288Z</time></trkpt><trkpt lat="57.78221667" lon="14.18199333"><ele>94.0</ele><time>2016-06-18T06:19:35.297Z</time></trkpt><trkpt lat="57.782245" lon="14.181675"><ele>94.0</ele><time>2016-06-18T06:19:36.282Z</time></trkpt><trkpt lat="57.782245" lon="14.181675"><ele>94.0</ele><time>2016-06-18T06:19:37.302Z</time></trkpt><trkpt lat="57.78228" lon="14.181365"><ele>94.0</ele><time>2016-06-18T06:19:38.304Z</time></trkpt><trkpt lat="57.78228" lon="14.181365"><ele>94.0</ele><time>2016-06-18T06:19:39.301Z</time></trkpt><trkpt lat="57.78231" lon="14.18106"><ele>93.0</ele><time>2016-06-18T06:19:40.316Z</time></trkpt><trkpt lat="57.78231" lon="14.18106"><ele>93.0</ele><time>2016-06-18T06:19:41.309Z</time></trkpt><trkpt lat="57.78235" lon="14.180755"><ele>94.0</ele><time>2016-06-18T06:19:42.294Z</time></trkpt><trkpt lat="57.78235" lon="14.180755"><ele>94.0</ele><time>2016-06-18T06:19:43.291Z</time></trkpt><trkpt lat="57.78238667" lon="14.18045"><ele>93.0</ele><time>2016-06-18T06:19:44.299Z</time></trkpt><trkpt lat="57.78238667" lon="14.18045"><ele>93.0</ele><time>2016-06-18T06:19:45.288Z</time></trkpt><trkpt lat="57.78242667" lon="14.18014"><ele>93.0</ele><time>2016-06-18T06:19:46.308Z</time></trkpt><trkpt lat="57.78242667" lon="14.18014"><ele>93.0</ele><time>2016-06-18T06:19:47.312Z</time></trkpt><trkpt lat="57.78246833" lon="14.17982"><ele>93.0</ele><time>2016-06-18T06:19:48.318Z</time></trkpt><trkpt lat="57.78248333" lon="14.17966167"><ele>92.0</ele><time>2016-06-18T06:19:49.313Z</time></trkpt><trkpt lat="57.78250167" lon="14.17950167"><ele>92.0</ele><time>2016-06-18T06:19:50.298Z</time></trkpt><trkpt lat="57.78250167" lon="14.17950167"><ele>92.0</ele><time>2016-06-18T06:19:51.321Z</time></trkpt><trkpt lat="57.78254333" lon="14.17917833"><ele>92.0</ele><time>2016-06-18T06:19:52.297Z</time></trkpt><trkpt lat="57.78256333" lon="14.17901833"><ele>92.0</ele><time>2016-06-18T06:19:53.284Z</time></trkpt><trkpt lat="57.78256333" lon="14.17901833"><ele>92.0</ele><time>2016-06-18T06:19:54.314Z</time></trkpt><trkpt lat="57.78259833" lon="14.178705"><ele>92.0</ele><time>2016-06-18T06:19:55.282Z</time></trkpt><trkpt lat="57.782615" lon="14.17855667"><ele>92.0</ele><time>2016-06-18T06:19:56.288Z</time></trkpt><trkpt lat="57.782615" lon="14.17855667"><ele>92.0</ele><time>2016-06-18T06:19:57.315Z</time></trkpt><trkpt lat="57.78265333" lon="14.17826"><ele>92.0</ele><time>2016-06-18T06:19:58.289Z</time></trkpt><trkpt lat="57.78265333" lon="14.17826"><ele>92.0</ele><time>2016-06-18T06:19:59.308Z</time></trkpt><trkpt lat="57.78268667" lon="14.17796"><ele>91.0</ele><time>2016-06-18T06:20:00.305Z</time></trkpt><trkpt lat="57.78268667" lon="14.17796"><ele>91.0</ele><time>2016-06-18T06:20:01.302Z</time></trkpt><trkpt lat="57.78271333" lon="14.17766167"><ele>90.0</ele><time>2016-06-18T06:20:02.310Z</time></trkpt><trkpt lat="57.78271333" lon="14.17766167"><ele>90.0</ele><time>2016-06-18T06:20:03.292Z</time></trkpt><trkpt lat="57.78274167" lon="14.17736333"><ele>90.0</ele><time>2016-06-18T06:20:04.292Z</time></trkpt><trkpt lat="57.78274167" lon="14.17736333"><ele>90.0</ele><time>2016-06-18T06:20:05.302Z</time></trkpt><trkpt lat="57.78277667" lon="14.17706167"><ele>90.0</ele><time>2016-06-18T06:20:06.308Z</time></trkpt><trkpt lat="57.78277667" lon="14.17706167"><ele>90.0</ele><time>2016-06-18T06:20:07.293Z</time></trkpt><trkpt lat="57.7828" lon="14.17676"><ele>90.0</ele><time>2016-06-18T06:20:08.310Z</time></trkpt><trkpt lat="57.7828" lon="14.17676"><ele>90.0</ele><time>2016-06-18T06:20:09.310Z</time></trkpt><trkpt lat="57.78283167" lon="14.17647167"><ele>90.0</ele><time>2016-06-18T06:20:10.288Z</time></trkpt><trkpt lat="57.78283167" lon="14.17647167"><ele>90.0</ele><time>2016-06-18T06:20:11.291Z</time></trkpt><trkpt lat="57.78286833" lon="14.17618833"><ele>89.0</ele><time>2016-06-18T06:20:12.307Z</time></trkpt><trkpt lat="57.78286833" lon="14.17618833"><ele>89.0</ele><time>2016-06-18T06:20:13.293Z</time></trkpt><trkpt lat="57.7829" lon="14.17590333"><ele>89.0</ele><time>2016-06-18T06:20:14.303Z</time></trkpt><trkpt lat="57.7829" lon="14.17590333"><ele>89.0</ele><time>2016-06-18T06:20:15.296Z</time></trkpt><trkpt lat="57.78292667" lon="14.17560833"><ele>88.0</ele><time>2016-06-18T06:20:16.304Z</time></trkpt><trkpt lat="57.78294667" lon="14.17546333"><ele>88.0</ele><time>2016-06-18T06:20:17.318Z</time></trkpt><trkpt lat="57.78294667" lon="14.17546333"><ele>88.0</ele><time>2016-06-18T06:20:18.301Z</time></trkpt><trkpt lat="57.78297667" lon="14.175155"><ele>87.0</ele><time>2016-06-18T06:20:19.307Z</time></trkpt><trkpt lat="57.78297667" lon="14.175155"><ele>87.0</ele><time>2016-06-18T06:20:20.293Z</time></trkpt><trkpt lat="57.78301" lon="14.17484667"><ele>86.0</ele><time>2016-06-18T06:20:21.313Z</time></trkpt><trkpt lat="57.78301" lon="14.17484667"><ele>86.0</ele><time>2016-06-18T06:20:22.299Z</time></trkpt><trkpt lat="57.78304167" lon="14.17454167"><ele>85.0</ele><time>2016-06-18T06:20:23.308Z</time></trkpt><trkpt lat="57.78304167" lon="14.17454167"><ele>85.0</ele><time>2016-06-18T06:20:24.295Z</time></trkpt><trkpt lat="57.78308" lon="14.17422833"><ele>85.0</ele><time>2016-06-18T06:20:25.298Z</time></trkpt><trkpt lat="57.78308" lon="14.17422833"><ele>85.0</ele><time>2016-06-18T06:20:26.296Z</time></trkpt><trkpt lat="57.78312" lon="14.17391667"><ele>85.0</ele><time>2016-06-18T06:20:27.303Z</time></trkpt><trkpt lat="57.78312" lon="14.17391667"><ele>85.0</ele><time>2016-06-18T06:20:28.285Z</time></trkpt><trkpt lat="57.78315333" lon="14.17360667"><ele>84.0</ele><time>2016-06-18T06:20:29.318Z</time></trkpt><trkpt lat="57.78315333" lon="14.17360667"><ele>84.0</ele><time>2016-06-18T06:20:30.319Z</time></trkpt><trkpt lat="57.783185" lon="14.17329833"><ele>83.0</ele><time>2016-06-18T06:20:31.295Z</time></trkpt><trkpt lat="57.78320333" lon="14.17314333"><ele>83.0</ele><time>2016-06-18T06:20:32.298Z</time></trkpt><trkpt lat="57.78320333" lon="14.17314333"><ele>83.0</ele><time>2016-06-18T06:20:33.318Z</time></trkpt><trkpt lat="57.78325333" lon="14.17284333"><ele>84.0</ele><time>2016-06-18T06:20:34.287Z</time></trkpt><trkpt lat="57.78325333" lon="14.17284333"><ele>84.0</ele><time>2016-06-18T06:20:35.309Z</time></trkpt><trkpt lat="57.78328667" lon="14.17252833"><ele>84.0</ele><time>2016-06-18T06:20:36.293Z</time></trkpt><trkpt lat="57.78328667" lon="14.17252833"><ele>84.0</ele><time>2016-06-18T06:20:37.287Z</time></trkpt><trkpt lat="57.78332333" lon="14.172215"><ele>84.0</ele><time>2016-06-18T06:20:38.296Z</time></trkpt><trkpt lat="57.78332333" lon="14.172215"><ele>84.0</ele><time>2016-06-18T06:20:39.315Z</time></trkpt><trkpt lat="57.78336667" lon="14.1719"><ele>84.0</ele><time>2016-06-18T06:20:40.295Z</time></trkpt><trkpt lat="57.78336667" lon="14.1719"><ele>84.0</ele><time>2016-06-18T06:20:41.321Z</time></trkpt><trkpt lat="57.78340833" lon="14.17158"><ele>84.0</ele><time>2016-06-18T06:20:42.296Z</time></trkpt><trkpt lat="57.78340833" lon="14.17158"><ele>84.0</ele><time>2016-06-18T06:20:43.319Z</time></trkpt><trkpt lat="57.78344833" lon="14.171255"><ele>84.0</ele><time>2016-06-18T06:20:44.282Z</time></trkpt><trkpt lat="57.78344833" lon="14.171255"><ele>84.0</ele><time>2016-06-18T06:20:45.282Z</time></trkpt><trkpt lat="57.78349833" lon="14.17093167"><ele>85.0</ele><time>2016-06-18T06:20:46.293Z</time></trkpt><trkpt lat="57.78351833" lon="14.170765"><ele>85.0</ele><time>2016-06-18T06:20:47.285Z</time></trkpt><trkpt lat="57.78354" lon="14.17060167"><ele>84.0</ele><time>2016-06-18T06:20:48.293Z</time></trkpt><trkpt lat="57.78354" lon="14.17060167"><ele>84.0</ele><time>2016-06-18T06:20:49.299Z</time></trkpt><trkpt lat="57.78357333" lon="14.17028667"><ele>83.0</ele><time>2016-06-18T06:20:50.294Z</time></trkpt><trkpt lat="57.78357333" lon="14.17028667"><ele>83.0</ele><time>2016-06-18T06:20:51.300Z</time></trkpt><trkpt lat="57.78360833" lon="14.16999"><ele>83.0</ele><time>2016-06-18T06:20:52.307Z</time></trkpt><trkpt lat="57.783635" lon="14.16985667"><ele>84.0</ele><time>2016-06-18T06:20:53.299Z</time></trkpt><trkpt lat="57.783635" lon="14.16985667"><ele>84.0</ele><time>2016-06-18T06:20:54.302Z</time></trkpt><trkpt lat="57.783675" lon="14.16959167"><ele>86.0</ele><time>2016-06-18T06:20:55.308Z</time></trkpt><trkpt lat="57.783675" lon="14.16959167"><ele>86.0</ele><time>2016-06-18T06:20:56.302Z</time></trkpt><trkpt lat="57.78369833" lon="14.16933"><ele>89.0</ele><time>2016-06-18T06:20:57.297Z</time></trkpt><trkpt lat="57.78369833" lon="14.16933"><ele>89.0</ele><time>2016-06-18T06:20:58.301Z</time></trkpt><trkpt lat="57.7837" lon="14.169085"><ele>91.0</ele><time>2016-06-18T06:20:59.314Z</time></trkpt><trkpt lat="57.7837" lon="14.169085"><ele>91.0</ele><time>2016-06-18T06:21:00.300Z</time></trkpt><trkpt lat="57.78368" lon="14.16883833"><ele>92.0</ele><time>2016-06-18T06:21:01.285Z</time></trkpt><trkpt lat="57.78367" lon="14.16871333"><ele>92.0</ele><time>2016-06-18T06:21:02.307Z</time></trkpt><trkpt lat="57.78367" lon="14.16871333"><ele>92.0</ele><time>2016-06-18T06:21:03.292Z</time></trkpt><trkpt lat="57.78364" lon="14.16846167"><ele>92.0</ele><time>2016-06-18T06:21:04.316Z</time></trkpt><trkpt lat="57.78362833" lon="14.168335"><ele>92.0</ele><time>2016-06-18T06:21:05.310Z</time></trkpt><trkpt lat="57.78362833" lon="14.168335"><ele>92.0</ele><time>2016-06-18T06:21:06.292Z</time></trkpt><trkpt lat="57.783605" lon="14.16807"><ele>93.0</ele><time>2016-06-18T06:21:07.312Z</time></trkpt><trkpt lat="57.78359667" lon="14.16793833"><ele>93.0</ele><time>2016-06-18T06:21:08.304Z</time></trkpt><trkpt lat="57.78359667" lon="14.16793833"><ele>93.0</ele><time>2016-06-18T06:21:09.288Z</time></trkpt><trkpt lat="57.78358833" lon="14.16767167"><ele>92.0</ele><time>2016-06-18T06:21:10.296Z</time></trkpt><trkpt lat="57.78358833" lon="14.16767167"><ele>92.0</ele><time>2016-06-18T06:21:11.295Z</time></trkpt><trkpt lat="57.78359333" lon="14.167435"><ele>92.0</ele><time>2016-06-18T06:21:12.298Z</time></trkpt><trkpt lat="57.78360167" lon="14.16734"><ele>91.0</ele><time>2016-06-18T06:21:13.285Z</time></trkpt><trkpt lat="57.78361167" lon="14.16725"><ele>91.0</ele><time>2016-06-18T06:21:14.309Z</time></trkpt><trkpt lat="57.78361167" lon="14.16725"><ele>91.0</ele><time>2016-06-18T06:21:15.293Z</time></trkpt><trkpt lat="57.783635" lon="14.16707167"><ele>91.0</ele><time>2016-06-18T06:21:16.324Z</time></trkpt><trkpt lat="57.783645" lon="14.16697667"><ele>91.0</ele><time>2016-06-18T06:21:17.299Z</time></trkpt><trkpt lat="57.783645" lon="14.16697667"><ele>91.0</ele><time>2016-06-18T06:21:18.282Z</time></trkpt><trkpt lat="57.78366833" lon="14.16678333"><ele>91.0</ele><time>2016-06-18T06:21:19.310Z</time></trkpt><trkpt lat="57.78367667" lon="14.166685"><ele>91.0</ele><time>2016-06-18T06:21:20.304Z</time></trkpt><trkpt lat="57.78367667" lon="14.166685"><ele>91.0</ele><time>2016-06-18T06:21:21.294Z</time></trkpt><trkpt lat="57.783695" lon="14.16648"><ele>92.0</ele><time>2016-06-18T06:21:22.318Z</time></trkpt><trkpt lat="57.783705" lon="14.16637333"><ele>91.0</ele><time>2016-06-18T06:21:23.319Z</time></trkpt><trkpt lat="57.783705" lon="14.16637333"><ele>91.0</ele><time>2016-06-18T06:21:24.301Z</time></trkpt><trkpt lat="57.78373" lon="14.16614667"><ele>91.0</ele><time>2016-06-18T06:21:25.311Z</time></trkpt><trkpt lat="57.783745" lon="14.16603"><ele>92.0</ele><time>2016-06-18T06:21:26.296Z</time></trkpt><trkpt lat="57.783745" lon="14.16603"><ele>92.0</ele><time>2016-06-18T06:21:27.317Z</time></trkpt><trkpt lat="57.783775" lon="14.16579333"><ele>92.0</ele><time>2016-06-18T06:21:28.284Z</time></trkpt><trkpt lat="57.783775" lon="14.16579333"><ele>92.0</ele><time>2016-06-18T06:21:29.305Z</time></trkpt><trkpt lat="57.78380167" lon="14.16553833"><ele>92.0</ele><time>2016-06-18T06:21:30.312Z</time></trkpt><trkpt lat="57.78380167" lon="14.16553833"><ele>92.0</ele><time>2016-06-18T06:21:31.297Z</time></trkpt><trkpt lat="57.78383" lon="14.16526667"><ele>92.0</ele><time>2016-06-18T06:21:32.284Z</time></trkpt><trkpt lat="57.78383" lon="14.16526667"><ele>92.0</ele><time>2016-06-18T06:21:33.309Z</time></trkpt><trkpt lat="57.78385167" lon="14.16499"><ele>92.0</ele><time>2016-06-18T06:21:34.317Z</time></trkpt><trkpt lat="57.78385167" lon="14.16499"><ele>92.0</ele><time>2016-06-18T06:21:35.298Z</time></trkpt><trkpt lat="57.78387833" lon="14.16470333"><ele>93.0</ele><time>2016-06-18T06:21:36.307Z</time></trkpt><trkpt lat="57.78389333" lon="14.16456"><ele>93.0</ele><time>2016-06-18T06:21:37.296Z</time></trkpt><trkpt lat="57.78390667" lon="14.16441333"><ele>93.0</ele><time>2016-06-18T06:21:38.296Z</time></trkpt><trkpt lat="57.78390667" lon="14.16441333"><ele>93.0</ele><time>2016-06-18T06:21:39.315Z</time></trkpt><trkpt lat="57.78393333" lon="14.16414667"><ele>93.0</ele><time>2016-06-18T06:21:40.282Z</time></trkpt><trkpt lat="57.78394333" lon="14.16401667"><ele>94.0</ele><time>2016-06-18T06:21:41.313Z</time></trkpt><trkpt lat="57.78394333" lon="14.16401667"><ele>94.0</ele><time>2016-06-18T06:21:42.301Z</time></trkpt><trkpt lat="57.783965" lon="14.16376833"><ele>93.0</ele><time>2016-06-18T06:21:43.292Z</time></trkpt><trkpt lat="57.783965" lon="14.16365167"><ele>93.0</ele><time>2016-06-18T06:21:44.288Z</time></trkpt><trkpt lat="57.783965" lon="14.16365167"><ele>93.0</ele><time>2016-06-18T06:21:45.284Z</time></trkpt><trkpt lat="57.78398333" lon="14.16342167"><ele>93.0</ele><time>2016-06-18T06:21:46.293Z</time></trkpt><trkpt lat="57.78398333" lon="14.16342167"><ele>93.0</ele><time>2016-06-18T06:21:47.283Z</time></trkpt><trkpt lat="57.78400833" lon="14.16317167"><ele>93.0</ele><time>2016-06-18T06:21:48.295Z</time></trkpt><trkpt lat="57.78400833" lon="14.16317167"><ele>93.0</ele><time>2016-06-18T06:21:49.303Z</time></trkpt><trkpt lat="57.78402" lon="14.16290167"><ele>92.0</ele><time>2016-06-18T06:21:50.310Z</time></trkpt><trkpt lat="57.78402" lon="14.16290167"><ele>92.0</ele><time>2016-06-18T06:21:51.317Z</time></trkpt><trkpt lat="57.78403667" lon="14.16262833"><ele>91.0</ele><time>2016-06-18T06:21:52.297Z</time></trkpt><trkpt lat="57.78403667" lon="14.16262833"><ele>91.0</ele><time>2016-06-18T06:21:53.300Z</time></trkpt><trkpt lat="57.78406167" lon="14.16234"><ele>91.0</ele><time>2016-06-18T06:21:54.307Z</time></trkpt><trkpt lat="57.78406167" lon="14.16234"><ele>91.0</ele><time>2016-06-18T06:21:55.296Z</time></trkpt><trkpt lat="57.78409667" lon="14.162055"><ele>92.0</ele><time>2016-06-18T06:21:56.318Z</time></trkpt><trkpt lat="57.78409667" lon="14.162055"><ele>92.0</ele><time>2016-06-18T06:21:57.313Z</time></trkpt><trkpt lat="57.78417667" lon="14.16179333"><ele>92.0</ele><time>2016-06-18T06:21:58.321Z</time></trkpt><trkpt lat="57.78417667" lon="14.16179333"><ele>92.0</ele><time>2016-06-18T06:21:59.298Z</time></trkpt><trkpt lat="57.78426833" lon="14.16155333"><ele>94.0</ele><time>2016-06-18T06:22:00.302Z</time></trkpt><trkpt lat="57.78426833" lon="14.16155333"><ele>94.0</ele><time>2016-06-18T06:22:01.284Z</time></trkpt><trkpt lat="57.78438" lon="14.16131"><ele>96.0</ele><time>2016-06-18T06:22:02.298Z</time></trkpt><trkpt lat="57.78438" lon="14.16131"><ele>96.0</ele><time>2016-06-18T06:22:03.282Z</time></trkpt><trkpt lat="57.784485" lon="14.161065"><ele>96.0</ele><time>2016-06-18T06:22:04.306Z</time></trkpt><trkpt lat="57.784485" lon="14.161065"><ele>96.0</ele><time>2016-06-18T06:22:05.293Z</time></trkpt><trkpt lat="57.78459" lon="14.16082333"><ele>95.0</ele><time>2016-06-18T06:22:06.300Z</time></trkpt><trkpt lat="57.78464167" lon="14.16069"><ele>95.0</ele><time>2016-06-18T06:22:07.295Z</time></trkpt><trkpt lat="57.78464167" lon="14.16069"><ele>95.0</ele><time>2016-06-18T06:22:08.311Z</time></trkpt><trkpt lat="57.78473667" lon="14.160415"><ele>96.0</ele><time>2016-06-18T06:22:09.292Z</time></trkpt><trkpt lat="57.78477167" lon="14.16026667"><ele>95.0</ele><time>2016-06-18T06:22:10.288Z</time></trkpt><trkpt lat="57.78477167" lon="14.16026667"><ele>95.0</ele><time>2016-06-18T06:22:11.296Z</time></trkpt><trkpt lat="57.78484" lon="14.159975"><ele>96.0</ele><time>2016-06-18T06:22:12.313Z</time></trkpt><trkpt lat="57.78486833" lon="14.15983"><ele>95.0</ele><time>2016-06-18T06:22:13.299Z</time></trkpt><trkpt lat="57.78489667" lon="14.159685"><ele>95.0</ele><time>2016-06-18T06:22:14.282Z</time></trkpt><trkpt lat="57.78489667" lon="14.159685"><ele>95.0</ele><time>2016-06-18T06:22:15.306Z</time></trkpt><trkpt lat="57.78495333" lon="14.1594"><ele>95.0</ele><time>2016-06-18T06:22:16.313Z</time></trkpt><trkpt lat="57.78495333" lon="14.1594"><ele>95.0</ele><time>2016-06-18T06:22:17.297Z</time></trkpt><trkpt lat="57.78500167" lon="14.15911667"><ele>94.0</ele><time>2016-06-18T06:22:18.312Z</time></trkpt><trkpt lat="57.78500167" lon="14.15911667"><ele>94.0</ele><time>2016-06-18T06:22:19.313Z</time></trkpt><trkpt lat="57.78506167" lon="14.158835"><ele>93.0</ele><time>2016-06-18T06:22:20.319Z</time></trkpt><trkpt lat="57.78506167" lon="14.158835"><ele>93.0</ele><time>2016-06-18T06:22:21.318Z</time></trkpt><trkpt lat="57.78513833" lon="14.15856333"><ele>93.0</ele><time>2016-06-18T06:22:22.288Z</time></trkpt><trkpt lat="57.78513833" lon="14.15856333"><ele>93.0</ele><time>2016-06-18T06:22:23.309Z</time></trkpt><trkpt lat="57.78523167" lon="14.15830333"><ele>93.0</ele><time>2016-06-18T06:22:24.316Z</time></trkpt><trkpt lat="57.78527333" lon="14.15816667"><ele>93.0</ele><time>2016-06-18T06:22:25.299Z</time></trkpt><trkpt lat="57.78531167" lon="14.15802833"><ele>93.0</ele><time>2016-06-18T06:22:26.282Z</time></trkpt><trkpt lat="57.78531167" lon="14.15802833"><ele>93.0</ele><time>2016-06-18T06:22:27.303Z</time></trkpt><trkpt lat="57.785395" lon="14.15775833"><ele>93.0</ele><time>2016-06-18T06:22:28.294Z</time></trkpt><trkpt lat="57.785435" lon="14.15762"><ele>93.0</ele><time>2016-06-18T06:22:29.304Z</time></trkpt><trkpt lat="57.785435" lon="14.15762"><ele>93.0</ele><time>2016-06-18T06:22:30.286Z</time></trkpt><trkpt lat="57.785515" lon="14.15734333"><ele>93.0</ele><time>2016-06-18T06:22:31.309Z</time></trkpt><trkpt lat="57.78555167" lon="14.1572"><ele>93.0</ele><time>2016-06-18T06:22:32.291Z</time></trkpt><trkpt lat="57.78555167" lon="14.1572"><ele>93.0</ele><time>2016-06-18T06:22:33.309Z</time></trkpt><trkpt lat="57.78562667" lon="14.15691667"><ele>92.0</ele><time>2016-06-18T06:22:34.320Z</time></trkpt><trkpt lat="57.78566333" lon="14.15677833"><ele>91.0</ele><time>2016-06-18T06:22:35.302Z</time></trkpt><trkpt lat="57.78566333" lon="14.15677833"><ele>91.0</ele><time>2016-06-18T06:22:36.286Z</time></trkpt><trkpt lat="57.78574167" lon="14.15650833"><ele>91.0</ele><time>2016-06-18T06:22:37.294Z</time></trkpt><trkpt lat="57.785775" lon="14.156375"><ele>91.0</ele><time>2016-06-18T06:22:38.301Z</time></trkpt><trkpt lat="57.785775" lon="14.156375"><ele>91.0</ele><time>2016-06-18T06:22:39.285Z</time></trkpt><trkpt lat="57.78584833" lon="14.15612167"><ele>91.0</ele><time>2016-06-18T06:22:40.298Z</time></trkpt><trkpt lat="57.78584833" lon="14.15612167"><ele>91.0</ele><time>2016-06-18T06:22:41.305Z</time></trkpt><trkpt lat="57.78592333" lon="14.155905"><ele>93.0</ele><time>2016-06-18T06:22:42.312Z</time></trkpt><trkpt lat="57.78594333" lon="14.15579833"><ele>94.0</ele><time>2016-06-18T06:22:43.321Z</time></trkpt><trkpt lat="57.78596167" lon="14.155705"><ele>94.0</ele><time>2016-06-18T06:22:44.305Z</time></trkpt><trkpt lat="57.78596167" lon="14.155705"><ele>94.0</ele><time>2016-06-18T06:22:45.285Z</time></trkpt><trkpt lat="57.78600333" lon="14.15556333"><ele>95.0</ele><time>2016-06-18T06:22:46.317Z</time></trkpt><trkpt lat="57.78600333" lon="14.15556333"><ele>95.0</ele><time>2016-06-18T06:22:47.300Z</time></trkpt><trkpt lat="57.78603167" lon="14.15541333"><ele>96.0</ele><time>2016-06-18T06:22:48.307Z</time></trkpt><trkpt lat="57.78604333" lon="14.15533833"><ele>96.0</ele><time>2016-06-18T06:22:49.298Z</time></trkpt><trkpt lat="57.78604333" lon="14.15533833"><ele>96.0</ele><time>2016-06-18T06:22:50.286Z</time></trkpt><trkpt lat="57.78601833" lon="14.15517"><ele>96.0</ele><time>2016-06-18T06:22:51.296Z</time></trkpt><trkpt lat="57.78601833" lon="14.15517"><ele>96.0</ele><time>2016-06-18T06:22:52.321Z</time></trkpt><trkpt lat="57.786" lon="14.15501"><ele>96.0</ele><time>2016-06-18T06:22:53.301Z</time></trkpt><trkpt lat="57.786" lon="14.15501"><ele>96.0</ele><time>2016-06-18T06:22:54.293Z</time></trkpt><trkpt lat="57.78599" lon="14.15485833"><ele>95.0</ele><time>2016-06-18T06:22:55.300Z</time></trkpt><trkpt lat="57.78598667" lon="14.15477833"><ele>95.0</ele><time>2016-06-18T06:22:56.307Z</time></trkpt><trkpt lat="57.785985" lon="14.15469"><ele>95.0</ele><time>2016-06-18T06:22:57.306Z</time></trkpt><trkpt lat="57.785985" lon="14.15469"><ele>95.0</ele><time>2016-06-18T06:22:58.290Z</time></trkpt><trkpt lat="57.78601833" lon="14.15450667"><ele>95.0</ele><time>2016-06-18T06:22:59.308Z</time></trkpt><trkpt lat="57.78605167" lon="14.154435"><ele>95.0</ele><time>2016-06-18T06:23:00.290Z</time></trkpt><trkpt lat="57.78605167" lon="14.154435"><ele>95.0</ele><time>2016-06-18T06:23:01.309Z</time></trkpt><trkpt lat="57.78611167" lon="14.15430667"><ele>95.0</ele><time>2016-06-18T06:23:02.315Z</time></trkpt><trkpt lat="57.78614167" lon="14.15423333"><ele>95.0</ele><time>2016-06-18T06:23:03.304Z</time></trkpt><trkpt lat="57.78614167" lon="14.15423333"><ele>95.0</ele><time>2016-06-18T06:23:04.286Z</time></trkpt><trkpt lat="57.78621" lon="14.15406833"><ele>95.0</ele><time>2016-06-18T06:23:05.296Z</time></trkpt><trkpt lat="57.78621" lon="14.15406833"><ele>95.0</ele><time>2016-06-18T06:23:06.296Z</time></trkpt><trkpt lat="57.78628833" lon="14.15390833"><ele>95.0</ele><time>2016-06-18T06:23:07.305Z</time></trkpt><trkpt lat="57.78633167" lon="14.15383"><ele>95.0</ele><time>2016-06-18T06:23:08.300Z</time></trkpt><trkpt lat="57.78633167" lon="14.15383"><ele>95.0</ele><time>2016-06-18T06:23:09.284Z</time></trkpt><trkpt lat="57.78640667" lon="14.15365"><ele>95.0</ele><time>2016-06-18T06:23:10.308Z</time></trkpt><trkpt lat="57.78640667" lon="14.15365"><ele>95.0</ele><time>2016-06-18T06:23:11.296Z</time></trkpt><trkpt lat="57.78647" lon="14.15343667"><ele>95.0</ele><time>2016-06-18T06:23:12.301Z</time></trkpt><trkpt lat="57.786495" lon="14.15332167"><ele>94.0</ele><time>2016-06-18T06:23:13.292Z</time></trkpt><trkpt lat="57.786495" lon="14.15332167"><ele>94.0</ele><time>2016-06-18T06:23:14.315Z</time></trkpt><trkpt lat="57.78653667" lon="14.15308833"><ele>95.0</ele><time>2016-06-18T06:23:15.308Z</time></trkpt><trkpt lat="57.78653667" lon="14.15308833"><ele>95.0</ele><time>2016-06-18T06:23:16.284Z</time></trkpt><trkpt lat="57.78656667" lon="14.15284833"><ele>95.0</ele><time>2016-06-18T06:23:17.300Z</time></trkpt><trkpt lat="57.78656667" lon="14.15284833"><ele>95.0</ele><time>2016-06-18T06:23:18.283Z</time></trkpt><trkpt lat="57.78659667" lon="14.15260333"><ele>95.0</ele><time>2016-06-18T06:23:19.308Z</time></trkpt><trkpt lat="57.78659667" lon="14.15260333"><ele>95.0</ele><time>2016-06-18T06:23:20.285Z</time></trkpt><trkpt lat="57.78663" lon="14.15236167"><ele>96.0</ele><time>2016-06-18T06:23:21.295Z</time></trkpt><trkpt lat="57.78664667" lon="14.15224167"><ele>96.0</ele><time>2016-06-18T06:23:22.292Z</time></trkpt><trkpt lat="57.78664667" lon="14.15224167"><ele>96.0</ele><time>2016-06-18T06:23:23.313Z</time></trkpt><trkpt lat="57.78669" lon="14.15201833"><ele>98.0</ele><time>2016-06-18T06:23:24.321Z</time></trkpt><trkpt lat="57.78669" lon="14.15201833"><ele>98.0</ele><time>2016-06-18T06:23:25.303Z</time></trkpt><trkpt lat="57.78674" lon="14.151815"><ele>99.0</ele><time>2016-06-18T06:23:26.300Z</time></trkpt><trkpt lat="57.78674" lon="14.151815"><ele>99.0</ele><time>2016-06-18T06:23:27.285Z</time></trkpt><trkpt lat="57.78678667" lon="14.15167"><ele>99.0</ele><time>2016-06-18T06:23:28.297Z</time></trkpt><trkpt lat="57.78680667" lon="14.15162333"><ele>100.0</ele><time>2016-06-18T06:23:29.286Z</time></trkpt><trkpt lat="57.78680667" lon="14.15162333"><ele>100.0</ele><time>2016-06-18T06:23:30.301Z</time></trkpt><trkpt lat="57.786845" lon="14.15156"><ele>100.0</ele><time>2016-06-18T06:23:31.307Z</time></trkpt><trkpt lat="57.78686167" lon="14.15153667"><ele>101.0</ele><time>2016-06-18T06:23:32.293Z</time></trkpt><trkpt lat="57.78686167" lon="14.15153667"><ele>101.0</ele><time>2016-06-18T06:23:33.293Z</time></trkpt><trkpt lat="57.78688667" lon="14.15148167"><ele>101.0</ele><time>2016-06-18T06:23:34.297Z</time></trkpt><trkpt lat="57.78688667" lon="14.15148167"><ele>101.0</ele><time>2016-06-18T06:23:35.285Z</time></trkpt><trkpt lat="57.786925" lon="14.151415"><ele>102.0</ele><time>2016-06-18T06:23:36.292Z</time></trkpt><trkpt lat="57.78694333" lon="14.15136"><ele>102.0</ele><time>2016-06-18T06:23:37.304Z</time></trkpt><trkpt lat="57.786965" lon="14.15129167"><ele>102.0</ele><time>2016-06-18T06:23:38.282Z</time></trkpt><trkpt lat="57.786965" lon="14.15129167"><ele>102.0</ele><time>2016-06-18T06:23:39.303Z</time></trkpt><trkpt lat="57.78702" lon="14.15114667"><ele>103.0</ele><time>2016-06-18T06:23:40.289Z</time></trkpt><trkpt lat="57.78702" lon="14.15114667"><ele>103.0</ele><time>2016-06-18T06:23:41.295Z</time></trkpt><trkpt lat="57.78708667" lon="14.150985"><ele>103.0</ele><time>2016-06-18T06:23:42.309Z</time></trkpt><trkpt lat="57.78713" lon="14.1509"><ele>104.0</ele><time>2016-06-18T06:23:43.290Z</time></trkpt><trkpt lat="57.787175" lon="14.15080833"><ele>104.0</ele><time>2016-06-18T06:23:44.296Z</time></trkpt><trkpt lat="57.787175" lon="14.15080833"><ele>104.0</ele><time>2016-06-18T06:23:45.320Z</time></trkpt><trkpt lat="57.78727333" lon="14.15061333"><ele>104.0</ele><time>2016-06-18T06:23:46.308Z</time></trkpt><trkpt lat="57.78733333" lon="14.15051667"><ele>104.0</ele><time>2016-06-18T06:23:47.313Z</time></trkpt><trkpt lat="57.78733333" lon="14.15051667"><ele>104.0</ele><time>2016-06-18T06:23:48.298Z</time></trkpt><trkpt lat="57.78747667" lon="14.15035"><ele>105.0</ele><time>2016-06-18T06:23:49.287Z</time></trkpt><trkpt lat="57.78756" lon="14.150285"><ele>105.0</ele><time>2016-06-18T06:23:50.308Z</time></trkpt><trkpt lat="57.78756" lon="14.150285"><ele>105.0</ele><time>2016-06-18T06:23:51.296Z</time></trkpt><trkpt lat="57.78774167" lon="14.15018667"><ele>105.0</ele><time>2016-06-18T06:23:52.326Z</time></trkpt><trkpt lat="57.787835" lon="14.15014833"><ele>105.0</ele><time>2016-06-18T06:23:53.320Z</time></trkpt><trkpt lat="57.787835" lon="14.15014833"><ele>105.0</ele><time>2016-06-18T06:23:54.301Z</time></trkpt><trkpt lat="57.788035" lon="14.15006833"><ele>104.0</ele><time>2016-06-18T06:23:55.319Z</time></trkpt><trkpt lat="57.78813333" lon="14.15002833"><ele>104.0</ele><time>2016-06-18T06:23:56.303Z</time></trkpt><trkpt lat="57.78813333" lon="14.15002833"><ele>104.0</ele><time>2016-06-18T06:23:57.286Z</time></trkpt><trkpt lat="57.78833" lon="14.14993833"><ele>103.0</ele><time>2016-06-18T06:23:58.307Z</time></trkpt><trkpt lat="57.78842333" lon="14.149885"><ele>102.0</ele><time>2016-06-18T06:23:59.308Z</time></trkpt><trkpt lat="57.78842333" lon="14.149885"><ele>102.0</ele><time>2016-06-18T06:24:00.291Z</time></trkpt><trkpt lat="57.78862" lon="14.14977667"><ele>102.0</ele><time>2016-06-18T06:24:01.288Z</time></trkpt><trkpt lat="57.78872167" lon="14.14972833"><ele>102.0</ele><time>2016-06-18T06:24:02.293Z</time></trkpt><trkpt lat="57.78872167" lon="14.14972833"><ele>102.0</ele><time>2016-06-18T06:24:03.316Z</time></trkpt><trkpt lat="57.78891667" lon="14.14964167"><ele>101.0</ele><time>2016-06-18T06:24:04.295Z</time></trkpt><trkpt lat="57.78901667" lon="14.1496"><ele>101.0</ele><time>2016-06-18T06:24:05.311Z</time></trkpt><trkpt lat="57.78901667" lon="14.1496"><ele>101.0</ele><time>2016-06-18T06:24:06.296Z</time></trkpt><trkpt lat="57.78921667" lon="14.14952333"><ele>101.0</ele><time>2016-06-18T06:24:07.310Z</time></trkpt><trkpt lat="57.78921667" lon="14.14952333"><ele>101.0</ele><time>2016-06-18T06:24:08.313Z</time></trkpt><trkpt lat="57.789415" lon="14.14943833"><ele>101.0</ele><time>2016-06-18T06:24:09.320Z</time></trkpt><trkpt lat="57.78951167" lon="14.14939333"><ele>101.0</ele><time>2016-06-18T06:24:10.282Z</time></trkpt><trkpt lat="57.78951167" lon="14.14939333"><ele>101.0</ele><time>2016-06-18T06:24:11.290Z</time></trkpt><trkpt lat="57.78970333" lon="14.14930333"><ele>101.0</ele><time>2016-06-18T06:24:12.295Z</time></trkpt><trkpt lat="57.78979833" lon="14.14925667"><ele>101.0</ele><time>2016-06-18T06:24:13.293Z</time></trkpt><trkpt lat="57.78989167" lon="14.14920833"><ele>100.0</ele><time>2016-06-18T06:24:14.316Z</time></trkpt><trkpt lat="57.78989167" lon="14.14920833"><ele>100.0</ele><time>2016-06-18T06:24:15.299Z</time></trkpt><trkpt lat="57.79008" lon="14.14911167"><ele>100.0</ele><time>2016-06-18T06:24:16.305Z</time></trkpt><trkpt lat="57.79017333" lon="14.14906667"><ele>100.0</ele><time>2016-06-18T06:24:17.300Z</time></trkpt><trkpt lat="57.79017333" lon="14.14906667"><ele>100.0</ele><time>2016-06-18T06:24:18.301Z</time></trkpt><trkpt lat="57.79035833" lon="14.14898333"><ele>100.0</ele><time>2016-06-18T06:24:19.308Z</time></trkpt><trkpt lat="57.79035833" lon="14.14898333"><ele>100.0</ele><time>2016-06-18T06:24:20.304Z</time></trkpt><trkpt lat="57.79053667" lon="14.148915"><ele>101.0</ele><time>2016-06-18T06:24:21.312Z</time></trkpt><trkpt lat="57.79053667" lon="14.148915"><ele>101.0</ele><time>2016-06-18T06:24:22.305Z</time></trkpt><trkpt lat="57.79070833" lon="14.148855"><ele>102.0</ele><time>2016-06-18T06:24:23.320Z</time></trkpt><trkpt lat="57.79078667" lon="14.14882667"><ele>102.0</ele><time>2016-06-18T06:24:24.318Z</time></trkpt><trkpt lat="57.79078667" lon="14.14882667"><ele>102.0</ele><time>2016-06-18T06:24:25.283Z</time></trkpt><trkpt lat="57.790935" lon="14.14878333"><ele>102.0</ele><time>2016-06-18T06:24:26.290Z</time></trkpt><trkpt lat="57.791" lon="14.14876"><ele>102.0</ele><time>2016-06-18T06:24:27.288Z</time></trkpt><trkpt lat="57.791" lon="14.14876"><ele>102.0</ele><time>2016-06-18T06:24:28.310Z</time></trkpt><trkpt lat="57.79111833" lon="14.14872167"><ele>103.0</ele><time>2016-06-18T06:24:29.317Z</time></trkpt><trkpt lat="57.79116833" lon="14.14870667"><ele>103.0</ele><time>2016-06-18T06:24:30.303Z</time></trkpt><trkpt lat="57.79116833" lon="14.14870667"><ele>103.0</ele><time>2016-06-18T06:24:31.286Z</time></trkpt><trkpt lat="57.791265" lon="14.14868167"><ele>104.0</ele><time>2016-06-18T06:24:32.293Z</time></trkpt><trkpt lat="57.791265" lon="14.14868167"><ele>104.0</ele><time>2016-06-18T06:24:33.317Z</time></trkpt><trkpt lat="57.79135333" lon="14.148665"><ele>104.0</ele><time>2016-06-18T06:24:34.298Z</time></trkpt><trkpt lat="57.79135333" lon="14.148665"><ele>104.0</ele><time>2016-06-18T06:24:35.282Z</time></trkpt><trkpt lat="57.79144" lon="14.14865167"><ele>105.0</ele><time>2016-06-18T06:24:36.298Z</time></trkpt><trkpt lat="57.79144" lon="14.14865167"><ele>105.0</ele><time>2016-06-18T06:24:37.320Z</time></trkpt><trkpt lat="57.791535" lon="14.14864167"><ele>106.0</ele><time>2016-06-18T06:24:38.295Z</time></trkpt><trkpt lat="57.791535" lon="14.14864167"><ele>106.0</ele><time>2016-06-18T06:24:39.283Z</time></trkpt><trkpt lat="57.79162167" lon="14.14863167"><ele>106.0</ele><time>2016-06-18T06:24:40.298Z</time></trkpt><trkpt lat="57.79162167" lon="14.14863167"><ele>106.0</ele><time>2016-06-18T06:24:41.320Z</time></trkpt><trkpt lat="57.79170833" lon="14.14862333"><ele>107.0</ele><time>2016-06-18T06:24:42.288Z</time></trkpt><trkpt lat="57.79170833" lon="14.14862333"><ele>107.0</ele><time>2016-06-18T06:24:43.310Z</time></trkpt><trkpt lat="57.79179833" lon="14.148615"><ele>107.0</ele><time>2016-06-18T06:24:44.288Z</time></trkpt><trkpt lat="57.79179833" lon="14.148615"><ele>107.0</ele><time>2016-06-18T06:24:45.308Z</time></trkpt><trkpt lat="57.79189167" lon="14.148605"><ele>108.0</ele><time>2016-06-18T06:24:46.316Z</time></trkpt><trkpt lat="57.79194" lon="14.14860333"><ele>108.0</ele><time>2016-06-18T06:24:47.301Z</time></trkpt><trkpt lat="57.79194" lon="14.14860333"><ele>108.0</ele><time>2016-06-18T06:24:48.313Z</time></trkpt><trkpt lat="57.79203667" lon="14.14860167"><ele>109.0</ele><time>2016-06-18T06:24:49.282Z</time></trkpt><trkpt lat="57.79208333" lon="14.14859333"><ele>110.0</ele><time>2016-06-18T06:24:50.295Z</time></trkpt><trkpt lat="57.79208333" lon="14.14859333"><ele>110.0</ele><time>2016-06-18T06:24:51.297Z</time></trkpt><trkpt lat="57.79217667" lon="14.14857833"><ele>110.0</ele><time>2016-06-18T06:24:52.309Z</time></trkpt><trkpt lat="57.79217667" lon="14.14857833"><ele>110.0</ele><time>2016-06-18T06:24:53.290Z</time></trkpt><trkpt lat="57.79227167" lon="14.14857"><ele>111.0</ele><time>2016-06-18T06:24:54.299Z</time></trkpt><trkpt lat="57.79227167" lon="14.14857"><ele>111.0</ele><time>2016-06-18T06:24:55.320Z</time></trkpt><trkpt lat="57.79237" lon="14.14856333"><ele>111.0</ele><time>2016-06-18T06:24:56.293Z</time></trkpt><trkpt lat="57.79237" lon="14.14856333"><ele>111.0</ele><time>2016-06-18T06:24:57.298Z</time></trkpt><trkpt lat="57.79246333" lon="14.14855167"><ele>112.0</ele><time>2016-06-18T06:24:58.306Z</time></trkpt><trkpt lat="57.79250833" lon="14.14854667"><ele>112.0</ele><time>2016-06-18T06:24:59.313Z</time></trkpt><trkpt lat="57.79250833" lon="14.14854667"><ele>112.0</ele><time>2016-06-18T06:25:00.303Z</time></trkpt><trkpt lat="57.79259667" lon="14.14853333"><ele>112.0</ele><time>2016-06-18T06:25:01.310Z</time></trkpt><trkpt lat="57.79263833" lon="14.14852667"><ele>112.0</ele><time>2016-06-18T06:25:02.308Z</time></trkpt><trkpt lat="57.79263833" lon="14.14852667"><ele>112.0</ele><time>2016-06-18T06:25:03.305Z</time></trkpt><trkpt lat="57.79272" lon="14.14851333"><ele>112.0</ele><time>2016-06-18T06:25:04.312Z</time></trkpt><trkpt lat="57.79276167" lon="14.14850667"><ele>113.0</ele><time>2016-06-18T06:25:05.300Z</time></trkpt><trkpt lat="57.79276167" lon="14.14850667"><ele>113.0</ele><time>2016-06-18T06:25:06.310Z</time></trkpt><trkpt lat="57.79284833" lon="14.14849833"><ele>113.0</ele><time>2016-06-18T06:25:07.288Z</time></trkpt><trkpt lat="57.79289167" lon="14.14849333"><ele>113.0</ele><time>2016-06-18T06:25:08.289Z</time></trkpt><trkpt lat="57.79289167" lon="14.14849333"><ele>113.0</ele><time>2016-06-18T06:25:09.316Z</time></trkpt><trkpt lat="57.79299167" lon="14.14847667"><ele>113.0</ele><time>2016-06-18T06:25:10.314Z</time></trkpt><trkpt lat="57.79299167" lon="14.14847667"><ele>113.0</ele><time>2016-06-18T06:25:11.312Z</time></trkpt><trkpt lat="57.79310833" lon="14.148475"><ele>114.0</ele><time>2016-06-18T06:25:12.288Z</time></trkpt><trkpt lat="57.79310833" lon="14.148475"><ele>114.0</ele><time>2016-06-18T06:25:13.320Z</time></trkpt><trkpt lat="57.79324167" lon="14.14845833"><ele>113.0</ele><time>2016-06-18T06:25:14.289Z</time></trkpt><trkpt lat="57.79324167" lon="14.14845833"><ele>113.0</ele><time>2016-06-18T06:25:15.320Z</time></trkpt><trkpt lat="57.79338833" lon="14.14844333"><ele>112.0</ele><time>2016-06-18T06:25:16.304Z</time></trkpt><trkpt lat="57.79338833" lon="14.14844333"><ele>112.0</ele><time>2016-06-18T06:25:17.311Z</time></trkpt><trkpt lat="57.79354667" lon="14.14843"><ele>111.0</ele><time>2016-06-18T06:25:18.291Z</time></trkpt><trkpt lat="57.79362667" lon="14.14842167"><ele>111.0</ele><time>2016-06-18T06:25:19.282Z</time></trkpt><trkpt lat="57.79370833" lon="14.14842"><ele>111.0</ele><time>2016-06-18T06:25:20.292Z</time></trkpt><trkpt lat="57.79370833" lon="14.14842"><ele>111.0</ele><time>2016-06-18T06:25:21.285Z</time></trkpt><trkpt lat="57.79386667" lon="14.14841333"><ele>111.0</ele><time>2016-06-18T06:25:22.297Z</time></trkpt><trkpt lat="57.79386667" lon="14.14841333"><ele>111.0</ele><time>2016-06-18T06:25:23.291Z</time></trkpt><trkpt lat="57.79401833" lon="14.14840833"><ele>111.0</ele><time>2016-06-18T06:25:24.316Z</time></trkpt><trkpt lat="57.79408333" lon="14.14841"><ele>111.0</ele><time>2016-06-18T06:25:25.296Z</time></trkpt><trkpt lat="57.79408333" lon="14.14841"><ele>111.0</ele><time>2016-06-18T06:25:26.285Z</time></trkpt><trkpt lat="57.794215" lon="14.14842833"><ele>111.0</ele><time>2016-06-18T06:25:27.287Z</time></trkpt><trkpt lat="57.794215" lon="14.14842833"><ele>111.0</ele><time>2016-06-18T06:25:28.297Z</time></trkpt><trkpt lat="57.79435" lon="14.14845167"><ele>110.0</ele><time>2016-06-18T06:25:29.307Z</time></trkpt><trkpt lat="57.79435" lon="14.14845167"><ele>110.0</ele><time>2016-06-18T06:25:30.299Z</time></trkpt><trkpt lat="57.79449" lon="14.14846667"><ele>110.0</ele><time>2016-06-18T06:25:31.308Z</time></trkpt><trkpt lat="57.794565" lon="14.14847833"><ele>110.0</ele><time>2016-06-18T06:25:32.314Z</time></trkpt><trkpt lat="57.794565" lon="14.14847833"><ele>110.0</ele><time>2016-06-18T06:25:33.306Z</time></trkpt><trkpt lat="57.79471833" lon="14.14850167"><ele>109.0</ele><time>2016-06-18T06:25:34.320Z</time></trkpt><trkpt lat="57.79471833" lon="14.14850167"><ele>109.0</ele><time>2016-06-18T06:25:35.287Z</time></trkpt><trkpt lat="57.79487833" lon="14.14853667"><ele>109.0</ele><time>2016-06-18T06:25:36.300Z</time></trkpt><trkpt lat="57.79496167" lon="14.148565"><ele>108.0</ele><time>2016-06-18T06:25:37.295Z</time></trkpt><trkpt lat="57.79496167" lon="14.148565"><ele>108.0</ele><time>2016-06-18T06:25:38.311Z</time></trkpt><trkpt lat="57.79513167" lon="14.14862833"><ele>108.0</ele><time>2016-06-18T06:25:39.305Z</time></trkpt><trkpt lat="57.79513167" lon="14.14862833"><ele>108.0</ele><time>2016-06-18T06:25:40.289Z</time></trkpt><trkpt lat="57.79530333" lon="14.14868"><ele>108.0</ele><time>2016-06-18T06:25:41.301Z</time></trkpt><trkpt lat="57.79538833" lon="14.148705"><ele>108.0</ele><time>2016-06-18T06:25:42.306Z</time></trkpt><trkpt lat="57.79538833" lon="14.148705"><ele>108.0</ele><time>2016-06-18T06:25:43.293Z</time></trkpt><trkpt lat="57.79555667" lon="14.14875667"><ele>109.0</ele><time>2016-06-18T06:25:44.294Z</time></trkpt><trkpt lat="57.79555667" lon="14.14875667"><ele>109.0</ele><time>2016-06-18T06:25:45.315Z</time></trkpt><trkpt lat="57.79572167" lon="14.14880833"><ele>109.0</ele><time>2016-06-18T06:25:46.283Z</time></trkpt><trkpt lat="57.79572167" lon="14.14880833"><ele>109.0</ele><time>2016-06-18T06:25:47.310Z</time></trkpt><trkpt lat="57.79589" lon="14.14886"><ele>108.0</ele><time>2016-06-18T06:25:48.291Z</time></trkpt><trkpt lat="57.79589" lon="14.14886"><ele>108.0</ele><time>2016-06-18T06:25:49.306Z</time></trkpt><trkpt lat="57.79606167" lon="14.14891667"><ele>108.0</ele><time>2016-06-18T06:25:50.315Z</time></trkpt><trkpt lat="57.79606167" lon="14.14891667"><ele>108.0</ele><time>2016-06-18T06:25:51.321Z</time></trkpt><trkpt lat="57.79624" lon="14.14897"><ele>107.0</ele><time>2016-06-18T06:25:52.294Z</time></trkpt><trkpt lat="57.79624" lon="14.14897"><ele>107.0</ele><time>2016-06-18T06:25:53.312Z</time></trkpt><trkpt lat="57.79642" lon="14.14901667"><ele>106.0</ele><time>2016-06-18T06:25:54.320Z</time></trkpt><trkpt lat="57.79642" lon="14.14901667"><ele>106.0</ele><time>2016-06-18T06:25:55.305Z</time></trkpt><trkpt lat="57.796605" lon="14.14906667"><ele>106.0</ele><time>2016-06-18T06:25:56.298Z</time></trkpt><trkpt lat="57.796605" lon="14.14906667"><ele>106.0</ele><time>2016-06-18T06:25:57.299Z</time></trkpt><trkpt lat="57.79678833" lon="14.14910833"><ele>106.0</ele><time>2016-06-18T06:25:58.309Z</time></trkpt><trkpt lat="57.79678833" lon="14.14910833"><ele>106.0</ele><time>2016-06-18T06:25:59.305Z</time></trkpt><trkpt lat="57.79696167" lon="14.14915167"><ele>106.0</ele><time>2016-06-18T06:26:00.316Z</time></trkpt><trkpt lat="57.79696167" lon="14.14915167"><ele>106.0</ele><time>2016-06-18T06:26:01.300Z</time></trkpt><trkpt lat="57.79713" lon="14.149195"><ele>106.0</ele><time>2016-06-18T06:26:02.309Z</time></trkpt><trkpt lat="57.79713" lon="14.149195"><ele>106.0</ele><time>2016-06-18T06:26:03.297Z</time></trkpt><trkpt lat="57.79729833" lon="14.14924333"><ele>107.0</ele><time>2016-06-18T06:26:04.308Z</time></trkpt><trkpt lat="57.79729833" lon="14.14924333"><ele>107.0</ele><time>2016-06-18T06:26:05.303Z</time></trkpt><trkpt lat="57.79746333" lon="14.149285"><ele>107.0</ele><time>2016-06-18T06:26:06.312Z</time></trkpt><trkpt lat="57.79746333" lon="14.149285"><ele>107.0</ele><time>2016-06-18T06:26:07.321Z</time></trkpt><trkpt lat="57.79762833" lon="14.14932167"><ele>107.0</ele><time>2016-06-18T06:26:08.298Z</time></trkpt><trkpt lat="57.79762833" lon="14.14932167"><ele>107.0</ele><time>2016-06-18T06:26:09.320Z</time></trkpt><trkpt lat="57.79778667" lon="14.14935667"><ele>107.0</ele><time>2016-06-18T06:26:10.288Z</time></trkpt><trkpt lat="57.79778667" lon="14.14935667"><ele>107.0</ele><time>2016-06-18T06:26:11.314Z</time></trkpt><trkpt lat="57.79794667" lon="14.14938833"><ele>108.0</ele><time>2016-06-18T06:26:12.305Z</time></trkpt><trkpt lat="57.79794667" lon="14.14938833"><ele>108.0</ele><time>2016-06-18T06:26:13.287Z</time></trkpt><trkpt lat="57.79811" lon="14.14942167"><ele>108.0</ele><time>2016-06-18T06:26:14.298Z</time></trkpt><trkpt lat="57.79811" lon="14.14942167"><ele>108.0</ele><time>2016-06-18T06:26:15.319Z</time></trkpt><trkpt lat="57.79826333" lon="14.14945"><ele>108.0</ele><time>2016-06-18T06:26:16.304Z</time></trkpt><trkpt lat="57.79826333" lon="14.14945"><ele>108.0</ele><time>2016-06-18T06:26:17.286Z</time></trkpt><trkpt lat="57.79840833" lon="14.14948167"><ele>108.0</ele><time>2016-06-18T06:26:18.293Z</time></trkpt><trkpt lat="57.79840833" lon="14.14948167"><ele>108.0</ele><time>2016-06-18T06:26:19.319Z</time></trkpt><trkpt lat="57.798555" lon="14.14951167"><ele>109.0</ele><time>2016-06-18T06:26:20.302Z</time></trkpt><trkpt lat="57.798555" lon="14.14951167"><ele>109.0</ele><time>2016-06-18T06:26:21.285Z</time></trkpt><trkpt lat="57.79870667" lon="14.149535"><ele>108.0</ele><time>2016-06-18T06:26:22.299Z</time></trkpt><trkpt lat="57.79870667" lon="14.149535"><ele>108.0</ele><time>2016-06-18T06:26:23.322Z</time></trkpt><trkpt lat="57.79886167" lon="14.14956667"><ele>109.0</ele><time>2016-06-18T06:26:24.308Z</time></trkpt><trkpt lat="57.79886167" lon="14.14956667"><ele>109.0</ele><time>2016-06-18T06:26:25.301Z</time></trkpt><trkpt lat="57.79901167" lon="14.14960167"><ele>109.0</ele><time>2016-06-18T06:26:26.309Z</time></trkpt><trkpt lat="57.79901167" lon="14.14960167"><ele>109.0</ele><time>2016-06-18T06:26:27.292Z</time></trkpt><trkpt lat="57.79915833" lon="14.14963333"><ele>109.0</ele><time>2016-06-18T06:26:28.288Z</time></trkpt><trkpt lat="57.79915833" lon="14.14963333"><ele>109.0</ele><time>2016-06-18T06:26:29.305Z</time></trkpt><trkpt lat="57.7993" lon="14.149665"><ele>109.0</ele><time>2016-06-18T06:26:30.319Z</time></trkpt><trkpt lat="57.7993" lon="14.149665"><ele>109.0</ele><time>2016-06-18T06:26:31.306Z</time></trkpt><trkpt lat="57.79942667" lon="14.14968833"><ele>109.0</ele><time>2016-06-18T06:26:32.294Z</time></trkpt><trkpt lat="57.79942667" lon="14.14968833"><ele>109.0</ele><time>2016-06-18T06:26:33.284Z</time></trkpt><trkpt lat="57.79955167" lon="14.14971167"><ele>109.0</ele><time>2016-06-18T06:26:34.298Z</time></trkpt><trkpt lat="57.79961167" lon="14.14972333"><ele>109.0</ele><time>2016-06-18T06:26:35.300Z</time></trkpt><trkpt lat="57.79961167" lon="14.14972333"><ele>109.0</ele><time>2016-06-18T06:26:36.282Z</time></trkpt><trkpt lat="57.79973833" lon="14.149745"><ele>109.0</ele><time>2016-06-18T06:26:37.292Z</time></trkpt><trkpt lat="57.79973833" lon="14.149745"><ele>109.0</ele><time>2016-06-18T06:26:38.316Z</time></trkpt><trkpt lat="57.79987" lon="14.14977167"><ele>110.0</ele><time>2016-06-18T06:26:39.313Z</time></trkpt><trkpt lat="57.79993833" lon="14.14979"><ele>110.0</ele><time>2016-06-18T06:26:40.301Z</time></trkpt><trkpt lat="57.80000833" lon="14.14980833"><ele>110.0</ele><time>2016-06-18T06:26:41.317Z</time></trkpt><trkpt lat="57.80000833" lon="14.14980833"><ele>110.0</ele><time>2016-06-18T06:26:42.297Z</time></trkpt><trkpt lat="57.80015333" lon="14.14985"><ele>110.0</ele><time>2016-06-18T06:26:43.291Z</time></trkpt><trkpt lat="57.80023167" lon="14.14987"><ele>110.0</ele><time>2016-06-18T06:26:44.298Z</time></trkpt><trkpt lat="57.80023167" lon="14.14987"><ele>110.0</ele><time>2016-06-18T06:26:45.310Z</time></trkpt><trkpt lat="57.800385" lon="14.14990333"><ele>110.0</ele><time>2016-06-18T06:26:46.320Z</time></trkpt><trkpt lat="57.80046167" lon="14.149925"><ele>110.0</ele><time>2016-06-18T06:26:47.314Z</time></trkpt><trkpt lat="57.80046167" lon="14.149925"><ele>110.0</ele><time>2016-06-18T06:26:48.296Z</time></trkpt><trkpt lat="57.80061667" lon="14.14996667"><ele>110.0</ele><time>2016-06-18T06:26:49.304Z</time></trkpt><trkpt lat="57.800695" lon="14.14999"><ele>110.0</ele><time>2016-06-18T06:26:50.309Z</time></trkpt><trkpt lat="57.800695" lon="14.14999"><ele>110.0</ele><time>2016-06-18T06:26:51.316Z</time></trkpt><trkpt lat="57.80085667" lon="14.15003"><ele>110.0</ele><time>2016-06-18T06:26:52.284Z</time></trkpt><trkpt lat="57.80085667" lon="14.15003"><ele>110.0</ele><time>2016-06-18T06:26:53.320Z</time></trkpt><trkpt lat="57.80101833" lon="14.150065"><ele>110.0</ele><time>2016-06-18T06:26:54.292Z</time></trkpt><trkpt lat="57.80101833" lon="14.150065"><ele>110.0</ele><time>2016-06-18T06:26:55.299Z</time></trkpt><trkpt lat="57.801185" lon="14.1501"><ele>109.0</ele><time>2016-06-18T06:26:56.308Z</time></trkpt><trkpt lat="57.801185" lon="14.1501"><ele>109.0</ele><time>2016-06-18T06:26:57.289Z</time></trkpt><trkpt lat="57.80135333" lon="14.15013833"><ele>109.0</ele><time>2016-06-18T06:26:58.298Z</time></trkpt><trkpt lat="57.80135333" lon="14.15013833"><ele>109.0</ele><time>2016-06-18T06:26:59.305Z</time></trkpt><trkpt lat="57.80151333" lon="14.15018333"><ele>109.0</ele><time>2016-06-18T06:27:00.313Z</time></trkpt><trkpt lat="57.80151333" lon="14.15018333"><ele>109.0</ele><time>2016-06-18T06:27:01.321Z</time></trkpt><trkpt lat="57.80166" lon="14.15021667"><ele>109.0</ele><time>2016-06-18T06:27:02.288Z</time></trkpt><trkpt lat="57.80166" lon="14.15021667"><ele>109.0</ele><time>2016-06-18T06:27:03.296Z</time></trkpt><trkpt lat="57.80180333" lon="14.15025167"><ele>109.0</ele><time>2016-06-18T06:27:04.289Z</time></trkpt><trkpt lat="57.80180333" lon="14.15025167"><ele>109.0</ele><time>2016-06-18T06:27:05.311Z</time></trkpt><trkpt lat="57.80194833" lon="14.15029167"><ele>109.0</ele><time>2016-06-18T06:27:06.318Z</time></trkpt><trkpt lat="57.80202167" lon="14.15029833"><ele>109.0</ele><time>2016-06-18T06:27:07.318Z</time></trkpt><trkpt lat="57.80209167" lon="14.15029833"><ele>110.0</ele><time>2016-06-18T06:27:08.303Z</time></trkpt><trkpt lat="57.80209167" lon="14.15029833"><ele>110.0</ele><time>2016-06-18T06:27:09.286Z</time></trkpt><trkpt lat="57.80223333" lon="14.15030167"><ele>110.0</ele><time>2016-06-18T06:27:10.293Z</time></trkpt><trkpt lat="57.80223333" lon="14.15030167"><ele>110.0</ele><time>2016-06-18T06:27:11.309Z</time></trkpt><trkpt lat="57.80237167" lon="14.15030833"><ele>111.0</ele><time>2016-06-18T06:27:12.320Z</time></trkpt><trkpt lat="57.80243833" lon="14.15031"><ele>111.0</ele><time>2016-06-18T06:27:13.303Z</time></trkpt><trkpt lat="57.80243833" lon="14.15031"><ele>111.0</ele><time>2016-06-18T06:27:14.285Z</time></trkpt><trkpt lat="57.802575" lon="14.15031667"><ele>111.0</ele><time>2016-06-18T06:27:15.308Z</time></trkpt><trkpt lat="57.802575" lon="14.15031667"><ele>111.0</ele><time>2016-06-18T06:27:16.309Z</time></trkpt><trkpt lat="57.802715" lon="14.15031833"><ele>112.0</ele><time>2016-06-18T06:27:17.316Z</time></trkpt><trkpt lat="57.802715" lon="14.15031833"><ele>112.0</ele><time>2016-06-18T06:27:18.300Z</time></trkpt><trkpt lat="57.80285667" lon="14.150315"><ele>112.0</ele><time>2016-06-18T06:27:19.320Z</time></trkpt><trkpt lat="57.80292833" lon="14.15031"><ele>112.0</ele><time>2016-06-18T06:27:20.312Z</time></trkpt><trkpt lat="57.80292833" lon="14.15031"><ele>112.0</ele><time>2016-06-18T06:27:21.295Z</time></trkpt><trkpt lat="57.80307333" lon="14.15031333"><ele>112.0</ele><time>2016-06-18T06:27:22.318Z</time></trkpt><trkpt lat="57.80307333" lon="14.15031333"><ele>112.0</ele><time>2016-06-18T06:27:23.302Z</time></trkpt><trkpt lat="57.80322" lon="14.15031667"><ele>112.0</ele><time>2016-06-18T06:27:24.311Z</time></trkpt><trkpt lat="57.803295" lon="14.15032333"><ele>112.0</ele><time>2016-06-18T06:27:25.289Z</time></trkpt><trkpt lat="57.80337" lon="14.15032833"><ele>113.0</ele><time>2016-06-18T06:27:26.311Z</time></trkpt><trkpt lat="57.80337" lon="14.15032833"><ele>113.0</ele><time>2016-06-18T06:27:27.296Z</time></trkpt><trkpt lat="57.80352167" lon="14.15033333"><ele>112.0</ele><time>2016-06-18T06:27:28.301Z</time></trkpt><trkpt lat="57.80352167" lon="14.15033333"><ele>112.0</ele><time>2016-06-18T06:27:29.304Z</time></trkpt><trkpt lat="57.80367667" lon="14.15034167"><ele>112.0</ele><time>2016-06-18T06:27:30.301Z</time></trkpt><trkpt lat="57.80375333" lon="14.15034333"><ele>112.0</ele><time>2016-06-18T06:27:31.297Z</time></trkpt><trkpt lat="57.80382833" lon="14.150345"><ele>112.0</ele><time>2016-06-18T06:27:32.315Z</time></trkpt><trkpt lat="57.80382833" lon="14.150345"><ele>112.0</ele><time>2016-06-18T06:27:33.301Z</time></trkpt><trkpt lat="57.803975" lon="14.15035"><ele>113.0</ele><time>2016-06-18T06:27:34.327Z</time></trkpt><trkpt lat="57.80404833" lon="14.15034667"><ele>113.0</ele><time>2016-06-18T06:27:35.290Z</time></trkpt><trkpt lat="57.80404833" lon="14.15034667"><ele>113.0</ele><time>2016-06-18T06:27:36.312Z</time></trkpt><trkpt lat="57.80419833" lon="14.15034833"><ele>113.0</ele><time>2016-06-18T06:27:37.297Z</time></trkpt><trkpt lat="57.80427" lon="14.15035333"><ele>113.0</ele><time>2016-06-18T06:27:38.308Z</time></trkpt><trkpt lat="57.80427" lon="14.15035333"><ele>113.0</ele><time>2016-06-18T06:27:39.294Z</time></trkpt><trkpt lat="57.80440667" lon="14.15036"><ele>114.0</ele><time>2016-06-18T06:27:40.312Z</time></trkpt><trkpt lat="57.80447667" lon="14.15035833"><ele>114.0</ele><time>2016-06-18T06:27:41.302Z</time></trkpt><trkpt lat="57.80447667" lon="14.15035833"><ele>114.0</ele><time>2016-06-18T06:27:42.286Z</time></trkpt><trkpt lat="57.80461" lon="14.150325"><ele>114.0</ele><time>2016-06-18T06:27:43.299Z</time></trkpt><trkpt lat="57.80467667" lon="14.15029833"><ele>114.0</ele><time>2016-06-18T06:27:44.300Z</time></trkpt><trkpt lat="57.80467667" lon="14.15029833"><ele>114.0</ele><time>2016-06-18T06:27:45.282Z</time></trkpt><trkpt lat="57.80480333" lon="14.15024333"><ele>114.0</ele><time>2016-06-18T06:27:46.289Z</time></trkpt><trkpt lat="57.80480333" lon="14.15024333"><ele>114.0</ele><time>2016-06-18T06:27:47.309Z</time></trkpt><trkpt lat="57.80492167" lon="14.15019333"><ele>115.0</ele><time>2016-06-18T06:27:48.309Z</time></trkpt><trkpt lat="57.80492167" lon="14.15019333"><ele>115.0</ele><time>2016-06-18T06:27:49.297Z</time></trkpt><trkpt lat="57.80503" lon="14.150125"><ele>115.0</ele><time>2016-06-18T06:27:50.306Z</time></trkpt><trkpt lat="57.80503" lon="14.150125"><ele>115.0</ele><time>2016-06-18T06:27:51.321Z</time></trkpt><trkpt lat="57.80513167" lon="14.15006167"><ele>116.0</ele><time>2016-06-18T06:27:52.298Z</time></trkpt><trkpt lat="57.80513167" lon="14.15006167"><ele>116.0</ele><time>2016-06-18T06:27:53.319Z</time></trkpt><trkpt lat="57.80522833" lon="14.15"><ele>116.0</ele><time>2016-06-18T06:27:54.285Z</time></trkpt><trkpt lat="57.80522833" lon="14.15"><ele>116.0</ele><time>2016-06-18T06:27:55.307Z</time></trkpt><trkpt lat="57.80532" lon="14.149935"><ele>116.0</ele><time>2016-06-18T06:27:56.296Z</time></trkpt><trkpt lat="57.80532" lon="14.149935"><ele>116.0</ele><time>2016-06-18T06:27:57.318Z</time></trkpt><trkpt lat="57.80541" lon="14.14985333"><ele>117.0</ele><time>2016-06-18T06:27:58.285Z</time></trkpt><trkpt lat="57.80541" lon="14.14985333"><ele>117.0</ele><time>2016-06-18T06:27:59.313Z</time></trkpt><trkpt lat="57.80549833" lon="14.14977333"><ele>117.0</ele><time>2016-06-18T06:28:00.323Z</time></trkpt><trkpt lat="57.80549833" lon="14.14977333"><ele>117.0</ele><time>2016-06-18T06:28:01.300Z</time></trkpt><trkpt lat="57.80558667" lon="14.14969333"><ele>118.0</ele><time>2016-06-18T06:28:02.312Z</time></trkpt><trkpt lat="57.80558667" lon="14.14969333"><ele>118.0</ele><time>2016-06-18T06:28:03.286Z</time></trkpt><trkpt lat="57.80567167" lon="14.14961833"><ele>118.0</ele><time>2016-06-18T06:28:04.305Z</time></trkpt><trkpt lat="57.80567167" lon="14.14961833"><ele>118.0</ele><time>2016-06-18T06:28:05.321Z</time></trkpt><trkpt lat="57.80576" lon="14.14955167"><ele>118.0</ele><time>2016-06-18T06:28:06.288Z</time></trkpt><trkpt lat="57.805805" lon="14.14951667"><ele>119.0</ele><time>2016-06-18T06:28:07.318Z</time></trkpt><trkpt lat="57.80585" lon="14.14947667"><ele>119.0</ele><time>2016-06-18T06:28:08.293Z</time></trkpt><trkpt lat="57.80585" lon="14.14947667"><ele>119.0</ele><time>2016-06-18T06:28:09.289Z</time></trkpt><trkpt lat="57.80594167" lon="14.149405"><ele>120.0</ele><time>2016-06-18T06:28:10.291Z</time></trkpt><trkpt lat="57.80594167" lon="14.149405"><ele>120.0</ele><time>2016-06-18T06:28:11.314Z</time></trkpt><trkpt lat="57.80603" lon="14.14933667"><ele>120.0</ele><time>2016-06-18T06:28:12.299Z</time></trkpt><trkpt lat="57.80603" lon="14.14933667"><ele>120.0</ele><time>2016-06-18T06:28:13.285Z</time></trkpt><trkpt lat="57.80612167" lon="14.149275"><ele>121.0</ele><time>2016-06-18T06:28:14.301Z</time></trkpt><trkpt lat="57.80612167" lon="14.149275"><ele>121.0</ele><time>2016-06-18T06:28:15.284Z</time></trkpt><trkpt lat="57.80621167" lon="14.14920167"><ele>121.0</ele><time>2016-06-18T06:28:16.305Z</time></trkpt><trkpt lat="57.80621167" lon="14.14920167"><ele>121.0</ele><time>2016-06-18T06:28:17.317Z</time></trkpt><trkpt lat="57.8063" lon="14.14912667"><ele>122.0</ele><time>2016-06-18T06:28:18.284Z</time></trkpt><trkpt lat="57.80634333" lon="14.14909"><ele>122.0</ele><time>2016-06-18T06:28:19.311Z</time></trkpt><trkpt lat="57.80634333" lon="14.14909"><ele>122.0</ele><time>2016-06-18T06:28:20.311Z</time></trkpt><trkpt lat="57.80643167" lon="14.14901833"><ele>122.0</ele><time>2016-06-18T06:28:21.319Z</time></trkpt><trkpt lat="57.80643167" lon="14.14901833"><ele>122.0</ele><time>2016-06-18T06:28:22.302Z</time></trkpt><trkpt lat="57.80652" lon="14.14894667"><ele>123.0</ele><time>2016-06-18T06:28:23.309Z</time></trkpt><trkpt lat="57.80652" lon="14.14894667"><ele>123.0</ele><time>2016-06-18T06:28:24.321Z</time></trkpt><trkpt lat="57.80661333" lon="14.14888333"><ele>124.0</ele><time>2016-06-18T06:28:25.288Z</time></trkpt><trkpt lat="57.80666" lon="14.14885167"><ele>124.0</ele><time>2016-06-18T06:28:26.304Z</time></trkpt><trkpt lat="57.80666" lon="14.14885167"><ele>124.0</ele><time>2016-06-18T06:28:27.312Z</time></trkpt><trkpt lat="57.80675167" lon="14.14877833"><ele>124.0</ele><time>2016-06-18T06:28:28.319Z</time></trkpt><trkpt lat="57.80679833" lon="14.14874333"><ele>124.0</ele><time>2016-06-18T06:28:29.315Z</time></trkpt><trkpt lat="57.80679833" lon="14.14874333"><ele>124.0</ele><time>2016-06-18T06:28:30.298Z</time></trkpt><trkpt lat="57.80689" lon="14.14867167"><ele>124.0</ele><time>2016-06-18T06:28:31.309Z</time></trkpt><trkpt lat="57.80689" lon="14.14867167"><ele>124.0</ele><time>2016-06-18T06:28:32.297Z</time></trkpt><trkpt lat="57.80698833" lon="14.148605"><ele>125.0</ele><time>2016-06-18T06:28:33.287Z</time></trkpt><trkpt lat="57.80698833" lon="14.148605"><ele>125.0</ele><time>2016-06-18T06:28:34.298Z</time></trkpt><trkpt lat="57.80709167" lon="14.14853"><ele>125.0</ele><time>2016-06-18T06:28:35.306Z</time></trkpt><trkpt lat="57.80709167" lon="14.14853"><ele>125.0</ele><time>2016-06-18T06:28:36.307Z</time></trkpt><trkpt lat="57.80719833" lon="14.14845667"><ele>125.0</ele><time>2016-06-18T06:28:37.299Z</time></trkpt><trkpt lat="57.80719833" lon="14.14845667"><ele>125.0</ele><time>2016-06-18T06:28:38.316Z</time></trkpt><trkpt lat="57.80730667" lon="14.14838667"><ele>125.0</ele><time>2016-06-18T06:28:39.285Z</time></trkpt><trkpt lat="57.80736" lon="14.14835167"><ele>125.0</ele><time>2016-06-18T06:28:40.316Z</time></trkpt><trkpt lat="57.80736" lon="14.14835167"><ele>125.0</ele><time>2016-06-18T06:28:41.306Z</time></trkpt><trkpt lat="57.80746833" lon="14.14828667"><ele>125.0</ele><time>2016-06-18T06:28:42.314Z</time></trkpt><trkpt lat="57.80752333" lon="14.14825167"><ele>125.0</ele><time>2016-06-18T06:28:43.305Z</time></trkpt><trkpt lat="57.80757833" lon="14.14822"><ele>125.0</ele><time>2016-06-18T06:28:44.300Z</time></trkpt><trkpt lat="57.80757833" lon="14.14822"><ele>125.0</ele><time>2016-06-18T06:28:45.286Z</time></trkpt><trkpt lat="57.80769333" lon="14.14817"><ele>125.0</ele><time>2016-06-18T06:28:46.293Z</time></trkpt><trkpt lat="57.80769333" lon="14.14817"><ele>125.0</ele><time>2016-06-18T06:28:47.320Z</time></trkpt><trkpt lat="57.80781167" lon="14.14812667"><ele>125.0</ele><time>2016-06-18T06:28:48.292Z</time></trkpt><trkpt lat="57.80781167" lon="14.14812667"><ele>125.0</ele><time>2016-06-18T06:28:49.310Z</time></trkpt><trkpt lat="57.80792833" lon="14.14809"><ele>125.0</ele><time>2016-06-18T06:28:50.318Z</time></trkpt><trkpt lat="57.80799" lon="14.14807833"><ele>125.0</ele><time>2016-06-18T06:28:51.315Z</time></trkpt><trkpt lat="57.80799" lon="14.14807833"><ele>125.0</ele><time>2016-06-18T06:28:52.298Z</time></trkpt><trkpt lat="57.80810667" lon="14.14804167"><ele>125.0</ele><time>2016-06-18T06:28:53.305Z</time></trkpt><trkpt lat="57.80816167" lon="14.14802667"><ele>125.0</ele><time>2016-06-18T06:28:54.307Z</time></trkpt><trkpt lat="57.80816167" lon="14.14802667"><ele>125.0</ele><time>2016-06-18T06:28:55.315Z</time></trkpt><trkpt lat="57.808275" lon="14.14798333"><ele>125.0</ele><time>2016-06-18T06:28:56.282Z</time></trkpt><trkpt lat="57.808275" lon="14.14798333"><ele>125.0</ele><time>2016-06-18T06:28:57.306Z</time></trkpt><trkpt lat="57.80839" lon="14.14796333"><ele>126.0</ele><time>2016-06-18T06:28:58.286Z</time></trkpt><trkpt lat="57.80839" lon="14.14796333"><ele>126.0</ele><time>2016-06-18T06:28:59.310Z</time></trkpt><trkpt lat="57.80849833" lon="14.148"><ele>128.0</ele><time>2016-06-18T06:29:00.321Z</time></trkpt><trkpt lat="57.80854167" lon="14.14805333"><ele>128.0</ele><time>2016-06-18T06:29:01.307Z</time></trkpt><trkpt lat="57.80858667" lon="14.14812333"><ele>129.0</ele><time>2016-06-18T06:29:02.288Z</time></trkpt><trkpt lat="57.80858667" lon="14.14812333"><ele>129.0</ele><time>2016-06-18T06:29:03.311Z</time></trkpt><trkpt lat="57.80869833" lon="14.14824333"><ele>130.0</ele><time>2016-06-18T06:29:04.318Z</time></trkpt><trkpt lat="57.80869833" lon="14.14824333"><ele>130.0</ele><time>2016-06-18T06:29:05.304Z</time></trkpt><trkpt lat="57.80883" lon="14.14824667"><ele>130.0</ele><time>2016-06-18T06:29:06.286Z</time></trkpt><trkpt lat="57.80883" lon="14.14824667"><ele>130.0</ele><time>2016-06-18T06:29:07.314Z</time></trkpt><trkpt lat="57.80895167" lon="14.14813667"><ele>130.0</ele><time>2016-06-18T06:29:08.321Z</time></trkpt><trkpt lat="57.80895167" lon="14.14813667"><ele>130.0</ele><time>2016-06-18T06:29:09.285Z</time></trkpt><trkpt lat="57.80907667" lon="14.14801167"><ele>130.0</ele><time>2016-06-18T06:29:10.307Z</time></trkpt><trkpt lat="57.80907667" lon="14.14801167"><ele>130.0</ele><time>2016-06-18T06:29:11.288Z</time></trkpt><trkpt lat="57.80921167" lon="14.14791667"><ele>130.0</ele><time>2016-06-18T06:29:12.302Z</time></trkpt><trkpt lat="57.80921167" lon="14.14791667"><ele>130.0</ele><time>2016-06-18T06:29:13.288Z</time></trkpt><trkpt lat="57.80934833" lon="14.14784833"><ele>130.0</ele><time>2016-06-18T06:29:14.301Z</time></trkpt><trkpt lat="57.80934833" lon="14.14784833"><ele>130.0</ele><time>2016-06-18T06:29:15.284Z</time></trkpt><trkpt lat="57.80948333" lon="14.14779833"><ele>131.0</ele><time>2016-06-18T06:29:16.300Z</time></trkpt><trkpt lat="57.80948333" lon="14.14779833"><ele>131.0</ele><time>2016-06-18T06:29:17.310Z</time></trkpt><trkpt lat="57.809625" lon="14.14775"><ele>130.0</ele><time>2016-06-18T06:29:18.317Z</time></trkpt><trkpt lat="57.809625" lon="14.14775"><ele>130.0</ele><time>2016-06-18T06:29:19.298Z</time></trkpt><trkpt lat="57.80977" lon="14.14770833"><ele>130.0</ele><time>2016-06-18T06:29:20.298Z</time></trkpt><trkpt lat="57.80977" lon="14.14770833"><ele>130.0</ele><time>2016-06-18T06:29:21.321Z</time></trkpt><trkpt lat="57.80991667" lon="14.147675"><ele>130.0</ele><time>2016-06-18T06:29:22.287Z</time></trkpt><trkpt lat="57.80999167" lon="14.14765833"><ele>129.0</ele><time>2016-06-18T06:29:23.293Z</time></trkpt><trkpt lat="57.80999167" lon="14.14765833"><ele>129.0</ele><time>2016-06-18T06:29:24.288Z</time></trkpt><trkpt lat="57.810145" lon="14.14762333"><ele>129.0</ele><time>2016-06-18T06:29:25.300Z</time></trkpt><trkpt lat="57.810225" lon="14.14760833"><ele>129.0</ele><time>2016-06-18T06:29:26.324Z</time></trkpt><trkpt lat="57.810225" lon="14.14760833"><ele>129.0</ele><time>2016-06-18T06:29:27.317Z</time></trkpt><trkpt lat="57.81039" lon="14.147575"><ele>129.0</ele><time>2016-06-18T06:29:28.287Z</time></trkpt><trkpt lat="57.81047333" lon="14.14755833"><ele>129.0</ele><time>2016-06-18T06:29:29.319Z</time></trkpt><trkpt lat="57.81047333" lon="14.14755833"><ele>129.0</ele><time>2016-06-18T06:29:30.303Z</time></trkpt><trkpt lat="57.81063667" lon="14.14752167"><ele>129.0</ele><time>2016-06-18T06:29:31.309Z</time></trkpt><trkpt lat="57.81071667" lon="14.147505"><ele>130.0</ele><time>2016-06-18T06:29:32.288Z</time></trkpt><trkpt lat="57.81071667" lon="14.147505"><ele>130.0</ele><time>2016-06-18T06:29:33.291Z</time></trkpt><trkpt lat="57.81087" lon="14.14747167"><ele>130.0</ele><time>2016-06-18T06:29:34.299Z</time></trkpt><trkpt lat="57.810945" lon="14.14745667"><ele>130.0</ele><time>2016-06-18T06:29:35.316Z</time></trkpt><trkpt lat="57.810945" lon="14.14745667"><ele>130.0</ele><time>2016-06-18T06:29:36.298Z</time></trkpt><trkpt lat="57.81110167" lon="14.14741833"><ele>130.0</ele><time>2016-06-18T06:29:37.305Z</time></trkpt><trkpt lat="57.81117833" lon="14.14739833"><ele>130.0</ele><time>2016-06-18T06:29:38.313Z</time></trkpt><trkpt lat="57.81117833" lon="14.14739833"><ele>130.0</ele><time>2016-06-18T06:29:39.301Z</time></trkpt><trkpt lat="57.81133667" lon="14.147355"><ele>130.0</ele><time>2016-06-18T06:29:40.314Z</time></trkpt><trkpt lat="57.811415" lon="14.14732833"><ele>130.0</ele><time>2016-06-18T06:29:41.308Z</time></trkpt><trkpt lat="57.811415" lon="14.14732833"><ele>130.0</ele><time>2016-06-18T06:29:42.291Z</time></trkpt><trkpt lat="57.811575" lon="14.14727667"><ele>129.0</ele><time>2016-06-18T06:29:43.298Z</time></trkpt><trkpt lat="57.81165833" lon="14.147255"><ele>129.0</ele><time>2016-06-18T06:29:44.289Z</time></trkpt><trkpt lat="57.81165833" lon="14.147255"><ele>129.0</ele><time>2016-06-18T06:29:45.287Z</time></trkpt><trkpt lat="57.811825" lon="14.147215"><ele>129.0</ele><time>2016-06-18T06:29:46.301Z</time></trkpt><trkpt lat="57.81191" lon="14.14719167"><ele>129.0</ele><time>2016-06-18T06:29:47.300Z</time></trkpt><trkpt lat="57.81191" lon="14.14719167"><ele>129.0</ele><time>2016-06-18T06:29:48.282Z</time></trkpt><trkpt lat="57.81208667" lon="14.14714833"><ele>129.0</ele><time>2016-06-18T06:29:49.289Z</time></trkpt><trkpt lat="57.81217667" lon="14.14713"><ele>129.0</ele><time>2016-06-18T06:29:50.300Z</time></trkpt><trkpt lat="57.812265" lon="14.14711"><ele>128.0</ele><time>2016-06-18T06:29:51.320Z</time></trkpt><trkpt lat="57.812265" lon="14.14711"><ele>128.0</ele><time>2016-06-18T06:29:52.302Z</time></trkpt><trkpt lat="57.81244" lon="14.147065"><ele>128.0</ele><time>2016-06-18T06:29:53.318Z</time></trkpt><trkpt lat="57.81253" lon="14.14704333"><ele>128.0</ele><time>2016-06-18T06:29:54.302Z</time></trkpt><trkpt lat="57.81253" lon="14.14704333"><ele>128.0</ele><time>2016-06-18T06:29:55.285Z</time></trkpt><trkpt lat="57.812705" lon="14.147005"><ele>128.0</ele><time>2016-06-18T06:29:56.306Z</time></trkpt><trkpt lat="57.812705" lon="14.147005"><ele>128.0</ele><time>2016-06-18T06:29:57.289Z</time></trkpt><trkpt lat="57.812875" lon="14.14695833"><ele>128.0</ele><time>2016-06-18T06:29:58.303Z</time></trkpt><trkpt lat="57.81296167" lon="14.14693333"><ele>128.0</ele><time>2016-06-18T06:29:59.308Z</time></trkpt><trkpt lat="57.81296167" lon="14.14693333"><ele>128.0</ele><time>2016-06-18T06:30:00.318Z</time></trkpt><trkpt lat="57.813135" lon="14.14688667"><ele>128.0</ele><time>2016-06-18T06:30:01.286Z</time></trkpt><trkpt lat="57.813225" lon="14.146865"><ele>127.0</ele><time>2016-06-18T06:30:02.325Z</time></trkpt><trkpt lat="57.813225" lon="14.146865"><ele>127.0</ele><time>2016-06-18T06:30:03.314Z</time></trkpt><trkpt lat="57.81341" lon="14.146825"><ele>127.0</ele><time>2016-06-18T06:30:04.282Z</time></trkpt><trkpt lat="57.81341" lon="14.146825"><ele>127.0</ele><time>2016-06-18T06:30:05.309Z</time></trkpt><trkpt lat="57.81359" lon="14.14679167"><ele>127.0</ele><time>2016-06-18T06:30:06.293Z</time></trkpt><trkpt lat="57.81359" lon="14.14679167"><ele>127.0</ele><time>2016-06-18T06:30:07.312Z</time></trkpt><trkpt lat="57.81376333" lon="14.14675167"><ele>127.0</ele><time>2016-06-18T06:30:08.320Z</time></trkpt><trkpt lat="57.81376333" lon="14.14675167"><ele>127.0</ele><time>2016-06-18T06:30:09.289Z</time></trkpt><trkpt lat="57.81393167" lon="14.146695"><ele>127.0</ele><time>2016-06-18T06:30:10.294Z</time></trkpt><trkpt lat="57.81393167" lon="14.146695"><ele>127.0</ele><time>2016-06-18T06:30:11.289Z</time></trkpt><trkpt lat="57.81409667" lon="14.14664"><ele>127.0</ele><time>2016-06-18T06:30:12.300Z</time></trkpt><trkpt lat="57.81418" lon="14.146615"><ele>127.0</ele><time>2016-06-18T06:30:13.286Z</time></trkpt><trkpt lat="57.81426333" lon="14.14659"><ele>128.0</ele><time>2016-06-18T06:30:14.303Z</time></trkpt><trkpt lat="57.81426333" lon="14.14659"><ele>128.0</ele><time>2016-06-18T06:30:15.287Z</time></trkpt><trkpt lat="57.81442833" lon="14.14654333"><ele>128.0</ele><time>2016-06-18T06:30:16.304Z</time></trkpt><trkpt lat="57.81442833" lon="14.14654333"><ele>128.0</ele><time>2016-06-18T06:30:17.288Z</time></trkpt><trkpt lat="57.814575" lon="14.1465"><ele>128.0</ele><time>2016-06-18T06:30:18.300Z</time></trkpt><trkpt lat="57.814645" lon="14.14648"><ele>128.0</ele><time>2016-06-18T06:30:19.302Z</time></trkpt><trkpt lat="57.81470833" lon="14.14646"><ele>128.0</ele><time>2016-06-18T06:30:20.321Z</time></trkpt><trkpt lat="57.81470833" lon="14.14646"><ele>128.0</ele><time>2016-06-18T06:30:21.303Z</time></trkpt><trkpt lat="57.81481833" lon="14.14641667"><ele>128.0</ele><time>2016-06-18T06:30:22.284Z</time></trkpt><trkpt lat="57.814865" lon="14.14639667"><ele>129.0</ele><time>2016-06-18T06:30:23.289Z</time></trkpt><trkpt lat="57.814865" lon="14.14639667"><ele>129.0</ele><time>2016-06-18T06:30:24.312Z</time></trkpt><trkpt lat="57.81498333" lon="14.146375"><ele>128.0</ele><time>2016-06-18T06:30:25.298Z</time></trkpt><trkpt lat="57.81504" lon="14.14636667"><ele>128.0</ele><time>2016-06-18T06:30:26.317Z</time></trkpt><trkpt lat="57.81504" lon="14.14636667"><ele>128.0</ele><time>2016-06-18T06:30:27.299Z</time></trkpt><trkpt lat="57.81516333" lon="14.14636167"><ele>129.0</ele><time>2016-06-18T06:30:28.315Z</time></trkpt><trkpt lat="57.81516333" lon="14.14636167"><ele>129.0</ele><time>2016-06-18T06:30:29.299Z</time></trkpt><trkpt lat="57.81529333" lon="14.14634833"><ele>129.0</ele><time>2016-06-18T06:30:30.323Z</time></trkpt><trkpt lat="57.81529333" lon="14.14634833"><ele>129.0</ele><time>2016-06-18T06:30:31.289Z</time></trkpt><trkpt lat="57.81542167" lon="14.14634167"><ele>130.0</ele><time>2016-06-18T06:30:32.302Z</time></trkpt><trkpt lat="57.81542167" lon="14.14634167"><ele>130.0</ele><time>2016-06-18T06:30:33.320Z</time></trkpt><trkpt lat="57.81556" lon="14.14635167"><ele>130.0</ele><time>2016-06-18T06:30:34.310Z</time></trkpt><trkpt lat="57.81556" lon="14.14635167"><ele>130.0</ele><time>2016-06-18T06:30:35.295Z</time></trkpt><trkpt lat="57.8157" lon="14.14636833"><ele>131.0</ele><time>2016-06-18T06:30:36.302Z</time></trkpt><trkpt lat="57.8157" lon="14.14636833"><ele>131.0</ele><time>2016-06-18T06:30:37.284Z</time></trkpt><trkpt lat="57.815835" lon="14.14636667"><ele>131.0</ele><time>2016-06-18T06:30:38.306Z</time></trkpt><trkpt lat="57.815835" lon="14.14636667"><ele>131.0</ele><time>2016-06-18T06:30:39.299Z</time></trkpt><trkpt lat="57.81598333" lon="14.14637333"><ele>131.0</ele><time>2016-06-18T06:30:40.307Z</time></trkpt><trkpt lat="57.81598333" lon="14.14637333"><ele>131.0</ele><time>2016-06-18T06:30:41.289Z</time></trkpt><trkpt lat="57.81614333" lon="14.14638167"><ele>132.0</ele><time>2016-06-18T06:30:42.293Z</time></trkpt><trkpt lat="57.81614333" lon="14.14638167"><ele>132.0</ele><time>2016-06-18T06:30:43.301Z</time></trkpt><trkpt lat="57.81629167" lon="14.14637833"><ele>131.0</ele><time>2016-06-18T06:30:44.309Z</time></trkpt><trkpt lat="57.81636833" lon="14.14638167"><ele>131.0</ele><time>2016-06-18T06:30:45.324Z</time></trkpt><trkpt lat="57.81636833" lon="14.14638167"><ele>131.0</ele><time>2016-06-18T06:30:46.289Z</time></trkpt><trkpt lat="57.81652833" lon="14.14639333"><ele>131.0</ele><time>2016-06-18T06:30:47.297Z</time></trkpt><trkpt lat="57.81652833" lon="14.14639333"><ele>131.0</ele><time>2016-06-18T06:30:48.318Z</time></trkpt><trkpt lat="57.81668833" lon="14.14640167"><ele>131.0</ele><time>2016-06-18T06:30:49.298Z</time></trkpt><trkpt lat="57.81676667" lon="14.14640167"><ele>131.0</ele><time>2016-06-18T06:30:50.284Z</time></trkpt><trkpt lat="57.81676667" lon="14.14640167"><ele>131.0</ele><time>2016-06-18T06:30:51.305Z</time></trkpt><trkpt lat="57.816925" lon="14.146415"><ele>131.0</ele><time>2016-06-18T06:30:52.287Z</time></trkpt><trkpt lat="57.816925" lon="14.146415"><ele>131.0</ele><time>2016-06-18T06:30:53.322Z</time></trkpt><trkpt lat="57.81708" lon="14.14644167"><ele>130.0</ele><time>2016-06-18T06:30:54.288Z</time></trkpt><trkpt lat="57.81708" lon="14.14644167"><ele>130.0</ele><time>2016-06-18T06:30:55.310Z</time></trkpt><trkpt lat="57.81723167" lon="14.146475"><ele>130.0</ele><time>2016-06-18T06:30:56.288Z</time></trkpt><trkpt lat="57.81723167" lon="14.146475"><ele>130.0</ele><time>2016-06-18T06:30:57.321Z</time></trkpt><trkpt lat="57.81739" lon="14.146505"><ele>130.0</ele><time>2016-06-18T06:30:58.287Z</time></trkpt><trkpt lat="57.81739" lon="14.146505"><ele>130.0</ele><time>2016-06-18T06:30:59.311Z</time></trkpt><trkpt lat="57.81754833" lon="14.146545"><ele>130.0</ele><time>2016-06-18T06:31:00.317Z</time></trkpt><trkpt lat="57.81754833" lon="14.146545"><ele>130.0</ele><time>2016-06-18T06:31:01.298Z</time></trkpt><trkpt lat="57.81770333" lon="14.14657833"><ele>130.0</ele><time>2016-06-18T06:31:02.315Z</time></trkpt><trkpt lat="57.81770333" lon="14.14657833"><ele>130.0</ele><time>2016-06-18T06:31:03.295Z</time></trkpt><trkpt lat="57.81785167" lon="14.14661333"><ele>131.0</ele><time>2016-06-18T06:31:04.289Z</time></trkpt><trkpt lat="57.81785167" lon="14.14661333"><ele>131.0</ele><time>2016-06-18T06:31:05.308Z</time></trkpt><trkpt lat="57.81799667" lon="14.146645"><ele>131.0</ele><time>2016-06-18T06:31:06.316Z</time></trkpt><trkpt lat="57.81806333" lon="14.14666"><ele>131.0</ele><time>2016-06-18T06:31:07.310Z</time></trkpt><trkpt lat="57.81812667" lon="14.14667833"><ele>131.0</ele><time>2016-06-18T06:31:08.312Z</time></trkpt><trkpt lat="57.81812667" lon="14.14667833"><ele>131.0</ele><time>2016-06-18T06:31:09.299Z</time></trkpt><trkpt lat="57.818255" lon="14.14671333"><ele>131.0</ele><time>2016-06-18T06:31:10.301Z</time></trkpt><trkpt lat="57.81832" lon="14.14673"><ele>131.0</ele><time>2016-06-18T06:31:11.298Z</time></trkpt><trkpt lat="57.81832" lon="14.14673"><ele>131.0</ele><time>2016-06-18T06:31:12.305Z</time></trkpt><trkpt lat="57.81846" lon="14.14674833"><ele>130.0</ele><time>2016-06-18T06:31:13.321Z</time></trkpt><trkpt lat="57.81853" lon="14.14675333"><ele>130.0</ele><time>2016-06-18T06:31:14.306Z</time></trkpt><trkpt lat="57.81853" lon="14.14675333"><ele>130.0</ele><time>2016-06-18T06:31:15.290Z</time></trkpt><trkpt lat="57.81868" lon="14.14675833"><ele>130.0</ele><time>2016-06-18T06:31:16.299Z</time></trkpt><trkpt lat="57.81868" lon="14.14675833"><ele>130.0</ele><time>2016-06-18T06:31:17.306Z</time></trkpt><trkpt lat="57.81883667" lon="14.14675333"><ele>130.0</ele><time>2016-06-18T06:31:18.294Z</time></trkpt><trkpt lat="57.81883667" lon="14.14675333"><ele>130.0</ele><time>2016-06-18T06:31:19.319Z</time></trkpt><trkpt lat="57.81898833" lon="14.14675833"><ele>132.0</ele><time>2016-06-18T06:31:20.286Z</time></trkpt><trkpt lat="57.81898833" lon="14.14675833"><ele>132.0</ele><time>2016-06-18T06:31:21.286Z</time></trkpt><trkpt lat="57.819145" lon="14.14674"><ele>132.0</ele><time>2016-06-18T06:31:22.295Z</time></trkpt><trkpt lat="57.819145" lon="14.14674"><ele>132.0</ele><time>2016-06-18T06:31:23.311Z</time></trkpt><trkpt lat="57.81931" lon="14.14671333"><ele>132.0</ele><time>2016-06-18T06:31:24.318Z</time></trkpt><trkpt lat="57.81939833" lon="14.1467"><ele>131.0</ele><time>2016-06-18T06:31:25.318Z</time></trkpt><trkpt lat="57.819485" lon="14.146685"><ele>131.0</ele><time>2016-06-18T06:31:26.302Z</time></trkpt><trkpt lat="57.819485" lon="14.146685"><ele>131.0</ele><time>2016-06-18T06:31:27.286Z</time></trkpt><trkpt lat="57.819665" lon="14.146645"><ele>131.0</ele><time>2016-06-18T06:31:28.311Z</time></trkpt><trkpt lat="57.81975667" lon="14.14662167"><ele>131.0</ele><time>2016-06-18T06:31:29.306Z</time></trkpt><trkpt lat="57.81975667" lon="14.14662167"><ele>131.0</ele><time>2016-06-18T06:31:30.288Z</time></trkpt><trkpt lat="57.81994667" lon="14.14657833"><ele>130.0</ele><time>2016-06-18T06:31:31.324Z</time></trkpt><trkpt lat="57.82004" lon="14.146555"><ele>130.0</ele><time>2016-06-18T06:31:32.312Z</time></trkpt><trkpt lat="57.82004" lon="14.146555"><ele>130.0</ele><time>2016-06-18T06:31:33.298Z</time></trkpt><trkpt lat="57.82022333" lon="14.14650833"><ele>130.0</ele><time>2016-06-18T06:31:34.317Z</time></trkpt><trkpt lat="57.82031667" lon="14.14648833"><ele>129.0</ele><time>2016-06-18T06:31:35.303Z</time></trkpt><trkpt lat="57.82031667" lon="14.14648833"><ele>129.0</ele><time>2016-06-18T06:31:36.285Z</time></trkpt><trkpt lat="57.82050167" lon="14.14643833"><ele>129.0</ele><time>2016-06-18T06:31:37.305Z</time></trkpt><trkpt lat="57.82059833" lon="14.14641333"><ele>129.0</ele><time>2016-06-18T06:31:38.288Z</time></trkpt><trkpt lat="57.82059833" lon="14.14641333"><ele>129.0</ele><time>2016-06-18T06:31:39.310Z</time></trkpt><trkpt lat="57.82079" lon="14.14635833"><ele>129.0</ele><time>2016-06-18T06:31:40.303Z</time></trkpt><trkpt lat="57.82079" lon="14.14635833"><ele>129.0</ele><time>2016-06-18T06:31:41.286Z</time></trkpt><trkpt lat="57.82097833" lon="14.14631"><ele>129.0</ele><time>2016-06-18T06:31:42.300Z</time></trkpt><trkpt lat="57.82108" lon="14.146285"><ele>129.0</ele><time>2016-06-18T06:31:43.314Z</time></trkpt><trkpt lat="57.82118167" lon="14.146265"><ele>128.0</ele><time>2016-06-18T06:31:44.313Z</time></trkpt><trkpt lat="57.82118167" lon="14.146265"><ele>128.0</ele><time>2016-06-18T06:31:45.302Z</time></trkpt><trkpt lat="57.82138167" lon="14.14620833"><ele>128.0</ele><time>2016-06-18T06:31:46.291Z</time></trkpt><trkpt lat="57.82138167" lon="14.14620833"><ele>128.0</ele><time>2016-06-18T06:31:47.313Z</time></trkpt><trkpt lat="57.82159" lon="14.14615"><ele>127.0</ele><time>2016-06-18T06:31:48.319Z</time></trkpt><trkpt lat="57.82159" lon="14.14615"><ele>127.0</ele><time>2016-06-18T06:31:49.308Z</time></trkpt><trkpt lat="57.82180167" lon="14.14609167"><ele>126.0</ele><time>2016-06-18T06:31:50.301Z</time></trkpt><trkpt lat="57.82180167" lon="14.14609167"><ele>126.0</ele><time>2016-06-18T06:31:51.285Z</time></trkpt><trkpt lat="57.82202" lon="14.14604333"><ele>125.0</ele><time>2016-06-18T06:31:52.292Z</time></trkpt><trkpt lat="57.82213" lon="14.146015"><ele>124.0</ele><time>2016-06-18T06:31:53.312Z</time></trkpt><trkpt lat="57.82213" lon="14.146015"><ele>124.0</ele><time>2016-06-18T06:31:54.301Z</time></trkpt><trkpt lat="57.82236" lon="14.14596167"><ele>123.0</ele><time>2016-06-18T06:31:55.309Z</time></trkpt><trkpt lat="57.822475" lon="14.14593167"><ele>123.0</ele><time>2016-06-18T06:31:56.298Z</time></trkpt><trkpt lat="57.822475" lon="14.14593167"><ele>123.0</ele><time>2016-06-18T06:31:57.288Z</time></trkpt><trkpt lat="57.82271" lon="14.14586833"><ele>122.0</ele><time>2016-06-18T06:31:58.298Z</time></trkpt><trkpt lat="57.82282833" lon="14.14583667"><ele>122.0</ele><time>2016-06-18T06:31:59.304Z</time></trkpt><trkpt lat="57.82282833" lon="14.14583667"><ele>122.0</ele><time>2016-06-18T06:32:00.289Z</time></trkpt><trkpt lat="57.82306167" lon="14.145775"><ele>121.0</ele><time>2016-06-18T06:32:01.301Z</time></trkpt><trkpt lat="57.82317833" lon="14.14575"><ele>121.0</ele><time>2016-06-18T06:32:02.301Z</time></trkpt><trkpt lat="57.82317833" lon="14.14575"><ele>121.0</ele><time>2016-06-18T06:32:03.284Z</time></trkpt><trkpt lat="57.82341333" lon="14.145695"><ele>121.0</ele><time>2016-06-18T06:32:04.290Z</time></trkpt><trkpt lat="57.82352833" lon="14.14566833"><ele>121.0</ele><time>2016-06-18T06:32:05.292Z</time></trkpt><trkpt lat="57.82352833" lon="14.14566833"><ele>121.0</ele><time>2016-06-18T06:32:06.311Z</time></trkpt><trkpt lat="57.82375833" lon="14.14561167"><ele>121.0</ele><time>2016-06-18T06:32:07.318Z</time></trkpt><trkpt lat="57.82387333" lon="14.14558167"><ele>121.0</ele><time>2016-06-18T06:32:08.305Z</time></trkpt><trkpt lat="57.82387333" lon="14.14558167"><ele>121.0</ele><time>2016-06-18T06:32:09.316Z</time></trkpt><trkpt lat="57.82409333" lon="14.14551833"><ele>121.0</ele><time>2016-06-18T06:32:10.306Z</time></trkpt><trkpt lat="57.82409333" lon="14.14551833"><ele>121.0</ele><time>2016-06-18T06:32:11.297Z</time></trkpt><trkpt lat="57.82431167" lon="14.14546167"><ele>121.0</ele><time>2016-06-18T06:32:12.298Z</time></trkpt><trkpt lat="57.82431167" lon="14.14546167"><ele>121.0</ele><time>2016-06-18T06:32:13.283Z</time></trkpt><trkpt lat="57.82453167" lon="14.14539833"><ele>121.0</ele><time>2016-06-18T06:32:14.290Z</time></trkpt><trkpt lat="57.82453167" lon="14.14539833"><ele>121.0</ele><time>2016-06-18T06:32:15.311Z</time></trkpt><trkpt lat="57.82475167" lon="14.14534"><ele>121.0</ele><time>2016-06-18T06:32:16.300Z</time></trkpt><trkpt lat="57.82475167" lon="14.14534"><ele>121.0</ele><time>2016-06-18T06:32:17.305Z</time></trkpt><trkpt lat="57.82496833" lon="14.14528333"><ele>120.0</ele><time>2016-06-18T06:32:18.312Z</time></trkpt><trkpt lat="57.82496833" lon="14.14528333"><ele>120.0</ele><time>2016-06-18T06:32:19.300Z</time></trkpt><trkpt lat="57.82518167" lon="14.145225"><ele>120.0</ele><time>2016-06-18T06:32:20.305Z</time></trkpt><trkpt lat="57.82518167" lon="14.145225"><ele>120.0</ele><time>2016-06-18T06:32:21.284Z</time></trkpt><trkpt lat="57.82539167" lon="14.14516833"><ele>120.0</ele><time>2016-06-18T06:32:22.290Z</time></trkpt><trkpt lat="57.825495" lon="14.14514167"><ele>119.0</ele><time>2016-06-18T06:32:23.292Z</time></trkpt><trkpt lat="57.825495" lon="14.14514167"><ele>119.0</ele><time>2016-06-18T06:32:24.303Z</time></trkpt><trkpt lat="57.82569833" lon="14.14508667"><ele>119.0</ele><time>2016-06-18T06:32:25.310Z</time></trkpt><trkpt lat="57.82569833" lon="14.14508667"><ele>119.0</ele><time>2016-06-18T06:32:26.292Z</time></trkpt><trkpt lat="57.8259" lon="14.14503167"><ele>119.0</ele><time>2016-06-18T06:32:27.321Z</time></trkpt><trkpt lat="57.8259" lon="14.14503167"><ele>119.0</ele><time>2016-06-18T06:32:28.318Z</time></trkpt><trkpt lat="57.8261" lon="14.14497333"><ele>119.0</ele><time>2016-06-18T06:32:29.284Z</time></trkpt><trkpt lat="57.82619833" lon="14.14494667"><ele>119.0</ele><time>2016-06-18T06:32:30.294Z</time></trkpt><trkpt lat="57.82619833" lon="14.14494667"><ele>119.0</ele><time>2016-06-18T06:32:31.316Z</time></trkpt><trkpt lat="57.82639167" lon="14.14489833"><ele>119.0</ele><time>2016-06-18T06:32:32.283Z</time></trkpt><trkpt lat="57.82639167" lon="14.14489833"><ele>119.0</ele><time>2016-06-18T06:32:33.300Z</time></trkpt><trkpt lat="57.82659167" lon="14.14485333"><ele>119.0</ele><time>2016-06-18T06:32:34.288Z</time></trkpt><trkpt lat="57.82659167" lon="14.14485333"><ele>119.0</ele><time>2016-06-18T06:32:35.315Z</time></trkpt><trkpt lat="57.82679167" lon="14.1448"><ele>119.0</ele><time>2016-06-18T06:32:36.322Z</time></trkpt><trkpt lat="57.82679167" lon="14.1448"><ele>119.0</ele><time>2016-06-18T06:32:37.292Z</time></trkpt><trkpt lat="57.82699" lon="14.14474333"><ele>119.0</ele><time>2016-06-18T06:32:38.304Z</time></trkpt><trkpt lat="57.82699" lon="14.14474333"><ele>119.0</ele><time>2016-06-18T06:32:39.287Z</time></trkpt><trkpt lat="57.82718167" lon="14.14469"><ele>119.0</ele><time>2016-06-18T06:32:40.294Z</time></trkpt><trkpt lat="57.82718167" lon="14.14469"><ele>119.0</ele><time>2016-06-18T06:32:41.302Z</time></trkpt><trkpt lat="57.82737167" lon="14.14464167"><ele>120.0</ele><time>2016-06-18T06:32:42.309Z</time></trkpt><trkpt lat="57.82746333" lon="14.144615"><ele>120.0</ele><time>2016-06-18T06:32:43.310Z</time></trkpt><trkpt lat="57.82746333" lon="14.144615"><ele>120.0</ele><time>2016-06-18T06:32:44.282Z</time></trkpt><trkpt lat="57.82763" lon="14.14456"><ele>120.0</ele><time>2016-06-18T06:32:45.288Z</time></trkpt><trkpt lat="57.82770833" lon="14.14453833"><ele>121.0</ele><time>2016-06-18T06:32:46.298Z</time></trkpt><trkpt lat="57.82770833" lon="14.14453833"><ele>121.0</ele><time>2016-06-18T06:32:47.320Z</time></trkpt><trkpt lat="57.82785333" lon="14.14449667"><ele>121.0</ele><time>2016-06-18T06:32:48.287Z</time></trkpt><trkpt lat="57.82785333" lon="14.14449667"><ele>121.0</ele><time>2016-06-18T06:32:49.308Z</time></trkpt><trkpt lat="57.827995" lon="14.14446167"><ele>121.0</ele><time>2016-06-18T06:32:50.295Z</time></trkpt><trkpt lat="57.827995" lon="14.14446167"><ele>121.0</ele><time>2016-06-18T06:32:51.301Z</time></trkpt><trkpt lat="57.828135" lon="14.14442833"><ele>122.0</ele><time>2016-06-18T06:32:52.310Z</time></trkpt><trkpt lat="57.82820333" lon="14.14441167"><ele>122.0</ele><time>2016-06-18T06:32:53.293Z</time></trkpt><trkpt lat="57.82820333" lon="14.14441167"><ele>122.0</ele><time>2016-06-18T06:32:54.314Z</time></trkpt><trkpt lat="57.82833667" lon="14.144385"><ele>123.0</ele><time>2016-06-18T06:32:55.282Z</time></trkpt><trkpt lat="57.8284" lon="14.14436333"><ele>123.0</ele><time>2016-06-18T06:32:56.304Z</time></trkpt><trkpt lat="57.8284" lon="14.14436333"><ele>123.0</ele><time>2016-06-18T06:32:57.301Z</time></trkpt><trkpt lat="57.82851833" lon="14.14433"><ele>124.0</ele><time>2016-06-18T06:32:58.310Z</time></trkpt><trkpt lat="57.82857" lon="14.14431333"><ele>124.0</ele><time>2016-06-18T06:32:59.295Z</time></trkpt><trkpt lat="57.82857" lon="14.14431333"><ele>124.0</ele><time>2016-06-18T06:33:00.305Z</time></trkpt><trkpt lat="57.82867333" lon="14.144285"><ele>125.0</ele><time>2016-06-18T06:33:01.288Z</time></trkpt><trkpt lat="57.82872833" lon="14.14426667"><ele>125.0</ele><time>2016-06-18T06:33:02.293Z</time></trkpt><trkpt lat="57.82872833" lon="14.14426667"><ele>125.0</ele><time>2016-06-18T06:33:03.319Z</time></trkpt><trkpt lat="57.82882167" lon="14.14423"><ele>126.0</ele><time>2016-06-18T06:33:04.299Z</time></trkpt><trkpt lat="57.828865" lon="14.14422333"><ele>126.0</ele><time>2016-06-18T06:33:05.305Z</time></trkpt><trkpt lat="57.828905" lon="14.14421333"><ele>126.0</ele><time>2016-06-18T06:33:06.295Z</time></trkpt><trkpt lat="57.828905" lon="14.14421333"><ele>126.0</ele><time>2016-06-18T06:33:07.291Z</time></trkpt><trkpt lat="57.82898167" lon="14.14420167"><ele>127.0</ele><time>2016-06-18T06:33:08.304Z</time></trkpt><trkpt lat="57.82898167" lon="14.14420167"><ele>127.0</ele><time>2016-06-18T06:33:09.290Z</time></trkpt><trkpt lat="57.82905833" lon="14.14418"><ele>129.0</ele><time>2016-06-18T06:33:10.293Z</time></trkpt><trkpt lat="57.82905833" lon="14.14418"><ele>129.0</ele><time>2016-06-18T06:33:11.320Z</time></trkpt><trkpt lat="57.82912833" lon="14.14416167"><ele>129.0</ele><time>2016-06-18T06:33:12.320Z</time></trkpt><trkpt lat="57.82916333" lon="14.14414833"><ele>129.0</ele><time>2016-06-18T06:33:13.304Z</time></trkpt><trkpt lat="57.82916333" lon="14.14414833"><ele>129.0</ele><time>2016-06-18T06:33:14.316Z</time></trkpt><trkpt lat="57.82923333" lon="14.14412833"><ele>130.0</ele><time>2016-06-18T06:33:15.282Z</time></trkpt><trkpt lat="57.82926667" lon="14.14411833"><ele>130.0</ele><time>2016-06-18T06:33:16.288Z</time></trkpt><trkpt lat="57.82926667" lon="14.14411833"><ele>130.0</ele><time>2016-06-18T06:33:17.321Z</time></trkpt><trkpt lat="57.82932833" lon="14.14409667"><ele>131.0</ele><time>2016-06-18T06:33:18.288Z</time></trkpt><trkpt lat="57.82932833" lon="14.14409667"><ele>131.0</ele><time>2016-06-18T06:33:19.310Z</time></trkpt><trkpt lat="57.82939333" lon="14.14407667"><ele>131.0</ele><time>2016-06-18T06:33:20.308Z</time></trkpt><trkpt lat="57.82939333" lon="14.14407667"><ele>131.0</ele><time>2016-06-18T06:33:21.310Z</time></trkpt><trkpt lat="57.829455" lon="14.14405833"><ele>132.0</ele><time>2016-06-18T06:33:22.319Z</time></trkpt><trkpt lat="57.82948833" lon="14.14405"><ele>132.0</ele><time>2016-06-18T06:33:23.313Z</time></trkpt><trkpt lat="57.82948833" lon="14.14405"><ele>132.0</ele><time>2016-06-18T06:33:24.318Z</time></trkpt><trkpt lat="57.829555" lon="14.14402833"><ele>133.0</ele><time>2016-06-18T06:33:25.285Z</time></trkpt><trkpt lat="57.829585" lon="14.14401833"><ele>133.0</ele><time>2016-06-18T06:33:26.298Z</time></trkpt><trkpt lat="57.829585" lon="14.14401833"><ele>133.0</ele><time>2016-06-18T06:33:27.292Z</time></trkpt><trkpt lat="57.829645" lon="14.14400167"><ele>135.0</ele><time>2016-06-18T06:33:28.299Z</time></trkpt><trkpt lat="57.82967833" lon="14.14399167"><ele>135.0</ele><time>2016-06-18T06:33:29.282Z</time></trkpt><trkpt lat="57.82967833" lon="14.14399167"><ele>135.0</ele><time>2016-06-18T06:33:30.283Z</time></trkpt><trkpt lat="57.829745" lon="14.14397"><ele>135.0</ele><time>2016-06-18T06:33:31.303Z</time></trkpt><trkpt lat="57.829745" lon="14.14397"><ele>135.0</ele><time>2016-06-18T06:33:32.313Z</time></trkpt><trkpt lat="57.82981333" lon="14.14394167"><ele>136.0</ele><time>2016-06-18T06:33:33.288Z</time></trkpt><trkpt lat="57.829845" lon="14.143925"><ele>137.0</ele><time>2016-06-18T06:33:34.304Z</time></trkpt><trkpt lat="57.829845" lon="14.143925"><ele>137.0</ele><time>2016-06-18T06:33:35.290Z</time></trkpt><trkpt lat="57.82991" lon="14.14391"><ele>138.0</ele><time>2016-06-18T06:33:36.299Z</time></trkpt><trkpt lat="57.82994" lon="14.14390167"><ele>138.0</ele><time>2016-06-18T06:33:37.298Z</time></trkpt><trkpt lat="57.82994" lon="14.14390167"><ele>138.0</ele><time>2016-06-18T06:33:38.299Z</time></trkpt><trkpt lat="57.83000667" lon="14.14388333"><ele>139.0</ele><time>2016-06-18T06:33:39.305Z</time></trkpt><trkpt lat="57.83004" lon="14.143875"><ele>140.0</ele><time>2016-06-18T06:33:40.298Z</time></trkpt><trkpt lat="57.83004" lon="14.143875"><ele>140.0</ele><time>2016-06-18T06:33:41.316Z</time></trkpt><trkpt lat="57.83010167" lon="14.14385833"><ele>141.0</ele><time>2016-06-18T06:33:42.283Z</time></trkpt><trkpt lat="57.83014" lon="14.14384833"><ele>140.0</ele><time>2016-06-18T06:33:43.316Z</time></trkpt><trkpt lat="57.83017833" lon="14.14384333"><ele>141.0</ele><time>2016-06-18T06:33:44.290Z</time></trkpt><trkpt lat="57.83017833" lon="14.14384333"><ele>141.0</ele><time>2016-06-18T06:33:45.311Z</time></trkpt><trkpt lat="57.830245" lon="14.143835"><ele>142.0</ele><time>2016-06-18T06:33:46.288Z</time></trkpt><trkpt lat="57.83028167" lon="14.143825"><ele>143.0</ele><time>2016-06-18T06:33:47.319Z</time></trkpt><trkpt lat="57.83028167" lon="14.143825"><ele>143.0</ele><time>2016-06-18T06:33:48.301Z</time></trkpt><trkpt lat="57.83036167" lon="14.14380667"><ele>143.0</ele><time>2016-06-18T06:33:49.304Z</time></trkpt><trkpt lat="57.830405" lon="14.14379667"><ele>143.0</ele><time>2016-06-18T06:33:50.311Z</time></trkpt><trkpt lat="57.830405" lon="14.14379667"><ele>143.0</ele><time>2016-06-18T06:33:51.296Z</time></trkpt><trkpt lat="57.83048333" lon="14.14377167"><ele>142.0</ele><time>2016-06-18T06:33:52.314Z</time></trkpt><trkpt lat="57.83052" lon="14.14375833"><ele>142.0</ele><time>2016-06-18T06:33:53.295Z</time></trkpt><trkpt lat="57.83052" lon="14.14375833"><ele>142.0</ele><time>2016-06-18T06:33:54.302Z</time></trkpt><trkpt lat="57.83058333" lon="14.14373167"><ele>143.0</ele><time>2016-06-18T06:33:55.305Z</time></trkpt><trkpt lat="57.830635" lon="14.14373833"><ele>144.0</ele><time>2016-06-18T06:33:56.294Z</time></trkpt><trkpt lat="57.830635" lon="14.14373833"><ele>144.0</ele><time>2016-06-18T06:33:57.313Z</time></trkpt><trkpt lat="57.83072833" lon="14.14374667"><ele>147.0</ele><time>2016-06-18T06:33:58.291Z</time></trkpt><trkpt lat="57.83072833" lon="14.14374667"><ele>147.0</ele><time>2016-06-18T06:33:59.314Z</time></trkpt><trkpt lat="57.83080167" lon="14.14374333"><ele>149.0</ele><time>2016-06-18T06:34:00.283Z</time></trkpt><trkpt lat="57.83083833" lon="14.14373833"><ele>149.0</ele><time>2016-06-18T06:34:01.290Z</time></trkpt><trkpt lat="57.83083833" lon="14.14373833"><ele>149.0</ele><time>2016-06-18T06:34:02.311Z</time></trkpt><trkpt lat="57.83092167" lon="14.14372167"><ele>149.0</ele><time>2016-06-18T06:34:03.303Z</time></trkpt><trkpt lat="57.83096833" lon="14.14370833"><ele>149.0</ele><time>2016-06-18T06:34:04.319Z</time></trkpt><trkpt lat="57.83101167" lon="14.14370833"><ele>149.0</ele><time>2016-06-18T06:34:05.303Z</time></trkpt><trkpt lat="57.83101167" lon="14.14370833"><ele>149.0</ele><time>2016-06-18T06:34:06.283Z</time></trkpt><trkpt lat="57.83109" lon="14.14369333"><ele>149.0</ele><time>2016-06-18T06:34:07.290Z</time></trkpt><trkpt lat="57.83109" lon="14.14369333"><ele>149.0</ele><time>2016-06-18T06:34:08.311Z</time></trkpt><trkpt lat="57.83116333" lon="14.14367833"><ele>149.0</ele><time>2016-06-18T06:34:09.308Z</time></trkpt><trkpt lat="57.83116333" lon="14.14367833"><ele>149.0</ele><time>2016-06-18T06:34:10.308Z</time></trkpt><trkpt lat="57.83123833" lon="14.14366167"><ele>149.0</ele><time>2016-06-18T06:34:11.308Z</time></trkpt><trkpt lat="57.83123833" lon="14.14366167"><ele>149.0</ele><time>2016-06-18T06:34:12.307Z</time></trkpt><trkpt lat="57.83131" lon="14.14363667"><ele>149.0</ele><time>2016-06-18T06:34:13.314Z</time></trkpt><trkpt lat="57.83131" lon="14.14363667"><ele>149.0</ele><time>2016-06-18T06:34:14.286Z</time></trkpt><trkpt lat="57.83137667" lon="14.143615"><ele>149.0</ele><time>2016-06-18T06:34:15.292Z</time></trkpt><trkpt lat="57.83141333" lon="14.14360333"><ele>149.0</ele><time>2016-06-18T06:34:16.287Z</time></trkpt><trkpt lat="57.83141333" lon="14.14360333"><ele>149.0</ele><time>2016-06-18T06:34:17.288Z</time></trkpt><trkpt lat="57.83148833" lon="14.14358833"><ele>149.0</ele><time>2016-06-18T06:34:18.301Z</time></trkpt><trkpt lat="57.83148833" lon="14.14358833"><ele>149.0</ele><time>2016-06-18T06:34:19.284Z</time></trkpt><trkpt lat="57.831555" lon="14.14355667"><ele>150.0</ele><time>2016-06-18T06:34:20.320Z</time></trkpt><trkpt lat="57.831555" lon="14.14355667"><ele>150.0</ele><time>2016-06-18T06:34:21.300Z</time></trkpt><trkpt lat="57.83162167" lon="14.14353"><ele>150.0</ele><time>2016-06-18T06:34:22.307Z</time></trkpt><trkpt lat="57.83162167" lon="14.14353"><ele>150.0</ele><time>2016-06-18T06:34:23.290Z</time></trkpt><trkpt lat="57.83169833" lon="14.14351"><ele>150.0</ele><time>2016-06-18T06:34:24.302Z</time></trkpt><trkpt lat="57.83169833" lon="14.14351"><ele>150.0</ele><time>2016-06-18T06:34:25.295Z</time></trkpt><trkpt lat="57.83177667" lon="14.143485"><ele>151.0</ele><time>2016-06-18T06:34:26.307Z</time></trkpt><trkpt lat="57.83181833" lon="14.14346667"><ele>150.0</ele><time>2016-06-18T06:34:27.288Z</time></trkpt><trkpt lat="57.83181833" lon="14.14346667"><ele>150.0</ele><time>2016-06-18T06:34:28.310Z</time></trkpt><trkpt lat="57.8319" lon="14.14343833"><ele>151.0</ele><time>2016-06-18T06:34:29.317Z</time></trkpt><trkpt lat="57.83194" lon="14.14342333"><ele>151.0</ele><time>2016-06-18T06:34:30.322Z</time></trkpt><trkpt lat="57.83194" lon="14.14342333"><ele>151.0</ele><time>2016-06-18T06:34:31.303Z</time></trkpt><trkpt lat="57.83202" lon="14.143395"><ele>152.0</ele><time>2016-06-18T06:34:32.311Z</time></trkpt><trkpt lat="57.83202" lon="14.143395"><ele>152.0</ele><time>2016-06-18T06:34:33.293Z</time></trkpt><trkpt lat="57.832105" lon="14.14337667"><ele>153.0</ele><time>2016-06-18T06:34:34.288Z</time></trkpt><trkpt lat="57.832105" lon="14.14337667"><ele>153.0</ele><time>2016-06-18T06:34:35.295Z</time></trkpt><trkpt lat="57.83219167" lon="14.14335"><ele>155.0</ele><time>2016-06-18T06:34:36.302Z</time></trkpt><trkpt lat="57.83223333" lon="14.14334167"><ele>155.0</ele><time>2016-06-18T06:34:37.321Z</time></trkpt><trkpt lat="57.83227833" lon="14.14333"><ele>155.0</ele><time>2016-06-18T06:34:38.311Z</time></trkpt><trkpt lat="57.83227833" lon="14.14333"><ele>155.0</ele><time>2016-06-18T06:34:39.292Z</time></trkpt><trkpt lat="57.832375" lon="14.14330333"><ele>155.0</ele><time>2016-06-18T06:34:40.288Z</time></trkpt><trkpt lat="57.832375" lon="14.14330333"><ele>155.0</ele><time>2016-06-18T06:34:41.309Z</time></trkpt><trkpt lat="57.83246333" lon="14.14327333"><ele>155.0</ele><time>2016-06-18T06:34:42.315Z</time></trkpt><trkpt lat="57.83246333" lon="14.14327333"><ele>155.0</ele><time>2016-06-18T06:34:43.298Z</time></trkpt><trkpt lat="57.83254833" lon="14.14325167"><ele>155.0</ele><time>2016-06-18T06:34:44.305Z</time></trkpt><trkpt lat="57.83254833" lon="14.14325167"><ele>155.0</ele><time>2016-06-18T06:34:45.286Z</time></trkpt><trkpt lat="57.83263333" lon="14.14322833"><ele>155.0</ele><time>2016-06-18T06:34:46.318Z</time></trkpt><trkpt lat="57.83263333" lon="14.14322833"><ele>155.0</ele><time>2016-06-18T06:34:47.302Z</time></trkpt><trkpt lat="57.83271667" lon="14.14320667"><ele>155.0</ele><time>2016-06-18T06:34:48.310Z</time></trkpt><trkpt lat="57.83271667" lon="14.14320667"><ele>155.0</ele><time>2016-06-18T06:34:49.293Z</time></trkpt><trkpt lat="57.83280167" lon="14.14319"><ele>156.0</ele><time>2016-06-18T06:34:50.298Z</time></trkpt><trkpt lat="57.83280167" lon="14.14319"><ele>156.0</ele><time>2016-06-18T06:34:51.298Z</time></trkpt><trkpt lat="57.83289" lon="14.14317333"><ele>156.0</ele><time>2016-06-18T06:34:52.307Z</time></trkpt><trkpt lat="57.83289" lon="14.14317333"><ele>156.0</ele><time>2016-06-18T06:34:53.291Z</time></trkpt><trkpt lat="57.83298" lon="14.14314833"><ele>156.0</ele><time>2016-06-18T06:34:54.308Z</time></trkpt><trkpt lat="57.83298" lon="14.14314833"><ele>156.0</ele><time>2016-06-18T06:34:55.284Z</time></trkpt><trkpt lat="57.83306833" lon="14.14312833"><ele>156.0</ele><time>2016-06-18T06:34:56.291Z</time></trkpt><trkpt lat="57.83306833" lon="14.14312833"><ele>156.0</ele><time>2016-06-18T06:34:57.313Z</time></trkpt><trkpt lat="57.83315333" lon="14.143105"><ele>157.0</ele><time>2016-06-18T06:34:58.288Z</time></trkpt><trkpt lat="57.83315333" lon="14.143105"><ele>157.0</ele><time>2016-06-18T06:34:59.302Z</time></trkpt><trkpt lat="57.83324" lon="14.14308167"><ele>157.0</ele><time>2016-06-18T06:35:00.312Z</time></trkpt><trkpt lat="57.83324" lon="14.14308167"><ele>157.0</ele><time>2016-06-18T06:35:01.284Z</time></trkpt><trkpt lat="57.833325" lon="14.14306333"><ele>158.0</ele><time>2016-06-18T06:35:02.284Z</time></trkpt><trkpt lat="57.833325" lon="14.14306333"><ele>158.0</ele><time>2016-06-18T06:35:03.304Z</time></trkpt><trkpt lat="57.833405" lon="14.14304333"><ele>158.0</ele><time>2016-06-18T06:35:04.313Z</time></trkpt><trkpt lat="57.83344" lon="14.14302833"><ele>158.0</ele><time>2016-06-18T06:35:05.304Z</time></trkpt><trkpt lat="57.83344" lon="14.14302833"><ele>158.0</ele><time>2016-06-18T06:35:06.301Z</time></trkpt><trkpt lat="57.83352" lon="14.14300667"><ele>158.0</ele><time>2016-06-18T06:35:07.309Z</time></trkpt><trkpt lat="57.833555" lon="14.14299667"><ele>158.0</ele><time>2016-06-18T06:35:08.308Z</time></trkpt><trkpt lat="57.833555" lon="14.14299667"><ele>158.0</ele><time>2016-06-18T06:35:09.305Z</time></trkpt><trkpt lat="57.833645" lon="14.14297833"><ele>159.0</ele><time>2016-06-18T06:35:10.312Z</time></trkpt><trkpt lat="57.83369" lon="14.14296833"><ele>160.0</ele><time>2016-06-18T06:35:11.288Z</time></trkpt><trkpt lat="57.83369" lon="14.14296833"><ele>160.0</ele><time>2016-06-18T06:35:12.282Z</time></trkpt><trkpt lat="57.83378333" lon="14.14294833"><ele>159.0</ele><time>2016-06-18T06:35:13.295Z</time></trkpt><trkpt lat="57.83378333" lon="14.14294833"><ele>159.0</ele><time>2016-06-18T06:35:14.312Z</time></trkpt><trkpt lat="57.833875" lon="14.14292"><ele>159.0</ele><time>2016-06-18T06:35:15.318Z</time></trkpt><trkpt lat="57.83392167" lon="14.14290667"><ele>159.0</ele><time>2016-06-18T06:35:16.300Z</time></trkpt><trkpt lat="57.83392167" lon="14.14290667"><ele>159.0</ele><time>2016-06-18T06:35:17.310Z</time></trkpt><trkpt lat="57.83401167" lon="14.14288667"><ele>159.0</ele><time>2016-06-18T06:35:18.316Z</time></trkpt><trkpt lat="57.83406" lon="14.14287833"><ele>159.0</ele><time>2016-06-18T06:35:19.314Z</time></trkpt><trkpt lat="57.83406" lon="14.14287833"><ele>159.0</ele><time>2016-06-18T06:35:20.302Z</time></trkpt><trkpt lat="57.83414667" lon="14.14286"><ele>160.0</ele><time>2016-06-18T06:35:21.309Z</time></trkpt><trkpt lat="57.83414667" lon="14.14286"><ele>160.0</ele><time>2016-06-18T06:35:22.292Z</time></trkpt><trkpt lat="57.83423" lon="14.14283833"><ele>160.0</ele><time>2016-06-18T06:35:23.287Z</time></trkpt><trkpt lat="57.83427" lon="14.14282833"><ele>160.0</ele><time>2016-06-18T06:35:24.320Z</time></trkpt><trkpt lat="57.83427" lon="14.14282833"><ele>160.0</ele><time>2016-06-18T06:35:25.303Z</time></trkpt><trkpt lat="57.83434833" lon="14.14280667"><ele>161.0</ele><time>2016-06-18T06:35:26.313Z</time></trkpt><trkpt lat="57.83434833" lon="14.14280667"><ele>161.0</ele><time>2016-06-18T06:35:27.313Z</time></trkpt><trkpt lat="57.83442667" lon="14.14278667"><ele>161.0</ele><time>2016-06-18T06:35:28.320Z</time></trkpt><trkpt lat="57.83442667" lon="14.14278667"><ele>161.0</ele><time>2016-06-18T06:35:29.308Z</time></trkpt><trkpt lat="57.83450667" lon="14.14277167"><ele>161.0</ele><time>2016-06-18T06:35:30.298Z</time></trkpt><trkpt lat="57.83450667" lon="14.14277167"><ele>161.0</ele><time>2016-06-18T06:35:31.304Z</time></trkpt><trkpt lat="57.83458833" lon="14.14276333"><ele>162.0</ele><time>2016-06-18T06:35:32.311Z</time></trkpt><trkpt lat="57.83458833" lon="14.14276333"><ele>162.0</ele><time>2016-06-18T06:35:33.296Z</time></trkpt><trkpt lat="57.834665" lon="14.14274167"><ele>162.0</ele><time>2016-06-18T06:35:34.310Z</time></trkpt><trkpt lat="57.834665" lon="14.14274167"><ele>162.0</ele><time>2016-06-18T06:35:35.306Z</time></trkpt><trkpt lat="57.83475" lon="14.14272167"><ele>163.0</ele><time>2016-06-18T06:35:36.313Z</time></trkpt><trkpt lat="57.83475" lon="14.14272167"><ele>163.0</ele><time>2016-06-18T06:35:37.296Z</time></trkpt><trkpt lat="57.83483667" lon="14.14269833"><ele>163.0</ele><time>2016-06-18T06:35:38.307Z</time></trkpt><trkpt lat="57.83483667" lon="14.14269833"><ele>163.0</ele><time>2016-06-18T06:35:39.303Z</time></trkpt><trkpt lat="57.83491333" lon="14.14268"><ele>163.0</ele><time>2016-06-18T06:35:40.310Z</time></trkpt><trkpt lat="57.83491333" lon="14.14268"><ele>163.0</ele><time>2016-06-18T06:35:41.293Z</time></trkpt><trkpt lat="57.83498667" lon="14.14266167"><ele>164.0</ele><time>2016-06-18T06:35:42.303Z</time></trkpt><trkpt lat="57.83498667" lon="14.14266167"><ele>164.0</ele><time>2016-06-18T06:35:43.288Z</time></trkpt><trkpt lat="57.83505833" lon="14.14263667"><ele>164.0</ele><time>2016-06-18T06:35:44.295Z</time></trkpt><trkpt lat="57.83509167" lon="14.142625"><ele>164.0</ele><time>2016-06-18T06:35:45.308Z</time></trkpt><trkpt lat="57.83509167" lon="14.142625"><ele>164.0</ele><time>2016-06-18T06:35:46.317Z</time></trkpt><trkpt lat="57.83516333" lon="14.14260333"><ele>165.0</ele><time>2016-06-18T06:35:47.285Z</time></trkpt><trkpt lat="57.83516333" lon="14.14260333"><ele>165.0</ele><time>2016-06-18T06:35:48.307Z</time></trkpt><trkpt lat="57.83523333" lon="14.142585"><ele>165.0</ele><time>2016-06-18T06:35:49.318Z</time></trkpt><trkpt lat="57.83523333" lon="14.142585"><ele>165.0</ele><time>2016-06-18T06:35:50.304Z</time></trkpt><trkpt lat="57.83531167" lon="14.14256"><ele>165.0</ele><time>2016-06-18T06:35:51.311Z</time></trkpt><trkpt lat="57.83531167" lon="14.14256"><ele>165.0</ele><time>2016-06-18T06:35:52.295Z</time></trkpt><trkpt lat="57.835385" lon="14.14254"><ele>166.0</ele><time>2016-06-18T06:35:53.308Z</time></trkpt><trkpt lat="57.835385" lon="14.14254"><ele>166.0</ele><time>2016-06-18T06:35:54.290Z</time></trkpt><trkpt lat="57.83545833" lon="14.14252"><ele>167.0</ele><time>2016-06-18T06:35:55.300Z</time></trkpt><trkpt lat="57.83549667" lon="14.14251167"><ele>167.0</ele><time>2016-06-18T06:35:56.291Z</time></trkpt><trkpt lat="57.83549667" lon="14.14251167"><ele>167.0</ele><time>2016-06-18T06:35:57.321Z</time></trkpt><trkpt lat="57.83556" lon="14.14249833"><ele>168.0</ele><time>2016-06-18T06:35:58.287Z</time></trkpt><trkpt lat="57.835595" lon="14.14249167"><ele>169.0</ele><time>2016-06-18T06:35:59.324Z</time></trkpt><trkpt lat="57.835595" lon="14.14249167"><ele>169.0</ele><time>2016-06-18T06:36:00.291Z</time></trkpt><trkpt lat="57.83567167" lon="14.14247167"><ele>169.0</ele><time>2016-06-18T06:36:01.297Z</time></trkpt><trkpt lat="57.83567167" lon="14.14247167"><ele>169.0</ele><time>2016-06-18T06:36:02.319Z</time></trkpt><trkpt lat="57.83575167" lon="14.142455"><ele>170.0</ele><time>2016-06-18T06:36:03.285Z</time></trkpt><trkpt lat="57.83575167" lon="14.142455"><ele>170.0</ele><time>2016-06-18T06:36:04.302Z</time></trkpt><trkpt lat="57.83582167" lon="14.14243"><ele>171.0</ele><time>2016-06-18T06:36:05.312Z</time></trkpt><trkpt lat="57.83585833" lon="14.14242"><ele>171.0</ele><time>2016-06-18T06:36:06.320Z</time></trkpt><trkpt lat="57.83585833" lon="14.14242"><ele>171.0</ele><time>2016-06-18T06:36:07.308Z</time></trkpt><trkpt lat="57.83593667" lon="14.14240167"><ele>172.0</ele><time>2016-06-18T06:36:08.315Z</time></trkpt><trkpt lat="57.83593667" lon="14.14240167"><ele>172.0</ele><time>2016-06-18T06:36:09.297Z</time></trkpt><trkpt lat="57.83601333" lon="14.14238167"><ele>172.0</ele><time>2016-06-18T06:36:10.291Z</time></trkpt><trkpt lat="57.83601333" lon="14.14238167"><ele>172.0</ele><time>2016-06-18T06:36:11.293Z</time></trkpt><trkpt lat="57.83610667" lon="14.14236"><ele>173.0</ele><time>2016-06-18T06:36:12.306Z</time></trkpt><trkpt lat="57.83610667" lon="14.14236"><ele>173.0</ele><time>2016-06-18T06:36:13.291Z</time></trkpt><trkpt lat="57.83620167" lon="14.14234333"><ele>174.0</ele><time>2016-06-18T06:36:14.302Z</time></trkpt><trkpt lat="57.83620167" lon="14.14234333"><ele>174.0</ele><time>2016-06-18T06:36:15.288Z</time></trkpt><trkpt lat="57.83629333" lon="14.14232333"><ele>174.0</ele><time>2016-06-18T06:36:16.308Z</time></trkpt><trkpt lat="57.83629333" lon="14.14232333"><ele>174.0</ele><time>2016-06-18T06:36:17.304Z</time></trkpt><trkpt lat="57.83638833" lon="14.14229667"><ele>173.0</ele><time>2016-06-18T06:36:18.313Z</time></trkpt><trkpt lat="57.83638833" lon="14.14229667"><ele>173.0</ele><time>2016-06-18T06:36:19.309Z</time></trkpt><trkpt lat="57.83648667" lon="14.14227"><ele>172.0</ele><time>2016-06-18T06:36:20.296Z</time></trkpt><trkpt lat="57.83648667" lon="14.14227"><ele>172.0</ele><time>2016-06-18T06:36:21.304Z</time></trkpt><trkpt lat="57.83659167" lon="14.14224667"><ele>172.0</ele><time>2016-06-18T06:36:22.312Z</time></trkpt><trkpt lat="57.83664667" lon="14.14223"><ele>172.0</ele><time>2016-06-18T06:36:23.298Z</time></trkpt><trkpt lat="57.83664667" lon="14.14223"><ele>172.0</ele><time>2016-06-18T06:36:24.301Z</time></trkpt><trkpt lat="57.83676333" lon="14.14221"><ele>172.0</ele><time>2016-06-18T06:36:25.307Z</time></trkpt><trkpt lat="57.836825" lon="14.1422"><ele>172.0</ele><time>2016-06-18T06:36:26.298Z</time></trkpt><trkpt lat="57.836825" lon="14.1422"><ele>172.0</ele><time>2016-06-18T06:36:27.312Z</time></trkpt><trkpt lat="57.83694833" lon="14.14218167"><ele>172.0</ele><time>2016-06-18T06:36:28.318Z</time></trkpt><trkpt lat="57.83701333" lon="14.14217333"><ele>172.0</ele><time>2016-06-18T06:36:29.311Z</time></trkpt><trkpt lat="57.83701333" lon="14.14217333"><ele>172.0</ele><time>2016-06-18T06:36:30.296Z</time></trkpt><trkpt lat="57.83714667" lon="14.14215667"><ele>172.0</ele><time>2016-06-18T06:36:31.305Z</time></trkpt><trkpt lat="57.83721167" lon="14.14214833"><ele>172.0</ele><time>2016-06-18T06:36:32.303Z</time></trkpt><trkpt lat="57.83721167" lon="14.14214833"><ele>172.0</ele><time>2016-06-18T06:36:33.287Z</time></trkpt><trkpt lat="57.83734333" lon="14.14213"><ele>172.0</ele><time>2016-06-18T06:36:34.295Z</time></trkpt><trkpt lat="57.83740833" lon="14.14212167"><ele>172.0</ele><time>2016-06-18T06:36:35.310Z</time></trkpt><trkpt lat="57.83740833" lon="14.14212167"><ele>172.0</ele><time>2016-06-18T06:36:36.284Z</time></trkpt><trkpt lat="57.83753167" lon="14.14210667"><ele>172.0</ele><time>2016-06-18T06:36:37.291Z</time></trkpt><trkpt lat="57.83753167" lon="14.14210667"><ele>172.0</ele><time>2016-06-18T06:36:38.312Z</time></trkpt><trkpt lat="57.83765667" lon="14.14209833"><ele>172.0</ele><time>2016-06-18T06:36:39.306Z</time></trkpt><trkpt lat="57.83765667" lon="14.14209833"><ele>172.0</ele><time>2016-06-18T06:36:40.310Z</time></trkpt><trkpt lat="57.83777167" lon="14.14208667"><ele>173.0</ele><time>2016-06-18T06:36:41.307Z</time></trkpt><trkpt lat="57.83783167" lon="14.14207333"><ele>173.0</ele><time>2016-06-18T06:36:42.298Z</time></trkpt><trkpt lat="57.83783167" lon="14.14207333"><ele>173.0</ele><time>2016-06-18T06:36:43.320Z</time></trkpt><trkpt lat="57.83795" lon="14.14205667"><ele>173.0</ele><time>2016-06-18T06:36:44.287Z</time></trkpt><trkpt lat="57.838005" lon="14.142055"><ele>173.0</ele><time>2016-06-18T06:36:45.309Z</time></trkpt><trkpt lat="57.838005" lon="14.142055"><ele>173.0</ele><time>2016-06-18T06:36:46.292Z</time></trkpt><trkpt lat="57.83811333" lon="14.14205"><ele>175.0</ele><time>2016-06-18T06:36:47.305Z</time></trkpt><trkpt lat="57.83817" lon="14.14204167"><ele>175.0</ele><time>2016-06-18T06:36:48.307Z</time></trkpt><trkpt lat="57.83822667" lon="14.14202833"><ele>175.0</ele><time>2016-06-18T06:36:49.306Z</time></trkpt><trkpt lat="57.83822667" lon="14.14202833"><ele>175.0</ele><time>2016-06-18T06:36:50.291Z</time></trkpt><trkpt lat="57.83834667" lon="14.14198833"><ele>175.0</ele><time>2016-06-18T06:36:51.288Z</time></trkpt><trkpt lat="57.83834667" lon="14.14198833"><ele>175.0</ele><time>2016-06-18T06:36:52.315Z</time></trkpt><trkpt lat="57.83847667" lon="14.14195167"><ele>175.0</ele><time>2016-06-18T06:36:53.285Z</time></trkpt><trkpt lat="57.83847667" lon="14.14195167"><ele>175.0</ele><time>2016-06-18T06:36:54.307Z</time></trkpt><trkpt lat="57.83860667" lon="14.14191333"><ele>175.0</ele><time>2016-06-18T06:36:55.303Z</time></trkpt><trkpt lat="57.83860667" lon="14.14191333"><ele>175.0</ele><time>2016-06-18T06:36:56.313Z</time></trkpt><trkpt lat="57.83873833" lon="14.141865"><ele>175.0</ele><time>2016-06-18T06:36:57.320Z</time></trkpt><trkpt lat="57.83879833" lon="14.14184167"><ele>175.0</ele><time>2016-06-18T06:36:58.283Z</time></trkpt><trkpt lat="57.83879833" lon="14.14184167"><ele>175.0</ele><time>2016-06-18T06:36:59.305Z</time></trkpt><trkpt lat="57.838915" lon="14.14179333"><ele>175.0</ele><time>2016-06-18T06:37:00.318Z</time></trkpt><trkpt lat="57.838915" lon="14.14179333"><ele>175.0</ele><time>2016-06-18T06:37:01.312Z</time></trkpt><trkpt lat="57.83902833" lon="14.14173833"><ele>174.0</ele><time>2016-06-18T06:37:02.318Z</time></trkpt><trkpt lat="57.83902833" lon="14.14173833"><ele>174.0</ele><time>2016-06-18T06:37:03.307Z</time></trkpt><trkpt lat="57.83913667" lon="14.14168"><ele>174.0</ele><time>2016-06-18T06:37:04.298Z</time></trkpt><trkpt lat="57.83919167" lon="14.14165167"><ele>174.0</ele><time>2016-06-18T06:37:05.320Z</time></trkpt><trkpt lat="57.83919167" lon="14.14165167"><ele>174.0</ele><time>2016-06-18T06:37:06.303Z</time></trkpt><trkpt lat="57.83929333" lon="14.14159167"><ele>174.0</ele><time>2016-06-18T06:37:07.287Z</time></trkpt><trkpt lat="57.83934667" lon="14.14155833"><ele>174.0</ele><time>2016-06-18T06:37:08.294Z</time></trkpt><trkpt lat="57.83934667" lon="14.14155833"><ele>174.0</ele><time>2016-06-18T06:37:09.319Z</time></trkpt><trkpt lat="57.83945833" lon="14.14149833"><ele>173.0</ele><time>2016-06-18T06:37:10.288Z</time></trkpt><trkpt lat="57.83945833" lon="14.14149833"><ele>173.0</ele><time>2016-06-18T06:37:11.310Z</time></trkpt><trkpt lat="57.83957" lon="14.14143167"><ele>173.0</ele><time>2016-06-18T06:37:12.288Z</time></trkpt><trkpt lat="57.83957" lon="14.14143167"><ele>173.0</ele><time>2016-06-18T06:37:13.309Z</time></trkpt><trkpt lat="57.83968833" lon="14.14134667"><ele>172.0</ele><time>2016-06-18T06:37:14.288Z</time></trkpt><trkpt lat="57.83968833" lon="14.14134667"><ele>172.0</ele><time>2016-06-18T06:37:15.310Z</time></trkpt><trkpt lat="57.83981333" lon="14.141255"><ele>172.0</ele><time>2016-06-18T06:37:16.317Z</time></trkpt><trkpt lat="57.83981333" lon="14.141255"><ele>172.0</ele><time>2016-06-18T06:37:17.302Z</time></trkpt><trkpt lat="57.83994333" lon="14.14116167"><ele>172.0</ele><time>2016-06-18T06:37:18.318Z</time></trkpt><trkpt lat="57.83994333" lon="14.14116167"><ele>172.0</ele><time>2016-06-18T06:37:19.302Z</time></trkpt><trkpt lat="57.840075" lon="14.14106833"><ele>172.0</ele><time>2016-06-18T06:37:20.310Z</time></trkpt><trkpt lat="57.840075" lon="14.14106833"><ele>172.0</ele><time>2016-06-18T06:37:21.294Z</time></trkpt><trkpt lat="57.84019833" lon="14.14096833"><ele>172.0</ele><time>2016-06-18T06:37:22.314Z</time></trkpt><trkpt lat="57.84019833" lon="14.14096833"><ele>172.0</ele><time>2016-06-18T06:37:23.311Z</time></trkpt><trkpt lat="57.84031" lon="14.14086833"><ele>172.0</ele><time>2016-06-18T06:37:24.321Z</time></trkpt><trkpt lat="57.84031" lon="14.14086833"><ele>172.0</ele><time>2016-06-18T06:37:25.287Z</time></trkpt><trkpt lat="57.840405" lon="14.140775"><ele>172.0</ele><time>2016-06-18T06:37:26.314Z</time></trkpt><trkpt lat="57.840405" lon="14.140775"><ele>172.0</ele><time>2016-06-18T06:37:27.299Z</time></trkpt><trkpt lat="57.84048833" lon="14.140695"><ele>173.0</ele><time>2016-06-18T06:37:28.317Z</time></trkpt><trkpt lat="57.84048833" lon="14.140695"><ele>173.0</ele><time>2016-06-18T06:37:29.295Z</time></trkpt><trkpt lat="57.84056833" lon="14.14062667"><ele>173.0</ele><time>2016-06-18T06:37:30.285Z</time></trkpt><trkpt lat="57.84056833" lon="14.14062667"><ele>173.0</ele><time>2016-06-18T06:37:31.309Z</time></trkpt><trkpt lat="57.84064667" lon="14.140555"><ele>174.0</ele><time>2016-06-18T06:37:32.316Z</time></trkpt><trkpt lat="57.84064667" lon="14.140555"><ele>174.0</ele><time>2016-06-18T06:37:33.301Z</time></trkpt><trkpt lat="57.84071667" lon="14.14047833"><ele>174.0</ele><time>2016-06-18T06:37:34.312Z</time></trkpt><trkpt lat="57.84075667" lon="14.14044667"><ele>174.0</ele><time>2016-06-18T06:37:35.288Z</time></trkpt><trkpt lat="57.84075667" lon="14.14044667"><ele>174.0</ele><time>2016-06-18T06:37:36.286Z</time></trkpt><trkpt lat="57.84082833" lon="14.14036667"><ele>175.0</ele><time>2016-06-18T06:37:37.293Z</time></trkpt><trkpt lat="57.84086667" lon="14.140325"><ele>175.0</ele><time>2016-06-18T06:37:38.290Z</time></trkpt><trkpt lat="57.84086667" lon="14.140325"><ele>175.0</ele><time>2016-06-18T06:37:39.292Z</time></trkpt><trkpt lat="57.84095167" lon="14.14024667"><ele>176.0</ele><time>2016-06-18T06:37:40.299Z</time></trkpt><trkpt lat="57.84099333" lon="14.14020333"><ele>176.0</ele><time>2016-06-18T06:37:41.317Z</time></trkpt><trkpt lat="57.84099333" lon="14.14020333"><ele>176.0</ele><time>2016-06-18T06:37:42.283Z</time></trkpt><trkpt lat="57.84106333" lon="14.14012"><ele>177.0</ele><time>2016-06-18T06:37:43.290Z</time></trkpt><trkpt lat="57.84106333" lon="14.14012"><ele>177.0</ele><time>2016-06-18T06:37:44.311Z</time></trkpt><trkpt lat="57.84112833" lon="14.14005"><ele>177.0</ele><time>2016-06-18T06:37:45.318Z</time></trkpt><trkpt lat="57.84112833" lon="14.14005"><ele>177.0</ele><time>2016-06-18T06:37:46.289Z</time></trkpt><trkpt lat="57.84118167" lon="14.13998167"><ele>178.0</ele><time>2016-06-18T06:37:47.296Z</time></trkpt><trkpt lat="57.84118167" lon="14.13998167"><ele>178.0</ele><time>2016-06-18T06:37:48.318Z</time></trkpt><trkpt lat="57.84123333" lon="14.13990667"><ele>178.0</ele><time>2016-06-18T06:37:49.300Z</time></trkpt><trkpt lat="57.84123333" lon="14.13990667"><ele>178.0</ele><time>2016-06-18T06:37:50.283Z</time></trkpt><trkpt lat="57.84128667" lon="14.13983"><ele>179.0</ele><time>2016-06-18T06:37:51.290Z</time></trkpt><trkpt lat="57.84128667" lon="14.13983"><ele>179.0</ele><time>2016-06-18T06:37:52.312Z</time></trkpt><trkpt lat="57.84135167" lon="14.139755"><ele>179.0</ele><time>2016-06-18T06:37:53.284Z</time></trkpt><trkpt lat="57.84135167" lon="14.139755"><ele>179.0</ele><time>2016-06-18T06:37:54.289Z</time></trkpt><trkpt lat="57.84141333" lon="14.13968333"><ele>180.0</ele><time>2016-06-18T06:37:55.318Z</time></trkpt><trkpt lat="57.84144667" lon="14.139645"><ele>181.0</ele><time>2016-06-18T06:37:56.309Z</time></trkpt><trkpt lat="57.84144667" lon="14.139645"><ele>181.0</ele><time>2016-06-18T06:37:57.292Z</time></trkpt><trkpt lat="57.841525" lon="14.13956167"><ele>182.0</ele><time>2016-06-18T06:37:58.315Z</time></trkpt><trkpt lat="57.84156333" lon="14.13951667"><ele>183.0</ele><time>2016-06-18T06:37:59.300Z</time></trkpt><trkpt lat="57.84156333" lon="14.13951667"><ele>183.0</ele><time>2016-06-18T06:38:00.321Z</time></trkpt><trkpt lat="57.84163833" lon="14.13944667"><ele>184.0</ele><time>2016-06-18T06:38:01.317Z</time></trkpt><trkpt lat="57.841675" lon="14.13941"><ele>183.0</ele><time>2016-06-18T06:38:02.283Z</time></trkpt><trkpt lat="57.841675" lon="14.13941"><ele>183.0</ele><time>2016-06-18T06:38:03.293Z</time></trkpt><trkpt lat="57.841745" lon="14.13933167"><ele>184.0</ele><time>2016-06-18T06:38:04.296Z</time></trkpt><trkpt lat="57.841745" lon="14.13933167"><ele>184.0</ele><time>2016-06-18T06:38:05.299Z</time></trkpt><trkpt lat="57.84180667" lon="14.13924167"><ele>185.0</ele><time>2016-06-18T06:38:06.305Z</time></trkpt><trkpt lat="57.84183667" lon="14.13919"><ele>185.0</ele><time>2016-06-18T06:38:07.302Z</time></trkpt><trkpt lat="57.84186667" lon="14.13914333"><ele>185.0</ele><time>2016-06-18T06:38:08.283Z</time></trkpt><trkpt lat="57.841895" lon="14.1391"><ele>186.0</ele><time>2016-06-18T06:38:09.289Z</time></trkpt><trkpt lat="57.841895" lon="14.1391"><ele>186.0</ele><time>2016-06-18T06:38:10.310Z</time></trkpt><trkpt lat="57.84195167" lon="14.13902667"><ele>186.0</ele><time>2016-06-18T06:38:11.296Z</time></trkpt><trkpt lat="57.841975" lon="14.13899333"><ele>186.0</ele><time>2016-06-18T06:38:12.294Z</time></trkpt><trkpt lat="57.84199833" lon="14.13895833"><ele>187.0</ele><time>2016-06-18T06:38:13.316Z</time></trkpt><trkpt lat="57.84202167" lon="14.138925"><ele>187.0</ele><time>2016-06-18T06:38:14.301Z</time></trkpt><trkpt lat="57.84202167" lon="14.138925"><ele>187.0</ele><time>2016-06-18T06:38:15.285Z</time></trkpt><trkpt lat="57.84206833" lon="14.13885333"><ele>188.0</ele><time>2016-06-18T06:38:16.292Z</time></trkpt><trkpt lat="57.84206833" lon="14.13885333"><ele>188.0</ele><time>2016-06-18T06:38:17.314Z</time></trkpt><trkpt lat="57.84212" lon="14.138775"><ele>188.0</ele><time>2016-06-18T06:38:18.288Z</time></trkpt><trkpt lat="57.84212" lon="14.138775"><ele>188.0</ele><time>2016-06-18T06:38:19.310Z</time></trkpt><trkpt lat="57.84217167" lon="14.13869333"><ele>188.0</ele><time>2016-06-18T06:38:20.317Z</time></trkpt><trkpt lat="57.84217167" lon="14.13869333"><ele>188.0</ele><time>2016-06-18T06:38:21.295Z</time></trkpt><trkpt lat="57.84222667" lon="14.13861"><ele>189.0</ele><time>2016-06-18T06:38:22.293Z</time></trkpt><trkpt lat="57.84222667" lon="14.13861"><ele>189.0</ele><time>2016-06-18T06:38:23.315Z</time></trkpt><trkpt lat="57.84228167" lon="14.13852667"><ele>189.0</ele><time>2016-06-18T06:38:24.283Z</time></trkpt><trkpt lat="57.84228167" lon="14.13852667"><ele>189.0</ele><time>2016-06-18T06:38:25.307Z</time></trkpt><trkpt lat="57.84233333" lon="14.13844667"><ele>189.0</ele><time>2016-06-18T06:38:26.298Z</time></trkpt><trkpt lat="57.84233333" lon="14.13844667"><ele>189.0</ele><time>2016-06-18T06:38:27.317Z</time></trkpt><trkpt lat="57.84238167" lon="14.13836167"><ele>189.0</ele><time>2016-06-18T06:38:28.285Z</time></trkpt><trkpt lat="57.84238167" lon="14.13836167"><ele>189.0</ele><time>2016-06-18T06:38:29.321Z</time></trkpt><trkpt lat="57.84243" lon="14.13828333"><ele>190.0</ele><time>2016-06-18T06:38:30.305Z</time></trkpt><trkpt lat="57.84243" lon="14.13828333"><ele>190.0</ele><time>2016-06-18T06:38:31.300Z</time></trkpt><trkpt lat="57.84248" lon="14.13819833"><ele>190.0</ele><time>2016-06-18T06:38:32.309Z</time></trkpt><trkpt lat="57.84248" lon="14.13819833"><ele>190.0</ele><time>2016-06-18T06:38:33.292Z</time></trkpt><trkpt lat="57.84252667" lon="14.13811"><ele>190.0</ele><time>2016-06-18T06:38:34.307Z</time></trkpt><trkpt lat="57.84252667" lon="14.13811"><ele>190.0</ele><time>2016-06-18T06:38:35.296Z</time></trkpt><trkpt lat="57.842575" lon="14.13802333"><ele>190.0</ele><time>2016-06-18T06:38:36.305Z</time></trkpt><trkpt lat="57.8426" lon="14.13798167"><ele>190.0</ele><time>2016-06-18T06:38:37.313Z</time></trkpt><trkpt lat="57.84262667" lon="14.13793667"><ele>190.0</ele><time>2016-06-18T06:38:38.294Z</time></trkpt><trkpt lat="57.84262667" lon="14.13793667"><ele>190.0</ele><time>2016-06-18T06:38:39.317Z</time></trkpt><trkpt lat="57.84268" lon="14.13785667"><ele>191.0</ele><time>2016-06-18T06:38:40.299Z</time></trkpt><trkpt lat="57.84268" lon="14.13785667"><ele>191.0</ele><time>2016-06-18T06:38:41.312Z</time></trkpt><trkpt lat="57.84273167" lon="14.13776833"><ele>191.0</ele><time>2016-06-18T06:38:42.318Z</time></trkpt><trkpt lat="57.84276333" lon="14.13772667"><ele>192.0</ele><time>2016-06-18T06:38:43.296Z</time></trkpt><trkpt lat="57.84276333" lon="14.13772667"><ele>192.0</ele><time>2016-06-18T06:38:44.317Z</time></trkpt><trkpt lat="57.842825" lon="14.13764"><ele>193.0</ele><time>2016-06-18T06:38:45.305Z</time></trkpt><trkpt lat="57.84285667" lon="14.13759833"><ele>193.0</ele><time>2016-06-18T06:38:46.309Z</time></trkpt><trkpt lat="57.84285667" lon="14.13759833"><ele>193.0</ele><time>2016-06-18T06:38:47.292Z</time></trkpt><trkpt lat="57.84292" lon="14.13751333"><ele>193.0</ele><time>2016-06-18T06:38:48.288Z</time></trkpt><trkpt lat="57.84292" lon="14.13751333"><ele>193.0</ele><time>2016-06-18T06:38:49.311Z</time></trkpt><trkpt lat="57.84298167" lon="14.13742333"><ele>193.0</ele><time>2016-06-18T06:38:50.319Z</time></trkpt><trkpt lat="57.84298167" lon="14.13742333"><ele>193.0</ele><time>2016-06-18T06:38:51.316Z</time></trkpt><trkpt lat="57.843045" lon="14.13733167"><ele>194.0</ele><time>2016-06-18T06:38:52.307Z</time></trkpt><trkpt lat="57.843045" lon="14.13733167"><ele>194.0</ele><time>2016-06-18T06:38:53.292Z</time></trkpt><trkpt lat="57.84310667" lon="14.13723833"><ele>195.0</ele><time>2016-06-18T06:38:54.306Z</time></trkpt><trkpt lat="57.84310667" lon="14.13723833"><ele>195.0</ele><time>2016-06-18T06:38:55.318Z</time></trkpt><trkpt lat="57.84316667" lon="14.13715167"><ele>195.0</ele><time>2016-06-18T06:38:56.298Z</time></trkpt><trkpt lat="57.84316667" lon="14.13715167"><ele>195.0</ele><time>2016-06-18T06:38:57.314Z</time></trkpt><trkpt lat="57.84322833" lon="14.13706667"><ele>196.0</ele><time>2016-06-18T06:38:58.321Z</time></trkpt><trkpt lat="57.84322833" lon="14.13706667"><ele>196.0</ele><time>2016-06-18T06:38:59.305Z</time></trkpt><trkpt lat="57.84329333" lon="14.13698"><ele>197.0</ele><time>2016-06-18T06:39:00.300Z</time></trkpt><trkpt lat="57.84329333" lon="14.13698"><ele>197.0</ele><time>2016-06-18T06:39:01.282Z</time></trkpt><trkpt lat="57.843355" lon="14.13688333"><ele>197.0</ele><time>2016-06-18T06:39:02.289Z</time></trkpt><trkpt lat="57.843355" lon="14.13688333"><ele>197.0</ele><time>2016-06-18T06:39:03.312Z</time></trkpt><trkpt lat="57.84341833" lon="14.13678333"><ele>197.0</ele><time>2016-06-18T06:39:04.306Z</time></trkpt><trkpt lat="57.84341833" lon="14.13678333"><ele>197.0</ele><time>2016-06-18T06:39:05.290Z</time></trkpt><trkpt lat="57.84348833" lon="14.13669333"><ele>197.0</ele><time>2016-06-18T06:39:06.296Z</time></trkpt><trkpt lat="57.84348833" lon="14.13669333"><ele>197.0</ele><time>2016-06-18T06:39:07.317Z</time></trkpt><trkpt lat="57.84356" lon="14.13659"><ele>197.0</ele><time>2016-06-18T06:39:08.283Z</time></trkpt><trkpt lat="57.84356" lon="14.13659"><ele>197.0</ele><time>2016-06-18T06:39:09.304Z</time></trkpt><trkpt lat="57.84364" lon="14.13648667"><ele>198.0</ele><time>2016-06-18T06:39:10.324Z</time></trkpt><trkpt lat="57.84364" lon="14.13648667"><ele>198.0</ele><time>2016-06-18T06:39:11.319Z</time></trkpt><trkpt lat="57.84371667" lon="14.13637167"><ele>198.0</ele><time>2016-06-18T06:39:12.320Z</time></trkpt><trkpt lat="57.84371667" lon="14.13637167"><ele>198.0</ele><time>2016-06-18T06:39:13.305Z</time></trkpt><trkpt lat="57.84379667" lon="14.13626"><ele>198.0</ele><time>2016-06-18T06:39:14.312Z</time></trkpt><trkpt lat="57.84379667" lon="14.13626"><ele>198.0</ele><time>2016-06-18T06:39:15.296Z</time></trkpt><trkpt lat="57.84388167" lon="14.13614333"><ele>198.0</ele><time>2016-06-18T06:39:16.304Z</time></trkpt><trkpt lat="57.84388167" lon="14.13614333"><ele>198.0</ele><time>2016-06-18T06:39:17.286Z</time></trkpt><trkpt lat="57.84398167" lon="14.13602833"><ele>198.0</ele><time>2016-06-18T06:39:18.307Z</time></trkpt><trkpt lat="57.84398167" lon="14.13602833"><ele>198.0</ele><time>2016-06-18T06:39:19.306Z</time></trkpt><trkpt lat="57.844085" lon="14.13591833"><ele>198.0</ele><time>2016-06-18T06:39:20.313Z</time></trkpt><trkpt lat="57.844085" lon="14.13591833"><ele>198.0</ele><time>2016-06-18T06:39:21.311Z</time></trkpt><trkpt lat="57.84418667" lon="14.135795"><ele>198.0</ele><time>2016-06-18T06:39:22.314Z</time></trkpt><trkpt lat="57.84418667" lon="14.135795"><ele>198.0</ele><time>2016-06-18T06:39:23.289Z</time></trkpt><trkpt lat="57.84428833" lon="14.13565833"><ele>198.0</ele><time>2016-06-18T06:39:24.296Z</time></trkpt><trkpt lat="57.84433833" lon="14.13558833"><ele>197.0</ele><time>2016-06-18T06:39:25.294Z</time></trkpt><trkpt lat="57.84433833" lon="14.13558833"><ele>197.0</ele><time>2016-06-18T06:39:26.309Z</time></trkpt><trkpt lat="57.84445167" lon="14.13545"><ele>196.0</ele><time>2016-06-18T06:39:27.316Z</time></trkpt><trkpt lat="57.84445167" lon="14.13545"><ele>196.0</ele><time>2016-06-18T06:39:28.301Z</time></trkpt><trkpt lat="57.84457167" lon="14.13530667"><ele>196.0</ele><time>2016-06-18T06:39:29.321Z</time></trkpt><trkpt lat="57.84457167" lon="14.13530667"><ele>196.0</ele><time>2016-06-18T06:39:30.320Z</time></trkpt><trkpt lat="57.84470167" lon="14.13518167"><ele>196.0</ele><time>2016-06-18T06:39:31.286Z</time></trkpt><trkpt lat="57.84477333" lon="14.13513167"><ele>196.0</ele><time>2016-06-18T06:39:32.312Z</time></trkpt><trkpt lat="57.84477333" lon="14.13513167"><ele>196.0</ele><time>2016-06-18T06:39:33.311Z</time></trkpt><trkpt lat="57.844905" lon="14.13502167"><ele>196.0</ele><time>2016-06-18T06:39:34.318Z</time></trkpt><trkpt lat="57.84497" lon="14.13497167"><ele>196.0</ele><time>2016-06-18T06:39:35.326Z</time></trkpt><trkpt lat="57.84497" lon="14.13497167"><ele>196.0</ele><time>2016-06-18T06:39:36.302Z</time></trkpt><trkpt lat="57.84509833" lon="14.13488833"><ele>196.0</ele><time>2016-06-18T06:39:37.308Z</time></trkpt><trkpt lat="57.84516" lon="14.13485667"><ele>196.0</ele><time>2016-06-18T06:39:38.291Z</time></trkpt><trkpt lat="57.84516" lon="14.13485667"><ele>196.0</ele><time>2016-06-18T06:39:39.293Z</time></trkpt><trkpt lat="57.84528833" lon="14.13483833"><ele>196.0</ele><time>2016-06-18T06:39:40.324Z</time></trkpt><trkpt lat="57.84528833" lon="14.13483833"><ele>196.0</ele><time>2016-06-18T06:39:41.293Z</time></trkpt><trkpt lat="57.84540333" lon="14.13487167"><ele>196.0</ele><time>2016-06-18T06:39:42.309Z</time></trkpt><trkpt lat="57.84540333" lon="14.13487167"><ele>196.0</ele><time>2016-06-18T06:39:43.293Z</time></trkpt><trkpt lat="57.84552167" lon="14.13487667"><ele>197.0</ele><time>2016-06-18T06:39:44.315Z</time></trkpt><trkpt lat="57.84552167" lon="14.13487667"><ele>197.0</ele><time>2016-06-18T06:39:45.283Z</time></trkpt><trkpt lat="57.84561667" lon="14.13476667"><ele>196.0</ele><time>2016-06-18T06:39:46.290Z</time></trkpt><trkpt lat="57.84565333" lon="14.13468667"><ele>196.0</ele><time>2016-06-18T06:39:47.286Z</time></trkpt><trkpt lat="57.84565333" lon="14.13468667"><ele>196.0</ele><time>2016-06-18T06:39:48.309Z</time></trkpt><trkpt lat="57.84574333" lon="14.13452167"><ele>196.0</ele><time>2016-06-18T06:39:49.315Z</time></trkpt><trkpt lat="57.84574333" lon="14.13452167"><ele>196.0</ele><time>2016-06-18T06:39:50.306Z</time></trkpt><trkpt lat="57.845855" lon="14.13438833"><ele>196.0</ele><time>2016-06-18T06:39:51.308Z</time></trkpt><trkpt lat="57.845855" lon="14.13438833"><ele>196.0</ele><time>2016-06-18T06:39:52.293Z</time></trkpt><trkpt lat="57.84598333" lon="14.13428833"><ele>196.0</ele><time>2016-06-18T06:39:53.319Z</time></trkpt><trkpt lat="57.84598333" lon="14.13428833"><ele>196.0</ele><time>2016-06-18T06:39:54.303Z</time></trkpt><trkpt lat="57.84611833" lon="14.13421167"><ele>196.0</ele><time>2016-06-18T06:39:55.308Z</time></trkpt><trkpt lat="57.84611833" lon="14.13421167"><ele>196.0</ele><time>2016-06-18T06:39:56.311Z</time></trkpt><trkpt lat="57.84625167" lon="14.13414333"><ele>197.0</ele><time>2016-06-18T06:39:57.317Z</time></trkpt><trkpt lat="57.84631833" lon="14.13410667"><ele>197.0</ele><time>2016-06-18T06:39:58.284Z</time></trkpt><trkpt lat="57.84631833" lon="14.13410667"><ele>197.0</ele><time>2016-06-18T06:39:59.303Z</time></trkpt><trkpt lat="57.846455" lon="14.13403833"><ele>197.0</ele><time>2016-06-18T06:40:00.314Z</time></trkpt><trkpt lat="57.846455" lon="14.13403833"><ele>197.0</ele><time>2016-06-18T06:40:01.310Z</time></trkpt><trkpt lat="57.84659167" lon="14.13397833"><ele>197.0</ele><time>2016-06-18T06:40:02.283Z</time></trkpt><trkpt lat="57.84659167" lon="14.13397833"><ele>197.0</ele><time>2016-06-18T06:40:03.305Z</time></trkpt><trkpt lat="57.84672667" lon="14.133915"><ele>197.0</ele><time>2016-06-18T06:40:04.302Z</time></trkpt><trkpt lat="57.84672667" lon="14.133915"><ele>197.0</ele><time>2016-06-18T06:40:05.296Z</time></trkpt><trkpt lat="57.84685833" lon="14.13384333"><ele>196.0</ele><time>2016-06-18T06:40:06.303Z</time></trkpt><trkpt lat="57.84692833" lon="14.13381167"><ele>196.0</ele><time>2016-06-18T06:40:07.289Z</time></trkpt><trkpt lat="57.84700167" lon="14.133775"><ele>196.0</ele><time>2016-06-18T06:40:08.321Z</time></trkpt><trkpt lat="57.84700167" lon="14.133775"><ele>196.0</ele><time>2016-06-18T06:40:09.320Z</time></trkpt><trkpt lat="57.847155" lon="14.133695"><ele>195.0</ele><time>2016-06-18T06:40:10.298Z</time></trkpt><trkpt lat="57.847155" lon="14.133695"><ele>195.0</ele><time>2016-06-18T06:40:11.312Z</time></trkpt><trkpt lat="57.84731333" lon="14.13362167"><ele>194.0</ele><time>2016-06-18T06:40:12.312Z</time></trkpt><trkpt lat="57.84731333" lon="14.13362167"><ele>194.0</ele><time>2016-06-18T06:40:13.296Z</time></trkpt><trkpt lat="57.84747833" lon="14.13353833"><ele>194.0</ele><time>2016-06-18T06:40:14.306Z</time></trkpt><trkpt lat="57.84747833" lon="14.13353833"><ele>194.0</ele><time>2016-06-18T06:40:15.289Z</time></trkpt><trkpt lat="57.84765667" lon="14.13342333"><ele>193.0</ele><time>2016-06-18T06:40:16.308Z</time></trkpt><trkpt lat="57.84765667" lon="14.13342333"><ele>193.0</ele><time>2016-06-18T06:40:17.285Z</time></trkpt><trkpt lat="57.84783667" lon="14.13328333"><ele>191.0</ele><time>2016-06-18T06:40:18.293Z</time></trkpt><trkpt lat="57.84783667" lon="14.13328333"><ele>191.0</ele><time>2016-06-18T06:40:19.314Z</time></trkpt><trkpt lat="57.84801333" lon="14.13312167"><ele>190.0</ele><time>2016-06-18T06:40:20.313Z</time></trkpt><trkpt lat="57.84801333" lon="14.13312167"><ele>190.0</ele><time>2016-06-18T06:40:21.300Z</time></trkpt><trkpt lat="57.84819" lon="14.13293667"><ele>188.0</ele><time>2016-06-18T06:40:22.308Z</time></trkpt><trkpt lat="57.84819" lon="14.13293667"><ele>188.0</ele><time>2016-06-18T06:40:23.292Z</time></trkpt><trkpt lat="57.84837167" lon="14.13273"><ele>187.0</ele><time>2016-06-18T06:40:24.312Z</time></trkpt><trkpt lat="57.84837167" lon="14.13273"><ele>187.0</ele><time>2016-06-18T06:40:25.284Z</time></trkpt><trkpt lat="57.84855667" lon="14.13250167"><ele>185.0</ele><time>2016-06-18T06:40:26.291Z</time></trkpt><trkpt lat="57.84855667" lon="14.13250167"><ele>185.0</ele><time>2016-06-18T06:40:27.313Z</time></trkpt><trkpt lat="57.84875" lon="14.13226333"><ele>183.0</ele><time>2016-06-18T06:40:28.314Z</time></trkpt><trkpt lat="57.84875" lon="14.13226333"><ele>183.0</ele><time>2016-06-18T06:40:29.289Z</time></trkpt><trkpt lat="57.848945" lon="14.13202167"><ele>181.0</ele><time>2016-06-18T06:40:30.296Z</time></trkpt><trkpt lat="57.84904333" lon="14.13190167"><ele>181.0</ele><time>2016-06-18T06:40:31.296Z</time></trkpt><trkpt lat="57.84904333" lon="14.13190167"><ele>181.0</ele><time>2016-06-18T06:40:32.318Z</time></trkpt><trkpt lat="57.84923333" lon="14.13166667"><ele>179.0</ele><time>2016-06-18T06:40:33.293Z</time></trkpt><trkpt lat="57.84933" lon="14.13154833"><ele>179.0</ele><time>2016-06-18T06:40:34.309Z</time></trkpt><trkpt lat="57.849425" lon="14.13143"><ele>178.0</ele><time>2016-06-18T06:40:35.294Z</time></trkpt><trkpt lat="57.849425" lon="14.13143"><ele>178.0</ele><time>2016-06-18T06:40:36.316Z</time></trkpt><trkpt lat="57.84961667" lon="14.131195"><ele>177.0</ele><time>2016-06-18T06:40:37.283Z</time></trkpt><trkpt lat="57.84971" lon="14.13108"><ele>177.0</ele><time>2016-06-18T06:40:38.310Z</time></trkpt><trkpt lat="57.84971" lon="14.13108"><ele>177.0</ele><time>2016-06-18T06:40:39.294Z</time></trkpt><trkpt lat="57.849885" lon="14.13086"><ele>176.0</ele><time>2016-06-18T06:40:40.317Z</time></trkpt><trkpt lat="57.849885" lon="14.13086"><ele>176.0</ele><time>2016-06-18T06:40:41.301Z</time></trkpt><trkpt lat="57.85005667" lon="14.13064833"><ele>175.0</ele><time>2016-06-18T06:40:42.317Z</time></trkpt><trkpt lat="57.85005667" lon="14.13064833"><ele>175.0</ele><time>2016-06-18T06:40:43.299Z</time></trkpt><trkpt lat="57.85023167" lon="14.13043667"><ele>175.0</ele><time>2016-06-18T06:40:44.308Z</time></trkpt><trkpt lat="57.85023167" lon="14.13043667"><ele>175.0</ele><time>2016-06-18T06:40:45.297Z</time></trkpt><trkpt lat="57.850405" lon="14.13022833"><ele>174.0</ele><time>2016-06-18T06:40:46.286Z</time></trkpt><trkpt lat="57.850405" lon="14.13022833"><ele>174.0</ele><time>2016-06-18T06:40:47.310Z</time></trkpt><trkpt lat="57.85058167" lon="14.13002"><ele>173.0</ele><time>2016-06-18T06:40:48.316Z</time></trkpt><trkpt lat="57.85067" lon="14.12991167"><ele>173.0</ele><time>2016-06-18T06:40:49.318Z</time></trkpt><trkpt lat="57.85067" lon="14.12991167"><ele>173.0</ele><time>2016-06-18T06:40:50.290Z</time></trkpt><trkpt lat="57.85085333" lon="14.12970333"><ele>172.0</ele><time>2016-06-18T06:40:51.303Z</time></trkpt><trkpt lat="57.85085333" lon="14.12970333"><ele>172.0</ele><time>2016-06-18T06:40:52.287Z</time></trkpt><trkpt lat="57.851045" lon="14.12949667"><ele>171.0</ele><time>2016-06-18T06:40:53.316Z</time></trkpt><trkpt lat="57.85114667" lon="14.12939667"><ele>170.0</ele><time>2016-06-18T06:40:54.312Z</time></trkpt><trkpt lat="57.85114667" lon="14.12939667"><ele>170.0</ele><time>2016-06-18T06:40:55.319Z</time></trkpt><trkpt lat="57.85136167" lon="14.129205"><ele>169.0</ele><time>2016-06-18T06:40:56.286Z</time></trkpt><trkpt lat="57.85136167" lon="14.129205"><ele>169.0</ele><time>2016-06-18T06:40:57.316Z</time></trkpt><trkpt lat="57.85158167" lon="14.12901833"><ele>168.0</ele><time>2016-06-18T06:40:58.283Z</time></trkpt><trkpt lat="57.85169167" lon="14.12893333"><ele>167.0</ele><time>2016-06-18T06:40:59.317Z</time></trkpt><trkpt lat="57.85169167" lon="14.12893333"><ele>167.0</ele><time>2016-06-18T06:41:00.283Z</time></trkpt><trkpt lat="57.85191167" lon="14.12878333"><ele>166.0</ele><time>2016-06-18T06:41:01.290Z</time></trkpt><trkpt lat="57.85202167" lon="14.12871"><ele>165.0</ele><time>2016-06-18T06:41:02.288Z</time></trkpt><trkpt lat="57.85202167" lon="14.12871"><ele>165.0</ele><time>2016-06-18T06:41:03.307Z</time></trkpt><trkpt lat="57.85225" lon="14.12856833"><ele>164.0</ele><time>2016-06-18T06:41:04.287Z</time></trkpt><trkpt lat="57.85225" lon="14.12856833"><ele>164.0</ele><time>2016-06-18T06:41:05.308Z</time></trkpt><trkpt lat="57.852475" lon="14.128445"><ele>162.0</ele><time>2016-06-18T06:41:06.323Z</time></trkpt><trkpt lat="57.852475" lon="14.128445"><ele>162.0</ele><time>2016-06-18T06:41:07.321Z</time></trkpt><trkpt lat="57.85269833" lon="14.128355"><ele>160.0</ele><time>2016-06-18T06:41:08.287Z</time></trkpt><trkpt lat="57.85269833" lon="14.128355"><ele>160.0</ele><time>2016-06-18T06:41:09.311Z</time></trkpt><trkpt lat="57.85289833" lon="14.12828"><ele>159.0</ele><time>2016-06-18T06:41:10.303Z</time></trkpt><trkpt lat="57.85289833" lon="14.12828"><ele>159.0</ele><time>2016-06-18T06:41:11.318Z</time></trkpt><trkpt lat="57.853085" lon="14.12821833"><ele>157.0</ele><time>2016-06-18T06:41:12.315Z</time></trkpt><trkpt lat="57.853085" lon="14.12821833"><ele>157.0</ele><time>2016-06-18T06:41:13.301Z</time></trkpt><trkpt lat="57.85327667" lon="14.12816667"><ele>156.0</ele><time>2016-06-18T06:41:14.312Z</time></trkpt><trkpt lat="57.85327667" lon="14.12816667"><ele>156.0</ele><time>2016-06-18T06:41:15.294Z</time></trkpt><trkpt lat="57.85347667" lon="14.128125"><ele>155.0</ele><time>2016-06-18T06:41:16.324Z</time></trkpt><trkpt lat="57.85358333" lon="14.12811333"><ele>154.0</ele><time>2016-06-18T06:41:17.292Z</time></trkpt><trkpt lat="57.85358333" lon="14.12811333"><ele>154.0</ele><time>2016-06-18T06:41:18.314Z</time></trkpt><trkpt lat="57.853795" lon="14.12810333"><ele>154.0</ele><time>2016-06-18T06:41:19.320Z</time></trkpt><trkpt lat="57.853795" lon="14.12810333"><ele>154.0</ele><time>2016-06-18T06:41:20.308Z</time></trkpt><trkpt lat="57.854" lon="14.12806167"><ele>153.0</ele><time>2016-06-18T06:41:21.284Z</time></trkpt><trkpt lat="57.854" lon="14.12806167"><ele>153.0</ele><time>2016-06-18T06:41:22.307Z</time></trkpt><trkpt lat="57.854205" lon="14.128005"><ele>151.0</ele><time>2016-06-18T06:41:23.300Z</time></trkpt><trkpt lat="57.854205" lon="14.128005"><ele>151.0</ele><time>2016-06-18T06:41:24.282Z</time></trkpt><trkpt lat="57.85442" lon="14.12796"><ele>150.0</ele><time>2016-06-18T06:41:25.297Z</time></trkpt><trkpt lat="57.85442" lon="14.12796"><ele>150.0</ele><time>2016-06-18T06:41:26.294Z</time></trkpt><trkpt lat="57.85464667" lon="14.12791833"><ele>148.0</ele><time>2016-06-18T06:41:27.308Z</time></trkpt><trkpt lat="57.85464667" lon="14.12791833"><ele>148.0</ele><time>2016-06-18T06:41:28.291Z</time></trkpt><trkpt lat="57.85487" lon="14.12786833"><ele>147.0</ele><time>2016-06-18T06:41:29.308Z</time></trkpt><trkpt lat="57.85487" lon="14.12786833"><ele>147.0</ele><time>2016-06-18T06:41:30.307Z</time></trkpt><trkpt lat="57.85509833" lon="14.12779167"><ele>146.0</ele><time>2016-06-18T06:41:31.315Z</time></trkpt><trkpt lat="57.85521833" lon="14.12774833"><ele>145.0</ele><time>2016-06-18T06:41:32.319Z</time></trkpt><trkpt lat="57.85521833" lon="14.12774833"><ele>145.0</ele><time>2016-06-18T06:41:33.300Z</time></trkpt><trkpt lat="57.85546" lon="14.12765167"><ele>144.0</ele><time>2016-06-18T06:41:34.306Z</time></trkpt><trkpt lat="57.85546" lon="14.12765167"><ele>144.0</ele><time>2016-06-18T06:41:35.291Z</time></trkpt><trkpt lat="57.855695" lon="14.12754"><ele>143.0</ele><time>2016-06-18T06:41:36.307Z</time></trkpt><trkpt lat="57.855695" lon="14.12754"><ele>143.0</ele><time>2016-06-18T06:41:37.319Z</time></trkpt><trkpt lat="57.855925" lon="14.12741667"><ele>142.0</ele><time>2016-06-18T06:41:38.286Z</time></trkpt><trkpt lat="57.855925" lon="14.12741667"><ele>142.0</ele><time>2016-06-18T06:41:39.307Z</time></trkpt><trkpt lat="57.85614" lon="14.12728333"><ele>140.0</ele><time>2016-06-18T06:41:40.309Z</time></trkpt><trkpt lat="57.85614" lon="14.12728333"><ele>140.0</ele><time>2016-06-18T06:41:41.317Z</time></trkpt><trkpt lat="57.85634167" lon="14.127145"><ele>137.0</ele><time>2016-06-18T06:41:42.283Z</time></trkpt><trkpt lat="57.85634167" lon="14.127145"><ele>137.0</ele><time>2016-06-18T06:41:43.294Z</time></trkpt><trkpt lat="57.85653333" lon="14.12698833"><ele>136.0</ele><time>2016-06-18T06:41:44.308Z</time></trkpt><trkpt lat="57.85653333" lon="14.12698833"><ele>136.0</ele><time>2016-06-18T06:41:45.283Z</time></trkpt><trkpt lat="57.856715" lon="14.12683667"><ele>134.0</ele><time>2016-06-18T06:41:46.290Z</time></trkpt><trkpt lat="57.856715" lon="14.12683667"><ele>134.0</ele><time>2016-06-18T06:41:47.282Z</time></trkpt><trkpt lat="57.85686667" lon="14.1267"><ele>132.0</ele><time>2016-06-18T06:41:48.301Z</time></trkpt><trkpt lat="57.85686667" lon="14.1267"><ele>132.0</ele><time>2016-06-18T06:41:49.286Z</time></trkpt><trkpt lat="57.85699167" lon="14.126595"><ele>132.0</ele><time>2016-06-18T06:41:50.293Z</time></trkpt><trkpt lat="57.85699167" lon="14.126595"><ele>132.0</ele><time>2016-06-18T06:41:51.291Z</time></trkpt><trkpt lat="57.85711167" lon="14.12650333"><ele>129.0</ele><time>2016-06-18T06:41:52.297Z</time></trkpt><trkpt lat="57.85711167" lon="14.12650333"><ele>129.0</ele><time>2016-06-18T06:41:53.290Z</time></trkpt><trkpt lat="57.85724167" lon="14.12634333"><ele>128.0</ele><time>2016-06-18T06:41:54.299Z</time></trkpt><trkpt lat="57.85724167" lon="14.12634333"><ele>128.0</ele><time>2016-06-18T06:41:55.321Z</time></trkpt><trkpt lat="57.85738167" lon="14.12616167"><ele>127.0</ele><time>2016-06-18T06:41:56.298Z</time></trkpt><trkpt lat="57.85738167" lon="14.12616167"><ele>127.0</ele><time>2016-06-18T06:41:57.290Z</time></trkpt><trkpt lat="57.85753833" lon="14.12599167"><ele>127.0</ele><time>2016-06-18T06:41:58.296Z</time></trkpt><trkpt lat="57.85753833" lon="14.12599167"><ele>127.0</ele><time>2016-06-18T06:41:59.289Z</time></trkpt><trkpt lat="57.857695" lon="14.12581167"><ele>126.0</ele><time>2016-06-18T06:42:00.283Z</time></trkpt><trkpt lat="57.857695" lon="14.12581167"><ele>126.0</ele><time>2016-06-18T06:42:01.307Z</time></trkpt><trkpt lat="57.85785333" lon="14.12563333"><ele>126.0</ele><time>2016-06-18T06:42:02.313Z</time></trkpt><trkpt lat="57.85785333" lon="14.12563333"><ele>126.0</ele><time>2016-06-18T06:42:03.296Z</time></trkpt><trkpt lat="57.85800833" lon="14.12545667"><ele>126.0</ele><time>2016-06-18T06:42:04.305Z</time></trkpt><trkpt lat="57.85800833" lon="14.12545667"><ele>126.0</ele><time>2016-06-18T06:42:05.309Z</time></trkpt><trkpt lat="57.85817167" lon="14.12527333"><ele>125.0</ele><time>2016-06-18T06:42:06.316Z</time></trkpt><trkpt lat="57.85817167" lon="14.12527333"><ele>125.0</ele><time>2016-06-18T06:42:07.296Z</time></trkpt><trkpt lat="57.85834167" lon="14.125075"><ele>124.0</ele><time>2016-06-18T06:42:08.312Z</time></trkpt><trkpt lat="57.85834167" lon="14.125075"><ele>124.0</ele><time>2016-06-18T06:42:09.322Z</time></trkpt><trkpt lat="57.85851333" lon="14.12487667"><ele>123.0</ele><time>2016-06-18T06:42:10.288Z</time></trkpt><trkpt lat="57.85860333" lon="14.12478"><ele>122.0</ele><time>2016-06-18T06:42:11.291Z</time></trkpt><trkpt lat="57.85860333" lon="14.12478"><ele>122.0</ele><time>2016-06-18T06:42:12.319Z</time></trkpt><trkpt lat="57.85877833" lon="14.12458833"><ele>121.0</ele><time>2016-06-18T06:42:13.290Z</time></trkpt><trkpt lat="57.85885667" lon="14.12449833"><ele>121.0</ele><time>2016-06-18T06:42:14.312Z</time></trkpt><trkpt lat="57.85885667" lon="14.12449833"><ele>121.0</ele><time>2016-06-18T06:42:15.296Z</time></trkpt><trkpt lat="57.85899833" lon="14.12433833"><ele>120.0</ele><time>2016-06-18T06:42:16.307Z</time></trkpt><trkpt lat="57.85899833" lon="14.12433833"><ele>120.0</ele><time>2016-06-18T06:42:17.314Z</time></trkpt><trkpt lat="57.85911333" lon="14.12421833"><ele>119.0</ele><time>2016-06-18T06:42:18.298Z</time></trkpt><trkpt lat="57.85911333" lon="14.12421833"><ele>119.0</ele><time>2016-06-18T06:42:19.314Z</time></trkpt><trkpt lat="57.85921" lon="14.124105"><ele>119.0</ele><time>2016-06-18T06:42:20.320Z</time></trkpt><trkpt lat="57.85921" lon="14.124105"><ele>119.0</ele><time>2016-06-18T06:42:21.304Z</time></trkpt><trkpt lat="57.85931333" lon="14.12398667"><ele>118.0</ele><time>2016-06-18T06:42:22.316Z</time></trkpt><trkpt lat="57.85931333" lon="14.12398667"><ele>118.0</ele><time>2016-06-18T06:42:23.300Z</time></trkpt><trkpt lat="57.85941333" lon="14.12387333"><ele>117.0</ele><time>2016-06-18T06:42:24.310Z</time></trkpt><trkpt lat="57.85941333" lon="14.12387333"><ele>117.0</ele><time>2016-06-18T06:42:25.304Z</time></trkpt><trkpt lat="57.8595" lon="14.12378"><ele>116.0</ele><time>2016-06-18T06:42:26.317Z</time></trkpt><trkpt lat="57.8595" lon="14.12378"><ele>116.0</ele><time>2016-06-18T06:42:27.289Z</time></trkpt><trkpt lat="57.859585" lon="14.12369333"><ele>116.0</ele><time>2016-06-18T06:42:28.300Z</time></trkpt><trkpt lat="57.859585" lon="14.12369333"><ele>116.0</ele><time>2016-06-18T06:42:29.287Z</time></trkpt><trkpt lat="57.85968333" lon="14.12362667"><ele>116.0</ele><time>2016-06-18T06:42:30.294Z</time></trkpt><trkpt lat="57.85968333" lon="14.12362667"><ele>116.0</ele><time>2016-06-18T06:42:31.316Z</time></trkpt><trkpt lat="57.85978833" lon="14.12360833"><ele>115.0</ele><time>2016-06-18T06:42:32.286Z</time></trkpt><trkpt lat="57.85978833" lon="14.12360833"><ele>115.0</ele><time>2016-06-18T06:42:33.287Z</time></trkpt><trkpt lat="57.85988" lon="14.12353667"><ele>113.0</ele><time>2016-06-18T06:42:34.294Z</time></trkpt><trkpt lat="57.85988" lon="14.12353667"><ele>113.0</ele><time>2016-06-18T06:42:35.316Z</time></trkpt><trkpt lat="57.85995" lon="14.12338667"><ele>112.0</ele><time>2016-06-18T06:42:36.299Z</time></trkpt><trkpt lat="57.85995" lon="14.12338667"><ele>112.0</ele><time>2016-06-18T06:42:37.287Z</time></trkpt><trkpt lat="57.860035" lon="14.12321167"><ele>111.0</ele><time>2016-06-18T06:42:38.294Z</time></trkpt><trkpt lat="57.860035" lon="14.12321167"><ele>111.0</ele><time>2016-06-18T06:42:39.315Z</time></trkpt><trkpt lat="57.860155" lon="14.12304667"><ele>111.0</ele><time>2016-06-18T06:42:40.301Z</time></trkpt><trkpt lat="57.860155" lon="14.12304667"><ele>111.0</ele><time>2016-06-18T06:42:41.290Z</time></trkpt><trkpt lat="57.8603" lon="14.12287333"><ele>110.0</ele><time>2016-06-18T06:42:42.297Z</time></trkpt><trkpt lat="57.8603" lon="14.12287333"><ele>110.0</ele><time>2016-06-18T06:42:43.318Z</time></trkpt><trkpt lat="57.860455" lon="14.12269"><ele>110.0</ele><time>2016-06-18T06:42:44.318Z</time></trkpt><trkpt lat="57.860455" lon="14.12269"><ele>110.0</ele><time>2016-06-18T06:42:45.305Z</time></trkpt><trkpt lat="57.86061667" lon="14.12249167"><ele>109.0</ele><time>2016-06-18T06:42:46.313Z</time></trkpt><trkpt lat="57.86061667" lon="14.12249167"><ele>109.0</ele><time>2016-06-18T06:42:47.296Z</time></trkpt><trkpt lat="57.86078667" lon="14.12228833"><ele>108.0</ele><time>2016-06-18T06:42:48.307Z</time></trkpt><trkpt lat="57.86078667" lon="14.12228833"><ele>108.0</ele><time>2016-06-18T06:42:49.312Z</time></trkpt><trkpt lat="57.86096833" lon="14.12208333"><ele>107.0</ele><time>2016-06-18T06:42:50.319Z</time></trkpt><trkpt lat="57.86096833" lon="14.12208333"><ele>107.0</ele><time>2016-06-18T06:42:51.316Z</time></trkpt><trkpt lat="57.86115667" lon="14.12186667"><ele>106.0</ele><time>2016-06-18T06:42:52.305Z</time></trkpt><trkpt lat="57.86115667" lon="14.12186667"><ele>106.0</ele><time>2016-06-18T06:42:53.299Z</time></trkpt><trkpt lat="57.86135833" lon="14.121655"><ele>106.0</ele><time>2016-06-18T06:42:54.310Z</time></trkpt><trkpt lat="57.86146333" lon="14.12155667"><ele>105.0</ele><time>2016-06-18T06:42:55.315Z</time></trkpt><trkpt lat="57.86157167" lon="14.12146"><ele>105.0</ele><time>2016-06-18T06:42:56.300Z</time></trkpt><trkpt lat="57.86157167" lon="14.12146"><ele>105.0</ele><time>2016-06-18T06:42:57.322Z</time></trkpt><trkpt lat="57.86178833" lon="14.12126333"><ele>105.0</ele><time>2016-06-18T06:42:58.301Z</time></trkpt><trkpt lat="57.86189333" lon="14.121165"><ele>104.0</ele><time>2016-06-18T06:42:59.287Z</time></trkpt><trkpt lat="57.86189333" lon="14.121165"><ele>104.0</ele><time>2016-06-18T06:43:00.310Z</time></trkpt><trkpt lat="57.86210333" lon="14.120985"><ele>104.0</ele><time>2016-06-18T06:43:01.319Z</time></trkpt><trkpt lat="57.862205" lon="14.12089833"><ele>104.0</ele><time>2016-06-18T06:43:02.311Z</time></trkpt><trkpt lat="57.862205" lon="14.12089833"><ele>104.0</ele><time>2016-06-18T06:43:03.293Z</time></trkpt><trkpt lat="57.862405" lon="14.12074"><ele>103.0</ele><time>2016-06-18T06:43:04.308Z</time></trkpt><trkpt lat="57.862405" lon="14.12074"><ele>103.0</ele><time>2016-06-18T06:43:05.287Z</time></trkpt><trkpt lat="57.86257833" lon="14.12058667"><ele>103.0</ele><time>2016-06-18T06:43:06.294Z</time></trkpt><trkpt lat="57.86265667" lon="14.120515"><ele>103.0</ele><time>2016-06-18T06:43:07.312Z</time></trkpt><trkpt lat="57.86265667" lon="14.120515"><ele>103.0</ele><time>2016-06-18T06:43:08.294Z</time></trkpt><trkpt lat="57.86279833" lon="14.12038833"><ele>104.0</ele><time>2016-06-18T06:43:09.308Z</time></trkpt><trkpt lat="57.86287333" lon="14.12035333"><ele>104.0</ele><time>2016-06-18T06:43:10.314Z</time></trkpt><trkpt lat="57.86287333" lon="14.12035333"><ele>104.0</ele><time>2016-06-18T06:43:11.288Z</time></trkpt><trkpt lat="57.86298333" lon="14.12025333"><ele>105.0</ele><time>2016-06-18T06:43:12.284Z</time></trkpt><trkpt lat="57.86303167" lon="14.12021167"><ele>106.0</ele><time>2016-06-18T06:43:13.309Z</time></trkpt><trkpt lat="57.86303167" lon="14.12021167"><ele>106.0</ele><time>2016-06-18T06:43:14.290Z</time></trkpt><trkpt lat="57.86312333" lon="14.12012667"><ele>107.0</ele><time>2016-06-18T06:43:15.318Z</time></trkpt><trkpt lat="57.86312333" lon="14.12012667"><ele>107.0</ele><time>2016-06-18T06:43:16.313Z</time></trkpt><trkpt lat="57.86321667" lon="14.12004333"><ele>108.0</ele><time>2016-06-18T06:43:17.282Z</time></trkpt><trkpt lat="57.86321667" lon="14.12004333"><ele>108.0</ele><time>2016-06-18T06:43:18.307Z</time></trkpt><trkpt lat="57.86331167" lon="14.11996167"><ele>109.0</ele><time>2016-06-18T06:43:19.305Z</time></trkpt><trkpt lat="57.86336667" lon="14.119915"><ele>109.0</ele><time>2016-06-18T06:43:20.301Z</time></trkpt><trkpt lat="57.86336667" lon="14.119915"><ele>109.0</ele><time>2016-06-18T06:43:21.321Z</time></trkpt><trkpt lat="57.86349" lon="14.11982167"><ele>109.0</ele><time>2016-06-18T06:43:22.292Z</time></trkpt><trkpt lat="57.86355333" lon="14.11977167"><ele>109.0</ele><time>2016-06-18T06:43:23.292Z</time></trkpt><trkpt lat="57.86355333" lon="14.11977167"><ele>109.0</ele><time>2016-06-18T06:43:24.313Z</time></trkpt><trkpt lat="57.86368" lon="14.11966"><ele>109.0</ele><time>2016-06-18T06:43:25.312Z</time></trkpt><trkpt lat="57.86374333" lon="14.11959833"><ele>109.0</ele><time>2016-06-18T06:43:26.306Z</time></trkpt><trkpt lat="57.86374333" lon="14.11959833"><ele>109.0</ele><time>2016-06-18T06:43:27.288Z</time></trkpt><trkpt lat="57.86387667" lon="14.11947333"><ele>109.0</ele><time>2016-06-18T06:43:28.315Z</time></trkpt><trkpt lat="57.86387667" lon="14.11947333"><ele>109.0</ele><time>2016-06-18T06:43:29.295Z</time></trkpt><trkpt lat="57.86402" lon="14.11936"><ele>110.0</ele><time>2016-06-18T06:43:30.307Z</time></trkpt><trkpt lat="57.86409167" lon="14.1193"><ele>110.0</ele><time>2016-06-18T06:43:31.309Z</time></trkpt><trkpt lat="57.86409167" lon="14.1193"><ele>110.0</ele><time>2016-06-18T06:43:32.315Z</time></trkpt><trkpt lat="57.86424" lon="14.11918667"><ele>110.0</ele><time>2016-06-18T06:43:33.282Z</time></trkpt><trkpt lat="57.86424" lon="14.11918667"><ele>110.0</ele><time>2016-06-18T06:43:34.308Z</time></trkpt><trkpt lat="57.86438667" lon="14.119075"><ele>110.0</ele><time>2016-06-18T06:43:35.298Z</time></trkpt><trkpt lat="57.86438667" lon="14.119075"><ele>110.0</ele><time>2016-06-18T06:43:36.306Z</time></trkpt><trkpt lat="57.86452833" lon="14.118955"><ele>110.0</ele><time>2016-06-18T06:43:37.316Z</time></trkpt><trkpt lat="57.86459833" lon="14.11889167"><ele>110.0</ele><time>2016-06-18T06:43:38.292Z</time></trkpt><trkpt lat="57.86459833" lon="14.11889167"><ele>110.0</ele><time>2016-06-18T06:43:39.315Z</time></trkpt><trkpt lat="57.86474" lon="14.11877833"><ele>110.0</ele><time>2016-06-18T06:43:40.298Z</time></trkpt><trkpt lat="57.86474" lon="14.11877833"><ele>110.0</ele><time>2016-06-18T06:43:41.299Z</time></trkpt><trkpt lat="57.86488333" lon="14.11866167"><ele>111.0</ele><time>2016-06-18T06:43:42.310Z</time></trkpt><trkpt lat="57.86488333" lon="14.11866167"><ele>111.0</ele><time>2016-06-18T06:43:43.296Z</time></trkpt><trkpt lat="57.865005" lon="14.118565"><ele>111.0</ele><time>2016-06-18T06:43:44.316Z</time></trkpt><trkpt lat="57.865005" lon="14.118565"><ele>111.0</ele><time>2016-06-18T06:43:45.315Z</time></trkpt><trkpt lat="57.86511" lon="14.11847667"><ele>111.0</ele><time>2016-06-18T06:43:46.289Z</time></trkpt><trkpt lat="57.86516333" lon="14.11843833"><ele>111.0</ele><time>2016-06-18T06:43:47.288Z</time></trkpt><trkpt lat="57.86516333" lon="14.11843833"><ele>111.0</ele><time>2016-06-18T06:43:48.308Z</time></trkpt><trkpt lat="57.86527667" lon="14.11836"><ele>110.0</ele><time>2016-06-18T06:43:49.286Z</time></trkpt><trkpt lat="57.865335" lon="14.11830833"><ele>110.0</ele><time>2016-06-18T06:43:50.288Z</time></trkpt><trkpt lat="57.865335" lon="14.11830833"><ele>110.0</ele><time>2016-06-18T06:43:51.310Z</time></trkpt><trkpt lat="57.86546" lon="14.1182"><ele>110.0</ele><time>2016-06-18T06:43:52.317Z</time></trkpt><trkpt lat="57.86552167" lon="14.118145"><ele>110.0</ele><time>2016-06-18T06:43:53.290Z</time></trkpt><trkpt lat="57.86552167" lon="14.118145"><ele>110.0</ele><time>2016-06-18T06:43:54.302Z</time></trkpt><trkpt lat="57.86564333" lon="14.118035"><ele>110.0</ele><time>2016-06-18T06:43:55.311Z</time></trkpt><trkpt lat="57.86570167" lon="14.11798167"><ele>110.0</ele><time>2016-06-18T06:43:56.300Z</time></trkpt><trkpt lat="57.86570167" lon="14.11798167"><ele>110.0</ele><time>2016-06-18T06:43:57.321Z</time></trkpt><trkpt lat="57.86581833" lon="14.117885"><ele>110.0</ele><time>2016-06-18T06:43:58.289Z</time></trkpt><trkpt lat="57.865875" lon="14.11783833"><ele>110.0</ele><time>2016-06-18T06:43:59.298Z</time></trkpt><trkpt lat="57.865875" lon="14.11783833"><ele>110.0</ele><time>2016-06-18T06:44:00.309Z</time></trkpt><trkpt lat="57.86598667" lon="14.11773833"><ele>110.0</ele><time>2016-06-18T06:44:01.317Z</time></trkpt><trkpt lat="57.86604333" lon="14.11769"><ele>110.0</ele><time>2016-06-18T06:44:02.300Z</time></trkpt><trkpt lat="57.86604333" lon="14.11769"><ele>110.0</ele><time>2016-06-18T06:44:03.282Z</time></trkpt><trkpt lat="57.86616" lon="14.11758833"><ele>110.0</ele><time>2016-06-18T06:44:04.288Z</time></trkpt><trkpt lat="57.86622333" lon="14.11753667"><ele>110.0</ele><time>2016-06-18T06:44:05.304Z</time></trkpt><trkpt lat="57.86622333" lon="14.11753667"><ele>110.0</ele><time>2016-06-18T06:44:06.286Z</time></trkpt><trkpt lat="57.86635" lon="14.11742167"><ele>110.0</ele><time>2016-06-18T06:44:07.293Z</time></trkpt><trkpt lat="57.866415" lon="14.117365"><ele>110.0</ele><time>2016-06-18T06:44:08.308Z</time></trkpt><trkpt lat="57.866415" lon="14.117365"><ele>110.0</ele><time>2016-06-18T06:44:09.310Z</time></trkpt><trkpt lat="57.86654833" lon="14.11725"><ele>110.0</ele><time>2016-06-18T06:44:10.318Z</time></trkpt><trkpt lat="57.86654833" lon="14.11725"><ele>110.0</ele><time>2016-06-18T06:44:11.286Z</time></trkpt><trkpt lat="57.866685" lon="14.11713667"><ele>110.0</ele><time>2016-06-18T06:44:12.282Z</time></trkpt><trkpt lat="57.866685" lon="14.11713667"><ele>110.0</ele><time>2016-06-18T06:44:13.311Z</time></trkpt><trkpt lat="57.86682333" lon="14.11702167"><ele>110.0</ele><time>2016-06-18T06:44:14.298Z</time></trkpt><trkpt lat="57.86682333" lon="14.11702167"><ele>110.0</ele><time>2016-06-18T06:44:15.296Z</time></trkpt><trkpt lat="57.86695667" lon="14.11690333"><ele>109.0</ele><time>2016-06-18T06:44:16.310Z</time></trkpt><trkpt lat="57.86695667" lon="14.11690333"><ele>109.0</ele><time>2016-06-18T06:44:17.293Z</time></trkpt><trkpt lat="57.86708833" lon="14.11678333"><ele>109.0</ele><time>2016-06-18T06:44:18.313Z</time></trkpt><trkpt lat="57.86708833" lon="14.11678333"><ele>109.0</ele><time>2016-06-18T06:44:19.299Z</time></trkpt><trkpt lat="57.86721833" lon="14.11667667"><ele>109.0</ele><time>2016-06-18T06:44:20.308Z</time></trkpt><trkpt lat="57.86721833" lon="14.11667667"><ele>109.0</ele><time>2016-06-18T06:44:21.318Z</time></trkpt><trkpt lat="57.867345" lon="14.11656333"><ele>109.0</ele><time>2016-06-18T06:44:22.303Z</time></trkpt><trkpt lat="57.867345" lon="14.11656333"><ele>109.0</ele><time>2016-06-18T06:44:23.310Z</time></trkpt><trkpt lat="57.86747167" lon="14.11644333"><ele>109.0</ele><time>2016-06-18T06:44:24.316Z</time></trkpt><trkpt lat="57.86747167" lon="14.11644333"><ele>109.0</ele><time>2016-06-18T06:44:25.298Z</time></trkpt><trkpt lat="57.86759" lon="14.116315"><ele>110.0</ele><time>2016-06-18T06:44:26.304Z</time></trkpt><trkpt lat="57.86759" lon="14.116315"><ele>110.0</ele><time>2016-06-18T06:44:27.284Z</time></trkpt><trkpt lat="57.86771333" lon="14.11622167"><ele>112.0</ele><time>2016-06-18T06:44:28.291Z</time></trkpt><trkpt lat="57.86771333" lon="14.11622167"><ele>112.0</ele><time>2016-06-18T06:44:29.312Z</time></trkpt><trkpt lat="57.86783" lon="14.11621833"><ele>113.0</ele><time>2016-06-18T06:44:30.304Z</time></trkpt><trkpt lat="57.86783" lon="14.11621833"><ele>113.0</ele><time>2016-06-18T06:44:31.321Z</time></trkpt><trkpt lat="57.86792833" lon="14.11629667"><ele>113.0</ele><time>2016-06-18T06:44:32.289Z</time></trkpt><trkpt lat="57.86792833" lon="14.11629667"><ele>113.0</ele><time>2016-06-18T06:44:33.314Z</time></trkpt><trkpt lat="57.86803833" lon="14.11628333"><ele>114.0</ele><time>2016-06-18T06:44:34.311Z</time></trkpt><trkpt lat="57.86803833" lon="14.11628333"><ele>114.0</ele><time>2016-06-18T06:44:35.290Z</time></trkpt><trkpt lat="57.86812833" lon="14.116135"><ele>115.0</ele><time>2016-06-18T06:44:36.297Z</time></trkpt><trkpt lat="57.86812833" lon="14.116135"><ele>115.0</ele><time>2016-06-18T06:44:37.319Z</time></trkpt><trkpt lat="57.86821" lon="14.11594833"><ele>116.0</ele><time>2016-06-18T06:44:38.306Z</time></trkpt><trkpt lat="57.86821" lon="14.11594833"><ele>116.0</ele><time>2016-06-18T06:44:39.289Z</time></trkpt><trkpt lat="57.86830333" lon="14.11575333"><ele>116.0</ele><time>2016-06-18T06:44:40.296Z</time></trkpt><trkpt lat="57.868355" lon="14.11566"><ele>116.0</ele><time>2016-06-18T06:44:41.304Z</time></trkpt><trkpt lat="57.868355" lon="14.11566"><ele>116.0</ele><time>2016-06-18T06:44:42.297Z</time></trkpt><trkpt lat="57.86847833" lon="14.115495"><ele>116.0</ele><time>2016-06-18T06:44:43.305Z</time></trkpt><trkpt lat="57.86854" lon="14.11541"><ele>116.0</ele><time>2016-06-18T06:44:44.288Z</time></trkpt><trkpt lat="57.86854" lon="14.11541"><ele>116.0</ele><time>2016-06-18T06:44:45.310Z</time></trkpt><trkpt lat="57.86866667" lon="14.11524333"><ele>115.0</ele><time>2016-06-18T06:44:46.318Z</time></trkpt><trkpt lat="57.86866667" lon="14.11524333"><ele>115.0</ele><time>2016-06-18T06:44:47.318Z</time></trkpt><trkpt lat="57.86879833" lon="14.11507"><ele>115.0</ele><time>2016-06-18T06:44:48.325Z</time></trkpt><trkpt lat="57.86879833" lon="14.11507"><ele>115.0</ele><time>2016-06-18T06:44:49.300Z</time></trkpt><trkpt lat="57.86893333" lon="14.11489"><ele>114.0</ele><time>2016-06-18T06:44:50.307Z</time></trkpt><trkpt lat="57.86893333" lon="14.11489"><ele>114.0</ele><time>2016-06-18T06:44:51.290Z</time></trkpt><trkpt lat="57.869065" lon="14.11471833"><ele>114.0</ele><time>2016-06-18T06:44:52.314Z</time></trkpt><trkpt lat="57.869065" lon="14.11471833"><ele>114.0</ele><time>2016-06-18T06:44:53.310Z</time></trkpt><trkpt lat="57.86918833" lon="14.11455833"><ele>114.0</ele><time>2016-06-18T06:44:54.310Z</time></trkpt><trkpt lat="57.86918833" lon="14.11455833"><ele>114.0</ele><time>2016-06-18T06:44:55.286Z</time></trkpt><trkpt lat="57.86931333" lon="14.11441333"><ele>114.0</ele><time>2016-06-18T06:44:56.293Z</time></trkpt><trkpt lat="57.86931333" lon="14.11441333"><ele>114.0</ele><time>2016-06-18T06:44:57.304Z</time></trkpt><trkpt lat="57.86944" lon="14.11426167"><ele>115.0</ele><time>2016-06-18T06:44:58.297Z</time></trkpt><trkpt lat="57.86950333" lon="14.11418"><ele>114.0</ele><time>2016-06-18T06:44:59.310Z</time></trkpt><trkpt lat="57.86950333" lon="14.11418"><ele>114.0</ele><time>2016-06-18T06:45:00.320Z</time></trkpt><trkpt lat="57.86962833" lon="14.11400833"><ele>114.0</ele><time>2016-06-18T06:45:01.289Z</time></trkpt><trkpt lat="57.86969333" lon="14.11392333"><ele>114.0</ele><time>2016-06-18T06:45:02.299Z</time></trkpt><trkpt lat="57.86969333" lon="14.11392333"><ele>114.0</ele><time>2016-06-18T06:45:03.318Z</time></trkpt><trkpt lat="57.86982167" lon="14.11376"><ele>114.0</ele><time>2016-06-18T06:45:04.312Z</time></trkpt><trkpt lat="57.86982167" lon="14.11376"><ele>114.0</ele><time>2016-06-18T06:45:05.291Z</time></trkpt><trkpt lat="57.86994833" lon="14.11359833"><ele>114.0</ele><time>2016-06-18T06:45:06.298Z</time></trkpt><trkpt lat="57.86994833" lon="14.11359833"><ele>114.0</ele><time>2016-06-18T06:45:07.309Z</time></trkpt><trkpt lat="57.87007333" lon="14.11343167"><ele>114.0</ele><time>2016-06-18T06:45:08.306Z</time></trkpt><trkpt lat="57.87007333" lon="14.11343167"><ele>114.0</ele><time>2016-06-18T06:45:09.285Z</time></trkpt><trkpt lat="57.87019167" lon="14.11327"><ele>114.0</ele><time>2016-06-18T06:45:10.296Z</time></trkpt><trkpt lat="57.87019167" lon="14.11327"><ele>114.0</ele><time>2016-06-18T06:45:11.315Z</time></trkpt><trkpt lat="57.87033" lon="14.11314167"><ele>114.0</ele><time>2016-06-18T06:45:12.312Z</time></trkpt><trkpt lat="57.87033" lon="14.11314167"><ele>114.0</ele><time>2016-06-18T06:45:13.294Z</time></trkpt><trkpt lat="57.87046333" lon="14.11299167"><ele>114.0</ele><time>2016-06-18T06:45:14.301Z</time></trkpt><trkpt lat="57.87046333" lon="14.11299167"><ele>114.0</ele><time>2016-06-18T06:45:15.319Z</time></trkpt><trkpt lat="57.87059" lon="14.11283333"><ele>114.0</ele><time>2016-06-18T06:45:16.300Z</time></trkpt><trkpt lat="57.87059" lon="14.11283333"><ele>114.0</ele><time>2016-06-18T06:45:17.288Z</time></trkpt><trkpt lat="57.87071667" lon="14.11267667"><ele>114.0</ele><time>2016-06-18T06:45:18.297Z</time></trkpt><trkpt lat="57.87071667" lon="14.11267667"><ele>114.0</ele><time>2016-06-18T06:45:19.291Z</time></trkpt><trkpt lat="57.87083833" lon="14.11250667"><ele>113.0</ele><time>2016-06-18T06:45:20.304Z</time></trkpt><trkpt lat="57.87083833" lon="14.11250667"><ele>113.0</ele><time>2016-06-18T06:45:21.310Z</time></trkpt><trkpt lat="57.87096667" lon="14.11233333"><ele>113.0</ele><time>2016-06-18T06:45:22.317Z</time></trkpt><trkpt lat="57.87096667" lon="14.11233333"><ele>113.0</ele><time>2016-06-18T06:45:23.300Z</time></trkpt><trkpt lat="57.87109667" lon="14.11215"><ele>113.0</ele><time>2016-06-18T06:45:24.321Z</time></trkpt><trkpt lat="57.87109667" lon="14.11215"><ele>113.0</ele><time>2016-06-18T06:45:25.306Z</time></trkpt><trkpt lat="57.87122667" lon="14.11197167"><ele>113.0</ele><time>2016-06-18T06:45:26.313Z</time></trkpt><trkpt lat="57.87122667" lon="14.11197167"><ele>113.0</ele><time>2016-06-18T06:45:27.294Z</time></trkpt><trkpt lat="57.87136167" lon="14.11179667"><ele>112.0</ele><time>2016-06-18T06:45:28.282Z</time></trkpt><trkpt lat="57.87136167" lon="14.11179667"><ele>112.0</ele><time>2016-06-18T06:45:29.300Z</time></trkpt><trkpt lat="57.87149833" lon="14.11160667"><ele>111.0</ele><time>2016-06-18T06:45:30.309Z</time></trkpt><trkpt lat="57.87157" lon="14.11150833"><ele>111.0</ele><time>2016-06-18T06:45:31.314Z</time></trkpt><trkpt lat="57.87157" lon="14.11150833"><ele>111.0</ele><time>2016-06-18T06:45:32.297Z</time></trkpt><trkpt lat="57.87172" lon="14.11131667"><ele>109.0</ele><time>2016-06-18T06:45:33.320Z</time></trkpt><trkpt lat="57.87172" lon="14.11131667"><ele>109.0</ele><time>2016-06-18T06:45:34.303Z</time></trkpt><trkpt lat="57.87188333" lon="14.11112167"><ele>108.0</ele><time>2016-06-18T06:45:35.306Z</time></trkpt><trkpt lat="57.87188333" lon="14.11112167"><ele>108.0</ele><time>2016-06-18T06:45:36.310Z</time></trkpt><trkpt lat="57.87205333" lon="14.11090333"><ele>107.0</ele><time>2016-06-18T06:45:37.318Z</time></trkpt><trkpt lat="57.87214167" lon="14.110785"><ele>106.0</ele><time>2016-06-18T06:45:38.308Z</time></trkpt><trkpt lat="57.87214167" lon="14.110785"><ele>106.0</ele><time>2016-06-18T06:45:39.309Z</time></trkpt><trkpt lat="57.87232833" lon="14.11054333"><ele>104.0</ele><time>2016-06-18T06:45:40.320Z</time></trkpt><trkpt lat="57.87241833" lon="14.11042333"><ele>104.0</ele><time>2016-06-18T06:45:41.308Z</time></trkpt><trkpt lat="57.87241833" lon="14.11042333"><ele>104.0</ele><time>2016-06-18T06:45:42.290Z</time></trkpt><trkpt lat="57.87262167" lon="14.11018667"><ele>102.0</ele><time>2016-06-18T06:45:43.311Z</time></trkpt><trkpt lat="57.872725" lon="14.110055"><ele>101.0</ele><time>2016-06-18T06:45:44.308Z</time></trkpt><trkpt lat="57.872725" lon="14.110055"><ele>101.0</ele><time>2016-06-18T06:45:45.292Z</time></trkpt><trkpt lat="57.87293667" lon="14.10979167"><ele>99.0</ele><time>2016-06-18T06:45:46.298Z</time></trkpt><trkpt lat="57.87303833" lon="14.10965833"><ele>99.0</ele><time>2016-06-18T06:45:47.291Z</time></trkpt><trkpt lat="57.87303833" lon="14.10965833"><ele>99.0</ele><time>2016-06-18T06:45:48.284Z</time></trkpt><trkpt lat="57.87323667" lon="14.10938667"><ele>97.0</ele><time>2016-06-18T06:45:49.292Z</time></trkpt><trkpt lat="57.87333" lon="14.10925167"><ele>97.0</ele><time>2016-06-18T06:45:50.288Z</time></trkpt><trkpt lat="57.87333" lon="14.10925167"><ele>97.0</ele><time>2016-06-18T06:45:51.289Z</time></trkpt><trkpt lat="57.8735" lon="14.109"><ele>97.0</ele><time>2016-06-18T06:45:52.296Z</time></trkpt><trkpt lat="57.87357333" lon="14.10888667"><ele>97.0</ele><time>2016-06-18T06:45:53.292Z</time></trkpt><trkpt lat="57.87357333" lon="14.10888667"><ele>97.0</ele><time>2016-06-18T06:45:54.317Z</time></trkpt><trkpt lat="57.87370333" lon="14.108685"><ele>97.0</ele><time>2016-06-18T06:45:55.285Z</time></trkpt><trkpt lat="57.87377" lon="14.10859667"><ele>97.0</ele><time>2016-06-18T06:45:56.322Z</time></trkpt><trkpt lat="57.87377" lon="14.10859667"><ele>97.0</ele><time>2016-06-18T06:45:57.308Z</time></trkpt><trkpt lat="57.87389833" lon="14.10844"><ele>97.0</ele><time>2016-06-18T06:45:58.320Z</time></trkpt><trkpt lat="57.87389833" lon="14.10844"><ele>97.0</ele><time>2016-06-18T06:45:59.309Z</time></trkpt><trkpt lat="57.87405167" lon="14.10833167"><ele>97.0</ele><time>2016-06-18T06:46:00.316Z</time></trkpt><trkpt lat="57.87411667" lon="14.10827333"><ele>98.0</ele><time>2016-06-18T06:46:01.318Z</time></trkpt><trkpt lat="57.87411667" lon="14.10827333"><ele>98.0</ele><time>2016-06-18T06:46:02.289Z</time></trkpt><trkpt lat="57.87423333" lon="14.10815"><ele>98.0</ele><time>2016-06-18T06:46:03.301Z</time></trkpt><trkpt lat="57.87423333" lon="14.10815"><ele>98.0</ele><time>2016-06-18T06:46:04.284Z</time></trkpt><trkpt lat="57.87434" lon="14.10802333"><ele>99.0</ele><time>2016-06-18T06:46:05.307Z</time></trkpt><trkpt lat="57.87434" lon="14.10802333"><ele>99.0</ele><time>2016-06-18T06:46:06.283Z</time></trkpt><trkpt lat="57.874445" lon="14.107895"><ele>100.0</ele><time>2016-06-18T06:46:07.290Z</time></trkpt><trkpt lat="57.8745" lon="14.10783"><ele>101.0</ele><time>2016-06-18T06:46:08.297Z</time></trkpt><trkpt lat="57.8745" lon="14.10783"><ele>101.0</ele><time>2016-06-18T06:46:09.282Z</time></trkpt><trkpt lat="57.8746" lon="14.1077"><ele>101.0</ele><time>2016-06-18T06:46:10.289Z</time></trkpt><trkpt lat="57.8746" lon="14.1077"><ele>101.0</ele><time>2016-06-18T06:46:11.305Z</time></trkpt><trkpt lat="57.87469333" lon="14.10758333"><ele>102.0</ele><time>2016-06-18T06:46:12.287Z</time></trkpt><trkpt lat="57.87469333" lon="14.10758333"><ele>102.0</ele><time>2016-06-18T06:46:13.314Z</time></trkpt><trkpt lat="57.874755" lon="14.10750333"><ele>102.0</ele><time>2016-06-18T06:46:14.321Z</time></trkpt><trkpt lat="57.874755" lon="14.10750333"><ele>102.0</ele><time>2016-06-18T06:46:15.309Z</time></trkpt><trkpt lat="57.874805" lon="14.10743833"><ele>104.0</ele><time>2016-06-18T06:46:16.289Z</time></trkpt><trkpt lat="57.874805" lon="14.10743833"><ele>104.0</ele><time>2016-06-18T06:46:17.295Z</time></trkpt><trkpt lat="57.87486" lon="14.10736667"><ele>106.0</ele><time>2016-06-18T06:46:18.302Z</time></trkpt><trkpt lat="57.87486" lon="14.10736667"><ele>106.0</ele><time>2016-06-18T06:46:19.284Z</time></trkpt><trkpt lat="57.874925" lon="14.10727667"><ele>106.0</ele><time>2016-06-18T06:46:20.286Z</time></trkpt><trkpt lat="57.874925" lon="14.10727667"><ele>106.0</ele><time>2016-06-18T06:46:21.317Z</time></trkpt><trkpt lat="57.875" lon="14.10716167"><ele>107.0</ele><time>2016-06-18T06:46:22.284Z</time></trkpt><trkpt lat="57.87504333" lon="14.10709833"><ele>107.0</ele><time>2016-06-18T06:46:23.315Z</time></trkpt><trkpt lat="57.87504333" lon="14.10709833"><ele>107.0</ele><time>2016-06-18T06:46:24.299Z</time></trkpt><trkpt lat="57.87514" lon="14.10696667"><ele>107.0</ele><time>2016-06-18T06:46:25.317Z</time></trkpt><trkpt lat="57.87518167" lon="14.10690167"><ele>107.0</ele><time>2016-06-18T06:46:26.303Z</time></trkpt><trkpt lat="57.87518167" lon="14.10690167"><ele>107.0</ele><time>2016-06-18T06:46:27.284Z</time></trkpt><trkpt lat="57.87528167" lon="14.106765"><ele>107.0</ele><time>2016-06-18T06:46:28.308Z</time></trkpt><trkpt lat="57.87528167" lon="14.106765"><ele>107.0</ele><time>2016-06-18T06:46:29.307Z</time></trkpt><trkpt lat="57.87540667" lon="14.106605"><ele>107.0</ele><time>2016-06-18T06:46:30.314Z</time></trkpt><trkpt lat="57.87547333" lon="14.106525"><ele>107.0</ele><time>2016-06-18T06:46:31.312Z</time></trkpt><trkpt lat="57.87547333" lon="14.106525"><ele>107.0</ele><time>2016-06-18T06:46:32.312Z</time></trkpt><trkpt lat="57.87559667" lon="14.106365"><ele>107.0</ele><time>2016-06-18T06:46:33.319Z</time></trkpt><trkpt lat="57.87559667" lon="14.106365"><ele>107.0</ele><time>2016-06-18T06:46:34.300Z</time></trkpt><trkpt lat="57.87572" lon="14.10620833"><ele>107.0</ele><time>2016-06-18T06:46:35.305Z</time></trkpt><trkpt lat="57.87572" lon="14.10620833"><ele>107.0</ele><time>2016-06-18T06:46:36.299Z</time></trkpt><trkpt lat="57.87583833" lon="14.10607"><ele>107.0</ele><time>2016-06-18T06:46:37.314Z</time></trkpt><trkpt lat="57.87589667" lon="14.10601"><ele>107.0</ele><time>2016-06-18T06:46:38.290Z</time></trkpt><trkpt lat="57.87589667" lon="14.10601"><ele>107.0</ele><time>2016-06-18T06:46:39.298Z</time></trkpt><trkpt lat="57.875985" lon="14.10591167"><ele>107.0</ele><time>2016-06-18T06:46:40.307Z</time></trkpt><trkpt lat="57.87602667" lon="14.10587833"><ele>107.0</ele><time>2016-06-18T06:46:41.312Z</time></trkpt><trkpt lat="57.87602667" lon="14.10587833"><ele>107.0</ele><time>2016-06-18T06:46:42.314Z</time></trkpt><trkpt lat="57.876115" lon="14.10579333"><ele>107.0</ele><time>2016-06-18T06:46:43.321Z</time></trkpt><trkpt lat="57.87616333" lon="14.10573833"><ele>107.0</ele><time>2016-06-18T06:46:44.288Z</time></trkpt><trkpt lat="57.87616333" lon="14.10573833"><ele>107.0</ele><time>2016-06-18T06:46:45.291Z</time></trkpt><trkpt lat="57.87627333" lon="14.10561833"><ele>108.0</ele><time>2016-06-18T06:46:46.298Z</time></trkpt><trkpt lat="57.87627333" lon="14.10561833"><ele>108.0</ele><time>2016-06-18T06:46:47.320Z</time></trkpt><trkpt lat="57.87637667" lon="14.10549167"><ele>109.0</ele><time>2016-06-18T06:46:48.294Z</time></trkpt><trkpt lat="57.87637667" lon="14.10549167"><ele>109.0</ele><time>2016-06-18T06:46:49.300Z</time></trkpt><trkpt lat="57.87648667" lon="14.105395"><ele>109.0</ele><time>2016-06-18T06:46:50.307Z</time></trkpt><trkpt lat="57.87648667" lon="14.105395"><ele>109.0</ele><time>2016-06-18T06:46:51.295Z</time></trkpt><trkpt lat="57.87660167" lon="14.10530333"><ele>109.0</ele><time>2016-06-18T06:46:52.320Z</time></trkpt><trkpt lat="57.87660167" lon="14.10530333"><ele>109.0</ele><time>2016-06-18T06:46:53.317Z</time></trkpt><trkpt lat="57.87672667" lon="14.10521333"><ele>109.0</ele><time>2016-06-18T06:46:54.284Z</time></trkpt><trkpt lat="57.87672667" lon="14.10521333"><ele>109.0</ele><time>2016-06-18T06:46:55.308Z</time></trkpt><trkpt lat="57.87685333" lon="14.105135"><ele>110.0</ele><time>2016-06-18T06:46:56.308Z</time></trkpt><trkpt lat="57.87685333" lon="14.105135"><ele>110.0</ele><time>2016-06-18T06:46:57.291Z</time></trkpt><trkpt lat="57.87698167" lon="14.10506"><ele>110.0</ele><time>2016-06-18T06:46:58.298Z</time></trkpt><trkpt lat="57.87704833" lon="14.10502333"><ele>110.0</ele><time>2016-06-18T06:46:59.296Z</time></trkpt><trkpt lat="57.87704833" lon="14.10502333"><ele>110.0</ele><time>2016-06-18T06:47:00.302Z</time></trkpt><trkpt lat="57.87718" lon="14.10496"><ele>110.0</ele><time>2016-06-18T06:47:01.310Z</time></trkpt><trkpt lat="57.87724667" lon="14.10492667"><ele>110.0</ele><time>2016-06-18T06:47:02.292Z</time></trkpt><trkpt lat="57.87724667" lon="14.10492667"><ele>110.0</ele><time>2016-06-18T06:47:03.290Z</time></trkpt><trkpt lat="57.877375" lon="14.10487667"><ele>110.0</ele><time>2016-06-18T06:47:04.297Z</time></trkpt><trkpt lat="57.877375" lon="14.10487667"><ele>110.0</ele><time>2016-06-18T06:47:05.319Z</time></trkpt><trkpt lat="57.87749833" lon="14.10482667"><ele>111.0</ele><time>2016-06-18T06:47:06.314Z</time></trkpt><trkpt lat="57.87749833" lon="14.10482667"><ele>111.0</ele><time>2016-06-18T06:47:07.282Z</time></trkpt><trkpt lat="57.87761667" lon="14.104815"><ele>111.0</ele><time>2016-06-18T06:47:08.289Z</time></trkpt><trkpt lat="57.87761667" lon="14.104815"><ele>111.0</ele><time>2016-06-18T06:47:09.312Z</time></trkpt><trkpt lat="57.87773" lon="14.10488"><ele>111.0</ele><time>2016-06-18T06:47:10.316Z</time></trkpt><trkpt lat="57.87773" lon="14.10488"><ele>111.0</ele><time>2016-06-18T06:47:11.309Z</time></trkpt><trkpt lat="57.877845" lon="14.10497167"><ele>111.0</ele><time>2016-06-18T06:47:12.312Z</time></trkpt><trkpt lat="57.877845" lon="14.10497167"><ele>111.0</ele><time>2016-06-18T06:47:13.295Z</time></trkpt><trkpt lat="57.87797667" lon="14.10503333"><ele>110.0</ele><time>2016-06-18T06:47:14.302Z</time></trkpt><trkpt lat="57.87797667" lon="14.10503333"><ele>110.0</ele><time>2016-06-18T06:47:15.285Z</time></trkpt><trkpt lat="57.878115" lon="14.10500667"><ele>110.0</ele><time>2016-06-18T06:47:16.283Z</time></trkpt><trkpt lat="57.878115" lon="14.10500667"><ele>110.0</ele><time>2016-06-18T06:47:17.299Z</time></trkpt><trkpt lat="57.878245" lon="14.104935"><ele>109.0</ele><time>2016-06-18T06:47:18.312Z</time></trkpt><trkpt lat="57.878245" lon="14.104935"><ele>109.0</ele><time>2016-06-18T06:47:19.295Z</time></trkpt><trkpt lat="57.87838833" lon="14.104915"><ele>110.0</ele><time>2016-06-18T06:47:20.324Z</time></trkpt><trkpt lat="57.87838833" lon="14.104915"><ele>110.0</ele><time>2016-06-18T06:47:21.290Z</time></trkpt><trkpt lat="57.878535" lon="14.104935"><ele>110.0</ele><time>2016-06-18T06:47:22.297Z</time></trkpt><trkpt lat="57.87861" lon="14.10495333"><ele>110.0</ele><time>2016-06-18T06:47:23.283Z</time></trkpt><trkpt lat="57.878685" lon="14.10496833"><ele>110.0</ele><time>2016-06-18T06:47:24.308Z</time></trkpt><trkpt lat="57.878685" lon="14.10496833"><ele>110.0</ele><time>2016-06-18T06:47:25.282Z</time></trkpt><trkpt lat="57.878835" lon="14.10499833"><ele>109.0</ele><time>2016-06-18T06:47:26.288Z</time></trkpt><trkpt lat="57.878835" lon="14.10499833"><ele>109.0</ele><time>2016-06-18T06:47:27.312Z</time></trkpt><trkpt lat="57.87898333" lon="14.10502667"><ele>109.0</ele><time>2016-06-18T06:47:28.301Z</time></trkpt><trkpt lat="57.87898333" lon="14.10502667"><ele>109.0</ele><time>2016-06-18T06:47:29.308Z</time></trkpt><trkpt lat="57.87913167" lon="14.10506167"><ele>109.0</ele><time>2016-06-18T06:47:30.325Z</time></trkpt><trkpt lat="57.87913167" lon="14.10506167"><ele>109.0</ele><time>2016-06-18T06:47:31.310Z</time></trkpt><trkpt lat="57.87929333" lon="14.10510333"><ele>107.0</ele><time>2016-06-18T06:47:32.318Z</time></trkpt><trkpt lat="57.87929333" lon="14.10510333"><ele>107.0</ele><time>2016-06-18T06:47:33.302Z</time></trkpt><trkpt lat="57.879485" lon="14.10514833"><ele>106.0</ele><time>2016-06-18T06:47:34.317Z</time></trkpt><trkpt lat="57.879485" lon="14.10514833"><ele>106.0</ele><time>2016-06-18T06:47:35.319Z</time></trkpt><trkpt lat="57.87968" lon="14.105195"><ele>105.0</ele><time>2016-06-18T06:47:36.285Z</time></trkpt><trkpt lat="57.87977167" lon="14.10521667"><ele>104.0</ele><time>2016-06-18T06:47:37.288Z</time></trkpt><trkpt lat="57.879875" lon="14.10524167"><ele>104.0</ele><time>2016-06-18T06:47:38.282Z</time></trkpt><trkpt lat="57.879875" lon="14.10524167"><ele>104.0</ele><time>2016-06-18T06:47:39.309Z</time></trkpt><trkpt lat="57.880085" lon="14.105265"><ele>104.0</ele><time>2016-06-18T06:47:40.308Z</time></trkpt><trkpt lat="57.880085" lon="14.105265"><ele>104.0</ele><time>2016-06-18T06:47:41.289Z</time></trkpt><trkpt lat="57.88027167" lon="14.10523667"><ele>105.0</ele><time>2016-06-18T06:47:42.295Z</time></trkpt><trkpt lat="57.88035333" lon="14.105205"><ele>105.0</ele><time>2016-06-18T06:47:43.319Z</time></trkpt><trkpt lat="57.88042833" lon="14.10517667"><ele>106.0</ele><time>2016-06-18T06:47:44.302Z</time></trkpt><trkpt lat="57.88042833" lon="14.10517667"><ele>106.0</ele><time>2016-06-18T06:47:45.286Z</time></trkpt><trkpt lat="57.88058333" lon="14.10515167"><ele>107.0</ele><time>2016-06-18T06:47:46.308Z</time></trkpt><trkpt lat="57.88058333" lon="14.10515167"><ele>107.0</ele><time>2016-06-18T06:47:47.286Z</time></trkpt><trkpt lat="57.880735" lon="14.10512333"><ele>109.0</ele><time>2016-06-18T06:47:48.294Z</time></trkpt><trkpt lat="57.880735" lon="14.10512333"><ele>109.0</ele><time>2016-06-18T06:47:49.317Z</time></trkpt><trkpt lat="57.88087667" lon="14.10509333"><ele>109.0</ele><time>2016-06-18T06:47:50.313Z</time></trkpt><trkpt lat="57.88087667" lon="14.10509333"><ele>109.0</ele><time>2016-06-18T06:47:51.313Z</time></trkpt><trkpt lat="57.88102833" lon="14.10507167"><ele>110.0</ele><time>2016-06-18T06:47:52.320Z</time></trkpt><trkpt lat="57.88102833" lon="14.10507167"><ele>110.0</ele><time>2016-06-18T06:47:53.308Z</time></trkpt><trkpt lat="57.88117" lon="14.10504167"><ele>110.0</ele><time>2016-06-18T06:47:54.295Z</time></trkpt><trkpt lat="57.88117" lon="14.10504167"><ele>110.0</ele><time>2016-06-18T06:47:55.312Z</time></trkpt><trkpt lat="57.88130167" lon="14.10502"><ele>111.0</ele><time>2016-06-18T06:47:56.319Z</time></trkpt><trkpt lat="57.88130167" lon="14.10502"><ele>111.0</ele><time>2016-06-18T06:47:57.300Z</time></trkpt><trkpt lat="57.88142" lon="14.10499"><ele>112.0</ele><time>2016-06-18T06:47:58.314Z</time></trkpt><trkpt lat="57.88142" lon="14.10499"><ele>112.0</ele><time>2016-06-18T06:47:59.294Z</time></trkpt><trkpt lat="57.88153" lon="14.104955"><ele>112.0</ele><time>2016-06-18T06:48:00.302Z</time></trkpt><trkpt lat="57.88153" lon="14.104955"><ele>112.0</ele><time>2016-06-18T06:48:01.314Z</time></trkpt><trkpt lat="57.88165" lon="14.104915"><ele>113.0</ele><time>2016-06-18T06:48:02.317Z</time></trkpt><trkpt lat="57.88165" lon="14.104915"><ele>113.0</ele><time>2016-06-18T06:48:03.308Z</time></trkpt><trkpt lat="57.88177" lon="14.10486167"><ele>113.0</ele><time>2016-06-18T06:48:04.315Z</time></trkpt><trkpt lat="57.88177" lon="14.10486167"><ele>113.0</ele><time>2016-06-18T06:48:05.294Z</time></trkpt><trkpt lat="57.88193333" lon="14.10477167"><ele>113.0</ele><time>2016-06-18T06:48:06.311Z</time></trkpt><trkpt lat="57.88193333" lon="14.10477167"><ele>113.0</ele><time>2016-06-18T06:48:07.300Z</time></trkpt><trkpt lat="57.88210167" lon="14.10470167"><ele>114.0</ele><time>2016-06-18T06:48:08.313Z</time></trkpt><trkpt lat="57.88210167" lon="14.10470167"><ele>114.0</ele><time>2016-06-18T06:48:09.294Z</time></trkpt><trkpt lat="57.88226167" lon="14.104645"><ele>114.0</ele><time>2016-06-18T06:48:10.283Z</time></trkpt><trkpt lat="57.88226167" lon="14.104645"><ele>114.0</ele><time>2016-06-18T06:48:11.301Z</time></trkpt><trkpt lat="57.88242" lon="14.10458667"><ele>113.0</ele><time>2016-06-18T06:48:12.318Z</time></trkpt><trkpt lat="57.88249" lon="14.10454"><ele>113.0</ele><time>2016-06-18T06:48:13.302Z</time></trkpt><trkpt lat="57.88249" lon="14.10454"><ele>113.0</ele><time>2016-06-18T06:48:14.287Z</time></trkpt><trkpt lat="57.88261167" lon="14.104385"><ele>114.0</ele><time>2016-06-18T06:48:15.283Z</time></trkpt><trkpt lat="57.88261167" lon="14.104385"><ele>114.0</ele><time>2016-06-18T06:48:16.319Z</time></trkpt><trkpt lat="57.882715" lon="14.10424667"><ele>115.0</ele><time>2016-06-18T06:48:17.285Z</time></trkpt><trkpt lat="57.88276167" lon="14.10418333"><ele>116.0</ele><time>2016-06-18T06:48:18.326Z</time></trkpt><trkpt lat="57.88276167" lon="14.10418333"><ele>116.0</ele><time>2016-06-18T06:48:19.289Z</time></trkpt><trkpt lat="57.88283667" lon="14.104075"><ele>116.0</ele><time>2016-06-18T06:48:20.299Z</time></trkpt><trkpt lat="57.88287167" lon="14.104025"><ele>116.0</ele><time>2016-06-18T06:48:21.312Z</time></trkpt><trkpt lat="57.88287167" lon="14.104025"><ele>116.0</ele><time>2016-06-18T06:48:22.291Z</time></trkpt><trkpt lat="57.88294333" lon="14.10393667"><ele>116.0</ele><time>2016-06-18T06:48:23.301Z</time></trkpt><trkpt lat="57.88297667" lon="14.10389167"><ele>116.0</ele><time>2016-06-18T06:48:24.316Z</time></trkpt><trkpt lat="57.88297667" lon="14.10389167"><ele>116.0</ele><time>2016-06-18T06:48:25.299Z</time></trkpt><trkpt lat="57.88305" lon="14.103795"><ele>116.0</ele><time>2016-06-18T06:48:26.308Z</time></trkpt><trkpt lat="57.88305" lon="14.103795"><ele>116.0</ele><time>2016-06-18T06:48:27.289Z</time></trkpt><trkpt lat="57.88313" lon="14.10369167"><ele>116.0</ele><time>2016-06-18T06:48:28.318Z</time></trkpt><trkpt lat="57.883175" lon="14.10364667"><ele>117.0</ele><time>2016-06-18T06:48:29.299Z</time></trkpt><trkpt lat="57.88322333" lon="14.10361"><ele>117.0</ele><time>2016-06-18T06:48:30.284Z</time></trkpt><trkpt lat="57.88322333" lon="14.10361"><ele>117.0</ele><time>2016-06-18T06:48:31.311Z</time></trkpt><trkpt lat="57.88333" lon="14.10355833"><ele>118.0</ele><time>2016-06-18T06:48:32.318Z</time></trkpt><trkpt lat="57.88333" lon="14.10355833"><ele>118.0</ele><time>2016-06-18T06:48:33.300Z</time></trkpt><trkpt lat="57.88345833" lon="14.10351667"><ele>118.0</ele><time>2016-06-18T06:48:34.309Z</time></trkpt><trkpt lat="57.88345833" lon="14.10351667"><ele>118.0</ele><time>2016-06-18T06:48:35.311Z</time></trkpt><trkpt lat="57.88358333" lon="14.10348333"><ele>119.0</ele><time>2016-06-18T06:48:36.318Z</time></trkpt><trkpt lat="57.88358333" lon="14.10348333"><ele>119.0</ele><time>2016-06-18T06:48:37.288Z</time></trkpt><trkpt lat="57.8837" lon="14.10343833"><ele>119.0</ele><time>2016-06-18T06:48:38.298Z</time></trkpt><trkpt lat="57.8837" lon="14.10343833"><ele>119.0</ele><time>2016-06-18T06:48:39.305Z</time></trkpt><trkpt lat="57.88382" lon="14.103405"><ele>119.0</ele><time>2016-06-18T06:48:40.314Z</time></trkpt><trkpt lat="57.88388" lon="14.10339"><ele>119.0</ele><time>2016-06-18T06:48:41.322Z</time></trkpt><trkpt lat="57.88388" lon="14.10339"><ele>119.0</ele><time>2016-06-18T06:48:42.288Z</time></trkpt><trkpt lat="57.88399833" lon="14.10335833"><ele>119.0</ele><time>2016-06-18T06:48:43.296Z</time></trkpt><trkpt lat="57.88405833" lon="14.10334"><ele>119.0</ele><time>2016-06-18T06:48:44.322Z</time></trkpt><trkpt lat="57.88405833" lon="14.10334"><ele>119.0</ele><time>2016-06-18T06:48:45.288Z</time></trkpt><trkpt lat="57.88417167" lon="14.10329333"><ele>119.0</ele><time>2016-06-18T06:48:46.295Z</time></trkpt><trkpt lat="57.88422667" lon="14.10327333"><ele>119.0</ele><time>2016-06-18T06:48:47.318Z</time></trkpt><trkpt lat="57.88422667" lon="14.10327333"><ele>119.0</ele><time>2016-06-18T06:48:48.302Z</time></trkpt><trkpt lat="57.884345" lon="14.103235"><ele>120.0</ele><time>2016-06-18T06:48:49.313Z</time></trkpt><trkpt lat="57.88440833" lon="14.10321833"><ele>120.0</ele><time>2016-06-18T06:48:50.295Z</time></trkpt><trkpt lat="57.88440833" lon="14.10321833"><ele>120.0</ele><time>2016-06-18T06:48:51.309Z</time></trkpt><trkpt lat="57.88453" lon="14.10318667"><ele>120.0</ele><time>2016-06-18T06:48:52.316Z</time></trkpt><trkpt lat="57.88459" lon="14.10317333"><ele>121.0</ele><time>2016-06-18T06:48:53.301Z</time></trkpt><trkpt lat="57.88465167" lon="14.10316333"><ele>121.0</ele><time>2016-06-18T06:48:54.308Z</time></trkpt><trkpt lat="57.88465167" lon="14.10316333"><ele>121.0</ele><time>2016-06-18T06:48:55.304Z</time></trkpt><trkpt lat="57.88477333" lon="14.10313833"><ele>121.0</ele><time>2016-06-18T06:48:56.317Z</time></trkpt><trkpt lat="57.88477333" lon="14.10313833"><ele>121.0</ele><time>2016-06-18T06:48:57.299Z</time></trkpt><trkpt lat="57.88489833" lon="14.10311333"><ele>122.0</ele><time>2016-06-18T06:48:58.314Z</time></trkpt><trkpt lat="57.88489833" lon="14.10311333"><ele>122.0</ele><time>2016-06-18T06:48:59.310Z</time></trkpt><trkpt lat="57.88502333" lon="14.10309"><ele>122.0</ele><time>2016-06-18T06:49:00.324Z</time></trkpt><trkpt lat="57.88502333" lon="14.10309"><ele>122.0</ele><time>2016-06-18T06:49:01.285Z</time></trkpt><trkpt lat="57.88514167" lon="14.10307333"><ele>123.0</ele><time>2016-06-18T06:49:02.283Z</time></trkpt><trkpt lat="57.88514167" lon="14.10307333"><ele>123.0</ele><time>2016-06-18T06:49:03.296Z</time></trkpt><trkpt lat="57.88526" lon="14.10305667"><ele>123.0</ele><time>2016-06-18T06:49:04.302Z</time></trkpt><trkpt lat="57.885325" lon="14.10305"><ele>123.0</ele><time>2016-06-18T06:49:05.285Z</time></trkpt><trkpt lat="57.885325" lon="14.10305"><ele>123.0</ele><time>2016-06-18T06:49:06.311Z</time></trkpt><trkpt lat="57.88544167" lon="14.10303"><ele>124.0</ele><time>2016-06-18T06:49:07.282Z</time></trkpt><trkpt lat="57.88544167" lon="14.10303"><ele>124.0</ele><time>2016-06-18T06:49:08.315Z</time></trkpt><trkpt lat="57.88554833" lon="14.10301667"><ele>124.0</ele><time>2016-06-18T06:49:09.289Z</time></trkpt><trkpt lat="57.88554833" lon="14.10301667"><ele>124.0</ele><time>2016-06-18T06:49:10.320Z</time></trkpt><trkpt lat="57.88564667" lon="14.10301167"><ele>125.0</ele><time>2016-06-18T06:49:11.288Z</time></trkpt><trkpt lat="57.885695" lon="14.10301167"><ele>125.0</ele><time>2016-06-18T06:49:12.292Z</time></trkpt><trkpt lat="57.885695" lon="14.10301167"><ele>125.0</ele><time>2016-06-18T06:49:13.316Z</time></trkpt><trkpt lat="57.88579167" lon="14.10302"><ele>125.0</ele><time>2016-06-18T06:49:14.282Z</time></trkpt><trkpt lat="57.88579167" lon="14.10302"><ele>125.0</ele><time>2016-06-18T06:49:15.307Z</time></trkpt><trkpt lat="57.885895" lon="14.10302833"><ele>125.0</ele><time>2016-06-18T06:49:16.288Z</time></trkpt><trkpt lat="57.88595333" lon="14.103035"><ele>125.0</ele><time>2016-06-18T06:49:17.290Z</time></trkpt><trkpt lat="57.88595333" lon="14.103035"><ele>125.0</ele><time>2016-06-18T06:49:18.315Z</time></trkpt><trkpt lat="57.88606833" lon="14.10304667"><ele>126.0</ele><time>2016-06-18T06:49:19.296Z</time></trkpt><trkpt lat="57.88612667" lon="14.10305333"><ele>125.0</ele><time>2016-06-18T06:49:20.322Z</time></trkpt><trkpt lat="57.88612667" lon="14.10305333"><ele>125.0</ele><time>2016-06-18T06:49:21.312Z</time></trkpt><trkpt lat="57.88624833" lon="14.10307"><ele>125.0</ele><time>2016-06-18T06:49:22.319Z</time></trkpt><trkpt lat="57.88624833" lon="14.10307"><ele>125.0</ele><time>2016-06-18T06:49:23.291Z</time></trkpt><trkpt lat="57.886375" lon="14.10308833"><ele>123.0</ele><time>2016-06-18T06:49:24.298Z</time></trkpt><trkpt lat="57.886375" lon="14.10308833"><ele>123.0</ele><time>2016-06-18T06:49:25.294Z</time></trkpt><trkpt lat="57.88650667" lon="14.10312833"><ele>123.0</ele><time>2016-06-18T06:49:26.293Z</time></trkpt><trkpt lat="57.88650667" lon="14.10312833"><ele>123.0</ele><time>2016-06-18T06:49:27.282Z</time></trkpt><trkpt lat="57.88663667" lon="14.10326167"><ele>122.0</ele><time>2016-06-18T06:49:28.289Z</time></trkpt><trkpt lat="57.88663667" lon="14.10326167"><ele>122.0</ele><time>2016-06-18T06:49:29.314Z</time></trkpt><trkpt lat="57.88674167" lon="14.103465"><ele>122.0</ele><time>2016-06-18T06:49:30.321Z</time></trkpt><trkpt lat="57.88674167" lon="14.103465"><ele>122.0</ele><time>2016-06-18T06:49:31.309Z</time></trkpt><trkpt lat="57.88682667" lon="14.103685"><ele>122.0</ele><time>2016-06-18T06:49:32.298Z</time></trkpt><trkpt lat="57.88682667" lon="14.103685"><ele>122.0</ele><time>2016-06-18T06:49:33.282Z</time></trkpt><trkpt lat="57.88690833" lon="14.10386833"><ele>122.0</ele><time>2016-06-18T06:49:34.288Z</time></trkpt><trkpt lat="57.88690833" lon="14.10386833"><ele>122.0</ele><time>2016-06-18T06:49:35.310Z</time></trkpt><trkpt lat="57.88702167" lon="14.10388833"><ele>122.0</ele><time>2016-06-18T06:49:36.317Z</time></trkpt><trkpt lat="57.88702167" lon="14.10388833"><ele>122.0</ele><time>2016-06-18T06:49:37.299Z</time></trkpt><trkpt lat="57.88713833" lon="14.10380333"><ele>122.0</ele><time>2016-06-18T06:49:38.318Z</time></trkpt><trkpt lat="57.88713833" lon="14.10380333"><ele>122.0</ele><time>2016-06-18T06:49:39.302Z</time></trkpt><trkpt lat="57.887265" lon="14.10379167"><ele>122.0</ele><time>2016-06-18T06:49:40.314Z</time></trkpt><trkpt lat="57.887265" lon="14.10379167"><ele>122.0</ele><time>2016-06-18T06:49:41.321Z</time></trkpt><trkpt lat="57.88738667" lon="14.10383833"><ele>123.0</ele><time>2016-06-18T06:49:42.288Z</time></trkpt><trkpt lat="57.88738667" lon="14.10383833"><ele>123.0</ele><time>2016-06-18T06:49:43.313Z</time></trkpt><trkpt lat="57.88750167" lon="14.103855"><ele>123.0</ele><time>2016-06-18T06:49:44.318Z</time></trkpt><trkpt lat="57.88750167" lon="14.103855"><ele>123.0</ele><time>2016-06-18T06:49:45.317Z</time></trkpt><trkpt lat="57.88760833" lon="14.10385167"><ele>124.0</ele><time>2016-06-18T06:49:46.284Z</time></trkpt><trkpt lat="57.88760833" lon="14.10385167"><ele>124.0</ele><time>2016-06-18T06:49:47.310Z</time></trkpt><trkpt lat="57.88772" lon="14.10384833"><ele>125.0</ele><time>2016-06-18T06:49:48.303Z</time></trkpt><trkpt lat="57.88772" lon="14.10384833"><ele>125.0</ele><time>2016-06-18T06:49:49.284Z</time></trkpt><trkpt lat="57.887835" lon="14.10384333"><ele>125.0</ele><time>2016-06-18T06:49:50.297Z</time></trkpt><trkpt lat="57.887835" lon="14.10384333"><ele>125.0</ele><time>2016-06-18T06:49:51.297Z</time></trkpt><trkpt lat="57.88793833" lon="14.10382833"><ele>126.0</ele><time>2016-06-18T06:49:52.313Z</time></trkpt><trkpt lat="57.88793833" lon="14.10382833"><ele>126.0</ele><time>2016-06-18T06:49:53.300Z</time></trkpt><trkpt lat="57.88803333" lon="14.10381833"><ele>127.0</ele><time>2016-06-18T06:49:54.310Z</time></trkpt><trkpt lat="57.88807667" lon="14.10382333"><ele>127.0</ele><time>2016-06-18T06:49:55.299Z</time></trkpt><trkpt lat="57.88812" lon="14.10383833"><ele>127.0</ele><time>2016-06-18T06:49:56.296Z</time></trkpt><trkpt lat="57.88812" lon="14.10383833"><ele>127.0</ele><time>2016-06-18T06:49:57.319Z</time></trkpt><trkpt lat="57.88820167" lon="14.10388667"><ele>128.0</ele><time>2016-06-18T06:49:58.288Z</time></trkpt><trkpt lat="57.88824167" lon="14.10391833"><ele>129.0</ele><time>2016-06-18T06:49:59.300Z</time></trkpt><trkpt lat="57.88824167" lon="14.10391833"><ele>129.0</ele><time>2016-06-18T06:50:00.284Z</time></trkpt><trkpt lat="57.88831833" lon="14.10399333"><ele>129.0</ele><time>2016-06-18T06:50:01.303Z</time></trkpt><trkpt lat="57.888355" lon="14.10402667"><ele>130.0</ele><time>2016-06-18T06:50:02.286Z</time></trkpt><trkpt lat="57.888355" lon="14.10402667"><ele>130.0</ele><time>2016-06-18T06:50:03.292Z</time></trkpt><trkpt lat="57.88842833" lon="14.10408"><ele>130.0</ele><time>2016-06-18T06:50:04.297Z</time></trkpt><trkpt lat="57.88846667" lon="14.10409333"><ele>131.0</ele><time>2016-06-18T06:50:05.320Z</time></trkpt><trkpt lat="57.88846667" lon="14.10409333"><ele>131.0</ele><time>2016-06-18T06:50:06.303Z</time></trkpt><trkpt lat="57.88854" lon="14.104055"><ele>131.0</ele><time>2016-06-18T06:50:07.312Z</time></trkpt><trkpt lat="57.888575" lon="14.10402"><ele>131.0</ele><time>2016-06-18T06:50:08.315Z</time></trkpt><trkpt lat="57.888575" lon="14.10402"><ele>131.0</ele><time>2016-06-18T06:50:09.313Z</time></trkpt><trkpt lat="57.88864333" lon="14.10394167"><ele>131.0</ele><time>2016-06-18T06:50:10.320Z</time></trkpt><trkpt lat="57.88864333" lon="14.10394167"><ele>131.0</ele><time>2016-06-18T06:50:11.289Z</time></trkpt><trkpt lat="57.888715" lon="14.10384833"><ele>131.0</ele><time>2016-06-18T06:50:12.288Z</time></trkpt><trkpt lat="57.88876167" lon="14.10381167"><ele>131.0</ele><time>2016-06-18T06:50:13.314Z</time></trkpt><trkpt lat="57.88876167" lon="14.10381167"><ele>131.0</ele><time>2016-06-18T06:50:14.296Z</time></trkpt><trkpt lat="57.88887" lon="14.10377833"><ele>132.0</ele><time>2016-06-18T06:50:15.303Z</time></trkpt><trkpt lat="57.88892833" lon="14.10378667"><ele>132.0</ele><time>2016-06-18T06:50:16.309Z</time></trkpt><trkpt lat="57.88892833" lon="14.10378667"><ele>132.0</ele><time>2016-06-18T06:50:17.314Z</time></trkpt><trkpt lat="57.889045" lon="14.10382667"><ele>133.0</ele><time>2016-06-18T06:50:18.321Z</time></trkpt><trkpt lat="57.8891" lon="14.10384833"><ele>133.0</ele><time>2016-06-18T06:50:19.312Z</time></trkpt><trkpt lat="57.88916" lon="14.10386833"><ele>133.0</ele><time>2016-06-18T06:50:20.289Z</time></trkpt><trkpt lat="57.88916" lon="14.10386833"><ele>133.0</ele><time>2016-06-18T06:50:21.312Z</time></trkpt><trkpt lat="57.88928" lon="14.10390833"><ele>134.0</ele><time>2016-06-18T06:50:22.293Z</time></trkpt><trkpt lat="57.88933833" lon="14.103935"><ele>134.0</ele><time>2016-06-18T06:50:23.316Z</time></trkpt><trkpt lat="57.88939833" lon="14.10396"><ele>134.0</ele><time>2016-06-18T06:50:24.297Z</time></trkpt><trkpt lat="57.88939833" lon="14.10396"><ele>134.0</ele><time>2016-06-18T06:50:25.318Z</time></trkpt><trkpt lat="57.88952333" lon="14.10401"><ele>135.0</ele><time>2016-06-18T06:50:26.284Z</time></trkpt><trkpt lat="57.88959167" lon="14.10403833"><ele>134.0</ele><time>2016-06-18T06:50:27.312Z</time></trkpt><trkpt lat="57.88959167" lon="14.10403833"><ele>134.0</ele><time>2016-06-18T06:50:28.282Z</time></trkpt><trkpt lat="57.88971833" lon="14.10408333"><ele>134.0</ele><time>2016-06-18T06:50:29.289Z</time></trkpt><trkpt lat="57.88978333" lon="14.10411167"><ele>134.0</ele><time>2016-06-18T06:50:30.314Z</time></trkpt><trkpt lat="57.88978333" lon="14.10411167"><ele>134.0</ele><time>2016-06-18T06:50:31.303Z</time></trkpt><trkpt lat="57.88991333" lon="14.10416167"><ele>134.0</ele><time>2016-06-18T06:50:32.309Z</time></trkpt><trkpt lat="57.88991333" lon="14.10416167"><ele>134.0</ele><time>2016-06-18T06:50:33.293Z</time></trkpt><trkpt lat="57.89003667" lon="14.104205"><ele>134.0</ele><time>2016-06-18T06:50:34.308Z</time></trkpt><trkpt lat="57.89003667" lon="14.104205"><ele>134.0</ele><time>2016-06-18T06:50:35.313Z</time></trkpt><trkpt lat="57.89015833" lon="14.10423833"><ele>134.0</ele><time>2016-06-18T06:50:36.321Z</time></trkpt><trkpt lat="57.89015833" lon="14.10423833"><ele>134.0</ele><time>2016-06-18T06:50:37.303Z</time></trkpt><trkpt lat="57.890285" lon="14.10428167"><ele>134.0</ele><time>2016-06-18T06:50:38.301Z</time></trkpt><trkpt lat="57.890285" lon="14.10428167"><ele>134.0</ele><time>2016-06-18T06:50:39.301Z</time></trkpt><trkpt lat="57.890415" lon="14.10431333"><ele>134.0</ele><time>2016-06-18T06:50:40.313Z</time></trkpt><trkpt lat="57.89048333" lon="14.10433"><ele>134.0</ele><time>2016-06-18T06:50:41.319Z</time></trkpt><trkpt lat="57.89048333" lon="14.10433"><ele>134.0</ele><time>2016-06-18T06:50:42.290Z</time></trkpt><trkpt lat="57.89062167" lon="14.10437667"><ele>134.0</ele><time>2016-06-18T06:50:43.299Z</time></trkpt><trkpt lat="57.89069167" lon="14.10440167"><ele>134.0</ele><time>2016-06-18T06:50:44.289Z</time></trkpt><trkpt lat="57.89069167" lon="14.10440167"><ele>134.0</ele><time>2016-06-18T06:50:45.306Z</time></trkpt><trkpt lat="57.890825" lon="14.10443667"><ele>134.0</ele><time>2016-06-18T06:50:46.313Z</time></trkpt><trkpt lat="57.89089167" lon="14.10444833"><ele>134.0</ele><time>2016-06-18T06:50:47.318Z</time></trkpt><trkpt lat="57.89089167" lon="14.10444833"><ele>134.0</ele><time>2016-06-18T06:50:48.316Z</time></trkpt><trkpt lat="57.89102" lon="14.10447667"><ele>135.0</ele><time>2016-06-18T06:50:49.283Z</time></trkpt><trkpt lat="57.89108167" lon="14.10449333"><ele>135.0</ele><time>2016-06-18T06:50:50.320Z</time></trkpt><trkpt lat="57.89108167" lon="14.10449333"><ele>135.0</ele><time>2016-06-18T06:50:51.304Z</time></trkpt><trkpt lat="57.89120667" lon="14.10452667"><ele>135.0</ele><time>2016-06-18T06:50:52.316Z</time></trkpt><trkpt lat="57.89120667" lon="14.10452667"><ele>135.0</ele><time>2016-06-18T06:50:53.298Z</time></trkpt><trkpt lat="57.89133333" lon="14.10456"><ele>136.0</ele><time>2016-06-18T06:50:54.312Z</time></trkpt><trkpt lat="57.89133333" lon="14.10456"><ele>136.0</ele><time>2016-06-18T06:50:55.310Z</time></trkpt><trkpt lat="57.89146" lon="14.1046"><ele>136.0</ele><time>2016-06-18T06:50:56.319Z</time></trkpt><trkpt lat="57.89146" lon="14.1046"><ele>136.0</ele><time>2016-06-18T06:50:57.300Z</time></trkpt><trkpt lat="57.891585" lon="14.10462833"><ele>137.0</ele><time>2016-06-18T06:50:58.305Z</time></trkpt><trkpt lat="57.891585" lon="14.10462833"><ele>137.0</ele><time>2016-06-18T06:50:59.300Z</time></trkpt><trkpt lat="57.89171333" lon="14.10467167"><ele>137.0</ele><time>2016-06-18T06:51:00.315Z</time></trkpt><trkpt lat="57.89171333" lon="14.10467167"><ele>137.0</ele><time>2016-06-18T06:51:01.298Z</time></trkpt><trkpt lat="57.891835" lon="14.10471"><ele>137.0</ele><time>2016-06-18T06:51:02.313Z</time></trkpt><trkpt lat="57.891835" lon="14.10471"><ele>137.0</ele><time>2016-06-18T06:51:03.302Z</time></trkpt><trkpt lat="57.89196167" lon="14.10475167"><ele>138.0</ele><time>2016-06-18T06:51:04.312Z</time></trkpt><trkpt lat="57.892025" lon="14.10477167"><ele>138.0</ele><time>2016-06-18T06:51:05.298Z</time></trkpt><trkpt lat="57.892025" lon="14.10477167"><ele>138.0</ele><time>2016-06-18T06:51:06.318Z</time></trkpt><trkpt lat="57.89215333" lon="14.10480833"><ele>139.0</ele><time>2016-06-18T06:51:07.285Z</time></trkpt><trkpt lat="57.89221333" lon="14.10482667"><ele>139.0</ele><time>2016-06-18T06:51:08.290Z</time></trkpt><trkpt lat="57.89221333" lon="14.10482667"><ele>139.0</ele><time>2016-06-18T06:51:09.319Z</time></trkpt><trkpt lat="57.89233833" lon="14.10486333"><ele>140.0</ele><time>2016-06-18T06:51:10.286Z</time></trkpt><trkpt lat="57.89233833" lon="14.10486333"><ele>140.0</ele><time>2016-06-18T06:51:11.320Z</time></trkpt><trkpt lat="57.89246" lon="14.104905"><ele>140.0</ele><time>2016-06-18T06:51:12.305Z</time></trkpt><trkpt lat="57.89252333" lon="14.10492"><ele>140.0</ele><time>2016-06-18T06:51:13.297Z</time></trkpt><trkpt lat="57.892585" lon="14.104935"><ele>140.0</ele><time>2016-06-18T06:51:14.282Z</time></trkpt><trkpt lat="57.892585" lon="14.104935"><ele>140.0</ele><time>2016-06-18T06:51:15.301Z</time></trkpt><trkpt lat="57.89271167" lon="14.10496833"><ele>140.0</ele><time>2016-06-18T06:51:16.315Z</time></trkpt><trkpt lat="57.89271167" lon="14.10496833"><ele>140.0</ele><time>2016-06-18T06:51:17.310Z</time></trkpt><trkpt lat="57.89284" lon="14.10501"><ele>141.0</ele><time>2016-06-18T06:51:18.318Z</time></trkpt><trkpt lat="57.89284" lon="14.10501"><ele>141.0</ele><time>2016-06-18T06:51:19.300Z</time></trkpt><trkpt lat="57.89296667" lon="14.10505"><ele>141.0</ele><time>2016-06-18T06:51:20.317Z</time></trkpt><trkpt lat="57.89296667" lon="14.10505"><ele>141.0</ele><time>2016-06-18T06:51:21.311Z</time></trkpt><trkpt lat="57.893085" lon="14.10508333"><ele>141.0</ele><time>2016-06-18T06:51:22.319Z</time></trkpt><trkpt lat="57.89314" lon="14.105095"><ele>141.0</ele><time>2016-06-18T06:51:23.317Z</time></trkpt><trkpt lat="57.89314" lon="14.105095"><ele>141.0</ele><time>2016-06-18T06:51:24.312Z</time></trkpt><trkpt lat="57.89325333" lon="14.10512"><ele>141.0</ele><time>2016-06-18T06:51:25.319Z</time></trkpt><trkpt lat="57.89331" lon="14.105135"><ele>141.0</ele><time>2016-06-18T06:51:26.289Z</time></trkpt><trkpt lat="57.89331" lon="14.105135"><ele>141.0</ele><time>2016-06-18T06:51:27.289Z</time></trkpt><trkpt lat="57.89342333" lon="14.10516167"><ele>141.0</ele><time>2016-06-18T06:51:28.297Z</time></trkpt><trkpt lat="57.89342333" lon="14.10516167"><ele>141.0</ele><time>2016-06-18T06:51:29.321Z</time></trkpt><trkpt lat="57.89354333" lon="14.10518"><ele>141.0</ele><time>2016-06-18T06:51:30.317Z</time></trkpt><trkpt lat="57.89354333" lon="14.10518"><ele>141.0</ele><time>2016-06-18T06:51:31.312Z</time></trkpt><trkpt lat="57.89366333" lon="14.10520167"><ele>142.0</ele><time>2016-06-18T06:51:32.320Z</time></trkpt><trkpt lat="57.89366333" lon="14.10520167"><ele>142.0</ele><time>2016-06-18T06:51:33.304Z</time></trkpt><trkpt lat="57.89378667" lon="14.105225"><ele>142.0</ele><time>2016-06-18T06:51:34.305Z</time></trkpt><trkpt lat="57.89378667" lon="14.105225"><ele>142.0</ele><time>2016-06-18T06:51:35.286Z</time></trkpt><trkpt lat="57.89391" lon="14.105245"><ele>143.0</ele><time>2016-06-18T06:51:36.292Z</time></trkpt><trkpt lat="57.89391" lon="14.105245"><ele>143.0</ele><time>2016-06-18T06:51:37.315Z</time></trkpt><trkpt lat="57.89403167" lon="14.10526833"><ele>143.0</ele><time>2016-06-18T06:51:38.302Z</time></trkpt><trkpt lat="57.89403167" lon="14.10526833"><ele>143.0</ele><time>2016-06-18T06:51:39.293Z</time></trkpt><trkpt lat="57.89415333" lon="14.10529167"><ele>143.0</ele><time>2016-06-18T06:51:40.299Z</time></trkpt><trkpt lat="57.89421667" lon="14.105305"><ele>143.0</ele><time>2016-06-18T06:51:41.321Z</time></trkpt><trkpt lat="57.89421667" lon="14.105305"><ele>143.0</ele><time>2016-06-18T06:51:42.301Z</time></trkpt><trkpt lat="57.894345" lon="14.10533667"><ele>143.0</ele><time>2016-06-18T06:51:43.320Z</time></trkpt><trkpt lat="57.89441333" lon="14.10535167"><ele>143.0</ele><time>2016-06-18T06:51:44.298Z</time></trkpt><trkpt lat="57.89441333" lon="14.10535167"><ele>143.0</ele><time>2016-06-18T06:51:45.300Z</time></trkpt><trkpt lat="57.89454833" lon="14.105375"><ele>142.0</ele><time>2016-06-18T06:51:46.307Z</time></trkpt><trkpt lat="57.894615" lon="14.10538333"><ele>142.0</ele><time>2016-06-18T06:51:47.315Z</time></trkpt><trkpt lat="57.894615" lon="14.10538333"><ele>142.0</ele><time>2016-06-18T06:51:48.298Z</time></trkpt><trkpt lat="57.89474333" lon="14.10540333"><ele>142.0</ele><time>2016-06-18T06:51:49.310Z</time></trkpt><trkpt lat="57.8948" lon="14.10540833"><ele>142.0</ele><time>2016-06-18T06:51:50.301Z</time></trkpt><trkpt lat="57.8948" lon="14.10540833"><ele>142.0</ele><time>2016-06-18T06:51:51.284Z</time></trkpt><trkpt lat="57.894905" lon="14.10542333"><ele>142.0</ele><time>2016-06-18T06:51:52.304Z</time></trkpt><trkpt lat="57.89495167" lon="14.10542667"><ele>142.0</ele><time>2016-06-18T06:51:53.321Z</time></trkpt><trkpt lat="57.89495167" lon="14.10542667"><ele>142.0</ele><time>2016-06-18T06:51:54.303Z</time></trkpt><trkpt lat="57.89506" lon="14.10544333"><ele>143.0</ele><time>2016-06-18T06:51:55.324Z</time></trkpt><trkpt lat="57.89512167" lon="14.10545"><ele>142.0</ele><time>2016-06-18T06:51:56.318Z</time></trkpt><trkpt lat="57.89512167" lon="14.10545"><ele>142.0</ele><time>2016-06-18T06:51:57.301Z</time></trkpt><trkpt lat="57.89523167" lon="14.10546"><ele>143.0</ele><time>2016-06-18T06:51:58.312Z</time></trkpt><trkpt lat="57.89528833" lon="14.10546"><ele>144.0</ele><time>2016-06-18T06:51:59.308Z</time></trkpt><trkpt lat="57.89528833" lon="14.10546"><ele>144.0</ele><time>2016-06-18T06:52:00.291Z</time></trkpt><trkpt lat="57.89541333" lon="14.10548167"><ele>144.0</ele><time>2016-06-18T06:52:01.311Z</time></trkpt><trkpt lat="57.89547667" lon="14.10549167"><ele>145.0</ele><time>2016-06-18T06:52:02.288Z</time></trkpt><trkpt lat="57.89553833" lon="14.10549667"><ele>146.0</ele><time>2016-06-18T06:52:03.288Z</time></trkpt><trkpt lat="57.89553833" lon="14.10549667"><ele>146.0</ele><time>2016-06-18T06:52:04.313Z</time></trkpt><trkpt lat="57.89565667" lon="14.10550333"><ele>148.0</ele><time>2016-06-18T06:52:05.320Z</time></trkpt><trkpt lat="57.89565667" lon="14.10550333"><ele>148.0</ele><time>2016-06-18T06:52:06.304Z</time></trkpt><trkpt lat="57.89576833" lon="14.10551833"><ele>149.0</ele><time>2016-06-18T06:52:07.293Z</time></trkpt><trkpt lat="57.895825" lon="14.105525"><ele>149.0</ele><time>2016-06-18T06:52:08.316Z</time></trkpt><trkpt lat="57.895825" lon="14.105525"><ele>149.0</ele><time>2016-06-18T06:52:09.296Z</time></trkpt><trkpt lat="57.895935" lon="14.10553333"><ele>149.0</ele><time>2016-06-18T06:52:10.307Z</time></trkpt><trkpt lat="57.895935" lon="14.10553333"><ele>149.0</ele><time>2016-06-18T06:52:11.320Z</time></trkpt><trkpt lat="57.89604333" lon="14.10554333"><ele>150.0</ele><time>2016-06-18T06:52:12.304Z</time></trkpt><trkpt lat="57.89609833" lon="14.10554833"><ele>150.0</ele><time>2016-06-18T06:52:13.313Z</time></trkpt><trkpt lat="57.89609833" lon="14.10554833"><ele>150.0</ele><time>2016-06-18T06:52:14.295Z</time></trkpt><trkpt lat="57.89620667" lon="14.10555667"><ele>150.0</ele><time>2016-06-18T06:52:15.308Z</time></trkpt><trkpt lat="57.89620667" lon="14.10555667"><ele>150.0</ele><time>2016-06-18T06:52:16.298Z</time></trkpt><trkpt lat="57.89632333" lon="14.10556833"><ele>151.0</ele><time>2016-06-18T06:52:17.306Z</time></trkpt><trkpt lat="57.89632333" lon="14.10556833"><ele>151.0</ele><time>2016-06-18T06:52:18.289Z</time></trkpt><trkpt lat="57.89643833" lon="14.10558"><ele>151.0</ele><time>2016-06-18T06:52:19.315Z</time></trkpt><trkpt lat="57.89643833" lon="14.10558"><ele>151.0</ele><time>2016-06-18T06:52:20.291Z</time></trkpt><trkpt lat="57.89655" lon="14.105585"><ele>152.0</ele><time>2016-06-18T06:52:21.298Z</time></trkpt><trkpt lat="57.89655" lon="14.105585"><ele>152.0</ele><time>2016-06-18T06:52:22.284Z</time></trkpt><trkpt lat="57.89666167" lon="14.10558833"><ele>152.0</ele><time>2016-06-18T06:52:23.298Z</time></trkpt><trkpt lat="57.89666167" lon="14.10558833"><ele>152.0</ele><time>2016-06-18T06:52:24.282Z</time></trkpt><trkpt lat="57.89677333" lon="14.10559667"><ele>153.0</ele><time>2016-06-18T06:52:25.288Z</time></trkpt><trkpt lat="57.89683167" lon="14.10560667"><ele>153.0</ele><time>2016-06-18T06:52:26.308Z</time></trkpt><trkpt lat="57.89683167" lon="14.10560667"><ele>153.0</ele><time>2016-06-18T06:52:27.294Z</time></trkpt><trkpt lat="57.89694667" lon="14.10561333"><ele>153.0</ele><time>2016-06-18T06:52:28.301Z</time></trkpt><trkpt lat="57.89694667" lon="14.10561333"><ele>153.0</ele><time>2016-06-18T06:52:29.284Z</time></trkpt><trkpt lat="57.89706667" lon="14.10561833"><ele>153.0</ele><time>2016-06-18T06:52:30.317Z</time></trkpt><trkpt lat="57.89706667" lon="14.10561833"><ele>153.0</ele><time>2016-06-18T06:52:31.296Z</time></trkpt><trkpt lat="57.897185" lon="14.105625"><ele>154.0</ele><time>2016-06-18T06:52:32.310Z</time></trkpt><trkpt lat="57.897185" lon="14.105625"><ele>154.0</ele><time>2016-06-18T06:52:33.294Z</time></trkpt><trkpt lat="57.89730333" lon="14.10563667"><ele>155.0</ele><time>2016-06-18T06:52:34.319Z</time></trkpt><trkpt lat="57.89730333" lon="14.10563667"><ele>155.0</ele><time>2016-06-18T06:52:35.310Z</time></trkpt><trkpt lat="57.89742" lon="14.10564667"><ele>155.0</ele><time>2016-06-18T06:52:36.319Z</time></trkpt><trkpt lat="57.89748" lon="14.10565167"><ele>155.0</ele><time>2016-06-18T06:52:37.296Z</time></trkpt><trkpt lat="57.89754" lon="14.10565667"><ele>155.0</ele><time>2016-06-18T06:52:38.288Z</time></trkpt><trkpt lat="57.89754" lon="14.10565667"><ele>155.0</ele><time>2016-06-18T06:52:39.302Z</time></trkpt><trkpt lat="57.89765667" lon="14.10566667"><ele>155.0</ele><time>2016-06-18T06:52:40.285Z</time></trkpt><trkpt lat="57.89765667" lon="14.10566667"><ele>155.0</ele><time>2016-06-18T06:52:41.290Z</time></trkpt><trkpt lat="57.89778" lon="14.10568667"><ele>155.0</ele><time>2016-06-18T06:52:42.309Z</time></trkpt><trkpt lat="57.89778" lon="14.10568667"><ele>155.0</ele><time>2016-06-18T06:52:43.319Z</time></trkpt><trkpt lat="57.897895" lon="14.10570333"><ele>155.0</ele><time>2016-06-18T06:52:44.287Z</time></trkpt><trkpt lat="57.897895" lon="14.10570333"><ele>155.0</ele><time>2016-06-18T06:52:45.311Z</time></trkpt><trkpt lat="57.89800167" lon="14.10571667"><ele>155.0</ele><time>2016-06-18T06:52:46.288Z</time></trkpt><trkpt lat="57.89800167" lon="14.10571667"><ele>155.0</ele><time>2016-06-18T06:52:47.296Z</time></trkpt><trkpt lat="57.898105" lon="14.105725"><ele>155.0</ele><time>2016-06-18T06:52:48.303Z</time></trkpt><trkpt lat="57.898105" lon="14.105725"><ele>155.0</ele><time>2016-06-18T06:52:49.289Z</time></trkpt><trkpt lat="57.89821" lon="14.105725"><ele>155.0</ele><time>2016-06-18T06:52:50.303Z</time></trkpt><trkpt lat="57.89821" lon="14.105725"><ele>155.0</ele><time>2016-06-18T06:52:51.293Z</time></trkpt><trkpt lat="57.898315" lon="14.105725"><ele>155.0</ele><time>2016-06-18T06:52:52.308Z</time></trkpt><trkpt lat="57.898315" lon="14.105725"><ele>155.0</ele><time>2016-06-18T06:52:53.289Z</time></trkpt><trkpt lat="57.89841833" lon="14.10572667"><ele>156.0</ele><time>2016-06-18T06:52:54.287Z</time></trkpt><trkpt lat="57.89841833" lon="14.10572667"><ele>156.0</ele><time>2016-06-18T06:52:55.314Z</time></trkpt><trkpt lat="57.89852" lon="14.10573333"><ele>156.0</ele><time>2016-06-18T06:52:56.285Z</time></trkpt><trkpt lat="57.89852" lon="14.10573333"><ele>156.0</ele><time>2016-06-18T06:52:57.307Z</time></trkpt><trkpt lat="57.89862" lon="14.10573833"><ele>157.0</ele><time>2016-06-18T06:52:58.312Z</time></trkpt><trkpt lat="57.89862" lon="14.10573833"><ele>157.0</ele><time>2016-06-18T06:52:59.303Z</time></trkpt><trkpt lat="57.89871833" lon="14.10575333"><ele>157.0</ele><time>2016-06-18T06:53:00.312Z</time></trkpt><trkpt lat="57.89876333" lon="14.10578167"><ele>158.0</ele><time>2016-06-18T06:53:01.311Z</time></trkpt><trkpt lat="57.89876333" lon="14.10578167"><ele>158.0</ele><time>2016-06-18T06:53:02.321Z</time></trkpt><trkpt lat="57.89884" lon="14.10588667"><ele>158.0</ele><time>2016-06-18T06:53:03.295Z</time></trkpt><trkpt lat="57.89888" lon="14.105945"><ele>159.0</ele><time>2016-06-18T06:53:04.308Z</time></trkpt><trkpt lat="57.89888" lon="14.105945"><ele>159.0</ele><time>2016-06-18T06:53:05.289Z</time></trkpt><trkpt lat="57.89897833" lon="14.10604333"><ele>160.0</ele><time>2016-06-18T06:53:06.295Z</time></trkpt><trkpt lat="57.89903667" lon="14.10606833"><ele>160.0</ele><time>2016-06-18T06:53:07.318Z</time></trkpt><trkpt lat="57.89909833" lon="14.10606167"><ele>160.0</ele><time>2016-06-18T06:53:08.302Z</time></trkpt><trkpt lat="57.89909833" lon="14.10606167"><ele>160.0</ele><time>2016-06-18T06:53:09.285Z</time></trkpt><trkpt lat="57.89920833" lon="14.10598167"><ele>161.0</ele><time>2016-06-18T06:53:10.310Z</time></trkpt><trkpt lat="57.89920833" lon="14.10598167"><ele>161.0</ele><time>2016-06-18T06:53:11.311Z</time></trkpt><trkpt lat="57.89931" lon="14.10588333"><ele>161.0</ele><time>2016-06-18T06:53:12.282Z</time></trkpt><trkpt lat="57.89936167" lon="14.10583833"><ele>161.0</ele><time>2016-06-18T06:53:13.317Z</time></trkpt><trkpt lat="57.89941333" lon="14.10579833"><ele>161.0</ele><time>2016-06-18T06:53:14.298Z</time></trkpt><trkpt lat="57.89941333" lon="14.10579833"><ele>161.0</ele><time>2016-06-18T06:53:15.304Z</time></trkpt><trkpt lat="57.89952667" lon="14.10572667"><ele>161.0</ele><time>2016-06-18T06:53:16.313Z</time></trkpt><trkpt lat="57.89958333" lon="14.10569667"><ele>161.0</ele><time>2016-06-18T06:53:17.318Z</time></trkpt><trkpt lat="57.89958333" lon="14.10569667"><ele>161.0</ele><time>2016-06-18T06:53:18.315Z</time></trkpt><trkpt lat="57.89970167" lon="14.10565333"><ele>162.0</ele><time>2016-06-18T06:53:19.282Z</time></trkpt><trkpt lat="57.89975833" lon="14.10563333"><ele>162.0</ele><time>2016-06-18T06:53:20.288Z</time></trkpt><trkpt lat="57.89981167" lon="14.10561667"><ele>162.0</ele><time>2016-06-18T06:53:21.307Z</time></trkpt><trkpt lat="57.89981167" lon="14.10561667"><ele>162.0</ele><time>2016-06-18T06:53:22.320Z</time></trkpt><trkpt lat="57.899915" lon="14.10559333"><ele>162.0</ele><time>2016-06-18T06:53:23.295Z</time></trkpt><trkpt lat="57.89996333" lon="14.10558333"><ele>162.0</ele><time>2016-06-18T06:53:24.303Z</time></trkpt><trkpt lat="57.89996333" lon="14.10558333"><ele>162.0</ele><time>2016-06-18T06:53:25.286Z</time></trkpt><trkpt lat="57.900065" lon="14.10557167"><ele>162.0</ele><time>2016-06-18T06:53:26.293Z</time></trkpt><trkpt lat="57.900065" lon="14.10557167"><ele>162.0</ele><time>2016-06-18T06:53:27.316Z</time></trkpt><trkpt lat="57.90016" lon="14.10556"><ele>162.0</ele><time>2016-06-18T06:53:28.297Z</time></trkpt><trkpt lat="57.90020667" lon="14.10555167"><ele>162.0</ele><time>2016-06-18T06:53:29.283Z</time></trkpt><trkpt lat="57.90025833" lon="14.10554667"><ele>162.0</ele><time>2016-06-18T06:53:30.315Z</time></trkpt><trkpt lat="57.90025833" lon="14.10554667"><ele>162.0</ele><time>2016-06-18T06:53:31.309Z</time></trkpt><trkpt lat="57.900355" lon="14.10553333"><ele>162.0</ele><time>2016-06-18T06:53:32.317Z</time></trkpt><trkpt lat="57.900355" lon="14.10553333"><ele>162.0</ele><time>2016-06-18T06:53:33.298Z</time></trkpt><trkpt lat="57.90045" lon="14.10552"><ele>163.0</ele><time>2016-06-18T06:53:34.318Z</time></trkpt><trkpt lat="57.90045" lon="14.10552"><ele>163.0</ele><time>2016-06-18T06:53:35.321Z</time></trkpt><trkpt lat="57.900545" lon="14.105505"><ele>163.0</ele><time>2016-06-18T06:53:36.287Z</time></trkpt><trkpt lat="57.90059333" lon="14.10549667"><ele>163.0</ele><time>2016-06-18T06:53:37.328Z</time></trkpt><trkpt lat="57.90064167" lon="14.10549167"><ele>163.0</ele><time>2016-06-18T06:53:38.287Z</time></trkpt><trkpt lat="57.90064167" lon="14.10549167"><ele>163.0</ele><time>2016-06-18T06:53:39.311Z</time></trkpt><trkpt lat="57.90073667" lon="14.10548667"><ele>164.0</ele><time>2016-06-18T06:53:40.317Z</time></trkpt><trkpt lat="57.90073667" lon="14.10548667"><ele>164.0</ele><time>2016-06-18T06:53:41.321Z</time></trkpt><trkpt lat="57.900825" lon="14.10548"><ele>164.0</ele><time>2016-06-18T06:53:42.288Z</time></trkpt><trkpt lat="57.900825" lon="14.10548"><ele>164.0</ele><time>2016-06-18T06:53:43.311Z</time></trkpt><trkpt lat="57.90090833" lon="14.10546667"><ele>164.0</ele><time>2016-06-18T06:53:44.320Z</time></trkpt><trkpt lat="57.90090833" lon="14.10546667"><ele>164.0</ele><time>2016-06-18T06:53:45.288Z</time></trkpt><trkpt lat="57.900995" lon="14.10544667"><ele>164.0</ele><time>2016-06-18T06:53:46.295Z</time></trkpt><trkpt lat="57.90103833" lon="14.10543667"><ele>164.0</ele><time>2016-06-18T06:53:47.320Z</time></trkpt><trkpt lat="57.90108167" lon="14.10542667"><ele>164.0</ele><time>2016-06-18T06:53:48.308Z</time></trkpt><trkpt lat="57.90108167" lon="14.10542667"><ele>164.0</ele><time>2016-06-18T06:53:49.289Z</time></trkpt><trkpt lat="57.901175" lon="14.10541167"><ele>164.0</ele><time>2016-06-18T06:53:50.296Z</time></trkpt><trkpt lat="57.901175" lon="14.10541167"><ele>164.0</ele><time>2016-06-18T06:53:51.300Z</time></trkpt><trkpt lat="57.901275" lon="14.10540167"><ele>164.0</ele><time>2016-06-18T06:53:52.311Z</time></trkpt><trkpt lat="57.901275" lon="14.10540167"><ele>164.0</ele><time>2016-06-18T06:53:53.321Z</time></trkpt><trkpt lat="57.90137833" lon="14.10539167"><ele>164.0</ele><time>2016-06-18T06:53:54.287Z</time></trkpt><trkpt lat="57.90137833" lon="14.10539167"><ele>164.0</ele><time>2016-06-18T06:53:55.288Z</time></trkpt><trkpt lat="57.901485" lon="14.10538167"><ele>164.0</ele><time>2016-06-18T06:53:56.314Z</time></trkpt><trkpt lat="57.901485" lon="14.10538167"><ele>164.0</ele><time>2016-06-18T06:53:57.320Z</time></trkpt><trkpt lat="57.90159667" lon="14.105365"><ele>164.0</ele><time>2016-06-18T06:53:58.287Z</time></trkpt><trkpt lat="57.90159667" lon="14.105365"><ele>164.0</ele><time>2016-06-18T06:53:59.311Z</time></trkpt><trkpt lat="57.90172167" lon="14.10535"><ele>165.0</ele><time>2016-06-18T06:54:00.307Z</time></trkpt><trkpt lat="57.90172167" lon="14.10535"><ele>165.0</ele><time>2016-06-18T06:54:01.289Z</time></trkpt><trkpt lat="57.90184833" lon="14.10533167"><ele>165.0</ele><time>2016-06-18T06:54:02.296Z</time></trkpt><trkpt lat="57.90184833" lon="14.10533167"><ele>165.0</ele><time>2016-06-18T06:54:03.320Z</time></trkpt><trkpt lat="57.90197833" lon="14.10531167"><ele>165.0</ele><time>2016-06-18T06:54:04.325Z</time></trkpt><trkpt lat="57.90197833" lon="14.10531167"><ele>165.0</ele><time>2016-06-18T06:54:05.319Z</time></trkpt><trkpt lat="57.90210167" lon="14.10528667"><ele>165.0</ele><time>2016-06-18T06:54:06.286Z</time></trkpt><trkpt lat="57.90210167" lon="14.10528667"><ele>165.0</ele><time>2016-06-18T06:54:07.302Z</time></trkpt><trkpt lat="57.90223833" lon="14.10526"><ele>165.0</ele><time>2016-06-18T06:54:08.325Z</time></trkpt><trkpt lat="57.90223833" lon="14.10526"><ele>165.0</ele><time>2016-06-18T06:54:09.283Z</time></trkpt><trkpt lat="57.902385" lon="14.10524167"><ele>165.0</ele><time>2016-06-18T06:54:10.289Z</time></trkpt><trkpt lat="57.902385" lon="14.10524167"><ele>165.0</ele><time>2016-06-18T06:54:11.313Z</time></trkpt><trkpt lat="57.90252833" lon="14.10521333"><ele>166.0</ele><time>2016-06-18T06:54:12.295Z</time></trkpt><trkpt lat="57.90252833" lon="14.10521333"><ele>166.0</ele><time>2016-06-18T06:54:13.320Z</time></trkpt><trkpt lat="57.90267833" lon="14.10519333"><ele>166.0</ele><time>2016-06-18T06:54:14.286Z</time></trkpt><trkpt lat="57.90267833" lon="14.10519333"><ele>166.0</ele><time>2016-06-18T06:54:15.312Z</time></trkpt><trkpt lat="57.902825" lon="14.105165"><ele>166.0</ele><time>2016-06-18T06:54:16.293Z</time></trkpt><trkpt lat="57.90289667" lon="14.10514667"><ele>166.0</ele><time>2016-06-18T06:54:17.317Z</time></trkpt><trkpt lat="57.90289667" lon="14.10514667"><ele>166.0</ele><time>2016-06-18T06:54:18.297Z</time></trkpt><trkpt lat="57.90304333" lon="14.10512167"><ele>167.0</ele><time>2016-06-18T06:54:19.297Z</time></trkpt><trkpt lat="57.903115" lon="14.105105"><ele>167.0</ele><time>2016-06-18T06:54:20.303Z</time></trkpt><trkpt lat="57.903115" lon="14.105105"><ele>167.0</ele><time>2016-06-18T06:54:21.283Z</time></trkpt><trkpt lat="57.90327333" lon="14.10507667"><ele>166.0</ele><time>2016-06-18T06:54:22.290Z</time></trkpt><trkpt lat="57.90327333" lon="14.10507667"><ele>166.0</ele><time>2016-06-18T06:54:23.307Z</time></trkpt><trkpt lat="57.90341833" lon="14.10504833"><ele>166.0</ele><time>2016-06-18T06:54:24.298Z</time></trkpt><trkpt lat="57.90341833" lon="14.10504833"><ele>166.0</ele><time>2016-06-18T06:54:25.319Z</time></trkpt><trkpt lat="57.903565" lon="14.10501"><ele>166.0</ele><time>2016-06-18T06:54:26.286Z</time></trkpt><trkpt lat="57.903565" lon="14.10501"><ele>166.0</ele><time>2016-06-18T06:54:27.306Z</time></trkpt><trkpt lat="57.90371333" lon="14.10497333"><ele>167.0</ele><time>2016-06-18T06:54:28.319Z</time></trkpt><trkpt lat="57.90371333" lon="14.10497333"><ele>167.0</ele><time>2016-06-18T06:54:29.303Z</time></trkpt><trkpt lat="57.90386167" lon="14.10492833"><ele>166.0</ele><time>2016-06-18T06:54:30.318Z</time></trkpt><trkpt lat="57.90393167" lon="14.10490833"><ele>165.0</ele><time>2016-06-18T06:54:31.315Z</time></trkpt><trkpt lat="57.90393167" lon="14.10490833"><ele>165.0</ele><time>2016-06-18T06:54:32.297Z</time></trkpt><trkpt lat="57.90406833" lon="14.10487667"><ele>165.0</ele><time>2016-06-18T06:54:33.313Z</time></trkpt><trkpt lat="57.90406833" lon="14.10487667"><ele>165.0</ele><time>2016-06-18T06:54:34.300Z</time></trkpt><trkpt lat="57.90421833" lon="14.10483167"><ele>166.0</ele><time>2016-06-18T06:54:35.288Z</time></trkpt><trkpt lat="57.90421833" lon="14.10483167"><ele>166.0</ele><time>2016-06-18T06:54:36.320Z</time></trkpt><trkpt lat="57.90437333" lon="14.10478333"><ele>167.0</ele><time>2016-06-18T06:54:37.286Z</time></trkpt><trkpt lat="57.90444833" lon="14.104765"><ele>167.0</ele><time>2016-06-18T06:54:38.284Z</time></trkpt><trkpt lat="57.90444833" lon="14.104765"><ele>167.0</ele><time>2016-06-18T06:54:39.313Z</time></trkpt><trkpt lat="57.90459667" lon="14.10472333"><ele>167.0</ele><time>2016-06-18T06:54:40.321Z</time></trkpt><trkpt lat="57.904675" lon="14.104695"><ele>167.0</ele><time>2016-06-18T06:54:41.304Z</time></trkpt><trkpt lat="57.904675" lon="14.104695"><ele>167.0</ele><time>2016-06-18T06:54:42.284Z</time></trkpt><trkpt lat="57.90482667" lon="14.10465167"><ele>168.0</ele><time>2016-06-18T06:54:43.301Z</time></trkpt><trkpt lat="57.904905" lon="14.10462333"><ele>168.0</ele><time>2016-06-18T06:54:44.287Z</time></trkpt><trkpt lat="57.904905" lon="14.10462333"><ele>168.0</ele><time>2016-06-18T06:54:45.305Z</time></trkpt><trkpt lat="57.90505667" lon="14.10456333"><ele>170.0</ele><time>2016-06-18T06:54:46.292Z</time></trkpt><trkpt lat="57.90513167" lon="14.10453167"><ele>170.0</ele><time>2016-06-18T06:54:47.320Z</time></trkpt><trkpt lat="57.90513167" lon="14.10453167"><ele>170.0</ele><time>2016-06-18T06:54:48.302Z</time></trkpt><trkpt lat="57.90528833" lon="14.10448"><ele>172.0</ele><time>2016-06-18T06:54:49.298Z</time></trkpt><trkpt lat="57.90537" lon="14.10445667"><ele>172.0</ele><time>2016-06-18T06:54:50.313Z</time></trkpt><trkpt lat="57.90537" lon="14.10445667"><ele>172.0</ele><time>2016-06-18T06:54:51.294Z</time></trkpt><trkpt lat="57.90555" lon="14.10440833"><ele>174.0</ele><time>2016-06-18T06:54:52.318Z</time></trkpt><trkpt lat="57.90555" lon="14.10440833"><ele>174.0</ele><time>2016-06-18T06:54:53.300Z</time></trkpt><trkpt lat="57.90574" lon="14.10435333"><ele>176.0</ele><time>2016-06-18T06:54:54.306Z</time></trkpt><trkpt lat="57.90574" lon="14.10435333"><ele>176.0</ele><time>2016-06-18T06:54:55.291Z</time></trkpt><trkpt lat="57.90592667" lon="14.10429667"><ele>177.0</ele><time>2016-06-18T06:54:56.288Z</time></trkpt><trkpt lat="57.90592667" lon="14.10429667"><ele>177.0</ele><time>2016-06-18T06:54:57.284Z</time></trkpt><trkpt lat="57.90612167" lon="14.10424667"><ele>178.0</ele><time>2016-06-18T06:54:58.291Z</time></trkpt><trkpt lat="57.90622" lon="14.10421667"><ele>178.0</ele><time>2016-06-18T06:54:59.294Z</time></trkpt><trkpt lat="57.90622" lon="14.10421667"><ele>178.0</ele><time>2016-06-18T06:55:00.317Z</time></trkpt><trkpt lat="57.90641" lon="14.10416"><ele>178.0</ele><time>2016-06-18T06:55:01.284Z</time></trkpt><trkpt lat="57.90650833" lon="14.10412833"><ele>179.0</ele><time>2016-06-18T06:55:02.319Z</time></trkpt><trkpt lat="57.90650833" lon="14.10412833"><ele>179.0</ele><time>2016-06-18T06:55:03.303Z</time></trkpt><trkpt lat="57.90670833" lon="14.10407833"><ele>180.0</ele><time>2016-06-18T06:55:04.318Z</time></trkpt><trkpt lat="57.90680667" lon="14.10405167"><ele>180.0</ele><time>2016-06-18T06:55:05.299Z</time></trkpt><trkpt lat="57.90680667" lon="14.10405167"><ele>180.0</ele><time>2016-06-18T06:55:06.284Z</time></trkpt><trkpt lat="57.90701167" lon="14.10399"><ele>179.0</ele><time>2016-06-18T06:55:07.290Z</time></trkpt><trkpt lat="57.90712333" lon="14.103955"><ele>179.0</ele><time>2016-06-18T06:55:08.289Z</time></trkpt><trkpt lat="57.90712333" lon="14.103955"><ele>179.0</ele><time>2016-06-18T06:55:09.299Z</time></trkpt><trkpt lat="57.90733833" lon="14.10390167"><ele>176.0</ele><time>2016-06-18T06:55:10.308Z</time></trkpt><trkpt lat="57.90733833" lon="14.10390167"><ele>176.0</ele><time>2016-06-18T06:55:11.312Z</time></trkpt><trkpt lat="57.90753833" lon="14.10383333"><ele>172.0</ele><time>2016-06-18T06:55:12.288Z</time></trkpt><trkpt lat="57.90753833" lon="14.10383333"><ele>172.0</ele><time>2016-06-18T06:55:13.313Z</time></trkpt><trkpt lat="57.90774167" lon="14.10377"><ele>170.0</ele><time>2016-06-18T06:55:14.320Z</time></trkpt><trkpt lat="57.90774167" lon="14.10377"><ele>170.0</ele><time>2016-06-18T06:55:15.303Z</time></trkpt><trkpt lat="57.90794333" lon="14.103705"><ele>169.0</ele><time>2016-06-18T06:55:16.308Z</time></trkpt><trkpt lat="57.90794333" lon="14.103705"><ele>169.0</ele><time>2016-06-18T06:55:17.302Z</time></trkpt><trkpt lat="57.90813167" lon="14.10365333"><ele>167.0</ele><time>2016-06-18T06:55:18.318Z</time></trkpt><trkpt lat="57.90813167" lon="14.10365333"><ele>167.0</ele><time>2016-06-18T06:55:19.301Z</time></trkpt><trkpt lat="57.90831167" lon="14.10360667"><ele>166.0</ele><time>2016-06-18T06:55:20.308Z</time></trkpt><trkpt lat="57.90831167" lon="14.10360667"><ele>166.0</ele><time>2016-06-18T06:55:21.320Z</time></trkpt><trkpt lat="57.90849333" lon="14.10355167"><ele>164.0</ele><time>2016-06-18T06:55:22.286Z</time></trkpt><trkpt lat="57.90849333" lon="14.10355167"><ele>164.0</ele><time>2016-06-18T06:55:23.303Z</time></trkpt><trkpt lat="57.908675" lon="14.10349667"><ele>163.0</ele><time>2016-06-18T06:55:24.314Z</time></trkpt><trkpt lat="57.908675" lon="14.10349667"><ele>163.0</ele><time>2016-06-18T06:55:25.307Z</time></trkpt><trkpt lat="57.90886333" lon="14.10343833"><ele>163.0</ele><time>2016-06-18T06:55:26.320Z</time></trkpt><trkpt lat="57.90886333" lon="14.10343833"><ele>163.0</ele><time>2016-06-18T06:55:27.300Z</time></trkpt><trkpt lat="57.909055" lon="14.10338"><ele>162.0</ele><time>2016-06-18T06:55:28.327Z</time></trkpt><trkpt lat="57.909055" lon="14.10338"><ele>162.0</ele><time>2016-06-18T06:55:29.298Z</time></trkpt><trkpt lat="57.90924833" lon="14.10332167"><ele>161.0</ele><time>2016-06-18T06:55:30.304Z</time></trkpt><trkpt lat="57.909345" lon="14.10329167"><ele>161.0</ele><time>2016-06-18T06:55:31.308Z</time></trkpt><trkpt lat="57.909345" lon="14.10329167"><ele>161.0</ele><time>2016-06-18T06:55:32.290Z</time></trkpt><trkpt lat="57.90954" lon="14.103225"><ele>160.0</ele><time>2016-06-18T06:55:33.297Z</time></trkpt><trkpt lat="57.909635" lon="14.10319333"><ele>160.0</ele><time>2016-06-18T06:55:34.308Z</time></trkpt><trkpt lat="57.909635" lon="14.10319333"><ele>160.0</ele><time>2016-06-18T06:55:35.289Z</time></trkpt><trkpt lat="57.90982333" lon="14.10313"><ele>159.0</ele><time>2016-06-18T06:55:36.296Z</time></trkpt><trkpt lat="57.90991833" lon="14.10310333"><ele>159.0</ele><time>2016-06-18T06:55:37.310Z</time></trkpt><trkpt lat="57.90991833" lon="14.10310333"><ele>159.0</ele><time>2016-06-18T06:55:38.298Z</time></trkpt><trkpt lat="57.910095" lon="14.10304333"><ele>158.0</ele><time>2016-06-18T06:55:39.305Z</time></trkpt><trkpt lat="57.910175" lon="14.103015"><ele>158.0</ele><time>2016-06-18T06:55:40.308Z</time></trkpt><trkpt lat="57.91025333" lon="14.10298667"><ele>158.0</ele><time>2016-06-18T06:55:41.304Z</time></trkpt><trkpt lat="57.91025333" lon="14.10298667"><ele>158.0</ele><time>2016-06-18T06:55:42.286Z</time></trkpt><trkpt lat="57.91042" lon="14.10294"><ele>157.0</ele><time>2016-06-18T06:55:43.297Z</time></trkpt><trkpt lat="57.91042" lon="14.10294"><ele>157.0</ele><time>2016-06-18T06:55:44.283Z</time></trkpt><trkpt lat="57.91059333" lon="14.10288833"><ele>157.0</ele><time>2016-06-18T06:55:45.290Z</time></trkpt><trkpt lat="57.91067667" lon="14.10286333"><ele>157.0</ele><time>2016-06-18T06:55:46.290Z</time></trkpt><trkpt lat="57.91067667" lon="14.10286333"><ele>157.0</ele><time>2016-06-18T06:55:47.315Z</time></trkpt><trkpt lat="57.91084333" lon="14.10281"><ele>157.0</ele><time>2016-06-18T06:55:48.298Z</time></trkpt><trkpt lat="57.91092333" lon="14.102785"><ele>157.0</ele><time>2016-06-18T06:55:49.313Z</time></trkpt><trkpt lat="57.911005" lon="14.10275833"><ele>157.0</ele><time>2016-06-18T06:55:50.320Z</time></trkpt><trkpt lat="57.911005" lon="14.10275833"><ele>157.0</ele><time>2016-06-18T06:55:51.304Z</time></trkpt><trkpt lat="57.91116" lon="14.10270667"><ele>157.0</ele><time>2016-06-18T06:55:52.286Z</time></trkpt><trkpt lat="57.91124667" lon="14.10268167"><ele>157.0</ele><time>2016-06-18T06:55:53.287Z</time></trkpt><trkpt lat="57.91124667" lon="14.10268167"><ele>157.0</ele><time>2016-06-18T06:55:54.316Z</time></trkpt><trkpt lat="57.91141333" lon="14.10264667"><ele>157.0</ele><time>2016-06-18T06:55:55.288Z</time></trkpt><trkpt lat="57.91141333" lon="14.10264667"><ele>157.0</ele><time>2016-06-18T06:55:56.304Z</time></trkpt><trkpt lat="57.91158667" lon="14.10260833"><ele>157.0</ele><time>2016-06-18T06:55:57.317Z</time></trkpt><trkpt lat="57.91158667" lon="14.10260833"><ele>157.0</ele><time>2016-06-18T06:55:58.300Z</time></trkpt><trkpt lat="57.91175833" lon="14.10255333"><ele>157.0</ele><time>2016-06-18T06:55:59.323Z</time></trkpt><trkpt lat="57.91184" lon="14.10252333"><ele>157.0</ele><time>2016-06-18T06:56:00.291Z</time></trkpt><trkpt lat="57.91184" lon="14.10252333"><ele>157.0</ele><time>2016-06-18T06:56:01.316Z</time></trkpt><trkpt lat="57.912005" lon="14.10246667"><ele>157.0</ele><time>2016-06-18T06:56:02.298Z</time></trkpt><trkpt lat="57.912005" lon="14.10246667"><ele>157.0</ele><time>2016-06-18T06:56:03.321Z</time></trkpt><trkpt lat="57.91216833" lon="14.10240333"><ele>157.0</ele><time>2016-06-18T06:56:04.287Z</time></trkpt><trkpt lat="57.91216833" lon="14.10240333"><ele>157.0</ele><time>2016-06-18T06:56:05.282Z</time></trkpt><trkpt lat="57.91233333" lon="14.10235333"><ele>157.0</ele><time>2016-06-18T06:56:06.323Z</time></trkpt><trkpt lat="57.91233333" lon="14.10235333"><ele>157.0</ele><time>2016-06-18T06:56:07.305Z</time></trkpt><trkpt lat="57.912495" lon="14.10229"><ele>158.0</ele><time>2016-06-18T06:56:08.322Z</time></trkpt><trkpt lat="57.912495" lon="14.10229"><ele>158.0</ele><time>2016-06-18T06:56:09.302Z</time></trkpt><trkpt lat="57.91266167" lon="14.102225"><ele>158.0</ele><time>2016-06-18T06:56:10.288Z</time></trkpt><trkpt lat="57.91266167" lon="14.102225"><ele>158.0</ele><time>2016-06-18T06:56:11.311Z</time></trkpt><trkpt lat="57.91283" lon="14.10215"><ele>159.0</ele><time>2016-06-18T06:56:12.292Z</time></trkpt><trkpt lat="57.91291833" lon="14.10211"><ele>159.0</ele><time>2016-06-18T06:56:13.293Z</time></trkpt><trkpt lat="57.91291833" lon="14.10211"><ele>159.0</ele><time>2016-06-18T06:56:14.316Z</time></trkpt><trkpt lat="57.913095" lon="14.10203333"><ele>160.0</ele><time>2016-06-18T06:56:15.318Z</time></trkpt><trkpt lat="57.91318333" lon="14.10199667"><ele>161.0</ele><time>2016-06-18T06:56:16.285Z</time></trkpt><trkpt lat="57.91318333" lon="14.10199667"><ele>161.0</ele><time>2016-06-18T06:56:17.304Z</time></trkpt><trkpt lat="57.91335" lon="14.10191667"><ele>161.0</ele><time>2016-06-18T06:56:18.298Z</time></trkpt><trkpt lat="57.91335" lon="14.10191667"><ele>161.0</ele><time>2016-06-18T06:56:19.313Z</time></trkpt><trkpt lat="57.91350833" lon="14.10183833"><ele>161.0</ele><time>2016-06-18T06:56:20.282Z</time></trkpt><trkpt lat="57.91350833" lon="14.10183833"><ele>161.0</ele><time>2016-06-18T06:56:21.285Z</time></trkpt><trkpt lat="57.91367" lon="14.10176"><ele>162.0</ele><time>2016-06-18T06:56:22.313Z</time></trkpt><trkpt lat="57.91367" lon="14.10176"><ele>162.0</ele><time>2016-06-18T06:56:23.320Z</time></trkpt><trkpt lat="57.91383333" lon="14.10168"><ele>162.0</ele><time>2016-06-18T06:56:24.293Z</time></trkpt><trkpt lat="57.91383333" lon="14.10168"><ele>162.0</ele><time>2016-06-18T06:56:25.282Z</time></trkpt><trkpt lat="57.914005" lon="14.10159833"><ele>162.0</ele><time>2016-06-18T06:56:26.327Z</time></trkpt><trkpt lat="57.914005" lon="14.10159833"><ele>162.0</ele><time>2016-06-18T06:56:27.284Z</time></trkpt><trkpt lat="57.91417833" lon="14.10151"><ele>162.0</ele><time>2016-06-18T06:56:28.290Z</time></trkpt><trkpt lat="57.914265" lon="14.10146167"><ele>162.0</ele><time>2016-06-18T06:56:29.325Z</time></trkpt><trkpt lat="57.914265" lon="14.10146167"><ele>162.0</ele><time>2016-06-18T06:56:30.295Z</time></trkpt><trkpt lat="57.91443667" lon="14.10137833"><ele>161.0</ele><time>2016-06-18T06:56:31.302Z</time></trkpt><trkpt lat="57.91452167" lon="14.10133333"><ele>162.0</ele><time>2016-06-18T06:56:32.293Z</time></trkpt><trkpt lat="57.91452167" lon="14.10133333"><ele>162.0</ele><time>2016-06-18T06:56:33.283Z</time></trkpt><trkpt lat="57.91468667" lon="14.10124667"><ele>161.0</ele><time>2016-06-18T06:56:34.295Z</time></trkpt><trkpt lat="57.91468667" lon="14.10124667"><ele>161.0</ele><time>2016-06-18T06:56:35.317Z</time></trkpt><trkpt lat="57.914845" lon="14.101155"><ele>161.0</ele><time>2016-06-18T06:56:36.318Z</time></trkpt><trkpt lat="57.914845" lon="14.101155"><ele>161.0</ele><time>2016-06-18T06:56:37.316Z</time></trkpt><trkpt lat="57.91501" lon="14.10105167"><ele>161.0</ele><time>2016-06-18T06:56:38.282Z</time></trkpt><trkpt lat="57.91501" lon="14.10105167"><ele>161.0</ele><time>2016-06-18T06:56:39.305Z</time></trkpt><trkpt lat="57.915185" lon="14.10094167"><ele>160.0</ele><time>2016-06-18T06:56:40.320Z</time></trkpt><trkpt lat="57.915185" lon="14.10094167"><ele>160.0</ele><time>2016-06-18T06:56:41.294Z</time></trkpt><trkpt lat="57.915365" lon="14.10082667"><ele>159.0</ele><time>2016-06-18T06:56:42.302Z</time></trkpt><trkpt lat="57.915365" lon="14.10082667"><ele>159.0</ele><time>2016-06-18T06:56:43.285Z</time></trkpt><trkpt lat="57.91554667" lon="14.10070333"><ele>159.0</ele><time>2016-06-18T06:56:44.317Z</time></trkpt><trkpt lat="57.91554667" lon="14.10070333"><ele>159.0</ele><time>2016-06-18T06:56:45.317Z</time></trkpt><trkpt lat="57.915735" lon="14.10058333"><ele>158.0</ele><time>2016-06-18T06:56:46.283Z</time></trkpt><trkpt lat="57.915735" lon="14.10058333"><ele>158.0</ele><time>2016-06-18T06:56:47.304Z</time></trkpt><trkpt lat="57.91591167" lon="14.10046"><ele>158.0</ele><time>2016-06-18T06:56:48.318Z</time></trkpt><trkpt lat="57.91591167" lon="14.10046"><ele>158.0</ele><time>2016-06-18T06:56:49.303Z</time></trkpt><trkpt lat="57.916085" lon="14.10033833"><ele>157.0</ele><time>2016-06-18T06:56:50.318Z</time></trkpt><trkpt lat="57.916085" lon="14.10033833"><ele>157.0</ele><time>2016-06-18T06:56:51.302Z</time></trkpt><trkpt lat="57.91625167" lon="14.10021333"><ele>156.0</ele><time>2016-06-18T06:56:52.326Z</time></trkpt><trkpt lat="57.91625167" lon="14.10021333"><ele>156.0</ele><time>2016-06-18T06:56:53.318Z</time></trkpt><trkpt lat="57.916415" lon="14.10008167"><ele>155.0</ele><time>2016-06-18T06:56:54.297Z</time></trkpt><trkpt lat="57.916415" lon="14.10008167"><ele>155.0</ele><time>2016-06-18T06:56:55.298Z</time></trkpt><trkpt lat="57.91658" lon="14.09995"><ele>156.0</ele><time>2016-06-18T06:56:56.314Z</time></trkpt><trkpt lat="57.91658" lon="14.09995"><ele>156.0</ele><time>2016-06-18T06:56:57.289Z</time></trkpt><trkpt lat="57.91674667" lon="14.09983333"><ele>156.0</ele><time>2016-06-18T06:56:58.296Z</time></trkpt><trkpt lat="57.91674667" lon="14.09983333"><ele>156.0</ele><time>2016-06-18T06:56:59.297Z</time></trkpt><trkpt lat="57.91691833" lon="14.09971833"><ele>155.0</ele><time>2016-06-18T06:57:00.317Z</time></trkpt><trkpt lat="57.91691833" lon="14.09971833"><ele>155.0</ele><time>2016-06-18T06:57:01.318Z</time></trkpt><trkpt lat="57.91708833" lon="14.09958667"><ele>155.0</ele><time>2016-06-18T06:57:02.287Z</time></trkpt><trkpt lat="57.91708833" lon="14.09958667"><ele>155.0</ele><time>2016-06-18T06:57:03.321Z</time></trkpt><trkpt lat="57.91725833" lon="14.09943833"><ele>155.0</ele><time>2016-06-18T06:57:04.287Z</time></trkpt><trkpt lat="57.91725833" lon="14.09943833"><ele>155.0</ele><time>2016-06-18T06:57:05.308Z</time></trkpt><trkpt lat="57.91742667" lon="14.09929167"><ele>156.0</ele><time>2016-06-18T06:57:06.317Z</time></trkpt><trkpt lat="57.91742667" lon="14.09929167"><ele>156.0</ele><time>2016-06-18T06:57:07.295Z</time></trkpt><trkpt lat="57.917595" lon="14.09914"><ele>155.0</ele><time>2016-06-18T06:57:08.324Z</time></trkpt><trkpt lat="57.917595" lon="14.09914"><ele>155.0</ele><time>2016-06-18T06:57:09.303Z</time></trkpt><trkpt lat="57.91776333" lon="14.09898667"><ele>155.0</ele><time>2016-06-18T06:57:10.311Z</time></trkpt><trkpt lat="57.91776333" lon="14.09898667"><ele>155.0</ele><time>2016-06-18T06:57:11.293Z</time></trkpt><trkpt lat="57.91792833" lon="14.09883333"><ele>154.0</ele><time>2016-06-18T06:57:12.312Z</time></trkpt><trkpt lat="57.91792833" lon="14.09883333"><ele>154.0</ele><time>2016-06-18T06:57:13.294Z</time></trkpt><trkpt lat="57.91808833" lon="14.098685"><ele>154.0</ele><time>2016-06-18T06:57:14.301Z</time></trkpt><trkpt lat="57.91808833" lon="14.098685"><ele>154.0</ele><time>2016-06-18T06:57:15.290Z</time></trkpt><trkpt lat="57.91824167" lon="14.09855"><ele>154.0</ele><time>2016-06-18T06:57:16.318Z</time></trkpt><trkpt lat="57.91824167" lon="14.09855"><ele>154.0</ele><time>2016-06-18T06:57:17.301Z</time></trkpt><trkpt lat="57.91839167" lon="14.09841333"><ele>154.0</ele><time>2016-06-18T06:57:18.309Z</time></trkpt><trkpt lat="57.91839167" lon="14.09841333"><ele>154.0</ele><time>2016-06-18T06:57:19.290Z</time></trkpt><trkpt lat="57.91854167" lon="14.09827333"><ele>154.0</ele><time>2016-06-18T06:57:20.321Z</time></trkpt><trkpt lat="57.91854167" lon="14.09827333"><ele>154.0</ele><time>2016-06-18T06:57:21.304Z</time></trkpt><trkpt lat="57.91869" lon="14.09813333"><ele>154.0</ele><time>2016-06-18T06:57:22.311Z</time></trkpt><trkpt lat="57.91869" lon="14.09813333"><ele>154.0</ele><time>2016-06-18T06:57:23.299Z</time></trkpt><trkpt lat="57.91883333" lon="14.09799"><ele>154.0</ele><time>2016-06-18T06:57:24.289Z</time></trkpt><trkpt lat="57.91883333" lon="14.09799"><ele>154.0</ele><time>2016-06-18T06:57:25.301Z</time></trkpt><trkpt lat="57.918985" lon="14.09785333"><ele>154.0</ele><time>2016-06-18T06:57:26.308Z</time></trkpt><trkpt lat="57.918985" lon="14.09785333"><ele>154.0</ele><time>2016-06-18T06:57:27.289Z</time></trkpt><trkpt lat="57.91912333" lon="14.097725"><ele>154.0</ele><time>2016-06-18T06:57:28.321Z</time></trkpt><trkpt lat="57.91912333" lon="14.097725"><ele>154.0</ele><time>2016-06-18T06:57:29.305Z</time></trkpt><trkpt lat="57.91926" lon="14.097595"><ele>154.0</ele><time>2016-06-18T06:57:30.319Z</time></trkpt><trkpt lat="57.91926" lon="14.097595"><ele>154.0</ele><time>2016-06-18T06:57:31.302Z</time></trkpt><trkpt lat="57.91939833" lon="14.09747833"><ele>154.0</ele><time>2016-06-18T06:57:32.310Z</time></trkpt><trkpt lat="57.91939833" lon="14.09747833"><ele>154.0</ele><time>2016-06-18T06:57:33.290Z</time></trkpt><trkpt lat="57.91953333" lon="14.09736833"><ele>154.0</ele><time>2016-06-18T06:57:34.297Z</time></trkpt><trkpt lat="57.91953333" lon="14.09736833"><ele>154.0</ele><time>2016-06-18T06:57:35.293Z</time></trkpt><trkpt lat="57.91965833" lon="14.09726167"><ele>154.0</ele><time>2016-06-18T06:57:36.320Z</time></trkpt><trkpt lat="57.91965833" lon="14.09726167"><ele>154.0</ele><time>2016-06-18T06:57:37.317Z</time></trkpt><trkpt lat="57.91979" lon="14.09716167"><ele>154.0</ele><time>2016-06-18T06:57:38.283Z</time></trkpt><trkpt lat="57.91979" lon="14.09716167"><ele>154.0</ele><time>2016-06-18T06:57:39.306Z</time></trkpt><trkpt lat="57.91992667" lon="14.097035"><ele>154.0</ele><time>2016-06-18T06:57:40.308Z</time></trkpt><trkpt lat="57.91992667" lon="14.097035"><ele>154.0</ele><time>2016-06-18T06:57:41.305Z</time></trkpt><trkpt lat="57.92007167" lon="14.09692"><ele>154.0</ele><time>2016-06-18T06:57:42.312Z</time></trkpt><trkpt lat="57.92007167" lon="14.09692"><ele>154.0</ele><time>2016-06-18T06:57:43.294Z</time></trkpt><trkpt lat="57.92022667" lon="14.09680333"><ele>154.0</ele><time>2016-06-18T06:57:44.312Z</time></trkpt><trkpt lat="57.92022667" lon="14.09680333"><ele>154.0</ele><time>2016-06-18T06:57:45.301Z</time></trkpt><trkpt lat="57.92038333" lon="14.09669667"><ele>154.0</ele><time>2016-06-18T06:57:46.309Z</time></trkpt><trkpt lat="57.92038333" lon="14.09669667"><ele>154.0</ele><time>2016-06-18T06:57:47.297Z</time></trkpt><trkpt lat="57.92054167" lon="14.096595"><ele>154.0</ele><time>2016-06-18T06:57:48.298Z</time></trkpt><trkpt lat="57.92054167" lon="14.096595"><ele>154.0</ele><time>2016-06-18T06:57:49.299Z</time></trkpt><trkpt lat="57.920695" lon="14.096475"><ele>155.0</ele><time>2016-06-18T06:57:50.306Z</time></trkpt><trkpt lat="57.920695" lon="14.096475"><ele>155.0</ele><time>2016-06-18T06:57:51.290Z</time></trkpt><trkpt lat="57.92085167" lon="14.096365"><ele>156.0</ele><time>2016-06-18T06:57:52.319Z</time></trkpt><trkpt lat="57.92085167" lon="14.096365"><ele>156.0</ele><time>2016-06-18T06:57:53.317Z</time></trkpt><trkpt lat="57.92100833" lon="14.09627667"><ele>156.0</ele><time>2016-06-18T06:57:54.285Z</time></trkpt><trkpt lat="57.921085" lon="14.09623833"><ele>157.0</ele><time>2016-06-18T06:57:55.318Z</time></trkpt><trkpt lat="57.921175" lon="14.09620167"><ele>158.0</ele><time>2016-06-18T06:57:56.294Z</time></trkpt><trkpt lat="57.921175" lon="14.09620167"><ele>158.0</ele><time>2016-06-18T06:57:57.318Z</time></trkpt><trkpt lat="57.92133667" lon="14.09612833"><ele>158.0</ele><time>2016-06-18T06:57:58.298Z</time></trkpt><trkpt lat="57.92133667" lon="14.09612833"><ele>158.0</ele><time>2016-06-18T06:57:59.292Z</time></trkpt><trkpt lat="57.92148667" lon="14.09604333"><ele>159.0</ele><time>2016-06-18T06:58:00.299Z</time></trkpt><trkpt lat="57.92148667" lon="14.09604333"><ele>159.0</ele><time>2016-06-18T06:58:01.283Z</time></trkpt><trkpt lat="57.92164167" lon="14.09596167"><ele>159.0</ele><time>2016-06-18T06:58:02.308Z</time></trkpt><trkpt lat="57.92164167" lon="14.09596167"><ele>159.0</ele><time>2016-06-18T06:58:03.320Z</time></trkpt><trkpt lat="57.92179833" lon="14.09588333"><ele>159.0</ele><time>2016-06-18T06:58:04.288Z</time></trkpt><trkpt lat="57.92179833" lon="14.09588333"><ele>159.0</ele><time>2016-06-18T06:58:05.289Z</time></trkpt><trkpt lat="57.92195" lon="14.09581167"><ele>159.0</ele><time>2016-06-18T06:58:06.308Z</time></trkpt><trkpt lat="57.92195" lon="14.09581167"><ele>159.0</ele><time>2016-06-18T06:58:07.306Z</time></trkpt><trkpt lat="57.92209167" lon="14.09574333"><ele>159.0</ele><time>2016-06-18T06:58:08.313Z</time></trkpt><trkpt lat="57.92209167" lon="14.09574333"><ele>159.0</ele><time>2016-06-18T06:58:09.299Z</time></trkpt><trkpt lat="57.92223167" lon="14.09568"><ele>159.0</ele><time>2016-06-18T06:58:10.309Z</time></trkpt><trkpt lat="57.92223167" lon="14.09568"><ele>159.0</ele><time>2016-06-18T06:58:11.308Z</time></trkpt><trkpt lat="57.922375" lon="14.09563"><ele>159.0</ele><time>2016-06-18T06:58:12.299Z</time></trkpt><trkpt lat="57.92245" lon="14.09560333"><ele>159.0</ele><time>2016-06-18T06:58:13.283Z</time></trkpt><trkpt lat="57.922525" lon="14.09557333"><ele>159.0</ele><time>2016-06-18T06:58:14.306Z</time></trkpt><trkpt lat="57.922525" lon="14.09557333"><ele>159.0</ele><time>2016-06-18T06:58:15.288Z</time></trkpt><trkpt lat="57.92268167" lon="14.09551833"><ele>158.0</ele><time>2016-06-18T06:58:16.295Z</time></trkpt><trkpt lat="57.92276333" lon="14.09549"><ele>158.0</ele><time>2016-06-18T06:58:17.299Z</time></trkpt><trkpt lat="57.92276333" lon="14.09549"><ele>158.0</ele><time>2016-06-18T06:58:18.320Z</time></trkpt><trkpt lat="57.92292833" lon="14.09543167"><ele>158.0</ele><time>2016-06-18T06:58:19.288Z</time></trkpt><trkpt lat="57.92300833" lon="14.095405"><ele>158.0</ele><time>2016-06-18T06:58:20.322Z</time></trkpt><trkpt lat="57.92300833" lon="14.095405"><ele>158.0</ele><time>2016-06-18T06:58:21.307Z</time></trkpt><trkpt lat="57.92317167" lon="14.09535333"><ele>159.0</ele><time>2016-06-18T06:58:22.314Z</time></trkpt><trkpt lat="57.92317167" lon="14.09535333"><ele>159.0</ele><time>2016-06-18T06:58:23.295Z</time></trkpt><trkpt lat="57.92333333" lon="14.09530833"><ele>159.0</ele><time>2016-06-18T06:58:24.315Z</time></trkpt><trkpt lat="57.92333333" lon="14.09530833"><ele>159.0</ele><time>2016-06-18T06:58:25.319Z</time></trkpt><trkpt lat="57.92349833" lon="14.09526667"><ele>159.0</ele><time>2016-06-18T06:58:26.286Z</time></trkpt><trkpt lat="57.92349833" lon="14.09526667"><ele>159.0</ele><time>2016-06-18T06:58:27.311Z</time></trkpt><trkpt lat="57.92366833" lon="14.09523333"><ele>159.0</ele><time>2016-06-18T06:58:28.318Z</time></trkpt><trkpt lat="57.92366833" lon="14.09523333"><ele>159.0</ele><time>2016-06-18T06:58:29.286Z</time></trkpt><trkpt lat="57.92384167" lon="14.09520333"><ele>160.0</ele><time>2016-06-18T06:58:30.293Z</time></trkpt><trkpt lat="57.92384167" lon="14.09520333"><ele>160.0</ele><time>2016-06-18T06:58:31.285Z</time></trkpt><trkpt lat="57.924015" lon="14.095175"><ele>160.0</ele><time>2016-06-18T06:58:32.318Z</time></trkpt><trkpt lat="57.92409667" lon="14.09516333"><ele>160.0</ele><time>2016-06-18T06:58:33.284Z</time></trkpt><trkpt lat="57.92409667" lon="14.09516333"><ele>160.0</ele><time>2016-06-18T06:58:34.305Z</time></trkpt><trkpt lat="57.92425667" lon="14.09514167"><ele>159.0</ele><time>2016-06-18T06:58:35.291Z</time></trkpt><trkpt lat="57.92425667" lon="14.09514167"><ele>159.0</ele><time>2016-06-18T06:58:36.283Z</time></trkpt><trkpt lat="57.92441667" lon="14.09512833"><ele>159.0</ele><time>2016-06-18T06:58:37.290Z</time></trkpt><trkpt lat="57.92449667" lon="14.09512167"><ele>159.0</ele><time>2016-06-18T06:58:38.318Z</time></trkpt><trkpt lat="57.92449667" lon="14.09512167"><ele>159.0</ele><time>2016-06-18T06:58:39.318Z</time></trkpt><trkpt lat="57.92465667" lon="14.09511"><ele>158.0</ele><time>2016-06-18T06:58:40.284Z</time></trkpt><trkpt lat="57.92465667" lon="14.09511"><ele>158.0</ele><time>2016-06-18T06:58:41.318Z</time></trkpt><trkpt lat="57.924825" lon="14.09510167"><ele>158.0</ele><time>2016-06-18T06:58:42.285Z</time></trkpt><trkpt lat="57.92491167" lon="14.0951"><ele>158.0</ele><time>2016-06-18T06:58:43.288Z</time></trkpt><trkpt lat="57.924995" lon="14.09509833"><ele>158.0</ele><time>2016-06-18T06:58:44.323Z</time></trkpt><trkpt lat="57.924995" lon="14.09509833"><ele>158.0</ele><time>2016-06-18T06:58:45.301Z</time></trkpt><trkpt lat="57.92516167" lon="14.09510167"><ele>158.0</ele><time>2016-06-18T06:58:46.308Z</time></trkpt><trkpt lat="57.92524667" lon="14.095105"><ele>158.0</ele><time>2016-06-18T06:58:47.328Z</time></trkpt><trkpt lat="57.92524667" lon="14.095105"><ele>158.0</ele><time>2016-06-18T06:58:48.316Z</time></trkpt><trkpt lat="57.92541667" lon="14.09510667"><ele>157.0</ele><time>2016-06-18T06:58:49.283Z</time></trkpt><trkpt lat="57.92550333" lon="14.09511"><ele>157.0</ele><time>2016-06-18T06:58:50.317Z</time></trkpt><trkpt lat="57.92559" lon="14.095115"><ele>157.0</ele><time>2016-06-18T06:58:51.303Z</time></trkpt><trkpt lat="57.92559" lon="14.095115"><ele>157.0</ele><time>2016-06-18T06:58:52.286Z</time></trkpt><trkpt lat="57.92576333" lon="14.09512833"><ele>157.0</ele><time>2016-06-18T06:58:53.319Z</time></trkpt><trkpt lat="57.92585" lon="14.095135"><ele>157.0</ele><time>2016-06-18T06:58:54.303Z</time></trkpt><trkpt lat="57.92585" lon="14.095135"><ele>157.0</ele><time>2016-06-18T06:58:55.286Z</time></trkpt><trkpt lat="57.926025" lon="14.09515833"><ele>157.0</ele><time>2016-06-18T06:58:56.316Z</time></trkpt><trkpt lat="57.926025" lon="14.09515833"><ele>157.0</ele><time>2016-06-18T06:58:57.312Z</time></trkpt><trkpt lat="57.92620167" lon="14.09518"><ele>157.0</ele><time>2016-06-18T06:58:58.320Z</time></trkpt><trkpt lat="57.92620167" lon="14.09518"><ele>157.0</ele><time>2016-06-18T06:58:59.301Z</time></trkpt><trkpt lat="57.92636667" lon="14.09521"><ele>155.0</ele><time>2016-06-18T06:59:00.287Z</time></trkpt><trkpt lat="57.92636667" lon="14.09521"><ele>155.0</ele><time>2016-06-18T06:59:01.288Z</time></trkpt><trkpt lat="57.926525" lon="14.095235"><ele>155.0</ele><time>2016-06-18T06:59:02.294Z</time></trkpt><trkpt lat="57.92660667" lon="14.09524667"><ele>154.0</ele><time>2016-06-18T06:59:03.315Z</time></trkpt><trkpt lat="57.92660667" lon="14.09524667"><ele>154.0</ele><time>2016-06-18T06:59:04.318Z</time></trkpt><trkpt lat="57.92677333" lon="14.09527833"><ele>154.0</ele><time>2016-06-18T06:59:05.285Z</time></trkpt><trkpt lat="57.92677333" lon="14.09527833"><ele>154.0</ele><time>2016-06-18T06:59:06.285Z</time></trkpt><trkpt lat="57.92694667" lon="14.09531333"><ele>153.0</ele><time>2016-06-18T06:59:07.318Z</time></trkpt><trkpt lat="57.92704" lon="14.09533667"><ele>153.0</ele><time>2016-06-18T06:59:08.298Z</time></trkpt><trkpt lat="57.92704" lon="14.09533667"><ele>153.0</ele><time>2016-06-18T06:59:09.282Z</time></trkpt><trkpt lat="57.927225" lon="14.095385"><ele>153.0</ele><time>2016-06-18T06:59:10.323Z</time></trkpt><trkpt lat="57.927225" lon="14.095385"><ele>153.0</ele><time>2016-06-18T06:59:11.296Z</time></trkpt><trkpt lat="57.927405" lon="14.09544"><ele>152.0</ele><time>2016-06-18T06:59:12.287Z</time></trkpt><trkpt lat="57.92749333" lon="14.09546667"><ele>152.0</ele><time>2016-06-18T06:59:13.316Z</time></trkpt><trkpt lat="57.92749333" lon="14.09546667"><ele>152.0</ele><time>2016-06-18T06:59:14.297Z</time></trkpt><trkpt lat="57.92766333" lon="14.09553333"><ele>152.0</ele><time>2016-06-18T06:59:15.318Z</time></trkpt><trkpt lat="57.92766333" lon="14.09553333"><ele>152.0</ele><time>2016-06-18T06:59:16.295Z</time></trkpt><trkpt lat="57.92783" lon="14.09559833"><ele>152.0</ele><time>2016-06-18T06:59:17.302Z</time></trkpt><trkpt lat="57.92783" lon="14.09559833"><ele>152.0</ele><time>2016-06-18T06:59:18.291Z</time></trkpt><trkpt lat="57.92799667" lon="14.09566667"><ele>151.0</ele><time>2016-06-18T06:59:19.315Z</time></trkpt><trkpt lat="57.928085" lon="14.09570333"><ele>150.0</ele><time>2016-06-18T06:59:20.287Z</time></trkpt><trkpt lat="57.928085" lon="14.09570333"><ele>150.0</ele><time>2016-06-18T06:59:21.308Z</time></trkpt><trkpt lat="57.92827667" lon="14.09577667"><ele>149.0</ele><time>2016-06-18T06:59:22.298Z</time></trkpt><trkpt lat="57.928375" lon="14.09581833"><ele>150.0</ele><time>2016-06-18T06:59:23.302Z</time></trkpt><trkpt lat="57.928375" lon="14.09581833"><ele>150.0</ele><time>2016-06-18T06:59:24.285Z</time></trkpt><trkpt lat="57.92856833" lon="14.09590167"><ele>150.0</ele><time>2016-06-18T06:59:25.322Z</time></trkpt><trkpt lat="57.92856833" lon="14.09590167"><ele>150.0</ele><time>2016-06-18T06:59:26.313Z</time></trkpt><trkpt lat="57.92876833" lon="14.09598333"><ele>149.0</ele><time>2016-06-18T06:59:27.319Z</time></trkpt><trkpt lat="57.92876833" lon="14.09598333"><ele>149.0</ele><time>2016-06-18T06:59:28.300Z</time></trkpt><trkpt lat="57.928965" lon="14.09607833"><ele>147.0</ele><time>2016-06-18T06:59:29.288Z</time></trkpt><trkpt lat="57.928965" lon="14.09607833"><ele>147.0</ele><time>2016-06-18T06:59:30.316Z</time></trkpt><trkpt lat="57.929165" lon="14.09615833"><ele>147.0</ele><time>2016-06-18T06:59:31.283Z</time></trkpt><trkpt lat="57.92926833" lon="14.096195"><ele>147.0</ele><time>2016-06-18T06:59:32.285Z</time></trkpt><trkpt lat="57.92926833" lon="14.096195"><ele>147.0</ele><time>2016-06-18T06:59:33.299Z</time></trkpt><trkpt lat="57.92947333" lon="14.09626"><ele>147.0</ele><time>2016-06-18T06:59:34.308Z</time></trkpt><trkpt lat="57.92947333" lon="14.09626"><ele>147.0</ele><time>2016-06-18T06:59:35.292Z</time></trkpt><trkpt lat="57.92968333" lon="14.09633167"><ele>148.0</ele><time>2016-06-18T06:59:36.287Z</time></trkpt><trkpt lat="57.92968333" lon="14.09633167"><ele>148.0</ele><time>2016-06-18T06:59:37.306Z</time></trkpt><trkpt lat="57.92990167" lon="14.09640667"><ele>147.0</ele><time>2016-06-18T06:59:38.318Z</time></trkpt><trkpt lat="57.92990167" lon="14.09640667"><ele>147.0</ele><time>2016-06-18T06:59:39.286Z</time></trkpt><trkpt lat="57.93012333" lon="14.09649"><ele>147.0</ele><time>2016-06-18T06:59:40.319Z</time></trkpt><trkpt lat="57.93012333" lon="14.09649"><ele>147.0</ele><time>2016-06-18T06:59:41.316Z</time></trkpt><trkpt lat="57.93034833" lon="14.09656167"><ele>146.0</ele><time>2016-06-18T06:59:42.282Z</time></trkpt><trkpt lat="57.93046333" lon="14.096595"><ele>145.0</ele><time>2016-06-18T06:59:43.318Z</time></trkpt><trkpt lat="57.93046333" lon="14.096595"><ele>145.0</ele><time>2016-06-18T06:59:44.311Z</time></trkpt><trkpt lat="57.93069167" lon="14.09666"><ele>145.0</ele><time>2016-06-18T06:59:45.318Z</time></trkpt><trkpt lat="57.93069167" lon="14.09666"><ele>145.0</ele><time>2016-06-18T06:59:46.300Z</time></trkpt><trkpt lat="57.93091833" lon="14.09671167"><ele>144.0</ele><time>2016-06-18T06:59:47.285Z</time></trkpt><trkpt lat="57.93091833" lon="14.09671167"><ele>144.0</ele><time>2016-06-18T06:59:48.313Z</time></trkpt><trkpt lat="57.93114167" lon="14.09676667"><ele>143.0</ele><time>2016-06-18T06:59:49.320Z</time></trkpt><trkpt lat="57.93125167" lon="14.09679167"><ele>143.0</ele><time>2016-06-18T06:59:50.313Z</time></trkpt><trkpt lat="57.93125167" lon="14.09679167"><ele>143.0</ele><time>2016-06-18T06:59:51.290Z</time></trkpt><trkpt lat="57.93147667" lon="14.09684167"><ele>142.0</ele><time>2016-06-18T06:59:52.299Z</time></trkpt><trkpt lat="57.93159" lon="14.09686167"><ele>142.0</ele><time>2016-06-18T06:59:53.319Z</time></trkpt><trkpt lat="57.93159" lon="14.09686167"><ele>142.0</ele><time>2016-06-18T06:59:54.307Z</time></trkpt><trkpt lat="57.93182167" lon="14.09689833"><ele>141.0</ele><time>2016-06-18T06:59:55.315Z</time></trkpt><trkpt lat="57.93194" lon="14.09691833"><ele>140.0</ele><time>2016-06-18T06:59:56.282Z</time></trkpt><trkpt lat="57.93194" lon="14.09691833"><ele>140.0</ele><time>2016-06-18T06:59:57.315Z</time></trkpt><trkpt lat="57.93217833" lon="14.09696333"><ele>140.0</ele><time>2016-06-18T06:59:58.290Z</time></trkpt><trkpt lat="57.9323" lon="14.096985"><ele>139.0</ele><time>2016-06-18T06:59:59.285Z</time></trkpt><trkpt lat="57.93242" lon="14.09700333"><ele>139.0</ele><time>2016-06-18T07:00:00.282Z</time></trkpt><trkpt lat="57.93242" lon="14.09700333"><ele>139.0</ele><time>2016-06-18T07:00:01.303Z</time></trkpt><trkpt lat="57.93265167" lon="14.09703833"><ele>138.0</ele><time>2016-06-18T07:00:02.319Z</time></trkpt><trkpt lat="57.93265167" lon="14.09703833"><ele>138.0</ele><time>2016-06-18T07:00:03.285Z</time></trkpt><trkpt lat="57.93287667" lon="14.09707"><ele>137.0</ele><time>2016-06-18T07:00:04.300Z</time></trkpt><trkpt lat="57.93287667" lon="14.09707"><ele>137.0</ele><time>2016-06-18T07:00:05.284Z</time></trkpt><trkpt lat="57.93310167" lon="14.09710167"><ele>136.0</ele><time>2016-06-18T07:00:06.288Z</time></trkpt><trkpt lat="57.93310167" lon="14.09710167"><ele>136.0</ele><time>2016-06-18T07:00:07.289Z</time></trkpt><trkpt lat="57.933325" lon="14.09713167"><ele>136.0</ele><time>2016-06-18T07:00:08.296Z</time></trkpt><trkpt lat="57.933325" lon="14.09713167"><ele>136.0</ele><time>2016-06-18T07:00:09.319Z</time></trkpt><trkpt lat="57.93355167" lon="14.09716333"><ele>135.0</ele><time>2016-06-18T07:00:10.286Z</time></trkpt><trkpt lat="57.93355167" lon="14.09716333"><ele>135.0</ele><time>2016-06-18T07:00:11.289Z</time></trkpt><trkpt lat="57.93377" lon="14.09719833"><ele>134.0</ele><time>2016-06-18T07:00:12.301Z</time></trkpt><trkpt lat="57.93387333" lon="14.09721167"><ele>135.0</ele><time>2016-06-18T07:00:13.285Z</time></trkpt><trkpt lat="57.93387333" lon="14.09721167"><ele>135.0</ele><time>2016-06-18T07:00:14.307Z</time></trkpt><trkpt lat="57.93407667" lon="14.09724167"><ele>134.0</ele><time>2016-06-18T07:00:15.319Z</time></trkpt><trkpt lat="57.93407667" lon="14.09724167"><ele>134.0</ele><time>2016-06-18T07:00:16.302Z</time></trkpt><trkpt lat="57.93428" lon="14.09727"><ele>134.0</ele><time>2016-06-18T07:00:17.285Z</time></trkpt><trkpt lat="57.93428" lon="14.09727"><ele>134.0</ele><time>2016-06-18T07:00:18.292Z</time></trkpt><trkpt lat="57.93449" lon="14.09730333"><ele>134.0</ele><time>2016-06-18T07:00:19.299Z</time></trkpt><trkpt lat="57.93459333" lon="14.09732333"><ele>134.0</ele><time>2016-06-18T07:00:20.321Z</time></trkpt><trkpt lat="57.93459333" lon="14.09732333"><ele>134.0</ele><time>2016-06-18T07:00:21.299Z</time></trkpt><trkpt lat="57.93480167" lon="14.09735667"><ele>134.0</ele><time>2016-06-18T07:00:22.306Z</time></trkpt><trkpt lat="57.93490833" lon="14.09737333"><ele>133.0</ele><time>2016-06-18T07:00:23.308Z</time></trkpt><trkpt lat="57.93490833" lon="14.09737333"><ele>133.0</ele><time>2016-06-18T07:00:24.308Z</time></trkpt><trkpt lat="57.93511667" lon="14.09741333"><ele>133.0</ele><time>2016-06-18T07:00:25.282Z</time></trkpt><trkpt lat="57.93521833" lon="14.09743667"><ele>132.0</ele><time>2016-06-18T07:00:26.328Z</time></trkpt><trkpt lat="57.93521833" lon="14.09743667"><ele>132.0</ele><time>2016-06-18T07:00:27.306Z</time></trkpt><trkpt lat="57.93541833" lon="14.09747833"><ele>132.0</ele><time>2016-06-18T07:00:28.315Z</time></trkpt><trkpt lat="57.93541833" lon="14.09747833"><ele>132.0</ele><time>2016-06-18T07:00:29.301Z</time></trkpt><trkpt lat="57.93561333" lon="14.09752"><ele>132.0</ele><time>2016-06-18T07:00:30.283Z</time></trkpt><trkpt lat="57.93561333" lon="14.09752"><ele>132.0</ele><time>2016-06-18T07:00:31.320Z</time></trkpt><trkpt lat="57.93580667" lon="14.09756"><ele>132.0</ele><time>2016-06-18T07:00:32.289Z</time></trkpt><trkpt lat="57.93580667" lon="14.09756"><ele>132.0</ele><time>2016-06-18T07:00:33.311Z</time></trkpt><trkpt lat="57.93599667" lon="14.09759667"><ele>132.0</ele><time>2016-06-18T07:00:34.317Z</time></trkpt><trkpt lat="57.93599667" lon="14.09759667"><ele>132.0</ele><time>2016-06-18T07:00:35.284Z</time></trkpt><trkpt lat="57.93618833" lon="14.09763833"><ele>132.0</ele><time>2016-06-18T07:00:36.298Z</time></trkpt><trkpt lat="57.93618833" lon="14.09763833"><ele>132.0</ele><time>2016-06-18T07:00:37.321Z</time></trkpt><trkpt lat="57.93638333" lon="14.09768667"><ele>132.0</ele><time>2016-06-18T07:00:38.308Z</time></trkpt><trkpt lat="57.93638333" lon="14.09768667"><ele>132.0</ele><time>2016-06-18T07:00:39.300Z</time></trkpt><trkpt lat="57.93657667" lon="14.09773333"><ele>131.0</ele><time>2016-06-18T07:00:40.306Z</time></trkpt><trkpt lat="57.93667" lon="14.09775167"><ele>131.0</ele><time>2016-06-18T07:00:41.287Z</time></trkpt><trkpt lat="57.93667" lon="14.09775167"><ele>131.0</ele><time>2016-06-18T07:00:42.293Z</time></trkpt><trkpt lat="57.936855" lon="14.09779333"><ele>131.0</ele><time>2016-06-18T07:00:43.300Z</time></trkpt><trkpt lat="57.93694667" lon="14.097815"><ele>131.0</ele><time>2016-06-18T07:00:44.314Z</time></trkpt><trkpt lat="57.93694667" lon="14.097815"><ele>131.0</ele><time>2016-06-18T07:00:45.299Z</time></trkpt><trkpt lat="57.937125" lon="14.09786"><ele>131.0</ele><time>2016-06-18T07:00:46.307Z</time></trkpt><trkpt lat="57.937215" lon="14.09788667"><ele>131.0</ele><time>2016-06-18T07:00:47.292Z</time></trkpt><trkpt lat="57.937215" lon="14.09788667"><ele>131.0</ele><time>2016-06-18T07:00:48.313Z</time></trkpt><trkpt lat="57.93739333" lon="14.09793333"><ele>131.0</ele><time>2016-06-18T07:00:49.284Z</time></trkpt><trkpt lat="57.93748167" lon="14.09795667"><ele>131.0</ele><time>2016-06-18T07:00:50.314Z</time></trkpt><trkpt lat="57.93748167" lon="14.09795667"><ele>131.0</ele><time>2016-06-18T07:00:51.318Z</time></trkpt><trkpt lat="57.937655" lon="14.09800167"><ele>131.0</ele><time>2016-06-18T07:00:52.285Z</time></trkpt><trkpt lat="57.93774333" lon="14.09802833"><ele>131.0</ele><time>2016-06-18T07:00:53.293Z</time></trkpt><trkpt lat="57.937835" lon="14.09805333"><ele>131.0</ele><time>2016-06-18T07:00:54.290Z</time></trkpt><trkpt lat="57.937835" lon="14.09805333"><ele>131.0</ele><time>2016-06-18T07:00:55.316Z</time></trkpt><trkpt lat="57.93802167" lon="14.09810833"><ele>131.0</ele><time>2016-06-18T07:00:56.310Z</time></trkpt><trkpt lat="57.93802167" lon="14.09810833"><ele>131.0</ele><time>2016-06-18T07:00:57.298Z</time></trkpt><trkpt lat="57.93820667" lon="14.09816167"><ele>131.0</ele><time>2016-06-18T07:00:58.305Z</time></trkpt><trkpt lat="57.93820667" lon="14.09816167"><ele>131.0</ele><time>2016-06-18T07:00:59.289Z</time></trkpt><trkpt lat="57.93838667" lon="14.09821"><ele>131.0</ele><time>2016-06-18T07:01:00.286Z</time></trkpt><trkpt lat="57.93838667" lon="14.09821"><ele>131.0</ele><time>2016-06-18T07:01:01.293Z</time></trkpt><trkpt lat="57.93856167" lon="14.09825833"><ele>131.0</ele><time>2016-06-18T07:01:02.300Z</time></trkpt><trkpt lat="57.93856167" lon="14.09825833"><ele>131.0</ele><time>2016-06-18T07:01:03.284Z</time></trkpt><trkpt lat="57.938735" lon="14.09830833"><ele>131.0</ele><time>2016-06-18T07:01:04.319Z</time></trkpt><trkpt lat="57.938735" lon="14.09830833"><ele>131.0</ele><time>2016-06-18T07:01:05.300Z</time></trkpt><trkpt lat="57.93890167" lon="14.09836167"><ele>131.0</ele><time>2016-06-18T07:01:06.306Z</time></trkpt><trkpt lat="57.93890167" lon="14.09836167"><ele>131.0</ele><time>2016-06-18T07:01:07.291Z</time></trkpt><trkpt lat="57.93906667" lon="14.09841833"><ele>131.0</ele><time>2016-06-18T07:01:08.298Z</time></trkpt><trkpt lat="57.93906667" lon="14.09841833"><ele>131.0</ele><time>2016-06-18T07:01:09.283Z</time></trkpt><trkpt lat="57.93922833" lon="14.09847833"><ele>131.0</ele><time>2016-06-18T07:01:10.282Z</time></trkpt><trkpt lat="57.93922833" lon="14.09847833"><ele>131.0</ele><time>2016-06-18T07:01:11.315Z</time></trkpt><trkpt lat="57.93939333" lon="14.09853"><ele>131.0</ele><time>2016-06-18T07:01:12.287Z</time></trkpt><trkpt lat="57.93947833" lon="14.098555"><ele>131.0</ele><time>2016-06-18T07:01:13.311Z</time></trkpt><trkpt lat="57.93947833" lon="14.098555"><ele>131.0</ele><time>2016-06-18T07:01:14.293Z</time></trkpt><trkpt lat="57.93964667" lon="14.09861167"><ele>130.0</ele><time>2016-06-18T07:01:15.326Z</time></trkpt><trkpt lat="57.93964667" lon="14.09861167"><ele>130.0</ele><time>2016-06-18T07:01:16.282Z</time></trkpt><trkpt lat="57.93981833" lon="14.09867833"><ele>131.0</ele><time>2016-06-18T07:01:17.290Z</time></trkpt><trkpt lat="57.939905" lon="14.09870833"><ele>131.0</ele><time>2016-06-18T07:01:18.283Z</time></trkpt><trkpt lat="57.939905" lon="14.09870833"><ele>131.0</ele><time>2016-06-18T07:01:19.288Z</time></trkpt><trkpt lat="57.94007667" lon="14.09876167"><ele>130.0</ele><time>2016-06-18T07:01:20.295Z</time></trkpt><trkpt lat="57.94016167" lon="14.09878833"><ele>130.0</ele><time>2016-06-18T07:01:21.282Z</time></trkpt><trkpt lat="57.94016167" lon="14.09878833"><ele>130.0</ele><time>2016-06-18T07:01:22.295Z</time></trkpt><trkpt lat="57.94032667" lon="14.09884167"><ele>130.0</ele><time>2016-06-18T07:01:23.302Z</time></trkpt><trkpt lat="57.94032667" lon="14.09884167"><ele>130.0</ele><time>2016-06-18T07:01:24.285Z</time></trkpt><trkpt lat="57.940475" lon="14.09890333"><ele>130.0</ele><time>2016-06-18T07:01:25.298Z</time></trkpt><trkpt lat="57.940475" lon="14.09890333"><ele>130.0</ele><time>2016-06-18T07:01:26.293Z</time></trkpt><trkpt lat="57.94062" lon="14.09897167"><ele>131.0</ele><time>2016-06-18T07:01:27.313Z</time></trkpt><trkpt lat="57.94062" lon="14.09897167"><ele>131.0</ele><time>2016-06-18T07:01:28.296Z</time></trkpt><trkpt lat="57.94074333" lon="14.099015"><ele>132.0</ele><time>2016-06-18T07:01:29.328Z</time></trkpt><trkpt lat="57.94074333" lon="14.099015"><ele>132.0</ele><time>2016-06-18T07:01:30.301Z</time></trkpt><trkpt lat="57.94087167" lon="14.09904667"><ele>133.0</ele><time>2016-06-18T07:01:31.308Z</time></trkpt><trkpt lat="57.94093667" lon="14.09906833"><ele>133.0</ele><time>2016-06-18T07:01:32.305Z</time></trkpt><trkpt lat="57.94093667" lon="14.09906833"><ele>133.0</ele><time>2016-06-18T07:01:33.296Z</time></trkpt><trkpt lat="57.94107833" lon="14.09911833"><ele>134.0</ele><time>2016-06-18T07:01:34.309Z</time></trkpt><trkpt lat="57.94107833" lon="14.09911833"><ele>134.0</ele><time>2016-06-18T07:01:35.292Z</time></trkpt><trkpt lat="57.94123167" lon="14.09917"><ele>135.0</ele><time>2016-06-18T07:01:36.325Z</time></trkpt><trkpt lat="57.94123167" lon="14.09917"><ele>135.0</ele><time>2016-06-18T07:01:37.307Z</time></trkpt><trkpt lat="57.94138667" lon="14.09923333"><ele>135.0</ele><time>2016-06-18T07:01:38.314Z</time></trkpt><trkpt lat="57.94138667" lon="14.09923333"><ele>135.0</ele><time>2016-06-18T07:01:39.301Z</time></trkpt><trkpt lat="57.941535" lon="14.099295"><ele>136.0</ele><time>2016-06-18T07:01:40.283Z</time></trkpt><trkpt lat="57.941535" lon="14.099295"><ele>136.0</ele><time>2016-06-18T07:01:41.310Z</time></trkpt><trkpt lat="57.94168333" lon="14.099355"><ele>136.0</ele><time>2016-06-18T07:01:42.317Z</time></trkpt><trkpt lat="57.941755" lon="14.09938333"><ele>136.0</ele><time>2016-06-18T07:01:43.307Z</time></trkpt><trkpt lat="57.941755" lon="14.09938333"><ele>136.0</ele><time>2016-06-18T07:01:44.290Z</time></trkpt><trkpt lat="57.941895" lon="14.09944667"><ele>137.0</ele><time>2016-06-18T07:01:45.313Z</time></trkpt><trkpt lat="57.941895" lon="14.09944667"><ele>137.0</ele><time>2016-06-18T07:01:46.294Z</time></trkpt><trkpt lat="57.94203167" lon="14.09950167"><ele>137.0</ele><time>2016-06-18T07:01:47.304Z</time></trkpt><trkpt lat="57.94203167" lon="14.09950167"><ele>137.0</ele><time>2016-06-18T07:01:48.286Z</time></trkpt><trkpt lat="57.94215333" lon="14.09956167"><ele>137.0</ele><time>2016-06-18T07:01:49.288Z</time></trkpt><trkpt lat="57.942215" lon="14.09958833"><ele>138.0</ele><time>2016-06-18T07:01:50.285Z</time></trkpt><trkpt lat="57.942215" lon="14.09958833"><ele>138.0</ele><time>2016-06-18T07:01:51.307Z</time></trkpt><trkpt lat="57.942335" lon="14.09963667"><ele>139.0</ele><time>2016-06-18T07:01:52.297Z</time></trkpt><trkpt lat="57.942335" lon="14.09963667"><ele>139.0</ele><time>2016-06-18T07:01:53.303Z</time></trkpt><trkpt lat="57.94246833" lon="14.09968333"><ele>139.0</ele><time>2016-06-18T07:01:54.312Z</time></trkpt><trkpt lat="57.94246833" lon="14.09968333"><ele>139.0</ele><time>2016-06-18T07:01:55.294Z</time></trkpt><trkpt lat="57.942605" lon="14.09973833"><ele>139.0</ele><time>2016-06-18T07:01:56.318Z</time></trkpt><trkpt lat="57.942605" lon="14.09973833"><ele>139.0</ele><time>2016-06-18T07:01:57.308Z</time></trkpt><trkpt lat="57.94275167" lon="14.099805"><ele>139.0</ele><time>2016-06-18T07:01:58.283Z</time></trkpt><trkpt lat="57.94282" lon="14.09983333"><ele>139.0</ele><time>2016-06-18T07:01:59.308Z</time></trkpt><trkpt lat="57.94282" lon="14.09983333"><ele>139.0</ele><time>2016-06-18T07:02:00.291Z</time></trkpt><trkpt lat="57.94296167" lon="14.09989833"><ele>139.0</ele><time>2016-06-18T07:02:01.302Z</time></trkpt><trkpt lat="57.94296167" lon="14.09989833"><ele>139.0</ele><time>2016-06-18T07:02:02.303Z</time></trkpt><trkpt lat="57.943105" lon="14.09996833"><ele>138.0</ele><time>2016-06-18T07:02:03.310Z</time></trkpt><trkpt lat="57.943105" lon="14.09996833"><ele>138.0</ele><time>2016-06-18T07:02:04.284Z</time></trkpt><trkpt lat="57.94325" lon="14.100035"><ele>139.0</ele><time>2016-06-18T07:02:05.321Z</time></trkpt><trkpt lat="57.94325" lon="14.100035"><ele>139.0</ele><time>2016-06-18T07:02:06.307Z</time></trkpt><trkpt lat="57.943395" lon="14.10010833"><ele>139.0</ele><time>2016-06-18T07:02:07.321Z</time></trkpt><trkpt lat="57.943395" lon="14.10010833"><ele>139.0</ele><time>2016-06-18T07:02:08.304Z</time></trkpt><trkpt lat="57.94354333" lon="14.10017167"><ele>139.0</ele><time>2016-06-18T07:02:09.283Z</time></trkpt><trkpt lat="57.94354333" lon="14.10017167"><ele>139.0</ele><time>2016-06-18T07:02:10.320Z</time></trkpt><trkpt lat="57.94368833" lon="14.10023667"><ele>140.0</ele><time>2016-06-18T07:02:11.315Z</time></trkpt><trkpt lat="57.94376" lon="14.100265"><ele>139.0</ele><time>2016-06-18T07:02:12.286Z</time></trkpt><trkpt lat="57.94382667" lon="14.10029167"><ele>139.0</ele><time>2016-06-18T07:02:13.310Z</time></trkpt><trkpt lat="57.94382667" lon="14.10029167"><ele>139.0</ele><time>2016-06-18T07:02:14.294Z</time></trkpt><trkpt lat="57.943965" lon="14.10036"><ele>140.0</ele><time>2016-06-18T07:02:15.301Z</time></trkpt><trkpt lat="57.943965" lon="14.10036"><ele>140.0</ele><time>2016-06-18T07:02:16.290Z</time></trkpt><trkpt lat="57.94411833" lon="14.10043333"><ele>140.0</ele><time>2016-06-18T07:02:17.315Z</time></trkpt><trkpt lat="57.94411833" lon="14.10043333"><ele>140.0</ele><time>2016-06-18T07:02:18.310Z</time></trkpt><trkpt lat="57.944275" lon="14.1005"><ele>140.0</ele><time>2016-06-18T07:02:19.320Z</time></trkpt><trkpt lat="57.94435" lon="14.10053833"><ele>140.0</ele><time>2016-06-18T07:02:20.315Z</time></trkpt><trkpt lat="57.94435" lon="14.10053833"><ele>140.0</ele><time>2016-06-18T07:02:21.298Z</time></trkpt><trkpt lat="57.94451" lon="14.10062833"><ele>141.0</ele><time>2016-06-18T07:02:22.304Z</time></trkpt><trkpt lat="57.944595" lon="14.10067167"><ele>141.0</ele><time>2016-06-18T07:02:23.287Z</time></trkpt><trkpt lat="57.944595" lon="14.10067167"><ele>141.0</ele><time>2016-06-18T07:02:24.286Z</time></trkpt><trkpt lat="57.94477" lon="14.10076"><ele>141.0</ele><time>2016-06-18T07:02:25.303Z</time></trkpt><trkpt lat="57.94477" lon="14.10076"><ele>141.0</ele><time>2016-06-18T07:02:26.309Z</time></trkpt><trkpt lat="57.94493167" lon="14.10084167"><ele>140.0</ele><time>2016-06-18T07:02:27.299Z</time></trkpt><trkpt lat="57.94493167" lon="14.10084167"><ele>140.0</ele><time>2016-06-18T07:02:28.282Z</time></trkpt><trkpt lat="57.94509667" lon="14.10091667"><ele>141.0</ele><time>2016-06-18T07:02:29.282Z</time></trkpt><trkpt lat="57.94509667" lon="14.10091667"><ele>141.0</ele><time>2016-06-18T07:02:30.301Z</time></trkpt><trkpt lat="57.94525333" lon="14.101005"><ele>141.0</ele><time>2016-06-18T07:02:31.307Z</time></trkpt><trkpt lat="57.94525333" lon="14.101005"><ele>141.0</ele><time>2016-06-18T07:02:32.290Z</time></trkpt><trkpt lat="57.945415" lon="14.1011"><ele>141.0</ele><time>2016-06-18T07:02:33.318Z</time></trkpt><trkpt lat="57.945415" lon="14.1011"><ele>141.0</ele><time>2016-06-18T07:02:34.293Z</time></trkpt><trkpt lat="57.94558" lon="14.10118667"><ele>141.0</ele><time>2016-06-18T07:02:35.301Z</time></trkpt><trkpt lat="57.94566833" lon="14.10123167"><ele>141.0</ele><time>2016-06-18T07:02:36.288Z</time></trkpt><trkpt lat="57.94566833" lon="14.10123167"><ele>141.0</ele><time>2016-06-18T07:02:37.301Z</time></trkpt><trkpt lat="57.94584" lon="14.10132667"><ele>141.0</ele><time>2016-06-18T07:02:38.321Z</time></trkpt><trkpt lat="57.94584" lon="14.10132667"><ele>141.0</ele><time>2016-06-18T07:02:39.301Z</time></trkpt><trkpt lat="57.946015" lon="14.10141833"><ele>141.0</ele><time>2016-06-18T07:02:40.305Z</time></trkpt><trkpt lat="57.946015" lon="14.10141833"><ele>141.0</ele><time>2016-06-18T07:02:41.298Z</time></trkpt><trkpt lat="57.94619667" lon="14.10150167"><ele>141.0</ele><time>2016-06-18T07:02:42.305Z</time></trkpt><trkpt lat="57.94619667" lon="14.10150167"><ele>141.0</ele><time>2016-06-18T07:02:43.289Z</time></trkpt><trkpt lat="57.946375" lon="14.10157833"><ele>140.0</ele><time>2016-06-18T07:02:44.322Z</time></trkpt><trkpt lat="57.946375" lon="14.10157833"><ele>140.0</ele><time>2016-06-18T07:02:45.314Z</time></trkpt><trkpt lat="57.94655833" lon="14.10167167"><ele>139.0</ele><time>2016-06-18T07:02:46.320Z</time></trkpt><trkpt lat="57.94664833" lon="14.10172167"><ele>138.0</ele><time>2016-06-18T07:02:47.283Z</time></trkpt><trkpt lat="57.94664833" lon="14.10172167"><ele>138.0</ele><time>2016-06-18T07:02:48.285Z</time></trkpt><trkpt lat="57.946835" lon="14.10181167"><ele>138.0</ele><time>2016-06-18T07:02:49.293Z</time></trkpt><trkpt lat="57.94693" lon="14.10185333"><ele>138.0</ele><time>2016-06-18T07:02:50.288Z</time></trkpt><trkpt lat="57.94693" lon="14.10185333"><ele>138.0</ele><time>2016-06-18T07:02:51.282Z</time></trkpt><trkpt lat="57.94711667" lon="14.10193667"><ele>138.0</ele><time>2016-06-18T07:02:52.293Z</time></trkpt><trkpt lat="57.94720833" lon="14.10197833"><ele>138.0</ele><time>2016-06-18T07:02:53.291Z</time></trkpt><trkpt lat="57.94720833" lon="14.10197833"><ele>138.0</ele><time>2016-06-18T07:02:54.290Z</time></trkpt><trkpt lat="57.94739167" lon="14.10207"><ele>138.0</ele><time>2016-06-18T07:02:55.297Z</time></trkpt><trkpt lat="57.94748167" lon="14.102115"><ele>138.0</ele><time>2016-06-18T07:02:56.315Z</time></trkpt><trkpt lat="57.94748167" lon="14.102115"><ele>138.0</ele><time>2016-06-18T07:02:57.296Z</time></trkpt><trkpt lat="57.94766667" lon="14.102215"><ele>137.0</ele><time>2016-06-18T07:02:58.307Z</time></trkpt><trkpt lat="57.94766667" lon="14.102215"><ele>137.0</ele><time>2016-06-18T07:02:59.286Z</time></trkpt><trkpt lat="57.94785167" lon="14.10231167"><ele>137.0</ele><time>2016-06-18T07:03:00.308Z</time></trkpt><trkpt lat="57.94785167" lon="14.10231167"><ele>137.0</ele><time>2016-06-18T07:03:01.298Z</time></trkpt><trkpt lat="57.94804" lon="14.10241"><ele>136.0</ele><time>2016-06-18T07:03:02.305Z</time></trkpt><trkpt lat="57.94804" lon="14.10241"><ele>136.0</ele><time>2016-06-18T07:03:03.290Z</time></trkpt><trkpt lat="57.94822833" lon="14.10250667"><ele>135.0</ele><time>2016-06-18T07:03:04.290Z</time></trkpt><trkpt lat="57.94832333" lon="14.10255167"><ele>135.0</ele><time>2016-06-18T07:03:05.314Z</time></trkpt><trkpt lat="57.94832333" lon="14.10255167"><ele>135.0</ele><time>2016-06-18T07:03:06.296Z</time></trkpt><trkpt lat="57.948515" lon="14.10265333"><ele>135.0</ele><time>2016-06-18T07:03:07.282Z</time></trkpt><trkpt lat="57.948615" lon="14.1027"><ele>134.0</ele><time>2016-06-18T07:03:08.305Z</time></trkpt><trkpt lat="57.948615" lon="14.1027"><ele>134.0</ele><time>2016-06-18T07:03:09.289Z</time></trkpt><trkpt lat="57.94880833" lon="14.10279167"><ele>134.0</ele><time>2016-06-18T07:03:10.313Z</time></trkpt><trkpt lat="57.94880833" lon="14.10279167"><ele>134.0</ele><time>2016-06-18T07:03:11.310Z</time></trkpt><trkpt lat="57.94898833" lon="14.10288167"><ele>134.0</ele><time>2016-06-18T07:03:12.282Z</time></trkpt><trkpt lat="57.94908333" lon="14.10292833"><ele>134.0</ele><time>2016-06-18T07:03:13.308Z</time></trkpt><trkpt lat="57.94908333" lon="14.10292833"><ele>134.0</ele><time>2016-06-18T07:03:14.293Z</time></trkpt><trkpt lat="57.949275" lon="14.10302833"><ele>134.0</ele><time>2016-06-18T07:03:15.297Z</time></trkpt><trkpt lat="57.949275" lon="14.10302833"><ele>134.0</ele><time>2016-06-18T07:03:16.296Z</time></trkpt><trkpt lat="57.949465" lon="14.103125"><ele>134.0</ele><time>2016-06-18T07:03:17.303Z</time></trkpt><trkpt lat="57.949465" lon="14.103125"><ele>134.0</ele><time>2016-06-18T07:03:18.287Z</time></trkpt><trkpt lat="57.94965167" lon="14.103225"><ele>134.0</ele><time>2016-06-18T07:03:19.298Z</time></trkpt><trkpt lat="57.94965167" lon="14.103225"><ele>134.0</ele><time>2016-06-18T07:03:20.290Z</time></trkpt><trkpt lat="57.94983667" lon="14.10332333"><ele>134.0</ele><time>2016-06-18T07:03:21.297Z</time></trkpt><trkpt lat="57.94983667" lon="14.10332333"><ele>134.0</ele><time>2016-06-18T07:03:22.283Z</time></trkpt><trkpt lat="57.95001833" lon="14.10342167"><ele>134.0</ele><time>2016-06-18T07:03:23.307Z</time></trkpt><trkpt lat="57.95001833" lon="14.10342167"><ele>134.0</ele><time>2016-06-18T07:03:24.290Z</time></trkpt><trkpt lat="57.950205" lon="14.10351667"><ele>133.0</ele><time>2016-06-18T07:03:25.297Z</time></trkpt><trkpt lat="57.950205" lon="14.10351667"><ele>133.0</ele><time>2016-06-18T07:03:26.320Z</time></trkpt><trkpt lat="57.95039167" lon="14.10360833"><ele>133.0</ele><time>2016-06-18T07:03:27.301Z</time></trkpt><trkpt lat="57.95039167" lon="14.10360833"><ele>133.0</ele><time>2016-06-18T07:03:28.288Z</time></trkpt><trkpt lat="57.95058" lon="14.10370167"><ele>133.0</ele><time>2016-06-18T07:03:29.305Z</time></trkpt><trkpt lat="57.95067333" lon="14.10375167"><ele>133.0</ele><time>2016-06-18T07:03:30.285Z</time></trkpt><trkpt lat="57.95067333" lon="14.10375167"><ele>133.0</ele><time>2016-06-18T07:03:31.321Z</time></trkpt><trkpt lat="57.95085667" lon="14.10385333"><ele>133.0</ele><time>2016-06-18T07:03:32.288Z</time></trkpt><trkpt lat="57.95085667" lon="14.10385333"><ele>133.0</ele><time>2016-06-18T07:03:33.311Z</time></trkpt><trkpt lat="57.95103667" lon="14.10394"><ele>133.0</ele><time>2016-06-18T07:03:34.312Z</time></trkpt><trkpt lat="57.95103667" lon="14.10394"><ele>133.0</ele><time>2016-06-18T07:03:35.309Z</time></trkpt><trkpt lat="57.951215" lon="14.10403333"><ele>133.0</ele><time>2016-06-18T07:03:36.283Z</time></trkpt><trkpt lat="57.951215" lon="14.10403333"><ele>133.0</ele><time>2016-06-18T07:03:37.307Z</time></trkpt><trkpt lat="57.9514" lon="14.104125"><ele>133.0</ele><time>2016-06-18T07:03:38.320Z</time></trkpt><trkpt lat="57.9514" lon="14.104125"><ele>133.0</ele><time>2016-06-18T07:03:39.319Z</time></trkpt><trkpt lat="57.951585" lon="14.10422333"><ele>133.0</ele><time>2016-06-18T07:03:40.286Z</time></trkpt><trkpt lat="57.951585" lon="14.10422333"><ele>133.0</ele><time>2016-06-18T07:03:41.311Z</time></trkpt><trkpt lat="57.95176667" lon="14.10431833"><ele>133.0</ele><time>2016-06-18T07:03:42.322Z</time></trkpt><trkpt lat="57.95176667" lon="14.10431833"><ele>133.0</ele><time>2016-06-18T07:03:43.309Z</time></trkpt><trkpt lat="57.95194667" lon="14.10441167"><ele>133.0</ele><time>2016-06-18T07:03:44.293Z</time></trkpt><trkpt lat="57.95194667" lon="14.10441167"><ele>133.0</ele><time>2016-06-18T07:03:45.287Z</time></trkpt><trkpt lat="57.952125" lon="14.10450667"><ele>133.0</ele><time>2016-06-18T07:03:46.294Z</time></trkpt><trkpt lat="57.952125" lon="14.10450667"><ele>133.0</ele><time>2016-06-18T07:03:47.292Z</time></trkpt><trkpt lat="57.95230167" lon="14.10459833"><ele>133.0</ele><time>2016-06-18T07:03:48.300Z</time></trkpt><trkpt lat="57.95239" lon="14.10463833"><ele>133.0</ele><time>2016-06-18T07:03:49.283Z</time></trkpt><trkpt lat="57.95247833" lon="14.10468167"><ele>133.0</ele><time>2016-06-18T07:03:50.326Z</time></trkpt><trkpt lat="57.95247833" lon="14.10468167"><ele>133.0</ele><time>2016-06-18T07:03:51.321Z</time></trkpt><trkpt lat="57.95265333" lon="14.10477333"><ele>133.0</ele><time>2016-06-18T07:03:52.288Z</time></trkpt><trkpt lat="57.95274167" lon="14.10481833"><ele>133.0</ele><time>2016-06-18T07:03:53.318Z</time></trkpt><trkpt lat="57.95283167" lon="14.10486167"><ele>133.0</ele><time>2016-06-18T07:03:54.314Z</time></trkpt><trkpt lat="57.95283167" lon="14.10486167"><ele>133.0</ele><time>2016-06-18T07:03:55.293Z</time></trkpt><trkpt lat="57.95300833" lon="14.10495"><ele>133.0</ele><time>2016-06-18T07:03:56.300Z</time></trkpt><trkpt lat="57.95300833" lon="14.10495"><ele>133.0</ele><time>2016-06-18T07:03:57.282Z</time></trkpt><trkpt lat="57.95319167" lon="14.10504167"><ele>132.0</ele><time>2016-06-18T07:03:58.310Z</time></trkpt><trkpt lat="57.95328167" lon="14.10508333"><ele>132.0</ele><time>2016-06-18T07:03:59.301Z</time></trkpt><trkpt lat="57.95337333" lon="14.10513167"><ele>132.0</ele><time>2016-06-18T07:04:00.285Z</time></trkpt><trkpt lat="57.95337333" lon="14.10513167"><ele>132.0</ele><time>2016-06-18T07:04:01.319Z</time></trkpt><trkpt lat="57.95356333" lon="14.10522833"><ele>132.0</ele><time>2016-06-18T07:04:02.286Z</time></trkpt><trkpt lat="57.95365833" lon="14.10527667"><ele>131.0</ele><time>2016-06-18T07:04:03.307Z</time></trkpt><trkpt lat="57.95365833" lon="14.10527667"><ele>131.0</ele><time>2016-06-18T07:04:04.291Z</time></trkpt><trkpt lat="57.95385" lon="14.10537833"><ele>131.0</ele><time>2016-06-18T07:04:05.310Z</time></trkpt><trkpt lat="57.95385" lon="14.10537833"><ele>131.0</ele><time>2016-06-18T07:04:06.291Z</time></trkpt><trkpt lat="57.95403667" lon="14.10547167"><ele>131.0</ele><time>2016-06-18T07:04:07.298Z</time></trkpt><trkpt lat="57.95413" lon="14.105515"><ele>131.0</ele><time>2016-06-18T07:04:08.295Z</time></trkpt><trkpt lat="57.95413" lon="14.105515"><ele>131.0</ele><time>2016-06-18T07:04:09.320Z</time></trkpt><trkpt lat="57.95431833" lon="14.10560167"><ele>130.0</ele><time>2016-06-18T07:04:10.288Z</time></trkpt><trkpt lat="57.95441167" lon="14.105645"><ele>130.0</ele><time>2016-06-18T07:04:11.317Z</time></trkpt><trkpt lat="57.95441167" lon="14.105645"><ele>130.0</ele><time>2016-06-18T07:04:12.322Z</time></trkpt><trkpt lat="57.95459333" lon="14.10573167"><ele>130.0</ele><time>2016-06-18T07:04:13.289Z</time></trkpt><trkpt lat="57.95468" lon="14.10577667"><ele>131.0</ele><time>2016-06-18T07:04:14.297Z</time></trkpt><trkpt lat="57.95468" lon="14.10577667"><ele>131.0</ele><time>2016-06-18T07:04:15.321Z</time></trkpt><trkpt lat="57.95485333" lon="14.10585833"><ele>130.0</ele><time>2016-06-18T07:04:16.287Z</time></trkpt><trkpt lat="57.95493833" lon="14.10589333"><ele>131.0</ele><time>2016-06-18T07:04:17.296Z</time></trkpt><trkpt lat="57.95493833" lon="14.10589333"><ele>131.0</ele><time>2016-06-18T07:04:18.290Z</time></trkpt><trkpt lat="57.95511" lon="14.10596167"><ele>130.0</ele><time>2016-06-18T07:04:19.297Z</time></trkpt><trkpt lat="57.955195" lon="14.10600167"><ele>129.0</ele><time>2016-06-18T07:04:20.316Z</time></trkpt><trkpt lat="57.955195" lon="14.10600167"><ele>129.0</ele><time>2016-06-18T07:04:21.311Z</time></trkpt><trkpt lat="57.95535833" lon="14.10607333"><ele>129.0</ele><time>2016-06-18T07:04:22.282Z</time></trkpt><trkpt lat="57.95535833" lon="14.10607333"><ele>129.0</ele><time>2016-06-18T07:04:23.305Z</time></trkpt><trkpt lat="57.955525" lon="14.10614"><ele>129.0</ele><time>2016-06-18T07:04:24.314Z</time></trkpt><trkpt lat="57.955525" lon="14.10614"><ele>129.0</ele><time>2016-06-18T07:04:25.321Z</time></trkpt><trkpt lat="57.95569333" lon="14.10621667"><ele>128.0</ele><time>2016-06-18T07:04:26.295Z</time></trkpt><trkpt lat="57.95569333" lon="14.10621667"><ele>128.0</ele><time>2016-06-18T07:04:27.321Z</time></trkpt><trkpt lat="57.955865" lon="14.10628333"><ele>127.0</ele><time>2016-06-18T07:04:28.325Z</time></trkpt><trkpt lat="57.955865" lon="14.10628333"><ele>127.0</ele><time>2016-06-18T07:04:29.310Z</time></trkpt><trkpt lat="57.95604667" lon="14.10634667"><ele>127.0</ele><time>2016-06-18T07:04:30.282Z</time></trkpt><trkpt lat="57.95604667" lon="14.10634667"><ele>127.0</ele><time>2016-06-18T07:04:31.307Z</time></trkpt><trkpt lat="57.95621833" lon="14.10639333"><ele>126.0</ele><time>2016-06-18T07:04:32.319Z</time></trkpt><trkpt lat="57.95621833" lon="14.10639333"><ele>126.0</ele><time>2016-06-18T07:04:33.311Z</time></trkpt><trkpt lat="57.95638833" lon="14.10643167"><ele>126.0</ele><time>2016-06-18T07:04:34.318Z</time></trkpt><trkpt lat="57.95638833" lon="14.10643167"><ele>126.0</ele><time>2016-06-18T07:04:35.299Z</time></trkpt><trkpt lat="57.956565" lon="14.10649333"><ele>125.0</ele><time>2016-06-18T07:04:36.320Z</time></trkpt><trkpt lat="57.956565" lon="14.10649333"><ele>125.0</ele><time>2016-06-18T07:04:37.306Z</time></trkpt><trkpt lat="57.95674333" lon="14.106535"><ele>126.0</ele><time>2016-06-18T07:04:38.315Z</time></trkpt><trkpt lat="57.95674333" lon="14.106535"><ele>126.0</ele><time>2016-06-18T07:04:39.321Z</time></trkpt><trkpt lat="57.95693333" lon="14.106565"><ele>129.0</ele><time>2016-06-18T07:04:40.323Z</time></trkpt><trkpt lat="57.95693333" lon="14.106565"><ele>129.0</ele><time>2016-06-18T07:04:41.321Z</time></trkpt><trkpt lat="57.95711167" lon="14.10659833"><ele>129.0</ele><time>2016-06-18T07:04:42.291Z</time></trkpt><trkpt lat="57.95711167" lon="14.10659833"><ele>129.0</ele><time>2016-06-18T07:04:43.318Z</time></trkpt><trkpt lat="57.95728333" lon="14.10662"><ele>130.0</ele><time>2016-06-18T07:04:44.293Z</time></trkpt><trkpt lat="57.95728333" lon="14.10662"><ele>130.0</ele><time>2016-06-18T07:04:45.298Z</time></trkpt><trkpt lat="57.95745167" lon="14.10664667"><ele>130.0</ele><time>2016-06-18T07:04:46.305Z</time></trkpt><trkpt lat="57.95745167" lon="14.10664667"><ele>130.0</ele><time>2016-06-18T07:04:47.299Z</time></trkpt><trkpt lat="57.95762333" lon="14.10667833"><ele>130.0</ele><time>2016-06-18T07:04:48.321Z</time></trkpt><trkpt lat="57.95762333" lon="14.10667833"><ele>130.0</ele><time>2016-06-18T07:04:49.310Z</time></trkpt><trkpt lat="57.9578" lon="14.106705"><ele>131.0</ele><time>2016-06-18T07:04:50.282Z</time></trkpt><trkpt lat="57.9578" lon="14.106705"><ele>131.0</ele><time>2016-06-18T07:04:51.295Z</time></trkpt><trkpt lat="57.95797167" lon="14.10672667"><ele>131.0</ele><time>2016-06-18T07:04:52.314Z</time></trkpt><trkpt lat="57.95797167" lon="14.10672667"><ele>131.0</ele><time>2016-06-18T07:04:53.308Z</time></trkpt><trkpt lat="57.95813333" lon="14.10675333"><ele>131.0</ele><time>2016-06-18T07:04:54.284Z</time></trkpt><trkpt lat="57.95813333" lon="14.10675333"><ele>131.0</ele><time>2016-06-18T07:04:55.307Z</time></trkpt><trkpt lat="57.95828833" lon="14.10676833"><ele>131.0</ele><time>2016-06-18T07:04:56.291Z</time></trkpt><trkpt lat="57.95828833" lon="14.10676833"><ele>131.0</ele><time>2016-06-18T07:04:57.321Z</time></trkpt><trkpt lat="57.95844333" lon="14.10677667"><ele>131.0</ele><time>2016-06-18T07:04:58.288Z</time></trkpt><trkpt lat="57.95844333" lon="14.10677667"><ele>131.0</ele><time>2016-06-18T07:04:59.286Z</time></trkpt><trkpt lat="57.95861" lon="14.10678167"><ele>131.0</ele><time>2016-06-18T07:05:00.326Z</time></trkpt><trkpt lat="57.95861" lon="14.10678167"><ele>131.0</ele><time>2016-06-18T07:05:01.291Z</time></trkpt><trkpt lat="57.95877833" lon="14.106785"><ele>130.0</ele><time>2016-06-18T07:05:02.298Z</time></trkpt><trkpt lat="57.95877833" lon="14.106785"><ele>130.0</ele><time>2016-06-18T07:05:03.286Z</time></trkpt><trkpt lat="57.95894833" lon="14.10680333"><ele>131.0</ele><time>2016-06-18T07:05:04.314Z</time></trkpt><trkpt lat="57.95894833" lon="14.10680333"><ele>131.0</ele><time>2016-06-18T07:05:05.312Z</time></trkpt><trkpt lat="57.95911833" lon="14.106805"><ele>131.0</ele><time>2016-06-18T07:05:06.319Z</time></trkpt><trkpt lat="57.95911833" lon="14.106805"><ele>131.0</ele><time>2016-06-18T07:05:07.301Z</time></trkpt><trkpt lat="57.95927167" lon="14.10680833"><ele>131.0</ele><time>2016-06-18T07:05:08.308Z</time></trkpt><trkpt lat="57.95927167" lon="14.10680833"><ele>131.0</ele><time>2016-06-18T07:05:09.300Z</time></trkpt><trkpt lat="57.95941667" lon="14.10680667"><ele>131.0</ele><time>2016-06-18T07:05:10.307Z</time></trkpt><trkpt lat="57.95941667" lon="14.10680667"><ele>131.0</ele><time>2016-06-18T07:05:11.318Z</time></trkpt><trkpt lat="57.95955833" lon="14.10680667"><ele>131.0</ele><time>2016-06-18T07:05:12.299Z</time></trkpt><trkpt lat="57.95955833" lon="14.10680667"><ele>131.0</ele><time>2016-06-18T07:05:13.284Z</time></trkpt><trkpt lat="57.95969167" lon="14.10680667"><ele>132.0</ele><time>2016-06-18T07:05:14.292Z</time></trkpt><trkpt lat="57.95969167" lon="14.10680667"><ele>132.0</ele><time>2016-06-18T07:05:15.318Z</time></trkpt><trkpt lat="57.959825" lon="14.10680833"><ele>132.0</ele><time>2016-06-18T07:05:16.291Z</time></trkpt><trkpt lat="57.959825" lon="14.10680833"><ele>132.0</ele><time>2016-06-18T07:05:17.282Z</time></trkpt><trkpt lat="57.95996667" lon="14.106805"><ele>132.0</ele><time>2016-06-18T07:05:18.290Z</time></trkpt><trkpt lat="57.95996667" lon="14.106805"><ele>132.0</ele><time>2016-06-18T07:05:19.311Z</time></trkpt><trkpt lat="57.96012667" lon="14.10678167"><ele>133.0</ele><time>2016-06-18T07:05:20.288Z</time></trkpt><trkpt lat="57.96012667" lon="14.10678167"><ele>133.0</ele><time>2016-06-18T07:05:21.283Z</time></trkpt><trkpt lat="57.96028667" lon="14.10675833"><ele>133.0</ele><time>2016-06-18T07:05:22.289Z</time></trkpt><trkpt lat="57.96028667" lon="14.10675833"><ele>133.0</ele><time>2016-06-18T07:05:23.303Z</time></trkpt><trkpt lat="57.960445" lon="14.10672333"><ele>133.0</ele><time>2016-06-18T07:05:24.290Z</time></trkpt><trkpt lat="57.960445" lon="14.10672333"><ele>133.0</ele><time>2016-06-18T07:05:25.299Z</time></trkpt><trkpt lat="57.96059" lon="14.10672"><ele>133.0</ele><time>2016-06-18T07:05:26.306Z</time></trkpt><trkpt lat="57.96059" lon="14.10672"><ele>133.0</ele><time>2016-06-18T07:05:27.290Z</time></trkpt><trkpt lat="57.96074" lon="14.10669833"><ele>133.0</ele><time>2016-06-18T07:05:28.288Z</time></trkpt><trkpt lat="57.96074" lon="14.10669833"><ele>133.0</ele><time>2016-06-18T07:05:29.318Z</time></trkpt><trkpt lat="57.960885" lon="14.10666833"><ele>134.0</ele><time>2016-06-18T07:05:30.285Z</time></trkpt><trkpt lat="57.96095333" lon="14.106655"><ele>135.0</ele><time>2016-06-18T07:05:31.295Z</time></trkpt><trkpt lat="57.96102833" lon="14.10663667"><ele>134.0</ele><time>2016-06-18T07:05:32.300Z</time></trkpt><trkpt lat="57.96102833" lon="14.10663667"><ele>134.0</ele><time>2016-06-18T07:05:33.285Z</time></trkpt><trkpt lat="57.96118" lon="14.10659833"><ele>134.0</ele><time>2016-06-18T07:05:34.308Z</time></trkpt><trkpt lat="57.96126" lon="14.106585"><ele>134.0</ele><time>2016-06-18T07:05:35.299Z</time></trkpt><trkpt lat="57.96126" lon="14.106585"><ele>134.0</ele><time>2016-06-18T07:05:36.282Z</time></trkpt><trkpt lat="57.961425" lon="14.10656167"><ele>133.0</ele><time>2016-06-18T07:05:37.305Z</time></trkpt><trkpt lat="57.96150667" lon="14.10654667"><ele>133.0</ele><time>2016-06-18T07:05:38.297Z</time></trkpt><trkpt lat="57.96150667" lon="14.10654667"><ele>133.0</ele><time>2016-06-18T07:05:39.282Z</time></trkpt><trkpt lat="57.96168" lon="14.10650833"><ele>134.0</ele><time>2016-06-18T07:05:40.296Z</time></trkpt><trkpt lat="57.96168" lon="14.10650833"><ele>134.0</ele><time>2016-06-18T07:05:41.313Z</time></trkpt><trkpt lat="57.96185" lon="14.106475"><ele>134.0</ele><time>2016-06-18T07:05:42.283Z</time></trkpt><trkpt lat="57.96185" lon="14.106475"><ele>134.0</ele><time>2016-06-18T07:05:43.287Z</time></trkpt><trkpt lat="57.962015" lon="14.10643667"><ele>136.0</ele><time>2016-06-18T07:05:44.299Z</time></trkpt><trkpt lat="57.962015" lon="14.10643667"><ele>136.0</ele><time>2016-06-18T07:05:45.310Z</time></trkpt><trkpt lat="57.96217667" lon="14.10638667"><ele>139.0</ele><time>2016-06-18T07:05:46.298Z</time></trkpt><trkpt lat="57.96225833" lon="14.10636667"><ele>140.0</ele><time>2016-06-18T07:05:47.283Z</time></trkpt><trkpt lat="57.96225833" lon="14.10636667"><ele>140.0</ele><time>2016-06-18T07:05:48.304Z</time></trkpt><trkpt lat="57.96241167" lon="14.10632333"><ele>140.0</ele><time>2016-06-18T07:05:49.313Z</time></trkpt><trkpt lat="57.96249" lon="14.10630333"><ele>140.0</ele><time>2016-06-18T07:05:50.284Z</time></trkpt><trkpt lat="57.96249" lon="14.10630333"><ele>140.0</ele><time>2016-06-18T07:05:51.291Z</time></trkpt><trkpt lat="57.96265" lon="14.10627"><ele>140.0</ele><time>2016-06-18T07:05:52.297Z</time></trkpt><trkpt lat="57.96273167" lon="14.10625"><ele>141.0</ele><time>2016-06-18T07:05:53.299Z</time></trkpt><trkpt lat="57.96273167" lon="14.10625"><ele>141.0</ele><time>2016-06-18T07:05:54.292Z</time></trkpt><trkpt lat="57.96289833" lon="14.10621333"><ele>141.0</ele><time>2016-06-18T07:05:55.303Z</time></trkpt><trkpt lat="57.96289833" lon="14.10621333"><ele>141.0</ele><time>2016-06-18T07:05:56.288Z</time></trkpt><trkpt lat="57.963055" lon="14.10618"><ele>141.0</ele><time>2016-06-18T07:05:57.314Z</time></trkpt><trkpt lat="57.963055" lon="14.10618"><ele>141.0</ele><time>2016-06-18T07:05:58.299Z</time></trkpt><trkpt lat="57.9632" lon="14.10615667"><ele>140.0</ele><time>2016-06-18T07:05:59.291Z</time></trkpt><trkpt lat="57.96327" lon="14.10614"><ele>140.0</ele><time>2016-06-18T07:06:00.319Z</time></trkpt><trkpt lat="57.96327" lon="14.10614"><ele>140.0</ele><time>2016-06-18T07:06:01.296Z</time></trkpt><trkpt lat="57.96341333" lon="14.10610667"><ele>141.0</ele><time>2016-06-18T07:06:02.303Z</time></trkpt><trkpt lat="57.96341333" lon="14.10610667"><ele>141.0</ele><time>2016-06-18T07:06:03.289Z</time></trkpt><trkpt lat="57.96355833" lon="14.10607667"><ele>141.0</ele><time>2016-06-18T07:06:04.313Z</time></trkpt><trkpt lat="57.96355833" lon="14.10607667"><ele>141.0</ele><time>2016-06-18T07:06:05.320Z</time></trkpt><trkpt lat="57.96370333" lon="14.10604333"><ele>142.0</ele><time>2016-06-18T07:06:06.286Z</time></trkpt><trkpt lat="57.96370333" lon="14.10604333"><ele>142.0</ele><time>2016-06-18T07:06:07.309Z</time></trkpt><trkpt lat="57.96384667" lon="14.106005"><ele>142.0</ele><time>2016-06-18T07:06:08.313Z</time></trkpt><trkpt lat="57.96384667" lon="14.106005"><ele>142.0</ele><time>2016-06-18T07:06:09.294Z</time></trkpt><trkpt lat="57.963975" lon="14.105975"><ele>142.0</ele><time>2016-06-18T07:06:10.300Z</time></trkpt><trkpt lat="57.963975" lon="14.105975"><ele>142.0</ele><time>2016-06-18T07:06:11.286Z</time></trkpt><trkpt lat="57.96409333" lon="14.10594333"><ele>142.0</ele><time>2016-06-18T07:06:12.312Z</time></trkpt><trkpt lat="57.96409333" lon="14.10594333"><ele>142.0</ele><time>2016-06-18T07:06:13.294Z</time></trkpt><trkpt lat="57.96421" lon="14.10591333"><ele>143.0</ele><time>2016-06-18T07:06:14.303Z</time></trkpt><trkpt lat="57.96427333" lon="14.10590667"><ele>143.0</ele><time>2016-06-18T07:06:15.288Z</time></trkpt><trkpt lat="57.96427333" lon="14.10590667"><ele>143.0</ele><time>2016-06-18T07:06:16.301Z</time></trkpt><trkpt lat="57.96438833" lon="14.105895"><ele>145.0</ele><time>2016-06-18T07:06:17.308Z</time></trkpt><trkpt lat="57.96438833" lon="14.105895"><ele>145.0</ele><time>2016-06-18T07:06:18.291Z</time></trkpt><trkpt lat="57.96450333" lon="14.10586833"><ele>145.0</ele><time>2016-06-18T07:06:19.285Z</time></trkpt><trkpt lat="57.96450333" lon="14.10586833"><ele>145.0</ele><time>2016-06-18T07:06:20.299Z</time></trkpt><trkpt lat="57.96464333" lon="14.10583833"><ele>145.0</ele><time>2016-06-18T07:06:21.307Z</time></trkpt><trkpt lat="57.96464333" lon="14.10583833"><ele>145.0</ele><time>2016-06-18T07:06:22.291Z</time></trkpt><trkpt lat="57.96477833" lon="14.10581"><ele>146.0</ele><time>2016-06-18T07:06:23.295Z</time></trkpt><trkpt lat="57.96477833" lon="14.10581"><ele>146.0</ele><time>2016-06-18T07:06:24.298Z</time></trkpt><trkpt lat="57.96491833" lon="14.10578"><ele>145.0</ele><time>2016-06-18T07:06:25.305Z</time></trkpt><trkpt lat="57.96498" lon="14.10577"><ele>144.0</ele><time>2016-06-18T07:06:26.321Z</time></trkpt><trkpt lat="57.96498" lon="14.10577"><ele>144.0</ele><time>2016-06-18T07:06:27.306Z</time></trkpt><trkpt lat="57.96508333" lon="14.10574667"><ele>145.0</ele><time>2016-06-18T07:06:28.290Z</time></trkpt><trkpt lat="57.96508333" lon="14.10574667"><ele>145.0</ele><time>2016-06-18T07:06:29.288Z</time></trkpt><trkpt lat="57.96518333" lon="14.10572"><ele>146.0</ele><time>2016-06-18T07:06:30.293Z</time></trkpt><trkpt lat="57.96518333" lon="14.10572"><ele>146.0</ele><time>2016-06-18T07:06:31.302Z</time></trkpt><trkpt lat="57.96529667" lon="14.10570333"><ele>147.0</ele><time>2016-06-18T07:06:32.308Z</time></trkpt><trkpt lat="57.96529667" lon="14.10570333"><ele>147.0</ele><time>2016-06-18T07:06:33.292Z</time></trkpt><trkpt lat="57.96541" lon="14.10567833"><ele>147.0</ele><time>2016-06-18T07:06:34.308Z</time></trkpt><trkpt lat="57.96541" lon="14.10567833"><ele>147.0</ele><time>2016-06-18T07:06:35.297Z</time></trkpt><trkpt lat="57.96553167" lon="14.10565667"><ele>147.0</ele><time>2016-06-18T07:06:36.304Z</time></trkpt><trkpt lat="57.96553167" lon="14.10565667"><ele>147.0</ele><time>2016-06-18T07:06:37.290Z</time></trkpt><trkpt lat="57.96564" lon="14.10562167"><ele>147.0</ele><time>2016-06-18T07:06:38.293Z</time></trkpt><trkpt lat="57.96564" lon="14.10562167"><ele>147.0</ele><time>2016-06-18T07:06:39.299Z</time></trkpt><trkpt lat="57.96575167" lon="14.105595"><ele>148.0</ele><time>2016-06-18T07:06:40.307Z</time></trkpt><trkpt lat="57.96581" lon="14.10558167"><ele>147.0</ele><time>2016-06-18T07:06:41.288Z</time></trkpt><trkpt lat="57.96581" lon="14.10558167"><ele>147.0</ele><time>2016-06-18T07:06:42.311Z</time></trkpt><trkpt lat="57.96593333" lon="14.10556333"><ele>148.0</ele><time>2016-06-18T07:06:43.286Z</time></trkpt><trkpt lat="57.96599333" lon="14.105555"><ele>148.0</ele><time>2016-06-18T07:06:44.288Z</time></trkpt><trkpt lat="57.96599333" lon="14.105555"><ele>148.0</ele><time>2016-06-18T07:06:45.306Z</time></trkpt><trkpt lat="57.96611667" lon="14.105535"><ele>150.0</ele><time>2016-06-18T07:06:46.312Z</time></trkpt><trkpt lat="57.96618167" lon="14.10552833"><ele>150.0</ele><time>2016-06-18T07:06:47.314Z</time></trkpt><trkpt lat="57.96618167" lon="14.10552833"><ele>150.0</ele><time>2016-06-18T07:06:48.307Z</time></trkpt><trkpt lat="57.96630667" lon="14.10551167"><ele>151.0</ele><time>2016-06-18T07:06:49.314Z</time></trkpt><trkpt lat="57.96637" lon="14.105505"><ele>152.0</ele><time>2016-06-18T07:06:50.296Z</time></trkpt><trkpt lat="57.96637" lon="14.105505"><ele>152.0</ele><time>2016-06-18T07:06:51.307Z</time></trkpt><trkpt lat="57.96647333" lon="14.10548833"><ele>152.0</ele><time>2016-06-18T07:06:52.316Z</time></trkpt><trkpt lat="57.96652667" lon="14.10548167"><ele>152.0</ele><time>2016-06-18T07:06:53.304Z</time></trkpt><trkpt lat="57.96657667" lon="14.10547167"><ele>153.0</ele><time>2016-06-18T07:06:54.318Z</time></trkpt><trkpt lat="57.96662667" lon="14.10546333"><ele>153.0</ele><time>2016-06-18T07:06:55.303Z</time></trkpt><trkpt lat="57.96668167" lon="14.10545"><ele>154.0</ele><time>2016-06-18T07:06:56.288Z</time></trkpt><trkpt lat="57.96668167" lon="14.10545"><ele>154.0</ele><time>2016-06-18T07:06:57.310Z</time></trkpt><trkpt lat="57.96679833" lon="14.10542833"><ele>154.0</ele><time>2016-06-18T07:06:58.320Z</time></trkpt><trkpt lat="57.96679833" lon="14.10542833"><ele>154.0</ele><time>2016-06-18T07:06:59.290Z</time></trkpt><trkpt lat="57.96692333" lon="14.105415"><ele>154.0</ele><time>2016-06-18T07:07:00.296Z</time></trkpt><trkpt lat="57.96692333" lon="14.105415"><ele>154.0</ele><time>2016-06-18T07:07:01.318Z</time></trkpt><trkpt lat="57.96705333" lon="14.1054"><ele>154.0</ele><time>2016-06-18T07:07:02.327Z</time></trkpt><trkpt lat="57.96705333" lon="14.1054"><ele>154.0</ele><time>2016-06-18T07:07:03.313Z</time></trkpt><trkpt lat="57.96717667" lon="14.10538167"><ele>154.0</ele><time>2016-06-18T07:07:04.285Z</time></trkpt><trkpt lat="57.96723333" lon="14.10537167"><ele>154.0</ele><time>2016-06-18T07:07:05.288Z</time></trkpt><trkpt lat="57.96723333" lon="14.10537167"><ele>154.0</ele><time>2016-06-18T07:07:06.305Z</time></trkpt><trkpt lat="57.967345" lon="14.10534667"><ele>154.0</ele><time>2016-06-18T07:07:07.312Z</time></trkpt><trkpt lat="57.967345" lon="14.10534667"><ele>154.0</ele><time>2016-06-18T07:07:08.295Z</time></trkpt><trkpt lat="57.96744667" lon="14.10532833"><ele>154.0</ele><time>2016-06-18T07:07:09.288Z</time></trkpt><trkpt lat="57.96744667" lon="14.10532833"><ele>154.0</ele><time>2016-06-18T07:07:10.300Z</time></trkpt><trkpt lat="57.96755333" lon="14.10532167"><ele>154.0</ele><time>2016-06-18T07:07:11.285Z</time></trkpt><trkpt lat="57.96755333" lon="14.10532167"><ele>154.0</ele><time>2016-06-18T07:07:12.315Z</time></trkpt><trkpt lat="57.967665" lon="14.10531"><ele>154.0</ele><time>2016-06-18T07:07:13.289Z</time></trkpt><trkpt lat="57.967665" lon="14.10531"><ele>154.0</ele><time>2016-06-18T07:07:14.311Z</time></trkpt><trkpt lat="57.96777667" lon="14.10529833"><ele>154.0</ele><time>2016-06-18T07:07:15.296Z</time></trkpt><trkpt lat="57.96777667" lon="14.10529833"><ele>154.0</ele><time>2016-06-18T07:07:16.321Z</time></trkpt><trkpt lat="57.967895" lon="14.10529"><ele>155.0</ele><time>2016-06-18T07:07:17.288Z</time></trkpt><trkpt lat="57.967895" lon="14.10529"><ele>155.0</ele><time>2016-06-18T07:07:18.312Z</time></trkpt><trkpt lat="57.96801667" lon="14.10528167"><ele>155.0</ele><time>2016-06-18T07:07:19.285Z</time></trkpt><trkpt lat="57.96801667" lon="14.10528167"><ele>155.0</ele><time>2016-06-18T07:07:20.309Z</time></trkpt><trkpt lat="57.968135" lon="14.10527333"><ele>155.0</ele><time>2016-06-18T07:07:21.316Z</time></trkpt><trkpt lat="57.968135" lon="14.10527333"><ele>155.0</ele><time>2016-06-18T07:07:22.297Z</time></trkpt><trkpt lat="57.968255" lon="14.10525167"><ele>154.0</ele><time>2016-06-18T07:07:23.311Z</time></trkpt><trkpt lat="57.968255" lon="14.10525167"><ele>154.0</ele><time>2016-06-18T07:07:24.320Z</time></trkpt><trkpt lat="57.96837333" lon="14.105235"><ele>155.0</ele><time>2016-06-18T07:07:25.288Z</time></trkpt><trkpt lat="57.96843333" lon="14.10523167"><ele>155.0</ele><time>2016-06-18T07:07:26.291Z</time></trkpt><trkpt lat="57.96843333" lon="14.10523167"><ele>155.0</ele><time>2016-06-18T07:07:27.289Z</time></trkpt><trkpt lat="57.968555" lon="14.10522333"><ele>155.0</ele><time>2016-06-18T07:07:28.296Z</time></trkpt><trkpt lat="57.968555" lon="14.10522333"><ele>155.0</ele><time>2016-06-18T07:07:29.305Z</time></trkpt><trkpt lat="57.968675" lon="14.10521667"><ele>155.0</ele><time>2016-06-18T07:07:30.289Z</time></trkpt><trkpt lat="57.968675" lon="14.10521667"><ele>155.0</ele><time>2016-06-18T07:07:31.286Z</time></trkpt><trkpt lat="57.968795" lon="14.10520667"><ele>155.0</ele><time>2016-06-18T07:07:32.295Z</time></trkpt><trkpt lat="57.968795" lon="14.10520667"><ele>155.0</ele><time>2016-06-18T07:07:33.287Z</time></trkpt><trkpt lat="57.96892" lon="14.1052"><ele>155.0</ele><time>2016-06-18T07:07:34.295Z</time></trkpt><trkpt lat="57.96892" lon="14.1052"><ele>155.0</ele><time>2016-06-18T07:07:35.294Z</time></trkpt><trkpt lat="57.96904333" lon="14.10519"><ele>156.0</ele><time>2016-06-18T07:07:36.302Z</time></trkpt><trkpt lat="57.96904333" lon="14.10519"><ele>156.0</ele><time>2016-06-18T07:07:37.285Z</time></trkpt><trkpt lat="57.96916833" lon="14.10518167"><ele>156.0</ele><time>2016-06-18T07:07:38.318Z</time></trkpt><trkpt lat="57.96916833" lon="14.10518167"><ele>156.0</ele><time>2016-06-18T07:07:39.305Z</time></trkpt><trkpt lat="57.96929333" lon="14.10518"><ele>157.0</ele><time>2016-06-18T07:07:40.311Z</time></trkpt><trkpt lat="57.96935667" lon="14.10518"><ele>157.0</ele><time>2016-06-18T07:07:41.290Z</time></trkpt><trkpt lat="57.96935667" lon="14.10518"><ele>157.0</ele><time>2016-06-18T07:07:42.295Z</time></trkpt><trkpt lat="57.96948333" lon="14.105175"><ele>157.0</ele><time>2016-06-18T07:07:43.309Z</time></trkpt><trkpt lat="57.96954667" lon="14.10517333"><ele>157.0</ele><time>2016-06-18T07:07:44.308Z</time></trkpt><trkpt lat="57.96954667" lon="14.10517333"><ele>157.0</ele><time>2016-06-18T07:07:45.294Z</time></trkpt><trkpt lat="57.96967167" lon="14.10517833"><ele>157.0</ele><time>2016-06-18T07:07:46.300Z</time></trkpt><trkpt lat="57.969735" lon="14.10518"><ele>158.0</ele><time>2016-06-18T07:07:47.303Z</time></trkpt><trkpt lat="57.969735" lon="14.10518"><ele>158.0</ele><time>2016-06-18T07:07:48.300Z</time></trkpt><trkpt lat="57.96986333" lon="14.10518667"><ele>158.0</ele><time>2016-06-18T07:07:49.308Z</time></trkpt><trkpt lat="57.96992333" lon="14.10519"><ele>158.0</ele><time>2016-06-18T07:07:50.298Z</time></trkpt><trkpt lat="57.96992333" lon="14.10519"><ele>158.0</ele><time>2016-06-18T07:07:51.307Z</time></trkpt><trkpt lat="57.97004333" lon="14.10519"><ele>158.0</ele><time>2016-06-18T07:07:52.313Z</time></trkpt><trkpt lat="57.97010333" lon="14.10519833"><ele>158.0</ele><time>2016-06-18T07:07:53.298Z</time></trkpt><trkpt lat="57.97010333" lon="14.10519833"><ele>158.0</ele><time>2016-06-18T07:07:54.309Z</time></trkpt><trkpt lat="57.97022667" lon="14.105205"><ele>158.0</ele><time>2016-06-18T07:07:55.315Z</time></trkpt><trkpt lat="57.97022667" lon="14.105205"><ele>158.0</ele><time>2016-06-18T07:07:56.297Z</time></trkpt><trkpt lat="57.97035167" lon="14.10520833"><ele>158.0</ele><time>2016-06-18T07:07:57.323Z</time></trkpt><trkpt lat="57.97035167" lon="14.10520833"><ele>158.0</ele><time>2016-06-18T07:07:58.285Z</time></trkpt><trkpt lat="57.97047667" lon="14.10520833"><ele>158.0</ele><time>2016-06-18T07:07:59.294Z</time></trkpt><trkpt lat="57.97053667" lon="14.10521"><ele>158.0</ele><time>2016-06-18T07:08:00.307Z</time></trkpt><trkpt lat="57.97053667" lon="14.10521"><ele>158.0</ele><time>2016-06-18T07:08:01.288Z</time></trkpt><trkpt lat="57.97065" lon="14.10521167"><ele>159.0</ele><time>2016-06-18T07:08:02.295Z</time></trkpt><trkpt lat="57.97065" lon="14.10521167"><ele>159.0</ele><time>2016-06-18T07:08:03.286Z</time></trkpt><trkpt lat="57.97076333" lon="14.10522"><ele>159.0</ele><time>2016-06-18T07:08:04.300Z</time></trkpt><trkpt lat="57.97081833" lon="14.10522"><ele>159.0</ele><time>2016-06-18T07:08:05.284Z</time></trkpt><trkpt lat="57.97087" lon="14.10522167"><ele>160.0</ele><time>2016-06-18T07:08:06.285Z</time></trkpt><trkpt lat="57.97087" lon="14.10522167"><ele>160.0</ele><time>2016-06-18T07:08:07.321Z</time></trkpt><trkpt lat="57.970975" lon="14.10522167"><ele>161.0</ele><time>2016-06-18T07:08:08.289Z</time></trkpt><trkpt lat="57.970975" lon="14.10522167"><ele>161.0</ele><time>2016-06-18T07:08:09.312Z</time></trkpt><trkpt lat="57.97108833" lon="14.10522667"><ele>161.0</ele><time>2016-06-18T07:08:10.283Z</time></trkpt><trkpt lat="57.97108833" lon="14.10522667"><ele>161.0</ele><time>2016-06-18T07:08:11.321Z</time></trkpt><trkpt lat="57.97120667" lon="14.105235"><ele>162.0</ele><time>2016-06-18T07:08:12.305Z</time></trkpt><trkpt lat="57.97120667" lon="14.105235"><ele>162.0</ele><time>2016-06-18T07:08:13.291Z</time></trkpt><trkpt lat="57.97133667" lon="14.10523833"><ele>162.0</ele><time>2016-06-18T07:08:14.297Z</time></trkpt><trkpt lat="57.97133667" lon="14.10523833"><ele>162.0</ele><time>2016-06-18T07:08:15.286Z</time></trkpt><trkpt lat="57.97147" lon="14.10524667"><ele>162.0</ele><time>2016-06-18T07:08:16.291Z</time></trkpt><trkpt lat="57.97147" lon="14.10524667"><ele>162.0</ele><time>2016-06-18T07:08:17.318Z</time></trkpt><trkpt lat="57.97160167" lon="14.10524667"><ele>161.0</ele><time>2016-06-18T07:08:18.285Z</time></trkpt><trkpt lat="57.97160167" lon="14.10524667"><ele>161.0</ele><time>2016-06-18T07:08:19.308Z</time></trkpt><trkpt lat="57.97173167" lon="14.10524667"><ele>162.0</ele><time>2016-06-18T07:08:20.297Z</time></trkpt><trkpt lat="57.97173167" lon="14.10524667"><ele>162.0</ele><time>2016-06-18T07:08:21.294Z</time></trkpt><trkpt lat="57.97186333" lon="14.10524833"><ele>162.0</ele><time>2016-06-18T07:08:22.301Z</time></trkpt><trkpt lat="57.97186333" lon="14.10524833"><ele>162.0</ele><time>2016-06-18T07:08:23.288Z</time></trkpt><trkpt lat="57.97199333" lon="14.10524667"><ele>162.0</ele><time>2016-06-18T07:08:24.289Z</time></trkpt><trkpt lat="57.97199333" lon="14.10524667"><ele>162.0</ele><time>2016-06-18T07:08:25.312Z</time></trkpt><trkpt lat="57.97212167" lon="14.105245"><ele>162.0</ele><time>2016-06-18T07:08:26.320Z</time></trkpt><trkpt lat="57.97212167" lon="14.105245"><ele>162.0</ele><time>2016-06-18T07:08:27.301Z</time></trkpt><trkpt lat="57.97224833" lon="14.10524333"><ele>163.0</ele><time>2016-06-18T07:08:28.308Z</time></trkpt><trkpt lat="57.97231" lon="14.10524833"><ele>164.0</ele><time>2016-06-18T07:08:29.305Z</time></trkpt><trkpt lat="57.97237" lon="14.10525"><ele>164.0</ele><time>2016-06-18T07:08:30.288Z</time></trkpt><trkpt lat="57.97237" lon="14.10525"><ele>164.0</ele><time>2016-06-18T07:08:31.282Z</time></trkpt><trkpt lat="57.97249167" lon="14.105255"><ele>164.0</ele><time>2016-06-18T07:08:32.287Z</time></trkpt><trkpt lat="57.97249167" lon="14.105255"><ele>164.0</ele><time>2016-06-18T07:08:33.298Z</time></trkpt><trkpt lat="57.972605" lon="14.105265"><ele>164.0</ele><time>2016-06-18T07:08:34.305Z</time></trkpt><trkpt lat="57.972605" lon="14.105265"><ele>164.0</ele><time>2016-06-18T07:08:35.289Z</time></trkpt><trkpt lat="57.97271167" lon="14.10527167"><ele>165.0</ele><time>2016-06-18T07:08:36.306Z</time></trkpt><trkpt lat="57.97271167" lon="14.10527167"><ele>165.0</ele><time>2016-06-18T07:08:37.284Z</time></trkpt><trkpt lat="57.97283" lon="14.10527333"><ele>166.0</ele><time>2016-06-18T07:08:38.293Z</time></trkpt><trkpt lat="57.97283" lon="14.10527333"><ele>166.0</ele><time>2016-06-18T07:08:39.321Z</time></trkpt><trkpt lat="57.97294" lon="14.10528"><ele>167.0</ele><time>2016-06-18T07:08:40.296Z</time></trkpt><trkpt lat="57.97294" lon="14.10528"><ele>167.0</ele><time>2016-06-18T07:08:41.290Z</time></trkpt><trkpt lat="57.973055" lon="14.10528833"><ele>168.0</ele><time>2016-06-18T07:08:42.296Z</time></trkpt><trkpt lat="57.97311167" lon="14.10528667"><ele>168.0</ele><time>2016-06-18T07:08:43.308Z</time></trkpt><trkpt lat="57.97311167" lon="14.10528667"><ele>168.0</ele><time>2016-06-18T07:08:44.312Z</time></trkpt><trkpt lat="57.97322333" lon="14.10528833"><ele>169.0</ele><time>2016-06-18T07:08:45.319Z</time></trkpt><trkpt lat="57.97322333" lon="14.10528833"><ele>169.0</ele><time>2016-06-18T07:08:46.305Z</time></trkpt><trkpt lat="57.97334333" lon="14.105285"><ele>169.0</ele><time>2016-06-18T07:08:47.297Z</time></trkpt><trkpt lat="57.97334333" lon="14.105285"><ele>169.0</ele><time>2016-06-18T07:08:48.304Z</time></trkpt><trkpt lat="57.97347167" lon="14.10529167"><ele>170.0</ele><time>2016-06-18T07:08:49.311Z</time></trkpt><trkpt lat="57.97353" lon="14.105305"><ele>169.0</ele><time>2016-06-18T07:08:50.307Z</time></trkpt><trkpt lat="57.97353" lon="14.105305"><ele>169.0</ele><time>2016-06-18T07:08:51.291Z</time></trkpt><trkpt lat="57.97365167" lon="14.105315"><ele>169.0</ele><time>2016-06-18T07:08:52.298Z</time></trkpt><trkpt lat="57.97365167" lon="14.105315"><ele>169.0</ele><time>2016-06-18T07:08:53.291Z</time></trkpt><trkpt lat="57.97377333" lon="14.10531167"><ele>169.0</ele><time>2016-06-18T07:08:54.306Z</time></trkpt><trkpt lat="57.97377333" lon="14.10531167"><ele>169.0</ele><time>2016-06-18T07:08:55.284Z</time></trkpt><trkpt lat="57.97390333" lon="14.10532167"><ele>169.0</ele><time>2016-06-18T07:08:56.298Z</time></trkpt><trkpt lat="57.97398333" lon="14.10531833"><ele>169.0</ele><time>2016-06-18T07:08:57.312Z</time></trkpt><trkpt lat="57.97398333" lon="14.10531833"><ele>169.0</ele><time>2016-06-18T07:08:58.284Z</time></trkpt><trkpt lat="57.974115" lon="14.10532833"><ele>170.0</ele><time>2016-06-18T07:08:59.290Z</time></trkpt><trkpt lat="57.97417833" lon="14.10533167"><ele>170.0</ele><time>2016-06-18T07:09:00.292Z</time></trkpt><trkpt lat="57.97417833" lon="14.10533167"><ele>170.0</ele><time>2016-06-18T07:09:01.297Z</time></trkpt><trkpt lat="57.974305" lon="14.10535167"><ele>171.0</ele><time>2016-06-18T07:09:02.304Z</time></trkpt><trkpt lat="57.97437" lon="14.10535833"><ele>171.0</ele><time>2016-06-18T07:09:03.305Z</time></trkpt><trkpt lat="57.97437" lon="14.10535833"><ele>171.0</ele><time>2016-06-18T07:09:04.297Z</time></trkpt><trkpt lat="57.97450167" lon="14.10536333"><ele>172.0</ele><time>2016-06-18T07:09:05.306Z</time></trkpt><trkpt lat="57.974565" lon="14.105365"><ele>173.0</ele><time>2016-06-18T07:09:06.288Z</time></trkpt><trkpt lat="57.974565" lon="14.105365"><ele>173.0</ele><time>2016-06-18T07:09:07.317Z</time></trkpt><trkpt lat="57.97469" lon="14.105365"><ele>172.0</ele><time>2016-06-18T07:09:08.286Z</time></trkpt><trkpt lat="57.97469" lon="14.105365"><ele>172.0</ele><time>2016-06-18T07:09:09.309Z</time></trkpt><trkpt lat="57.97482167" lon="14.105365"><ele>173.0</ele><time>2016-06-18T07:09:10.327Z</time></trkpt><trkpt lat="57.97482167" lon="14.105365"><ele>173.0</ele><time>2016-06-18T07:09:11.315Z</time></trkpt><trkpt lat="57.97495167" lon="14.10536333"><ele>174.0</ele><time>2016-06-18T07:09:12.285Z</time></trkpt><trkpt lat="57.97495167" lon="14.10536333"><ele>174.0</ele><time>2016-06-18T07:09:13.307Z</time></trkpt><trkpt lat="57.975075" lon="14.10537667"><ele>176.0</ele><time>2016-06-18T07:09:14.314Z</time></trkpt><trkpt lat="57.975075" lon="14.10537667"><ele>176.0</ele><time>2016-06-18T07:09:15.283Z</time></trkpt><trkpt lat="57.97521" lon="14.10538"><ele>176.0</ele><time>2016-06-18T07:09:16.324Z</time></trkpt><trkpt lat="57.97521" lon="14.10538"><ele>176.0</ele><time>2016-06-18T07:09:17.282Z</time></trkpt><trkpt lat="57.97535167" lon="14.10538167"><ele>176.0</ele><time>2016-06-18T07:09:18.290Z</time></trkpt><trkpt lat="57.97535167" lon="14.10538167"><ele>176.0</ele><time>2016-06-18T07:09:19.313Z</time></trkpt><trkpt lat="57.97550333" lon="14.10537833"><ele>174.0</ele><time>2016-06-18T07:09:20.326Z</time></trkpt><trkpt lat="57.97550333" lon="14.10537833"><ele>174.0</ele><time>2016-06-18T07:09:21.301Z</time></trkpt><trkpt lat="57.97565333" lon="14.10537"><ele>173.0</ele><time>2016-06-18T07:09:22.308Z</time></trkpt><trkpt lat="57.97565333" lon="14.10537"><ele>173.0</ele><time>2016-06-18T07:09:23.321Z</time></trkpt><trkpt lat="57.97580167" lon="14.10537333"><ele>173.0</ele><time>2016-06-18T07:09:24.314Z</time></trkpt><trkpt lat="57.97580167" lon="14.10537333"><ele>173.0</ele><time>2016-06-18T07:09:25.307Z</time></trkpt><trkpt lat="57.97594833" lon="14.105375"><ele>173.0</ele><time>2016-06-18T07:09:26.314Z</time></trkpt><trkpt lat="57.97594833" lon="14.105375"><ele>173.0</ele><time>2016-06-18T07:09:27.294Z</time></trkpt><trkpt lat="57.976105" lon="14.105375"><ele>173.0</ele><time>2016-06-18T07:09:28.327Z</time></trkpt><trkpt lat="57.976105" lon="14.105375"><ele>173.0</ele><time>2016-06-18T07:09:29.322Z</time></trkpt><trkpt lat="57.97625333" lon="14.10537333"><ele>172.0</ele><time>2016-06-18T07:09:30.290Z</time></trkpt><trkpt lat="57.97625333" lon="14.10537333"><ele>172.0</ele><time>2016-06-18T07:09:31.286Z</time></trkpt><trkpt lat="57.97639833" lon="14.10537"><ele>172.0</ele><time>2016-06-18T07:09:32.314Z</time></trkpt><trkpt lat="57.97639833" lon="14.10537"><ele>172.0</ele><time>2016-06-18T07:09:33.301Z</time></trkpt><trkpt lat="57.976545" lon="14.10537333"><ele>172.0</ele><time>2016-06-18T07:09:34.308Z</time></trkpt><trkpt lat="57.97662167" lon="14.10537667"><ele>172.0</ele><time>2016-06-18T07:09:35.321Z</time></trkpt><trkpt lat="57.97662167" lon="14.10537667"><ele>172.0</ele><time>2016-06-18T07:09:36.302Z</time></trkpt><trkpt lat="57.97677" lon="14.10537333"><ele>173.0</ele><time>2016-06-18T07:09:37.309Z</time></trkpt><trkpt lat="57.976845" lon="14.10537667"><ele>173.0</ele><time>2016-06-18T07:09:38.308Z</time></trkpt><trkpt lat="57.97691667" lon="14.10538667"><ele>173.0</ele><time>2016-06-18T07:09:39.288Z</time></trkpt><trkpt lat="57.97691667" lon="14.10538667"><ele>173.0</ele><time>2016-06-18T07:09:40.309Z</time></trkpt><trkpt lat="57.97707" lon="14.10538833"><ele>172.0</ele><time>2016-06-18T07:09:41.298Z</time></trkpt><trkpt lat="57.97714667" lon="14.10539"><ele>173.0</ele><time>2016-06-18T07:09:42.286Z</time></trkpt><trkpt lat="57.97714667" lon="14.10539"><ele>173.0</ele><time>2016-06-18T07:09:43.309Z</time></trkpt><trkpt lat="57.97732333" lon="14.105405"><ele>173.0</ele><time>2016-06-18T07:09:44.315Z</time></trkpt><trkpt lat="57.97741333" lon="14.10541"><ele>173.0</ele><time>2016-06-18T07:09:45.299Z</time></trkpt><trkpt lat="57.97741333" lon="14.10541"><ele>173.0</ele><time>2016-06-18T07:09:46.283Z</time></trkpt><trkpt lat="57.977575" lon="14.10542"><ele>173.0</ele><time>2016-06-18T07:09:47.296Z</time></trkpt><trkpt lat="57.977575" lon="14.10542"><ele>173.0</ele><time>2016-06-18T07:09:48.312Z</time></trkpt><trkpt lat="57.97775333" lon="14.10543833"><ele>173.0</ele><time>2016-06-18T07:09:49.319Z</time></trkpt><trkpt lat="57.97775333" lon="14.10543833"><ele>173.0</ele><time>2016-06-18T07:09:50.302Z</time></trkpt><trkpt lat="57.97794167" lon="14.10546"><ele>173.0</ele><time>2016-06-18T07:09:51.307Z</time></trkpt><trkpt lat="57.97794167" lon="14.10546"><ele>173.0</ele><time>2016-06-18T07:09:52.312Z</time></trkpt><trkpt lat="57.97812833" lon="14.10549"><ele>172.0</ele><time>2016-06-18T07:09:53.319Z</time></trkpt><trkpt lat="57.97812833" lon="14.10549"><ele>172.0</ele><time>2016-06-18T07:09:54.302Z</time></trkpt><trkpt lat="57.97832" lon="14.10552"><ele>173.0</ele><time>2016-06-18T07:09:55.291Z</time></trkpt><trkpt lat="57.97832" lon="14.10552"><ele>173.0</ele><time>2016-06-18T07:09:56.283Z</time></trkpt><trkpt lat="57.97849833" lon="14.10554833"><ele>173.0</ele><time>2016-06-18T07:09:57.290Z</time></trkpt><trkpt lat="57.97849833" lon="14.10554833"><ele>173.0</ele><time>2016-06-18T07:09:58.313Z</time></trkpt><trkpt lat="57.97868667" lon="14.105565"><ele>172.0</ele><time>2016-06-18T07:09:59.290Z</time></trkpt><trkpt lat="57.97868667" lon="14.105565"><ele>172.0</ele><time>2016-06-18T07:10:00.300Z</time></trkpt><trkpt lat="57.97886333" lon="14.10558833"><ele>173.0</ele><time>2016-06-18T07:10:01.307Z</time></trkpt><trkpt lat="57.97895667" lon="14.105595"><ele>173.0</ele><time>2016-06-18T07:10:02.291Z</time></trkpt><trkpt lat="57.97895667" lon="14.105595"><ele>173.0</ele><time>2016-06-18T07:10:03.314Z</time></trkpt><trkpt lat="57.979145" lon="14.10562833"><ele>172.0</ele><time>2016-06-18T07:10:04.285Z</time></trkpt><trkpt lat="57.979235" lon="14.10565"><ele>171.0</ele><time>2016-06-18T07:10:05.324Z</time></trkpt><trkpt lat="57.979235" lon="14.10565"><ele>171.0</ele><time>2016-06-18T07:10:06.303Z</time></trkpt><trkpt lat="57.97943667" lon="14.10570167"><ele>171.0</ele><time>2016-06-18T07:10:07.310Z</time></trkpt><trkpt lat="57.97953833" lon="14.10573667"><ele>172.0</ele><time>2016-06-18T07:10:08.295Z</time></trkpt><trkpt lat="57.97953833" lon="14.10573667"><ele>172.0</ele><time>2016-06-18T07:10:09.292Z</time></trkpt><trkpt lat="57.97974833" lon="14.10579333"><ele>173.0</ele><time>2016-06-18T07:10:10.308Z</time></trkpt><trkpt lat="57.97974833" lon="14.10579333"><ele>173.0</ele><time>2016-06-18T07:10:11.312Z</time></trkpt><trkpt lat="57.97995167" lon="14.10584667"><ele>173.0</ele><time>2016-06-18T07:10:12.283Z</time></trkpt><trkpt lat="57.98005" lon="14.10587833"><ele>174.0</ele><time>2016-06-18T07:10:13.309Z</time></trkpt><trkpt lat="57.98005" lon="14.10587833"><ele>174.0</ele><time>2016-06-18T07:10:14.293Z</time></trkpt><trkpt lat="57.98025167" lon="14.10593"><ele>170.0</ele><time>2016-06-18T07:10:15.289Z</time></trkpt><trkpt lat="57.98035" lon="14.10595333"><ele>169.0</ele><time>2016-06-18T07:10:16.296Z</time></trkpt><trkpt lat="57.98044" lon="14.10597833"><ele>167.0</ele><time>2016-06-18T07:10:17.318Z</time></trkpt><trkpt lat="57.98044" lon="14.10597833"><ele>167.0</ele><time>2016-06-18T07:10:18.302Z</time></trkpt><trkpt lat="57.98061333" lon="14.106055"><ele>166.0</ele><time>2016-06-18T07:10:19.310Z</time></trkpt><trkpt lat="57.98061333" lon="14.106055"><ele>166.0</ele><time>2016-06-18T07:10:20.298Z</time></trkpt><trkpt lat="57.98079667" lon="14.10611833"><ele>165.0</ele><time>2016-06-18T07:10:21.322Z</time></trkpt><trkpt lat="57.98079667" lon="14.10611833"><ele>165.0</ele><time>2016-06-18T07:10:22.291Z</time></trkpt><trkpt lat="57.98097833" lon="14.10618167"><ele>164.0</ele><time>2016-06-18T07:10:23.298Z</time></trkpt><trkpt lat="57.98097833" lon="14.10618167"><ele>164.0</ele><time>2016-06-18T07:10:24.283Z</time></trkpt><trkpt lat="57.98115333" lon="14.10625"><ele>164.0</ele><time>2016-06-18T07:10:25.318Z</time></trkpt><trkpt lat="57.98115333" lon="14.10625"><ele>164.0</ele><time>2016-06-18T07:10:26.287Z</time></trkpt><trkpt lat="57.98132333" lon="14.106315"><ele>164.0</ele><time>2016-06-18T07:10:27.294Z</time></trkpt><trkpt lat="57.98132333" lon="14.106315"><ele>164.0</ele><time>2016-06-18T07:10:28.319Z</time></trkpt><trkpt lat="57.98149" lon="14.106375"><ele>165.0</ele><time>2016-06-18T07:10:29.323Z</time></trkpt><trkpt lat="57.98149" lon="14.106375"><ele>165.0</ele><time>2016-06-18T07:10:30.307Z</time></trkpt><trkpt lat="57.98164667" lon="14.10643333"><ele>166.0</ele><time>2016-06-18T07:10:31.313Z</time></trkpt><trkpt lat="57.98172333" lon="14.10646667"><ele>166.0</ele><time>2016-06-18T07:10:32.325Z</time></trkpt><trkpt lat="57.98172333" lon="14.10646667"><ele>166.0</ele><time>2016-06-18T07:10:33.304Z</time></trkpt><trkpt lat="57.981885" lon="14.106545"><ele>166.0</ele><time>2016-06-18T07:10:34.310Z</time></trkpt><trkpt lat="57.981885" lon="14.106545"><ele>166.0</ele><time>2016-06-18T07:10:35.292Z</time></trkpt><trkpt lat="57.98203667" lon="14.10662"><ele>167.0</ele><time>2016-06-18T07:10:36.307Z</time></trkpt><trkpt lat="57.98203667" lon="14.10662"><ele>167.0</ele><time>2016-06-18T07:10:37.289Z</time></trkpt><trkpt lat="57.98218667" lon="14.10669167"><ele>167.0</ele><time>2016-06-18T07:10:38.296Z</time></trkpt><trkpt lat="57.98218667" lon="14.10669167"><ele>167.0</ele><time>2016-06-18T07:10:39.298Z</time></trkpt><trkpt lat="57.98233167" lon="14.10676"><ele>167.0</ele><time>2016-06-18T07:10:40.288Z</time></trkpt><trkpt lat="57.98233167" lon="14.10676"><ele>167.0</ele><time>2016-06-18T07:10:41.306Z</time></trkpt><trkpt lat="57.982475" lon="14.106835"><ele>167.0</ele><time>2016-06-18T07:10:42.313Z</time></trkpt><trkpt lat="57.982475" lon="14.106835"><ele>167.0</ele><time>2016-06-18T07:10:43.299Z</time></trkpt><trkpt lat="57.98262" lon="14.10690833"><ele>167.0</ele><time>2016-06-18T07:10:44.297Z</time></trkpt><trkpt lat="57.98262" lon="14.10690833"><ele>167.0</ele><time>2016-06-18T07:10:45.316Z</time></trkpt><trkpt lat="57.98276" lon="14.10697833"><ele>168.0</ele><time>2016-06-18T07:10:46.289Z</time></trkpt><trkpt lat="57.98283" lon="14.107015"><ele>168.0</ele><time>2016-06-18T07:10:47.321Z</time></trkpt><trkpt lat="57.98283" lon="14.107015"><ele>168.0</ele><time>2016-06-18T07:10:48.305Z</time></trkpt><trkpt lat="57.982965" lon="14.10707667"><ele>169.0</ele><time>2016-06-18T07:10:49.313Z</time></trkpt><trkpt lat="57.98302833" lon="14.10710667"><ele>170.0</ele><time>2016-06-18T07:10:50.293Z</time></trkpt><trkpt lat="57.98302833" lon="14.10710667"><ele>170.0</ele><time>2016-06-18T07:10:51.285Z</time></trkpt><trkpt lat="57.98315667" lon="14.107175"><ele>170.0</ele><time>2016-06-18T07:10:52.293Z</time></trkpt><trkpt lat="57.98315667" lon="14.107175"><ele>170.0</ele><time>2016-06-18T07:10:53.321Z</time></trkpt><trkpt lat="57.98328833" lon="14.10725167"><ele>170.0</ele><time>2016-06-18T07:10:54.294Z</time></trkpt><trkpt lat="57.98328833" lon="14.10725167"><ele>170.0</ele><time>2016-06-18T07:10:55.290Z</time></trkpt><trkpt lat="57.98341667" lon="14.10732333"><ele>171.0</ele><time>2016-06-18T07:10:56.299Z</time></trkpt><trkpt lat="57.98341667" lon="14.10732333"><ele>171.0</ele><time>2016-06-18T07:10:57.321Z</time></trkpt><trkpt lat="57.98353167" lon="14.10738167"><ele>171.0</ele><time>2016-06-18T07:10:58.327Z</time></trkpt><trkpt lat="57.98353167" lon="14.10738167"><ele>171.0</ele><time>2016-06-18T07:10:59.285Z</time></trkpt><trkpt lat="57.98364167" lon="14.10744667"><ele>172.0</ele><time>2016-06-18T07:11:00.292Z</time></trkpt><trkpt lat="57.98369833" lon="14.10748167"><ele>172.0</ele><time>2016-06-18T07:11:01.290Z</time></trkpt><trkpt lat="57.98369833" lon="14.10748167"><ele>172.0</ele><time>2016-06-18T07:11:02.290Z</time></trkpt><trkpt lat="57.983815" lon="14.10755333"><ele>173.0</ele><time>2016-06-18T07:11:03.307Z</time></trkpt><trkpt lat="57.983815" lon="14.10755333"><ele>173.0</ele><time>2016-06-18T07:11:04.290Z</time></trkpt><trkpt lat="57.983935" lon="14.107635"><ele>173.0</ele><time>2016-06-18T07:11:05.298Z</time></trkpt><trkpt lat="57.983935" lon="14.107635"><ele>173.0</ele><time>2016-06-18T07:11:06.294Z</time></trkpt><trkpt lat="57.984055" lon="14.107715"><ele>173.0</ele><time>2016-06-18T07:11:07.300Z</time></trkpt><trkpt lat="57.984115" lon="14.107755"><ele>173.0</ele><time>2016-06-18T07:11:08.314Z</time></trkpt><trkpt lat="57.984115" lon="14.107755"><ele>173.0</ele><time>2016-06-18T07:11:09.310Z</time></trkpt><trkpt lat="57.98423333" lon="14.10782833"><ele>173.0</ele><time>2016-06-18T07:11:10.287Z</time></trkpt><trkpt lat="57.98423333" lon="14.10782833"><ele>173.0</ele><time>2016-06-18T07:11:11.297Z</time></trkpt><trkpt lat="57.98435" lon="14.10790333"><ele>174.0</ele><time>2016-06-18T07:11:12.286Z</time></trkpt><trkpt lat="57.98441" lon="14.10794"><ele>174.0</ele><time>2016-06-18T07:11:13.308Z</time></trkpt><trkpt lat="57.98441" lon="14.10794"><ele>174.0</ele><time>2016-06-18T07:11:14.290Z</time></trkpt><trkpt lat="57.98452333" lon="14.10802"><ele>174.0</ele><time>2016-06-18T07:11:15.317Z</time></trkpt><trkpt lat="57.98452333" lon="14.10802"><ele>174.0</ele><time>2016-06-18T07:11:16.302Z</time></trkpt><trkpt lat="57.98463833" lon="14.10810333"><ele>175.0</ele><time>2016-06-18T07:11:17.308Z</time></trkpt><trkpt lat="57.98463833" lon="14.10810333"><ele>175.0</ele><time>2016-06-18T07:11:18.320Z</time></trkpt><trkpt lat="57.98476167" lon="14.10818833"><ele>175.0</ele><time>2016-06-18T07:11:19.292Z</time></trkpt><trkpt lat="57.98476167" lon="14.10818833"><ele>175.0</ele><time>2016-06-18T07:11:20.297Z</time></trkpt><trkpt lat="57.98488" lon="14.10826667"><ele>176.0</ele><time>2016-06-18T07:11:21.305Z</time></trkpt><trkpt lat="57.98488" lon="14.10826667"><ele>176.0</ele><time>2016-06-18T07:11:22.291Z</time></trkpt><trkpt lat="57.98499667" lon="14.10835833"><ele>176.0</ele><time>2016-06-18T07:11:23.307Z</time></trkpt><trkpt lat="57.98499667" lon="14.10835833"><ele>176.0</ele><time>2016-06-18T07:11:24.313Z</time></trkpt><trkpt lat="57.98510833" lon="14.10844667"><ele>175.0</ele><time>2016-06-18T07:11:25.285Z</time></trkpt><trkpt lat="57.985165" lon="14.10849"><ele>175.0</ele><time>2016-06-18T07:11:26.321Z</time></trkpt><trkpt lat="57.985165" lon="14.10849"><ele>175.0</ele><time>2016-06-18T07:11:27.291Z</time></trkpt><trkpt lat="57.98526667" lon="14.10857333"><ele>176.0</ele><time>2016-06-18T07:11:28.297Z</time></trkpt><trkpt lat="57.98526667" lon="14.10857333"><ele>176.0</ele><time>2016-06-18T07:11:29.282Z</time></trkpt><trkpt lat="57.98537167" lon="14.108655"><ele>177.0</ele><time>2016-06-18T07:11:30.298Z</time></trkpt><trkpt lat="57.98537167" lon="14.108655"><ele>177.0</ele><time>2016-06-18T07:11:31.314Z</time></trkpt><trkpt lat="57.98547667" lon="14.108735"><ele>177.0</ele><time>2016-06-18T07:11:32.283Z</time></trkpt><trkpt lat="57.98552833" lon="14.10877667"><ele>177.0</ele><time>2016-06-18T07:11:33.320Z</time></trkpt><trkpt lat="57.98557833" lon="14.10881667"><ele>177.0</ele><time>2016-06-18T07:11:34.298Z</time></trkpt><trkpt lat="57.98557833" lon="14.10881667"><ele>177.0</ele><time>2016-06-18T07:11:35.286Z</time></trkpt><trkpt lat="57.98567667" lon="14.108895"><ele>177.0</ele><time>2016-06-18T07:11:36.307Z</time></trkpt><trkpt lat="57.98567667" lon="14.108895"><ele>177.0</ele><time>2016-06-18T07:11:37.288Z</time></trkpt><trkpt lat="57.98577833" lon="14.108975"><ele>178.0</ele><time>2016-06-18T07:11:38.297Z</time></trkpt><trkpt lat="57.98577833" lon="14.108975"><ele>178.0</ele><time>2016-06-18T07:11:39.294Z</time></trkpt><trkpt lat="57.98588833" lon="14.10906833"><ele>178.0</ele><time>2016-06-18T07:11:40.290Z</time></trkpt><trkpt lat="57.98588833" lon="14.10906833"><ele>178.0</ele><time>2016-06-18T07:11:41.300Z</time></trkpt><trkpt lat="57.98599667" lon="14.10916167"><ele>179.0</ele><time>2016-06-18T07:11:42.305Z</time></trkpt><trkpt lat="57.98599667" lon="14.10916167"><ele>179.0</ele><time>2016-06-18T07:11:43.293Z</time></trkpt><trkpt lat="57.98610833" lon="14.10925333"><ele>179.0</ele><time>2016-06-18T07:11:44.298Z</time></trkpt><trkpt lat="57.98610833" lon="14.10925333"><ele>179.0</ele><time>2016-06-18T07:11:45.311Z</time></trkpt><trkpt lat="57.98621833" lon="14.109345"><ele>179.0</ele><time>2016-06-18T07:11:46.284Z</time></trkpt><trkpt lat="57.98627167" lon="14.10938833"><ele>179.0</ele><time>2016-06-18T07:11:47.321Z</time></trkpt><trkpt lat="57.98627167" lon="14.10938833"><ele>179.0</ele><time>2016-06-18T07:11:48.316Z</time></trkpt><trkpt lat="57.98638167" lon="14.10948667"><ele>179.0</ele><time>2016-06-18T07:11:49.283Z</time></trkpt><trkpt lat="57.98644" lon="14.10953833"><ele>179.0</ele><time>2016-06-18T07:11:50.290Z</time></trkpt><trkpt lat="57.98644" lon="14.10953833"><ele>179.0</ele><time>2016-06-18T07:11:51.322Z</time></trkpt><trkpt lat="57.98655" lon="14.10963333"><ele>179.0</ele><time>2016-06-18T07:11:52.300Z</time></trkpt><trkpt lat="57.98660833" lon="14.10968333"><ele>179.0</ele><time>2016-06-18T07:11:53.308Z</time></trkpt><trkpt lat="57.98660833" lon="14.10968333"><ele>179.0</ele><time>2016-06-18T07:11:54.290Z</time></trkpt><trkpt lat="57.98672667" lon="14.10978333"><ele>180.0</ele><time>2016-06-18T07:11:55.307Z</time></trkpt><trkpt lat="57.98678667" lon="14.10983333"><ele>180.0</ele><time>2016-06-18T07:11:56.289Z</time></trkpt><trkpt lat="57.98678667" lon="14.10983333"><ele>180.0</ele><time>2016-06-18T07:11:57.311Z</time></trkpt><trkpt lat="57.98690167" lon="14.10993833"><ele>179.0</ele><time>2016-06-18T07:11:58.318Z</time></trkpt><trkpt lat="57.98690167" lon="14.10993833"><ele>179.0</ele><time>2016-06-18T07:11:59.300Z</time></trkpt><trkpt lat="57.98701167" lon="14.11004"><ele>180.0</ele><time>2016-06-18T07:12:00.313Z</time></trkpt><trkpt lat="57.98701167" lon="14.11004"><ele>180.0</ele><time>2016-06-18T07:12:01.318Z</time></trkpt><trkpt lat="57.98712333" lon="14.11014333"><ele>180.0</ele><time>2016-06-18T07:12:02.290Z</time></trkpt><trkpt lat="57.98718" lon="14.11019167"><ele>181.0</ele><time>2016-06-18T07:12:03.325Z</time></trkpt><trkpt lat="57.98718" lon="14.11019167"><ele>181.0</ele><time>2016-06-18T07:12:04.311Z</time></trkpt><trkpt lat="57.987295" lon="14.1103"><ele>181.0</ele><time>2016-06-18T07:12:05.319Z</time></trkpt><trkpt lat="57.987295" lon="14.1103"><ele>181.0</ele><time>2016-06-18T07:12:06.312Z</time></trkpt><trkpt lat="57.98740833" lon="14.11041"><ele>181.0</ele><time>2016-06-18T07:12:07.288Z</time></trkpt><trkpt lat="57.98740833" lon="14.11041"><ele>181.0</ele><time>2016-06-18T07:12:08.311Z</time></trkpt><trkpt lat="57.98752667" lon="14.11051"><ele>182.0</ele><time>2016-06-18T07:12:09.317Z</time></trkpt><trkpt lat="57.98752667" lon="14.11051"><ele>182.0</ele><time>2016-06-18T07:12:10.300Z</time></trkpt><trkpt lat="57.987645" lon="14.11061"><ele>182.0</ele><time>2016-06-18T07:12:11.291Z</time></trkpt><trkpt lat="57.98770167" lon="14.11065833"><ele>182.0</ele><time>2016-06-18T07:12:12.318Z</time></trkpt><trkpt lat="57.98776" lon="14.11071167"><ele>182.0</ele><time>2016-06-18T07:12:13.301Z</time></trkpt><trkpt lat="57.98776" lon="14.11071167"><ele>182.0</ele><time>2016-06-18T07:12:14.287Z</time></trkpt><trkpt lat="57.98788" lon="14.110825"><ele>182.0</ele><time>2016-06-18T07:12:15.313Z</time></trkpt><trkpt lat="57.98788" lon="14.110825"><ele>182.0</ele><time>2016-06-18T07:12:16.291Z</time></trkpt><trkpt lat="57.98800333" lon="14.11094"><ele>183.0</ele><time>2016-06-18T07:12:17.299Z</time></trkpt><trkpt lat="57.98800333" lon="14.11094"><ele>183.0</ele><time>2016-06-18T07:12:18.321Z</time></trkpt><trkpt lat="57.98813333" lon="14.111055"><ele>183.0</ele><time>2016-06-18T07:12:19.291Z</time></trkpt><trkpt lat="57.98813333" lon="14.111055"><ele>183.0</ele><time>2016-06-18T07:12:20.290Z</time></trkpt><trkpt lat="57.98826167" lon="14.11117167"><ele>183.0</ele><time>2016-06-18T07:12:21.296Z</time></trkpt><trkpt lat="57.98826167" lon="14.11117167"><ele>183.0</ele><time>2016-06-18T07:12:22.316Z</time></trkpt><trkpt lat="57.98839" lon="14.11128667"><ele>183.0</ele><time>2016-06-18T07:12:23.303Z</time></trkpt><trkpt lat="57.98839" lon="14.11128667"><ele>183.0</ele><time>2016-06-18T07:12:24.283Z</time></trkpt><trkpt lat="57.98851833" lon="14.11139167"><ele>183.0</ele><time>2016-06-18T07:12:25.290Z</time></trkpt><trkpt lat="57.98858333" lon="14.111445"><ele>183.0</ele><time>2016-06-18T07:12:26.287Z</time></trkpt><trkpt lat="57.98858333" lon="14.111445"><ele>183.0</ele><time>2016-06-18T07:12:27.309Z</time></trkpt><trkpt lat="57.98870833" lon="14.11155833"><ele>183.0</ele><time>2016-06-18T07:12:28.316Z</time></trkpt><trkpt lat="57.98876667" lon="14.11161167"><ele>183.0</ele><time>2016-06-18T07:12:29.308Z</time></trkpt><trkpt lat="57.98876667" lon="14.11161167"><ele>183.0</ele><time>2016-06-18T07:12:30.321Z</time></trkpt><trkpt lat="57.98887667" lon="14.11171667"><ele>183.0</ele><time>2016-06-18T07:12:31.287Z</time></trkpt><trkpt lat="57.98893333" lon="14.11176667"><ele>183.0</ele><time>2016-06-18T07:12:32.322Z</time></trkpt><trkpt lat="57.98893333" lon="14.11176667"><ele>183.0</ele><time>2016-06-18T07:12:33.314Z</time></trkpt><trkpt lat="57.98904" lon="14.111865"><ele>183.0</ele><time>2016-06-18T07:12:34.287Z</time></trkpt><trkpt lat="57.98904" lon="14.111865"><ele>183.0</ele><time>2016-06-18T07:12:35.313Z</time></trkpt><trkpt lat="57.989155" lon="14.11196833"><ele>183.0</ele><time>2016-06-18T07:12:36.295Z</time></trkpt><trkpt lat="57.989155" lon="14.11196833"><ele>183.0</ele><time>2016-06-18T07:12:37.293Z</time></trkpt><trkpt lat="57.98927667" lon="14.11207"><ele>183.0</ele><time>2016-06-18T07:12:38.299Z</time></trkpt><trkpt lat="57.98927667" lon="14.11207"><ele>183.0</ele><time>2016-06-18T07:12:39.284Z</time></trkpt><trkpt lat="57.98940167" lon="14.11218333"><ele>184.0</ele><time>2016-06-18T07:12:40.308Z</time></trkpt><trkpt lat="57.98940167" lon="14.11218333"><ele>184.0</ele><time>2016-06-18T07:12:41.305Z</time></trkpt><trkpt lat="57.989535" lon="14.11230833"><ele>184.0</ele><time>2016-06-18T07:12:42.312Z</time></trkpt><trkpt lat="57.989605" lon="14.11237"><ele>183.0</ele><time>2016-06-18T07:12:43.318Z</time></trkpt><trkpt lat="57.989605" lon="14.11237"><ele>183.0</ele><time>2016-06-18T07:12:44.292Z</time></trkpt><trkpt lat="57.98974167" lon="14.1125"><ele>184.0</ele><time>2016-06-18T07:12:45.312Z</time></trkpt><trkpt lat="57.98980833" lon="14.11256"><ele>184.0</ele><time>2016-06-18T07:12:46.294Z</time></trkpt><trkpt lat="57.98980833" lon="14.11256"><ele>184.0</ele><time>2016-06-18T07:12:47.290Z</time></trkpt><trkpt lat="57.98996" lon="14.11268833"><ele>184.0</ele><time>2016-06-18T07:12:48.297Z</time></trkpt><trkpt lat="57.98996" lon="14.11268833"><ele>184.0</ele><time>2016-06-18T07:12:49.320Z</time></trkpt><trkpt lat="57.9901" lon="14.11281333"><ele>185.0</ele><time>2016-06-18T07:12:50.308Z</time></trkpt><trkpt lat="57.9901" lon="14.11281333"><ele>185.0</ele><time>2016-06-18T07:12:51.300Z</time></trkpt><trkpt lat="57.99023833" lon="14.112945"><ele>185.0</ele><time>2016-06-18T07:12:52.307Z</time></trkpt><trkpt lat="57.99030667" lon="14.113005"><ele>185.0</ele><time>2016-06-18T07:12:53.298Z</time></trkpt><trkpt lat="57.99030667" lon="14.113005"><ele>185.0</ele><time>2016-06-18T07:12:54.316Z</time></trkpt><trkpt lat="57.990445" lon="14.11312833"><ele>185.0</ele><time>2016-06-18T07:12:55.287Z</time></trkpt><trkpt lat="57.99051833" lon="14.11319667"><ele>185.0</ele><time>2016-06-18T07:12:56.287Z</time></trkpt><trkpt lat="57.99051833" lon="14.11319667"><ele>185.0</ele><time>2016-06-18T07:12:57.292Z</time></trkpt><trkpt lat="57.99065833" lon="14.11331333"><ele>186.0</ele><time>2016-06-18T07:12:58.299Z</time></trkpt><trkpt lat="57.99065833" lon="14.11331333"><ele>186.0</ele><time>2016-06-18T07:12:59.283Z</time></trkpt><trkpt lat="57.99080167" lon="14.11343"><ele>187.0</ele><time>2016-06-18T07:13:00.317Z</time></trkpt><trkpt lat="57.99080167" lon="14.11343"><ele>187.0</ele><time>2016-06-18T07:13:01.310Z</time></trkpt><trkpt lat="57.99094167" lon="14.11356"><ele>186.0</ele><time>2016-06-18T07:13:02.316Z</time></trkpt><trkpt lat="57.99094167" lon="14.11356"><ele>186.0</ele><time>2016-06-18T07:13:03.299Z</time></trkpt><trkpt lat="57.99107833" lon="14.11369333"><ele>186.0</ele><time>2016-06-18T07:13:04.301Z</time></trkpt><trkpt lat="57.99107833" lon="14.11369333"><ele>186.0</ele><time>2016-06-18T07:13:05.285Z</time></trkpt><trkpt lat="57.99122833" lon="14.11383167"><ele>186.0</ele><time>2016-06-18T07:13:06.292Z</time></trkpt><trkpt lat="57.99122833" lon="14.11383167"><ele>186.0</ele><time>2016-06-18T07:13:07.315Z</time></trkpt><trkpt lat="57.99137833" lon="14.11397167"><ele>186.0</ele><time>2016-06-18T07:13:08.286Z</time></trkpt><trkpt lat="57.99137833" lon="14.11397167"><ele>186.0</ele><time>2016-06-18T07:13:09.317Z</time></trkpt><trkpt lat="57.99153333" lon="14.11411167"><ele>185.0</ele><time>2016-06-18T07:13:10.290Z</time></trkpt><trkpt lat="57.99153333" lon="14.11411167"><ele>185.0</ele><time>2016-06-18T07:13:11.285Z</time></trkpt><trkpt lat="57.99169" lon="14.11424667"><ele>185.0</ele><time>2016-06-18T07:13:12.302Z</time></trkpt><trkpt lat="57.99169" lon="14.11424667"><ele>185.0</ele><time>2016-06-18T07:13:13.293Z</time></trkpt><trkpt lat="57.99184333" lon="14.11438167"><ele>186.0</ele><time>2016-06-18T07:13:14.299Z</time></trkpt><trkpt lat="57.99184333" lon="14.11438167"><ele>186.0</ele><time>2016-06-18T07:13:15.321Z</time></trkpt><trkpt lat="57.99199333" lon="14.11451167"><ele>186.0</ele><time>2016-06-18T07:13:16.296Z</time></trkpt><trkpt lat="57.99199333" lon="14.11451167"><ele>186.0</ele><time>2016-06-18T07:13:17.302Z</time></trkpt><trkpt lat="57.99213667" lon="14.11464833"><ele>186.0</ele><time>2016-06-18T07:13:18.308Z</time></trkpt><trkpt lat="57.99213667" lon="14.11464833"><ele>186.0</ele><time>2016-06-18T07:13:19.291Z</time></trkpt><trkpt lat="57.992285" lon="14.11479"><ele>186.0</ele><time>2016-06-18T07:13:20.291Z</time></trkpt><trkpt lat="57.992285" lon="14.11479"><ele>186.0</ele><time>2016-06-18T07:13:21.289Z</time></trkpt><trkpt lat="57.992435" lon="14.11493833"><ele>186.0</ele><time>2016-06-18T07:13:22.296Z</time></trkpt><trkpt lat="57.992435" lon="14.11493833"><ele>186.0</ele><time>2016-06-18T07:13:23.283Z</time></trkpt><trkpt lat="57.99258833" lon="14.11507667"><ele>186.0</ele><time>2016-06-18T07:13:24.292Z</time></trkpt><trkpt lat="57.99258833" lon="14.11507667"><ele>186.0</ele><time>2016-06-18T07:13:25.291Z</time></trkpt><trkpt lat="57.99274" lon="14.11520833"><ele>186.0</ele><time>2016-06-18T07:13:26.299Z</time></trkpt><trkpt lat="57.99274" lon="14.11520833"><ele>186.0</ele><time>2016-06-18T07:13:27.286Z</time></trkpt><trkpt lat="57.99288667" lon="14.11534833"><ele>186.0</ele><time>2016-06-18T07:13:28.308Z</time></trkpt><trkpt lat="57.99288667" lon="14.11534833"><ele>186.0</ele><time>2016-06-18T07:13:29.288Z</time></trkpt><trkpt lat="57.99303167" lon="14.11547833"><ele>186.0</ele><time>2016-06-18T07:13:30.294Z</time></trkpt><trkpt lat="57.99303167" lon="14.11547833"><ele>186.0</ele><time>2016-06-18T07:13:31.317Z</time></trkpt><trkpt lat="57.99317667" lon="14.11561"><ele>187.0</ele><time>2016-06-18T07:13:32.287Z</time></trkpt><trkpt lat="57.99317667" lon="14.11561"><ele>187.0</ele><time>2016-06-18T07:13:33.286Z</time></trkpt><trkpt lat="57.993315" lon="14.11573167"><ele>186.0</ele><time>2016-06-18T07:13:34.292Z</time></trkpt><trkpt lat="57.993315" lon="14.11573167"><ele>186.0</ele><time>2016-06-18T07:13:35.316Z</time></trkpt><trkpt lat="57.99345167" lon="14.11585833"><ele>187.0</ele><time>2016-06-18T07:13:36.284Z</time></trkpt><trkpt lat="57.99345167" lon="14.11585833"><ele>187.0</ele><time>2016-06-18T07:13:37.306Z</time></trkpt><trkpt lat="57.99358833" lon="14.11597833"><ele>187.0</ele><time>2016-06-18T07:13:38.290Z</time></trkpt><trkpt lat="57.99358833" lon="14.11597833"><ele>187.0</ele><time>2016-06-18T07:13:39.290Z</time></trkpt><trkpt lat="57.99372667" lon="14.11609667"><ele>187.0</ele><time>2016-06-18T07:13:40.297Z</time></trkpt><trkpt lat="57.99379667" lon="14.116155"><ele>187.0</ele><time>2016-06-18T07:13:41.298Z</time></trkpt><trkpt lat="57.99379667" lon="14.116155"><ele>187.0</ele><time>2016-06-18T07:13:42.285Z</time></trkpt><trkpt lat="57.99394" lon="14.11627667"><ele>187.0</ele><time>2016-06-18T07:13:43.295Z</time></trkpt><trkpt lat="57.99401167" lon="14.11633667"><ele>187.0</ele><time>2016-06-18T07:13:44.315Z</time></trkpt><trkpt lat="57.99401167" lon="14.11633667"><ele>187.0</ele><time>2016-06-18T07:13:45.298Z</time></trkpt><trkpt lat="57.99415" lon="14.11645167"><ele>188.0</ele><time>2016-06-18T07:13:46.304Z</time></trkpt><trkpt lat="57.99421833" lon="14.11650333"><ele>188.0</ele><time>2016-06-18T07:13:47.291Z</time></trkpt><trkpt lat="57.99421833" lon="14.11650333"><ele>188.0</ele><time>2016-06-18T07:13:48.305Z</time></trkpt><trkpt lat="57.99435833" lon="14.11662"><ele>188.0</ele><time>2016-06-18T07:13:49.311Z</time></trkpt><trkpt lat="57.99435833" lon="14.11662"><ele>188.0</ele><time>2016-06-18T07:13:50.293Z</time></trkpt><trkpt lat="57.99449833" lon="14.116715"><ele>188.0</ele><time>2016-06-18T07:13:51.327Z</time></trkpt><trkpt lat="57.99449833" lon="14.116715"><ele>188.0</ele><time>2016-06-18T07:13:52.305Z</time></trkpt><trkpt lat="57.99463833" lon="14.11681667"><ele>188.0</ele><time>2016-06-18T07:13:53.316Z</time></trkpt><trkpt lat="57.99463833" lon="14.11681667"><ele>188.0</ele><time>2016-06-18T07:13:54.298Z</time></trkpt><trkpt lat="57.99477" lon="14.11690167"><ele>188.0</ele><time>2016-06-18T07:13:55.304Z</time></trkpt><trkpt lat="57.994835" lon="14.11694833"><ele>189.0</ele><time>2016-06-18T07:13:56.298Z</time></trkpt><trkpt lat="57.994835" lon="14.11694833"><ele>189.0</ele><time>2016-06-18T07:13:57.295Z</time></trkpt><trkpt lat="57.994965" lon="14.11704167"><ele>189.0</ele><time>2016-06-18T07:13:58.301Z</time></trkpt><trkpt lat="57.99503167" lon="14.11708833"><ele>189.0</ele><time>2016-06-18T07:13:59.290Z</time></trkpt><trkpt lat="57.99503167" lon="14.11708833"><ele>189.0</ele><time>2016-06-18T07:14:00.302Z</time></trkpt><trkpt lat="57.995165" lon="14.11718"><ele>190.0</ele><time>2016-06-18T07:14:01.288Z</time></trkpt><trkpt lat="57.99523" lon="14.11722167"><ele>190.0</ele><time>2016-06-18T07:14:02.298Z</time></trkpt><trkpt lat="57.99523" lon="14.11722167"><ele>190.0</ele><time>2016-06-18T07:14:03.287Z</time></trkpt><trkpt lat="57.99535333" lon="14.11730333"><ele>190.0</ele><time>2016-06-18T07:14:04.294Z</time></trkpt><trkpt lat="57.99535333" lon="14.11730333"><ele>190.0</ele><time>2016-06-18T07:14:05.288Z</time></trkpt><trkpt lat="57.99547667" lon="14.11738167"><ele>190.0</ele><time>2016-06-18T07:14:06.295Z</time></trkpt><trkpt lat="57.99547667" lon="14.11738167"><ele>190.0</ele><time>2016-06-18T07:14:07.286Z</time></trkpt><trkpt lat="57.99559667" lon="14.11744667"><ele>190.0</ele><time>2016-06-18T07:14:08.291Z</time></trkpt><trkpt lat="57.99559667" lon="14.11744667"><ele>190.0</ele><time>2016-06-18T07:14:09.297Z</time></trkpt><trkpt lat="57.99571667" lon="14.11751167"><ele>190.0</ele><time>2016-06-18T07:14:10.304Z</time></trkpt><trkpt lat="57.99571667" lon="14.11751167"><ele>190.0</ele><time>2016-06-18T07:14:11.282Z</time></trkpt><trkpt lat="57.99584167" lon="14.11759"><ele>191.0</ele><time>2016-06-18T07:14:12.305Z</time></trkpt><trkpt lat="57.99584167" lon="14.11759"><ele>191.0</ele><time>2016-06-18T07:14:13.290Z</time></trkpt><trkpt lat="57.99597167" lon="14.11767167"><ele>191.0</ele><time>2016-06-18T07:14:14.298Z</time></trkpt><trkpt lat="57.99597167" lon="14.11767167"><ele>191.0</ele><time>2016-06-18T07:14:15.320Z</time></trkpt><trkpt lat="57.99609833" lon="14.11774667"><ele>192.0</ele><time>2016-06-18T07:14:16.317Z</time></trkpt><trkpt lat="57.99609833" lon="14.11774667"><ele>192.0</ele><time>2016-06-18T07:14:17.308Z</time></trkpt><trkpt lat="57.996225" lon="14.11782333"><ele>192.0</ele><time>2016-06-18T07:14:18.315Z</time></trkpt><trkpt lat="57.996225" lon="14.11782333"><ele>192.0</ele><time>2016-06-18T07:14:19.298Z</time></trkpt><trkpt lat="57.996345" lon="14.11790167"><ele>193.0</ele><time>2016-06-18T07:14:20.290Z</time></trkpt><trkpt lat="57.996345" lon="14.11790167"><ele>193.0</ele><time>2016-06-18T07:14:21.288Z</time></trkpt><trkpt lat="57.99648167" lon="14.11797"><ele>193.0</ele><time>2016-06-18T07:14:22.295Z</time></trkpt><trkpt lat="57.99648167" lon="14.11797"><ele>193.0</ele><time>2016-06-18T07:14:23.286Z</time></trkpt><trkpt lat="57.99662333" lon="14.11804333"><ele>193.0</ele><time>2016-06-18T07:14:24.306Z</time></trkpt><trkpt lat="57.99662333" lon="14.11804333"><ele>193.0</ele><time>2016-06-18T07:14:25.291Z</time></trkpt><trkpt lat="57.99676333" lon="14.11811333"><ele>194.0</ele><time>2016-06-18T07:14:26.298Z</time></trkpt><trkpt lat="57.99676333" lon="14.11811333"><ele>194.0</ele><time>2016-06-18T07:14:27.284Z</time></trkpt><trkpt lat="57.99690333" lon="14.11818833"><ele>194.0</ele><time>2016-06-18T07:14:28.294Z</time></trkpt><trkpt lat="57.99690333" lon="14.11818833"><ele>194.0</ele><time>2016-06-18T07:14:29.300Z</time></trkpt><trkpt lat="57.99704167" lon="14.11827167"><ele>194.0</ele><time>2016-06-18T07:14:30.307Z</time></trkpt><trkpt lat="57.99711333" lon="14.11831"><ele>194.0</ele><time>2016-06-18T07:14:31.291Z</time></trkpt><trkpt lat="57.99711333" lon="14.11831"><ele>194.0</ele><time>2016-06-18T07:14:32.297Z</time></trkpt><trkpt lat="57.99726167" lon="14.11838667"><ele>195.0</ele><time>2016-06-18T07:14:33.312Z</time></trkpt><trkpt lat="57.99733667" lon="14.11842667"><ele>195.0</ele><time>2016-06-18T07:14:34.297Z</time></trkpt><trkpt lat="57.99733667" lon="14.11842667"><ele>195.0</ele><time>2016-06-18T07:14:35.319Z</time></trkpt><trkpt lat="57.99748167" lon="14.118505"><ele>195.0</ele><time>2016-06-18T07:14:36.290Z</time></trkpt><trkpt lat="57.99748167" lon="14.118505"><ele>195.0</ele><time>2016-06-18T07:14:37.311Z</time></trkpt><trkpt lat="57.997625" lon="14.11858833"><ele>195.0</ele><time>2016-06-18T07:14:38.317Z</time></trkpt><trkpt lat="57.997625" lon="14.11858833"><ele>195.0</ele><time>2016-06-18T07:14:39.300Z</time></trkpt><trkpt lat="57.99777333" lon="14.11865"><ele>195.0</ele><time>2016-06-18T07:14:40.291Z</time></trkpt><trkpt lat="57.99777333" lon="14.11865"><ele>195.0</ele><time>2016-06-18T07:14:41.303Z</time></trkpt><trkpt lat="57.99791167" lon="14.11873167"><ele>195.0</ele><time>2016-06-18T07:14:42.309Z</time></trkpt><trkpt lat="57.99791167" lon="14.11873167"><ele>195.0</ele><time>2016-06-18T07:14:43.289Z</time></trkpt><trkpt lat="57.99805" lon="14.11882833"><ele>195.0</ele><time>2016-06-18T07:14:44.317Z</time></trkpt><trkpt lat="57.99805" lon="14.11882833"><ele>195.0</ele><time>2016-06-18T07:14:45.289Z</time></trkpt><trkpt lat="57.99818833" lon="14.11892333"><ele>195.0</ele><time>2016-06-18T07:14:46.296Z</time></trkpt><trkpt lat="57.99818833" lon="14.11892333"><ele>195.0</ele><time>2016-06-18T07:14:47.319Z</time></trkpt><trkpt lat="57.998325" lon="14.11902167"><ele>195.0</ele><time>2016-06-18T07:14:48.308Z</time></trkpt><trkpt lat="57.99839333" lon="14.11907333"><ele>195.0</ele><time>2016-06-18T07:14:49.291Z</time></trkpt><trkpt lat="57.99846" lon="14.119125"><ele>195.0</ele><time>2016-06-18T07:14:50.290Z</time></trkpt><trkpt lat="57.99846" lon="14.119125"><ele>195.0</ele><time>2016-06-18T07:14:51.312Z</time></trkpt><trkpt lat="57.998595" lon="14.11922833"><ele>195.0</ele><time>2016-06-18T07:14:52.318Z</time></trkpt><trkpt lat="57.99866333" lon="14.119285"><ele>195.0</ele><time>2016-06-18T07:14:53.320Z</time></trkpt><trkpt lat="57.99866333" lon="14.119285"><ele>195.0</ele><time>2016-06-18T07:14:54.289Z</time></trkpt><trkpt lat="57.99880667" lon="14.11939833"><ele>195.0</ele><time>2016-06-18T07:14:55.297Z</time></trkpt><trkpt lat="57.99887833" lon="14.11946167"><ele>195.0</ele><time>2016-06-18T07:14:56.318Z</time></trkpt><trkpt lat="57.99887833" lon="14.11946167"><ele>195.0</ele><time>2016-06-18T07:14:57.287Z</time></trkpt><trkpt lat="57.99902" lon="14.11959333"><ele>194.0</ele><time>2016-06-18T07:14:58.294Z</time></trkpt><trkpt lat="57.99902" lon="14.11959333"><ele>194.0</ele><time>2016-06-18T07:14:59.317Z</time></trkpt><trkpt lat="57.99915667" lon="14.119725"><ele>194.0</ele><time>2016-06-18T07:15:00.283Z</time></trkpt><trkpt lat="57.99915667" lon="14.119725"><ele>194.0</ele><time>2016-06-18T07:15:01.305Z</time></trkpt><trkpt lat="57.99928" lon="14.119845"><ele>194.0</ele><time>2016-06-18T07:15:02.312Z</time></trkpt><trkpt lat="57.99928" lon="14.119845"><ele>194.0</ele><time>2016-06-18T07:15:03.303Z</time></trkpt><trkpt lat="57.99940667" lon="14.11997333"><ele>194.0</ele><time>2016-06-18T07:15:04.302Z</time></trkpt><trkpt lat="57.99940667" lon="14.11997333"><ele>194.0</ele><time>2016-06-18T07:15:05.292Z</time></trkpt><trkpt lat="57.99953833" lon="14.12011833"><ele>194.0</ele><time>2016-06-18T07:15:06.298Z</time></trkpt><trkpt lat="57.99953833" lon="14.12011833"><ele>194.0</ele><time>2016-06-18T07:15:07.316Z</time></trkpt><trkpt lat="57.99967833" lon="14.12027167"><ele>195.0</ele><time>2016-06-18T07:15:08.291Z</time></trkpt><trkpt lat="57.99967833" lon="14.12027167"><ele>195.0</ele><time>2016-06-18T07:15:09.315Z</time></trkpt><trkpt lat="57.99982" lon="14.12044"><ele>194.0</ele><time>2016-06-18T07:15:10.282Z</time></trkpt><trkpt lat="57.99982" lon="14.12044"><ele>194.0</ele><time>2016-06-18T07:15:11.290Z</time></trkpt><trkpt lat="57.99996" lon="14.12062167"><ele>195.0</ele><time>2016-06-18T07:15:12.302Z</time></trkpt><trkpt lat="57.99996" lon="14.12062167"><ele>195.0</ele><time>2016-06-18T07:15:13.289Z</time></trkpt><trkpt lat="58.00010667" lon="14.12081167"><ele>194.0</ele><time>2016-06-18T07:15:14.297Z</time></trkpt><trkpt lat="58.00010667" lon="14.12081167"><ele>194.0</ele><time>2016-06-18T07:15:15.318Z</time></trkpt><trkpt lat="58.00025667" lon="14.121005"><ele>193.0</ele><time>2016-06-18T07:15:16.283Z</time></trkpt><trkpt lat="58.00025667" lon="14.121005"><ele>193.0</ele><time>2016-06-18T07:15:17.311Z</time></trkpt><trkpt lat="58.00041333" lon="14.121205"><ele>193.0</ele><time>2016-06-18T07:15:18.318Z</time></trkpt><trkpt lat="58.00049" lon="14.12130667"><ele>193.0</ele><time>2016-06-18T07:15:19.308Z</time></trkpt><trkpt lat="58.00049" lon="14.12130667"><ele>193.0</ele><time>2016-06-18T07:15:20.318Z</time></trkpt><trkpt lat="58.00063667" lon="14.12149833"><ele>193.0</ele><time>2016-06-18T07:15:21.285Z</time></trkpt><trkpt lat="58.00063667" lon="14.12149833"><ele>193.0</ele><time>2016-06-18T07:15:22.307Z</time></trkpt><trkpt lat="58.00077833" lon="14.12167333"><ele>193.0</ele><time>2016-06-18T07:15:23.309Z</time></trkpt><trkpt lat="58.00077833" lon="14.12167333"><ele>193.0</ele><time>2016-06-18T07:15:24.310Z</time></trkpt><trkpt lat="58.00092167" lon="14.121855"><ele>193.0</ele><time>2016-06-18T07:15:25.317Z</time></trkpt><trkpt lat="58.00099667" lon="14.121955"><ele>193.0</ele><time>2016-06-18T07:15:26.308Z</time></trkpt><trkpt lat="58.00099667" lon="14.121955"><ele>193.0</ele><time>2016-06-18T07:15:27.295Z</time></trkpt><trkpt lat="58.00114833" lon="14.12215667"><ele>193.0</ele><time>2016-06-18T07:15:28.301Z</time></trkpt><trkpt lat="58.00114833" lon="14.12215667"><ele>193.0</ele><time>2016-06-18T07:15:29.287Z</time></trkpt><trkpt lat="58.00130667" lon="14.12235333"><ele>193.0</ele><time>2016-06-18T07:15:30.285Z</time></trkpt><trkpt lat="58.00130667" lon="14.12235333"><ele>193.0</ele><time>2016-06-18T07:15:31.316Z</time></trkpt><trkpt lat="58.001455" lon="14.12253667"><ele>193.0</ele><time>2016-06-18T07:15:32.284Z</time></trkpt><trkpt lat="58.001455" lon="14.12253667"><ele>193.0</ele><time>2016-06-18T07:15:33.308Z</time></trkpt><trkpt lat="58.001595" lon="14.12271333"><ele>193.0</ele><time>2016-06-18T07:15:34.288Z</time></trkpt><trkpt lat="58.001595" lon="14.12271333"><ele>193.0</ele><time>2016-06-18T07:15:35.288Z</time></trkpt><trkpt lat="58.00173167" lon="14.12288833"><ele>193.0</ele><time>2016-06-18T07:15:36.295Z</time></trkpt><trkpt lat="58.00173167" lon="14.12288833"><ele>193.0</ele><time>2016-06-18T07:15:37.316Z</time></trkpt><trkpt lat="58.00187" lon="14.12308667"><ele>193.0</ele><time>2016-06-18T07:15:38.308Z</time></trkpt><trkpt lat="58.00187" lon="14.12308667"><ele>193.0</ele><time>2016-06-18T07:15:39.312Z</time></trkpt><trkpt lat="58.002015" lon="14.12326667"><ele>194.0</ele><time>2016-06-18T07:15:40.318Z</time></trkpt><trkpt lat="58.002015" lon="14.12326667"><ele>194.0</ele><time>2016-06-18T07:15:41.305Z</time></trkpt><trkpt lat="58.002155" lon="14.12345167"><ele>194.0</ele><time>2016-06-18T07:15:42.292Z</time></trkpt><trkpt lat="58.002155" lon="14.12345167"><ele>194.0</ele><time>2016-06-18T07:15:43.303Z</time></trkpt><trkpt lat="58.00229667" lon="14.12364667"><ele>195.0</ele><time>2016-06-18T07:15:44.313Z</time></trkpt><trkpt lat="58.00237167" lon="14.12374167"><ele>194.0</ele><time>2016-06-18T07:15:45.306Z</time></trkpt><trkpt lat="58.00237167" lon="14.12374167"><ele>194.0</ele><time>2016-06-18T07:15:46.289Z</time></trkpt><trkpt lat="58.00251833" lon="14.12392833"><ele>195.0</ele><time>2016-06-18T07:15:47.295Z</time></trkpt><trkpt lat="58.00251833" lon="14.12392833"><ele>195.0</ele><time>2016-06-18T07:15:48.316Z</time></trkpt><trkpt lat="58.002665" lon="14.12411833"><ele>195.0</ele><time>2016-06-18T07:15:49.306Z</time></trkpt><trkpt lat="58.002665" lon="14.12411833"><ele>195.0</ele><time>2016-06-18T07:15:50.299Z</time></trkpt><trkpt lat="58.002815" lon="14.12430167"><ele>195.0</ele><time>2016-06-18T07:15:51.306Z</time></trkpt><trkpt lat="58.00288833" lon="14.124395"><ele>195.0</ele><time>2016-06-18T07:15:52.288Z</time></trkpt><trkpt lat="58.00288833" lon="14.124395"><ele>195.0</ele><time>2016-06-18T07:15:53.311Z</time></trkpt><trkpt lat="58.00301833" lon="14.12456667"><ele>195.0</ele><time>2016-06-18T07:15:54.295Z</time></trkpt><trkpt lat="58.00308667" lon="14.12466"><ele>195.0</ele><time>2016-06-18T07:15:55.317Z</time></trkpt><trkpt lat="58.00315667" lon="14.12475333"><ele>195.0</ele><time>2016-06-18T07:15:56.300Z</time></trkpt><trkpt lat="58.00315667" lon="14.12475333"><ele>195.0</ele><time>2016-06-18T07:15:57.285Z</time></trkpt><trkpt lat="58.00329333" lon="14.12493833"><ele>195.0</ele><time>2016-06-18T07:15:58.286Z</time></trkpt><trkpt lat="58.00329333" lon="14.12493833"><ele>195.0</ele><time>2016-06-18T07:15:59.295Z</time></trkpt><trkpt lat="58.00343167" lon="14.12512833"><ele>195.0</ele><time>2016-06-18T07:16:00.301Z</time></trkpt><trkpt lat="58.00350333" lon="14.12522333"><ele>195.0</ele><time>2016-06-18T07:16:01.305Z</time></trkpt><trkpt lat="58.00350333" lon="14.12522333"><ele>195.0</ele><time>2016-06-18T07:16:02.308Z</time></trkpt><trkpt lat="58.003645" lon="14.12541167"><ele>194.0</ele><time>2016-06-18T07:16:03.314Z</time></trkpt><trkpt lat="58.003645" lon="14.12541167"><ele>194.0</ele><time>2016-06-18T07:16:04.298Z</time></trkpt><trkpt lat="58.00378833" lon="14.12559667"><ele>194.0</ele><time>2016-06-18T07:16:05.320Z</time></trkpt><trkpt lat="58.00378833" lon="14.12559667"><ele>194.0</ele><time>2016-06-18T07:16:06.292Z</time></trkpt><trkpt lat="58.00392833" lon="14.12577833"><ele>194.0</ele><time>2016-06-18T07:16:07.299Z</time></trkpt><trkpt lat="58.00399333" lon="14.125865"><ele>193.0</ele><time>2016-06-18T07:16:08.298Z</time></trkpt><trkpt lat="58.00399333" lon="14.125865"><ele>193.0</ele><time>2016-06-18T07:16:09.304Z</time></trkpt><trkpt lat="58.00413667" lon="14.12605167"><ele>193.0</ele><time>2016-06-18T07:16:10.311Z</time></trkpt><trkpt lat="58.00413667" lon="14.12605167"><ele>193.0</ele><time>2016-06-18T07:16:11.315Z</time></trkpt><trkpt lat="58.00428" lon="14.12621833"><ele>193.0</ele><time>2016-06-18T07:16:12.306Z</time></trkpt><trkpt lat="58.00428" lon="14.12621833"><ele>193.0</ele><time>2016-06-18T07:16:13.295Z</time></trkpt><trkpt lat="58.00441333" lon="14.12639667"><ele>194.0</ele><time>2016-06-18T07:16:14.309Z</time></trkpt><trkpt lat="58.00441333" lon="14.12639667"><ele>194.0</ele><time>2016-06-18T07:16:15.294Z</time></trkpt><trkpt lat="58.004545" lon="14.126585"><ele>194.0</ele><time>2016-06-18T07:16:16.324Z</time></trkpt><trkpt lat="58.004545" lon="14.126585"><ele>194.0</ele><time>2016-06-18T07:16:17.288Z</time></trkpt><trkpt lat="58.004685" lon="14.12677"><ele>194.0</ele><time>2016-06-18T07:16:18.295Z</time></trkpt><trkpt lat="58.004685" lon="14.12677"><ele>194.0</ele><time>2016-06-18T07:16:19.318Z</time></trkpt><trkpt lat="58.00483" lon="14.12695833"><ele>194.0</ele><time>2016-06-18T07:16:20.318Z</time></trkpt><trkpt lat="58.00483" lon="14.12695833"><ele>194.0</ele><time>2016-06-18T07:16:21.306Z</time></trkpt><trkpt lat="58.00496167" lon="14.12714833"><ele>195.0</ele><time>2016-06-18T07:16:22.313Z</time></trkpt><trkpt lat="58.00496167" lon="14.12714833"><ele>195.0</ele><time>2016-06-18T07:16:23.305Z</time></trkpt><trkpt lat="58.00508" lon="14.12735167"><ele>196.0</ele><time>2016-06-18T07:16:24.284Z</time></trkpt><trkpt lat="58.00508" lon="14.12735167"><ele>196.0</ele><time>2016-06-18T07:16:25.308Z</time></trkpt><trkpt lat="58.00521167" lon="14.12757"><ele>196.0</ele><time>2016-06-18T07:16:26.315Z</time></trkpt><trkpt lat="58.00521167" lon="14.12757"><ele>196.0</ele><time>2016-06-18T07:16:27.298Z</time></trkpt><trkpt lat="58.00536" lon="14.12777667"><ele>196.0</ele><time>2016-06-18T07:16:28.324Z</time></trkpt><trkpt lat="58.00536" lon="14.12777667"><ele>196.0</ele><time>2016-06-18T07:16:29.311Z</time></trkpt><trkpt lat="58.00550667" lon="14.127995"><ele>196.0</ele><time>2016-06-18T07:16:30.318Z</time></trkpt><trkpt lat="58.00550667" lon="14.127995"><ele>196.0</ele><time>2016-06-18T07:16:31.301Z</time></trkpt><trkpt lat="58.00563667" lon="14.12821833"><ele>196.0</ele><time>2016-06-18T07:16:32.292Z</time></trkpt><trkpt lat="58.00563667" lon="14.12821833"><ele>196.0</ele><time>2016-06-18T07:16:33.294Z</time></trkpt><trkpt lat="58.00576167" lon="14.128435"><ele>196.0</ele><time>2016-06-18T07:16:34.300Z</time></trkpt><trkpt lat="58.005825" lon="14.12854167"><ele>196.0</ele><time>2016-06-18T07:16:35.290Z</time></trkpt><trkpt lat="58.005825" lon="14.12854167"><ele>196.0</ele><time>2016-06-18T07:16:36.311Z</time></trkpt><trkpt lat="58.00596167" lon="14.12877333"><ele>196.0</ele><time>2016-06-18T07:16:37.318Z</time></trkpt><trkpt lat="58.006035" lon="14.12889833"><ele>196.0</ele><time>2016-06-18T07:16:38.319Z</time></trkpt><trkpt lat="58.006035" lon="14.12889833"><ele>196.0</ele><time>2016-06-18T07:16:39.282Z</time></trkpt><trkpt lat="58.00617833" lon="14.12916"><ele>196.0</ele><time>2016-06-18T07:16:40.290Z</time></trkpt><trkpt lat="58.00617833" lon="14.12916"><ele>196.0</ele><time>2016-06-18T07:16:41.311Z</time></trkpt><trkpt lat="58.00631833" lon="14.12942167"><ele>196.0</ele><time>2016-06-18T07:16:42.288Z</time></trkpt><trkpt lat="58.00631833" lon="14.12942167"><ele>196.0</ele><time>2016-06-18T07:16:43.294Z</time></trkpt><trkpt lat="58.00644833" lon="14.12968667"><ele>197.0</ele><time>2016-06-18T07:16:44.314Z</time></trkpt><trkpt lat="58.00644833" lon="14.12968667"><ele>197.0</ele><time>2016-06-18T07:16:45.296Z</time></trkpt><trkpt lat="58.00658167" lon="14.129965"><ele>197.0</ele><time>2016-06-18T07:16:46.302Z</time></trkpt><trkpt lat="58.00665167" lon="14.13010667"><ele>197.0</ele><time>2016-06-18T07:16:47.290Z</time></trkpt><trkpt lat="58.00665167" lon="14.13010667"><ele>197.0</ele><time>2016-06-18T07:16:48.310Z</time></trkpt><trkpt lat="58.00679833" lon="14.1304"><ele>196.0</ele><time>2016-06-18T07:16:49.318Z</time></trkpt><trkpt lat="58.00679833" lon="14.1304"><ele>196.0</ele><time>2016-06-18T07:16:50.305Z</time></trkpt><trkpt lat="58.00693667" lon="14.13068833"><ele>196.0</ele><time>2016-06-18T07:16:51.295Z</time></trkpt><trkpt lat="58.00693667" lon="14.13068833"><ele>196.0</ele><time>2016-06-18T07:16:52.283Z</time></trkpt><trkpt lat="58.00707833" lon="14.13097667"><ele>195.0</ele><time>2016-06-18T07:16:53.294Z</time></trkpt><trkpt lat="58.00707833" lon="14.13097667"><ele>195.0</ele><time>2016-06-18T07:16:54.316Z</time></trkpt><trkpt lat="58.00721333" lon="14.13127167"><ele>196.0</ele><time>2016-06-18T07:16:55.293Z</time></trkpt><trkpt lat="58.00721333" lon="14.13127167"><ele>196.0</ele><time>2016-06-18T07:16:56.298Z</time></trkpt><trkpt lat="58.00735833" lon="14.13158667"><ele>195.0</ele><time>2016-06-18T07:16:57.305Z</time></trkpt><trkpt lat="58.00735833" lon="14.13158667"><ele>195.0</ele><time>2016-06-18T07:16:58.317Z</time></trkpt><trkpt lat="58.00749667" lon="14.13191833"><ele>195.0</ele><time>2016-06-18T07:16:59.290Z</time></trkpt><trkpt lat="58.00749667" lon="14.13191833"><ele>195.0</ele><time>2016-06-18T07:17:00.317Z</time></trkpt><trkpt lat="58.00764833" lon="14.13226"><ele>194.0</ele><time>2016-06-18T07:17:01.286Z</time></trkpt><trkpt lat="58.00772333" lon="14.13243667"><ele>193.0</ele><time>2016-06-18T07:17:02.284Z</time></trkpt><trkpt lat="58.00772333" lon="14.13243667"><ele>193.0</ele><time>2016-06-18T07:17:03.307Z</time></trkpt><trkpt lat="58.00787167" lon="14.132795"><ele>192.0</ele><time>2016-06-18T07:17:04.314Z</time></trkpt><trkpt lat="58.00787167" lon="14.132795"><ele>192.0</ele><time>2016-06-18T07:17:05.298Z</time></trkpt><trkpt lat="58.00802167" lon="14.13315667"><ele>191.0</ele><time>2016-06-18T07:17:06.284Z</time></trkpt><trkpt lat="58.00802167" lon="14.13315667"><ele>191.0</ele><time>2016-06-18T07:17:07.291Z</time></trkpt><trkpt lat="58.00817" lon="14.13351667"><ele>190.0</ele><time>2016-06-18T07:17:08.298Z</time></trkpt><trkpt lat="58.00817" lon="14.13351667"><ele>190.0</ele><time>2016-06-18T07:17:09.319Z</time></trkpt><trkpt lat="58.00832" lon="14.13388"><ele>188.0</ele><time>2016-06-18T07:17:10.298Z</time></trkpt><trkpt lat="58.00832" lon="14.13388"><ele>188.0</ele><time>2016-06-18T07:17:11.319Z</time></trkpt><trkpt lat="58.00846667" lon="14.13425167"><ele>187.0</ele><time>2016-06-18T07:17:12.317Z</time></trkpt><trkpt lat="58.00846667" lon="14.13425167"><ele>187.0</ele><time>2016-06-18T07:17:13.296Z</time></trkpt><trkpt lat="58.00861333" lon="14.134625"><ele>186.0</ele><time>2016-06-18T07:17:14.303Z</time></trkpt><trkpt lat="58.00861333" lon="14.134625"><ele>186.0</ele><time>2016-06-18T07:17:15.289Z</time></trkpt><trkpt lat="58.00875833" lon="14.13499667"><ele>185.0</ele><time>2016-06-18T07:17:16.299Z</time></trkpt><trkpt lat="58.00883167" lon="14.13517833"><ele>185.0</ele><time>2016-06-18T07:17:17.308Z</time></trkpt><trkpt lat="58.00883167" lon="14.13517833"><ele>185.0</ele><time>2016-06-18T07:17:18.316Z</time></trkpt><trkpt lat="58.00897167" lon="14.13553333"><ele>184.0</ele><time>2016-06-18T07:17:19.283Z</time></trkpt><trkpt lat="58.00903833" lon="14.13570167"><ele>184.0</ele><time>2016-06-18T07:17:20.311Z</time></trkpt><trkpt lat="58.00903833" lon="14.13570167"><ele>184.0</ele><time>2016-06-18T07:17:21.293Z</time></trkpt><trkpt lat="58.00916833" lon="14.13602167"><ele>184.0</ele><time>2016-06-18T07:17:22.299Z</time></trkpt><trkpt lat="58.00922833" lon="14.13617167"><ele>184.0</ele><time>2016-06-18T07:17:23.315Z</time></trkpt><trkpt lat="58.00922833" lon="14.13617167"><ele>184.0</ele><time>2016-06-18T07:17:24.305Z</time></trkpt><trkpt lat="58.00934667" lon="14.136465"><ele>184.0</ele><time>2016-06-18T07:17:25.311Z</time></trkpt><trkpt lat="58.009405" lon="14.13660833"><ele>185.0</ele><time>2016-06-18T07:17:26.317Z</time></trkpt><trkpt lat="58.009405" lon="14.13660833"><ele>185.0</ele><time>2016-06-18T07:17:27.296Z</time></trkpt><trkpt lat="58.009525" lon="14.13688333"><ele>185.0</ele><time>2016-06-18T07:17:28.303Z</time></trkpt><trkpt lat="58.009525" lon="14.13688333"><ele>185.0</ele><time>2016-06-18T07:17:29.297Z</time></trkpt><trkpt lat="58.00964667" lon="14.13715167"><ele>185.0</ele><time>2016-06-18T07:17:30.312Z</time></trkpt><trkpt lat="58.00964667" lon="14.13715167"><ele>185.0</ele><time>2016-06-18T07:17:31.309Z</time></trkpt><trkpt lat="58.00977" lon="14.13741667"><ele>186.0</ele><time>2016-06-18T07:17:32.316Z</time></trkpt><trkpt lat="58.00977" lon="14.13741667"><ele>186.0</ele><time>2016-06-18T07:17:33.297Z</time></trkpt><trkpt lat="58.00988833" lon="14.13769"><ele>186.0</ele><time>2016-06-18T07:17:34.292Z</time></trkpt><trkpt lat="58.00988833" lon="14.13769"><ele>186.0</ele><time>2016-06-18T07:17:35.321Z</time></trkpt><trkpt lat="58.01001333" lon="14.13794667"><ele>186.0</ele><time>2016-06-18T07:17:36.287Z</time></trkpt><trkpt lat="58.010075" lon="14.13807"><ele>187.0</ele><time>2016-06-18T07:17:37.323Z</time></trkpt><trkpt lat="58.01013667" lon="14.13818833"><ele>187.0</ele><time>2016-06-18T07:17:38.321Z</time></trkpt><trkpt lat="58.01013667" lon="14.13818833"><ele>187.0</ele><time>2016-06-18T07:17:39.304Z</time></trkpt><trkpt lat="58.01026167" lon="14.13841667"><ele>188.0</ele><time>2016-06-18T07:17:40.284Z</time></trkpt><trkpt lat="58.01033" lon="14.13853833"><ele>188.0</ele><time>2016-06-18T07:17:41.294Z</time></trkpt><trkpt lat="58.01033" lon="14.13853833"><ele>188.0</ele><time>2016-06-18T07:17:42.317Z</time></trkpt><trkpt lat="58.01046667" lon="14.13878167"><ele>188.0</ele><time>2016-06-18T07:17:43.318Z</time></trkpt><trkpt lat="58.01053" lon="14.1389"><ele>188.0</ele><time>2016-06-18T07:17:44.299Z</time></trkpt><trkpt lat="58.01053" lon="14.1389"><ele>188.0</ele><time>2016-06-18T07:17:45.316Z</time></trkpt><trkpt lat="58.01066333" lon="14.13912833"><ele>187.0</ele><time>2016-06-18T07:17:46.295Z</time></trkpt><trkpt lat="58.01066333" lon="14.13912833"><ele>187.0</ele><time>2016-06-18T07:17:47.321Z</time></trkpt><trkpt lat="58.010805" lon="14.13935167"><ele>187.0</ele><time>2016-06-18T07:17:48.290Z</time></trkpt><trkpt lat="58.010805" lon="14.13935167"><ele>187.0</ele><time>2016-06-18T07:17:49.311Z</time></trkpt><trkpt lat="58.01094333" lon="14.13956667"><ele>186.0</ele><time>2016-06-18T07:17:50.297Z</time></trkpt><trkpt lat="58.01094333" lon="14.13956667"><ele>186.0</ele><time>2016-06-18T07:17:51.301Z</time></trkpt><trkpt lat="58.01108333" lon="14.13977833"><ele>186.0</ele><time>2016-06-18T07:17:52.308Z</time></trkpt><trkpt lat="58.01108333" lon="14.13977833"><ele>186.0</ele><time>2016-06-18T07:17:53.293Z</time></trkpt><trkpt lat="58.01121667" lon="14.13997167"><ele>185.0</ele><time>2016-06-18T07:17:54.321Z</time></trkpt><trkpt lat="58.01121667" lon="14.13997167"><ele>185.0</ele><time>2016-06-18T07:17:55.290Z</time></trkpt><trkpt lat="58.01135" lon="14.14015833"><ele>185.0</ele><time>2016-06-18T07:17:56.297Z</time></trkpt><trkpt lat="58.01135" lon="14.14015833"><ele>185.0</ele><time>2016-06-18T07:17:57.319Z</time></trkpt><trkpt lat="58.01149" lon="14.140345"><ele>184.0</ele><time>2016-06-18T07:17:58.292Z</time></trkpt><trkpt lat="58.01149" lon="14.140345"><ele>184.0</ele><time>2016-06-18T07:17:59.290Z</time></trkpt><trkpt lat="58.01163333" lon="14.14052833"><ele>184.0</ele><time>2016-06-18T07:18:00.298Z</time></trkpt><trkpt lat="58.01163333" lon="14.14052833"><ele>184.0</ele><time>2016-06-18T07:18:01.322Z</time></trkpt><trkpt lat="58.01178833" lon="14.140705"><ele>184.0</ele><time>2016-06-18T07:18:02.316Z</time></trkpt><trkpt lat="58.01178833" lon="14.140705"><ele>184.0</ele><time>2016-06-18T07:18:03.305Z</time></trkpt><trkpt lat="58.01193667" lon="14.14087"><ele>183.0</ele><time>2016-06-18T07:18:04.312Z</time></trkpt><trkpt lat="58.01193667" lon="14.14087"><ele>183.0</ele><time>2016-06-18T07:18:05.298Z</time></trkpt><trkpt lat="58.01208" lon="14.14103167"><ele>184.0</ele><time>2016-06-18T07:18:06.288Z</time></trkpt><trkpt lat="58.01208" lon="14.14103167"><ele>184.0</ele><time>2016-06-18T07:18:07.300Z</time></trkpt><trkpt lat="58.01223667" lon="14.141195"><ele>184.0</ele><time>2016-06-18T07:18:08.307Z</time></trkpt><trkpt lat="58.012315" lon="14.14127833"><ele>184.0</ele><time>2016-06-18T07:18:09.291Z</time></trkpt><trkpt lat="58.012315" lon="14.14127833"><ele>184.0</ele><time>2016-06-18T07:18:10.290Z</time></trkpt><trkpt lat="58.01248833" lon="14.14145333"><ele>184.0</ele><time>2016-06-18T07:18:11.307Z</time></trkpt><trkpt lat="58.01257333" lon="14.14153333"><ele>184.0</ele><time>2016-06-18T07:18:12.311Z</time></trkpt><trkpt lat="58.01257333" lon="14.14153333"><ele>184.0</ele><time>2016-06-18T07:18:13.299Z</time></trkpt><trkpt lat="58.012735" lon="14.141685"><ele>184.0</ele><time>2016-06-18T07:18:14.322Z</time></trkpt><trkpt lat="58.012735" lon="14.141685"><ele>184.0</ele><time>2016-06-18T07:18:15.290Z</time></trkpt><trkpt lat="58.012895" lon="14.14183"><ele>184.0</ele><time>2016-06-18T07:18:16.301Z</time></trkpt><trkpt lat="58.012895" lon="14.14183"><ele>184.0</ele><time>2016-06-18T07:18:17.321Z</time></trkpt><trkpt lat="58.01306" lon="14.14197"><ele>184.0</ele><time>2016-06-18T07:18:18.287Z</time></trkpt><trkpt lat="58.01306" lon="14.14197"><ele>184.0</ele><time>2016-06-18T07:18:19.319Z</time></trkpt><trkpt lat="58.01322333" lon="14.1421"><ele>184.0</ele><time>2016-06-18T07:18:20.288Z</time></trkpt><trkpt lat="58.01322333" lon="14.1421"><ele>184.0</ele><time>2016-06-18T07:18:21.312Z</time></trkpt><trkpt lat="58.01339333" lon="14.14221833"><ele>185.0</ele><time>2016-06-18T07:18:22.319Z</time></trkpt><trkpt lat="58.01347667" lon="14.14227667"><ele>185.0</ele><time>2016-06-18T07:18:23.299Z</time></trkpt><trkpt lat="58.01347667" lon="14.14227667"><ele>185.0</ele><time>2016-06-18T07:18:24.285Z</time></trkpt><trkpt lat="58.01365167" lon="14.14239167"><ele>184.0</ele><time>2016-06-18T07:18:25.285Z</time></trkpt><trkpt lat="58.01373833" lon="14.14245"><ele>184.0</ele><time>2016-06-18T07:18:26.312Z</time></trkpt><trkpt lat="58.01373833" lon="14.14245"><ele>184.0</ele><time>2016-06-18T07:18:27.295Z</time></trkpt><trkpt lat="58.01391333" lon="14.14256167"><ele>184.0</ele><time>2016-06-18T07:18:28.300Z</time></trkpt><trkpt lat="58.01391333" lon="14.14256167"><ele>184.0</ele><time>2016-06-18T07:18:29.295Z</time></trkpt><trkpt lat="58.01408167" lon="14.14266"><ele>184.0</ele><time>2016-06-18T07:18:30.302Z</time></trkpt><trkpt lat="58.01416667" lon="14.14271"><ele>183.0</ele><time>2016-06-18T07:18:31.320Z</time></trkpt><trkpt lat="58.01416667" lon="14.14271"><ele>183.0</ele><time>2016-06-18T07:18:32.318Z</time></trkpt><trkpt lat="58.01433833" lon="14.14280167"><ele>183.0</ele><time>2016-06-18T07:18:33.285Z</time></trkpt><trkpt lat="58.01433833" lon="14.14280167"><ele>183.0</ele><time>2016-06-18T07:18:34.308Z</time></trkpt><trkpt lat="58.01451833" lon="14.14290333"><ele>182.0</ele><time>2016-06-18T07:18:35.317Z</time></trkpt><trkpt lat="58.01451833" lon="14.14290333"><ele>182.0</ele><time>2016-06-18T07:18:36.311Z</time></trkpt><trkpt lat="58.01469" lon="14.143"><ele>182.0</ele><time>2016-06-18T07:18:37.317Z</time></trkpt><trkpt lat="58.01477667" lon="14.14305"><ele>182.0</ele><time>2016-06-18T07:18:38.302Z</time></trkpt><trkpt lat="58.01477667" lon="14.14305"><ele>182.0</ele><time>2016-06-18T07:18:39.306Z</time></trkpt><trkpt lat="58.014935" lon="14.143135"><ele>181.0</ele><time>2016-06-18T07:18:40.288Z</time></trkpt><trkpt lat="58.014935" lon="14.143135"><ele>181.0</ele><time>2016-06-18T07:18:41.298Z</time></trkpt><trkpt lat="58.01510167" lon="14.14322833"><ele>181.0</ele><time>2016-06-18T07:18:42.314Z</time></trkpt><trkpt lat="58.01510167" lon="14.14322833"><ele>181.0</ele><time>2016-06-18T07:18:43.297Z</time></trkpt><trkpt lat="58.01525667" lon="14.14332"><ele>180.0</ele><time>2016-06-18T07:18:44.324Z</time></trkpt><trkpt lat="58.01525667" lon="14.14332"><ele>180.0</ele><time>2016-06-18T07:18:45.291Z</time></trkpt><trkpt lat="58.01541" lon="14.14340833"><ele>180.0</ele><time>2016-06-18T07:18:46.298Z</time></trkpt><trkpt lat="58.01541" lon="14.14340833"><ele>180.0</ele><time>2016-06-18T07:18:47.319Z</time></trkpt><trkpt lat="58.01556833" lon="14.14349167"><ele>179.0</ele><time>2016-06-18T07:18:48.321Z</time></trkpt><trkpt lat="58.01556833" lon="14.14349167"><ele>179.0</ele><time>2016-06-18T07:18:49.321Z</time></trkpt><trkpt lat="58.01572333" lon="14.143615"><ele>179.0</ele><time>2016-06-18T07:18:50.294Z</time></trkpt><trkpt lat="58.01572333" lon="14.143615"><ele>179.0</ele><time>2016-06-18T07:18:51.303Z</time></trkpt><trkpt lat="58.01587333" lon="14.14375333"><ele>179.0</ele><time>2016-06-18T07:18:52.291Z</time></trkpt><trkpt lat="58.01587333" lon="14.14375333"><ele>179.0</ele><time>2016-06-18T07:18:53.288Z</time></trkpt><trkpt lat="58.01602167" lon="14.14389833"><ele>179.0</ele><time>2016-06-18T07:18:54.297Z</time></trkpt><trkpt lat="58.01602167" lon="14.14389833"><ele>179.0</ele><time>2016-06-18T07:18:55.321Z</time></trkpt><trkpt lat="58.01617333" lon="14.14405"><ele>179.0</ele><time>2016-06-18T07:18:56.300Z</time></trkpt><trkpt lat="58.01617333" lon="14.14405"><ele>179.0</ele><time>2016-06-18T07:18:57.314Z</time></trkpt><trkpt lat="58.01632833" lon="14.14420167"><ele>179.0</ele><time>2016-06-18T07:18:58.322Z</time></trkpt><trkpt lat="58.01640667" lon="14.14427833"><ele>179.0</ele><time>2016-06-18T07:18:59.319Z</time></trkpt><trkpt lat="58.01640667" lon="14.14427833"><ele>179.0</ele><time>2016-06-18T07:19:00.303Z</time></trkpt><trkpt lat="58.01656167" lon="14.14443667"><ele>179.0</ele><time>2016-06-18T07:19:01.320Z</time></trkpt><trkpt lat="58.01663667" lon="14.144525"><ele>179.0</ele><time>2016-06-18T07:19:02.302Z</time></trkpt><trkpt lat="58.01663667" lon="14.144525"><ele>179.0</ele><time>2016-06-18T07:19:03.293Z</time></trkpt><trkpt lat="58.01678833" lon="14.14471167"><ele>179.0</ele><time>2016-06-18T07:19:04.299Z</time></trkpt><trkpt lat="58.01678833" lon="14.14471167"><ele>179.0</ele><time>2016-06-18T07:19:05.296Z</time></trkpt><trkpt lat="58.01694167" lon="14.14491167"><ele>178.0</ele><time>2016-06-18T07:19:06.292Z</time></trkpt><trkpt lat="58.01694167" lon="14.14491167"><ele>178.0</ele><time>2016-06-18T07:19:07.291Z</time></trkpt><trkpt lat="58.0171" lon="14.14511167"><ele>177.0</ele><time>2016-06-18T07:19:08.302Z</time></trkpt><trkpt lat="58.0171" lon="14.14511167"><ele>177.0</ele><time>2016-06-18T07:19:09.290Z</time></trkpt><trkpt lat="58.01726" lon="14.145325"><ele>176.0</ele><time>2016-06-18T07:19:10.287Z</time></trkpt><trkpt lat="58.01726" lon="14.145325"><ele>176.0</ele><time>2016-06-18T07:19:11.289Z</time></trkpt><trkpt lat="58.01742667" lon="14.145545"><ele>174.0</ele><time>2016-06-18T07:19:12.317Z</time></trkpt><trkpt lat="58.01742667" lon="14.145545"><ele>174.0</ele><time>2016-06-18T07:19:13.295Z</time></trkpt><trkpt lat="58.01759667" lon="14.14577833"><ele>173.0</ele><time>2016-06-18T07:19:14.303Z</time></trkpt><trkpt lat="58.01759667" lon="14.14577833"><ele>173.0</ele><time>2016-06-18T07:19:15.286Z</time></trkpt><trkpt lat="58.01777833" lon="14.14602"><ele>172.0</ele><time>2016-06-18T07:19:16.286Z</time></trkpt><trkpt lat="58.01777833" lon="14.14602"><ele>172.0</ele><time>2016-06-18T07:19:17.300Z</time></trkpt><trkpt lat="58.01796667" lon="14.14627833"><ele>171.0</ele><time>2016-06-18T07:19:18.307Z</time></trkpt><trkpt lat="58.01806667" lon="14.14641"><ele>170.0</ele><time>2016-06-18T07:19:19.301Z</time></trkpt><trkpt lat="58.01817" lon="14.14654667"><ele>170.0</ele><time>2016-06-18T07:19:20.293Z</time></trkpt><trkpt lat="58.01817" lon="14.14654667"><ele>170.0</ele><time>2016-06-18T07:19:21.315Z</time></trkpt><trkpt lat="58.018375" lon="14.14681833"><ele>169.0</ele><time>2016-06-18T07:19:22.297Z</time></trkpt><trkpt lat="58.018375" lon="14.14681833"><ele>169.0</ele><time>2016-06-18T07:19:23.297Z</time></trkpt><trkpt lat="58.01857833" lon="14.14709667"><ele>168.0</ele><time>2016-06-18T07:19:24.304Z</time></trkpt><trkpt lat="58.01857833" lon="14.14709667"><ele>168.0</ele><time>2016-06-18T07:19:25.311Z</time></trkpt><trkpt lat="58.018785" lon="14.14737833"><ele>167.0</ele><time>2016-06-18T07:19:26.308Z</time></trkpt><trkpt lat="58.018785" lon="14.14737833"><ele>167.0</ele><time>2016-06-18T07:19:27.289Z</time></trkpt><trkpt lat="58.01898833" lon="14.14766333"><ele>166.0</ele><time>2016-06-18T07:19:28.307Z</time></trkpt><trkpt lat="58.01898833" lon="14.14766333"><ele>166.0</ele><time>2016-06-18T07:19:29.290Z</time></trkpt><trkpt lat="58.01920167" lon="14.14795833"><ele>166.0</ele><time>2016-06-18T07:19:30.300Z</time></trkpt><trkpt lat="58.01920167" lon="14.14795833"><ele>166.0</ele><time>2016-06-18T07:19:31.282Z</time></trkpt><trkpt lat="58.019435" lon="14.14826167"><ele>164.0</ele><time>2016-06-18T07:19:32.321Z</time></trkpt><trkpt lat="58.019435" lon="14.14826167"><ele>164.0</ele><time>2016-06-18T07:19:33.318Z</time></trkpt><trkpt lat="58.01966667" lon="14.14857"><ele>162.0</ele><time>2016-06-18T07:19:34.297Z</time></trkpt><trkpt lat="58.01966667" lon="14.14857"><ele>162.0</ele><time>2016-06-18T07:19:35.319Z</time></trkpt><trkpt lat="58.01989" lon="14.14887333"><ele>160.0</ele><time>2016-06-18T07:19:36.286Z</time></trkpt><trkpt lat="58.02" lon="14.14902"><ele>160.0</ele><time>2016-06-18T07:19:37.309Z</time></trkpt><trkpt lat="58.02011" lon="14.149165"><ele>160.0</ele><time>2016-06-18T07:19:38.320Z</time></trkpt><trkpt lat="58.02011" lon="14.149165"><ele>160.0</ele><time>2016-06-18T07:19:39.298Z</time></trkpt><trkpt lat="58.02031167" lon="14.14945"><ele>160.0</ele><time>2016-06-18T07:19:40.286Z</time></trkpt><trkpt lat="58.02041167" lon="14.14958167"><ele>161.0</ele><time>2016-06-18T07:19:41.321Z</time></trkpt><trkpt lat="58.02041167" lon="14.14958167"><ele>161.0</ele><time>2016-06-18T07:19:42.304Z</time></trkpt><trkpt lat="58.020605" lon="14.14984167"><ele>161.0</ele><time>2016-06-18T07:19:43.291Z</time></trkpt><trkpt lat="58.020695" lon="14.149965"><ele>161.0</ele><time>2016-06-18T07:19:44.299Z</time></trkpt><trkpt lat="58.020695" lon="14.149965"><ele>161.0</ele><time>2016-06-18T07:19:45.308Z</time></trkpt><trkpt lat="58.02086833" lon="14.15021167"><ele>161.0</ele><time>2016-06-18T07:19:46.282Z</time></trkpt><trkpt lat="58.02086833" lon="14.15021167"><ele>161.0</ele><time>2016-06-18T07:19:47.313Z</time></trkpt><trkpt lat="58.02103667" lon="14.15044833"><ele>161.0</ele><time>2016-06-18T07:19:48.320Z</time></trkpt><trkpt lat="58.02103667" lon="14.15044833"><ele>161.0</ele><time>2016-06-18T07:19:49.313Z</time></trkpt><trkpt lat="58.021195" lon="14.15066833"><ele>162.0</ele><time>2016-06-18T07:19:50.298Z</time></trkpt><trkpt lat="58.021195" lon="14.15066833"><ele>162.0</ele><time>2016-06-18T07:19:51.321Z</time></trkpt><trkpt lat="58.02135" lon="14.15089"><ele>162.0</ele><time>2016-06-18T07:19:52.288Z</time></trkpt><trkpt lat="58.02135" lon="14.15089"><ele>162.0</ele><time>2016-06-18T07:19:53.311Z</time></trkpt><trkpt lat="58.021495" lon="14.15111167"><ele>162.0</ele><time>2016-06-18T07:19:54.316Z</time></trkpt><trkpt lat="58.021495" lon="14.15111167"><ele>162.0</ele><time>2016-06-18T07:19:55.291Z</time></trkpt><trkpt lat="58.02164833" lon="14.15133167"><ele>163.0</ele><time>2016-06-18T07:19:56.298Z</time></trkpt><trkpt lat="58.02164833" lon="14.15133167"><ele>163.0</ele><time>2016-06-18T07:19:57.320Z</time></trkpt><trkpt lat="58.02180333" lon="14.15155667"><ele>162.0</ele><time>2016-06-18T07:19:58.304Z</time></trkpt><trkpt lat="58.02180333" lon="14.15155667"><ele>162.0</ele><time>2016-06-18T07:19:59.288Z</time></trkpt><trkpt lat="58.02195167" lon="14.151775"><ele>163.0</ele><time>2016-06-18T07:20:00.302Z</time></trkpt><trkpt lat="58.02203" lon="14.15188667"><ele>164.0</ele><time>2016-06-18T07:20:01.298Z</time></trkpt><trkpt lat="58.02203" lon="14.15188667"><ele>164.0</ele><time>2016-06-18T07:20:02.321Z</time></trkpt><trkpt lat="58.02218833" lon="14.15213167"><ele>165.0</ele><time>2016-06-18T07:20:03.297Z</time></trkpt><trkpt lat="58.02218833" lon="14.15213167"><ele>165.0</ele><time>2016-06-18T07:20:04.319Z</time></trkpt><trkpt lat="58.02235333" lon="14.15239333"><ele>165.0</ele><time>2016-06-18T07:20:05.291Z</time></trkpt><trkpt lat="58.02235333" lon="14.15239333"><ele>165.0</ele><time>2016-06-18T07:20:06.297Z</time></trkpt><trkpt lat="58.02252" lon="14.15265833"><ele>165.0</ele><time>2016-06-18T07:20:07.303Z</time></trkpt><trkpt lat="58.02252" lon="14.15265833"><ele>165.0</ele><time>2016-06-18T07:20:08.284Z</time></trkpt><trkpt lat="58.02269167" lon="14.15292333"><ele>165.0</ele><time>2016-06-18T07:20:09.290Z</time></trkpt><trkpt lat="58.02269167" lon="14.15292333"><ele>165.0</ele><time>2016-06-18T07:20:10.312Z</time></trkpt><trkpt lat="58.02287" lon="14.15321167"><ele>166.0</ele><time>2016-06-18T07:20:11.328Z</time></trkpt><trkpt lat="58.02296167" lon="14.15335667"><ele>166.0</ele><time>2016-06-18T07:20:12.299Z</time></trkpt><trkpt lat="58.02305167" lon="14.15350167"><ele>165.0</ele><time>2016-06-18T07:20:13.321Z</time></trkpt><trkpt lat="58.02305167" lon="14.15350167"><ele>165.0</ele><time>2016-06-18T07:20:14.304Z</time></trkpt><trkpt lat="58.02324333" lon="14.15379667"><ele>165.0</ele><time>2016-06-18T07:20:15.315Z</time></trkpt><trkpt lat="58.02324333" lon="14.15379667"><ele>165.0</ele><time>2016-06-18T07:20:16.310Z</time></trkpt><trkpt lat="58.02343667" lon="14.154095"><ele>164.0</ele><time>2016-06-18T07:20:17.296Z</time></trkpt><trkpt lat="58.02343667" lon="14.154095"><ele>164.0</ele><time>2016-06-18T07:20:18.319Z</time></trkpt><trkpt lat="58.02362667" lon="14.15440333"><ele>163.0</ele><time>2016-06-18T07:20:19.301Z</time></trkpt><trkpt lat="58.02362667" lon="14.15440333"><ele>163.0</ele><time>2016-06-18T07:20:20.308Z</time></trkpt><trkpt lat="58.02381333" lon="14.15469167"><ele>161.0</ele><time>2016-06-18T07:20:21.315Z</time></trkpt><trkpt lat="58.023905" lon="14.154835"><ele>160.0</ele><time>2016-06-18T07:20:22.314Z</time></trkpt><trkpt lat="58.023905" lon="14.154835"><ele>160.0</ele><time>2016-06-18T07:20:23.297Z</time></trkpt><trkpt lat="58.02408667" lon="14.15512"><ele>159.0</ele><time>2016-06-18T07:20:24.305Z</time></trkpt><trkpt lat="58.024175" lon="14.15525833"><ele>158.0</ele><time>2016-06-18T07:20:25.293Z</time></trkpt><trkpt lat="58.02426333" lon="14.15539333"><ele>158.0</ele><time>2016-06-18T07:20:26.315Z</time></trkpt><trkpt lat="58.02426333" lon="14.15539333"><ele>158.0</ele><time>2016-06-18T07:20:27.303Z</time></trkpt><trkpt lat="58.02442833" lon="14.15565833"><ele>156.0</ele><time>2016-06-18T07:20:28.310Z</time></trkpt><trkpt lat="58.02442833" lon="14.15565833"><ele>156.0</ele><time>2016-06-18T07:20:29.292Z</time></trkpt><trkpt lat="58.02459333" lon="14.15592333"><ele>155.0</ele><time>2016-06-18T07:20:30.294Z</time></trkpt><trkpt lat="58.02459333" lon="14.15592333"><ele>155.0</ele><time>2016-06-18T07:20:31.296Z</time></trkpt><trkpt lat="58.02475667" lon="14.15618833"><ele>154.0</ele><time>2016-06-18T07:20:32.302Z</time></trkpt><trkpt lat="58.02475667" lon="14.15618833"><ele>154.0</ele><time>2016-06-18T07:20:33.283Z</time></trkpt><trkpt lat="58.02491167" lon="14.15644667"><ele>154.0</ele><time>2016-06-18T07:20:34.285Z</time></trkpt><trkpt lat="58.02491167" lon="14.15644667"><ele>154.0</ele><time>2016-06-18T07:20:35.296Z</time></trkpt><trkpt lat="58.02505833" lon="14.15668167"><ele>156.0</ele><time>2016-06-18T07:20:36.304Z</time></trkpt><trkpt lat="58.02505833" lon="14.15668167"><ele>156.0</ele><time>2016-06-18T07:20:37.290Z</time></trkpt><trkpt lat="58.02519833" lon="14.15692"><ele>156.0</ele><time>2016-06-18T07:20:38.314Z</time></trkpt><trkpt lat="58.02519833" lon="14.15692"><ele>156.0</ele><time>2016-06-18T07:20:39.295Z</time></trkpt><trkpt lat="58.02533167" lon="14.15716333"><ele>157.0</ele><time>2016-06-18T07:20:40.312Z</time></trkpt><trkpt lat="58.02533167" lon="14.15716333"><ele>157.0</ele><time>2016-06-18T07:20:41.292Z</time></trkpt><trkpt lat="58.02546667" lon="14.15739833"><ele>157.0</ele><time>2016-06-18T07:20:42.299Z</time></trkpt><trkpt lat="58.02553167" lon="14.15751167"><ele>157.0</ele><time>2016-06-18T07:20:43.284Z</time></trkpt><trkpt lat="58.02553167" lon="14.15751167"><ele>157.0</ele><time>2016-06-18T07:20:44.305Z</time></trkpt><trkpt lat="58.02564167" lon="14.157725"><ele>157.0</ele><time>2016-06-18T07:20:45.291Z</time></trkpt><trkpt lat="58.02564167" lon="14.157725"><ele>157.0</ele><time>2016-06-18T07:20:46.283Z</time></trkpt><trkpt lat="58.02574333" lon="14.15791833"><ele>156.0</ele><time>2016-06-18T07:20:47.295Z</time></trkpt><trkpt lat="58.02574333" lon="14.15791833"><ele>156.0</ele><time>2016-06-18T07:20:48.316Z</time></trkpt><trkpt lat="58.02585667" lon="14.15811333"><ele>156.0</ele><time>2016-06-18T07:20:49.306Z</time></trkpt><trkpt lat="58.025915" lon="14.15821833"><ele>156.0</ele><time>2016-06-18T07:20:50.298Z</time></trkpt><trkpt lat="58.025915" lon="14.15821833"><ele>156.0</ele><time>2016-06-18T07:20:51.321Z</time></trkpt><trkpt lat="58.02603167" lon="14.15843667"><ele>156.0</ele><time>2016-06-18T07:20:52.289Z</time></trkpt><trkpt lat="58.02603167" lon="14.15843667"><ele>156.0</ele><time>2016-06-18T07:20:53.300Z</time></trkpt><trkpt lat="58.02615167" lon="14.15866167"><ele>156.0</ele><time>2016-06-18T07:20:54.307Z</time></trkpt><trkpt lat="58.02621167" lon="14.15877333"><ele>155.0</ele><time>2016-06-18T07:20:55.294Z</time></trkpt><trkpt lat="58.02621167" lon="14.15877333"><ele>155.0</ele><time>2016-06-18T07:20:56.300Z</time></trkpt><trkpt lat="58.02632667" lon="14.15899833"><ele>155.0</ele><time>2016-06-18T07:20:57.321Z</time></trkpt><trkpt lat="58.02638333" lon="14.15911167"><ele>155.0</ele><time>2016-06-18T07:20:58.320Z</time></trkpt><trkpt lat="58.02644167" lon="14.15922667"><ele>154.0</ele><time>2016-06-18T07:20:59.301Z</time></trkpt><trkpt lat="58.02644167" lon="14.15922667"><ele>154.0</ele><time>2016-06-18T07:21:00.321Z</time></trkpt><trkpt lat="58.02656333" lon="14.15947333"><ele>154.0</ele><time>2016-06-18T07:21:01.290Z</time></trkpt><trkpt lat="58.02662667" lon="14.159605"><ele>154.0</ele><time>2016-06-18T07:21:02.301Z</time></trkpt><trkpt lat="58.02662667" lon="14.159605"><ele>154.0</ele><time>2016-06-18T07:21:03.291Z</time></trkpt><trkpt lat="58.02675667" lon="14.159875"><ele>154.0</ele><time>2016-06-18T07:21:04.305Z</time></trkpt><trkpt lat="58.02682333" lon="14.16001333"><ele>154.0</ele><time>2016-06-18T07:21:05.290Z</time></trkpt><trkpt lat="58.02682333" lon="14.16001333"><ele>154.0</ele><time>2016-06-18T07:21:06.308Z</time></trkpt><trkpt lat="58.02695833" lon="14.160295"><ele>154.0</ele><time>2016-06-18T07:21:07.304Z</time></trkpt><trkpt lat="58.02702667" lon="14.16044"><ele>154.0</ele><time>2016-06-18T07:21:08.291Z</time></trkpt><trkpt lat="58.02702667" lon="14.16044"><ele>154.0</ele><time>2016-06-18T07:21:09.315Z</time></trkpt><trkpt lat="58.02716" lon="14.16073333"><ele>154.0</ele><time>2016-06-18T07:21:10.308Z</time></trkpt><trkpt lat="58.02716" lon="14.16073333"><ele>154.0</ele><time>2016-06-18T07:21:11.316Z</time></trkpt><trkpt lat="58.02729833" lon="14.16103833"><ele>153.0</ele><time>2016-06-18T07:21:12.295Z</time></trkpt><trkpt lat="58.02729833" lon="14.16103833"><ele>153.0</ele><time>2016-06-18T07:21:13.304Z</time></trkpt><trkpt lat="58.02742667" lon="14.16134667"><ele>153.0</ele><time>2016-06-18T07:21:14.314Z</time></trkpt><trkpt lat="58.02742667" lon="14.16134667"><ele>153.0</ele><time>2016-06-18T07:21:15.299Z</time></trkpt><trkpt lat="58.02756333" lon="14.161655"><ele>152.0</ele><time>2016-06-18T07:21:16.325Z</time></trkpt><trkpt lat="58.02756333" lon="14.161655"><ele>152.0</ele><time>2016-06-18T07:21:17.306Z</time></trkpt><trkpt lat="58.02771" lon="14.161975"><ele>152.0</ele><time>2016-06-18T07:21:18.315Z</time></trkpt><trkpt lat="58.02771" lon="14.161975"><ele>152.0</ele><time>2016-06-18T07:21:19.284Z</time></trkpt><trkpt lat="58.027865" lon="14.16231833"><ele>151.0</ele><time>2016-06-18T07:21:20.283Z</time></trkpt><trkpt lat="58.027865" lon="14.16231833"><ele>151.0</ele><time>2016-06-18T07:21:21.286Z</time></trkpt><trkpt lat="58.02802833" lon="14.162685"><ele>150.0</ele><time>2016-06-18T07:21:22.296Z</time></trkpt><trkpt lat="58.02802833" lon="14.162685"><ele>150.0</ele><time>2016-06-18T07:21:23.320Z</time></trkpt><trkpt lat="58.02820167" lon="14.16307167"><ele>148.0</ele><time>2016-06-18T07:21:24.288Z</time></trkpt><trkpt lat="58.02829" lon="14.16327"><ele>148.0</ele><time>2016-06-18T07:21:25.282Z</time></trkpt><trkpt lat="58.02829" lon="14.16327"><ele>148.0</ele><time>2016-06-18T07:21:26.309Z</time></trkpt><trkpt lat="58.02847167" lon="14.16367667"><ele>145.0</ele><time>2016-06-18T07:21:27.284Z</time></trkpt><trkpt lat="58.02856" lon="14.16387833"><ele>144.0</ele><time>2016-06-18T07:21:28.303Z</time></trkpt><trkpt lat="58.02864833" lon="14.16408"><ele>144.0</ele><time>2016-06-18T07:21:29.292Z</time></trkpt><trkpt lat="58.02864833" lon="14.16408"><ele>144.0</ele><time>2016-06-18T07:21:30.317Z</time></trkpt><trkpt lat="58.02881833" lon="14.16448"><ele>142.0</ele><time>2016-06-18T07:21:31.294Z</time></trkpt><trkpt lat="58.02890333" lon="14.16467"><ele>142.0</ele><time>2016-06-18T07:21:32.298Z</time></trkpt><trkpt lat="58.02890333" lon="14.16467"><ele>142.0</ele><time>2016-06-18T07:21:33.299Z</time></trkpt><trkpt lat="58.02907667" lon="14.16504167"><ele>140.0</ele><time>2016-06-18T07:21:34.308Z</time></trkpt><trkpt lat="58.02916167" lon="14.16523"><ele>140.0</ele><time>2016-06-18T07:21:35.295Z</time></trkpt><trkpt lat="58.02916167" lon="14.16523"><ele>140.0</ele><time>2016-06-18T07:21:36.293Z</time></trkpt><trkpt lat="58.02933167" lon="14.165615"><ele>139.0</ele><time>2016-06-18T07:21:37.308Z</time></trkpt><trkpt lat="58.02941667" lon="14.16580833"><ele>138.0</ele><time>2016-06-18T07:21:38.295Z</time></trkpt><trkpt lat="58.02941667" lon="14.16580833"><ele>138.0</ele><time>2016-06-18T07:21:39.322Z</time></trkpt><trkpt lat="58.02958833" lon="14.16619667"><ele>137.0</ele><time>2016-06-18T07:21:40.306Z</time></trkpt><trkpt lat="58.02958833" lon="14.16619667"><ele>137.0</ele><time>2016-06-18T07:21:41.291Z</time></trkpt><trkpt lat="58.02976167" lon="14.16659333"><ele>136.0</ele><time>2016-06-18T07:21:42.300Z</time></trkpt><trkpt lat="58.02976167" lon="14.16659333"><ele>136.0</ele><time>2016-06-18T07:21:43.294Z</time></trkpt><trkpt lat="58.029935" lon="14.16698667"><ele>135.0</ele><time>2016-06-18T07:21:44.317Z</time></trkpt><trkpt lat="58.029935" lon="14.16698667"><ele>135.0</ele><time>2016-06-18T07:21:45.292Z</time></trkpt><trkpt lat="58.030105" lon="14.16738"><ele>134.0</ele><time>2016-06-18T07:21:46.300Z</time></trkpt><trkpt lat="58.030105" lon="14.16738"><ele>134.0</ele><time>2016-06-18T07:21:47.282Z</time></trkpt><trkpt lat="58.03027167" lon="14.16775833"><ele>133.0</ele><time>2016-06-18T07:21:48.318Z</time></trkpt><trkpt lat="58.03027167" lon="14.16775833"><ele>133.0</ele><time>2016-06-18T07:21:49.311Z</time></trkpt><trkpt lat="58.03044" lon="14.168135"><ele>132.0</ele><time>2016-06-18T07:21:50.319Z</time></trkpt><trkpt lat="58.03044" lon="14.168135"><ele>132.0</ele><time>2016-06-18T07:21:51.309Z</time></trkpt><trkpt lat="58.030605" lon="14.16851"><ele>131.0</ele><time>2016-06-18T07:21:52.284Z</time></trkpt><trkpt lat="58.030605" lon="14.16851"><ele>131.0</ele><time>2016-06-18T07:21:53.294Z</time></trkpt><trkpt lat="58.03077333" lon="14.16888333"><ele>130.0</ele><time>2016-06-18T07:21:54.302Z</time></trkpt><trkpt lat="58.03077333" lon="14.16888333"><ele>130.0</ele><time>2016-06-18T07:21:55.298Z</time></trkpt><trkpt lat="58.030945" lon="14.169265"><ele>129.0</ele><time>2016-06-18T07:21:56.286Z</time></trkpt><trkpt lat="58.030945" lon="14.169265"><ele>129.0</ele><time>2016-06-18T07:21:57.301Z</time></trkpt><trkpt lat="58.03111833" lon="14.16964667"><ele>128.0</ele><time>2016-06-18T07:21:58.309Z</time></trkpt><trkpt lat="58.03120667" lon="14.16983333"><ele>128.0</ele><time>2016-06-18T07:21:59.301Z</time></trkpt><trkpt lat="58.03120667" lon="14.16983333"><ele>128.0</ele><time>2016-06-18T07:22:00.293Z</time></trkpt><trkpt lat="58.03139" lon="14.17020667"><ele>126.0</ele><time>2016-06-18T07:22:01.300Z</time></trkpt><trkpt lat="58.03148333" lon="14.17039167"><ele>126.0</ele><time>2016-06-18T07:22:02.294Z</time></trkpt><trkpt lat="58.03148333" lon="14.17039167"><ele>126.0</ele><time>2016-06-18T07:22:03.321Z</time></trkpt><trkpt lat="58.03166667" lon="14.17076"><ele>125.0</ele><time>2016-06-18T07:22:04.291Z</time></trkpt><trkpt lat="58.03166667" lon="14.17076"><ele>125.0</ele><time>2016-06-18T07:22:05.316Z</time></trkpt><trkpt lat="58.03185167" lon="14.17111667"><ele>124.0</ele><time>2016-06-18T07:22:06.286Z</time></trkpt><trkpt lat="58.03185167" lon="14.17111667"><ele>124.0</ele><time>2016-06-18T07:22:07.307Z</time></trkpt><trkpt lat="58.03204" lon="14.17146667"><ele>124.0</ele><time>2016-06-18T07:22:08.313Z</time></trkpt><trkpt lat="58.03204" lon="14.17146667"><ele>124.0</ele><time>2016-06-18T07:22:09.296Z</time></trkpt><trkpt lat="58.03222833" lon="14.171805"><ele>123.0</ele><time>2016-06-18T07:22:10.320Z</time></trkpt><trkpt lat="58.03222833" lon="14.171805"><ele>123.0</ele><time>2016-06-18T07:22:11.287Z</time></trkpt><trkpt lat="58.03240833" lon="14.17213"><ele>123.0</ele><time>2016-06-18T07:22:12.306Z</time></trkpt><trkpt lat="58.03240833" lon="14.17213"><ele>123.0</ele><time>2016-06-18T07:22:13.295Z</time></trkpt><trkpt lat="58.03258167" lon="14.17244333"><ele>123.0</ele><time>2016-06-18T07:22:14.303Z</time></trkpt><trkpt lat="58.03267167" lon="14.17258833"><ele>123.0</ele><time>2016-06-18T07:22:15.325Z</time></trkpt><trkpt lat="58.03267167" lon="14.17258833"><ele>123.0</ele><time>2016-06-18T07:22:16.298Z</time></trkpt><trkpt lat="58.03285333" lon="14.172875"><ele>123.0</ele><time>2016-06-18T07:22:17.317Z</time></trkpt><trkpt lat="58.03285333" lon="14.172875"><ele>123.0</ele><time>2016-06-18T07:22:18.314Z</time></trkpt><trkpt lat="58.03302667" lon="14.17316833"><ele>122.0</ele><time>2016-06-18T07:22:19.308Z</time></trkpt><trkpt lat="58.03311333" lon="14.17330667"><ele>121.0</ele><time>2016-06-18T07:22:20.317Z</time></trkpt><trkpt lat="58.03311333" lon="14.17330667"><ele>121.0</ele><time>2016-06-18T07:22:21.301Z</time></trkpt><trkpt lat="58.03328833" lon="14.17357167"><ele>120.0</ele><time>2016-06-18T07:22:22.316Z</time></trkpt><trkpt lat="58.03328833" lon="14.17357167"><ele>120.0</ele><time>2016-06-18T07:22:23.301Z</time></trkpt><trkpt lat="58.03346667" lon="14.17383167"><ele>119.0</ele><time>2016-06-18T07:22:24.308Z</time></trkpt><trkpt lat="58.03355667" lon="14.17396"><ele>119.0</ele><time>2016-06-18T07:22:25.307Z</time></trkpt><trkpt lat="58.03355667" lon="14.17396"><ele>119.0</ele><time>2016-06-18T07:22:26.309Z</time></trkpt><trkpt lat="58.03373333" lon="14.17421167"><ele>118.0</ele><time>2016-06-18T07:22:27.282Z</time></trkpt><trkpt lat="58.03373333" lon="14.17421167"><ele>118.0</ele><time>2016-06-18T07:22:28.310Z</time></trkpt><trkpt lat="58.03391667" lon="14.17446"><ele>117.0</ele><time>2016-06-18T07:22:29.312Z</time></trkpt><trkpt lat="58.03391667" lon="14.17446"><ele>117.0</ele><time>2016-06-18T07:22:30.312Z</time></trkpt><trkpt lat="58.03409667" lon="14.174705"><ele>117.0</ele><time>2016-06-18T07:22:31.319Z</time></trkpt><trkpt lat="58.03418833" lon="14.17482833"><ele>117.0</ele><time>2016-06-18T07:22:32.289Z</time></trkpt><trkpt lat="58.03427833" lon="14.17494833"><ele>117.0</ele><time>2016-06-18T07:22:33.288Z</time></trkpt><trkpt lat="58.03427833" lon="14.17494833"><ele>117.0</ele><time>2016-06-18T07:22:34.313Z</time></trkpt><trkpt lat="58.03446667" lon="14.175175"><ele>117.0</ele><time>2016-06-18T07:22:35.293Z</time></trkpt><trkpt lat="58.03456167" lon="14.17528833"><ele>116.0</ele><time>2016-06-18T07:22:36.314Z</time></trkpt><trkpt lat="58.03456167" lon="14.17528833"><ele>116.0</ele><time>2016-06-18T07:22:37.296Z</time></trkpt><trkpt lat="58.03474667" lon="14.17551167"><ele>116.0</ele><time>2016-06-18T07:22:38.317Z</time></trkpt><trkpt lat="58.03474667" lon="14.17551167"><ele>116.0</ele><time>2016-06-18T07:22:39.293Z</time></trkpt><trkpt lat="58.03492667" lon="14.17573333"><ele>116.0</ele><time>2016-06-18T07:22:40.301Z</time></trkpt><trkpt lat="58.035015" lon="14.175845"><ele>116.0</ele><time>2016-06-18T07:22:41.283Z</time></trkpt><trkpt lat="58.035015" lon="14.175845"><ele>116.0</ele><time>2016-06-18T07:22:42.307Z</time></trkpt><trkpt lat="58.035195" lon="14.17605"><ele>116.0</ele><time>2016-06-18T07:22:43.317Z</time></trkpt><trkpt lat="58.035285" lon="14.17615167"><ele>116.0</ele><time>2016-06-18T07:22:44.284Z</time></trkpt><trkpt lat="58.035285" lon="14.17615167"><ele>116.0</ele><time>2016-06-18T07:22:45.294Z</time></trkpt><trkpt lat="58.03546167" lon="14.17635667"><ele>116.0</ele><time>2016-06-18T07:22:46.313Z</time></trkpt><trkpt lat="58.03555167" lon="14.176455"><ele>116.0</ele><time>2016-06-18T07:22:47.311Z</time></trkpt><trkpt lat="58.03555167" lon="14.176455"><ele>116.0</ele><time>2016-06-18T07:22:48.284Z</time></trkpt><trkpt lat="58.03572833" lon="14.17664333"><ele>115.0</ele><time>2016-06-18T07:22:49.298Z</time></trkpt><trkpt lat="58.03581667" lon="14.17673667"><ele>115.0</ele><time>2016-06-18T07:22:50.293Z</time></trkpt><trkpt lat="58.03581667" lon="14.17673667"><ele>115.0</ele><time>2016-06-18T07:22:51.314Z</time></trkpt><trkpt lat="58.03599167" lon="14.17692"><ele>116.0</ele><time>2016-06-18T07:22:52.282Z</time></trkpt><trkpt lat="58.03607667" lon="14.17701167"><ele>116.0</ele><time>2016-06-18T07:22:53.326Z</time></trkpt><trkpt lat="58.03607667" lon="14.17701167"><ele>116.0</ele><time>2016-06-18T07:22:54.301Z</time></trkpt><trkpt lat="58.03625167" lon="14.1772"><ele>116.0</ele><time>2016-06-18T07:22:55.308Z</time></trkpt><trkpt lat="58.03634" lon="14.17729167"><ele>116.0</ele><time>2016-06-18T07:22:56.288Z</time></trkpt><trkpt lat="58.03634" lon="14.17729167"><ele>116.0</ele><time>2016-06-18T07:22:57.307Z</time></trkpt><trkpt lat="58.03652333" lon="14.17747167"><ele>116.0</ele><time>2016-06-18T07:22:58.294Z</time></trkpt><trkpt lat="58.03652333" lon="14.17747167"><ele>116.0</ele><time>2016-06-18T07:22:59.319Z</time></trkpt><trkpt lat="58.036715" lon="14.17764167"><ele>116.0</ele><time>2016-06-18T07:23:00.322Z</time></trkpt><trkpt lat="58.036715" lon="14.17764167"><ele>116.0</ele><time>2016-06-18T07:23:01.282Z</time></trkpt><trkpt lat="58.03689833" lon="14.177815"><ele>116.0</ele><time>2016-06-18T07:23:02.294Z</time></trkpt><trkpt lat="58.03689833" lon="14.177815"><ele>116.0</ele><time>2016-06-18T07:23:03.289Z</time></trkpt><trkpt lat="58.03708" lon="14.17797167"><ele>116.0</ele><time>2016-06-18T07:23:04.289Z</time></trkpt><trkpt lat="58.03708" lon="14.17797167"><ele>116.0</ele><time>2016-06-18T07:23:05.282Z</time></trkpt><trkpt lat="58.03726167" lon="14.178125"><ele>116.0</ele><time>2016-06-18T07:23:06.293Z</time></trkpt><trkpt lat="58.03735333" lon="14.17819833"><ele>116.0</ele><time>2016-06-18T07:23:07.318Z</time></trkpt><trkpt lat="58.03735333" lon="14.17819833"><ele>116.0</ele><time>2016-06-18T07:23:08.294Z</time></trkpt><trkpt lat="58.03753833" lon="14.17834667"><ele>116.0</ele><time>2016-06-18T07:23:09.301Z</time></trkpt><trkpt lat="58.03753833" lon="14.17834667"><ele>116.0</ele><time>2016-06-18T07:23:10.282Z</time></trkpt><trkpt lat="58.03772333" lon="14.17849333"><ele>116.0</ele><time>2016-06-18T07:23:11.299Z</time></trkpt><trkpt lat="58.03781833" lon="14.17856667"><ele>116.0</ele><time>2016-06-18T07:23:12.308Z</time></trkpt><trkpt lat="58.03781833" lon="14.17856667"><ele>116.0</ele><time>2016-06-18T07:23:13.292Z</time></trkpt><trkpt lat="58.03801" lon="14.178705"><ele>116.0</ele><time>2016-06-18T07:23:14.299Z</time></trkpt><trkpt lat="58.03801" lon="14.178705"><ele>116.0</ele><time>2016-06-18T07:23:15.283Z</time></trkpt><trkpt lat="58.03820167" lon="14.17884"><ele>116.0</ele><time>2016-06-18T07:23:16.322Z</time></trkpt><trkpt lat="58.03820167" lon="14.17884"><ele>116.0</ele><time>2016-06-18T07:23:17.316Z</time></trkpt><trkpt lat="58.0384" lon="14.17898333"><ele>116.0</ele><time>2016-06-18T07:23:18.283Z</time></trkpt><trkpt lat="58.03849667" lon="14.17904833"><ele>116.0</ele><time>2016-06-18T07:23:19.313Z</time></trkpt><trkpt lat="58.03859" lon="14.17910667"><ele>116.0</ele><time>2016-06-18T07:23:20.286Z</time></trkpt><trkpt lat="58.03859" lon="14.17910667"><ele>116.0</ele><time>2016-06-18T07:23:21.309Z</time></trkpt><trkpt lat="58.03877833" lon="14.17922333"><ele>115.0</ele><time>2016-06-18T07:23:22.289Z</time></trkpt><trkpt lat="58.03887333" lon="14.17927833"><ele>114.0</ele><time>2016-06-18T07:23:23.283Z</time></trkpt><trkpt lat="58.03887333" lon="14.17927833"><ele>114.0</ele><time>2016-06-18T07:23:24.307Z</time></trkpt><trkpt lat="58.03906333" lon="14.17939167"><ele>114.0</ele><time>2016-06-18T07:23:25.325Z</time></trkpt><trkpt lat="58.03906333" lon="14.17939167"><ele>114.0</ele><time>2016-06-18T07:23:26.295Z</time></trkpt><trkpt lat="58.03925333" lon="14.17949333"><ele>113.0</ele><time>2016-06-18T07:23:27.309Z</time></trkpt><trkpt lat="58.03925333" lon="14.17949333"><ele>113.0</ele><time>2016-06-18T07:23:28.291Z</time></trkpt><trkpt lat="58.03944333" lon="14.179595"><ele>112.0</ele><time>2016-06-18T07:23:29.306Z</time></trkpt><trkpt lat="58.03953833" lon="14.179645"><ele>112.0</ele><time>2016-06-18T07:23:30.308Z</time></trkpt><trkpt lat="58.03953833" lon="14.179645"><ele>112.0</ele><time>2016-06-18T07:23:31.294Z</time></trkpt><trkpt lat="58.039725" lon="14.179745"><ele>112.0</ele><time>2016-06-18T07:23:32.303Z</time></trkpt><trkpt lat="58.03981833" lon="14.17979333"><ele>112.0</ele><time>2016-06-18T07:23:33.315Z</time></trkpt><trkpt lat="58.03981833" lon="14.17979333"><ele>112.0</ele><time>2016-06-18T07:23:34.304Z</time></trkpt><trkpt lat="58.04000833" lon="14.17989667"><ele>112.0</ele><time>2016-06-18T07:23:35.311Z</time></trkpt><trkpt lat="58.04000833" lon="14.17989667"><ele>112.0</ele><time>2016-06-18T07:23:36.300Z</time></trkpt><trkpt lat="58.04019833" lon="14.179995"><ele>111.0</ele><time>2016-06-18T07:23:37.317Z</time></trkpt><trkpt lat="58.04019833" lon="14.179995"><ele>111.0</ele><time>2016-06-18T07:23:38.302Z</time></trkpt><trkpt lat="58.04038667" lon="14.180095"><ele>111.0</ele><time>2016-06-18T07:23:39.309Z</time></trkpt><trkpt lat="58.04048" lon="14.18015"><ele>110.0</ele><time>2016-06-18T07:23:40.285Z</time></trkpt><trkpt lat="58.04048" lon="14.18015"><ele>110.0</ele><time>2016-06-18T07:23:41.300Z</time></trkpt><trkpt lat="58.04066333" lon="14.18025167"><ele>110.0</ele><time>2016-06-18T07:23:42.307Z</time></trkpt><trkpt lat="58.04075333" lon="14.180305"><ele>110.0</ele><time>2016-06-18T07:23:43.319Z</time></trkpt><trkpt lat="58.04075333" lon="14.180305"><ele>110.0</ele><time>2016-06-18T07:23:44.303Z</time></trkpt><trkpt lat="58.04093" lon="14.1804"><ele>109.0</ele><time>2016-06-18T07:23:45.311Z</time></trkpt><trkpt lat="58.04101667" lon="14.18044833"><ele>109.0</ele><time>2016-06-18T07:23:46.318Z</time></trkpt><trkpt lat="58.04101667" lon="14.18044833"><ele>109.0</ele><time>2016-06-18T07:23:47.317Z</time></trkpt><trkpt lat="58.04119" lon="14.18054833"><ele>109.0</ele><time>2016-06-18T07:23:48.285Z</time></trkpt><trkpt lat="58.04128" lon="14.18059667"><ele>110.0</ele><time>2016-06-18T07:23:49.288Z</time></trkpt><trkpt lat="58.04128" lon="14.18059667"><ele>110.0</ele><time>2016-06-18T07:23:50.319Z</time></trkpt><trkpt lat="58.04146667" lon="14.18069333"><ele>110.0</ele><time>2016-06-18T07:23:51.286Z</time></trkpt><trkpt lat="58.04146667" lon="14.18069333"><ele>110.0</ele><time>2016-06-18T07:23:52.310Z</time></trkpt><trkpt lat="58.04165167" lon="14.1808"><ele>110.0</ele><time>2016-06-18T07:23:53.327Z</time></trkpt><trkpt lat="58.04165167" lon="14.1808"><ele>110.0</ele><time>2016-06-18T07:23:54.307Z</time></trkpt><trkpt lat="58.041845" lon="14.18091"><ele>110.0</ele><time>2016-06-18T07:23:55.314Z</time></trkpt><trkpt lat="58.04193833" lon="14.180965"><ele>110.0</ele><time>2016-06-18T07:23:56.303Z</time></trkpt><trkpt lat="58.04193833" lon="14.180965"><ele>110.0</ele><time>2016-06-18T07:23:57.320Z</time></trkpt><trkpt lat="58.04213667" lon="14.18108167"><ele>110.0</ele><time>2016-06-18T07:23:58.305Z</time></trkpt><trkpt lat="58.04213667" lon="14.18108167"><ele>110.0</ele><time>2016-06-18T07:23:59.300Z</time></trkpt><trkpt lat="58.04234667" lon="14.18118667"><ele>110.0</ele><time>2016-06-18T07:24:00.289Z</time></trkpt><trkpt lat="58.04234667" lon="14.18118667"><ele>110.0</ele><time>2016-06-18T07:24:01.291Z</time></trkpt><trkpt lat="58.04255167" lon="14.18129167"><ele>110.0</ele><time>2016-06-18T07:24:02.299Z</time></trkpt><trkpt lat="58.04265167" lon="14.18135"><ele>109.0</ele><time>2016-06-18T07:24:03.282Z</time></trkpt><trkpt lat="58.04265167" lon="14.18135"><ele>109.0</ele><time>2016-06-18T07:24:04.301Z</time></trkpt><trkpt lat="58.04284333" lon="14.181455"><ele>110.0</ele><time>2016-06-18T07:24:05.288Z</time></trkpt><trkpt lat="58.04284333" lon="14.181455"><ele>110.0</ele><time>2016-06-18T07:24:06.309Z</time></trkpt><trkpt lat="58.04303" lon="14.18155333"><ele>109.0</ele><time>2016-06-18T07:24:07.318Z</time></trkpt><trkpt lat="58.04312333" lon="14.18160167"><ele>109.0</ele><time>2016-06-18T07:24:08.297Z</time></trkpt><trkpt lat="58.04312333" lon="14.18160167"><ele>109.0</ele><time>2016-06-18T07:24:09.321Z</time></trkpt><trkpt lat="58.04331" lon="14.18170667"><ele>109.0</ele><time>2016-06-18T07:24:10.314Z</time></trkpt><trkpt lat="58.04331" lon="14.18170667"><ele>109.0</ele><time>2016-06-18T07:24:11.318Z</time></trkpt><trkpt lat="58.04349833" lon="14.18181667"><ele>109.0</ele><time>2016-06-18T07:24:12.305Z</time></trkpt><trkpt lat="58.04349833" lon="14.18181667"><ele>109.0</ele><time>2016-06-18T07:24:13.297Z</time></trkpt><trkpt lat="58.04368833" lon="14.18192167"><ele>110.0</ele><time>2016-06-18T07:24:14.305Z</time></trkpt><trkpt lat="58.04368833" lon="14.18192167"><ele>110.0</ele><time>2016-06-18T07:24:15.316Z</time></trkpt><trkpt lat="58.04388" lon="14.182025"><ele>110.0</ele><time>2016-06-18T07:24:16.306Z</time></trkpt><trkpt lat="58.04388" lon="14.182025"><ele>110.0</ele><time>2016-06-18T07:24:17.312Z</time></trkpt><trkpt lat="58.04407" lon="14.18213333"><ele>111.0</ele><time>2016-06-18T07:24:18.288Z</time></trkpt><trkpt lat="58.04407" lon="14.18213333"><ele>111.0</ele><time>2016-06-18T07:24:19.287Z</time></trkpt><trkpt lat="58.044265" lon="14.18224167"><ele>110.0</ele><time>2016-06-18T07:24:20.301Z</time></trkpt><trkpt lat="58.044265" lon="14.18224167"><ele>110.0</ele><time>2016-06-18T07:24:21.308Z</time></trkpt><trkpt lat="58.04446" lon="14.182345"><ele>110.0</ele><time>2016-06-18T07:24:22.315Z</time></trkpt><trkpt lat="58.04446" lon="14.182345"><ele>110.0</ele><time>2016-06-18T07:24:23.292Z</time></trkpt><trkpt lat="58.04465167" lon="14.18245"><ele>110.0</ele><time>2016-06-18T07:24:24.306Z</time></trkpt><trkpt lat="58.04465167" lon="14.18245"><ele>110.0</ele><time>2016-06-18T07:24:25.284Z</time></trkpt><trkpt lat="58.04484167" lon="14.182555"><ele>110.0</ele><time>2016-06-18T07:24:26.298Z</time></trkpt><trkpt lat="58.04484167" lon="14.182555"><ele>110.0</ele><time>2016-06-18T07:24:27.282Z</time></trkpt><trkpt lat="58.04502667" lon="14.18266"><ele>109.0</ele><time>2016-06-18T07:24:28.293Z</time></trkpt><trkpt lat="58.04502667" lon="14.18266"><ele>109.0</ele><time>2016-06-18T07:24:29.309Z</time></trkpt><trkpt lat="58.04521167" lon="14.182755"><ele>109.0</ele><time>2016-06-18T07:24:30.316Z</time></trkpt><trkpt lat="58.045305" lon="14.18280667"><ele>109.0</ele><time>2016-06-18T07:24:31.298Z</time></trkpt><trkpt lat="58.04539667" lon="14.18286"><ele>109.0</ele><time>2016-06-18T07:24:32.307Z</time></trkpt><trkpt lat="58.04539667" lon="14.18286"><ele>109.0</ele><time>2016-06-18T07:24:33.291Z</time></trkpt><trkpt lat="58.04558333" lon="14.18297"><ele>110.0</ele><time>2016-06-18T07:24:34.286Z</time></trkpt><trkpt lat="58.04567833" lon="14.183025"><ele>109.0</ele><time>2016-06-18T07:24:35.308Z</time></trkpt><trkpt lat="58.04567833" lon="14.183025"><ele>109.0</ele><time>2016-06-18T07:24:36.290Z</time></trkpt><trkpt lat="58.04587" lon="14.18312667"><ele>109.0</ele><time>2016-06-18T07:24:37.308Z</time></trkpt><trkpt lat="58.045965" lon="14.183175"><ele>109.0</ele><time>2016-06-18T07:24:38.297Z</time></trkpt><trkpt lat="58.045965" lon="14.183175"><ele>109.0</ele><time>2016-06-18T07:24:39.294Z</time></trkpt><trkpt lat="58.04614667" lon="14.18328"><ele>109.0</ele><time>2016-06-18T07:24:40.286Z</time></trkpt><trkpt lat="58.04614667" lon="14.18328"><ele>109.0</ele><time>2016-06-18T07:24:41.303Z</time></trkpt><trkpt lat="58.04632" lon="14.18338333"><ele>109.0</ele><time>2016-06-18T07:24:42.311Z</time></trkpt><trkpt lat="58.0464" lon="14.183425"><ele>108.0</ele><time>2016-06-18T07:24:43.307Z</time></trkpt><trkpt lat="58.0464" lon="14.183425"><ele>108.0</ele><time>2016-06-18T07:24:44.310Z</time></trkpt><trkpt lat="58.04655667" lon="14.18351"><ele>108.0</ele><time>2016-06-18T07:24:45.317Z</time></trkpt><trkpt lat="58.04663667" lon="14.18355167"><ele>108.0</ele><time>2016-06-18T07:24:46.301Z</time></trkpt><trkpt lat="58.04663667" lon="14.18355167"><ele>108.0</ele><time>2016-06-18T07:24:47.297Z</time></trkpt><trkpt lat="58.0468" lon="14.18364"><ele>108.0</ele><time>2016-06-18T07:24:48.305Z</time></trkpt><trkpt lat="58.0468" lon="14.18364"><ele>108.0</ele><time>2016-06-18T07:24:49.295Z</time></trkpt><trkpt lat="58.04697333" lon="14.18373833"><ele>108.0</ele><time>2016-06-18T07:24:50.308Z</time></trkpt><trkpt lat="58.04697333" lon="14.18373833"><ele>108.0</ele><time>2016-06-18T07:24:51.302Z</time></trkpt><trkpt lat="58.047155" lon="14.18384167"><ele>108.0</ele><time>2016-06-18T07:24:52.309Z</time></trkpt><trkpt lat="58.047155" lon="14.18384167"><ele>108.0</ele><time>2016-06-18T07:24:53.295Z</time></trkpt><trkpt lat="58.047345" lon="14.18394333"><ele>109.0</ele><time>2016-06-18T07:24:54.298Z</time></trkpt><trkpt lat="58.047345" lon="14.18394333"><ele>109.0</ele><time>2016-06-18T07:24:55.294Z</time></trkpt><trkpt lat="58.047535" lon="14.18404667"><ele>110.0</ele><time>2016-06-18T07:24:56.301Z</time></trkpt><trkpt lat="58.04762833" lon="14.18409667"><ele>110.0</ele><time>2016-06-18T07:24:57.283Z</time></trkpt><trkpt lat="58.04772" lon="14.18414667"><ele>110.0</ele><time>2016-06-18T07:24:58.288Z</time></trkpt><trkpt lat="58.04772" lon="14.18414667"><ele>110.0</ele><time>2016-06-18T07:24:59.284Z</time></trkpt><trkpt lat="58.04790333" lon="14.18425333"><ele>109.0</ele><time>2016-06-18T07:25:00.305Z</time></trkpt><trkpt lat="58.04790333" lon="14.18425333"><ele>109.0</ele><time>2016-06-18T07:25:01.308Z</time></trkpt><trkpt lat="58.04808333" lon="14.184355"><ele>110.0</ele><time>2016-06-18T07:25:02.316Z</time></trkpt><trkpt lat="58.04808333" lon="14.184355"><ele>110.0</ele><time>2016-06-18T07:25:03.299Z</time></trkpt><trkpt lat="58.04826333" lon="14.18445667"><ele>109.0</ele><time>2016-06-18T07:25:04.288Z</time></trkpt><trkpt lat="58.04826333" lon="14.18445667"><ele>109.0</ele><time>2016-06-18T07:25:05.318Z</time></trkpt><trkpt lat="58.048445" lon="14.18455"><ele>109.0</ele><time>2016-06-18T07:25:06.284Z</time></trkpt><trkpt lat="58.04853667" lon="14.1846"><ele>109.0</ele><time>2016-06-18T07:25:07.313Z</time></trkpt><trkpt lat="58.04863" lon="14.18465333"><ele>109.0</ele><time>2016-06-18T07:25:08.299Z</time></trkpt><trkpt lat="58.04863" lon="14.18465333"><ele>109.0</ele><time>2016-06-18T07:25:09.282Z</time></trkpt><trkpt lat="58.04881667" lon="14.18475667"><ele>109.0</ele><time>2016-06-18T07:25:10.289Z</time></trkpt><trkpt lat="58.04881667" lon="14.18475667"><ele>109.0</ele><time>2016-06-18T07:25:11.292Z</time></trkpt><trkpt lat="58.049005" lon="14.18486167"><ele>109.0</ele><time>2016-06-18T07:25:12.318Z</time></trkpt><trkpt lat="58.04909833" lon="14.18491"><ele>109.0</ele><time>2016-06-18T07:25:13.304Z</time></trkpt><trkpt lat="58.04909833" lon="14.18491"><ele>109.0</ele><time>2016-06-18T07:25:14.312Z</time></trkpt><trkpt lat="58.04928667" lon="14.18500833"><ele>108.0</ele><time>2016-06-18T07:25:15.298Z</time></trkpt><trkpt lat="58.04938167" lon="14.185055"><ele>108.0</ele><time>2016-06-18T07:25:16.305Z</time></trkpt><trkpt lat="58.04947333" lon="14.185105"><ele>108.0</ele><time>2016-06-18T07:25:17.286Z</time></trkpt><trkpt lat="58.04947333" lon="14.185105"><ele>108.0</ele><time>2016-06-18T07:25:18.308Z</time></trkpt><trkpt lat="58.04965833" lon="14.18520833"><ele>108.0</ele><time>2016-06-18T07:25:19.316Z</time></trkpt><trkpt lat="58.04965833" lon="14.18520833"><ele>108.0</ele><time>2016-06-18T07:25:20.298Z</time></trkpt><trkpt lat="58.04984" lon="14.185315"><ele>108.0</ele><time>2016-06-18T07:25:21.287Z</time></trkpt><trkpt lat="58.04984" lon="14.185315"><ele>108.0</ele><time>2016-06-18T07:25:22.301Z</time></trkpt><trkpt lat="58.05002667" lon="14.18542167"><ele>108.0</ele><time>2016-06-18T07:25:23.316Z</time></trkpt><trkpt lat="58.05002667" lon="14.18542167"><ele>108.0</ele><time>2016-06-18T07:25:24.301Z</time></trkpt><trkpt lat="58.05021" lon="14.18551667"><ele>108.0</ele><time>2016-06-18T07:25:25.288Z</time></trkpt><trkpt lat="58.05030167" lon="14.18556667"><ele>108.0</ele><time>2016-06-18T07:25:26.305Z</time></trkpt><trkpt lat="58.05030167" lon="14.18556667"><ele>108.0</ele><time>2016-06-18T07:25:27.288Z</time></trkpt><trkpt lat="58.050485" lon="14.185665"><ele>108.0</ele><time>2016-06-18T07:25:28.296Z</time></trkpt><trkpt lat="58.050485" lon="14.185665"><ele>108.0</ele><time>2016-06-18T07:25:29.317Z</time></trkpt><trkpt lat="58.050665" lon="14.18576833"><ele>108.0</ele><time>2016-06-18T07:25:30.284Z</time></trkpt><trkpt lat="58.05075" lon="14.18582167"><ele>108.0</ele><time>2016-06-18T07:25:31.314Z</time></trkpt><trkpt lat="58.05083667" lon="14.18587333"><ele>108.0</ele><time>2016-06-18T07:25:32.311Z</time></trkpt><trkpt lat="58.05083667" lon="14.18587333"><ele>108.0</ele><time>2016-06-18T07:25:33.309Z</time></trkpt><trkpt lat="58.05100833" lon="14.18596833"><ele>108.0</ele><time>2016-06-18T07:25:34.315Z</time></trkpt><trkpt lat="58.051095" lon="14.18602"><ele>108.0</ele><time>2016-06-18T07:25:35.302Z</time></trkpt><trkpt lat="58.051095" lon="14.18602"><ele>108.0</ele><time>2016-06-18T07:25:36.310Z</time></trkpt><trkpt lat="58.05126333" lon="14.18612333"><ele>107.0</ele><time>2016-06-18T07:25:37.317Z</time></trkpt><trkpt lat="58.05134667" lon="14.18617333"><ele>107.0</ele><time>2016-06-18T07:25:38.313Z</time></trkpt><trkpt lat="58.05134667" lon="14.18617333"><ele>107.0</ele><time>2016-06-18T07:25:39.297Z</time></trkpt><trkpt lat="58.05151333" lon="14.18628833"><ele>107.0</ele><time>2016-06-18T07:25:40.305Z</time></trkpt><trkpt lat="58.0516" lon="14.186345"><ele>108.0</ele><time>2016-06-18T07:25:41.308Z</time></trkpt><trkpt lat="58.0516" lon="14.186345"><ele>108.0</ele><time>2016-06-18T07:25:42.292Z</time></trkpt><trkpt lat="58.05177333" lon="14.18644833"><ele>108.0</ele><time>2016-06-18T07:25:43.282Z</time></trkpt><trkpt lat="58.05185833" lon="14.1865"><ele>108.0</ele><time>2016-06-18T07:25:44.307Z</time></trkpt><trkpt lat="58.05185833" lon="14.1865"><ele>108.0</ele><time>2016-06-18T07:25:45.295Z</time></trkpt><trkpt lat="58.05204167" lon="14.18662"><ele>108.0</ele><time>2016-06-18T07:25:46.313Z</time></trkpt><trkpt lat="58.05213333" lon="14.18667833"><ele>109.0</ele><time>2016-06-18T07:25:47.295Z</time></trkpt><trkpt lat="58.05213333" lon="14.18667833"><ele>109.0</ele><time>2016-06-18T07:25:48.317Z</time></trkpt><trkpt lat="58.05231167" lon="14.18678667"><ele>109.0</ele><time>2016-06-18T07:25:49.293Z</time></trkpt><trkpt lat="58.05231167" lon="14.18678667"><ele>109.0</ele><time>2016-06-18T07:25:50.296Z</time></trkpt><trkpt lat="58.05248" lon="14.18689"><ele>109.0</ele><time>2016-06-18T07:25:51.303Z</time></trkpt><trkpt lat="58.05248" lon="14.18689"><ele>109.0</ele><time>2016-06-18T07:25:52.285Z</time></trkpt><trkpt lat="58.05264667" lon="14.18699667"><ele>109.0</ele><time>2016-06-18T07:25:53.308Z</time></trkpt><trkpt lat="58.05264667" lon="14.18699667"><ele>109.0</ele><time>2016-06-18T07:25:54.314Z</time></trkpt><trkpt lat="58.05281167" lon="14.1871"><ele>109.0</ele><time>2016-06-18T07:25:55.320Z</time></trkpt><trkpt lat="58.052895" lon="14.18715"><ele>109.0</ele><time>2016-06-18T07:25:56.301Z</time></trkpt><trkpt lat="58.052895" lon="14.18715"><ele>109.0</ele><time>2016-06-18T07:25:57.318Z</time></trkpt><trkpt lat="58.05306667" lon="14.18725833"><ele>109.0</ele><time>2016-06-18T07:25:58.285Z</time></trkpt><trkpt lat="58.05315333" lon="14.18731167"><ele>109.0</ele><time>2016-06-18T07:25:59.290Z</time></trkpt><trkpt lat="58.05315333" lon="14.18731167"><ele>109.0</ele><time>2016-06-18T07:26:00.293Z</time></trkpt><trkpt lat="58.05332833" lon="14.18742667"><ele>109.0</ele><time>2016-06-18T07:26:01.299Z</time></trkpt><trkpt lat="58.053415" lon="14.187485"><ele>109.0</ele><time>2016-06-18T07:26:02.288Z</time></trkpt><trkpt lat="58.053415" lon="14.187485"><ele>109.0</ele><time>2016-06-18T07:26:03.300Z</time></trkpt><trkpt lat="58.05359333" lon="14.18760333"><ele>110.0</ele><time>2016-06-18T07:26:04.307Z</time></trkpt><trkpt lat="58.05368" lon="14.18766333"><ele>110.0</ele><time>2016-06-18T07:26:05.298Z</time></trkpt><trkpt lat="58.05377" lon="14.187725"><ele>110.0</ele><time>2016-06-18T07:26:06.304Z</time></trkpt><trkpt lat="58.05377" lon="14.187725"><ele>110.0</ele><time>2016-06-18T07:26:07.285Z</time></trkpt><trkpt lat="58.05394167" lon="14.18784333"><ele>110.0</ele><time>2016-06-18T07:26:08.318Z</time></trkpt><trkpt lat="58.05394167" lon="14.18784333"><ele>110.0</ele><time>2016-06-18T07:26:09.301Z</time></trkpt><trkpt lat="58.05410833" lon="14.18795667"><ele>110.0</ele><time>2016-06-18T07:26:10.309Z</time></trkpt><trkpt lat="58.05410833" lon="14.18795667"><ele>110.0</ele><time>2016-06-18T07:26:11.317Z</time></trkpt><trkpt lat="58.05427833" lon="14.188075"><ele>110.0</ele><time>2016-06-18T07:26:12.298Z</time></trkpt><trkpt lat="58.05427833" lon="14.188075"><ele>110.0</ele><time>2016-06-18T07:26:13.305Z</time></trkpt><trkpt lat="58.05445" lon="14.18819"><ele>110.0</ele><time>2016-06-18T07:26:14.312Z</time></trkpt><trkpt lat="58.05445" lon="14.18819"><ele>110.0</ele><time>2016-06-18T07:26:15.295Z</time></trkpt><trkpt lat="58.05462333" lon="14.18830333"><ele>110.0</ele><time>2016-06-18T07:26:16.292Z</time></trkpt><trkpt lat="58.05462333" lon="14.18830333"><ele>110.0</ele><time>2016-06-18T07:26:17.283Z</time></trkpt><trkpt lat="58.05479333" lon="14.18842333"><ele>111.0</ele><time>2016-06-18T07:26:18.297Z</time></trkpt><trkpt lat="58.05479333" lon="14.18842333"><ele>111.0</ele><time>2016-06-18T07:26:19.285Z</time></trkpt><trkpt lat="58.05496667" lon="14.18854833"><ele>111.0</ele><time>2016-06-18T07:26:20.298Z</time></trkpt><trkpt lat="58.05496667" lon="14.18854833"><ele>111.0</ele><time>2016-06-18T07:26:21.295Z</time></trkpt><trkpt lat="58.05513833" lon="14.18867167"><ele>111.0</ele><time>2016-06-18T07:26:22.307Z</time></trkpt><trkpt lat="58.05513833" lon="14.18867167"><ele>111.0</ele><time>2016-06-18T07:26:23.294Z</time></trkpt><trkpt lat="58.05531167" lon="14.18879833"><ele>110.0</ele><time>2016-06-18T07:26:24.316Z</time></trkpt><trkpt lat="58.05531167" lon="14.18879833"><ele>110.0</ele><time>2016-06-18T07:26:25.311Z</time></trkpt><trkpt lat="58.05548167" lon="14.18892167"><ele>110.0</ele><time>2016-06-18T07:26:26.318Z</time></trkpt><trkpt lat="58.05556333" lon="14.18898333"><ele>110.0</ele><time>2016-06-18T07:26:27.308Z</time></trkpt><trkpt lat="58.05556333" lon="14.18898333"><ele>110.0</ele><time>2016-06-18T07:26:28.302Z</time></trkpt><trkpt lat="58.05572" lon="14.18910667"><ele>111.0</ele><time>2016-06-18T07:26:29.319Z</time></trkpt><trkpt lat="58.05572" lon="14.18910667"><ele>111.0</ele><time>2016-06-18T07:26:30.296Z</time></trkpt><trkpt lat="58.05587833" lon="14.189215"><ele>111.0</ele><time>2016-06-18T07:26:31.290Z</time></trkpt><trkpt lat="58.05587833" lon="14.189215"><ele>111.0</ele><time>2016-06-18T07:26:32.320Z</time></trkpt><trkpt lat="58.05603667" lon="14.18933"><ele>111.0</ele><time>2016-06-18T07:26:33.287Z</time></trkpt><trkpt lat="58.05603667" lon="14.18933"><ele>111.0</ele><time>2016-06-18T07:26:34.306Z</time></trkpt><trkpt lat="58.056195" lon="14.18945333"><ele>111.0</ele><time>2016-06-18T07:26:35.313Z</time></trkpt><trkpt lat="58.056195" lon="14.18945333"><ele>111.0</ele><time>2016-06-18T07:26:36.300Z</time></trkpt><trkpt lat="58.05635667" lon="14.18957833"><ele>111.0</ele><time>2016-06-18T07:26:37.308Z</time></trkpt><trkpt lat="58.056445" lon="14.18964333"><ele>111.0</ele><time>2016-06-18T07:26:38.304Z</time></trkpt><trkpt lat="58.056445" lon="14.18964333"><ele>111.0</ele><time>2016-06-18T07:26:39.302Z</time></trkpt><trkpt lat="58.056615" lon="14.18976333"><ele>110.0</ele><time>2016-06-18T07:26:40.309Z</time></trkpt><trkpt lat="58.05669167" lon="14.18982167"><ele>110.0</ele><time>2016-06-18T07:26:41.301Z</time></trkpt><trkpt lat="58.05669167" lon="14.18982167"><ele>110.0</ele><time>2016-06-18T07:26:42.306Z</time></trkpt><trkpt lat="58.056835" lon="14.18993667"><ele>110.0</ele><time>2016-06-18T07:26:43.318Z</time></trkpt><trkpt lat="58.05690667" lon="14.18999167"><ele>110.0</ele><time>2016-06-18T07:26:44.302Z</time></trkpt><trkpt lat="58.05690667" lon="14.18999167"><ele>110.0</ele><time>2016-06-18T07:26:45.284Z</time></trkpt><trkpt lat="58.05705167" lon="14.19010167"><ele>110.0</ele><time>2016-06-18T07:26:46.298Z</time></trkpt><trkpt lat="58.057125" lon="14.19015667"><ele>110.0</ele><time>2016-06-18T07:26:47.306Z</time></trkpt><trkpt lat="58.057125" lon="14.19015667"><ele>110.0</ele><time>2016-06-18T07:26:48.283Z</time></trkpt><trkpt lat="58.05727333" lon="14.19027333"><ele>111.0</ele><time>2016-06-18T07:26:49.293Z</time></trkpt><trkpt lat="58.05735" lon="14.19033667"><ele>111.0</ele><time>2016-06-18T07:26:50.306Z</time></trkpt><trkpt lat="58.05735" lon="14.19033667"><ele>111.0</ele><time>2016-06-18T07:26:51.286Z</time></trkpt><trkpt lat="58.05751333" lon="14.19046667"><ele>111.0</ele><time>2016-06-18T07:26:52.294Z</time></trkpt><trkpt lat="58.05759833" lon="14.19053833"><ele>111.0</ele><time>2016-06-18T07:26:53.318Z</time></trkpt><trkpt lat="58.05759833" lon="14.19053833"><ele>111.0</ele><time>2016-06-18T07:26:54.320Z</time></trkpt><trkpt lat="58.05776833" lon="14.19067667"><ele>112.0</ele><time>2016-06-18T07:26:55.287Z</time></trkpt><trkpt lat="58.057855" lon="14.19074833"><ele>111.0</ele><time>2016-06-18T07:26:56.290Z</time></trkpt><trkpt lat="58.057855" lon="14.19074833"><ele>111.0</ele><time>2016-06-18T07:26:57.310Z</time></trkpt><trkpt lat="58.058025" lon="14.19088"><ele>112.0</ele><time>2016-06-18T07:26:58.317Z</time></trkpt><trkpt lat="58.058025" lon="14.19088"><ele>112.0</ele><time>2016-06-18T07:26:59.302Z</time></trkpt><trkpt lat="58.05819" lon="14.19101167"><ele>112.0</ele><time>2016-06-18T07:27:00.286Z</time></trkpt><trkpt lat="58.05819" lon="14.19101167"><ele>112.0</ele><time>2016-06-18T07:27:01.305Z</time></trkpt><trkpt lat="58.058355" lon="14.191145"><ele>112.0</ele><time>2016-06-18T07:27:02.312Z</time></trkpt><trkpt lat="58.05843833" lon="14.19121"><ele>112.0</ele><time>2016-06-18T07:27:03.319Z</time></trkpt><trkpt lat="58.05843833" lon="14.19121"><ele>112.0</ele><time>2016-06-18T07:27:04.320Z</time></trkpt><trkpt lat="58.05860667" lon="14.19134667"><ele>112.0</ele><time>2016-06-18T07:27:05.288Z</time></trkpt><trkpt lat="58.05860667" lon="14.19134667"><ele>112.0</ele><time>2016-06-18T07:27:06.308Z</time></trkpt><trkpt lat="58.058775" lon="14.19148167"><ele>112.0</ele><time>2016-06-18T07:27:07.301Z</time></trkpt><trkpt lat="58.05886" lon="14.19154667"><ele>112.0</ele><time>2016-06-18T07:27:08.319Z</time></trkpt><trkpt lat="58.05886" lon="14.19154667"><ele>112.0</ele><time>2016-06-18T07:27:09.302Z</time></trkpt><trkpt lat="58.05902833" lon="14.19168167"><ele>112.0</ele><time>2016-06-18T07:27:10.297Z</time></trkpt><trkpt lat="58.05911333" lon="14.19175333"><ele>112.0</ele><time>2016-06-18T07:27:11.325Z</time></trkpt><trkpt lat="58.0592" lon="14.19182667"><ele>112.0</ele><time>2016-06-18T07:27:12.302Z</time></trkpt><trkpt lat="58.0592" lon="14.19182667"><ele>112.0</ele><time>2016-06-18T07:27:13.283Z</time></trkpt><trkpt lat="58.059375" lon="14.19196833"><ele>112.0</ele><time>2016-06-18T07:27:14.291Z</time></trkpt><trkpt lat="58.059375" lon="14.19196833"><ele>112.0</ele><time>2016-06-18T07:27:15.312Z</time></trkpt><trkpt lat="58.05955" lon="14.19210667"><ele>111.0</ele><time>2016-06-18T07:27:16.317Z</time></trkpt><trkpt lat="58.05955" lon="14.19210667"><ele>111.0</ele><time>2016-06-18T07:27:17.300Z</time></trkpt><trkpt lat="58.059725" lon="14.192245"><ele>112.0</ele><time>2016-06-18T07:27:18.308Z</time></trkpt><trkpt lat="58.059725" lon="14.192245"><ele>112.0</ele><time>2016-06-18T07:27:19.293Z</time></trkpt><trkpt lat="58.05989667" lon="14.19238167"><ele>112.0</ele><time>2016-06-18T07:27:20.308Z</time></trkpt><trkpt lat="58.05989667" lon="14.19238167"><ele>112.0</ele><time>2016-06-18T07:27:21.291Z</time></trkpt><trkpt lat="58.06006833" lon="14.192525"><ele>112.0</ele><time>2016-06-18T07:27:22.298Z</time></trkpt><trkpt lat="58.060155" lon="14.19259667"><ele>111.0</ele><time>2016-06-18T07:27:23.317Z</time></trkpt><trkpt lat="58.060155" lon="14.19259667"><ele>111.0</ele><time>2016-06-18T07:27:24.285Z</time></trkpt><trkpt lat="58.06032833" lon="14.192735"><ele>112.0</ele><time>2016-06-18T07:27:25.294Z</time></trkpt><trkpt lat="58.060415" lon="14.1928"><ele>111.0</ele><time>2016-06-18T07:27:26.302Z</time></trkpt><trkpt lat="58.0605" lon="14.19286167"><ele>111.0</ele><time>2016-06-18T07:27:27.301Z</time></trkpt><trkpt lat="58.0605" lon="14.19286167"><ele>111.0</ele><time>2016-06-18T07:27:28.314Z</time></trkpt><trkpt lat="58.06066167" lon="14.19299667"><ele>112.0</ele><time>2016-06-18T07:27:29.308Z</time></trkpt><trkpt lat="58.06074333" lon="14.19306333"><ele>112.0</ele><time>2016-06-18T07:27:30.299Z</time></trkpt><trkpt lat="58.06082667" lon="14.19313333"><ele>112.0</ele><time>2016-06-18T07:27:31.320Z</time></trkpt><trkpt lat="58.06091167" lon="14.1932"><ele>111.0</ele><time>2016-06-18T07:27:32.304Z</time></trkpt><trkpt lat="58.06099833" lon="14.19326667"><ele>111.0</ele><time>2016-06-18T07:27:33.286Z</time></trkpt><trkpt lat="58.06099833" lon="14.19326667"><ele>111.0</ele><time>2016-06-18T07:27:34.311Z</time></trkpt><trkpt lat="58.06117167" lon="14.19340333"><ele>111.0</ele><time>2016-06-18T07:27:35.318Z</time></trkpt><trkpt lat="58.06117167" lon="14.19340333"><ele>111.0</ele><time>2016-06-18T07:27:36.300Z</time></trkpt><trkpt lat="58.06134667" lon="14.193545"><ele>111.0</ele><time>2016-06-18T07:27:37.298Z</time></trkpt><trkpt lat="58.06134667" lon="14.193545"><ele>111.0</ele><time>2016-06-18T07:27:38.314Z</time></trkpt><trkpt lat="58.06152" lon="14.193685"><ele>111.0</ele><time>2016-06-18T07:27:39.320Z</time></trkpt><trkpt lat="58.06152" lon="14.193685"><ele>111.0</ele><time>2016-06-18T07:27:40.299Z</time></trkpt><trkpt lat="58.06169833" lon="14.19382"><ele>111.0</ele><time>2016-06-18T07:27:41.284Z</time></trkpt><trkpt lat="58.06169833" lon="14.19382"><ele>111.0</ele><time>2016-06-18T07:27:42.297Z</time></trkpt><trkpt lat="58.06187333" lon="14.19394833"><ele>111.0</ele><time>2016-06-18T07:27:43.304Z</time></trkpt><trkpt lat="58.06187333" lon="14.19394833"><ele>111.0</ele><time>2016-06-18T07:27:44.287Z</time></trkpt><trkpt lat="58.06204167" lon="14.194065"><ele>111.0</ele><time>2016-06-18T07:27:45.295Z</time></trkpt><trkpt lat="58.06212667" lon="14.19412"><ele>111.0</ele><time>2016-06-18T07:27:46.288Z</time></trkpt><trkpt lat="58.06212667" lon="14.19412"><ele>111.0</ele><time>2016-06-18T07:27:47.305Z</time></trkpt><trkpt lat="58.06229833" lon="14.19422833"><ele>111.0</ele><time>2016-06-18T07:27:48.312Z</time></trkpt><trkpt lat="58.06229833" lon="14.19422833"><ele>111.0</ele><time>2016-06-18T07:27:49.296Z</time></trkpt><trkpt lat="58.06247" lon="14.194335"><ele>112.0</ele><time>2016-06-18T07:27:50.312Z</time></trkpt><trkpt lat="58.06247" lon="14.194335"><ele>112.0</ele><time>2016-06-18T07:27:51.320Z</time></trkpt><trkpt lat="58.06263667" lon="14.19443167"><ele>112.0</ele><time>2016-06-18T07:27:52.287Z</time></trkpt><trkpt lat="58.06271833" lon="14.19447667"><ele>112.0</ele><time>2016-06-18T07:27:53.320Z</time></trkpt><trkpt lat="58.06271833" lon="14.19447667"><ele>112.0</ele><time>2016-06-18T07:27:54.301Z</time></trkpt><trkpt lat="58.06288167" lon="14.19456667"><ele>112.0</ele><time>2016-06-18T07:27:55.308Z</time></trkpt><trkpt lat="58.062965" lon="14.19461167"><ele>112.0</ele><time>2016-06-18T07:27:56.298Z</time></trkpt><trkpt lat="58.062965" lon="14.19461167"><ele>112.0</ele><time>2016-06-18T07:27:57.293Z</time></trkpt><trkpt lat="58.06313" lon="14.19469833"><ele>112.0</ele><time>2016-06-18T07:27:58.307Z</time></trkpt><trkpt lat="58.06313" lon="14.19469833"><ele>112.0</ele><time>2016-06-18T07:27:59.292Z</time></trkpt><trkpt lat="58.06328833" lon="14.19478"><ele>113.0</ele><time>2016-06-18T07:28:00.285Z</time></trkpt><trkpt lat="58.06328833" lon="14.19478"><ele>113.0</ele><time>2016-06-18T07:28:01.308Z</time></trkpt><trkpt lat="58.06343667" lon="14.194855"><ele>113.0</ele><time>2016-06-18T07:28:02.315Z</time></trkpt><trkpt lat="58.06351" lon="14.19489167"><ele>113.0</ele><time>2016-06-18T07:28:03.288Z</time></trkpt><trkpt lat="58.06351" lon="14.19489167"><ele>113.0</ele><time>2016-06-18T07:28:04.292Z</time></trkpt><trkpt lat="58.06365333" lon="14.19496167"><ele>113.0</ele><time>2016-06-18T07:28:05.299Z</time></trkpt><trkpt lat="58.063725" lon="14.194995"><ele>114.0</ele><time>2016-06-18T07:28:06.301Z</time></trkpt><trkpt lat="58.063725" lon="14.194995"><ele>114.0</ele><time>2016-06-18T07:28:07.307Z</time></trkpt><trkpt lat="58.06387167" lon="14.19506167"><ele>114.0</ele><time>2016-06-18T07:28:08.314Z</time></trkpt><trkpt lat="58.06387167" lon="14.19506167"><ele>114.0</ele><time>2016-06-18T07:28:09.302Z</time></trkpt><trkpt lat="58.06401833" lon="14.19513"><ele>114.0</ele><time>2016-06-18T07:28:10.301Z</time></trkpt><trkpt lat="58.06401833" lon="14.19513"><ele>114.0</ele><time>2016-06-18T07:28:11.288Z</time></trkpt><trkpt lat="58.06415167" lon="14.19519333"><ele>114.0</ele><time>2016-06-18T07:28:12.293Z</time></trkpt><trkpt lat="58.06421333" lon="14.19522"><ele>114.0</ele><time>2016-06-18T07:28:13.319Z</time></trkpt><trkpt lat="58.064275" lon="14.19524333"><ele>114.0</ele><time>2016-06-18T07:28:14.300Z</time></trkpt><trkpt lat="58.064275" lon="14.19524333"><ele>114.0</ele><time>2016-06-18T07:28:15.283Z</time></trkpt><trkpt lat="58.06439833" lon="14.19529"><ele>115.0</ele><time>2016-06-18T07:28:16.295Z</time></trkpt><trkpt lat="58.06445833" lon="14.19531333"><ele>115.0</ele><time>2016-06-18T07:28:17.316Z</time></trkpt><trkpt lat="58.06445833" lon="14.19531333"><ele>115.0</ele><time>2016-06-18T07:28:18.283Z</time></trkpt><trkpt lat="58.06457" lon="14.19535667"><ele>115.0</ele><time>2016-06-18T07:28:19.314Z</time></trkpt><trkpt lat="58.06457" lon="14.19535667"><ele>115.0</ele><time>2016-06-18T07:28:20.313Z</time></trkpt><trkpt lat="58.06467667" lon="14.19539333"><ele>115.0</ele><time>2016-06-18T07:28:21.320Z</time></trkpt><trkpt lat="58.06473333" lon="14.19541"><ele>115.0</ele><time>2016-06-18T07:28:22.298Z</time></trkpt><trkpt lat="58.06473333" lon="14.19541"><ele>115.0</ele><time>2016-06-18T07:28:23.300Z</time></trkpt><trkpt lat="58.06485667" lon="14.19545"><ele>114.0</ele><time>2016-06-18T07:28:24.307Z</time></trkpt><trkpt lat="58.06485667" lon="14.19545"><ele>114.0</ele><time>2016-06-18T07:28:25.297Z</time></trkpt><trkpt lat="58.06498833" lon="14.19548833"><ele>114.0</ele><time>2016-06-18T07:28:26.298Z</time></trkpt><trkpt lat="58.06498833" lon="14.19548833"><ele>114.0</ele><time>2016-06-18T07:28:27.316Z</time></trkpt><trkpt lat="58.06512" lon="14.19552833"><ele>114.0</ele><time>2016-06-18T07:28:28.282Z</time></trkpt><trkpt lat="58.06512" lon="14.19552833"><ele>114.0</ele><time>2016-06-18T07:28:29.303Z</time></trkpt><trkpt lat="58.065255" lon="14.195565"><ele>114.0</ele><time>2016-06-18T07:28:30.290Z</time></trkpt><trkpt lat="58.065255" lon="14.195565"><ele>114.0</ele><time>2016-06-18T07:28:31.294Z</time></trkpt><trkpt lat="58.06539" lon="14.19559667"><ele>115.0</ele><time>2016-06-18T07:28:32.300Z</time></trkpt><trkpt lat="58.06539" lon="14.19559667"><ele>115.0</ele><time>2016-06-18T07:28:33.321Z</time></trkpt><trkpt lat="58.065515" lon="14.19562"><ele>115.0</ele><time>2016-06-18T07:28:34.302Z</time></trkpt><trkpt lat="58.065515" lon="14.19562"><ele>115.0</ele><time>2016-06-18T07:28:35.301Z</time></trkpt><trkpt lat="58.065635" lon="14.19564833"><ele>115.0</ele><time>2016-06-18T07:28:36.308Z</time></trkpt><trkpt lat="58.065695" lon="14.19566333"><ele>115.0</ele><time>2016-06-18T07:28:37.283Z</time></trkpt><trkpt lat="58.065695" lon="14.19566333"><ele>115.0</ele><time>2016-06-18T07:28:38.300Z</time></trkpt><trkpt lat="58.06582" lon="14.19568833"><ele>115.0</ele><time>2016-06-18T07:28:39.307Z</time></trkpt><trkpt lat="58.06582" lon="14.19568833"><ele>115.0</ele><time>2016-06-18T07:28:40.288Z</time></trkpt><trkpt lat="58.06595" lon="14.19572"><ele>116.0</ele><time>2016-06-18T07:28:41.288Z</time></trkpt><trkpt lat="58.06601667" lon="14.195735"><ele>116.0</ele><time>2016-06-18T07:28:42.302Z</time></trkpt><trkpt lat="58.06601667" lon="14.195735"><ele>116.0</ele><time>2016-06-18T07:28:43.284Z</time></trkpt><trkpt lat="58.06615167" lon="14.19576833"><ele>117.0</ele><time>2016-06-18T07:28:44.295Z</time></trkpt><trkpt lat="58.06621833" lon="14.19578333"><ele>118.0</ele><time>2016-06-18T07:28:45.317Z</time></trkpt><trkpt lat="58.06621833" lon="14.19578333"><ele>118.0</ele><time>2016-06-18T07:28:46.299Z</time></trkpt><trkpt lat="58.06634167" lon="14.195805"><ele>117.0</ele><time>2016-06-18T07:28:47.306Z</time></trkpt><trkpt lat="58.06634167" lon="14.195805"><ele>117.0</ele><time>2016-06-18T07:28:48.287Z</time></trkpt><trkpt lat="58.06646167" lon="14.19582833"><ele>117.0</ele><time>2016-06-18T07:28:49.291Z</time></trkpt><trkpt lat="58.06652" lon="14.19583833"><ele>117.0</ele><time>2016-06-18T07:28:50.307Z</time></trkpt><trkpt lat="58.06652" lon="14.19583833"><ele>117.0</ele><time>2016-06-18T07:28:51.288Z</time></trkpt><trkpt lat="58.06663833" lon="14.19585167"><ele>118.0</ele><time>2016-06-18T07:28:52.312Z</time></trkpt><trkpt lat="58.06663833" lon="14.19585167"><ele>118.0</ele><time>2016-06-18T07:28:53.304Z</time></trkpt><trkpt lat="58.06676167" lon="14.19586167"><ele>119.0</ele><time>2016-06-18T07:28:54.310Z</time></trkpt><trkpt lat="58.06682667" lon="14.19587"><ele>119.0</ele><time>2016-06-18T07:28:55.292Z</time></trkpt><trkpt lat="58.06689167" lon="14.19587667"><ele>118.0</ele><time>2016-06-18T07:28:56.314Z</time></trkpt><trkpt lat="58.06689167" lon="14.19587667"><ele>118.0</ele><time>2016-06-18T07:28:57.298Z</time></trkpt><trkpt lat="58.06702167" lon="14.195885"><ele>118.0</ele><time>2016-06-18T07:28:58.306Z</time></trkpt><trkpt lat="58.06709167" lon="14.195895"><ele>120.0</ele><time>2016-06-18T07:28:59.299Z</time></trkpt><trkpt lat="58.06709167" lon="14.195895"><ele>120.0</ele><time>2016-06-18T07:29:00.286Z</time></trkpt><trkpt lat="58.067225" lon="14.19591"><ele>120.0</ele><time>2016-06-18T07:29:01.318Z</time></trkpt><trkpt lat="58.06729167" lon="14.19592"><ele>121.0</ele><time>2016-06-18T07:29:02.295Z</time></trkpt><trkpt lat="58.06729167" lon="14.19592"><ele>121.0</ele><time>2016-06-18T07:29:03.306Z</time></trkpt><trkpt lat="58.06742333" lon="14.19592667"><ele>122.0</ele><time>2016-06-18T07:29:04.288Z</time></trkpt><trkpt lat="58.06748333" lon="14.19593"><ele>122.0</ele><time>2016-06-18T07:29:05.319Z</time></trkpt><trkpt lat="58.06748333" lon="14.19593"><ele>122.0</ele><time>2016-06-18T07:29:06.303Z</time></trkpt><trkpt lat="58.06760833" lon="14.19593667"><ele>122.0</ele><time>2016-06-18T07:29:07.294Z</time></trkpt><trkpt lat="58.06767" lon="14.19594167"><ele>122.0</ele><time>2016-06-18T07:29:08.294Z</time></trkpt><trkpt lat="58.06767" lon="14.19594167"><ele>122.0</ele><time>2016-06-18T07:29:09.318Z</time></trkpt><trkpt lat="58.06779167" lon="14.19594833"><ele>123.0</ele><time>2016-06-18T07:29:10.318Z</time></trkpt><trkpt lat="58.06779167" lon="14.19594833"><ele>123.0</ele><time>2016-06-18T07:29:11.312Z</time></trkpt><trkpt lat="58.067915" lon="14.19595333"><ele>124.0</ele><time>2016-06-18T07:29:12.285Z</time></trkpt><trkpt lat="58.06796833" lon="14.195955"><ele>124.0</ele><time>2016-06-18T07:29:13.310Z</time></trkpt><trkpt lat="58.06796833" lon="14.195955"><ele>124.0</ele><time>2016-06-18T07:29:14.291Z</time></trkpt><trkpt lat="58.06807833" lon="14.19595167"><ele>124.0</ele><time>2016-06-18T07:29:15.291Z</time></trkpt><trkpt lat="58.06807833" lon="14.19595167"><ele>124.0</ele><time>2016-06-18T07:29:16.298Z</time></trkpt><trkpt lat="58.06819333" lon="14.19593833"><ele>123.0</ele><time>2016-06-18T07:29:17.306Z</time></trkpt><trkpt lat="58.06819333" lon="14.19593833"><ele>123.0</ele><time>2016-06-18T07:29:18.287Z</time></trkpt><trkpt lat="58.06831833" lon="14.19593833"><ele>124.0</ele><time>2016-06-18T07:29:19.288Z</time></trkpt><trkpt lat="58.06838167" lon="14.195935"><ele>124.0</ele><time>2016-06-18T07:29:20.288Z</time></trkpt><trkpt lat="58.06838167" lon="14.195935"><ele>124.0</ele><time>2016-06-18T07:29:21.311Z</time></trkpt><trkpt lat="58.06851167" lon="14.19592833"><ele>124.0</ele><time>2016-06-18T07:29:22.296Z</time></trkpt><trkpt lat="58.06851167" lon="14.19592833"><ele>124.0</ele><time>2016-06-18T07:29:23.306Z</time></trkpt><trkpt lat="58.06864167" lon="14.195925"><ele>125.0</ele><time>2016-06-18T07:29:24.313Z</time></trkpt><trkpt lat="58.06864167" lon="14.195925"><ele>125.0</ele><time>2016-06-18T07:29:25.305Z</time></trkpt><trkpt lat="58.06877167" lon="14.19591167"><ele>125.0</ele><time>2016-06-18T07:29:26.301Z</time></trkpt><trkpt lat="58.06877167" lon="14.19591167"><ele>125.0</ele><time>2016-06-18T07:29:27.308Z</time></trkpt><trkpt lat="58.06889167" lon="14.19590167"><ele>126.0</ele><time>2016-06-18T07:29:28.315Z</time></trkpt><trkpt lat="58.06889167" lon="14.19590167"><ele>126.0</ele><time>2016-06-18T07:29:29.306Z</time></trkpt><trkpt lat="58.06902167" lon="14.19589667"><ele>126.0</ele><time>2016-06-18T07:29:30.289Z</time></trkpt><trkpt lat="58.06902167" lon="14.19589667"><ele>126.0</ele><time>2016-06-18T07:29:31.307Z</time></trkpt><trkpt lat="58.06915167" lon="14.19588"><ele>127.0</ele><time>2016-06-18T07:29:32.314Z</time></trkpt><trkpt lat="58.06921333" lon="14.19587667"><ele>127.0</ele><time>2016-06-18T07:29:33.318Z</time></trkpt><trkpt lat="58.06921333" lon="14.19587667"><ele>127.0</ele><time>2016-06-18T07:29:34.314Z</time></trkpt><trkpt lat="58.06931" lon="14.19588333"><ele>130.0</ele><time>2016-06-18T07:29:35.282Z</time></trkpt><trkpt lat="58.06938167" lon="14.19588"><ele>131.0</ele><time>2016-06-18T07:29:36.311Z</time></trkpt><trkpt lat="58.06938167" lon="14.19588"><ele>131.0</ele><time>2016-06-18T07:29:37.298Z</time></trkpt><trkpt lat="58.06953167" lon="14.19585167"><ele>131.0</ele><time>2016-06-18T07:29:38.305Z</time></trkpt><trkpt lat="58.06953167" lon="14.19585167"><ele>131.0</ele><time>2016-06-18T07:29:39.287Z</time></trkpt><trkpt lat="58.06967333" lon="14.195825"><ele>130.0</ele><time>2016-06-18T07:29:40.313Z</time></trkpt><trkpt lat="58.06967333" lon="14.195825"><ele>130.0</ele><time>2016-06-18T07:29:41.307Z</time></trkpt><trkpt lat="58.06981" lon="14.19580333"><ele>130.0</ele><time>2016-06-18T07:29:42.313Z</time></trkpt><trkpt lat="58.06987667" lon="14.19579167"><ele>129.0</ele><time>2016-06-18T07:29:43.319Z</time></trkpt><trkpt lat="58.06987667" lon="14.19579167"><ele>129.0</ele><time>2016-06-18T07:29:44.301Z</time></trkpt><trkpt lat="58.07000667" lon="14.19577167"><ele>129.0</ele><time>2016-06-18T07:29:45.309Z</time></trkpt><trkpt lat="58.07007333" lon="14.19576"><ele>130.0</ele><time>2016-06-18T07:29:46.302Z</time></trkpt><trkpt lat="58.07007333" lon="14.19576"><ele>130.0</ele><time>2016-06-18T07:29:47.307Z</time></trkpt><trkpt lat="58.070205" lon="14.19573667"><ele>130.0</ele><time>2016-06-18T07:29:48.314Z</time></trkpt><trkpt lat="58.070205" lon="14.19573667"><ele>130.0</ele><time>2016-06-18T07:29:49.295Z</time></trkpt><trkpt lat="58.07033333" lon="14.195705"><ele>131.0</ele><time>2016-06-18T07:29:50.312Z</time></trkpt><trkpt lat="58.07033333" lon="14.195705"><ele>131.0</ele><time>2016-06-18T07:29:51.300Z</time></trkpt><trkpt lat="58.07046833" lon="14.19567333"><ele>131.0</ele><time>2016-06-18T07:29:52.318Z</time></trkpt><trkpt lat="58.07046833" lon="14.19567333"><ele>131.0</ele><time>2016-06-18T07:29:53.303Z</time></trkpt><trkpt lat="58.07060833" lon="14.195645"><ele>132.0</ele><time>2016-06-18T07:29:54.314Z</time></trkpt><trkpt lat="58.07060833" lon="14.195645"><ele>132.0</ele><time>2016-06-18T07:29:55.285Z</time></trkpt><trkpt lat="58.07074833" lon="14.19561833"><ele>132.0</ele><time>2016-06-18T07:29:56.301Z</time></trkpt><trkpt lat="58.07074833" lon="14.19561833"><ele>132.0</ele><time>2016-06-18T07:29:57.285Z</time></trkpt><trkpt lat="58.07087667" lon="14.19558667"><ele>132.0</ele><time>2016-06-18T07:29:58.295Z</time></trkpt><trkpt lat="58.07087667" lon="14.19558667"><ele>132.0</ele><time>2016-06-18T07:29:59.313Z</time></trkpt><trkpt lat="58.07100167" lon="14.19555"><ele>133.0</ele><time>2016-06-18T07:30:00.282Z</time></trkpt><trkpt lat="58.07106667" lon="14.19553833"><ele>132.0</ele><time>2016-06-18T07:30:01.298Z</time></trkpt><trkpt lat="58.07106667" lon="14.19553833"><ele>132.0</ele><time>2016-06-18T07:30:02.292Z</time></trkpt><trkpt lat="58.07119333" lon="14.19551167"><ele>133.0</ele><time>2016-06-18T07:30:03.305Z</time></trkpt><trkpt lat="58.07119333" lon="14.19551167"><ele>133.0</ele><time>2016-06-18T07:30:04.288Z</time></trkpt><trkpt lat="58.071325" lon="14.19548167"><ele>135.0</ele><time>2016-06-18T07:30:05.287Z</time></trkpt><trkpt lat="58.071325" lon="14.19548167"><ele>135.0</ele><time>2016-06-18T07:30:06.321Z</time></trkpt><trkpt lat="58.07146833" lon="14.195455"><ele>136.0</ele><time>2016-06-18T07:30:07.287Z</time></trkpt><trkpt lat="58.07154167" lon="14.19544"><ele>137.0</ele><time>2016-06-18T07:30:08.311Z</time></trkpt><trkpt lat="58.07154167" lon="14.19544"><ele>137.0</ele><time>2016-06-18T07:30:09.306Z</time></trkpt><trkpt lat="58.07167833" lon="14.19541667"><ele>138.0</ele><time>2016-06-18T07:30:10.313Z</time></trkpt><trkpt lat="58.07167833" lon="14.19541667"><ele>138.0</ele><time>2016-06-18T07:30:11.304Z</time></trkpt><trkpt lat="58.071805" lon="14.19538167"><ele>138.0</ele><time>2016-06-18T07:30:12.283Z</time></trkpt><trkpt lat="58.07186833" lon="14.19536333"><ele>138.0</ele><time>2016-06-18T07:30:13.310Z</time></trkpt><trkpt lat="58.07186833" lon="14.19536333"><ele>138.0</ele><time>2016-06-18T07:30:14.299Z</time></trkpt><trkpt lat="58.07200333" lon="14.19533833"><ele>139.0</ele><time>2016-06-18T07:30:15.307Z</time></trkpt><trkpt lat="58.07207333" lon="14.195325"><ele>138.0</ele><time>2016-06-18T07:30:16.301Z</time></trkpt><trkpt lat="58.07207333" lon="14.195325"><ele>138.0</ele><time>2016-06-18T07:30:17.306Z</time></trkpt><trkpt lat="58.07221167" lon="14.19530333"><ele>138.0</ele><time>2016-06-18T07:30:18.314Z</time></trkpt><trkpt lat="58.07227833" lon="14.19529"><ele>138.0</ele><time>2016-06-18T07:30:19.309Z</time></trkpt><trkpt lat="58.07234667" lon="14.195275"><ele>138.0</ele><time>2016-06-18T07:30:20.289Z</time></trkpt><trkpt lat="58.07234667" lon="14.195275"><ele>138.0</ele><time>2016-06-18T07:30:21.296Z</time></trkpt><trkpt lat="58.07248167" lon="14.19525167"><ele>138.0</ele><time>2016-06-18T07:30:22.310Z</time></trkpt><trkpt lat="58.07248167" lon="14.19525167"><ele>138.0</ele><time>2016-06-18T07:30:23.314Z</time></trkpt><trkpt lat="58.072615" lon="14.19522167"><ele>139.0</ele><time>2016-06-18T07:30:24.282Z</time></trkpt><trkpt lat="58.072615" lon="14.19522167"><ele>139.0</ele><time>2016-06-18T07:30:25.307Z</time></trkpt><trkpt lat="58.07275833" lon="14.19519"><ele>139.0</ele><time>2016-06-18T07:30:26.320Z</time></trkpt><trkpt lat="58.07275833" lon="14.19519"><ele>139.0</ele><time>2016-06-18T07:30:27.312Z</time></trkpt><trkpt lat="58.07289333" lon="14.195165"><ele>139.0</ele><time>2016-06-18T07:30:28.288Z</time></trkpt><trkpt lat="58.07296" lon="14.19514833"><ele>140.0</ele><time>2016-06-18T07:30:29.312Z</time></trkpt><trkpt lat="58.07303" lon="14.195135"><ele>140.0</ele><time>2016-06-18T07:30:30.319Z</time></trkpt><trkpt lat="58.07303" lon="14.195135"><ele>140.0</ele><time>2016-06-18T07:30:31.308Z</time></trkpt><trkpt lat="58.07316833" lon="14.19512167"><ele>143.0</ele><time>2016-06-18T07:30:32.305Z</time></trkpt><trkpt lat="58.073245" lon="14.19511167"><ele>143.0</ele><time>2016-06-18T07:30:33.282Z</time></trkpt><trkpt lat="58.073245" lon="14.19511167"><ele>143.0</ele><time>2016-06-18T07:30:34.305Z</time></trkpt><trkpt lat="58.07339167" lon="14.19507833"><ele>143.0</ele><time>2016-06-18T07:30:35.288Z</time></trkpt><trkpt lat="58.07339167" lon="14.19507833"><ele>143.0</ele><time>2016-06-18T07:30:36.287Z</time></trkpt><trkpt lat="58.07354333" lon="14.19504667"><ele>144.0</ele><time>2016-06-18T07:30:37.300Z</time></trkpt><trkpt lat="58.07361167" lon="14.19503833"><ele>145.0</ele><time>2016-06-18T07:30:38.295Z</time></trkpt><trkpt lat="58.07361167" lon="14.19503833"><ele>145.0</ele><time>2016-06-18T07:30:39.316Z</time></trkpt><trkpt lat="58.07375333" lon="14.19500833"><ele>145.0</ele><time>2016-06-18T07:30:40.283Z</time></trkpt><trkpt lat="58.073825" lon="14.19499167"><ele>145.0</ele><time>2016-06-18T07:30:41.318Z</time></trkpt><trkpt lat="58.073825" lon="14.19499167"><ele>145.0</ele><time>2016-06-18T07:30:42.314Z</time></trkpt><trkpt lat="58.07396167" lon="14.19496"><ele>145.0</ele><time>2016-06-18T07:30:43.283Z</time></trkpt><trkpt lat="58.07402667" lon="14.19494167"><ele>146.0</ele><time>2016-06-18T07:30:44.312Z</time></trkpt><trkpt lat="58.07402667" lon="14.19494167"><ele>146.0</ele><time>2016-06-18T07:30:45.307Z</time></trkpt><trkpt lat="58.07415333" lon="14.19491667"><ele>147.0</ele><time>2016-06-18T07:30:46.314Z</time></trkpt><trkpt lat="58.07415333" lon="14.19491667"><ele>147.0</ele><time>2016-06-18T07:30:47.298Z</time></trkpt><trkpt lat="58.07428167" lon="14.19489167"><ele>148.0</ele><time>2016-06-18T07:30:48.324Z</time></trkpt><trkpt lat="58.07428167" lon="14.19489167"><ele>148.0</ele><time>2016-06-18T07:30:49.313Z</time></trkpt><trkpt lat="58.074405" lon="14.19487833"><ele>149.0</ele><time>2016-06-18T07:30:50.319Z</time></trkpt><trkpt lat="58.074405" lon="14.19487833"><ele>149.0</ele><time>2016-06-18T07:30:51.306Z</time></trkpt><trkpt lat="58.07453" lon="14.19486"><ele>150.0</ele><time>2016-06-18T07:30:52.303Z</time></trkpt><trkpt lat="58.07459167" lon="14.19484667"><ele>150.0</ele><time>2016-06-18T07:30:53.313Z</time></trkpt><trkpt lat="58.07459167" lon="14.19484667"><ele>150.0</ele><time>2016-06-18T07:30:54.295Z</time></trkpt><trkpt lat="58.07472667" lon="14.19481"><ele>150.0</ele><time>2016-06-18T07:30:55.308Z</time></trkpt><trkpt lat="58.074795" lon="14.19479667"><ele>150.0</ele><time>2016-06-18T07:30:56.302Z</time></trkpt><trkpt lat="58.074795" lon="14.19479667"><ele>150.0</ele><time>2016-06-18T07:30:57.286Z</time></trkpt><trkpt lat="58.07494167" lon="14.19476667"><ele>148.0</ele><time>2016-06-18T07:30:58.314Z</time></trkpt><trkpt lat="58.07494167" lon="14.19476667"><ele>148.0</ele><time>2016-06-18T07:30:59.310Z</time></trkpt><trkpt lat="58.07509167" lon="14.19473167"><ele>146.0</ele><time>2016-06-18T07:31:00.287Z</time></trkpt><trkpt lat="58.07516667" lon="14.194715"><ele>145.0</ele><time>2016-06-18T07:31:01.306Z</time></trkpt><trkpt lat="58.07516667" lon="14.194715"><ele>145.0</ele><time>2016-06-18T07:31:02.298Z</time></trkpt><trkpt lat="58.07531" lon="14.19468167"><ele>145.0</ele><time>2016-06-18T07:31:03.307Z</time></trkpt><trkpt lat="58.07531" lon="14.19468167"><ele>145.0</ele><time>2016-06-18T07:31:04.290Z</time></trkpt><trkpt lat="58.07545" lon="14.194645"><ele>143.0</ele><time>2016-06-18T07:31:05.285Z</time></trkpt><trkpt lat="58.07545" lon="14.194645"><ele>143.0</ele><time>2016-06-18T07:31:06.286Z</time></trkpt><trkpt lat="58.075595" lon="14.19461333"><ele>143.0</ele><time>2016-06-18T07:31:07.322Z</time></trkpt><trkpt lat="58.07567" lon="14.19459833"><ele>143.0</ele><time>2016-06-18T07:31:08.313Z</time></trkpt><trkpt lat="58.07567" lon="14.19459833"><ele>143.0</ele><time>2016-06-18T07:31:09.297Z</time></trkpt><trkpt lat="58.07582167" lon="14.19457"><ele>143.0</ele><time>2016-06-18T07:31:10.305Z</time></trkpt><trkpt lat="58.07582167" lon="14.19457"><ele>143.0</ele><time>2016-06-18T07:31:11.283Z</time></trkpt><trkpt lat="58.075965" lon="14.19453667"><ele>143.0</ele><time>2016-06-18T07:31:12.299Z</time></trkpt><trkpt lat="58.075965" lon="14.19453667"><ele>143.0</ele><time>2016-06-18T07:31:13.321Z</time></trkpt><trkpt lat="58.07610333" lon="14.19451167"><ele>143.0</ele><time>2016-06-18T07:31:14.288Z</time></trkpt><trkpt lat="58.07610333" lon="14.19451167"><ele>143.0</ele><time>2016-06-18T07:31:15.309Z</time></trkpt><trkpt lat="58.07623667" lon="14.19448667"><ele>143.0</ele><time>2016-06-18T07:31:16.302Z</time></trkpt><trkpt lat="58.07623667" lon="14.19448667"><ele>143.0</ele><time>2016-06-18T07:31:17.307Z</time></trkpt><trkpt lat="58.07637333" lon="14.19446333"><ele>143.0</ele><time>2016-06-18T07:31:18.314Z</time></trkpt><trkpt lat="58.07637333" lon="14.19446333"><ele>143.0</ele><time>2016-06-18T07:31:19.301Z</time></trkpt><trkpt lat="58.076515" lon="14.19443667"><ele>143.0</ele><time>2016-06-18T07:31:20.313Z</time></trkpt><trkpt lat="58.076515" lon="14.19443667"><ele>143.0</ele><time>2016-06-18T07:31:21.311Z</time></trkpt><trkpt lat="58.07665667" lon="14.19441333"><ele>143.0</ele><time>2016-06-18T07:31:22.319Z</time></trkpt><trkpt lat="58.07665667" lon="14.19441333"><ele>143.0</ele><time>2016-06-18T07:31:23.303Z</time></trkpt><trkpt lat="58.07679167" lon="14.19439"><ele>143.0</ele><time>2016-06-18T07:31:24.328Z</time></trkpt><trkpt lat="58.07686333" lon="14.194375"><ele>143.0</ele><time>2016-06-18T07:31:25.294Z</time></trkpt><trkpt lat="58.07693833" lon="14.19436167"><ele>143.0</ele><time>2016-06-18T07:31:26.316Z</time></trkpt><trkpt lat="58.07693833" lon="14.19436167"><ele>143.0</ele><time>2016-06-18T07:31:27.297Z</time></trkpt><trkpt lat="58.07708833" lon="14.19434333"><ele>143.0</ele><time>2016-06-18T07:31:28.304Z</time></trkpt><trkpt lat="58.07716333" lon="14.19433833"><ele>142.0</ele><time>2016-06-18T07:31:29.288Z</time></trkpt><trkpt lat="58.07716333" lon="14.19433833"><ele>142.0</ele><time>2016-06-18T07:31:30.310Z</time></trkpt><trkpt lat="58.07731667" lon="14.19433167"><ele>141.0</ele><time>2016-06-18T07:31:31.316Z</time></trkpt><trkpt lat="58.07739667" lon="14.19432833"><ele>141.0</ele><time>2016-06-18T07:31:32.301Z</time></trkpt><trkpt lat="58.07739667" lon="14.19432833"><ele>141.0</ele><time>2016-06-18T07:31:33.285Z</time></trkpt><trkpt lat="58.07756" lon="14.19432333"><ele>141.0</ele><time>2016-06-18T07:31:34.299Z</time></trkpt><trkpt lat="58.07764667" lon="14.19432333"><ele>141.0</ele><time>2016-06-18T07:31:35.291Z</time></trkpt><trkpt lat="58.07764667" lon="14.19432333"><ele>141.0</ele><time>2016-06-18T07:31:36.313Z</time></trkpt><trkpt lat="58.07783333" lon="14.19432167"><ele>141.0</ele><time>2016-06-18T07:31:37.320Z</time></trkpt><trkpt lat="58.077935" lon="14.19432667"><ele>141.0</ele><time>2016-06-18T07:31:38.314Z</time></trkpt><trkpt lat="58.077935" lon="14.19432667"><ele>141.0</ele><time>2016-06-18T07:31:39.297Z</time></trkpt><trkpt lat="58.07814" lon="14.19433333"><ele>142.0</ele><time>2016-06-18T07:31:40.316Z</time></trkpt><trkpt lat="58.07823833" lon="14.19433833"><ele>142.0</ele><time>2016-06-18T07:31:41.312Z</time></trkpt><trkpt lat="58.07823833" lon="14.19433833"><ele>142.0</ele><time>2016-06-18T07:31:42.313Z</time></trkpt><trkpt lat="58.07843667" lon="14.194345"><ele>142.0</ele><time>2016-06-18T07:31:43.283Z</time></trkpt><trkpt lat="58.07853167" lon="14.19434833"><ele>142.0</ele><time>2016-06-18T07:31:44.291Z</time></trkpt><trkpt lat="58.07853167" lon="14.19434833"><ele>142.0</ele><time>2016-06-18T07:31:45.311Z</time></trkpt><trkpt lat="58.07872167" lon="14.19436"><ele>143.0</ele><time>2016-06-18T07:31:46.318Z</time></trkpt><trkpt lat="58.07881667" lon="14.19436833"><ele>143.0</ele><time>2016-06-18T07:31:47.308Z</time></trkpt><trkpt lat="58.07881667" lon="14.19436833"><ele>143.0</ele><time>2016-06-18T07:31:48.308Z</time></trkpt><trkpt lat="58.07900167" lon="14.19438333"><ele>143.0</ele><time>2016-06-18T07:31:49.314Z</time></trkpt><trkpt lat="58.07909333" lon="14.194395"><ele>143.0</ele><time>2016-06-18T07:31:50.306Z</time></trkpt><trkpt lat="58.07909333" lon="14.194395"><ele>143.0</ele><time>2016-06-18T07:31:51.310Z</time></trkpt><trkpt lat="58.07927333" lon="14.19442167"><ele>142.0</ele><time>2016-06-18T07:31:52.318Z</time></trkpt><trkpt lat="58.07927333" lon="14.19442167"><ele>142.0</ele><time>2016-06-18T07:31:53.304Z</time></trkpt><trkpt lat="58.07945333" lon="14.19445833"><ele>141.0</ele><time>2016-06-18T07:31:54.323Z</time></trkpt><trkpt lat="58.07945333" lon="14.19445833"><ele>141.0</ele><time>2016-06-18T07:31:55.310Z</time></trkpt><trkpt lat="58.07963667" lon="14.19448833"><ele>141.0</ele><time>2016-06-18T07:31:56.317Z</time></trkpt><trkpt lat="58.07963667" lon="14.19448833"><ele>141.0</ele><time>2016-06-18T07:31:57.299Z</time></trkpt><trkpt lat="58.07982833" lon="14.19452333"><ele>141.0</ele><time>2016-06-18T07:31:58.317Z</time></trkpt><trkpt lat="58.07982833" lon="14.19452333"><ele>141.0</ele><time>2016-06-18T07:31:59.286Z</time></trkpt><trkpt lat="58.08001667" lon="14.19456667"><ele>140.0</ele><time>2016-06-18T07:32:00.300Z</time></trkpt><trkpt lat="58.08011" lon="14.19459167"><ele>141.0</ele><time>2016-06-18T07:32:01.306Z</time></trkpt><trkpt lat="58.08020333" lon="14.19461667"><ele>140.0</ele><time>2016-06-18T07:32:02.321Z</time></trkpt><trkpt lat="58.08020333" lon="14.19461667"><ele>140.0</ele><time>2016-06-18T07:32:03.321Z</time></trkpt><trkpt lat="58.08039" lon="14.19466667"><ele>140.0</ele><time>2016-06-18T07:32:04.292Z</time></trkpt><trkpt lat="58.08048" lon="14.19469667"><ele>140.0</ele><time>2016-06-18T07:32:05.290Z</time></trkpt><trkpt lat="58.08048" lon="14.19469667"><ele>140.0</ele><time>2016-06-18T07:32:06.311Z</time></trkpt><trkpt lat="58.080665" lon="14.19475833"><ele>140.0</ele><time>2016-06-18T07:32:07.288Z</time></trkpt><trkpt lat="58.080755" lon="14.19478833"><ele>140.0</ele><time>2016-06-18T07:32:08.317Z</time></trkpt><trkpt lat="58.080755" lon="14.19478833"><ele>140.0</ele><time>2016-06-18T07:32:09.284Z</time></trkpt><trkpt lat="58.080935" lon="14.19484667"><ele>140.0</ele><time>2016-06-18T07:32:10.308Z</time></trkpt><trkpt lat="58.080935" lon="14.19484667"><ele>140.0</ele><time>2016-06-18T07:32:11.310Z</time></trkpt><trkpt lat="58.08112333" lon="14.19491"><ele>140.0</ele><time>2016-06-18T07:32:12.320Z</time></trkpt><trkpt lat="58.08112333" lon="14.19491"><ele>140.0</ele><time>2016-06-18T07:32:13.308Z</time></trkpt><trkpt lat="58.08131333" lon="14.19497667"><ele>139.0</ele><time>2016-06-18T07:32:14.316Z</time></trkpt><trkpt lat="58.08131333" lon="14.19497667"><ele>139.0</ele><time>2016-06-18T07:32:15.299Z</time></trkpt><trkpt lat="58.081505" lon="14.19505"><ele>139.0</ele><time>2016-06-18T07:32:16.304Z</time></trkpt><trkpt lat="58.081505" lon="14.19505"><ele>139.0</ele><time>2016-06-18T07:32:17.309Z</time></trkpt><trkpt lat="58.081695" lon="14.19513"><ele>139.0</ele><time>2016-06-18T07:32:18.284Z</time></trkpt><trkpt lat="58.08179333" lon="14.19517333"><ele>140.0</ele><time>2016-06-18T07:32:19.293Z</time></trkpt><trkpt lat="58.08179333" lon="14.19517333"><ele>140.0</ele><time>2016-06-18T07:32:20.310Z</time></trkpt><trkpt lat="58.08197667" lon="14.19525"><ele>139.0</ele><time>2016-06-18T07:32:21.317Z</time></trkpt><trkpt lat="58.08197667" lon="14.19525"><ele>139.0</ele><time>2016-06-18T07:32:22.299Z</time></trkpt><trkpt lat="58.082165" lon="14.19533"><ele>139.0</ele><time>2016-06-18T07:32:23.302Z</time></trkpt><trkpt lat="58.082165" lon="14.19533"><ele>139.0</ele><time>2016-06-18T07:32:24.303Z</time></trkpt><trkpt lat="58.08236" lon="14.19541"><ele>139.0</ele><time>2016-06-18T07:32:25.310Z</time></trkpt><trkpt lat="58.08245833" lon="14.19545667"><ele>138.0</ele><time>2016-06-18T07:32:26.299Z</time></trkpt><trkpt lat="58.08245833" lon="14.19545667"><ele>138.0</ele><time>2016-06-18T07:32:27.321Z</time></trkpt><trkpt lat="58.08265833" lon="14.19555333"><ele>137.0</ele><time>2016-06-18T07:32:28.287Z</time></trkpt><trkpt lat="58.08276" lon="14.19560833"><ele>137.0</ele><time>2016-06-18T07:32:29.299Z</time></trkpt><trkpt lat="58.08276" lon="14.19560833"><ele>137.0</ele><time>2016-06-18T07:32:30.302Z</time></trkpt><trkpt lat="58.08296" lon="14.19572333"><ele>137.0</ele><time>2016-06-18T07:32:31.309Z</time></trkpt><trkpt lat="58.08306" lon="14.19578167"><ele>136.0</ele><time>2016-06-18T07:32:32.290Z</time></trkpt><trkpt lat="58.08306" lon="14.19578167"><ele>136.0</ele><time>2016-06-18T07:32:33.283Z</time></trkpt><trkpt lat="58.083255" lon="14.19589333"><ele>136.0</ele><time>2016-06-18T07:32:34.290Z</time></trkpt><trkpt lat="58.083255" lon="14.19589333"><ele>136.0</ele><time>2016-06-18T07:32:35.313Z</time></trkpt><trkpt lat="58.083445" lon="14.196"><ele>136.0</ele><time>2016-06-18T07:32:36.311Z</time></trkpt><trkpt lat="58.083445" lon="14.196"><ele>136.0</ele><time>2016-06-18T07:32:37.317Z</time></trkpt><trkpt lat="58.08364" lon="14.19611"><ele>136.0</ele><time>2016-06-18T07:32:38.284Z</time></trkpt><trkpt lat="58.08364" lon="14.19611"><ele>136.0</ele><time>2016-06-18T07:32:39.316Z</time></trkpt><trkpt lat="58.08383833" lon="14.19622333"><ele>136.0</ele><time>2016-06-18T07:32:40.298Z</time></trkpt><trkpt lat="58.08383833" lon="14.19622333"><ele>136.0</ele><time>2016-06-18T07:32:41.298Z</time></trkpt><trkpt lat="58.08403667" lon="14.196335"><ele>136.0</ele><time>2016-06-18T07:32:42.305Z</time></trkpt><trkpt lat="58.084135" lon="14.19638833"><ele>136.0</ele><time>2016-06-18T07:32:43.288Z</time></trkpt><trkpt lat="58.084135" lon="14.19638833"><ele>136.0</ele><time>2016-06-18T07:32:44.305Z</time></trkpt><trkpt lat="58.08432833" lon="14.196495"><ele>136.0</ele><time>2016-06-18T07:32:45.320Z</time></trkpt><trkpt lat="58.08432833" lon="14.196495"><ele>136.0</ele><time>2016-06-18T07:32:46.314Z</time></trkpt><trkpt lat="58.08452" lon="14.19660333"><ele>135.0</ele><time>2016-06-18T07:32:47.320Z</time></trkpt><trkpt lat="58.08452" lon="14.19660333"><ele>135.0</ele><time>2016-06-18T07:32:48.303Z</time></trkpt><trkpt lat="58.084715" lon="14.19671833"><ele>135.0</ele><time>2016-06-18T07:32:49.305Z</time></trkpt><trkpt lat="58.084815" lon="14.196775"><ele>135.0</ele><time>2016-06-18T07:32:50.312Z</time></trkpt><trkpt lat="58.084815" lon="14.196775"><ele>135.0</ele><time>2016-06-18T07:32:51.297Z</time></trkpt><trkpt lat="58.08501167" lon="14.19688833"><ele>135.0</ele><time>2016-06-18T07:32:52.305Z</time></trkpt><trkpt lat="58.08501167" lon="14.19688833"><ele>135.0</ele><time>2016-06-18T07:32:53.303Z</time></trkpt><trkpt lat="58.08520833" lon="14.197005"><ele>135.0</ele><time>2016-06-18T07:32:54.310Z</time></trkpt><trkpt lat="58.08520833" lon="14.197005"><ele>135.0</ele><time>2016-06-18T07:32:55.299Z</time></trkpt><trkpt lat="58.08541167" lon="14.19713167"><ele>135.0</ele><time>2016-06-18T07:32:56.328Z</time></trkpt><trkpt lat="58.08541167" lon="14.19713167"><ele>135.0</ele><time>2016-06-18T07:32:57.291Z</time></trkpt><trkpt lat="58.08561333" lon="14.197265"><ele>135.0</ele><time>2016-06-18T07:32:58.303Z</time></trkpt><trkpt lat="58.08561333" lon="14.197265"><ele>135.0</ele><time>2016-06-18T07:32:59.287Z</time></trkpt><trkpt lat="58.08582333" lon="14.19740167"><ele>134.0</ele><time>2016-06-18T07:33:00.308Z</time></trkpt><trkpt lat="58.08582333" lon="14.19740167"><ele>134.0</ele><time>2016-06-18T07:33:01.303Z</time></trkpt><trkpt lat="58.086035" lon="14.197535"><ele>134.0</ele><time>2016-06-18T07:33:02.309Z</time></trkpt><trkpt lat="58.086035" lon="14.197535"><ele>134.0</ele><time>2016-06-18T07:33:03.290Z</time></trkpt><trkpt lat="58.08624333" lon="14.19767333"><ele>133.0</ele><time>2016-06-18T07:33:04.325Z</time></trkpt><trkpt lat="58.08624333" lon="14.19767333"><ele>133.0</ele><time>2016-06-18T07:33:05.315Z</time></trkpt><trkpt lat="58.08645333" lon="14.197815"><ele>132.0</ele><time>2016-06-18T07:33:06.321Z</time></trkpt><trkpt lat="58.08655667" lon="14.19788333"><ele>132.0</ele><time>2016-06-18T07:33:07.309Z</time></trkpt><trkpt lat="58.08665667" lon="14.19795333"><ele>132.0</ele><time>2016-06-18T07:33:08.290Z</time></trkpt><trkpt lat="58.08665667" lon="14.19795333"><ele>132.0</ele><time>2016-06-18T07:33:09.311Z</time></trkpt><trkpt lat="58.08685667" lon="14.19809833"><ele>131.0</ele><time>2016-06-18T07:33:10.319Z</time></trkpt><trkpt lat="58.08685667" lon="14.19809833"><ele>131.0</ele><time>2016-06-18T07:33:11.300Z</time></trkpt><trkpt lat="58.08706167" lon="14.198245"><ele>131.0</ele><time>2016-06-18T07:33:12.311Z</time></trkpt><trkpt lat="58.08706167" lon="14.198245"><ele>131.0</ele><time>2016-06-18T07:33:13.298Z</time></trkpt><trkpt lat="58.08727167" lon="14.1984"><ele>131.0</ele><time>2016-06-18T07:33:14.306Z</time></trkpt><trkpt lat="58.08727167" lon="14.1984"><ele>131.0</ele><time>2016-06-18T07:33:15.313Z</time></trkpt><trkpt lat="58.08748333" lon="14.19856"><ele>130.0</ele><time>2016-06-18T07:33:16.298Z</time></trkpt><trkpt lat="58.08748333" lon="14.19856"><ele>130.0</ele><time>2016-06-18T07:33:17.302Z</time></trkpt><trkpt lat="58.087695" lon="14.19872167"><ele>129.0</ele><time>2016-06-18T07:33:18.309Z</time></trkpt><trkpt lat="58.08780333" lon="14.198805"><ele>129.0</ele><time>2016-06-18T07:33:19.291Z</time></trkpt><trkpt lat="58.087915" lon="14.19888667"><ele>129.0</ele><time>2016-06-18T07:33:20.314Z</time></trkpt><trkpt lat="58.087915" lon="14.19888667"><ele>129.0</ele><time>2016-06-18T07:33:21.300Z</time></trkpt><trkpt lat="58.08813667" lon="14.19905833"><ele>129.0</ele><time>2016-06-18T07:33:22.321Z</time></trkpt><trkpt lat="58.08813667" lon="14.19905833"><ele>129.0</ele><time>2016-06-18T07:33:23.289Z</time></trkpt><trkpt lat="58.08836167" lon="14.19922667"><ele>128.0</ele><time>2016-06-18T07:33:24.301Z</time></trkpt><trkpt lat="58.08836167" lon="14.19922667"><ele>128.0</ele><time>2016-06-18T07:33:25.286Z</time></trkpt><trkpt lat="58.08859333" lon="14.19940167"><ele>128.0</ele><time>2016-06-18T07:33:26.308Z</time></trkpt><trkpt lat="58.08859333" lon="14.19940167"><ele>128.0</ele><time>2016-06-18T07:33:27.300Z</time></trkpt><trkpt lat="58.08882667" lon="14.19958333"><ele>127.0</ele><time>2016-06-18T07:33:28.311Z</time></trkpt><trkpt lat="58.08894333" lon="14.19968"><ele>127.0</ele><time>2016-06-18T07:33:29.295Z</time></trkpt><trkpt lat="58.08894333" lon="14.19968"><ele>127.0</ele><time>2016-06-18T07:33:30.319Z</time></trkpt><trkpt lat="58.08918333" lon="14.19987333"><ele>126.0</ele><time>2016-06-18T07:33:31.286Z</time></trkpt><trkpt lat="58.089305" lon="14.19997"><ele>125.0</ele><time>2016-06-18T07:33:32.288Z</time></trkpt><trkpt lat="58.089305" lon="14.19997"><ele>125.0</ele><time>2016-06-18T07:33:33.308Z</time></trkpt><trkpt lat="58.08955" lon="14.20015667"><ele>125.0</ele><time>2016-06-18T07:33:34.314Z</time></trkpt><trkpt lat="58.08967" lon="14.20025333"><ele>124.0</ele><time>2016-06-18T07:33:35.302Z</time></trkpt><trkpt lat="58.08967" lon="14.20025333"><ele>124.0</ele><time>2016-06-18T07:33:36.318Z</time></trkpt><trkpt lat="58.08991" lon="14.20044333"><ele>124.0</ele><time>2016-06-18T07:33:37.284Z</time></trkpt><trkpt lat="58.09003167" lon="14.20053667"><ele>123.0</ele><time>2016-06-18T07:33:38.322Z</time></trkpt><trkpt lat="58.09003167" lon="14.20053667"><ele>123.0</ele><time>2016-06-18T07:33:39.313Z</time></trkpt><trkpt lat="58.09027333" lon="14.20072333"><ele>123.0</ele><time>2016-06-18T07:33:40.321Z</time></trkpt><trkpt lat="58.09027333" lon="14.20072333"><ele>123.0</ele><time>2016-06-18T07:33:41.307Z</time></trkpt><trkpt lat="58.09051667" lon="14.20090833"><ele>122.0</ele><time>2016-06-18T07:33:42.295Z</time></trkpt><trkpt lat="58.09051667" lon="14.20090833"><ele>122.0</ele><time>2016-06-18T07:33:43.302Z</time></trkpt><trkpt lat="58.09075333" lon="14.20109667"><ele>121.0</ele><time>2016-06-18T07:33:44.311Z</time></trkpt><trkpt lat="58.09075333" lon="14.20109667"><ele>121.0</ele><time>2016-06-18T07:33:45.308Z</time></trkpt><trkpt lat="58.09099" lon="14.20128167"><ele>120.0</ele><time>2016-06-18T07:33:46.323Z</time></trkpt><trkpt lat="58.09111" lon="14.201375"><ele>119.0</ele><time>2016-06-18T07:33:47.303Z</time></trkpt><trkpt lat="58.09122667" lon="14.20146833"><ele>119.0</ele><time>2016-06-18T07:33:48.321Z</time></trkpt><trkpt lat="58.09122667" lon="14.20146833"><ele>119.0</ele><time>2016-06-18T07:33:49.309Z</time></trkpt><trkpt lat="58.09146" lon="14.20165"><ele>118.0</ele><time>2016-06-18T07:33:50.308Z</time></trkpt><trkpt lat="58.09146" lon="14.20165"><ele>118.0</ele><time>2016-06-18T07:33:51.305Z</time></trkpt><trkpt lat="58.09169" lon="14.20182667"><ele>118.0</ele><time>2016-06-18T07:33:52.312Z</time></trkpt><trkpt lat="58.09180167" lon="14.20191333"><ele>117.0</ele><time>2016-06-18T07:33:53.287Z</time></trkpt><trkpt lat="58.09180167" lon="14.20191333"><ele>117.0</ele><time>2016-06-18T07:33:54.321Z</time></trkpt><trkpt lat="58.09202333" lon="14.20208167"><ele>117.0</ele><time>2016-06-18T07:33:55.288Z</time></trkpt><trkpt lat="58.09213333" lon="14.20216333"><ele>116.0</ele><time>2016-06-18T07:33:56.313Z</time></trkpt><trkpt lat="58.09213333" lon="14.20216333"><ele>116.0</ele><time>2016-06-18T07:33:57.301Z</time></trkpt><trkpt lat="58.09234833" lon="14.20232833"><ele>116.0</ele><time>2016-06-18T07:33:58.316Z</time></trkpt><trkpt lat="58.09245333" lon="14.20241167"><ele>115.0</ele><time>2016-06-18T07:33:59.311Z</time></trkpt><trkpt lat="58.09245333" lon="14.20241167"><ele>115.0</ele><time>2016-06-18T07:34:00.300Z</time></trkpt><trkpt lat="58.09266" lon="14.20257333"><ele>115.0</ele><time>2016-06-18T07:34:01.284Z</time></trkpt><trkpt lat="58.09276333" lon="14.20265167"><ele>115.0</ele><time>2016-06-18T07:34:02.290Z</time></trkpt><trkpt lat="58.09276333" lon="14.20265167"><ele>115.0</ele><time>2016-06-18T07:34:03.313Z</time></trkpt><trkpt lat="58.09297" lon="14.20280667"><ele>114.0</ele><time>2016-06-18T07:34:04.297Z</time></trkpt><trkpt lat="58.09307667" lon="14.20289"><ele>114.0</ele><time>2016-06-18T07:34:05.295Z</time></trkpt><trkpt lat="58.09307667" lon="14.20289"><ele>114.0</ele><time>2016-06-18T07:34:06.318Z</time></trkpt><trkpt lat="58.09329" lon="14.203055"><ele>114.0</ele><time>2016-06-18T07:34:07.298Z</time></trkpt><trkpt lat="58.09339833" lon="14.20313667"><ele>114.0</ele><time>2016-06-18T07:34:08.306Z</time></trkpt><trkpt lat="58.09339833" lon="14.20313667"><ele>114.0</ele><time>2016-06-18T07:34:09.288Z</time></trkpt><trkpt lat="58.093615" lon="14.2033"><ele>114.0</ele><time>2016-06-18T07:34:10.308Z</time></trkpt><trkpt lat="58.093615" lon="14.2033"><ele>114.0</ele><time>2016-06-18T07:34:11.282Z</time></trkpt><trkpt lat="58.09383333" lon="14.20346333"><ele>113.0</ele><time>2016-06-18T07:34:12.311Z</time></trkpt><trkpt lat="58.09393833" lon="14.20355"><ele>114.0</ele><time>2016-06-18T07:34:13.284Z</time></trkpt><trkpt lat="58.09403833" lon="14.20363333"><ele>114.0</ele><time>2016-06-18T07:34:14.321Z</time></trkpt><trkpt lat="58.09403833" lon="14.20363333"><ele>114.0</ele><time>2016-06-18T07:34:15.302Z</time></trkpt><trkpt lat="58.09423" lon="14.20378833"><ele>114.0</ele><time>2016-06-18T07:34:16.309Z</time></trkpt><trkpt lat="58.09432" lon="14.203865"><ele>114.0</ele><time>2016-06-18T07:34:17.318Z</time></trkpt><trkpt lat="58.09432" lon="14.203865"><ele>114.0</ele><time>2016-06-18T07:34:18.288Z</time></trkpt><trkpt lat="58.094505" lon="14.20400667"><ele>114.0</ele><time>2016-06-18T07:34:19.297Z</time></trkpt><trkpt lat="58.094595" lon="14.204075"><ele>114.0</ele><time>2016-06-18T07:34:20.298Z</time></trkpt><trkpt lat="58.094595" lon="14.204075"><ele>114.0</ele><time>2016-06-18T07:34:21.320Z</time></trkpt><trkpt lat="58.09476667" lon="14.20420833"><ele>114.0</ele><time>2016-06-18T07:34:22.287Z</time></trkpt><trkpt lat="58.09484833" lon="14.20427"><ele>114.0</ele><time>2016-06-18T07:34:23.318Z</time></trkpt><trkpt lat="58.09484833" lon="14.20427"><ele>114.0</ele><time>2016-06-18T07:34:24.321Z</time></trkpt><trkpt lat="58.09500667" lon="14.204385"><ele>114.0</ele><time>2016-06-18T07:34:25.288Z</time></trkpt><trkpt lat="58.09509" lon="14.20444833"><ele>113.0</ele><time>2016-06-18T07:34:26.290Z</time></trkpt><trkpt lat="58.09509" lon="14.20444833"><ele>113.0</ele><time>2016-06-18T07:34:27.299Z</time></trkpt><trkpt lat="58.09526167" lon="14.20456833"><ele>113.0</ele><time>2016-06-18T07:34:28.310Z</time></trkpt><trkpt lat="58.09526167" lon="14.20456833"><ele>113.0</ele><time>2016-06-18T07:34:29.290Z</time></trkpt><trkpt lat="58.09543" lon="14.20470667"><ele>114.0</ele><time>2016-06-18T07:34:30.319Z</time></trkpt><trkpt lat="58.09543" lon="14.20470667"><ele>114.0</ele><time>2016-06-18T07:34:31.285Z</time></trkpt><trkpt lat="58.095605" lon="14.20486"><ele>116.0</ele><time>2016-06-18T07:34:32.292Z</time></trkpt><trkpt lat="58.095605" lon="14.20486"><ele>116.0</ele><time>2016-06-18T07:34:33.321Z</time></trkpt><trkpt lat="58.09578333" lon="14.20500833"><ele>116.0</ele><time>2016-06-18T07:34:34.303Z</time></trkpt><trkpt lat="58.09578333" lon="14.20500833"><ele>116.0</ele><time>2016-06-18T07:34:35.301Z</time></trkpt><trkpt lat="58.09596333" lon="14.20514833"><ele>117.0</ele><time>2016-06-18T07:34:36.307Z</time></trkpt><trkpt lat="58.09596333" lon="14.20514833"><ele>117.0</ele><time>2016-06-18T07:34:37.288Z</time></trkpt><trkpt lat="58.09613667" lon="14.20528167"><ele>117.0</ele><time>2016-06-18T07:34:38.297Z</time></trkpt><trkpt lat="58.09613667" lon="14.20528167"><ele>117.0</ele><time>2016-06-18T07:34:39.301Z</time></trkpt><trkpt lat="58.09629833" lon="14.20541667"><ele>118.0</ele><time>2016-06-18T07:34:40.309Z</time></trkpt><trkpt lat="58.09637667" lon="14.20548"><ele>119.0</ele><time>2016-06-18T07:34:41.298Z</time></trkpt><trkpt lat="58.09637667" lon="14.20548"><ele>119.0</ele><time>2016-06-18T07:34:42.318Z</time></trkpt><trkpt lat="58.09652667" lon="14.20560333"><ele>119.0</ele><time>2016-06-18T07:34:43.285Z</time></trkpt><trkpt lat="58.09652667" lon="14.20560333"><ele>119.0</ele><time>2016-06-18T07:34:44.310Z</time></trkpt><trkpt lat="58.09668667" lon="14.205735"><ele>119.0</ele><time>2016-06-18T07:34:45.318Z</time></trkpt><trkpt lat="58.09668667" lon="14.205735"><ele>119.0</ele><time>2016-06-18T07:34:46.298Z</time></trkpt><trkpt lat="58.09684167" lon="14.20585333"><ele>119.0</ele><time>2016-06-18T07:34:47.308Z</time></trkpt><trkpt lat="58.09684167" lon="14.20585333"><ele>119.0</ele><time>2016-06-18T07:34:48.307Z</time></trkpt><trkpt lat="58.09699667" lon="14.20597167"><ele>119.0</ele><time>2016-06-18T07:34:49.314Z</time></trkpt><trkpt lat="58.09707667" lon="14.20603333"><ele>119.0</ele><time>2016-06-18T07:34:50.307Z</time></trkpt><trkpt lat="58.09707667" lon="14.20603333"><ele>119.0</ele><time>2016-06-18T07:34:51.311Z</time></trkpt><trkpt lat="58.09723833" lon="14.206155"><ele>118.0</ele><time>2016-06-18T07:34:52.290Z</time></trkpt><trkpt lat="58.09732333" lon="14.20621333"><ele>119.0</ele><time>2016-06-18T07:34:53.299Z</time></trkpt><trkpt lat="58.09732333" lon="14.20621333"><ele>119.0</ele><time>2016-06-18T07:34:54.290Z</time></trkpt><trkpt lat="58.09749167" lon="14.206325"><ele>119.0</ele><time>2016-06-18T07:34:55.303Z</time></trkpt><trkpt lat="58.09757667" lon="14.20637833"><ele>118.0</ele><time>2016-06-18T07:34:56.299Z</time></trkpt><trkpt lat="58.09757667" lon="14.20637833"><ele>118.0</ele><time>2016-06-18T07:34:57.301Z</time></trkpt><trkpt lat="58.09774667" lon="14.206485"><ele>118.0</ele><time>2016-06-18T07:34:58.308Z</time></trkpt><trkpt lat="58.09774667" lon="14.206485"><ele>118.0</ele><time>2016-06-18T07:34:59.288Z</time></trkpt><trkpt lat="58.097915" lon="14.20659167"><ele>117.0</ele><time>2016-06-18T07:35:00.295Z</time></trkpt><trkpt lat="58.097915" lon="14.20659167"><ele>117.0</ele><time>2016-06-18T07:35:01.306Z</time></trkpt><trkpt lat="58.09808333" lon="14.20669"><ele>117.0</ele><time>2016-06-18T07:35:02.313Z</time></trkpt><trkpt lat="58.09808333" lon="14.20669"><ele>117.0</ele><time>2016-06-18T07:35:03.294Z</time></trkpt><trkpt lat="58.09825333" lon="14.20679333"><ele>117.0</ele><time>2016-06-18T07:35:04.300Z</time></trkpt><trkpt lat="58.09833833" lon="14.20684167"><ele>116.0</ele><time>2016-06-18T07:35:05.317Z</time></trkpt><trkpt lat="58.09833833" lon="14.20684167"><ele>116.0</ele><time>2016-06-18T07:35:06.301Z</time></trkpt><trkpt lat="58.098515" lon="14.20693333"><ele>116.0</ele><time>2016-06-18T07:35:07.298Z</time></trkpt><trkpt lat="58.09860833" lon="14.20698167"><ele>116.0</ele><time>2016-06-18T07:35:08.291Z</time></trkpt><trkpt lat="58.09860833" lon="14.20698167"><ele>116.0</ele><time>2016-06-18T07:35:09.312Z</time></trkpt><trkpt lat="58.09879" lon="14.20707333"><ele>116.0</ele><time>2016-06-18T07:35:10.319Z</time></trkpt><trkpt lat="58.09879" lon="14.20707333"><ele>116.0</ele><time>2016-06-18T07:35:11.300Z</time></trkpt><trkpt lat="58.09898833" lon="14.20716833"><ele>114.0</ele><time>2016-06-18T07:35:12.313Z</time></trkpt><trkpt lat="58.09909833" lon="14.20721833"><ele>114.0</ele><time>2016-06-18T07:35:13.312Z</time></trkpt><trkpt lat="58.09909833" lon="14.20721833"><ele>114.0</ele><time>2016-06-18T07:35:14.295Z</time></trkpt><trkpt lat="58.099315" lon="14.20731667"><ele>114.0</ele><time>2016-06-18T07:35:15.291Z</time></trkpt><trkpt lat="58.099315" lon="14.20731667"><ele>114.0</ele><time>2016-06-18T07:35:16.286Z</time></trkpt><trkpt lat="58.09953833" lon="14.20740667"><ele>114.0</ele><time>2016-06-18T07:35:17.293Z</time></trkpt><trkpt lat="58.09953833" lon="14.20740667"><ele>114.0</ele><time>2016-06-18T07:35:18.315Z</time></trkpt><trkpt lat="58.09977333" lon="14.20749333"><ele>114.0</ele><time>2016-06-18T07:35:19.294Z</time></trkpt><trkpt lat="58.09989333" lon="14.207535"><ele>114.0</ele><time>2016-06-18T07:35:20.291Z</time></trkpt><trkpt lat="58.09989333" lon="14.207535"><ele>114.0</ele><time>2016-06-18T07:35:21.313Z</time></trkpt><trkpt lat="58.10014167" lon="14.207625"><ele>114.0</ele><time>2016-06-18T07:35:22.295Z</time></trkpt><trkpt lat="58.10014167" lon="14.207625"><ele>114.0</ele><time>2016-06-18T07:35:23.320Z</time></trkpt><trkpt lat="58.10039167" lon="14.20770333"><ele>114.0</ele><time>2016-06-18T07:35:24.291Z</time></trkpt><trkpt lat="58.10039167" lon="14.20770333"><ele>114.0</ele><time>2016-06-18T07:35:25.314Z</time></trkpt><trkpt lat="58.10064" lon="14.20775667"><ele>114.0</ele><time>2016-06-18T07:35:26.298Z</time></trkpt><trkpt lat="58.10064" lon="14.20775667"><ele>114.0</ele><time>2016-06-18T07:35:27.315Z</time></trkpt><trkpt lat="58.100885" lon="14.20781167"><ele>113.0</ele><time>2016-06-18T07:35:28.282Z</time></trkpt><trkpt lat="58.100885" lon="14.20781167"><ele>113.0</ele><time>2016-06-18T07:35:29.306Z</time></trkpt><trkpt lat="58.10113833" lon="14.207855"><ele>112.0</ele><time>2016-06-18T07:35:30.298Z</time></trkpt><trkpt lat="58.10113833" lon="14.207855"><ele>112.0</ele><time>2016-06-18T07:35:31.289Z</time></trkpt><trkpt lat="58.10139833" lon="14.20788333"><ele>113.0</ele><time>2016-06-18T07:35:32.300Z</time></trkpt><trkpt lat="58.10139833" lon="14.20788333"><ele>113.0</ele><time>2016-06-18T07:35:33.283Z</time></trkpt><trkpt lat="58.10165833" lon="14.20790333"><ele>112.0</ele><time>2016-06-18T07:35:34.313Z</time></trkpt><trkpt lat="58.10165833" lon="14.20790333"><ele>112.0</ele><time>2016-06-18T07:35:35.295Z</time></trkpt><trkpt lat="58.101915" lon="14.20793"><ele>112.0</ele><time>2016-06-18T07:35:36.303Z</time></trkpt><trkpt lat="58.101915" lon="14.20793"><ele>112.0</ele><time>2016-06-18T07:35:37.286Z</time></trkpt><trkpt lat="58.102165" lon="14.20794667"><ele>112.0</ele><time>2016-06-18T07:35:38.302Z</time></trkpt><trkpt lat="58.102165" lon="14.20794667"><ele>112.0</ele><time>2016-06-18T07:35:39.292Z</time></trkpt><trkpt lat="58.10241833" lon="14.20797333"><ele>112.0</ele><time>2016-06-18T07:35:40.300Z</time></trkpt><trkpt lat="58.10254667" lon="14.20797667"><ele>112.0</ele><time>2016-06-18T07:35:41.282Z</time></trkpt><trkpt lat="58.10254667" lon="14.20797667"><ele>112.0</ele><time>2016-06-18T07:35:42.321Z</time></trkpt><trkpt lat="58.10280667" lon="14.20799167"><ele>111.0</ele><time>2016-06-18T07:35:43.292Z</time></trkpt><trkpt lat="58.10293" lon="14.20800333"><ele>111.0</ele><time>2016-06-18T07:35:44.291Z</time></trkpt><trkpt lat="58.10293" lon="14.20800333"><ele>111.0</ele><time>2016-06-18T07:35:45.284Z</time></trkpt><trkpt lat="58.103185" lon="14.20802667"><ele>111.0</ele><time>2016-06-18T07:35:46.291Z</time></trkpt><trkpt lat="58.103185" lon="14.20802667"><ele>111.0</ele><time>2016-06-18T07:35:47.314Z</time></trkpt><trkpt lat="58.10343167" lon="14.20805167"><ele>110.0</ele><time>2016-06-18T07:35:48.291Z</time></trkpt><trkpt lat="58.10343167" lon="14.20805167"><ele>110.0</ele><time>2016-06-18T07:35:49.308Z</time></trkpt><trkpt lat="58.103675" lon="14.20807"><ele>110.0</ele><time>2016-06-18T07:35:50.315Z</time></trkpt><trkpt lat="58.103675" lon="14.20807"><ele>110.0</ele><time>2016-06-18T07:35:51.318Z</time></trkpt><trkpt lat="58.10391" lon="14.20808333"><ele>110.0</ele><time>2016-06-18T07:35:52.299Z</time></trkpt><trkpt lat="58.10391" lon="14.20808333"><ele>110.0</ele><time>2016-06-18T07:35:53.308Z</time></trkpt><trkpt lat="58.10413833" lon="14.20810167"><ele>109.0</ele><time>2016-06-18T07:35:54.309Z</time></trkpt><trkpt lat="58.10413833" lon="14.20810167"><ele>109.0</ele><time>2016-06-18T07:35:55.285Z</time></trkpt><trkpt lat="58.10437" lon="14.20810833"><ele>109.0</ele><time>2016-06-18T07:35:56.312Z</time></trkpt><trkpt lat="58.10437" lon="14.20810833"><ele>109.0</ele><time>2016-06-18T07:35:57.310Z</time></trkpt><trkpt lat="58.104605" lon="14.20812333"><ele>109.0</ele><time>2016-06-18T07:35:58.317Z</time></trkpt><trkpt lat="58.10472667" lon="14.20813667"><ele>110.0</ele><time>2016-06-18T07:35:59.287Z</time></trkpt><trkpt lat="58.10472667" lon="14.20813667"><ele>110.0</ele><time>2016-06-18T07:36:00.309Z</time></trkpt><trkpt lat="58.10496833" lon="14.208155"><ele>110.0</ele><time>2016-06-18T07:36:01.283Z</time></trkpt><trkpt lat="58.10508333" lon="14.20815833"><ele>109.0</ele><time>2016-06-18T07:36:02.308Z</time></trkpt><trkpt lat="58.10508333" lon="14.20815833"><ele>109.0</ele><time>2016-06-18T07:36:03.286Z</time></trkpt><trkpt lat="58.10531833" lon="14.20815833"><ele>109.0</ele><time>2016-06-18T07:36:04.293Z</time></trkpt><trkpt lat="58.10543667" lon="14.20816"><ele>108.0</ele><time>2016-06-18T07:36:05.298Z</time></trkpt><trkpt lat="58.10543667" lon="14.20816"><ele>108.0</ele><time>2016-06-18T07:36:06.319Z</time></trkpt><trkpt lat="58.10567167" lon="14.20818333"><ele>108.0</ele><time>2016-06-18T07:36:07.285Z</time></trkpt><trkpt lat="58.10567167" lon="14.20818333"><ele>108.0</ele><time>2016-06-18T07:36:08.308Z</time></trkpt><trkpt lat="58.10590833" lon="14.20820833"><ele>108.0</ele><time>2016-06-18T07:36:09.318Z</time></trkpt><trkpt lat="58.10590833" lon="14.20820833"><ele>108.0</ele><time>2016-06-18T07:36:10.310Z</time></trkpt><trkpt lat="58.10614333" lon="14.20823333"><ele>108.0</ele><time>2016-06-18T07:36:11.317Z</time></trkpt><trkpt lat="58.10626167" lon="14.20824333"><ele>108.0</ele><time>2016-06-18T07:36:12.282Z</time></trkpt><trkpt lat="58.10626167" lon="14.20824333"><ele>108.0</ele><time>2016-06-18T07:36:13.306Z</time></trkpt><trkpt lat="58.10650667" lon="14.20825667"><ele>108.0</ele><time>2016-06-18T07:36:14.313Z</time></trkpt><trkpt lat="58.10650667" lon="14.20825667"><ele>108.0</ele><time>2016-06-18T07:36:15.302Z</time></trkpt><trkpt lat="58.10675" lon="14.20828333"><ele>109.0</ele><time>2016-06-18T07:36:16.310Z</time></trkpt><trkpt lat="58.10675" lon="14.20828333"><ele>109.0</ele><time>2016-06-18T07:36:17.291Z</time></trkpt><trkpt lat="58.10698833" lon="14.20829667"><ele>109.0</ele><time>2016-06-18T07:36:18.303Z</time></trkpt><trkpt lat="58.10698833" lon="14.20829667"><ele>109.0</ele><time>2016-06-18T07:36:19.285Z</time></trkpt><trkpt lat="58.10721667" lon="14.20831"><ele>109.0</ele><time>2016-06-18T07:36:20.314Z</time></trkpt><trkpt lat="58.10721667" lon="14.20831"><ele>109.0</ele><time>2016-06-18T07:36:21.308Z</time></trkpt><trkpt lat="58.107445" lon="14.20832833"><ele>108.0</ele><time>2016-06-18T07:36:22.315Z</time></trkpt><trkpt lat="58.107445" lon="14.20832833"><ele>108.0</ele><time>2016-06-18T07:36:23.302Z</time></trkpt><trkpt lat="58.107675" lon="14.208345"><ele>108.0</ele><time>2016-06-18T07:36:24.319Z</time></trkpt><trkpt lat="58.107675" lon="14.208345"><ele>108.0</ele><time>2016-06-18T07:36:25.313Z</time></trkpt><trkpt lat="58.10790333" lon="14.20837333"><ele>109.0</ele><time>2016-06-18T07:36:26.319Z</time></trkpt><trkpt lat="58.10790333" lon="14.20837333"><ele>109.0</ele><time>2016-06-18T07:36:27.302Z</time></trkpt><trkpt lat="58.10811833" lon="14.20838667"><ele>109.0</ele><time>2016-06-18T07:36:28.289Z</time></trkpt><trkpt lat="58.10811833" lon="14.20838667"><ele>109.0</ele><time>2016-06-18T07:36:29.321Z</time></trkpt><trkpt lat="58.108345" lon="14.20839333"><ele>109.0</ele><time>2016-06-18T07:36:30.288Z</time></trkpt><trkpt lat="58.108345" lon="14.20839333"><ele>109.0</ele><time>2016-06-18T07:36:31.299Z</time></trkpt><trkpt lat="58.10857333" lon="14.20841333"><ele>111.0</ele><time>2016-06-18T07:36:32.307Z</time></trkpt><trkpt lat="58.10857333" lon="14.20841333"><ele>111.0</ele><time>2016-06-18T07:36:33.289Z</time></trkpt><trkpt lat="58.108805" lon="14.20845333"><ele>113.0</ele><time>2016-06-18T07:36:34.300Z</time></trkpt><trkpt lat="58.108805" lon="14.20845333"><ele>113.0</ele><time>2016-06-18T07:36:35.319Z</time></trkpt><trkpt lat="58.109035" lon="14.20847333"><ele>113.0</ele><time>2016-06-18T07:36:36.285Z</time></trkpt><trkpt lat="58.10915" lon="14.20848"><ele>114.0</ele><time>2016-06-18T07:36:37.327Z</time></trkpt><trkpt lat="58.10926" lon="14.208485"><ele>114.0</ele><time>2016-06-18T07:36:38.295Z</time></trkpt><trkpt lat="58.10926" lon="14.208485"><ele>114.0</ele><time>2016-06-18T07:36:39.319Z</time></trkpt><trkpt lat="58.10947333" lon="14.20850667"><ele>115.0</ele><time>2016-06-18T07:36:40.310Z</time></trkpt><trkpt lat="58.10947333" lon="14.20850667"><ele>115.0</ele><time>2016-06-18T07:36:41.302Z</time></trkpt><trkpt lat="58.109675" lon="14.208525"><ele>116.0</ele><time>2016-06-18T07:36:42.310Z</time></trkpt><trkpt lat="58.109675" lon="14.208525"><ele>116.0</ele><time>2016-06-18T07:36:43.319Z</time></trkpt><trkpt lat="58.10987667" lon="14.20855667"><ele>118.0</ele><time>2016-06-18T07:36:44.299Z</time></trkpt><trkpt lat="58.10987667" lon="14.20855667"><ele>118.0</ele><time>2016-06-18T07:36:45.289Z</time></trkpt><trkpt lat="58.11005667" lon="14.20858167"><ele>121.0</ele><time>2016-06-18T07:36:46.297Z</time></trkpt><trkpt lat="58.11014667" lon="14.20859167"><ele>122.0</ele><time>2016-06-18T07:36:47.288Z</time></trkpt><trkpt lat="58.11014667" lon="14.20859167"><ele>122.0</ele><time>2016-06-18T07:36:48.285Z</time></trkpt><trkpt lat="58.11033167" lon="14.20861833"><ele>122.0</ele><time>2016-06-18T07:36:49.298Z</time></trkpt><trkpt lat="58.11043" lon="14.20863667"><ele>121.0</ele><time>2016-06-18T07:36:50.293Z</time></trkpt><trkpt lat="58.11052833" lon="14.20864667"><ele>120.0</ele><time>2016-06-18T07:36:51.290Z</time></trkpt><trkpt lat="58.11052833" lon="14.20864667"><ele>120.0</ele><time>2016-06-18T07:36:52.314Z</time></trkpt><trkpt lat="58.110725" lon="14.208675"><ele>119.0</ele><time>2016-06-18T07:36:53.284Z</time></trkpt><trkpt lat="58.110725" lon="14.208675"><ele>119.0</ele><time>2016-06-18T07:36:54.307Z</time></trkpt><trkpt lat="58.11092833" lon="14.20870667"><ele>118.0</ele><time>2016-06-18T07:36:55.318Z</time></trkpt><trkpt lat="58.111025" lon="14.20872833"><ele>118.0</ele><time>2016-06-18T07:36:56.321Z</time></trkpt><trkpt lat="58.111025" lon="14.20872833"><ele>118.0</ele><time>2016-06-18T07:36:57.303Z</time></trkpt><trkpt lat="58.11120333" lon="14.20877333"><ele>117.0</ele><time>2016-06-18T07:36:58.311Z</time></trkpt><trkpt lat="58.11129" lon="14.20879833"><ele>117.0</ele><time>2016-06-18T07:36:59.294Z</time></trkpt><trkpt lat="58.11129" lon="14.20879833"><ele>117.0</ele><time>2016-06-18T07:37:00.298Z</time></trkpt><trkpt lat="58.11145333" lon="14.20882833"><ele>118.0</ele><time>2016-06-18T07:37:01.316Z</time></trkpt><trkpt lat="58.111535" lon="14.20884333"><ele>117.0</ele><time>2016-06-18T07:37:02.298Z</time></trkpt><trkpt lat="58.111535" lon="14.20884333"><ele>117.0</ele><time>2016-06-18T07:37:03.321Z</time></trkpt><trkpt lat="58.111705" lon="14.20888167"><ele>117.0</ele><time>2016-06-18T07:37:04.290Z</time></trkpt><trkpt lat="58.111705" lon="14.20888167"><ele>117.0</ele><time>2016-06-18T07:37:05.289Z</time></trkpt><trkpt lat="58.11188833" lon="14.20894667"><ele>119.0</ele><time>2016-06-18T07:37:06.298Z</time></trkpt><trkpt lat="58.11188833" lon="14.20894667"><ele>119.0</ele><time>2016-06-18T07:37:07.318Z</time></trkpt><trkpt lat="58.11206833" lon="14.20900333"><ele>118.0</ele><time>2016-06-18T07:37:08.292Z</time></trkpt><trkpt lat="58.11206833" lon="14.20900333"><ele>118.0</ele><time>2016-06-18T07:37:09.316Z</time></trkpt><trkpt lat="58.11224333" lon="14.20906167"><ele>116.0</ele><time>2016-06-18T07:37:10.288Z</time></trkpt><trkpt lat="58.11224333" lon="14.20906167"><ele>116.0</ele><time>2016-06-18T07:37:11.299Z</time></trkpt><trkpt lat="58.11241833" lon="14.20912167"><ele>115.0</ele><time>2016-06-18T07:37:12.315Z</time></trkpt><trkpt lat="58.112505" lon="14.20915"><ele>115.0</ele><time>2016-06-18T07:37:13.307Z</time></trkpt><trkpt lat="58.11258833" lon="14.20918"><ele>114.0</ele><time>2016-06-18T07:37:14.292Z</time></trkpt><trkpt lat="58.11258833" lon="14.20918"><ele>114.0</ele><time>2016-06-18T07:37:15.314Z</time></trkpt><trkpt lat="58.112755" lon="14.20923833"><ele>113.0</ele><time>2016-06-18T07:37:16.283Z</time></trkpt><trkpt lat="58.11283833" lon="14.20926833"><ele>113.0</ele><time>2016-06-18T07:37:17.308Z</time></trkpt><trkpt lat="58.11283833" lon="14.20926833"><ele>113.0</ele><time>2016-06-18T07:37:18.287Z</time></trkpt><trkpt lat="58.11300333" lon="14.20933333"><ele>111.0</ele><time>2016-06-18T07:37:19.304Z</time></trkpt><trkpt lat="58.11308833" lon="14.20937167"><ele>111.0</ele><time>2016-06-18T07:37:20.298Z</time></trkpt><trkpt lat="58.11308833" lon="14.20937167"><ele>111.0</ele><time>2016-06-18T07:37:21.318Z</time></trkpt><trkpt lat="58.11325833" lon="14.20945167"><ele>111.0</ele><time>2016-06-18T07:37:22.286Z</time></trkpt><trkpt lat="58.11334333" lon="14.209495"><ele>111.0</ele><time>2016-06-18T07:37:23.322Z</time></trkpt><trkpt lat="58.11334333" lon="14.209495"><ele>111.0</ele><time>2016-06-18T07:37:24.317Z</time></trkpt><trkpt lat="58.11350833" lon="14.20957667"><ele>111.0</ele><time>2016-06-18T07:37:25.292Z</time></trkpt><trkpt lat="58.11359333" lon="14.20962167"><ele>112.0</ele><time>2016-06-18T07:37:26.298Z</time></trkpt><trkpt lat="58.11359333" lon="14.20962167"><ele>112.0</ele><time>2016-06-18T07:37:27.310Z</time></trkpt><trkpt lat="58.11376833" lon="14.20971167"><ele>112.0</ele><time>2016-06-18T07:37:28.317Z</time></trkpt><trkpt lat="58.113855" lon="14.20976"><ele>112.0</ele><time>2016-06-18T07:37:29.308Z</time></trkpt><trkpt lat="58.11394167" lon="14.20980667"><ele>112.0</ele><time>2016-06-18T07:37:30.285Z</time></trkpt><trkpt lat="58.11394167" lon="14.20980667"><ele>112.0</ele><time>2016-06-18T07:37:31.302Z</time></trkpt><trkpt lat="58.11410667" lon="14.20989333"><ele>112.0</ele><time>2016-06-18T07:37:32.313Z</time></trkpt><trkpt lat="58.11410667" lon="14.20989333"><ele>112.0</ele><time>2016-06-18T07:37:33.316Z</time></trkpt><trkpt lat="58.11426333" lon="14.20997833"><ele>112.0</ele><time>2016-06-18T07:37:34.283Z</time></trkpt><trkpt lat="58.11433833" lon="14.21002"><ele>112.0</ele><time>2016-06-18T07:37:35.288Z</time></trkpt><trkpt lat="58.11433833" lon="14.21002"><ele>112.0</ele><time>2016-06-18T07:37:36.284Z</time></trkpt><trkpt lat="58.11448667" lon="14.21012"><ele>112.0</ele><time>2016-06-18T07:37:37.290Z</time></trkpt><trkpt lat="58.114565" lon="14.21017"><ele>112.0</ele><time>2016-06-18T07:37:38.314Z</time></trkpt><trkpt lat="58.114565" lon="14.21017"><ele>112.0</ele><time>2016-06-18T07:37:39.290Z</time></trkpt><trkpt lat="58.11471667" lon="14.21026333"><ele>112.0</ele><time>2016-06-18T07:37:40.299Z</time></trkpt><trkpt lat="58.11471667" lon="14.21026333"><ele>112.0</ele><time>2016-06-18T07:37:41.302Z</time></trkpt><trkpt lat="58.11487833" lon="14.210365"><ele>112.0</ele><time>2016-06-18T07:37:42.313Z</time></trkpt><trkpt lat="58.11487833" lon="14.210365"><ele>112.0</ele><time>2016-06-18T07:37:43.294Z</time></trkpt><trkpt lat="58.11505" lon="14.21047667"><ele>112.0</ele><time>2016-06-18T07:37:44.303Z</time></trkpt><trkpt lat="58.11505" lon="14.21047667"><ele>112.0</ele><time>2016-06-18T07:37:45.310Z</time></trkpt><trkpt lat="58.115225" lon="14.21059833"><ele>112.0</ele><time>2016-06-18T07:37:46.316Z</time></trkpt><trkpt lat="58.115225" lon="14.21059833"><ele>112.0</ele><time>2016-06-18T07:37:47.301Z</time></trkpt><trkpt lat="58.11540333" lon="14.21072667"><ele>112.0</ele><time>2016-06-18T07:37:48.300Z</time></trkpt><trkpt lat="58.11540333" lon="14.21072667"><ele>112.0</ele><time>2016-06-18T07:37:49.298Z</time></trkpt><trkpt lat="58.11558333" lon="14.21085833"><ele>112.0</ele><time>2016-06-18T07:37:50.306Z</time></trkpt><trkpt lat="58.11558333" lon="14.21085833"><ele>112.0</ele><time>2016-06-18T07:37:51.310Z</time></trkpt><trkpt lat="58.11576333" lon="14.21098667"><ele>112.0</ele><time>2016-06-18T07:37:52.300Z</time></trkpt><trkpt lat="58.11576333" lon="14.21098667"><ele>112.0</ele><time>2016-06-18T07:37:53.310Z</time></trkpt><trkpt lat="58.115935" lon="14.21111"><ele>112.0</ele><time>2016-06-18T07:37:54.317Z</time></trkpt><trkpt lat="58.115935" lon="14.21111"><ele>112.0</ele><time>2016-06-18T07:37:55.301Z</time></trkpt><trkpt lat="58.116095" lon="14.21123833"><ele>112.0</ele><time>2016-06-18T07:37:56.312Z</time></trkpt><trkpt lat="58.116095" lon="14.21123833"><ele>112.0</ele><time>2016-06-18T07:37:57.303Z</time></trkpt><trkpt lat="58.116255" lon="14.211365"><ele>111.0</ele><time>2016-06-18T07:37:58.309Z</time></trkpt><trkpt lat="58.11633833" lon="14.21143167"><ele>111.0</ele><time>2016-06-18T07:37:59.291Z</time></trkpt><trkpt lat="58.11633833" lon="14.21143167"><ele>111.0</ele><time>2016-06-18T07:38:00.313Z</time></trkpt><trkpt lat="58.11650833" lon="14.211565"><ele>110.0</ele><time>2016-06-18T07:38:01.318Z</time></trkpt><trkpt lat="58.11650833" lon="14.211565"><ele>110.0</ele><time>2016-06-18T07:38:02.304Z</time></trkpt><trkpt lat="58.11668833" lon="14.21172333"><ele>110.0</ele><time>2016-06-18T07:38:03.284Z</time></trkpt><trkpt lat="58.11668833" lon="14.21172333"><ele>110.0</ele><time>2016-06-18T07:38:04.308Z</time></trkpt><trkpt lat="58.11686333" lon="14.21188167"><ele>110.0</ele><time>2016-06-18T07:38:05.316Z</time></trkpt><trkpt lat="58.11686333" lon="14.21188167"><ele>110.0</ele><time>2016-06-18T07:38:06.292Z</time></trkpt><trkpt lat="58.11703833" lon="14.212045"><ele>110.0</ele><time>2016-06-18T07:38:07.305Z</time></trkpt><trkpt lat="58.117125" lon="14.21212833"><ele>110.0</ele><time>2016-06-18T07:38:08.298Z</time></trkpt><trkpt lat="58.117125" lon="14.21212833"><ele>110.0</ele><time>2016-06-18T07:38:09.320Z</time></trkpt><trkpt lat="58.11729167" lon="14.21228833"><ele>109.0</ele><time>2016-06-18T07:38:10.286Z</time></trkpt><trkpt lat="58.11729167" lon="14.21228833"><ele>109.0</ele><time>2016-06-18T07:38:11.309Z</time></trkpt><trkpt lat="58.11744667" lon="14.21243167"><ele>109.0</ele><time>2016-06-18T07:38:12.286Z</time></trkpt><trkpt lat="58.11744667" lon="14.21243167"><ele>109.0</ele><time>2016-06-18T07:38:13.307Z</time></trkpt><trkpt lat="58.11759667" lon="14.21257833"><ele>109.0</ele><time>2016-06-18T07:38:14.315Z</time></trkpt><trkpt lat="58.11759667" lon="14.21257833"><ele>109.0</ele><time>2016-06-18T07:38:15.300Z</time></trkpt><trkpt lat="58.11773167" lon="14.21272167"><ele>108.0</ele><time>2016-06-18T07:38:16.282Z</time></trkpt><trkpt lat="58.11773167" lon="14.21272167"><ele>108.0</ele><time>2016-06-18T07:38:17.283Z</time></trkpt><trkpt lat="58.11788167" lon="14.21288167"><ele>108.0</ele><time>2016-06-18T07:38:18.284Z</time></trkpt><trkpt lat="58.11788167" lon="14.21288167"><ele>108.0</ele><time>2016-06-18T07:38:19.307Z</time></trkpt><trkpt lat="58.118045" lon="14.21305"><ele>108.0</ele><time>2016-06-18T07:38:20.314Z</time></trkpt><trkpt lat="58.118045" lon="14.21305"><ele>108.0</ele><time>2016-06-18T07:38:21.284Z</time></trkpt><trkpt lat="58.118215" lon="14.21321833"><ele>108.0</ele><time>2016-06-18T07:38:22.291Z</time></trkpt><trkpt lat="58.11829" lon="14.21329"><ele>108.0</ele><time>2016-06-18T07:38:23.288Z</time></trkpt><trkpt lat="58.11829" lon="14.21329"><ele>108.0</ele><time>2016-06-18T07:38:24.301Z</time></trkpt><trkpt lat="58.118455" lon="14.21347167"><ele>108.0</ele><time>2016-06-18T07:38:25.308Z</time></trkpt><trkpt lat="58.11853833" lon="14.21357"><ele>108.0</ele><time>2016-06-18T07:38:26.304Z</time></trkpt><trkpt lat="58.11853833" lon="14.21357"><ele>108.0</ele><time>2016-06-18T07:38:27.320Z</time></trkpt><trkpt lat="58.11871" lon="14.21376167"><ele>109.0</ele><time>2016-06-18T07:38:28.287Z</time></trkpt><trkpt lat="58.11871" lon="14.21376167"><ele>109.0</ele><time>2016-06-18T07:38:29.310Z</time></trkpt><trkpt lat="58.11888167" lon="14.21395167"><ele>110.0</ele><time>2016-06-18T07:38:30.321Z</time></trkpt><trkpt lat="58.11888167" lon="14.21395167"><ele>110.0</ele><time>2016-06-18T07:38:31.306Z</time></trkpt><trkpt lat="58.11905333" lon="14.214125"><ele>110.0</ele><time>2016-06-18T07:38:32.317Z</time></trkpt><trkpt lat="58.11905333" lon="14.214125"><ele>110.0</ele><time>2016-06-18T07:38:33.301Z</time></trkpt><trkpt lat="58.11922" lon="14.2143"><ele>111.0</ele><time>2016-06-18T07:38:34.308Z</time></trkpt><trkpt lat="58.11922" lon="14.2143"><ele>111.0</ele><time>2016-06-18T07:38:35.318Z</time></trkpt><trkpt lat="58.11938333" lon="14.214475"><ele>112.0</ele><time>2016-06-18T07:38:36.298Z</time></trkpt><trkpt lat="58.11938333" lon="14.214475"><ele>112.0</ele><time>2016-06-18T07:38:37.287Z</time></trkpt><trkpt lat="58.11953833" lon="14.21463833"><ele>112.0</ele><time>2016-06-18T07:38:38.294Z</time></trkpt><trkpt lat="58.11953833" lon="14.21463833"><ele>112.0</ele><time>2016-06-18T07:38:39.318Z</time></trkpt><trkpt lat="58.11968833" lon="14.21479667"><ele>113.0</ele><time>2016-06-18T07:38:40.311Z</time></trkpt><trkpt lat="58.11968833" lon="14.21479667"><ele>113.0</ele><time>2016-06-18T07:38:41.314Z</time></trkpt><trkpt lat="58.11983333" lon="14.21494"><ele>113.0</ele><time>2016-06-18T07:38:42.320Z</time></trkpt><trkpt lat="58.11983333" lon="14.21494"><ele>113.0</ele><time>2016-06-18T07:38:43.303Z</time></trkpt><trkpt lat="58.119975" lon="14.215085"><ele>113.0</ele><time>2016-06-18T07:38:44.300Z</time></trkpt><trkpt lat="58.119975" lon="14.215085"><ele>113.0</ele><time>2016-06-18T07:38:45.321Z</time></trkpt><trkpt lat="58.12011" lon="14.21523167"><ele>114.0</ele><time>2016-06-18T07:38:46.288Z</time></trkpt><trkpt lat="58.12018" lon="14.21530167"><ele>114.0</ele><time>2016-06-18T07:38:47.308Z</time></trkpt><trkpt lat="58.12018" lon="14.21530167"><ele>114.0</ele><time>2016-06-18T07:38:48.304Z</time></trkpt><trkpt lat="58.12032167" lon="14.21543333"><ele>114.0</ele><time>2016-06-18T07:38:49.312Z</time></trkpt><trkpt lat="58.12039" lon="14.2155"><ele>113.0</ele><time>2016-06-18T07:38:50.300Z</time></trkpt><trkpt lat="58.12039" lon="14.2155"><ele>113.0</ele><time>2016-06-18T07:38:51.304Z</time></trkpt><trkpt lat="58.12053" lon="14.215635"><ele>113.0</ele><time>2016-06-18T07:38:52.311Z</time></trkpt><trkpt lat="58.12059833" lon="14.21570167"><ele>114.0</ele><time>2016-06-18T07:38:53.294Z</time></trkpt><trkpt lat="58.12059833" lon="14.21570167"><ele>114.0</ele><time>2016-06-18T07:38:54.315Z</time></trkpt><trkpt lat="58.120735" lon="14.21582833"><ele>114.0</ele><time>2016-06-18T07:38:55.295Z</time></trkpt><trkpt lat="58.120735" lon="14.21582833"><ele>114.0</ele><time>2016-06-18T07:38:56.319Z</time></trkpt><trkpt lat="58.12087" lon="14.21595167"><ele>114.0</ele><time>2016-06-18T07:38:57.308Z</time></trkpt><trkpt lat="58.12087" lon="14.21595167"><ele>114.0</ele><time>2016-06-18T07:38:58.288Z</time></trkpt><trkpt lat="58.12099833" lon="14.21606833"><ele>115.0</ele><time>2016-06-18T07:38:59.295Z</time></trkpt><trkpt lat="58.12106167" lon="14.216125"><ele>115.0</ele><time>2016-06-18T07:39:00.282Z</time></trkpt><trkpt lat="58.12106167" lon="14.216125"><ele>115.0</ele><time>2016-06-18T07:39:01.305Z</time></trkpt><trkpt lat="58.12118167" lon="14.21624333"><ele>116.0</ele><time>2016-06-18T07:39:02.311Z</time></trkpt><trkpt lat="58.12118167" lon="14.21624333"><ele>116.0</ele><time>2016-06-18T07:39:03.293Z</time></trkpt><trkpt lat="58.121305" lon="14.21634833"><ele>117.0</ele><time>2016-06-18T07:39:04.317Z</time></trkpt><trkpt lat="58.121305" lon="14.21634833"><ele>117.0</ele><time>2016-06-18T07:39:05.312Z</time></trkpt><trkpt lat="58.12142167" lon="14.21645333"><ele>118.0</ele><time>2016-06-18T07:39:06.282Z</time></trkpt><trkpt lat="58.12148333" lon="14.21650667"><ele>119.0</ele><time>2016-06-18T07:39:07.318Z</time></trkpt><trkpt lat="58.12155" lon="14.216555"><ele>119.0</ele><time>2016-06-18T07:39:08.300Z</time></trkpt><trkpt lat="58.12155" lon="14.216555"><ele>119.0</ele><time>2016-06-18T07:39:09.308Z</time></trkpt><trkpt lat="58.121685" lon="14.21666"><ele>119.0</ele><time>2016-06-18T07:39:10.317Z</time></trkpt><trkpt lat="58.121685" lon="14.21666"><ele>119.0</ele><time>2016-06-18T07:39:11.317Z</time></trkpt><trkpt lat="58.121825" lon="14.21677"><ele>120.0</ele><time>2016-06-18T07:39:12.287Z</time></trkpt><trkpt lat="58.121825" lon="14.21677"><ele>120.0</ele><time>2016-06-18T07:39:13.311Z</time></trkpt><trkpt lat="58.12196833" lon="14.21688"><ele>120.0</ele><time>2016-06-18T07:39:14.282Z</time></trkpt><trkpt lat="58.12196833" lon="14.21688"><ele>120.0</ele><time>2016-06-18T07:39:15.291Z</time></trkpt><trkpt lat="58.12211333" lon="14.21699167"><ele>121.0</ele><time>2016-06-18T07:39:16.307Z</time></trkpt><trkpt lat="58.12211333" lon="14.21699167"><ele>121.0</ele><time>2016-06-18T07:39:17.291Z</time></trkpt><trkpt lat="58.12225833" lon="14.21710167"><ele>123.0</ele><time>2016-06-18T07:39:18.285Z</time></trkpt><trkpt lat="58.12225833" lon="14.21710167"><ele>123.0</ele><time>2016-06-18T07:39:19.321Z</time></trkpt><trkpt lat="58.12239667" lon="14.21719"><ele>123.0</ele><time>2016-06-18T07:39:20.293Z</time></trkpt><trkpt lat="58.12239667" lon="14.21719"><ele>123.0</ele><time>2016-06-18T07:39:21.306Z</time></trkpt><trkpt lat="58.12254167" lon="14.21729167"><ele>124.0</ele><time>2016-06-18T07:39:22.313Z</time></trkpt><trkpt lat="58.12261667" lon="14.21733333"><ele>124.0</ele><time>2016-06-18T07:39:23.294Z</time></trkpt><trkpt lat="58.12268833" lon="14.217375"><ele>124.0</ele><time>2016-06-18T07:39:24.300Z</time></trkpt><trkpt lat="58.12268833" lon="14.217375"><ele>124.0</ele><time>2016-06-18T07:39:25.294Z</time></trkpt><trkpt lat="58.12283167" lon="14.21746667"><ele>123.0</ele><time>2016-06-18T07:39:26.310Z</time></trkpt><trkpt lat="58.12283167" lon="14.21746667"><ele>123.0</ele><time>2016-06-18T07:39:27.287Z</time></trkpt><trkpt lat="58.12299167" lon="14.21756667"><ele>123.0</ele><time>2016-06-18T07:39:28.300Z</time></trkpt><trkpt lat="58.12299167" lon="14.21756667"><ele>123.0</ele><time>2016-06-18T07:39:29.313Z</time></trkpt><trkpt lat="58.12316333" lon="14.21767"><ele>124.0</ele><time>2016-06-18T07:39:30.319Z</time></trkpt><trkpt lat="58.12324" lon="14.21771667"><ele>124.0</ele><time>2016-06-18T07:39:31.286Z</time></trkpt><trkpt lat="58.12324" lon="14.21771667"><ele>124.0</ele><time>2016-06-18T07:39:32.303Z</time></trkpt><trkpt lat="58.12339333" lon="14.21780833"><ele>124.0</ele><time>2016-06-18T07:39:33.295Z</time></trkpt><trkpt lat="58.12339333" lon="14.21780833"><ele>124.0</ele><time>2016-06-18T07:39:34.317Z</time></trkpt><trkpt lat="58.12354833" lon="14.21789333"><ele>125.0</ele><time>2016-06-18T07:39:35.317Z</time></trkpt><trkpt lat="58.12354833" lon="14.21789333"><ele>125.0</ele><time>2016-06-18T07:39:36.283Z</time></trkpt><trkpt lat="58.12372" lon="14.21798667"><ele>125.0</ele><time>2016-06-18T07:39:37.288Z</time></trkpt><trkpt lat="58.12380667" lon="14.21802833"><ele>126.0</ele><time>2016-06-18T07:39:38.309Z</time></trkpt><trkpt lat="58.12380667" lon="14.21802833"><ele>126.0</ele><time>2016-06-18T07:39:39.310Z</time></trkpt><trkpt lat="58.12398" lon="14.21811333"><ele>126.0</ele><time>2016-06-18T07:39:40.318Z</time></trkpt><trkpt lat="58.12398" lon="14.21811333"><ele>126.0</ele><time>2016-06-18T07:39:41.309Z</time></trkpt><trkpt lat="58.12415667" lon="14.21820333"><ele>126.0</ele><time>2016-06-18T07:39:42.314Z</time></trkpt><trkpt lat="58.12415667" lon="14.21820333"><ele>126.0</ele><time>2016-06-18T07:39:43.298Z</time></trkpt><trkpt lat="58.12433" lon="14.21829"><ele>127.0</ele><time>2016-06-18T07:39:44.307Z</time></trkpt><trkpt lat="58.12441667" lon="14.21832833"><ele>127.0</ele><time>2016-06-18T07:39:45.292Z</time></trkpt><trkpt lat="58.12441667" lon="14.21832833"><ele>127.0</ele><time>2016-06-18T07:39:46.306Z</time></trkpt><trkpt lat="58.12459167" lon="14.21840833"><ele>128.0</ele><time>2016-06-18T07:39:47.285Z</time></trkpt><trkpt lat="58.12467833" lon="14.218445"><ele>128.0</ele><time>2016-06-18T07:39:48.287Z</time></trkpt><trkpt lat="58.12467833" lon="14.218445"><ele>128.0</ele><time>2016-06-18T07:39:49.292Z</time></trkpt><trkpt lat="58.124855" lon="14.21851667"><ele>128.0</ele><time>2016-06-18T07:39:50.305Z</time></trkpt><trkpt lat="58.124855" lon="14.21851667"><ele>128.0</ele><time>2016-06-18T07:39:51.289Z</time></trkpt><trkpt lat="58.12502833" lon="14.21857833"><ele>128.0</ele><time>2016-06-18T07:39:52.300Z</time></trkpt><trkpt lat="58.12502833" lon="14.21857833"><ele>128.0</ele><time>2016-06-18T07:39:53.305Z</time></trkpt><trkpt lat="58.12519167" lon="14.21863667"><ele>127.0</ele><time>2016-06-18T07:39:54.312Z</time></trkpt><trkpt lat="58.12527" lon="14.21866"><ele>126.0</ele><time>2016-06-18T07:39:55.308Z</time></trkpt><trkpt lat="58.12535" lon="14.218685"><ele>125.0</ele><time>2016-06-18T07:39:56.292Z</time></trkpt><trkpt lat="58.12535" lon="14.218685"><ele>125.0</ele><time>2016-06-18T07:39:57.319Z</time></trkpt><trkpt lat="58.12551" lon="14.21874667"><ele>125.0</ele><time>2016-06-18T07:39:58.285Z</time></trkpt><trkpt lat="58.12551" lon="14.21874667"><ele>125.0</ele><time>2016-06-18T07:39:59.308Z</time></trkpt><trkpt lat="58.12566667" lon="14.21880667"><ele>124.0</ele><time>2016-06-18T07:40:00.317Z</time></trkpt><trkpt lat="58.12574667" lon="14.21883167"><ele>123.0</ele><time>2016-06-18T07:40:01.308Z</time></trkpt><trkpt lat="58.12574667" lon="14.21883167"><ele>123.0</ele><time>2016-06-18T07:40:02.306Z</time></trkpt><trkpt lat="58.125905" lon="14.218885"><ele>123.0</ele><time>2016-06-18T07:40:03.315Z</time></trkpt><trkpt lat="58.125905" lon="14.218885"><ele>123.0</ele><time>2016-06-18T07:40:04.302Z</time></trkpt><trkpt lat="58.12606833" lon="14.21892667"><ele>123.0</ele><time>2016-06-18T07:40:05.300Z</time></trkpt><trkpt lat="58.12606833" lon="14.21892667"><ele>123.0</ele><time>2016-06-18T07:40:06.302Z</time></trkpt><trkpt lat="58.12623167" lon="14.218975"><ele>122.0</ele><time>2016-06-18T07:40:07.309Z</time></trkpt><trkpt lat="58.12631833" lon="14.219"><ele>122.0</ele><time>2016-06-18T07:40:08.298Z</time></trkpt><trkpt lat="58.12631833" lon="14.219"><ele>122.0</ele><time>2016-06-18T07:40:09.310Z</time></trkpt><trkpt lat="58.12648833" lon="14.21903833"><ele>121.0</ele><time>2016-06-18T07:40:10.316Z</time></trkpt><trkpt lat="58.12648833" lon="14.21903833"><ele>121.0</ele><time>2016-06-18T07:40:11.309Z</time></trkpt><trkpt lat="58.12666167" lon="14.219075"><ele>121.0</ele><time>2016-06-18T07:40:12.284Z</time></trkpt><trkpt lat="58.12666167" lon="14.219075"><ele>121.0</ele><time>2016-06-18T07:40:13.309Z</time></trkpt><trkpt lat="58.12683667" lon="14.21911167"><ele>122.0</ele><time>2016-06-18T07:40:14.310Z</time></trkpt><trkpt lat="58.12683667" lon="14.21911167"><ele>122.0</ele><time>2016-06-18T07:40:15.295Z</time></trkpt><trkpt lat="58.12701167" lon="14.219145"><ele>122.0</ele><time>2016-06-18T07:40:16.302Z</time></trkpt><trkpt lat="58.12701167" lon="14.219145"><ele>122.0</ele><time>2016-06-18T07:40:17.311Z</time></trkpt><trkpt lat="58.12719833" lon="14.21917"><ele>122.0</ele><time>2016-06-18T07:40:18.308Z</time></trkpt><trkpt lat="58.12719833" lon="14.21917"><ele>122.0</ele><time>2016-06-18T07:40:19.302Z</time></trkpt><trkpt lat="58.127385" lon="14.219195"><ele>121.0</ele><time>2016-06-18T07:40:20.315Z</time></trkpt><trkpt lat="58.12748" lon="14.21920333"><ele>121.0</ele><time>2016-06-18T07:40:21.315Z</time></trkpt><trkpt lat="58.12748" lon="14.21920333"><ele>121.0</ele><time>2016-06-18T07:40:22.307Z</time></trkpt><trkpt lat="58.12767167" lon="14.21923"><ele>122.0</ele><time>2016-06-18T07:40:23.314Z</time></trkpt><trkpt lat="58.12767167" lon="14.21923"><ele>122.0</ele><time>2016-06-18T07:40:24.297Z</time></trkpt><trkpt lat="58.12786167" lon="14.21925333"><ele>122.0</ele><time>2016-06-18T07:40:25.317Z</time></trkpt><trkpt lat="58.12786167" lon="14.21925333"><ele>122.0</ele><time>2016-06-18T07:40:26.309Z</time></trkpt><trkpt lat="58.12806" lon="14.21927833"><ele>122.0</ele><time>2016-06-18T07:40:27.315Z</time></trkpt><trkpt lat="58.12816" lon="14.21928667"><ele>122.0</ele><time>2016-06-18T07:40:28.300Z</time></trkpt><trkpt lat="58.12816" lon="14.21928667"><ele>122.0</ele><time>2016-06-18T07:40:29.286Z</time></trkpt><trkpt lat="58.12836333" lon="14.21930667"><ele>122.0</ele><time>2016-06-18T07:40:30.299Z</time></trkpt><trkpt lat="58.128465" lon="14.21931667"><ele>122.0</ele><time>2016-06-18T07:40:31.324Z</time></trkpt><trkpt lat="58.128465" lon="14.21931667"><ele>122.0</ele><time>2016-06-18T07:40:32.311Z</time></trkpt><trkpt lat="58.12866333" lon="14.21933167"><ele>122.0</ele><time>2016-06-18T07:40:33.318Z</time></trkpt><trkpt lat="58.12866333" lon="14.21933167"><ele>122.0</ele><time>2016-06-18T07:40:34.299Z</time></trkpt><trkpt lat="58.12885333" lon="14.21934333"><ele>121.0</ele><time>2016-06-18T07:40:35.309Z</time></trkpt><trkpt lat="58.12885333" lon="14.21934333"><ele>121.0</ele><time>2016-06-18T07:40:36.300Z</time></trkpt><trkpt lat="58.12904167" lon="14.219355"><ele>121.0</ele><time>2016-06-18T07:40:37.307Z</time></trkpt><trkpt lat="58.12913333" lon="14.21935833"><ele>121.0</ele><time>2016-06-18T07:40:38.318Z</time></trkpt><trkpt lat="58.12913333" lon="14.21935833"><ele>121.0</ele><time>2016-06-18T07:40:39.303Z</time></trkpt><trkpt lat="58.12931167" lon="14.21937333"><ele>120.0</ele><time>2016-06-18T07:40:40.310Z</time></trkpt><trkpt lat="58.129405" lon="14.21938167"><ele>120.0</ele><time>2016-06-18T07:40:41.308Z</time></trkpt><trkpt lat="58.12949833" lon="14.21938667"><ele>120.0</ele><time>2016-06-18T07:40:42.286Z</time></trkpt><trkpt lat="58.12949833" lon="14.21938667"><ele>120.0</ele><time>2016-06-18T07:40:43.308Z</time></trkpt><trkpt lat="58.12969" lon="14.2194"><ele>120.0</ele><time>2016-06-18T07:40:44.282Z</time></trkpt><trkpt lat="58.12978833" lon="14.21940167"><ele>120.0</ele><time>2016-06-18T07:40:45.283Z</time></trkpt><trkpt lat="58.12978833" lon="14.21940167"><ele>120.0</ele><time>2016-06-18T07:40:46.305Z</time></trkpt><trkpt lat="58.12998833" lon="14.21941167"><ele>120.0</ele><time>2016-06-18T07:40:47.324Z</time></trkpt><trkpt lat="58.13008833" lon="14.21941833"><ele>120.0</ele><time>2016-06-18T07:40:48.285Z</time></trkpt><trkpt lat="58.13008833" lon="14.21941833"><ele>120.0</ele><time>2016-06-18T07:40:49.309Z</time></trkpt><trkpt lat="58.13027667" lon="14.21942833"><ele>120.0</ele><time>2016-06-18T07:40:50.298Z</time></trkpt><trkpt lat="58.13027667" lon="14.21942833"><ele>120.0</ele><time>2016-06-18T07:40:51.293Z</time></trkpt><trkpt lat="58.13045833" lon="14.21943667"><ele>120.0</ele><time>2016-06-18T07:40:52.307Z</time></trkpt><trkpt lat="58.13054667" lon="14.21944"><ele>119.0</ele><time>2016-06-18T07:40:53.305Z</time></trkpt><trkpt lat="58.13054667" lon="14.21944"><ele>119.0</ele><time>2016-06-18T07:40:54.319Z</time></trkpt><trkpt lat="58.13072667" lon="14.21945667"><ele>119.0</ele><time>2016-06-18T07:40:55.286Z</time></trkpt><trkpt lat="58.13081833" lon="14.21946333"><ele>119.0</ele><time>2016-06-18T07:40:56.288Z</time></trkpt><trkpt lat="58.13081833" lon="14.21946333"><ele>119.0</ele><time>2016-06-18T07:40:57.295Z</time></trkpt><trkpt lat="58.131" lon="14.21948"><ele>119.0</ele><time>2016-06-18T07:40:58.318Z</time></trkpt><trkpt lat="58.131" lon="14.21948"><ele>119.0</ele><time>2016-06-18T07:40:59.312Z</time></trkpt><trkpt lat="58.131175" lon="14.21949833"><ele>119.0</ele><time>2016-06-18T07:41:00.321Z</time></trkpt><trkpt lat="58.13126" lon="14.219505"><ele>119.0</ele><time>2016-06-18T07:41:01.300Z</time></trkpt><trkpt lat="58.13126" lon="14.219505"><ele>119.0</ele><time>2016-06-18T07:41:02.315Z</time></trkpt><trkpt lat="58.13143" lon="14.21951667"><ele>119.0</ele><time>2016-06-18T07:41:03.289Z</time></trkpt><trkpt lat="58.13143" lon="14.21951667"><ele>119.0</ele><time>2016-06-18T07:41:04.302Z</time></trkpt><trkpt lat="58.13159833" lon="14.21952667"><ele>119.0</ele><time>2016-06-18T07:41:05.321Z</time></trkpt><trkpt lat="58.13159833" lon="14.21952667"><ele>119.0</ele><time>2016-06-18T07:41:06.316Z</time></trkpt><trkpt lat="58.13177333" lon="14.21953833"><ele>119.0</ele><time>2016-06-18T07:41:07.283Z</time></trkpt><trkpt lat="58.13186" lon="14.21954333"><ele>119.0</ele><time>2016-06-18T07:41:08.309Z</time></trkpt><trkpt lat="58.131945" lon="14.21954833"><ele>119.0</ele><time>2016-06-18T07:41:09.311Z</time></trkpt><trkpt lat="58.131945" lon="14.21954833"><ele>119.0</ele><time>2016-06-18T07:41:10.294Z</time></trkpt><trkpt lat="58.13211667" lon="14.21955833"><ele>119.0</ele><time>2016-06-18T07:41:11.325Z</time></trkpt><trkpt lat="58.13220167" lon="14.21956333"><ele>119.0</ele><time>2016-06-18T07:41:12.316Z</time></trkpt><trkpt lat="58.13220167" lon="14.21956333"><ele>119.0</ele><time>2016-06-18T07:41:13.301Z</time></trkpt><trkpt lat="58.13238" lon="14.21957667"><ele>118.0</ele><time>2016-06-18T07:41:14.309Z</time></trkpt><trkpt lat="58.13238" lon="14.21957667"><ele>118.0</ele><time>2016-06-18T07:41:15.292Z</time></trkpt><trkpt lat="58.13256333" lon="14.21958333"><ele>118.0</ele><time>2016-06-18T07:41:16.287Z</time></trkpt><trkpt lat="58.13256333" lon="14.21958333"><ele>118.0</ele><time>2016-06-18T07:41:17.314Z</time></trkpt><trkpt lat="58.13274833" lon="14.219585"><ele>118.0</ele><time>2016-06-18T07:41:18.285Z</time></trkpt><trkpt lat="58.13274833" lon="14.219585"><ele>118.0</ele><time>2016-06-18T07:41:19.311Z</time></trkpt><trkpt lat="58.13292833" lon="14.21960167"><ele>118.0</ele><time>2016-06-18T07:41:20.327Z</time></trkpt><trkpt lat="58.13292833" lon="14.21960167"><ele>118.0</ele><time>2016-06-18T07:41:21.293Z</time></trkpt><trkpt lat="58.13311" lon="14.219615"><ele>118.0</ele><time>2016-06-18T07:41:22.301Z</time></trkpt><trkpt lat="58.13320333" lon="14.21962167"><ele>118.0</ele><time>2016-06-18T07:41:23.286Z</time></trkpt><trkpt lat="58.13320333" lon="14.21962167"><ele>118.0</ele><time>2016-06-18T07:41:24.308Z</time></trkpt><trkpt lat="58.13338667" lon="14.219635"><ele>118.0</ele><time>2016-06-18T07:41:25.318Z</time></trkpt><trkpt lat="58.13347667" lon="14.21963833"><ele>118.0</ele><time>2016-06-18T07:41:26.291Z</time></trkpt><trkpt lat="58.13347667" lon="14.21963833"><ele>118.0</ele><time>2016-06-18T07:41:27.316Z</time></trkpt><trkpt lat="58.13366167" lon="14.21964"><ele>117.0</ele><time>2016-06-18T07:41:28.283Z</time></trkpt><trkpt lat="58.133755" lon="14.21964333"><ele>117.0</ele><time>2016-06-18T07:41:29.298Z</time></trkpt><trkpt lat="58.133755" lon="14.21964333"><ele>117.0</ele><time>2016-06-18T07:41:30.305Z</time></trkpt><trkpt lat="58.13394333" lon="14.21964667"><ele>117.0</ele><time>2016-06-18T07:41:31.314Z</time></trkpt><trkpt lat="58.13403667" lon="14.219645"><ele>117.0</ele><time>2016-06-18T07:41:32.298Z</time></trkpt><trkpt lat="58.13403667" lon="14.219645"><ele>117.0</ele><time>2016-06-18T07:41:33.301Z</time></trkpt><trkpt lat="58.13422333" lon="14.21963833"><ele>117.0</ele><time>2016-06-18T07:41:34.308Z</time></trkpt><trkpt lat="58.134315" lon="14.21963833"><ele>117.0</ele><time>2016-06-18T07:41:35.298Z</time></trkpt><trkpt lat="58.134315" lon="14.21963833"><ele>117.0</ele><time>2016-06-18T07:41:36.293Z</time></trkpt><trkpt lat="58.134495" lon="14.21962667"><ele>117.0</ele><time>2016-06-18T07:41:37.308Z</time></trkpt><trkpt lat="58.13458333" lon="14.219615"><ele>117.0</ele><time>2016-06-18T07:41:38.307Z</time></trkpt><trkpt lat="58.13458333" lon="14.219615"><ele>117.0</ele><time>2016-06-18T07:41:39.288Z</time></trkpt><trkpt lat="58.13476" lon="14.21959333"><ele>117.0</ele><time>2016-06-18T07:41:40.295Z</time></trkpt><trkpt lat="58.13485167" lon="14.21958167"><ele>116.0</ele><time>2016-06-18T07:41:41.300Z</time></trkpt><trkpt lat="58.13485167" lon="14.21958167"><ele>116.0</ele><time>2016-06-18T07:41:42.300Z</time></trkpt><trkpt lat="58.13503333" lon="14.21956"><ele>116.0</ele><time>2016-06-18T07:41:43.317Z</time></trkpt><trkpt lat="58.13503333" lon="14.21956"><ele>116.0</ele><time>2016-06-18T07:41:44.300Z</time></trkpt><trkpt lat="58.13521167" lon="14.21953167"><ele>116.0</ele><time>2016-06-18T07:41:45.310Z</time></trkpt><trkpt lat="58.13521167" lon="14.21953167"><ele>116.0</ele><time>2016-06-18T07:41:46.289Z</time></trkpt><trkpt lat="58.13537667" lon="14.2195"><ele>116.0</ele><time>2016-06-18T07:41:47.301Z</time></trkpt><trkpt lat="58.13537667" lon="14.2195"><ele>116.0</ele><time>2016-06-18T07:41:48.318Z</time></trkpt><trkpt lat="58.135545" lon="14.21947333"><ele>116.0</ele><time>2016-06-18T07:41:49.298Z</time></trkpt><trkpt lat="58.135545" lon="14.21947333"><ele>116.0</ele><time>2016-06-18T07:41:50.295Z</time></trkpt><trkpt lat="58.13571833" lon="14.21943"><ele>116.0</ele><time>2016-06-18T07:41:51.305Z</time></trkpt><trkpt lat="58.13571833" lon="14.21943"><ele>116.0</ele><time>2016-06-18T07:41:52.288Z</time></trkpt><trkpt lat="58.13589833" lon="14.21938667"><ele>117.0</ele><time>2016-06-18T07:41:53.318Z</time></trkpt><trkpt lat="58.13589833" lon="14.21938667"><ele>117.0</ele><time>2016-06-18T07:41:54.320Z</time></trkpt><trkpt lat="58.13608833" lon="14.21934833"><ele>118.0</ele><time>2016-06-18T07:41:55.286Z</time></trkpt><trkpt lat="58.136185" lon="14.21933"><ele>118.0</ele><time>2016-06-18T07:41:56.315Z</time></trkpt><trkpt lat="58.136185" lon="14.21933"><ele>118.0</ele><time>2016-06-18T07:41:57.314Z</time></trkpt><trkpt lat="58.13637167" lon="14.219275"><ele>118.0</ele><time>2016-06-18T07:41:58.290Z</time></trkpt><trkpt lat="58.136465" lon="14.21924667"><ele>117.0</ele><time>2016-06-18T07:41:59.300Z</time></trkpt><trkpt lat="58.136465" lon="14.21924667"><ele>117.0</ele><time>2016-06-18T07:42:00.308Z</time></trkpt><trkpt lat="58.13665" lon="14.21919"><ele>117.0</ele><time>2016-06-18T07:42:01.315Z</time></trkpt><trkpt lat="58.13665" lon="14.21919"><ele>117.0</ele><time>2016-06-18T07:42:02.297Z</time></trkpt><trkpt lat="58.136835" lon="14.219125"><ele>118.0</ele><time>2016-06-18T07:42:03.319Z</time></trkpt><trkpt lat="58.136835" lon="14.219125"><ele>118.0</ele><time>2016-06-18T07:42:04.319Z</time></trkpt><trkpt lat="58.13702167" lon="14.21905167"><ele>117.0</ele><time>2016-06-18T07:42:05.286Z</time></trkpt><trkpt lat="58.137115" lon="14.219015"><ele>117.0</ele><time>2016-06-18T07:42:06.316Z</time></trkpt><trkpt lat="58.137115" lon="14.219015"><ele>117.0</ele><time>2016-06-18T07:42:07.307Z</time></trkpt><trkpt lat="58.13730167" lon="14.21894333"><ele>118.0</ele><time>2016-06-18T07:42:08.321Z</time></trkpt><trkpt lat="58.13739333" lon="14.218905"><ele>117.0</ele><time>2016-06-18T07:42:09.289Z</time></trkpt><trkpt lat="58.13739333" lon="14.218905"><ele>117.0</ele><time>2016-06-18T07:42:10.286Z</time></trkpt><trkpt lat="58.13757667" lon="14.21882167"><ele>118.0</ele><time>2016-06-18T07:42:11.320Z</time></trkpt><trkpt lat="58.13766833" lon="14.21877833"><ele>118.0</ele><time>2016-06-18T07:42:12.321Z</time></trkpt><trkpt lat="58.13776167" lon="14.218735"><ele>118.0</ele><time>2016-06-18T07:42:13.296Z</time></trkpt><trkpt lat="58.13776167" lon="14.218735"><ele>118.0</ele><time>2016-06-18T07:42:14.290Z</time></trkpt><trkpt lat="58.13794333" lon="14.21865333"><ele>118.0</ele><time>2016-06-18T07:42:15.296Z</time></trkpt><trkpt lat="58.13794333" lon="14.21865333"><ele>118.0</ele><time>2016-06-18T07:42:16.321Z</time></trkpt><trkpt lat="58.13811833" lon="14.21857"><ele>118.0</ele><time>2016-06-18T07:42:17.286Z</time></trkpt><trkpt lat="58.13811833" lon="14.21857"><ele>118.0</ele><time>2016-06-18T07:42:18.290Z</time></trkpt><trkpt lat="58.13828667" lon="14.21848833"><ele>118.0</ele><time>2016-06-18T07:42:19.297Z</time></trkpt><trkpt lat="58.13837167" lon="14.21844667"><ele>118.0</ele><time>2016-06-18T07:42:20.323Z</time></trkpt><trkpt lat="58.13837167" lon="14.21844667"><ele>118.0</ele><time>2016-06-18T07:42:21.312Z</time></trkpt><trkpt lat="58.13853667" lon="14.21836667"><ele>118.0</ele><time>2016-06-18T07:42:22.320Z</time></trkpt><trkpt lat="58.13862167" lon="14.21832667"><ele>118.0</ele><time>2016-06-18T07:42:23.308Z</time></trkpt><trkpt lat="58.13862167" lon="14.21832667"><ele>118.0</ele><time>2016-06-18T07:42:24.320Z</time></trkpt><trkpt lat="58.138795" lon="14.218245"><ele>117.0</ele><time>2016-06-18T07:42:25.286Z</time></trkpt><trkpt lat="58.13888333" lon="14.21820167"><ele>117.0</ele><time>2016-06-18T07:42:26.319Z</time></trkpt><trkpt lat="58.13888333" lon="14.21820167"><ele>117.0</ele><time>2016-06-18T07:42:27.294Z</time></trkpt><trkpt lat="58.13906" lon="14.21811667"><ele>117.0</ele><time>2016-06-18T07:42:28.305Z</time></trkpt><trkpt lat="58.13906" lon="14.21811667"><ele>117.0</ele><time>2016-06-18T07:42:29.288Z</time></trkpt><trkpt lat="58.13923833" lon="14.21802667"><ele>116.0</ele><time>2016-06-18T07:42:30.286Z</time></trkpt><trkpt lat="58.13923833" lon="14.21802667"><ele>116.0</ele><time>2016-06-18T07:42:31.289Z</time></trkpt><trkpt lat="58.13942" lon="14.21794167"><ele>116.0</ele><time>2016-06-18T07:42:32.296Z</time></trkpt><trkpt lat="58.13942" lon="14.21794167"><ele>116.0</ele><time>2016-06-18T07:42:33.318Z</time></trkpt><trkpt lat="58.13959833" lon="14.217865"><ele>116.0</ele><time>2016-06-18T07:42:34.310Z</time></trkpt><trkpt lat="58.13959833" lon="14.217865"><ele>116.0</ele><time>2016-06-18T07:42:35.283Z</time></trkpt><trkpt lat="58.13977333" lon="14.21777833"><ele>116.0</ele><time>2016-06-18T07:42:36.290Z</time></trkpt><trkpt lat="58.13977333" lon="14.21777833"><ele>116.0</ele><time>2016-06-18T07:42:37.313Z</time></trkpt><trkpt lat="58.13994333" lon="14.21768833"><ele>116.0</ele><time>2016-06-18T07:42:38.318Z</time></trkpt><trkpt lat="58.13994333" lon="14.21768833"><ele>116.0</ele><time>2016-06-18T07:42:39.284Z</time></trkpt><trkpt lat="58.140115" lon="14.21760167"><ele>115.0</ele><time>2016-06-18T07:42:40.290Z</time></trkpt><trkpt lat="58.14019833" lon="14.21755833"><ele>115.0</ele><time>2016-06-18T07:42:41.316Z</time></trkpt><trkpt lat="58.14019833" lon="14.21755833"><ele>115.0</ele><time>2016-06-18T07:42:42.312Z</time></trkpt><trkpt lat="58.14036667" lon="14.21747"><ele>115.0</ele><time>2016-06-18T07:42:43.321Z</time></trkpt><trkpt lat="58.140455" lon="14.21742667"><ele>115.0</ele><time>2016-06-18T07:42:44.308Z</time></trkpt><trkpt lat="58.140455" lon="14.21742667"><ele>115.0</ele><time>2016-06-18T07:42:45.319Z</time></trkpt><trkpt lat="58.14062833" lon="14.21733833"><ele>116.0</ele><time>2016-06-18T07:42:46.286Z</time></trkpt><trkpt lat="58.14062833" lon="14.21733833"><ele>116.0</ele><time>2016-06-18T07:42:47.305Z</time></trkpt><trkpt lat="58.1408" lon="14.21725333"><ele>116.0</ele><time>2016-06-18T07:42:48.300Z</time></trkpt><trkpt lat="58.14088667" lon="14.21721333"><ele>116.0</ele><time>2016-06-18T07:42:49.311Z</time></trkpt><trkpt lat="58.14097333" lon="14.21717333"><ele>116.0</ele><time>2016-06-18T07:42:50.294Z</time></trkpt><trkpt lat="58.14097333" lon="14.21717333"><ele>116.0</ele><time>2016-06-18T07:42:51.319Z</time></trkpt><trkpt lat="58.141145" lon="14.21709833"><ele>116.0</ele><time>2016-06-18T07:42:52.286Z</time></trkpt><trkpt lat="58.141145" lon="14.21709833"><ele>116.0</ele><time>2016-06-18T07:42:53.311Z</time></trkpt><trkpt lat="58.141315" lon="14.21702667"><ele>116.0</ele><time>2016-06-18T07:42:54.294Z</time></trkpt><trkpt lat="58.14139833" lon="14.21699"><ele>116.0</ele><time>2016-06-18T07:42:55.317Z</time></trkpt><trkpt lat="58.14139833" lon="14.21699"><ele>116.0</ele><time>2016-06-18T07:42:56.301Z</time></trkpt><trkpt lat="58.14157" lon="14.216915"><ele>116.0</ele><time>2016-06-18T07:42:57.309Z</time></trkpt><trkpt lat="58.14157" lon="14.216915"><ele>116.0</ele><time>2016-06-18T07:42:58.292Z</time></trkpt><trkpt lat="58.14174333" lon="14.216845"><ele>116.0</ele><time>2016-06-18T07:42:59.300Z</time></trkpt><trkpt lat="58.14183" lon="14.21681167"><ele>117.0</ele><time>2016-06-18T07:43:00.298Z</time></trkpt><trkpt lat="58.14183" lon="14.21681167"><ele>117.0</ele><time>2016-06-18T07:43:01.291Z</time></trkpt><trkpt lat="58.14199833" lon="14.21673833"><ele>117.0</ele><time>2016-06-18T07:43:02.298Z</time></trkpt><trkpt lat="58.14199833" lon="14.21673833"><ele>117.0</ele><time>2016-06-18T07:43:03.282Z</time></trkpt><trkpt lat="58.142165" lon="14.21667333"><ele>117.0</ele><time>2016-06-18T07:43:04.310Z</time></trkpt><trkpt lat="58.14224667" lon="14.216645"><ele>117.0</ele><time>2016-06-18T07:43:05.296Z</time></trkpt><trkpt lat="58.14224667" lon="14.216645"><ele>117.0</ele><time>2016-06-18T07:43:06.320Z</time></trkpt><trkpt lat="58.14241" lon="14.216585"><ele>117.0</ele><time>2016-06-18T07:43:07.300Z</time></trkpt><trkpt lat="58.14249333" lon="14.21655167"><ele>118.0</ele><time>2016-06-18T07:43:08.305Z</time></trkpt><trkpt lat="58.14249333" lon="14.21655167"><ele>118.0</ele><time>2016-06-18T07:43:09.287Z</time></trkpt><trkpt lat="58.14266667" lon="14.21648333"><ele>117.0</ele><time>2016-06-18T07:43:10.299Z</time></trkpt><trkpt lat="58.14266667" lon="14.21648333"><ele>117.0</ele><time>2016-06-18T07:43:11.304Z</time></trkpt><trkpt lat="58.14284" lon="14.21641833"><ele>117.0</ele><time>2016-06-18T07:43:12.322Z</time></trkpt><trkpt lat="58.14292667" lon="14.21638667"><ele>117.0</ele><time>2016-06-18T07:43:13.303Z</time></trkpt><trkpt lat="58.143015" lon="14.21635667"><ele>117.0</ele><time>2016-06-18T07:43:14.285Z</time></trkpt><trkpt lat="58.143015" lon="14.21635667"><ele>117.0</ele><time>2016-06-18T07:43:15.308Z</time></trkpt><trkpt lat="58.14318833" lon="14.216295"><ele>117.0</ele><time>2016-06-18T07:43:16.315Z</time></trkpt><trkpt lat="58.14318833" lon="14.216295"><ele>117.0</ele><time>2016-06-18T07:43:17.295Z</time></trkpt><trkpt lat="58.14335833" lon="14.21624"><ele>117.0</ele><time>2016-06-18T07:43:18.296Z</time></trkpt><trkpt lat="58.14344167" lon="14.21621333"><ele>117.0</ele><time>2016-06-18T07:43:19.320Z</time></trkpt><trkpt lat="58.143525" lon="14.21618667"><ele>117.0</ele><time>2016-06-18T07:43:20.293Z</time></trkpt><trkpt lat="58.143525" lon="14.21618667"><ele>117.0</ele><time>2016-06-18T07:43:21.314Z</time></trkpt><trkpt lat="58.14369167" lon="14.216135"><ele>116.0</ele><time>2016-06-18T07:43:22.320Z</time></trkpt><trkpt lat="58.14369167" lon="14.216135"><ele>116.0</ele><time>2016-06-18T07:43:23.308Z</time></trkpt><trkpt lat="58.14386" lon="14.21608167"><ele>117.0</ele><time>2016-06-18T07:43:24.323Z</time></trkpt><trkpt lat="58.14386" lon="14.21608167"><ele>117.0</ele><time>2016-06-18T07:43:25.291Z</time></trkpt><trkpt lat="58.14403167" lon="14.21603333"><ele>117.0</ele><time>2016-06-18T07:43:26.299Z</time></trkpt><trkpt lat="58.14403167" lon="14.21603333"><ele>117.0</ele><time>2016-06-18T07:43:27.284Z</time></trkpt><trkpt lat="58.14420167" lon="14.21598167"><ele>118.0</ele><time>2016-06-18T07:43:28.308Z</time></trkpt><trkpt lat="58.14420167" lon="14.21598167"><ele>118.0</ele><time>2016-06-18T07:43:29.290Z</time></trkpt><trkpt lat="58.14436333" lon="14.21592667"><ele>117.0</ele><time>2016-06-18T07:43:30.297Z</time></trkpt><trkpt lat="58.14436333" lon="14.21592667"><ele>117.0</ele><time>2016-06-18T07:43:31.292Z</time></trkpt><trkpt lat="58.144525" lon="14.215885"><ele>116.0</ele><time>2016-06-18T07:43:32.313Z</time></trkpt><trkpt lat="58.144525" lon="14.215885"><ele>116.0</ele><time>2016-06-18T07:43:33.312Z</time></trkpt><trkpt lat="58.14468667" lon="14.21585"><ele>117.0</ele><time>2016-06-18T07:43:34.319Z</time></trkpt><trkpt lat="58.14468667" lon="14.21585"><ele>117.0</ele><time>2016-06-18T07:43:35.301Z</time></trkpt><trkpt lat="58.14484667" lon="14.21581"><ele>116.0</ele><time>2016-06-18T07:43:36.304Z</time></trkpt><trkpt lat="58.14484667" lon="14.21581"><ele>116.0</ele><time>2016-06-18T07:43:37.311Z</time></trkpt><trkpt lat="58.14501667" lon="14.21577167"><ele>116.0</ele><time>2016-06-18T07:43:38.284Z</time></trkpt><trkpt lat="58.14501667" lon="14.21577167"><ele>116.0</ele><time>2016-06-18T07:43:39.307Z</time></trkpt><trkpt lat="58.14518167" lon="14.215725"><ele>115.0</ele><time>2016-06-18T07:43:40.305Z</time></trkpt><trkpt lat="58.14518167" lon="14.215725"><ele>115.0</ele><time>2016-06-18T07:43:41.304Z</time></trkpt><trkpt lat="58.14534833" lon="14.21568167"><ele>115.0</ele><time>2016-06-18T07:43:42.313Z</time></trkpt><trkpt lat="58.14534833" lon="14.21568167"><ele>115.0</ele><time>2016-06-18T07:43:43.291Z</time></trkpt><trkpt lat="58.14553" lon="14.21565333"><ele>115.0</ele><time>2016-06-18T07:43:44.316Z</time></trkpt><trkpt lat="58.14553" lon="14.21565333"><ele>115.0</ele><time>2016-06-18T07:43:45.313Z</time></trkpt><trkpt lat="58.14571" lon="14.21561833"><ele>117.0</ele><time>2016-06-18T07:43:46.320Z</time></trkpt><trkpt lat="58.14571" lon="14.21561833"><ele>117.0</ele><time>2016-06-18T07:43:47.305Z</time></trkpt><trkpt lat="58.14588333" lon="14.21558167"><ele>117.0</ele><time>2016-06-18T07:43:48.288Z</time></trkpt><trkpt lat="58.14588333" lon="14.21558167"><ele>117.0</ele><time>2016-06-18T07:43:49.306Z</time></trkpt><trkpt lat="58.14606167" lon="14.21554833"><ele>117.0</ele><time>2016-06-18T07:43:50.312Z</time></trkpt><trkpt lat="58.14615167" lon="14.21552833"><ele>117.0</ele><time>2016-06-18T07:43:51.318Z</time></trkpt><trkpt lat="58.14615167" lon="14.21552833"><ele>117.0</ele><time>2016-06-18T07:43:52.310Z</time></trkpt><trkpt lat="58.14633667" lon="14.21549167"><ele>118.0</ele><time>2016-06-18T07:43:53.319Z</time></trkpt><trkpt lat="58.14633667" lon="14.21549167"><ele>118.0</ele><time>2016-06-18T07:43:54.306Z</time></trkpt><trkpt lat="58.146525" lon="14.21546167"><ele>118.0</ele><time>2016-06-18T07:43:55.304Z</time></trkpt><trkpt lat="58.14661833" lon="14.21544667"><ele>119.0</ele><time>2016-06-18T07:43:56.315Z</time></trkpt><trkpt lat="58.14661833" lon="14.21544667"><ele>119.0</ele><time>2016-06-18T07:43:57.299Z</time></trkpt><trkpt lat="58.14680333" lon="14.21540833"><ele>118.0</ele><time>2016-06-18T07:43:58.318Z</time></trkpt><trkpt lat="58.14689833" lon="14.21539"><ele>118.0</ele><time>2016-06-18T07:43:59.304Z</time></trkpt><trkpt lat="58.14689833" lon="14.21539"><ele>118.0</ele><time>2016-06-18T07:44:00.286Z</time></trkpt><trkpt lat="58.147085" lon="14.21535"><ele>118.0</ele><time>2016-06-18T07:44:01.293Z</time></trkpt><trkpt lat="58.14717667" lon="14.21533333"><ele>118.0</ele><time>2016-06-18T07:44:02.318Z</time></trkpt><trkpt lat="58.14717667" lon="14.21533333"><ele>118.0</ele><time>2016-06-18T07:44:03.305Z</time></trkpt><trkpt lat="58.14735833" lon="14.21529667"><ele>118.0</ele><time>2016-06-18T07:44:04.313Z</time></trkpt><trkpt lat="58.14744667" lon="14.21528333"><ele>118.0</ele><time>2016-06-18T07:44:05.295Z</time></trkpt><trkpt lat="58.14753333" lon="14.21527"><ele>118.0</ele><time>2016-06-18T07:44:06.319Z</time></trkpt><trkpt lat="58.14753333" lon="14.21527"><ele>118.0</ele><time>2016-06-18T07:44:07.300Z</time></trkpt><trkpt lat="58.14771333" lon="14.21523833"><ele>118.0</ele><time>2016-06-18T07:44:08.308Z</time></trkpt><trkpt lat="58.14771333" lon="14.21523833"><ele>118.0</ele><time>2016-06-18T07:44:09.301Z</time></trkpt><trkpt lat="58.14789667" lon="14.21520333"><ele>118.0</ele><time>2016-06-18T07:44:10.315Z</time></trkpt><trkpt lat="58.14789667" lon="14.21520333"><ele>118.0</ele><time>2016-06-18T07:44:11.304Z</time></trkpt><trkpt lat="58.14808333" lon="14.21517167"><ele>119.0</ele><time>2016-06-18T07:44:12.291Z</time></trkpt><trkpt lat="58.14808333" lon="14.21517167"><ele>119.0</ele><time>2016-06-18T07:44:13.314Z</time></trkpt><trkpt lat="58.14826667" lon="14.21514"><ele>118.0</ele><time>2016-06-18T07:44:14.282Z</time></trkpt><trkpt lat="58.14826667" lon="14.21514"><ele>118.0</ele><time>2016-06-18T07:44:15.314Z</time></trkpt><trkpt lat="58.14844667" lon="14.21510833"><ele>118.0</ele><time>2016-06-18T07:44:16.326Z</time></trkpt><trkpt lat="58.14844667" lon="14.21510833"><ele>118.0</ele><time>2016-06-18T07:44:17.284Z</time></trkpt><trkpt lat="58.14862167" lon="14.21507333"><ele>118.0</ele><time>2016-06-18T07:44:18.291Z</time></trkpt><trkpt lat="58.14870833" lon="14.215055"><ele>118.0</ele><time>2016-06-18T07:44:19.316Z</time></trkpt><trkpt lat="58.14879667" lon="14.21503333"><ele>118.0</ele><time>2016-06-18T07:44:20.298Z</time></trkpt><trkpt lat="58.14879667" lon="14.21503333"><ele>118.0</ele><time>2016-06-18T07:44:21.283Z</time></trkpt><trkpt lat="58.148975" lon="14.21499333"><ele>119.0</ele><time>2016-06-18T07:44:22.286Z</time></trkpt><trkpt lat="58.149065" lon="14.21497333"><ele>118.0</ele><time>2016-06-18T07:44:23.308Z</time></trkpt><trkpt lat="58.149065" lon="14.21497333"><ele>118.0</ele><time>2016-06-18T07:44:24.314Z</time></trkpt><trkpt lat="58.14924167" lon="14.21494"><ele>118.0</ele><time>2016-06-18T07:44:25.321Z</time></trkpt><trkpt lat="58.14924167" lon="14.21494"><ele>118.0</ele><time>2016-06-18T07:44:26.304Z</time></trkpt><trkpt lat="58.14942" lon="14.2149"><ele>119.0</ele><time>2016-06-18T07:44:27.315Z</time></trkpt><trkpt lat="58.14942" lon="14.2149"><ele>119.0</ele><time>2016-06-18T07:44:28.290Z</time></trkpt><trkpt lat="58.14959667" lon="14.21485833"><ele>118.0</ele><time>2016-06-18T07:44:29.297Z</time></trkpt><trkpt lat="58.14959667" lon="14.21485833"><ele>118.0</ele><time>2016-06-18T07:44:30.282Z</time></trkpt><trkpt lat="58.14977333" lon="14.21481167"><ele>118.0</ele><time>2016-06-18T07:44:31.295Z</time></trkpt><trkpt lat="58.14977333" lon="14.21481167"><ele>118.0</ele><time>2016-06-18T07:44:32.314Z</time></trkpt><trkpt lat="58.14995167" lon="14.214765"><ele>117.0</ele><time>2016-06-18T07:44:33.322Z</time></trkpt><trkpt lat="58.14995167" lon="14.214765"><ele>117.0</ele><time>2016-06-18T07:44:34.304Z</time></trkpt><trkpt lat="58.150125" lon="14.21472"><ele>117.0</ele><time>2016-06-18T07:44:35.305Z</time></trkpt><trkpt lat="58.150125" lon="14.21472"><ele>117.0</ele><time>2016-06-18T07:44:36.295Z</time></trkpt><trkpt lat="58.15029167" lon="14.21467333"><ele>117.0</ele><time>2016-06-18T07:44:37.308Z</time></trkpt><trkpt lat="58.15037167" lon="14.21465"><ele>117.0</ele><time>2016-06-18T07:44:38.291Z</time></trkpt><trkpt lat="58.15037167" lon="14.21465"><ele>117.0</ele><time>2016-06-18T07:44:39.319Z</time></trkpt><trkpt lat="58.15053167" lon="14.2146"><ele>116.0</ele><time>2016-06-18T07:44:40.320Z</time></trkpt><trkpt lat="58.15053167" lon="14.2146"><ele>116.0</ele><time>2016-06-18T07:44:41.321Z</time></trkpt><trkpt lat="58.15069833" lon="14.21454667"><ele>116.0</ele><time>2016-06-18T07:44:42.288Z</time></trkpt><trkpt lat="58.15069833" lon="14.21454667"><ele>116.0</ele><time>2016-06-18T07:44:43.307Z</time></trkpt><trkpt lat="58.15087333" lon="14.21448833"><ele>116.0</ele><time>2016-06-18T07:44:44.284Z</time></trkpt><trkpt lat="58.15087333" lon="14.21448833"><ele>116.0</ele><time>2016-06-18T07:44:45.292Z</time></trkpt><trkpt lat="58.151055" lon="14.21442833"><ele>116.0</ele><time>2016-06-18T07:44:46.299Z</time></trkpt><trkpt lat="58.151145" lon="14.21439333"><ele>116.0</ele><time>2016-06-18T07:44:47.317Z</time></trkpt><trkpt lat="58.151145" lon="14.21439333"><ele>116.0</ele><time>2016-06-18T07:44:48.297Z</time></trkpt><trkpt lat="58.15132667" lon="14.21433333"><ele>116.0</ele><time>2016-06-18T07:44:49.306Z</time></trkpt><trkpt lat="58.15141833" lon="14.21430333"><ele>116.0</ele><time>2016-06-18T07:44:50.308Z</time></trkpt><trkpt lat="58.15141833" lon="14.21430333"><ele>116.0</ele><time>2016-06-18T07:44:51.295Z</time></trkpt><trkpt lat="58.15159667" lon="14.21424"><ele>116.0</ele><time>2016-06-18T07:44:52.302Z</time></trkpt><trkpt lat="58.15159667" lon="14.21424"><ele>116.0</ele><time>2016-06-18T07:44:53.284Z</time></trkpt><trkpt lat="58.151775" lon="14.21417667"><ele>115.0</ele><time>2016-06-18T07:44:54.305Z</time></trkpt><trkpt lat="58.151865" lon="14.21414167"><ele>115.0</ele><time>2016-06-18T07:44:55.293Z</time></trkpt><trkpt lat="58.15195667" lon="14.21410667"><ele>115.0</ele><time>2016-06-18T07:44:56.282Z</time></trkpt><trkpt lat="58.15195667" lon="14.21410667"><ele>115.0</ele><time>2016-06-18T07:44:57.308Z</time></trkpt><trkpt lat="58.15214167" lon="14.21404167"><ele>115.0</ele><time>2016-06-18T07:44:58.315Z</time></trkpt><trkpt lat="58.15214167" lon="14.21404167"><ele>115.0</ele><time>2016-06-18T07:44:59.303Z</time></trkpt><trkpt lat="58.15232167" lon="14.21398333"><ele>115.0</ele><time>2016-06-18T07:45:00.282Z</time></trkpt><trkpt lat="58.15232167" lon="14.21398333"><ele>115.0</ele><time>2016-06-18T07:45:01.290Z</time></trkpt><trkpt lat="58.15248667" lon="14.21392167"><ele>116.0</ele><time>2016-06-18T07:45:02.297Z</time></trkpt><trkpt lat="58.15257" lon="14.21389167"><ele>116.0</ele><time>2016-06-18T07:45:03.294Z</time></trkpt><trkpt lat="58.15257" lon="14.21389167"><ele>116.0</ele><time>2016-06-18T07:45:04.315Z</time></trkpt><trkpt lat="58.15273667" lon="14.21383167"><ele>117.0</ele><time>2016-06-18T07:45:05.282Z</time></trkpt><trkpt lat="58.15273667" lon="14.21383167"><ele>117.0</ele><time>2016-06-18T07:45:06.287Z</time></trkpt><trkpt lat="58.15289833" lon="14.21376"><ele>116.0</ele><time>2016-06-18T07:45:07.294Z</time></trkpt><trkpt lat="58.15289833" lon="14.21376"><ele>116.0</ele><time>2016-06-18T07:45:08.315Z</time></trkpt><trkpt lat="58.15307167" lon="14.21369"><ele>117.0</ele><time>2016-06-18T07:45:09.328Z</time></trkpt><trkpt lat="58.15316" lon="14.21365667"><ele>117.0</ele><time>2016-06-18T07:45:10.311Z</time></trkpt><trkpt lat="58.153245" lon="14.21362167"><ele>117.0</ele><time>2016-06-18T07:45:11.321Z</time></trkpt><trkpt lat="58.15332833" lon="14.213585"><ele>116.0</ele><time>2016-06-18T07:45:12.312Z</time></trkpt><trkpt lat="58.15332833" lon="14.213585"><ele>116.0</ele><time>2016-06-18T07:45:13.283Z</time></trkpt><trkpt lat="58.15349833" lon="14.21351833"><ele>117.0</ele><time>2016-06-18T07:45:14.296Z</time></trkpt><trkpt lat="58.15349833" lon="14.21351833"><ele>117.0</ele><time>2016-06-18T07:45:15.306Z</time></trkpt><trkpt lat="58.15366" lon="14.21345"><ele>116.0</ele><time>2016-06-18T07:45:16.319Z</time></trkpt><trkpt lat="58.15366" lon="14.21345"><ele>116.0</ele><time>2016-06-18T07:45:17.302Z</time></trkpt><trkpt lat="58.15382167" lon="14.21339833"><ele>117.0</ele><time>2016-06-18T07:45:18.299Z</time></trkpt><trkpt lat="58.15382167" lon="14.21339833"><ele>117.0</ele><time>2016-06-18T07:45:19.304Z</time></trkpt><trkpt lat="58.15397333" lon="14.213335"><ele>117.0</ele><time>2016-06-18T07:45:20.308Z</time></trkpt><trkpt lat="58.15397333" lon="14.213335"><ele>117.0</ele><time>2016-06-18T07:45:21.310Z</time></trkpt><trkpt lat="58.15412667" lon="14.21327333"><ele>117.0</ele><time>2016-06-18T07:45:22.317Z</time></trkpt><trkpt lat="58.15420833" lon="14.21324167"><ele>117.0</ele><time>2016-06-18T07:45:23.315Z</time></trkpt><trkpt lat="58.15420833" lon="14.21324167"><ele>117.0</ele><time>2016-06-18T07:45:24.312Z</time></trkpt><trkpt lat="58.15437333" lon="14.213185"><ele>117.0</ele><time>2016-06-18T07:45:25.318Z</time></trkpt><trkpt lat="58.15445667" lon="14.21314833"><ele>116.0</ele><time>2016-06-18T07:45:26.316Z</time></trkpt><trkpt lat="58.15445667" lon="14.21314833"><ele>116.0</ele><time>2016-06-18T07:45:27.285Z</time></trkpt><trkpt lat="58.15463" lon="14.21308167"><ele>116.0</ele><time>2016-06-18T07:45:28.291Z</time></trkpt><trkpt lat="58.15463" lon="14.21308167"><ele>116.0</ele><time>2016-06-18T07:45:29.315Z</time></trkpt><trkpt lat="58.15479833" lon="14.21301333"><ele>116.0</ele><time>2016-06-18T07:45:30.312Z</time></trkpt><trkpt lat="58.15479833" lon="14.21301333"><ele>116.0</ele><time>2016-06-18T07:45:31.302Z</time></trkpt><trkpt lat="58.15496833" lon="14.21294333"><ele>116.0</ele><time>2016-06-18T07:45:32.309Z</time></trkpt><trkpt lat="58.15496833" lon="14.21294333"><ele>116.0</ele><time>2016-06-18T07:45:33.292Z</time></trkpt><trkpt lat="58.15513667" lon="14.212875"><ele>116.0</ele><time>2016-06-18T07:45:34.310Z</time></trkpt><trkpt lat="58.15513667" lon="14.212875"><ele>116.0</ele><time>2016-06-18T07:45:35.310Z</time></trkpt><trkpt lat="58.15530667" lon="14.21281167"><ele>116.0</ele><time>2016-06-18T07:45:36.317Z</time></trkpt><trkpt lat="58.15530667" lon="14.21281167"><ele>116.0</ele><time>2016-06-18T07:45:37.299Z</time></trkpt><trkpt lat="58.15547667" lon="14.212735"><ele>115.0</ele><time>2016-06-18T07:45:38.306Z</time></trkpt><trkpt lat="58.15547667" lon="14.212735"><ele>115.0</ele><time>2016-06-18T07:45:39.302Z</time></trkpt><trkpt lat="58.15565167" lon="14.21266167"><ele>115.0</ele><time>2016-06-18T07:45:40.312Z</time></trkpt><trkpt lat="58.15574333" lon="14.21263167"><ele>116.0</ele><time>2016-06-18T07:45:41.318Z</time></trkpt><trkpt lat="58.15574333" lon="14.21263167"><ele>116.0</ele><time>2016-06-18T07:45:42.282Z</time></trkpt><trkpt lat="58.15591167" lon="14.21256833"><ele>116.0</ele><time>2016-06-18T07:45:43.289Z</time></trkpt><trkpt lat="58.15591167" lon="14.21256833"><ele>116.0</ele><time>2016-06-18T07:45:44.311Z</time></trkpt><trkpt lat="58.156075" lon="14.21250167"><ele>116.0</ele><time>2016-06-18T07:45:45.310Z</time></trkpt><trkpt lat="58.156075" lon="14.21250167"><ele>116.0</ele><time>2016-06-18T07:45:46.294Z</time></trkpt><trkpt lat="58.15624833" lon="14.21243333"><ele>116.0</ele><time>2016-06-18T07:45:47.308Z</time></trkpt><trkpt lat="58.15624833" lon="14.21243333"><ele>116.0</ele><time>2016-06-18T07:45:48.288Z</time></trkpt><trkpt lat="58.15642333" lon="14.21235833"><ele>116.0</ele><time>2016-06-18T07:45:49.286Z</time></trkpt><trkpt lat="58.15642333" lon="14.21235833"><ele>116.0</ele><time>2016-06-18T07:45:50.304Z</time></trkpt><trkpt lat="58.15659167" lon="14.212285"><ele>116.0</ele><time>2016-06-18T07:45:51.311Z</time></trkpt><trkpt lat="58.15659167" lon="14.212285"><ele>116.0</ele><time>2016-06-18T07:45:52.295Z</time></trkpt><trkpt lat="58.15676333" lon="14.21221833"><ele>116.0</ele><time>2016-06-18T07:45:53.318Z</time></trkpt><trkpt lat="58.15676333" lon="14.21221833"><ele>116.0</ele><time>2016-06-18T07:45:54.315Z</time></trkpt><trkpt lat="58.15693667" lon="14.212145"><ele>115.0</ele><time>2016-06-18T07:45:55.301Z</time></trkpt><trkpt lat="58.157025" lon="14.21210833"><ele>115.0</ele><time>2016-06-18T07:45:56.311Z</time></trkpt><trkpt lat="58.157025" lon="14.21210833"><ele>115.0</ele><time>2016-06-18T07:45:57.311Z</time></trkpt><trkpt lat="58.15719833" lon="14.21203333"><ele>115.0</ele><time>2016-06-18T07:45:58.317Z</time></trkpt><trkpt lat="58.15728333" lon="14.21200167"><ele>115.0</ele><time>2016-06-18T07:45:59.308Z</time></trkpt><trkpt lat="58.15728333" lon="14.21200167"><ele>115.0</ele><time>2016-06-18T07:46:00.307Z</time></trkpt><trkpt lat="58.15744833" lon="14.21194333"><ele>115.0</ele><time>2016-06-18T07:46:01.314Z</time></trkpt><trkpt lat="58.15744833" lon="14.21194333"><ele>115.0</ele><time>2016-06-18T07:46:02.298Z</time></trkpt><trkpt lat="58.15761" lon="14.21188333"><ele>115.0</ele><time>2016-06-18T07:46:03.315Z</time></trkpt><trkpt lat="58.15761" lon="14.21188333"><ele>115.0</ele><time>2016-06-18T07:46:04.321Z</time></trkpt><trkpt lat="58.15777333" lon="14.21182"><ele>115.0</ele><time>2016-06-18T07:46:05.288Z</time></trkpt><trkpt lat="58.15785833" lon="14.21178667"><ele>116.0</ele><time>2016-06-18T07:46:06.299Z</time></trkpt><trkpt lat="58.15785833" lon="14.21178667"><ele>116.0</ele><time>2016-06-18T07:46:07.314Z</time></trkpt><trkpt lat="58.158025" lon="14.21173833"><ele>116.0</ele><time>2016-06-18T07:46:08.282Z</time></trkpt><trkpt lat="58.15811167" lon="14.21170833"><ele>117.0</ele><time>2016-06-18T07:46:09.308Z</time></trkpt><trkpt lat="58.15811167" lon="14.21170833"><ele>117.0</ele><time>2016-06-18T07:46:10.292Z</time></trkpt><trkpt lat="58.158285" lon="14.21163833"><ele>118.0</ele><time>2016-06-18T07:46:11.323Z</time></trkpt><trkpt lat="58.15837167" lon="14.21159833"><ele>117.0</ele><time>2016-06-18T07:46:12.311Z</time></trkpt><trkpt lat="58.15837167" lon="14.21159833"><ele>117.0</ele><time>2016-06-18T07:46:13.296Z</time></trkpt><trkpt lat="58.158545" lon="14.211535"><ele>117.0</ele><time>2016-06-18T07:46:14.306Z</time></trkpt><trkpt lat="58.15863333" lon="14.211505"><ele>118.0</ele><time>2016-06-18T07:46:15.290Z</time></trkpt><trkpt lat="58.15863333" lon="14.211505"><ele>118.0</ele><time>2016-06-18T07:46:16.310Z</time></trkpt><trkpt lat="58.15879667" lon="14.21145167"><ele>118.0</ele><time>2016-06-18T07:46:17.318Z</time></trkpt><trkpt lat="58.15879667" lon="14.21145167"><ele>118.0</ele><time>2016-06-18T07:46:18.300Z</time></trkpt><trkpt lat="58.15895333" lon="14.21140833"><ele>119.0</ele><time>2016-06-18T07:46:19.286Z</time></trkpt><trkpt lat="58.15902" lon="14.21139333"><ele>119.0</ele><time>2016-06-18T07:46:20.321Z</time></trkpt><trkpt lat="58.15902" lon="14.21139333"><ele>119.0</ele><time>2016-06-18T07:46:21.308Z</time></trkpt><trkpt lat="58.15913167" lon="14.21135833"><ele>120.0</ele><time>2016-06-18T07:46:22.315Z</time></trkpt><trkpt lat="58.15918167" lon="14.21134167"><ele>120.0</ele><time>2016-06-18T07:46:23.283Z</time></trkpt><trkpt lat="58.15918167" lon="14.21134167"><ele>120.0</ele><time>2016-06-18T07:46:24.308Z</time></trkpt><trkpt lat="58.15924667" lon="14.21132"><ele>122.0</ele><time>2016-06-18T07:46:25.315Z</time></trkpt><trkpt lat="58.15926667" lon="14.211315"><ele>122.0</ele><time>2016-06-18T07:46:26.318Z</time></trkpt><trkpt lat="58.15926667" lon="14.211315"><ele>122.0</ele><time>2016-06-18T07:46:27.312Z</time></trkpt><trkpt lat="58.15929167" lon="14.21131333"><ele>122.0</ele><time>2016-06-18T07:46:28.319Z</time></trkpt><trkpt lat="58.15929167" lon="14.21131333"><ele>122.0</ele><time>2016-06-18T07:46:29.313Z</time></trkpt><trkpt lat="58.159295" lon="14.21131667"><ele>122.0</ele><time>2016-06-18T07:46:30.299Z</time></trkpt><trkpt lat="58.159295" lon="14.21132167"><ele>122.0</ele><time>2016-06-18T07:46:31.290Z</time></trkpt><trkpt lat="58.159295" lon="14.21132167"><ele>122.0</ele><time>2016-06-18T07:46:32.320Z</time></trkpt><trkpt lat="58.159295" lon="14.21132167"><ele>122.0</ele><time>2016-06-18T07:46:33.295Z</time></trkpt><trkpt lat="58.159295" lon="14.21132167"><ele>122.0</ele><time>2016-06-18T07:46:34.282Z</time></trkpt><trkpt lat="58.159295" lon="14.21132167"><ele>122.0</ele><time>2016-06-18T07:46:35.318Z</time></trkpt><trkpt lat="58.159295" lon="14.21132167"><ele>122.0</ele><time>2016-06-18T07:46:36.319Z</time></trkpt><trkpt lat="58.159295" lon="14.21132167"><ele>122.0</ele><time>2016-06-18T07:46:37.313Z</time></trkpt><trkpt lat="58.159295" lon="14.21132167"><ele>122.0</ele><time>2016-06-18T07:46:38.283Z</time></trkpt><trkpt lat="58.159295" lon="14.21132167"><ele>122.0</ele><time>2016-06-18T07:46:39.316Z</time></trkpt><trkpt lat="58.159295" lon="14.21132167"><ele>122.0</ele><time>2016-06-18T07:46:40.317Z</time></trkpt><trkpt lat="58.159295" lon="14.21132167"><ele>122.0</ele><time>2016-06-18T07:46:41.319Z</time></trkpt><trkpt lat="58.159295" lon="14.21132167"><ele>122.0</ele><time>2016-06-18T07:46:42.314Z</time></trkpt><trkpt lat="58.159295" lon="14.21132167"><ele>122.0</ele><time>2016-06-18T07:46:43.317Z</time></trkpt><trkpt lat="58.159295" lon="14.21132167"><ele>122.0</ele><time>2016-06-18T07:46:44.315Z</time></trkpt><trkpt lat="58.159295" lon="14.21132167"><ele>122.0</ele><time>2016-06-18T07:46:45.318Z</time></trkpt><trkpt lat="58.159295" lon="14.21132167"><ele>122.0</ele><time>2016-06-18T07:46:46.319Z</time></trkpt><trkpt lat="58.159295" lon="14.21132167"><ele>122.0</ele><time>2016-06-18T07:46:47.314Z</time></trkpt><trkpt lat="58.159295" lon="14.21132167"><ele>122.0</ele><time>2016-06-18T07:46:48.318Z</time></trkpt><trkpt lat="58.159295" lon="14.21132167"><ele>122.0</ele><time>2016-06-18T07:46:49.315Z</time></trkpt><trkpt lat="58.159295" lon="14.21132167"><ele>122.0</ele><time>2016-06-18T07:46:50.312Z</time></trkpt><trkpt lat="58.159295" lon="14.21132167"><ele>122.0</ele><time>2016-06-18T07:46:51.319Z</time></trkpt><trkpt lat="58.159295" lon="14.21132167"><ele>122.0</ele><time>2016-06-18T07:46:52.319Z</time></trkpt><trkpt lat="58.159295" lon="14.21132167"><ele>122.0</ele><time>2016-06-18T07:46:53.307Z</time></trkpt><trkpt lat="58.159295" lon="14.21132167"><ele>122.0</ele><time>2016-06-18T07:46:54.299Z</time></trkpt><trkpt lat="58.159295" lon="14.21132167"><ele>122.0</ele><time>2016-06-18T07:46:55.293Z</time></trkpt><trkpt lat="58.159295" lon="14.21132167"><ele>122.0</ele><time>2016-06-18T07:46:56.320Z</time></trkpt><trkpt lat="58.159295" lon="14.21132167"><ele>122.0</ele><time>2016-06-18T07:46:57.316Z</time></trkpt><trkpt lat="58.159295" lon="14.21132167"><ele>122.0</ele><time>2016-06-18T07:46:58.285Z</time></trkpt><trkpt lat="58.159295" lon="14.21132167"><ele>122.0</ele><time>2016-06-18T07:46:59.320Z</time></trkpt><trkpt lat="58.159295" lon="14.21132167"><ele>122.0</ele><time>2016-06-18T07:47:00.294Z</time></trkpt><trkpt lat="58.159295" lon="14.21132167"><ele>122.0</ele><time>2016-06-18T07:47:01.320Z</time></trkpt><trkpt lat="58.15933167" lon="14.211295"><ele>124.0</ele><time>2016-06-18T07:47:02.308Z</time></trkpt><trkpt lat="58.15933167" lon="14.211295"><ele>124.0</ele><time>2016-06-18T07:47:03.282Z</time></trkpt><trkpt lat="58.15937167" lon="14.21127833"><ele>124.0</ele><time>2016-06-18T07:47:04.289Z</time></trkpt><trkpt lat="58.15937167" lon="14.21127833"><ele>124.0</ele><time>2016-06-18T07:47:05.305Z</time></trkpt><trkpt lat="58.15942333" lon="14.211255"><ele>124.0</ele><time>2016-06-18T07:47:06.295Z</time></trkpt><trkpt lat="58.15942333" lon="14.211255"><ele>124.0</ele><time>2016-06-18T07:47:07.321Z</time></trkpt><trkpt lat="58.15947667" lon="14.21123333"><ele>123.0</ele><time>2016-06-18T07:47:08.290Z</time></trkpt><trkpt lat="58.15947667" lon="14.21123333"><ele>123.0</ele><time>2016-06-18T07:47:09.311Z</time></trkpt><trkpt lat="58.15951167" lon="14.21121667"><ele>123.0</ele><time>2016-06-18T07:47:10.282Z</time></trkpt><trkpt lat="58.15951167" lon="14.21121667"><ele>123.0</ele><time>2016-06-18T07:47:11.320Z</time></trkpt><trkpt lat="58.15953" lon="14.211215"><ele>123.0</ele><time>2016-06-18T07:47:12.310Z</time></trkpt><trkpt lat="58.15953167" lon="14.211215"><ele>123.0</ele><time>2016-06-18T07:47:13.296Z</time></trkpt><trkpt lat="58.159535" lon="14.21122"><ele>123.0</ele><time>2016-06-18T07:47:14.303Z</time></trkpt><trkpt lat="58.159535" lon="14.21122"><ele>123.0</ele><time>2016-06-18T07:47:15.310Z</time></trkpt><trkpt lat="58.15954" lon="14.21122"><ele>123.0</ele><time>2016-06-18T07:47:16.320Z</time></trkpt><trkpt lat="58.15954" lon="14.21122"><ele>123.0</ele><time>2016-06-18T07:47:17.316Z</time></trkpt><trkpt lat="58.15954" lon="14.21122"><ele>123.0</ele><time>2016-06-18T07:47:18.319Z</time></trkpt><trkpt lat="58.15954" lon="14.21122"><ele>123.0</ele><time>2016-06-18T07:47:19.316Z</time></trkpt><trkpt lat="58.15954" lon="14.21122"><ele>123.0</ele><time>2016-06-18T07:47:20.321Z</time></trkpt><trkpt lat="58.15954" lon="14.21122"><ele>123.0</ele><time>2016-06-18T07:47:21.320Z</time></trkpt><trkpt lat="58.15954" lon="14.21122"><ele>123.0</ele><time>2016-06-18T07:47:22.315Z</time></trkpt><trkpt lat="58.15954" lon="14.21122"><ele>123.0</ele><time>2016-06-18T07:47:23.319Z</time></trkpt><trkpt lat="58.15954" lon="14.21122"><ele>123.0</ele><time>2016-06-18T07:47:24.316Z</time></trkpt><trkpt lat="58.15954" lon="14.21122"><ele>123.0</ele><time>2016-06-18T07:47:25.320Z</time></trkpt><trkpt lat="58.15954" lon="14.21122"><ele>123.0</ele><time>2016-06-18T07:47:26.321Z</time></trkpt><trkpt lat="58.15954" lon="14.21122"><ele>123.0</ele><time>2016-06-18T07:47:27.317Z</time></trkpt><trkpt lat="58.15954" lon="14.21122"><ele>123.0</ele><time>2016-06-18T07:47:28.319Z</time></trkpt><trkpt lat="58.15954" lon="14.21122"><ele>123.0</ele><time>2016-06-18T07:47:29.290Z</time></trkpt><trkpt lat="58.15954" lon="14.21122"><ele>123.0</ele><time>2016-06-18T07:47:30.321Z</time></trkpt><trkpt lat="58.15954" lon="14.21122"><ele>123.0</ele><time>2016-06-18T07:47:31.317Z</time></trkpt><trkpt lat="58.15954" lon="14.21122"><ele>123.0</ele><time>2016-06-18T07:47:32.321Z</time></trkpt><trkpt lat="58.15954" lon="14.21122"><ele>123.0</ele><time>2016-06-18T07:47:33.303Z</time></trkpt><trkpt lat="58.15954" lon="14.21122"><ele>123.0</ele><time>2016-06-18T07:47:34.291Z</time></trkpt><trkpt lat="58.15954" lon="14.21122"><ele>123.0</ele><time>2016-06-18T07:47:35.319Z</time></trkpt><trkpt lat="58.15954" lon="14.21122"><ele>123.0</ele><time>2016-06-18T07:47:36.316Z</time></trkpt><trkpt lat="58.15954" lon="14.21122"><ele>123.0</ele><time>2016-06-18T07:47:37.298Z</time></trkpt><trkpt lat="58.15954" lon="14.21122"><ele>123.0</ele><time>2016-06-18T07:47:38.307Z</time></trkpt><trkpt lat="58.15957833" lon="14.21122"><ele>124.0</ele><time>2016-06-18T07:47:39.318Z</time></trkpt><trkpt lat="58.15957833" lon="14.21122"><ele>124.0</ele><time>2016-06-18T07:47:40.299Z</time></trkpt><trkpt lat="58.159615" lon="14.211185"><ele>124.0</ele><time>2016-06-18T07:47:41.290Z</time></trkpt><trkpt lat="58.159615" lon="14.211185"><ele>124.0</ele><time>2016-06-18T07:47:42.310Z</time></trkpt><trkpt lat="58.159645" lon="14.21117333"><ele>123.0</ele><time>2016-06-18T07:47:43.317Z</time></trkpt><trkpt lat="58.159645" lon="14.21117333"><ele>123.0</ele><time>2016-06-18T07:47:44.314Z</time></trkpt><trkpt lat="58.159675" lon="14.21117333"><ele>123.0</ele><time>2016-06-18T07:47:45.303Z</time></trkpt><trkpt lat="58.159675" lon="14.21117333"><ele>123.0</ele><time>2016-06-18T07:47:46.291Z</time></trkpt><trkpt lat="58.15969167" lon="14.21116333"><ele>123.0</ele><time>2016-06-18T07:47:47.298Z</time></trkpt><trkpt lat="58.15969167" lon="14.21116333"><ele>123.0</ele><time>2016-06-18T07:47:48.294Z</time></trkpt><trkpt lat="58.15971" lon="14.21116167"><ele>123.0</ele><time>2016-06-18T07:47:49.314Z</time></trkpt><trkpt lat="58.15971" lon="14.21116167"><ele>123.0</ele><time>2016-06-18T07:47:50.282Z</time></trkpt><trkpt lat="58.15971333" lon="14.21115833"><ele>123.0</ele><time>2016-06-18T07:47:51.288Z</time></trkpt><trkpt lat="58.15971333" lon="14.21115833"><ele>123.0</ele><time>2016-06-18T07:47:52.294Z</time></trkpt><trkpt lat="58.15971333" lon="14.21115833"><ele>123.0</ele><time>2016-06-18T07:47:53.320Z</time></trkpt><trkpt lat="58.15971333" lon="14.21115833"><ele>123.0</ele><time>2016-06-18T07:47:54.310Z</time></trkpt><trkpt lat="58.15971333" lon="14.21115833"><ele>123.0</ele><time>2016-06-18T07:47:55.319Z</time></trkpt><trkpt lat="58.15976333" lon="14.21112833"><ele>124.0</ele><time>2016-06-18T07:47:56.306Z</time></trkpt><trkpt lat="58.15976333" lon="14.21112833"><ele>124.0</ele><time>2016-06-18T07:47:57.294Z</time></trkpt><trkpt lat="58.1598" lon="14.21111167"><ele>124.0</ele><time>2016-06-18T07:47:58.300Z</time></trkpt><trkpt lat="58.1598" lon="14.21111167"><ele>124.0</ele><time>2016-06-18T07:47:59.283Z</time></trkpt><trkpt lat="58.15983667" lon="14.21109667"><ele>124.0</ele><time>2016-06-18T07:48:00.312Z</time></trkpt><trkpt lat="58.15983667" lon="14.21109667"><ele>124.0</ele><time>2016-06-18T07:48:01.288Z</time></trkpt><trkpt lat="58.15987167" lon="14.21108333"><ele>124.0</ele><time>2016-06-18T07:48:02.295Z</time></trkpt><trkpt lat="58.15987167" lon="14.21108333"><ele>124.0</ele><time>2016-06-18T07:48:03.317Z</time></trkpt><trkpt lat="58.15990167" lon="14.211075"><ele>124.0</ele><time>2016-06-18T07:48:04.284Z</time></trkpt><trkpt lat="58.15991" lon="14.211075"><ele>124.0</ele><time>2016-06-18T07:48:05.307Z</time></trkpt><trkpt lat="58.15991333" lon="14.21107"><ele>124.0</ele><time>2016-06-18T07:48:06.314Z</time></trkpt><trkpt lat="58.15991333" lon="14.21107"><ele>124.0</ele><time>2016-06-18T07:48:07.303Z</time></trkpt><trkpt lat="58.159915" lon="14.21106333"><ele>124.0</ele><time>2016-06-18T07:48:08.311Z</time></trkpt><trkpt lat="58.159915" lon="14.21106333"><ele>124.0</ele><time>2016-06-18T07:48:09.318Z</time></trkpt><trkpt lat="58.159915" lon="14.21106333"><ele>124.0</ele><time>2016-06-18T07:48:10.291Z</time></trkpt><trkpt lat="58.159915" lon="14.21106333"><ele>124.0</ele><time>2016-06-18T07:48:11.314Z</time></trkpt><trkpt lat="58.159915" lon="14.21106333"><ele>124.0</ele><time>2016-06-18T07:48:12.295Z</time></trkpt><trkpt lat="58.159915" lon="14.21106333"><ele>124.0</ele><time>2016-06-18T07:48:13.301Z</time></trkpt><trkpt lat="58.159915" lon="14.21106333"><ele>124.0</ele><time>2016-06-18T07:48:14.318Z</time></trkpt><trkpt lat="58.159915" lon="14.21106333"><ele>124.0</ele><time>2016-06-18T07:48:15.318Z</time></trkpt><trkpt lat="58.159915" lon="14.21106333"><ele>124.0</ele><time>2016-06-18T07:48:16.321Z</time></trkpt><trkpt lat="58.159915" lon="14.21106333"><ele>124.0</ele><time>2016-06-18T07:48:17.317Z</time></trkpt><trkpt lat="58.159915" lon="14.21106333"><ele>124.0</ele><time>2016-06-18T07:48:18.321Z</time></trkpt><trkpt lat="58.159915" lon="14.21106333"><ele>124.0</ele><time>2016-06-18T07:48:19.317Z</time></trkpt><trkpt lat="58.159915" lon="14.21106333"><ele>124.0</ele><time>2016-06-18T07:48:20.321Z</time></trkpt><trkpt lat="58.159915" lon="14.21106333"><ele>124.0</ele><time>2016-06-18T07:48:21.310Z</time></trkpt><trkpt lat="58.159915" lon="14.21106333"><ele>124.0</ele><time>2016-06-18T07:48:22.321Z</time></trkpt><trkpt lat="58.159915" lon="14.21106333"><ele>124.0</ele><time>2016-06-18T07:48:23.297Z</time></trkpt><trkpt lat="58.159915" lon="14.21106333"><ele>124.0</ele><time>2016-06-18T07:48:24.291Z</time></trkpt><trkpt lat="58.159915" lon="14.21106333"><ele>124.0</ele><time>2016-06-18T07:48:25.319Z</time></trkpt><trkpt lat="58.159915" lon="14.21106333"><ele>124.0</ele><time>2016-06-18T07:48:26.282Z</time></trkpt><trkpt lat="58.159915" lon="14.21106333"><ele>124.0</ele><time>2016-06-18T07:48:27.317Z</time></trkpt><trkpt lat="58.159915" lon="14.21106333"><ele>124.0</ele><time>2016-06-18T07:48:28.320Z</time></trkpt><trkpt lat="58.159915" lon="14.21106333"><ele>124.0</ele><time>2016-06-18T07:48:29.315Z</time></trkpt><trkpt lat="58.159915" lon="14.21106333"><ele>124.0</ele><time>2016-06-18T07:48:30.320Z</time></trkpt><trkpt lat="58.159915" lon="14.21106333"><ele>124.0</ele><time>2016-06-18T07:48:31.318Z</time></trkpt><trkpt lat="58.159915" lon="14.21106333"><ele>124.0</ele><time>2016-06-18T07:48:32.321Z</time></trkpt><trkpt lat="58.159915" lon="14.21106333"><ele>124.0</ele><time>2016-06-18T07:48:33.304Z</time></trkpt><trkpt lat="58.159915" lon="14.21106333"><ele>124.0</ele><time>2016-06-18T07:48:34.291Z</time></trkpt><trkpt lat="58.159915" lon="14.21106333"><ele>124.0</ele><time>2016-06-18T07:48:35.321Z</time></trkpt><trkpt lat="58.159915" lon="14.21106333"><ele>124.0</ele><time>2016-06-18T07:48:36.317Z</time></trkpt><trkpt lat="58.159915" lon="14.21106333"><ele>124.0</ele><time>2016-06-18T07:48:37.318Z</time></trkpt><trkpt lat="58.159915" lon="14.21106333"><ele>124.0</ele><time>2016-06-18T07:48:38.282Z</time></trkpt><trkpt lat="58.159915" lon="14.21106333"><ele>124.0</ele><time>2016-06-18T07:48:39.320Z</time></trkpt><trkpt lat="58.159915" lon="14.21106333"><ele>124.0</ele><time>2016-06-18T07:48:40.318Z</time></trkpt><trkpt lat="58.159915" lon="14.21106333"><ele>124.0</ele><time>2016-06-18T07:48:41.317Z</time></trkpt><trkpt lat="58.159915" lon="14.21106333"><ele>124.0</ele><time>2016-06-18T07:48:42.317Z</time></trkpt><trkpt lat="58.159915" lon="14.21106333"><ele>124.0</ele><time>2016-06-18T07:48:43.298Z</time></trkpt><trkpt lat="58.159915" lon="14.21106333"><ele>124.0</ele><time>2016-06-18T07:48:44.284Z</time></trkpt><trkpt lat="58.159915" lon="14.21106333"><ele>124.0</ele><time>2016-06-18T07:48:45.317Z</time></trkpt><trkpt lat="58.159915" lon="14.21106333"><ele>124.0</ele><time>2016-06-18T07:48:46.320Z</time></trkpt><trkpt lat="58.159915" lon="14.21106333"><ele>124.0</ele><time>2016-06-18T07:48:47.314Z</time></trkpt><trkpt lat="58.159915" lon="14.21106333"><ele>124.0</ele><time>2016-06-18T07:48:48.320Z</time></trkpt><trkpt lat="58.159915" lon="14.21106333"><ele>124.0</ele><time>2016-06-18T07:48:49.317Z</time></trkpt><trkpt lat="58.159915" lon="14.21106333"><ele>124.0</ele><time>2016-06-18T07:48:50.321Z</time></trkpt><trkpt lat="58.159915" lon="14.21106333"><ele>124.0</ele><time>2016-06-18T07:48:51.315Z</time></trkpt><trkpt lat="58.159915" lon="14.21106333"><ele>124.0</ele><time>2016-06-18T07:48:52.320Z</time></trkpt><trkpt lat="58.159915" lon="14.21106333"><ele>124.0</ele><time>2016-06-18T07:48:53.295Z</time></trkpt><trkpt lat="58.159915" lon="14.21106333"><ele>124.0</ele><time>2016-06-18T07:48:54.282Z</time></trkpt><trkpt lat="58.159915" lon="14.21106333"><ele>124.0</ele><time>2016-06-18T07:48:55.282Z</time></trkpt><trkpt lat="58.159915" lon="14.21106333"><ele>124.0</ele><time>2016-06-18T07:48:56.322Z</time></trkpt><trkpt lat="58.159915" lon="14.21106333"><ele>124.0</ele><time>2016-06-18T07:48:57.315Z</time></trkpt><trkpt lat="58.159915" lon="14.21106333"><ele>124.0</ele><time>2016-06-18T07:48:58.320Z</time></trkpt><trkpt lat="58.159915" lon="14.21106333"><ele>124.0</ele><time>2016-06-18T07:48:59.317Z</time></trkpt><trkpt lat="58.159915" lon="14.21106333"><ele>124.0</ele><time>2016-06-18T07:49:00.318Z</time></trkpt><trkpt lat="58.159935" lon="14.21102833"><ele>125.0</ele><time>2016-06-18T07:49:01.300Z</time></trkpt><trkpt lat="58.15995167" lon="14.21101833"><ele>126.0</ele><time>2016-06-18T07:49:02.298Z</time></trkpt><trkpt lat="58.15995167" lon="14.21101833"><ele>126.0</ele><time>2016-06-18T07:49:03.319Z</time></trkpt><trkpt lat="58.15997833" lon="14.211005"><ele>126.0</ele><time>2016-06-18T07:49:04.287Z</time></trkpt><trkpt lat="58.15997833" lon="14.211005"><ele>126.0</ele><time>2016-06-18T07:49:05.311Z</time></trkpt><trkpt lat="58.15998667" lon="14.211"><ele>126.0</ele><time>2016-06-18T07:49:06.318Z</time></trkpt><trkpt lat="58.15999" lon="14.211"><ele>126.0</ele><time>2016-06-18T07:49:07.317Z</time></trkpt><trkpt lat="58.15999167" lon="14.21099833"><ele>126.0</ele><time>2016-06-18T07:49:08.284Z</time></trkpt><trkpt lat="58.15999167" lon="14.21099833"><ele>126.0</ele><time>2016-06-18T07:49:09.290Z</time></trkpt><trkpt lat="58.15999167" lon="14.21099833"><ele>126.0</ele><time>2016-06-18T07:49:10.302Z</time></trkpt><trkpt lat="58.15999167" lon="14.21099833"><ele>126.0</ele><time>2016-06-18T07:49:11.318Z</time></trkpt><trkpt lat="58.15999167" lon="14.21099833"><ele>126.0</ele><time>2016-06-18T07:49:12.303Z</time></trkpt><trkpt lat="58.15999167" lon="14.21099833"><ele>126.0</ele><time>2016-06-18T07:49:13.311Z</time></trkpt><trkpt lat="58.15999167" lon="14.21099833"><ele>126.0</ele><time>2016-06-18T07:49:14.317Z</time></trkpt><trkpt lat="58.15999167" lon="14.21099833"><ele>126.0</ele><time>2016-06-18T07:49:15.318Z</time></trkpt><trkpt lat="58.15999167" lon="14.21099833"><ele>126.0</ele><time>2016-06-18T07:49:16.282Z</time></trkpt><trkpt lat="58.15999167" lon="14.21099833"><ele>126.0</ele><time>2016-06-18T07:49:17.294Z</time></trkpt><trkpt lat="58.15999167" lon="14.21099833"><ele>126.0</ele><time>2016-06-18T07:49:18.282Z</time></trkpt><trkpt lat="58.15999167" lon="14.21099833"><ele>126.0</ele><time>2016-06-18T07:49:19.321Z</time></trkpt><trkpt lat="58.15999167" lon="14.21099833"><ele>126.0</ele><time>2016-06-18T07:49:20.321Z</time></trkpt><trkpt lat="58.15999167" lon="14.21099833"><ele>126.0</ele><time>2016-06-18T07:49:21.316Z</time></trkpt><trkpt lat="58.15999667" lon="14.21102"><ele>126.0</ele><time>2016-06-18T07:49:22.320Z</time></trkpt><trkpt lat="58.15999667" lon="14.21102"><ele>126.0</ele><time>2016-06-18T07:49:23.314Z</time></trkpt><trkpt lat="58.16003" lon="14.21102333"><ele>127.0</ele><time>2016-06-18T07:49:24.321Z</time></trkpt><trkpt lat="58.16003833" lon="14.21102167"><ele>127.0</ele><time>2016-06-18T07:49:25.318Z</time></trkpt><trkpt lat="58.16003833" lon="14.21102167"><ele>127.0</ele><time>2016-06-18T07:49:26.319Z</time></trkpt><trkpt lat="58.160045" lon="14.21102833"><ele>127.0</ele><time>2016-06-18T07:49:27.286Z</time></trkpt><trkpt lat="58.160045" lon="14.21102833"><ele>127.0</ele><time>2016-06-18T07:49:28.292Z</time></trkpt><trkpt lat="58.160045" lon="14.21102833"><ele>127.0</ele><time>2016-06-18T07:49:29.305Z</time></trkpt><trkpt lat="58.160045" lon="14.21102833"><ele>127.0</ele><time>2016-06-18T07:49:30.295Z</time></trkpt><trkpt lat="58.160045" lon="14.21102833"><ele>127.0</ele><time>2016-06-18T07:49:31.322Z</time></trkpt><trkpt lat="58.160045" lon="14.21102833"><ele>127.0</ele><time>2016-06-18T07:49:32.282Z</time></trkpt><trkpt lat="58.160045" lon="14.21102833"><ele>127.0</ele><time>2016-06-18T07:49:33.308Z</time></trkpt><trkpt lat="58.160045" lon="14.21102833"><ele>127.0</ele><time>2016-06-18T07:49:34.293Z</time></trkpt><trkpt lat="58.160045" lon="14.21102833"><ele>127.0</ele><time>2016-06-18T07:49:35.320Z</time></trkpt><trkpt lat="58.160045" lon="14.21102833"><ele>127.0</ele><time>2016-06-18T07:49:36.316Z</time></trkpt><trkpt lat="58.160045" lon="14.21102833"><ele>127.0</ele><time>2016-06-18T07:49:37.317Z</time></trkpt><trkpt lat="58.160045" lon="14.21102833"><ele>127.0</ele><time>2016-06-18T07:49:38.282Z</time></trkpt><trkpt lat="58.160045" lon="14.21102833"><ele>127.0</ele><time>2016-06-18T07:49:39.316Z</time></trkpt><trkpt lat="58.16006667" lon="14.21100167"><ele>127.0</ele><time>2016-06-18T07:49:40.321Z</time></trkpt><trkpt lat="58.16006667" lon="14.21100167"><ele>127.0</ele><time>2016-06-18T07:49:41.315Z</time></trkpt><trkpt lat="58.16010167" lon="14.210975"><ele>126.0</ele><time>2016-06-18T07:49:42.318Z</time></trkpt><trkpt lat="58.16010167" lon="14.210975"><ele>126.0</ele><time>2016-06-18T07:49:43.317Z</time></trkpt><trkpt lat="58.160165" lon="14.21095667"><ele>126.0</ele><time>2016-06-18T07:49:44.284Z</time></trkpt><trkpt lat="58.160165" lon="14.21095667"><ele>126.0</ele><time>2016-06-18T07:49:45.306Z</time></trkpt><trkpt lat="58.16024833" lon="14.210925"><ele>126.0</ele><time>2016-06-18T07:49:46.308Z</time></trkpt><trkpt lat="58.16024833" lon="14.210925"><ele>126.0</ele><time>2016-06-18T07:49:47.292Z</time></trkpt><trkpt lat="58.16034833" lon="14.21088"><ele>126.0</ele><time>2016-06-18T07:49:48.299Z</time></trkpt><trkpt lat="58.16034833" lon="14.21088"><ele>126.0</ele><time>2016-06-18T07:49:49.321Z</time></trkpt><trkpt lat="58.16046667" lon="14.21083"><ele>126.0</ele><time>2016-06-18T07:49:50.308Z</time></trkpt><trkpt lat="58.16046667" lon="14.21083"><ele>126.0</ele><time>2016-06-18T07:49:51.302Z</time></trkpt><trkpt lat="58.16060167" lon="14.21079"><ele>127.0</ele><time>2016-06-18T07:49:52.308Z</time></trkpt><trkpt lat="58.16067667" lon="14.21076167"><ele>127.0</ele><time>2016-06-18T07:49:53.308Z</time></trkpt><trkpt lat="58.16067667" lon="14.21076167"><ele>127.0</ele><time>2016-06-18T07:49:54.313Z</time></trkpt><trkpt lat="58.16083333" lon="14.21070167"><ele>128.0</ele><time>2016-06-18T07:49:55.298Z</time></trkpt><trkpt lat="58.16091" lon="14.21067"><ele>127.0</ele><time>2016-06-18T07:49:56.319Z</time></trkpt><trkpt lat="58.16091" lon="14.21067"><ele>127.0</ele><time>2016-06-18T07:49:57.294Z</time></trkpt><trkpt lat="58.16107167" lon="14.21060667"><ele>128.0</ele><time>2016-06-18T07:49:58.301Z</time></trkpt><trkpt lat="58.16107167" lon="14.21060667"><ele>128.0</ele><time>2016-06-18T07:49:59.285Z</time></trkpt><trkpt lat="58.16124" lon="14.21054"><ele>128.0</ele><time>2016-06-18T07:50:00.316Z</time></trkpt><trkpt lat="58.16124" lon="14.21054"><ele>128.0</ele><time>2016-06-18T07:50:01.306Z</time></trkpt><trkpt lat="58.16141" lon="14.210475"><ele>128.0</ele><time>2016-06-18T07:50:02.314Z</time></trkpt><trkpt lat="58.16149333" lon="14.21044167"><ele>128.0</ele><time>2016-06-18T07:50:03.299Z</time></trkpt><trkpt lat="58.16149333" lon="14.21044167"><ele>128.0</ele><time>2016-06-18T07:50:04.321Z</time></trkpt><trkpt lat="58.16166667" lon="14.21037333"><ele>127.0</ele><time>2016-06-18T07:50:05.290Z</time></trkpt><trkpt lat="58.16166667" lon="14.21037333"><ele>127.0</ele><time>2016-06-18T07:50:06.300Z</time></trkpt><trkpt lat="58.16183833" lon="14.21029167"><ele>126.0</ele><time>2016-06-18T07:50:07.310Z</time></trkpt><trkpt lat="58.161925" lon="14.21024833"><ele>126.0</ele><time>2016-06-18T07:50:08.318Z</time></trkpt><trkpt lat="58.161925" lon="14.21024833"><ele>126.0</ele><time>2016-06-18T07:50:09.314Z</time></trkpt><trkpt lat="58.1621" lon="14.21016667"><ele>125.0</ele><time>2016-06-18T07:50:10.321Z</time></trkpt><trkpt lat="58.1621" lon="14.21016667"><ele>125.0</ele><time>2016-06-18T07:50:11.308Z</time></trkpt><trkpt lat="58.16227" lon="14.21009167"><ele>125.0</ele><time>2016-06-18T07:50:12.311Z</time></trkpt><trkpt lat="58.16227" lon="14.21009167"><ele>125.0</ele><time>2016-06-18T07:50:13.294Z</time></trkpt><trkpt lat="58.16244167" lon="14.21002667"><ele>125.0</ele><time>2016-06-18T07:50:14.300Z</time></trkpt><trkpt lat="58.16244167" lon="14.21002667"><ele>125.0</ele><time>2016-06-18T07:50:15.286Z</time></trkpt><trkpt lat="58.16261" lon="14.20995667"><ele>125.0</ele><time>2016-06-18T07:50:16.298Z</time></trkpt><trkpt lat="58.16261" lon="14.20995667"><ele>125.0</ele><time>2016-06-18T07:50:17.302Z</time></trkpt><trkpt lat="58.162775" lon="14.20987333"><ele>124.0</ele><time>2016-06-18T07:50:18.311Z</time></trkpt><trkpt lat="58.16285833" lon="14.20983167"><ele>124.0</ele><time>2016-06-18T07:50:19.307Z</time></trkpt><trkpt lat="58.16294333" lon="14.20979333"><ele>123.0</ele><time>2016-06-18T07:50:20.295Z</time></trkpt><trkpt lat="58.16294333" lon="14.20979333"><ele>123.0</ele><time>2016-06-18T07:50:21.319Z</time></trkpt><trkpt lat="58.16311667" lon="14.209715"><ele>123.0</ele><time>2016-06-18T07:50:22.286Z</time></trkpt><trkpt lat="58.16320333" lon="14.20967167"><ele>123.0</ele><time>2016-06-18T07:50:23.311Z</time></trkpt><trkpt lat="58.16320333" lon="14.20967167"><ele>123.0</ele><time>2016-06-18T07:50:24.295Z</time></trkpt><trkpt lat="58.16337833" lon="14.20959167"><ele>122.0</ele><time>2016-06-18T07:50:25.298Z</time></trkpt><trkpt lat="58.16346833" lon="14.20955667"><ele>122.0</ele><time>2016-06-18T07:50:26.291Z</time></trkpt><trkpt lat="58.16346833" lon="14.20955667"><ele>122.0</ele><time>2016-06-18T07:50:27.310Z</time></trkpt><trkpt lat="58.16364667" lon="14.20947833"><ele>122.0</ele><time>2016-06-18T07:50:28.317Z</time></trkpt><trkpt lat="58.16364667" lon="14.20947833"><ele>122.0</ele><time>2016-06-18T07:50:29.295Z</time></trkpt><trkpt lat="58.16382667" lon="14.20939"><ele>122.0</ele><time>2016-06-18T07:50:30.303Z</time></trkpt><trkpt lat="58.16391667" lon="14.20935"><ele>122.0</ele><time>2016-06-18T07:50:31.317Z</time></trkpt><trkpt lat="58.16391667" lon="14.20935"><ele>122.0</ele><time>2016-06-18T07:50:32.310Z</time></trkpt><trkpt lat="58.16409" lon="14.20927167"><ele>121.0</ele><time>2016-06-18T07:50:33.283Z</time></trkpt><trkpt lat="58.16409" lon="14.20927167"><ele>121.0</ele><time>2016-06-18T07:50:34.314Z</time></trkpt><trkpt lat="58.164255" lon="14.20919"><ele>121.0</ele><time>2016-06-18T07:50:35.308Z</time></trkpt><trkpt lat="58.164255" lon="14.20919"><ele>121.0</ele><time>2016-06-18T07:50:36.292Z</time></trkpt><trkpt lat="58.16442667" lon="14.20911667"><ele>120.0</ele><time>2016-06-18T07:50:37.298Z</time></trkpt><trkpt lat="58.16451667" lon="14.20907833"><ele>120.0</ele><time>2016-06-18T07:50:38.290Z</time></trkpt><trkpt lat="58.16451667" lon="14.20907833"><ele>120.0</ele><time>2016-06-18T07:50:39.319Z</time></trkpt><trkpt lat="58.16469167" lon="14.20899833"><ele>121.0</ele><time>2016-06-18T07:50:40.286Z</time></trkpt><trkpt lat="58.16477833" lon="14.20895"><ele>122.0</ele><time>2016-06-18T07:50:41.304Z</time></trkpt><trkpt lat="58.16477833" lon="14.20895"><ele>122.0</ele><time>2016-06-18T07:50:42.302Z</time></trkpt><trkpt lat="58.16495" lon="14.20886167"><ele>121.0</ele><time>2016-06-18T07:50:43.322Z</time></trkpt><trkpt lat="58.16503833" lon="14.208825"><ele>121.0</ele><time>2016-06-18T07:50:44.315Z</time></trkpt><trkpt lat="58.16503833" lon="14.208825"><ele>121.0</ele><time>2016-06-18T07:50:45.294Z</time></trkpt><trkpt lat="58.16521667" lon="14.20875667"><ele>121.0</ele><time>2016-06-18T07:50:46.317Z</time></trkpt><trkpt lat="58.16521667" lon="14.20875667"><ele>121.0</ele><time>2016-06-18T07:50:47.311Z</time></trkpt><trkpt lat="58.16539667" lon="14.20869"><ele>123.0</ele><time>2016-06-18T07:50:48.319Z</time></trkpt><trkpt lat="58.16539667" lon="14.20869"><ele>123.0</ele><time>2016-06-18T07:50:49.305Z</time></trkpt><trkpt lat="58.165575" lon="14.20861833"><ele>123.0</ele><time>2016-06-18T07:50:50.295Z</time></trkpt><trkpt lat="58.165575" lon="14.20861833"><ele>123.0</ele><time>2016-06-18T07:50:51.292Z</time></trkpt><trkpt lat="58.165755" lon="14.20854333"><ele>123.0</ele><time>2016-06-18T07:50:52.288Z</time></trkpt><trkpt lat="58.165755" lon="14.20854333"><ele>123.0</ele><time>2016-06-18T07:50:53.301Z</time></trkpt><trkpt lat="58.16593667" lon="14.20845333"><ele>123.0</ele><time>2016-06-18T07:50:54.313Z</time></trkpt><trkpt lat="58.16593667" lon="14.20845333"><ele>123.0</ele><time>2016-06-18T07:50:55.296Z</time></trkpt><trkpt lat="58.16612" lon="14.20836667"><ele>123.0</ele><time>2016-06-18T07:50:56.291Z</time></trkpt><trkpt lat="58.16612" lon="14.20836667"><ele>123.0</ele><time>2016-06-18T07:50:57.299Z</time></trkpt><trkpt lat="58.16630833" lon="14.20828833"><ele>123.0</ele><time>2016-06-18T07:50:58.311Z</time></trkpt><trkpt lat="58.16630833" lon="14.20828833"><ele>123.0</ele><time>2016-06-18T07:50:59.295Z</time></trkpt><trkpt lat="58.16649333" lon="14.2082"><ele>123.0</ele><time>2016-06-18T07:51:00.298Z</time></trkpt><trkpt lat="58.16649333" lon="14.2082"><ele>123.0</ele><time>2016-06-18T07:51:01.300Z</time></trkpt><trkpt lat="58.16667833" lon="14.20811333"><ele>122.0</ele><time>2016-06-18T07:51:02.314Z</time></trkpt><trkpt lat="58.16667833" lon="14.20811333"><ele>122.0</ele><time>2016-06-18T07:51:03.299Z</time></trkpt><trkpt lat="58.16686167" lon="14.20803"><ele>122.0</ele><time>2016-06-18T07:51:04.313Z</time></trkpt><trkpt lat="58.16686167" lon="14.20803"><ele>122.0</ele><time>2016-06-18T07:51:05.294Z</time></trkpt><trkpt lat="58.16703833" lon="14.20794667"><ele>122.0</ele><time>2016-06-18T07:51:06.300Z</time></trkpt><trkpt lat="58.16703833" lon="14.20794667"><ele>122.0</ele><time>2016-06-18T07:51:07.283Z</time></trkpt><trkpt lat="58.167215" lon="14.20787"><ele>122.0</ele><time>2016-06-18T07:51:08.299Z</time></trkpt><trkpt lat="58.167215" lon="14.20787"><ele>122.0</ele><time>2016-06-18T07:51:09.309Z</time></trkpt><trkpt lat="58.16739833" lon="14.20780167"><ele>121.0</ele><time>2016-06-18T07:51:10.298Z</time></trkpt><trkpt lat="58.16739833" lon="14.20780167"><ele>121.0</ele><time>2016-06-18T07:51:11.296Z</time></trkpt><trkpt lat="58.16757667" lon="14.207725"><ele>121.0</ele><time>2016-06-18T07:51:12.289Z</time></trkpt><trkpt lat="58.16766333" lon="14.207685"><ele>121.0</ele><time>2016-06-18T07:51:13.292Z</time></trkpt><trkpt lat="58.16774833" lon="14.20764"><ele>121.0</ele><time>2016-06-18T07:51:14.315Z</time></trkpt><trkpt lat="58.16774833" lon="14.20764"><ele>121.0</ele><time>2016-06-18T07:51:15.315Z</time></trkpt><trkpt lat="58.16791833" lon="14.20755833"><ele>120.0</ele><time>2016-06-18T07:51:16.321Z</time></trkpt><trkpt lat="58.16791833" lon="14.20755833"><ele>120.0</ele><time>2016-06-18T07:51:17.312Z</time></trkpt><trkpt lat="58.168095" lon="14.20747667"><ele>120.0</ele><time>2016-06-18T07:51:18.320Z</time></trkpt><trkpt lat="58.168095" lon="14.20747667"><ele>120.0</ele><time>2016-06-18T07:51:19.290Z</time></trkpt><trkpt lat="58.16826333" lon="14.20738833"><ele>119.0</ele><time>2016-06-18T07:51:20.297Z</time></trkpt><trkpt lat="58.16826333" lon="14.20738833"><ele>119.0</ele><time>2016-06-18T07:51:21.319Z</time></trkpt><trkpt lat="58.16843333" lon="14.20729833"><ele>119.0</ele><time>2016-06-18T07:51:22.299Z</time></trkpt><trkpt lat="58.16843333" lon="14.20729833"><ele>119.0</ele><time>2016-06-18T07:51:23.295Z</time></trkpt><trkpt lat="58.16860833" lon="14.20722333"><ele>119.0</ele><time>2016-06-18T07:51:24.301Z</time></trkpt><trkpt lat="58.168695" lon="14.20718667"><ele>119.0</ele><time>2016-06-18T07:51:25.284Z</time></trkpt><trkpt lat="58.16878333" lon="14.20714833"><ele>119.0</ele><time>2016-06-18T07:51:26.310Z</time></trkpt><trkpt lat="58.16878333" lon="14.20714833"><ele>119.0</ele><time>2016-06-18T07:51:27.294Z</time></trkpt><trkpt lat="58.16896167" lon="14.20706333"><ele>119.0</ele><time>2016-06-18T07:51:28.301Z</time></trkpt><trkpt lat="58.16905167" lon="14.20702667"><ele>119.0</ele><time>2016-06-18T07:51:29.290Z</time></trkpt><trkpt lat="58.16905167" lon="14.20702667"><ele>119.0</ele><time>2016-06-18T07:51:30.312Z</time></trkpt><trkpt lat="58.16923333" lon="14.20695"><ele>119.0</ele><time>2016-06-18T07:51:31.319Z</time></trkpt><trkpt lat="58.16932333" lon="14.20691333"><ele>119.0</ele><time>2016-06-18T07:51:32.305Z</time></trkpt><trkpt lat="58.16932333" lon="14.20691333"><ele>119.0</ele><time>2016-06-18T07:51:33.289Z</time></trkpt><trkpt lat="58.16950167" lon="14.206835"><ele>119.0</ele><time>2016-06-18T07:51:34.295Z</time></trkpt><trkpt lat="58.16950167" lon="14.206835"><ele>119.0</ele><time>2016-06-18T07:51:35.318Z</time></trkpt><trkpt lat="58.16967833" lon="14.206745"><ele>119.0</ele><time>2016-06-18T07:51:36.318Z</time></trkpt><trkpt lat="58.16967833" lon="14.206745"><ele>119.0</ele><time>2016-06-18T07:51:37.284Z</time></trkpt><trkpt lat="58.16985333" lon="14.20666167"><ele>119.0</ele><time>2016-06-18T07:51:38.290Z</time></trkpt><trkpt lat="58.16985333" lon="14.20666167"><ele>119.0</ele><time>2016-06-18T07:51:39.311Z</time></trkpt><trkpt lat="58.17003167" lon="14.20658333"><ele>118.0</ele><time>2016-06-18T07:51:40.299Z</time></trkpt><trkpt lat="58.17003167" lon="14.20658333"><ele>118.0</ele><time>2016-06-18T07:51:41.318Z</time></trkpt><trkpt lat="58.17020667" lon="14.206495"><ele>119.0</ele><time>2016-06-18T07:51:42.285Z</time></trkpt><trkpt lat="58.17020667" lon="14.206495"><ele>119.0</ele><time>2016-06-18T07:51:43.317Z</time></trkpt><trkpt lat="58.17037833" lon="14.20640333"><ele>119.0</ele><time>2016-06-18T07:51:44.312Z</time></trkpt><trkpt lat="58.17037833" lon="14.20640333"><ele>119.0</ele><time>2016-06-18T07:51:45.318Z</time></trkpt><trkpt lat="58.17055167" lon="14.20632667"><ele>120.0</ele><time>2016-06-18T07:51:46.284Z</time></trkpt><trkpt lat="58.17064167" lon="14.20629167"><ele>119.0</ele><time>2016-06-18T07:51:47.284Z</time></trkpt><trkpt lat="58.17064167" lon="14.20629167"><ele>119.0</ele><time>2016-06-18T07:51:48.286Z</time></trkpt><trkpt lat="58.17082" lon="14.20621333"><ele>119.0</ele><time>2016-06-18T07:51:49.293Z</time></trkpt><trkpt lat="58.17091167" lon="14.20617333"><ele>120.0</ele><time>2016-06-18T07:51:50.298Z</time></trkpt><trkpt lat="58.17091167" lon="14.20617333"><ele>120.0</ele><time>2016-06-18T07:51:51.300Z</time></trkpt><trkpt lat="58.171095" lon="14.2061"><ele>120.0</ele><time>2016-06-18T07:51:52.319Z</time></trkpt><trkpt lat="58.171095" lon="14.2061"><ele>120.0</ele><time>2016-06-18T07:51:53.303Z</time></trkpt><trkpt lat="58.17128" lon="14.206025"><ele>120.0</ele><time>2016-06-18T07:51:54.316Z</time></trkpt><trkpt lat="58.17128" lon="14.206025"><ele>120.0</ele><time>2016-06-18T07:51:55.285Z</time></trkpt><trkpt lat="58.171465" lon="14.20595167"><ele>120.0</ele><time>2016-06-18T07:51:56.292Z</time></trkpt><trkpt lat="58.171465" lon="14.20595167"><ele>120.0</ele><time>2016-06-18T07:51:57.314Z</time></trkpt><trkpt lat="58.171655" lon="14.20589833"><ele>120.0</ele><time>2016-06-18T07:51:58.310Z</time></trkpt><trkpt lat="58.17174833" lon="14.20587333"><ele>120.0</ele><time>2016-06-18T07:51:59.319Z</time></trkpt><trkpt lat="58.17174833" lon="14.20587333"><ele>120.0</ele><time>2016-06-18T07:52:00.305Z</time></trkpt><trkpt lat="58.17193833" lon="14.20583167"><ele>120.0</ele><time>2016-06-18T07:52:01.288Z</time></trkpt><trkpt lat="58.17203167" lon="14.205815"><ele>120.0</ele><time>2016-06-18T07:52:02.314Z</time></trkpt><trkpt lat="58.17203167" lon="14.205815"><ele>120.0</ele><time>2016-06-18T07:52:03.296Z</time></trkpt><trkpt lat="58.17221167" lon="14.20578333"><ele>121.0</ele><time>2016-06-18T07:52:04.298Z</time></trkpt><trkpt lat="58.17221167" lon="14.20578333"><ele>121.0</ele><time>2016-06-18T07:52:05.310Z</time></trkpt><trkpt lat="58.17237667" lon="14.20574833"><ele>121.0</ele><time>2016-06-18T07:52:06.316Z</time></trkpt><trkpt lat="58.17237667" lon="14.20574833"><ele>121.0</ele><time>2016-06-18T07:52:07.289Z</time></trkpt><trkpt lat="58.17254333" lon="14.205715"><ele>122.0</ele><time>2016-06-18T07:52:08.315Z</time></trkpt><trkpt lat="58.17254333" lon="14.205715"><ele>122.0</ele><time>2016-06-18T07:52:09.283Z</time></trkpt><trkpt lat="58.17271" lon="14.20568833"><ele>123.0</ele><time>2016-06-18T07:52:10.289Z</time></trkpt><trkpt lat="58.17271" lon="14.20568833"><ele>123.0</ele><time>2016-06-18T07:52:11.292Z</time></trkpt><trkpt lat="58.17286667" lon="14.20565833"><ele>123.0</ele><time>2016-06-18T07:52:12.291Z</time></trkpt><trkpt lat="58.17286667" lon="14.20565833"><ele>123.0</ele><time>2016-06-18T07:52:13.311Z</time></trkpt><trkpt lat="58.17302333" lon="14.20563667"><ele>124.0</ele><time>2016-06-18T07:52:14.318Z</time></trkpt><trkpt lat="58.17310333" lon="14.205625"><ele>124.0</ele><time>2016-06-18T07:52:15.298Z</time></trkpt><trkpt lat="58.17310333" lon="14.205625"><ele>124.0</ele><time>2016-06-18T07:52:16.310Z</time></trkpt><trkpt lat="58.173265" lon="14.205595"><ele>124.0</ele><time>2016-06-18T07:52:17.317Z</time></trkpt><trkpt lat="58.173265" lon="14.205595"><ele>124.0</ele><time>2016-06-18T07:52:18.300Z</time></trkpt><trkpt lat="58.17342833" lon="14.20556333"><ele>122.0</ele><time>2016-06-18T07:52:19.308Z</time></trkpt><trkpt lat="58.17351" lon="14.20555"><ele>123.0</ele><time>2016-06-18T07:52:20.307Z</time></trkpt><trkpt lat="58.17351" lon="14.20555"><ele>123.0</ele><time>2016-06-18T07:52:21.290Z</time></trkpt><trkpt lat="58.17367833" lon="14.20551667"><ele>123.0</ele><time>2016-06-18T07:52:22.317Z</time></trkpt><trkpt lat="58.17367833" lon="14.20551667"><ele>123.0</ele><time>2016-06-18T07:52:23.283Z</time></trkpt><trkpt lat="58.17384333" lon="14.20548"><ele>124.0</ele><time>2016-06-18T07:52:24.293Z</time></trkpt><trkpt lat="58.173925" lon="14.20546"><ele>124.0</ele><time>2016-06-18T07:52:25.305Z</time></trkpt><trkpt lat="58.173925" lon="14.20546"><ele>124.0</ele><time>2016-06-18T07:52:26.286Z</time></trkpt><trkpt lat="58.17409167" lon="14.20542333"><ele>123.0</ele><time>2016-06-18T07:52:27.297Z</time></trkpt><trkpt lat="58.17409167" lon="14.20542333"><ele>123.0</ele><time>2016-06-18T07:52:28.292Z</time></trkpt><trkpt lat="58.17426667" lon="14.20539167"><ele>123.0</ele><time>2016-06-18T07:52:29.299Z</time></trkpt><trkpt lat="58.17435667" lon="14.20537333"><ele>123.0</ele><time>2016-06-18T07:52:30.298Z</time></trkpt><trkpt lat="58.17435667" lon="14.20537333"><ele>123.0</ele><time>2016-06-18T07:52:31.310Z</time></trkpt><trkpt lat="58.17455" lon="14.20533833"><ele>122.0</ele><time>2016-06-18T07:52:32.317Z</time></trkpt><trkpt lat="58.17455" lon="14.20533833"><ele>122.0</ele><time>2016-06-18T07:52:33.300Z</time></trkpt><trkpt lat="58.17474667" lon="14.20529333"><ele>121.0</ele><time>2016-06-18T07:52:34.317Z</time></trkpt><trkpt lat="58.17474667" lon="14.20529333"><ele>121.0</ele><time>2016-06-18T07:52:35.286Z</time></trkpt><trkpt lat="58.174955" lon="14.20525167"><ele>122.0</ele><time>2016-06-18T07:52:36.293Z</time></trkpt><trkpt lat="58.17505833" lon="14.20523"><ele>122.0</ele><time>2016-06-18T07:52:37.326Z</time></trkpt><trkpt lat="58.17516167" lon="14.20520667"><ele>122.0</ele><time>2016-06-18T07:52:38.285Z</time></trkpt><trkpt lat="58.17516167" lon="14.20520667"><ele>122.0</ele><time>2016-06-18T07:52:39.297Z</time></trkpt><trkpt lat="58.17536667" lon="14.20515833"><ele>121.0</ele><time>2016-06-18T07:52:40.328Z</time></trkpt><trkpt lat="58.17536667" lon="14.20515833"><ele>121.0</ele><time>2016-06-18T07:52:41.321Z</time></trkpt><trkpt lat="58.17557667" lon="14.20511333"><ele>121.0</ele><time>2016-06-18T07:52:42.287Z</time></trkpt><trkpt lat="58.17557667" lon="14.20511333"><ele>121.0</ele><time>2016-06-18T07:52:43.286Z</time></trkpt><trkpt lat="58.17578333" lon="14.20507"><ele>122.0</ele><time>2016-06-18T07:52:44.290Z</time></trkpt><trkpt lat="58.17578333" lon="14.20507"><ele>122.0</ele><time>2016-06-18T07:52:45.301Z</time></trkpt><trkpt lat="58.17598667" lon="14.20502667"><ele>122.0</ele><time>2016-06-18T07:52:46.311Z</time></trkpt><trkpt lat="58.17598667" lon="14.20502667"><ele>122.0</ele><time>2016-06-18T07:52:47.297Z</time></trkpt><trkpt lat="58.17618333" lon="14.204985"><ele>122.0</ele><time>2016-06-18T07:52:48.288Z</time></trkpt><trkpt lat="58.17618333" lon="14.204985"><ele>122.0</ele><time>2016-06-18T07:52:49.296Z</time></trkpt><trkpt lat="58.17637667" lon="14.20493833"><ele>122.0</ele><time>2016-06-18T07:52:50.315Z</time></trkpt><trkpt lat="58.17637667" lon="14.20493833"><ele>122.0</ele><time>2016-06-18T07:52:51.288Z</time></trkpt><trkpt lat="58.17656833" lon="14.20489667"><ele>122.0</ele><time>2016-06-18T07:52:52.295Z</time></trkpt><trkpt lat="58.17666333" lon="14.204875"><ele>122.0</ele><time>2016-06-18T07:52:53.288Z</time></trkpt><trkpt lat="58.17666333" lon="14.204875"><ele>122.0</ele><time>2016-06-18T07:52:54.305Z</time></trkpt><trkpt lat="58.17684333" lon="14.20483833"><ele>123.0</ele><time>2016-06-18T07:52:55.317Z</time></trkpt><trkpt lat="58.17693" lon="14.20481667"><ele>123.0</ele><time>2016-06-18T07:52:56.306Z</time></trkpt><trkpt lat="58.17693" lon="14.20481667"><ele>123.0</ele><time>2016-06-18T07:52:57.322Z</time></trkpt><trkpt lat="58.17709667" lon="14.20477"><ele>122.0</ele><time>2016-06-18T07:52:58.288Z</time></trkpt><trkpt lat="58.17718" lon="14.20475"><ele>121.0</ele><time>2016-06-18T07:52:59.315Z</time></trkpt><trkpt lat="58.17726" lon="14.20473"><ele>121.0</ele><time>2016-06-18T07:53:00.307Z</time></trkpt><trkpt lat="58.17726" lon="14.20473"><ele>121.0</ele><time>2016-06-18T07:53:01.302Z</time></trkpt><trkpt lat="58.17742" lon="14.204695"><ele>122.0</ele><time>2016-06-18T07:53:02.313Z</time></trkpt><trkpt lat="58.17742" lon="14.204695"><ele>122.0</ele><time>2016-06-18T07:53:03.297Z</time></trkpt><trkpt lat="58.17757333" lon="14.20467333"><ele>122.0</ele><time>2016-06-18T07:53:04.309Z</time></trkpt><trkpt lat="58.17757333" lon="14.20467333"><ele>122.0</ele><time>2016-06-18T07:53:05.311Z</time></trkpt><trkpt lat="58.17772" lon="14.204645"><ele>123.0</ele><time>2016-06-18T07:53:06.321Z</time></trkpt><trkpt lat="58.17772" lon="14.204645"><ele>123.0</ele><time>2016-06-18T07:53:07.303Z</time></trkpt><trkpt lat="58.177865" lon="14.20461"><ele>122.0</ele><time>2016-06-18T07:53:08.309Z</time></trkpt><trkpt lat="58.177865" lon="14.20461"><ele>122.0</ele><time>2016-06-18T07:53:09.314Z</time></trkpt><trkpt lat="58.17800833" lon="14.20456"><ele>121.0</ele><time>2016-06-18T07:53:10.320Z</time></trkpt><trkpt lat="58.17808333" lon="14.20453667"><ele>121.0</ele><time>2016-06-18T07:53:11.303Z</time></trkpt><trkpt lat="58.17808333" lon="14.20453667"><ele>121.0</ele><time>2016-06-18T07:53:12.311Z</time></trkpt><trkpt lat="58.17823667" lon="14.204485"><ele>120.0</ele><time>2016-06-18T07:53:13.288Z</time></trkpt><trkpt lat="58.17831333" lon="14.20445667"><ele>120.0</ele><time>2016-06-18T07:53:14.307Z</time></trkpt><trkpt lat="58.17831333" lon="14.20445667"><ele>120.0</ele><time>2016-06-18T07:53:15.314Z</time></trkpt><trkpt lat="58.17847" lon="14.204395"><ele>120.0</ele><time>2016-06-18T07:53:16.289Z</time></trkpt><trkpt lat="58.17855" lon="14.204365"><ele>120.0</ele><time>2016-06-18T07:53:17.291Z</time></trkpt><trkpt lat="58.17855" lon="14.204365"><ele>120.0</ele><time>2016-06-18T07:53:18.314Z</time></trkpt><trkpt lat="58.17871" lon="14.20430667"><ele>120.0</ele><time>2016-06-18T07:53:19.308Z</time></trkpt><trkpt lat="58.17878833" lon="14.20427833"><ele>120.0</ele><time>2016-06-18T07:53:20.316Z</time></trkpt><trkpt lat="58.17878833" lon="14.20427833"><ele>120.0</ele><time>2016-06-18T07:53:21.300Z</time></trkpt><trkpt lat="58.17894667" lon="14.20423167"><ele>120.0</ele><time>2016-06-18T07:53:22.318Z</time></trkpt><trkpt lat="58.17894667" lon="14.20423167"><ele>120.0</ele><time>2016-06-18T07:53:23.320Z</time></trkpt><trkpt lat="58.17909" lon="14.20417"><ele>120.0</ele><time>2016-06-18T07:53:24.289Z</time></trkpt><trkpt lat="58.17909" lon="14.20417"><ele>120.0</ele><time>2016-06-18T07:53:25.310Z</time></trkpt><trkpt lat="58.17924" lon="14.20412"><ele>120.0</ele><time>2016-06-18T07:53:26.310Z</time></trkpt><trkpt lat="58.17924" lon="14.20412"><ele>120.0</ele><time>2016-06-18T07:53:27.301Z</time></trkpt><trkpt lat="58.17937833" lon="14.20406"><ele>120.0</ele><time>2016-06-18T07:53:28.309Z</time></trkpt><trkpt lat="58.17945667" lon="14.20403667"><ele>121.0</ele><time>2016-06-18T07:53:29.302Z</time></trkpt><trkpt lat="58.17945667" lon="14.20403667"><ele>121.0</ele><time>2016-06-18T07:53:30.311Z</time></trkpt><trkpt lat="58.17960333" lon="14.20398"><ele>122.0</ele><time>2016-06-18T07:53:31.318Z</time></trkpt><trkpt lat="58.17968" lon="14.20395333"><ele>123.0</ele><time>2016-06-18T07:53:32.301Z</time></trkpt><trkpt lat="58.17968" lon="14.20395333"><ele>123.0</ele><time>2016-06-18T07:53:33.312Z</time></trkpt><trkpt lat="58.17983333" lon="14.20389167"><ele>122.0</ele><time>2016-06-18T07:53:34.319Z</time></trkpt><trkpt lat="58.17990833" lon="14.20387"><ele>122.0</ele><time>2016-06-18T07:53:35.322Z</time></trkpt><trkpt lat="58.17990833" lon="14.20387"><ele>122.0</ele><time>2016-06-18T07:53:36.286Z</time></trkpt><trkpt lat="58.180065" lon="14.20382333"><ele>123.0</ele><time>2016-06-18T07:53:37.296Z</time></trkpt><trkpt lat="58.18014333" lon="14.20380167"><ele>123.0</ele><time>2016-06-18T07:53:38.288Z</time></trkpt><trkpt lat="58.18014333" lon="14.20380167"><ele>123.0</ele><time>2016-06-18T07:53:39.300Z</time></trkpt><trkpt lat="58.18031167" lon="14.20376167"><ele>124.0</ele><time>2016-06-18T07:53:40.314Z</time></trkpt><trkpt lat="58.18039333" lon="14.20374167"><ele>124.0</ele><time>2016-06-18T07:53:41.308Z</time></trkpt><trkpt lat="58.18039333" lon="14.20374167"><ele>124.0</ele><time>2016-06-18T07:53:42.288Z</time></trkpt><trkpt lat="58.18055667" lon="14.20369833"><ele>125.0</ele><time>2016-06-18T07:53:43.300Z</time></trkpt><trkpt lat="58.18055667" lon="14.20369833"><ele>125.0</ele><time>2016-06-18T07:53:44.286Z</time></trkpt><trkpt lat="58.18071333" lon="14.203635"><ele>125.0</ele><time>2016-06-18T07:53:45.308Z</time></trkpt><trkpt lat="58.18071333" lon="14.203635"><ele>125.0</ele><time>2016-06-18T07:53:46.313Z</time></trkpt><trkpt lat="58.18087667" lon="14.20356167"><ele>124.0</ele><time>2016-06-18T07:53:47.321Z</time></trkpt><trkpt lat="58.18087667" lon="14.20356167"><ele>124.0</ele><time>2016-06-18T07:53:48.304Z</time></trkpt><trkpt lat="58.18104" lon="14.20351"><ele>125.0</ele><time>2016-06-18T07:53:49.288Z</time></trkpt><trkpt lat="58.18112167" lon="14.20347667"><ele>125.0</ele><time>2016-06-18T07:53:50.302Z</time></trkpt><trkpt lat="58.18112167" lon="14.20347667"><ele>125.0</ele><time>2016-06-18T07:53:51.286Z</time></trkpt><trkpt lat="58.181295" lon="14.20342667"><ele>126.0</ele><time>2016-06-18T07:53:52.306Z</time></trkpt><trkpt lat="58.181295" lon="14.20342667"><ele>126.0</ele><time>2016-06-18T07:53:53.285Z</time></trkpt><trkpt lat="58.18146167" lon="14.203375"><ele>127.0</ele><time>2016-06-18T07:53:54.299Z</time></trkpt><trkpt lat="58.18153833" lon="14.20334167"><ele>128.0</ele><time>2016-06-18T07:53:55.300Z</time></trkpt><trkpt lat="58.18161667" lon="14.20330833"><ele>128.0</ele><time>2016-06-18T07:53:56.311Z</time></trkpt><trkpt lat="58.18161667" lon="14.20330833"><ele>128.0</ele><time>2016-06-18T07:53:57.294Z</time></trkpt><trkpt lat="58.18178333" lon="14.20325667"><ele>130.0</ele><time>2016-06-18T07:53:58.308Z</time></trkpt><trkpt lat="58.18186167" lon="14.20322833"><ele>130.0</ele><time>2016-06-18T07:53:59.291Z</time></trkpt><trkpt lat="58.18186167" lon="14.20322833"><ele>130.0</ele><time>2016-06-18T07:54:00.316Z</time></trkpt><trkpt lat="58.182025" lon="14.20316833"><ele>130.0</ele><time>2016-06-18T07:54:01.292Z</time></trkpt><trkpt lat="58.18210667" lon="14.20314"><ele>131.0</ele><time>2016-06-18T07:54:02.298Z</time></trkpt><trkpt lat="58.18210667" lon="14.20314"><ele>131.0</ele><time>2016-06-18T07:54:03.320Z</time></trkpt><trkpt lat="58.18227667" lon="14.20309333"><ele>132.0</ele><time>2016-06-18T07:54:04.286Z</time></trkpt><trkpt lat="58.18236333" lon="14.20307167"><ele>132.0</ele><time>2016-06-18T07:54:05.316Z</time></trkpt><trkpt lat="58.18236333" lon="14.20307167"><ele>132.0</ele><time>2016-06-18T07:54:06.296Z</time></trkpt><trkpt lat="58.18252667" lon="14.20300833"><ele>131.0</ele><time>2016-06-18T07:54:07.303Z</time></trkpt><trkpt lat="58.182605" lon="14.20297167"><ele>130.0</ele><time>2016-06-18T07:54:08.291Z</time></trkpt><trkpt lat="58.182605" lon="14.20297167"><ele>130.0</ele><time>2016-06-18T07:54:09.313Z</time></trkpt><trkpt lat="58.182765" lon="14.20292333"><ele>131.0</ele><time>2016-06-18T07:54:10.284Z</time></trkpt><trkpt lat="58.182765" lon="14.20292333"><ele>131.0</ele><time>2016-06-18T07:54:11.318Z</time></trkpt><trkpt lat="58.18292333" lon="14.20288"><ele>131.0</ele><time>2016-06-18T07:54:12.282Z</time></trkpt><trkpt lat="58.18292333" lon="14.20288"><ele>131.0</ele><time>2016-06-18T07:54:13.303Z</time></trkpt><trkpt lat="58.18309167" lon="14.20283833"><ele>129.0</ele><time>2016-06-18T07:54:14.296Z</time></trkpt><trkpt lat="58.18309167" lon="14.20283833"><ele>129.0</ele><time>2016-06-18T07:54:15.320Z</time></trkpt><trkpt lat="58.18325667" lon="14.20279833"><ele>127.0</ele><time>2016-06-18T07:54:16.286Z</time></trkpt><trkpt lat="58.18333833" lon="14.20278333"><ele>127.0</ele><time>2016-06-18T07:54:17.311Z</time></trkpt><trkpt lat="58.18333833" lon="14.20278333"><ele>127.0</ele><time>2016-06-18T07:54:18.321Z</time></trkpt><trkpt lat="58.183505" lon="14.20275833"><ele>127.0</ele><time>2016-06-18T07:54:19.307Z</time></trkpt><trkpt lat="58.183505" lon="14.20275833"><ele>127.0</ele><time>2016-06-18T07:54:20.314Z</time></trkpt><trkpt lat="58.18367667" lon="14.20273"><ele>126.0</ele><time>2016-06-18T07:54:21.284Z</time></trkpt><trkpt lat="58.18367667" lon="14.20273"><ele>126.0</ele><time>2016-06-18T07:54:22.311Z</time></trkpt><trkpt lat="58.183845" lon="14.20271833"><ele>126.0</ele><time>2016-06-18T07:54:23.298Z</time></trkpt><trkpt lat="58.183845" lon="14.20271833"><ele>126.0</ele><time>2016-06-18T07:54:24.290Z</time></trkpt><trkpt lat="58.18401833" lon="14.20270667"><ele>124.0</ele><time>2016-06-18T07:54:25.297Z</time></trkpt><trkpt lat="58.18410667" lon="14.202705"><ele>124.0</ele><time>2016-06-18T07:54:26.309Z</time></trkpt><trkpt lat="58.18410667" lon="14.202705"><ele>124.0</ele><time>2016-06-18T07:54:27.301Z</time></trkpt><trkpt lat="58.18428833" lon="14.2027"><ele>123.0</ele><time>2016-06-18T07:54:28.308Z</time></trkpt><trkpt lat="58.18428833" lon="14.2027"><ele>123.0</ele><time>2016-06-18T07:54:29.295Z</time></trkpt><trkpt lat="58.18447" lon="14.20269333"><ele>123.0</ele><time>2016-06-18T07:54:30.288Z</time></trkpt><trkpt lat="58.18447" lon="14.20269333"><ele>123.0</ele><time>2016-06-18T07:54:31.285Z</time></trkpt><trkpt lat="58.18464833" lon="14.20269833"><ele>123.0</ele><time>2016-06-18T07:54:32.292Z</time></trkpt><trkpt lat="58.18464833" lon="14.20269833"><ele>123.0</ele><time>2016-06-18T07:54:33.314Z</time></trkpt><trkpt lat="58.18484167" lon="14.20270333"><ele>123.0</ele><time>2016-06-18T07:54:34.284Z</time></trkpt><trkpt lat="58.18493167" lon="14.20270167"><ele>124.0</ele><time>2016-06-18T07:54:35.288Z</time></trkpt><trkpt lat="58.18493167" lon="14.20270167"><ele>124.0</ele><time>2016-06-18T07:54:36.311Z</time></trkpt><trkpt lat="58.18511333" lon="14.202695"><ele>125.0</ele><time>2016-06-18T07:54:37.286Z</time></trkpt><trkpt lat="58.18520333" lon="14.20269"><ele>126.0</ele><time>2016-06-18T07:54:38.291Z</time></trkpt><trkpt lat="58.18520333" lon="14.20269"><ele>126.0</ele><time>2016-06-18T07:54:39.315Z</time></trkpt><trkpt lat="58.18537833" lon="14.20268"><ele>127.0</ele><time>2016-06-18T07:54:40.309Z</time></trkpt><trkpt lat="58.18537833" lon="14.20268"><ele>127.0</ele><time>2016-06-18T07:54:41.283Z</time></trkpt><trkpt lat="58.18555333" lon="14.20267667"><ele>128.0</ele><time>2016-06-18T07:54:42.290Z</time></trkpt><trkpt lat="58.18563833" lon="14.20266833"><ele>128.0</ele><time>2016-06-18T07:54:43.288Z</time></trkpt><trkpt lat="58.18572333" lon="14.20266167"><ele>128.0</ele><time>2016-06-18T07:54:44.304Z</time></trkpt><trkpt lat="58.18572333" lon="14.20266167"><ele>128.0</ele><time>2016-06-18T07:54:45.291Z</time></trkpt><trkpt lat="58.18588833" lon="14.202645"><ele>128.0</ele><time>2016-06-18T07:54:46.297Z</time></trkpt><trkpt lat="58.18588833" lon="14.202645"><ele>128.0</ele><time>2016-06-18T07:54:47.320Z</time></trkpt><trkpt lat="58.186045" lon="14.202635"><ele>129.0</ele><time>2016-06-18T07:54:48.287Z</time></trkpt><trkpt lat="58.18612167" lon="14.20263667"><ele>129.0</ele><time>2016-06-18T07:54:49.297Z</time></trkpt><trkpt lat="58.18612167" lon="14.20263667"><ele>129.0</ele><time>2016-06-18T07:54:50.318Z</time></trkpt><trkpt lat="58.186265" lon="14.20263333"><ele>129.0</ele><time>2016-06-18T07:54:51.292Z</time></trkpt><trkpt lat="58.186265" lon="14.20263333"><ele>129.0</ele><time>2016-06-18T07:54:52.290Z</time></trkpt><trkpt lat="58.18640833" lon="14.20265"><ele>129.0</ele><time>2016-06-18T07:54:53.300Z</time></trkpt><trkpt lat="58.18640833" lon="14.20265"><ele>129.0</ele><time>2016-06-18T07:54:54.319Z</time></trkpt><trkpt lat="58.18656167" lon="14.20266"><ele>127.0</ele><time>2016-06-18T07:54:55.309Z</time></trkpt><trkpt lat="58.186655" lon="14.20265"><ele>126.0</ele><time>2016-06-18T07:54:56.292Z</time></trkpt><trkpt lat="58.186655" lon="14.20265"><ele>126.0</ele><time>2016-06-18T07:54:57.315Z</time></trkpt><trkpt lat="58.186805" lon="14.202655"><ele>125.0</ele><time>2016-06-18T07:54:58.282Z</time></trkpt><trkpt lat="58.186875" lon="14.202665"><ele>126.0</ele><time>2016-06-18T07:54:59.308Z</time></trkpt><trkpt lat="58.186875" lon="14.202665"><ele>126.0</ele><time>2016-06-18T07:55:00.302Z</time></trkpt><trkpt lat="58.18702" lon="14.20268"><ele>126.0</ele><time>2016-06-18T07:55:01.316Z</time></trkpt><trkpt lat="58.18709833" lon="14.20269"><ele>125.0</ele><time>2016-06-18T07:55:02.311Z</time></trkpt><trkpt lat="58.18717833" lon="14.202705"><ele>125.0</ele><time>2016-06-18T07:55:03.319Z</time></trkpt><trkpt lat="58.18717833" lon="14.202705"><ele>125.0</ele><time>2016-06-18T07:55:04.304Z</time></trkpt><trkpt lat="58.18734" lon="14.20272833"><ele>124.0</ele><time>2016-06-18T07:55:05.321Z</time></trkpt><trkpt lat="58.18734" lon="14.20272833"><ele>124.0</ele><time>2016-06-18T07:55:06.314Z</time></trkpt><trkpt lat="58.18750167" lon="14.20275"><ele>124.0</ele><time>2016-06-18T07:55:07.320Z</time></trkpt><trkpt lat="58.18750167" lon="14.20275"><ele>124.0</ele><time>2016-06-18T07:55:08.295Z</time></trkpt><trkpt lat="58.18766833" lon="14.20277833"><ele>123.0</ele><time>2016-06-18T07:55:09.320Z</time></trkpt><trkpt lat="58.18766833" lon="14.20277833"><ele>123.0</ele><time>2016-06-18T07:55:10.318Z</time></trkpt><trkpt lat="58.187835" lon="14.202815"><ele>123.0</ele><time>2016-06-18T07:55:11.287Z</time></trkpt><trkpt lat="58.18792" lon="14.20283167"><ele>123.0</ele><time>2016-06-18T07:55:12.304Z</time></trkpt><trkpt lat="58.18792" lon="14.20283167"><ele>123.0</ele><time>2016-06-18T07:55:13.321Z</time></trkpt><trkpt lat="58.18809333" lon="14.20286833"><ele>123.0</ele><time>2016-06-18T07:55:14.292Z</time></trkpt><trkpt lat="58.18809333" lon="14.20286833"><ele>123.0</ele><time>2016-06-18T07:55:15.289Z</time></trkpt><trkpt lat="58.18827167" lon="14.20291333"><ele>122.0</ele><time>2016-06-18T07:55:16.300Z</time></trkpt><trkpt lat="58.18827167" lon="14.20291333"><ele>122.0</ele><time>2016-06-18T07:55:17.283Z</time></trkpt><trkpt lat="58.18845167" lon="14.20297"><ele>122.0</ele><time>2016-06-18T07:55:18.305Z</time></trkpt><trkpt lat="58.18845167" lon="14.20297"><ele>122.0</ele><time>2016-06-18T07:55:19.298Z</time></trkpt><trkpt lat="58.188635" lon="14.203025"><ele>122.0</ele><time>2016-06-18T07:55:20.306Z</time></trkpt><trkpt lat="58.18872833" lon="14.203055"><ele>122.0</ele><time>2016-06-18T07:55:21.296Z</time></trkpt><trkpt lat="58.18872833" lon="14.203055"><ele>122.0</ele><time>2016-06-18T07:55:22.302Z</time></trkpt><trkpt lat="58.18891167" lon="14.20312167"><ele>121.0</ele><time>2016-06-18T07:55:23.312Z</time></trkpt><trkpt lat="58.18891167" lon="14.20312167"><ele>121.0</ele><time>2016-06-18T07:55:24.295Z</time></trkpt><trkpt lat="58.18910167" lon="14.20319333"><ele>121.0</ele><time>2016-06-18T07:55:25.320Z</time></trkpt><trkpt lat="58.18910167" lon="14.20319333"><ele>121.0</ele><time>2016-06-18T07:55:26.285Z</time></trkpt><trkpt lat="58.18929167" lon="14.203265"><ele>121.0</ele><time>2016-06-18T07:55:27.293Z</time></trkpt><trkpt lat="58.18929167" lon="14.203265"><ele>121.0</ele><time>2016-06-18T07:55:28.314Z</time></trkpt><trkpt lat="58.18948667" lon="14.20335"><ele>120.0</ele><time>2016-06-18T07:55:29.302Z</time></trkpt><trkpt lat="58.18948667" lon="14.20335"><ele>120.0</ele><time>2016-06-18T07:55:30.305Z</time></trkpt><trkpt lat="58.189685" lon="14.20344667"><ele>120.0</ele><time>2016-06-18T07:55:31.312Z</time></trkpt><trkpt lat="58.189785" lon="14.20349667"><ele>120.0</ele><time>2016-06-18T07:55:32.307Z</time></trkpt><trkpt lat="58.18988333" lon="14.20354667"><ele>120.0</ele><time>2016-06-18T07:55:33.302Z</time></trkpt><trkpt lat="58.18988333" lon="14.20354667"><ele>120.0</ele><time>2016-06-18T07:55:34.287Z</time></trkpt><trkpt lat="58.19007833" lon="14.20364"><ele>120.0</ele><time>2016-06-18T07:55:35.308Z</time></trkpt><trkpt lat="58.19007833" lon="14.20364"><ele>120.0</ele><time>2016-06-18T07:55:36.293Z</time></trkpt><trkpt lat="58.190275" lon="14.20374333"><ele>120.0</ele><time>2016-06-18T07:55:37.300Z</time></trkpt><trkpt lat="58.19037667" lon="14.20379"><ele>120.0</ele><time>2016-06-18T07:55:38.290Z</time></trkpt><trkpt lat="58.19037667" lon="14.20379"><ele>120.0</ele><time>2016-06-18T07:55:39.292Z</time></trkpt><trkpt lat="58.19058" lon="14.20389333"><ele>120.0</ele><time>2016-06-18T07:55:40.299Z</time></trkpt><trkpt lat="58.19068" lon="14.20394333"><ele>120.0</ele><time>2016-06-18T07:55:41.310Z</time></trkpt><trkpt lat="58.19068" lon="14.20394333"><ele>120.0</ele><time>2016-06-18T07:55:42.314Z</time></trkpt><trkpt lat="58.190885" lon="14.20404833"><ele>120.0</ele><time>2016-06-18T07:55:43.318Z</time></trkpt><trkpt lat="58.190985" lon="14.2041"><ele>120.0</ele><time>2016-06-18T07:55:44.302Z</time></trkpt><trkpt lat="58.19108833" lon="14.20415333"><ele>120.0</ele><time>2016-06-18T07:55:45.319Z</time></trkpt><trkpt lat="58.19108833" lon="14.20415333"><ele>120.0</ele><time>2016-06-18T07:55:46.314Z</time></trkpt><trkpt lat="58.19128833" lon="14.20425667"><ele>120.0</ele><time>2016-06-18T07:55:47.321Z</time></trkpt><trkpt lat="58.19128833" lon="14.20425667"><ele>120.0</ele><time>2016-06-18T07:55:48.306Z</time></trkpt><trkpt lat="58.19149333" lon="14.20436667"><ele>120.0</ele><time>2016-06-18T07:55:49.308Z</time></trkpt><trkpt lat="58.19149333" lon="14.20436667"><ele>120.0</ele><time>2016-06-18T07:55:50.293Z</time></trkpt><trkpt lat="58.19169833" lon="14.20447167"><ele>120.0</ele><time>2016-06-18T07:55:51.300Z</time></trkpt><trkpt lat="58.19169833" lon="14.20447167"><ele>120.0</ele><time>2016-06-18T07:55:52.321Z</time></trkpt><trkpt lat="58.19190667" lon="14.20458167"><ele>119.0</ele><time>2016-06-18T07:55:53.287Z</time></trkpt><trkpt lat="58.19190667" lon="14.20458167"><ele>119.0</ele><time>2016-06-18T07:55:54.297Z</time></trkpt><trkpt lat="58.192115" lon="14.20469"><ele>119.0</ele><time>2016-06-18T07:55:55.304Z</time></trkpt><trkpt lat="58.192215" lon="14.20473667"><ele>120.0</ele><time>2016-06-18T07:55:56.293Z</time></trkpt><trkpt lat="58.192215" lon="14.20473667"><ele>120.0</ele><time>2016-06-18T07:55:57.301Z</time></trkpt><trkpt lat="58.192405" lon="14.20483"><ele>120.0</ele><time>2016-06-18T07:55:58.316Z</time></trkpt><trkpt lat="58.19249167" lon="14.204875"><ele>120.0</ele><time>2016-06-18T07:55:59.308Z</time></trkpt><trkpt lat="58.19249167" lon="14.204875"><ele>120.0</ele><time>2016-06-18T07:56:00.314Z</time></trkpt><trkpt lat="58.19267" lon="14.20497"><ele>121.0</ele><time>2016-06-18T07:56:01.282Z</time></trkpt><trkpt lat="58.19276667" lon="14.20502667"><ele>121.0</ele><time>2016-06-18T07:56:02.321Z</time></trkpt><trkpt lat="58.19286167" lon="14.20508333"><ele>122.0</ele><time>2016-06-18T07:56:03.287Z</time></trkpt><trkpt lat="58.19286167" lon="14.20508333"><ele>122.0</ele><time>2016-06-18T07:56:04.316Z</time></trkpt><trkpt lat="58.19305333" lon="14.20518667"><ele>123.0</ele><time>2016-06-18T07:56:05.302Z</time></trkpt><trkpt lat="58.19315" lon="14.20523333"><ele>123.0</ele><time>2016-06-18T07:56:06.290Z</time></trkpt><trkpt lat="58.19315" lon="14.20523333"><ele>123.0</ele><time>2016-06-18T07:56:07.313Z</time></trkpt><trkpt lat="58.193345" lon="14.20533"><ele>123.0</ele><time>2016-06-18T07:56:08.289Z</time></trkpt><trkpt lat="58.19344333" lon="14.20538167"><ele>123.0</ele><time>2016-06-18T07:56:09.296Z</time></trkpt><trkpt lat="58.19344333" lon="14.20538167"><ele>123.0</ele><time>2016-06-18T07:56:10.319Z</time></trkpt><trkpt lat="58.193635" lon="14.20548"><ele>123.0</ele><time>2016-06-18T07:56:11.289Z</time></trkpt><trkpt lat="58.193635" lon="14.20548"><ele>123.0</ele><time>2016-06-18T07:56:12.295Z</time></trkpt><trkpt lat="58.19382667" lon="14.20558333"><ele>123.0</ele><time>2016-06-18T07:56:13.302Z</time></trkpt><trkpt lat="58.19392167" lon="14.205635"><ele>123.0</ele><time>2016-06-18T07:56:14.284Z</time></trkpt><trkpt lat="58.19392167" lon="14.205635"><ele>123.0</ele><time>2016-06-18T07:56:15.306Z</time></trkpt><trkpt lat="58.19410333" lon="14.20573"><ele>123.0</ele><time>2016-06-18T07:56:16.315Z</time></trkpt><trkpt lat="58.194195" lon="14.20578"><ele>124.0</ele><time>2016-06-18T07:56:17.299Z</time></trkpt><trkpt lat="58.194195" lon="14.20578"><ele>124.0</ele><time>2016-06-18T07:56:18.312Z</time></trkpt><trkpt lat="58.194375" lon="14.20588"><ele>124.0</ele><time>2016-06-18T07:56:19.319Z</time></trkpt><trkpt lat="58.19446667" lon="14.20593167"><ele>125.0</ele><time>2016-06-18T07:56:20.309Z</time></trkpt><trkpt lat="58.19446667" lon="14.20593167"><ele>125.0</ele><time>2016-06-18T07:56:21.284Z</time></trkpt><trkpt lat="58.19465333" lon="14.20602833"><ele>125.0</ele><time>2016-06-18T07:56:22.293Z</time></trkpt><trkpt lat="58.19465333" lon="14.20602833"><ele>125.0</ele><time>2016-06-18T07:56:23.313Z</time></trkpt><trkpt lat="58.194835" lon="14.20610167"><ele>125.0</ele><time>2016-06-18T07:56:24.322Z</time></trkpt><trkpt lat="58.194835" lon="14.20610167"><ele>125.0</ele><time>2016-06-18T07:56:25.297Z</time></trkpt><trkpt lat="58.195005" lon="14.20617833"><ele>125.0</ele><time>2016-06-18T07:56:26.296Z</time></trkpt><trkpt lat="58.19509" lon="14.20621833"><ele>126.0</ele><time>2016-06-18T07:56:27.308Z</time></trkpt><trkpt lat="58.19509" lon="14.20621833"><ele>126.0</ele><time>2016-06-18T07:56:28.319Z</time></trkpt><trkpt lat="58.19526" lon="14.20630667"><ele>126.0</ele><time>2016-06-18T07:56:29.286Z</time></trkpt><trkpt lat="58.19526" lon="14.20630667"><ele>126.0</ele><time>2016-06-18T07:56:30.320Z</time></trkpt><trkpt lat="58.19542833" lon="14.206385"><ele>126.0</ele><time>2016-06-18T07:56:31.322Z</time></trkpt><trkpt lat="58.19542833" lon="14.206385"><ele>126.0</ele><time>2016-06-18T07:56:32.318Z</time></trkpt><trkpt lat="58.195595" lon="14.20645167"><ele>127.0</ele><time>2016-06-18T07:56:33.285Z</time></trkpt><trkpt lat="58.195595" lon="14.20645167"><ele>127.0</ele><time>2016-06-18T07:56:34.305Z</time></trkpt><trkpt lat="58.19576833" lon="14.20652167"><ele>128.0</ele><time>2016-06-18T07:56:35.297Z</time></trkpt><trkpt lat="58.19576833" lon="14.20652167"><ele>128.0</ele><time>2016-06-18T07:56:36.313Z</time></trkpt><trkpt lat="58.19594833" lon="14.20660667"><ele>129.0</ele><time>2016-06-18T07:56:37.321Z</time></trkpt><trkpt lat="58.19604333" lon="14.20664833"><ele>129.0</ele><time>2016-06-18T07:56:38.304Z</time></trkpt><trkpt lat="58.19613667" lon="14.20668667"><ele>130.0</ele><time>2016-06-18T07:56:39.316Z</time></trkpt><trkpt lat="58.19613667" lon="14.20668667"><ele>130.0</ele><time>2016-06-18T07:56:40.320Z</time></trkpt><trkpt lat="58.19632667" lon="14.206775"><ele>132.0</ele><time>2016-06-18T07:56:41.287Z</time></trkpt><trkpt lat="58.19632667" lon="14.206775"><ele>132.0</ele><time>2016-06-18T07:56:42.310Z</time></trkpt><trkpt lat="58.196525" lon="14.20684667"><ele>133.0</ele><time>2016-06-18T07:56:43.291Z</time></trkpt><trkpt lat="58.19662333" lon="14.20687833"><ele>134.0</ele><time>2016-06-18T07:56:44.321Z</time></trkpt><trkpt lat="58.19662333" lon="14.20687833"><ele>134.0</ele><time>2016-06-18T07:56:45.291Z</time></trkpt><trkpt lat="58.19681" lon="14.20693833"><ele>134.0</ele><time>2016-06-18T07:56:46.298Z</time></trkpt><trkpt lat="58.19681" lon="14.20693833"><ele>134.0</ele><time>2016-06-18T07:56:47.320Z</time></trkpt><trkpt lat="58.19699667" lon="14.206995"><ele>135.0</ele><time>2016-06-18T07:56:48.287Z</time></trkpt><trkpt lat="58.19699667" lon="14.206995"><ele>135.0</ele><time>2016-06-18T07:56:49.290Z</time></trkpt><trkpt lat="58.19718167" lon="14.20705167"><ele>137.0</ele><time>2016-06-18T07:56:50.297Z</time></trkpt><trkpt lat="58.19718167" lon="14.20705167"><ele>137.0</ele><time>2016-06-18T07:56:51.321Z</time></trkpt><trkpt lat="58.19735667" lon="14.20712"><ele>138.0</ele><time>2016-06-18T07:56:52.305Z</time></trkpt><trkpt lat="58.19735667" lon="14.20712"><ele>138.0</ele><time>2016-06-18T07:56:53.297Z</time></trkpt><trkpt lat="58.19751667" lon="14.20715833"><ele>140.0</ele><time>2016-06-18T07:56:54.304Z</time></trkpt><trkpt lat="58.19760833" lon="14.20719833"><ele>141.0</ele><time>2016-06-18T07:56:55.308Z</time></trkpt><trkpt lat="58.19760833" lon="14.20719833"><ele>141.0</ele><time>2016-06-18T07:56:56.311Z</time></trkpt><trkpt lat="58.197775" lon="14.20723333"><ele>143.0</ele><time>2016-06-18T07:56:57.317Z</time></trkpt><trkpt lat="58.197775" lon="14.20723333"><ele>143.0</ele><time>2016-06-18T07:56:58.301Z</time></trkpt><trkpt lat="58.19793667" lon="14.20726333"><ele>145.0</ele><time>2016-06-18T07:56:59.310Z</time></trkpt><trkpt lat="58.19801833" lon="14.20727"><ele>143.0</ele><time>2016-06-18T07:57:00.296Z</time></trkpt><trkpt lat="58.19801833" lon="14.20727"><ele>143.0</ele><time>2016-06-18T07:57:01.318Z</time></trkpt><trkpt lat="58.19817833" lon="14.20727667"><ele>141.0</ele><time>2016-06-18T07:57:02.300Z</time></trkpt><trkpt lat="58.19817833" lon="14.20727667"><ele>141.0</ele><time>2016-06-18T07:57:03.297Z</time></trkpt><trkpt lat="58.19833667" lon="14.20727667"><ele>139.0</ele><time>2016-06-18T07:57:04.304Z</time></trkpt><trkpt lat="58.19841833" lon="14.20729167"><ele>139.0</ele><time>2016-06-18T07:57:05.290Z</time></trkpt><trkpt lat="58.19841833" lon="14.20729167"><ele>139.0</ele><time>2016-06-18T07:57:06.318Z</time></trkpt><trkpt lat="58.19857" lon="14.20731"><ele>140.0</ele><time>2016-06-18T07:57:07.285Z</time></trkpt><trkpt lat="58.19864333" lon="14.20731833"><ele>140.0</ele><time>2016-06-18T07:57:08.313Z</time></trkpt><trkpt lat="58.19864333" lon="14.20731833"><ele>140.0</ele><time>2016-06-18T07:57:09.315Z</time></trkpt><trkpt lat="58.19879167" lon="14.20731667"><ele>140.0</ele><time>2016-06-18T07:57:10.289Z</time></trkpt><trkpt lat="58.19879167" lon="14.20731667"><ele>140.0</ele><time>2016-06-18T07:57:11.312Z</time></trkpt><trkpt lat="58.198955" lon="14.20733"><ele>141.0</ele><time>2016-06-18T07:57:12.289Z</time></trkpt><trkpt lat="58.198955" lon="14.20733"><ele>141.0</ele><time>2016-06-18T07:57:13.315Z</time></trkpt><trkpt lat="58.19911833" lon="14.207345"><ele>142.0</ele><time>2016-06-18T07:57:14.287Z</time></trkpt><trkpt lat="58.19911833" lon="14.207345"><ele>142.0</ele><time>2016-06-18T07:57:15.311Z</time></trkpt><trkpt lat="58.19929167" lon="14.20735667"><ele>142.0</ele><time>2016-06-18T07:57:16.310Z</time></trkpt><trkpt lat="58.19938" lon="14.20736"><ele>142.0</ele><time>2016-06-18T07:57:17.318Z</time></trkpt><trkpt lat="58.19938" lon="14.20736"><ele>142.0</ele><time>2016-06-18T07:57:18.303Z</time></trkpt><trkpt lat="58.19955333" lon="14.20736667"><ele>141.0</ele><time>2016-06-18T07:57:19.297Z</time></trkpt><trkpt lat="58.19963333" lon="14.20736667"><ele>141.0</ele><time>2016-06-18T07:57:20.295Z</time></trkpt><trkpt lat="58.19963333" lon="14.20736667"><ele>141.0</ele><time>2016-06-18T07:57:21.313Z</time></trkpt><trkpt lat="58.19979" lon="14.207365"><ele>142.0</ele><time>2016-06-18T07:57:22.285Z</time></trkpt><trkpt lat="58.199875" lon="14.20736833"><ele>143.0</ele><time>2016-06-18T07:57:23.319Z</time></trkpt><trkpt lat="58.199875" lon="14.20736833"><ele>143.0</ele><time>2016-06-18T07:57:24.304Z</time></trkpt><trkpt lat="58.20004333" lon="14.20737"><ele>145.0</ele><time>2016-06-18T07:57:25.282Z</time></trkpt><trkpt lat="58.20014667" lon="14.207385"><ele>146.0</ele><time>2016-06-18T07:57:26.316Z</time></trkpt><trkpt lat="58.20014667" lon="14.207385"><ele>146.0</ele><time>2016-06-18T07:57:27.299Z</time></trkpt><trkpt lat="58.20032667" lon="14.20739167"><ele>147.0</ele><time>2016-06-18T07:57:28.325Z</time></trkpt><trkpt lat="58.20032667" lon="14.20739167"><ele>147.0</ele><time>2016-06-18T07:57:29.291Z</time></trkpt><trkpt lat="58.20049333" lon="14.20738"><ele>149.0</ele><time>2016-06-18T07:57:30.301Z</time></trkpt><trkpt lat="58.20058167" lon="14.20738167"><ele>150.0</ele><time>2016-06-18T07:57:31.301Z</time></trkpt><trkpt lat="58.20058167" lon="14.20738167"><ele>150.0</ele><time>2016-06-18T07:57:32.316Z</time></trkpt><trkpt lat="58.200755" lon="14.20736833"><ele>153.0</ele><time>2016-06-18T07:57:33.289Z</time></trkpt><trkpt lat="58.20083667" lon="14.20735667"><ele>154.0</ele><time>2016-06-18T07:57:34.287Z</time></trkpt><trkpt lat="58.20083667" lon="14.20735667"><ele>154.0</ele><time>2016-06-18T07:57:35.305Z</time></trkpt><trkpt lat="58.20100667" lon="14.20733333"><ele>156.0</ele><time>2016-06-18T07:57:36.316Z</time></trkpt><trkpt lat="58.201085" lon="14.207325"><ele>157.0</ele><time>2016-06-18T07:57:37.308Z</time></trkpt><trkpt lat="58.201085" lon="14.207325"><ele>157.0</ele><time>2016-06-18T07:57:38.322Z</time></trkpt><trkpt lat="58.20126167" lon="14.20732667"><ele>159.0</ele><time>2016-06-18T07:57:39.288Z</time></trkpt><trkpt lat="58.20134833" lon="14.20731667"><ele>160.0</ele><time>2016-06-18T07:57:40.305Z</time></trkpt><trkpt lat="58.20134833" lon="14.20731667"><ele>160.0</ele><time>2016-06-18T07:57:41.287Z</time></trkpt><trkpt lat="58.201525" lon="14.20728"><ele>161.0</ele><time>2016-06-18T07:57:42.299Z</time></trkpt><trkpt lat="58.20161167" lon="14.20727167"><ele>161.0</ele><time>2016-06-18T07:57:43.321Z</time></trkpt><trkpt lat="58.20161167" lon="14.20727167"><ele>161.0</ele><time>2016-06-18T07:57:44.303Z</time></trkpt><trkpt lat="58.20178333" lon="14.20723333"><ele>163.0</ele><time>2016-06-18T07:57:45.299Z</time></trkpt><trkpt lat="58.20178333" lon="14.20723333"><ele>163.0</ele><time>2016-06-18T07:57:46.291Z</time></trkpt><trkpt lat="58.20196667" lon="14.207185"><ele>162.0</ele><time>2016-06-18T07:57:47.299Z</time></trkpt><trkpt lat="58.20196667" lon="14.207185"><ele>162.0</ele><time>2016-06-18T07:57:48.320Z</time></trkpt><trkpt lat="58.202145" lon="14.20712833"><ele>160.0</ele><time>2016-06-18T07:57:49.319Z</time></trkpt><trkpt lat="58.202145" lon="14.20712833"><ele>160.0</ele><time>2016-06-18T07:57:50.294Z</time></trkpt><trkpt lat="58.20233167" lon="14.20707"><ele>158.0</ele><time>2016-06-18T07:57:51.300Z</time></trkpt><trkpt lat="58.20233167" lon="14.20707"><ele>158.0</ele><time>2016-06-18T07:57:52.283Z</time></trkpt><trkpt lat="58.20257167" lon="14.20695"><ele>136.0</ele><time>2016-06-18T07:57:53.300Z</time></trkpt><trkpt lat="58.20257167" lon="14.20695"><ele>136.0</ele><time>2016-06-18T07:57:54.298Z</time></trkpt><trkpt lat="58.20276833" lon="14.20687167"><ele>132.0</ele><time>2016-06-18T07:57:55.305Z</time></trkpt><trkpt lat="58.20276833" lon="14.20687167"><ele>132.0</ele><time>2016-06-18T07:57:56.319Z</time></trkpt><trkpt lat="58.202965" lon="14.20680667"><ele>130.0</ele><time>2016-06-18T07:57:57.286Z</time></trkpt><trkpt lat="58.202965" lon="14.20680667"><ele>130.0</ele><time>2016-06-18T07:57:58.307Z</time></trkpt><trkpt lat="58.20315833" lon="14.206735"><ele>128.0</ele><time>2016-06-18T07:57:59.310Z</time></trkpt><trkpt lat="58.20315833" lon="14.206735"><ele>128.0</ele><time>2016-06-18T07:58:00.299Z</time></trkpt><trkpt lat="58.20334833" lon="14.20667167"><ele>126.0</ele><time>2016-06-18T07:58:01.306Z</time></trkpt><trkpt lat="58.20334833" lon="14.20667167"><ele>126.0</ele><time>2016-06-18T07:58:02.290Z</time></trkpt><trkpt lat="58.20352667" lon="14.20660833"><ele>125.0</ele><time>2016-06-18T07:58:03.287Z</time></trkpt><trkpt lat="58.20352667" lon="14.20660833"><ele>125.0</ele><time>2016-06-18T07:58:04.284Z</time></trkpt><trkpt lat="58.20369667" lon="14.20654667"><ele>125.0</ele><time>2016-06-18T07:58:05.291Z</time></trkpt><trkpt lat="58.20378" lon="14.20652"><ele>125.0</ele><time>2016-06-18T07:58:06.300Z</time></trkpt><trkpt lat="58.20378" lon="14.20652"><ele>125.0</ele><time>2016-06-18T07:58:07.312Z</time></trkpt><trkpt lat="58.20395167" lon="14.20645333"><ele>124.0</ele><time>2016-06-18T07:58:08.318Z</time></trkpt><trkpt lat="58.20395167" lon="14.20645333"><ele>124.0</ele><time>2016-06-18T07:58:09.303Z</time></trkpt><trkpt lat="58.20412833" lon="14.20639"><ele>123.0</ele><time>2016-06-18T07:58:10.308Z</time></trkpt><trkpt lat="58.20412833" lon="14.20639"><ele>123.0</ele><time>2016-06-18T07:58:11.319Z</time></trkpt><trkpt lat="58.204305" lon="14.20633"><ele>123.0</ele><time>2016-06-18T07:58:12.287Z</time></trkpt><trkpt lat="58.204305" lon="14.20633"><ele>123.0</ele><time>2016-06-18T07:58:13.316Z</time></trkpt><trkpt lat="58.20448333" lon="14.20626"><ele>122.0</ele><time>2016-06-18T07:58:14.285Z</time></trkpt><trkpt lat="58.20448333" lon="14.20626"><ele>122.0</ele><time>2016-06-18T07:58:15.303Z</time></trkpt><trkpt lat="58.20466333" lon="14.20618667"><ele>122.0</ele><time>2016-06-18T07:58:16.317Z</time></trkpt><trkpt lat="58.20475667" lon="14.20615167"><ele>122.0</ele><time>2016-06-18T07:58:17.296Z</time></trkpt><trkpt lat="58.20475667" lon="14.20615167"><ele>122.0</ele><time>2016-06-18T07:58:18.303Z</time></trkpt><trkpt lat="58.20494" lon="14.206095"><ele>121.0</ele><time>2016-06-18T07:58:19.314Z</time></trkpt><trkpt lat="58.20503667" lon="14.20607167"><ele>121.0</ele><time>2016-06-18T07:58:20.287Z</time></trkpt><trkpt lat="58.20503667" lon="14.20607167"><ele>121.0</ele><time>2016-06-18T07:58:21.290Z</time></trkpt><trkpt lat="58.20522167" lon="14.20601167"><ele>120.0</ele><time>2016-06-18T07:58:22.297Z</time></trkpt><trkpt lat="58.205315" lon="14.20597667"><ele>119.0</ele><time>2016-06-18T07:58:23.285Z</time></trkpt><trkpt lat="58.205315" lon="14.20597667"><ele>119.0</ele><time>2016-06-18T07:58:24.302Z</time></trkpt><trkpt lat="58.2055" lon="14.20591833"><ele>121.0</ele><time>2016-06-18T07:58:25.311Z</time></trkpt><trkpt lat="58.2055" lon="14.20591833"><ele>121.0</ele><time>2016-06-18T07:58:26.294Z</time></trkpt><trkpt lat="58.205685" lon="14.20586333"><ele>121.0</ele><time>2016-06-18T07:58:27.310Z</time></trkpt><trkpt lat="58.205685" lon="14.20586333"><ele>121.0</ele><time>2016-06-18T07:58:28.317Z</time></trkpt><trkpt lat="58.205855" lon="14.20580667"><ele>120.0</ele><time>2016-06-18T07:58:29.285Z</time></trkpt><trkpt lat="58.205855" lon="14.20580667"><ele>120.0</ele><time>2016-06-18T07:58:30.316Z</time></trkpt><trkpt lat="58.20601667" lon="14.20574833"><ele>120.0</ele><time>2016-06-18T07:58:31.318Z</time></trkpt><trkpt lat="58.206095" lon="14.20572167"><ele>120.0</ele><time>2016-06-18T07:58:32.300Z</time></trkpt><trkpt lat="58.20617667" lon="14.2057"><ele>120.0</ele><time>2016-06-18T07:58:33.286Z</time></trkpt><trkpt lat="58.20617667" lon="14.2057"><ele>120.0</ele><time>2016-06-18T07:58:34.308Z</time></trkpt><trkpt lat="58.20632833" lon="14.20564833"><ele>120.0</ele><time>2016-06-18T07:58:35.317Z</time></trkpt><trkpt lat="58.20632833" lon="14.20564833"><ele>120.0</ele><time>2016-06-18T07:58:36.286Z</time></trkpt><trkpt lat="58.20648167" lon="14.20560833"><ele>121.0</ele><time>2016-06-18T07:58:37.311Z</time></trkpt><trkpt lat="58.20648167" lon="14.20560833"><ele>121.0</ele><time>2016-06-18T07:58:38.317Z</time></trkpt><trkpt lat="58.20663833" lon="14.20556333"><ele>121.0</ele><time>2016-06-18T07:58:39.286Z</time></trkpt><trkpt lat="58.20671833" lon="14.20554"><ele>120.0</ele><time>2016-06-18T07:58:40.318Z</time></trkpt><trkpt lat="58.20671833" lon="14.20554"><ele>120.0</ele><time>2016-06-18T07:58:41.286Z</time></trkpt><trkpt lat="58.20687167" lon="14.20549833"><ele>120.0</ele><time>2016-06-18T07:58:42.293Z</time></trkpt><trkpt lat="58.20687167" lon="14.20549833"><ele>120.0</ele><time>2016-06-18T07:58:43.315Z</time></trkpt><trkpt lat="58.207035" lon="14.20545333"><ele>120.0</ele><time>2016-06-18T07:58:44.283Z</time></trkpt><trkpt lat="58.207035" lon="14.20545333"><ele>120.0</ele><time>2016-06-18T07:58:45.288Z</time></trkpt><trkpt lat="58.20719833" lon="14.20540167"><ele>119.0</ele><time>2016-06-18T07:58:46.299Z</time></trkpt><trkpt lat="58.20727833" lon="14.205375"><ele>119.0</ele><time>2016-06-18T07:58:47.288Z</time></trkpt><trkpt lat="58.20727833" lon="14.205375"><ele>119.0</ele><time>2016-06-18T07:58:48.282Z</time></trkpt><trkpt lat="58.20743833" lon="14.20533333"><ele>119.0</ele><time>2016-06-18T07:58:49.288Z</time></trkpt><trkpt lat="58.20743833" lon="14.20533333"><ele>119.0</ele><time>2016-06-18T07:58:50.319Z</time></trkpt><trkpt lat="58.20760167" lon="14.20529333"><ele>119.0</ele><time>2016-06-18T07:58:51.319Z</time></trkpt><trkpt lat="58.20760167" lon="14.20529333"><ele>119.0</ele><time>2016-06-18T07:58:52.313Z</time></trkpt><trkpt lat="58.20777167" lon="14.20524667"><ele>119.0</ele><time>2016-06-18T07:58:53.291Z</time></trkpt><trkpt lat="58.20777167" lon="14.20524667"><ele>119.0</ele><time>2016-06-18T07:58:54.301Z</time></trkpt><trkpt lat="58.20794333" lon="14.205205"><ele>119.0</ele><time>2016-06-18T07:58:55.288Z</time></trkpt><trkpt lat="58.20794333" lon="14.205205"><ele>119.0</ele><time>2016-06-18T07:58:56.320Z</time></trkpt><trkpt lat="58.20810833" lon="14.20517"><ele>119.0</ele><time>2016-06-18T07:58:57.287Z</time></trkpt><trkpt lat="58.20819" lon="14.20515"><ele>119.0</ele><time>2016-06-18T07:58:58.317Z</time></trkpt><trkpt lat="58.20819" lon="14.20515"><ele>119.0</ele><time>2016-06-18T07:58:59.320Z</time></trkpt><trkpt lat="58.20835167" lon="14.20511333"><ele>119.0</ele><time>2016-06-18T07:59:00.294Z</time></trkpt><trkpt lat="58.20835167" lon="14.20511333"><ele>119.0</ele><time>2016-06-18T07:59:01.310Z</time></trkpt><trkpt lat="58.20850833" lon="14.20508333"><ele>119.0</ele><time>2016-06-18T07:59:02.289Z</time></trkpt><trkpt lat="58.20858667" lon="14.20507"><ele>120.0</ele><time>2016-06-18T07:59:03.311Z</time></trkpt><trkpt lat="58.20866333" lon="14.20505833"><ele>120.0</ele><time>2016-06-18T07:59:04.291Z</time></trkpt><trkpt lat="58.20866333" lon="14.20505833"><ele>120.0</ele><time>2016-06-18T07:59:05.294Z</time></trkpt><trkpt lat="58.20881333" lon="14.20503"><ele>121.0</ele><time>2016-06-18T07:59:06.303Z</time></trkpt><trkpt lat="58.20881333" lon="14.20503"><ele>121.0</ele><time>2016-06-18T07:59:07.285Z</time></trkpt><trkpt lat="58.20896167" lon="14.20501667"><ele>121.0</ele><time>2016-06-18T07:59:08.300Z</time></trkpt><trkpt lat="58.20896167" lon="14.20501667"><ele>121.0</ele><time>2016-06-18T07:59:09.293Z</time></trkpt><trkpt lat="58.20912" lon="14.205"><ele>121.0</ele><time>2016-06-18T07:59:10.300Z</time></trkpt><trkpt lat="58.20912" lon="14.205"><ele>121.0</ele><time>2016-06-18T07:59:11.289Z</time></trkpt><trkpt lat="58.20927667" lon="14.20497667"><ele>121.0</ele><time>2016-06-18T07:59:12.317Z</time></trkpt><trkpt lat="58.20927667" lon="14.20497667"><ele>121.0</ele><time>2016-06-18T07:59:13.301Z</time></trkpt><trkpt lat="58.20943" lon="14.20495167"><ele>121.0</ele><time>2016-06-18T07:59:14.308Z</time></trkpt><trkpt lat="58.20943" lon="14.20495167"><ele>121.0</ele><time>2016-06-18T07:59:15.290Z</time></trkpt><trkpt lat="58.20959167" lon="14.20492667"><ele>121.0</ele><time>2016-06-18T07:59:16.283Z</time></trkpt><trkpt lat="58.20959167" lon="14.20492667"><ele>121.0</ele><time>2016-06-18T07:59:17.294Z</time></trkpt><trkpt lat="58.20975833" lon="14.204905"><ele>121.0</ele><time>2016-06-18T07:59:18.301Z</time></trkpt><trkpt lat="58.20975833" lon="14.204905"><ele>121.0</ele><time>2016-06-18T07:59:19.283Z</time></trkpt><trkpt lat="58.20993" lon="14.20488167"><ele>121.0</ele><time>2016-06-18T07:59:20.289Z</time></trkpt><trkpt lat="58.21001833" lon="14.20487167"><ele>121.0</ele><time>2016-06-18T07:59:21.316Z</time></trkpt><trkpt lat="58.21001833" lon="14.20487167"><ele>121.0</ele><time>2016-06-18T07:59:22.301Z</time></trkpt><trkpt lat="58.21019167" lon="14.20484667"><ele>121.0</ele><time>2016-06-18T07:59:23.308Z</time></trkpt><trkpt lat="58.21019167" lon="14.20484667"><ele>121.0</ele><time>2016-06-18T07:59:24.291Z</time></trkpt><trkpt lat="58.210365" lon="14.20483333"><ele>121.0</ele><time>2016-06-18T07:59:25.308Z</time></trkpt><trkpt lat="58.21045333" lon="14.20482833"><ele>120.0</ele><time>2016-06-18T07:59:26.315Z</time></trkpt><trkpt lat="58.21045333" lon="14.20482833"><ele>120.0</ele><time>2016-06-18T07:59:27.303Z</time></trkpt><trkpt lat="58.21062333" lon="14.20481333"><ele>120.0</ele><time>2016-06-18T07:59:28.318Z</time></trkpt><trkpt lat="58.21062333" lon="14.20481333"><ele>120.0</ele><time>2016-06-18T07:59:29.290Z</time></trkpt><trkpt lat="58.21078" lon="14.204805"><ele>120.0</ele><time>2016-06-18T07:59:30.297Z</time></trkpt><trkpt lat="58.21078" lon="14.204805"><ele>120.0</ele><time>2016-06-18T07:59:31.292Z</time></trkpt><trkpt lat="58.210935" lon="14.204795"><ele>120.0</ele><time>2016-06-18T07:59:32.316Z</time></trkpt><trkpt lat="58.210935" lon="14.204795"><ele>120.0</ele><time>2016-06-18T07:59:33.308Z</time></trkpt><trkpt lat="58.21109333" lon="14.20478833"><ele>120.0</ele><time>2016-06-18T07:59:34.314Z</time></trkpt><trkpt lat="58.21117333" lon="14.20478667"><ele>120.0</ele><time>2016-06-18T07:59:35.318Z</time></trkpt><trkpt lat="58.21125167" lon="14.20478667"><ele>120.0</ele><time>2016-06-18T07:59:36.290Z</time></trkpt><trkpt lat="58.21125167" lon="14.20478667"><ele>120.0</ele><time>2016-06-18T07:59:37.315Z</time></trkpt><trkpt lat="58.21140667" lon="14.20478333"><ele>120.0</ele><time>2016-06-18T07:59:38.283Z</time></trkpt><trkpt lat="58.21140667" lon="14.20478333"><ele>120.0</ele><time>2016-06-18T07:59:39.317Z</time></trkpt><trkpt lat="58.21156167" lon="14.20477833"><ele>119.0</ele><time>2016-06-18T07:59:40.284Z</time></trkpt><trkpt lat="58.21156167" lon="14.20477833"><ele>119.0</ele><time>2016-06-18T07:59:41.304Z</time></trkpt><trkpt lat="58.211715" lon="14.20477333"><ele>119.0</ele><time>2016-06-18T07:59:42.296Z</time></trkpt><trkpt lat="58.211715" lon="14.20477333"><ele>119.0</ele><time>2016-06-18T07:59:43.282Z</time></trkpt><trkpt lat="58.21186833" lon="14.20477833"><ele>119.0</ele><time>2016-06-18T07:59:44.290Z</time></trkpt><trkpt lat="58.211945" lon="14.20477667"><ele>120.0</ele><time>2016-06-18T07:59:45.288Z</time></trkpt><trkpt lat="58.211945" lon="14.20477667"><ele>120.0</ele><time>2016-06-18T07:59:46.286Z</time></trkpt><trkpt lat="58.212105" lon="14.20478"><ele>120.0</ele><time>2016-06-18T07:59:47.301Z</time></trkpt><trkpt lat="58.21218667" lon="14.20478"><ele>120.0</ele><time>2016-06-18T07:59:48.301Z</time></trkpt><trkpt lat="58.21218667" lon="14.20478"><ele>120.0</ele><time>2016-06-18T07:59:49.283Z</time></trkpt><trkpt lat="58.21235167" lon="14.20478333"><ele>120.0</ele><time>2016-06-18T07:59:50.317Z</time></trkpt><trkpt lat="58.21235167" lon="14.20478333"><ele>120.0</ele><time>2016-06-18T07:59:51.306Z</time></trkpt><trkpt lat="58.21252333" lon="14.20479167"><ele>120.0</ele><time>2016-06-18T07:59:52.316Z</time></trkpt><trkpt lat="58.21252333" lon="14.20479167"><ele>120.0</ele><time>2016-06-18T07:59:53.298Z</time></trkpt><trkpt lat="58.212695" lon="14.20480167"><ele>120.0</ele><time>2016-06-18T07:59:54.288Z</time></trkpt><trkpt lat="58.212695" lon="14.20480167"><ele>120.0</ele><time>2016-06-18T07:59:55.291Z</time></trkpt><trkpt lat="58.212865" lon="14.20481"><ele>120.0</ele><time>2016-06-18T07:59:56.298Z</time></trkpt><trkpt lat="58.212865" lon="14.20481"><ele>120.0</ele><time>2016-06-18T07:59:57.284Z</time></trkpt><trkpt lat="58.21302833" lon="14.20481833"><ele>120.0</ele><time>2016-06-18T07:59:58.312Z</time></trkpt><trkpt lat="58.21302833" lon="14.20481833"><ele>120.0</ele><time>2016-06-18T07:59:59.320Z</time></trkpt><trkpt lat="58.21318667" lon="14.20483"><ele>120.0</ele><time>2016-06-18T08:00:00.288Z</time></trkpt><trkpt lat="58.21318667" lon="14.20483"><ele>120.0</ele><time>2016-06-18T08:00:01.300Z</time></trkpt><trkpt lat="58.213335" lon="14.20484167"><ele>120.0</ele><time>2016-06-18T08:00:02.315Z</time></trkpt><trkpt lat="58.213335" lon="14.20484167"><ele>120.0</ele><time>2016-06-18T08:00:03.311Z</time></trkpt><trkpt lat="58.21347833" lon="14.20485667"><ele>119.0</ele><time>2016-06-18T08:00:04.318Z</time></trkpt><trkpt lat="58.21355" lon="14.20486333"><ele>119.0</ele><time>2016-06-18T08:00:05.326Z</time></trkpt><trkpt lat="58.21355" lon="14.20486333"><ele>119.0</ele><time>2016-06-18T08:00:06.291Z</time></trkpt><trkpt lat="58.21369667" lon="14.20488"><ele>119.0</ele><time>2016-06-18T08:00:07.319Z</time></trkpt><trkpt lat="58.21377" lon="14.204885"><ele>119.0</ele><time>2016-06-18T08:00:08.322Z</time></trkpt><trkpt lat="58.21377" lon="14.204885"><ele>119.0</ele><time>2016-06-18T08:00:09.299Z</time></trkpt><trkpt lat="58.21392167" lon="14.20489833"><ele>119.0</ele><time>2016-06-18T08:00:10.307Z</time></trkpt><trkpt lat="58.21392167" lon="14.20489833"><ele>119.0</ele><time>2016-06-18T08:00:11.301Z</time></trkpt><trkpt lat="58.21406833" lon="14.20491667"><ele>119.0</ele><time>2016-06-18T08:00:12.288Z</time></trkpt><trkpt lat="58.21406833" lon="14.20491667"><ele>119.0</ele><time>2016-06-18T08:00:13.319Z</time></trkpt><trkpt lat="58.21421333" lon="14.20493833"><ele>119.0</ele><time>2016-06-18T08:00:14.287Z</time></trkpt><trkpt lat="58.21421333" lon="14.20493833"><ele>119.0</ele><time>2016-06-18T08:00:15.312Z</time></trkpt><trkpt lat="58.21436167" lon="14.204965"><ele>119.0</ele><time>2016-06-18T08:00:16.292Z</time></trkpt><trkpt lat="58.21436167" lon="14.204965"><ele>119.0</ele><time>2016-06-18T08:00:17.298Z</time></trkpt><trkpt lat="58.21452" lon="14.204995"><ele>119.0</ele><time>2016-06-18T08:00:18.305Z</time></trkpt><trkpt lat="58.2146" lon="14.20501"><ele>119.0</ele><time>2016-06-18T08:00:19.328Z</time></trkpt><trkpt lat="58.2146" lon="14.20501"><ele>119.0</ele><time>2016-06-18T08:00:20.319Z</time></trkpt><trkpt lat="58.21475833" lon="14.20504333"><ele>119.0</ele><time>2016-06-18T08:00:21.286Z</time></trkpt><trkpt lat="58.21483833" lon="14.20506"><ele>119.0</ele><time>2016-06-18T08:00:22.319Z</time></trkpt><trkpt lat="58.21492" lon="14.20507833"><ele>119.0</ele><time>2016-06-18T08:00:23.286Z</time></trkpt><trkpt lat="58.21492" lon="14.20507833"><ele>119.0</ele><time>2016-06-18T08:00:24.311Z</time></trkpt><trkpt lat="58.215085" lon="14.20511333"><ele>119.0</ele><time>2016-06-18T08:00:25.288Z</time></trkpt><trkpt lat="58.21516667" lon="14.20513167"><ele>119.0</ele><time>2016-06-18T08:00:26.287Z</time></trkpt><trkpt lat="58.21516667" lon="14.20513167"><ele>119.0</ele><time>2016-06-18T08:00:27.309Z</time></trkpt><trkpt lat="58.21533167" lon="14.20516833"><ele>119.0</ele><time>2016-06-18T08:00:28.310Z</time></trkpt><trkpt lat="58.21533167" lon="14.20516833"><ele>119.0</ele><time>2016-06-18T08:00:29.317Z</time></trkpt><trkpt lat="58.21549667" lon="14.20520833"><ele>119.0</ele><time>2016-06-18T08:00:30.284Z</time></trkpt><trkpt lat="58.21549667" lon="14.20520833"><ele>119.0</ele><time>2016-06-18T08:00:31.307Z</time></trkpt><trkpt lat="58.215665" lon="14.20525"><ele>118.0</ele><time>2016-06-18T08:00:32.316Z</time></trkpt><trkpt lat="58.21575" lon="14.205275"><ele>118.0</ele><time>2016-06-18T08:00:33.321Z</time></trkpt><trkpt lat="58.21575" lon="14.205275"><ele>118.0</ele><time>2016-06-18T08:00:34.312Z</time></trkpt><trkpt lat="58.21592" lon="14.20532333"><ele>118.0</ele><time>2016-06-18T08:00:35.308Z</time></trkpt><trkpt lat="58.21592" lon="14.20532333"><ele>118.0</ele><time>2016-06-18T08:00:36.301Z</time></trkpt><trkpt lat="58.2161" lon="14.20536833"><ele>118.0</ele><time>2016-06-18T08:00:37.293Z</time></trkpt><trkpt lat="58.21618833" lon="14.20539167"><ele>118.0</ele><time>2016-06-18T08:00:38.316Z</time></trkpt><trkpt lat="58.21618833" lon="14.20539167"><ele>118.0</ele><time>2016-06-18T08:00:39.294Z</time></trkpt><trkpt lat="58.21636333" lon="14.205435"><ele>118.0</ele><time>2016-06-18T08:00:40.325Z</time></trkpt><trkpt lat="58.21636333" lon="14.205435"><ele>118.0</ele><time>2016-06-18T08:00:41.282Z</time></trkpt><trkpt lat="58.21652833" lon="14.20548"><ele>118.0</ele><time>2016-06-18T08:00:42.326Z</time></trkpt><trkpt lat="58.21652833" lon="14.20548"><ele>118.0</ele><time>2016-06-18T08:00:43.298Z</time></trkpt><trkpt lat="58.21669167" lon="14.20553"><ele>118.0</ele><time>2016-06-18T08:00:44.319Z</time></trkpt><trkpt lat="58.216775" lon="14.20555167"><ele>118.0</ele><time>2016-06-18T08:00:45.302Z</time></trkpt><trkpt lat="58.216775" lon="14.20555167"><ele>118.0</ele><time>2016-06-18T08:00:46.321Z</time></trkpt><trkpt lat="58.216945" lon="14.20559667"><ele>118.0</ele><time>2016-06-18T08:00:47.298Z</time></trkpt><trkpt lat="58.21703" lon="14.20562"><ele>117.0</ele><time>2016-06-18T08:00:48.292Z</time></trkpt><trkpt lat="58.21703" lon="14.20562"><ele>117.0</ele><time>2016-06-18T08:00:49.316Z</time></trkpt><trkpt lat="58.21720167" lon="14.20567167"><ele>117.0</ele><time>2016-06-18T08:00:50.296Z</time></trkpt><trkpt lat="58.21720167" lon="14.20567167"><ele>117.0</ele><time>2016-06-18T08:00:51.282Z</time></trkpt><trkpt lat="58.217375" lon="14.20572667"><ele>117.0</ele><time>2016-06-18T08:00:52.288Z</time></trkpt><trkpt lat="58.217375" lon="14.20572667"><ele>117.0</ele><time>2016-06-18T08:00:53.315Z</time></trkpt><trkpt lat="58.21754667" lon="14.20578"><ele>117.0</ele><time>2016-06-18T08:00:54.310Z</time></trkpt><trkpt lat="58.21754667" lon="14.20578"><ele>117.0</ele><time>2016-06-18T08:00:55.316Z</time></trkpt><trkpt lat="58.21771333" lon="14.20583833"><ele>117.0</ele><time>2016-06-18T08:00:56.283Z</time></trkpt><trkpt lat="58.21771333" lon="14.20583833"><ele>117.0</ele><time>2016-06-18T08:00:57.305Z</time></trkpt><trkpt lat="58.21787667" lon="14.205905"><ele>117.0</ele><time>2016-06-18T08:00:58.304Z</time></trkpt><trkpt lat="58.21787667" lon="14.205905"><ele>117.0</ele><time>2016-06-18T08:00:59.286Z</time></trkpt><trkpt lat="58.21803833" lon="14.20596833"><ele>117.0</ele><time>2016-06-18T08:01:00.295Z</time></trkpt><trkpt lat="58.21812" lon="14.206"><ele>117.0</ele><time>2016-06-18T08:01:01.301Z</time></trkpt><trkpt lat="58.21812" lon="14.206"><ele>117.0</ele><time>2016-06-18T08:01:02.282Z</time></trkpt><trkpt lat="58.21828333" lon="14.20606333"><ele>117.0</ele><time>2016-06-18T08:01:03.296Z</time></trkpt><trkpt lat="58.21828333" lon="14.20606333"><ele>117.0</ele><time>2016-06-18T08:01:04.299Z</time></trkpt><trkpt lat="58.21845167" lon="14.20613"><ele>117.0</ele><time>2016-06-18T08:01:05.306Z</time></trkpt><trkpt lat="58.21853833" lon="14.206165"><ele>117.0</ele><time>2016-06-18T08:01:06.286Z</time></trkpt><trkpt lat="58.21853833" lon="14.206165"><ele>117.0</ele><time>2016-06-18T08:01:07.290Z</time></trkpt><trkpt lat="58.218705" lon="14.20623833"><ele>117.0</ele><time>2016-06-18T08:01:08.298Z</time></trkpt><trkpt lat="58.218705" lon="14.20623833"><ele>117.0</ele><time>2016-06-18T08:01:09.319Z</time></trkpt><trkpt lat="58.218875" lon="14.20630167"><ele>117.0</ele><time>2016-06-18T08:01:10.310Z</time></trkpt><trkpt lat="58.218875" lon="14.20630167"><ele>117.0</ele><time>2016-06-18T08:01:11.290Z</time></trkpt><trkpt lat="58.21904333" lon="14.20636833"><ele>117.0</ele><time>2016-06-18T08:01:12.305Z</time></trkpt><trkpt lat="58.21904333" lon="14.20636833"><ele>117.0</ele><time>2016-06-18T08:01:13.285Z</time></trkpt><trkpt lat="58.21920833" lon="14.20644"><ele>118.0</ele><time>2016-06-18T08:01:14.292Z</time></trkpt><trkpt lat="58.21920833" lon="14.20644"><ele>118.0</ele><time>2016-06-18T08:01:15.284Z</time></trkpt><trkpt lat="58.21938" lon="14.20651667"><ele>118.0</ele><time>2016-06-18T08:01:16.298Z</time></trkpt><trkpt lat="58.21938" lon="14.20651667"><ele>118.0</ele><time>2016-06-18T08:01:17.306Z</time></trkpt><trkpt lat="58.21955667" lon="14.20659833"><ele>118.0</ele><time>2016-06-18T08:01:18.316Z</time></trkpt><trkpt lat="58.21955667" lon="14.20659833"><ele>118.0</ele><time>2016-06-18T08:01:19.285Z</time></trkpt><trkpt lat="58.21973" lon="14.20668167"><ele>118.0</ele><time>2016-06-18T08:01:20.300Z</time></trkpt><trkpt lat="58.21973" lon="14.20668167"><ele>118.0</ele><time>2016-06-18T08:01:21.285Z</time></trkpt><trkpt lat="58.21990333" lon="14.20676667"><ele>118.0</ele><time>2016-06-18T08:01:22.291Z</time></trkpt><trkpt lat="58.21999" lon="14.20680667"><ele>117.0</ele><time>2016-06-18T08:01:23.317Z</time></trkpt><trkpt lat="58.21999" lon="14.20680667"><ele>117.0</ele><time>2016-06-18T08:01:24.299Z</time></trkpt><trkpt lat="58.220155" lon="14.20688333"><ele>117.0</ele><time>2016-06-18T08:01:25.305Z</time></trkpt><trkpt lat="58.22023667" lon="14.20692"><ele>117.0</ele><time>2016-06-18T08:01:26.318Z</time></trkpt><trkpt lat="58.22023667" lon="14.20692"><ele>117.0</ele><time>2016-06-18T08:01:27.317Z</time></trkpt><trkpt lat="58.220405" lon="14.20700833"><ele>118.0</ele><time>2016-06-18T08:01:28.293Z</time></trkpt><trkpt lat="58.22048667" lon="14.20704667"><ele>118.0</ele><time>2016-06-18T08:01:29.288Z</time></trkpt><trkpt lat="58.22056833" lon="14.207085"><ele>118.0</ele><time>2016-06-18T08:01:30.307Z</time></trkpt><trkpt lat="58.22056833" lon="14.207085"><ele>118.0</ele><time>2016-06-18T08:01:31.291Z</time></trkpt><trkpt lat="58.22073833" lon="14.20717333"><ele>117.0</ele><time>2016-06-18T08:01:32.308Z</time></trkpt><trkpt lat="58.220825" lon="14.20721833"><ele>117.0</ele><time>2016-06-18T08:01:33.299Z</time></trkpt><trkpt lat="58.220825" lon="14.20721833"><ele>117.0</ele><time>2016-06-18T08:01:34.319Z</time></trkpt><trkpt lat="58.22100167" lon="14.20730833"><ele>117.0</ele><time>2016-06-18T08:01:35.328Z</time></trkpt><trkpt lat="58.22100167" lon="14.20730833"><ele>117.0</ele><time>2016-06-18T08:01:36.283Z</time></trkpt><trkpt lat="58.22117167" lon="14.20740833"><ele>118.0</ele><time>2016-06-18T08:01:37.290Z</time></trkpt><trkpt lat="58.22126167" lon="14.20746167"><ele>118.0</ele><time>2016-06-18T08:01:38.296Z</time></trkpt><trkpt lat="58.22126167" lon="14.20746167"><ele>118.0</ele><time>2016-06-18T08:01:39.309Z</time></trkpt><trkpt lat="58.22143333" lon="14.20756333"><ele>119.0</ele><time>2016-06-18T08:01:40.296Z</time></trkpt><trkpt lat="58.22143333" lon="14.20756333"><ele>119.0</ele><time>2016-06-18T08:01:41.319Z</time></trkpt><trkpt lat="58.221605" lon="14.20767167"><ele>120.0</ele><time>2016-06-18T08:01:42.313Z</time></trkpt><trkpt lat="58.22169167" lon="14.20772833"><ele>120.0</ele><time>2016-06-18T08:01:43.299Z</time></trkpt><trkpt lat="58.22169167" lon="14.20772833"><ele>120.0</ele><time>2016-06-18T08:01:44.283Z</time></trkpt><trkpt lat="58.22187167" lon="14.20784167"><ele>121.0</ele><time>2016-06-18T08:01:45.284Z</time></trkpt><trkpt lat="58.22187167" lon="14.20784167"><ele>121.0</ele><time>2016-06-18T08:01:46.307Z</time></trkpt><trkpt lat="58.22205667" lon="14.20795"><ele>121.0</ele><time>2016-06-18T08:01:47.317Z</time></trkpt><trkpt lat="58.22215" lon="14.20801"><ele>121.0</ele><time>2016-06-18T08:01:48.299Z</time></trkpt><trkpt lat="58.22215" lon="14.20801"><ele>121.0</ele><time>2016-06-18T08:01:49.321Z</time></trkpt><trkpt lat="58.22233833" lon="14.20813167"><ele>121.0</ele><time>2016-06-18T08:01:50.292Z</time></trkpt><trkpt lat="58.22233833" lon="14.20813167"><ele>121.0</ele><time>2016-06-18T08:01:51.303Z</time></trkpt><trkpt lat="58.22253167" lon="14.20824833"><ele>121.0</ele><time>2016-06-18T08:01:52.318Z</time></trkpt><trkpt lat="58.22253167" lon="14.20824833"><ele>121.0</ele><time>2016-06-18T08:01:53.312Z</time></trkpt><trkpt lat="58.22272167" lon="14.20837667"><ele>120.0</ele><time>2016-06-18T08:01:54.289Z</time></trkpt><trkpt lat="58.22272167" lon="14.20837667"><ele>120.0</ele><time>2016-06-18T08:01:55.291Z</time></trkpt><trkpt lat="58.222905" lon="14.20851833"><ele>120.0</ele><time>2016-06-18T08:01:56.298Z</time></trkpt><trkpt lat="58.222905" lon="14.20851833"><ele>120.0</ele><time>2016-06-18T08:01:57.319Z</time></trkpt><trkpt lat="58.22309167" lon="14.20864833"><ele>120.0</ele><time>2016-06-18T08:01:58.288Z</time></trkpt><trkpt lat="58.22309167" lon="14.20864833"><ele>120.0</ele><time>2016-06-18T08:01:59.300Z</time></trkpt><trkpt lat="58.22328333" lon="14.20878167"><ele>120.0</ele><time>2016-06-18T08:02:00.306Z</time></trkpt><trkpt lat="58.22338" lon="14.20885333"><ele>120.0</ele><time>2016-06-18T08:02:01.319Z</time></trkpt><trkpt lat="58.22347667" lon="14.208925"><ele>120.0</ele><time>2016-06-18T08:02:02.303Z</time></trkpt><trkpt lat="58.22357" lon="14.208995"><ele>120.0</ele><time>2016-06-18T08:02:03.291Z</time></trkpt><trkpt lat="58.22357" lon="14.208995"><ele>120.0</ele><time>2016-06-18T08:02:04.316Z</time></trkpt><trkpt lat="58.22376167" lon="14.20913833"><ele>119.0</ele><time>2016-06-18T08:02:05.299Z</time></trkpt><trkpt lat="58.22385833" lon="14.20921167"><ele>119.0</ele><time>2016-06-18T08:02:06.315Z</time></trkpt><trkpt lat="58.22385833" lon="14.20921167"><ele>119.0</ele><time>2016-06-18T08:02:07.289Z</time></trkpt><trkpt lat="58.22405167" lon="14.20936"><ele>119.0</ele><time>2016-06-18T08:02:08.295Z</time></trkpt><trkpt lat="58.22414667" lon="14.20943333"><ele>118.0</ele><time>2016-06-18T08:02:09.298Z</time></trkpt><trkpt lat="58.22414667" lon="14.20943333"><ele>118.0</ele><time>2016-06-18T08:02:10.297Z</time></trkpt><trkpt lat="58.22433333" lon="14.20958333"><ele>117.0</ele><time>2016-06-18T08:02:11.301Z</time></trkpt><trkpt lat="58.22442333" lon="14.20965667"><ele>117.0</ele><time>2016-06-18T08:02:12.316Z</time></trkpt><trkpt lat="58.22442333" lon="14.20965667"><ele>117.0</ele><time>2016-06-18T08:02:13.301Z</time></trkpt><trkpt lat="58.22460333" lon="14.209805"><ele>117.0</ele><time>2016-06-18T08:02:14.307Z</time></trkpt><trkpt lat="58.22460333" lon="14.209805"><ele>117.0</ele><time>2016-06-18T08:02:15.289Z</time></trkpt><trkpt lat="58.22477833" lon="14.20994667"><ele>117.0</ele><time>2016-06-18T08:02:16.328Z</time></trkpt><trkpt lat="58.224865" lon="14.21002"><ele>117.0</ele><time>2016-06-18T08:02:17.313Z</time></trkpt><trkpt lat="58.224865" lon="14.21002"><ele>117.0</ele><time>2016-06-18T08:02:18.297Z</time></trkpt><trkpt lat="58.22504667" lon="14.21016667"><ele>118.0</ele><time>2016-06-18T08:02:19.321Z</time></trkpt><trkpt lat="58.22504667" lon="14.21016667"><ele>118.0</ele><time>2016-06-18T08:02:20.293Z</time></trkpt><trkpt lat="58.22522833" lon="14.21031333"><ele>118.0</ele><time>2016-06-18T08:02:21.300Z</time></trkpt><trkpt lat="58.22522833" lon="14.21031333"><ele>118.0</ele><time>2016-06-18T08:02:22.282Z</time></trkpt><trkpt lat="58.22541333" lon="14.21047"><ele>118.0</ele><time>2016-06-18T08:02:23.288Z</time></trkpt><trkpt lat="58.22541333" lon="14.21047"><ele>118.0</ele><time>2016-06-18T08:02:24.299Z</time></trkpt><trkpt lat="58.2256" lon="14.21063167"><ele>117.0</ele><time>2016-06-18T08:02:25.306Z</time></trkpt><trkpt lat="58.22569" lon="14.21071667"><ele>118.0</ele><time>2016-06-18T08:02:26.314Z</time></trkpt><trkpt lat="58.22569" lon="14.21071667"><ele>118.0</ele><time>2016-06-18T08:02:27.300Z</time></trkpt><trkpt lat="58.225875" lon="14.210885"><ele>118.0</ele><time>2016-06-18T08:02:28.307Z</time></trkpt><trkpt lat="58.22597" lon="14.21097"><ele>117.0</ele><time>2016-06-18T08:02:29.318Z</time></trkpt><trkpt lat="58.22597" lon="14.21097"><ele>117.0</ele><time>2016-06-18T08:02:30.312Z</time></trkpt><trkpt lat="58.22616333" lon="14.211145"><ele>117.0</ele><time>2016-06-18T08:02:31.285Z</time></trkpt><trkpt lat="58.22625833" lon="14.21123833"><ele>116.0</ele><time>2016-06-18T08:02:32.325Z</time></trkpt><trkpt lat="58.22625833" lon="14.21123833"><ele>116.0</ele><time>2016-06-18T08:02:33.306Z</time></trkpt><trkpt lat="58.22645" lon="14.21141667"><ele>116.0</ele><time>2016-06-18T08:02:34.315Z</time></trkpt><trkpt lat="58.22645" lon="14.21141667"><ele>116.0</ele><time>2016-06-18T08:02:35.300Z</time></trkpt><trkpt lat="58.22664333" lon="14.2116"><ele>116.0</ele><time>2016-06-18T08:02:36.313Z</time></trkpt><trkpt lat="58.22664333" lon="14.2116"><ele>116.0</ele><time>2016-06-18T08:02:37.310Z</time></trkpt><trkpt lat="58.22683667" lon="14.21179833"><ele>116.0</ele><time>2016-06-18T08:02:38.318Z</time></trkpt><trkpt lat="58.22693" lon="14.21190167"><ele>117.0</ele><time>2016-06-18T08:02:39.327Z</time></trkpt><trkpt lat="58.22693" lon="14.21190167"><ele>117.0</ele><time>2016-06-18T08:02:40.297Z</time></trkpt><trkpt lat="58.22711333" lon="14.21209667"><ele>117.0</ele><time>2016-06-18T08:02:41.307Z</time></trkpt><trkpt lat="58.22711333" lon="14.21209667"><ele>117.0</ele><time>2016-06-18T08:02:42.304Z</time></trkpt><trkpt lat="58.22729" lon="14.21228333"><ele>117.0</ele><time>2016-06-18T08:02:43.290Z</time></trkpt><trkpt lat="58.22729" lon="14.21228333"><ele>117.0</ele><time>2016-06-18T08:02:44.300Z</time></trkpt><trkpt lat="58.22746333" lon="14.21245667"><ele>117.0</ele><time>2016-06-18T08:02:45.307Z</time></trkpt><trkpt lat="58.22754667" lon="14.212545"><ele>117.0</ele><time>2016-06-18T08:02:46.318Z</time></trkpt><trkpt lat="58.22754667" lon="14.212545"><ele>117.0</ele><time>2016-06-18T08:02:47.302Z</time></trkpt><trkpt lat="58.22771" lon="14.21272333"><ele>116.0</ele><time>2016-06-18T08:02:48.311Z</time></trkpt><trkpt lat="58.22779" lon="14.21281167"><ele>116.0</ele><time>2016-06-18T08:02:49.308Z</time></trkpt><trkpt lat="58.22779" lon="14.21281167"><ele>116.0</ele><time>2016-06-18T08:02:50.311Z</time></trkpt><trkpt lat="58.22794833" lon="14.21298167"><ele>116.0</ele><time>2016-06-18T08:02:51.318Z</time></trkpt><trkpt lat="58.228025" lon="14.21306167"><ele>117.0</ele><time>2016-06-18T08:02:52.323Z</time></trkpt><trkpt lat="58.22810167" lon="14.21314333"><ele>117.0</ele><time>2016-06-18T08:02:53.290Z</time></trkpt><trkpt lat="58.22810167" lon="14.21314333"><ele>117.0</ele><time>2016-06-18T08:02:54.316Z</time></trkpt><trkpt lat="58.228245" lon="14.21331"><ele>118.0</ele><time>2016-06-18T08:02:55.313Z</time></trkpt><trkpt lat="58.228245" lon="14.21331"><ele>118.0</ele><time>2016-06-18T08:02:56.320Z</time></trkpt><trkpt lat="58.22838833" lon="14.21348333"><ele>118.0</ele><time>2016-06-18T08:02:57.287Z</time></trkpt><trkpt lat="58.22838833" lon="14.21348333"><ele>118.0</ele><time>2016-06-18T08:02:58.311Z</time></trkpt><trkpt lat="58.22854" lon="14.21365667"><ele>118.0</ele><time>2016-06-18T08:02:59.284Z</time></trkpt><trkpt lat="58.22861833" lon="14.21374167"><ele>118.0</ele><time>2016-06-18T08:03:00.321Z</time></trkpt><trkpt lat="58.22861833" lon="14.21374167"><ele>118.0</ele><time>2016-06-18T08:03:01.304Z</time></trkpt><trkpt lat="58.22876667" lon="14.21391333"><ele>118.0</ele><time>2016-06-18T08:03:02.283Z</time></trkpt><trkpt lat="58.22876667" lon="14.21391333"><ele>118.0</ele><time>2016-06-18T08:03:03.288Z</time></trkpt><trkpt lat="58.228905" lon="14.21407667"><ele>117.0</ele><time>2016-06-18T08:03:04.294Z</time></trkpt><trkpt lat="58.228905" lon="14.21407667"><ele>117.0</ele><time>2016-06-18T08:03:05.300Z</time></trkpt><trkpt lat="58.22904667" lon="14.214235"><ele>117.0</ele><time>2016-06-18T08:03:06.315Z</time></trkpt><trkpt lat="58.22904667" lon="14.214235"><ele>117.0</ele><time>2016-06-18T08:03:07.291Z</time></trkpt><trkpt lat="58.22918333" lon="14.2144"><ele>118.0</ele><time>2016-06-18T08:03:08.303Z</time></trkpt><trkpt lat="58.22918333" lon="14.2144"><ele>118.0</ele><time>2016-06-18T08:03:09.286Z</time></trkpt><trkpt lat="58.229325" lon="14.21456167"><ele>118.0</ele><time>2016-06-18T08:03:10.322Z</time></trkpt><trkpt lat="58.229325" lon="14.21456167"><ele>118.0</ele><time>2016-06-18T08:03:11.309Z</time></trkpt><trkpt lat="58.22947333" lon="14.21473"><ele>118.0</ele><time>2016-06-18T08:03:12.315Z</time></trkpt><trkpt lat="58.22954833" lon="14.21482"><ele>118.0</ele><time>2016-06-18T08:03:13.299Z</time></trkpt><trkpt lat="58.22962667" lon="14.21490833"><ele>118.0</ele><time>2016-06-18T08:03:14.282Z</time></trkpt><trkpt lat="58.22962667" lon="14.21490833"><ele>118.0</ele><time>2016-06-18T08:03:15.302Z</time></trkpt><trkpt lat="58.22978333" lon="14.21508833"><ele>117.0</ele><time>2016-06-18T08:03:16.309Z</time></trkpt><trkpt lat="58.22978333" lon="14.21508833"><ele>117.0</ele><time>2016-06-18T08:03:17.301Z</time></trkpt><trkpt lat="58.22993667" lon="14.215275"><ele>117.0</ele><time>2016-06-18T08:03:18.309Z</time></trkpt><trkpt lat="58.22993667" lon="14.215275"><ele>117.0</ele><time>2016-06-18T08:03:19.319Z</time></trkpt><trkpt lat="58.23009" lon="14.21547333"><ele>117.0</ele><time>2016-06-18T08:03:20.288Z</time></trkpt><trkpt lat="58.23016833" lon="14.21557167"><ele>117.0</ele><time>2016-06-18T08:03:21.310Z</time></trkpt><trkpt lat="58.23016833" lon="14.21557167"><ele>117.0</ele><time>2016-06-18T08:03:22.307Z</time></trkpt><trkpt lat="58.23032" lon="14.215765"><ele>117.0</ele><time>2016-06-18T08:03:23.283Z</time></trkpt><trkpt lat="58.230395" lon="14.21585667"><ele>118.0</ele><time>2016-06-18T08:03:24.314Z</time></trkpt><trkpt lat="58.230395" lon="14.21585667"><ele>118.0</ele><time>2016-06-18T08:03:25.307Z</time></trkpt><trkpt lat="58.23054667" lon="14.21604167"><ele>117.0</ele><time>2016-06-18T08:03:26.315Z</time></trkpt><trkpt lat="58.23054667" lon="14.21604167"><ele>117.0</ele><time>2016-06-18T08:03:27.301Z</time></trkpt><trkpt lat="58.2307" lon="14.21623167"><ele>118.0</ele><time>2016-06-18T08:03:28.315Z</time></trkpt><trkpt lat="58.2307" lon="14.21623167"><ele>118.0</ele><time>2016-06-18T08:03:29.309Z</time></trkpt><trkpt lat="58.23085667" lon="14.21641333"><ele>118.0</ele><time>2016-06-18T08:03:30.320Z</time></trkpt><trkpt lat="58.23085667" lon="14.21641333"><ele>118.0</ele><time>2016-06-18T08:03:31.290Z</time></trkpt><trkpt lat="58.23101667" lon="14.2166"><ele>118.0</ele><time>2016-06-18T08:03:32.296Z</time></trkpt><trkpt lat="58.231095" lon="14.21669833"><ele>119.0</ele><time>2016-06-18T08:03:33.292Z</time></trkpt><trkpt lat="58.231095" lon="14.21669833"><ele>119.0</ele><time>2016-06-18T08:03:34.302Z</time></trkpt><trkpt lat="58.23125833" lon="14.216895"><ele>119.0</ele><time>2016-06-18T08:03:35.309Z</time></trkpt><trkpt lat="58.23133833" lon="14.21699"><ele>119.0</ele><time>2016-06-18T08:03:36.309Z</time></trkpt><trkpt lat="58.23133833" lon="14.21699"><ele>119.0</ele><time>2016-06-18T08:03:37.295Z</time></trkpt><trkpt lat="58.2315" lon="14.21718333"><ele>119.0</ele><time>2016-06-18T08:03:38.302Z</time></trkpt><trkpt lat="58.2315" lon="14.21718333"><ele>119.0</ele><time>2016-06-18T08:03:39.289Z</time></trkpt><trkpt lat="58.23165833" lon="14.21737833"><ele>119.0</ele><time>2016-06-18T08:03:40.291Z</time></trkpt><trkpt lat="58.23165833" lon="14.21737833"><ele>119.0</ele><time>2016-06-18T08:03:41.321Z</time></trkpt><trkpt lat="58.23181667" lon="14.21756667"><ele>119.0</ele><time>2016-06-18T08:03:42.289Z</time></trkpt><trkpt lat="58.23189667" lon="14.21766167"><ele>120.0</ele><time>2016-06-18T08:03:43.317Z</time></trkpt><trkpt lat="58.231975" lon="14.21776"><ele>120.0</ele><time>2016-06-18T08:03:44.311Z</time></trkpt><trkpt lat="58.231975" lon="14.21776"><ele>120.0</ele><time>2016-06-18T08:03:45.293Z</time></trkpt><trkpt lat="58.23213833" lon="14.21795333"><ele>119.0</ele><time>2016-06-18T08:03:46.300Z</time></trkpt><trkpt lat="58.23213833" lon="14.21795333"><ele>119.0</ele><time>2016-06-18T08:03:47.282Z</time></trkpt><trkpt lat="58.2323" lon="14.21814"><ele>119.0</ele><time>2016-06-18T08:03:48.296Z</time></trkpt><trkpt lat="58.2323" lon="14.21814"><ele>119.0</ele><time>2016-06-18T08:03:49.282Z</time></trkpt><trkpt lat="58.23245667" lon="14.21833167"><ele>119.0</ele><time>2016-06-18T08:03:50.290Z</time></trkpt><trkpt lat="58.23245667" lon="14.21833167"><ele>119.0</ele><time>2016-06-18T08:03:51.297Z</time></trkpt><trkpt lat="58.23261" lon="14.21851667"><ele>119.0</ele><time>2016-06-18T08:03:52.290Z</time></trkpt><trkpt lat="58.23261" lon="14.21851667"><ele>119.0</ele><time>2016-06-18T08:03:53.299Z</time></trkpt><trkpt lat="58.23276" lon="14.218695"><ele>119.0</ele><time>2016-06-18T08:03:54.306Z</time></trkpt><trkpt lat="58.23283667" lon="14.21878167"><ele>119.0</ele><time>2016-06-18T08:03:55.308Z</time></trkpt><trkpt lat="58.232915" lon="14.21887833"><ele>118.0</ele><time>2016-06-18T08:03:56.300Z</time></trkpt><trkpt lat="58.232915" lon="14.21887833"><ele>118.0</ele><time>2016-06-18T08:03:57.321Z</time></trkpt><trkpt lat="58.23307667" lon="14.21907333"><ele>118.0</ele><time>2016-06-18T08:03:58.302Z</time></trkpt><trkpt lat="58.23316" lon="14.21916833"><ele>119.0</ele><time>2016-06-18T08:03:59.296Z</time></trkpt><trkpt lat="58.23324167" lon="14.21926333"><ele>119.0</ele><time>2016-06-18T08:04:00.321Z</time></trkpt><trkpt lat="58.23324167" lon="14.21926333"><ele>119.0</ele><time>2016-06-18T08:04:01.302Z</time></trkpt><trkpt lat="58.233405" lon="14.21945833"><ele>118.0</ele><time>2016-06-18T08:04:02.308Z</time></trkpt><trkpt lat="58.233405" lon="14.21945833"><ele>118.0</ele><time>2016-06-18T08:04:03.284Z</time></trkpt><trkpt lat="58.233565" lon="14.219645"><ele>118.0</ele><time>2016-06-18T08:04:04.290Z</time></trkpt><trkpt lat="58.233565" lon="14.219645"><ele>118.0</ele><time>2016-06-18T08:04:05.302Z</time></trkpt><trkpt lat="58.23371833" lon="14.21983333"><ele>118.0</ele><time>2016-06-18T08:04:06.313Z</time></trkpt><trkpt lat="58.23371833" lon="14.21983333"><ele>118.0</ele><time>2016-06-18T08:04:07.307Z</time></trkpt><trkpt lat="58.23388167" lon="14.22004167"><ele>118.0</ele><time>2016-06-18T08:04:08.314Z</time></trkpt><trkpt lat="58.23388167" lon="14.22004167"><ele>118.0</ele><time>2016-06-18T08:04:09.297Z</time></trkpt><trkpt lat="58.23404667" lon="14.22026"><ele>118.0</ele><time>2016-06-18T08:04:10.315Z</time></trkpt><trkpt lat="58.23404667" lon="14.22026"><ele>118.0</ele><time>2016-06-18T08:04:11.293Z</time></trkpt><trkpt lat="58.234215" lon="14.22047167"><ele>118.0</ele><time>2016-06-18T08:04:12.321Z</time></trkpt><trkpt lat="58.234215" lon="14.22047167"><ele>118.0</ele><time>2016-06-18T08:04:13.304Z</time></trkpt><trkpt lat="58.23439333" lon="14.22068333"><ele>119.0</ele><time>2016-06-18T08:04:14.311Z</time></trkpt><trkpt lat="58.23448" lon="14.22079333"><ele>119.0</ele><time>2016-06-18T08:04:15.315Z</time></trkpt><trkpt lat="58.23456833" lon="14.22089667"><ele>119.0</ele><time>2016-06-18T08:04:16.291Z</time></trkpt><trkpt lat="58.23456833" lon="14.22089667"><ele>119.0</ele><time>2016-06-18T08:04:17.320Z</time></trkpt><trkpt lat="58.23473833" lon="14.22109333"><ele>119.0</ele><time>2016-06-18T08:04:18.298Z</time></trkpt><trkpt lat="58.23473833" lon="14.22109333"><ele>119.0</ele><time>2016-06-18T08:04:19.289Z</time></trkpt><trkpt lat="58.23492167" lon="14.22131"><ele>118.0</ele><time>2016-06-18T08:04:20.298Z</time></trkpt><trkpt lat="58.23500833" lon="14.22142"><ele>118.0</ele><time>2016-06-18T08:04:21.303Z</time></trkpt><trkpt lat="58.23500833" lon="14.22142"><ele>118.0</ele><time>2016-06-18T08:04:22.284Z</time></trkpt><trkpt lat="58.23518167" lon="14.22164167"><ele>119.0</ele><time>2016-06-18T08:04:23.306Z</time></trkpt><trkpt lat="58.23518167" lon="14.22164167"><ele>119.0</ele><time>2016-06-18T08:04:24.319Z</time></trkpt><trkpt lat="58.23535667" lon="14.22186"><ele>119.0</ele><time>2016-06-18T08:04:25.286Z</time></trkpt><trkpt lat="58.23544833" lon="14.22196667"><ele>119.0</ele><time>2016-06-18T08:04:26.322Z</time></trkpt><trkpt lat="58.23544833" lon="14.22196667"><ele>119.0</ele><time>2016-06-18T08:04:27.292Z</time></trkpt><trkpt lat="58.235635" lon="14.222185"><ele>119.0</ele><time>2016-06-18T08:04:28.299Z</time></trkpt><trkpt lat="58.235635" lon="14.222185"><ele>119.0</ele><time>2016-06-18T08:04:29.320Z</time></trkpt><trkpt lat="58.235815" lon="14.22240167"><ele>119.0</ele><time>2016-06-18T08:04:30.304Z</time></trkpt><trkpt lat="58.235815" lon="14.22240167"><ele>119.0</ele><time>2016-06-18T08:04:31.320Z</time></trkpt><trkpt lat="58.23599333" lon="14.22261333"><ele>119.0</ele><time>2016-06-18T08:04:32.289Z</time></trkpt><trkpt lat="58.23599333" lon="14.22261333"><ele>119.0</ele><time>2016-06-18T08:04:33.310Z</time></trkpt><trkpt lat="58.236175" lon="14.22283333"><ele>119.0</ele><time>2016-06-18T08:04:34.312Z</time></trkpt><trkpt lat="58.23626833" lon="14.22294667"><ele>118.0</ele><time>2016-06-18T08:04:35.283Z</time></trkpt><trkpt lat="58.23626833" lon="14.22294667"><ele>118.0</ele><time>2016-06-18T08:04:36.304Z</time></trkpt><trkpt lat="58.23645167" lon="14.22317833"><ele>118.0</ele><time>2016-06-18T08:04:37.311Z</time></trkpt><trkpt lat="58.23654667" lon="14.22328667"><ele>118.0</ele><time>2016-06-18T08:04:38.282Z</time></trkpt><trkpt lat="58.23654667" lon="14.22328667"><ele>118.0</ele><time>2016-06-18T08:04:39.303Z</time></trkpt><trkpt lat="58.23672667" lon="14.22349833"><ele>118.0</ele><time>2016-06-18T08:04:40.293Z</time></trkpt><trkpt lat="58.23681167" lon="14.2236"><ele>118.0</ele><time>2016-06-18T08:04:41.304Z</time></trkpt><trkpt lat="58.23681167" lon="14.2236"><ele>118.0</ele><time>2016-06-18T08:04:42.284Z</time></trkpt><trkpt lat="58.23699167" lon="14.2238"><ele>118.0</ele><time>2016-06-18T08:04:43.294Z</time></trkpt><trkpt lat="58.23699167" lon="14.2238"><ele>118.0</ele><time>2016-06-18T08:04:44.297Z</time></trkpt><trkpt lat="58.23717167" lon="14.22401167"><ele>117.0</ele><time>2016-06-18T08:04:45.304Z</time></trkpt><trkpt lat="58.23717167" lon="14.22401167"><ele>117.0</ele><time>2016-06-18T08:04:46.285Z</time></trkpt><trkpt lat="58.23736167" lon="14.22422667"><ele>116.0</ele><time>2016-06-18T08:04:47.317Z</time></trkpt><trkpt lat="58.23736167" lon="14.22422667"><ele>116.0</ele><time>2016-06-18T08:04:48.321Z</time></trkpt><trkpt lat="58.23755" lon="14.22444833"><ele>116.0</ele><time>2016-06-18T08:04:49.298Z</time></trkpt><trkpt lat="58.23764667" lon="14.224555"><ele>116.0</ele><time>2016-06-18T08:04:50.310Z</time></trkpt><trkpt lat="58.23764667" lon="14.224555"><ele>116.0</ele><time>2016-06-18T08:04:51.307Z</time></trkpt><trkpt lat="58.23783333" lon="14.22476"><ele>115.0</ele><time>2016-06-18T08:04:52.285Z</time></trkpt><trkpt lat="58.23792667" lon="14.22486"><ele>116.0</ele><time>2016-06-18T08:04:53.309Z</time></trkpt><trkpt lat="58.23792667" lon="14.22486"><ele>116.0</ele><time>2016-06-18T08:04:54.297Z</time></trkpt><trkpt lat="58.23811833" lon="14.22505667"><ele>116.0</ele><time>2016-06-18T08:04:55.305Z</time></trkpt><trkpt lat="58.23811833" lon="14.22505667"><ele>116.0</ele><time>2016-06-18T08:04:56.286Z</time></trkpt><trkpt lat="58.23831" lon="14.22525333"><ele>116.0</ele><time>2016-06-18T08:04:57.285Z</time></trkpt><trkpt lat="58.23831" lon="14.22525333"><ele>116.0</ele><time>2016-06-18T08:04:58.304Z</time></trkpt><trkpt lat="58.23849667" lon="14.225455"><ele>115.0</ele><time>2016-06-18T08:04:59.318Z</time></trkpt><trkpt lat="58.23849667" lon="14.225455"><ele>115.0</ele><time>2016-06-18T08:05:00.302Z</time></trkpt><trkpt lat="58.23867667" lon="14.22563667"><ele>115.0</ele><time>2016-06-18T08:05:01.309Z</time></trkpt><trkpt lat="58.23876333" lon="14.22572"><ele>115.0</ele><time>2016-06-18T08:05:02.300Z</time></trkpt><trkpt lat="58.23876333" lon="14.22572"><ele>115.0</ele><time>2016-06-18T08:05:03.284Z</time></trkpt><trkpt lat="58.23893667" lon="14.22588833"><ele>115.0</ele><time>2016-06-18T08:05:04.290Z</time></trkpt><trkpt lat="58.23902333" lon="14.22597667"><ele>114.0</ele><time>2016-06-18T08:05:05.288Z</time></trkpt><trkpt lat="58.23902333" lon="14.22597667"><ele>114.0</ele><time>2016-06-18T08:05:06.321Z</time></trkpt><trkpt lat="58.23919833" lon="14.22614667"><ele>114.0</ele><time>2016-06-18T08:05:07.287Z</time></trkpt><trkpt lat="58.23928667" lon="14.22623"><ele>114.0</ele><time>2016-06-18T08:05:08.318Z</time></trkpt><trkpt lat="58.23928667" lon="14.22623"><ele>114.0</ele><time>2016-06-18T08:05:09.301Z</time></trkpt><trkpt lat="58.23946167" lon="14.22639167"><ele>113.0</ele><time>2016-06-18T08:05:10.307Z</time></trkpt><trkpt lat="58.23946167" lon="14.22639167"><ele>113.0</ele><time>2016-06-18T08:05:11.321Z</time></trkpt><trkpt lat="58.23964" lon="14.22653833"><ele>113.0</ele><time>2016-06-18T08:05:12.315Z</time></trkpt><trkpt lat="58.23973167" lon="14.22661833"><ele>113.0</ele><time>2016-06-18T08:05:13.305Z</time></trkpt><trkpt lat="58.23982167" lon="14.22670667"><ele>113.0</ele><time>2016-06-18T08:05:14.289Z</time></trkpt><trkpt lat="58.23982167" lon="14.22670667"><ele>113.0</ele><time>2016-06-18T08:05:15.311Z</time></trkpt><trkpt lat="58.24001" lon="14.22688333"><ele>112.0</ele><time>2016-06-18T08:05:16.319Z</time></trkpt><trkpt lat="58.24001" lon="14.22688333"><ele>112.0</ele><time>2016-06-18T08:05:17.303Z</time></trkpt><trkpt lat="58.24020333" lon="14.22705"><ele>112.0</ele><time>2016-06-18T08:05:18.282Z</time></trkpt><trkpt lat="58.24020333" lon="14.22705"><ele>112.0</ele><time>2016-06-18T08:05:19.310Z</time></trkpt><trkpt lat="58.24040667" lon="14.22722"><ele>111.0</ele><time>2016-06-18T08:05:20.286Z</time></trkpt><trkpt lat="58.24040667" lon="14.22722"><ele>111.0</ele><time>2016-06-18T08:05:21.311Z</time></trkpt><trkpt lat="58.24061167" lon="14.22739167"><ele>111.0</ele><time>2016-06-18T08:05:22.288Z</time></trkpt><trkpt lat="58.24071333" lon="14.22747167"><ele>111.0</ele><time>2016-06-18T08:05:23.294Z</time></trkpt><trkpt lat="58.24071333" lon="14.22747167"><ele>111.0</ele><time>2016-06-18T08:05:24.320Z</time></trkpt><trkpt lat="58.24091" lon="14.22763167"><ele>111.0</ele><time>2016-06-18T08:05:25.316Z</time></trkpt><trkpt lat="58.24100667" lon="14.22771"><ele>111.0</ele><time>2016-06-18T08:05:26.292Z</time></trkpt><trkpt lat="58.24100667" lon="14.22771"><ele>111.0</ele><time>2016-06-18T08:05:27.315Z</time></trkpt><trkpt lat="58.24119667" lon="14.22786"><ele>111.0</ele><time>2016-06-18T08:05:28.301Z</time></trkpt><trkpt lat="58.24119667" lon="14.22786"><ele>111.0</ele><time>2016-06-18T08:05:29.299Z</time></trkpt><trkpt lat="58.24138" lon="14.22800167"><ele>111.0</ele><time>2016-06-18T08:05:30.307Z</time></trkpt><trkpt lat="58.24138" lon="14.22800167"><ele>111.0</ele><time>2016-06-18T08:05:31.298Z</time></trkpt><trkpt lat="58.24156333" lon="14.22814"><ele>111.0</ele><time>2016-06-18T08:05:32.305Z</time></trkpt><trkpt lat="58.24156333" lon="14.22814"><ele>111.0</ele><time>2016-06-18T08:05:33.285Z</time></trkpt><trkpt lat="58.24175" lon="14.22826667"><ele>110.0</ele><time>2016-06-18T08:05:34.289Z</time></trkpt><trkpt lat="58.24175" lon="14.22826667"><ele>110.0</ele><time>2016-06-18T08:05:35.320Z</time></trkpt><trkpt lat="58.241935" lon="14.22839333"><ele>110.0</ele><time>2016-06-18T08:05:36.286Z</time></trkpt><trkpt lat="58.241935" lon="14.22839333"><ele>110.0</ele><time>2016-06-18T08:05:37.308Z</time></trkpt><trkpt lat="58.24212" lon="14.22852"><ele>110.0</ele><time>2016-06-18T08:05:38.311Z</time></trkpt><trkpt lat="58.24212" lon="14.22852"><ele>110.0</ele><time>2016-06-18T08:05:39.291Z</time></trkpt><trkpt lat="58.24230667" lon="14.22864333"><ele>110.0</ele><time>2016-06-18T08:05:40.298Z</time></trkpt><trkpt lat="58.24230667" lon="14.22864333"><ele>110.0</ele><time>2016-06-18T08:05:41.310Z</time></trkpt><trkpt lat="58.24249167" lon="14.22876833"><ele>110.0</ele><time>2016-06-18T08:05:42.319Z</time></trkpt><trkpt lat="58.24249167" lon="14.22876833"><ele>110.0</ele><time>2016-06-18T08:05:43.303Z</time></trkpt><trkpt lat="58.24268" lon="14.22889"><ele>110.0</ele><time>2016-06-18T08:05:44.288Z</time></trkpt><trkpt lat="58.24268" lon="14.22889"><ele>110.0</ele><time>2016-06-18T08:05:45.290Z</time></trkpt><trkpt lat="58.24286833" lon="14.229005"><ele>111.0</ele><time>2016-06-18T08:05:46.288Z</time></trkpt><trkpt lat="58.24286833" lon="14.229005"><ele>111.0</ele><time>2016-06-18T08:05:47.315Z</time></trkpt><trkpt lat="58.243055" lon="14.229115"><ele>111.0</ele><time>2016-06-18T08:05:48.309Z</time></trkpt><trkpt lat="58.24314833" lon="14.22917"><ele>110.0</ele><time>2016-06-18T08:05:49.289Z</time></trkpt><trkpt lat="58.24314833" lon="14.22917"><ele>110.0</ele><time>2016-06-18T08:05:50.322Z</time></trkpt><trkpt lat="58.24333667" lon="14.229275"><ele>111.0</ele><time>2016-06-18T08:05:51.312Z</time></trkpt><trkpt lat="58.24333667" lon="14.229275"><ele>111.0</ele><time>2016-06-18T08:05:52.318Z</time></trkpt><trkpt lat="58.243525" lon="14.22938"><ele>110.0</ele><time>2016-06-18T08:05:53.287Z</time></trkpt><trkpt lat="58.24361667" lon="14.22943"><ele>110.0</ele><time>2016-06-18T08:05:54.320Z</time></trkpt><trkpt lat="58.24361667" lon="14.22943"><ele>110.0</ele><time>2016-06-18T08:05:55.288Z</time></trkpt><trkpt lat="58.24379833" lon="14.22953"><ele>111.0</ele><time>2016-06-18T08:05:56.295Z</time></trkpt><trkpt lat="58.24379833" lon="14.22953"><ele>111.0</ele><time>2016-06-18T08:05:57.287Z</time></trkpt><trkpt lat="58.24397333" lon="14.22963"><ele>111.0</ele><time>2016-06-18T08:05:58.288Z</time></trkpt><trkpt lat="58.24397333" lon="14.22963"><ele>111.0</ele><time>2016-06-18T08:05:59.287Z</time></trkpt><trkpt lat="58.24414667" lon="14.22973833"><ele>111.0</ele><time>2016-06-18T08:06:00.299Z</time></trkpt><trkpt lat="58.244235" lon="14.22979167"><ele>111.0</ele><time>2016-06-18T08:06:01.310Z</time></trkpt><trkpt lat="58.244235" lon="14.22979167"><ele>111.0</ele><time>2016-06-18T08:06:02.291Z</time></trkpt><trkpt lat="58.244415" lon="14.22988833"><ele>111.0</ele><time>2016-06-18T08:06:03.311Z</time></trkpt><trkpt lat="58.24450667" lon="14.22994667"><ele>111.0</ele><time>2016-06-18T08:06:04.282Z</time></trkpt><trkpt lat="58.24450667" lon="14.22994667"><ele>111.0</ele><time>2016-06-18T08:06:05.305Z</time></trkpt><trkpt lat="58.24468667" lon="14.23006167"><ele>113.0</ele><time>2016-06-18T08:06:06.286Z</time></trkpt><trkpt lat="58.24477833" lon="14.23011"><ele>113.0</ele><time>2016-06-18T08:06:07.320Z</time></trkpt><trkpt lat="58.24487" lon="14.23016"><ele>113.0</ele><time>2016-06-18T08:06:08.301Z</time></trkpt><trkpt lat="58.24487" lon="14.23016"><ele>113.0</ele><time>2016-06-18T08:06:09.282Z</time></trkpt><trkpt lat="58.24505667" lon="14.23025833"><ele>114.0</ele><time>2016-06-18T08:06:10.289Z</time></trkpt><trkpt lat="58.24505667" lon="14.23025833"><ele>114.0</ele><time>2016-06-18T08:06:11.320Z</time></trkpt><trkpt lat="58.24524167" lon="14.23036333"><ele>115.0</ele><time>2016-06-18T08:06:12.294Z</time></trkpt><trkpt lat="58.24524167" lon="14.23036333"><ele>115.0</ele><time>2016-06-18T08:06:13.284Z</time></trkpt><trkpt lat="58.24542333" lon="14.23047833"><ele>115.0</ele><time>2016-06-18T08:06:14.291Z</time></trkpt><trkpt lat="58.24542333" lon="14.23047833"><ele>115.0</ele><time>2016-06-18T08:06:15.313Z</time></trkpt><trkpt lat="58.24560667" lon="14.23058"><ele>116.0</ele><time>2016-06-18T08:06:16.288Z</time></trkpt><trkpt lat="58.24560667" lon="14.23058"><ele>116.0</ele><time>2016-06-18T08:06:17.295Z</time></trkpt><trkpt lat="58.245785" lon="14.23067667"><ele>115.0</ele><time>2016-06-18T08:06:18.301Z</time></trkpt><trkpt lat="58.245785" lon="14.23067667"><ele>115.0</ele><time>2016-06-18T08:06:19.282Z</time></trkpt><trkpt lat="58.24596" lon="14.23077167"><ele>115.0</ele><time>2016-06-18T08:06:20.318Z</time></trkpt><trkpt lat="58.24596" lon="14.23077167"><ele>115.0</ele><time>2016-06-18T08:06:21.284Z</time></trkpt><trkpt lat="58.24613167" lon="14.23086167"><ele>115.0</ele><time>2016-06-18T08:06:22.292Z</time></trkpt><trkpt lat="58.24622" lon="14.23091167"><ele>115.0</ele><time>2016-06-18T08:06:23.305Z</time></trkpt><trkpt lat="58.24622" lon="14.23091167"><ele>115.0</ele><time>2016-06-18T08:06:24.319Z</time></trkpt><trkpt lat="58.246395" lon="14.23100833"><ele>115.0</ele><time>2016-06-18T08:06:25.286Z</time></trkpt><trkpt lat="58.246395" lon="14.23100833"><ele>115.0</ele><time>2016-06-18T08:06:26.290Z</time></trkpt><trkpt lat="58.24656667" lon="14.231105"><ele>115.0</ele><time>2016-06-18T08:06:27.297Z</time></trkpt><trkpt lat="58.24656667" lon="14.231105"><ele>115.0</ele><time>2016-06-18T08:06:28.320Z</time></trkpt><trkpt lat="58.24674167" lon="14.231195"><ele>116.0</ele><time>2016-06-18T08:06:29.321Z</time></trkpt><trkpt lat="58.24674167" lon="14.231195"><ele>116.0</ele><time>2016-06-18T08:06:30.304Z</time></trkpt><trkpt lat="58.24691833" lon="14.23129167"><ele>116.0</ele><time>2016-06-18T08:06:31.311Z</time></trkpt><trkpt lat="58.24700667" lon="14.23134667"><ele>116.0</ele><time>2016-06-18T08:06:32.292Z</time></trkpt><trkpt lat="58.24700667" lon="14.23134667"><ele>116.0</ele><time>2016-06-18T08:06:33.282Z</time></trkpt><trkpt lat="58.24718667" lon="14.23146"><ele>116.0</ele><time>2016-06-18T08:06:34.298Z</time></trkpt><trkpt lat="58.24728" lon="14.23151333"><ele>116.0</ele><time>2016-06-18T08:06:35.282Z</time></trkpt><trkpt lat="58.24728" lon="14.23151333"><ele>116.0</ele><time>2016-06-18T08:06:36.304Z</time></trkpt><trkpt lat="58.24747" lon="14.23161833"><ele>115.0</ele><time>2016-06-18T08:06:37.311Z</time></trkpt><trkpt lat="58.247565" lon="14.23167"><ele>115.0</ele><time>2016-06-18T08:06:38.293Z</time></trkpt><trkpt lat="58.247565" lon="14.23167"><ele>115.0</ele><time>2016-06-18T08:06:39.309Z</time></trkpt><trkpt lat="58.24775667" lon="14.23177167"><ele>115.0</ele><time>2016-06-18T08:06:40.317Z</time></trkpt><trkpt lat="58.24785333" lon="14.23182667"><ele>115.0</ele><time>2016-06-18T08:06:41.318Z</time></trkpt><trkpt lat="58.24785333" lon="14.23182667"><ele>115.0</ele><time>2016-06-18T08:06:42.309Z</time></trkpt><trkpt lat="58.24804167" lon="14.23193"><ele>115.0</ele><time>2016-06-18T08:06:43.285Z</time></trkpt><trkpt lat="58.248135" lon="14.23198"><ele>115.0</ele><time>2016-06-18T08:06:44.286Z</time></trkpt><trkpt lat="58.248135" lon="14.23198"><ele>115.0</ele><time>2016-06-18T08:06:45.301Z</time></trkpt><trkpt lat="58.24832333" lon="14.232085"><ele>115.0</ele><time>2016-06-18T08:06:46.308Z</time></trkpt><trkpt lat="58.24832333" lon="14.232085"><ele>115.0</ele><time>2016-06-18T08:06:47.289Z</time></trkpt><trkpt lat="58.24851333" lon="14.23219333"><ele>115.0</ele><time>2016-06-18T08:06:48.305Z</time></trkpt><trkpt lat="58.24851333" lon="14.23219333"><ele>115.0</ele><time>2016-06-18T08:06:49.300Z</time></trkpt><trkpt lat="58.24870167" lon="14.2323"><ele>115.0</ele><time>2016-06-18T08:06:50.309Z</time></trkpt><trkpt lat="58.24870167" lon="14.2323"><ele>115.0</ele><time>2016-06-18T08:06:51.291Z</time></trkpt><trkpt lat="58.24888833" lon="14.232405"><ele>115.0</ele><time>2016-06-18T08:06:52.314Z</time></trkpt><trkpt lat="58.24888833" lon="14.232405"><ele>115.0</ele><time>2016-06-18T08:06:53.294Z</time></trkpt><trkpt lat="58.24908167" lon="14.23251167"><ele>114.0</ele><time>2016-06-18T08:06:54.300Z</time></trkpt><trkpt lat="58.24908167" lon="14.23251167"><ele>114.0</ele><time>2016-06-18T08:06:55.288Z</time></trkpt><trkpt lat="58.24927" lon="14.23261833"><ele>114.0</ele><time>2016-06-18T08:06:56.312Z</time></trkpt><trkpt lat="58.24927" lon="14.23261833"><ele>114.0</ele><time>2016-06-18T08:06:57.313Z</time></trkpt><trkpt lat="58.24945833" lon="14.23272"><ele>114.0</ele><time>2016-06-18T08:06:58.321Z</time></trkpt><trkpt lat="58.24945833" lon="14.23272"><ele>114.0</ele><time>2016-06-18T08:06:59.306Z</time></trkpt><trkpt lat="58.24964667" lon="14.23282833"><ele>114.0</ele><time>2016-06-18T08:07:00.310Z</time></trkpt><trkpt lat="58.24964667" lon="14.23282833"><ele>114.0</ele><time>2016-06-18T08:07:01.302Z</time></trkpt><trkpt lat="58.24983333" lon="14.23294"><ele>114.0</ele><time>2016-06-18T08:07:02.309Z</time></trkpt><trkpt lat="58.24992833" lon="14.23299667"><ele>114.0</ele><time>2016-06-18T08:07:03.294Z</time></trkpt><trkpt lat="58.24992833" lon="14.23299667"><ele>114.0</ele><time>2016-06-18T08:07:04.300Z</time></trkpt><trkpt lat="58.25011833" lon="14.23311333"><ele>114.0</ele><time>2016-06-18T08:07:05.307Z</time></trkpt><trkpt lat="58.25011833" lon="14.23311333"><ele>114.0</ele><time>2016-06-18T08:07:06.290Z</time></trkpt><trkpt lat="58.25030667" lon="14.233235"><ele>114.0</ele><time>2016-06-18T08:07:07.312Z</time></trkpt><trkpt lat="58.25039833" lon="14.23329667"><ele>114.0</ele><time>2016-06-18T08:07:08.298Z</time></trkpt><trkpt lat="58.25039833" lon="14.23329667"><ele>114.0</ele><time>2016-06-18T08:07:09.320Z</time></trkpt><trkpt lat="58.25058" lon="14.23342333"><ele>115.0</ele><time>2016-06-18T08:07:10.312Z</time></trkpt><trkpt lat="58.25058" lon="14.23342333"><ele>115.0</ele><time>2016-06-18T08:07:11.300Z</time></trkpt><trkpt lat="58.25075833" lon="14.23355167"><ele>115.0</ele><time>2016-06-18T08:07:12.299Z</time></trkpt><trkpt lat="58.25075833" lon="14.23355167"><ele>115.0</ele><time>2016-06-18T08:07:13.282Z</time></trkpt><trkpt lat="58.25092833" lon="14.23369"><ele>115.0</ele><time>2016-06-18T08:07:14.289Z</time></trkpt><trkpt lat="58.25092833" lon="14.23369"><ele>115.0</ele><time>2016-06-18T08:07:15.306Z</time></trkpt><trkpt lat="58.25109667" lon="14.23383333"><ele>115.0</ele><time>2016-06-18T08:07:16.326Z</time></trkpt><trkpt lat="58.25109667" lon="14.23383333"><ele>115.0</ele><time>2016-06-18T08:07:17.283Z</time></trkpt><trkpt lat="58.25126833" lon="14.23398"><ele>115.0</ele><time>2016-06-18T08:07:18.289Z</time></trkpt><trkpt lat="58.25126833" lon="14.23398"><ele>115.0</ele><time>2016-06-18T08:07:19.311Z</time></trkpt><trkpt lat="58.25143833" lon="14.23413833"><ele>115.0</ele><time>2016-06-18T08:07:20.288Z</time></trkpt><trkpt lat="58.25143833" lon="14.23413833"><ele>115.0</ele><time>2016-06-18T08:07:21.286Z</time></trkpt><trkpt lat="58.251605" lon="14.23429333"><ele>115.0</ele><time>2016-06-18T08:07:22.297Z</time></trkpt><trkpt lat="58.25168833" lon="14.23436667"><ele>115.0</ele><time>2016-06-18T08:07:23.303Z</time></trkpt><trkpt lat="58.25168833" lon="14.23436667"><ele>115.0</ele><time>2016-06-18T08:07:24.284Z</time></trkpt><trkpt lat="58.25185" lon="14.23451"><ele>115.0</ele><time>2016-06-18T08:07:25.292Z</time></trkpt><trkpt lat="58.25193" lon="14.23458833"><ele>115.0</ele><time>2016-06-18T08:07:26.296Z</time></trkpt><trkpt lat="58.25193" lon="14.23458833"><ele>115.0</ele><time>2016-06-18T08:07:27.302Z</time></trkpt><trkpt lat="58.25209" lon="14.234745"><ele>115.0</ele><time>2016-06-18T08:07:28.309Z</time></trkpt><trkpt lat="58.25209" lon="14.234745"><ele>115.0</ele><time>2016-06-18T08:07:29.292Z</time></trkpt><trkpt lat="58.25225167" lon="14.23491333"><ele>115.0</ele><time>2016-06-18T08:07:30.293Z</time></trkpt><trkpt lat="58.25225167" lon="14.23491333"><ele>115.0</ele><time>2016-06-18T08:07:31.318Z</time></trkpt><trkpt lat="58.25241167" lon="14.23508833"><ele>115.0</ele><time>2016-06-18T08:07:32.285Z</time></trkpt><trkpt lat="58.25249333" lon="14.23517833"><ele>115.0</ele><time>2016-06-18T08:07:33.308Z</time></trkpt><trkpt lat="58.25249333" lon="14.23517833"><ele>115.0</ele><time>2016-06-18T08:07:34.320Z</time></trkpt><trkpt lat="58.25265667" lon="14.23536333"><ele>115.0</ele><time>2016-06-18T08:07:35.286Z</time></trkpt><trkpt lat="58.25273833" lon="14.235455"><ele>115.0</ele><time>2016-06-18T08:07:36.305Z</time></trkpt><trkpt lat="58.25273833" lon="14.235455"><ele>115.0</ele><time>2016-06-18T08:07:37.310Z</time></trkpt><trkpt lat="58.25289833" lon="14.23563833"><ele>115.0</ele><time>2016-06-18T08:07:38.321Z</time></trkpt><trkpt lat="58.25289833" lon="14.23563833"><ele>115.0</ele><time>2016-06-18T08:07:39.306Z</time></trkpt><trkpt lat="58.25305333" lon="14.23582167"><ele>115.0</ele><time>2016-06-18T08:07:40.291Z</time></trkpt><trkpt lat="58.25305333" lon="14.23582167"><ele>115.0</ele><time>2016-06-18T08:07:41.317Z</time></trkpt><trkpt lat="58.25320333" lon="14.23600833"><ele>115.0</ele><time>2016-06-18T08:07:42.293Z</time></trkpt><trkpt lat="58.25320333" lon="14.23600833"><ele>115.0</ele><time>2016-06-18T08:07:43.303Z</time></trkpt><trkpt lat="58.25335167" lon="14.23619667"><ele>116.0</ele><time>2016-06-18T08:07:44.317Z</time></trkpt><trkpt lat="58.25335167" lon="14.23619667"><ele>116.0</ele><time>2016-06-18T08:07:45.310Z</time></trkpt><trkpt lat="58.25349667" lon="14.236385"><ele>115.0</ele><time>2016-06-18T08:07:46.282Z</time></trkpt><trkpt lat="58.25357" lon="14.23648167"><ele>115.0</ele><time>2016-06-18T08:07:47.286Z</time></trkpt><trkpt lat="58.25357" lon="14.23648167"><ele>115.0</ele><time>2016-06-18T08:07:48.310Z</time></trkpt><trkpt lat="58.253715" lon="14.23667833"><ele>115.0</ele><time>2016-06-18T08:07:49.283Z</time></trkpt><trkpt lat="58.25378667" lon="14.23678333"><ele>115.0</ele><time>2016-06-18T08:07:50.322Z</time></trkpt><trkpt lat="58.25378667" lon="14.23678333"><ele>115.0</ele><time>2016-06-18T08:07:51.306Z</time></trkpt><trkpt lat="58.25392667" lon="14.23699833"><ele>115.0</ele><time>2016-06-18T08:07:52.283Z</time></trkpt><trkpt lat="58.25392667" lon="14.23699833"><ele>115.0</ele><time>2016-06-18T08:07:53.289Z</time></trkpt><trkpt lat="58.25407667" lon="14.23721833"><ele>115.0</ele><time>2016-06-18T08:07:54.296Z</time></trkpt><trkpt lat="58.25407667" lon="14.23721833"><ele>115.0</ele><time>2016-06-18T08:07:55.286Z</time></trkpt><trkpt lat="58.25422833" lon="14.23745"><ele>115.0</ele><time>2016-06-18T08:07:56.310Z</time></trkpt><trkpt lat="58.25422833" lon="14.23745"><ele>115.0</ele><time>2016-06-18T08:07:57.310Z</time></trkpt><trkpt lat="58.25438" lon="14.23768667"><ele>115.0</ele><time>2016-06-18T08:07:58.320Z</time></trkpt><trkpt lat="58.25438" lon="14.23768667"><ele>115.0</ele><time>2016-06-18T08:07:59.306Z</time></trkpt><trkpt lat="58.25453667" lon="14.23793167"><ele>114.0</ele><time>2016-06-18T08:08:00.318Z</time></trkpt><trkpt lat="58.25453667" lon="14.23793167"><ele>114.0</ele><time>2016-06-18T08:08:01.286Z</time></trkpt><trkpt lat="58.25468667" lon="14.23818167"><ele>115.0</ele><time>2016-06-18T08:08:02.293Z</time></trkpt><trkpt lat="58.25476" lon="14.23830667"><ele>115.0</ele><time>2016-06-18T08:08:03.304Z</time></trkpt><trkpt lat="58.25476" lon="14.23830667"><ele>115.0</ele><time>2016-06-18T08:08:04.305Z</time></trkpt><trkpt lat="58.25490167" lon="14.23854667"><ele>115.0</ele><time>2016-06-18T08:08:05.312Z</time></trkpt><trkpt lat="58.25497167" lon="14.23866833"><ele>115.0</ele><time>2016-06-18T08:08:06.315Z</time></trkpt><trkpt lat="58.25497167" lon="14.23866833"><ele>115.0</ele><time>2016-06-18T08:08:07.292Z</time></trkpt><trkpt lat="58.25511333" lon="14.238925"><ele>115.0</ele><time>2016-06-18T08:08:08.309Z</time></trkpt><trkpt lat="58.25511333" lon="14.238925"><ele>115.0</ele><time>2016-06-18T08:08:09.290Z</time></trkpt><trkpt lat="58.255245" lon="14.23917667"><ele>114.0</ele><time>2016-06-18T08:08:10.327Z</time></trkpt><trkpt lat="58.255245" lon="14.23917667"><ele>114.0</ele><time>2016-06-18T08:08:11.314Z</time></trkpt><trkpt lat="58.25537333" lon="14.23942"><ele>114.0</ele><time>2016-06-18T08:08:12.312Z</time></trkpt><trkpt lat="58.25537333" lon="14.23942"><ele>114.0</ele><time>2016-06-18T08:08:13.294Z</time></trkpt><trkpt lat="58.255505" lon="14.23968"><ele>114.0</ele><time>2016-06-18T08:08:14.302Z</time></trkpt><trkpt lat="58.255505" lon="14.23968"><ele>114.0</ele><time>2016-06-18T08:08:15.310Z</time></trkpt><trkpt lat="58.255645" lon="14.239955"><ele>113.0</ele><time>2016-06-18T08:08:16.282Z</time></trkpt><trkpt lat="58.255715" lon="14.24008833"><ele>113.0</ele><time>2016-06-18T08:08:17.305Z</time></trkpt><trkpt lat="58.255785" lon="14.24022"><ele>113.0</ele><time>2016-06-18T08:08:18.310Z</time></trkpt><trkpt lat="58.255785" lon="14.24022"><ele>113.0</ele><time>2016-06-18T08:08:19.318Z</time></trkpt><trkpt lat="58.255925" lon="14.24048833"><ele>113.0</ele><time>2016-06-18T08:08:20.286Z</time></trkpt><trkpt lat="58.255925" lon="14.24048833"><ele>113.0</ele><time>2016-06-18T08:08:21.299Z</time></trkpt><trkpt lat="58.25606833" lon="14.24076"><ele>113.0</ele><time>2016-06-18T08:08:22.312Z</time></trkpt><trkpt lat="58.25606833" lon="14.24076"><ele>113.0</ele><time>2016-06-18T08:08:23.287Z</time></trkpt><trkpt lat="58.25620667" lon="14.24103667"><ele>114.0</ele><time>2016-06-18T08:08:24.294Z</time></trkpt><trkpt lat="58.25627833" lon="14.24117333"><ele>114.0</ele><time>2016-06-18T08:08:25.288Z</time></trkpt><trkpt lat="58.25635" lon="14.24131333"><ele>114.0</ele><time>2016-06-18T08:08:26.285Z</time></trkpt><trkpt lat="58.25635" lon="14.24131333"><ele>114.0</ele><time>2016-06-18T08:08:27.294Z</time></trkpt><trkpt lat="58.25649667" lon="14.24158167"><ele>114.0</ele><time>2016-06-18T08:08:28.308Z</time></trkpt><trkpt lat="58.25656667" lon="14.24171667"><ele>115.0</ele><time>2016-06-18T08:08:29.283Z</time></trkpt><trkpt lat="58.25656667" lon="14.24171667"><ele>115.0</ele><time>2016-06-18T08:08:30.311Z</time></trkpt><trkpt lat="58.25671167" lon="14.241985"><ele>115.0</ele><time>2016-06-18T08:08:31.296Z</time></trkpt><trkpt lat="58.25678" lon="14.24212"><ele>116.0</ele><time>2016-06-18T08:08:32.313Z</time></trkpt><trkpt lat="58.25678" lon="14.24212"><ele>116.0</ele><time>2016-06-18T08:08:33.297Z</time></trkpt><trkpt lat="58.25691833" lon="14.24238333"><ele>116.0</ele><time>2016-06-18T08:08:34.309Z</time></trkpt><trkpt lat="58.25698667" lon="14.24251833"><ele>115.0</ele><time>2016-06-18T08:08:35.289Z</time></trkpt><trkpt lat="58.25698667" lon="14.24251833"><ele>115.0</ele><time>2016-06-18T08:08:36.311Z</time></trkpt><trkpt lat="58.257125" lon="14.24278667"><ele>115.0</ele><time>2016-06-18T08:08:37.319Z</time></trkpt><trkpt lat="58.257125" lon="14.24278667"><ele>115.0</ele><time>2016-06-18T08:08:38.288Z</time></trkpt><trkpt lat="58.257265" lon="14.24305167"><ele>115.0</ele><time>2016-06-18T08:08:39.303Z</time></trkpt><trkpt lat="58.257335" lon="14.24318833"><ele>115.0</ele><time>2016-06-18T08:08:40.320Z</time></trkpt><trkpt lat="58.257335" lon="14.24318833"><ele>115.0</ele><time>2016-06-18T08:08:41.307Z</time></trkpt><trkpt lat="58.25748167" lon="14.24346333"><ele>115.0</ele><time>2016-06-18T08:08:42.314Z</time></trkpt><trkpt lat="58.25748167" lon="14.24346333"><ele>115.0</ele><time>2016-06-18T08:08:43.293Z</time></trkpt><trkpt lat="58.257625" lon="14.24374333"><ele>115.0</ele><time>2016-06-18T08:08:44.291Z</time></trkpt><trkpt lat="58.257625" lon="14.24374333"><ele>115.0</ele><time>2016-06-18T08:08:45.282Z</time></trkpt><trkpt lat="58.25776833" lon="14.24402667"><ele>116.0</ele><time>2016-06-18T08:08:46.304Z</time></trkpt><trkpt lat="58.25783667" lon="14.24416833"><ele>116.0</ele><time>2016-06-18T08:08:47.306Z</time></trkpt><trkpt lat="58.25783667" lon="14.24416833"><ele>116.0</ele><time>2016-06-18T08:08:48.287Z</time></trkpt><trkpt lat="58.25798" lon="14.244425"><ele>116.0</ele><time>2016-06-18T08:08:49.296Z</time></trkpt><trkpt lat="58.25805167" lon="14.24454333"><ele>116.0</ele><time>2016-06-18T08:08:50.292Z</time></trkpt><trkpt lat="58.25805167" lon="14.24454333"><ele>116.0</ele><time>2016-06-18T08:08:51.307Z</time></trkpt><trkpt lat="58.25818333" lon="14.244795"><ele>117.0</ele><time>2016-06-18T08:08:52.318Z</time></trkpt><trkpt lat="58.25818333" lon="14.244795"><ele>117.0</ele><time>2016-06-18T08:08:53.288Z</time></trkpt><trkpt lat="58.25830833" lon="14.24504167"><ele>117.0</ele><time>2016-06-18T08:08:54.298Z</time></trkpt><trkpt lat="58.25830833" lon="14.24504167"><ele>117.0</ele><time>2016-06-18T08:08:55.310Z</time></trkpt><trkpt lat="58.258435" lon="14.245285"><ele>118.0</ele><time>2016-06-18T08:08:56.282Z</time></trkpt><trkpt lat="58.258435" lon="14.245285"><ele>118.0</ele><time>2016-06-18T08:08:57.302Z</time></trkpt><trkpt lat="58.25856167" lon="14.24553333"><ele>117.0</ele><time>2016-06-18T08:08:58.319Z</time></trkpt><trkpt lat="58.25862333" lon="14.245655"><ele>117.0</ele><time>2016-06-18T08:08:59.297Z</time></trkpt><trkpt lat="58.25862333" lon="14.245655"><ele>117.0</ele><time>2016-06-18T08:09:00.282Z</time></trkpt><trkpt lat="58.25874833" lon="14.24589667"><ele>117.0</ele><time>2016-06-18T08:09:01.289Z</time></trkpt><trkpt lat="58.25881333" lon="14.24601833"><ele>117.0</ele><time>2016-06-18T08:09:02.309Z</time></trkpt><trkpt lat="58.25881333" lon="14.24601833"><ele>117.0</ele><time>2016-06-18T08:09:03.293Z</time></trkpt><trkpt lat="58.25894667" lon="14.24625667"><ele>117.0</ele><time>2016-06-18T08:09:04.300Z</time></trkpt><trkpt lat="58.25894667" lon="14.24625667"><ele>117.0</ele><time>2016-06-18T08:09:05.321Z</time></trkpt><trkpt lat="58.25907333" lon="14.24651167"><ele>116.0</ele><time>2016-06-18T08:09:06.312Z</time></trkpt><trkpt lat="58.25907333" lon="14.24651167"><ele>116.0</ele><time>2016-06-18T08:09:07.284Z</time></trkpt><trkpt lat="58.25920667" lon="14.24677"><ele>116.0</ele><time>2016-06-18T08:09:08.291Z</time></trkpt><trkpt lat="58.259275" lon="14.24690167"><ele>116.0</ele><time>2016-06-18T08:09:09.318Z</time></trkpt><trkpt lat="58.259275" lon="14.24690167"><ele>116.0</ele><time>2016-06-18T08:09:10.293Z</time></trkpt><trkpt lat="58.25941333" lon="14.24717167"><ele>116.0</ele><time>2016-06-18T08:09:11.323Z</time></trkpt><trkpt lat="58.25948" lon="14.24730833"><ele>116.0</ele><time>2016-06-18T08:09:12.305Z</time></trkpt><trkpt lat="58.25948" lon="14.24730833"><ele>116.0</ele><time>2016-06-18T08:09:13.288Z</time></trkpt><trkpt lat="58.25961333" lon="14.247565"><ele>116.0</ele><time>2016-06-18T08:09:14.300Z</time></trkpt><trkpt lat="58.25968333" lon="14.247695"><ele>116.0</ele><time>2016-06-18T08:09:15.288Z</time></trkpt><trkpt lat="58.25968333" lon="14.247695"><ele>116.0</ele><time>2016-06-18T08:09:16.314Z</time></trkpt><trkpt lat="58.25983" lon="14.24795833"><ele>115.0</ele><time>2016-06-18T08:09:17.287Z</time></trkpt><trkpt lat="58.259905" lon="14.24809167"><ele>115.0</ele><time>2016-06-18T08:09:18.318Z</time></trkpt><trkpt lat="58.259905" lon="14.24809167"><ele>115.0</ele><time>2016-06-18T08:09:19.305Z</time></trkpt><trkpt lat="58.260045" lon="14.24837167"><ele>114.0</ele><time>2016-06-18T08:09:20.315Z</time></trkpt><trkpt lat="58.260045" lon="14.24837167"><ele>114.0</ele><time>2016-06-18T08:09:21.290Z</time></trkpt><trkpt lat="58.26018667" lon="14.24864833"><ele>114.0</ele><time>2016-06-18T08:09:22.324Z</time></trkpt><trkpt lat="58.26018667" lon="14.24864833"><ele>114.0</ele><time>2016-06-18T08:09:23.307Z</time></trkpt><trkpt lat="58.26033167" lon="14.24891833"><ele>113.0</ele><time>2016-06-18T08:09:24.286Z</time></trkpt><trkpt lat="58.26040167" lon="14.249055"><ele>113.0</ele><time>2016-06-18T08:09:25.308Z</time></trkpt><trkpt lat="58.26040167" lon="14.249055"><ele>113.0</ele><time>2016-06-18T08:09:26.313Z</time></trkpt><trkpt lat="58.260545" lon="14.24933"><ele>113.0</ele><time>2016-06-18T08:09:27.287Z</time></trkpt><trkpt lat="58.260545" lon="14.24933"><ele>113.0</ele><time>2016-06-18T08:09:28.318Z</time></trkpt><trkpt lat="58.26069333" lon="14.2496"><ele>112.0</ele><time>2016-06-18T08:09:29.285Z</time></trkpt><trkpt lat="58.26069333" lon="14.2496"><ele>112.0</ele><time>2016-06-18T08:09:30.294Z</time></trkpt><trkpt lat="58.26083667" lon="14.249875"><ele>112.0</ele><time>2016-06-18T08:09:31.307Z</time></trkpt><trkpt lat="58.26083667" lon="14.249875"><ele>112.0</ele><time>2016-06-18T08:09:32.308Z</time></trkpt><trkpt lat="58.260985" lon="14.25015333"><ele>112.0</ele><time>2016-06-18T08:09:33.296Z</time></trkpt><trkpt lat="58.260985" lon="14.25015333"><ele>112.0</ele><time>2016-06-18T08:09:34.298Z</time></trkpt><trkpt lat="58.26113833" lon="14.25043833"><ele>112.0</ele><time>2016-06-18T08:09:35.310Z</time></trkpt><trkpt lat="58.261215" lon="14.25057833"><ele>111.0</ele><time>2016-06-18T08:09:36.325Z</time></trkpt><trkpt lat="58.261215" lon="14.25057833"><ele>111.0</ele><time>2016-06-18T08:09:37.284Z</time></trkpt><trkpt lat="58.26136833" lon="14.25086833"><ele>111.0</ele><time>2016-06-18T08:09:38.296Z</time></trkpt><trkpt lat="58.26136833" lon="14.25086833"><ele>111.0</ele><time>2016-06-18T08:09:39.288Z</time></trkpt><trkpt lat="58.26152167" lon="14.251165"><ele>112.0</ele><time>2016-06-18T08:09:40.297Z</time></trkpt><trkpt lat="58.26152167" lon="14.251165"><ele>112.0</ele><time>2016-06-18T08:09:41.313Z</time></trkpt><trkpt lat="58.26166833" lon="14.25146"><ele>112.0</ele><time>2016-06-18T08:09:42.282Z</time></trkpt><trkpt lat="58.26166833" lon="14.25146"><ele>112.0</ele><time>2016-06-18T08:09:43.308Z</time></trkpt><trkpt lat="58.26181667" lon="14.25175667"><ele>112.0</ele><time>2016-06-18T08:09:44.315Z</time></trkpt><trkpt lat="58.26181667" lon="14.25175667"><ele>112.0</ele><time>2016-06-18T08:09:45.292Z</time></trkpt><trkpt lat="58.26197" lon="14.25204167"><ele>112.0</ele><time>2016-06-18T08:09:46.300Z</time></trkpt><trkpt lat="58.26197" lon="14.25204167"><ele>112.0</ele><time>2016-06-18T08:09:47.300Z</time></trkpt><trkpt lat="58.26211" lon="14.25231833"><ele>112.0</ele><time>2016-06-18T08:09:48.317Z</time></trkpt><trkpt lat="58.26211" lon="14.25231833"><ele>112.0</ele><time>2016-06-18T08:09:49.296Z</time></trkpt><trkpt lat="58.26225333" lon="14.25259833"><ele>113.0</ele><time>2016-06-18T08:09:50.304Z</time></trkpt><trkpt lat="58.26225333" lon="14.25259833"><ele>113.0</ele><time>2016-06-18T08:09:51.308Z</time></trkpt><trkpt lat="58.26239" lon="14.25287333"><ele>114.0</ele><time>2016-06-18T08:09:52.318Z</time></trkpt><trkpt lat="58.26239" lon="14.25287333"><ele>114.0</ele><time>2016-06-18T08:09:53.291Z</time></trkpt><trkpt lat="58.26253" lon="14.25313667"><ele>114.0</ele><time>2016-06-18T08:09:54.303Z</time></trkpt><trkpt lat="58.26259833" lon="14.25327333"><ele>114.0</ele><time>2016-06-18T08:09:55.288Z</time></trkpt><trkpt lat="58.26259833" lon="14.25327333"><ele>114.0</ele><time>2016-06-18T08:09:56.293Z</time></trkpt><trkpt lat="58.26273667" lon="14.25355"><ele>114.0</ele><time>2016-06-18T08:09:57.307Z</time></trkpt><trkpt lat="58.26273667" lon="14.25355"><ele>114.0</ele><time>2016-06-18T08:09:58.294Z</time></trkpt><trkpt lat="58.26288167" lon="14.25383167"><ele>114.0</ele><time>2016-06-18T08:09:59.306Z</time></trkpt><trkpt lat="58.26288167" lon="14.25383167"><ele>114.0</ele><time>2016-06-18T08:10:00.304Z</time></trkpt><trkpt lat="58.26303833" lon="14.25411167"><ele>115.0</ele><time>2016-06-18T08:10:01.311Z</time></trkpt><trkpt lat="58.26303833" lon="14.25411167"><ele>115.0</ele><time>2016-06-18T08:10:02.294Z</time></trkpt><trkpt lat="58.26319" lon="14.254385"><ele>115.0</ele><time>2016-06-18T08:10:03.305Z</time></trkpt><trkpt lat="58.263265" lon="14.25452167"><ele>114.0</ele><time>2016-06-18T08:10:04.287Z</time></trkpt><trkpt lat="58.263265" lon="14.25452167"><ele>114.0</ele><time>2016-06-18T08:10:05.304Z</time></trkpt><trkpt lat="58.26341833" lon="14.254785"><ele>114.0</ele><time>2016-06-18T08:10:06.315Z</time></trkpt><trkpt lat="58.26341833" lon="14.254785"><ele>114.0</ele><time>2016-06-18T08:10:07.297Z</time></trkpt><trkpt lat="58.26357333" lon="14.25504167"><ele>114.0</ele><time>2016-06-18T08:10:08.316Z</time></trkpt><trkpt lat="58.26357333" lon="14.25504167"><ele>114.0</ele><time>2016-06-18T08:10:09.294Z</time></trkpt><trkpt lat="58.26372833" lon="14.255295"><ele>115.0</ele><time>2016-06-18T08:10:10.301Z</time></trkpt><trkpt lat="58.26372833" lon="14.255295"><ele>115.0</ele><time>2016-06-18T08:10:11.299Z</time></trkpt><trkpt lat="58.26388333" lon="14.25553667"><ele>115.0</ele><time>2016-06-18T08:10:12.311Z</time></trkpt><trkpt lat="58.26396" lon="14.25565667"><ele>115.0</ele><time>2016-06-18T08:10:13.295Z</time></trkpt><trkpt lat="58.26404" lon="14.25577833"><ele>115.0</ele><time>2016-06-18T08:10:14.284Z</time></trkpt><trkpt lat="58.26404" lon="14.25577833"><ele>115.0</ele><time>2016-06-18T08:10:15.309Z</time></trkpt><trkpt lat="58.26420167" lon="14.25602167"><ele>115.0</ele><time>2016-06-18T08:10:16.287Z</time></trkpt><trkpt lat="58.26420167" lon="14.25602167"><ele>115.0</ele><time>2016-06-18T08:10:17.312Z</time></trkpt><trkpt lat="58.26437" lon="14.25626667"><ele>115.0</ele><time>2016-06-18T08:10:18.322Z</time></trkpt><trkpt lat="58.26437" lon="14.25626667"><ele>115.0</ele><time>2016-06-18T08:10:19.301Z</time></trkpt><trkpt lat="58.264545" lon="14.25650667"><ele>115.0</ele><time>2016-06-18T08:10:20.310Z</time></trkpt><trkpt lat="58.264545" lon="14.25650667"><ele>115.0</ele><time>2016-06-18T08:10:21.305Z</time></trkpt><trkpt lat="58.264725" lon="14.25674833"><ele>115.0</ele><time>2016-06-18T08:10:22.313Z</time></trkpt><trkpt lat="58.264725" lon="14.25674833"><ele>115.0</ele><time>2016-06-18T08:10:23.311Z</time></trkpt><trkpt lat="58.26490333" lon="14.25698167"><ele>115.0</ele><time>2016-06-18T08:10:24.282Z</time></trkpt><trkpt lat="58.26490333" lon="14.25698167"><ele>115.0</ele><time>2016-06-18T08:10:25.289Z</time></trkpt><trkpt lat="58.26507667" lon="14.25719833"><ele>115.0</ele><time>2016-06-18T08:10:26.311Z</time></trkpt><trkpt lat="58.26507667" lon="14.25719833"><ele>115.0</ele><time>2016-06-18T08:10:27.296Z</time></trkpt><trkpt lat="58.26523667" lon="14.25740167"><ele>115.0</ele><time>2016-06-18T08:10:28.305Z</time></trkpt><trkpt lat="58.26531667" lon="14.2575"><ele>115.0</ele><time>2016-06-18T08:10:29.289Z</time></trkpt><trkpt lat="58.26531667" lon="14.2575"><ele>115.0</ele><time>2016-06-18T08:10:30.292Z</time></trkpt><trkpt lat="58.26548167" lon="14.25769167"><ele>115.0</ele><time>2016-06-18T08:10:31.299Z</time></trkpt><trkpt lat="58.26556333" lon="14.25778833"><ele>115.0</ele><time>2016-06-18T08:10:32.308Z</time></trkpt><trkpt lat="58.26556333" lon="14.25778833"><ele>115.0</ele><time>2016-06-18T08:10:33.305Z</time></trkpt><trkpt lat="58.26573167" lon="14.25797667"><ele>115.0</ele><time>2016-06-18T08:10:34.312Z</time></trkpt><trkpt lat="58.26581833" lon="14.25806833"><ele>115.0</ele><time>2016-06-18T08:10:35.313Z</time></trkpt><trkpt lat="58.26581833" lon="14.25806833"><ele>115.0</ele><time>2016-06-18T08:10:36.305Z</time></trkpt><trkpt lat="58.26598833" lon="14.258255"><ele>115.0</ele><time>2016-06-18T08:10:37.312Z</time></trkpt><trkpt lat="58.26598833" lon="14.258255"><ele>115.0</ele><time>2016-06-18T08:10:38.293Z</time></trkpt><trkpt lat="58.26616167" lon="14.25843833"><ele>115.0</ele><time>2016-06-18T08:10:39.287Z</time></trkpt><trkpt lat="58.26616167" lon="14.25843833"><ele>115.0</ele><time>2016-06-18T08:10:40.313Z</time></trkpt><trkpt lat="58.266335" lon="14.25861333"><ele>115.0</ele><time>2016-06-18T08:10:41.284Z</time></trkpt><trkpt lat="58.266335" lon="14.25861333"><ele>115.0</ele><time>2016-06-18T08:10:42.290Z</time></trkpt><trkpt lat="58.26650833" lon="14.25878333"><ele>115.0</ele><time>2016-06-18T08:10:43.299Z</time></trkpt><trkpt lat="58.26659667" lon="14.25886333"><ele>115.0</ele><time>2016-06-18T08:10:44.300Z</time></trkpt><trkpt lat="58.26659667" lon="14.25886333"><ele>115.0</ele><time>2016-06-18T08:10:45.315Z</time></trkpt><trkpt lat="58.26677167" lon="14.259025"><ele>115.0</ele><time>2016-06-18T08:10:46.285Z</time></trkpt><trkpt lat="58.26677167" lon="14.259025"><ele>115.0</ele><time>2016-06-18T08:10:47.312Z</time></trkpt><trkpt lat="58.26695333" lon="14.259185"><ele>115.0</ele><time>2016-06-18T08:10:48.317Z</time></trkpt><trkpt lat="58.26695333" lon="14.259185"><ele>115.0</ele><time>2016-06-18T08:10:49.284Z</time></trkpt><trkpt lat="58.26713667" lon="14.259345"><ele>115.0</ele><time>2016-06-18T08:10:50.292Z</time></trkpt><trkpt lat="58.26723" lon="14.25942333"><ele>115.0</ele><time>2016-06-18T08:10:51.287Z</time></trkpt><trkpt lat="58.26723" lon="14.25942333"><ele>115.0</ele><time>2016-06-18T08:10:52.294Z</time></trkpt><trkpt lat="58.26742" lon="14.25957333"><ele>115.0</ele><time>2016-06-18T08:10:53.306Z</time></trkpt><trkpt lat="58.26751333" lon="14.25964833"><ele>115.0</ele><time>2016-06-18T08:10:54.328Z</time></trkpt><trkpt lat="58.267605" lon="14.25972167"><ele>116.0</ele><time>2016-06-18T08:10:55.294Z</time></trkpt><trkpt lat="58.26769833" lon="14.25979333"><ele>116.0</ele><time>2016-06-18T08:10:56.320Z</time></trkpt><trkpt lat="58.26769833" lon="14.25979333"><ele>116.0</ele><time>2016-06-18T08:10:57.303Z</time></trkpt><trkpt lat="58.26788667" lon="14.25992167"><ele>116.0</ele><time>2016-06-18T08:10:58.310Z</time></trkpt><trkpt lat="58.26788667" lon="14.25992167"><ele>116.0</ele><time>2016-06-18T08:10:59.291Z</time></trkpt><trkpt lat="58.26807" lon="14.26005167"><ele>116.0</ele><time>2016-06-18T08:11:00.295Z</time></trkpt><trkpt lat="58.26807" lon="14.26005167"><ele>116.0</ele><time>2016-06-18T08:11:01.284Z</time></trkpt><trkpt lat="58.26825167" lon="14.260175"><ele>116.0</ele><time>2016-06-18T08:11:02.295Z</time></trkpt><trkpt lat="58.26825167" lon="14.260175"><ele>116.0</ele><time>2016-06-18T08:11:03.302Z</time></trkpt><trkpt lat="58.26843167" lon="14.26029333"><ele>116.0</ele><time>2016-06-18T08:11:04.310Z</time></trkpt><trkpt lat="58.26843167" lon="14.26029333"><ele>116.0</ele><time>2016-06-18T08:11:05.291Z</time></trkpt><trkpt lat="58.26861167" lon="14.260405"><ele>116.0</ele><time>2016-06-18T08:11:06.320Z</time></trkpt><trkpt lat="58.26861167" lon="14.260405"><ele>116.0</ele><time>2016-06-18T08:11:07.293Z</time></trkpt><trkpt lat="58.26879167" lon="14.260505"><ele>116.0</ele><time>2016-06-18T08:11:08.300Z</time></trkpt><trkpt lat="58.26888" lon="14.26055333"><ele>117.0</ele><time>2016-06-18T08:11:09.318Z</time></trkpt><trkpt lat="58.26888" lon="14.26055333"><ele>117.0</ele><time>2016-06-18T08:11:10.302Z</time></trkpt><trkpt lat="58.26905167" lon="14.26064333"><ele>117.0</ele><time>2016-06-18T08:11:11.298Z</time></trkpt><trkpt lat="58.26913333" lon="14.26068833"><ele>117.0</ele><time>2016-06-18T08:11:12.295Z</time></trkpt><trkpt lat="58.26913333" lon="14.26068833"><ele>117.0</ele><time>2016-06-18T08:11:13.286Z</time></trkpt><trkpt lat="58.2693" lon="14.26078333"><ele>118.0</ele><time>2016-06-18T08:11:14.315Z</time></trkpt><trkpt lat="58.2693" lon="14.26078333"><ele>118.0</ele><time>2016-06-18T08:11:15.312Z</time></trkpt><trkpt lat="58.26947333" lon="14.26087"><ele>118.0</ele><time>2016-06-18T08:11:16.286Z</time></trkpt><trkpt lat="58.26947333" lon="14.26087"><ele>118.0</ele><time>2016-06-18T08:11:17.315Z</time></trkpt><trkpt lat="58.26964667" lon="14.26095833"><ele>118.0</ele><time>2016-06-18T08:11:18.298Z</time></trkpt><trkpt lat="58.26964667" lon="14.26095833"><ele>118.0</ele><time>2016-06-18T08:11:19.312Z</time></trkpt><trkpt lat="58.26982167" lon="14.26102833"><ele>118.0</ele><time>2016-06-18T08:11:20.285Z</time></trkpt><trkpt lat="58.26990833" lon="14.261065"><ele>118.0</ele><time>2016-06-18T08:11:21.306Z</time></trkpt><trkpt lat="58.26990833" lon="14.261065"><ele>118.0</ele><time>2016-06-18T08:11:22.287Z</time></trkpt><trkpt lat="58.270085" lon="14.26114333"><ele>118.0</ele><time>2016-06-18T08:11:23.286Z</time></trkpt><trkpt lat="58.270085" lon="14.26114333"><ele>118.0</ele><time>2016-06-18T08:11:24.294Z</time></trkpt><trkpt lat="58.27026333" lon="14.26122167"><ele>119.0</ele><time>2016-06-18T08:11:25.300Z</time></trkpt><trkpt lat="58.27035" lon="14.26124667"><ele>119.0</ele><time>2016-06-18T08:11:26.298Z</time></trkpt><trkpt lat="58.27035" lon="14.26124667"><ele>119.0</ele><time>2016-06-18T08:11:27.283Z</time></trkpt><trkpt lat="58.27053" lon="14.26130167"><ele>119.0</ele><time>2016-06-18T08:11:28.291Z</time></trkpt><trkpt lat="58.27062" lon="14.26133"><ele>119.0</ele><time>2016-06-18T08:11:29.318Z</time></trkpt><trkpt lat="58.27062" lon="14.26133"><ele>119.0</ele><time>2016-06-18T08:11:30.294Z</time></trkpt><trkpt lat="58.27079667" lon="14.261375"><ele>120.0</ele><time>2016-06-18T08:11:31.302Z</time></trkpt><trkpt lat="58.27079667" lon="14.261375"><ele>120.0</ele><time>2016-06-18T08:11:32.282Z</time></trkpt><trkpt lat="58.27097667" lon="14.26142333"><ele>120.0</ele><time>2016-06-18T08:11:33.308Z</time></trkpt><trkpt lat="58.27097667" lon="14.26142333"><ele>120.0</ele><time>2016-06-18T08:11:34.297Z</time></trkpt><trkpt lat="58.27114667" lon="14.261465"><ele>122.0</ele><time>2016-06-18T08:11:35.305Z</time></trkpt><trkpt lat="58.27114667" lon="14.261465"><ele>122.0</ele><time>2016-06-18T08:11:36.282Z</time></trkpt><trkpt lat="58.27130167" lon="14.26150333"><ele>123.0</ele><time>2016-06-18T08:11:37.299Z</time></trkpt><trkpt lat="58.27139" lon="14.261515"><ele>124.0</ele><time>2016-06-18T08:11:38.298Z</time></trkpt><trkpt lat="58.27139" lon="14.261515"><ele>124.0</ele><time>2016-06-18T08:11:39.300Z</time></trkpt><trkpt lat="58.27153333" lon="14.26154167"><ele>127.0</ele><time>2016-06-18T08:11:40.307Z</time></trkpt><trkpt lat="58.27160667" lon="14.26155667"><ele>128.0</ele><time>2016-06-18T08:11:41.320Z</time></trkpt><trkpt lat="58.27160667" lon="14.26155667"><ele>128.0</ele><time>2016-06-18T08:11:42.318Z</time></trkpt><trkpt lat="58.27176833" lon="14.26158833"><ele>129.0</ele><time>2016-06-18T08:11:43.285Z</time></trkpt><trkpt lat="58.27185333" lon="14.26160167"><ele>129.0</ele><time>2016-06-18T08:11:44.305Z</time></trkpt><trkpt lat="58.27185333" lon="14.26160167"><ele>129.0</ele><time>2016-06-18T08:11:45.283Z</time></trkpt><trkpt lat="58.27203" lon="14.26163167"><ele>129.0</ele><time>2016-06-18T08:11:46.290Z</time></trkpt><trkpt lat="58.27211667" lon="14.26164833"><ele>130.0</ele><time>2016-06-18T08:11:47.287Z</time></trkpt><trkpt lat="58.27211667" lon="14.26164833"><ele>130.0</ele><time>2016-06-18T08:11:48.296Z</time></trkpt><trkpt lat="58.27229833" lon="14.261675"><ele>129.0</ele><time>2016-06-18T08:11:49.304Z</time></trkpt><trkpt lat="58.272395" lon="14.26167667"><ele>128.0</ele><time>2016-06-18T08:11:50.316Z</time></trkpt><trkpt lat="58.272395" lon="14.26167667"><ele>128.0</ele><time>2016-06-18T08:11:51.301Z</time></trkpt><trkpt lat="58.27258" lon="14.261685"><ele>128.0</ele><time>2016-06-18T08:11:52.309Z</time></trkpt><trkpt lat="58.27258" lon="14.261685"><ele>128.0</ele><time>2016-06-18T08:11:53.284Z</time></trkpt><trkpt lat="58.272765" lon="14.2617"><ele>128.0</ele><time>2016-06-18T08:11:54.292Z</time></trkpt><trkpt lat="58.272765" lon="14.2617"><ele>128.0</ele><time>2016-06-18T08:11:55.283Z</time></trkpt><trkpt lat="58.27294" lon="14.26168833"><ele>129.0</ele><time>2016-06-18T08:11:56.328Z</time></trkpt><trkpt lat="58.27294" lon="14.26168833"><ele>129.0</ele><time>2016-06-18T08:11:57.290Z</time></trkpt><trkpt lat="58.27311667" lon="14.261675"><ele>129.0</ele><time>2016-06-18T08:11:58.298Z</time></trkpt><trkpt lat="58.27320333" lon="14.261675"><ele>129.0</ele><time>2016-06-18T08:11:59.302Z</time></trkpt><trkpt lat="58.27320333" lon="14.261675"><ele>129.0</ele><time>2016-06-18T08:12:00.312Z</time></trkpt><trkpt lat="58.27338833" lon="14.26168167"><ele>130.0</ele><time>2016-06-18T08:12:01.290Z</time></trkpt><trkpt lat="58.27347667" lon="14.26167667"><ele>130.0</ele><time>2016-06-18T08:12:02.298Z</time></trkpt><trkpt lat="58.27347667" lon="14.26167667"><ele>130.0</ele><time>2016-06-18T08:12:03.310Z</time></trkpt><trkpt lat="58.27366" lon="14.26167167"><ele>131.0</ele><time>2016-06-18T08:12:04.319Z</time></trkpt><trkpt lat="58.27366" lon="14.26167167"><ele>131.0</ele><time>2016-06-18T08:12:05.302Z</time></trkpt><trkpt lat="58.27384333" lon="14.26167167"><ele>131.0</ele><time>2016-06-18T08:12:06.308Z</time></trkpt><trkpt lat="58.27384333" lon="14.26167167"><ele>131.0</ele><time>2016-06-18T08:12:07.290Z</time></trkpt><trkpt lat="58.27403667" lon="14.26167167"><ele>131.0</ele><time>2016-06-18T08:12:08.317Z</time></trkpt><trkpt lat="58.27403667" lon="14.26167167"><ele>131.0</ele><time>2016-06-18T08:12:09.308Z</time></trkpt><trkpt lat="58.27422833" lon="14.26167167"><ele>132.0</ele><time>2016-06-18T08:12:10.314Z</time></trkpt><trkpt lat="58.27422833" lon="14.26167167"><ele>132.0</ele><time>2016-06-18T08:12:11.290Z</time></trkpt><trkpt lat="58.27443667" lon="14.26166333"><ele>130.0</ele><time>2016-06-18T08:12:12.296Z</time></trkpt><trkpt lat="58.27443667" lon="14.26166333"><ele>130.0</ele><time>2016-06-18T08:12:13.320Z</time></trkpt><trkpt lat="58.27464667" lon="14.26166"><ele>131.0</ele><time>2016-06-18T08:12:14.286Z</time></trkpt><trkpt lat="58.27464667" lon="14.26166"><ele>131.0</ele><time>2016-06-18T08:12:15.313Z</time></trkpt><trkpt lat="58.27486667" lon="14.26166333"><ele>131.0</ele><time>2016-06-18T08:12:16.323Z</time></trkpt><trkpt lat="58.27486667" lon="14.26166333"><ele>131.0</ele><time>2016-06-18T08:12:17.284Z</time></trkpt><trkpt lat="58.27508333" lon="14.26166333"><ele>131.0</ele><time>2016-06-18T08:12:18.294Z</time></trkpt><trkpt lat="58.27508333" lon="14.26166333"><ele>131.0</ele><time>2016-06-18T08:12:19.318Z</time></trkpt><trkpt lat="58.27529167" lon="14.26165333"><ele>132.0</ele><time>2016-06-18T08:12:20.325Z</time></trkpt><trkpt lat="58.27529167" lon="14.26165333"><ele>132.0</ele><time>2016-06-18T08:12:21.285Z</time></trkpt><trkpt lat="58.27551" lon="14.26165"><ele>130.0</ele><time>2016-06-18T08:12:22.293Z</time></trkpt><trkpt lat="58.27561167" lon="14.26165167"><ele>130.0</ele><time>2016-06-18T08:12:23.307Z</time></trkpt><trkpt lat="58.27561167" lon="14.26165167"><ele>130.0</ele><time>2016-06-18T08:12:24.311Z</time></trkpt><trkpt lat="58.27581167" lon="14.261645"><ele>130.0</ele><time>2016-06-18T08:12:25.319Z</time></trkpt><trkpt lat="58.27590667" lon="14.26164333"><ele>130.0</ele><time>2016-06-18T08:12:26.315Z</time></trkpt><trkpt lat="58.27590667" lon="14.26164333"><ele>130.0</ele><time>2016-06-18T08:12:27.306Z</time></trkpt><trkpt lat="58.2761" lon="14.26164"><ele>129.0</ele><time>2016-06-18T08:12:28.315Z</time></trkpt><trkpt lat="58.2761" lon="14.26164"><ele>129.0</ele><time>2016-06-18T08:12:29.296Z</time></trkpt><trkpt lat="58.27629333" lon="14.26164167"><ele>127.0</ele><time>2016-06-18T08:12:30.325Z</time></trkpt><trkpt lat="58.27629333" lon="14.26164167"><ele>127.0</ele><time>2016-06-18T08:12:31.288Z</time></trkpt><trkpt lat="58.27648833" lon="14.26163333"><ele>127.0</ele><time>2016-06-18T08:12:32.295Z</time></trkpt><trkpt lat="58.27658" lon="14.26163333"><ele>127.0</ele><time>2016-06-18T08:12:33.286Z</time></trkpt><trkpt lat="58.27658" lon="14.26163333"><ele>127.0</ele><time>2016-06-18T08:12:34.302Z</time></trkpt><trkpt lat="58.27677333" lon="14.26163333"><ele>126.0</ele><time>2016-06-18T08:12:35.311Z</time></trkpt><trkpt lat="58.27687167" lon="14.26163167"><ele>126.0</ele><time>2016-06-18T08:12:36.317Z</time></trkpt><trkpt lat="58.27687167" lon="14.26163167"><ele>126.0</ele><time>2016-06-18T08:12:37.285Z</time></trkpt><trkpt lat="58.277055" lon="14.26162333"><ele>127.0</ele><time>2016-06-18T08:12:38.292Z</time></trkpt><trkpt lat="58.277055" lon="14.26162333"><ele>127.0</ele><time>2016-06-18T08:12:39.315Z</time></trkpt><trkpt lat="58.27724333" lon="14.26161333"><ele>126.0</ele><time>2016-06-18T08:12:40.320Z</time></trkpt><trkpt lat="58.27724333" lon="14.26161333"><ele>126.0</ele><time>2016-06-18T08:12:41.320Z</time></trkpt><trkpt lat="58.27743333" lon="14.26159333"><ele>127.0</ele><time>2016-06-18T08:12:42.289Z</time></trkpt><trkpt lat="58.27752833" lon="14.26159"><ele>127.0</ele><time>2016-06-18T08:12:43.320Z</time></trkpt><trkpt lat="58.27752833" lon="14.26159"><ele>127.0</ele><time>2016-06-18T08:12:44.290Z</time></trkpt><trkpt lat="58.27772333" lon="14.26159167"><ele>127.0</ele><time>2016-06-18T08:12:45.304Z</time></trkpt><trkpt lat="58.27772333" lon="14.26159167"><ele>127.0</ele><time>2016-06-18T08:12:46.300Z</time></trkpt><trkpt lat="58.27791" lon="14.261585"><ele>127.0</ele><time>2016-06-18T08:12:47.294Z</time></trkpt><trkpt lat="58.27791" lon="14.261585"><ele>127.0</ele><time>2016-06-18T08:12:48.316Z</time></trkpt><trkpt lat="58.27811167" lon="14.26158333"><ele>127.0</ele><time>2016-06-18T08:12:49.298Z</time></trkpt><trkpt lat="58.27811167" lon="14.26158333"><ele>127.0</ele><time>2016-06-18T08:12:50.301Z</time></trkpt><trkpt lat="58.27831" lon="14.26157167"><ele>127.0</ele><time>2016-06-18T08:12:51.309Z</time></trkpt><trkpt lat="58.27841167" lon="14.26156833"><ele>127.0</ele><time>2016-06-18T08:12:52.328Z</time></trkpt><trkpt lat="58.27851167" lon="14.261565"><ele>127.0</ele><time>2016-06-18T08:12:53.288Z</time></trkpt><trkpt lat="58.27851167" lon="14.261565"><ele>127.0</ele><time>2016-06-18T08:12:54.314Z</time></trkpt><trkpt lat="58.27871" lon="14.26156167"><ele>127.0</ele><time>2016-06-18T08:12:55.321Z</time></trkpt><trkpt lat="58.27871" lon="14.26156167"><ele>127.0</ele><time>2016-06-18T08:12:56.305Z</time></trkpt><trkpt lat="58.27891333" lon="14.261565"><ele>126.0</ele><time>2016-06-18T08:12:57.312Z</time></trkpt><trkpt lat="58.27891333" lon="14.261565"><ele>126.0</ele><time>2016-06-18T08:12:58.295Z</time></trkpt><trkpt lat="58.27912" lon="14.261585"><ele>126.0</ele><time>2016-06-18T08:12:59.321Z</time></trkpt><trkpt lat="58.27922333" lon="14.261585"><ele>125.0</ele><time>2016-06-18T08:13:00.288Z</time></trkpt><trkpt lat="58.27922333" lon="14.261585"><ele>125.0</ele><time>2016-06-18T08:13:01.313Z</time></trkpt><trkpt lat="58.27942667" lon="14.26157667"><ele>125.0</ele><time>2016-06-18T08:13:02.301Z</time></trkpt><trkpt lat="58.27942667" lon="14.26157667"><ele>125.0</ele><time>2016-06-18T08:13:03.292Z</time></trkpt><trkpt lat="58.27963167" lon="14.26158667"><ele>124.0</ele><time>2016-06-18T08:13:04.299Z</time></trkpt><trkpt lat="58.279735" lon="14.26159167"><ele>124.0</ele><time>2016-06-18T08:13:05.311Z</time></trkpt><trkpt lat="58.279735" lon="14.26159167"><ele>124.0</ele><time>2016-06-18T08:13:06.315Z</time></trkpt><trkpt lat="58.279945" lon="14.26159833"><ele>123.0</ele><time>2016-06-18T08:13:07.283Z</time></trkpt><trkpt lat="58.279945" lon="14.26159833"><ele>123.0</ele><time>2016-06-18T08:13:08.305Z</time></trkpt><trkpt lat="58.28014833" lon="14.26159667"><ele>123.0</ele><time>2016-06-18T08:13:09.328Z</time></trkpt><trkpt lat="58.28014833" lon="14.26159667"><ele>123.0</ele><time>2016-06-18T08:13:10.285Z</time></trkpt><trkpt lat="58.28034333" lon="14.26159167"><ele>123.0</ele><time>2016-06-18T08:13:11.304Z</time></trkpt><trkpt lat="58.28044" lon="14.26158667"><ele>123.0</ele><time>2016-06-18T08:13:12.284Z</time></trkpt><trkpt lat="58.28044" lon="14.26158667"><ele>123.0</ele><time>2016-06-18T08:13:13.312Z</time></trkpt><trkpt lat="58.28063167" lon="14.26157"><ele>123.0</ele><time>2016-06-18T08:13:14.290Z</time></trkpt><trkpt lat="58.28063167" lon="14.26157"><ele>123.0</ele><time>2016-06-18T08:13:15.307Z</time></trkpt><trkpt lat="58.28082333" lon="14.26156667"><ele>122.0</ele><time>2016-06-18T08:13:16.314Z</time></trkpt><trkpt lat="58.28082333" lon="14.26156667"><ele>122.0</ele><time>2016-06-18T08:13:17.296Z</time></trkpt><trkpt lat="58.28101667" lon="14.26156833"><ele>122.0</ele><time>2016-06-18T08:13:18.311Z</time></trkpt><trkpt lat="58.28101667" lon="14.26156833"><ele>122.0</ele><time>2016-06-18T08:13:19.282Z</time></trkpt><trkpt lat="58.28121333" lon="14.26157333"><ele>122.0</ele><time>2016-06-18T08:13:20.303Z</time></trkpt><trkpt lat="58.28131167" lon="14.26157167"><ele>122.0</ele><time>2016-06-18T08:13:21.309Z</time></trkpt><trkpt lat="58.28131167" lon="14.26157167"><ele>122.0</ele><time>2016-06-18T08:13:22.290Z</time></trkpt><trkpt lat="58.28150667" lon="14.261565"><ele>122.0</ele><time>2016-06-18T08:13:23.290Z</time></trkpt><trkpt lat="58.28150667" lon="14.261565"><ele>122.0</ele><time>2016-06-18T08:13:24.304Z</time></trkpt><trkpt lat="58.28170167" lon="14.261565"><ele>122.0</ele><time>2016-06-18T08:13:25.311Z</time></trkpt><trkpt lat="58.2818" lon="14.261565"><ele>122.0</ele><time>2016-06-18T08:13:26.311Z</time></trkpt><trkpt lat="58.2818" lon="14.261565"><ele>122.0</ele><time>2016-06-18T08:13:27.289Z</time></trkpt><trkpt lat="58.28199333" lon="14.26156333"><ele>121.0</ele><time>2016-06-18T08:13:28.295Z</time></trkpt><trkpt lat="58.28209" lon="14.26156333"><ele>121.0</ele><time>2016-06-18T08:13:29.298Z</time></trkpt><trkpt lat="58.28209" lon="14.26156333"><ele>121.0</ele><time>2016-06-18T08:13:30.283Z</time></trkpt><trkpt lat="58.28228667" lon="14.26155833"><ele>121.0</ele><time>2016-06-18T08:13:31.292Z</time></trkpt><trkpt lat="58.28238333" lon="14.26155833"><ele>121.0</ele><time>2016-06-18T08:13:32.297Z</time></trkpt><trkpt lat="58.28238333" lon="14.26155833"><ele>121.0</ele><time>2016-06-18T08:13:33.284Z</time></trkpt><trkpt lat="58.282575" lon="14.261555"><ele>121.0</ele><time>2016-06-18T08:13:34.293Z</time></trkpt><trkpt lat="58.28266833" lon="14.26155"><ele>121.0</ele><time>2016-06-18T08:13:35.290Z</time></trkpt><trkpt lat="58.28266833" lon="14.26155"><ele>121.0</ele><time>2016-06-18T08:13:36.313Z</time></trkpt><trkpt lat="58.28285167" lon="14.26153833"><ele>121.0</ele><time>2016-06-18T08:13:37.297Z</time></trkpt><trkpt lat="58.28285167" lon="14.26153833"><ele>121.0</ele><time>2016-06-18T08:13:38.306Z</time></trkpt><trkpt lat="58.28303833" lon="14.26153167"><ele>121.0</ele><time>2016-06-18T08:13:39.318Z</time></trkpt><trkpt lat="58.28303833" lon="14.26153167"><ele>121.0</ele><time>2016-06-18T08:13:40.304Z</time></trkpt><trkpt lat="58.28322833" lon="14.26153"><ele>121.0</ele><time>2016-06-18T08:13:41.325Z</time></trkpt><trkpt lat="58.28322833" lon="14.26153"><ele>121.0</ele><time>2016-06-18T08:13:42.303Z</time></trkpt><trkpt lat="58.28342167" lon="14.261525"><ele>121.0</ele><time>2016-06-18T08:13:43.326Z</time></trkpt><trkpt lat="58.28342167" lon="14.261525"><ele>121.0</ele><time>2016-06-18T08:13:44.304Z</time></trkpt><trkpt lat="58.28361667" lon="14.26152667"><ele>121.0</ele><time>2016-06-18T08:13:45.284Z</time></trkpt><trkpt lat="58.283715" lon="14.26153"><ele>121.0</ele><time>2016-06-18T08:13:46.314Z</time></trkpt><trkpt lat="58.283715" lon="14.26153"><ele>121.0</ele><time>2016-06-18T08:13:47.297Z</time></trkpt><trkpt lat="58.28391" lon="14.26153"><ele>121.0</ele><time>2016-06-18T08:13:48.288Z</time></trkpt><trkpt lat="58.28391" lon="14.26153"><ele>121.0</ele><time>2016-06-18T08:13:49.290Z</time></trkpt><trkpt lat="58.28410667" lon="14.261525"><ele>121.0</ele><time>2016-06-18T08:13:50.297Z</time></trkpt><trkpt lat="58.28420167" lon="14.26152167"><ele>121.0</ele><time>2016-06-18T08:13:51.318Z</time></trkpt><trkpt lat="58.28420167" lon="14.26152167"><ele>121.0</ele><time>2016-06-18T08:13:52.301Z</time></trkpt><trkpt lat="58.28438833" lon="14.26151833"><ele>120.0</ele><time>2016-06-18T08:13:53.309Z</time></trkpt><trkpt lat="58.28438833" lon="14.26151833"><ele>120.0</ele><time>2016-06-18T08:13:54.296Z</time></trkpt><trkpt lat="58.28456667" lon="14.261515"><ele>120.0</ele><time>2016-06-18T08:13:55.323Z</time></trkpt><trkpt lat="58.28456667" lon="14.261515"><ele>120.0</ele><time>2016-06-18T08:13:56.288Z</time></trkpt><trkpt lat="58.28474" lon="14.26151167"><ele>120.0</ele><time>2016-06-18T08:13:57.295Z</time></trkpt><trkpt lat="58.28474" lon="14.26151167"><ele>120.0</ele><time>2016-06-18T08:13:58.317Z</time></trkpt><trkpt lat="58.28491833" lon="14.26150167"><ele>120.0</ele><time>2016-06-18T08:13:59.308Z</time></trkpt><trkpt lat="58.28491833" lon="14.26150167"><ele>120.0</ele><time>2016-06-18T08:14:00.318Z</time></trkpt><trkpt lat="58.28510333" lon="14.26149667"><ele>120.0</ele><time>2016-06-18T08:14:01.287Z</time></trkpt><trkpt lat="58.28510333" lon="14.26149667"><ele>120.0</ele><time>2016-06-18T08:14:02.313Z</time></trkpt><trkpt lat="58.28529333" lon="14.261495"><ele>120.0</ele><time>2016-06-18T08:14:03.309Z</time></trkpt><trkpt lat="58.28529333" lon="14.261495"><ele>120.0</ele><time>2016-06-18T08:14:04.320Z</time></trkpt><trkpt lat="58.285485" lon="14.26149"><ele>120.0</ele><time>2016-06-18T08:14:05.296Z</time></trkpt><trkpt lat="58.285485" lon="14.26149"><ele>120.0</ele><time>2016-06-18T08:14:06.303Z</time></trkpt><trkpt lat="58.28568167" lon="14.26148833"><ele>121.0</ele><time>2016-06-18T08:14:07.310Z</time></trkpt><trkpt lat="58.28578" lon="14.26148667"><ele>120.0</ele><time>2016-06-18T08:14:08.305Z</time></trkpt><trkpt lat="58.28578" lon="14.26148667"><ele>120.0</ele><time>2016-06-18T08:14:09.307Z</time></trkpt><trkpt lat="58.28598333" lon="14.26148"><ele>120.0</ele><time>2016-06-18T08:14:10.314Z</time></trkpt><trkpt lat="58.28598333" lon="14.26148"><ele>120.0</ele><time>2016-06-18T08:14:11.282Z</time></trkpt><trkpt lat="58.28618333" lon="14.26148667"><ele>120.0</ele><time>2016-06-18T08:14:12.302Z</time></trkpt><trkpt lat="58.28628167" lon="14.26148333"><ele>120.0</ele><time>2016-06-18T08:14:13.292Z</time></trkpt><trkpt lat="58.28628167" lon="14.26148333"><ele>120.0</ele><time>2016-06-18T08:14:14.302Z</time></trkpt><trkpt lat="58.28647333" lon="14.26147667"><ele>121.0</ele><time>2016-06-18T08:14:15.298Z</time></trkpt><trkpt lat="58.28647333" lon="14.26147667"><ele>121.0</ele><time>2016-06-18T08:14:16.316Z</time></trkpt><trkpt lat="58.28666167" lon="14.26147333"><ele>121.0</ele><time>2016-06-18T08:14:17.286Z</time></trkpt><trkpt lat="58.28666167" lon="14.26147333"><ele>121.0</ele><time>2016-06-18T08:14:18.310Z</time></trkpt><trkpt lat="58.28684833" lon="14.26146"><ele>121.0</ele><time>2016-06-18T08:14:19.319Z</time></trkpt><trkpt lat="58.28684833" lon="14.26146"><ele>121.0</ele><time>2016-06-18T08:14:20.303Z</time></trkpt><trkpt lat="58.28703833" lon="14.26144833"><ele>121.0</ele><time>2016-06-18T08:14:21.310Z</time></trkpt><trkpt lat="58.28713167" lon="14.26144667"><ele>122.0</ele><time>2016-06-18T08:14:22.312Z</time></trkpt><trkpt lat="58.28713167" lon="14.26144667"><ele>122.0</ele><time>2016-06-18T08:14:23.289Z</time></trkpt><trkpt lat="58.28731167" lon="14.261445"><ele>121.0</ele><time>2016-06-18T08:14:24.296Z</time></trkpt><trkpt lat="58.28740333" lon="14.26144333"><ele>121.0</ele><time>2016-06-18T08:14:25.288Z</time></trkpt><trkpt lat="58.28740333" lon="14.26144333"><ele>121.0</ele><time>2016-06-18T08:14:26.311Z</time></trkpt><trkpt lat="58.287585" lon="14.26144167"><ele>121.0</ele><time>2016-06-18T08:14:27.282Z</time></trkpt><trkpt lat="58.287585" lon="14.26144167"><ele>121.0</ele><time>2016-06-18T08:14:28.303Z</time></trkpt><trkpt lat="58.28775833" lon="14.26143667"><ele>122.0</ele><time>2016-06-18T08:14:29.310Z</time></trkpt><trkpt lat="58.28784833" lon="14.26143667"><ele>122.0</ele><time>2016-06-18T08:14:30.287Z</time></trkpt><trkpt lat="58.28784833" lon="14.26143667"><ele>122.0</ele><time>2016-06-18T08:14:31.314Z</time></trkpt><trkpt lat="58.28801833" lon="14.26142167"><ele>122.0</ele><time>2016-06-18T08:14:32.289Z</time></trkpt><trkpt lat="58.28809833" lon="14.26141833"><ele>122.0</ele><time>2016-06-18T08:14:33.298Z</time></trkpt><trkpt lat="58.28809833" lon="14.26141833"><ele>122.0</ele><time>2016-06-18T08:14:34.307Z</time></trkpt><trkpt lat="58.288255" lon="14.261415"><ele>122.0</ele><time>2016-06-18T08:14:35.319Z</time></trkpt><trkpt lat="58.288255" lon="14.261415"><ele>122.0</ele><time>2016-06-18T08:14:36.302Z</time></trkpt><trkpt lat="58.28839833" lon="14.261415"><ele>122.0</ele><time>2016-06-18T08:14:37.285Z</time></trkpt><trkpt lat="58.28839833" lon="14.261415"><ele>122.0</ele><time>2016-06-18T08:14:38.321Z</time></trkpt><trkpt lat="58.28852833" lon="14.26141333"><ele>122.0</ele><time>2016-06-18T08:14:39.290Z</time></trkpt><trkpt lat="58.28858833" lon="14.26141333"><ele>122.0</ele><time>2016-06-18T08:14:40.316Z</time></trkpt><trkpt lat="58.28864667" lon="14.261415"><ele>122.0</ele><time>2016-06-18T08:14:41.305Z</time></trkpt><trkpt lat="58.28864667" lon="14.261415"><ele>122.0</ele><time>2016-06-18T08:14:42.301Z</time></trkpt><trkpt lat="58.28876333" lon="14.26143833"><ele>123.0</ele><time>2016-06-18T08:14:43.308Z</time></trkpt><trkpt lat="58.28876333" lon="14.26143833"><ele>123.0</ele><time>2016-06-18T08:14:44.293Z</time></trkpt><trkpt lat="58.28886167" lon="14.26157667"><ele>124.0</ele><time>2016-06-18T08:14:45.302Z</time></trkpt><trkpt lat="58.28889667" lon="14.2617"><ele>125.0</ele><time>2016-06-18T08:14:46.327Z</time></trkpt><trkpt lat="58.28889667" lon="14.2617"><ele>125.0</ele><time>2016-06-18T08:14:47.312Z</time></trkpt><trkpt lat="58.28896333" lon="14.261985"><ele>125.0</ele><time>2016-06-18T08:14:48.287Z</time></trkpt><trkpt lat="58.28899167" lon="14.26214667"><ele>125.0</ele><time>2016-06-18T08:14:49.319Z</time></trkpt><trkpt lat="58.28902" lon="14.26231333"><ele>125.0</ele><time>2016-06-18T08:14:50.291Z</time></trkpt><trkpt lat="58.28902" lon="14.26231333"><ele>125.0</ele><time>2016-06-18T08:14:51.314Z</time></trkpt><trkpt lat="58.28907833" lon="14.26267167"><ele>125.0</ele><time>2016-06-18T08:14:52.290Z</time></trkpt><trkpt lat="58.28911333" lon="14.262865"><ele>125.0</ele><time>2016-06-18T08:14:53.293Z</time></trkpt><trkpt lat="58.28911333" lon="14.262865"><ele>125.0</ele><time>2016-06-18T08:14:54.316Z</time></trkpt><trkpt lat="58.28918333" lon="14.26327667"><ele>121.0</ele><time>2016-06-18T08:14:55.324Z</time></trkpt><trkpt lat="58.28922167" lon="14.26349167"><ele>121.0</ele><time>2016-06-18T08:14:56.289Z</time></trkpt><trkpt lat="58.28922167" lon="14.26349167"><ele>121.0</ele><time>2016-06-18T08:14:57.311Z</time></trkpt><trkpt lat="58.28930167" lon="14.26392333"><ele>120.0</ele><time>2016-06-18T08:14:58.291Z</time></trkpt><trkpt lat="58.28930167" lon="14.26392333"><ele>120.0</ele><time>2016-06-18T08:14:59.288Z</time></trkpt><trkpt lat="58.289385" lon="14.26436333"><ele>119.0</ele><time>2016-06-18T08:15:00.299Z</time></trkpt><trkpt lat="58.289385" lon="14.26436333"><ele>119.0</ele><time>2016-06-18T08:15:01.296Z</time></trkpt><trkpt lat="58.28947167" lon="14.26480833"><ele>118.0</ele><time>2016-06-18T08:15:02.315Z</time></trkpt><trkpt lat="58.28947167" lon="14.26480833"><ele>118.0</ele><time>2016-06-18T08:15:03.290Z</time></trkpt><trkpt lat="58.28956" lon="14.26525667"><ele>117.0</ele><time>2016-06-18T08:15:04.306Z</time></trkpt><trkpt lat="58.28956" lon="14.26525667"><ele>117.0</ele><time>2016-06-18T08:15:05.294Z</time></trkpt><trkpt lat="58.28965" lon="14.26570167"><ele>115.0</ele><time>2016-06-18T08:15:06.283Z</time></trkpt><trkpt lat="58.28965" lon="14.26570167"><ele>115.0</ele><time>2016-06-18T08:15:07.317Z</time></trkpt><trkpt lat="58.28973667" lon="14.26615167"><ele>114.0</ele><time>2016-06-18T08:15:08.285Z</time></trkpt><trkpt lat="58.28973667" lon="14.26615167"><ele>114.0</ele><time>2016-06-18T08:15:09.311Z</time></trkpt><trkpt lat="58.289825" lon="14.26661167"><ele>113.0</ele><time>2016-06-18T08:15:10.318Z</time></trkpt><trkpt lat="58.289825" lon="14.26661167"><ele>113.0</ele><time>2016-06-18T08:15:11.312Z</time></trkpt><trkpt lat="58.28992" lon="14.26707333"><ele>112.0</ele><time>2016-06-18T08:15:12.296Z</time></trkpt><trkpt lat="58.28996667" lon="14.26730333"><ele>112.0</ele><time>2016-06-18T08:15:13.317Z</time></trkpt><trkpt lat="58.28996667" lon="14.26730333"><ele>112.0</ele><time>2016-06-18T08:15:14.298Z</time></trkpt><trkpt lat="58.290055" lon="14.267765"><ele>111.0</ele><time>2016-06-18T08:15:15.304Z</time></trkpt><trkpt lat="58.29009667" lon="14.26799333"><ele>110.0</ele><time>2016-06-18T08:15:16.287Z</time></trkpt><trkpt lat="58.29009667" lon="14.26799333"><ele>110.0</ele><time>2016-06-18T08:15:17.308Z</time></trkpt><trkpt lat="58.29017833" lon="14.268445"><ele>109.0</ele><time>2016-06-18T08:15:18.326Z</time></trkpt><trkpt lat="58.29017833" lon="14.268445"><ele>109.0</ele><time>2016-06-18T08:15:19.287Z</time></trkpt><trkpt lat="58.290255" lon="14.26890167"><ele>109.0</ele><time>2016-06-18T08:15:20.294Z</time></trkpt><trkpt lat="58.290255" lon="14.26890167"><ele>109.0</ele><time>2016-06-18T08:15:21.317Z</time></trkpt><trkpt lat="58.29033" lon="14.26936333"><ele>108.0</ele><time>2016-06-18T08:15:22.305Z</time></trkpt><trkpt lat="58.29033" lon="14.26936333"><ele>108.0</ele><time>2016-06-18T08:15:23.296Z</time></trkpt><trkpt lat="58.29040167" lon="14.26983167"><ele>107.0</ele><time>2016-06-18T08:15:24.314Z</time></trkpt><trkpt lat="58.29040167" lon="14.26983167"><ele>107.0</ele><time>2016-06-18T08:15:25.295Z</time></trkpt><trkpt lat="58.29046333" lon="14.27030333"><ele>106.0</ele><time>2016-06-18T08:15:26.326Z</time></trkpt><trkpt lat="58.29046333" lon="14.27030333"><ele>106.0</ele><time>2016-06-18T08:15:27.286Z</time></trkpt><trkpt lat="58.29051833" lon="14.27077667"><ele>105.0</ele><time>2016-06-18T08:15:28.294Z</time></trkpt><trkpt lat="58.29051833" lon="14.27077667"><ele>105.0</ele><time>2016-06-18T08:15:29.316Z</time></trkpt><trkpt lat="58.29057167" lon="14.27124"><ele>104.0</ele><time>2016-06-18T08:15:30.290Z</time></trkpt><trkpt lat="58.29057167" lon="14.27124"><ele>104.0</ele><time>2016-06-18T08:15:31.300Z</time></trkpt><trkpt lat="58.29062333" lon="14.27170833"><ele>103.0</ele><time>2016-06-18T08:15:32.307Z</time></trkpt><trkpt lat="58.29064667" lon="14.27195"><ele>102.0</ele><time>2016-06-18T08:15:33.319Z</time></trkpt><trkpt lat="58.29064667" lon="14.27195"><ele>102.0</ele><time>2016-06-18T08:15:34.290Z</time></trkpt><trkpt lat="58.29068833" lon="14.27244667"><ele>101.0</ele><time>2016-06-18T08:15:35.321Z</time></trkpt><trkpt lat="58.29068833" lon="14.27244667"><ele>101.0</ele><time>2016-06-18T08:15:36.294Z</time></trkpt><trkpt lat="58.290725" lon="14.27295833"><ele>100.0</ele><time>2016-06-18T08:15:37.317Z</time></trkpt><trkpt lat="58.29074" lon="14.27321667"><ele>100.0</ele><time>2016-06-18T08:15:38.295Z</time></trkpt><trkpt lat="58.29074" lon="14.27321667"><ele>100.0</ele><time>2016-06-18T08:15:39.316Z</time></trkpt><trkpt lat="58.29076167" lon="14.27372833"><ele>99.0</ele><time>2016-06-18T08:15:40.323Z</time></trkpt><trkpt lat="58.29076167" lon="14.27372833"><ele>99.0</ele><time>2016-06-18T08:15:41.304Z</time></trkpt><trkpt lat="58.29078667" lon="14.274235"><ele>98.0</ele><time>2016-06-18T08:15:42.316Z</time></trkpt><trkpt lat="58.29078667" lon="14.274235"><ele>98.0</ele><time>2016-06-18T08:15:43.299Z</time></trkpt><trkpt lat="58.29081667" lon="14.27472333"><ele>97.0</ele><time>2016-06-18T08:15:44.306Z</time></trkpt><trkpt lat="58.29081667" lon="14.27472333"><ele>97.0</ele><time>2016-06-18T08:15:45.309Z</time></trkpt><trkpt lat="58.29085167" lon="14.275215"><ele>96.0</ele><time>2016-06-18T08:15:46.294Z</time></trkpt><trkpt lat="58.29086833" lon="14.27546167"><ele>96.0</ele><time>2016-06-18T08:15:47.317Z</time></trkpt><trkpt lat="58.29086833" lon="14.27546167"><ele>96.0</ele><time>2016-06-18T08:15:48.299Z</time></trkpt><trkpt lat="58.29090167" lon="14.27596"><ele>95.0</ele><time>2016-06-18T08:15:49.321Z</time></trkpt><trkpt lat="58.29091667" lon="14.27621"><ele>94.0</ele><time>2016-06-18T08:15:50.298Z</time></trkpt><trkpt lat="58.29091667" lon="14.27621"><ele>94.0</ele><time>2016-06-18T08:15:51.302Z</time></trkpt><trkpt lat="58.29095" lon="14.27670833"><ele>93.0</ele><time>2016-06-18T08:15:52.308Z</time></trkpt><trkpt lat="58.29095" lon="14.27670833"><ele>93.0</ele><time>2016-06-18T08:15:53.289Z</time></trkpt><trkpt lat="58.29097833" lon="14.27719833"><ele>92.0</ele><time>2016-06-18T08:15:54.298Z</time></trkpt><trkpt lat="58.29097833" lon="14.27719833"><ele>92.0</ele><time>2016-06-18T08:15:55.291Z</time></trkpt><trkpt lat="58.29100833" lon="14.27768667"><ele>91.0</ele><time>2016-06-18T08:15:56.299Z</time></trkpt><trkpt lat="58.29100833" lon="14.27768667"><ele>91.0</ele><time>2016-06-18T08:15:57.285Z</time></trkpt><trkpt lat="58.29103667" lon="14.278175"><ele>89.0</ele><time>2016-06-18T08:15:58.322Z</time></trkpt><trkpt lat="58.29103667" lon="14.278175"><ele>89.0</ele><time>2016-06-18T08:15:59.291Z</time></trkpt><trkpt lat="58.29107667" lon="14.27865"><ele>88.0</ele><time>2016-06-18T08:16:00.302Z</time></trkpt><trkpt lat="58.291105" lon="14.27888833"><ele>87.0</ele><time>2016-06-18T08:16:01.319Z</time></trkpt><trkpt lat="58.29114167" lon="14.279125"><ele>87.0</ele><time>2016-06-18T08:16:02.286Z</time></trkpt><trkpt lat="58.29114167" lon="14.279125"><ele>87.0</ele><time>2016-06-18T08:16:03.297Z</time></trkpt><trkpt lat="58.29123667" lon="14.27958833"><ele>85.0</ele><time>2016-06-18T08:16:04.318Z</time></trkpt><trkpt lat="58.29123667" lon="14.27958833"><ele>85.0</ele><time>2016-06-18T08:16:05.288Z</time></trkpt><trkpt lat="58.29136167" lon="14.28002833"><ele>84.0</ele><time>2016-06-18T08:16:06.297Z</time></trkpt><trkpt lat="58.29136167" lon="14.28002833"><ele>84.0</ele><time>2016-06-18T08:16:07.292Z</time></trkpt><trkpt lat="58.29150833" lon="14.28044333"><ele>83.0</ele><time>2016-06-18T08:16:08.327Z</time></trkpt><trkpt lat="58.29150833" lon="14.28044333"><ele>83.0</ele><time>2016-06-18T08:16:09.287Z</time></trkpt><trkpt lat="58.29167833" lon="14.28082167"><ele>83.0</ele><time>2016-06-18T08:16:10.294Z</time></trkpt><trkpt lat="58.29167833" lon="14.28082167"><ele>83.0</ele><time>2016-06-18T08:16:11.284Z</time></trkpt><trkpt lat="58.29186667" lon="14.28114833"><ele>82.0</ele><time>2016-06-18T08:16:12.298Z</time></trkpt><trkpt lat="58.29186667" lon="14.28114833"><ele>82.0</ele><time>2016-06-18T08:16:13.290Z</time></trkpt><trkpt lat="58.29206833" lon="14.28141167"><ele>81.0</ele><time>2016-06-18T08:16:14.297Z</time></trkpt><trkpt lat="58.29206833" lon="14.28141167"><ele>81.0</ele><time>2016-06-18T08:16:15.295Z</time></trkpt><trkpt lat="58.29227833" lon="14.28163833"><ele>81.0</ele><time>2016-06-18T08:16:16.318Z</time></trkpt><trkpt lat="58.29227833" lon="14.28163833"><ele>81.0</ele><time>2016-06-18T08:16:17.290Z</time></trkpt><trkpt lat="58.29248833" lon="14.281825"><ele>82.0</ele><time>2016-06-18T08:16:18.296Z</time></trkpt><trkpt lat="58.29259333" lon="14.28190667"><ele>82.0</ele><time>2016-06-18T08:16:19.319Z</time></trkpt><trkpt lat="58.292695" lon="14.28198"><ele>83.0</ele><time>2016-06-18T08:16:20.300Z</time></trkpt><trkpt lat="58.292695" lon="14.28198"><ele>83.0</ele><time>2016-06-18T08:16:21.284Z</time></trkpt><trkpt lat="58.29289833" lon="14.282115"><ele>84.0</ele><time>2016-06-18T08:16:22.293Z</time></trkpt><trkpt lat="58.29289833" lon="14.282115"><ele>84.0</ele><time>2016-06-18T08:16:23.315Z</time></trkpt><trkpt lat="58.29310333" lon="14.28223667"><ele>84.0</ele><time>2016-06-18T08:16:24.322Z</time></trkpt><trkpt lat="58.29310333" lon="14.28223667"><ele>84.0</ele><time>2016-06-18T08:16:25.287Z</time></trkpt><trkpt lat="58.29330167" lon="14.28235833"><ele>85.0</ele><time>2016-06-18T08:16:26.298Z</time></trkpt><trkpt lat="58.29330167" lon="14.28235833"><ele>85.0</ele><time>2016-06-18T08:16:27.287Z</time></trkpt><trkpt lat="58.293495" lon="14.28247167"><ele>86.0</ele><time>2016-06-18T08:16:28.324Z</time></trkpt><trkpt lat="58.293495" lon="14.28247167"><ele>86.0</ele><time>2016-06-18T08:16:29.310Z</time></trkpt><trkpt lat="58.29368667" lon="14.28258167"><ele>86.0</ele><time>2016-06-18T08:16:30.317Z</time></trkpt><trkpt lat="58.29368667" lon="14.28258167"><ele>86.0</ele><time>2016-06-18T08:16:31.297Z</time></trkpt><trkpt lat="58.29387167" lon="14.28269333"><ele>85.0</ele><time>2016-06-18T08:16:32.327Z</time></trkpt><trkpt lat="58.29387167" lon="14.28269333"><ele>85.0</ele><time>2016-06-18T08:16:33.288Z</time></trkpt><trkpt lat="58.29405667" lon="14.28280333"><ele>86.0</ele><time>2016-06-18T08:16:34.295Z</time></trkpt><trkpt lat="58.29414833" lon="14.28286"><ele>86.0</ele><time>2016-06-18T08:16:35.326Z</time></trkpt><trkpt lat="58.29414833" lon="14.28286"><ele>86.0</ele><time>2016-06-18T08:16:36.287Z</time></trkpt><trkpt lat="58.29432833" lon="14.28297"><ele>86.0</ele><time>2016-06-18T08:16:37.293Z</time></trkpt><trkpt lat="58.29442" lon="14.28302833"><ele>86.0</ele><time>2016-06-18T08:16:38.289Z</time></trkpt><trkpt lat="58.29442" lon="14.28302833"><ele>86.0</ele><time>2016-06-18T08:16:39.292Z</time></trkpt><trkpt lat="58.29459833" lon="14.28314167"><ele>87.0</ele><time>2016-06-18T08:16:40.298Z</time></trkpt><trkpt lat="58.294685" lon="14.28319"><ele>87.0</ele><time>2016-06-18T08:16:41.315Z</time></trkpt><trkpt lat="58.294685" lon="14.28319"><ele>87.0</ele><time>2016-06-18T08:16:42.306Z</time></trkpt><trkpt lat="58.294855" lon="14.28328667"><ele>88.0</ele><time>2016-06-18T08:16:43.313Z</time></trkpt><trkpt lat="58.29493833" lon="14.283335"><ele>88.0</ele><time>2016-06-18T08:16:44.319Z</time></trkpt><trkpt lat="58.29493833" lon="14.283335"><ele>88.0</ele><time>2016-06-18T08:16:45.301Z</time></trkpt><trkpt lat="58.29511167" lon="14.28344167"><ele>88.0</ele><time>2016-06-18T08:16:46.317Z</time></trkpt><trkpt lat="58.29511167" lon="14.28344167"><ele>88.0</ele><time>2016-06-18T08:16:47.298Z</time></trkpt><trkpt lat="58.29528833" lon="14.28354667"><ele>88.0</ele><time>2016-06-18T08:16:48.305Z</time></trkpt><trkpt lat="58.29537667" lon="14.2836"><ele>89.0</ele><time>2016-06-18T08:16:49.319Z</time></trkpt><trkpt lat="58.29537667" lon="14.2836"><ele>89.0</ele><time>2016-06-18T08:16:50.287Z</time></trkpt><trkpt lat="58.29556167" lon="14.283715"><ele>89.0</ele><time>2016-06-18T08:16:51.294Z</time></trkpt><trkpt lat="58.29556167" lon="14.283715"><ele>89.0</ele><time>2016-06-18T08:16:52.316Z</time></trkpt><trkpt lat="58.29574833" lon="14.28381833"><ele>89.0</ele><time>2016-06-18T08:16:53.304Z</time></trkpt><trkpt lat="58.29574833" lon="14.28381833"><ele>89.0</ele><time>2016-06-18T08:16:54.304Z</time></trkpt><trkpt lat="58.29594167" lon="14.28394833"><ele>89.0</ele><time>2016-06-18T08:16:55.282Z</time></trkpt><trkpt lat="58.29604" lon="14.28401833"><ele>89.0</ele><time>2016-06-18T08:16:56.289Z</time></trkpt><trkpt lat="58.29604" lon="14.28401833"><ele>89.0</ele><time>2016-06-18T08:16:57.313Z</time></trkpt><trkpt lat="58.29624167" lon="14.28416667"><ele>89.0</ele><time>2016-06-18T08:16:58.321Z</time></trkpt><trkpt lat="58.296345" lon="14.28423833"><ele>89.0</ele><time>2016-06-18T08:16:59.318Z</time></trkpt><trkpt lat="58.29645" lon="14.28431"><ele>88.0</ele><time>2016-06-18T08:17:00.283Z</time></trkpt><trkpt lat="58.29645" lon="14.28431"><ele>88.0</ele><time>2016-06-18T08:17:01.304Z</time></trkpt><trkpt lat="58.29665667" lon="14.28446333"><ele>88.0</ele><time>2016-06-18T08:17:02.285Z</time></trkpt><trkpt lat="58.29676167" lon="14.28454"><ele>88.0</ele><time>2016-06-18T08:17:03.295Z</time></trkpt><trkpt lat="58.29676167" lon="14.28454"><ele>88.0</ele><time>2016-06-18T08:17:04.319Z</time></trkpt><trkpt lat="58.29697167" lon="14.28468"><ele>88.0</ele><time>2016-06-18T08:17:05.291Z</time></trkpt><trkpt lat="58.29697167" lon="14.28468"><ele>88.0</ele><time>2016-06-18T08:17:06.299Z</time></trkpt><trkpt lat="58.29718167" lon="14.28482167"><ele>88.0</ele><time>2016-06-18T08:17:07.306Z</time></trkpt><trkpt lat="58.29718167" lon="14.28482167"><ele>88.0</ele><time>2016-06-18T08:17:08.287Z</time></trkpt><trkpt lat="58.29739" lon="14.28497667"><ele>88.0</ele><time>2016-06-18T08:17:09.290Z</time></trkpt><trkpt lat="58.29739" lon="14.28497667"><ele>88.0</ele><time>2016-06-18T08:17:10.301Z</time></trkpt><trkpt lat="58.29759167" lon="14.28512833"><ele>88.0</ele><time>2016-06-18T08:17:11.332Z</time></trkpt><trkpt lat="58.29769167" lon="14.285205"><ele>88.0</ele><time>2016-06-18T08:17:12.321Z</time></trkpt><trkpt lat="58.29769167" lon="14.285205"><ele>88.0</ele><time>2016-06-18T08:17:13.301Z</time></trkpt><trkpt lat="58.29789167" lon="14.28536167"><ele>88.0</ele><time>2016-06-18T08:17:14.308Z</time></trkpt><trkpt lat="58.29789167" lon="14.28536167"><ele>88.0</ele><time>2016-06-18T08:17:15.296Z</time></trkpt><trkpt lat="58.29808833" lon="14.28551833"><ele>88.0</ele><time>2016-06-18T08:17:16.308Z</time></trkpt><trkpt lat="58.29808833" lon="14.28551833"><ele>88.0</ele><time>2016-06-18T08:17:17.288Z</time></trkpt><trkpt lat="58.29827167" lon="14.285695"><ele>87.0</ele><time>2016-06-18T08:17:18.325Z</time></trkpt><trkpt lat="58.29827167" lon="14.285695"><ele>87.0</ele><time>2016-06-18T08:17:19.294Z</time></trkpt><trkpt lat="58.298455" lon="14.28587333"><ele>88.0</ele><time>2016-06-18T08:17:20.301Z</time></trkpt><trkpt lat="58.298455" lon="14.28587333"><ele>88.0</ele><time>2016-06-18T08:17:21.288Z</time></trkpt><trkpt lat="58.29861667" lon="14.28604833"><ele>89.0</ele><time>2016-06-18T08:17:22.328Z</time></trkpt><trkpt lat="58.29861667" lon="14.28604833"><ele>89.0</ele><time>2016-06-18T08:17:23.291Z</time></trkpt><trkpt lat="58.29875667" lon="14.28621333"><ele>89.0</ele><time>2016-06-18T08:17:24.298Z</time></trkpt><trkpt lat="58.298815" lon="14.286285"><ele>90.0</ele><time>2016-06-18T08:17:25.311Z</time></trkpt><trkpt lat="58.29887" lon="14.28635"><ele>90.0</ele><time>2016-06-18T08:17:26.282Z</time></trkpt><trkpt lat="58.29887" lon="14.28635"><ele>90.0</ele><time>2016-06-18T08:17:27.298Z</time></trkpt><trkpt lat="58.29898667" lon="14.28647167"><ele>91.0</ele><time>2016-06-18T08:17:28.315Z</time></trkpt><trkpt lat="58.29898667" lon="14.28647167"><ele>91.0</ele><time>2016-06-18T08:17:29.301Z</time></trkpt><trkpt lat="58.29909833" lon="14.28659833"><ele>91.0</ele><time>2016-06-18T08:17:30.308Z</time></trkpt><trkpt lat="58.29915667" lon="14.28666333"><ele>92.0</ele><time>2016-06-18T08:17:31.326Z</time></trkpt><trkpt lat="58.29921167" lon="14.28673167"><ele>92.0</ele><time>2016-06-18T08:17:32.293Z</time></trkpt><trkpt lat="58.29921167" lon="14.28673167"><ele>92.0</ele><time>2016-06-18T08:17:33.316Z</time></trkpt><trkpt lat="58.29933167" lon="14.28687167"><ele>92.0</ele><time>2016-06-18T08:17:34.328Z</time></trkpt><trkpt lat="58.299395" lon="14.28694167"><ele>92.0</ele><time>2016-06-18T08:17:35.312Z</time></trkpt><trkpt lat="58.29945667" lon="14.28702"><ele>92.0</ele><time>2016-06-18T08:17:36.298Z</time></trkpt><trkpt lat="58.29945667" lon="14.28702"><ele>92.0</ele><time>2016-06-18T08:17:37.320Z</time></trkpt><trkpt lat="58.299595" lon="14.287175"><ele>92.0</ele><time>2016-06-18T08:17:38.289Z</time></trkpt><trkpt lat="58.299595" lon="14.287175"><ele>92.0</ele><time>2016-06-18T08:17:39.310Z</time></trkpt><trkpt lat="58.29974" lon="14.28732833"><ele>92.0</ele><time>2016-06-18T08:17:40.327Z</time></trkpt><trkpt lat="58.29974" lon="14.28732833"><ele>92.0</ele><time>2016-06-18T08:17:41.289Z</time></trkpt><trkpt lat="58.29988333" lon="14.28749167"><ele>92.0</ele><time>2016-06-18T08:17:42.300Z</time></trkpt><trkpt lat="58.29988333" lon="14.28749167"><ele>92.0</ele><time>2016-06-18T08:17:43.286Z</time></trkpt><trkpt lat="58.30003833" lon="14.287655"><ele>92.0</ele><time>2016-06-18T08:17:44.308Z</time></trkpt><trkpt lat="58.30003833" lon="14.287655"><ele>92.0</ele><time>2016-06-18T08:17:45.320Z</time></trkpt><trkpt lat="58.30020333" lon="14.2878"><ele>93.0</ele><time>2016-06-18T08:17:46.289Z</time></trkpt><trkpt lat="58.30029" lon="14.28786667"><ele>93.0</ele><time>2016-06-18T08:17:47.316Z</time></trkpt><trkpt lat="58.30029" lon="14.28786667"><ele>93.0</ele><time>2016-06-18T08:17:48.297Z</time></trkpt><trkpt lat="58.30047333" lon="14.28796167"><ele>93.0</ele><time>2016-06-18T08:17:49.304Z</time></trkpt><trkpt lat="58.30047333" lon="14.28796167"><ele>93.0</ele><time>2016-06-18T08:17:50.318Z</time></trkpt><trkpt lat="58.30066333" lon="14.28802"><ele>93.0</ele><time>2016-06-18T08:17:51.288Z</time></trkpt><trkpt lat="58.30066333" lon="14.28802"><ele>93.0</ele><time>2016-06-18T08:17:52.312Z</time></trkpt><trkpt lat="58.30084333" lon="14.28807667"><ele>93.0</ele><time>2016-06-18T08:17:53.323Z</time></trkpt><trkpt lat="58.30084333" lon="14.28807667"><ele>93.0</ele><time>2016-06-18T08:17:54.299Z</time></trkpt><trkpt lat="58.30099" lon="14.28811333"><ele>94.0</ele><time>2016-06-18T08:17:55.306Z</time></trkpt><trkpt lat="58.30105667" lon="14.28812833"><ele>95.0</ele><time>2016-06-18T08:17:56.322Z</time></trkpt><trkpt lat="58.30105667" lon="14.28812833"><ele>95.0</ele><time>2016-06-18T08:17:57.303Z</time></trkpt><trkpt lat="58.30118333" lon="14.288195"><ele>95.0</ele><time>2016-06-18T08:17:58.311Z</time></trkpt><trkpt lat="58.30118333" lon="14.288195"><ele>95.0</ele><time>2016-06-18T08:17:59.291Z</time></trkpt><trkpt lat="58.30128333" lon="14.28829833"><ele>96.0</ele><time>2016-06-18T08:18:00.302Z</time></trkpt><trkpt lat="58.30128333" lon="14.28829833"><ele>96.0</ele><time>2016-06-18T08:18:01.296Z</time></trkpt><trkpt lat="58.30138333" lon="14.28848167"><ele>96.0</ele><time>2016-06-18T08:18:02.283Z</time></trkpt><trkpt lat="58.30138333" lon="14.28848167"><ele>96.0</ele><time>2016-06-18T08:18:03.288Z</time></trkpt><trkpt lat="58.30146333" lon="14.28870333"><ele>96.0</ele><time>2016-06-18T08:18:04.296Z</time></trkpt><trkpt lat="58.30150167" lon="14.28881333"><ele>96.0</ele><time>2016-06-18T08:18:05.320Z</time></trkpt><trkpt lat="58.30150167" lon="14.28881333"><ele>96.0</ele><time>2016-06-18T08:18:06.300Z</time></trkpt><trkpt lat="58.301585" lon="14.28902"><ele>96.0</ele><time>2016-06-18T08:18:07.309Z</time></trkpt><trkpt lat="58.301635" lon="14.28912333"><ele>96.0</ele><time>2016-06-18T08:18:08.320Z</time></trkpt><trkpt lat="58.301635" lon="14.28912333"><ele>96.0</ele><time>2016-06-18T08:18:09.311Z</time></trkpt><trkpt lat="58.30174833" lon="14.28932333"><ele>97.0</ele><time>2016-06-18T08:18:10.284Z</time></trkpt><trkpt lat="58.30174833" lon="14.28932333"><ele>97.0</ele><time>2016-06-18T08:18:11.300Z</time></trkpt><trkpt lat="58.30187167" lon="14.289545"><ele>97.0</ele><time>2016-06-18T08:18:12.297Z</time></trkpt><trkpt lat="58.30194" lon="14.28965333"><ele>96.0</ele><time>2016-06-18T08:18:13.298Z</time></trkpt><trkpt lat="58.30194" lon="14.28965333"><ele>96.0</ele><time>2016-06-18T08:18:14.319Z</time></trkpt><trkpt lat="58.30208" lon="14.28985833"><ele>97.0</ele><time>2016-06-18T08:18:15.298Z</time></trkpt><trkpt lat="58.30208" lon="14.28985833"><ele>97.0</ele><time>2016-06-18T08:18:16.297Z</time></trkpt><trkpt lat="58.30224333" lon="14.29004833"><ele>96.0</ele><time>2016-06-18T08:18:17.306Z</time></trkpt><trkpt lat="58.30224333" lon="14.29004833"><ele>96.0</ele><time>2016-06-18T08:18:18.296Z</time></trkpt><trkpt lat="58.30243" lon="14.29024"><ele>96.0</ele><time>2016-06-18T08:18:19.322Z</time></trkpt><trkpt lat="58.30252" lon="14.29034167"><ele>96.0</ele><time>2016-06-18T08:18:20.319Z</time></trkpt><trkpt lat="58.30252" lon="14.29034167"><ele>96.0</ele><time>2016-06-18T08:18:21.301Z</time></trkpt><trkpt lat="58.302695" lon="14.290545"><ele>96.0</ele><time>2016-06-18T08:18:22.318Z</time></trkpt><trkpt lat="58.302695" lon="14.290545"><ele>96.0</ele><time>2016-06-18T08:18:23.299Z</time></trkpt><trkpt lat="58.30285667" lon="14.29073833"><ele>96.0</ele><time>2016-06-18T08:18:24.307Z</time></trkpt><trkpt lat="58.30293167" lon="14.290825"><ele>96.0</ele><time>2016-06-18T08:18:25.289Z</time></trkpt><trkpt lat="58.303005" lon="14.290915"><ele>97.0</ele><time>2016-06-18T08:18:26.295Z</time></trkpt><trkpt lat="58.303005" lon="14.290915"><ele>97.0</ele><time>2016-06-18T08:18:27.317Z</time></trkpt><trkpt lat="58.30312667" lon="14.29108667"><ele>96.0</ele><time>2016-06-18T08:18:28.291Z</time></trkpt><trkpt lat="58.303195" lon="14.29116667"><ele>96.0</ele><time>2016-06-18T08:18:29.300Z</time></trkpt><trkpt lat="58.303195" lon="14.29116667"><ele>96.0</ele><time>2016-06-18T08:18:30.289Z</time></trkpt><trkpt lat="58.30329" lon="14.29132833"><ele>96.0</ele><time>2016-06-18T08:18:31.306Z</time></trkpt><trkpt lat="58.30329" lon="14.29132833"><ele>96.0</ele><time>2016-06-18T08:18:32.290Z</time></trkpt><trkpt lat="58.30342667" lon="14.291415"><ele>97.0</ele><time>2016-06-18T08:18:33.302Z</time></trkpt><trkpt lat="58.30342667" lon="14.291415"><ele>97.0</ele><time>2016-06-18T08:18:34.286Z</time></trkpt><trkpt lat="58.30355667" lon="14.29143833"><ele>97.0</ele><time>2016-06-18T08:18:35.295Z</time></trkpt><trkpt lat="58.30355667" lon="14.29143833"><ele>97.0</ele><time>2016-06-18T08:18:36.296Z</time></trkpt><trkpt lat="58.30367667" lon="14.29134333"><ele>97.0</ele><time>2016-06-18T08:18:37.303Z</time></trkpt><trkpt lat="58.30367667" lon="14.29134333"><ele>97.0</ele><time>2016-06-18T08:18:38.297Z</time></trkpt><trkpt lat="58.30380167" lon="14.29130667"><ele>97.0</ele><time>2016-06-18T08:18:39.322Z</time></trkpt><trkpt lat="58.30380167" lon="14.29130667"><ele>97.0</ele><time>2016-06-18T08:18:40.289Z</time></trkpt><trkpt lat="58.30392167" lon="14.29141"><ele>97.0</ele><time>2016-06-18T08:18:41.296Z</time></trkpt><trkpt lat="58.30392167" lon="14.29141"><ele>97.0</ele><time>2016-06-18T08:18:42.319Z</time></trkpt><trkpt lat="58.30403667" lon="14.291565"><ele>97.0</ele><time>2016-06-18T08:18:43.298Z</time></trkpt><trkpt lat="58.30403667" lon="14.291565"><ele>97.0</ele><time>2016-06-18T08:18:44.291Z</time></trkpt><trkpt lat="58.30416" lon="14.291725"><ele>97.0</ele><time>2016-06-18T08:18:45.298Z</time></trkpt><trkpt lat="58.30416" lon="14.291725"><ele>97.0</ele><time>2016-06-18T08:18:46.302Z</time></trkpt><trkpt lat="58.30429333" lon="14.29188333"><ele>97.0</ele><time>2016-06-18T08:18:47.289Z</time></trkpt><trkpt lat="58.30429333" lon="14.29188333"><ele>97.0</ele><time>2016-06-18T08:18:48.317Z</time></trkpt><trkpt lat="58.30442833" lon="14.29205"><ele>96.0</ele><time>2016-06-18T08:18:49.287Z</time></trkpt><trkpt lat="58.30449667" lon="14.29213"><ele>96.0</ele><time>2016-06-18T08:18:50.317Z</time></trkpt><trkpt lat="58.30449667" lon="14.29213"><ele>96.0</ele><time>2016-06-18T08:18:51.297Z</time></trkpt><trkpt lat="58.30463167" lon="14.29227667"><ele>96.0</ele><time>2016-06-18T08:18:52.306Z</time></trkpt><trkpt lat="58.30463167" lon="14.29227667"><ele>96.0</ele><time>2016-06-18T08:18:53.288Z</time></trkpt><trkpt lat="58.304765" lon="14.29241833"><ele>97.0</ele><time>2016-06-18T08:18:54.298Z</time></trkpt><trkpt lat="58.304765" lon="14.29241833"><ele>97.0</ele><time>2016-06-18T08:18:55.283Z</time></trkpt><trkpt lat="58.304895" lon="14.292575"><ele>97.0</ele><time>2016-06-18T08:18:56.302Z</time></trkpt><trkpt lat="58.304895" lon="14.292575"><ele>97.0</ele><time>2016-06-18T08:18:57.300Z</time></trkpt><trkpt lat="58.30502667" lon="14.29275"><ele>97.0</ele><time>2016-06-18T08:18:58.307Z</time></trkpt><trkpt lat="58.30502667" lon="14.29275"><ele>97.0</ele><time>2016-06-18T08:18:59.288Z</time></trkpt><trkpt lat="58.30516167" lon="14.29291667"><ele>97.0</ele><time>2016-06-18T08:19:00.286Z</time></trkpt><trkpt lat="58.30516167" lon="14.29291667"><ele>97.0</ele><time>2016-06-18T08:19:01.304Z</time></trkpt><trkpt lat="58.30529333" lon="14.29308167"><ele>97.0</ele><time>2016-06-18T08:19:02.310Z</time></trkpt><trkpt lat="58.30529333" lon="14.29308167"><ele>97.0</ele><time>2016-06-18T08:19:03.295Z</time></trkpt><trkpt lat="58.30542833" lon="14.29325167"><ele>97.0</ele><time>2016-06-18T08:19:04.289Z</time></trkpt><trkpt lat="58.30542833" lon="14.29325167"><ele>97.0</ele><time>2016-06-18T08:19:05.310Z</time></trkpt><trkpt lat="58.305555" lon="14.29342"><ele>97.0</ele><time>2016-06-18T08:19:06.320Z</time></trkpt><trkpt lat="58.305615" lon="14.2935"><ele>97.0</ele><time>2016-06-18T08:19:07.308Z</time></trkpt><trkpt lat="58.305615" lon="14.2935"><ele>97.0</ele><time>2016-06-18T08:19:08.307Z</time></trkpt><trkpt lat="58.30574667" lon="14.29366833"><ele>96.0</ele><time>2016-06-18T08:19:09.289Z</time></trkpt><trkpt lat="58.30574667" lon="14.29366833"><ele>96.0</ele><time>2016-06-18T08:19:10.310Z</time></trkpt><trkpt lat="58.30586667" lon="14.29382667"><ele>96.0</ele><time>2016-06-18T08:19:11.294Z</time></trkpt><trkpt lat="58.30591667" lon="14.29392833"><ele>97.0</ele><time>2016-06-18T08:19:12.291Z</time></trkpt><trkpt lat="58.30591667" lon="14.29392833"><ele>97.0</ele><time>2016-06-18T08:19:13.314Z</time></trkpt><trkpt lat="58.30603333" lon="14.29406833"><ele>96.0</ele><time>2016-06-18T08:19:14.288Z</time></trkpt><trkpt lat="58.30603333" lon="14.29406833"><ele>96.0</ele><time>2016-06-18T08:19:15.310Z</time></trkpt><trkpt lat="58.30614667" lon="14.29422167"><ele>96.0</ele><time>2016-06-18T08:19:16.285Z</time></trkpt><trkpt lat="58.30620167" lon="14.294295"><ele>96.0</ele><time>2016-06-18T08:19:17.319Z</time></trkpt><trkpt lat="58.30620167" lon="14.294295"><ele>96.0</ele><time>2016-06-18T08:19:18.301Z</time></trkpt><trkpt lat="58.30630833" lon="14.29442833"><ele>96.0</ele><time>2016-06-18T08:19:19.307Z</time></trkpt><trkpt lat="58.306365" lon="14.294495"><ele>96.0</ele><time>2016-06-18T08:19:20.298Z</time></trkpt><trkpt lat="58.306365" lon="14.294495"><ele>96.0</ele><time>2016-06-18T08:19:21.290Z</time></trkpt><trkpt lat="58.30648" lon="14.29461"><ele>95.0</ele><time>2016-06-18T08:19:22.297Z</time></trkpt><trkpt lat="58.30648" lon="14.29461"><ele>95.0</ele><time>2016-06-18T08:19:23.290Z</time></trkpt><trkpt lat="58.30660667" lon="14.29470833"><ele>95.0</ele><time>2016-06-18T08:19:24.288Z</time></trkpt><trkpt lat="58.30660667" lon="14.29470833"><ele>95.0</ele><time>2016-06-18T08:19:25.302Z</time></trkpt><trkpt lat="58.306735" lon="14.29478333"><ele>94.0</ele><time>2016-06-18T08:19:26.309Z</time></trkpt><trkpt lat="58.306735" lon="14.29478333"><ele>94.0</ele><time>2016-06-18T08:19:27.294Z</time></trkpt><trkpt lat="58.30686" lon="14.29483833"><ele>94.0</ele><time>2016-06-18T08:19:28.320Z</time></trkpt><trkpt lat="58.30691833" lon="14.29487667"><ele>94.0</ele><time>2016-06-18T08:19:29.303Z</time></trkpt><trkpt lat="58.30691833" lon="14.29487667"><ele>94.0</ele><time>2016-06-18T08:19:30.289Z</time></trkpt><trkpt lat="58.30699333" lon="14.29504333"><ele>95.0</ele><time>2016-06-18T08:19:31.300Z</time></trkpt><trkpt lat="58.30699333" lon="14.29504333"><ele>95.0</ele><time>2016-06-18T08:19:32.318Z</time></trkpt><trkpt lat="58.30700833" lon="14.29526167"><ele>95.0</ele><time>2016-06-18T08:19:33.298Z</time></trkpt><trkpt lat="58.30700833" lon="14.29526167"><ele>95.0</ele><time>2016-06-18T08:19:34.285Z</time></trkpt><trkpt lat="58.307055" lon="14.295495"><ele>95.0</ele><time>2016-06-18T08:19:35.328Z</time></trkpt><trkpt lat="58.307055" lon="14.295495"><ele>95.0</ele><time>2016-06-18T08:19:36.318Z</time></trkpt><trkpt lat="58.30715333" lon="14.29568333"><ele>95.0</ele><time>2016-06-18T08:19:37.286Z</time></trkpt><trkpt lat="58.30721667" lon="14.29575667"><ele>95.0</ele><time>2016-06-18T08:19:38.320Z</time></trkpt><trkpt lat="58.30721667" lon="14.29575667"><ele>95.0</ele><time>2016-06-18T08:19:39.306Z</time></trkpt><trkpt lat="58.30736167" lon="14.29591667"><ele>95.0</ele><time>2016-06-18T08:19:40.313Z</time></trkpt><trkpt lat="58.30736167" lon="14.29591667"><ele>95.0</ele><time>2016-06-18T08:19:41.292Z</time></trkpt><trkpt lat="58.30749833" lon="14.29607"><ele>94.0</ele><time>2016-06-18T08:19:42.298Z</time></trkpt><trkpt lat="58.30749833" lon="14.29607"><ele>94.0</ele><time>2016-06-18T08:19:43.289Z</time></trkpt><trkpt lat="58.30762833" lon="14.29621333"><ele>94.0</ele><time>2016-06-18T08:19:44.327Z</time></trkpt><trkpt lat="58.30762833" lon="14.29621333"><ele>94.0</ele><time>2016-06-18T08:19:45.288Z</time></trkpt><trkpt lat="58.30777167" lon="14.29637667"><ele>94.0</ele><time>2016-06-18T08:19:46.295Z</time></trkpt><trkpt lat="58.30777167" lon="14.29637667"><ele>94.0</ele><time>2016-06-18T08:19:47.287Z</time></trkpt><trkpt lat="58.307915" lon="14.29654833"><ele>93.0</ele><time>2016-06-18T08:19:48.300Z</time></trkpt><trkpt lat="58.307915" lon="14.29654833"><ele>93.0</ele><time>2016-06-18T08:19:49.286Z</time></trkpt><trkpt lat="58.308065" lon="14.29671"><ele>94.0</ele><time>2016-06-18T08:19:50.294Z</time></trkpt><trkpt lat="58.308135" lon="14.29679333"><ele>93.0</ele><time>2016-06-18T08:19:51.320Z</time></trkpt><trkpt lat="58.308135" lon="14.29679333"><ele>93.0</ele><time>2016-06-18T08:19:52.313Z</time></trkpt><trkpt lat="58.30827333" lon="14.296965"><ele>93.0</ele><time>2016-06-18T08:19:53.289Z</time></trkpt><trkpt lat="58.30833667" lon="14.29704333"><ele>93.0</ele><time>2016-06-18T08:19:54.313Z</time></trkpt><trkpt lat="58.30833667" lon="14.29704333"><ele>93.0</ele><time>2016-06-18T08:19:55.305Z</time></trkpt><trkpt lat="58.30845" lon="14.297195"><ele>93.0</ele><time>2016-06-18T08:19:56.319Z</time></trkpt><trkpt lat="58.30845" lon="14.297195"><ele>93.0</ele><time>2016-06-18T08:19:57.288Z</time></trkpt><trkpt lat="58.30856" lon="14.29735333"><ele>93.0</ele><time>2016-06-18T08:19:58.295Z</time></trkpt><trkpt lat="58.30861333" lon="14.297435"><ele>93.0</ele><time>2016-06-18T08:19:59.325Z</time></trkpt><trkpt lat="58.30861333" lon="14.297435"><ele>93.0</ele><time>2016-06-18T08:20:00.288Z</time></trkpt><trkpt lat="58.30872333" lon="14.29761667"><ele>93.0</ele><time>2016-06-18T08:20:01.295Z</time></trkpt><trkpt lat="58.30878" lon="14.29771167"><ele>93.0</ele><time>2016-06-18T08:20:02.293Z</time></trkpt><trkpt lat="58.30883333" lon="14.297805"><ele>93.0</ele><time>2016-06-18T08:20:03.288Z</time></trkpt><trkpt lat="58.30883333" lon="14.297805"><ele>93.0</ele><time>2016-06-18T08:20:04.310Z</time></trkpt><trkpt lat="58.30894" lon="14.298"><ele>93.0</ele><time>2016-06-18T08:20:05.301Z</time></trkpt><trkpt lat="58.30894" lon="14.298"><ele>93.0</ele><time>2016-06-18T08:20:06.285Z</time></trkpt><trkpt lat="58.30903833" lon="14.29818667"><ele>94.0</ele><time>2016-06-18T08:20:07.293Z</time></trkpt><trkpt lat="58.30908667" lon="14.29828333"><ele>94.0</ele><time>2016-06-18T08:20:08.288Z</time></trkpt><trkpt lat="58.30908667" lon="14.29828333"><ele>94.0</ele><time>2016-06-18T08:20:09.311Z</time></trkpt><trkpt lat="58.309185" lon="14.29848833"><ele>94.0</ele><time>2016-06-18T08:20:10.317Z</time></trkpt><trkpt lat="58.309185" lon="14.29848833"><ele>94.0</ele><time>2016-06-18T08:20:11.286Z</time></trkpt><trkpt lat="58.309285" lon="14.29869167"><ele>93.0</ele><time>2016-06-18T08:20:12.289Z</time></trkpt><trkpt lat="58.309285" lon="14.29869167"><ele>93.0</ele><time>2016-06-18T08:20:13.312Z</time></trkpt><trkpt lat="58.30938333" lon="14.29892333"><ele>93.0</ele><time>2016-06-18T08:20:14.319Z</time></trkpt><trkpt lat="58.30938333" lon="14.29892333"><ele>93.0</ele><time>2016-06-18T08:20:15.300Z</time></trkpt><trkpt lat="58.30947333" lon="14.29916167"><ele>93.0</ele><time>2016-06-18T08:20:16.327Z</time></trkpt><trkpt lat="58.30947333" lon="14.29916167"><ele>93.0</ele><time>2016-06-18T08:20:17.289Z</time></trkpt><trkpt lat="58.309565" lon="14.29940167"><ele>92.0</ele><time>2016-06-18T08:20:18.299Z</time></trkpt><trkpt lat="58.309565" lon="14.29940167"><ele>92.0</ele><time>2016-06-18T08:20:19.284Z</time></trkpt><trkpt lat="58.30966" lon="14.29963833"><ele>92.0</ele><time>2016-06-18T08:20:20.328Z</time></trkpt><trkpt lat="58.30966" lon="14.29963833"><ele>92.0</ele><time>2016-06-18T08:20:21.290Z</time></trkpt><trkpt lat="58.30975667" lon="14.29988"><ele>92.0</ele><time>2016-06-18T08:20:22.297Z</time></trkpt><trkpt lat="58.30975667" lon="14.29988"><ele>92.0</ele><time>2016-06-18T08:20:23.289Z</time></trkpt><trkpt lat="58.30985667" lon="14.30012"><ele>91.0</ele><time>2016-06-18T08:20:24.282Z</time></trkpt><trkpt lat="58.30985667" lon="14.30012"><ele>91.0</ele><time>2016-06-18T08:20:25.300Z</time></trkpt><trkpt lat="58.30995667" lon="14.30035167"><ele>91.0</ele><time>2016-06-18T08:20:26.307Z</time></trkpt><trkpt lat="58.30995667" lon="14.30035167"><ele>91.0</ele><time>2016-06-18T08:20:27.289Z</time></trkpt><trkpt lat="58.31005" lon="14.30056333"><ele>92.0</ele><time>2016-06-18T08:20:28.320Z</time></trkpt><trkpt lat="58.31005" lon="14.30056333"><ele>92.0</ele><time>2016-06-18T08:20:29.287Z</time></trkpt><trkpt lat="58.31014" lon="14.30076833"><ele>92.0</ele><time>2016-06-18T08:20:30.294Z</time></trkpt><trkpt lat="58.31018167" lon="14.300865"><ele>92.0</ele><time>2016-06-18T08:20:31.287Z</time></trkpt><trkpt lat="58.31018167" lon="14.300865"><ele>92.0</ele><time>2016-06-18T08:20:32.299Z</time></trkpt><trkpt lat="58.31026667" lon="14.30106"><ele>93.0</ele><time>2016-06-18T08:20:33.309Z</time></trkpt><trkpt lat="58.31030833" lon="14.30115167"><ele>93.0</ele><time>2016-06-18T08:20:34.317Z</time></trkpt><trkpt lat="58.31030833" lon="14.30115167"><ele>93.0</ele><time>2016-06-18T08:20:35.298Z</time></trkpt><trkpt lat="58.31039333" lon="14.30133667"><ele>94.0</ele><time>2016-06-18T08:20:36.304Z</time></trkpt><trkpt lat="58.31039333" lon="14.30133667"><ele>94.0</ele><time>2016-06-18T08:20:37.284Z</time></trkpt><trkpt lat="58.31048333" lon="14.30152833"><ele>94.0</ele><time>2016-06-18T08:20:38.319Z</time></trkpt><trkpt lat="58.31048333" lon="14.30152833"><ele>94.0</ele><time>2016-06-18T08:20:39.294Z</time></trkpt><trkpt lat="58.31058167" lon="14.30173333"><ele>95.0</ele><time>2016-06-18T08:20:40.300Z</time></trkpt><trkpt lat="58.31063167" lon="14.301845"><ele>95.0</ele><time>2016-06-18T08:20:41.325Z</time></trkpt><trkpt lat="58.31063167" lon="14.301845"><ele>95.0</ele><time>2016-06-18T08:20:42.298Z</time></trkpt><trkpt lat="58.31072667" lon="14.30205833"><ele>94.0</ele><time>2016-06-18T08:20:43.288Z</time></trkpt><trkpt lat="58.31077667" lon="14.30216667"><ele>94.0</ele><time>2016-06-18T08:20:44.313Z</time></trkpt><trkpt lat="58.31077667" lon="14.30216667"><ele>94.0</ele><time>2016-06-18T08:20:45.291Z</time></trkpt><trkpt lat="58.31087333" lon="14.30238333"><ele>95.0</ele><time>2016-06-18T08:20:46.300Z</time></trkpt><trkpt lat="58.31087333" lon="14.30238333"><ele>95.0</ele><time>2016-06-18T08:20:47.285Z</time></trkpt><trkpt lat="58.31096167" lon="14.30259667"><ele>95.0</ele><time>2016-06-18T08:20:48.288Z</time></trkpt><trkpt lat="58.31096167" lon="14.30259667"><ele>95.0</ele><time>2016-06-18T08:20:49.290Z</time></trkpt><trkpt lat="58.31105" lon="14.30281167"><ele>95.0</ele><time>2016-06-18T08:20:50.297Z</time></trkpt><trkpt lat="58.31105" lon="14.30281167"><ele>95.0</ele><time>2016-06-18T08:20:51.322Z</time></trkpt><trkpt lat="58.31115833" lon="14.30303333"><ele>96.0</ele><time>2016-06-18T08:20:52.320Z</time></trkpt><trkpt lat="58.31115833" lon="14.30303333"><ele>96.0</ele><time>2016-06-18T08:20:53.300Z</time></trkpt><trkpt lat="58.31127833" lon="14.30324333"><ele>96.0</ele><time>2016-06-18T08:20:54.307Z</time></trkpt><trkpt lat="58.31127833" lon="14.30324333"><ele>96.0</ele><time>2016-06-18T08:20:55.290Z</time></trkpt><trkpt lat="58.31141" lon="14.303435"><ele>95.0</ele><time>2016-06-18T08:20:56.322Z</time></trkpt><trkpt lat="58.31141" lon="14.303435"><ele>95.0</ele><time>2016-06-18T08:20:57.293Z</time></trkpt><trkpt lat="58.31154833" lon="14.303605"><ele>95.0</ele><time>2016-06-18T08:20:58.299Z</time></trkpt><trkpt lat="58.31154833" lon="14.303605"><ele>95.0</ele><time>2016-06-18T08:20:59.282Z</time></trkpt><trkpt lat="58.31169167" lon="14.30375"><ele>95.0</ele><time>2016-06-18T08:21:00.318Z</time></trkpt><trkpt lat="58.31169167" lon="14.30375"><ele>95.0</ele><time>2016-06-18T08:21:01.288Z</time></trkpt><trkpt lat="58.31183833" lon="14.30388"><ele>95.0</ele><time>2016-06-18T08:21:02.295Z</time></trkpt><trkpt lat="58.31183833" lon="14.30388"><ele>95.0</ele><time>2016-06-18T08:21:03.318Z</time></trkpt><trkpt lat="58.31198667" lon="14.30397833"><ele>95.0</ele><time>2016-06-18T08:21:04.296Z</time></trkpt><trkpt lat="58.31198667" lon="14.30397833"><ele>95.0</ele><time>2016-06-18T08:21:05.299Z</time></trkpt><trkpt lat="58.312135" lon="14.30406333"><ele>95.0</ele><time>2016-06-18T08:21:06.306Z</time></trkpt><trkpt lat="58.312135" lon="14.30406333"><ele>95.0</ele><time>2016-06-18T08:21:07.318Z</time></trkpt><trkpt lat="58.312285" lon="14.304125"><ele>95.0</ele><time>2016-06-18T08:21:08.321Z</time></trkpt><trkpt lat="58.312285" lon="14.304125"><ele>95.0</ele><time>2016-06-18T08:21:09.291Z</time></trkpt><trkpt lat="58.31243833" lon="14.304175"><ele>95.0</ele><time>2016-06-18T08:21:10.300Z</time></trkpt><trkpt lat="58.31243833" lon="14.304175"><ele>95.0</ele><time>2016-06-18T08:21:11.291Z</time></trkpt><trkpt lat="58.31259333" lon="14.3042"><ele>96.0</ele><time>2016-06-18T08:21:12.306Z</time></trkpt><trkpt lat="58.31259333" lon="14.3042"><ele>96.0</ele><time>2016-06-18T08:21:13.298Z</time></trkpt><trkpt lat="58.31274833" lon="14.304215"><ele>97.0</ele><time>2016-06-18T08:21:14.305Z</time></trkpt><trkpt lat="58.31274833" lon="14.304215"><ele>97.0</ele><time>2016-06-18T08:21:15.291Z</time></trkpt><trkpt lat="58.31290167" lon="14.30422833"><ele>98.0</ele><time>2016-06-18T08:21:16.326Z</time></trkpt><trkpt lat="58.31290167" lon="14.30422833"><ele>98.0</ele><time>2016-06-18T08:21:17.290Z</time></trkpt><trkpt lat="58.31305" lon="14.30424833"><ele>98.0</ele><time>2016-06-18T08:21:18.297Z</time></trkpt><trkpt lat="58.31312333" lon="14.30425667"><ele>98.0</ele><time>2016-06-18T08:21:19.327Z</time></trkpt><trkpt lat="58.31312333" lon="14.30425667"><ele>98.0</ele><time>2016-06-18T08:21:20.318Z</time></trkpt><trkpt lat="58.31326833" lon="14.30426833"><ele>98.0</ele><time>2016-06-18T08:21:21.292Z</time></trkpt><trkpt lat="58.31326833" lon="14.30426833"><ele>98.0</ele><time>2016-06-18T08:21:22.312Z</time></trkpt><trkpt lat="58.313415" lon="14.30427667"><ele>98.0</ele><time>2016-06-18T08:21:23.305Z</time></trkpt><trkpt lat="58.313415" lon="14.30427667"><ele>98.0</ele><time>2016-06-18T08:21:24.314Z</time></trkpt><trkpt lat="58.313565" lon="14.30428"><ele>99.0</ele><time>2016-06-18T08:21:25.321Z</time></trkpt><trkpt lat="58.31364167" lon="14.30428"><ele>99.0</ele><time>2016-06-18T08:21:26.298Z</time></trkpt><trkpt lat="58.31364167" lon="14.30428"><ele>99.0</ele><time>2016-06-18T08:21:27.302Z</time></trkpt><trkpt lat="58.31379333" lon="14.30427333"><ele>98.0</ele><time>2016-06-18T08:21:28.317Z</time></trkpt><trkpt lat="58.31387" lon="14.30427"><ele>98.0</ele><time>2016-06-18T08:21:29.316Z</time></trkpt><trkpt lat="58.31387" lon="14.30427"><ele>98.0</ele><time>2016-06-18T08:21:30.309Z</time></trkpt><trkpt lat="58.31402667" lon="14.30425833"><ele>98.0</ele><time>2016-06-18T08:21:31.316Z</time></trkpt><trkpt lat="58.31410667" lon="14.30425667"><ele>98.0</ele><time>2016-06-18T08:21:32.307Z</time></trkpt><trkpt lat="58.31410667" lon="14.30425667"><ele>98.0</ele><time>2016-06-18T08:21:33.313Z</time></trkpt><trkpt lat="58.31426333" lon="14.30425333"><ele>98.0</ele><time>2016-06-18T08:21:34.319Z</time></trkpt><trkpt lat="58.31426333" lon="14.30425333"><ele>98.0</ele><time>2016-06-18T08:21:35.302Z</time></trkpt><trkpt lat="58.31441833" lon="14.30425667"><ele>98.0</ele><time>2016-06-18T08:21:36.302Z</time></trkpt><trkpt lat="58.31441833" lon="14.30425667"><ele>98.0</ele><time>2016-06-18T08:21:37.302Z</time></trkpt><trkpt lat="58.31455833" lon="14.30426333"><ele>99.0</ele><time>2016-06-18T08:21:38.309Z</time></trkpt><trkpt lat="58.31455833" lon="14.30426333"><ele>99.0</ele><time>2016-06-18T08:21:39.292Z</time></trkpt><trkpt lat="58.31470833" lon="14.30428"><ele>99.0</ele><time>2016-06-18T08:21:40.326Z</time></trkpt><trkpt lat="58.31470833" lon="14.30428"><ele>99.0</ele><time>2016-06-18T08:21:41.315Z</time></trkpt><trkpt lat="58.31487" lon="14.30431167"><ele>99.0</ele><time>2016-06-18T08:21:42.321Z</time></trkpt><trkpt lat="58.31487" lon="14.30431167"><ele>99.0</ele><time>2016-06-18T08:21:43.302Z</time></trkpt><trkpt lat="58.315035" lon="14.30434833"><ele>100.0</ele><time>2016-06-18T08:21:44.288Z</time></trkpt><trkpt lat="58.315035" lon="14.30434833"><ele>100.0</ele><time>2016-06-18T08:21:45.291Z</time></trkpt><trkpt lat="58.315205" lon="14.30439"><ele>100.0</ele><time>2016-06-18T08:21:46.298Z</time></trkpt><trkpt lat="58.315205" lon="14.30439"><ele>100.0</ele><time>2016-06-18T08:21:47.321Z</time></trkpt><trkpt lat="58.31538167" lon="14.30444167"><ele>100.0</ele><time>2016-06-18T08:21:48.295Z</time></trkpt><trkpt lat="58.31538167" lon="14.30444167"><ele>100.0</ele><time>2016-06-18T08:21:49.318Z</time></trkpt><trkpt lat="58.31555833" lon="14.30451167"><ele>100.0</ele><time>2016-06-18T08:21:50.298Z</time></trkpt><trkpt lat="58.31555833" lon="14.30451167"><ele>100.0</ele><time>2016-06-18T08:21:51.309Z</time></trkpt><trkpt lat="58.31573333" lon="14.304585"><ele>100.0</ele><time>2016-06-18T08:21:52.316Z</time></trkpt><trkpt lat="58.31573333" lon="14.304585"><ele>100.0</ele><time>2016-06-18T08:21:53.305Z</time></trkpt><trkpt lat="58.31590833" lon="14.30466"><ele>100.0</ele><time>2016-06-18T08:21:54.321Z</time></trkpt><trkpt lat="58.31590833" lon="14.30466"><ele>100.0</ele><time>2016-06-18T08:21:55.305Z</time></trkpt><trkpt lat="58.31608" lon="14.30474833"><ele>101.0</ele><time>2016-06-18T08:21:56.314Z</time></trkpt><trkpt lat="58.31608" lon="14.30474833"><ele>101.0</ele><time>2016-06-18T08:21:57.296Z</time></trkpt><trkpt lat="58.31625667" lon="14.30484"><ele>101.0</ele><time>2016-06-18T08:21:58.298Z</time></trkpt><trkpt lat="58.31625667" lon="14.30484"><ele>101.0</ele><time>2016-06-18T08:21:59.298Z</time></trkpt><trkpt lat="58.31643333" lon="14.30494"><ele>101.0</ele><time>2016-06-18T08:22:00.312Z</time></trkpt><trkpt lat="58.31643333" lon="14.30494"><ele>101.0</ele><time>2016-06-18T08:22:01.282Z</time></trkpt><trkpt lat="58.31660833" lon="14.30504833"><ele>100.0</ele><time>2016-06-18T08:22:02.292Z</time></trkpt><trkpt lat="58.31660833" lon="14.30504833"><ele>100.0</ele><time>2016-06-18T08:22:03.312Z</time></trkpt><trkpt lat="58.31678667" lon="14.30517"><ele>100.0</ele><time>2016-06-18T08:22:04.295Z</time></trkpt><trkpt lat="58.31687333" lon="14.30523333"><ele>100.0</ele><time>2016-06-18T08:22:05.304Z</time></trkpt><trkpt lat="58.31687333" lon="14.30523333"><ele>100.0</ele><time>2016-06-18T08:22:06.287Z</time></trkpt><trkpt lat="58.31704667" lon="14.305375"><ele>101.0</ele><time>2016-06-18T08:22:07.295Z</time></trkpt><trkpt lat="58.31713167" lon="14.305455"><ele>101.0</ele><time>2016-06-18T08:22:08.282Z</time></trkpt><trkpt lat="58.31713167" lon="14.305455"><ele>101.0</ele><time>2016-06-18T08:22:09.305Z</time></trkpt><trkpt lat="58.31729833" lon="14.30563"><ele>101.0</ele><time>2016-06-18T08:22:10.327Z</time></trkpt><trkpt lat="58.31729833" lon="14.30563"><ele>101.0</ele><time>2016-06-18T08:22:11.310Z</time></trkpt><trkpt lat="58.31746333" lon="14.305815"><ele>101.0</ele><time>2016-06-18T08:22:12.315Z</time></trkpt><trkpt lat="58.31746333" lon="14.305815"><ele>101.0</ele><time>2016-06-18T08:22:13.296Z</time></trkpt><trkpt lat="58.317625" lon="14.30601833"><ele>101.0</ele><time>2016-06-18T08:22:14.303Z</time></trkpt><trkpt lat="58.317625" lon="14.30601833"><ele>101.0</ele><time>2016-06-18T08:22:15.290Z</time></trkpt><trkpt lat="58.31778667" lon="14.30620667"><ele>101.0</ele><time>2016-06-18T08:22:16.316Z</time></trkpt><trkpt lat="58.31778667" lon="14.30620667"><ele>101.0</ele><time>2016-06-18T08:22:17.283Z</time></trkpt><trkpt lat="58.31793833" lon="14.306385"><ele>101.0</ele><time>2016-06-18T08:22:18.293Z</time></trkpt><trkpt lat="58.31801333" lon="14.30648333"><ele>101.0</ele><time>2016-06-18T08:22:19.299Z</time></trkpt><trkpt lat="58.31801333" lon="14.30648333"><ele>101.0</ele><time>2016-06-18T08:22:20.282Z</time></trkpt><trkpt lat="58.31816833" lon="14.306685"><ele>101.0</ele><time>2016-06-18T08:22:21.292Z</time></trkpt><trkpt lat="58.31816833" lon="14.306685"><ele>101.0</ele><time>2016-06-18T08:22:22.314Z</time></trkpt><trkpt lat="58.31832833" lon="14.30688167"><ele>100.0</ele><time>2016-06-18T08:22:23.304Z</time></trkpt><trkpt lat="58.31832833" lon="14.30688167"><ele>100.0</ele><time>2016-06-18T08:22:24.304Z</time></trkpt><trkpt lat="58.31849833" lon="14.30709"><ele>100.0</ele><time>2016-06-18T08:22:25.310Z</time></trkpt><trkpt lat="58.31849833" lon="14.30709"><ele>100.0</ele><time>2016-06-18T08:22:26.297Z</time></trkpt><trkpt lat="58.318665" lon="14.30729"><ele>100.0</ele><time>2016-06-18T08:22:27.284Z</time></trkpt><trkpt lat="58.318665" lon="14.30729"><ele>100.0</ele><time>2016-06-18T08:22:28.302Z</time></trkpt><trkpt lat="58.31883" lon="14.30748667"><ele>100.0</ele><time>2016-06-18T08:22:29.310Z</time></trkpt><trkpt lat="58.31883" lon="14.30748667"><ele>100.0</ele><time>2016-06-18T08:22:30.299Z</time></trkpt><trkpt lat="58.31899167" lon="14.30767333"><ele>100.0</ele><time>2016-06-18T08:22:31.288Z</time></trkpt><trkpt lat="58.31899167" lon="14.30767333"><ele>100.0</ele><time>2016-06-18T08:22:32.301Z</time></trkpt><trkpt lat="58.31915333" lon="14.30786167"><ele>100.0</ele><time>2016-06-18T08:22:33.315Z</time></trkpt><trkpt lat="58.31923333" lon="14.307955"><ele>100.0</ele><time>2016-06-18T08:22:34.326Z</time></trkpt><trkpt lat="58.31923333" lon="14.307955"><ele>100.0</ele><time>2016-06-18T08:22:35.322Z</time></trkpt><trkpt lat="58.31940333" lon="14.30817667"><ele>100.0</ele><time>2016-06-18T08:22:36.288Z</time></trkpt><trkpt lat="58.31948667" lon="14.30829333"><ele>100.0</ele><time>2016-06-18T08:22:37.286Z</time></trkpt><trkpt lat="58.31948667" lon="14.30829333"><ele>100.0</ele><time>2016-06-18T08:22:38.317Z</time></trkpt><trkpt lat="58.31965333" lon="14.30852167"><ele>101.0</ele><time>2016-06-18T08:22:39.284Z</time></trkpt><trkpt lat="58.31965333" lon="14.30852167"><ele>101.0</ele><time>2016-06-18T08:22:40.307Z</time></trkpt><trkpt lat="58.31982" lon="14.30875"><ele>101.0</ele><time>2016-06-18T08:22:41.318Z</time></trkpt><trkpt lat="58.31982" lon="14.30875"><ele>101.0</ele><time>2016-06-18T08:22:42.295Z</time></trkpt><trkpt lat="58.31998667" lon="14.30897167"><ele>101.0</ele><time>2016-06-18T08:22:43.302Z</time></trkpt><trkpt lat="58.32006333" lon="14.30908"><ele>101.0</ele><time>2016-06-18T08:22:44.314Z</time></trkpt><trkpt lat="58.32006333" lon="14.30908"><ele>101.0</ele><time>2016-06-18T08:22:45.300Z</time></trkpt><trkpt lat="58.32021333" lon="14.309285"><ele>101.0</ele><time>2016-06-18T08:22:46.307Z</time></trkpt><trkpt lat="58.32021333" lon="14.309285"><ele>101.0</ele><time>2016-06-18T08:22:47.314Z</time></trkpt><trkpt lat="58.32035667" lon="14.3095"><ele>101.0</ele><time>2016-06-18T08:22:48.312Z</time></trkpt><trkpt lat="58.32042667" lon="14.309615"><ele>101.0</ele><time>2016-06-18T08:22:49.312Z</time></trkpt><trkpt lat="58.32049333" lon="14.30973"><ele>101.0</ele><time>2016-06-18T08:22:50.296Z</time></trkpt><trkpt lat="58.32049333" lon="14.30973"><ele>101.0</ele><time>2016-06-18T08:22:51.319Z</time></trkpt><trkpt lat="58.320625" lon="14.30998"><ele>101.0</ele><time>2016-06-18T08:22:52.294Z</time></trkpt><trkpt lat="58.320625" lon="14.30998"><ele>101.0</ele><time>2016-06-18T08:22:53.313Z</time></trkpt><trkpt lat="58.32076333" lon="14.310235"><ele>101.0</ele><time>2016-06-18T08:22:54.327Z</time></trkpt><trkpt lat="58.32076333" lon="14.310235"><ele>101.0</ele><time>2016-06-18T08:22:55.314Z</time></trkpt><trkpt lat="58.3209" lon="14.310515"><ele>101.0</ele><time>2016-06-18T08:22:56.321Z</time></trkpt><trkpt lat="58.3209" lon="14.310515"><ele>101.0</ele><time>2016-06-18T08:22:57.304Z</time></trkpt><trkpt lat="58.32104" lon="14.31079667"><ele>101.0</ele><time>2016-06-18T08:22:58.314Z</time></trkpt><trkpt lat="58.32111167" lon="14.31092667"><ele>101.0</ele><time>2016-06-18T08:22:59.306Z</time></trkpt><trkpt lat="58.32118167" lon="14.31106167"><ele>101.0</ele><time>2016-06-18T08:23:00.283Z</time></trkpt><trkpt lat="58.32118167" lon="14.31106167"><ele>101.0</ele><time>2016-06-18T08:23:01.306Z</time></trkpt><trkpt lat="58.321315" lon="14.31132833"><ele>101.0</ele><time>2016-06-18T08:23:02.314Z</time></trkpt><trkpt lat="58.321315" lon="14.31132833"><ele>101.0</ele><time>2016-06-18T08:23:03.299Z</time></trkpt><trkpt lat="58.32144167" lon="14.31159833"><ele>100.0</ele><time>2016-06-18T08:23:04.304Z</time></trkpt><trkpt lat="58.32144167" lon="14.31159833"><ele>100.0</ele><time>2016-06-18T08:23:05.320Z</time></trkpt><trkpt lat="58.32157167" lon="14.31188"><ele>100.0</ele><time>2016-06-18T08:23:06.295Z</time></trkpt><trkpt lat="58.32157167" lon="14.31188"><ele>100.0</ele><time>2016-06-18T08:23:07.316Z</time></trkpt><trkpt lat="58.321715" lon="14.31217167"><ele>100.0</ele><time>2016-06-18T08:23:08.317Z</time></trkpt><trkpt lat="58.321715" lon="14.31217167"><ele>100.0</ele><time>2016-06-18T08:23:09.288Z</time></trkpt><trkpt lat="58.32185167" lon="14.31246"><ele>101.0</ele><time>2016-06-18T08:23:10.302Z</time></trkpt><trkpt lat="58.32185167" lon="14.31246"><ele>101.0</ele><time>2016-06-18T08:23:11.306Z</time></trkpt><trkpt lat="58.32199" lon="14.31273833"><ele>101.0</ele><time>2016-06-18T08:23:12.300Z</time></trkpt><trkpt lat="58.32206167" lon="14.312885"><ele>101.0</ele><time>2016-06-18T08:23:13.295Z</time></trkpt><trkpt lat="58.32213167" lon="14.31303"><ele>101.0</ele><time>2016-06-18T08:23:14.319Z</time></trkpt><trkpt lat="58.32213167" lon="14.31303"><ele>101.0</ele><time>2016-06-18T08:23:15.303Z</time></trkpt><trkpt lat="58.322265" lon="14.31331333"><ele>101.0</ele><time>2016-06-18T08:23:16.312Z</time></trkpt><trkpt lat="58.322265" lon="14.31331333"><ele>101.0</ele><time>2016-06-18T08:23:17.293Z</time></trkpt><trkpt lat="58.322395" lon="14.31355333"><ele>101.0</ele><time>2016-06-18T08:23:18.325Z</time></trkpt><trkpt lat="58.322395" lon="14.31355333"><ele>101.0</ele><time>2016-06-18T08:23:19.291Z</time></trkpt><trkpt lat="58.32253" lon="14.31375333"><ele>102.0</ele><time>2016-06-18T08:23:20.301Z</time></trkpt><trkpt lat="58.32253" lon="14.31375333"><ele>102.0</ele><time>2016-06-18T08:23:21.307Z</time></trkpt><trkpt lat="58.32266833" lon="14.31387833"><ele>102.0</ele><time>2016-06-18T08:23:22.299Z</time></trkpt><trkpt lat="58.32266833" lon="14.31387833"><ele>102.0</ele><time>2016-06-18T08:23:23.295Z</time></trkpt><trkpt lat="58.32282" lon="14.31394333"><ele>102.0</ele><time>2016-06-18T08:23:24.322Z</time></trkpt><trkpt lat="58.32282" lon="14.31394333"><ele>102.0</ele><time>2016-06-18T08:23:25.291Z</time></trkpt><trkpt lat="58.32295667" lon="14.31395833"><ele>102.0</ele><time>2016-06-18T08:23:26.298Z</time></trkpt><trkpt lat="58.32295667" lon="14.31395833"><ele>102.0</ele><time>2016-06-18T08:23:27.321Z</time></trkpt><trkpt lat="58.32307833" lon="14.31395333"><ele>102.0</ele><time>2016-06-18T08:23:28.298Z</time></trkpt><trkpt lat="58.32307833" lon="14.31395333"><ele>102.0</ele><time>2016-06-18T08:23:29.292Z</time></trkpt><trkpt lat="58.32317833" lon="14.31393833"><ele>102.0</ele><time>2016-06-18T08:23:30.298Z</time></trkpt><trkpt lat="58.32322667" lon="14.31394167"><ele>102.0</ele><time>2016-06-18T08:23:31.318Z</time></trkpt><trkpt lat="58.32322667" lon="14.31394167"><ele>102.0</ele><time>2016-06-18T08:23:32.294Z</time></trkpt><trkpt lat="58.32332667" lon="14.31399667"><ele>101.0</ele><time>2016-06-18T08:23:33.317Z</time></trkpt><trkpt lat="58.323375" lon="14.314055"><ele>101.0</ele><time>2016-06-18T08:23:34.298Z</time></trkpt><trkpt lat="58.32341167" lon="14.31413833"><ele>101.0</ele><time>2016-06-18T08:23:35.321Z</time></trkpt><trkpt lat="58.32341167" lon="14.31413833"><ele>101.0</ele><time>2016-06-18T08:23:36.303Z</time></trkpt><trkpt lat="58.323475" lon="14.314355"><ele>100.0</ele><time>2016-06-18T08:23:37.309Z</time></trkpt><trkpt lat="58.32350667" lon="14.31447833"><ele>100.0</ele><time>2016-06-18T08:23:38.296Z</time></trkpt><trkpt lat="58.32350667" lon="14.31447833"><ele>100.0</ele><time>2016-06-18T08:23:39.300Z</time></trkpt><trkpt lat="58.32357667" lon="14.31475167"><ele>101.0</ele><time>2016-06-18T08:23:40.328Z</time></trkpt><trkpt lat="58.32357667" lon="14.31475167"><ele>101.0</ele><time>2016-06-18T08:23:41.292Z</time></trkpt><trkpt lat="58.32365833" lon="14.315055"><ele>101.0</ele><time>2016-06-18T08:23:42.301Z</time></trkpt><trkpt lat="58.32365833" lon="14.315055"><ele>101.0</ele><time>2016-06-18T08:23:43.299Z</time></trkpt><trkpt lat="58.32374833" lon="14.31537167"><ele>100.0</ele><time>2016-06-18T08:23:44.319Z</time></trkpt><trkpt lat="58.32374833" lon="14.31537167"><ele>100.0</ele><time>2016-06-18T08:23:45.282Z</time></trkpt><trkpt lat="58.32384167" lon="14.31569333"><ele>100.0</ele><time>2016-06-18T08:23:46.288Z</time></trkpt><trkpt lat="58.32389" lon="14.31585333"><ele>100.0</ele><time>2016-06-18T08:23:47.325Z</time></trkpt><trkpt lat="58.32389" lon="14.31585333"><ele>100.0</ele><time>2016-06-18T08:23:48.319Z</time></trkpt><trkpt lat="58.32399" lon="14.316155"><ele>101.0</ele><time>2016-06-18T08:23:49.287Z</time></trkpt><trkpt lat="58.32399" lon="14.316155"><ele>101.0</ele><time>2016-06-18T08:23:50.313Z</time></trkpt><trkpt lat="58.32409333" lon="14.31647"><ele>100.0</ele><time>2016-06-18T08:23:51.319Z</time></trkpt><trkpt lat="58.32409333" lon="14.31647"><ele>100.0</ele><time>2016-06-18T08:23:52.286Z</time></trkpt><trkpt lat="58.32419333" lon="14.31680167"><ele>100.0</ele><time>2016-06-18T08:23:53.297Z</time></trkpt><trkpt lat="58.32424333" lon="14.31697"><ele>100.0</ele><time>2016-06-18T08:23:54.311Z</time></trkpt><trkpt lat="58.32424333" lon="14.31697"><ele>100.0</ele><time>2016-06-18T08:23:55.310Z</time></trkpt><trkpt lat="58.32434833" lon="14.31729333"><ele>100.0</ele><time>2016-06-18T08:23:56.319Z</time></trkpt><trkpt lat="58.32434833" lon="14.31729333"><ele>100.0</ele><time>2016-06-18T08:23:57.299Z</time></trkpt><trkpt lat="58.32445667" lon="14.31761"><ele>100.0</ele><time>2016-06-18T08:23:58.320Z</time></trkpt><trkpt lat="58.32451167" lon="14.31776667"><ele>99.0</ele><time>2016-06-18T08:23:59.306Z</time></trkpt><trkpt lat="58.32451167" lon="14.31776667"><ele>99.0</ele><time>2016-06-18T08:24:00.290Z</time></trkpt><trkpt lat="58.32461667" lon="14.31807833"><ele>99.0</ele><time>2016-06-18T08:24:01.309Z</time></trkpt><trkpt lat="58.32461667" lon="14.31807833"><ele>99.0</ele><time>2016-06-18T08:24:02.312Z</time></trkpt><trkpt lat="58.32472833" lon="14.31838333"><ele>99.0</ele><time>2016-06-18T08:24:03.285Z</time></trkpt><trkpt lat="58.32472833" lon="14.31838333"><ele>99.0</ele><time>2016-06-18T08:24:04.307Z</time></trkpt><trkpt lat="58.32484167" lon="14.318695"><ele>99.0</ele><time>2016-06-18T08:24:05.313Z</time></trkpt><trkpt lat="58.32484167" lon="14.318695"><ele>99.0</ele><time>2016-06-18T08:24:06.320Z</time></trkpt><trkpt lat="58.32495667" lon="14.31900667"><ele>98.0</ele><time>2016-06-18T08:24:07.293Z</time></trkpt><trkpt lat="58.32501833" lon="14.31916"><ele>98.0</ele><time>2016-06-18T08:24:08.285Z</time></trkpt><trkpt lat="58.32501833" lon="14.31916"><ele>98.0</ele><time>2016-06-18T08:24:09.313Z</time></trkpt><trkpt lat="58.32514167" lon="14.31947167"><ele>98.0</ele><time>2016-06-18T08:24:10.320Z</time></trkpt><trkpt lat="58.32514167" lon="14.31947167"><ele>98.0</ele><time>2016-06-18T08:24:11.290Z</time></trkpt><trkpt lat="58.32526667" lon="14.31979"><ele>97.0</ele><time>2016-06-18T08:24:12.315Z</time></trkpt><trkpt lat="58.32526667" lon="14.31979"><ele>97.0</ele><time>2016-06-18T08:24:13.283Z</time></trkpt><trkpt lat="58.32538833" lon="14.32011333"><ele>97.0</ele><time>2016-06-18T08:24:14.294Z</time></trkpt><trkpt lat="58.32538833" lon="14.32011333"><ele>97.0</ele><time>2016-06-18T08:24:15.320Z</time></trkpt><trkpt lat="58.32550833" lon="14.320435"><ele>97.0</ele><time>2016-06-18T08:24:16.325Z</time></trkpt><trkpt lat="58.32550833" lon="14.320435"><ele>97.0</ele><time>2016-06-18T08:24:17.321Z</time></trkpt><trkpt lat="58.32563333" lon="14.32075667"><ele>97.0</ele><time>2016-06-18T08:24:18.288Z</time></trkpt><trkpt lat="58.32563333" lon="14.32075667"><ele>97.0</ele><time>2016-06-18T08:24:19.314Z</time></trkpt><trkpt lat="58.32575667" lon="14.32108"><ele>97.0</ele><time>2016-06-18T08:24:20.296Z</time></trkpt><trkpt lat="58.32575667" lon="14.32108"><ele>97.0</ele><time>2016-06-18T08:24:21.291Z</time></trkpt><trkpt lat="58.32587833" lon="14.32140167"><ele>97.0</ele><time>2016-06-18T08:24:22.300Z</time></trkpt><trkpt lat="58.32594" lon="14.32155833"><ele>97.0</ele><time>2016-06-18T08:24:23.315Z</time></trkpt><trkpt lat="58.32594" lon="14.32155833"><ele>97.0</ele><time>2016-06-18T08:24:24.282Z</time></trkpt><trkpt lat="58.32606" lon="14.32186833"><ele>97.0</ele><time>2016-06-18T08:24:25.290Z</time></trkpt><trkpt lat="58.32611833" lon="14.32202667"><ele>97.0</ele><time>2016-06-18T08:24:26.288Z</time></trkpt><trkpt lat="58.32611833" lon="14.32202667"><ele>97.0</ele><time>2016-06-18T08:24:27.293Z</time></trkpt><trkpt lat="58.32623833" lon="14.322345"><ele>96.0</ele><time>2016-06-18T08:24:28.300Z</time></trkpt><trkpt lat="58.32629833" lon="14.322505"><ele>96.0</ele><time>2016-06-18T08:24:29.321Z</time></trkpt><trkpt lat="58.32629833" lon="14.322505"><ele>96.0</ele><time>2016-06-18T08:24:30.311Z</time></trkpt><trkpt lat="58.32642333" lon="14.32282833"><ele>96.0</ele><time>2016-06-18T08:24:31.317Z</time></trkpt><trkpt lat="58.32642333" lon="14.32282833"><ele>96.0</ele><time>2016-06-18T08:24:32.298Z</time></trkpt><trkpt lat="58.32654667" lon="14.32315333"><ele>96.0</ele><time>2016-06-18T08:24:33.320Z</time></trkpt><trkpt lat="58.32654667" lon="14.32315333"><ele>96.0</ele><time>2016-06-18T08:24:34.292Z</time></trkpt><trkpt lat="58.32667167" lon="14.32347667"><ele>96.0</ele><time>2016-06-18T08:24:35.299Z</time></trkpt><trkpt lat="58.32667167" lon="14.32347667"><ele>96.0</ele><time>2016-06-18T08:24:36.320Z</time></trkpt><trkpt lat="58.326795" lon="14.32380333"><ele>96.0</ele><time>2016-06-18T08:24:37.289Z</time></trkpt><trkpt lat="58.326795" lon="14.32380333"><ele>96.0</ele><time>2016-06-18T08:24:38.321Z</time></trkpt><trkpt lat="58.32691833" lon="14.32413167"><ele>96.0</ele><time>2016-06-18T08:24:39.318Z</time></trkpt><trkpt lat="58.32697833" lon="14.324295"><ele>96.0</ele><time>2016-06-18T08:24:40.284Z</time></trkpt><trkpt lat="58.32697833" lon="14.324295"><ele>96.0</ele><time>2016-06-18T08:24:41.295Z</time></trkpt><trkpt lat="58.32709667" lon="14.32460667"><ele>96.0</ele><time>2016-06-18T08:24:42.301Z</time></trkpt><trkpt lat="58.327155" lon="14.32476167"><ele>96.0</ele><time>2016-06-18T08:24:43.307Z</time></trkpt><trkpt lat="58.327155" lon="14.32476167"><ele>96.0</ele><time>2016-06-18T08:24:44.296Z</time></trkpt><trkpt lat="58.32727" lon="14.325065"><ele>96.0</ele><time>2016-06-18T08:24:45.284Z</time></trkpt><trkpt lat="58.32727" lon="14.325065"><ele>96.0</ele><time>2016-06-18T08:24:46.306Z</time></trkpt><trkpt lat="58.32738667" lon="14.325365"><ele>95.0</ele><time>2016-06-18T08:24:47.324Z</time></trkpt><trkpt lat="58.32738667" lon="14.325365"><ele>95.0</ele><time>2016-06-18T08:24:48.312Z</time></trkpt><trkpt lat="58.32750667" lon="14.32567167"><ele>95.0</ele><time>2016-06-18T08:24:49.320Z</time></trkpt><trkpt lat="58.32750667" lon="14.32567167"><ele>95.0</ele><time>2016-06-18T08:24:50.285Z</time></trkpt><trkpt lat="58.32762667" lon="14.32598333"><ele>95.0</ele><time>2016-06-18T08:24:51.322Z</time></trkpt><trkpt lat="58.32762667" lon="14.32598333"><ele>95.0</ele><time>2016-06-18T08:24:52.320Z</time></trkpt><trkpt lat="58.32775" lon="14.32630167"><ele>95.0</ele><time>2016-06-18T08:24:53.301Z</time></trkpt><trkpt lat="58.32780833" lon="14.32645833"><ele>95.0</ele><time>2016-06-18T08:24:54.313Z</time></trkpt><trkpt lat="58.32780833" lon="14.32645833"><ele>95.0</ele><time>2016-06-18T08:24:55.300Z</time></trkpt><trkpt lat="58.32792667" lon="14.32677"><ele>95.0</ele><time>2016-06-18T08:24:56.307Z</time></trkpt><trkpt lat="58.32792667" lon="14.32677"><ele>95.0</ele><time>2016-06-18T08:24:57.292Z</time></trkpt><trkpt lat="58.32804667" lon="14.32707833"><ele>95.0</ele><time>2016-06-18T08:24:58.290Z</time></trkpt><trkpt lat="58.32804667" lon="14.32707833"><ele>95.0</ele><time>2016-06-18T08:24:59.289Z</time></trkpt><trkpt lat="58.32816667" lon="14.32737667"><ele>95.0</ele><time>2016-06-18T08:25:00.299Z</time></trkpt><trkpt lat="58.32822667" lon="14.327525"><ele>95.0</ele><time>2016-06-18T08:25:01.328Z</time></trkpt><trkpt lat="58.32822667" lon="14.327525"><ele>95.0</ele><time>2016-06-18T08:25:02.320Z</time></trkpt><trkpt lat="58.32834333" lon="14.32781167"><ele>95.0</ele><time>2016-06-18T08:25:03.287Z</time></trkpt><trkpt lat="58.32834333" lon="14.32781167"><ele>95.0</ele><time>2016-06-18T08:25:04.314Z</time></trkpt><trkpt lat="58.32846" lon="14.32809333"><ele>95.0</ele><time>2016-06-18T08:25:05.284Z</time></trkpt><trkpt lat="58.32846" lon="14.32809333"><ele>95.0</ele><time>2016-06-18T08:25:06.321Z</time></trkpt><trkpt lat="58.32858333" lon="14.32836667"><ele>95.0</ele><time>2016-06-18T08:25:07.289Z</time></trkpt><trkpt lat="58.32864667" lon="14.32850333"><ele>95.0</ele><time>2016-06-18T08:25:08.322Z</time></trkpt><trkpt lat="58.32864667" lon="14.32850333"><ele>95.0</ele><time>2016-06-18T08:25:09.295Z</time></trkpt><trkpt lat="58.32877333" lon="14.32878"><ele>96.0</ele><time>2016-06-18T08:25:10.300Z</time></trkpt><trkpt lat="58.32877333" lon="14.32878"><ele>96.0</ele><time>2016-06-18T08:25:11.315Z</time></trkpt><trkpt lat="58.32890333" lon="14.32905667"><ele>96.0</ele><time>2016-06-18T08:25:12.317Z</time></trkpt><trkpt lat="58.32890333" lon="14.32905667"><ele>96.0</ele><time>2016-06-18T08:25:13.299Z</time></trkpt><trkpt lat="58.32903667" lon="14.32933333"><ele>96.0</ele><time>2016-06-18T08:25:14.306Z</time></trkpt><trkpt lat="58.32903667" lon="14.32933333"><ele>96.0</ele><time>2016-06-18T08:25:15.291Z</time></trkpt><trkpt lat="58.32917167" lon="14.3296"><ele>96.0</ele><time>2016-06-18T08:25:16.318Z</time></trkpt><trkpt lat="58.32917167" lon="14.3296"><ele>96.0</ele><time>2016-06-18T08:25:17.295Z</time></trkpt><trkpt lat="58.32930833" lon="14.32986333"><ele>97.0</ele><time>2016-06-18T08:25:18.302Z</time></trkpt><trkpt lat="58.32937833" lon="14.32999333"><ele>97.0</ele><time>2016-06-18T08:25:19.300Z</time></trkpt><trkpt lat="58.32945" lon="14.330125"><ele>97.0</ele><time>2016-06-18T08:25:20.285Z</time></trkpt><trkpt lat="58.32945" lon="14.330125"><ele>97.0</ele><time>2016-06-18T08:25:21.309Z</time></trkpt><trkpt lat="58.329595" lon="14.33038833"><ele>97.0</ele><time>2016-06-18T08:25:22.315Z</time></trkpt><trkpt lat="58.329595" lon="14.33038833"><ele>97.0</ele><time>2016-06-18T08:25:23.300Z</time></trkpt><trkpt lat="58.329735" lon="14.33064"><ele>97.0</ele><time>2016-06-18T08:25:24.307Z</time></trkpt><trkpt lat="58.329805" lon="14.33076"><ele>97.0</ele><time>2016-06-18T08:25:25.322Z</time></trkpt><trkpt lat="58.32987333" lon="14.33088"><ele>97.0</ele><time>2016-06-18T08:25:26.307Z</time></trkpt><trkpt lat="58.32987333" lon="14.33088"><ele>97.0</ele><time>2016-06-18T08:25:27.289Z</time></trkpt><trkpt lat="58.33001333" lon="14.33111667"><ele>97.0</ele><time>2016-06-18T08:25:28.305Z</time></trkpt><trkpt lat="58.33001333" lon="14.33111667"><ele>97.0</ele><time>2016-06-18T08:25:29.307Z</time></trkpt><trkpt lat="58.33016" lon="14.33135"><ele>97.0</ele><time>2016-06-18T08:25:30.313Z</time></trkpt><trkpt lat="58.330235" lon="14.33146667"><ele>97.0</ele><time>2016-06-18T08:25:31.322Z</time></trkpt><trkpt lat="58.33030833" lon="14.33158333"><ele>98.0</ele><time>2016-06-18T08:25:32.306Z</time></trkpt><trkpt lat="58.33038333" lon="14.33169833"><ele>98.0</ele><time>2016-06-18T08:25:33.300Z</time></trkpt><trkpt lat="58.33038333" lon="14.33169833"><ele>98.0</ele><time>2016-06-18T08:25:34.321Z</time></trkpt><trkpt lat="58.33053333" lon="14.331925"><ele>98.0</ele><time>2016-06-18T08:25:35.293Z</time></trkpt><trkpt lat="58.33053333" lon="14.331925"><ele>98.0</ele><time>2016-06-18T08:25:36.319Z</time></trkpt><trkpt lat="58.330685" lon="14.33214333"><ele>98.0</ele><time>2016-06-18T08:25:37.321Z</time></trkpt><trkpt lat="58.330685" lon="14.33214333"><ele>98.0</ele><time>2016-06-18T08:25:38.302Z</time></trkpt><trkpt lat="58.33083833" lon="14.33235667"><ele>98.0</ele><time>2016-06-18T08:25:39.309Z</time></trkpt><trkpt lat="58.33091667" lon="14.33246333"><ele>98.0</ele><time>2016-06-18T08:25:40.308Z</time></trkpt><trkpt lat="58.33091667" lon="14.33246333"><ele>98.0</ele><time>2016-06-18T08:25:41.319Z</time></trkpt><trkpt lat="58.331075" lon="14.33267333"><ele>98.0</ele><time>2016-06-18T08:25:42.285Z</time></trkpt><trkpt lat="58.331075" lon="14.33267333"><ele>98.0</ele><time>2016-06-18T08:25:43.309Z</time></trkpt><trkpt lat="58.331235" lon="14.33288833"><ele>98.0</ele><time>2016-06-18T08:25:44.319Z</time></trkpt><trkpt lat="58.331235" lon="14.33288833"><ele>98.0</ele><time>2016-06-18T08:25:45.291Z</time></trkpt><trkpt lat="58.3314" lon="14.33309667"><ele>98.0</ele><time>2016-06-18T08:25:46.321Z</time></trkpt><trkpt lat="58.33148333" lon="14.33319833"><ele>98.0</ele><time>2016-06-18T08:25:47.312Z</time></trkpt><trkpt lat="58.33156833" lon="14.3333"><ele>98.0</ele><time>2016-06-18T08:25:48.294Z</time></trkpt><trkpt lat="58.33156833" lon="14.3333"><ele>98.0</ele><time>2016-06-18T08:25:49.318Z</time></trkpt><trkpt lat="58.33173833" lon="14.3335"><ele>98.0</ele><time>2016-06-18T08:25:50.285Z</time></trkpt><trkpt lat="58.33173833" lon="14.3335"><ele>98.0</ele><time>2016-06-18T08:25:51.319Z</time></trkpt><trkpt lat="58.33190833" lon="14.33369667"><ele>98.0</ele><time>2016-06-18T08:25:52.288Z</time></trkpt><trkpt lat="58.33190833" lon="14.33369667"><ele>98.0</ele><time>2016-06-18T08:25:53.295Z</time></trkpt><trkpt lat="58.332075" lon="14.333885"><ele>98.0</ele><time>2016-06-18T08:25:54.309Z</time></trkpt><trkpt lat="58.332075" lon="14.333885"><ele>98.0</ele><time>2016-06-18T08:25:55.299Z</time></trkpt><trkpt lat="58.33224" lon="14.33406833"><ele>98.0</ele><time>2016-06-18T08:25:56.306Z</time></trkpt><trkpt lat="58.33224" lon="14.33406833"><ele>98.0</ele><time>2016-06-18T08:25:57.302Z</time></trkpt><trkpt lat="58.33241" lon="14.334245"><ele>98.0</ele><time>2016-06-18T08:25:58.309Z</time></trkpt><trkpt lat="58.33249833" lon="14.33433"><ele>98.0</ele><time>2016-06-18T08:25:59.308Z</time></trkpt><trkpt lat="58.33249833" lon="14.33433"><ele>98.0</ele><time>2016-06-18T08:26:00.304Z</time></trkpt><trkpt lat="58.33267167" lon="14.3345"><ele>98.0</ele><time>2016-06-18T08:26:01.310Z</time></trkpt><trkpt lat="58.33267167" lon="14.3345"><ele>98.0</ele><time>2016-06-18T08:26:02.300Z</time></trkpt><trkpt lat="58.33284333" lon="14.33466667"><ele>98.0</ele><time>2016-06-18T08:26:03.295Z</time></trkpt><trkpt lat="58.33284333" lon="14.33466667"><ele>98.0</ele><time>2016-06-18T08:26:04.283Z</time></trkpt><trkpt lat="58.33301667" lon="14.33482833"><ele>99.0</ele><time>2016-06-18T08:26:05.293Z</time></trkpt><trkpt lat="58.33301667" lon="14.33482833"><ele>99.0</ele><time>2016-06-18T08:26:06.297Z</time></trkpt><trkpt lat="58.33319" lon="14.33497167"><ele>99.0</ele><time>2016-06-18T08:26:07.304Z</time></trkpt><trkpt lat="58.33327833" lon="14.33504333"><ele>99.0</ele><time>2016-06-18T08:26:08.306Z</time></trkpt><trkpt lat="58.33327833" lon="14.33504333"><ele>99.0</ele><time>2016-06-18T08:26:09.315Z</time></trkpt><trkpt lat="58.33345667" lon="14.33518667"><ele>99.0</ele><time>2016-06-18T08:26:10.321Z</time></trkpt><trkpt lat="58.33345667" lon="14.33518667"><ele>99.0</ele><time>2016-06-18T08:26:11.300Z</time></trkpt><trkpt lat="58.33363833" lon="14.335335"><ele>99.0</ele><time>2016-06-18T08:26:12.294Z</time></trkpt><trkpt lat="58.33363833" lon="14.335335"><ele>99.0</ele><time>2016-06-18T08:26:13.318Z</time></trkpt><trkpt lat="58.33382167" lon="14.33548333"><ele>99.0</ele><time>2016-06-18T08:26:14.285Z</time></trkpt><trkpt lat="58.33382167" lon="14.33548333"><ele>99.0</ele><time>2016-06-18T08:26:15.311Z</time></trkpt><trkpt lat="58.33400667" lon="14.33562333"><ele>99.0</ele><time>2016-06-18T08:26:16.288Z</time></trkpt><trkpt lat="58.33400667" lon="14.33562333"><ele>99.0</ele><time>2016-06-18T08:26:17.321Z</time></trkpt><trkpt lat="58.33419833" lon="14.33576"><ele>99.0</ele><time>2016-06-18T08:26:18.295Z</time></trkpt><trkpt lat="58.33419833" lon="14.33576"><ele>99.0</ele><time>2016-06-18T08:26:19.319Z</time></trkpt><trkpt lat="58.33439333" lon="14.335895"><ele>100.0</ele><time>2016-06-18T08:26:20.299Z</time></trkpt><trkpt lat="58.33448833" lon="14.33595667"><ele>100.0</ele><time>2016-06-18T08:26:21.315Z</time></trkpt><trkpt lat="58.33448833" lon="14.33595667"><ele>100.0</ele><time>2016-06-18T08:26:22.291Z</time></trkpt><trkpt lat="58.33467667" lon="14.33607333"><ele>100.0</ele><time>2016-06-18T08:26:23.318Z</time></trkpt><trkpt lat="58.33467667" lon="14.33607333"><ele>100.0</ele><time>2016-06-18T08:26:24.300Z</time></trkpt><trkpt lat="58.334865" lon="14.33618333"><ele>100.0</ele><time>2016-06-18T08:26:25.307Z</time></trkpt><trkpt lat="58.33496" lon="14.33623667"><ele>100.0</ele><time>2016-06-18T08:26:26.291Z</time></trkpt><trkpt lat="58.33496" lon="14.33623667"><ele>100.0</ele><time>2016-06-18T08:26:27.297Z</time></trkpt><trkpt lat="58.33514833" lon="14.33634667"><ele>100.0</ele><time>2016-06-18T08:26:28.313Z</time></trkpt><trkpt lat="58.33514833" lon="14.33634667"><ele>100.0</ele><time>2016-06-18T08:26:29.295Z</time></trkpt><trkpt lat="58.33534" lon="14.33645333"><ele>100.0</ele><time>2016-06-18T08:26:30.312Z</time></trkpt><trkpt lat="58.335435" lon="14.3365"><ele>100.0</ele><time>2016-06-18T08:26:31.283Z</time></trkpt><trkpt lat="58.33553167" lon="14.33654667"><ele>100.0</ele><time>2016-06-18T08:26:32.307Z</time></trkpt><trkpt lat="58.33553167" lon="14.33654667"><ele>100.0</ele><time>2016-06-18T08:26:33.292Z</time></trkpt><trkpt lat="58.33573" lon="14.33663167"><ele>99.0</ele><time>2016-06-18T08:26:34.302Z</time></trkpt><trkpt lat="58.33573" lon="14.33663167"><ele>99.0</ele><time>2016-06-18T08:26:35.285Z</time></trkpt><trkpt lat="58.335925" lon="14.336715"><ele>99.0</ele><time>2016-06-18T08:26:36.299Z</time></trkpt><trkpt lat="58.335925" lon="14.336715"><ele>99.0</ele><time>2016-06-18T08:26:37.294Z</time></trkpt><trkpt lat="58.33611167" lon="14.33679"><ele>99.0</ele><time>2016-06-18T08:26:38.305Z</time></trkpt><trkpt lat="58.33611167" lon="14.33679"><ele>99.0</ele><time>2016-06-18T08:26:39.299Z</time></trkpt><trkpt lat="58.33629167" lon="14.33685833"><ele>99.0</ele><time>2016-06-18T08:26:40.320Z</time></trkpt><trkpt lat="58.33629167" lon="14.33685833"><ele>99.0</ele><time>2016-06-18T08:26:41.286Z</time></trkpt><trkpt lat="58.33646667" lon="14.33692"><ele>99.0</ele><time>2016-06-18T08:26:42.295Z</time></trkpt><trkpt lat="58.33655833" lon="14.33695167"><ele>99.0</ele><time>2016-06-18T08:26:43.300Z</time></trkpt><trkpt lat="58.33655833" lon="14.33695167"><ele>99.0</ele><time>2016-06-18T08:26:44.286Z</time></trkpt><trkpt lat="58.33674333" lon="14.33700833"><ele>99.0</ele><time>2016-06-18T08:26:45.294Z</time></trkpt><trkpt lat="58.33683833" lon="14.33703833"><ele>99.0</ele><time>2016-06-18T08:26:46.288Z</time></trkpt><trkpt lat="58.33683833" lon="14.33703833"><ele>99.0</ele><time>2016-06-18T08:26:47.290Z</time></trkpt><trkpt lat="58.33703833" lon="14.3371"><ele>99.0</ele><time>2016-06-18T08:26:48.298Z</time></trkpt><trkpt lat="58.33713667" lon="14.33713167"><ele>99.0</ele><time>2016-06-18T08:26:49.282Z</time></trkpt><trkpt lat="58.33713667" lon="14.33713167"><ele>99.0</ele><time>2016-06-18T08:26:50.285Z</time></trkpt><trkpt lat="58.33732833" lon="14.33718833"><ele>98.0</ele><time>2016-06-18T08:26:51.295Z</time></trkpt><trkpt lat="58.33732833" lon="14.33718833"><ele>98.0</ele><time>2016-06-18T08:26:52.320Z</time></trkpt><trkpt lat="58.33751833" lon="14.33724833"><ele>98.0</ele><time>2016-06-18T08:26:53.316Z</time></trkpt><trkpt lat="58.33751833" lon="14.33724833"><ele>98.0</ele><time>2016-06-18T08:26:54.309Z</time></trkpt><trkpt lat="58.33770167" lon="14.33730833"><ele>99.0</ele><time>2016-06-18T08:26:55.316Z</time></trkpt><trkpt lat="58.33778333" lon="14.33733667"><ele>99.0</ele><time>2016-06-18T08:26:56.314Z</time></trkpt><trkpt lat="58.33778333" lon="14.33733667"><ele>99.0</ele><time>2016-06-18T08:26:57.283Z</time></trkpt><trkpt lat="58.33793167" lon="14.33737833"><ele>99.0</ele><time>2016-06-18T08:26:58.293Z</time></trkpt><trkpt lat="58.33799" lon="14.33739833"><ele>100.0</ele><time>2016-06-18T08:26:59.313Z</time></trkpt><trkpt lat="58.33799" lon="14.33739833"><ele>100.0</ele><time>2016-06-18T08:27:00.282Z</time></trkpt><trkpt lat="58.3381" lon="14.33743667"><ele>100.0</ele><time>2016-06-18T08:27:01.293Z</time></trkpt><trkpt lat="58.338165" lon="14.33745833"><ele>100.0</ele><time>2016-06-18T08:27:02.295Z</time></trkpt><trkpt lat="58.338165" lon="14.33745833"><ele>100.0</ele><time>2016-06-18T08:27:03.316Z</time></trkpt><trkpt lat="58.338305" lon="14.33750167"><ele>101.0</ele><time>2016-06-18T08:27:04.285Z</time></trkpt><trkpt lat="58.338305" lon="14.33750167"><ele>101.0</ele><time>2016-06-18T08:27:05.308Z</time></trkpt><trkpt lat="58.33845833" lon="14.33756167"><ele>101.0</ele><time>2016-06-18T08:27:06.319Z</time></trkpt><trkpt lat="58.33845833" lon="14.33756167"><ele>101.0</ele><time>2016-06-18T08:27:07.310Z</time></trkpt><trkpt lat="58.33862667" lon="14.337625"><ele>102.0</ele><time>2016-06-18T08:27:08.317Z</time></trkpt><trkpt lat="58.33871333" lon="14.33766333"><ele>102.0</ele><time>2016-06-18T08:27:09.288Z</time></trkpt><trkpt lat="58.33871333" lon="14.33766333"><ele>102.0</ele><time>2016-06-18T08:27:10.294Z</time></trkpt><trkpt lat="58.33888667" lon="14.33774167"><ele>102.0</ele><time>2016-06-18T08:27:11.285Z</time></trkpt><trkpt lat="58.338975" lon="14.33778"><ele>102.0</ele><time>2016-06-18T08:27:12.317Z</time></trkpt><trkpt lat="58.338975" lon="14.33778"><ele>102.0</ele><time>2016-06-18T08:27:13.299Z</time></trkpt><trkpt lat="58.33916333" lon="14.33786167"><ele>101.0</ele><time>2016-06-18T08:27:14.315Z</time></trkpt><trkpt lat="58.33916333" lon="14.33786167"><ele>101.0</ele><time>2016-06-18T08:27:15.301Z</time></trkpt><trkpt lat="58.33935167" lon="14.337955"><ele>102.0</ele><time>2016-06-18T08:27:16.307Z</time></trkpt><trkpt lat="58.339445" lon="14.33800667"><ele>102.0</ele><time>2016-06-18T08:27:17.293Z</time></trkpt><trkpt lat="58.339445" lon="14.33800667"><ele>102.0</ele><time>2016-06-18T08:27:18.292Z</time></trkpt><trkpt lat="58.33963167" lon="14.33810833"><ele>102.0</ele><time>2016-06-18T08:27:19.299Z</time></trkpt><trkpt lat="58.339725" lon="14.33816167"><ele>103.0</ele><time>2016-06-18T08:27:20.302Z</time></trkpt><trkpt lat="58.339725" lon="14.33816167"><ele>103.0</ele><time>2016-06-18T08:27:21.287Z</time></trkpt><trkpt lat="58.33991667" lon="14.33828167"><ele>103.0</ele><time>2016-06-18T08:27:22.296Z</time></trkpt><trkpt lat="58.33991667" lon="14.33828167"><ele>103.0</ele><time>2016-06-18T08:27:23.318Z</time></trkpt><trkpt lat="58.34010833" lon="14.33840167"><ele>103.0</ele><time>2016-06-18T08:27:24.285Z</time></trkpt><trkpt lat="58.340205" lon="14.33846333"><ele>103.0</ele><time>2016-06-18T08:27:25.305Z</time></trkpt><trkpt lat="58.340205" lon="14.33846333"><ele>103.0</ele><time>2016-06-18T08:27:26.322Z</time></trkpt><trkpt lat="58.34040167" lon="14.33860167"><ele>103.0</ele><time>2016-06-18T08:27:27.298Z</time></trkpt><trkpt lat="58.34040167" lon="14.33860167"><ele>103.0</ele><time>2016-06-18T08:27:28.298Z</time></trkpt><trkpt lat="58.34059333" lon="14.33874333"><ele>103.0</ele><time>2016-06-18T08:27:29.305Z</time></trkpt><trkpt lat="58.34068667" lon="14.33881333"><ele>103.0</ele><time>2016-06-18T08:27:30.308Z</time></trkpt><trkpt lat="58.34068667" lon="14.33881333"><ele>103.0</ele><time>2016-06-18T08:27:31.297Z</time></trkpt><trkpt lat="58.34086833" lon="14.338955"><ele>103.0</ele><time>2016-06-18T08:27:32.304Z</time></trkpt><trkpt lat="58.34096167" lon="14.33903333"><ele>103.0</ele><time>2016-06-18T08:27:33.308Z</time></trkpt><trkpt lat="58.34096167" lon="14.33903333"><ele>103.0</ele><time>2016-06-18T08:27:34.320Z</time></trkpt><trkpt lat="58.341145" lon="14.33919"><ele>103.0</ele><time>2016-06-18T08:27:35.288Z</time></trkpt><trkpt lat="58.34123667" lon="14.33926667"><ele>103.0</ele><time>2016-06-18T08:27:36.322Z</time></trkpt><trkpt lat="58.34123667" lon="14.33926667"><ele>103.0</ele><time>2016-06-18T08:27:37.286Z</time></trkpt><trkpt lat="58.34141833" lon="14.33942167"><ele>104.0</ele><time>2016-06-18T08:27:38.296Z</time></trkpt><trkpt lat="58.34141833" lon="14.33942167"><ele>104.0</ele><time>2016-06-18T08:27:39.318Z</time></trkpt><trkpt lat="58.3416" lon="14.33958167"><ele>104.0</ele><time>2016-06-18T08:27:40.325Z</time></trkpt><trkpt lat="58.3416" lon="14.33958167"><ele>104.0</ele><time>2016-06-18T08:27:41.288Z</time></trkpt><trkpt lat="58.341775" lon="14.33975167"><ele>104.0</ele><time>2016-06-18T08:27:42.295Z</time></trkpt><trkpt lat="58.34186167" lon="14.339835"><ele>104.0</ele><time>2016-06-18T08:27:43.310Z</time></trkpt><trkpt lat="58.34186167" lon="14.339835"><ele>104.0</ele><time>2016-06-18T08:27:44.310Z</time></trkpt><trkpt lat="58.34203" lon="14.33999833"><ele>105.0</ele><time>2016-06-18T08:27:45.317Z</time></trkpt><trkpt lat="58.34203" lon="14.33999833"><ele>105.0</ele><time>2016-06-18T08:27:46.288Z</time></trkpt><trkpt lat="58.34219" lon="14.34016833"><ele>105.0</ele><time>2016-06-18T08:27:47.295Z</time></trkpt><trkpt lat="58.34219" lon="14.34016833"><ele>105.0</ele><time>2016-06-18T08:27:48.319Z</time></trkpt><trkpt lat="58.34235167" lon="14.34034333"><ele>106.0</ele><time>2016-06-18T08:27:49.288Z</time></trkpt><trkpt lat="58.342435" lon="14.34043333"><ele>106.0</ele><time>2016-06-18T08:27:50.310Z</time></trkpt><trkpt lat="58.342435" lon="14.34043333"><ele>106.0</ele><time>2016-06-18T08:27:51.294Z</time></trkpt><trkpt lat="58.34259333" lon="14.34061667"><ele>106.0</ele><time>2016-06-18T08:27:52.310Z</time></trkpt><trkpt lat="58.342665" lon="14.340705"><ele>106.0</ele><time>2016-06-18T08:27:53.304Z</time></trkpt><trkpt lat="58.342665" lon="14.340705"><ele>106.0</ele><time>2016-06-18T08:27:54.309Z</time></trkpt><trkpt lat="58.34280167" lon="14.34087333"><ele>106.0</ele><time>2016-06-18T08:27:55.288Z</time></trkpt><trkpt lat="58.34287167" lon="14.34095167"><ele>105.0</ele><time>2016-06-18T08:27:56.284Z</time></trkpt><trkpt lat="58.34287167" lon="14.34095167"><ele>105.0</ele><time>2016-06-18T08:27:57.295Z</time></trkpt><trkpt lat="58.343015" lon="14.34111"><ele>105.0</ele><time>2016-06-18T08:27:58.313Z</time></trkpt><trkpt lat="58.343085" lon="14.34119667"><ele>105.0</ele><time>2016-06-18T08:27:59.293Z</time></trkpt><trkpt lat="58.343155" lon="14.34128333"><ele>105.0</ele><time>2016-06-18T08:28:00.284Z</time></trkpt><trkpt lat="58.343155" lon="14.34128333"><ele>105.0</ele><time>2016-06-18T08:28:01.305Z</time></trkpt><trkpt lat="58.34329" lon="14.34145667"><ele>105.0</ele><time>2016-06-18T08:28:02.312Z</time></trkpt><trkpt lat="58.34329" lon="14.34145667"><ele>105.0</ele><time>2016-06-18T08:28:03.301Z</time></trkpt><trkpt lat="58.34342667" lon="14.34164"><ele>105.0</ele><time>2016-06-18T08:28:04.328Z</time></trkpt><trkpt lat="58.34342667" lon="14.34164"><ele>105.0</ele><time>2016-06-18T08:28:05.311Z</time></trkpt><trkpt lat="58.34356667" lon="14.34184"><ele>105.0</ele><time>2016-06-18T08:28:06.318Z</time></trkpt><trkpt lat="58.34363667" lon="14.341945"><ele>106.0</ele><time>2016-06-18T08:28:07.317Z</time></trkpt><trkpt lat="58.34370833" lon="14.34205167"><ele>106.0</ele><time>2016-06-18T08:28:08.300Z</time></trkpt><trkpt lat="58.34370833" lon="14.34205167"><ele>106.0</ele><time>2016-06-18T08:28:09.282Z</time></trkpt><trkpt lat="58.34385" lon="14.34226"><ele>106.0</ele><time>2016-06-18T08:28:10.322Z</time></trkpt><trkpt lat="58.34385" lon="14.34226"><ele>106.0</ele><time>2016-06-18T08:28:11.288Z</time></trkpt><trkpt lat="58.343995" lon="14.34247167"><ele>106.0</ele><time>2016-06-18T08:28:12.312Z</time></trkpt><trkpt lat="58.343995" lon="14.34247167"><ele>106.0</ele><time>2016-06-18T08:28:13.296Z</time></trkpt><trkpt lat="58.34414333" lon="14.34269"><ele>106.0</ele><time>2016-06-18T08:28:14.306Z</time></trkpt><trkpt lat="58.34414333" lon="14.34269"><ele>106.0</ele><time>2016-06-18T08:28:15.315Z</time></trkpt><trkpt lat="58.34429" lon="14.34290667"><ele>106.0</ele><time>2016-06-18T08:28:16.282Z</time></trkpt><trkpt lat="58.34429" lon="14.34290667"><ele>106.0</ele><time>2016-06-18T08:28:17.306Z</time></trkpt><trkpt lat="58.34444" lon="14.34312167"><ele>106.0</ele><time>2016-06-18T08:28:18.320Z</time></trkpt><trkpt lat="58.34444" lon="14.34312167"><ele>106.0</ele><time>2016-06-18T08:28:19.316Z</time></trkpt><trkpt lat="58.34459167" lon="14.34333667"><ele>106.0</ele><time>2016-06-18T08:28:20.283Z</time></trkpt><trkpt lat="58.34459167" lon="14.34333667"><ele>106.0</ele><time>2016-06-18T08:28:21.304Z</time></trkpt><trkpt lat="58.34474167" lon="14.34354667"><ele>105.0</ele><time>2016-06-18T08:28:22.319Z</time></trkpt><trkpt lat="58.34474167" lon="14.34354667"><ele>105.0</ele><time>2016-06-18T08:28:23.298Z</time></trkpt><trkpt lat="58.34489" lon="14.343765"><ele>105.0</ele><time>2016-06-18T08:28:24.307Z</time></trkpt><trkpt lat="58.34496667" lon="14.343875"><ele>105.0</ele><time>2016-06-18T08:28:25.308Z</time></trkpt><trkpt lat="58.34496667" lon="14.343875"><ele>105.0</ele><time>2016-06-18T08:28:26.285Z</time></trkpt><trkpt lat="58.34512333" lon="14.34409167"><ele>105.0</ele><time>2016-06-18T08:28:27.292Z</time></trkpt><trkpt lat="58.345205" lon="14.34420667"><ele>105.0</ele><time>2016-06-18T08:28:28.302Z</time></trkpt><trkpt lat="58.34528667" lon="14.344325"><ele>105.0</ele><time>2016-06-18T08:28:29.301Z</time></trkpt><trkpt lat="58.34528667" lon="14.344325"><ele>105.0</ele><time>2016-06-18T08:28:30.283Z</time></trkpt><trkpt lat="58.34545" lon="14.344565"><ele>105.0</ele><time>2016-06-18T08:28:31.321Z</time></trkpt><trkpt lat="58.34553167" lon="14.34468333"><ele>105.0</ele><time>2016-06-18T08:28:32.315Z</time></trkpt><trkpt lat="58.34553167" lon="14.34468333"><ele>105.0</ele><time>2016-06-18T08:28:33.300Z</time></trkpt><trkpt lat="58.34569667" lon="14.34491833"><ele>105.0</ele><time>2016-06-18T08:28:34.311Z</time></trkpt><trkpt lat="58.34578" lon="14.34503333"><ele>105.0</ele><time>2016-06-18T08:28:35.304Z</time></trkpt><trkpt lat="58.34586" lon="14.34515333"><ele>105.0</ele><time>2016-06-18T08:28:36.288Z</time></trkpt><trkpt lat="58.34586" lon="14.34515333"><ele>105.0</ele><time>2016-06-18T08:28:37.310Z</time></trkpt><trkpt lat="58.34602333" lon="14.34538667"><ele>104.0</ele><time>2016-06-18T08:28:38.317Z</time></trkpt><trkpt lat="58.34602333" lon="14.34538667"><ele>104.0</ele><time>2016-06-18T08:28:39.299Z</time></trkpt><trkpt lat="58.34619" lon="14.345615"><ele>104.0</ele><time>2016-06-18T08:28:40.323Z</time></trkpt><trkpt lat="58.34619" lon="14.345615"><ele>104.0</ele><time>2016-06-18T08:28:41.320Z</time></trkpt><trkpt lat="58.34635" lon="14.34584833"><ele>104.0</ele><time>2016-06-18T08:28:42.288Z</time></trkpt><trkpt lat="58.34635" lon="14.34584833"><ele>104.0</ele><time>2016-06-18T08:28:43.310Z</time></trkpt><trkpt lat="58.346515" lon="14.34608667"><ele>103.0</ele><time>2016-06-18T08:28:44.325Z</time></trkpt><trkpt lat="58.346515" lon="14.34608667"><ele>103.0</ele><time>2016-06-18T08:28:45.321Z</time></trkpt><trkpt lat="58.34668167" lon="14.34632667"><ele>103.0</ele><time>2016-06-18T08:28:46.294Z</time></trkpt><trkpt lat="58.34668167" lon="14.34632667"><ele>103.0</ele><time>2016-06-18T08:28:47.311Z</time></trkpt><trkpt lat="58.34685" lon="14.346565"><ele>103.0</ele><time>2016-06-18T08:28:48.287Z</time></trkpt><trkpt lat="58.34685" lon="14.346565"><ele>103.0</ele><time>2016-06-18T08:28:49.292Z</time></trkpt><trkpt lat="58.34701833" lon="14.34680667"><ele>104.0</ele><time>2016-06-18T08:28:50.300Z</time></trkpt><trkpt lat="58.347105" lon="14.34692333"><ele>103.0</ele><time>2016-06-18T08:28:51.315Z</time></trkpt><trkpt lat="58.347105" lon="14.34692333"><ele>103.0</ele><time>2016-06-18T08:28:52.319Z</time></trkpt><trkpt lat="58.34728167" lon="14.347165"><ele>103.0</ele><time>2016-06-18T08:28:53.308Z</time></trkpt><trkpt lat="58.34737167" lon="14.347285"><ele>103.0</ele><time>2016-06-18T08:28:54.321Z</time></trkpt><trkpt lat="58.34737167" lon="14.347285"><ele>103.0</ele><time>2016-06-18T08:28:55.290Z</time></trkpt><trkpt lat="58.34755833" lon="14.34752667"><ele>104.0</ele><time>2016-06-18T08:28:56.296Z</time></trkpt><trkpt lat="58.347655" lon="14.347645"><ele>104.0</ele><time>2016-06-18T08:28:57.321Z</time></trkpt><trkpt lat="58.347655" lon="14.347645"><ele>104.0</ele><time>2016-06-18T08:28:58.292Z</time></trkpt><trkpt lat="58.347845" lon="14.34787"><ele>103.0</ele><time>2016-06-18T08:28:59.300Z</time></trkpt><trkpt lat="58.347845" lon="14.34787"><ele>103.0</ele><time>2016-06-18T08:29:00.285Z</time></trkpt><trkpt lat="58.34803" lon="14.348085"><ele>103.0</ele><time>2016-06-18T08:29:01.312Z</time></trkpt><trkpt lat="58.34803" lon="14.348085"><ele>103.0</ele><time>2016-06-18T08:29:02.309Z</time></trkpt><trkpt lat="58.34820833" lon="14.34828667"><ele>104.0</ele><time>2016-06-18T08:29:03.320Z</time></trkpt><trkpt lat="58.34820833" lon="14.34828667"><ele>104.0</ele><time>2016-06-18T08:29:04.303Z</time></trkpt><trkpt lat="58.34838167" lon="14.34848667"><ele>104.0</ele><time>2016-06-18T08:29:05.288Z</time></trkpt><trkpt lat="58.34838167" lon="14.34848667"><ele>104.0</ele><time>2016-06-18T08:29:06.294Z</time></trkpt><trkpt lat="58.34856" lon="14.348685"><ele>104.0</ele><time>2016-06-18T08:29:07.306Z</time></trkpt><trkpt lat="58.34865" lon="14.34878333"><ele>104.0</ele><time>2016-06-18T08:29:08.289Z</time></trkpt><trkpt lat="58.34865" lon="14.34878333"><ele>104.0</ele><time>2016-06-18T08:29:09.285Z</time></trkpt><trkpt lat="58.34882833" lon="14.34897"><ele>104.0</ele><time>2016-06-18T08:29:10.293Z</time></trkpt><trkpt lat="58.348915" lon="14.34905667"><ele>104.0</ele><time>2016-06-18T08:29:11.287Z</time></trkpt><trkpt lat="58.348915" lon="14.34905667"><ele>104.0</ele><time>2016-06-18T08:29:12.290Z</time></trkpt><trkpt lat="58.34908667" lon="14.34922667"><ele>104.0</ele><time>2016-06-18T08:29:13.302Z</time></trkpt><trkpt lat="58.34917167" lon="14.34931333"><ele>105.0</ele><time>2016-06-18T08:29:14.286Z</time></trkpt><trkpt lat="58.34917167" lon="14.34931333"><ele>105.0</ele><time>2016-06-18T08:29:15.307Z</time></trkpt><trkpt lat="58.34933833" lon="14.34948333"><ele>105.0</ele><time>2016-06-18T08:29:16.289Z</time></trkpt><trkpt lat="58.34933833" lon="14.34948333"><ele>105.0</ele><time>2016-06-18T08:29:17.286Z</time></trkpt><trkpt lat="58.34951" lon="14.34966167"><ele>105.0</ele><time>2016-06-18T08:29:18.297Z</time></trkpt><trkpt lat="58.34951" lon="14.34966167"><ele>105.0</ele><time>2016-06-18T08:29:19.320Z</time></trkpt><trkpt lat="58.34967667" lon="14.34983667"><ele>105.0</ele><time>2016-06-18T08:29:20.288Z</time></trkpt><trkpt lat="58.34967667" lon="14.34983667"><ele>105.0</ele><time>2016-06-18T08:29:21.298Z</time></trkpt><trkpt lat="58.34985" lon="14.34998667"><ele>106.0</ele><time>2016-06-18T08:29:22.304Z</time></trkpt><trkpt lat="58.34993667" lon="14.35006"><ele>106.0</ele><time>2016-06-18T08:29:23.308Z</time></trkpt><trkpt lat="58.34993667" lon="14.35006"><ele>106.0</ele><time>2016-06-18T08:29:24.292Z</time></trkpt><trkpt lat="58.35010667" lon="14.350205"><ele>106.0</ele><time>2016-06-18T08:29:25.300Z</time></trkpt><trkpt lat="58.35019167" lon="14.35027333"><ele>106.0</ele><time>2016-06-18T08:29:26.298Z</time></trkpt><trkpt lat="58.35019167" lon="14.35027333"><ele>106.0</ele><time>2016-06-18T08:29:27.301Z</time></trkpt><trkpt lat="58.350365" lon="14.350405"><ele>106.0</ele><time>2016-06-18T08:29:28.308Z</time></trkpt><trkpt lat="58.350365" lon="14.350405"><ele>106.0</ele><time>2016-06-18T08:29:29.303Z</time></trkpt><trkpt lat="58.35053667" lon="14.35053667"><ele>106.0</ele><time>2016-06-18T08:29:30.288Z</time></trkpt><trkpt lat="58.35053667" lon="14.35053667"><ele>106.0</ele><time>2016-06-18T08:29:31.311Z</time></trkpt><trkpt lat="58.35070833" lon="14.350665"><ele>107.0</ele><time>2016-06-18T08:29:32.284Z</time></trkpt><trkpt lat="58.35070833" lon="14.350665"><ele>107.0</ele><time>2016-06-18T08:29:33.299Z</time></trkpt><trkpt lat="58.35088" lon="14.35078833"><ele>107.0</ele><time>2016-06-18T08:29:34.307Z</time></trkpt><trkpt lat="58.350965" lon="14.35084833"><ele>107.0</ele><time>2016-06-18T08:29:35.290Z</time></trkpt><trkpt lat="58.350965" lon="14.35084833"><ele>107.0</ele><time>2016-06-18T08:29:36.311Z</time></trkpt><trkpt lat="58.35113833" lon="14.35097"><ele>107.0</ele><time>2016-06-18T08:29:37.318Z</time></trkpt><trkpt lat="58.35122667" lon="14.35102667"><ele>107.0</ele><time>2016-06-18T08:29:38.300Z</time></trkpt><trkpt lat="58.35122667" lon="14.35102667"><ele>107.0</ele><time>2016-06-18T08:29:39.321Z</time></trkpt><trkpt lat="58.351405" lon="14.35114"><ele>107.0</ele><time>2016-06-18T08:29:40.297Z</time></trkpt><trkpt lat="58.351495" lon="14.35119167"><ele>107.0</ele><time>2016-06-18T08:29:41.321Z</time></trkpt><trkpt lat="58.351495" lon="14.35119167"><ele>107.0</ele><time>2016-06-18T08:29:42.308Z</time></trkpt><trkpt lat="58.35166833" lon="14.35128833"><ele>108.0</ele><time>2016-06-18T08:29:43.288Z</time></trkpt><trkpt lat="58.351755" lon="14.35133667"><ele>108.0</ele><time>2016-06-18T08:29:44.302Z</time></trkpt><trkpt lat="58.351755" lon="14.35133667"><ele>108.0</ele><time>2016-06-18T08:29:45.287Z</time></trkpt><trkpt lat="58.35191833" lon="14.35142833"><ele>108.0</ele><time>2016-06-18T08:29:46.308Z</time></trkpt><trkpt lat="58.35191833" lon="14.35142833"><ele>108.0</ele><time>2016-06-18T08:29:47.301Z</time></trkpt><trkpt lat="58.352085" lon="14.35152833"><ele>108.0</ele><time>2016-06-18T08:29:48.307Z</time></trkpt><trkpt lat="58.35217167" lon="14.35157833"><ele>108.0</ele><time>2016-06-18T08:29:49.297Z</time></trkpt><trkpt lat="58.35226" lon="14.35162833"><ele>109.0</ele><time>2016-06-18T08:29:50.320Z</time></trkpt><trkpt lat="58.35226" lon="14.35162833"><ele>109.0</ele><time>2016-06-18T08:29:51.303Z</time></trkpt><trkpt lat="58.35243833" lon="14.35171667"><ele>109.0</ele><time>2016-06-18T08:29:52.318Z</time></trkpt><trkpt lat="58.35243833" lon="14.35171667"><ele>109.0</ele><time>2016-06-18T08:29:53.303Z</time></trkpt><trkpt lat="58.35262" lon="14.351805"><ele>109.0</ele><time>2016-06-18T08:29:54.310Z</time></trkpt><trkpt lat="58.35271167" lon="14.35185167"><ele>109.0</ele><time>2016-06-18T08:29:55.289Z</time></trkpt><trkpt lat="58.35280167" lon="14.35189667"><ele>109.0</ele><time>2016-06-18T08:29:56.288Z</time></trkpt><trkpt lat="58.35280167" lon="14.35189667"><ele>109.0</ele><time>2016-06-18T08:29:57.308Z</time></trkpt><trkpt lat="58.352975" lon="14.35197667"><ele>110.0</ele><time>2016-06-18T08:29:58.318Z</time></trkpt><trkpt lat="58.352975" lon="14.35197667"><ele>110.0</ele><time>2016-06-18T08:29:59.320Z</time></trkpt><trkpt lat="58.353145" lon="14.35205"><ele>110.0</ele><time>2016-06-18T08:30:00.293Z</time></trkpt><trkpt lat="58.353145" lon="14.35205"><ele>110.0</ele><time>2016-06-18T08:30:01.304Z</time></trkpt><trkpt lat="58.35331333" lon="14.35211833"><ele>110.0</ele><time>2016-06-18T08:30:02.282Z</time></trkpt><trkpt lat="58.35331333" lon="14.35211833"><ele>110.0</ele><time>2016-06-18T08:30:03.299Z</time></trkpt><trkpt lat="58.35347833" lon="14.35218167"><ele>110.0</ele><time>2016-06-18T08:30:04.306Z</time></trkpt><trkpt lat="58.35356333" lon="14.352215"><ele>111.0</ele><time>2016-06-18T08:30:05.291Z</time></trkpt><trkpt lat="58.35356333" lon="14.352215"><ele>111.0</ele><time>2016-06-18T08:30:06.295Z</time></trkpt><trkpt lat="58.35372833" lon="14.352275"><ele>111.0</ele><time>2016-06-18T08:30:07.302Z</time></trkpt><trkpt lat="58.35381" lon="14.35230167"><ele>111.0</ele><time>2016-06-18T08:30:08.284Z</time></trkpt><trkpt lat="58.35381" lon="14.35230167"><ele>111.0</ele><time>2016-06-18T08:30:09.300Z</time></trkpt><trkpt lat="58.35397667" lon="14.35235833"><ele>112.0</ele><time>2016-06-18T08:30:10.320Z</time></trkpt><trkpt lat="58.35397667" lon="14.35235833"><ele>112.0</ele><time>2016-06-18T08:30:11.308Z</time></trkpt><trkpt lat="58.35414833" lon="14.35241333"><ele>112.0</ele><time>2016-06-18T08:30:12.291Z</time></trkpt><trkpt lat="58.354235" lon="14.35243667"><ele>112.0</ele><time>2016-06-18T08:30:13.282Z</time></trkpt><trkpt lat="58.354235" lon="14.35243667"><ele>112.0</ele><time>2016-06-18T08:30:14.304Z</time></trkpt><trkpt lat="58.35440667" lon="14.352485"><ele>113.0</ele><time>2016-06-18T08:30:15.287Z</time></trkpt><trkpt lat="58.35440667" lon="14.352485"><ele>113.0</ele><time>2016-06-18T08:30:16.297Z</time></trkpt><trkpt lat="58.35457667" lon="14.35251833"><ele>114.0</ele><time>2016-06-18T08:30:17.304Z</time></trkpt><trkpt lat="58.35457667" lon="14.35251833"><ele>114.0</ele><time>2016-06-18T08:30:18.287Z</time></trkpt><trkpt lat="58.354745" lon="14.352565"><ele>114.0</ele><time>2016-06-18T08:30:19.292Z</time></trkpt><trkpt lat="58.354745" lon="14.352565"><ele>114.0</ele><time>2016-06-18T08:30:20.308Z</time></trkpt><trkpt lat="58.35490167" lon="14.35260167"><ele>115.0</ele><time>2016-06-18T08:30:21.314Z</time></trkpt><trkpt lat="58.35490167" lon="14.35260167"><ele>115.0</ele><time>2016-06-18T08:30:22.298Z</time></trkpt><trkpt lat="58.355045" lon="14.35263833"><ele>115.0</ele><time>2016-06-18T08:30:23.307Z</time></trkpt><trkpt lat="58.355045" lon="14.35263833"><ele>115.0</ele><time>2016-06-18T08:30:24.294Z</time></trkpt><trkpt lat="58.35518167" lon="14.35266667"><ele>116.0</ele><time>2016-06-18T08:30:25.306Z</time></trkpt><trkpt lat="58.355255" lon="14.35267833"><ele>116.0</ele><time>2016-06-18T08:30:26.320Z</time></trkpt><trkpt lat="58.355255" lon="14.35267833"><ele>116.0</ele><time>2016-06-18T08:30:27.303Z</time></trkpt><trkpt lat="58.35540333" lon="14.35270333"><ele>117.0</ele><time>2016-06-18T08:30:28.309Z</time></trkpt><trkpt lat="58.35540333" lon="14.35270333"><ele>117.0</ele><time>2016-06-18T08:30:29.320Z</time></trkpt><trkpt lat="58.35555667" lon="14.35272667"><ele>117.0</ele><time>2016-06-18T08:30:30.287Z</time></trkpt><trkpt lat="58.35563167" lon="14.35273667"><ele>118.0</ele><time>2016-06-18T08:30:31.282Z</time></trkpt><trkpt lat="58.35563167" lon="14.35273667"><ele>118.0</ele><time>2016-06-18T08:30:32.313Z</time></trkpt><trkpt lat="58.35578833" lon="14.35275167"><ele>118.0</ele><time>2016-06-18T08:30:33.321Z</time></trkpt><trkpt lat="58.35578833" lon="14.35275167"><ele>118.0</ele><time>2016-06-18T08:30:34.305Z</time></trkpt><trkpt lat="58.35594" lon="14.352775"><ele>119.0</ele><time>2016-06-18T08:30:35.290Z</time></trkpt><trkpt lat="58.35594" lon="14.352775"><ele>119.0</ele><time>2016-06-18T08:30:36.283Z</time></trkpt><trkpt lat="58.35609667" lon="14.35279"><ele>119.0</ele><time>2016-06-18T08:30:37.289Z</time></trkpt><trkpt lat="58.35609667" lon="14.35279"><ele>119.0</ele><time>2016-06-18T08:30:38.308Z</time></trkpt><trkpt lat="58.35625" lon="14.35279833"><ele>120.0</ele><time>2016-06-18T08:30:39.308Z</time></trkpt><trkpt lat="58.35625" lon="14.35279833"><ele>120.0</ele><time>2016-06-18T08:30:40.308Z</time></trkpt><trkpt lat="58.3564" lon="14.35281"><ele>121.0</ele><time>2016-06-18T08:30:41.315Z</time></trkpt><trkpt lat="58.3564" lon="14.35281"><ele>121.0</ele><time>2016-06-18T08:30:42.299Z</time></trkpt><trkpt lat="58.35656" lon="14.35281167"><ele>122.0</ele><time>2016-06-18T08:30:43.309Z</time></trkpt><trkpt lat="58.35656" lon="14.35281167"><ele>122.0</ele><time>2016-06-18T08:30:44.317Z</time></trkpt><trkpt lat="58.356725" lon="14.35281167"><ele>122.0</ele><time>2016-06-18T08:30:45.284Z</time></trkpt><trkpt lat="58.356725" lon="14.35281167"><ele>122.0</ele><time>2016-06-18T08:30:46.305Z</time></trkpt><trkpt lat="58.356895" lon="14.35281167"><ele>122.0</ele><time>2016-06-18T08:30:47.321Z</time></trkpt><trkpt lat="58.35698167" lon="14.35281"><ele>122.0</ele><time>2016-06-18T08:30:48.315Z</time></trkpt><trkpt lat="58.35698167" lon="14.35281"><ele>122.0</ele><time>2016-06-18T08:30:49.300Z</time></trkpt><trkpt lat="58.35716333" lon="14.35279667"><ele>121.0</ele><time>2016-06-18T08:30:50.293Z</time></trkpt><trkpt lat="58.35725" lon="14.352785"><ele>121.0</ele><time>2016-06-18T08:30:51.311Z</time></trkpt><trkpt lat="58.35725" lon="14.352785"><ele>121.0</ele><time>2016-06-18T08:30:52.297Z</time></trkpt><trkpt lat="58.35741833" lon="14.35276833"><ele>121.0</ele><time>2016-06-18T08:30:53.328Z</time></trkpt><trkpt lat="58.35741833" lon="14.35276833"><ele>121.0</ele><time>2016-06-18T08:30:54.293Z</time></trkpt><trkpt lat="58.35758" lon="14.35276167"><ele>122.0</ele><time>2016-06-18T08:30:55.299Z</time></trkpt><trkpt lat="58.35765833" lon="14.35275333"><ele>122.0</ele><time>2016-06-18T08:30:56.324Z</time></trkpt><trkpt lat="58.35765833" lon="14.35275333"><ele>122.0</ele><time>2016-06-18T08:30:57.287Z</time></trkpt><trkpt lat="58.35782333" lon="14.35275"><ele>123.0</ele><time>2016-06-18T08:30:58.295Z</time></trkpt><trkpt lat="58.35782333" lon="14.35275"><ele>123.0</ele><time>2016-06-18T08:30:59.318Z</time></trkpt><trkpt lat="58.357975" lon="14.35273833"><ele>124.0</ele><time>2016-06-18T08:31:00.322Z</time></trkpt><trkpt lat="58.357975" lon="14.35273833"><ele>124.0</ele><time>2016-06-18T08:31:01.320Z</time></trkpt><trkpt lat="58.35813167" lon="14.35272"><ele>125.0</ele><time>2016-06-18T08:31:02.298Z</time></trkpt><trkpt lat="58.35822" lon="14.35271167"><ele>125.0</ele><time>2016-06-18T08:31:03.287Z</time></trkpt><trkpt lat="58.35822" lon="14.35271167"><ele>125.0</ele><time>2016-06-18T08:31:04.301Z</time></trkpt><trkpt lat="58.35839" lon="14.3527"><ele>125.0</ele><time>2016-06-18T08:31:05.308Z</time></trkpt><trkpt lat="58.35847667" lon="14.35269333"><ele>125.0</ele><time>2016-06-18T08:31:06.308Z</time></trkpt><trkpt lat="58.35856" lon="14.35268833"><ele>126.0</ele><time>2016-06-18T08:31:07.288Z</time></trkpt><trkpt lat="58.35864667" lon="14.35268"><ele>126.0</ele><time>2016-06-18T08:31:08.303Z</time></trkpt><trkpt lat="58.35864667" lon="14.35268"><ele>126.0</ele><time>2016-06-18T08:31:09.286Z</time></trkpt><trkpt lat="58.358825" lon="14.35267"><ele>127.0</ele><time>2016-06-18T08:31:10.295Z</time></trkpt><trkpt lat="58.358825" lon="14.35267"><ele>127.0</ele><time>2016-06-18T08:31:11.288Z</time></trkpt><trkpt lat="58.35899833" lon="14.352655"><ele>127.0</ele><time>2016-06-18T08:31:12.326Z</time></trkpt><trkpt lat="58.35909" lon="14.35265167"><ele>126.0</ele><time>2016-06-18T08:31:13.282Z</time></trkpt><trkpt lat="58.35909" lon="14.35265167"><ele>126.0</ele><time>2016-06-18T08:31:14.303Z</time></trkpt><trkpt lat="58.35926833" lon="14.35264"><ele>125.0</ele><time>2016-06-18T08:31:15.322Z</time></trkpt><trkpt lat="58.35935167" lon="14.35263667"><ele>126.0</ele><time>2016-06-18T08:31:16.305Z</time></trkpt><trkpt lat="58.35935167" lon="14.35263667"><ele>126.0</ele><time>2016-06-18T08:31:17.289Z</time></trkpt><trkpt lat="58.35952333" lon="14.35262"><ele>126.0</ele><time>2016-06-18T08:31:18.300Z</time></trkpt><trkpt lat="58.35952333" lon="14.35262"><ele>126.0</ele><time>2016-06-18T08:31:19.309Z</time></trkpt><trkpt lat="58.35969667" lon="14.35260167"><ele>126.0</ele><time>2016-06-18T08:31:20.316Z</time></trkpt><trkpt lat="58.35969667" lon="14.35260167"><ele>126.0</ele><time>2016-06-18T08:31:21.304Z</time></trkpt><trkpt lat="58.359865" lon="14.35258667"><ele>125.0</ele><time>2016-06-18T08:31:22.288Z</time></trkpt><trkpt lat="58.35994833" lon="14.35258167"><ele>125.0</ele><time>2016-06-18T08:31:23.316Z</time></trkpt><trkpt lat="58.35994833" lon="14.35258167"><ele>125.0</ele><time>2016-06-18T08:31:24.299Z</time></trkpt><trkpt lat="58.36011167" lon="14.352575"><ele>125.0</ele><time>2016-06-18T08:31:25.308Z</time></trkpt><trkpt lat="58.36019333" lon="14.35256833"><ele>125.0</ele><time>2016-06-18T08:31:26.282Z</time></trkpt><trkpt lat="58.36019333" lon="14.35256833"><ele>125.0</ele><time>2016-06-18T08:31:27.295Z</time></trkpt><trkpt lat="58.36035167" lon="14.35255667"><ele>126.0</ele><time>2016-06-18T08:31:28.302Z</time></trkpt><trkpt lat="58.36035167" lon="14.35255667"><ele>126.0</ele><time>2016-06-18T08:31:29.284Z</time></trkpt><trkpt lat="58.36051333" lon="14.35253667"><ele>126.0</ele><time>2016-06-18T08:31:30.319Z</time></trkpt><trkpt lat="58.36051333" lon="14.35253667"><ele>126.0</ele><time>2016-06-18T08:31:31.316Z</time></trkpt><trkpt lat="58.360665" lon="14.35253"><ele>126.0</ele><time>2016-06-18T08:31:32.283Z</time></trkpt><trkpt lat="58.360665" lon="14.35253"><ele>126.0</ele><time>2016-06-18T08:31:33.305Z</time></trkpt><trkpt lat="58.36081667" lon="14.35250833"><ele>125.0</ele><time>2016-06-18T08:31:34.327Z</time></trkpt><trkpt lat="58.36081667" lon="14.35250833"><ele>125.0</ele><time>2016-06-18T08:31:35.302Z</time></trkpt><trkpt lat="58.36097" lon="14.35248833"><ele>125.0</ele><time>2016-06-18T08:31:36.308Z</time></trkpt><trkpt lat="58.361045" lon="14.352485"><ele>125.0</ele><time>2016-06-18T08:31:37.287Z</time></trkpt><trkpt lat="58.36112167" lon="14.35248167"><ele>125.0</ele><time>2016-06-18T08:31:38.321Z</time></trkpt><trkpt lat="58.36112167" lon="14.35248167"><ele>125.0</ele><time>2016-06-18T08:31:39.302Z</time></trkpt><trkpt lat="58.36127667" lon="14.35247167"><ele>125.0</ele><time>2016-06-18T08:31:40.288Z</time></trkpt><trkpt lat="58.36127667" lon="14.35247167"><ele>125.0</ele><time>2016-06-18T08:31:41.300Z</time></trkpt><trkpt lat="58.36143833" lon="14.35245833"><ele>125.0</ele><time>2016-06-18T08:31:42.307Z</time></trkpt><trkpt lat="58.36152167" lon="14.35245167"><ele>125.0</ele><time>2016-06-18T08:31:43.315Z</time></trkpt><trkpt lat="58.36152167" lon="14.35245167"><ele>125.0</ele><time>2016-06-18T08:31:44.299Z</time></trkpt><trkpt lat="58.36169667" lon="14.35243833"><ele>125.0</ele><time>2016-06-18T08:31:45.305Z</time></trkpt><trkpt lat="58.36178333" lon="14.35243167"><ele>126.0</ele><time>2016-06-18T08:31:46.289Z</time></trkpt><trkpt lat="58.36178333" lon="14.35243167"><ele>126.0</ele><time>2016-06-18T08:31:47.311Z</time></trkpt><trkpt lat="58.36195833" lon="14.35242333"><ele>126.0</ele><time>2016-06-18T08:31:48.318Z</time></trkpt><trkpt lat="58.36204333" lon="14.35241667"><ele>126.0</ele><time>2016-06-18T08:31:49.311Z</time></trkpt><trkpt lat="58.36213167" lon="14.35241167"><ele>126.0</ele><time>2016-06-18T08:31:50.313Z</time></trkpt><trkpt lat="58.36213167" lon="14.35241167"><ele>126.0</ele><time>2016-06-18T08:31:51.321Z</time></trkpt><trkpt lat="58.36230667" lon="14.35240333"><ele>126.0</ele><time>2016-06-18T08:31:52.298Z</time></trkpt><trkpt lat="58.36239333" lon="14.35239833"><ele>126.0</ele><time>2016-06-18T08:31:53.312Z</time></trkpt><trkpt lat="58.36239333" lon="14.35239833"><ele>126.0</ele><time>2016-06-18T08:31:54.297Z</time></trkpt><trkpt lat="58.36256167" lon="14.352385"><ele>126.0</ele><time>2016-06-18T08:31:55.301Z</time></trkpt><trkpt lat="58.36264" lon="14.35237833"><ele>127.0</ele><time>2016-06-18T08:31:56.313Z</time></trkpt><trkpt lat="58.36264" lon="14.35237833"><ele>127.0</ele><time>2016-06-18T08:31:57.297Z</time></trkpt><trkpt lat="58.36279667" lon="14.35237333"><ele>127.0</ele><time>2016-06-18T08:31:58.304Z</time></trkpt><trkpt lat="58.36279667" lon="14.35237333"><ele>127.0</ele><time>2016-06-18T08:31:59.317Z</time></trkpt><trkpt lat="58.36295333" lon="14.35236333"><ele>128.0</ele><time>2016-06-18T08:32:00.289Z</time></trkpt><trkpt lat="58.36295333" lon="14.35236333"><ele>128.0</ele><time>2016-06-18T08:32:01.311Z</time></trkpt><trkpt lat="58.36311167" lon="14.35235333"><ele>129.0</ele><time>2016-06-18T08:32:02.297Z</time></trkpt><trkpt lat="58.36311167" lon="14.35235333"><ele>129.0</ele><time>2016-06-18T08:32:03.301Z</time></trkpt><trkpt lat="58.36328167" lon="14.35235167"><ele>129.0</ele><time>2016-06-18T08:32:04.308Z</time></trkpt><trkpt lat="58.36337" lon="14.35235167"><ele>129.0</ele><time>2016-06-18T08:32:05.298Z</time></trkpt><trkpt lat="58.36337" lon="14.35235167"><ele>129.0</ele><time>2016-06-18T08:32:06.296Z</time></trkpt><trkpt lat="58.363555" lon="14.35235167"><ele>129.0</ele><time>2016-06-18T08:32:07.303Z</time></trkpt><trkpt lat="58.36365" lon="14.35234833"><ele>129.0</ele><time>2016-06-18T08:32:08.301Z</time></trkpt><trkpt lat="58.36365" lon="14.35234833"><ele>129.0</ele><time>2016-06-18T08:32:09.297Z</time></trkpt><trkpt lat="58.36385167" lon="14.35232667"><ele>129.0</ele><time>2016-06-18T08:32:10.308Z</time></trkpt><trkpt lat="58.36385167" lon="14.35232667"><ele>129.0</ele><time>2016-06-18T08:32:11.288Z</time></trkpt><trkpt lat="58.36405" lon="14.352305"><ele>129.0</ele><time>2016-06-18T08:32:12.315Z</time></trkpt><trkpt lat="58.36405" lon="14.352305"><ele>129.0</ele><time>2016-06-18T08:32:13.299Z</time></trkpt><trkpt lat="58.36424833" lon="14.35228833"><ele>129.0</ele><time>2016-06-18T08:32:14.310Z</time></trkpt><trkpt lat="58.36434667" lon="14.35228333"><ele>129.0</ele><time>2016-06-18T08:32:15.295Z</time></trkpt><trkpt lat="58.36434667" lon="14.35228333"><ele>129.0</ele><time>2016-06-18T08:32:16.318Z</time></trkpt><trkpt lat="58.36454167" lon="14.35227333"><ele>129.0</ele><time>2016-06-18T08:32:17.285Z</time></trkpt><trkpt lat="58.36454167" lon="14.35227333"><ele>129.0</ele><time>2016-06-18T08:32:18.307Z</time></trkpt><trkpt lat="58.36472667" lon="14.352265"><ele>129.0</ele><time>2016-06-18T08:32:19.294Z</time></trkpt><trkpt lat="58.36481167" lon="14.35225667"><ele>129.0</ele><time>2016-06-18T08:32:20.302Z</time></trkpt><trkpt lat="58.36481167" lon="14.35225667"><ele>129.0</ele><time>2016-06-18T08:32:21.282Z</time></trkpt><trkpt lat="58.364985" lon="14.35225"><ele>130.0</ele><time>2016-06-18T08:32:22.293Z</time></trkpt><trkpt lat="58.364985" lon="14.35225"><ele>130.0</ele><time>2016-06-18T08:32:23.303Z</time></trkpt><trkpt lat="58.365155" lon="14.35223667"><ele>130.0</ele><time>2016-06-18T08:32:24.309Z</time></trkpt><trkpt lat="58.36524833" lon="14.352225"><ele>129.0</ele><time>2016-06-18T08:32:25.291Z</time></trkpt><trkpt lat="58.36533333" lon="14.352215"><ele>128.0</ele><time>2016-06-18T08:32:26.313Z</time></trkpt><trkpt lat="58.36533333" lon="14.352215"><ele>128.0</ele><time>2016-06-18T08:32:27.305Z</time></trkpt><trkpt lat="58.36550833" lon="14.35219333"><ele>128.0</ele><time>2016-06-18T08:32:28.288Z</time></trkpt><trkpt lat="58.36550833" lon="14.35219333"><ele>128.0</ele><time>2016-06-18T08:32:29.292Z</time></trkpt><trkpt lat="58.36568333" lon="14.35217333"><ele>129.0</ele><time>2016-06-18T08:32:30.301Z</time></trkpt><trkpt lat="58.36577167" lon="14.352165"><ele>129.0</ele><time>2016-06-18T08:32:31.288Z</time></trkpt><trkpt lat="58.36585833" lon="14.352165"><ele>129.0</ele><time>2016-06-18T08:32:32.282Z</time></trkpt><trkpt lat="58.36585833" lon="14.352165"><ele>129.0</ele><time>2016-06-18T08:32:33.305Z</time></trkpt><trkpt lat="58.36602833" lon="14.35216167"><ele>129.0</ele><time>2016-06-18T08:32:34.325Z</time></trkpt><trkpt lat="58.36611333" lon="14.35215333"><ele>129.0</ele><time>2016-06-18T08:32:35.307Z</time></trkpt><trkpt lat="58.36611333" lon="14.35215333"><ele>129.0</ele><time>2016-06-18T08:32:36.315Z</time></trkpt><trkpt lat="58.36627667" lon="14.35213833"><ele>129.0</ele><time>2016-06-18T08:32:37.298Z</time></trkpt><trkpt lat="58.36635667" lon="14.35213333"><ele>130.0</ele><time>2016-06-18T08:32:38.300Z</time></trkpt><trkpt lat="58.36635667" lon="14.35213333"><ele>130.0</ele><time>2016-06-18T08:32:39.283Z</time></trkpt><trkpt lat="58.36652833" lon="14.35212"><ele>130.0</ele><time>2016-06-18T08:32:40.291Z</time></trkpt><trkpt lat="58.36652833" lon="14.35212"><ele>130.0</ele><time>2016-06-18T08:32:41.320Z</time></trkpt><trkpt lat="58.366695" lon="14.35209667"><ele>130.0</ele><time>2016-06-18T08:32:42.285Z</time></trkpt><trkpt lat="58.36677167" lon="14.35208833"><ele>130.0</ele><time>2016-06-18T08:32:43.314Z</time></trkpt><trkpt lat="58.36677167" lon="14.35208833"><ele>130.0</ele><time>2016-06-18T08:32:44.282Z</time></trkpt><trkpt lat="58.366945" lon="14.35208333"><ele>131.0</ele><time>2016-06-18T08:32:45.289Z</time></trkpt><trkpt lat="58.36703" lon="14.35208333"><ele>131.0</ele><time>2016-06-18T08:32:46.300Z</time></trkpt><trkpt lat="58.36703" lon="14.35208333"><ele>131.0</ele><time>2016-06-18T08:32:47.315Z</time></trkpt><trkpt lat="58.367205" lon="14.35209"><ele>132.0</ele><time>2016-06-18T08:32:48.288Z</time></trkpt><trkpt lat="58.367295" lon="14.35208833"><ele>131.0</ele><time>2016-06-18T08:32:49.301Z</time></trkpt><trkpt lat="58.36737833" lon="14.35209"><ele>131.0</ele><time>2016-06-18T08:32:50.318Z</time></trkpt><trkpt lat="58.36737833" lon="14.35209"><ele>131.0</ele><time>2016-06-18T08:32:51.300Z</time></trkpt><trkpt lat="58.367555" lon="14.35208333"><ele>131.0</ele><time>2016-06-18T08:32:52.316Z</time></trkpt><trkpt lat="58.367555" lon="14.35208333"><ele>131.0</ele><time>2016-06-18T08:32:53.311Z</time></trkpt><trkpt lat="58.36773333" lon="14.35205667"><ele>131.0</ele><time>2016-06-18T08:32:54.324Z</time></trkpt><trkpt lat="58.367815" lon="14.352055"><ele>133.0</ele><time>2016-06-18T08:32:55.299Z</time></trkpt><trkpt lat="58.3679" lon="14.35205"><ele>133.0</ele><time>2016-06-18T08:32:56.321Z</time></trkpt><trkpt lat="58.3679" lon="14.35205"><ele>133.0</ele><time>2016-06-18T08:32:57.304Z</time></trkpt><trkpt lat="58.36805833" lon="14.35204"><ele>134.0</ele><time>2016-06-18T08:32:58.310Z</time></trkpt><trkpt lat="58.36813667" lon="14.35203167"><ele>135.0</ele><time>2016-06-18T08:32:59.298Z</time></trkpt><trkpt lat="58.36813667" lon="14.35203167"><ele>135.0</ele><time>2016-06-18T08:33:00.302Z</time></trkpt><trkpt lat="58.368295" lon="14.35202167"><ele>136.0</ele><time>2016-06-18T08:33:01.309Z</time></trkpt><trkpt lat="58.368295" lon="14.35202167"><ele>136.0</ele><time>2016-06-18T08:33:02.297Z</time></trkpt><trkpt lat="58.36846333" lon="14.35200833"><ele>136.0</ele><time>2016-06-18T08:33:03.330Z</time></trkpt><trkpt lat="58.36846333" lon="14.35200833"><ele>136.0</ele><time>2016-06-18T08:33:04.307Z</time></trkpt><trkpt lat="58.368625" lon="14.35200167"><ele>138.0</ele><time>2016-06-18T08:33:05.309Z</time></trkpt><trkpt lat="58.368715" lon="14.35199167"><ele>138.0</ele><time>2016-06-18T08:33:06.292Z</time></trkpt><trkpt lat="58.368715" lon="14.35199167"><ele>138.0</ele><time>2016-06-18T08:33:07.298Z</time></trkpt><trkpt lat="58.36889667" lon="14.35199167"><ele>138.0</ele><time>2016-06-18T08:33:08.305Z</time></trkpt><trkpt lat="58.36889667" lon="14.35199167"><ele>138.0</ele><time>2016-06-18T08:33:09.289Z</time></trkpt><trkpt lat="58.36907667" lon="14.35199333"><ele>139.0</ele><time>2016-06-18T08:33:10.288Z</time></trkpt><trkpt lat="58.36907667" lon="14.35199333"><ele>139.0</ele><time>2016-06-18T08:33:11.321Z</time></trkpt><trkpt lat="58.36926833" lon="14.351985"><ele>139.0</ele><time>2016-06-18T08:33:12.312Z</time></trkpt><trkpt lat="58.36926833" lon="14.351985"><ele>139.0</ele><time>2016-06-18T08:33:13.301Z</time></trkpt><trkpt lat="58.369465" lon="14.35196333"><ele>138.0</ele><time>2016-06-18T08:33:14.308Z</time></trkpt><trkpt lat="58.36956333" lon="14.35195167"><ele>138.0</ele><time>2016-06-18T08:33:15.293Z</time></trkpt><trkpt lat="58.36956333" lon="14.35195167"><ele>138.0</ele><time>2016-06-18T08:33:16.305Z</time></trkpt><trkpt lat="58.36975167" lon="14.35193167"><ele>138.0</ele><time>2016-06-18T08:33:17.317Z</time></trkpt><trkpt lat="58.369845" lon="14.35191667"><ele>137.0</ele><time>2016-06-18T08:33:18.302Z</time></trkpt><trkpt lat="58.369845" lon="14.35191667"><ele>137.0</ele><time>2016-06-18T08:33:19.310Z</time></trkpt><trkpt lat="58.37001667" lon="14.35189"><ele>137.0</ele><time>2016-06-18T08:33:20.316Z</time></trkpt><trkpt lat="58.37001667" lon="14.35189"><ele>137.0</ele><time>2016-06-18T08:33:21.299Z</time></trkpt><trkpt lat="58.37019" lon="14.35187333"><ele>137.0</ele><time>2016-06-18T08:33:22.303Z</time></trkpt><trkpt lat="58.37019" lon="14.35187333"><ele>137.0</ele><time>2016-06-18T08:33:23.305Z</time></trkpt><trkpt lat="58.37035833" lon="14.351865"><ele>136.0</ele><time>2016-06-18T08:33:24.312Z</time></trkpt><trkpt lat="58.37044167" lon="14.35186"><ele>136.0</ele><time>2016-06-18T08:33:25.325Z</time></trkpt><trkpt lat="58.370525" lon="14.35185"><ele>136.0</ele><time>2016-06-18T08:33:26.310Z</time></trkpt><trkpt lat="58.370525" lon="14.35185"><ele>136.0</ele><time>2016-06-18T08:33:27.293Z</time></trkpt><trkpt lat="58.37068" lon="14.35183"><ele>137.0</ele><time>2016-06-18T08:33:28.314Z</time></trkpt><trkpt lat="58.370745" lon="14.35183"><ele>137.0</ele><time>2016-06-18T08:33:29.311Z</time></trkpt><trkpt lat="58.370745" lon="14.35183"><ele>137.0</ele><time>2016-06-18T08:33:30.301Z</time></trkpt><trkpt lat="58.370845" lon="14.35183167"><ele>138.0</ele><time>2016-06-18T08:33:31.308Z</time></trkpt><trkpt lat="58.37089333" lon="14.35183833"><ele>138.0</ele><time>2016-06-18T08:33:32.282Z</time></trkpt><trkpt lat="58.37089333" lon="14.35183833"><ele>138.0</ele><time>2016-06-18T08:33:33.314Z</time></trkpt><trkpt lat="58.370985" lon="14.35184"><ele>139.0</ele><time>2016-06-18T08:33:34.298Z</time></trkpt><trkpt lat="58.37104333" lon="14.351835"><ele>139.0</ele><time>2016-06-18T08:33:35.283Z</time></trkpt><trkpt lat="58.37104333" lon="14.351835"><ele>139.0</ele><time>2016-06-18T08:33:36.305Z</time></trkpt><trkpt lat="58.371155" lon="14.35183667"><ele>140.0</ele><time>2016-06-18T08:33:37.285Z</time></trkpt><trkpt lat="58.37121167" lon="14.35183833"><ele>140.0</ele><time>2016-06-18T08:33:38.309Z</time></trkpt><trkpt lat="58.37121167" lon="14.35183833"><ele>140.0</ele><time>2016-06-18T08:33:39.288Z</time></trkpt><trkpt lat="58.37132667" lon="14.351835"><ele>141.0</ele><time>2016-06-18T08:33:40.289Z</time></trkpt><trkpt lat="58.37132667" lon="14.351835"><ele>141.0</ele><time>2016-06-18T08:33:41.321Z</time></trkpt><trkpt lat="58.37144167" lon="14.351825"><ele>142.0</ele><time>2016-06-18T08:33:42.287Z</time></trkpt><trkpt lat="58.37144167" lon="14.351825"><ele>142.0</ele><time>2016-06-18T08:33:43.304Z</time></trkpt><trkpt lat="58.37154333" lon="14.351815"><ele>143.0</ele><time>2016-06-18T08:33:44.290Z</time></trkpt><trkpt lat="58.37154333" lon="14.351815"><ele>143.0</ele><time>2016-06-18T08:33:45.320Z</time></trkpt><trkpt lat="58.37166" lon="14.35181167"><ele>144.0</ele><time>2016-06-18T08:33:46.287Z</time></trkpt><trkpt lat="58.37173" lon="14.351805"><ele>144.0</ele><time>2016-06-18T08:33:47.313Z</time></trkpt><trkpt lat="58.3718" lon="14.35179667"><ele>145.0</ele><time>2016-06-18T08:33:48.321Z</time></trkpt><trkpt lat="58.3718" lon="14.35179667"><ele>145.0</ele><time>2016-06-18T08:33:49.304Z</time></trkpt><trkpt lat="58.37194167" lon="14.351785"><ele>145.0</ele><time>2016-06-18T08:33:50.300Z</time></trkpt><trkpt lat="58.37194167" lon="14.351785"><ele>145.0</ele><time>2016-06-18T08:33:51.298Z</time></trkpt><trkpt lat="58.37207667" lon="14.35178167"><ele>145.0</ele><time>2016-06-18T08:33:52.306Z</time></trkpt><trkpt lat="58.37207667" lon="14.35178167"><ele>145.0</ele><time>2016-06-18T08:33:53.287Z</time></trkpt><trkpt lat="58.37222667" lon="14.35178333"><ele>147.0</ele><time>2016-06-18T08:33:54.289Z</time></trkpt><trkpt lat="58.37222667" lon="14.35178333"><ele>147.0</ele><time>2016-06-18T08:33:55.292Z</time></trkpt><trkpt lat="58.37234667" lon="14.35177167"><ele>148.0</ele><time>2016-06-18T08:33:56.299Z</time></trkpt><trkpt lat="58.37234667" lon="14.35177167"><ele>148.0</ele><time>2016-06-18T08:33:57.321Z</time></trkpt><trkpt lat="58.37247167" lon="14.35176"><ele>149.0</ele><time>2016-06-18T08:33:58.290Z</time></trkpt><trkpt lat="58.372535" lon="14.35175167"><ele>151.0</ele><time>2016-06-18T08:33:59.317Z</time></trkpt><trkpt lat="58.372535" lon="14.35175167"><ele>151.0</ele><time>2016-06-18T08:34:00.302Z</time></trkpt><trkpt lat="58.37264833" lon="14.35175333"><ele>153.0</ele><time>2016-06-18T08:34:01.320Z</time></trkpt><trkpt lat="58.37271167" lon="14.35175333"><ele>154.0</ele><time>2016-06-18T08:34:02.309Z</time></trkpt><trkpt lat="58.37271167" lon="14.35175333"><ele>154.0</ele><time>2016-06-18T08:34:03.295Z</time></trkpt><trkpt lat="58.37284833" lon="14.35175333"><ele>154.0</ele><time>2016-06-18T08:34:04.285Z</time></trkpt><trkpt lat="58.37284833" lon="14.35175333"><ele>154.0</ele><time>2016-06-18T08:34:05.311Z</time></trkpt><trkpt lat="58.37299667" lon="14.35174167"><ele>154.0</ele><time>2016-06-18T08:34:06.319Z</time></trkpt><trkpt lat="58.37307333" lon="14.351735"><ele>154.0</ele><time>2016-06-18T08:34:07.315Z</time></trkpt><trkpt lat="58.37315333" lon="14.35173167"><ele>154.0</ele><time>2016-06-18T08:34:08.304Z</time></trkpt><trkpt lat="58.37315333" lon="14.35173167"><ele>154.0</ele><time>2016-06-18T08:34:09.286Z</time></trkpt><trkpt lat="58.37332333" lon="14.35172333"><ele>154.0</ele><time>2016-06-18T08:34:10.290Z</time></trkpt><trkpt lat="58.37332333" lon="14.35172333"><ele>154.0</ele><time>2016-06-18T08:34:11.282Z</time></trkpt><trkpt lat="58.37349667" lon="14.35171833"><ele>154.0</ele><time>2016-06-18T08:34:12.311Z</time></trkpt><trkpt lat="58.37349667" lon="14.35171833"><ele>154.0</ele><time>2016-06-18T08:34:13.304Z</time></trkpt><trkpt lat="58.37367833" lon="14.35172333"><ele>153.0</ele><time>2016-06-18T08:34:14.310Z</time></trkpt><trkpt lat="58.37376667" lon="14.35172"><ele>152.0</ele><time>2016-06-18T08:34:15.288Z</time></trkpt><trkpt lat="58.37376667" lon="14.35172"><ele>152.0</ele><time>2016-06-18T08:34:16.312Z</time></trkpt><trkpt lat="58.373945" lon="14.35171167"><ele>150.0</ele><time>2016-06-18T08:34:17.319Z</time></trkpt><trkpt lat="58.37403167" lon="14.35171167"><ele>150.0</ele><time>2016-06-18T08:34:18.305Z</time></trkpt><trkpt lat="58.37403167" lon="14.35171167"><ele>150.0</ele><time>2016-06-18T08:34:19.315Z</time></trkpt><trkpt lat="58.374205" lon="14.35171333"><ele>148.0</ele><time>2016-06-18T08:34:20.282Z</time></trkpt><trkpt lat="58.374205" lon="14.35171333"><ele>148.0</ele><time>2016-06-18T08:34:21.307Z</time></trkpt><trkpt lat="58.37437667" lon="14.351715"><ele>147.0</ele><time>2016-06-18T08:34:22.300Z</time></trkpt><trkpt lat="58.37446167" lon="14.35172167"><ele>147.0</ele><time>2016-06-18T08:34:23.318Z</time></trkpt><trkpt lat="58.37446167" lon="14.35172167"><ele>147.0</ele><time>2016-06-18T08:34:24.300Z</time></trkpt><trkpt lat="58.37464333" lon="14.35173"><ele>145.0</ele><time>2016-06-18T08:34:25.289Z</time></trkpt><trkpt lat="58.37473167" lon="14.35172667"><ele>145.0</ele><time>2016-06-18T08:34:26.294Z</time></trkpt><trkpt lat="58.37473167" lon="14.35172667"><ele>145.0</ele><time>2016-06-18T08:34:27.317Z</time></trkpt><trkpt lat="58.37491667" lon="14.35172333"><ele>145.0</ele><time>2016-06-18T08:34:28.299Z</time></trkpt><trkpt lat="58.37501" lon="14.35172667"><ele>144.0</ele><time>2016-06-18T08:34:29.305Z</time></trkpt><trkpt lat="58.37501" lon="14.35172667"><ele>144.0</ele><time>2016-06-18T08:34:30.288Z</time></trkpt><trkpt lat="58.37519333" lon="14.35173833"><ele>144.0</ele><time>2016-06-18T08:34:31.302Z</time></trkpt><trkpt lat="58.37528667" lon="14.35173833"><ele>144.0</ele><time>2016-06-18T08:34:32.309Z</time></trkpt><trkpt lat="58.37528667" lon="14.35173833"><ele>144.0</ele><time>2016-06-18T08:34:33.302Z</time></trkpt><trkpt lat="58.375465" lon="14.351735"><ele>145.0</ele><time>2016-06-18T08:34:34.291Z</time></trkpt><trkpt lat="58.37555667" lon="14.35173167"><ele>145.0</ele><time>2016-06-18T08:34:35.302Z</time></trkpt><trkpt lat="58.37555667" lon="14.35173167"><ele>145.0</ele><time>2016-06-18T08:34:36.286Z</time></trkpt><trkpt lat="58.37573833" lon="14.35173333"><ele>145.0</ele><time>2016-06-18T08:34:37.317Z</time></trkpt><trkpt lat="58.37573833" lon="14.35173333"><ele>145.0</ele><time>2016-06-18T08:34:38.300Z</time></trkpt><trkpt lat="58.37593" lon="14.35172667"><ele>144.0</ele><time>2016-06-18T08:34:39.307Z</time></trkpt><trkpt lat="58.37593" lon="14.35172667"><ele>144.0</ele><time>2016-06-18T08:34:40.289Z</time></trkpt><trkpt lat="58.37609833" lon="14.35171833"><ele>145.0</ele><time>2016-06-18T08:34:41.289Z</time></trkpt><trkpt lat="58.37618667" lon="14.35170833"><ele>144.0</ele><time>2016-06-18T08:34:42.322Z</time></trkpt><trkpt lat="58.376275" lon="14.35170333"><ele>145.0</ele><time>2016-06-18T08:34:43.282Z</time></trkpt><trkpt lat="58.376275" lon="14.35170333"><ele>145.0</ele><time>2016-06-18T08:34:44.305Z</time></trkpt><trkpt lat="58.37645167" lon="14.3517"><ele>143.0</ele><time>2016-06-18T08:34:45.312Z</time></trkpt><trkpt lat="58.37645167" lon="14.3517"><ele>143.0</ele><time>2016-06-18T08:34:46.307Z</time></trkpt><trkpt lat="58.376625" lon="14.3517"><ele>143.0</ele><time>2016-06-18T08:34:47.285Z</time></trkpt><trkpt lat="58.376625" lon="14.3517"><ele>143.0</ele><time>2016-06-18T08:34:48.321Z</time></trkpt><trkpt lat="58.37681167" lon="14.35168333"><ele>141.0</ele><time>2016-06-18T08:34:49.288Z</time></trkpt><trkpt lat="58.37690667" lon="14.35167167"><ele>141.0</ele><time>2016-06-18T08:34:50.295Z</time></trkpt><trkpt lat="58.37690667" lon="14.35167167"><ele>141.0</ele><time>2016-06-18T08:34:51.316Z</time></trkpt><trkpt lat="58.37709667" lon="14.35167667"><ele>141.0</ele><time>2016-06-18T08:34:52.289Z</time></trkpt><trkpt lat="58.37719" lon="14.35167"><ele>141.0</ele><time>2016-06-18T08:34:53.320Z</time></trkpt><trkpt lat="58.37719" lon="14.35167"><ele>141.0</ele><time>2016-06-18T08:34:54.303Z</time></trkpt><trkpt lat="58.377375" lon="14.35166333"><ele>141.0</ele><time>2016-06-18T08:34:55.309Z</time></trkpt><trkpt lat="58.37746833" lon="14.351665"><ele>141.0</ele><time>2016-06-18T08:34:56.320Z</time></trkpt><trkpt lat="58.37746833" lon="14.351665"><ele>141.0</ele><time>2016-06-18T08:34:57.303Z</time></trkpt><trkpt lat="58.37764833" lon="14.35168833"><ele>141.0</ele><time>2016-06-18T08:34:58.309Z</time></trkpt><trkpt lat="58.37773833" lon="14.351695"><ele>141.0</ele><time>2016-06-18T08:34:59.320Z</time></trkpt><trkpt lat="58.37773833" lon="14.351695"><ele>141.0</ele><time>2016-06-18T08:35:00.301Z</time></trkpt><trkpt lat="58.37791833" lon="14.351705"><ele>142.0</ele><time>2016-06-18T08:35:01.308Z</time></trkpt><trkpt lat="58.37801333" lon="14.35170667"><ele>141.0</ele><time>2016-06-18T08:35:02.290Z</time></trkpt><trkpt lat="58.37801333" lon="14.35170667"><ele>141.0</ele><time>2016-06-18T08:35:03.303Z</time></trkpt><trkpt lat="58.378205" lon="14.35171333"><ele>141.0</ele><time>2016-06-18T08:35:04.325Z</time></trkpt><trkpt lat="58.37830167" lon="14.35172167"><ele>141.0</ele><time>2016-06-18T08:35:05.285Z</time></trkpt><trkpt lat="58.37830167" lon="14.35172167"><ele>141.0</ele><time>2016-06-18T08:35:06.308Z</time></trkpt><trkpt lat="58.37849667" lon="14.35172"><ele>141.0</ele><time>2016-06-18T08:35:07.314Z</time></trkpt><trkpt lat="58.37859" lon="14.35172167"><ele>142.0</ele><time>2016-06-18T08:35:08.312Z</time></trkpt><trkpt lat="58.37859" lon="14.35172167"><ele>142.0</ele><time>2016-06-18T08:35:09.314Z</time></trkpt><trkpt lat="58.37878167" lon="14.35171333"><ele>142.0</ele><time>2016-06-18T08:35:10.283Z</time></trkpt><trkpt lat="58.37878167" lon="14.35171333"><ele>142.0</ele><time>2016-06-18T08:35:11.287Z</time></trkpt><trkpt lat="58.37896667" lon="14.35171167"><ele>142.0</ele><time>2016-06-18T08:35:12.282Z</time></trkpt><trkpt lat="58.37905333" lon="14.35171667"><ele>142.0</ele><time>2016-06-18T08:35:13.310Z</time></trkpt><trkpt lat="58.37913333" lon="14.35171667"><ele>143.0</ele><time>2016-06-18T08:35:14.302Z</time></trkpt><trkpt lat="58.37913333" lon="14.35171667"><ele>143.0</ele><time>2016-06-18T08:35:15.310Z</time></trkpt><trkpt lat="58.37929167" lon="14.35171667"><ele>144.0</ele><time>2016-06-18T08:35:16.303Z</time></trkpt><trkpt lat="58.37929167" lon="14.35171667"><ele>144.0</ele><time>2016-06-18T08:35:17.312Z</time></trkpt><trkpt lat="58.379465" lon="14.35172"><ele>144.0</ele><time>2016-06-18T08:35:18.318Z</time></trkpt><trkpt lat="58.379465" lon="14.35172"><ele>144.0</ele><time>2016-06-18T08:35:19.298Z</time></trkpt><trkpt lat="58.37963833" lon="14.35172"><ele>144.0</ele><time>2016-06-18T08:35:20.282Z</time></trkpt><trkpt lat="58.37963833" lon="14.35172"><ele>144.0</ele><time>2016-06-18T08:35:21.299Z</time></trkpt><trkpt lat="58.379805" lon="14.35173"><ele>143.0</ele><time>2016-06-18T08:35:22.310Z</time></trkpt><trkpt lat="58.37989333" lon="14.35173167"><ele>143.0</ele><time>2016-06-18T08:35:23.287Z</time></trkpt><trkpt lat="58.37989333" lon="14.35173167"><ele>143.0</ele><time>2016-06-18T08:35:24.305Z</time></trkpt><trkpt lat="58.38006833" lon="14.351725"><ele>142.0</ele><time>2016-06-18T08:35:25.312Z</time></trkpt><trkpt lat="58.38015167" lon="14.35172667"><ele>141.0</ele><time>2016-06-18T08:35:26.291Z</time></trkpt><trkpt lat="58.38015167" lon="14.35172667"><ele>141.0</ele><time>2016-06-18T08:35:27.316Z</time></trkpt><trkpt lat="58.38031667" lon="14.35172167"><ele>140.0</ele><time>2016-06-18T08:35:28.284Z</time></trkpt><trkpt lat="58.38031667" lon="14.35172167"><ele>140.0</ele><time>2016-06-18T08:35:29.308Z</time></trkpt><trkpt lat="58.38048667" lon="14.35171833"><ele>139.0</ele><time>2016-06-18T08:35:30.288Z</time></trkpt><trkpt lat="58.38048667" lon="14.35171833"><ele>139.0</ele><time>2016-06-18T08:35:31.288Z</time></trkpt><trkpt lat="58.38066167" lon="14.35171833"><ele>138.0</ele><time>2016-06-18T08:35:32.295Z</time></trkpt><trkpt lat="58.38074833" lon="14.351715"><ele>138.0</ele><time>2016-06-18T08:35:33.297Z</time></trkpt><trkpt lat="58.38074833" lon="14.351715"><ele>138.0</ele><time>2016-06-18T08:35:34.301Z</time></trkpt><trkpt lat="58.38093333" lon="14.351705"><ele>138.0</ele><time>2016-06-18T08:35:35.308Z</time></trkpt><trkpt lat="58.38102833" lon="14.35170167"><ele>137.0</ele><time>2016-06-18T08:35:36.309Z</time></trkpt><trkpt lat="58.38102833" lon="14.35170167"><ele>137.0</ele><time>2016-06-18T08:35:37.291Z</time></trkpt><trkpt lat="58.38122167" lon="14.35170167"><ele>137.0</ele><time>2016-06-18T08:35:38.301Z</time></trkpt><trkpt lat="58.38122167" lon="14.35170167"><ele>137.0</ele><time>2016-06-18T08:35:39.300Z</time></trkpt><trkpt lat="58.381415" lon="14.35170333"><ele>137.0</ele><time>2016-06-18T08:35:40.307Z</time></trkpt><trkpt lat="58.381415" lon="14.35170333"><ele>137.0</ele><time>2016-06-18T08:35:41.290Z</time></trkpt><trkpt lat="58.38160167" lon="14.35169833"><ele>137.0</ele><time>2016-06-18T08:35:42.289Z</time></trkpt><trkpt lat="58.3817" lon="14.35169667"><ele>137.0</ele><time>2016-06-18T08:35:43.287Z</time></trkpt><trkpt lat="58.3817" lon="14.35169667"><ele>137.0</ele><time>2016-06-18T08:35:44.309Z</time></trkpt><trkpt lat="58.38188333" lon="14.35169667"><ele>137.0</ele><time>2016-06-18T08:35:45.302Z</time></trkpt><trkpt lat="58.38188333" lon="14.35169667"><ele>137.0</ele><time>2016-06-18T08:35:46.298Z</time></trkpt><trkpt lat="58.38206167" lon="14.351695"><ele>136.0</ele><time>2016-06-18T08:35:47.282Z</time></trkpt><trkpt lat="58.38206167" lon="14.351695"><ele>136.0</ele><time>2016-06-18T08:35:48.304Z</time></trkpt><trkpt lat="58.382245" lon="14.351695"><ele>136.0</ele><time>2016-06-18T08:35:49.290Z</time></trkpt><trkpt lat="58.382245" lon="14.351695"><ele>136.0</ele><time>2016-06-18T08:35:50.316Z</time></trkpt><trkpt lat="58.38242833" lon="14.35170167"><ele>136.0</ele><time>2016-06-18T08:35:51.283Z</time></trkpt><trkpt lat="58.38251667" lon="14.35170333"><ele>136.0</ele><time>2016-06-18T08:35:52.295Z</time></trkpt><trkpt lat="58.38260833" lon="14.35170167"><ele>136.0</ele><time>2016-06-18T08:35:53.291Z</time></trkpt><trkpt lat="58.38260833" lon="14.35170167"><ele>136.0</ele><time>2016-06-18T08:35:54.298Z</time></trkpt><trkpt lat="58.382795" lon="14.35171167"><ele>136.0</ele><time>2016-06-18T08:35:55.282Z</time></trkpt><trkpt lat="58.38289" lon="14.351715"><ele>136.0</ele><time>2016-06-18T08:35:56.304Z</time></trkpt><trkpt lat="58.38289" lon="14.351715"><ele>136.0</ele><time>2016-06-18T08:35:57.287Z</time></trkpt><trkpt lat="58.38308333" lon="14.35171667"><ele>136.0</ele><time>2016-06-18T08:35:58.302Z</time></trkpt><trkpt lat="58.38318167" lon="14.351715"><ele>136.0</ele><time>2016-06-18T08:35:59.284Z</time></trkpt><trkpt lat="58.38318167" lon="14.351715"><ele>136.0</ele><time>2016-06-18T08:36:00.305Z</time></trkpt><trkpt lat="58.38337667" lon="14.35171167"><ele>136.0</ele><time>2016-06-18T08:36:01.312Z</time></trkpt><trkpt lat="58.38347333" lon="14.35170667"><ele>136.0</ele><time>2016-06-18T08:36:02.311Z</time></trkpt><trkpt lat="58.38357" lon="14.35170167"><ele>136.0</ele><time>2016-06-18T08:36:03.283Z</time></trkpt><trkpt lat="58.38357" lon="14.35170167"><ele>136.0</ele><time>2016-06-18T08:36:04.304Z</time></trkpt><trkpt lat="58.38376833" lon="14.35169667"><ele>137.0</ele><time>2016-06-18T08:36:05.287Z</time></trkpt><trkpt lat="58.38376833" lon="14.35169667"><ele>137.0</ele><time>2016-06-18T08:36:06.306Z</time></trkpt><trkpt lat="58.38397333" lon="14.35171"><ele>136.0</ele><time>2016-06-18T08:36:07.313Z</time></trkpt><trkpt lat="58.38397333" lon="14.35171"><ele>136.0</ele><time>2016-06-18T08:36:08.296Z</time></trkpt><trkpt lat="58.38417667" lon="14.35172833"><ele>136.0</ele><time>2016-06-18T08:36:09.300Z</time></trkpt><trkpt lat="58.38417667" lon="14.35172833"><ele>136.0</ele><time>2016-06-18T08:36:10.311Z</time></trkpt><trkpt lat="58.38438167" lon="14.35173667"><ele>136.0</ele><time>2016-06-18T08:36:11.298Z</time></trkpt><trkpt lat="58.38438167" lon="14.35173667"><ele>136.0</ele><time>2016-06-18T08:36:12.310Z</time></trkpt><trkpt lat="58.38458" lon="14.35174"><ele>136.0</ele><time>2016-06-18T08:36:13.317Z</time></trkpt><trkpt lat="58.38458" lon="14.35174"><ele>136.0</ele><time>2016-06-18T08:36:14.302Z</time></trkpt><trkpt lat="58.38478" lon="14.35174167"><ele>136.0</ele><time>2016-06-18T08:36:15.286Z</time></trkpt><trkpt lat="58.38488167" lon="14.35174333"><ele>136.0</ele><time>2016-06-18T08:36:16.313Z</time></trkpt><trkpt lat="58.38488167" lon="14.35174333"><ele>136.0</ele><time>2016-06-18T08:36:17.300Z</time></trkpt><trkpt lat="58.38508" lon="14.35174167"><ele>135.0</ele><time>2016-06-18T08:36:18.307Z</time></trkpt><trkpt lat="58.38508" lon="14.35174167"><ele>135.0</ele><time>2016-06-18T08:36:19.320Z</time></trkpt><trkpt lat="58.38527167" lon="14.35174833"><ele>135.0</ele><time>2016-06-18T08:36:20.287Z</time></trkpt><trkpt lat="58.38536833" lon="14.35174667"><ele>135.0</ele><time>2016-06-18T08:36:21.324Z</time></trkpt><trkpt lat="58.38536833" lon="14.35174667"><ele>135.0</ele><time>2016-06-18T08:36:22.289Z</time></trkpt><trkpt lat="58.38556333" lon="14.35174833"><ele>135.0</ele><time>2016-06-18T08:36:23.282Z</time></trkpt><trkpt lat="58.38556333" lon="14.35174833"><ele>135.0</ele><time>2016-06-18T08:36:24.302Z</time></trkpt><trkpt lat="58.385755" lon="14.35175167"><ele>135.0</ele><time>2016-06-18T08:36:25.312Z</time></trkpt><trkpt lat="58.385855" lon="14.35175"><ele>135.0</ele><time>2016-06-18T08:36:26.291Z</time></trkpt><trkpt lat="58.385855" lon="14.35175"><ele>135.0</ele><time>2016-06-18T08:36:27.314Z</time></trkpt><trkpt lat="58.38605167" lon="14.35175667"><ele>135.0</ele><time>2016-06-18T08:36:28.286Z</time></trkpt><trkpt lat="58.38605167" lon="14.35175667"><ele>135.0</ele><time>2016-06-18T08:36:29.300Z</time></trkpt><trkpt lat="58.38625833" lon="14.351755"><ele>135.0</ele><time>2016-06-18T08:36:30.309Z</time></trkpt><trkpt lat="58.386365" lon="14.35175833"><ele>135.0</ele><time>2016-06-18T08:36:31.285Z</time></trkpt><trkpt lat="58.38647" lon="14.35176333"><ele>135.0</ele><time>2016-06-18T08:36:32.315Z</time></trkpt><trkpt lat="58.38647" lon="14.35176333"><ele>135.0</ele><time>2016-06-18T08:36:33.299Z</time></trkpt><trkpt lat="58.38668167" lon="14.35177"><ele>135.0</ele><time>2016-06-18T08:36:34.291Z</time></trkpt><trkpt lat="58.38668167" lon="14.35177"><ele>135.0</ele><time>2016-06-18T08:36:35.299Z</time></trkpt><trkpt lat="58.38689833" lon="14.35177833"><ele>136.0</ele><time>2016-06-18T08:36:36.308Z</time></trkpt><trkpt lat="58.38689833" lon="14.35177833"><ele>136.0</ele><time>2016-06-18T08:36:37.290Z</time></trkpt><trkpt lat="58.38711667" lon="14.35178333"><ele>136.0</ele><time>2016-06-18T08:36:38.304Z</time></trkpt><trkpt lat="58.38711667" lon="14.35178333"><ele>136.0</ele><time>2016-06-18T08:36:39.287Z</time></trkpt><trkpt lat="58.38733333" lon="14.35179833"><ele>135.0</ele><time>2016-06-18T08:36:40.307Z</time></trkpt><trkpt lat="58.38733333" lon="14.35179833"><ele>135.0</ele><time>2016-06-18T08:36:41.289Z</time></trkpt><trkpt lat="58.38754667" lon="14.351815"><ele>135.0</ele><time>2016-06-18T08:36:42.303Z</time></trkpt><trkpt lat="58.38754667" lon="14.351815"><ele>135.0</ele><time>2016-06-18T08:36:43.284Z</time></trkpt><trkpt lat="58.38775" lon="14.35183"><ele>135.0</ele><time>2016-06-18T08:36:44.291Z</time></trkpt><trkpt lat="58.38775" lon="14.35183"><ele>135.0</ele><time>2016-06-18T08:36:45.307Z</time></trkpt><trkpt lat="58.387955" lon="14.35185167"><ele>134.0</ele><time>2016-06-18T08:36:46.295Z</time></trkpt><trkpt lat="58.387955" lon="14.35185167"><ele>134.0</ele><time>2016-06-18T08:36:47.289Z</time></trkpt><trkpt lat="58.38815667" lon="14.35189"><ele>134.0</ele><time>2016-06-18T08:36:48.299Z</time></trkpt><trkpt lat="58.38825667" lon="14.35191167"><ele>134.0</ele><time>2016-06-18T08:36:49.291Z</time></trkpt><trkpt lat="58.38825667" lon="14.35191167"><ele>134.0</ele><time>2016-06-18T08:36:50.292Z</time></trkpt><trkpt lat="58.38845833" lon="14.35195667"><ele>134.0</ele><time>2016-06-18T08:36:51.299Z</time></trkpt><trkpt lat="58.38845833" lon="14.35195667"><ele>134.0</ele><time>2016-06-18T08:36:52.290Z</time></trkpt><trkpt lat="58.38865833" lon="14.35200167"><ele>133.0</ele><time>2016-06-18T08:36:53.304Z</time></trkpt><trkpt lat="58.38865833" lon="14.35200167"><ele>133.0</ele><time>2016-06-18T08:36:54.309Z</time></trkpt><trkpt lat="58.38886167" lon="14.35205333"><ele>133.0</ele><time>2016-06-18T08:36:55.320Z</time></trkpt><trkpt lat="58.38896667" lon="14.35208"><ele>133.0</ele><time>2016-06-18T08:36:56.286Z</time></trkpt><trkpt lat="58.38896667" lon="14.35208"><ele>133.0</ele><time>2016-06-18T08:36:57.308Z</time></trkpt><trkpt lat="58.38917667" lon="14.35213667"><ele>133.0</ele><time>2016-06-18T08:36:58.315Z</time></trkpt><trkpt lat="58.38917667" lon="14.35213667"><ele>133.0</ele><time>2016-06-18T08:36:59.287Z</time></trkpt><trkpt lat="58.38939167" lon="14.352195"><ele>132.0</ele><time>2016-06-18T08:37:00.294Z</time></trkpt><trkpt lat="58.38939167" lon="14.352195"><ele>132.0</ele><time>2016-06-18T08:37:01.311Z</time></trkpt><trkpt lat="58.3896" lon="14.35227333"><ele>132.0</ele><time>2016-06-18T08:37:02.298Z</time></trkpt><trkpt lat="58.3896" lon="14.35227333"><ele>132.0</ele><time>2016-06-18T08:37:03.308Z</time></trkpt><trkpt lat="58.389815" lon="14.352365"><ele>132.0</ele><time>2016-06-18T08:37:04.315Z</time></trkpt><trkpt lat="58.389925" lon="14.352415"><ele>132.0</ele><time>2016-06-18T08:37:05.300Z</time></trkpt><trkpt lat="58.389925" lon="14.352415"><ele>132.0</ele><time>2016-06-18T08:37:06.286Z</time></trkpt><trkpt lat="58.39014833" lon="14.35251333"><ele>132.0</ele><time>2016-06-18T08:37:07.293Z</time></trkpt><trkpt lat="58.39014833" lon="14.35251333"><ele>132.0</ele><time>2016-06-18T08:37:08.315Z</time></trkpt><trkpt lat="58.39036667" lon="14.35261667"><ele>132.0</ele><time>2016-06-18T08:37:09.286Z</time></trkpt><trkpt lat="58.39036667" lon="14.35261667"><ele>132.0</ele><time>2016-06-18T08:37:10.296Z</time></trkpt><trkpt lat="58.39058" lon="14.35272833"><ele>132.0</ele><time>2016-06-18T08:37:11.295Z</time></trkpt><trkpt lat="58.39068833" lon="14.35278667"><ele>132.0</ele><time>2016-06-18T08:37:12.300Z</time></trkpt><trkpt lat="58.39079333" lon="14.35284667"><ele>132.0</ele><time>2016-06-18T08:37:13.286Z</time></trkpt><trkpt lat="58.39079333" lon="14.35284667"><ele>132.0</ele><time>2016-06-18T08:37:14.308Z</time></trkpt><trkpt lat="58.391" lon="14.35297833"><ele>132.0</ele><time>2016-06-18T08:37:15.315Z</time></trkpt><trkpt lat="58.391" lon="14.35297833"><ele>132.0</ele><time>2016-06-18T08:37:16.309Z</time></trkpt><trkpt lat="58.3912" lon="14.35311"><ele>132.0</ele><time>2016-06-18T08:37:17.287Z</time></trkpt><trkpt lat="58.3912" lon="14.35311"><ele>132.0</ele><time>2016-06-18T08:37:18.298Z</time></trkpt><trkpt lat="58.39139167" lon="14.35324"><ele>132.0</ele><time>2016-06-18T08:37:19.308Z</time></trkpt><trkpt lat="58.39139167" lon="14.35324"><ele>132.0</ele><time>2016-06-18T08:37:20.291Z</time></trkpt><trkpt lat="58.39158" lon="14.35337"><ele>132.0</ele><time>2016-06-18T08:37:21.295Z</time></trkpt><trkpt lat="58.39158" lon="14.35337"><ele>132.0</ele><time>2016-06-18T08:37:22.290Z</time></trkpt><trkpt lat="58.39175667" lon="14.35349667"><ele>133.0</ele><time>2016-06-18T08:37:23.313Z</time></trkpt><trkpt lat="58.39175667" lon="14.35349667"><ele>133.0</ele><time>2016-06-18T08:37:24.283Z</time></trkpt><trkpt lat="58.39193167" lon="14.35363333"><ele>133.0</ele><time>2016-06-18T08:37:25.289Z</time></trkpt><trkpt lat="58.39202" lon="14.353695"><ele>133.0</ele><time>2016-06-18T08:37:26.285Z</time></trkpt><trkpt lat="58.39202" lon="14.353695"><ele>133.0</ele><time>2016-06-18T08:37:27.290Z</time></trkpt><trkpt lat="58.3922" lon="14.35381833"><ele>133.0</ele><time>2016-06-18T08:37:28.302Z</time></trkpt><trkpt lat="58.39228833" lon="14.35388667"><ele>133.0</ele><time>2016-06-18T08:37:29.285Z</time></trkpt><trkpt lat="58.39228833" lon="14.35388667"><ele>133.0</ele><time>2016-06-18T08:37:30.284Z</time></trkpt><trkpt lat="58.39246333" lon="14.35402"><ele>133.0</ele><time>2016-06-18T08:37:31.291Z</time></trkpt><trkpt lat="58.39255167" lon="14.35408667"><ele>134.0</ele><time>2016-06-18T08:37:32.313Z</time></trkpt><trkpt lat="58.39255167" lon="14.35408667"><ele>134.0</ele><time>2016-06-18T08:37:33.308Z</time></trkpt><trkpt lat="58.39273167" lon="14.35420833"><ele>134.0</ele><time>2016-06-18T08:37:34.282Z</time></trkpt><trkpt lat="58.39273167" lon="14.35420833"><ele>134.0</ele><time>2016-06-18T08:37:35.308Z</time></trkpt><trkpt lat="58.39291333" lon="14.35433333"><ele>134.0</ele><time>2016-06-18T08:37:36.287Z</time></trkpt><trkpt lat="58.393005" lon="14.354395"><ele>134.0</ele><time>2016-06-18T08:37:37.303Z</time></trkpt><trkpt lat="58.393005" lon="14.354395"><ele>134.0</ele><time>2016-06-18T08:37:38.286Z</time></trkpt><trkpt lat="58.39319167" lon="14.35453333"><ele>134.0</ele><time>2016-06-18T08:37:39.317Z</time></trkpt><trkpt lat="58.39328667" lon="14.35459833"><ele>134.0</ele><time>2016-06-18T08:37:40.299Z</time></trkpt><trkpt lat="58.39328667" lon="14.35459833"><ele>134.0</ele><time>2016-06-18T08:37:41.320Z</time></trkpt><trkpt lat="58.39346833" lon="14.354715"><ele>134.0</ele><time>2016-06-18T08:37:42.285Z</time></trkpt><trkpt lat="58.39346833" lon="14.354715"><ele>134.0</ele><time>2016-06-18T08:37:43.306Z</time></trkpt><trkpt lat="58.39364833" lon="14.35483667"><ele>134.0</ele><time>2016-06-18T08:37:44.313Z</time></trkpt><trkpt lat="58.39364833" lon="14.35483667"><ele>134.0</ele><time>2016-06-18T08:37:45.299Z</time></trkpt><trkpt lat="58.39382167" lon="14.35496"><ele>135.0</ele><time>2016-06-18T08:37:46.290Z</time></trkpt><trkpt lat="58.39382167" lon="14.35496"><ele>135.0</ele><time>2016-06-18T08:37:47.320Z</time></trkpt><trkpt lat="58.39399667" lon="14.35509167"><ele>135.0</ele><time>2016-06-18T08:37:48.287Z</time></trkpt><trkpt lat="58.39399667" lon="14.35509167"><ele>135.0</ele><time>2016-06-18T08:37:49.309Z</time></trkpt><trkpt lat="58.39417667" lon="14.35524"><ele>135.0</ele><time>2016-06-18T08:37:50.288Z</time></trkpt><trkpt lat="58.39417667" lon="14.35524"><ele>135.0</ele><time>2016-06-18T08:37:51.306Z</time></trkpt><trkpt lat="58.39434833" lon="14.355375"><ele>135.0</ele><time>2016-06-18T08:37:52.313Z</time></trkpt><trkpt lat="58.394435" lon="14.355445"><ele>135.0</ele><time>2016-06-18T08:37:53.311Z</time></trkpt><trkpt lat="58.394435" lon="14.355445"><ele>135.0</ele><time>2016-06-18T08:37:54.315Z</time></trkpt><trkpt lat="58.39461333" lon="14.35557"><ele>135.0</ele><time>2016-06-18T08:37:55.283Z</time></trkpt><trkpt lat="58.394705" lon="14.35563"><ele>134.0</ele><time>2016-06-18T08:37:56.299Z</time></trkpt><trkpt lat="58.394705" lon="14.35563"><ele>134.0</ele><time>2016-06-18T08:37:57.284Z</time></trkpt><trkpt lat="58.394895" lon="14.35575833"><ele>134.0</ele><time>2016-06-18T08:37:58.291Z</time></trkpt><trkpt lat="58.394895" lon="14.35575833"><ele>134.0</ele><time>2016-06-18T08:37:59.311Z</time></trkpt><trkpt lat="58.39509" lon="14.35588833"><ele>134.0</ele><time>2016-06-18T08:38:00.283Z</time></trkpt><trkpt lat="58.39509" lon="14.35588833"><ele>134.0</ele><time>2016-06-18T08:38:01.290Z</time></trkpt><trkpt lat="58.395285" lon="14.356025"><ele>134.0</ele><time>2016-06-18T08:38:02.300Z</time></trkpt><trkpt lat="58.395285" lon="14.356025"><ele>134.0</ele><time>2016-06-18T08:38:03.284Z</time></trkpt><trkpt lat="58.39548333" lon="14.35615167"><ele>133.0</ele><time>2016-06-18T08:38:04.296Z</time></trkpt><trkpt lat="58.39548333" lon="14.35615167"><ele>133.0</ele><time>2016-06-18T08:38:05.302Z</time></trkpt><trkpt lat="58.39567667" lon="14.35628333"><ele>133.0</ele><time>2016-06-18T08:38:06.309Z</time></trkpt><trkpt lat="58.39577167" lon="14.35635"><ele>133.0</ele><time>2016-06-18T08:38:07.287Z</time></trkpt><trkpt lat="58.395865" lon="14.356415"><ele>133.0</ele><time>2016-06-18T08:38:08.295Z</time></trkpt><trkpt lat="58.395865" lon="14.356415"><ele>133.0</ele><time>2016-06-18T08:38:09.317Z</time></trkpt><trkpt lat="58.39605167" lon="14.35653833"><ele>134.0</ele><time>2016-06-18T08:38:10.287Z</time></trkpt><trkpt lat="58.39605167" lon="14.35653833"><ele>134.0</ele><time>2016-06-18T08:38:11.294Z</time></trkpt><trkpt lat="58.39624333" lon="14.35666667"><ele>134.0</ele><time>2016-06-18T08:38:12.300Z</time></trkpt><trkpt lat="58.39624333" lon="14.35666667"><ele>134.0</ele><time>2016-06-18T08:38:13.284Z</time></trkpt><trkpt lat="58.39643833" lon="14.356795"><ele>134.0</ele><time>2016-06-18T08:38:14.291Z</time></trkpt><trkpt lat="58.396535" lon="14.35686333"><ele>134.0</ele><time>2016-06-18T08:38:15.288Z</time></trkpt><trkpt lat="58.396535" lon="14.35686333"><ele>134.0</ele><time>2016-06-18T08:38:16.300Z</time></trkpt><trkpt lat="58.39673167" lon="14.35699833"><ele>134.0</ele><time>2016-06-18T08:38:17.317Z</time></trkpt><trkpt lat="58.39683333" lon="14.357065"><ele>133.0</ele><time>2016-06-18T08:38:18.302Z</time></trkpt><trkpt lat="58.39683333" lon="14.357065"><ele>133.0</ele><time>2016-06-18T08:38:19.285Z</time></trkpt><trkpt lat="58.397035" lon="14.35720333"><ele>133.0</ele><time>2016-06-18T08:38:20.308Z</time></trkpt><trkpt lat="58.397035" lon="14.35720333"><ele>133.0</ele><time>2016-06-18T08:38:21.304Z</time></trkpt><trkpt lat="58.39723333" lon="14.357335"><ele>133.0</ele><time>2016-06-18T08:38:22.310Z</time></trkpt><trkpt lat="58.39723333" lon="14.357335"><ele>133.0</ele><time>2016-06-18T08:38:23.306Z</time></trkpt><trkpt lat="58.397425" lon="14.35746333"><ele>133.0</ele><time>2016-06-18T08:38:24.292Z</time></trkpt><trkpt lat="58.397425" lon="14.35746333"><ele>133.0</ele><time>2016-06-18T08:38:25.321Z</time></trkpt><trkpt lat="58.39761167" lon="14.35759"><ele>132.0</ele><time>2016-06-18T08:38:26.287Z</time></trkpt><trkpt lat="58.39770333" lon="14.35764333"><ele>132.0</ele><time>2016-06-18T08:38:27.285Z</time></trkpt><trkpt lat="58.39770333" lon="14.35764333"><ele>132.0</ele><time>2016-06-18T08:38:28.321Z</time></trkpt><trkpt lat="58.39788667" lon="14.35775833"><ele>131.0</ele><time>2016-06-18T08:38:29.288Z</time></trkpt><trkpt lat="58.39797833" lon="14.35781667"><ele>131.0</ele><time>2016-06-18T08:38:30.288Z</time></trkpt><trkpt lat="58.39807167" lon="14.35787333"><ele>131.0</ele><time>2016-06-18T08:38:31.295Z</time></trkpt><trkpt lat="58.39807167" lon="14.35787333"><ele>131.0</ele><time>2016-06-18T08:38:32.318Z</time></trkpt><trkpt lat="58.39825333" lon="14.358"><ele>131.0</ele><time>2016-06-18T08:38:33.298Z</time></trkpt><trkpt lat="58.39834333" lon="14.35807167"><ele>131.0</ele><time>2016-06-18T08:38:34.304Z</time></trkpt><trkpt lat="58.39834333" lon="14.35807167"><ele>131.0</ele><time>2016-06-18T08:38:35.310Z</time></trkpt><trkpt lat="58.398525" lon="14.35821"><ele>131.0</ele><time>2016-06-18T08:38:36.308Z</time></trkpt><trkpt lat="58.398525" lon="14.35821"><ele>131.0</ele><time>2016-06-18T08:38:37.292Z</time></trkpt><trkpt lat="58.39872" lon="14.358355"><ele>132.0</ele><time>2016-06-18T08:38:38.304Z</time></trkpt><trkpt lat="58.39872" lon="14.358355"><ele>132.0</ele><time>2016-06-18T08:38:39.306Z</time></trkpt><trkpt lat="58.39891667" lon="14.358495"><ele>132.0</ele><time>2016-06-18T08:38:40.313Z</time></trkpt><trkpt lat="58.39901" lon="14.35856"><ele>132.0</ele><time>2016-06-18T08:38:41.288Z</time></trkpt><trkpt lat="58.39910333" lon="14.35862833"><ele>132.0</ele><time>2016-06-18T08:38:42.301Z</time></trkpt><trkpt lat="58.39919667" lon="14.35869667"><ele>132.0</ele><time>2016-06-18T08:38:43.285Z</time></trkpt><trkpt lat="58.39919667" lon="14.35869667"><ele>132.0</ele><time>2016-06-18T08:38:44.307Z</time></trkpt><trkpt lat="58.39938667" lon="14.35883833"><ele>132.0</ele><time>2016-06-18T08:38:45.314Z</time></trkpt><trkpt lat="58.39938667" lon="14.35883833"><ele>132.0</ele><time>2016-06-18T08:38:46.284Z</time></trkpt><trkpt lat="58.39958333" lon="14.35898333"><ele>132.0</ele><time>2016-06-18T08:38:47.284Z</time></trkpt><trkpt lat="58.39958333" lon="14.35898333"><ele>132.0</ele><time>2016-06-18T08:38:48.284Z</time></trkpt><trkpt lat="58.39978667" lon="14.35912333"><ele>133.0</ele><time>2016-06-18T08:38:49.291Z</time></trkpt><trkpt lat="58.39989167" lon="14.35919667"><ele>133.0</ele><time>2016-06-18T08:38:50.292Z</time></trkpt><trkpt lat="58.39989167" lon="14.35919667"><ele>133.0</ele><time>2016-06-18T08:38:51.303Z</time></trkpt><trkpt lat="58.40009667" lon="14.359345"><ele>133.0</ele><time>2016-06-18T08:38:52.309Z</time></trkpt><trkpt lat="58.40009667" lon="14.359345"><ele>133.0</ele><time>2016-06-18T08:38:53.292Z</time></trkpt><trkpt lat="58.40030333" lon="14.35949167"><ele>132.0</ele><time>2016-06-18T08:38:54.296Z</time></trkpt><trkpt lat="58.40040333" lon="14.359565"><ele>132.0</ele><time>2016-06-18T08:38:55.291Z</time></trkpt><trkpt lat="58.40040333" lon="14.359565"><ele>132.0</ele><time>2016-06-18T08:38:56.313Z</time></trkpt><trkpt lat="58.40060333" lon="14.3597"><ele>132.0</ele><time>2016-06-18T08:38:57.298Z</time></trkpt><trkpt lat="58.40060333" lon="14.3597"><ele>132.0</ele><time>2016-06-18T08:38:58.311Z</time></trkpt><trkpt lat="58.40080333" lon="14.35983667"><ele>131.0</ele><time>2016-06-18T08:38:59.284Z</time></trkpt><trkpt lat="58.40090167" lon="14.35990333"><ele>131.0</ele><time>2016-06-18T08:39:00.320Z</time></trkpt><trkpt lat="58.40090167" lon="14.35990333"><ele>131.0</ele><time>2016-06-18T08:39:01.308Z</time></trkpt><trkpt lat="58.40109667" lon="14.36004333"><ele>131.0</ele><time>2016-06-18T08:39:02.315Z</time></trkpt><trkpt lat="58.40109667" lon="14.36004333"><ele>131.0</ele><time>2016-06-18T08:39:03.307Z</time></trkpt><trkpt lat="58.401295" lon="14.36017833"><ele>131.0</ele><time>2016-06-18T08:39:04.318Z</time></trkpt><trkpt lat="58.401295" lon="14.36017833"><ele>131.0</ele><time>2016-06-18T08:39:05.287Z</time></trkpt><trkpt lat="58.40149167" lon="14.36032"><ele>131.0</ele><time>2016-06-18T08:39:06.310Z</time></trkpt><trkpt lat="58.40149167" lon="14.36032"><ele>131.0</ele><time>2016-06-18T08:39:07.319Z</time></trkpt><trkpt lat="58.40169167" lon="14.36046333"><ele>131.0</ele><time>2016-06-18T08:39:08.285Z</time></trkpt><trkpt lat="58.40169167" lon="14.36046333"><ele>131.0</ele><time>2016-06-18T08:39:09.306Z</time></trkpt><trkpt lat="58.40188667" lon="14.36059333"><ele>130.0</ele><time>2016-06-18T08:39:10.308Z</time></trkpt><trkpt lat="58.40198167" lon="14.36065833"><ele>130.0</ele><time>2016-06-18T08:39:11.325Z</time></trkpt><trkpt lat="58.40198167" lon="14.36065833"><ele>130.0</ele><time>2016-06-18T08:39:12.319Z</time></trkpt><trkpt lat="58.40216833" lon="14.36079333"><ele>130.0</ele><time>2016-06-18T08:39:13.296Z</time></trkpt><trkpt lat="58.40226167" lon="14.36085333"><ele>130.0</ele><time>2016-06-18T08:39:14.318Z</time></trkpt><trkpt lat="58.40226167" lon="14.36085333"><ele>130.0</ele><time>2016-06-18T08:39:15.301Z</time></trkpt><trkpt lat="58.40244667" lon="14.36095833"><ele>129.0</ele><time>2016-06-18T08:39:16.309Z</time></trkpt><trkpt lat="58.40253833" lon="14.36102"><ele>129.0</ele><time>2016-06-18T08:39:17.310Z</time></trkpt><trkpt lat="58.40253833" lon="14.36102"><ele>129.0</ele><time>2016-06-18T08:39:18.293Z</time></trkpt><trkpt lat="58.402725" lon="14.36115167"><ele>129.0</ele><time>2016-06-18T08:39:19.302Z</time></trkpt><trkpt lat="58.40281667" lon="14.361225"><ele>129.0</ele><time>2016-06-18T08:39:20.286Z</time></trkpt><trkpt lat="58.40281667" lon="14.361225"><ele>129.0</ele><time>2016-06-18T08:39:21.299Z</time></trkpt><trkpt lat="58.40300667" lon="14.36137333"><ele>129.0</ele><time>2016-06-18T08:39:22.309Z</time></trkpt><trkpt lat="58.40300667" lon="14.36137333"><ele>129.0</ele><time>2016-06-18T08:39:23.292Z</time></trkpt><trkpt lat="58.40320333" lon="14.36149667"><ele>129.0</ele><time>2016-06-18T08:39:24.284Z</time></trkpt><trkpt lat="58.4033" lon="14.36156333"><ele>129.0</ele><time>2016-06-18T08:39:25.292Z</time></trkpt><trkpt lat="58.403395" lon="14.361635"><ele>130.0</ele><time>2016-06-18T08:39:26.314Z</time></trkpt><trkpt lat="58.403395" lon="14.361635"><ele>130.0</ele><time>2016-06-18T08:39:27.304Z</time></trkpt><trkpt lat="58.40358833" lon="14.36177"><ele>130.0</ele><time>2016-06-18T08:39:28.311Z</time></trkpt><trkpt lat="58.40358833" lon="14.36177"><ele>130.0</ele><time>2016-06-18T08:39:29.297Z</time></trkpt><trkpt lat="58.40377833" lon="14.36191167"><ele>130.0</ele><time>2016-06-18T08:39:30.298Z</time></trkpt><trkpt lat="58.40377833" lon="14.36191167"><ele>130.0</ele><time>2016-06-18T08:39:31.287Z</time></trkpt><trkpt lat="58.403965" lon="14.36204667"><ele>131.0</ele><time>2016-06-18T08:39:32.305Z</time></trkpt><trkpt lat="58.40405667" lon="14.36211667"><ele>131.0</ele><time>2016-06-18T08:39:33.317Z</time></trkpt><trkpt lat="58.40405667" lon="14.36211667"><ele>131.0</ele><time>2016-06-18T08:39:34.311Z</time></trkpt><trkpt lat="58.40424333" lon="14.36225667"><ele>131.0</ele><time>2016-06-18T08:39:35.317Z</time></trkpt><trkpt lat="58.404335" lon="14.36233"><ele>131.0</ele><time>2016-06-18T08:39:36.298Z</time></trkpt><trkpt lat="58.404335" lon="14.36233"><ele>131.0</ele><time>2016-06-18T08:39:37.286Z</time></trkpt><trkpt lat="58.40452667" lon="14.36246333"><ele>131.0</ele><time>2016-06-18T08:39:38.292Z</time></trkpt><trkpt lat="58.40452667" lon="14.36246333"><ele>131.0</ele><time>2016-06-18T08:39:39.314Z</time></trkpt><trkpt lat="58.404715" lon="14.36260833"><ele>131.0</ele><time>2016-06-18T08:39:40.287Z</time></trkpt><trkpt lat="58.404715" lon="14.36260833"><ele>131.0</ele><time>2016-06-18T08:39:41.290Z</time></trkpt><trkpt lat="58.40490333" lon="14.36276333"><ele>131.0</ele><time>2016-06-18T08:39:42.306Z</time></trkpt><trkpt lat="58.40499667" lon="14.36284"><ele>131.0</ele><time>2016-06-18T08:39:43.318Z</time></trkpt><trkpt lat="58.40499667" lon="14.36284"><ele>131.0</ele><time>2016-06-18T08:39:44.294Z</time></trkpt><trkpt lat="58.40517167" lon="14.363005"><ele>132.0</ele><time>2016-06-18T08:39:45.301Z</time></trkpt><trkpt lat="58.40526" lon="14.36308333"><ele>132.0</ele><time>2016-06-18T08:39:46.314Z</time></trkpt><trkpt lat="58.40526" lon="14.36308333"><ele>132.0</ele><time>2016-06-18T08:39:47.310Z</time></trkpt><trkpt lat="58.40542833" lon="14.36323333"><ele>132.0</ele><time>2016-06-18T08:39:48.317Z</time></trkpt><trkpt lat="58.40542833" lon="14.36323333"><ele>132.0</ele><time>2016-06-18T08:39:49.310Z</time></trkpt><trkpt lat="58.40559667" lon="14.36338333"><ele>132.0</ele><time>2016-06-18T08:39:50.287Z</time></trkpt><trkpt lat="58.40559667" lon="14.36338333"><ele>132.0</ele><time>2016-06-18T08:39:51.314Z</time></trkpt><trkpt lat="58.40577333" lon="14.36352167"><ele>132.0</ele><time>2016-06-18T08:39:52.321Z</time></trkpt><trkpt lat="58.40586167" lon="14.36359667"><ele>132.0</ele><time>2016-06-18T08:39:53.282Z</time></trkpt><trkpt lat="58.40586167" lon="14.36359667"><ele>132.0</ele><time>2016-06-18T08:39:54.287Z</time></trkpt><trkpt lat="58.40604167" lon="14.36377167"><ele>132.0</ele><time>2016-06-18T08:39:55.294Z</time></trkpt><trkpt lat="58.40612667" lon="14.36386"><ele>132.0</ele><time>2016-06-18T08:39:56.288Z</time></trkpt><trkpt lat="58.40612667" lon="14.36386"><ele>132.0</ele><time>2016-06-18T08:39:57.299Z</time></trkpt><trkpt lat="58.40630667" lon="14.36405333"><ele>132.0</ele><time>2016-06-18T08:39:58.307Z</time></trkpt><trkpt lat="58.40639667" lon="14.364145"><ele>132.0</ele><time>2016-06-18T08:39:59.318Z</time></trkpt><trkpt lat="58.40639667" lon="14.364145"><ele>132.0</ele><time>2016-06-18T08:40:00.314Z</time></trkpt><trkpt lat="58.40657333" lon="14.36433833"><ele>132.0</ele><time>2016-06-18T08:40:01.321Z</time></trkpt><trkpt lat="58.406665" lon="14.36443667"><ele>132.0</ele><time>2016-06-18T08:40:02.287Z</time></trkpt><trkpt lat="58.406665" lon="14.36443667"><ele>132.0</ele><time>2016-06-18T08:40:03.290Z</time></trkpt><trkpt lat="58.40684" lon="14.36463333"><ele>133.0</ele><time>2016-06-18T08:40:04.300Z</time></trkpt><trkpt lat="58.40684" lon="14.36463333"><ele>133.0</ele><time>2016-06-18T08:40:05.285Z</time></trkpt><trkpt lat="58.40700667" lon="14.36482167"><ele>133.0</ele><time>2016-06-18T08:40:06.287Z</time></trkpt><trkpt lat="58.40700667" lon="14.36482167"><ele>133.0</ele><time>2016-06-18T08:40:07.312Z</time></trkpt><trkpt lat="58.40716833" lon="14.36501833"><ele>133.0</ele><time>2016-06-18T08:40:08.318Z</time></trkpt><trkpt lat="58.40716833" lon="14.36501833"><ele>133.0</ele><time>2016-06-18T08:40:09.310Z</time></trkpt><trkpt lat="58.407335" lon="14.36522667"><ele>133.0</ele><time>2016-06-18T08:40:10.286Z</time></trkpt><trkpt lat="58.407335" lon="14.36522667"><ele>133.0</ele><time>2016-06-18T08:40:11.298Z</time></trkpt><trkpt lat="58.40750167" lon="14.365435"><ele>134.0</ele><time>2016-06-18T08:40:12.303Z</time></trkpt><trkpt lat="58.40750167" lon="14.365435"><ele>134.0</ele><time>2016-06-18T08:40:13.290Z</time></trkpt><trkpt lat="58.407665" lon="14.36565"><ele>134.0</ele><time>2016-06-18T08:40:14.308Z</time></trkpt><trkpt lat="58.407745" lon="14.36576"><ele>134.0</ele><time>2016-06-18T08:40:15.310Z</time></trkpt><trkpt lat="58.407745" lon="14.36576"><ele>134.0</ele><time>2016-06-18T08:40:16.293Z</time></trkpt><trkpt lat="58.407905" lon="14.36596667"><ele>135.0</ele><time>2016-06-18T08:40:17.318Z</time></trkpt><trkpt lat="58.407905" lon="14.36596667"><ele>135.0</ele><time>2016-06-18T08:40:18.307Z</time></trkpt><trkpt lat="58.40805333" lon="14.36618333"><ele>135.0</ele><time>2016-06-18T08:40:19.314Z</time></trkpt><trkpt lat="58.40812833" lon="14.36629167"><ele>135.0</ele><time>2016-06-18T08:40:20.314Z</time></trkpt><trkpt lat="58.40812833" lon="14.36629167"><ele>135.0</ele><time>2016-06-18T08:40:21.293Z</time></trkpt><trkpt lat="58.40827833" lon="14.36649833"><ele>136.0</ele><time>2016-06-18T08:40:22.300Z</time></trkpt><trkpt lat="58.40827833" lon="14.36649833"><ele>136.0</ele><time>2016-06-18T08:40:23.285Z</time></trkpt><trkpt lat="58.408435" lon="14.36672"><ele>136.0</ele><time>2016-06-18T08:40:24.286Z</time></trkpt><trkpt lat="58.408435" lon="14.36672"><ele>136.0</ele><time>2016-06-18T08:40:25.282Z</time></trkpt><trkpt lat="58.40858833" lon="14.366945"><ele>137.0</ele><time>2016-06-18T08:40:26.289Z</time></trkpt><trkpt lat="58.40858833" lon="14.366945"><ele>137.0</ele><time>2016-06-18T08:40:27.313Z</time></trkpt><trkpt lat="58.408745" lon="14.36717333"><ele>137.0</ele><time>2016-06-18T08:40:28.299Z</time></trkpt><trkpt lat="58.408745" lon="14.36717333"><ele>137.0</ele><time>2016-06-18T08:40:29.317Z</time></trkpt><trkpt lat="58.40890167" lon="14.36742167"><ele>137.0</ele><time>2016-06-18T08:40:30.284Z</time></trkpt><trkpt lat="58.40898" lon="14.36754833"><ele>137.0</ele><time>2016-06-18T08:40:31.294Z</time></trkpt><trkpt lat="58.40906" lon="14.367675"><ele>137.0</ele><time>2016-06-18T08:40:32.304Z</time></trkpt><trkpt lat="58.40906" lon="14.367675"><ele>137.0</ele><time>2016-06-18T08:40:33.285Z</time></trkpt><trkpt lat="58.40922167" lon="14.36793333"><ele>137.0</ele><time>2016-06-18T08:40:34.308Z</time></trkpt><trkpt lat="58.40929833" lon="14.368065"><ele>137.0</ele><time>2016-06-18T08:40:35.311Z</time></trkpt><trkpt lat="58.40929833" lon="14.368065"><ele>137.0</ele><time>2016-06-18T08:40:36.302Z</time></trkpt><trkpt lat="58.40945833" lon="14.36832167"><ele>138.0</ele><time>2016-06-18T08:40:37.317Z</time></trkpt><trkpt lat="58.409535" lon="14.36844667"><ele>138.0</ele><time>2016-06-18T08:40:38.305Z</time></trkpt><trkpt lat="58.409535" lon="14.36844667"><ele>138.0</ele><time>2016-06-18T08:40:39.289Z</time></trkpt><trkpt lat="58.40968833" lon="14.36870167"><ele>138.0</ele><time>2016-06-18T08:40:40.287Z</time></trkpt><trkpt lat="58.40968833" lon="14.36870167"><ele>138.0</ele><time>2016-06-18T08:40:41.283Z</time></trkpt><trkpt lat="58.40983333" lon="14.36896833"><ele>138.0</ele><time>2016-06-18T08:40:42.290Z</time></trkpt><trkpt lat="58.40983333" lon="14.36896833"><ele>138.0</ele><time>2016-06-18T08:40:43.313Z</time></trkpt><trkpt lat="58.40998167" lon="14.36922667"><ele>138.0</ele><time>2016-06-18T08:40:44.299Z</time></trkpt><trkpt lat="58.40998167" lon="14.36922667"><ele>138.0</ele><time>2016-06-18T08:40:45.290Z</time></trkpt><trkpt lat="58.41012833" lon="14.36949833"><ele>138.0</ele><time>2016-06-18T08:40:46.284Z</time></trkpt><trkpt lat="58.41012833" lon="14.36949833"><ele>138.0</ele><time>2016-06-18T08:40:47.310Z</time></trkpt><trkpt lat="58.410275" lon="14.369775"><ele>138.0</ele><time>2016-06-18T08:40:48.326Z</time></trkpt><trkpt lat="58.410275" lon="14.369775"><ele>138.0</ele><time>2016-06-18T08:40:49.290Z</time></trkpt><trkpt lat="58.41042667" lon="14.37004833"><ele>138.0</ele><time>2016-06-18T08:40:50.303Z</time></trkpt><trkpt lat="58.41042667" lon="14.37004833"><ele>138.0</ele><time>2016-06-18T08:40:51.289Z</time></trkpt><trkpt lat="58.41057167" lon="14.37032167"><ele>138.0</ele><time>2016-06-18T08:40:52.314Z</time></trkpt><trkpt lat="58.41057167" lon="14.37032167"><ele>138.0</ele><time>2016-06-18T08:40:53.304Z</time></trkpt><trkpt lat="58.410715" lon="14.37060333"><ele>138.0</ele><time>2016-06-18T08:40:54.315Z</time></trkpt><trkpt lat="58.410785" lon="14.37074167"><ele>138.0</ele><time>2016-06-18T08:40:55.318Z</time></trkpt><trkpt lat="58.410785" lon="14.37074167"><ele>138.0</ele><time>2016-06-18T08:40:56.309Z</time></trkpt><trkpt lat="58.41092333" lon="14.37101333"><ele>138.0</ele><time>2016-06-18T08:40:57.282Z</time></trkpt><trkpt lat="58.41099333" lon="14.37115333"><ele>138.0</ele><time>2016-06-18T08:40:58.316Z</time></trkpt><trkpt lat="58.41106167" lon="14.37128833"><ele>138.0</ele><time>2016-06-18T08:40:59.292Z</time></trkpt><trkpt lat="58.41113333" lon="14.37142333"><ele>138.0</ele><time>2016-06-18T08:41:00.320Z</time></trkpt><trkpt lat="58.41113333" lon="14.37142333"><ele>138.0</ele><time>2016-06-18T08:41:01.304Z</time></trkpt><trkpt lat="58.41127333" lon="14.37170667"><ele>137.0</ele><time>2016-06-18T08:41:02.314Z</time></trkpt><trkpt lat="58.41127333" lon="14.37170667"><ele>137.0</ele><time>2016-06-18T08:41:03.303Z</time></trkpt><trkpt lat="58.41140833" lon="14.37199667"><ele>137.0</ele><time>2016-06-18T08:41:04.308Z</time></trkpt><trkpt lat="58.41140833" lon="14.37199667"><ele>137.0</ele><time>2016-06-18T08:41:05.303Z</time></trkpt><trkpt lat="58.41155167" lon="14.37230333"><ele>136.0</ele><time>2016-06-18T08:41:06.311Z</time></trkpt><trkpt lat="58.41155167" lon="14.37230333"><ele>136.0</ele><time>2016-06-18T08:41:07.294Z</time></trkpt><trkpt lat="58.41168667" lon="14.37261333"><ele>136.0</ele><time>2016-06-18T08:41:08.298Z</time></trkpt><trkpt lat="58.41168667" lon="14.37261333"><ele>136.0</ele><time>2016-06-18T08:41:09.309Z</time></trkpt><trkpt lat="58.41183167" lon="14.37290833"><ele>135.0</ele><time>2016-06-18T08:41:10.316Z</time></trkpt><trkpt lat="58.41183167" lon="14.37290833"><ele>135.0</ele><time>2016-06-18T08:41:11.298Z</time></trkpt><trkpt lat="58.41196667" lon="14.37321"><ele>134.0</ele><time>2016-06-18T08:41:12.316Z</time></trkpt><trkpt lat="58.412035" lon="14.37336"><ele>134.0</ele><time>2016-06-18T08:41:13.310Z</time></trkpt><trkpt lat="58.41210333" lon="14.37351667"><ele>134.0</ele><time>2016-06-18T08:41:14.294Z</time></trkpt><trkpt lat="58.41210333" lon="14.37351667"><ele>134.0</ele><time>2016-06-18T08:41:15.316Z</time></trkpt><trkpt lat="58.41224667" lon="14.37382833"><ele>133.0</ele><time>2016-06-18T08:41:16.285Z</time></trkpt><trkpt lat="58.412315" lon="14.37398167"><ele>133.0</ele><time>2016-06-18T08:41:17.306Z</time></trkpt><trkpt lat="58.412315" lon="14.37398167"><ele>133.0</ele><time>2016-06-18T08:41:18.310Z</time></trkpt><trkpt lat="58.41245333" lon="14.37427833"><ele>132.0</ele><time>2016-06-18T08:41:19.317Z</time></trkpt><trkpt lat="58.41252" lon="14.37442167"><ele>132.0</ele><time>2016-06-18T08:41:20.287Z</time></trkpt><trkpt lat="58.41252" lon="14.37442167"><ele>132.0</ele><time>2016-06-18T08:41:21.294Z</time></trkpt><trkpt lat="58.41265333" lon="14.37471333"><ele>132.0</ele><time>2016-06-18T08:41:22.303Z</time></trkpt><trkpt lat="58.41272333" lon="14.37486"><ele>131.0</ele><time>2016-06-18T08:41:23.296Z</time></trkpt><trkpt lat="58.41272333" lon="14.37486"><ele>131.0</ele><time>2016-06-18T08:41:24.320Z</time></trkpt><trkpt lat="58.412865" lon="14.37513833"><ele>131.0</ele><time>2016-06-18T08:41:25.286Z</time></trkpt><trkpt lat="58.41293833" lon="14.37526333"><ele>131.0</ele><time>2016-06-18T08:41:26.303Z</time></trkpt><trkpt lat="58.41293833" lon="14.37526333"><ele>131.0</ele><time>2016-06-18T08:41:27.312Z</time></trkpt><trkpt lat="58.41308667" lon="14.37550667"><ele>131.0</ele><time>2016-06-18T08:41:28.317Z</time></trkpt><trkpt lat="58.413165" lon="14.37563"><ele>131.0</ele><time>2016-06-18T08:41:29.314Z</time></trkpt><trkpt lat="58.413165" lon="14.37563"><ele>131.0</ele><time>2016-06-18T08:41:30.305Z</time></trkpt><trkpt lat="58.41333333" lon="14.37586333"><ele>132.0</ele><time>2016-06-18T08:41:31.312Z</time></trkpt><trkpt lat="58.41341833" lon="14.37597667"><ele>132.0</ele><time>2016-06-18T08:41:32.308Z</time></trkpt><trkpt lat="58.41341833" lon="14.37597667"><ele>132.0</ele><time>2016-06-18T08:41:33.307Z</time></trkpt><trkpt lat="58.41359667" lon="14.37620167"><ele>132.0</ele><time>2016-06-18T08:41:34.318Z</time></trkpt><trkpt lat="58.41368833" lon="14.37631167"><ele>132.0</ele><time>2016-06-18T08:41:35.287Z</time></trkpt><trkpt lat="58.41368833" lon="14.37631167"><ele>132.0</ele><time>2016-06-18T08:41:36.314Z</time></trkpt><trkpt lat="58.41387" lon="14.37651667"><ele>132.0</ele><time>2016-06-18T08:41:37.320Z</time></trkpt><trkpt lat="58.41396167" lon="14.37662333"><ele>133.0</ele><time>2016-06-18T08:41:38.287Z</time></trkpt><trkpt lat="58.41396167" lon="14.37662333"><ele>133.0</ele><time>2016-06-18T08:41:39.286Z</time></trkpt><trkpt lat="58.41416" lon="14.37682667"><ele>132.0</ele><time>2016-06-18T08:41:40.292Z</time></trkpt><trkpt lat="58.41426" lon="14.37692167"><ele>132.0</ele><time>2016-06-18T08:41:41.298Z</time></trkpt><trkpt lat="58.41426" lon="14.37692167"><ele>132.0</ele><time>2016-06-18T08:41:42.300Z</time></trkpt><trkpt lat="58.41447333" lon="14.377095"><ele>131.0</ele><time>2016-06-18T08:41:43.314Z</time></trkpt><trkpt lat="58.41458" lon="14.377175"><ele>131.0</ele><time>2016-06-18T08:41:44.318Z</time></trkpt><trkpt lat="58.41458" lon="14.377175"><ele>131.0</ele><time>2016-06-18T08:41:45.314Z</time></trkpt><trkpt lat="58.41478667" lon="14.377345"><ele>131.0</ele><time>2016-06-18T08:41:46.322Z</time></trkpt><trkpt lat="58.41489167" lon="14.37743167"><ele>130.0</ele><time>2016-06-18T08:41:47.313Z</time></trkpt><trkpt lat="58.41489167" lon="14.37743167"><ele>130.0</ele><time>2016-06-18T08:41:48.307Z</time></trkpt><trkpt lat="58.4151" lon="14.37760167"><ele>130.0</ele><time>2016-06-18T08:41:49.315Z</time></trkpt><trkpt lat="58.4152" lon="14.37768"><ele>130.0</ele><time>2016-06-18T08:41:50.288Z</time></trkpt><trkpt lat="58.4152" lon="14.37768"><ele>130.0</ele><time>2016-06-18T08:41:51.283Z</time></trkpt><trkpt lat="58.41539833" lon="14.37783"><ele>129.0</ele><time>2016-06-18T08:41:52.290Z</time></trkpt><trkpt lat="58.41549667" lon="14.37791333"><ele>129.0</ele><time>2016-06-18T08:41:53.307Z</time></trkpt><trkpt lat="58.41549667" lon="14.37791333"><ele>129.0</ele><time>2016-06-18T08:41:54.313Z</time></trkpt><trkpt lat="58.41569" lon="14.3781"><ele>129.0</ele><time>2016-06-18T08:41:55.320Z</time></trkpt><trkpt lat="58.41579333" lon="14.37819"><ele>129.0</ele><time>2016-06-18T08:41:56.298Z</time></trkpt><trkpt lat="58.41579333" lon="14.37819"><ele>129.0</ele><time>2016-06-18T08:41:57.303Z</time></trkpt><trkpt lat="58.41599667" lon="14.37835833"><ele>128.0</ele><time>2016-06-18T08:41:58.310Z</time></trkpt><trkpt lat="58.41609833" lon="14.378445"><ele>128.0</ele><time>2016-06-18T08:41:59.298Z</time></trkpt><trkpt lat="58.41609833" lon="14.378445"><ele>128.0</ele><time>2016-06-18T08:42:00.320Z</time></trkpt><trkpt lat="58.41629" lon="14.37863333"><ele>129.0</ele><time>2016-06-18T08:42:01.286Z</time></trkpt><trkpt lat="58.41638167" lon="14.37872333"><ele>129.0</ele><time>2016-06-18T08:42:02.318Z</time></trkpt><trkpt lat="58.41638167" lon="14.37872333"><ele>129.0</ele><time>2016-06-18T08:42:03.311Z</time></trkpt><trkpt lat="58.41655333" lon="14.37888167"><ele>129.0</ele><time>2016-06-18T08:42:04.318Z</time></trkpt><trkpt lat="58.41655333" lon="14.37888167"><ele>129.0</ele><time>2016-06-18T08:42:05.311Z</time></trkpt><trkpt lat="58.41672167" lon="14.37904333"><ele>130.0</ele><time>2016-06-18T08:42:06.298Z</time></trkpt><trkpt lat="58.41672167" lon="14.37904333"><ele>130.0</ele><time>2016-06-18T08:42:07.287Z</time></trkpt><trkpt lat="58.41687667" lon="14.37920667"><ele>131.0</ele><time>2016-06-18T08:42:08.294Z</time></trkpt><trkpt lat="58.41687667" lon="14.37920667"><ele>131.0</ele><time>2016-06-18T08:42:09.315Z</time></trkpt><trkpt lat="58.41703333" lon="14.37936833"><ele>132.0</ele><time>2016-06-18T08:42:10.287Z</time></trkpt><trkpt lat="58.41703333" lon="14.37936833"><ele>132.0</ele><time>2016-06-18T08:42:11.298Z</time></trkpt><trkpt lat="58.41719167" lon="14.37953167"><ele>133.0</ele><time>2016-06-18T08:42:12.309Z</time></trkpt><trkpt lat="58.41727333" lon="14.37961"><ele>134.0</ele><time>2016-06-18T08:42:13.293Z</time></trkpt><trkpt lat="58.41727333" lon="14.37961"><ele>134.0</ele><time>2016-06-18T08:42:14.315Z</time></trkpt><trkpt lat="58.41743167" lon="14.37979667"><ele>135.0</ele><time>2016-06-18T08:42:15.308Z</time></trkpt><trkpt lat="58.41743167" lon="14.37979667"><ele>135.0</ele><time>2016-06-18T08:42:16.314Z</time></trkpt><trkpt lat="58.41758667" lon="14.37999167"><ele>135.0</ele><time>2016-06-18T08:42:17.286Z</time></trkpt><trkpt lat="58.41758667" lon="14.37999167"><ele>135.0</ele><time>2016-06-18T08:42:18.312Z</time></trkpt><trkpt lat="58.417745" lon="14.38017167"><ele>136.0</ele><time>2016-06-18T08:42:19.296Z</time></trkpt><trkpt lat="58.417745" lon="14.38017167"><ele>136.0</ele><time>2016-06-18T08:42:20.308Z</time></trkpt><trkpt lat="58.41790167" lon="14.38034167"><ele>136.0</ele><time>2016-06-18T08:42:21.315Z</time></trkpt><trkpt lat="58.41790167" lon="14.38034167"><ele>136.0</ele><time>2016-06-18T08:42:22.302Z</time></trkpt><trkpt lat="58.41805667" lon="14.38051"><ele>136.0</ele><time>2016-06-18T08:42:23.286Z</time></trkpt><trkpt lat="58.41805667" lon="14.38051"><ele>136.0</ele><time>2016-06-18T08:42:24.311Z</time></trkpt><trkpt lat="58.41822" lon="14.38069"><ele>136.0</ele><time>2016-06-18T08:42:25.318Z</time></trkpt><trkpt lat="58.41830167" lon="14.38077833"><ele>136.0</ele><time>2016-06-18T08:42:26.301Z</time></trkpt><trkpt lat="58.41830167" lon="14.38077833"><ele>136.0</ele><time>2016-06-18T08:42:27.307Z</time></trkpt><trkpt lat="58.41846667" lon="14.380955"><ele>135.0</ele><time>2016-06-18T08:42:28.313Z</time></trkpt><trkpt lat="58.41855333" lon="14.38105167"><ele>135.0</ele><time>2016-06-18T08:42:29.298Z</time></trkpt><trkpt lat="58.41855333" lon="14.38105167"><ele>135.0</ele><time>2016-06-18T08:42:30.293Z</time></trkpt><trkpt lat="58.41872333" lon="14.38125833"><ele>134.0</ele><time>2016-06-18T08:42:31.306Z</time></trkpt><trkpt lat="58.41881" lon="14.38136167"><ele>134.0</ele><time>2016-06-18T08:42:32.308Z</time></trkpt><trkpt lat="58.41881" lon="14.38136167"><ele>134.0</ele><time>2016-06-18T08:42:33.310Z</time></trkpt><trkpt lat="58.41897833" lon="14.38157333"><ele>134.0</ele><time>2016-06-18T08:42:34.316Z</time></trkpt><trkpt lat="58.41906167" lon="14.38167833"><ele>133.0</ele><time>2016-06-18T08:42:35.316Z</time></trkpt><trkpt lat="58.41906167" lon="14.38167833"><ele>133.0</ele><time>2016-06-18T08:42:36.301Z</time></trkpt><trkpt lat="58.41922" lon="14.38188833"><ele>133.0</ele><time>2016-06-18T08:42:37.310Z</time></trkpt><trkpt lat="58.4193" lon="14.381995"><ele>133.0</ele><time>2016-06-18T08:42:38.285Z</time></trkpt><trkpt lat="58.4193" lon="14.381995"><ele>133.0</ele><time>2016-06-18T08:42:39.308Z</time></trkpt><trkpt lat="58.41945833" lon="14.38221333"><ele>132.0</ele><time>2016-06-18T08:42:40.287Z</time></trkpt><trkpt lat="58.41945833" lon="14.38221333"><ele>132.0</ele><time>2016-06-18T08:42:41.282Z</time></trkpt><trkpt lat="58.41961833" lon="14.38244167"><ele>132.0</ele><time>2016-06-18T08:42:42.289Z</time></trkpt><trkpt lat="58.41969667" lon="14.38255333"><ele>132.0</ele><time>2016-06-18T08:42:43.306Z</time></trkpt><trkpt lat="58.41969667" lon="14.38255333"><ele>132.0</ele><time>2016-06-18T08:42:44.314Z</time></trkpt><trkpt lat="58.419855" lon="14.38276667"><ele>132.0</ele><time>2016-06-18T08:42:45.296Z</time></trkpt><trkpt lat="58.419855" lon="14.38276667"><ele>132.0</ele><time>2016-06-18T08:42:46.307Z</time></trkpt><trkpt lat="58.42" lon="14.38297667"><ele>132.0</ele><time>2016-06-18T08:42:47.313Z</time></trkpt><trkpt lat="58.42007667" lon="14.38309167"><ele>132.0</ele><time>2016-06-18T08:42:48.300Z</time></trkpt><trkpt lat="58.42007667" lon="14.38309167"><ele>132.0</ele><time>2016-06-18T08:42:49.321Z</time></trkpt><trkpt lat="58.42022833" lon="14.38333333"><ele>132.0</ele><time>2016-06-18T08:42:50.294Z</time></trkpt><trkpt lat="58.420305" lon="14.38345833"><ele>132.0</ele><time>2016-06-18T08:42:51.298Z</time></trkpt><trkpt lat="58.420305" lon="14.38345833"><ele>132.0</ele><time>2016-06-18T08:42:52.290Z</time></trkpt><trkpt lat="58.42046167" lon="14.383715"><ele>132.0</ele><time>2016-06-18T08:42:53.311Z</time></trkpt><trkpt lat="58.42046167" lon="14.383715"><ele>132.0</ele><time>2016-06-18T08:42:54.294Z</time></trkpt><trkpt lat="58.42062167" lon="14.38397"><ele>132.0</ele><time>2016-06-18T08:42:55.309Z</time></trkpt><trkpt lat="58.42062167" lon="14.38397"><ele>132.0</ele><time>2016-06-18T08:42:56.286Z</time></trkpt><trkpt lat="58.42078667" lon="14.38424333"><ele>132.0</ele><time>2016-06-18T08:42:57.292Z</time></trkpt><trkpt lat="58.42086833" lon="14.384365"><ele>132.0</ele><time>2016-06-18T08:42:58.303Z</time></trkpt><trkpt lat="58.42086833" lon="14.384365"><ele>132.0</ele><time>2016-06-18T08:42:59.287Z</time></trkpt><trkpt lat="58.42103" lon="14.38462833"><ele>132.0</ele><time>2016-06-18T08:43:00.317Z</time></trkpt><trkpt lat="58.421115" lon="14.384765"><ele>132.0</ele><time>2016-06-18T08:43:01.286Z</time></trkpt><trkpt lat="58.421115" lon="14.384765"><ele>132.0</ele><time>2016-06-18T08:43:02.287Z</time></trkpt><trkpt lat="58.42129333" lon="14.38503167"><ele>132.0</ele><time>2016-06-18T08:43:03.310Z</time></trkpt><trkpt lat="58.42129333" lon="14.38503167"><ele>132.0</ele><time>2016-06-18T08:43:04.294Z</time></trkpt><trkpt lat="58.42147167" lon="14.38529667"><ele>132.0</ele><time>2016-06-18T08:43:05.300Z</time></trkpt><trkpt lat="58.42147167" lon="14.38529667"><ele>132.0</ele><time>2016-06-18T08:43:06.287Z</time></trkpt><trkpt lat="58.42163833" lon="14.38558"><ele>133.0</ele><time>2016-06-18T08:43:07.293Z</time></trkpt><trkpt lat="58.421715" lon="14.38571333"><ele>133.0</ele><time>2016-06-18T08:43:08.316Z</time></trkpt><trkpt lat="58.421715" lon="14.38571333"><ele>133.0</ele><time>2016-06-18T08:43:09.304Z</time></trkpt><trkpt lat="58.42186333" lon="14.38597167"><ele>133.0</ele><time>2016-06-18T08:43:10.312Z</time></trkpt><trkpt lat="58.42186333" lon="14.38597167"><ele>133.0</ele><time>2016-06-18T08:43:11.293Z</time></trkpt><trkpt lat="58.42201833" lon="14.38622333"><ele>133.0</ele><time>2016-06-18T08:43:12.300Z</time></trkpt><trkpt lat="58.422095" lon="14.38635167"><ele>133.0</ele><time>2016-06-18T08:43:13.286Z</time></trkpt><trkpt lat="58.422095" lon="14.38635167"><ele>133.0</ele><time>2016-06-18T08:43:14.306Z</time></trkpt><trkpt lat="58.42226" lon="14.38659667"><ele>132.0</ele><time>2016-06-18T08:43:15.325Z</time></trkpt><trkpt lat="58.42234667" lon="14.38672333"><ele>132.0</ele><time>2016-06-18T08:43:16.307Z</time></trkpt><trkpt lat="58.42234667" lon="14.38672333"><ele>132.0</ele><time>2016-06-18T08:43:17.288Z</time></trkpt><trkpt lat="58.42252167" lon="14.387"><ele>131.0</ele><time>2016-06-18T08:43:18.308Z</time></trkpt><trkpt lat="58.42261" lon="14.38715"><ele>131.0</ele><time>2016-06-18T08:43:19.308Z</time></trkpt><trkpt lat="58.42261" lon="14.38715"><ele>131.0</ele><time>2016-06-18T08:43:20.292Z</time></trkpt><trkpt lat="58.42278833" lon="14.38744333"><ele>130.0</ele><time>2016-06-18T08:43:21.305Z</time></trkpt><trkpt lat="58.42278833" lon="14.38744333"><ele>130.0</ele><time>2016-06-18T08:43:22.289Z</time></trkpt><trkpt lat="58.42296667" lon="14.38774667"><ele>129.0</ele><time>2016-06-18T08:43:23.313Z</time></trkpt><trkpt lat="58.42305833" lon="14.38790333"><ele>129.0</ele><time>2016-06-18T08:43:24.292Z</time></trkpt><trkpt lat="58.42314833" lon="14.38805833"><ele>129.0</ele><time>2016-06-18T08:43:25.313Z</time></trkpt><trkpt lat="58.42314833" lon="14.38805833"><ele>129.0</ele><time>2016-06-18T08:43:26.297Z</time></trkpt><trkpt lat="58.42332667" lon="14.38840333"><ele>129.0</ele><time>2016-06-18T08:43:27.308Z</time></trkpt><trkpt lat="58.42332667" lon="14.38840333"><ele>129.0</ele><time>2016-06-18T08:43:28.292Z</time></trkpt><trkpt lat="58.42348333" lon="14.38874167"><ele>128.0</ele><time>2016-06-18T08:43:29.310Z</time></trkpt><trkpt lat="58.42348333" lon="14.38874167"><ele>128.0</ele><time>2016-06-18T08:43:30.299Z</time></trkpt><trkpt lat="58.423615" lon="14.389065"><ele>128.0</ele><time>2016-06-18T08:43:31.305Z</time></trkpt><trkpt lat="58.42367833" lon="14.38922667"><ele>128.0</ele><time>2016-06-18T08:43:32.295Z</time></trkpt><trkpt lat="58.42374" lon="14.38938667"><ele>128.0</ele><time>2016-06-18T08:43:33.316Z</time></trkpt><trkpt lat="58.42374" lon="14.38938667"><ele>128.0</ele><time>2016-06-18T08:43:34.299Z</time></trkpt><trkpt lat="58.42386167" lon="14.38972"><ele>127.0</ele><time>2016-06-18T08:43:35.299Z</time></trkpt><trkpt lat="58.42392167" lon="14.38989167"><ele>127.0</ele><time>2016-06-18T08:43:36.295Z</time></trkpt><trkpt lat="58.42392167" lon="14.38989167"><ele>127.0</ele><time>2016-06-18T08:43:37.317Z</time></trkpt><trkpt lat="58.42404333" lon="14.39024667"><ele>126.0</ele><time>2016-06-18T08:43:38.283Z</time></trkpt><trkpt lat="58.42404333" lon="14.39024667"><ele>126.0</ele><time>2016-06-18T08:43:39.320Z</time></trkpt><trkpt lat="58.42415833" lon="14.39062333"><ele>125.0</ele><time>2016-06-18T08:43:40.286Z</time></trkpt><trkpt lat="58.42415833" lon="14.39062333"><ele>125.0</ele><time>2016-06-18T08:43:41.312Z</time></trkpt><trkpt lat="58.42427167" lon="14.39102"><ele>124.0</ele><time>2016-06-18T08:43:42.300Z</time></trkpt><trkpt lat="58.42427167" lon="14.39102"><ele>124.0</ele><time>2016-06-18T08:43:43.289Z</time></trkpt><trkpt lat="58.42437333" lon="14.39141167"><ele>122.0</ele><time>2016-06-18T08:43:44.299Z</time></trkpt><trkpt lat="58.42437333" lon="14.39141167"><ele>122.0</ele><time>2016-06-18T08:43:45.321Z</time></trkpt><trkpt lat="58.42447833" lon="14.39181667"><ele>120.0</ele><time>2016-06-18T08:43:46.288Z</time></trkpt><trkpt lat="58.42447833" lon="14.39181667"><ele>120.0</ele><time>2016-06-18T08:43:47.283Z</time></trkpt><trkpt lat="58.424585" lon="14.39223333"><ele>118.0</ele><time>2016-06-18T08:43:48.290Z</time></trkpt><trkpt lat="58.424585" lon="14.39223333"><ele>118.0</ele><time>2016-06-18T08:43:49.320Z</time></trkpt><trkpt lat="58.4247" lon="14.392635"><ele>117.0</ele><time>2016-06-18T08:43:50.309Z</time></trkpt><trkpt lat="58.4247" lon="14.392635"><ele>117.0</ele><time>2016-06-18T08:43:51.302Z</time></trkpt><trkpt lat="58.42482" lon="14.39303667"><ele>115.0</ele><time>2016-06-18T08:43:52.312Z</time></trkpt><trkpt lat="58.42482" lon="14.39303667"><ele>115.0</ele><time>2016-06-18T08:43:53.304Z</time></trkpt><trkpt lat="58.42494833" lon="14.393455"><ele>113.0</ele><time>2016-06-18T08:43:54.309Z</time></trkpt><trkpt lat="58.42494833" lon="14.393455"><ele>113.0</ele><time>2016-06-18T08:43:55.320Z</time></trkpt><trkpt lat="58.42508667" lon="14.39387667"><ele>112.0</ele><time>2016-06-18T08:43:56.286Z</time></trkpt><trkpt lat="58.42508667" lon="14.39387667"><ele>112.0</ele><time>2016-06-18T08:43:57.311Z</time></trkpt><trkpt lat="58.42524" lon="14.394295"><ele>110.0</ele><time>2016-06-18T08:43:58.296Z</time></trkpt><trkpt lat="58.42524" lon="14.394295"><ele>110.0</ele><time>2016-06-18T08:43:59.291Z</time></trkpt><trkpt lat="58.42540667" lon="14.394695"><ele>108.0</ele><time>2016-06-18T08:44:00.299Z</time></trkpt><trkpt lat="58.42540667" lon="14.394695"><ele>108.0</ele><time>2016-06-18T08:44:01.305Z</time></trkpt><trkpt lat="58.425585" lon="14.39509"><ele>107.0</ele><time>2016-06-18T08:44:02.312Z</time></trkpt><trkpt lat="58.425585" lon="14.39509"><ele>107.0</ele><time>2016-06-18T08:44:03.301Z</time></trkpt><trkpt lat="58.42577833" lon="14.39547167"><ele>106.0</ele><time>2016-06-18T08:44:04.299Z</time></trkpt><trkpt lat="58.42577833" lon="14.39547167"><ele>106.0</ele><time>2016-06-18T08:44:05.294Z</time></trkpt><trkpt lat="58.42597833" lon="14.39583167"><ele>105.0</ele><time>2016-06-18T08:44:06.300Z</time></trkpt><trkpt lat="58.42597833" lon="14.39583167"><ele>105.0</ele><time>2016-06-18T08:44:07.284Z</time></trkpt><trkpt lat="58.42619167" lon="14.39615667"><ele>105.0</ele><time>2016-06-18T08:44:08.299Z</time></trkpt><trkpt lat="58.42619167" lon="14.39615667"><ele>105.0</ele><time>2016-06-18T08:44:09.296Z</time></trkpt><trkpt lat="58.42641667" lon="14.39646333"><ele>104.0</ele><time>2016-06-18T08:44:10.302Z</time></trkpt><trkpt lat="58.42641667" lon="14.39646333"><ele>104.0</ele><time>2016-06-18T08:44:11.304Z</time></trkpt><trkpt lat="58.426645" lon="14.39673"><ele>104.0</ele><time>2016-06-18T08:44:12.295Z</time></trkpt><trkpt lat="58.42675833" lon="14.39687667"><ele>104.0</ele><time>2016-06-18T08:44:13.301Z</time></trkpt><trkpt lat="58.42687167" lon="14.39701333"><ele>104.0</ele><time>2016-06-18T08:44:14.284Z</time></trkpt><trkpt lat="58.42687167" lon="14.39701333"><ele>104.0</ele><time>2016-06-18T08:44:15.297Z</time></trkpt><trkpt lat="58.427095" lon="14.39727333"><ele>104.0</ele><time>2016-06-18T08:44:16.305Z</time></trkpt><trkpt lat="58.42721667" lon="14.39739"><ele>104.0</ele><time>2016-06-18T08:44:17.290Z</time></trkpt><trkpt lat="58.427335" lon="14.39750833"><ele>104.0</ele><time>2016-06-18T08:44:18.289Z</time></trkpt><trkpt lat="58.427335" lon="14.39750833"><ele>104.0</ele><time>2016-06-18T08:44:19.319Z</time></trkpt><trkpt lat="58.42758333" lon="14.39772667"><ele>104.0</ele><time>2016-06-18T08:44:20.305Z</time></trkpt><trkpt lat="58.42758333" lon="14.39772667"><ele>104.0</ele><time>2016-06-18T08:44:21.313Z</time></trkpt><trkpt lat="58.42782" lon="14.39796167"><ele>105.0</ele><time>2016-06-18T08:44:22.319Z</time></trkpt><trkpt lat="58.42794" lon="14.39807833"><ele>105.0</ele><time>2016-06-18T08:44:23.318Z</time></trkpt><trkpt lat="58.42794" lon="14.39807833"><ele>105.0</ele><time>2016-06-18T08:44:24.320Z</time></trkpt><trkpt lat="58.42817667" lon="14.398325"><ele>105.0</ele><time>2016-06-18T08:44:25.289Z</time></trkpt><trkpt lat="58.42829833" lon="14.39844333"><ele>105.0</ele><time>2016-06-18T08:44:26.301Z</time></trkpt><trkpt lat="58.42829833" lon="14.39844333"><ele>105.0</ele><time>2016-06-18T08:44:27.307Z</time></trkpt><trkpt lat="58.42854833" lon="14.39866167"><ele>104.0</ele><time>2016-06-18T08:44:28.314Z</time></trkpt><trkpt lat="58.42854833" lon="14.39866167"><ele>104.0</ele><time>2016-06-18T08:44:29.314Z</time></trkpt><trkpt lat="58.428805" lon="14.39884333"><ele>104.0</ele><time>2016-06-18T08:44:30.310Z</time></trkpt><trkpt lat="58.428805" lon="14.39884333"><ele>104.0</ele><time>2016-06-18T08:44:31.289Z</time></trkpt><trkpt lat="58.42905167" lon="14.39906833"><ele>103.0</ele><time>2016-06-18T08:44:32.296Z</time></trkpt><trkpt lat="58.42905167" lon="14.39906833"><ele>103.0</ele><time>2016-06-18T08:44:33.316Z</time></trkpt><trkpt lat="58.429295" lon="14.39928833"><ele>103.0</ele><time>2016-06-18T08:44:34.289Z</time></trkpt><trkpt lat="58.429295" lon="14.39928833"><ele>103.0</ele><time>2016-06-18T08:44:35.290Z</time></trkpt><trkpt lat="58.42952667" lon="14.39950333"><ele>102.0</ele><time>2016-06-18T08:44:36.296Z</time></trkpt><trkpt lat="58.42964333" lon="14.399605"><ele>102.0</ele><time>2016-06-18T08:44:37.287Z</time></trkpt><trkpt lat="58.42975667" lon="14.39971"><ele>102.0</ele><time>2016-06-18T08:44:38.289Z</time></trkpt><trkpt lat="58.42975667" lon="14.39971"><ele>102.0</ele><time>2016-06-18T08:44:39.309Z</time></trkpt><trkpt lat="58.429975" lon="14.39992167"><ele>101.0</ele><time>2016-06-18T08:44:40.288Z</time></trkpt><trkpt lat="58.43008333" lon="14.40002667"><ele>101.0</ele><time>2016-06-18T08:44:41.311Z</time></trkpt><trkpt lat="58.43008333" lon="14.40002667"><ele>101.0</ele><time>2016-06-18T08:44:42.283Z</time></trkpt><trkpt lat="58.4303" lon="14.400235"><ele>100.0</ele><time>2016-06-18T08:44:43.288Z</time></trkpt><trkpt lat="58.4303" lon="14.400235"><ele>100.0</ele><time>2016-06-18T08:44:44.320Z</time></trkpt><trkpt lat="58.43052" lon="14.40042667"><ele>99.0</ele><time>2016-06-18T08:44:45.292Z</time></trkpt><trkpt lat="58.43052" lon="14.40042667"><ele>99.0</ele><time>2016-06-18T08:44:46.314Z</time></trkpt><trkpt lat="58.43075167" lon="14.40058833"><ele>98.0</ele><time>2016-06-18T08:44:47.321Z</time></trkpt><trkpt lat="58.43087" lon="14.40066"><ele>98.0</ele><time>2016-06-18T08:44:48.318Z</time></trkpt><trkpt lat="58.43087" lon="14.40066"><ele>98.0</ele><time>2016-06-18T08:44:49.306Z</time></trkpt><trkpt lat="58.43111" lon="14.40078833"><ele>97.0</ele><time>2016-06-18T08:44:50.315Z</time></trkpt><trkpt lat="58.43111" lon="14.40078833"><ele>97.0</ele><time>2016-06-18T08:44:51.313Z</time></trkpt><trkpt lat="58.43133667" lon="14.40090667"><ele>97.0</ele><time>2016-06-18T08:44:52.288Z</time></trkpt><trkpt lat="58.43133667" lon="14.40090667"><ele>97.0</ele><time>2016-06-18T08:44:53.322Z</time></trkpt><trkpt lat="58.43156333" lon="14.400995"><ele>96.0</ele><time>2016-06-18T08:44:54.289Z</time></trkpt><trkpt lat="58.431675" lon="14.40103"><ele>96.0</ele><time>2016-06-18T08:44:55.311Z</time></trkpt><trkpt lat="58.43178833" lon="14.401055"><ele>95.0</ele><time>2016-06-18T08:44:56.287Z</time></trkpt><trkpt lat="58.43178833" lon="14.401055"><ele>95.0</ele><time>2016-06-18T08:44:57.307Z</time></trkpt><trkpt lat="58.43202" lon="14.40110333"><ele>95.0</ele><time>2016-06-18T08:44:58.282Z</time></trkpt><trkpt lat="58.43202" lon="14.40110333"><ele>95.0</ele><time>2016-06-18T08:44:59.306Z</time></trkpt><trkpt lat="58.43224833" lon="14.40114"><ele>95.0</ele><time>2016-06-18T08:45:00.312Z</time></trkpt><trkpt lat="58.43224833" lon="14.40114"><ele>95.0</ele><time>2016-06-18T08:45:01.312Z</time></trkpt><trkpt lat="58.43244333" lon="14.40115333"><ele>95.0</ele><time>2016-06-18T08:45:02.319Z</time></trkpt><trkpt lat="58.43253333" lon="14.40115667"><ele>95.0</ele><time>2016-06-18T08:45:03.302Z</time></trkpt><trkpt lat="58.43253333" lon="14.40115667"><ele>95.0</ele><time>2016-06-18T08:45:04.317Z</time></trkpt><trkpt lat="58.43270167" lon="14.401155"><ele>95.0</ele><time>2016-06-18T08:45:05.287Z</time></trkpt><trkpt lat="58.43270167" lon="14.401155"><ele>95.0</ele><time>2016-06-18T08:45:06.284Z</time></trkpt><trkpt lat="58.43286333" lon="14.40114333"><ele>95.0</ele><time>2016-06-18T08:45:07.291Z</time></trkpt><trkpt lat="58.43295667" lon="14.40113667"><ele>95.0</ele><time>2016-06-18T08:45:08.307Z</time></trkpt><trkpt lat="58.43295667" lon="14.40113667"><ele>95.0</ele><time>2016-06-18T08:45:09.302Z</time></trkpt><trkpt lat="58.43313333" lon="14.40110167"><ele>95.0</ele><time>2016-06-18T08:45:10.312Z</time></trkpt><trkpt lat="58.43313333" lon="14.40110167"><ele>95.0</ele><time>2016-06-18T08:45:11.298Z</time></trkpt><trkpt lat="58.433305" lon="14.40106167"><ele>95.0</ele><time>2016-06-18T08:45:12.291Z</time></trkpt><trkpt lat="58.433305" lon="14.40106167"><ele>95.0</ele><time>2016-06-18T08:45:13.313Z</time></trkpt><trkpt lat="58.43347833" lon="14.40100333"><ele>96.0</ele><time>2016-06-18T08:45:14.319Z</time></trkpt><trkpt lat="58.43347833" lon="14.40100333"><ele>96.0</ele><time>2016-06-18T08:45:15.303Z</time></trkpt><trkpt lat="58.43364" lon="14.40094333"><ele>96.0</ele><time>2016-06-18T08:45:16.310Z</time></trkpt><trkpt lat="58.43364" lon="14.40094333"><ele>96.0</ele><time>2016-06-18T08:45:17.284Z</time></trkpt><trkpt lat="58.4338" lon="14.40088333"><ele>96.0</ele><time>2016-06-18T08:45:18.292Z</time></trkpt><trkpt lat="58.43387833" lon="14.40085"><ele>96.0</ele><time>2016-06-18T08:45:19.318Z</time></trkpt><trkpt lat="58.43395833" lon="14.40081833"><ele>96.0</ele><time>2016-06-18T08:45:20.289Z</time></trkpt><trkpt lat="58.43395833" lon="14.40081833"><ele>96.0</ele><time>2016-06-18T08:45:21.312Z</time></trkpt><trkpt lat="58.43411833" lon="14.40074667"><ele>96.0</ele><time>2016-06-18T08:45:22.288Z</time></trkpt><trkpt lat="58.43411833" lon="14.40074667"><ele>96.0</ele><time>2016-06-18T08:45:23.288Z</time></trkpt><trkpt lat="58.43428" lon="14.40067833"><ele>96.0</ele><time>2016-06-18T08:45:24.295Z</time></trkpt><trkpt lat="58.43435833" lon="14.40064333"><ele>96.0</ele><time>2016-06-18T08:45:25.302Z</time></trkpt><trkpt lat="58.43443667" lon="14.40060833"><ele>96.0</ele><time>2016-06-18T08:45:26.307Z</time></trkpt><trkpt lat="58.43443667" lon="14.40060833"><ele>96.0</ele><time>2016-06-18T08:45:27.289Z</time></trkpt><trkpt lat="58.434585" lon="14.40054333"><ele>96.0</ele><time>2016-06-18T08:45:28.296Z</time></trkpt><trkpt lat="58.434585" lon="14.40054333"><ele>96.0</ele><time>2016-06-18T08:45:29.290Z</time></trkpt><trkpt lat="58.43472333" lon="14.40048333"><ele>96.0</ele><time>2016-06-18T08:45:30.297Z</time></trkpt><trkpt lat="58.43479" lon="14.40045667"><ele>96.0</ele><time>2016-06-18T08:45:31.298Z</time></trkpt><trkpt lat="58.43485833" lon="14.40043"><ele>97.0</ele><time>2016-06-18T08:45:32.316Z</time></trkpt><trkpt lat="58.43485833" lon="14.40043"><ele>97.0</ele><time>2016-06-18T08:45:33.300Z</time></trkpt><trkpt lat="58.434995" lon="14.40037167"><ele>97.0</ele><time>2016-06-18T08:45:34.307Z</time></trkpt><trkpt lat="58.43506333" lon="14.400345"><ele>97.0</ele><time>2016-06-18T08:45:35.292Z</time></trkpt><trkpt lat="58.43506333" lon="14.400345"><ele>97.0</ele><time>2016-06-18T08:45:36.314Z</time></trkpt><trkpt lat="58.43520833" lon="14.40028833"><ele>97.0</ele><time>2016-06-18T08:45:37.288Z</time></trkpt><trkpt lat="58.435285" lon="14.40025667"><ele>97.0</ele><time>2016-06-18T08:45:38.293Z</time></trkpt><trkpt lat="58.435285" lon="14.40025667"><ele>97.0</ele><time>2016-06-18T08:45:39.315Z</time></trkpt><trkpt lat="58.43544333" lon="14.40018833"><ele>97.0</ele><time>2016-06-18T08:45:40.310Z</time></trkpt><trkpt lat="58.43552333" lon="14.400155"><ele>97.0</ele><time>2016-06-18T08:45:41.315Z</time></trkpt><trkpt lat="58.43552333" lon="14.400155"><ele>97.0</ele><time>2016-06-18T08:45:42.301Z</time></trkpt><trkpt lat="58.43568833" lon="14.40008667"><ele>97.0</ele><time>2016-06-18T08:45:43.291Z</time></trkpt><trkpt lat="58.43568833" lon="14.40008667"><ele>97.0</ele><time>2016-06-18T08:45:44.285Z</time></trkpt><trkpt lat="58.435855" lon="14.40001333"><ele>98.0</ele><time>2016-06-18T08:45:45.298Z</time></trkpt><trkpt lat="58.43594" lon="14.39997667"><ele>98.0</ele><time>2016-06-18T08:45:46.310Z</time></trkpt><trkpt lat="58.43594" lon="14.39997667"><ele>98.0</ele><time>2016-06-18T08:45:47.291Z</time></trkpt><trkpt lat="58.43610667" lon="14.39990833"><ele>98.0</ele><time>2016-06-18T08:45:48.298Z</time></trkpt><trkpt lat="58.43610667" lon="14.39990833"><ele>98.0</ele><time>2016-06-18T08:45:49.314Z</time></trkpt><trkpt lat="58.43627333" lon="14.39983833"><ele>98.0</ele><time>2016-06-18T08:45:50.300Z</time></trkpt><trkpt lat="58.43627333" lon="14.39983833"><ele>98.0</ele><time>2016-06-18T08:45:51.310Z</time></trkpt><trkpt lat="58.43644" lon="14.39977667"><ele>99.0</ele><time>2016-06-18T08:45:52.317Z</time></trkpt><trkpt lat="58.436525" lon="14.399745"><ele>99.0</ele><time>2016-06-18T08:45:53.320Z</time></trkpt><trkpt lat="58.436525" lon="14.399745"><ele>99.0</ele><time>2016-06-18T08:45:54.292Z</time></trkpt><trkpt lat="58.43669" lon="14.39967333"><ele>99.0</ele><time>2016-06-18T08:45:55.309Z</time></trkpt><trkpt lat="58.43676167" lon="14.39964167"><ele>99.0</ele><time>2016-06-18T08:45:56.320Z</time></trkpt><trkpt lat="58.43676167" lon="14.39964167"><ele>99.0</ele><time>2016-06-18T08:45:57.306Z</time></trkpt><trkpt lat="58.43690333" lon="14.39958833"><ele>99.0</ele><time>2016-06-18T08:45:58.313Z</time></trkpt><trkpt lat="58.43696667" lon="14.399565"><ele>99.0</ele><time>2016-06-18T08:45:59.309Z</time></trkpt><trkpt lat="58.437025" lon="14.39954"><ele>99.0</ele><time>2016-06-18T08:46:00.296Z</time></trkpt><trkpt lat="58.437025" lon="14.39954"><ele>99.0</ele><time>2016-06-18T08:46:01.318Z</time></trkpt><trkpt lat="58.43713667" lon="14.39949333"><ele>99.0</ele><time>2016-06-18T08:46:02.285Z</time></trkpt><trkpt lat="58.437195" lon="14.39947167"><ele>99.0</ele><time>2016-06-18T08:46:03.288Z</time></trkpt><trkpt lat="58.437195" lon="14.39947167"><ele>99.0</ele><time>2016-06-18T08:46:04.312Z</time></trkpt><trkpt lat="58.43731333" lon="14.39942333"><ele>99.0</ele><time>2016-06-18T08:46:05.299Z</time></trkpt><trkpt lat="58.43731333" lon="14.39942333"><ele>99.0</ele><time>2016-06-18T08:46:06.309Z</time></trkpt><trkpt lat="58.43743333" lon="14.39937333"><ele>99.0</ele><time>2016-06-18T08:46:07.316Z</time></trkpt><trkpt lat="58.43749333" lon="14.39934833"><ele>99.0</ele><time>2016-06-18T08:46:08.307Z</time></trkpt><trkpt lat="58.43749333" lon="14.39934833"><ele>99.0</ele><time>2016-06-18T08:46:09.313Z</time></trkpt><trkpt lat="58.437615" lon="14.3993"><ele>99.0</ele><time>2016-06-18T08:46:10.293Z</time></trkpt><trkpt lat="58.43768" lon="14.39927167"><ele>99.0</ele><time>2016-06-18T08:46:11.295Z</time></trkpt><trkpt lat="58.43768" lon="14.39927167"><ele>99.0</ele><time>2016-06-18T08:46:12.301Z</time></trkpt><trkpt lat="58.43781333" lon="14.39921667"><ele>99.0</ele><time>2016-06-18T08:46:13.314Z</time></trkpt><trkpt lat="58.43781333" lon="14.39921667"><ele>99.0</ele><time>2016-06-18T08:46:14.294Z</time></trkpt><trkpt lat="58.43795167" lon="14.39916833"><ele>100.0</ele><time>2016-06-18T08:46:15.310Z</time></trkpt><trkpt lat="58.43801833" lon="14.39914667"><ele>100.0</ele><time>2016-06-18T08:46:16.292Z</time></trkpt><trkpt lat="58.43801833" lon="14.39914667"><ele>100.0</ele><time>2016-06-18T08:46:17.313Z</time></trkpt><trkpt lat="58.43815667" lon="14.39912167"><ele>100.0</ele><time>2016-06-18T08:46:18.290Z</time></trkpt><trkpt lat="58.43815667" lon="14.39912167"><ele>100.0</ele><time>2016-06-18T08:46:19.307Z</time></trkpt><trkpt lat="58.43830167" lon="14.39910333"><ele>101.0</ele><time>2016-06-18T08:46:20.284Z</time></trkpt><trkpt lat="58.43830167" lon="14.39910333"><ele>101.0</ele><time>2016-06-18T08:46:21.320Z</time></trkpt><trkpt lat="58.43845167" lon="14.39908833"><ele>101.0</ele><time>2016-06-18T08:46:22.288Z</time></trkpt><trkpt lat="58.43852667" lon="14.39907667"><ele>101.0</ele><time>2016-06-18T08:46:23.282Z</time></trkpt><trkpt lat="58.43852667" lon="14.39907667"><ele>101.0</ele><time>2016-06-18T08:46:24.282Z</time></trkpt><trkpt lat="58.43867333" lon="14.39905667"><ele>102.0</ele><time>2016-06-18T08:46:25.292Z</time></trkpt><trkpt lat="58.43874" lon="14.39904833"><ele>102.0</ele><time>2016-06-18T08:46:26.308Z</time></trkpt><trkpt lat="58.43874" lon="14.39904833"><ele>102.0</ele><time>2016-06-18T08:46:27.313Z</time></trkpt><trkpt lat="58.43887333" lon="14.39903667"><ele>102.0</ele><time>2016-06-18T08:46:28.319Z</time></trkpt><trkpt lat="58.43887333" lon="14.39903667"><ele>102.0</ele><time>2016-06-18T08:46:29.315Z</time></trkpt><trkpt lat="58.43900167" lon="14.39902333"><ele>103.0</ele><time>2016-06-18T08:46:30.310Z</time></trkpt><trkpt lat="58.43900167" lon="14.39902333"><ele>103.0</ele><time>2016-06-18T08:46:31.304Z</time></trkpt><trkpt lat="58.43913167" lon="14.39902"><ele>103.0</ele><time>2016-06-18T08:46:32.311Z</time></trkpt><trkpt lat="58.43913167" lon="14.39902"><ele>103.0</ele><time>2016-06-18T08:46:33.296Z</time></trkpt><trkpt lat="58.43926833" lon="14.39902"><ele>103.0</ele><time>2016-06-18T08:46:34.291Z</time></trkpt><trkpt lat="58.43926833" lon="14.39902"><ele>103.0</ele><time>2016-06-18T08:46:35.297Z</time></trkpt><trkpt lat="58.43940833" lon="14.39902333"><ele>104.0</ele><time>2016-06-18T08:46:36.306Z</time></trkpt><trkpt lat="58.43940833" lon="14.39902333"><ele>104.0</ele><time>2016-06-18T08:46:37.306Z</time></trkpt><trkpt lat="58.43955" lon="14.39903"><ele>104.0</ele><time>2016-06-18T08:46:38.315Z</time></trkpt><trkpt lat="58.43955" lon="14.39903"><ele>104.0</ele><time>2016-06-18T08:46:39.300Z</time></trkpt><trkpt lat="58.43969333" lon="14.39904667"><ele>105.0</ele><time>2016-06-18T08:46:40.321Z</time></trkpt><trkpt lat="58.43969333" lon="14.39904667"><ele>105.0</ele><time>2016-06-18T08:46:41.307Z</time></trkpt><trkpt lat="58.439835" lon="14.39906167"><ele>105.0</ele><time>2016-06-18T08:46:42.313Z</time></trkpt><trkpt lat="58.439905" lon="14.39906833"><ele>105.0</ele><time>2016-06-18T08:46:43.313Z</time></trkpt><trkpt lat="58.439905" lon="14.39906833"><ele>105.0</ele><time>2016-06-18T08:46:44.320Z</time></trkpt><trkpt lat="58.44004833" lon="14.39908833"><ele>105.0</ele><time>2016-06-18T08:46:45.289Z</time></trkpt><trkpt lat="58.44004833" lon="14.39908833"><ele>105.0</ele><time>2016-06-18T08:46:46.309Z</time></trkpt><trkpt lat="58.44019167" lon="14.399115"><ele>105.0</ele><time>2016-06-18T08:46:47.316Z</time></trkpt><trkpt lat="58.44019167" lon="14.399115"><ele>105.0</ele><time>2016-06-18T08:46:48.302Z</time></trkpt><trkpt lat="58.44033167" lon="14.39914333"><ele>105.0</ele><time>2016-06-18T08:46:49.299Z</time></trkpt><trkpt lat="58.4404" lon="14.39915667"><ele>105.0</ele><time>2016-06-18T08:46:50.306Z</time></trkpt><trkpt lat="58.4404" lon="14.39915667"><ele>105.0</ele><time>2016-06-18T08:46:51.299Z</time></trkpt><trkpt lat="58.44053" lon="14.399185"><ele>105.0</ele><time>2016-06-18T08:46:52.311Z</time></trkpt><trkpt lat="58.44059167" lon="14.3992"><ele>105.0</ele><time>2016-06-18T08:46:53.311Z</time></trkpt><trkpt lat="58.44059167" lon="14.3992"><ele>105.0</ele><time>2016-06-18T08:46:54.293Z</time></trkpt><trkpt lat="58.440715" lon="14.39923"><ele>105.0</ele><time>2016-06-18T08:46:55.315Z</time></trkpt><trkpt lat="58.44077667" lon="14.39924833"><ele>105.0</ele><time>2016-06-18T08:46:56.301Z</time></trkpt><trkpt lat="58.44077667" lon="14.39924833"><ele>105.0</ele><time>2016-06-18T08:46:57.309Z</time></trkpt><trkpt lat="58.44091" lon="14.39928"><ele>105.0</ele><time>2016-06-18T08:46:58.316Z</time></trkpt><trkpt lat="58.44097833" lon="14.39929667"><ele>105.0</ele><time>2016-06-18T08:46:59.303Z</time></trkpt><trkpt lat="58.44097833" lon="14.39929667"><ele>105.0</ele><time>2016-06-18T08:47:00.285Z</time></trkpt><trkpt lat="58.44111333" lon="14.39933167"><ele>105.0</ele><time>2016-06-18T08:47:01.294Z</time></trkpt><trkpt lat="58.44118167" lon="14.39935"><ele>105.0</ele><time>2016-06-18T08:47:02.298Z</time></trkpt><trkpt lat="58.44118167" lon="14.39935"><ele>105.0</ele><time>2016-06-18T08:47:03.311Z</time></trkpt><trkpt lat="58.44132" lon="14.39938167"><ele>105.0</ele><time>2016-06-18T08:47:04.285Z</time></trkpt><trkpt lat="58.44132" lon="14.39938167"><ele>105.0</ele><time>2016-06-18T08:47:05.305Z</time></trkpt><trkpt lat="58.44146167" lon="14.39941333"><ele>105.0</ele><time>2016-06-18T08:47:06.287Z</time></trkpt><trkpt lat="58.44146167" lon="14.39941333"><ele>105.0</ele><time>2016-06-18T08:47:07.318Z</time></trkpt><trkpt lat="58.4416" lon="14.39944833"><ele>105.0</ele><time>2016-06-18T08:47:08.284Z</time></trkpt><trkpt lat="58.4416" lon="14.39944833"><ele>105.0</ele><time>2016-06-18T08:47:09.315Z</time></trkpt><trkpt lat="58.44173167" lon="14.39948167"><ele>105.0</ele><time>2016-06-18T08:47:10.298Z</time></trkpt><trkpt lat="58.44173167" lon="14.39948167"><ele>105.0</ele><time>2016-06-18T08:47:11.307Z</time></trkpt><trkpt lat="58.44185667" lon="14.39951167"><ele>105.0</ele><time>2016-06-18T08:47:12.310Z</time></trkpt><trkpt lat="58.44192167" lon="14.399525"><ele>105.0</ele><time>2016-06-18T08:47:13.293Z</time></trkpt><trkpt lat="58.44192167" lon="14.399525"><ele>105.0</ele><time>2016-06-18T08:47:14.314Z</time></trkpt><trkpt lat="58.442055" lon="14.39955167"><ele>105.0</ele><time>2016-06-18T08:47:15.320Z</time></trkpt><trkpt lat="58.44212167" lon="14.399565"><ele>105.0</ele><time>2016-06-18T08:47:16.313Z</time></trkpt><trkpt lat="58.44218667" lon="14.39957833"><ele>105.0</ele><time>2016-06-18T08:47:17.295Z</time></trkpt><trkpt lat="58.44218667" lon="14.39957833"><ele>105.0</ele><time>2016-06-18T08:47:18.316Z</time></trkpt><trkpt lat="58.44231833" lon="14.39961167"><ele>105.0</ele><time>2016-06-18T08:47:19.289Z</time></trkpt><trkpt lat="58.44238333" lon="14.39962667"><ele>105.0</ele><time>2016-06-18T08:47:20.297Z</time></trkpt><trkpt lat="58.44238333" lon="14.39962667"><ele>105.0</ele><time>2016-06-18T08:47:21.320Z</time></trkpt><trkpt lat="58.44252167" lon="14.39965667"><ele>105.0</ele><time>2016-06-18T08:47:22.299Z</time></trkpt><trkpt lat="58.44259333" lon="14.39967333"><ele>105.0</ele><time>2016-06-18T08:47:23.299Z</time></trkpt><trkpt lat="58.44259333" lon="14.39967333"><ele>105.0</ele><time>2016-06-18T08:47:24.321Z</time></trkpt><trkpt lat="58.44273833" lon="14.39971"><ele>105.0</ele><time>2016-06-18T08:47:25.308Z</time></trkpt><trkpt lat="58.44281167" lon="14.39972667"><ele>105.0</ele><time>2016-06-18T08:47:26.290Z</time></trkpt><trkpt lat="58.44281167" lon="14.39972667"><ele>105.0</ele><time>2016-06-18T08:47:27.314Z</time></trkpt><trkpt lat="58.44296167" lon="14.39976"><ele>105.0</ele><time>2016-06-18T08:47:28.321Z</time></trkpt><trkpt lat="58.44296167" lon="14.39976"><ele>105.0</ele><time>2016-06-18T08:47:29.306Z</time></trkpt><trkpt lat="58.44311167" lon="14.39979833"><ele>105.0</ele><time>2016-06-18T08:47:30.289Z</time></trkpt><trkpt lat="58.44318667" lon="14.39982"><ele>105.0</ele><time>2016-06-18T08:47:31.316Z</time></trkpt><trkpt lat="58.44326167" lon="14.39984167"><ele>105.0</ele><time>2016-06-18T08:47:32.299Z</time></trkpt><trkpt lat="58.44334" lon="14.39986667"><ele>105.0</ele><time>2016-06-18T08:47:33.305Z</time></trkpt><trkpt lat="58.44334" lon="14.39986667"><ele>105.0</ele><time>2016-06-18T08:47:34.286Z</time></trkpt><trkpt lat="58.44349667" lon="14.39992167"><ele>106.0</ele><time>2016-06-18T08:47:35.293Z</time></trkpt><trkpt lat="58.443575" lon="14.39995"><ele>106.0</ele><time>2016-06-18T08:47:36.315Z</time></trkpt><trkpt lat="58.443575" lon="14.39995"><ele>106.0</ele><time>2016-06-18T08:47:37.299Z</time></trkpt><trkpt lat="58.44372833" lon="14.400005"><ele>106.0</ele><time>2016-06-18T08:47:38.315Z</time></trkpt><trkpt lat="58.44372833" lon="14.400005"><ele>106.0</ele><time>2016-06-18T08:47:39.290Z</time></trkpt><trkpt lat="58.44388333" lon="14.40007333"><ele>105.0</ele><time>2016-06-18T08:47:40.303Z</time></trkpt><trkpt lat="58.44388333" lon="14.40007333"><ele>105.0</ele><time>2016-06-18T08:47:41.286Z</time></trkpt><trkpt lat="58.44404667" lon="14.40015667"><ele>105.0</ele><time>2016-06-18T08:47:42.294Z</time></trkpt><trkpt lat="58.44412667" lon="14.40019833"><ele>105.0</ele><time>2016-06-18T08:47:43.284Z</time></trkpt><trkpt lat="58.44412667" lon="14.40019833"><ele>105.0</ele><time>2016-06-18T08:47:44.312Z</time></trkpt><trkpt lat="58.444285" lon="14.40028833"><ele>105.0</ele><time>2016-06-18T08:47:45.294Z</time></trkpt><trkpt lat="58.44436167" lon="14.40033833"><ele>105.0</ele><time>2016-06-18T08:47:46.312Z</time></trkpt><trkpt lat="58.44436167" lon="14.40033833"><ele>105.0</ele><time>2016-06-18T08:47:47.294Z</time></trkpt><trkpt lat="58.44451667" lon="14.400435"><ele>106.0</ele><time>2016-06-18T08:47:48.284Z</time></trkpt><trkpt lat="58.44459" lon="14.40048167"><ele>106.0</ele><time>2016-06-18T08:47:49.317Z</time></trkpt><trkpt lat="58.44466333" lon="14.400535"><ele>106.0</ele><time>2016-06-18T08:47:50.306Z</time></trkpt><trkpt lat="58.44466333" lon="14.400535"><ele>106.0</ele><time>2016-06-18T08:47:51.289Z</time></trkpt><trkpt lat="58.44481" lon="14.40064667"><ele>106.0</ele><time>2016-06-18T08:47:52.295Z</time></trkpt><trkpt lat="58.44488" lon="14.40070167"><ele>106.0</ele><time>2016-06-18T08:47:53.324Z</time></trkpt><trkpt lat="58.44488" lon="14.40070167"><ele>106.0</ele><time>2016-06-18T08:47:54.321Z</time></trkpt><trkpt lat="58.445015" lon="14.40080833"><ele>106.0</ele><time>2016-06-18T08:47:55.289Z</time></trkpt><trkpt lat="58.44508833" lon="14.40085833"><ele>106.0</ele><time>2016-06-18T08:47:56.298Z</time></trkpt><trkpt lat="58.44508833" lon="14.40085833"><ele>106.0</ele><time>2016-06-18T08:47:57.301Z</time></trkpt><trkpt lat="58.44523833" lon="14.40098167"><ele>107.0</ele><time>2016-06-18T08:47:58.309Z</time></trkpt><trkpt lat="58.44523833" lon="14.40098167"><ele>107.0</ele><time>2016-06-18T08:47:59.294Z</time></trkpt><trkpt lat="58.445395" lon="14.40109667"><ele>108.0</ele><time>2016-06-18T08:48:00.310Z</time></trkpt><trkpt lat="58.445395" lon="14.40109667"><ele>108.0</ele><time>2016-06-18T08:48:01.292Z</time></trkpt><trkpt lat="58.44555167" lon="14.40122333"><ele>108.0</ele><time>2016-06-18T08:48:02.299Z</time></trkpt><trkpt lat="58.44555167" lon="14.40122333"><ele>108.0</ele><time>2016-06-18T08:48:03.284Z</time></trkpt><trkpt lat="58.44571667" lon="14.401345"><ele>109.0</ele><time>2016-06-18T08:48:04.296Z</time></trkpt><trkpt lat="58.44571667" lon="14.401345"><ele>109.0</ele><time>2016-06-18T08:48:05.296Z</time></trkpt><trkpt lat="58.44588167" lon="14.401465"><ele>109.0</ele><time>2016-06-18T08:48:06.287Z</time></trkpt><trkpt lat="58.44588167" lon="14.401465"><ele>109.0</ele><time>2016-06-18T08:48:07.312Z</time></trkpt><trkpt lat="58.44604833" lon="14.40157167"><ele>109.0</ele><time>2016-06-18T08:48:08.319Z</time></trkpt><trkpt lat="58.44604833" lon="14.40157167"><ele>109.0</ele><time>2016-06-18T08:48:09.300Z</time></trkpt><trkpt lat="58.44622167" lon="14.40167167"><ele>109.0</ele><time>2016-06-18T08:48:10.293Z</time></trkpt><trkpt lat="58.44622167" lon="14.40167167"><ele>109.0</ele><time>2016-06-18T08:48:11.286Z</time></trkpt><trkpt lat="58.44639" lon="14.401775"><ele>110.0</ele><time>2016-06-18T08:48:12.292Z</time></trkpt><trkpt lat="58.446475" lon="14.40182333"><ele>110.0</ele><time>2016-06-18T08:48:13.318Z</time></trkpt><trkpt lat="58.446475" lon="14.40182333"><ele>110.0</ele><time>2016-06-18T08:48:14.301Z</time></trkpt><trkpt lat="58.44665" lon="14.40192"><ele>110.0</ele><time>2016-06-18T08:48:15.308Z</time></trkpt><trkpt lat="58.44665" lon="14.40192"><ele>110.0</ele><time>2016-06-18T08:48:16.290Z</time></trkpt><trkpt lat="58.44682" lon="14.40201833"><ele>110.0</ele><time>2016-06-18T08:48:17.302Z</time></trkpt><trkpt lat="58.44682" lon="14.40201833"><ele>110.0</ele><time>2016-06-18T08:48:18.312Z</time></trkpt><trkpt lat="58.44699" lon="14.40211167"><ele>110.0</ele><time>2016-06-18T08:48:19.319Z</time></trkpt><trkpt lat="58.44707833" lon="14.402155"><ele>110.0</ele><time>2016-06-18T08:48:20.286Z</time></trkpt><trkpt lat="58.44707833" lon="14.402155"><ele>110.0</ele><time>2016-06-18T08:48:21.314Z</time></trkpt><trkpt lat="58.44726167" lon="14.40223333"><ele>111.0</ele><time>2016-06-18T08:48:22.321Z</time></trkpt><trkpt lat="58.44735667" lon="14.40227"><ele>111.0</ele><time>2016-06-18T08:48:23.290Z</time></trkpt><trkpt lat="58.44735667" lon="14.40227"><ele>111.0</ele><time>2016-06-18T08:48:24.317Z</time></trkpt><trkpt lat="58.44754333" lon="14.40233"><ele>110.0</ele><time>2016-06-18T08:48:25.284Z</time></trkpt><trkpt lat="58.44763667" lon="14.40235833"><ele>110.0</ele><time>2016-06-18T08:48:26.299Z</time></trkpt><trkpt lat="58.44763667" lon="14.40235833"><ele>110.0</ele><time>2016-06-18T08:48:27.288Z</time></trkpt><trkpt lat="58.44782333" lon="14.40241167"><ele>110.0</ele><time>2016-06-18T08:48:28.302Z</time></trkpt><trkpt lat="58.44782333" lon="14.40241167"><ele>110.0</ele><time>2016-06-18T08:48:29.284Z</time></trkpt><trkpt lat="58.44800667" lon="14.40245167"><ele>110.0</ele><time>2016-06-18T08:48:30.305Z</time></trkpt><trkpt lat="58.448095" lon="14.40246833"><ele>110.0</ele><time>2016-06-18T08:48:31.293Z</time></trkpt><trkpt lat="58.448095" lon="14.40246833"><ele>110.0</ele><time>2016-06-18T08:48:32.314Z</time></trkpt><trkpt lat="58.44826167" lon="14.40250333"><ele>110.0</ele><time>2016-06-18T08:48:33.300Z</time></trkpt><trkpt lat="58.44826167" lon="14.40250333"><ele>110.0</ele><time>2016-06-18T08:48:34.291Z</time></trkpt><trkpt lat="58.44842167" lon="14.40253333"><ele>110.0</ele><time>2016-06-18T08:48:35.304Z</time></trkpt><trkpt lat="58.44842167" lon="14.40253333"><ele>110.0</ele><time>2016-06-18T08:48:36.316Z</time></trkpt><trkpt lat="58.44857667" lon="14.40255833"><ele>110.0</ele><time>2016-06-18T08:48:37.282Z</time></trkpt><trkpt lat="58.44865333" lon="14.40256833"><ele>110.0</ele><time>2016-06-18T08:48:38.308Z</time></trkpt><trkpt lat="58.44865333" lon="14.40256833"><ele>110.0</ele><time>2016-06-18T08:48:39.315Z</time></trkpt><trkpt lat="58.44880833" lon="14.40259"><ele>110.0</ele><time>2016-06-18T08:48:40.299Z</time></trkpt><trkpt lat="58.44880833" lon="14.40259"><ele>110.0</ele><time>2016-06-18T08:48:41.297Z</time></trkpt><trkpt lat="58.44897" lon="14.40260833"><ele>111.0</ele><time>2016-06-18T08:48:42.285Z</time></trkpt><trkpt lat="58.44905333" lon="14.40261833"><ele>111.0</ele><time>2016-06-18T08:48:43.282Z</time></trkpt><trkpt lat="58.44905333" lon="14.40261833"><ele>111.0</ele><time>2016-06-18T08:48:44.282Z</time></trkpt><trkpt lat="58.44921833" lon="14.402645"><ele>112.0</ele><time>2016-06-18T08:48:45.292Z</time></trkpt><trkpt lat="58.44921833" lon="14.402645"><ele>112.0</ele><time>2016-06-18T08:48:46.299Z</time></trkpt><trkpt lat="58.44938167" lon="14.40267167"><ele>112.0</ele><time>2016-06-18T08:48:47.307Z</time></trkpt><trkpt lat="58.44946833" lon="14.40268667"><ele>112.0</ele><time>2016-06-18T08:48:48.289Z</time></trkpt><trkpt lat="58.449555" lon="14.402705"><ele>112.0</ele><time>2016-06-18T08:48:49.301Z</time></trkpt><trkpt lat="58.449555" lon="14.402705"><ele>112.0</ele><time>2016-06-18T08:48:50.287Z</time></trkpt><trkpt lat="58.449735" lon="14.40273833"><ele>111.0</ele><time>2016-06-18T08:48:51.294Z</time></trkpt><trkpt lat="58.44982667" lon="14.40275167"><ele>111.0</ele><time>2016-06-18T08:48:52.298Z</time></trkpt><trkpt lat="58.44992" lon="14.40276833"><ele>111.0</ele><time>2016-06-18T08:48:53.320Z</time></trkpt><trkpt lat="58.44992" lon="14.40276833"><ele>111.0</ele><time>2016-06-18T08:48:54.305Z</time></trkpt><trkpt lat="58.45011333" lon="14.40280167"><ele>110.0</ele><time>2016-06-18T08:48:55.314Z</time></trkpt><trkpt lat="58.45021" lon="14.40281333"><ele>110.0</ele><time>2016-06-18T08:48:56.295Z</time></trkpt><trkpt lat="58.45021" lon="14.40281333"><ele>110.0</ele><time>2016-06-18T08:48:57.309Z</time></trkpt><trkpt lat="58.45040167" lon="14.40284333"><ele>110.0</ele><time>2016-06-18T08:48:58.317Z</time></trkpt><trkpt lat="58.45049667" lon="14.40285667"><ele>110.0</ele><time>2016-06-18T08:48:59.292Z</time></trkpt><trkpt lat="58.45049667" lon="14.40285667"><ele>110.0</ele><time>2016-06-18T08:49:00.322Z</time></trkpt><trkpt lat="58.45068833" lon="14.40287667"><ele>109.0</ele><time>2016-06-18T08:49:01.290Z</time></trkpt><trkpt lat="58.450785" lon="14.40289"><ele>109.0</ele><time>2016-06-18T08:49:02.297Z</time></trkpt><trkpt lat="58.450785" lon="14.40289"><ele>109.0</ele><time>2016-06-18T08:49:03.321Z</time></trkpt><trkpt lat="58.45097833" lon="14.40291667"><ele>108.0</ele><time>2016-06-18T08:49:04.289Z</time></trkpt><trkpt lat="58.45097833" lon="14.40291667"><ele>108.0</ele><time>2016-06-18T08:49:05.309Z</time></trkpt><trkpt lat="58.45116667" lon="14.40294667"><ele>108.0</ele><time>2016-06-18T08:49:06.303Z</time></trkpt><trkpt lat="58.45116667" lon="14.40294667"><ele>108.0</ele><time>2016-06-18T08:49:07.294Z</time></trkpt><trkpt lat="58.45135" lon="14.40297333"><ele>108.0</ele><time>2016-06-18T08:49:08.300Z</time></trkpt><trkpt lat="58.45135" lon="14.40297333"><ele>108.0</ele><time>2016-06-18T08:49:09.320Z</time></trkpt><trkpt lat="58.45153167" lon="14.403"><ele>108.0</ele><time>2016-06-18T08:49:10.309Z</time></trkpt><trkpt lat="58.45153167" lon="14.403"><ele>108.0</ele><time>2016-06-18T08:49:11.297Z</time></trkpt><trkpt lat="58.45171333" lon="14.403025"><ele>108.0</ele><time>2016-06-18T08:49:12.295Z</time></trkpt><trkpt lat="58.45180333" lon="14.40303833"><ele>108.0</ele><time>2016-06-18T08:49:13.309Z</time></trkpt><trkpt lat="58.45189333" lon="14.40305"><ele>108.0</ele><time>2016-06-18T08:49:14.292Z</time></trkpt><trkpt lat="58.45189333" lon="14.40305"><ele>108.0</ele><time>2016-06-18T08:49:15.315Z</time></trkpt><trkpt lat="58.45206833" lon="14.40307333"><ele>108.0</ele><time>2016-06-18T08:49:16.282Z</time></trkpt><trkpt lat="58.45206833" lon="14.40307333"><ele>108.0</ele><time>2016-06-18T08:49:17.308Z</time></trkpt><trkpt lat="58.45224333" lon="14.4031"><ele>108.0</ele><time>2016-06-18T08:49:18.288Z</time></trkpt><trkpt lat="58.45233" lon="14.40311333"><ele>108.0</ele><time>2016-06-18T08:49:19.309Z</time></trkpt><trkpt lat="58.45241667" lon="14.40312333"><ele>108.0</ele><time>2016-06-18T08:49:20.292Z</time></trkpt><trkpt lat="58.45241667" lon="14.40312333"><ele>108.0</ele><time>2016-06-18T08:49:21.317Z</time></trkpt><trkpt lat="58.4526" lon="14.403145"><ele>108.0</ele><time>2016-06-18T08:49:22.284Z</time></trkpt><trkpt lat="58.45269167" lon="14.40316"><ele>109.0</ele><time>2016-06-18T08:49:23.298Z</time></trkpt><trkpt lat="58.45269167" lon="14.40316"><ele>109.0</ele><time>2016-06-18T08:49:24.306Z</time></trkpt><trkpt lat="58.452875" lon="14.40318167"><ele>109.0</ele><time>2016-06-18T08:49:25.314Z</time></trkpt><trkpt lat="58.45296833" lon="14.40319333"><ele>109.0</ele><time>2016-06-18T08:49:26.301Z</time></trkpt><trkpt lat="58.45296833" lon="14.40319333"><ele>109.0</ele><time>2016-06-18T08:49:27.282Z</time></trkpt><trkpt lat="58.45315167" lon="14.403215"><ele>108.0</ele><time>2016-06-18T08:49:28.290Z</time></trkpt><trkpt lat="58.45315167" lon="14.403215"><ele>108.0</ele><time>2016-06-18T08:49:29.290Z</time></trkpt><trkpt lat="58.45333333" lon="14.40323667"><ele>109.0</ele><time>2016-06-18T08:49:30.298Z</time></trkpt><trkpt lat="58.45342" lon="14.403255"><ele>109.0</ele><time>2016-06-18T08:49:31.319Z</time></trkpt><trkpt lat="58.45342" lon="14.403255"><ele>109.0</ele><time>2016-06-18T08:49:32.291Z</time></trkpt><trkpt lat="58.45359167" lon="14.40329167"><ele>109.0</ele><time>2016-06-18T08:49:33.296Z</time></trkpt><trkpt lat="58.45359167" lon="14.40329167"><ele>109.0</ele><time>2016-06-18T08:49:34.318Z</time></trkpt><trkpt lat="58.45376333" lon="14.40331667"><ele>110.0</ele><time>2016-06-18T08:49:35.300Z</time></trkpt><trkpt lat="58.45376333" lon="14.40331667"><ele>110.0</ele><time>2016-06-18T08:49:36.317Z</time></trkpt><trkpt lat="58.45394" lon="14.40334167"><ele>111.0</ele><time>2016-06-18T08:49:37.283Z</time></trkpt><trkpt lat="58.45394" lon="14.40334167"><ele>111.0</ele><time>2016-06-18T08:49:38.309Z</time></trkpt><trkpt lat="58.45410667" lon="14.40336833"><ele>112.0</ele><time>2016-06-18T08:49:39.302Z</time></trkpt><trkpt lat="58.45410667" lon="14.40336833"><ele>112.0</ele><time>2016-06-18T08:49:40.303Z</time></trkpt><trkpt lat="58.45427167" lon="14.403395"><ele>112.0</ele><time>2016-06-18T08:49:41.309Z</time></trkpt><trkpt lat="58.45427167" lon="14.403395"><ele>112.0</ele><time>2016-06-18T08:49:42.291Z</time></trkpt><trkpt lat="58.45443667" lon="14.40342167"><ele>112.0</ele><time>2016-06-18T08:49:43.321Z</time></trkpt><trkpt lat="58.45443667" lon="14.40342167"><ele>112.0</ele><time>2016-06-18T08:49:44.306Z</time></trkpt><trkpt lat="58.4546" lon="14.403445"><ele>112.0</ele><time>2016-06-18T08:49:45.314Z</time></trkpt><trkpt lat="58.45468167" lon="14.403455"><ele>113.0</ele><time>2016-06-18T08:49:46.299Z</time></trkpt><trkpt lat="58.45468167" lon="14.403455"><ele>113.0</ele><time>2016-06-18T08:49:47.292Z</time></trkpt><trkpt lat="58.454845" lon="14.40348333"><ele>113.0</ele><time>2016-06-18T08:49:48.298Z</time></trkpt><trkpt lat="58.454925" lon="14.403505"><ele>113.0</ele><time>2016-06-18T08:49:49.311Z</time></trkpt><trkpt lat="58.455005" lon="14.40352333"><ele>113.0</ele><time>2016-06-18T08:49:50.312Z</time></trkpt><trkpt lat="58.455005" lon="14.40352333"><ele>113.0</ele><time>2016-06-18T08:49:51.320Z</time></trkpt><trkpt lat="58.455165" lon="14.40355333"><ele>113.0</ele><time>2016-06-18T08:49:52.300Z</time></trkpt><trkpt lat="58.45524833" lon="14.40356667"><ele>113.0</ele><time>2016-06-18T08:49:53.318Z</time></trkpt><trkpt lat="58.45524833" lon="14.40356667"><ele>113.0</ele><time>2016-06-18T08:49:54.300Z</time></trkpt><trkpt lat="58.45541667" lon="14.40359167"><ele>113.0</ele><time>2016-06-18T08:49:55.327Z</time></trkpt><trkpt lat="58.45550333" lon="14.40360667"><ele>113.0</ele><time>2016-06-18T08:49:56.282Z</time></trkpt><trkpt lat="58.455595" lon="14.40362"><ele>113.0</ele><time>2016-06-18T08:49:57.310Z</time></trkpt><trkpt lat="58.455595" lon="14.40362"><ele>113.0</ele><time>2016-06-18T08:49:58.316Z</time></trkpt><trkpt lat="58.455775" lon="14.40364833"><ele>113.0</ele><time>2016-06-18T08:49:59.300Z</time></trkpt><trkpt lat="58.455865" lon="14.40366167"><ele>113.0</ele><time>2016-06-18T08:50:00.303Z</time></trkpt><trkpt lat="58.455865" lon="14.40366167"><ele>113.0</ele><time>2016-06-18T08:50:01.288Z</time></trkpt><trkpt lat="58.456045" lon="14.403685"><ele>113.0</ele><time>2016-06-18T08:50:02.295Z</time></trkpt><trkpt lat="58.45613667" lon="14.40369667"><ele>113.0</ele><time>2016-06-18T08:50:03.321Z</time></trkpt><trkpt lat="58.45613667" lon="14.40369667"><ele>113.0</ele><time>2016-06-18T08:50:04.306Z</time></trkpt><trkpt lat="58.45632333" lon="14.40372333"><ele>113.0</ele><time>2016-06-18T08:50:05.315Z</time></trkpt><trkpt lat="58.45632333" lon="14.40372333"><ele>113.0</ele><time>2016-06-18T08:50:06.291Z</time></trkpt><trkpt lat="58.45650667" lon="14.40375"><ele>114.0</ele><time>2016-06-18T08:50:07.318Z</time></trkpt><trkpt lat="58.4566" lon="14.40376167"><ele>114.0</ele><time>2016-06-18T08:50:08.314Z</time></trkpt><trkpt lat="58.4566" lon="14.40376167"><ele>114.0</ele><time>2016-06-18T08:50:09.295Z</time></trkpt><trkpt lat="58.45679333" lon="14.403785"><ele>113.0</ele><time>2016-06-18T08:50:10.309Z</time></trkpt><trkpt lat="58.45679333" lon="14.403785"><ele>113.0</ele><time>2016-06-18T08:50:11.297Z</time></trkpt><trkpt lat="58.45698667" lon="14.403815"><ele>113.0</ele><time>2016-06-18T08:50:12.306Z</time></trkpt><trkpt lat="58.457085" lon="14.40383"><ele>112.0</ele><time>2016-06-18T08:50:13.298Z</time></trkpt><trkpt lat="58.45718333" lon="14.40384667"><ele>112.0</ele><time>2016-06-18T08:50:14.285Z</time></trkpt><trkpt lat="58.45718333" lon="14.40384667"><ele>112.0</ele><time>2016-06-18T08:50:15.294Z</time></trkpt><trkpt lat="58.45738" lon="14.40388667"><ele>112.0</ele><time>2016-06-18T08:50:16.301Z</time></trkpt><trkpt lat="58.45738" lon="14.40388667"><ele>112.0</ele><time>2016-06-18T08:50:17.282Z</time></trkpt><trkpt lat="58.45756833" lon="14.40391667"><ele>112.0</ele><time>2016-06-18T08:50:18.292Z</time></trkpt><trkpt lat="58.45756833" lon="14.40391667"><ele>112.0</ele><time>2016-06-18T08:50:19.314Z</time></trkpt><trkpt lat="58.45775667" lon="14.40394333"><ele>112.0</ele><time>2016-06-18T08:50:20.299Z</time></trkpt><trkpt lat="58.45775667" lon="14.40394333"><ele>112.0</ele><time>2016-06-18T08:50:21.311Z</time></trkpt><trkpt lat="58.45794167" lon="14.40397667"><ele>112.0</ele><time>2016-06-18T08:50:22.320Z</time></trkpt><trkpt lat="58.45794167" lon="14.40397667"><ele>112.0</ele><time>2016-06-18T08:50:23.305Z</time></trkpt><trkpt lat="58.45812667" lon="14.404005"><ele>112.0</ele><time>2016-06-18T08:50:24.296Z</time></trkpt><trkpt lat="58.45812667" lon="14.404005"><ele>112.0</ele><time>2016-06-18T08:50:25.309Z</time></trkpt><trkpt lat="58.45831667" lon="14.40403167"><ele>111.0</ele><time>2016-06-18T08:50:26.316Z</time></trkpt><trkpt lat="58.45831667" lon="14.40403167"><ele>111.0</ele><time>2016-06-18T08:50:27.298Z</time></trkpt><trkpt lat="58.45850667" lon="14.404055"><ele>110.0</ele><time>2016-06-18T08:50:28.310Z</time></trkpt><trkpt lat="58.45850667" lon="14.404055"><ele>110.0</ele><time>2016-06-18T08:50:29.292Z</time></trkpt><trkpt lat="58.458705" lon="14.40408167"><ele>110.0</ele><time>2016-06-18T08:50:30.297Z</time></trkpt><trkpt lat="58.45880333" lon="14.40409833"><ele>110.0</ele><time>2016-06-18T08:50:31.301Z</time></trkpt><trkpt lat="58.45890333" lon="14.404115"><ele>109.0</ele><time>2016-06-18T08:50:32.298Z</time></trkpt><trkpt lat="58.45890333" lon="14.404115"><ele>109.0</ele><time>2016-06-18T08:50:33.320Z</time></trkpt><trkpt lat="58.45910833" lon="14.40414667"><ele>109.0</ele><time>2016-06-18T08:50:34.316Z</time></trkpt><trkpt lat="58.45910833" lon="14.40414667"><ele>109.0</ele><time>2016-06-18T08:50:35.317Z</time></trkpt><trkpt lat="58.45932" lon="14.40417833"><ele>108.0</ele><time>2016-06-18T08:50:36.284Z</time></trkpt><trkpt lat="58.45942667" lon="14.40419333"><ele>108.0</ele><time>2016-06-18T08:50:37.307Z</time></trkpt><trkpt lat="58.45953167" lon="14.40421167"><ele>108.0</ele><time>2016-06-18T08:50:38.309Z</time></trkpt><trkpt lat="58.45953167" lon="14.40421167"><ele>108.0</ele><time>2016-06-18T08:50:39.321Z</time></trkpt><trkpt lat="58.45974" lon="14.404245"><ele>108.0</ele><time>2016-06-18T08:50:40.287Z</time></trkpt><trkpt lat="58.45974" lon="14.404245"><ele>108.0</ele><time>2016-06-18T08:50:41.317Z</time></trkpt><trkpt lat="58.45993667" lon="14.40429333"><ele>108.0</ele><time>2016-06-18T08:50:42.315Z</time></trkpt><trkpt lat="58.46003333" lon="14.40430667"><ele>108.0</ele><time>2016-06-18T08:50:43.296Z</time></trkpt><trkpt lat="58.46003333" lon="14.40430667"><ele>108.0</ele><time>2016-06-18T08:50:44.320Z</time></trkpt><trkpt lat="58.46022167" lon="14.40433"><ele>109.0</ele><time>2016-06-18T08:50:45.305Z</time></trkpt><trkpt lat="58.460315" lon="14.40434333"><ele>109.0</ele><time>2016-06-18T08:50:46.319Z</time></trkpt><trkpt lat="58.46040667" lon="14.40435667"><ele>109.0</ele><time>2016-06-18T08:50:47.300Z</time></trkpt><trkpt lat="58.46040667" lon="14.40435667"><ele>109.0</ele><time>2016-06-18T08:50:48.322Z</time></trkpt><trkpt lat="58.460595" lon="14.404385"><ele>109.0</ele><time>2016-06-18T08:50:49.289Z</time></trkpt><trkpt lat="58.46068833" lon="14.40440167"><ele>109.0</ele><time>2016-06-18T08:50:50.299Z</time></trkpt><trkpt lat="58.46068833" lon="14.40440167"><ele>109.0</ele><time>2016-06-18T08:50:51.321Z</time></trkpt><trkpt lat="58.46086833" lon="14.40443333"><ele>110.0</ele><time>2016-06-18T08:50:52.288Z</time></trkpt><trkpt lat="58.46086833" lon="14.40443333"><ele>110.0</ele><time>2016-06-18T08:50:53.313Z</time></trkpt><trkpt lat="58.461055" lon="14.404465"><ele>110.0</ele><time>2016-06-18T08:50:54.286Z</time></trkpt><trkpt lat="58.461055" lon="14.404465"><ele>110.0</ele><time>2016-06-18T08:50:55.294Z</time></trkpt><trkpt lat="58.461245" lon="14.40450667"><ele>110.0</ele><time>2016-06-18T08:50:56.301Z</time></trkpt><trkpt lat="58.461245" lon="14.40450667"><ele>110.0</ele><time>2016-06-18T08:50:57.282Z</time></trkpt><trkpt lat="58.46143667" lon="14.40454"><ele>110.0</ele><time>2016-06-18T08:50:58.299Z</time></trkpt><trkpt lat="58.46143667" lon="14.40454"><ele>110.0</ele><time>2016-06-18T08:50:59.294Z</time></trkpt><trkpt lat="58.46162833" lon="14.40457"><ele>110.0</ele><time>2016-06-18T08:51:00.301Z</time></trkpt><trkpt lat="58.46162833" lon="14.40457"><ele>110.0</ele><time>2016-06-18T08:51:01.293Z</time></trkpt><trkpt lat="58.46182333" lon="14.40460167"><ele>109.0</ele><time>2016-06-18T08:51:02.310Z</time></trkpt><trkpt lat="58.46192667" lon="14.404615"><ele>108.0</ele><time>2016-06-18T08:51:03.291Z</time></trkpt><trkpt lat="58.46192667" lon="14.404615"><ele>108.0</ele><time>2016-06-18T08:51:04.313Z</time></trkpt><trkpt lat="58.46213" lon="14.40464667"><ele>107.0</ele><time>2016-06-18T08:51:05.324Z</time></trkpt><trkpt lat="58.46213" lon="14.40464667"><ele>107.0</ele><time>2016-06-18T08:51:06.311Z</time></trkpt><trkpt lat="58.46233167" lon="14.40468333"><ele>106.0</ele><time>2016-06-18T08:51:07.319Z</time></trkpt><trkpt lat="58.46243667" lon="14.4047"><ele>105.0</ele><time>2016-06-18T08:51:08.302Z</time></trkpt><trkpt lat="58.46243667" lon="14.4047"><ele>105.0</ele><time>2016-06-18T08:51:09.301Z</time></trkpt><trkpt lat="58.46264333" lon="14.40472167"><ele>105.0</ele><time>2016-06-18T08:51:10.311Z</time></trkpt><trkpt lat="58.46264333" lon="14.40472167"><ele>105.0</ele><time>2016-06-18T08:51:11.301Z</time></trkpt><trkpt lat="58.46284667" lon="14.40474667"><ele>105.0</ele><time>2016-06-18T08:51:12.294Z</time></trkpt><trkpt lat="58.46284667" lon="14.40474667"><ele>105.0</ele><time>2016-06-18T08:51:13.286Z</time></trkpt><trkpt lat="58.46304333" lon="14.40476667"><ele>106.0</ele><time>2016-06-18T08:51:14.296Z</time></trkpt><trkpt lat="58.46304333" lon="14.40476667"><ele>106.0</ele><time>2016-06-18T08:51:15.317Z</time></trkpt><trkpt lat="58.46323667" lon="14.40479167"><ele>106.0</ele><time>2016-06-18T08:51:16.305Z</time></trkpt><trkpt lat="58.46323667" lon="14.40479167"><ele>106.0</ele><time>2016-06-18T08:51:17.313Z</time></trkpt><trkpt lat="58.463435" lon="14.40481667"><ele>107.0</ele><time>2016-06-18T08:51:18.320Z</time></trkpt><trkpt lat="58.463435" lon="14.40481667"><ele>107.0</ele><time>2016-06-18T08:51:19.301Z</time></trkpt><trkpt lat="58.463635" lon="14.40485"><ele>107.0</ele><time>2016-06-18T08:51:20.310Z</time></trkpt><trkpt lat="58.463635" lon="14.40485"><ele>107.0</ele><time>2016-06-18T08:51:21.300Z</time></trkpt><trkpt lat="58.46384167" lon="14.40488333"><ele>107.0</ele><time>2016-06-18T08:51:22.307Z</time></trkpt><trkpt lat="58.46384167" lon="14.40488333"><ele>107.0</ele><time>2016-06-18T08:51:23.291Z</time></trkpt><trkpt lat="58.46404833" lon="14.40491833"><ele>108.0</ele><time>2016-06-18T08:51:24.322Z</time></trkpt><trkpt lat="58.46404833" lon="14.40491833"><ele>108.0</ele><time>2016-06-18T08:51:25.310Z</time></trkpt><trkpt lat="58.46424833" lon="14.40496"><ele>108.0</ele><time>2016-06-18T08:51:26.320Z</time></trkpt><trkpt lat="58.46424833" lon="14.40496"><ele>108.0</ele><time>2016-06-18T08:51:27.301Z</time></trkpt><trkpt lat="58.46444833" lon="14.40499667"><ele>108.0</ele><time>2016-06-18T08:51:28.302Z</time></trkpt><trkpt lat="58.46444833" lon="14.40499667"><ele>108.0</ele><time>2016-06-18T08:51:29.316Z</time></trkpt><trkpt lat="58.46465667" lon="14.40503833"><ele>109.0</ele><time>2016-06-18T08:51:30.288Z</time></trkpt><trkpt lat="58.46476" lon="14.40506167"><ele>108.0</ele><time>2016-06-18T08:51:31.305Z</time></trkpt><trkpt lat="58.46476" lon="14.40506167"><ele>108.0</ele><time>2016-06-18T08:51:32.287Z</time></trkpt><trkpt lat="58.46497667" lon="14.40510667"><ele>107.0</ele><time>2016-06-18T08:51:33.303Z</time></trkpt><trkpt lat="58.46497667" lon="14.40510667"><ele>107.0</ele><time>2016-06-18T08:51:34.311Z</time></trkpt><trkpt lat="58.46517667" lon="14.40516"><ele>107.0</ele><time>2016-06-18T08:51:35.284Z</time></trkpt><trkpt lat="58.46527167" lon="14.40519"><ele>106.0</ele><time>2016-06-18T08:51:36.292Z</time></trkpt><trkpt lat="58.46527167" lon="14.40519"><ele>106.0</ele><time>2016-06-18T08:51:37.318Z</time></trkpt><trkpt lat="58.46546833" lon="14.40524833"><ele>107.0</ele><time>2016-06-18T08:51:38.302Z</time></trkpt><trkpt lat="58.46546833" lon="14.40524833"><ele>107.0</ele><time>2016-06-18T08:51:39.310Z</time></trkpt><trkpt lat="58.46566667" lon="14.40530667"><ele>108.0</ele><time>2016-06-18T08:51:40.317Z</time></trkpt><trkpt lat="58.46576333" lon="14.40534"><ele>108.0</ele><time>2016-06-18T08:51:41.293Z</time></trkpt><trkpt lat="58.46576333" lon="14.40534"><ele>108.0</ele><time>2016-06-18T08:51:42.312Z</time></trkpt><trkpt lat="58.46596" lon="14.40539333"><ele>109.0</ele><time>2016-06-18T08:51:43.320Z</time></trkpt><trkpt lat="58.46596" lon="14.40539333"><ele>109.0</ele><time>2016-06-18T08:51:44.301Z</time></trkpt><trkpt lat="58.46616" lon="14.40545167"><ele>110.0</ele><time>2016-06-18T08:51:45.309Z</time></trkpt><trkpt lat="58.46626667" lon="14.405485"><ele>110.0</ele><time>2016-06-18T08:51:46.314Z</time></trkpt><trkpt lat="58.466375" lon="14.40552333"><ele>110.0</ele><time>2016-06-18T08:51:47.292Z</time></trkpt><trkpt lat="58.466375" lon="14.40552333"><ele>110.0</ele><time>2016-06-18T08:51:48.311Z</time></trkpt><trkpt lat="58.46658333" lon="14.405605"><ele>110.0</ele><time>2016-06-18T08:51:49.319Z</time></trkpt><trkpt lat="58.46668667" lon="14.40564167"><ele>110.0</ele><time>2016-06-18T08:51:50.304Z</time></trkpt><trkpt lat="58.46668667" lon="14.40564167"><ele>110.0</ele><time>2016-06-18T08:51:51.285Z</time></trkpt><trkpt lat="58.46689833" lon="14.40572"><ele>108.0</ele><time>2016-06-18T08:51:52.295Z</time></trkpt><trkpt lat="58.46700333" lon="14.40576333"><ele>108.0</ele><time>2016-06-18T08:51:53.287Z</time></trkpt><trkpt lat="58.46700333" lon="14.40576333"><ele>108.0</ele><time>2016-06-18T08:51:54.313Z</time></trkpt><trkpt lat="58.46720833" lon="14.40584"><ele>108.0</ele><time>2016-06-18T08:51:55.282Z</time></trkpt><trkpt lat="58.467305" lon="14.405875"><ele>108.0</ele><time>2016-06-18T08:51:56.311Z</time></trkpt><trkpt lat="58.467305" lon="14.405875"><ele>108.0</ele><time>2016-06-18T08:51:57.293Z</time></trkpt><trkpt lat="58.467495" lon="14.40594333"><ele>108.0</ele><time>2016-06-18T08:51:58.299Z</time></trkpt><trkpt lat="58.467495" lon="14.40594333"><ele>108.0</ele><time>2016-06-18T08:51:59.282Z</time></trkpt><trkpt lat="58.46769333" lon="14.40600667"><ele>109.0</ele><time>2016-06-18T08:52:00.292Z</time></trkpt><trkpt lat="58.46769333" lon="14.40600667"><ele>109.0</ele><time>2016-06-18T08:52:01.320Z</time></trkpt><trkpt lat="58.46789833" lon="14.40608"><ele>109.0</ele><time>2016-06-18T08:52:02.318Z</time></trkpt><trkpt lat="58.46789833" lon="14.40608"><ele>109.0</ele><time>2016-06-18T08:52:03.315Z</time></trkpt><trkpt lat="58.468105" lon="14.40615167"><ele>108.0</ele><time>2016-06-18T08:52:04.292Z</time></trkpt><trkpt lat="58.46820833" lon="14.40619167"><ele>108.0</ele><time>2016-06-18T08:52:05.312Z</time></trkpt><trkpt lat="58.46831" lon="14.40623167"><ele>108.0</ele><time>2016-06-18T08:52:06.320Z</time></trkpt><trkpt lat="58.46841" lon="14.406275"><ele>108.0</ele><time>2016-06-18T08:52:07.286Z</time></trkpt><trkpt lat="58.46841" lon="14.406275"><ele>108.0</ele><time>2016-06-18T08:52:08.312Z</time></trkpt><trkpt lat="58.46861333" lon="14.406345"><ele>108.0</ele><time>2016-06-18T08:52:09.328Z</time></trkpt><trkpt lat="58.468715" lon="14.406385"><ele>108.0</ele><time>2016-06-18T08:52:10.321Z</time></trkpt><trkpt lat="58.468715" lon="14.406385"><ele>108.0</ele><time>2016-06-18T08:52:11.309Z</time></trkpt><trkpt lat="58.46892333" lon="14.406465"><ele>108.0</ele><time>2016-06-18T08:52:12.312Z</time></trkpt><trkpt lat="58.46892333" lon="14.406465"><ele>108.0</ele><time>2016-06-18T08:52:13.320Z</time></trkpt><trkpt lat="58.46913667" lon="14.40655667"><ele>108.0</ele><time>2016-06-18T08:52:14.296Z</time></trkpt><trkpt lat="58.46913667" lon="14.40655667"><ele>108.0</ele><time>2016-06-18T08:52:15.297Z</time></trkpt><trkpt lat="58.46935667" lon="14.40664667"><ele>108.0</ele><time>2016-06-18T08:52:16.313Z</time></trkpt><trkpt lat="58.46935667" lon="14.40664667"><ele>108.0</ele><time>2016-06-18T08:52:17.294Z</time></trkpt><trkpt lat="58.469585" lon="14.40672833"><ele>108.0</ele><time>2016-06-18T08:52:18.296Z</time></trkpt><trkpt lat="58.4697" lon="14.406765"><ele>108.0</ele><time>2016-06-18T08:52:19.313Z</time></trkpt><trkpt lat="58.46981333" lon="14.40680333"><ele>108.0</ele><time>2016-06-18T08:52:20.296Z</time></trkpt><trkpt lat="58.46981333" lon="14.40680333"><ele>108.0</ele><time>2016-06-18T08:52:21.289Z</time></trkpt><trkpt lat="58.47004" lon="14.40687833"><ele>108.0</ele><time>2016-06-18T08:52:22.295Z</time></trkpt><trkpt lat="58.47015167" lon="14.40690667"><ele>107.0</ele><time>2016-06-18T08:52:23.288Z</time></trkpt><trkpt lat="58.47015167" lon="14.40690667"><ele>107.0</ele><time>2016-06-18T08:52:24.313Z</time></trkpt><trkpt lat="58.47037333" lon="14.40696333"><ele>107.0</ele><time>2016-06-18T08:52:25.315Z</time></trkpt><trkpt lat="58.47037333" lon="14.40696333"><ele>107.0</ele><time>2016-06-18T08:52:26.309Z</time></trkpt><trkpt lat="58.47059667" lon="14.40702333"><ele>107.0</ele><time>2016-06-18T08:52:27.317Z</time></trkpt><trkpt lat="58.47059667" lon="14.40702333"><ele>107.0</ele><time>2016-06-18T08:52:28.299Z</time></trkpt><trkpt lat="58.47081833" lon="14.40708"><ele>106.0</ele><time>2016-06-18T08:52:29.317Z</time></trkpt><trkpt lat="58.47081833" lon="14.40708"><ele>106.0</ele><time>2016-06-18T08:52:30.320Z</time></trkpt><trkpt lat="58.47103667" lon="14.40713167"><ele>106.0</ele><time>2016-06-18T08:52:31.286Z</time></trkpt><trkpt lat="58.47114167" lon="14.40715833"><ele>106.0</ele><time>2016-06-18T08:52:32.290Z</time></trkpt><trkpt lat="58.47124667" lon="14.40718333"><ele>106.0</ele><time>2016-06-18T08:52:33.285Z</time></trkpt><trkpt lat="58.47124667" lon="14.40718333"><ele>106.0</ele><time>2016-06-18T08:52:34.311Z</time></trkpt><trkpt lat="58.47145167" lon="14.40722833"><ele>105.0</ele><time>2016-06-18T08:52:35.309Z</time></trkpt><trkpt lat="58.47155833" lon="14.40724833"><ele>105.0</ele><time>2016-06-18T08:52:36.320Z</time></trkpt><trkpt lat="58.47166667" lon="14.40726833"><ele>105.0</ele><time>2016-06-18T08:52:37.304Z</time></trkpt><trkpt lat="58.47166667" lon="14.40726833"><ele>105.0</ele><time>2016-06-18T08:52:38.285Z</time></trkpt><trkpt lat="58.47188167" lon="14.40730667"><ele>105.0</ele><time>2016-06-18T08:52:39.294Z</time></trkpt><trkpt lat="58.47188167" lon="14.40730667"><ele>105.0</ele><time>2016-06-18T08:52:40.317Z</time></trkpt><trkpt lat="58.472085" lon="14.40733833"><ele>105.0</ele><time>2016-06-18T08:52:41.303Z</time></trkpt><trkpt lat="58.472085" lon="14.40733833"><ele>105.0</ele><time>2016-06-18T08:52:42.312Z</time></trkpt><trkpt lat="58.47227333" lon="14.40736167"><ele>104.0</ele><time>2016-06-18T08:52:43.286Z</time></trkpt><trkpt lat="58.47227333" lon="14.40736167"><ele>104.0</ele><time>2016-06-18T08:52:44.317Z</time></trkpt><trkpt lat="58.47244833" lon="14.40739167"><ele>104.0</ele><time>2016-06-18T08:52:45.302Z</time></trkpt><trkpt lat="58.47244833" lon="14.40739167"><ele>104.0</ele><time>2016-06-18T08:52:46.304Z</time></trkpt><trkpt lat="58.472615" lon="14.40741833"><ele>104.0</ele><time>2016-06-18T08:52:47.312Z</time></trkpt><trkpt lat="58.472615" lon="14.40741833"><ele>104.0</ele><time>2016-06-18T08:52:48.296Z</time></trkpt><trkpt lat="58.47278" lon="14.40744"><ele>104.0</ele><time>2016-06-18T08:52:49.314Z</time></trkpt><trkpt lat="58.47278" lon="14.40744"><ele>104.0</ele><time>2016-06-18T08:52:50.312Z</time></trkpt><trkpt lat="58.47294667" lon="14.40746667"><ele>103.0</ele><time>2016-06-18T08:52:51.320Z</time></trkpt><trkpt lat="58.47294667" lon="14.40746667"><ele>103.0</ele><time>2016-06-18T08:52:52.310Z</time></trkpt><trkpt lat="58.47312" lon="14.40749833"><ele>104.0</ele><time>2016-06-18T08:52:53.295Z</time></trkpt><trkpt lat="58.47312" lon="14.40749833"><ele>104.0</ele><time>2016-06-18T08:52:54.302Z</time></trkpt><trkpt lat="58.47329667" lon="14.40753167"><ele>104.0</ele><time>2016-06-18T08:52:55.313Z</time></trkpt><trkpt lat="58.47338333" lon="14.40754833"><ele>103.0</ele><time>2016-06-18T08:52:56.321Z</time></trkpt><trkpt lat="58.47347333" lon="14.407565"><ele>103.0</ele><time>2016-06-18T08:52:57.307Z</time></trkpt><trkpt lat="58.47347333" lon="14.407565"><ele>103.0</ele><time>2016-06-18T08:52:58.288Z</time></trkpt><trkpt lat="58.47365167" lon="14.40759667"><ele>105.0</ele><time>2016-06-18T08:52:59.302Z</time></trkpt><trkpt lat="58.47365167" lon="14.40759667"><ele>105.0</ele><time>2016-06-18T08:53:00.316Z</time></trkpt><trkpt lat="58.47383667" lon="14.40762"><ele>105.0</ele><time>2016-06-18T08:53:01.283Z</time></trkpt><trkpt lat="58.47393" lon="14.40762833"><ele>106.0</ele><time>2016-06-18T08:53:02.316Z</time></trkpt><trkpt lat="58.47402333" lon="14.40764167"><ele>105.0</ele><time>2016-06-18T08:53:03.286Z</time></trkpt><trkpt lat="58.47402333" lon="14.40764167"><ele>105.0</ele><time>2016-06-18T08:53:04.317Z</time></trkpt><trkpt lat="58.47420833" lon="14.40766167"><ele>106.0</ele><time>2016-06-18T08:53:05.283Z</time></trkpt><trkpt lat="58.47420833" lon="14.40766167"><ele>106.0</ele><time>2016-06-18T08:53:06.319Z</time></trkpt><trkpt lat="58.47438667" lon="14.40768833"><ele>106.0</ele><time>2016-06-18T08:53:07.302Z</time></trkpt><trkpt lat="58.47438667" lon="14.40768833"><ele>106.0</ele><time>2016-06-18T08:53:08.301Z</time></trkpt><trkpt lat="58.47456667" lon="14.40770667"><ele>106.0</ele><time>2016-06-18T08:53:09.310Z</time></trkpt><trkpt lat="58.47456667" lon="14.40770667"><ele>106.0</ele><time>2016-06-18T08:53:10.295Z</time></trkpt><trkpt lat="58.47474167" lon="14.40772667"><ele>107.0</ele><time>2016-06-18T08:53:11.302Z</time></trkpt><trkpt lat="58.47474167" lon="14.40772667"><ele>107.0</ele><time>2016-06-18T08:53:12.290Z</time></trkpt><trkpt lat="58.47491667" lon="14.40774833"><ele>107.0</ele><time>2016-06-18T08:53:13.297Z</time></trkpt><trkpt lat="58.475005" lon="14.40775833"><ele>107.0</ele><time>2016-06-18T08:53:14.313Z</time></trkpt><trkpt lat="58.475005" lon="14.40775833"><ele>107.0</ele><time>2016-06-18T08:53:15.289Z</time></trkpt><trkpt lat="58.47518833" lon="14.40778833"><ele>108.0</ele><time>2016-06-18T08:53:16.297Z</time></trkpt><trkpt lat="58.47518833" lon="14.40778833"><ele>108.0</ele><time>2016-06-18T08:53:17.319Z</time></trkpt><trkpt lat="58.47537" lon="14.40781833"><ele>108.0</ele><time>2016-06-18T08:53:18.314Z</time></trkpt><trkpt lat="58.47546333" lon="14.40782833"><ele>108.0</ele><time>2016-06-18T08:53:19.319Z</time></trkpt><trkpt lat="58.47546333" lon="14.40782833"><ele>108.0</ele><time>2016-06-18T08:53:20.300Z</time></trkpt><trkpt lat="58.475645" lon="14.40784333"><ele>108.0</ele><time>2016-06-18T08:53:21.323Z</time></trkpt><trkpt lat="58.475645" lon="14.40784333"><ele>108.0</ele><time>2016-06-18T08:53:22.309Z</time></trkpt><trkpt lat="58.47582" lon="14.40787167"><ele>109.0</ele><time>2016-06-18T08:53:23.317Z</time></trkpt><trkpt lat="58.47582" lon="14.40787167"><ele>109.0</ele><time>2016-06-18T08:53:24.311Z</time></trkpt><trkpt lat="58.476" lon="14.40789333"><ele>110.0</ele><time>2016-06-18T08:53:25.317Z</time></trkpt><trkpt lat="58.47609167" lon="14.407905"><ele>110.0</ele><time>2016-06-18T08:53:26.308Z</time></trkpt><trkpt lat="58.47609167" lon="14.407905"><ele>110.0</ele><time>2016-06-18T08:53:27.299Z</time></trkpt><trkpt lat="58.47628" lon="14.407935"><ele>109.0</ele><time>2016-06-18T08:53:28.313Z</time></trkpt><trkpt lat="58.47637333" lon="14.40794833"><ele>109.0</ele><time>2016-06-18T08:53:29.290Z</time></trkpt><trkpt lat="58.47637333" lon="14.40794833"><ele>109.0</ele><time>2016-06-18T08:53:30.311Z</time></trkpt><trkpt lat="58.476565" lon="14.40797167"><ele>109.0</ele><time>2016-06-18T08:53:31.318Z</time></trkpt><trkpt lat="58.47666" lon="14.40798833"><ele>109.0</ele><time>2016-06-18T08:53:32.302Z</time></trkpt><trkpt lat="58.47666" lon="14.40798833"><ele>109.0</ele><time>2016-06-18T08:53:33.311Z</time></trkpt><trkpt lat="58.47686" lon="14.40801667"><ele>109.0</ele><time>2016-06-18T08:53:34.320Z</time></trkpt><trkpt lat="58.47696" lon="14.40803167"><ele>109.0</ele><time>2016-06-18T08:53:35.298Z</time></trkpt><trkpt lat="58.47706" lon="14.40805167"><ele>109.0</ele><time>2016-06-18T08:53:36.318Z</time></trkpt><trkpt lat="58.47706" lon="14.40805167"><ele>109.0</ele><time>2016-06-18T08:53:37.299Z</time></trkpt><trkpt lat="58.47726333" lon="14.40809333"><ele>108.0</ele><time>2016-06-18T08:53:38.285Z</time></trkpt><trkpt lat="58.47726333" lon="14.40809333"><ele>108.0</ele><time>2016-06-18T08:53:39.301Z</time></trkpt><trkpt lat="58.47747167" lon="14.40813333"><ele>108.0</ele><time>2016-06-18T08:53:40.309Z</time></trkpt><trkpt lat="58.47747167" lon="14.40813333"><ele>108.0</ele><time>2016-06-18T08:53:41.294Z</time></trkpt><trkpt lat="58.47769" lon="14.408185"><ele>108.0</ele><time>2016-06-18T08:53:42.298Z</time></trkpt><trkpt lat="58.4778" lon="14.40821"><ele>107.0</ele><time>2016-06-18T08:53:43.282Z</time></trkpt><trkpt lat="58.4778" lon="14.40821"><ele>107.0</ele><time>2016-06-18T08:53:44.309Z</time></trkpt><trkpt lat="58.47802" lon="14.40826"><ele>107.0</ele><time>2016-06-18T08:53:45.294Z</time></trkpt><trkpt lat="58.47802" lon="14.40826"><ele>107.0</ele><time>2016-06-18T08:53:46.312Z</time></trkpt><trkpt lat="58.47823833" lon="14.40831167"><ele>107.0</ele><time>2016-06-18T08:53:47.320Z</time></trkpt><trkpt lat="58.47834" lon="14.40834167"><ele>106.0</ele><time>2016-06-18T08:53:48.300Z</time></trkpt><trkpt lat="58.47834" lon="14.40834167"><ele>106.0</ele><time>2016-06-18T08:53:49.309Z</time></trkpt><trkpt lat="58.47854167" lon="14.4084"><ele>106.0</ele><time>2016-06-18T08:53:50.315Z</time></trkpt><trkpt lat="58.478645" lon="14.40842667"><ele>106.0</ele><time>2016-06-18T08:53:51.293Z</time></trkpt><trkpt lat="58.478645" lon="14.40842667"><ele>106.0</ele><time>2016-06-18T08:53:52.300Z</time></trkpt><trkpt lat="58.47885167" lon="14.40848333"><ele>106.0</ele><time>2016-06-18T08:53:53.294Z</time></trkpt><trkpt lat="58.47885167" lon="14.40848333"><ele>106.0</ele><time>2016-06-18T08:53:54.302Z</time></trkpt><trkpt lat="58.47906167" lon="14.40854333"><ele>105.0</ele><time>2016-06-18T08:53:55.323Z</time></trkpt><trkpt lat="58.47906167" lon="14.40854333"><ele>105.0</ele><time>2016-06-18T08:53:56.319Z</time></trkpt><trkpt lat="58.47927" lon="14.4086"><ele>105.0</ele><time>2016-06-18T08:53:57.285Z</time></trkpt><trkpt lat="58.47927" lon="14.4086"><ele>105.0</ele><time>2016-06-18T08:53:58.319Z</time></trkpt><trkpt lat="58.479475" lon="14.408665"><ele>105.0</ele><time>2016-06-18T08:53:59.301Z</time></trkpt><trkpt lat="58.479475" lon="14.408665"><ele>105.0</ele><time>2016-06-18T08:54:00.287Z</time></trkpt><trkpt lat="58.47968167" lon="14.40873667"><ele>104.0</ele><time>2016-06-18T08:54:01.297Z</time></trkpt><trkpt lat="58.47978667" lon="14.40877"><ele>104.0</ele><time>2016-06-18T08:54:02.288Z</time></trkpt><trkpt lat="58.47978667" lon="14.40877"><ele>104.0</ele><time>2016-06-18T08:54:03.321Z</time></trkpt><trkpt lat="58.47999167" lon="14.40884333"><ele>104.0</ele><time>2016-06-18T08:54:04.287Z</time></trkpt><trkpt lat="58.48009833" lon="14.40888"><ele>104.0</ele><time>2016-06-18T08:54:05.302Z</time></trkpt><trkpt lat="58.48009833" lon="14.40888"><ele>104.0</ele><time>2016-06-18T08:54:06.291Z</time></trkpt><trkpt lat="58.48031167" lon="14.40896667"><ele>103.0</ele><time>2016-06-18T08:54:07.298Z</time></trkpt><trkpt lat="58.48042167" lon="14.40900333"><ele>103.0</ele><time>2016-06-18T08:54:08.287Z</time></trkpt><trkpt lat="58.48042167" lon="14.40900333"><ele>103.0</ele><time>2016-06-18T08:54:09.311Z</time></trkpt><trkpt lat="58.48064333" lon="14.40908"><ele>102.0</ele><time>2016-06-18T08:54:10.318Z</time></trkpt><trkpt lat="58.48064333" lon="14.40908"><ele>102.0</ele><time>2016-06-18T08:54:11.287Z</time></trkpt><trkpt lat="58.480865" lon="14.40915667"><ele>102.0</ele><time>2016-06-18T08:54:12.300Z</time></trkpt><trkpt lat="58.480865" lon="14.40915667"><ele>102.0</ele><time>2016-06-18T08:54:13.322Z</time></trkpt><trkpt lat="58.48109333" lon="14.40923"><ele>101.0</ele><time>2016-06-18T08:54:14.290Z</time></trkpt><trkpt lat="58.48109333" lon="14.40923"><ele>101.0</ele><time>2016-06-18T08:54:15.319Z</time></trkpt><trkpt lat="58.48132167" lon="14.40930333"><ele>101.0</ele><time>2016-06-18T08:54:16.319Z</time></trkpt><trkpt lat="58.48132167" lon="14.40930333"><ele>101.0</ele><time>2016-06-18T08:54:17.314Z</time></trkpt><trkpt lat="58.48155" lon="14.409385"><ele>100.0</ele><time>2016-06-18T08:54:18.283Z</time></trkpt><trkpt lat="58.481665" lon="14.40942333"><ele>100.0</ele><time>2016-06-18T08:54:19.283Z</time></trkpt><trkpt lat="58.481665" lon="14.40942333"><ele>100.0</ele><time>2016-06-18T08:54:20.319Z</time></trkpt><trkpt lat="58.48189333" lon="14.40949667"><ele>100.0</ele><time>2016-06-18T08:54:21.312Z</time></trkpt><trkpt lat="58.48189333" lon="14.40949667"><ele>100.0</ele><time>2016-06-18T08:54:22.298Z</time></trkpt><trkpt lat="58.482125" lon="14.40957167"><ele>99.0</ele><time>2016-06-18T08:54:23.304Z</time></trkpt><trkpt lat="58.482125" lon="14.40957167"><ele>99.0</ele><time>2016-06-18T08:54:24.288Z</time></trkpt><trkpt lat="58.48235833" lon="14.40964667"><ele>98.0</ele><time>2016-06-18T08:54:25.313Z</time></trkpt><trkpt lat="58.48235833" lon="14.40964667"><ele>98.0</ele><time>2016-06-18T08:54:26.294Z</time></trkpt><trkpt lat="58.48259667" lon="14.40972667"><ele>97.0</ele><time>2016-06-18T08:54:27.300Z</time></trkpt><trkpt lat="58.48259667" lon="14.40972667"><ele>97.0</ele><time>2016-06-18T08:54:28.321Z</time></trkpt><trkpt lat="58.48284" lon="14.409805"><ele>97.0</ele><time>2016-06-18T08:54:29.323Z</time></trkpt><trkpt lat="58.48284" lon="14.409805"><ele>97.0</ele><time>2016-06-18T08:54:30.316Z</time></trkpt><trkpt lat="58.48308333" lon="14.40987833"><ele>96.0</ele><time>2016-06-18T08:54:31.298Z</time></trkpt><trkpt lat="58.48308333" lon="14.40987833"><ele>96.0</ele><time>2016-06-18T08:54:32.319Z</time></trkpt><trkpt lat="58.48332667" lon="14.40995"><ele>95.0</ele><time>2016-06-18T08:54:33.287Z</time></trkpt><trkpt lat="58.48332667" lon="14.40995"><ele>95.0</ele><time>2016-06-18T08:54:34.285Z</time></trkpt><trkpt lat="58.48356833" lon="14.41002333"><ele>94.0</ele><time>2016-06-18T08:54:35.293Z</time></trkpt><trkpt lat="58.48369" lon="14.41005833"><ele>94.0</ele><time>2016-06-18T08:54:36.286Z</time></trkpt><trkpt lat="58.48369" lon="14.41005833"><ele>94.0</ele><time>2016-06-18T08:54:37.296Z</time></trkpt><trkpt lat="58.48392833" lon="14.41012333"><ele>94.0</ele><time>2016-06-18T08:54:38.302Z</time></trkpt><trkpt lat="58.48392833" lon="14.41012333"><ele>94.0</ele><time>2016-06-18T08:54:39.283Z</time></trkpt><trkpt lat="58.484155" lon="14.410185"><ele>93.0</ele><time>2016-06-18T08:54:40.298Z</time></trkpt><trkpt lat="58.484155" lon="14.410185"><ele>93.0</ele><time>2016-06-18T08:54:41.308Z</time></trkpt><trkpt lat="58.48438" lon="14.41024333"><ele>93.0</ele><time>2016-06-18T08:54:42.315Z</time></trkpt><trkpt lat="58.48438" lon="14.41024333"><ele>93.0</ele><time>2016-06-18T08:54:43.297Z</time></trkpt><trkpt lat="58.484605" lon="14.41029833"><ele>93.0</ele><time>2016-06-18T08:54:44.308Z</time></trkpt><trkpt lat="58.484605" lon="14.41029833"><ele>93.0</ele><time>2016-06-18T08:54:45.301Z</time></trkpt><trkpt lat="58.48483" lon="14.41035667"><ele>93.0</ele><time>2016-06-18T08:54:46.307Z</time></trkpt><trkpt lat="58.48494333" lon="14.41038833"><ele>93.0</ele><time>2016-06-18T08:54:47.294Z</time></trkpt><trkpt lat="58.48494333" lon="14.41038833"><ele>93.0</ele><time>2016-06-18T08:54:48.294Z</time></trkpt><trkpt lat="58.48516833" lon="14.41045"><ele>92.0</ele><time>2016-06-18T08:54:49.301Z</time></trkpt><trkpt lat="58.48527833" lon="14.41048167"><ele>93.0</ele><time>2016-06-18T08:54:50.298Z</time></trkpt><trkpt lat="58.48527833" lon="14.41048167"><ele>93.0</ele><time>2016-06-18T08:54:51.315Z</time></trkpt><trkpt lat="58.48549833" lon="14.41054"><ele>92.0</ele><time>2016-06-18T08:54:52.283Z</time></trkpt><trkpt lat="58.48549833" lon="14.41054"><ele>92.0</ele><time>2016-06-18T08:54:53.315Z</time></trkpt><trkpt lat="58.48571833" lon="14.41060333"><ele>92.0</ele><time>2016-06-18T08:54:54.284Z</time></trkpt><trkpt lat="58.48583" lon="14.41063333"><ele>92.0</ele><time>2016-06-18T08:54:55.295Z</time></trkpt><trkpt lat="58.48583" lon="14.41063333"><ele>92.0</ele><time>2016-06-18T08:54:56.302Z</time></trkpt><trkpt lat="58.48604667" lon="14.41069333"><ele>92.0</ele><time>2016-06-18T08:54:57.316Z</time></trkpt><trkpt lat="58.48604667" lon="14.41069333"><ele>92.0</ele><time>2016-06-18T08:54:58.296Z</time></trkpt><trkpt lat="58.48625667" lon="14.41075167"><ele>92.0</ele><time>2016-06-18T08:54:59.315Z</time></trkpt><trkpt lat="58.48625667" lon="14.41075167"><ele>92.0</ele><time>2016-06-18T08:55:00.302Z</time></trkpt><trkpt lat="58.48646" lon="14.410805"><ele>92.0</ele><time>2016-06-18T08:55:01.312Z</time></trkpt><trkpt lat="58.48656" lon="14.410835"><ele>91.0</ele><time>2016-06-18T08:55:02.288Z</time></trkpt><trkpt lat="58.48666167" lon="14.41086833"><ele>91.0</ele><time>2016-06-18T08:55:03.291Z</time></trkpt><trkpt lat="58.48666167" lon="14.41086833"><ele>91.0</ele><time>2016-06-18T08:55:04.298Z</time></trkpt><trkpt lat="58.48686833" lon="14.41093"><ele>91.0</ele><time>2016-06-18T08:55:05.283Z</time></trkpt><trkpt lat="58.48697333" lon="14.410955"><ele>91.0</ele><time>2016-06-18T08:55:06.298Z</time></trkpt><trkpt lat="58.48697333" lon="14.410955"><ele>91.0</ele><time>2016-06-18T08:55:07.310Z</time></trkpt><trkpt lat="58.48719333" lon="14.410995"><ele>91.0</ele><time>2016-06-18T08:55:08.317Z</time></trkpt><trkpt lat="58.48719333" lon="14.410995"><ele>91.0</ele><time>2016-06-18T08:55:09.320Z</time></trkpt><trkpt lat="58.48741833" lon="14.411005"><ele>90.0</ele><time>2016-06-18T08:55:10.314Z</time></trkpt><trkpt lat="58.48741833" lon="14.411005"><ele>90.0</ele><time>2016-06-18T08:55:11.303Z</time></trkpt><trkpt lat="58.48764667" lon="14.410965"><ele>90.0</ele><time>2016-06-18T08:55:12.298Z</time></trkpt><trkpt lat="58.48776" lon="14.410935"><ele>90.0</ele><time>2016-06-18T08:55:13.284Z</time></trkpt><trkpt lat="58.48776" lon="14.410935"><ele>90.0</ele><time>2016-06-18T08:55:14.310Z</time></trkpt><trkpt lat="58.48797667" lon="14.41085833"><ele>90.0</ele><time>2016-06-18T08:55:15.318Z</time></trkpt><trkpt lat="58.48797667" lon="14.41085833"><ele>90.0</ele><time>2016-06-18T08:55:16.299Z</time></trkpt><trkpt lat="58.48817833" lon="14.41074833"><ele>91.0</ele><time>2016-06-18T08:55:17.298Z</time></trkpt><trkpt lat="58.48817833" lon="14.41074833"><ele>91.0</ele><time>2016-06-18T08:55:18.316Z</time></trkpt><trkpt lat="58.48837" lon="14.41061833"><ele>91.0</ele><time>2016-06-18T08:55:19.282Z</time></trkpt><trkpt lat="58.48837" lon="14.41061833"><ele>91.0</ele><time>2016-06-18T08:55:20.301Z</time></trkpt><trkpt lat="58.48855333" lon="14.410485"><ele>92.0</ele><time>2016-06-18T08:55:21.298Z</time></trkpt><trkpt lat="58.48855333" lon="14.410485"><ele>92.0</ele><time>2016-06-18T08:55:22.310Z</time></trkpt><trkpt lat="58.48872667" lon="14.41036333"><ele>92.0</ele><time>2016-06-18T08:55:23.283Z</time></trkpt><trkpt lat="58.48872667" lon="14.41036333"><ele>92.0</ele><time>2016-06-18T08:55:24.290Z</time></trkpt><trkpt lat="58.48888833" lon="14.41024667"><ele>92.0</ele><time>2016-06-18T08:55:25.298Z</time></trkpt><trkpt lat="58.48896333" lon="14.410195"><ele>92.0</ele><time>2016-06-18T08:55:26.318Z</time></trkpt><trkpt lat="58.48896333" lon="14.410195"><ele>92.0</ele><time>2016-06-18T08:55:27.312Z</time></trkpt><trkpt lat="58.4891" lon="14.41012333"><ele>92.0</ele><time>2016-06-18T08:55:28.319Z</time></trkpt><trkpt lat="58.4891" lon="14.41012333"><ele>92.0</ele><time>2016-06-18T08:55:29.302Z</time></trkpt><trkpt lat="58.48923" lon="14.41014"><ele>92.0</ele><time>2016-06-18T08:55:30.298Z</time></trkpt><trkpt lat="58.48923" lon="14.41014"><ele>92.0</ele><time>2016-06-18T08:55:31.301Z</time></trkpt><trkpt lat="58.48934" lon="14.41033667"><ele>92.0</ele><time>2016-06-18T08:55:32.315Z</time></trkpt><trkpt lat="58.48937833" lon="14.41047667"><ele>92.0</ele><time>2016-06-18T08:55:33.302Z</time></trkpt><trkpt lat="58.48937833" lon="14.41047667"><ele>92.0</ele><time>2016-06-18T08:55:34.312Z</time></trkpt><trkpt lat="58.48944" lon="14.41080167"><ele>92.0</ele><time>2016-06-18T08:55:35.318Z</time></trkpt><trkpt lat="58.48946667" lon="14.41097833"><ele>92.0</ele><time>2016-06-18T08:55:36.315Z</time></trkpt><trkpt lat="58.48946667" lon="14.41097833"><ele>92.0</ele><time>2016-06-18T08:55:37.319Z</time></trkpt><trkpt lat="58.48952667" lon="14.41134333"><ele>92.0</ele><time>2016-06-18T08:55:38.286Z</time></trkpt><trkpt lat="58.48952667" lon="14.41134333"><ele>92.0</ele><time>2016-06-18T08:55:39.312Z</time></trkpt><trkpt lat="58.489575" lon="14.411725"><ele>93.0</ele><time>2016-06-18T08:55:40.289Z</time></trkpt><trkpt lat="58.489575" lon="14.411725"><ele>93.0</ele><time>2016-06-18T08:55:41.302Z</time></trkpt><trkpt lat="58.48962667" lon="14.41210667"><ele>93.0</ele><time>2016-06-18T08:55:42.310Z</time></trkpt><trkpt lat="58.48965" lon="14.41229667"><ele>93.0</ele><time>2016-06-18T08:55:43.295Z</time></trkpt><trkpt lat="58.48965" lon="14.41229667"><ele>93.0</ele><time>2016-06-18T08:55:44.301Z</time></trkpt><trkpt lat="58.489695" lon="14.41267333"><ele>93.0</ele><time>2016-06-18T08:55:45.310Z</time></trkpt><trkpt lat="58.489695" lon="14.41267333"><ele>93.0</ele><time>2016-06-18T08:55:46.317Z</time></trkpt><trkpt lat="58.48974" lon="14.413035"><ele>94.0</ele><time>2016-06-18T08:55:47.289Z</time></trkpt><trkpt lat="58.48974" lon="14.413035"><ele>94.0</ele><time>2016-06-18T08:55:48.314Z</time></trkpt><trkpt lat="58.489775" lon="14.413375"><ele>94.0</ele><time>2016-06-18T08:55:49.295Z</time></trkpt><trkpt lat="58.48979333" lon="14.41354333"><ele>95.0</ele><time>2016-06-18T08:55:50.286Z</time></trkpt><trkpt lat="58.48979333" lon="14.41354333"><ele>95.0</ele><time>2016-06-18T08:55:51.311Z</time></trkpt><trkpt lat="58.48982333" lon="14.41387333"><ele>95.0</ele><time>2016-06-18T08:55:52.283Z</time></trkpt><trkpt lat="58.489835" lon="14.414035"><ele>95.0</ele><time>2016-06-18T08:55:53.284Z</time></trkpt><trkpt lat="58.489835" lon="14.414035"><ele>95.0</ele><time>2016-06-18T08:55:54.291Z</time></trkpt><trkpt lat="58.48985833" lon="14.414345"><ele>95.0</ele><time>2016-06-18T08:55:55.318Z</time></trkpt><trkpt lat="58.48987333" lon="14.41450167"><ele>95.0</ele><time>2016-06-18T08:55:56.296Z</time></trkpt><trkpt lat="58.48987333" lon="14.41450167"><ele>95.0</ele><time>2016-06-18T08:55:57.318Z</time></trkpt><trkpt lat="58.489905" lon="14.414805"><ele>95.0</ele><time>2016-06-18T08:55:58.298Z</time></trkpt><trkpt lat="58.48991833" lon="14.41495167"><ele>95.0</ele><time>2016-06-18T08:55:59.284Z</time></trkpt><trkpt lat="58.48992833" lon="14.4151"><ele>96.0</ele><time>2016-06-18T08:56:00.311Z</time></trkpt><trkpt lat="58.48992833" lon="14.4151"><ele>96.0</ele><time>2016-06-18T08:56:01.321Z</time></trkpt><trkpt lat="58.48995333" lon="14.41541333"><ele>96.0</ele><time>2016-06-18T08:56:02.303Z</time></trkpt><trkpt lat="58.48995333" lon="14.41541333"><ele>96.0</ele><time>2016-06-18T08:56:03.318Z</time></trkpt><trkpt lat="58.48997333" lon="14.41573167"><ele>96.0</ele><time>2016-06-18T08:56:04.284Z</time></trkpt><trkpt lat="58.489985" lon="14.41589167"><ele>96.0</ele><time>2016-06-18T08:56:05.309Z</time></trkpt><trkpt lat="58.48999833" lon="14.416055"><ele>96.0</ele><time>2016-06-18T08:56:06.309Z</time></trkpt><trkpt lat="58.48999833" lon="14.416055"><ele>96.0</ele><time>2016-06-18T08:56:07.290Z</time></trkpt><trkpt lat="58.490025" lon="14.416385"><ele>96.0</ele><time>2016-06-18T08:56:08.297Z</time></trkpt><trkpt lat="58.490025" lon="14.416385"><ele>96.0</ele><time>2016-06-18T08:56:09.319Z</time></trkpt><trkpt lat="58.49004833" lon="14.41670667"><ele>96.0</ele><time>2016-06-18T08:56:10.305Z</time></trkpt><trkpt lat="58.49004833" lon="14.41670667"><ele>96.0</ele><time>2016-06-18T08:56:11.283Z</time></trkpt><trkpt lat="58.49006833" lon="14.41702"><ele>96.0</ele><time>2016-06-18T08:56:12.306Z</time></trkpt><trkpt lat="58.49008" lon="14.417185"><ele>96.0</ele><time>2016-06-18T08:56:13.287Z</time></trkpt><trkpt lat="58.49009" lon="14.41735167"><ele>96.0</ele><time>2016-06-18T08:56:14.314Z</time></trkpt><trkpt lat="58.49009" lon="14.41735167"><ele>96.0</ele><time>2016-06-18T08:56:15.296Z</time></trkpt><trkpt lat="58.49011333" lon="14.41768833"><ele>96.0</ele><time>2016-06-18T08:56:16.303Z</time></trkpt><trkpt lat="58.49012667" lon="14.41786167"><ele>96.0</ele><time>2016-06-18T08:56:17.319Z</time></trkpt><trkpt lat="58.49013833" lon="14.41804333"><ele>97.0</ele><time>2016-06-18T08:56:18.291Z</time></trkpt><trkpt lat="58.49013833" lon="14.41804333"><ele>97.0</ele><time>2016-06-18T08:56:19.307Z</time></trkpt><trkpt lat="58.49015667" lon="14.418415"><ele>97.0</ele><time>2016-06-18T08:56:20.314Z</time></trkpt><trkpt lat="58.49016667" lon="14.41860333"><ele>97.0</ele><time>2016-06-18T08:56:21.298Z</time></trkpt><trkpt lat="58.49016667" lon="14.41860333"><ele>97.0</ele><time>2016-06-18T08:56:22.321Z</time></trkpt><trkpt lat="58.49019167" lon="14.41898"><ele>97.0</ele><time>2016-06-18T08:56:23.301Z</time></trkpt><trkpt lat="58.49019167" lon="14.41898"><ele>97.0</ele><time>2016-06-18T08:56:24.283Z</time></trkpt><trkpt lat="58.49021833" lon="14.41936167"><ele>97.0</ele><time>2016-06-18T08:56:25.308Z</time></trkpt><trkpt lat="58.49023167" lon="14.41955333"><ele>97.0</ele><time>2016-06-18T08:56:26.315Z</time></trkpt><trkpt lat="58.49023167" lon="14.41955333"><ele>97.0</ele><time>2016-06-18T08:56:27.297Z</time></trkpt><trkpt lat="58.49026167" lon="14.41995333"><ele>96.0</ele><time>2016-06-18T08:56:28.315Z</time></trkpt><trkpt lat="58.49027667" lon="14.42015"><ele>95.0</ele><time>2016-06-18T08:56:29.285Z</time></trkpt><trkpt lat="58.49027667" lon="14.42015"><ele>95.0</ele><time>2016-06-18T08:56:30.312Z</time></trkpt><trkpt lat="58.49030333" lon="14.42054333"><ele>95.0</ele><time>2016-06-18T08:56:31.320Z</time></trkpt><trkpt lat="58.49030333" lon="14.42054333"><ele>95.0</ele><time>2016-06-18T08:56:32.303Z</time></trkpt><trkpt lat="58.49033333" lon="14.420935"><ele>95.0</ele><time>2016-06-18T08:56:33.320Z</time></trkpt><trkpt lat="58.49033333" lon="14.420935"><ele>95.0</ele><time>2016-06-18T08:56:34.318Z</time></trkpt><trkpt lat="58.49036" lon="14.42132833"><ele>95.0</ele><time>2016-06-18T08:56:35.285Z</time></trkpt><trkpt lat="58.49037333" lon="14.42152667"><ele>94.0</ele><time>2016-06-18T08:56:36.290Z</time></trkpt><trkpt lat="58.49037333" lon="14.42152667"><ele>94.0</ele><time>2016-06-18T08:56:37.321Z</time></trkpt><trkpt lat="58.49040167" lon="14.421925"><ele>94.0</ele><time>2016-06-18T08:56:38.308Z</time></trkpt><trkpt lat="58.49040167" lon="14.421925"><ele>94.0</ele><time>2016-06-18T08:56:39.300Z</time></trkpt><trkpt lat="58.49043167" lon="14.422325"><ele>94.0</ele><time>2016-06-18T08:56:40.317Z</time></trkpt><trkpt lat="58.49043167" lon="14.422325"><ele>94.0</ele><time>2016-06-18T08:56:41.300Z</time></trkpt><trkpt lat="58.49045833" lon="14.42272"><ele>93.0</ele><time>2016-06-18T08:56:42.310Z</time></trkpt><trkpt lat="58.49047333" lon="14.42291333"><ele>93.0</ele><time>2016-06-18T08:56:43.300Z</time></trkpt><trkpt lat="58.49047333" lon="14.42291333"><ele>93.0</ele><time>2016-06-18T08:56:44.290Z</time></trkpt><trkpt lat="58.4905" lon="14.42330833"><ele>93.0</ele><time>2016-06-18T08:56:45.318Z</time></trkpt><trkpt lat="58.4905" lon="14.42330833"><ele>93.0</ele><time>2016-06-18T08:56:46.320Z</time></trkpt><trkpt lat="58.49053" lon="14.42371667"><ele>93.0</ele><time>2016-06-18T08:56:47.286Z</time></trkpt><trkpt lat="58.49054667" lon="14.42392667"><ele>93.0</ele><time>2016-06-18T08:56:48.297Z</time></trkpt><trkpt lat="58.49054667" lon="14.42392667"><ele>93.0</ele><time>2016-06-18T08:56:49.303Z</time></trkpt><trkpt lat="58.49057833" lon="14.42435167"><ele>92.0</ele><time>2016-06-18T08:56:50.315Z</time></trkpt><trkpt lat="58.49059333" lon="14.42457167"><ele>92.0</ele><time>2016-06-18T08:56:51.283Z</time></trkpt><trkpt lat="58.49059333" lon="14.42457167"><ele>92.0</ele><time>2016-06-18T08:56:52.311Z</time></trkpt><trkpt lat="58.490625" lon="14.42501667"><ele>92.0</ele><time>2016-06-18T08:56:53.318Z</time></trkpt><trkpt lat="58.49063833" lon="14.42524167"><ele>92.0</ele><time>2016-06-18T08:56:54.290Z</time></trkpt><trkpt lat="58.49063833" lon="14.42524167"><ele>92.0</ele><time>2016-06-18T08:56:55.315Z</time></trkpt><trkpt lat="58.49066833" lon="14.42567833"><ele>91.0</ele><time>2016-06-18T08:56:56.308Z</time></trkpt><trkpt lat="58.49066833" lon="14.42567833"><ele>91.0</ele><time>2016-06-18T08:56:57.292Z</time></trkpt><trkpt lat="58.4907" lon="14.42610333"><ele>91.0</ele><time>2016-06-18T08:56:58.300Z</time></trkpt><trkpt lat="58.49071333" lon="14.42631333"><ele>91.0</ele><time>2016-06-18T08:56:59.285Z</time></trkpt><trkpt lat="58.49071333" lon="14.42631333"><ele>91.0</ele><time>2016-06-18T08:57:00.297Z</time></trkpt><trkpt lat="58.49074" lon="14.42672333"><ele>91.0</ele><time>2016-06-18T08:57:01.315Z</time></trkpt><trkpt lat="58.49074" lon="14.42672333"><ele>91.0</ele><time>2016-06-18T08:57:02.320Z</time></trkpt><trkpt lat="58.49076833" lon="14.42712833"><ele>91.0</ele><time>2016-06-18T08:57:03.288Z</time></trkpt><trkpt lat="58.49076833" lon="14.42712833"><ele>91.0</ele><time>2016-06-18T08:57:04.303Z</time></trkpt><trkpt lat="58.49079667" lon="14.427535"><ele>90.0</ele><time>2016-06-18T08:57:05.310Z</time></trkpt><trkpt lat="58.49079667" lon="14.427535"><ele>90.0</ele><time>2016-06-18T08:57:06.290Z</time></trkpt><trkpt lat="58.490825" lon="14.42795"><ele>90.0</ele><time>2016-06-18T08:57:07.298Z</time></trkpt><trkpt lat="58.49084" lon="14.42816167"><ele>90.0</ele><time>2016-06-18T08:57:08.289Z</time></trkpt><trkpt lat="58.49085833" lon="14.428375"><ele>89.0</ele><time>2016-06-18T08:57:09.291Z</time></trkpt><trkpt lat="58.49085833" lon="14.428375"><ele>89.0</ele><time>2016-06-18T08:57:10.299Z</time></trkpt><trkpt lat="58.49089167" lon="14.42880333"><ele>89.0</ele><time>2016-06-18T08:57:11.305Z</time></trkpt><trkpt lat="58.49089167" lon="14.42880333"><ele>89.0</ele><time>2016-06-18T08:57:12.295Z</time></trkpt><trkpt lat="58.49092333" lon="14.42923167"><ele>89.0</ele><time>2016-06-18T08:57:13.301Z</time></trkpt><trkpt lat="58.49092333" lon="14.42923167"><ele>89.0</ele><time>2016-06-18T08:57:14.321Z</time></trkpt><trkpt lat="58.49095667" lon="14.42965333"><ele>88.0</ele><time>2016-06-18T08:57:15.287Z</time></trkpt><trkpt lat="58.49097" lon="14.429865"><ele>88.0</ele><time>2016-06-18T08:57:16.315Z</time></trkpt><trkpt lat="58.49098333" lon="14.43007833"><ele>88.0</ele><time>2016-06-18T08:57:17.298Z</time></trkpt><trkpt lat="58.49098333" lon="14.43007833"><ele>88.0</ele><time>2016-06-18T08:57:18.321Z</time></trkpt><trkpt lat="58.491015" lon="14.43050667"><ele>87.0</ele><time>2016-06-18T08:57:19.287Z</time></trkpt><trkpt lat="58.49103167" lon="14.43072167"><ele>87.0</ele><time>2016-06-18T08:57:20.321Z</time></trkpt><trkpt lat="58.49103167" lon="14.43072167"><ele>87.0</ele><time>2016-06-18T08:57:21.314Z</time></trkpt><trkpt lat="58.49106333" lon="14.43115333"><ele>87.0</ele><time>2016-06-18T08:57:22.321Z</time></trkpt><trkpt lat="58.49108167" lon="14.43137167"><ele>87.0</ele><time>2016-06-18T08:57:23.289Z</time></trkpt><trkpt lat="58.49109667" lon="14.43159667"><ele>86.0</ele><time>2016-06-18T08:57:24.298Z</time></trkpt><trkpt lat="58.49109667" lon="14.43159667"><ele>86.0</ele><time>2016-06-18T08:57:25.320Z</time></trkpt><trkpt lat="58.491125" lon="14.432055"><ele>86.0</ele><time>2016-06-18T08:57:26.307Z</time></trkpt><trkpt lat="58.491125" lon="14.432055"><ele>86.0</ele><time>2016-06-18T08:57:27.314Z</time></trkpt><trkpt lat="58.49115833" lon="14.432525"><ele>86.0</ele><time>2016-06-18T08:57:28.321Z</time></trkpt><trkpt lat="58.49115833" lon="14.432525"><ele>86.0</ele><time>2016-06-18T08:57:29.301Z</time></trkpt><trkpt lat="58.49119333" lon="14.432995"><ele>86.0</ele><time>2016-06-18T08:57:30.308Z</time></trkpt><trkpt lat="58.49120833" lon="14.43322833"><ele>86.0</ele><time>2016-06-18T08:57:31.283Z</time></trkpt><trkpt lat="58.49120833" lon="14.43322833"><ele>86.0</ele><time>2016-06-18T08:57:32.312Z</time></trkpt><trkpt lat="58.49123833" lon="14.433695"><ele>86.0</ele><time>2016-06-18T08:57:33.320Z</time></trkpt><trkpt lat="58.49123833" lon="14.433695"><ele>86.0</ele><time>2016-06-18T08:57:34.290Z</time></trkpt><trkpt lat="58.49127" lon="14.43415"><ele>86.0</ele><time>2016-06-18T08:57:35.298Z</time></trkpt><trkpt lat="58.49128667" lon="14.434375"><ele>86.0</ele><time>2016-06-18T08:57:36.309Z</time></trkpt><trkpt lat="58.49128667" lon="14.434375"><ele>86.0</ele><time>2016-06-18T08:57:37.313Z</time></trkpt><trkpt lat="58.49131833" lon="14.43482333"><ele>86.0</ele><time>2016-06-18T08:57:38.320Z</time></trkpt><trkpt lat="58.49131833" lon="14.43482333"><ele>86.0</ele><time>2016-06-18T08:57:39.301Z</time></trkpt><trkpt lat="58.49135" lon="14.43527"><ele>86.0</ele><time>2016-06-18T08:57:40.308Z</time></trkpt><trkpt lat="58.49135" lon="14.43527"><ele>86.0</ele><time>2016-06-18T08:57:41.318Z</time></trkpt><trkpt lat="58.49138333" lon="14.43570833"><ele>87.0</ele><time>2016-06-18T08:57:42.295Z</time></trkpt><trkpt lat="58.49138333" lon="14.43570833"><ele>87.0</ele><time>2016-06-18T08:57:43.318Z</time></trkpt><trkpt lat="58.491415" lon="14.436145"><ele>87.0</ele><time>2016-06-18T08:57:44.304Z</time></trkpt><trkpt lat="58.491415" lon="14.436145"><ele>87.0</ele><time>2016-06-18T08:57:45.283Z</time></trkpt><trkpt lat="58.49144833" lon="14.43657333"><ele>86.0</ele><time>2016-06-18T08:57:46.289Z</time></trkpt><trkpt lat="58.491465" lon="14.43679"><ele>86.0</ele><time>2016-06-18T08:57:47.319Z</time></trkpt><trkpt lat="58.491465" lon="14.43679"><ele>86.0</ele><time>2016-06-18T08:57:48.283Z</time></trkpt><trkpt lat="58.49149833" lon="14.43722167"><ele>86.0</ele><time>2016-06-18T08:57:49.290Z</time></trkpt><trkpt lat="58.491515" lon="14.437435"><ele>86.0</ele><time>2016-06-18T08:57:50.293Z</time></trkpt><trkpt lat="58.491515" lon="14.437435"><ele>86.0</ele><time>2016-06-18T08:57:51.304Z</time></trkpt><trkpt lat="58.49154333" lon="14.43786833"><ele>87.0</ele><time>2016-06-18T08:57:52.310Z</time></trkpt><trkpt lat="58.49155833" lon="14.43808833"><ele>87.0</ele><time>2016-06-18T08:57:53.310Z</time></trkpt><trkpt lat="58.49155833" lon="14.43808833"><ele>87.0</ele><time>2016-06-18T08:57:54.315Z</time></trkpt><trkpt lat="58.49159" lon="14.43852667"><ele>86.0</ele><time>2016-06-18T08:57:55.283Z</time></trkpt><trkpt lat="58.49159" lon="14.43852667"><ele>86.0</ele><time>2016-06-18T08:57:56.297Z</time></trkpt><trkpt lat="58.49162167" lon="14.43895833"><ele>86.0</ele><time>2016-06-18T08:57:57.318Z</time></trkpt><trkpt lat="58.49162167" lon="14.43895833"><ele>86.0</ele><time>2016-06-18T08:57:58.314Z</time></trkpt><trkpt lat="58.49165167" lon="14.43939"><ele>86.0</ele><time>2016-06-18T08:57:59.322Z</time></trkpt><trkpt lat="58.49165167" lon="14.43939"><ele>86.0</ele><time>2016-06-18T08:58:00.288Z</time></trkpt><trkpt lat="58.49169167" lon="14.43981833"><ele>86.0</ele><time>2016-06-18T08:58:01.305Z</time></trkpt><trkpt lat="58.49171167" lon="14.44003333"><ele>86.0</ele><time>2016-06-18T08:58:02.296Z</time></trkpt><trkpt lat="58.49173167" lon="14.44024833"><ele>86.0</ele><time>2016-06-18T08:58:03.322Z</time></trkpt><trkpt lat="58.49173167" lon="14.44024833"><ele>86.0</ele><time>2016-06-18T08:58:04.302Z</time></trkpt><trkpt lat="58.49177667" lon="14.44066833"><ele>86.0</ele><time>2016-06-18T08:58:05.309Z</time></trkpt><trkpt lat="58.49177667" lon="14.44066833"><ele>86.0</ele><time>2016-06-18T08:58:06.290Z</time></trkpt><trkpt lat="58.49182667" lon="14.44108"><ele>87.0</ele><time>2016-06-18T08:58:07.300Z</time></trkpt><trkpt lat="58.49185167" lon="14.44128667"><ele>87.0</ele><time>2016-06-18T08:58:08.299Z</time></trkpt><trkpt lat="58.49185167" lon="14.44128667"><ele>87.0</ele><time>2016-06-18T08:58:09.321Z</time></trkpt><trkpt lat="58.49190833" lon="14.441705"><ele>87.0</ele><time>2016-06-18T08:58:10.310Z</time></trkpt><trkpt lat="58.49190833" lon="14.441705"><ele>87.0</ele><time>2016-06-18T08:58:11.528Z</time></trkpt><trkpt lat="58.49197" lon="14.442125"><ele>87.0</ele><time>2016-06-18T08:58:12.320Z</time></trkpt><trkpt lat="58.49200333" lon="14.44233667"><ele>87.0</ele><time>2016-06-18T08:58:13.306Z</time></trkpt><trkpt lat="58.49200333" lon="14.44233667"><ele>87.0</ele><time>2016-06-18T08:58:14.291Z</time></trkpt><trkpt lat="58.49207167" lon="14.44275"><ele>87.0</ele><time>2016-06-18T08:58:15.301Z</time></trkpt><trkpt lat="58.49207167" lon="14.44275"><ele>87.0</ele><time>2016-06-18T08:58:16.288Z</time></trkpt><trkpt lat="58.49214667" lon="14.44316167"><ele>87.0</ele><time>2016-06-18T08:58:17.308Z</time></trkpt><trkpt lat="58.49214667" lon="14.44316167"><ele>87.0</ele><time>2016-06-18T08:58:18.299Z</time></trkpt><trkpt lat="58.49222333" lon="14.443575"><ele>88.0</ele><time>2016-06-18T08:58:19.305Z</time></trkpt><trkpt lat="58.49226167" lon="14.44377833"><ele>88.0</ele><time>2016-06-18T08:58:20.308Z</time></trkpt><trkpt lat="58.49226167" lon="14.44377833"><ele>88.0</ele><time>2016-06-18T08:58:21.296Z</time></trkpt><trkpt lat="58.49234167" lon="14.44418"><ele>87.0</ele><time>2016-06-18T08:58:22.309Z</time></trkpt><trkpt lat="58.49238333" lon="14.44437333"><ele>87.0</ele><time>2016-06-18T08:58:23.300Z</time></trkpt><trkpt lat="58.49238333" lon="14.44437333"><ele>87.0</ele><time>2016-06-18T08:58:24.293Z</time></trkpt><trkpt lat="58.49247" lon="14.44475833"><ele>88.0</ele><time>2016-06-18T08:58:25.300Z</time></trkpt><trkpt lat="58.49251667" lon="14.44495167"><ele>88.0</ele><time>2016-06-18T08:58:26.290Z</time></trkpt><trkpt lat="58.49251667" lon="14.44495167"><ele>88.0</ele><time>2016-06-18T08:58:27.298Z</time></trkpt><trkpt lat="58.49261167" lon="14.44534"><ele>88.0</ele><time>2016-06-18T08:58:28.305Z</time></trkpt><trkpt lat="58.49266" lon="14.44553167"><ele>88.0</ele><time>2016-06-18T08:58:29.287Z</time></trkpt><trkpt lat="58.49266" lon="14.44553167"><ele>88.0</ele><time>2016-06-18T08:58:30.314Z</time></trkpt><trkpt lat="58.49275833" lon="14.44590833"><ele>89.0</ele><time>2016-06-18T08:58:31.321Z</time></trkpt><trkpt lat="58.49280833" lon="14.44609"><ele>89.0</ele><time>2016-06-18T08:58:32.302Z</time></trkpt><trkpt lat="58.49280833" lon="14.44609"><ele>89.0</ele><time>2016-06-18T08:58:33.284Z</time></trkpt><trkpt lat="58.49291" lon="14.44644833"><ele>89.0</ele><time>2016-06-18T08:58:34.296Z</time></trkpt><trkpt lat="58.492965" lon="14.44662833"><ele>89.0</ele><time>2016-06-18T08:58:35.290Z</time></trkpt><trkpt lat="58.492965" lon="14.44662833"><ele>89.0</ele><time>2016-06-18T08:58:36.316Z</time></trkpt><trkpt lat="58.49307333" lon="14.44698"><ele>89.0</ele><time>2016-06-18T08:58:37.304Z</time></trkpt><trkpt lat="58.49312833" lon="14.44715333"><ele>89.0</ele><time>2016-06-18T08:58:38.313Z</time></trkpt><trkpt lat="58.49312833" lon="14.44715333"><ele>89.0</ele><time>2016-06-18T08:58:39.296Z</time></trkpt><trkpt lat="58.49324167" lon="14.44749667"><ele>89.0</ele><time>2016-06-18T08:58:40.316Z</time></trkpt><trkpt lat="58.49330167" lon="14.44767333"><ele>89.0</ele><time>2016-06-18T08:58:41.290Z</time></trkpt><trkpt lat="58.49330167" lon="14.44767333"><ele>89.0</ele><time>2016-06-18T08:58:42.317Z</time></trkpt><trkpt lat="58.49341833" lon="14.44800333"><ele>89.0</ele><time>2016-06-18T08:58:43.291Z</time></trkpt><trkpt lat="58.49347833" lon="14.44816167"><ele>89.0</ele><time>2016-06-18T08:58:44.322Z</time></trkpt><trkpt lat="58.49347833" lon="14.44816167"><ele>89.0</ele><time>2016-06-18T08:58:45.303Z</time></trkpt><trkpt lat="58.49359" lon="14.44846833"><ele>89.0</ele><time>2016-06-18T08:58:46.299Z</time></trkpt><trkpt lat="58.49359" lon="14.44846833"><ele>89.0</ele><time>2016-06-18T08:58:47.303Z</time></trkpt><trkpt lat="58.493705" lon="14.44878667"><ele>89.0</ele><time>2016-06-18T08:58:48.310Z</time></trkpt><trkpt lat="58.49376833" lon="14.448945"><ele>89.0</ele><time>2016-06-18T08:58:49.288Z</time></trkpt><trkpt lat="58.49383167" lon="14.449105"><ele>89.0</ele><time>2016-06-18T08:58:50.289Z</time></trkpt><trkpt lat="58.49383167" lon="14.449105"><ele>89.0</ele><time>2016-06-18T08:58:51.316Z</time></trkpt><trkpt lat="58.49396667" lon="14.44942"><ele>89.0</ele><time>2016-06-18T08:58:52.291Z</time></trkpt><trkpt lat="58.49396667" lon="14.44942"><ele>89.0</ele><time>2016-06-18T08:58:53.319Z</time></trkpt><trkpt lat="58.49410333" lon="14.44973"><ele>89.0</ele><time>2016-06-18T08:58:54.285Z</time></trkpt><trkpt lat="58.49410333" lon="14.44973"><ele>89.0</ele><time>2016-06-18T08:58:55.314Z</time></trkpt><trkpt lat="58.49424333" lon="14.45003833"><ele>88.0</ele><time>2016-06-18T08:58:56.321Z</time></trkpt><trkpt lat="58.49424333" lon="14.45003833"><ele>88.0</ele><time>2016-06-18T08:58:57.319Z</time></trkpt><trkpt lat="58.49438333" lon="14.45034167"><ele>88.0</ele><time>2016-06-18T08:58:58.285Z</time></trkpt><trkpt lat="58.49445167" lon="14.45049167"><ele>88.0</ele><time>2016-06-18T08:58:59.310Z</time></trkpt><trkpt lat="58.49445167" lon="14.45049167"><ele>88.0</ele><time>2016-06-18T08:59:00.297Z</time></trkpt><trkpt lat="58.49458667" lon="14.45078833"><ele>88.0</ele><time>2016-06-18T08:59:01.318Z</time></trkpt><trkpt lat="58.494655" lon="14.450935"><ele>88.0</ele><time>2016-06-18T08:59:02.313Z</time></trkpt><trkpt lat="58.49472167" lon="14.45108167"><ele>88.0</ele><time>2016-06-18T08:59:03.311Z</time></trkpt><trkpt lat="58.49472167" lon="14.45108167"><ele>88.0</ele><time>2016-06-18T08:59:04.296Z</time></trkpt><trkpt lat="58.49485833" lon="14.45136667"><ele>88.0</ele><time>2016-06-18T08:59:05.301Z</time></trkpt><trkpt lat="58.49493" lon="14.45151333"><ele>88.0</ele><time>2016-06-18T08:59:06.288Z</time></trkpt><trkpt lat="58.49493" lon="14.45151333"><ele>88.0</ele><time>2016-06-18T08:59:07.300Z</time></trkpt><trkpt lat="58.495065" lon="14.45181833"><ele>87.0</ele><time>2016-06-18T08:59:08.307Z</time></trkpt><trkpt lat="58.495065" lon="14.45181833"><ele>87.0</ele><time>2016-06-18T08:59:09.297Z</time></trkpt><trkpt lat="58.49520167" lon="14.45212667"><ele>87.0</ele><time>2016-06-18T08:59:10.300Z</time></trkpt><trkpt lat="58.49520167" lon="14.45212667"><ele>87.0</ele><time>2016-06-18T08:59:11.306Z</time></trkpt><trkpt lat="58.49533833" lon="14.45243167"><ele>87.0</ele><time>2016-06-18T08:59:12.296Z</time></trkpt><trkpt lat="58.49540333" lon="14.45258167"><ele>87.0</ele><time>2016-06-18T08:59:13.287Z</time></trkpt><trkpt lat="58.49540333" lon="14.45258167"><ele>87.0</ele><time>2016-06-18T08:59:14.315Z</time></trkpt><trkpt lat="58.49553333" lon="14.45288167"><ele>86.0</ele><time>2016-06-18T08:59:15.298Z</time></trkpt><trkpt lat="58.49560333" lon="14.45303"><ele>86.0</ele><time>2016-06-18T08:59:16.303Z</time></trkpt><trkpt lat="58.49567333" lon="14.45317167"><ele>86.0</ele><time>2016-06-18T08:59:17.285Z</time></trkpt><trkpt lat="58.49567333" lon="14.45317167"><ele>86.0</ele><time>2016-06-18T08:59:18.312Z</time></trkpt><trkpt lat="58.49579667" lon="14.45347333"><ele>86.0</ele><time>2016-06-18T08:59:19.321Z</time></trkpt><trkpt lat="58.495865" lon="14.45362833"><ele>86.0</ele><time>2016-06-18T08:59:20.300Z</time></trkpt><trkpt lat="58.495865" lon="14.45362833"><ele>86.0</ele><time>2016-06-18T08:59:21.283Z</time></trkpt><trkpt lat="58.49600167" lon="14.45393"><ele>86.0</ele><time>2016-06-18T08:59:22.290Z</time></trkpt><trkpt lat="58.49607" lon="14.45407333"><ele>86.0</ele><time>2016-06-18T08:59:23.301Z</time></trkpt><trkpt lat="58.49607" lon="14.45407333"><ele>86.0</ele><time>2016-06-18T08:59:24.284Z</time></trkpt><trkpt lat="58.49620833" lon="14.45435167"><ele>87.0</ele><time>2016-06-18T08:59:25.311Z</time></trkpt><trkpt lat="58.49620833" lon="14.45435167"><ele>87.0</ele><time>2016-06-18T08:59:26.316Z</time></trkpt><trkpt lat="58.49633667" lon="14.45461833"><ele>87.0</ele><time>2016-06-18T08:59:27.283Z</time></trkpt><trkpt lat="58.49633667" lon="14.45461833"><ele>87.0</ele><time>2016-06-18T08:59:28.309Z</time></trkpt><trkpt lat="58.49646167" lon="14.45490667"><ele>87.0</ele><time>2016-06-18T08:59:29.311Z</time></trkpt><trkpt lat="58.49646167" lon="14.45490667"><ele>87.0</ele><time>2016-06-18T08:59:30.318Z</time></trkpt><trkpt lat="58.49658667" lon="14.45519"><ele>87.0</ele><time>2016-06-18T08:59:31.285Z</time></trkpt><trkpt lat="58.49665167" lon="14.45532667"><ele>87.0</ele><time>2016-06-18T08:59:32.315Z</time></trkpt><trkpt lat="58.49671833" lon="14.45546333"><ele>87.0</ele><time>2016-06-18T08:59:33.316Z</time></trkpt><trkpt lat="58.49671833" lon="14.45546333"><ele>87.0</ele><time>2016-06-18T08:59:34.315Z</time></trkpt><trkpt lat="58.49683667" lon="14.45575"><ele>87.0</ele><time>2016-06-18T08:59:35.284Z</time></trkpt><trkpt lat="58.49689167" lon="14.45588833"><ele>87.0</ele><time>2016-06-18T08:59:36.304Z</time></trkpt><trkpt lat="58.49689167" lon="14.45588833"><ele>87.0</ele><time>2016-06-18T08:59:37.297Z</time></trkpt><trkpt lat="58.49701" lon="14.45614"><ele>87.0</ele><time>2016-06-18T08:59:38.307Z</time></trkpt><trkpt lat="58.49701" lon="14.45614"><ele>87.0</ele><time>2016-06-18T08:59:39.315Z</time></trkpt><trkpt lat="58.49712667" lon="14.45638"><ele>87.0</ele><time>2016-06-18T08:59:40.285Z</time></trkpt><trkpt lat="58.49712667" lon="14.45638"><ele>87.0</ele><time>2016-06-18T08:59:41.297Z</time></trkpt><trkpt lat="58.49723667" lon="14.45662667"><ele>87.0</ele><time>2016-06-18T08:59:42.303Z</time></trkpt><trkpt lat="58.49729667" lon="14.45675167"><ele>86.0</ele><time>2016-06-18T08:59:43.287Z</time></trkpt><trkpt lat="58.49729667" lon="14.45675167"><ele>86.0</ele><time>2016-06-18T08:59:44.282Z</time></trkpt><trkpt lat="58.49742167" lon="14.45701833"><ele>86.0</ele><time>2016-06-18T08:59:45.288Z</time></trkpt><trkpt lat="58.49748" lon="14.45715667"><ele>86.0</ele><time>2016-06-18T08:59:46.307Z</time></trkpt><trkpt lat="58.49748" lon="14.45715667"><ele>86.0</ele><time>2016-06-18T08:59:47.310Z</time></trkpt><trkpt lat="58.49759667" lon="14.45743333"><ele>86.0</ele><time>2016-06-18T08:59:48.318Z</time></trkpt><trkpt lat="58.49766" lon="14.45758167"><ele>86.0</ele><time>2016-06-18T08:59:49.308Z</time></trkpt><trkpt lat="58.49766" lon="14.45758167"><ele>86.0</ele><time>2016-06-18T08:59:50.301Z</time></trkpt><trkpt lat="58.49779167" lon="14.45786833"><ele>86.0</ele><time>2016-06-18T08:59:51.316Z</time></trkpt><trkpt lat="58.49779167" lon="14.45786833"><ele>86.0</ele><time>2016-06-18T08:59:52.282Z</time></trkpt><trkpt lat="58.49791333" lon="14.45816833"><ele>85.0</ele><time>2016-06-18T08:59:53.301Z</time></trkpt><trkpt lat="58.49791333" lon="14.45816833"><ele>85.0</ele><time>2016-06-18T08:59:54.282Z</time></trkpt><trkpt lat="58.49803667" lon="14.45846167"><ele>85.0</ele><time>2016-06-18T08:59:55.289Z</time></trkpt><trkpt lat="58.4981" lon="14.45861167"><ele>85.0</ele><time>2016-06-18T08:59:56.305Z</time></trkpt><trkpt lat="58.4981" lon="14.45861167"><ele>85.0</ele><time>2016-06-18T08:59:57.289Z</time></trkpt><trkpt lat="58.49823667" lon="14.458905"><ele>85.0</ele><time>2016-06-18T08:59:58.308Z</time></trkpt><trkpt lat="58.49823667" lon="14.458905"><ele>85.0</ele><time>2016-06-18T08:59:59.297Z</time></trkpt><trkpt lat="58.49837333" lon="14.45920333"><ele>85.0</ele><time>2016-06-18T09:00:00.308Z</time></trkpt><trkpt lat="58.49837333" lon="14.45920333"><ele>85.0</ele><time>2016-06-18T09:00:01.283Z</time></trkpt><trkpt lat="58.49852167" lon="14.45948833"><ele>85.0</ele><time>2016-06-18T09:00:02.318Z</time></trkpt><trkpt lat="58.49852167" lon="14.45948833"><ele>85.0</ele><time>2016-06-18T09:00:03.315Z</time></trkpt><trkpt lat="58.49867833" lon="14.45977667"><ele>86.0</ele><time>2016-06-18T09:00:04.322Z</time></trkpt><trkpt lat="58.49875667" lon="14.459915"><ele>86.0</ele><time>2016-06-18T09:00:05.313Z</time></trkpt><trkpt lat="58.49875667" lon="14.459915"><ele>86.0</ele><time>2016-06-18T09:00:06.319Z</time></trkpt><trkpt lat="58.49890833" lon="14.460175"><ele>87.0</ele><time>2016-06-18T09:00:07.287Z</time></trkpt><trkpt lat="58.49899" lon="14.460305"><ele>87.0</ele><time>2016-06-18T09:00:08.318Z</time></trkpt><trkpt lat="58.49899" lon="14.460305"><ele>87.0</ele><time>2016-06-18T09:00:09.284Z</time></trkpt><trkpt lat="58.49915333" lon="14.46057667"><ele>88.0</ele><time>2016-06-18T09:00:10.296Z</time></trkpt><trkpt lat="58.49915333" lon="14.46057667"><ele>88.0</ele><time>2016-06-18T09:00:11.307Z</time></trkpt><trkpt lat="58.49932667" lon="14.46083167"><ele>88.0</ele><time>2016-06-18T09:00:12.297Z</time></trkpt><trkpt lat="58.49932667" lon="14.46083167"><ele>88.0</ele><time>2016-06-18T09:00:13.283Z</time></trkpt><trkpt lat="58.49949833" lon="14.46107667"><ele>89.0</ele><time>2016-06-18T09:00:14.289Z</time></trkpt><trkpt lat="58.49949833" lon="14.46107667"><ele>89.0</ele><time>2016-06-18T09:00:15.317Z</time></trkpt><trkpt lat="58.49967" lon="14.46130667"><ele>90.0</ele><time>2016-06-18T09:00:16.309Z</time></trkpt><trkpt lat="58.49975333" lon="14.46141167"><ele>90.0</ele><time>2016-06-18T09:00:17.283Z</time></trkpt><trkpt lat="58.49975333" lon="14.46141167"><ele>90.0</ele><time>2016-06-18T09:00:18.292Z</time></trkpt><trkpt lat="58.49992" lon="14.4616"><ele>89.0</ele><time>2016-06-18T09:00:19.306Z</time></trkpt><trkpt lat="58.49992" lon="14.4616"><ele>89.0</ele><time>2016-06-18T09:00:20.299Z</time></trkpt><trkpt lat="58.50007833" lon="14.46178667"><ele>90.0</ele><time>2016-06-18T09:00:21.306Z</time></trkpt><trkpt lat="58.50007833" lon="14.46178667"><ele>90.0</ele><time>2016-06-18T09:00:22.287Z</time></trkpt><trkpt lat="58.50023" lon="14.46195333"><ele>90.0</ele><time>2016-06-18T09:00:23.295Z</time></trkpt><trkpt lat="58.50023" lon="14.46195333"><ele>90.0</ele><time>2016-06-18T09:00:24.315Z</time></trkpt><trkpt lat="58.500385" lon="14.46211333"><ele>90.0</ele><time>2016-06-18T09:00:25.282Z</time></trkpt><trkpt lat="58.500465" lon="14.46218667"><ele>91.0</ele><time>2016-06-18T09:00:26.289Z</time></trkpt><trkpt lat="58.500465" lon="14.46218667"><ele>91.0</ele><time>2016-06-18T09:00:27.284Z</time></trkpt><trkpt lat="58.50062167" lon="14.46234167"><ele>91.0</ele><time>2016-06-18T09:00:28.322Z</time></trkpt><trkpt lat="58.50062167" lon="14.46234167"><ele>91.0</ele><time>2016-06-18T09:00:29.316Z</time></trkpt><trkpt lat="58.50078" lon="14.46247667"><ele>91.0</ele><time>2016-06-18T09:00:30.284Z</time></trkpt><trkpt lat="58.50085667" lon="14.46254"><ele>91.0</ele><time>2016-06-18T09:00:31.287Z</time></trkpt><trkpt lat="58.50093333" lon="14.46260667"><ele>91.0</ele><time>2016-06-18T09:00:32.305Z</time></trkpt><trkpt lat="58.50093333" lon="14.46260667"><ele>91.0</ele><time>2016-06-18T09:00:33.316Z</time></trkpt><trkpt lat="58.50108" lon="14.46273"><ele>92.0</ele><time>2016-06-18T09:00:34.283Z</time></trkpt><trkpt lat="58.50108" lon="14.46273"><ele>92.0</ele><time>2016-06-18T09:00:35.283Z</time></trkpt><trkpt lat="58.501225" lon="14.46282833"><ele>92.0</ele><time>2016-06-18T09:00:36.294Z</time></trkpt><trkpt lat="58.501225" lon="14.46282833"><ele>92.0</ele><time>2016-06-18T09:00:37.297Z</time></trkpt><trkpt lat="58.50136667" lon="14.46292167"><ele>93.0</ele><time>2016-06-18T09:00:38.304Z</time></trkpt><trkpt lat="58.50136667" lon="14.46292167"><ele>93.0</ele><time>2016-06-18T09:00:39.285Z</time></trkpt><trkpt lat="58.50150667" lon="14.46300667"><ele>93.0</ele><time>2016-06-18T09:00:40.298Z</time></trkpt><trkpt lat="58.50150667" lon="14.46300667"><ele>93.0</ele><time>2016-06-18T09:00:41.309Z</time></trkpt><trkpt lat="58.50164" lon="14.463085"><ele>94.0</ele><time>2016-06-18T09:00:42.316Z</time></trkpt><trkpt lat="58.50164" lon="14.463085"><ele>94.0</ele><time>2016-06-18T09:00:43.300Z</time></trkpt><trkpt lat="58.50177833" lon="14.46316333"><ele>94.0</ele><time>2016-06-18T09:00:44.318Z</time></trkpt><trkpt lat="58.50177833" lon="14.46316333"><ele>94.0</ele><time>2016-06-18T09:00:45.291Z</time></trkpt><trkpt lat="58.50191833" lon="14.46323667"><ele>94.0</ele><time>2016-06-18T09:00:46.300Z</time></trkpt><trkpt lat="58.50199" lon="14.463265"><ele>94.0</ele><time>2016-06-18T09:00:47.288Z</time></trkpt><trkpt lat="58.50199" lon="14.463265"><ele>94.0</ele><time>2016-06-18T09:00:48.288Z</time></trkpt><trkpt lat="58.502135" lon="14.46332833"><ele>95.0</ele><time>2016-06-18T09:00:49.294Z</time></trkpt><trkpt lat="58.50221" lon="14.46336"><ele>95.0</ele><time>2016-06-18T09:00:50.295Z</time></trkpt><trkpt lat="58.50221" lon="14.46336"><ele>95.0</ele><time>2016-06-18T09:00:51.315Z</time></trkpt><trkpt lat="58.50236333" lon="14.46341667"><ele>95.0</ele><time>2016-06-18T09:00:52.282Z</time></trkpt><trkpt lat="58.50236333" lon="14.46341667"><ele>95.0</ele><time>2016-06-18T09:00:53.317Z</time></trkpt><trkpt lat="58.50252" lon="14.46347167"><ele>95.0</ele><time>2016-06-18T09:00:54.301Z</time></trkpt><trkpt lat="58.50252" lon="14.46347167"><ele>95.0</ele><time>2016-06-18T09:00:55.291Z</time></trkpt><trkpt lat="58.50267" lon="14.46351667"><ele>95.0</ele><time>2016-06-18T09:00:56.301Z</time></trkpt><trkpt lat="58.50267" lon="14.46351667"><ele>95.0</ele><time>2016-06-18T09:00:57.283Z</time></trkpt><trkpt lat="58.50267" lon="14.46351667"><ele>95.0</ele><time>2016-06-18T09:00:58.301Z</time></trkpt><trkpt lat="58.50282167" lon="14.46356333"><ele>95.0</ele><time>2016-06-18T09:00:59.316Z</time></trkpt><trkpt lat="58.50297667" lon="14.46360667"><ele>95.0</ele><time>2016-06-18T09:01:00.284Z</time></trkpt><trkpt lat="58.50297667" lon="14.46360667"><ele>95.0</ele><time>2016-06-18T09:01:01.300Z</time></trkpt><trkpt lat="58.50314" lon="14.463635"><ele>95.0</ele><time>2016-06-18T09:01:02.307Z</time></trkpt><trkpt lat="58.50314" lon="14.463635"><ele>95.0</ele><time>2016-06-18T09:01:03.289Z</time></trkpt><trkpt lat="58.50330667" lon="14.46367333"><ele>94.0</ele><time>2016-06-18T09:01:04.288Z</time></trkpt><trkpt lat="58.50339333" lon="14.46369333"><ele>94.0</ele><time>2016-06-18T09:01:05.289Z</time></trkpt><trkpt lat="58.50348" lon="14.46370833"><ele>94.0</ele><time>2016-06-18T09:01:06.314Z</time></trkpt><trkpt lat="58.50348" lon="14.46370833"><ele>94.0</ele><time>2016-06-18T09:01:07.320Z</time></trkpt><trkpt lat="58.503645" lon="14.46374333"><ele>93.0</ele><time>2016-06-18T09:01:08.308Z</time></trkpt><trkpt lat="58.503645" lon="14.46374333"><ele>93.0</ele><time>2016-06-18T09:01:09.315Z</time></trkpt><trkpt lat="58.50381333" lon="14.463775"><ele>93.0</ele><time>2016-06-18T09:01:10.282Z</time></trkpt><trkpt lat="58.50381333" lon="14.463775"><ele>93.0</ele><time>2016-06-18T09:01:11.299Z</time></trkpt><trkpt lat="58.50398167" lon="14.46381"><ele>93.0</ele><time>2016-06-18T09:01:12.318Z</time></trkpt><trkpt lat="58.50406667" lon="14.46382333"><ele>92.0</ele><time>2016-06-18T09:01:13.285Z</time></trkpt><trkpt lat="58.50406667" lon="14.46382333"><ele>92.0</ele><time>2016-06-18T09:01:14.316Z</time></trkpt><trkpt lat="58.50424167" lon="14.46384833"><ele>93.0</ele><time>2016-06-18T09:01:15.306Z</time></trkpt><trkpt lat="58.50424167" lon="14.46384833"><ele>93.0</ele><time>2016-06-18T09:01:16.282Z</time></trkpt><trkpt lat="58.50442333" lon="14.46387833"><ele>93.0</ele><time>2016-06-18T09:01:17.288Z</time></trkpt><trkpt lat="58.50442333" lon="14.46387833"><ele>93.0</ele><time>2016-06-18T09:01:18.298Z</time></trkpt><trkpt lat="58.504615" lon="14.46391167"><ele>92.0</ele><time>2016-06-18T09:01:19.317Z</time></trkpt><trkpt lat="58.504615" lon="14.46391167"><ele>92.0</ele><time>2016-06-18T09:01:20.283Z</time></trkpt><trkpt lat="58.50481" lon="14.46395667"><ele>92.0</ele><time>2016-06-18T09:01:21.289Z</time></trkpt><trkpt lat="58.50481" lon="14.46395667"><ele>92.0</ele><time>2016-06-18T09:01:22.300Z</time></trkpt><trkpt lat="58.50501333" lon="14.46399833"><ele>91.0</ele><time>2016-06-18T09:01:23.321Z</time></trkpt><trkpt lat="58.50501333" lon="14.46399833"><ele>91.0</ele><time>2016-06-18T09:01:24.317Z</time></trkpt><trkpt lat="58.50522667" lon="14.46402333"><ele>91.0</ele><time>2016-06-18T09:01:25.284Z</time></trkpt><trkpt lat="58.505335" lon="14.464035"><ele>92.0</ele><time>2016-06-18T09:01:26.305Z</time></trkpt><trkpt lat="58.505335" lon="14.464035"><ele>92.0</ele><time>2016-06-18T09:01:27.317Z</time></trkpt><trkpt lat="58.50553833" lon="14.46405333"><ele>93.0</ele><time>2016-06-18T09:01:28.289Z</time></trkpt><trkpt lat="58.50553833" lon="14.46405333"><ele>93.0</ele><time>2016-06-18T09:01:29.299Z</time></trkpt><trkpt lat="58.50572167" lon="14.46407833"><ele>93.0</ele><time>2016-06-18T09:01:30.305Z</time></trkpt><trkpt lat="58.50572167" lon="14.46407833"><ele>93.0</ele><time>2016-06-18T09:01:31.286Z</time></trkpt><trkpt lat="58.50591333" lon="14.46412"><ele>92.0</ele><time>2016-06-18T09:01:32.309Z</time></trkpt><trkpt lat="58.50591333" lon="14.46412"><ele>92.0</ele><time>2016-06-18T09:01:33.308Z</time></trkpt><trkpt lat="58.50610667" lon="14.46416667"><ele>92.0</ele><time>2016-06-18T09:01:34.282Z</time></trkpt><trkpt lat="58.50620667" lon="14.464185"><ele>92.0</ele><time>2016-06-18T09:01:35.309Z</time></trkpt><trkpt lat="58.50630333" lon="14.46420167"><ele>91.0</ele><time>2016-06-18T09:01:36.319Z</time></trkpt><trkpt lat="58.50630333" lon="14.46420167"><ele>91.0</ele><time>2016-06-18T09:01:37.319Z</time></trkpt><trkpt lat="58.5065" lon="14.46424667"><ele>90.0</ele><time>2016-06-18T09:01:38.299Z</time></trkpt><trkpt lat="58.5065" lon="14.46424667"><ele>90.0</ele><time>2016-06-18T09:01:39.321Z</time></trkpt><trkpt lat="58.50670333" lon="14.46427833"><ele>91.0</ele><time>2016-06-18T09:01:40.308Z</time></trkpt><trkpt lat="58.50670333" lon="14.46427833"><ele>91.0</ele><time>2016-06-18T09:01:41.316Z</time></trkpt><trkpt lat="58.506915" lon="14.46433"><ele>91.0</ele><time>2016-06-18T09:01:42.298Z</time></trkpt><trkpt lat="58.50702167" lon="14.46436667"><ele>90.0</ele><time>2016-06-18T09:01:43.301Z</time></trkpt><trkpt lat="58.50713" lon="14.4644"><ele>91.0</ele><time>2016-06-18T09:01:44.312Z</time></trkpt><trkpt lat="58.50713" lon="14.4644"><ele>91.0</ele><time>2016-06-18T09:01:45.298Z</time></trkpt><trkpt lat="58.50735" lon="14.46447833"><ele>91.0</ele><time>2016-06-18T09:01:46.312Z</time></trkpt><trkpt lat="58.50745667" lon="14.46452167"><ele>90.0</ele><time>2016-06-18T09:01:47.307Z</time></trkpt><trkpt lat="58.50745667" lon="14.46452167"><ele>90.0</ele><time>2016-06-18T09:01:48.289Z</time></trkpt><trkpt lat="58.50766667" lon="14.46462"><ele>90.0</ele><time>2016-06-18T09:01:49.298Z</time></trkpt><trkpt lat="58.50777167" lon="14.46467"><ele>90.0</ele><time>2016-06-18T09:01:50.318Z</time></trkpt><trkpt lat="58.50777167" lon="14.46467"><ele>90.0</ele><time>2016-06-18T09:01:51.287Z</time></trkpt><trkpt lat="58.50797333" lon="14.46478"><ele>89.0</ele><time>2016-06-18T09:01:52.307Z</time></trkpt><trkpt lat="58.508075" lon="14.46483833"><ele>89.0</ele><time>2016-06-18T09:01:53.288Z</time></trkpt><trkpt lat="58.508075" lon="14.46483833"><ele>89.0</ele><time>2016-06-18T09:01:54.316Z</time></trkpt><trkpt lat="58.508275" lon="14.46496667"><ele>89.0</ele><time>2016-06-18T09:01:55.285Z</time></trkpt><trkpt lat="58.508375" lon="14.46503833"><ele>89.0</ele><time>2016-06-18T09:01:56.310Z</time></trkpt><trkpt lat="58.508375" lon="14.46503833"><ele>89.0</ele><time>2016-06-18T09:01:57.317Z</time></trkpt><trkpt lat="58.50857167" lon="14.46518833"><ele>88.0</ele><time>2016-06-18T09:01:58.294Z</time></trkpt><trkpt lat="58.508665" lon="14.46526667"><ele>88.0</ele><time>2016-06-18T09:01:59.317Z</time></trkpt><trkpt lat="58.508665" lon="14.46526667"><ele>88.0</ele><time>2016-06-18T09:02:00.301Z</time></trkpt><trkpt lat="58.508855" lon="14.46543667"><ele>88.0</ele><time>2016-06-18T09:02:01.319Z</time></trkpt><trkpt lat="58.508855" lon="14.46543667"><ele>88.0</ele><time>2016-06-18T09:02:02.288Z</time></trkpt><trkpt lat="58.50904167" lon="14.46562"><ele>88.0</ele><time>2016-06-18T09:02:03.298Z</time></trkpt><trkpt lat="58.50904167" lon="14.46562"><ele>88.0</ele><time>2016-06-18T09:02:04.320Z</time></trkpt><trkpt lat="58.50921667" lon="14.46580833"><ele>88.0</ele><time>2016-06-18T09:02:05.322Z</time></trkpt><trkpt lat="58.50921667" lon="14.46580833"><ele>88.0</ele><time>2016-06-18T09:02:06.298Z</time></trkpt><trkpt lat="58.50937833" lon="14.465995"><ele>88.0</ele><time>2016-06-18T09:02:07.304Z</time></trkpt><trkpt lat="58.50937833" lon="14.465995"><ele>88.0</ele><time>2016-06-18T09:02:08.297Z</time></trkpt><trkpt lat="58.50945667" lon="14.46608833"><ele>88.0</ele><time>2016-06-18T09:02:09.313Z</time></trkpt><trkpt lat="58.509605" lon="14.466275"><ele>88.0</ele><time>2016-06-18T09:02:10.289Z</time></trkpt><trkpt lat="58.509605" lon="14.466275"><ele>88.0</ele><time>2016-06-18T09:02:11.292Z</time></trkpt><trkpt lat="58.50974833" lon="14.466455"><ele>88.0</ele><time>2016-06-18T09:02:12.319Z</time></trkpt><trkpt lat="58.50981833" lon="14.46655167"><ele>88.0</ele><time>2016-06-18T09:02:13.308Z</time></trkpt><trkpt lat="58.50981833" lon="14.46655167"><ele>88.0</ele><time>2016-06-18T09:02:14.289Z</time></trkpt><trkpt lat="58.50995333" lon="14.46674333"><ele>88.0</ele><time>2016-06-18T09:02:15.318Z</time></trkpt><trkpt lat="58.50995333" lon="14.46674333"><ele>88.0</ele><time>2016-06-18T09:02:16.284Z</time></trkpt><trkpt lat="58.510085" lon="14.46695167"><ele>88.0</ele><time>2016-06-18T09:02:17.292Z</time></trkpt><trkpt lat="58.510085" lon="14.46695167"><ele>88.0</ele><time>2016-06-18T09:02:18.301Z</time></trkpt><trkpt lat="58.51022" lon="14.46717167"><ele>89.0</ele><time>2016-06-18T09:02:19.308Z</time></trkpt><trkpt lat="58.51029167" lon="14.46729"><ele>89.0</ele><time>2016-06-18T09:02:20.302Z</time></trkpt><trkpt lat="58.51029167" lon="14.46729"><ele>89.0</ele><time>2016-06-18T09:02:21.284Z</time></trkpt><trkpt lat="58.51043" lon="14.46753167"><ele>89.0</ele><time>2016-06-18T09:02:22.298Z</time></trkpt><trkpt lat="58.51049667" lon="14.46765"><ele>89.0</ele><time>2016-06-18T09:02:23.294Z</time></trkpt><trkpt lat="58.51049667" lon="14.46765"><ele>89.0</ele><time>2016-06-18T09:02:24.319Z</time></trkpt><trkpt lat="58.51063" lon="14.467895"><ele>89.0</ele><time>2016-06-18T09:02:25.319Z</time></trkpt><trkpt lat="58.51069333" lon="14.46801833"><ele>89.0</ele><time>2016-06-18T09:02:26.308Z</time></trkpt><trkpt lat="58.51069333" lon="14.46801833"><ele>89.0</ele><time>2016-06-18T09:02:27.288Z</time></trkpt><trkpt lat="58.510815" lon="14.46828167"><ele>90.0</ele><time>2016-06-18T09:02:28.310Z</time></trkpt><trkpt lat="58.510815" lon="14.46828167"><ele>90.0</ele><time>2016-06-18T09:02:29.288Z</time></trkpt><trkpt lat="58.51093167" lon="14.46855333"><ele>90.0</ele><time>2016-06-18T09:02:30.298Z</time></trkpt><trkpt lat="58.51099" lon="14.46869167"><ele>90.0</ele><time>2016-06-18T09:02:31.300Z</time></trkpt><trkpt lat="58.51105" lon="14.46883"><ele>90.0</ele><time>2016-06-18T09:02:32.287Z</time></trkpt><trkpt lat="58.51105" lon="14.46883"><ele>90.0</ele><time>2016-06-18T09:02:33.284Z</time></trkpt><trkpt lat="58.51116333" lon="14.46911333"><ele>90.0</ele><time>2016-06-18T09:02:34.309Z</time></trkpt><trkpt lat="58.51116333" lon="14.46911333"><ele>90.0</ele><time>2016-06-18T09:02:35.314Z</time></trkpt><trkpt lat="58.51127333" lon="14.46938833"><ele>90.0</ele><time>2016-06-18T09:02:36.293Z</time></trkpt><trkpt lat="58.51127333" lon="14.46938833"><ele>90.0</ele><time>2016-06-18T09:02:37.320Z</time></trkpt><trkpt lat="58.511365" lon="14.46966667"><ele>91.0</ele><time>2016-06-18T09:02:38.309Z</time></trkpt><trkpt lat="58.511365" lon="14.46966667"><ele>91.0</ele><time>2016-06-18T09:02:39.296Z</time></trkpt><trkpt lat="58.511455" lon="14.46993667"><ele>90.0</ele><time>2016-06-18T09:02:40.303Z</time></trkpt><trkpt lat="58.51149667" lon="14.470075"><ele>90.0</ele><time>2016-06-18T09:02:41.318Z</time></trkpt><trkpt lat="58.51149667" lon="14.470075"><ele>90.0</ele><time>2016-06-18T09:02:42.283Z</time></trkpt><trkpt lat="58.51158167" lon="14.470365"><ele>90.0</ele><time>2016-06-18T09:02:43.290Z</time></trkpt><trkpt lat="58.51158167" lon="14.470365"><ele>90.0</ele><time>2016-06-18T09:02:44.309Z</time></trkpt><trkpt lat="58.51166333" lon="14.47066167"><ele>90.0</ele><time>2016-06-18T09:02:45.290Z</time></trkpt><trkpt lat="58.51166333" lon="14.47066167"><ele>90.0</ele><time>2016-06-18T09:02:46.320Z</time></trkpt><trkpt lat="58.51174333" lon="14.47096667"><ele>90.0</ele><time>2016-06-18T09:02:47.287Z</time></trkpt><trkpt lat="58.51174333" lon="14.47096667"><ele>90.0</ele><time>2016-06-18T09:02:48.316Z</time></trkpt><trkpt lat="58.511825" lon="14.47126667"><ele>91.0</ele><time>2016-06-18T09:02:49.301Z</time></trkpt><trkpt lat="58.51187" lon="14.47141167"><ele>91.0</ele><time>2016-06-18T09:02:50.291Z</time></trkpt><trkpt lat="58.51191167" lon="14.471555"><ele>91.0</ele><time>2016-06-18T09:02:51.286Z</time></trkpt><trkpt lat="58.51191167" lon="14.471555"><ele>91.0</ele><time>2016-06-18T09:02:52.302Z</time></trkpt><trkpt lat="58.51199" lon="14.47183667"><ele>92.0</ele><time>2016-06-18T09:02:53.308Z</time></trkpt><trkpt lat="58.51199" lon="14.47183667"><ele>92.0</ele><time>2016-06-18T09:02:54.291Z</time></trkpt><trkpt lat="58.512065" lon="14.47211833"><ele>92.0</ele><time>2016-06-18T09:02:55.288Z</time></trkpt><trkpt lat="58.51210667" lon="14.47225167"><ele>92.0</ele><time>2016-06-18T09:02:56.304Z</time></trkpt><trkpt lat="58.51210667" lon="14.47225167"><ele>92.0</ele><time>2016-06-18T09:02:57.285Z</time></trkpt><trkpt lat="58.51218667" lon="14.47253333"><ele>93.0</ele><time>2016-06-18T09:02:58.301Z</time></trkpt><trkpt lat="58.51218667" lon="14.47253333"><ele>93.0</ele><time>2016-06-18T09:02:59.316Z</time></trkpt><trkpt lat="58.51226" lon="14.472825"><ele>93.0</ele><time>2016-06-18T09:03:00.284Z</time></trkpt><trkpt lat="58.51226" lon="14.472825"><ele>93.0</ele><time>2016-06-18T09:03:01.300Z</time></trkpt><trkpt lat="58.51233333" lon="14.47311"><ele>93.0</ele><time>2016-06-18T09:03:02.307Z</time></trkpt><trkpt lat="58.51237167" lon="14.473245"><ele>93.0</ele><time>2016-06-18T09:03:03.315Z</time></trkpt><trkpt lat="58.51237167" lon="14.473245"><ele>93.0</ele><time>2016-06-18T09:03:04.308Z</time></trkpt><trkpt lat="58.51244333" lon="14.47351333"><ele>92.0</ele><time>2016-06-18T09:03:05.285Z</time></trkpt><trkpt lat="58.51248" lon="14.47364"><ele>93.0</ele><time>2016-06-18T09:03:06.282Z</time></trkpt><trkpt lat="58.51251833" lon="14.47376667"><ele>93.0</ele><time>2016-06-18T09:03:07.303Z</time></trkpt><trkpt lat="58.512555" lon="14.47390833"><ele>93.0</ele><time>2016-06-18T09:03:08.321Z</time></trkpt><trkpt lat="58.512555" lon="14.47390833"><ele>93.0</ele><time>2016-06-18T09:03:09.303Z</time></trkpt><trkpt lat="58.512625" lon="14.47419833"><ele>93.0</ele><time>2016-06-18T09:03:10.320Z</time></trkpt><trkpt lat="58.512625" lon="14.47419833"><ele>93.0</ele><time>2016-06-18T09:03:11.302Z</time></trkpt><trkpt lat="58.512705" lon="14.474495"><ele>94.0</ele><time>2016-06-18T09:03:12.282Z</time></trkpt><trkpt lat="58.512745" lon="14.47464833"><ele>94.0</ele><time>2016-06-18T09:03:13.309Z</time></trkpt><trkpt lat="58.512745" lon="14.47464833"><ele>94.0</ele><time>2016-06-18T09:03:14.319Z</time></trkpt><trkpt lat="58.512825" lon="14.47495333"><ele>94.0</ele><time>2016-06-18T09:03:15.288Z</time></trkpt><trkpt lat="58.512825" lon="14.47495333"><ele>94.0</ele><time>2016-06-18T09:03:16.291Z</time></trkpt><trkpt lat="58.51291" lon="14.47525333"><ele>95.0</ele><time>2016-06-18T09:03:17.298Z</time></trkpt><trkpt lat="58.51295333" lon="14.47540167"><ele>95.0</ele><time>2016-06-18T09:03:18.283Z</time></trkpt><trkpt lat="58.51295333" lon="14.47540167"><ele>95.0</ele><time>2016-06-18T09:03:19.292Z</time></trkpt><trkpt lat="58.51303667" lon="14.47569667"><ele>96.0</ele><time>2016-06-18T09:03:20.299Z</time></trkpt><trkpt lat="58.51303667" lon="14.47569667"><ele>96.0</ele><time>2016-06-18T09:03:21.289Z</time></trkpt><trkpt lat="58.51311667" lon="14.47597"><ele>96.0</ele><time>2016-06-18T09:03:22.318Z</time></trkpt><trkpt lat="58.51311667" lon="14.47597"><ele>96.0</ele><time>2016-06-18T09:03:23.286Z</time></trkpt><trkpt lat="58.51318667" lon="14.47622"><ele>96.0</ele><time>2016-06-18T09:03:24.293Z</time></trkpt><trkpt lat="58.51322" lon="14.47634167"><ele>96.0</ele><time>2016-06-18T09:03:25.294Z</time></trkpt><trkpt lat="58.51322" lon="14.47634167"><ele>96.0</ele><time>2016-06-18T09:03:26.295Z</time></trkpt><trkpt lat="58.51329" lon="14.47659167"><ele>96.0</ele><time>2016-06-18T09:03:27.309Z</time></trkpt><trkpt lat="58.513325" lon="14.476715"><ele>97.0</ele><time>2016-06-18T09:03:28.306Z</time></trkpt><trkpt lat="58.513325" lon="14.476715"><ele>97.0</ele><time>2016-06-18T09:03:29.285Z</time></trkpt><trkpt lat="58.51340167" lon="14.476965"><ele>96.0</ele><time>2016-06-18T09:03:30.292Z</time></trkpt><trkpt lat="58.51340167" lon="14.476965"><ele>96.0</ele><time>2016-06-18T09:03:31.300Z</time></trkpt><trkpt lat="58.51347667" lon="14.47724333"><ele>96.0</ele><time>2016-06-18T09:03:32.307Z</time></trkpt><trkpt lat="58.513515" lon="14.47738833"><ele>96.0</ele><time>2016-06-18T09:03:33.300Z</time></trkpt><trkpt lat="58.513515" lon="14.47738833"><ele>96.0</ele><time>2016-06-18T09:03:34.304Z</time></trkpt><trkpt lat="58.51359667" lon="14.47768167"><ele>95.0</ele><time>2016-06-18T09:03:35.311Z</time></trkpt><trkpt lat="58.51363833" lon="14.477835"><ele>95.0</ele><time>2016-06-18T09:03:36.292Z</time></trkpt><trkpt lat="58.51363833" lon="14.477835"><ele>95.0</ele><time>2016-06-18T09:03:37.300Z</time></trkpt><trkpt lat="58.51372167" lon="14.47814333"><ele>95.0</ele><time>2016-06-18T09:03:38.299Z</time></trkpt><trkpt lat="58.51372167" lon="14.47814333"><ele>95.0</ele><time>2016-06-18T09:03:39.282Z</time></trkpt><trkpt lat="58.513805" lon="14.47845333"><ele>95.0</ele><time>2016-06-18T09:03:40.299Z</time></trkpt><trkpt lat="58.513805" lon="14.47845333"><ele>95.0</ele><time>2016-06-18T09:03:41.300Z</time></trkpt><trkpt lat="58.51389" lon="14.47877167"><ele>95.0</ele><time>2016-06-18T09:03:42.307Z</time></trkpt><trkpt lat="58.513935" lon="14.47892833"><ele>94.0</ele><time>2016-06-18T09:03:43.293Z</time></trkpt><trkpt lat="58.513935" lon="14.47892833"><ele>94.0</ele><time>2016-06-18T09:03:44.284Z</time></trkpt><trkpt lat="58.51402" lon="14.479245"><ele>94.0</ele><time>2016-06-18T09:03:45.297Z</time></trkpt><trkpt lat="58.51402" lon="14.479245"><ele>94.0</ele><time>2016-06-18T09:03:46.302Z</time></trkpt><trkpt lat="58.51410333" lon="14.479565"><ele>94.0</ele><time>2016-06-18T09:03:47.309Z</time></trkpt><trkpt lat="58.51410333" lon="14.479565"><ele>94.0</ele><time>2016-06-18T09:03:48.290Z</time></trkpt><trkpt lat="58.51419333" lon="14.47988333"><ele>94.0</ele><time>2016-06-18T09:03:49.288Z</time></trkpt><trkpt lat="58.51423667" lon="14.48004833"><ele>94.0</ele><time>2016-06-18T09:03:50.302Z</time></trkpt><trkpt lat="58.51423667" lon="14.48004833"><ele>94.0</ele><time>2016-06-18T09:03:51.284Z</time></trkpt><trkpt lat="58.514325" lon="14.48037667"><ele>94.0</ele><time>2016-06-18T09:03:52.310Z</time></trkpt><trkpt lat="58.51436833" lon="14.48054333"><ele>94.0</ele><time>2016-06-18T09:03:53.317Z</time></trkpt><trkpt lat="58.51436833" lon="14.48054333"><ele>94.0</ele><time>2016-06-18T09:03:54.302Z</time></trkpt><trkpt lat="58.51445833" lon="14.48086667"><ele>93.0</ele><time>2016-06-18T09:03:55.290Z</time></trkpt><trkpt lat="58.51445833" lon="14.48086667"><ele>93.0</ele><time>2016-06-18T09:03:56.284Z</time></trkpt><trkpt lat="58.51455167" lon="14.48118"><ele>92.0</ele><time>2016-06-18T09:03:57.290Z</time></trkpt><trkpt lat="58.514595" lon="14.48133833"><ele>92.0</ele><time>2016-06-18T09:03:58.293Z</time></trkpt><trkpt lat="58.514595" lon="14.48133833"><ele>92.0</ele><time>2016-06-18T09:03:59.309Z</time></trkpt><trkpt lat="58.51468167" lon="14.48166"><ele>91.0</ele><time>2016-06-18T09:04:00.287Z</time></trkpt><trkpt lat="58.51468167" lon="14.48166"><ele>91.0</ele><time>2016-06-18T09:04:01.286Z</time></trkpt><trkpt lat="58.51477167" lon="14.481985"><ele>91.0</ele><time>2016-06-18T09:04:02.292Z</time></trkpt><trkpt lat="58.514815" lon="14.48215333"><ele>91.0</ele><time>2016-06-18T09:04:03.319Z</time></trkpt><trkpt lat="58.514815" lon="14.48215333"><ele>91.0</ele><time>2016-06-18T09:04:04.320Z</time></trkpt><trkpt lat="58.51490667" lon="14.48250667"><ele>90.0</ele><time>2016-06-18T09:04:05.308Z</time></trkpt><trkpt lat="58.51490667" lon="14.48250667"><ele>90.0</ele><time>2016-06-18T09:04:06.290Z</time></trkpt><trkpt lat="58.51500667" lon="14.48287333"><ele>90.0</ele><time>2016-06-18T09:04:07.301Z</time></trkpt><trkpt lat="58.51500667" lon="14.48287333"><ele>90.0</ele><time>2016-06-18T09:04:08.306Z</time></trkpt><trkpt lat="58.51510833" lon="14.48324833"><ele>90.0</ele><time>2016-06-18T09:04:09.284Z</time></trkpt><trkpt lat="58.51510833" lon="14.48324833"><ele>90.0</ele><time>2016-06-18T09:04:10.283Z</time></trkpt><trkpt lat="58.51520833" lon="14.48363667"><ele>90.0</ele><time>2016-06-18T09:04:11.302Z</time></trkpt><trkpt lat="58.51520833" lon="14.48363667"><ele>90.0</ele><time>2016-06-18T09:04:12.293Z</time></trkpt><trkpt lat="58.515315" lon="14.48402167"><ele>90.0</ele><time>2016-06-18T09:04:13.304Z</time></trkpt><trkpt lat="58.51536833" lon="14.48421333"><ele>90.0</ele><time>2016-06-18T09:04:14.288Z</time></trkpt><trkpt lat="58.51536833" lon="14.48421333"><ele>90.0</ele><time>2016-06-18T09:04:15.311Z</time></trkpt><trkpt lat="58.51548167" lon="14.484595"><ele>90.0</ele><time>2016-06-18T09:04:16.299Z</time></trkpt><trkpt lat="58.51548167" lon="14.484595"><ele>90.0</ele><time>2016-06-18T09:04:17.283Z</time></trkpt><trkpt lat="58.515585" lon="14.48499167"><ele>89.0</ele><time>2016-06-18T09:04:18.309Z</time></trkpt><trkpt lat="58.515635" lon="14.48519"><ele>89.0</ele><time>2016-06-18T09:04:19.319Z</time></trkpt><trkpt lat="58.51569" lon="14.485385"><ele>89.0</ele><time>2016-06-18T09:04:20.308Z</time></trkpt><trkpt lat="58.51569" lon="14.485385"><ele>89.0</ele><time>2016-06-18T09:04:21.292Z</time></trkpt><trkpt lat="58.51579833" lon="14.48577833"><ele>88.0</ele><time>2016-06-18T09:04:22.300Z</time></trkpt><trkpt lat="58.51585333" lon="14.48597667"><ele>88.0</ele><time>2016-06-18T09:04:23.319Z</time></trkpt><trkpt lat="58.51585333" lon="14.48597667"><ele>88.0</ele><time>2016-06-18T09:04:24.318Z</time></trkpt><trkpt lat="58.51596" lon="14.48637333"><ele>88.0</ele><time>2016-06-18T09:04:25.285Z</time></trkpt><trkpt lat="58.51601167" lon="14.48657333"><ele>88.0</ele><time>2016-06-18T09:04:26.310Z</time></trkpt><trkpt lat="58.51601167" lon="14.48657333"><ele>88.0</ele><time>2016-06-18T09:04:27.300Z</time></trkpt><trkpt lat="58.51611667" lon="14.48697167"><ele>88.0</ele><time>2016-06-18T09:04:28.299Z</time></trkpt><trkpt lat="58.51611667" lon="14.48697167"><ele>88.0</ele><time>2016-06-18T09:04:29.301Z</time></trkpt><trkpt lat="58.516215" lon="14.48734833"><ele>88.0</ele><time>2016-06-18T09:04:30.308Z</time></trkpt><trkpt lat="58.516265" lon="14.487525"><ele>88.0</ele><time>2016-06-18T09:04:31.299Z</time></trkpt><trkpt lat="58.516315" lon="14.48770333"><ele>87.0</ele><time>2016-06-18T09:04:32.303Z</time></trkpt><trkpt lat="58.516365" lon="14.48787833"><ele>88.0</ele><time>2016-06-18T09:04:33.291Z</time></trkpt><trkpt lat="58.516365" lon="14.48787833"><ele>88.0</ele><time>2016-06-18T09:04:34.316Z</time></trkpt><trkpt lat="58.51645667" lon="14.48824"><ele>87.0</ele><time>2016-06-18T09:04:35.284Z</time></trkpt><trkpt lat="58.51645667" lon="14.48824"><ele>87.0</ele><time>2016-06-18T09:04:36.318Z</time></trkpt><trkpt lat="58.51654333" lon="14.48859833"><ele>87.0</ele><time>2016-06-18T09:04:37.318Z</time></trkpt><trkpt lat="58.51658833" lon="14.48877833"><ele>87.0</ele><time>2016-06-18T09:04:38.288Z</time></trkpt><trkpt lat="58.51658833" lon="14.48877833"><ele>87.0</ele><time>2016-06-18T09:04:39.317Z</time></trkpt><trkpt lat="58.51668" lon="14.48914833"><ele>87.0</ele><time>2016-06-18T09:04:40.300Z</time></trkpt><trkpt lat="58.51672333" lon="14.48934333"><ele>87.0</ele><time>2016-06-18T09:04:41.285Z</time></trkpt><trkpt lat="58.51672333" lon="14.48934333"><ele>87.0</ele><time>2016-06-18T09:04:42.319Z</time></trkpt><trkpt lat="58.516815" lon="14.489725"><ele>87.0</ele><time>2016-06-18T09:04:43.291Z</time></trkpt><trkpt lat="58.516815" lon="14.489725"><ele>87.0</ele><time>2016-06-18T09:04:44.320Z</time></trkpt><trkpt lat="58.51690167" lon="14.49010667"><ele>87.0</ele><time>2016-06-18T09:04:45.297Z</time></trkpt><trkpt lat="58.51690167" lon="14.49010667"><ele>87.0</ele><time>2016-06-18T09:04:46.314Z</time></trkpt><trkpt lat="58.51698" lon="14.49048667"><ele>87.0</ele><time>2016-06-18T09:04:47.283Z</time></trkpt><trkpt lat="58.517015" lon="14.49067667"><ele>87.0</ele><time>2016-06-18T09:04:48.301Z</time></trkpt><trkpt lat="58.51704833" lon="14.49086667"><ele>87.0</ele><time>2016-06-18T09:04:49.309Z</time></trkpt><trkpt lat="58.51704833" lon="14.49086667"><ele>87.0</ele><time>2016-06-18T09:04:50.309Z</time></trkpt><trkpt lat="58.51712" lon="14.49124167"><ele>87.0</ele><time>2016-06-18T09:04:51.317Z</time></trkpt><trkpt lat="58.51712" lon="14.49124167"><ele>87.0</ele><time>2016-06-18T09:04:52.300Z</time></trkpt><trkpt lat="58.51718833" lon="14.491615"><ele>87.0</ele><time>2016-06-18T09:04:53.307Z</time></trkpt><trkpt lat="58.51718833" lon="14.491615"><ele>87.0</ele><time>2016-06-18T09:04:54.287Z</time></trkpt><trkpt lat="58.51725833" lon="14.49198667"><ele>87.0</ele><time>2016-06-18T09:04:55.299Z</time></trkpt><trkpt lat="58.51725833" lon="14.49198667"><ele>87.0</ele><time>2016-06-18T09:04:56.315Z</time></trkpt><trkpt lat="58.51732667" lon="14.49236333"><ele>86.0</ele><time>2016-06-18T09:04:57.285Z</time></trkpt><trkpt lat="58.51732667" lon="14.49236333"><ele>86.0</ele><time>2016-06-18T09:04:58.318Z</time></trkpt><trkpt lat="58.51739167" lon="14.49274833"><ele>86.0</ele><time>2016-06-18T09:04:59.314Z</time></trkpt><trkpt lat="58.51742333" lon="14.492945"><ele>86.0</ele><time>2016-06-18T09:05:00.300Z</time></trkpt><trkpt lat="58.51742333" lon="14.492945"><ele>86.0</ele><time>2016-06-18T09:05:01.317Z</time></trkpt><trkpt lat="58.517485" lon="14.49333833"><ele>86.0</ele><time>2016-06-18T09:05:02.284Z</time></trkpt><trkpt lat="58.517485" lon="14.49333833"><ele>86.0</ele><time>2016-06-18T09:05:03.311Z</time></trkpt><trkpt lat="58.51753833" lon="14.49374667"><ele>86.0</ele><time>2016-06-18T09:05:04.303Z</time></trkpt><trkpt lat="58.51753833" lon="14.49374667"><ele>86.0</ele><time>2016-06-18T09:05:05.300Z</time></trkpt><trkpt lat="58.51759167" lon="14.49415667"><ele>85.0</ele><time>2016-06-18T09:05:06.307Z</time></trkpt><trkpt lat="58.51762333" lon="14.49435667"><ele>85.0</ele><time>2016-06-18T09:05:07.305Z</time></trkpt><trkpt lat="58.51765167" lon="14.49456"><ele>85.0</ele><time>2016-06-18T09:05:08.288Z</time></trkpt><trkpt lat="58.51765167" lon="14.49456"><ele>85.0</ele><time>2016-06-18T09:05:09.315Z</time></trkpt><trkpt lat="58.51770667" lon="14.49497167"><ele>85.0</ele><time>2016-06-18T09:05:10.300Z</time></trkpt><trkpt lat="58.51770667" lon="14.49497167"><ele>85.0</ele><time>2016-06-18T09:05:11.295Z</time></trkpt><trkpt lat="58.51776333" lon="14.49538"><ele>85.0</ele><time>2016-06-18T09:05:12.318Z</time></trkpt><trkpt lat="58.51776333" lon="14.49538"><ele>85.0</ele><time>2016-06-18T09:05:13.286Z</time></trkpt><trkpt lat="58.51781333" lon="14.495785"><ele>85.0</ele><time>2016-06-18T09:05:14.292Z</time></trkpt><trkpt lat="58.51781333" lon="14.495785"><ele>85.0</ele><time>2016-06-18T09:05:15.315Z</time></trkpt><trkpt lat="58.51786" lon="14.49620167"><ele>85.0</ele><time>2016-06-18T09:05:16.300Z</time></trkpt><trkpt lat="58.51786" lon="14.49620167"><ele>85.0</ele><time>2016-06-18T09:05:17.286Z</time></trkpt><trkpt lat="58.51791667" lon="14.49659667"><ele>86.0</ele><time>2016-06-18T09:05:18.293Z</time></trkpt><trkpt lat="58.51791667" lon="14.49659667"><ele>86.0</ele><time>2016-06-18T09:05:19.317Z</time></trkpt><trkpt lat="58.51796667" lon="14.49699"><ele>87.0</ele><time>2016-06-18T09:05:20.296Z</time></trkpt><trkpt lat="58.51799167" lon="14.49718333"><ele>87.0</ele><time>2016-06-18T09:05:21.311Z</time></trkpt><trkpt lat="58.51799167" lon="14.49718333"><ele>87.0</ele><time>2016-06-18T09:05:22.285Z</time></trkpt><trkpt lat="58.518045" lon="14.49756"><ele>87.0</ele><time>2016-06-18T09:05:23.300Z</time></trkpt><trkpt lat="58.51807" lon="14.49774333"><ele>87.0</ele><time>2016-06-18T09:05:24.302Z</time></trkpt><trkpt lat="58.51807" lon="14.49774333"><ele>87.0</ele><time>2016-06-18T09:05:25.285Z</time></trkpt><trkpt lat="58.51811667" lon="14.49811167"><ele>87.0</ele><time>2016-06-18T09:05:26.291Z</time></trkpt><trkpt lat="58.51811667" lon="14.49811167"><ele>87.0</ele><time>2016-06-18T09:05:27.318Z</time></trkpt><trkpt lat="58.51816333" lon="14.49848833"><ele>88.0</ele><time>2016-06-18T09:05:28.315Z</time></trkpt><trkpt lat="58.51816333" lon="14.49848833"><ele>88.0</ele><time>2016-06-18T09:05:29.318Z</time></trkpt><trkpt lat="58.51821333" lon="14.49887"><ele>88.0</ele><time>2016-06-18T09:05:30.286Z</time></trkpt><trkpt lat="58.51824333" lon="14.49905667"><ele>89.0</ele><time>2016-06-18T09:05:31.305Z</time></trkpt><trkpt lat="58.51827167" lon="14.49924667"><ele>89.0</ele><time>2016-06-18T09:05:32.304Z</time></trkpt><trkpt lat="58.5183" lon="14.49943667"><ele>89.0</ele><time>2016-06-18T09:05:33.304Z</time></trkpt><trkpt lat="58.5183" lon="14.49943667"><ele>89.0</ele><time>2016-06-18T09:05:34.288Z</time></trkpt><trkpt lat="58.51836" lon="14.49982"><ele>88.0</ele><time>2016-06-18T09:05:35.320Z</time></trkpt><trkpt lat="58.51836" lon="14.49982"><ele>88.0</ele><time>2016-06-18T09:05:36.296Z</time></trkpt><trkpt lat="58.51843" lon="14.50019667"><ele>88.0</ele><time>2016-06-18T09:05:37.303Z</time></trkpt><trkpt lat="58.51847" lon="14.500385"><ele>88.0</ele><time>2016-06-18T09:05:38.308Z</time></trkpt><trkpt lat="58.51847" lon="14.500385"><ele>88.0</ele><time>2016-06-18T09:05:39.315Z</time></trkpt><trkpt lat="58.51854833" lon="14.50075667"><ele>87.0</ele><time>2016-06-18T09:05:40.289Z</time></trkpt><trkpt lat="58.51859" lon="14.50094"><ele>87.0</ele><time>2016-06-18T09:05:41.288Z</time></trkpt><trkpt lat="58.51859" lon="14.50094"><ele>87.0</ele><time>2016-06-18T09:05:42.301Z</time></trkpt><trkpt lat="58.51868167" lon="14.50129833"><ele>87.0</ele><time>2016-06-18T09:05:43.310Z</time></trkpt><trkpt lat="58.51868167" lon="14.50129833"><ele>87.0</ele><time>2016-06-18T09:05:44.321Z</time></trkpt><trkpt lat="58.51877833" lon="14.50165"><ele>87.0</ele><time>2016-06-18T09:05:45.287Z</time></trkpt><trkpt lat="58.51882667" lon="14.501825"><ele>87.0</ele><time>2016-06-18T09:05:46.289Z</time></trkpt><trkpt lat="58.51887667" lon="14.50199833"><ele>87.0</ele><time>2016-06-18T09:05:47.310Z</time></trkpt><trkpt lat="58.51887667" lon="14.50199833"><ele>87.0</ele><time>2016-06-18T09:05:48.302Z</time></trkpt><trkpt lat="58.51897833" lon="14.502335"><ele>87.0</ele><time>2016-06-18T09:05:49.309Z</time></trkpt><trkpt lat="58.51903333" lon="14.5025"><ele>86.0</ele><time>2016-06-18T09:05:50.296Z</time></trkpt><trkpt lat="58.51903333" lon="14.5025"><ele>86.0</ele><time>2016-06-18T09:05:51.296Z</time></trkpt><trkpt lat="58.51914667" lon="14.50282"><ele>86.0</ele><time>2016-06-18T09:05:52.304Z</time></trkpt><trkpt lat="58.51920333" lon="14.50297667"><ele>86.0</ele><time>2016-06-18T09:05:53.294Z</time></trkpt><trkpt lat="58.51920333" lon="14.50297667"><ele>86.0</ele><time>2016-06-18T09:05:54.301Z</time></trkpt><trkpt lat="58.51931833" lon="14.50328333"><ele>87.0</ele><time>2016-06-18T09:05:55.308Z</time></trkpt><trkpt lat="58.51937833" lon="14.503435"><ele>87.0</ele><time>2016-06-18T09:05:56.303Z</time></trkpt><trkpt lat="58.51937833" lon="14.503435"><ele>87.0</ele><time>2016-06-18T09:05:57.314Z</time></trkpt><trkpt lat="58.51949833" lon="14.503715"><ele>86.0</ele><time>2016-06-18T09:05:58.321Z</time></trkpt><trkpt lat="58.51955167" lon="14.50383333"><ele>86.0</ele><time>2016-06-18T09:05:59.309Z</time></trkpt><trkpt lat="58.51959833" lon="14.50394833"><ele>86.0</ele><time>2016-06-18T09:06:00.288Z</time></trkpt><trkpt lat="58.51959833" lon="14.50394833"><ele>86.0</ele><time>2016-06-18T09:06:01.317Z</time></trkpt><trkpt lat="58.51969" lon="14.50416833"><ele>86.0</ele><time>2016-06-18T09:06:02.285Z</time></trkpt><trkpt lat="58.51969" lon="14.50416833"><ele>86.0</ele><time>2016-06-18T09:06:03.286Z</time></trkpt><trkpt lat="58.51979" lon="14.50435833"><ele>86.0</ele><time>2016-06-18T09:06:04.293Z</time></trkpt><trkpt lat="58.51983667" lon="14.50444333"><ele>86.0</ele><time>2016-06-18T09:06:05.300Z</time></trkpt><trkpt lat="58.51983667" lon="14.50444333"><ele>86.0</ele><time>2016-06-18T09:06:06.283Z</time></trkpt><trkpt lat="58.51992833" lon="14.50458833"><ele>86.0</ele><time>2016-06-18T09:06:07.302Z</time></trkpt><trkpt lat="58.51996833" lon="14.50464333"><ele>86.0</ele><time>2016-06-18T09:06:08.296Z</time></trkpt><trkpt lat="58.51996833" lon="14.50464333"><ele>86.0</ele><time>2016-06-18T09:06:09.320Z</time></trkpt><trkpt lat="58.52003167" lon="14.50474333"><ele>86.0</ele><time>2016-06-18T09:06:10.311Z</time></trkpt><trkpt lat="58.52003167" lon="14.50474333"><ele>86.0</ele><time>2016-06-18T09:06:11.300Z</time></trkpt><trkpt lat="58.520095" lon="14.50483667"><ele>87.0</ele><time>2016-06-18T09:06:12.311Z</time></trkpt><trkpt lat="58.520095" lon="14.50483667"><ele>87.0</ele><time>2016-06-18T09:06:13.300Z</time></trkpt><trkpt lat="58.520155" lon="14.50493667"><ele>86.0</ele><time>2016-06-18T09:06:14.304Z</time></trkpt><trkpt lat="58.520155" lon="14.50493667"><ele>86.0</ele><time>2016-06-18T09:06:15.311Z</time></trkpt><trkpt lat="58.52020333" lon="14.50507667"><ele>87.0</ele><time>2016-06-18T09:06:16.319Z</time></trkpt><trkpt lat="58.52020833" lon="14.50517"><ele>87.0</ele><time>2016-06-18T09:06:17.293Z</time></trkpt><trkpt lat="58.52020833" lon="14.50517"><ele>87.0</ele><time>2016-06-18T09:06:18.314Z</time></trkpt><trkpt lat="58.52020333" lon="14.505385"><ele>87.0</ele><time>2016-06-18T09:06:19.321Z</time></trkpt><trkpt lat="58.52019833" lon="14.50549833"><ele>88.0</ele><time>2016-06-18T09:06:20.302Z</time></trkpt><trkpt lat="58.52019833" lon="14.50549833"><ele>88.0</ele><time>2016-06-18T09:06:21.291Z</time></trkpt><trkpt lat="58.52021667" lon="14.50572167"><ele>90.0</ele><time>2016-06-18T09:06:22.300Z</time></trkpt><trkpt lat="58.52021667" lon="14.50572167"><ele>90.0</ele><time>2016-06-18T09:06:23.315Z</time></trkpt><trkpt lat="58.52028167" lon="14.50590667"><ele>91.0</ele><time>2016-06-18T09:06:24.288Z</time></trkpt><trkpt lat="58.52033167" lon="14.50597833"><ele>91.0</ele><time>2016-06-18T09:06:25.319Z</time></trkpt><trkpt lat="58.52039" lon="14.50603833"><ele>92.0</ele><time>2016-06-18T09:06:26.309Z</time></trkpt><trkpt lat="58.52039" lon="14.50603833"><ele>92.0</ele><time>2016-06-18T09:06:27.288Z</time></trkpt><trkpt lat="58.52052167" lon="14.50613667"><ele>92.0</ele><time>2016-06-18T09:06:28.295Z</time></trkpt><trkpt lat="58.52059" lon="14.50619333"><ele>92.0</ele><time>2016-06-18T09:06:29.319Z</time></trkpt><trkpt lat="58.52066" lon="14.506255"><ele>93.0</ele><time>2016-06-18T09:06:30.295Z</time></trkpt><trkpt lat="58.52066" lon="14.506255"><ele>93.0</ele><time>2016-06-18T09:06:31.288Z</time></trkpt><trkpt lat="58.52080333" lon="14.50641833"><ele>92.0</ele><time>2016-06-18T09:06:32.294Z</time></trkpt><trkpt lat="58.52080333" lon="14.50641833"><ele>92.0</ele><time>2016-06-18T09:06:33.283Z</time></trkpt><trkpt lat="58.52094" lon="14.506615"><ele>92.0</ele><time>2016-06-18T09:06:34.296Z</time></trkpt><trkpt lat="58.52094" lon="14.506615"><ele>92.0</ele><time>2016-06-18T09:06:35.304Z</time></trkpt><trkpt lat="58.52108" lon="14.50682167"><ele>92.0</ele><time>2016-06-18T09:06:36.319Z</time></trkpt><trkpt lat="58.52115" lon="14.50693333"><ele>92.0</ele><time>2016-06-18T09:06:37.311Z</time></trkpt><trkpt lat="58.52115" lon="14.50693333"><ele>92.0</ele><time>2016-06-18T09:06:38.298Z</time></trkpt><trkpt lat="58.52129167" lon="14.50715667"><ele>93.0</ele><time>2016-06-18T09:06:39.306Z</time></trkpt><trkpt lat="58.52129167" lon="14.50715667"><ele>93.0</ele><time>2016-06-18T09:06:40.286Z</time></trkpt><trkpt lat="58.52143167" lon="14.50738667"><ele>93.0</ele><time>2016-06-18T09:06:41.310Z</time></trkpt><trkpt lat="58.52143167" lon="14.50738667"><ele>93.0</ele><time>2016-06-18T09:06:42.301Z</time></trkpt><trkpt lat="58.52157333" lon="14.507615"><ele>93.0</ele><time>2016-06-18T09:06:43.284Z</time></trkpt><trkpt lat="58.52164333" lon="14.50773333"><ele>93.0</ele><time>2016-06-18T09:06:44.296Z</time></trkpt><trkpt lat="58.52164333" lon="14.50773333"><ele>93.0</ele><time>2016-06-18T09:06:45.305Z</time></trkpt><trkpt lat="58.52178667" lon="14.50795833"><ele>93.0</ele><time>2016-06-18T09:06:46.317Z</time></trkpt><trkpt lat="58.52185667" lon="14.50806167"><ele>93.0</ele><time>2016-06-18T09:06:47.298Z</time></trkpt><trkpt lat="58.52185667" lon="14.50806167"><ele>93.0</ele><time>2016-06-18T09:06:48.284Z</time></trkpt><trkpt lat="58.52199667" lon="14.508265"><ele>93.0</ele><time>2016-06-18T09:06:49.290Z</time></trkpt><trkpt lat="58.52206833" lon="14.50837"><ele>93.0</ele><time>2016-06-18T09:06:50.311Z</time></trkpt><trkpt lat="58.52206833" lon="14.50837"><ele>93.0</ele><time>2016-06-18T09:06:51.297Z</time></trkpt><trkpt lat="58.52221667" lon="14.50858833"><ele>93.0</ele><time>2016-06-18T09:06:52.305Z</time></trkpt><trkpt lat="58.52221667" lon="14.50858833"><ele>93.0</ele><time>2016-06-18T09:06:53.287Z</time></trkpt><trkpt lat="58.52236333" lon="14.50879667"><ele>93.0</ele><time>2016-06-18T09:06:54.302Z</time></trkpt><trkpt lat="58.52236333" lon="14.50879667"><ele>93.0</ele><time>2016-06-18T09:06:55.296Z</time></trkpt><trkpt lat="58.52250167" lon="14.50899833"><ele>93.0</ele><time>2016-06-18T09:06:56.305Z</time></trkpt><trkpt lat="58.52250167" lon="14.50899833"><ele>93.0</ele><time>2016-06-18T09:06:57.289Z</time></trkpt><trkpt lat="58.52264" lon="14.509195"><ele>94.0</ele><time>2016-06-18T09:06:58.304Z</time></trkpt><trkpt lat="58.52264" lon="14.509195"><ele>94.0</ele><time>2016-06-18T09:06:59.303Z</time></trkpt><trkpt lat="58.52279167" lon="14.50936667"><ele>94.0</ele><time>2016-06-18T09:07:00.285Z</time></trkpt><trkpt lat="58.52279167" lon="14.50936667"><ele>94.0</ele><time>2016-06-18T09:07:01.287Z</time></trkpt><trkpt lat="58.52294333" lon="14.50953"><ele>94.0</ele><time>2016-06-18T09:07:02.294Z</time></trkpt><trkpt lat="58.52294333" lon="14.50953"><ele>94.0</ele><time>2016-06-18T09:07:03.282Z</time></trkpt><trkpt lat="58.52309333" lon="14.50968167"><ele>94.0</ele><time>2016-06-18T09:07:04.311Z</time></trkpt><trkpt lat="58.52309333" lon="14.50968167"><ele>94.0</ele><time>2016-06-18T09:07:05.305Z</time></trkpt><trkpt lat="58.52325833" lon="14.50984167"><ele>94.0</ele><time>2016-06-18T09:07:06.295Z</time></trkpt><trkpt lat="58.52334" lon="14.509905"><ele>95.0</ele><time>2016-06-18T09:07:07.328Z</time></trkpt><trkpt lat="58.52342167" lon="14.50996667"><ele>95.0</ele><time>2016-06-18T09:07:08.295Z</time></trkpt><trkpt lat="58.52342167" lon="14.50996667"><ele>95.0</ele><time>2016-06-18T09:07:09.321Z</time></trkpt><trkpt lat="58.52358333" lon="14.510075"><ele>94.0</ele><time>2016-06-18T09:07:10.303Z</time></trkpt><trkpt lat="58.52358333" lon="14.510075"><ele>94.0</ele><time>2016-06-18T09:07:11.302Z</time></trkpt><trkpt lat="58.523745" lon="14.510175"><ele>94.0</ele><time>2016-06-18T09:07:12.295Z</time></trkpt><trkpt lat="58.52382167" lon="14.51022167"><ele>95.0</ele><time>2016-06-18T09:07:13.282Z</time></trkpt><trkpt lat="58.5239" lon="14.51027"><ele>95.0</ele><time>2016-06-18T09:07:14.303Z</time></trkpt><trkpt lat="58.5239" lon="14.51027"><ele>95.0</ele><time>2016-06-18T09:07:15.309Z</time></trkpt><trkpt lat="58.52407667" lon="14.51036167"><ele>95.0</ele><time>2016-06-18T09:07:16.321Z</time></trkpt><trkpt lat="58.52407667" lon="14.51036167"><ele>95.0</ele><time>2016-06-18T09:07:17.304Z</time></trkpt><trkpt lat="58.52426167" lon="14.51045667"><ele>95.0</ele><time>2016-06-18T09:07:18.288Z</time></trkpt><trkpt lat="58.52426167" lon="14.51045667"><ele>95.0</ele><time>2016-06-18T09:07:19.286Z</time></trkpt><trkpt lat="58.52444667" lon="14.510545"><ele>95.0</ele><time>2016-06-18T09:07:20.293Z</time></trkpt><trkpt lat="58.52454167" lon="14.510585"><ele>95.0</ele><time>2016-06-18T09:07:21.289Z</time></trkpt><trkpt lat="58.52454167" lon="14.510585"><ele>95.0</ele><time>2016-06-18T09:07:22.309Z</time></trkpt><trkpt lat="58.52473667" lon="14.51069333"><ele>95.0</ele><time>2016-06-18T09:07:23.287Z</time></trkpt><trkpt lat="58.52483167" lon="14.51074667"><ele>95.0</ele><time>2016-06-18T09:07:24.305Z</time></trkpt><trkpt lat="58.52483167" lon="14.51074667"><ele>95.0</ele><time>2016-06-18T09:07:25.290Z</time></trkpt><trkpt lat="58.52502833" lon="14.510845"><ele>95.0</ele><time>2016-06-18T09:07:26.310Z</time></trkpt><trkpt lat="58.52502833" lon="14.510845"><ele>95.0</ele><time>2016-06-18T09:07:27.290Z</time></trkpt><trkpt lat="58.52521667" lon="14.51095833"><ele>95.0</ele><time>2016-06-18T09:07:28.297Z</time></trkpt><trkpt lat="58.52521667" lon="14.51095833"><ele>95.0</ele><time>2016-06-18T09:07:29.287Z</time></trkpt><trkpt lat="58.52539667" lon="14.51106"><ele>96.0</ele><time>2016-06-18T09:07:30.298Z</time></trkpt><trkpt lat="58.52539667" lon="14.51106"><ele>96.0</ele><time>2016-06-18T09:07:31.289Z</time></trkpt><trkpt lat="58.52557833" lon="14.51117333"><ele>96.0</ele><time>2016-06-18T09:07:32.295Z</time></trkpt><trkpt lat="58.52567167" lon="14.51122667"><ele>96.0</ele><time>2016-06-18T09:07:33.314Z</time></trkpt><trkpt lat="58.52567167" lon="14.51122667"><ele>96.0</ele><time>2016-06-18T09:07:34.295Z</time></trkpt><trkpt lat="58.52585167" lon="14.51132833"><ele>96.0</ele><time>2016-06-18T09:07:35.305Z</time></trkpt><trkpt lat="58.52594333" lon="14.51137667"><ele>96.0</ele><time>2016-06-18T09:07:36.312Z</time></trkpt><trkpt lat="58.52594333" lon="14.51137667"><ele>96.0</ele><time>2016-06-18T09:07:37.283Z</time></trkpt><trkpt lat="58.52612667" lon="14.51143667"><ele>95.0</ele><time>2016-06-18T09:07:38.289Z</time></trkpt><trkpt lat="58.52612667" lon="14.51143667"><ele>95.0</ele><time>2016-06-18T09:07:39.289Z</time></trkpt><trkpt lat="58.526315" lon="14.51143833"><ele>94.0</ele><time>2016-06-18T09:07:40.311Z</time></trkpt><trkpt lat="58.526315" lon="14.51143833"><ele>94.0</ele><time>2016-06-18T09:07:41.320Z</time></trkpt><trkpt lat="58.526515" lon="14.51135333"><ele>94.0</ele><time>2016-06-18T09:07:42.286Z</time></trkpt><trkpt lat="58.526515" lon="14.51135333"><ele>94.0</ele><time>2016-06-18T09:07:43.316Z</time></trkpt><trkpt lat="58.52670833" lon="14.51123"><ele>94.0</ele><time>2016-06-18T09:07:44.289Z</time></trkpt><trkpt lat="58.52670833" lon="14.51123"><ele>94.0</ele><time>2016-06-18T09:07:45.303Z</time></trkpt><trkpt lat="58.52689667" lon="14.51110333"><ele>94.0</ele><time>2016-06-18T09:07:46.303Z</time></trkpt><trkpt lat="58.52689667" lon="14.51110333"><ele>94.0</ele><time>2016-06-18T09:07:47.287Z</time></trkpt><trkpt lat="58.527075" lon="14.51098833"><ele>93.0</ele><time>2016-06-18T09:07:48.303Z</time></trkpt><trkpt lat="58.527075" lon="14.51098833"><ele>93.0</ele><time>2016-06-18T09:07:49.308Z</time></trkpt><trkpt lat="58.52723833" lon="14.51088167"><ele>92.0</ele><time>2016-06-18T09:07:50.315Z</time></trkpt><trkpt lat="58.52723833" lon="14.51088167"><ele>92.0</ele><time>2016-06-18T09:07:51.301Z</time></trkpt><trkpt lat="58.527385" lon="14.51080667"><ele>92.0</ele><time>2016-06-18T09:07:52.310Z</time></trkpt><trkpt lat="58.527385" lon="14.51080667"><ele>92.0</ele><time>2016-06-18T09:07:53.296Z</time></trkpt><trkpt lat="58.52753167" lon="14.51082167"><ele>91.0</ele><time>2016-06-18T09:07:54.305Z</time></trkpt><trkpt lat="58.52753167" lon="14.51082167"><ele>91.0</ele><time>2016-06-18T09:07:55.288Z</time></trkpt><trkpt lat="58.52765833" lon="14.51095333"><ele>91.0</ele><time>2016-06-18T09:07:56.321Z</time></trkpt><trkpt lat="58.52765833" lon="14.51095333"><ele>91.0</ele><time>2016-06-18T09:07:57.308Z</time></trkpt><trkpt lat="58.52773833" lon="14.51115167"><ele>90.0</ele><time>2016-06-18T09:07:58.318Z</time></trkpt><trkpt lat="58.52777" lon="14.51126167"><ele>90.0</ele><time>2016-06-18T09:07:59.298Z</time></trkpt><trkpt lat="58.5278" lon="14.51137167"><ele>90.0</ele><time>2016-06-18T09:08:00.285Z</time></trkpt><trkpt lat="58.5278" lon="14.51137167"><ele>90.0</ele><time>2016-06-18T09:08:01.314Z</time></trkpt><trkpt lat="58.52785" lon="14.51158"><ele>90.0</ele><time>2016-06-18T09:08:02.282Z</time></trkpt><trkpt lat="58.52785" lon="14.51158"><ele>90.0</ele><time>2016-06-18T09:08:03.283Z</time></trkpt><trkpt lat="58.52789667" lon="14.51177833"><ele>90.0</ele><time>2016-06-18T09:08:04.289Z</time></trkpt><trkpt lat="58.52789667" lon="14.51177833"><ele>90.0</ele><time>2016-06-18T09:08:05.317Z</time></trkpt><trkpt lat="58.52794333" lon="14.51196667"><ele>90.0</ele><time>2016-06-18T09:08:06.311Z</time></trkpt><trkpt lat="58.52794333" lon="14.51196667"><ele>90.0</ele><time>2016-06-18T09:08:07.310Z</time></trkpt><trkpt lat="58.527995" lon="14.51213"><ele>89.0</ele><time>2016-06-18T09:08:08.282Z</time></trkpt><trkpt lat="58.527995" lon="14.51213"><ele>89.0</ele><time>2016-06-18T09:08:09.306Z</time></trkpt><trkpt lat="58.52805833" lon="14.51228167"><ele>89.0</ele><time>2016-06-18T09:08:10.317Z</time></trkpt><trkpt lat="58.52805833" lon="14.51228167"><ele>89.0</ele><time>2016-06-18T09:08:11.288Z</time></trkpt><trkpt lat="58.52810833" lon="14.51244833"><ele>89.0</ele><time>2016-06-18T09:08:12.317Z</time></trkpt><trkpt lat="58.52810833" lon="14.51244833"><ele>89.0</ele><time>2016-06-18T09:08:13.303Z</time></trkpt><trkpt lat="58.52812167" lon="14.512645"><ele>89.0</ele><time>2016-06-18T09:08:14.310Z</time></trkpt><trkpt lat="58.52812167" lon="14.512645"><ele>89.0</ele><time>2016-06-18T09:08:15.290Z</time></trkpt><trkpt lat="58.528145" lon="14.512875"><ele>89.0</ele><time>2016-06-18T09:08:16.312Z</time></trkpt><trkpt lat="58.528145" lon="14.512875"><ele>89.0</ele><time>2016-06-18T09:08:17.308Z</time></trkpt><trkpt lat="58.52820667" lon="14.51313167"><ele>89.0</ele><time>2016-06-18T09:08:18.321Z</time></trkpt><trkpt lat="58.52820667" lon="14.51313167"><ele>89.0</ele><time>2016-06-18T09:08:19.302Z</time></trkpt><trkpt lat="58.52829167" lon="14.51338"><ele>89.0</ele><time>2016-06-18T09:08:20.322Z</time></trkpt><trkpt lat="58.52829167" lon="14.51338"><ele>89.0</ele><time>2016-06-18T09:08:21.305Z</time></trkpt><trkpt lat="58.52839333" lon="14.51359833"><ele>89.0</ele><time>2016-06-18T09:08:22.315Z</time></trkpt><trkpt lat="58.52839333" lon="14.51359833"><ele>89.0</ele><time>2016-06-18T09:08:23.296Z</time></trkpt><trkpt lat="58.52851" lon="14.51381167"><ele>89.0</ele><time>2016-06-18T09:08:24.312Z</time></trkpt><trkpt lat="58.52851" lon="14.51381167"><ele>89.0</ele><time>2016-06-18T09:08:25.299Z</time></trkpt><trkpt lat="58.52863" lon="14.51401167"><ele>89.0</ele><time>2016-06-18T09:08:26.306Z</time></trkpt><trkpt lat="58.528685" lon="14.51411833"><ele>88.0</ele><time>2016-06-18T09:08:27.306Z</time></trkpt><trkpt lat="58.528685" lon="14.51411833"><ele>88.0</ele><time>2016-06-18T09:08:28.295Z</time></trkpt><trkpt lat="58.52880167" lon="14.51433333"><ele>88.0</ele><time>2016-06-18T09:08:29.305Z</time></trkpt><trkpt lat="58.52887" lon="14.51443667"><ele>89.0</ele><time>2016-06-18T09:08:30.312Z</time></trkpt><trkpt lat="58.52887" lon="14.51443667"><ele>89.0</ele><time>2016-06-18T09:08:31.283Z</time></trkpt><trkpt lat="58.529015" lon="14.514645"><ele>89.0</ele><time>2016-06-18T09:08:32.293Z</time></trkpt><trkpt lat="58.529015" lon="14.514645"><ele>89.0</ele><time>2016-06-18T09:08:33.286Z</time></trkpt><trkpt lat="58.52916667" lon="14.51486833"><ele>89.0</ele><time>2016-06-18T09:08:34.321Z</time></trkpt><trkpt lat="58.52916667" lon="14.51486833"><ele>89.0</ele><time>2016-06-18T09:08:35.309Z</time></trkpt><trkpt lat="58.52932333" lon="14.51510333"><ele>89.0</ele><time>2016-06-18T09:08:36.321Z</time></trkpt><trkpt lat="58.529405" lon="14.51520833"><ele>89.0</ele><time>2016-06-18T09:08:37.285Z</time></trkpt><trkpt lat="58.529405" lon="14.51520833"><ele>89.0</ele><time>2016-06-18T09:08:38.309Z</time></trkpt><trkpt lat="58.52957833" lon="14.51542167"><ele>89.0</ele><time>2016-06-18T09:08:39.293Z</time></trkpt><trkpt lat="58.52965833" lon="14.51553"><ele>89.0</ele><time>2016-06-18T09:08:40.309Z</time></trkpt><trkpt lat="58.52973667" lon="14.51563667"><ele>89.0</ele><time>2016-06-18T09:08:41.318Z</time></trkpt><trkpt lat="58.52973667" lon="14.51563667"><ele>89.0</ele><time>2016-06-18T09:08:42.305Z</time></trkpt><trkpt lat="58.52989333" lon="14.51584167"><ele>89.0</ele><time>2016-06-18T09:08:43.303Z</time></trkpt><trkpt lat="58.52989333" lon="14.51584167"><ele>89.0</ele><time>2016-06-18T09:08:44.299Z</time></trkpt><trkpt lat="58.53004167" lon="14.51606"><ele>89.0</ele><time>2016-06-18T09:08:45.310Z</time></trkpt><trkpt lat="58.53011667" lon="14.51616833"><ele>89.0</ele><time>2016-06-18T09:08:46.318Z</time></trkpt><trkpt lat="58.53011667" lon="14.51616833"><ele>89.0</ele><time>2016-06-18T09:08:47.300Z</time></trkpt><trkpt lat="58.53026833" lon="14.51637833"><ele>89.0</ele><time>2016-06-18T09:08:48.306Z</time></trkpt><trkpt lat="58.53026833" lon="14.51637833"><ele>89.0</ele><time>2016-06-18T09:08:49.319Z</time></trkpt><trkpt lat="58.53042167" lon="14.51658833"><ele>89.0</ele><time>2016-06-18T09:08:50.287Z</time></trkpt><trkpt lat="58.53042167" lon="14.51658833"><ele>89.0</ele><time>2016-06-18T09:08:51.289Z</time></trkpt><trkpt lat="58.53057167" lon="14.51679667"><ele>89.0</ele><time>2016-06-18T09:08:52.312Z</time></trkpt><trkpt lat="58.53057167" lon="14.51679667"><ele>89.0</ele><time>2016-06-18T09:08:53.285Z</time></trkpt><trkpt lat="58.53070833" lon="14.51698167"><ele>89.0</ele><time>2016-06-18T09:08:54.291Z</time></trkpt><trkpt lat="58.53076333" lon="14.51706333"><ele>88.0</ele><time>2016-06-18T09:08:55.312Z</time></trkpt><trkpt lat="58.53081667" lon="14.51714"><ele>88.0</ele><time>2016-06-18T09:08:56.302Z</time></trkpt><trkpt lat="58.53081667" lon="14.51714"><ele>88.0</ele><time>2016-06-18T09:08:57.285Z</time></trkpt><trkpt lat="58.530905" lon="14.51727333"><ele>88.0</ele><time>2016-06-18T09:08:58.292Z</time></trkpt><trkpt lat="58.530905" lon="14.51727333"><ele>88.0</ele><time>2016-06-18T09:08:59.319Z</time></trkpt><trkpt lat="58.53098167" lon="14.517385"><ele>88.0</ele><time>2016-06-18T09:09:00.305Z</time></trkpt><trkpt lat="58.53098167" lon="14.517385"><ele>88.0</ele><time>2016-06-18T09:09:01.290Z</time></trkpt><trkpt lat="58.531045" lon="14.51747333"><ele>88.0</ele><time>2016-06-18T09:09:02.297Z</time></trkpt><trkpt lat="58.53107667" lon="14.51751"><ele>89.0</ele><time>2016-06-18T09:09:03.285Z</time></trkpt><trkpt lat="58.53107667" lon="14.51751"><ele>89.0</ele><time>2016-06-18T09:09:04.290Z</time></trkpt><trkpt lat="58.53114167" lon="14.517525"><ele>89.0</ele><time>2016-06-18T09:09:05.297Z</time></trkpt><trkpt lat="58.53114167" lon="14.517525"><ele>89.0</ele><time>2016-06-18T09:09:06.321Z</time></trkpt><trkpt lat="58.531175" lon="14.51742167"><ele>89.0</ele><time>2016-06-18T09:09:07.286Z</time></trkpt><trkpt lat="58.53118667" lon="14.51736167"><ele>90.0</ele><time>2016-06-18T09:09:08.309Z</time></trkpt><trkpt lat="58.53118667" lon="14.51736167"><ele>90.0</ele><time>2016-06-18T09:09:09.319Z</time></trkpt><trkpt lat="58.53119667" lon="14.51718167"><ele>89.0</ele><time>2016-06-18T09:09:10.287Z</time></trkpt><trkpt lat="58.53119667" lon="14.51718167"><ele>89.0</ele><time>2016-06-18T09:09:11.302Z</time></trkpt><trkpt lat="58.531205" lon="14.51696833"><ele>89.0</ele><time>2016-06-18T09:09:12.284Z</time></trkpt><trkpt lat="58.53121833" lon="14.51684667"><ele>89.0</ele><time>2016-06-18T09:09:13.294Z</time></trkpt><trkpt lat="58.531235" lon="14.51672"><ele>89.0</ele><time>2016-06-18T09:09:14.305Z</time></trkpt><trkpt lat="58.531235" lon="14.51672"><ele>89.0</ele><time>2016-06-18T09:09:15.319Z</time></trkpt><trkpt lat="58.53126667" lon="14.516455"><ele>89.0</ele><time>2016-06-18T09:09:16.287Z</time></trkpt><trkpt lat="58.53128167" lon="14.51632"><ele>89.0</ele><time>2016-06-18T09:09:17.321Z</time></trkpt><trkpt lat="58.53128167" lon="14.51632"><ele>89.0</ele><time>2016-06-18T09:09:18.288Z</time></trkpt><trkpt lat="58.53132333" lon="14.516025"><ele>89.0</ele><time>2016-06-18T09:09:19.294Z</time></trkpt><trkpt lat="58.531355" lon="14.51586667"><ele>89.0</ele><time>2016-06-18T09:09:20.313Z</time></trkpt><trkpt lat="58.531355" lon="14.51586667"><ele>89.0</ele><time>2016-06-18T09:09:21.302Z</time></trkpt><trkpt lat="58.53142" lon="14.51555333"><ele>89.0</ele><time>2016-06-18T09:09:22.310Z</time></trkpt><trkpt lat="58.53142" lon="14.51555333"><ele>89.0</ele><time>2016-06-18T09:09:23.303Z</time></trkpt><trkpt lat="58.531495" lon="14.51525667"><ele>89.0</ele><time>2016-06-18T09:09:24.282Z</time></trkpt><trkpt lat="58.531495" lon="14.51525667"><ele>89.0</ele><time>2016-06-18T09:09:25.302Z</time></trkpt><trkpt lat="58.53157333" lon="14.51495"><ele>89.0</ele><time>2016-06-18T09:09:26.307Z</time></trkpt><trkpt lat="58.53157333" lon="14.51495"><ele>89.0</ele><time>2016-06-18T09:09:27.290Z</time></trkpt><trkpt lat="58.53166167" lon="14.51465167"><ele>90.0</ele><time>2016-06-18T09:09:28.318Z</time></trkpt><trkpt lat="58.531705" lon="14.51450667"><ele>90.0</ele><time>2016-06-18T09:09:29.287Z</time></trkpt><trkpt lat="58.531745" lon="14.51436667"><ele>89.0</ele><time>2016-06-18T09:09:30.283Z</time></trkpt><trkpt lat="58.531745" lon="14.51436667"><ele>89.0</ele><time>2016-06-18T09:09:31.309Z</time></trkpt><trkpt lat="58.53182" lon="14.51409"><ele>89.0</ele><time>2016-06-18T09:09:32.317Z</time></trkpt><trkpt lat="58.53182" lon="14.51409"><ele>89.0</ele><time>2016-06-18T09:09:33.300Z</time></trkpt><trkpt lat="58.531905" lon="14.51380167"><ele>89.0</ele><time>2016-06-18T09:09:34.308Z</time></trkpt><trkpt lat="58.531905" lon="14.51380167"><ele>89.0</ele><time>2016-06-18T09:09:35.293Z</time></trkpt><trkpt lat="58.53199667" lon="14.51350333"><ele>89.0</ele><time>2016-06-18T09:09:36.313Z</time></trkpt><trkpt lat="58.53199667" lon="14.51350333"><ele>89.0</ele><time>2016-06-18T09:09:37.308Z</time></trkpt><trkpt lat="58.53209" lon="14.51322667"><ele>89.0</ele><time>2016-06-18T09:09:38.314Z</time></trkpt><trkpt lat="58.53209" lon="14.51322667"><ele>89.0</ele><time>2016-06-18T09:09:39.297Z</time></trkpt><trkpt lat="58.53218667" lon="14.512965"><ele>89.0</ele><time>2016-06-18T09:09:40.312Z</time></trkpt><trkpt lat="58.53218667" lon="14.512965"><ele>89.0</ele><time>2016-06-18T09:09:41.284Z</time></trkpt><trkpt lat="58.53228333" lon="14.51270667"><ele>89.0</ele><time>2016-06-18T09:09:42.310Z</time></trkpt><trkpt lat="58.53228333" lon="14.51270667"><ele>89.0</ele><time>2016-06-18T09:09:43.291Z</time></trkpt><trkpt lat="58.53238667" lon="14.51246"><ele>89.0</ele><time>2016-06-18T09:09:44.303Z</time></trkpt><trkpt lat="58.53238667" lon="14.51246"><ele>89.0</ele><time>2016-06-18T09:09:45.291Z</time></trkpt><trkpt lat="58.53250167" lon="14.51226"><ele>88.0</ele><time>2016-06-18T09:09:46.297Z</time></trkpt><trkpt lat="58.53250167" lon="14.51226"><ele>88.0</ele><time>2016-06-18T09:09:47.287Z</time></trkpt><trkpt lat="58.53262167" lon="14.51206333"><ele>89.0</ele><time>2016-06-18T09:09:48.313Z</time></trkpt><trkpt lat="58.53262167" lon="14.51206333"><ele>89.0</ele><time>2016-06-18T09:09:49.284Z</time></trkpt><trkpt lat="58.53274333" lon="14.51185333"><ele>89.0</ele><time>2016-06-18T09:09:50.311Z</time></trkpt><trkpt lat="58.53274333" lon="14.51185333"><ele>89.0</ele><time>2016-06-18T09:09:51.309Z</time></trkpt><trkpt lat="58.53286833" lon="14.511655"><ele>89.0</ele><time>2016-06-18T09:09:52.284Z</time></trkpt><trkpt lat="58.53286833" lon="14.511655"><ele>89.0</ele><time>2016-06-18T09:09:53.311Z</time></trkpt><trkpt lat="58.53299" lon="14.51146333"><ele>89.0</ele><time>2016-06-18T09:09:54.303Z</time></trkpt><trkpt lat="58.53299" lon="14.51146333"><ele>89.0</ele><time>2016-06-18T09:09:55.310Z</time></trkpt><trkpt lat="58.533115" lon="14.511275"><ele>88.0</ele><time>2016-06-18T09:09:56.320Z</time></trkpt><trkpt lat="58.533115" lon="14.511275"><ele>88.0</ele><time>2016-06-18T09:09:57.303Z</time></trkpt><trkpt lat="58.53324" lon="14.51108"><ele>89.0</ele><time>2016-06-18T09:09:58.307Z</time></trkpt><trkpt lat="58.53324" lon="14.51108"><ele>89.0</ele><time>2016-06-18T09:09:59.306Z</time></trkpt><trkpt lat="58.53336" lon="14.51089333"><ele>88.0</ele><time>2016-06-18T09:10:00.314Z</time></trkpt><trkpt lat="58.53336" lon="14.51089333"><ele>88.0</ele><time>2016-06-18T09:10:01.298Z</time></trkpt><trkpt lat="58.53348167" lon="14.510705"><ele>88.0</ele><time>2016-06-18T09:10:02.287Z</time></trkpt><trkpt lat="58.53348167" lon="14.510705"><ele>88.0</ele><time>2016-06-18T09:10:03.289Z</time></trkpt><trkpt lat="58.5336" lon="14.51052167"><ele>88.0</ele><time>2016-06-18T09:10:04.296Z</time></trkpt><trkpt lat="58.53366" lon="14.51043833"><ele>88.0</ele><time>2016-06-18T09:10:05.316Z</time></trkpt><trkpt lat="58.53366" lon="14.51043833"><ele>88.0</ele><time>2016-06-18T09:10:06.298Z</time></trkpt><trkpt lat="58.53377667" lon="14.51025667"><ele>88.0</ele><time>2016-06-18T09:10:07.307Z</time></trkpt><trkpt lat="58.53383333" lon="14.510165"><ele>87.0</ele><time>2016-06-18T09:10:08.293Z</time></trkpt><trkpt lat="58.53383333" lon="14.510165"><ele>87.0</ele><time>2016-06-18T09:10:09.290Z</time></trkpt><trkpt lat="58.53396" lon="14.50998167"><ele>87.0</ele><time>2016-06-18T09:10:10.296Z</time></trkpt><trkpt lat="58.53396" lon="14.50998167"><ele>87.0</ele><time>2016-06-18T09:10:11.312Z</time></trkpt><trkpt lat="58.53408667" lon="14.50978667"><ele>87.0</ele><time>2016-06-18T09:10:12.317Z</time></trkpt><trkpt lat="58.53408667" lon="14.50978667"><ele>87.0</ele><time>2016-06-18T09:10:13.301Z</time></trkpt><trkpt lat="58.53421167" lon="14.50959333"><ele>87.0</ele><time>2016-06-18T09:10:14.308Z</time></trkpt><trkpt lat="58.53421167" lon="14.50959333"><ele>87.0</ele><time>2016-06-18T09:10:15.291Z</time></trkpt><trkpt lat="58.534335" lon="14.50940167"><ele>87.0</ele><time>2016-06-18T09:10:16.312Z</time></trkpt><trkpt lat="58.534335" lon="14.50940167"><ele>87.0</ele><time>2016-06-18T09:10:17.321Z</time></trkpt><trkpt lat="58.53445667" lon="14.50921167"><ele>87.0</ele><time>2016-06-18T09:10:18.287Z</time></trkpt><trkpt lat="58.53445667" lon="14.50921167"><ele>87.0</ele><time>2016-06-18T09:10:19.319Z</time></trkpt><trkpt lat="58.53457833" lon="14.50902"><ele>88.0</ele><time>2016-06-18T09:10:20.291Z</time></trkpt><trkpt lat="58.53457833" lon="14.50902"><ele>88.0</ele><time>2016-06-18T09:10:21.289Z</time></trkpt><trkpt lat="58.53469667" lon="14.50883167"><ele>87.0</ele><time>2016-06-18T09:10:22.295Z</time></trkpt><trkpt lat="58.53469667" lon="14.50883167"><ele>87.0</ele><time>2016-06-18T09:10:23.288Z</time></trkpt><trkpt lat="58.53481833" lon="14.50864333"><ele>87.0</ele><time>2016-06-18T09:10:24.295Z</time></trkpt><trkpt lat="58.53481833" lon="14.50864333"><ele>87.0</ele><time>2016-06-18T09:10:25.282Z</time></trkpt><trkpt lat="58.53494167" lon="14.50845167"><ele>88.0</ele><time>2016-06-18T09:10:26.312Z</time></trkpt><trkpt lat="58.53494167" lon="14.50845167"><ele>88.0</ele><time>2016-06-18T09:10:27.304Z</time></trkpt><trkpt lat="58.53506" lon="14.50826167"><ele>88.0</ele><time>2016-06-18T09:10:28.311Z</time></trkpt><trkpt lat="58.53506" lon="14.50826167"><ele>88.0</ele><time>2016-06-18T09:10:29.305Z</time></trkpt><trkpt lat="58.53519" lon="14.50807333"><ele>88.0</ele><time>2016-06-18T09:10:30.299Z</time></trkpt><trkpt lat="58.53519" lon="14.50807333"><ele>88.0</ele><time>2016-06-18T09:10:31.310Z</time></trkpt><trkpt lat="58.53531667" lon="14.50788833"><ele>89.0</ele><time>2016-06-18T09:10:32.283Z</time></trkpt><trkpt lat="58.53531667" lon="14.50788833"><ele>89.0</ele><time>2016-06-18T09:10:33.321Z</time></trkpt><trkpt lat="58.53544" lon="14.50769667"><ele>89.0</ele><time>2016-06-18T09:10:34.313Z</time></trkpt><trkpt lat="58.53544" lon="14.50769667"><ele>89.0</ele><time>2016-06-18T09:10:35.320Z</time></trkpt><trkpt lat="58.535565" lon="14.50752167"><ele>89.0</ele><time>2016-06-18T09:10:36.287Z</time></trkpt><trkpt lat="58.535625" lon="14.50744333"><ele>88.0</ele><time>2016-06-18T09:10:37.321Z</time></trkpt><trkpt lat="58.535685" lon="14.50735333"><ele>88.0</ele><time>2016-06-18T09:10:38.303Z</time></trkpt><trkpt lat="58.535685" lon="14.50735333"><ele>88.0</ele><time>2016-06-18T09:10:39.307Z</time></trkpt><trkpt lat="58.5358" lon="14.50718"><ele>88.0</ele><time>2016-06-18T09:10:40.283Z</time></trkpt><trkpt lat="58.535865" lon="14.50708667"><ele>89.0</ele><time>2016-06-18T09:10:41.305Z</time></trkpt><trkpt lat="58.535865" lon="14.50708667"><ele>89.0</ele><time>2016-06-18T09:10:42.290Z</time></trkpt><trkpt lat="58.53598833" lon="14.50691"><ele>89.0</ele><time>2016-06-18T09:10:43.303Z</time></trkpt><trkpt lat="58.53598833" lon="14.50691"><ele>89.0</ele><time>2016-06-18T09:10:44.310Z</time></trkpt><trkpt lat="58.53611667" lon="14.50671667"><ele>89.0</ele><time>2016-06-18T09:10:45.318Z</time></trkpt><trkpt lat="58.53618" lon="14.50662667"><ele>88.0</ele><time>2016-06-18T09:10:46.300Z</time></trkpt><trkpt lat="58.53618" lon="14.50662667"><ele>88.0</ele><time>2016-06-18T09:10:47.297Z</time></trkpt><trkpt lat="58.53631333" lon="14.50643667"><ele>88.0</ele><time>2016-06-18T09:10:48.306Z</time></trkpt><trkpt lat="58.53637833" lon="14.50633667"><ele>88.0</ele><time>2016-06-18T09:10:49.295Z</time></trkpt><trkpt lat="58.53644667" lon="14.50623833"><ele>88.0</ele><time>2016-06-18T09:10:50.301Z</time></trkpt><trkpt lat="58.53644667" lon="14.50623833"><ele>88.0</ele><time>2016-06-18T09:10:51.307Z</time></trkpt><trkpt lat="58.536575" lon="14.50604667"><ele>88.0</ele><time>2016-06-18T09:10:52.319Z</time></trkpt><trkpt lat="58.53664167" lon="14.50595167"><ele>88.0</ele><time>2016-06-18T09:10:53.291Z</time></trkpt><trkpt lat="58.53664167" lon="14.50595167"><ele>88.0</ele><time>2016-06-18T09:10:54.317Z</time></trkpt><trkpt lat="58.53677" lon="14.50576833"><ele>88.0</ele><time>2016-06-18T09:10:55.287Z</time></trkpt><trkpt lat="58.53677" lon="14.50576833"><ele>88.0</ele><time>2016-06-18T09:10:56.313Z</time></trkpt><trkpt lat="58.53689" lon="14.50559"><ele>88.0</ele><time>2016-06-18T09:10:57.285Z</time></trkpt><trkpt lat="58.53689" lon="14.50559"><ele>88.0</ele><time>2016-06-18T09:10:58.308Z</time></trkpt><trkpt lat="58.537" lon="14.505415"><ele>88.0</ele><time>2016-06-18T09:10:59.291Z</time></trkpt><trkpt lat="58.537" lon="14.505415"><ele>88.0</ele><time>2016-06-18T09:11:00.305Z</time></trkpt><trkpt lat="58.53710833" lon="14.50525167"><ele>89.0</ele><time>2016-06-18T09:11:01.312Z</time></trkpt><trkpt lat="58.53716" lon="14.505175"><ele>90.0</ele><time>2016-06-18T09:11:02.300Z</time></trkpt><trkpt lat="58.53716" lon="14.505175"><ele>90.0</ele><time>2016-06-18T09:11:03.310Z</time></trkpt><trkpt lat="58.53725167" lon="14.50502667"><ele>90.0</ele><time>2016-06-18T09:11:04.319Z</time></trkpt><trkpt lat="58.537295" lon="14.50494833"><ele>90.0</ele><time>2016-06-18T09:11:05.304Z</time></trkpt><trkpt lat="58.53734" lon="14.50487167"><ele>91.0</ele><time>2016-06-18T09:11:06.312Z</time></trkpt><trkpt lat="58.53734" lon="14.50487167"><ele>91.0</ele><time>2016-06-18T09:11:07.321Z</time></trkpt><trkpt lat="58.53745333" lon="14.504815"><ele>91.0</ele><time>2016-06-18T09:11:08.288Z</time></trkpt><trkpt lat="58.53745333" lon="14.504815"><ele>91.0</ele><time>2016-06-18T09:11:09.290Z</time></trkpt><trkpt lat="58.53758333" lon="14.50487"><ele>91.0</ele><time>2016-06-18T09:11:10.285Z</time></trkpt><trkpt lat="58.53758333" lon="14.50487"><ele>91.0</ele><time>2016-06-18T09:11:11.311Z</time></trkpt><trkpt lat="58.53771833" lon="14.50493333"><ele>92.0</ele><time>2016-06-18T09:11:12.295Z</time></trkpt><trkpt lat="58.537785" lon="14.50497"><ele>92.0</ele><time>2016-06-18T09:11:13.312Z</time></trkpt><trkpt lat="58.53784667" lon="14.50501333"><ele>92.0</ele><time>2016-06-18T09:11:14.287Z</time></trkpt><trkpt lat="58.53784667" lon="14.50501333"><ele>92.0</ele><time>2016-06-18T09:11:15.308Z</time></trkpt><trkpt lat="58.537985" lon="14.50509167"><ele>93.0</ele><time>2016-06-18T09:11:16.320Z</time></trkpt><trkpt lat="58.53804833" lon="14.50514167"><ele>93.0</ele><time>2016-06-18T09:11:17.308Z</time></trkpt><trkpt lat="58.53804833" lon="14.50514167"><ele>93.0</ele><time>2016-06-18T09:11:18.283Z</time></trkpt><trkpt lat="58.53818667" lon="14.50524833"><ele>93.0</ele><time>2016-06-18T09:11:19.293Z</time></trkpt><trkpt lat="58.53825667" lon="14.50531333"><ele>93.0</ele><time>2016-06-18T09:11:20.300Z</time></trkpt><trkpt lat="58.53825667" lon="14.50531333"><ele>93.0</ele><time>2016-06-18T09:11:21.318Z</time></trkpt><trkpt lat="58.5384" lon="14.50545667"><ele>92.0</ele><time>2016-06-18T09:11:22.290Z</time></trkpt><trkpt lat="58.5384" lon="14.50545667"><ele>92.0</ele><time>2016-06-18T09:11:23.287Z</time></trkpt><trkpt lat="58.53855167" lon="14.50560667"><ele>93.0</ele><time>2016-06-18T09:11:24.305Z</time></trkpt><trkpt lat="58.53855167" lon="14.50560667"><ele>93.0</ele><time>2016-06-18T09:11:25.292Z</time></trkpt><trkpt lat="58.53870167" lon="14.50576667"><ele>93.0</ele><time>2016-06-18T09:11:26.309Z</time></trkpt><trkpt lat="58.53870167" lon="14.50576667"><ele>93.0</ele><time>2016-06-18T09:11:27.294Z</time></trkpt><trkpt lat="58.53885" lon="14.50592333"><ele>93.0</ele><time>2016-06-18T09:11:28.324Z</time></trkpt><trkpt lat="58.53885" lon="14.50592333"><ele>93.0</ele><time>2016-06-18T09:11:29.287Z</time></trkpt><trkpt lat="58.53900667" lon="14.50606667"><ele>93.0</ele><time>2016-06-18T09:11:30.307Z</time></trkpt><trkpt lat="58.539085" lon="14.506145"><ele>93.0</ele><time>2016-06-18T09:11:31.312Z</time></trkpt><trkpt lat="58.539085" lon="14.506145"><ele>93.0</ele><time>2016-06-18T09:11:32.314Z</time></trkpt><trkpt lat="58.53924333" lon="14.5063"><ele>92.0</ele><time>2016-06-18T09:11:33.289Z</time></trkpt><trkpt lat="58.53932" lon="14.50637167"><ele>92.0</ele><time>2016-06-18T09:11:34.284Z</time></trkpt><trkpt lat="58.53932" lon="14.50637167"><ele>92.0</ele><time>2016-06-18T09:11:35.295Z</time></trkpt><trkpt lat="58.53947833" lon="14.50651833"><ele>92.0</ele><time>2016-06-18T09:11:36.287Z</time></trkpt><trkpt lat="58.53947833" lon="14.50651833"><ele>92.0</ele><time>2016-06-18T09:11:37.297Z</time></trkpt><trkpt lat="58.53963333" lon="14.50665167"><ele>91.0</ele><time>2016-06-18T09:11:38.311Z</time></trkpt><trkpt lat="58.53963333" lon="14.50665167"><ele>91.0</ele><time>2016-06-18T09:11:39.305Z</time></trkpt><trkpt lat="58.53980833" lon="14.50671833"><ele>91.0</ele><time>2016-06-18T09:11:40.294Z</time></trkpt><trkpt lat="58.53980833" lon="14.50671833"><ele>91.0</ele><time>2016-06-18T09:11:41.313Z</time></trkpt><trkpt lat="58.53998667" lon="14.506715"><ele>90.0</ele><time>2016-06-18T09:11:42.283Z</time></trkpt><trkpt lat="58.54007333" lon="14.50670167"><ele>90.0</ele><time>2016-06-18T09:11:43.298Z</time></trkpt><trkpt lat="58.54007333" lon="14.50670167"><ele>90.0</ele><time>2016-06-18T09:11:44.293Z</time></trkpt><trkpt lat="58.540245" lon="14.50666333"><ele>89.0</ele><time>2016-06-18T09:11:45.298Z</time></trkpt><trkpt lat="58.540245" lon="14.50666333"><ele>89.0</ele><time>2016-06-18T09:11:46.286Z</time></trkpt><trkpt lat="58.54041833" lon="14.50662"><ele>89.0</ele><time>2016-06-18T09:11:47.308Z</time></trkpt><trkpt lat="58.54041833" lon="14.50662"><ele>89.0</ele><time>2016-06-18T09:11:48.295Z</time></trkpt><trkpt lat="58.54058833" lon="14.50658167"><ele>89.0</ele><time>2016-06-18T09:11:49.312Z</time></trkpt><trkpt lat="58.54067333" lon="14.50656"><ele>89.0</ele><time>2016-06-18T09:11:50.305Z</time></trkpt><trkpt lat="58.54067333" lon="14.50656"><ele>89.0</ele><time>2016-06-18T09:11:51.290Z</time></trkpt><trkpt lat="58.54084167" lon="14.50651833"><ele>88.0</ele><time>2016-06-18T09:11:52.304Z</time></trkpt><trkpt lat="58.54092333" lon="14.50649667"><ele>88.0</ele><time>2016-06-18T09:11:53.314Z</time></trkpt><trkpt lat="58.54100333" lon="14.50647333"><ele>88.0</ele><time>2016-06-18T09:11:54.286Z</time></trkpt><trkpt lat="58.54100333" lon="14.50647333"><ele>88.0</ele><time>2016-06-18T09:11:55.317Z</time></trkpt><trkpt lat="58.54117" lon="14.50641"><ele>88.0</ele><time>2016-06-18T09:11:56.289Z</time></trkpt><trkpt lat="58.54117" lon="14.50641"><ele>88.0</ele><time>2016-06-18T09:11:57.299Z</time></trkpt><trkpt lat="58.54133167" lon="14.50637167"><ele>88.0</ele><time>2016-06-18T09:11:58.299Z</time></trkpt><trkpt lat="58.54133167" lon="14.50637167"><ele>88.0</ele><time>2016-06-18T09:11:59.291Z</time></trkpt><trkpt lat="58.54149" lon="14.50633667"><ele>88.0</ele><time>2016-06-18T09:12:00.300Z</time></trkpt><trkpt lat="58.54149" lon="14.50633667"><ele>88.0</ele><time>2016-06-18T09:12:01.290Z</time></trkpt><trkpt lat="58.54164333" lon="14.50629667"><ele>89.0</ele><time>2016-06-18T09:12:02.288Z</time></trkpt><trkpt lat="58.54172167" lon="14.50627167"><ele>89.0</ele><time>2016-06-18T09:12:03.321Z</time></trkpt><trkpt lat="58.54172167" lon="14.50627167"><ele>89.0</ele><time>2016-06-18T09:12:04.293Z</time></trkpt><trkpt lat="58.54187333" lon="14.50622"><ele>89.0</ele><time>2016-06-18T09:12:05.301Z</time></trkpt><trkpt lat="58.54195167" lon="14.50619833"><ele>89.0</ele><time>2016-06-18T09:12:06.316Z</time></trkpt><trkpt lat="58.54195167" lon="14.50619833"><ele>89.0</ele><time>2016-06-18T09:12:07.294Z</time></trkpt><trkpt lat="58.54211167" lon="14.50615833"><ele>88.0</ele><time>2016-06-18T09:12:08.307Z</time></trkpt><trkpt lat="58.54211167" lon="14.50615833"><ele>88.0</ele><time>2016-06-18T09:12:09.294Z</time></trkpt><trkpt lat="58.54227833" lon="14.50611"><ele>88.0</ele><time>2016-06-18T09:12:10.297Z</time></trkpt><trkpt lat="58.54227833" lon="14.50611"><ele>88.0</ele><time>2016-06-18T09:12:11.286Z</time></trkpt><trkpt lat="58.54243667" lon="14.50604333"><ele>88.0</ele><time>2016-06-18T09:12:12.284Z</time></trkpt><trkpt lat="58.54251333" lon="14.506005"><ele>88.0</ele><time>2016-06-18T09:12:13.285Z</time></trkpt><trkpt lat="58.54258667" lon="14.50596167"><ele>88.0</ele><time>2016-06-18T09:12:14.294Z</time></trkpt><trkpt lat="58.54258667" lon="14.50596167"><ele>88.0</ele><time>2016-06-18T09:12:15.320Z</time></trkpt><trkpt lat="58.54272667" lon="14.50586"><ele>88.0</ele><time>2016-06-18T09:12:16.288Z</time></trkpt><trkpt lat="58.54279833" lon="14.50580833"><ele>88.0</ele><time>2016-06-18T09:12:17.319Z</time></trkpt><trkpt lat="58.54287167" lon="14.50575167"><ele>88.0</ele><time>2016-06-18T09:12:18.311Z</time></trkpt><trkpt lat="58.54287167" lon="14.50575167"><ele>88.0</ele><time>2016-06-18T09:12:19.288Z</time></trkpt><trkpt lat="58.54301667" lon="14.50562333"><ele>87.0</ele><time>2016-06-18T09:12:20.295Z</time></trkpt><trkpt lat="58.54301667" lon="14.50562333"><ele>87.0</ele><time>2016-06-18T09:12:21.305Z</time></trkpt><trkpt lat="58.543165" lon="14.505465"><ele>88.0</ele><time>2016-06-18T09:12:22.320Z</time></trkpt><trkpt lat="58.543165" lon="14.505465"><ele>88.0</ele><time>2016-06-18T09:12:23.306Z</time></trkpt><trkpt lat="58.54331167" lon="14.50529"><ele>88.0</ele><time>2016-06-18T09:12:24.313Z</time></trkpt><trkpt lat="58.54331167" lon="14.50529"><ele>88.0</ele><time>2016-06-18T09:12:25.295Z</time></trkpt><trkpt lat="58.54344667" lon="14.50509833"><ele>88.0</ele><time>2016-06-18T09:12:26.308Z</time></trkpt><trkpt lat="58.54344667" lon="14.50509833"><ele>88.0</ele><time>2016-06-18T09:12:27.301Z</time></trkpt><trkpt lat="58.54357333" lon="14.50488667"><ele>88.0</ele><time>2016-06-18T09:12:28.310Z</time></trkpt><trkpt lat="58.54357333" lon="14.50488667"><ele>88.0</ele><time>2016-06-18T09:12:29.293Z</time></trkpt><trkpt lat="58.54369833" lon="14.504665"><ele>88.0</ele><time>2016-06-18T09:12:30.308Z</time></trkpt><trkpt lat="58.54369833" lon="14.504665"><ele>88.0</ele><time>2016-06-18T09:12:31.283Z</time></trkpt><trkpt lat="58.54382167" lon="14.50443"><ele>88.0</ele><time>2016-06-18T09:12:32.290Z</time></trkpt><trkpt lat="58.54388167" lon="14.50431"><ele>88.0</ele><time>2016-06-18T09:12:33.316Z</time></trkpt><trkpt lat="58.54388167" lon="14.50431"><ele>88.0</ele><time>2016-06-18T09:12:34.287Z</time></trkpt><trkpt lat="58.544" lon="14.50406333"><ele>87.0</ele><time>2016-06-18T09:12:35.295Z</time></trkpt><trkpt lat="58.544" lon="14.50406333"><ele>87.0</ele><time>2016-06-18T09:12:36.290Z</time></trkpt><trkpt lat="58.54412167" lon="14.50381333"><ele>87.0</ele><time>2016-06-18T09:12:37.312Z</time></trkpt><trkpt lat="58.54412167" lon="14.50381333"><ele>87.0</ele><time>2016-06-18T09:12:38.300Z</time></trkpt><trkpt lat="58.54424" lon="14.50357"><ele>87.0</ele><time>2016-06-18T09:12:39.307Z</time></trkpt><trkpt lat="58.54424" lon="14.50357"><ele>87.0</ele><time>2016-06-18T09:12:40.290Z</time></trkpt><trkpt lat="58.54435667" lon="14.503335"><ele>87.0</ele><time>2016-06-18T09:12:41.317Z</time></trkpt><trkpt lat="58.54435667" lon="14.503335"><ele>87.0</ele><time>2016-06-18T09:12:42.305Z</time></trkpt><trkpt lat="58.54447333" lon="14.50311167"><ele>88.0</ele><time>2016-06-18T09:12:43.284Z</time></trkpt><trkpt lat="58.54447333" lon="14.50311167"><ele>88.0</ele><time>2016-06-18T09:12:44.308Z</time></trkpt><trkpt lat="58.54458833" lon="14.50289333"><ele>88.0</ele><time>2016-06-18T09:12:45.309Z</time></trkpt><trkpt lat="58.54458833" lon="14.50289333"><ele>88.0</ele><time>2016-06-18T09:12:46.293Z</time></trkpt><trkpt lat="58.54470667" lon="14.50268333"><ele>88.0</ele><time>2016-06-18T09:12:47.299Z</time></trkpt><trkpt lat="58.544765" lon="14.50258667"><ele>88.0</ele><time>2016-06-18T09:12:48.316Z</time></trkpt><trkpt lat="58.544765" lon="14.50258667"><ele>88.0</ele><time>2016-06-18T09:12:49.286Z</time></trkpt><trkpt lat="58.54488333" lon="14.502395"><ele>88.0</ele><time>2016-06-18T09:12:50.316Z</time></trkpt><trkpt lat="58.54488333" lon="14.502395"><ele>88.0</ele><time>2016-06-18T09:12:51.310Z</time></trkpt><trkpt lat="58.54499833" lon="14.50221"><ele>88.0</ele><time>2016-06-18T09:12:52.283Z</time></trkpt><trkpt lat="58.54499833" lon="14.50221"><ele>88.0</ele><time>2016-06-18T09:12:53.309Z</time></trkpt><trkpt lat="58.54511333" lon="14.50202333"><ele>88.0</ele><time>2016-06-18T09:12:54.288Z</time></trkpt><trkpt lat="58.54511333" lon="14.50202333"><ele>88.0</ele><time>2016-06-18T09:12:55.283Z</time></trkpt><trkpt lat="58.54522333" lon="14.50184333"><ele>88.0</ele><time>2016-06-18T09:12:56.301Z</time></trkpt><trkpt lat="58.54522333" lon="14.50184333"><ele>88.0</ele><time>2016-06-18T09:12:57.288Z</time></trkpt><trkpt lat="58.545325" lon="14.50167667"><ele>88.0</ele><time>2016-06-18T09:12:58.309Z</time></trkpt><trkpt lat="58.545325" lon="14.50167667"><ele>88.0</ele><time>2016-06-18T09:12:59.322Z</time></trkpt><trkpt lat="58.54542333" lon="14.50153833"><ele>88.0</ele><time>2016-06-18T09:13:00.292Z</time></trkpt><trkpt lat="58.54542333" lon="14.50153833"><ele>88.0</ele><time>2016-06-18T09:13:01.292Z</time></trkpt><trkpt lat="58.54552333" lon="14.50144333"><ele>88.0</ele><time>2016-06-18T09:13:02.297Z</time></trkpt><trkpt lat="58.54552333" lon="14.50144333"><ele>88.0</ele><time>2016-06-18T09:13:03.310Z</time></trkpt><trkpt lat="58.54563333" lon="14.50142333"><ele>88.0</ele><time>2016-06-18T09:13:04.320Z</time></trkpt><trkpt lat="58.54569167" lon="14.50141833"><ele>88.0</ele><time>2016-06-18T09:13:05.314Z</time></trkpt><trkpt lat="58.54575167" lon="14.50139667"><ele>88.0</ele><time>2016-06-18T09:13:06.311Z</time></trkpt><trkpt lat="58.54575167" lon="14.50139667"><ele>88.0</ele><time>2016-06-18T09:13:07.293Z</time></trkpt><trkpt lat="58.54585833" lon="14.50129333"><ele>89.0</ele><time>2016-06-18T09:13:08.309Z</time></trkpt><trkpt lat="58.54585833" lon="14.50129333"><ele>89.0</ele><time>2016-06-18T09:13:09.288Z</time></trkpt><trkpt lat="58.54594667" lon="14.501125"><ele>88.0</ele><time>2016-06-18T09:13:10.295Z</time></trkpt><trkpt lat="58.54594667" lon="14.501125"><ele>88.0</ele><time>2016-06-18T09:13:11.311Z</time></trkpt><trkpt lat="58.54603" lon="14.50093333"><ele>89.0</ele><time>2016-06-18T09:13:12.299Z</time></trkpt><trkpt lat="58.54603" lon="14.50093333"><ele>89.0</ele><time>2016-06-18T09:13:13.285Z</time></trkpt><trkpt lat="58.54611667" lon="14.50075"><ele>89.0</ele><time>2016-06-18T09:13:14.293Z</time></trkpt><trkpt lat="58.54611667" lon="14.50075"><ele>89.0</ele><time>2016-06-18T09:13:15.305Z</time></trkpt><trkpt lat="58.54621167" lon="14.50058333"><ele>89.0</ele><time>2016-06-18T09:13:16.309Z</time></trkpt><trkpt lat="58.54621167" lon="14.50058333"><ele>89.0</ele><time>2016-06-18T09:13:17.297Z</time></trkpt><trkpt lat="58.54631667" lon="14.50044333"><ele>89.0</ele><time>2016-06-18T09:13:18.307Z</time></trkpt><trkpt lat="58.54636833" lon="14.50038667"><ele>89.0</ele><time>2016-06-18T09:13:19.288Z</time></trkpt><trkpt lat="58.54642333" lon="14.50033333"><ele>89.0</ele><time>2016-06-18T09:13:20.305Z</time></trkpt><trkpt lat="58.54642333" lon="14.50033333"><ele>89.0</ele><time>2016-06-18T09:13:21.286Z</time></trkpt><trkpt lat="58.54653333" lon="14.500235"><ele>89.0</ele><time>2016-06-18T09:13:22.308Z</time></trkpt><trkpt lat="58.54659" lon="14.50018667"><ele>90.0</ele><time>2016-06-18T09:13:23.299Z</time></trkpt><trkpt lat="58.54659" lon="14.50018667"><ele>90.0</ele><time>2016-06-18T09:13:24.286Z</time></trkpt><trkpt lat="58.54670167" lon="14.50008667"><ele>90.0</ele><time>2016-06-18T09:13:25.308Z</time></trkpt><trkpt lat="58.54676" lon="14.50003667"><ele>90.0</ele><time>2016-06-18T09:13:26.287Z</time></trkpt><trkpt lat="58.54676" lon="14.50003667"><ele>90.0</ele><time>2016-06-18T09:13:27.313Z</time></trkpt><trkpt lat="58.54688333" lon="14.49993667"><ele>91.0</ele><time>2016-06-18T09:13:28.324Z</time></trkpt><trkpt lat="58.54694667" lon="14.49989"><ele>92.0</ele><time>2016-06-18T09:13:29.308Z</time></trkpt><trkpt lat="58.54694667" lon="14.49989"><ele>92.0</ele><time>2016-06-18T09:13:30.294Z</time></trkpt><trkpt lat="58.54707333" lon="14.49980833"><ele>92.0</ele><time>2016-06-18T09:13:31.298Z</time></trkpt><trkpt lat="58.54713833" lon="14.49977"><ele>92.0</ele><time>2016-06-18T09:13:32.304Z</time></trkpt><trkpt lat="58.54713833" lon="14.49977"><ele>92.0</ele><time>2016-06-18T09:13:33.298Z</time></trkpt><trkpt lat="58.547265" lon="14.49970333"><ele>92.0</ele><time>2016-06-18T09:13:34.283Z</time></trkpt><trkpt lat="58.547325" lon="14.49967167"><ele>93.0</ele><time>2016-06-18T09:13:35.283Z</time></trkpt><trkpt lat="58.547325" lon="14.49967167"><ele>93.0</ele><time>2016-06-18T09:13:36.309Z</time></trkpt><trkpt lat="58.54744833" lon="14.49961333"><ele>93.0</ele><time>2016-06-18T09:13:37.282Z</time></trkpt><trkpt lat="58.54751333" lon="14.49958667"><ele>93.0</ele><time>2016-06-18T09:13:38.293Z</time></trkpt><trkpt lat="58.54751333" lon="14.49958667"><ele>93.0</ele><time>2016-06-18T09:13:39.282Z</time></trkpt><trkpt lat="58.54764667" lon="14.49953667"><ele>93.0</ele><time>2016-06-18T09:13:40.309Z</time></trkpt><trkpt lat="58.54764667" lon="14.49953667"><ele>93.0</ele><time>2016-06-18T09:13:41.287Z</time></trkpt><trkpt lat="58.54779" lon="14.49949333"><ele>93.0</ele><time>2016-06-18T09:13:42.294Z</time></trkpt><trkpt lat="58.54779" lon="14.49949333"><ele>93.0</ele><time>2016-06-18T09:13:43.282Z</time></trkpt><trkpt lat="58.54794" lon="14.49945"><ele>93.0</ele><time>2016-06-18T09:13:44.286Z</time></trkpt><trkpt lat="58.54794" lon="14.49945"><ele>93.0</ele><time>2016-06-18T09:13:45.306Z</time></trkpt><trkpt lat="58.54809" lon="14.49941167"><ele>92.0</ele><time>2016-06-18T09:13:46.314Z</time></trkpt><trkpt lat="58.54816333" lon="14.499395"><ele>92.0</ele><time>2016-06-18T09:13:47.309Z</time></trkpt><trkpt lat="58.54816333" lon="14.499395"><ele>92.0</ele><time>2016-06-18T09:13:48.295Z</time></trkpt><trkpt lat="58.548305" lon="14.49937"><ele>92.0</ele><time>2016-06-18T09:13:49.305Z</time></trkpt><trkpt lat="58.548375" lon="14.49936"><ele>92.0</ele><time>2016-06-18T09:13:50.310Z</time></trkpt><trkpt lat="58.548375" lon="14.49936"><ele>92.0</ele><time>2016-06-18T09:13:51.312Z</time></trkpt><trkpt lat="58.54851667" lon="14.49934667"><ele>92.0</ele><time>2016-06-18T09:13:52.284Z</time></trkpt><trkpt lat="58.54858833" lon="14.49934167"><ele>92.0</ele><time>2016-06-18T09:13:53.288Z</time></trkpt><trkpt lat="58.54858833" lon="14.49934167"><ele>92.0</ele><time>2016-06-18T09:13:54.292Z</time></trkpt><trkpt lat="58.548735" lon="14.49933667"><ele>92.0</ele><time>2016-06-18T09:13:55.288Z</time></trkpt><trkpt lat="58.54880833" lon="14.499335"><ele>92.0</ele><time>2016-06-18T09:13:56.294Z</time></trkpt><trkpt lat="58.54880833" lon="14.499335"><ele>92.0</ele><time>2016-06-18T09:13:57.301Z</time></trkpt><trkpt lat="58.54895167" lon="14.49934333"><ele>91.0</ele><time>2016-06-18T09:13:58.318Z</time></trkpt><trkpt lat="58.54902333" lon="14.49934833"><ele>92.0</ele><time>2016-06-18T09:13:59.292Z</time></trkpt><trkpt lat="58.54902333" lon="14.49934833"><ele>92.0</ele><time>2016-06-18T09:14:00.322Z</time></trkpt><trkpt lat="58.54916333" lon="14.49936333"><ele>92.0</ele><time>2016-06-18T09:14:01.298Z</time></trkpt><trkpt lat="58.54923333" lon="14.49937"><ele>91.0</ele><time>2016-06-18T09:14:02.305Z</time></trkpt><trkpt lat="58.54923333" lon="14.49937"><ele>91.0</ele><time>2016-06-18T09:14:03.305Z</time></trkpt><trkpt lat="58.54937667" lon="14.49939"><ele>92.0</ele><time>2016-06-18T09:14:04.298Z</time></trkpt><trkpt lat="58.54945167" lon="14.49941"><ele>92.0</ele><time>2016-06-18T09:14:05.305Z</time></trkpt><trkpt lat="58.54945167" lon="14.49941"><ele>92.0</ele><time>2016-06-18T09:14:06.288Z</time></trkpt><trkpt lat="58.54960667" lon="14.49944167"><ele>92.0</ele><time>2016-06-18T09:14:07.309Z</time></trkpt><trkpt lat="58.54968667" lon="14.49945833"><ele>92.0</ele><time>2016-06-18T09:14:08.288Z</time></trkpt><trkpt lat="58.54968667" lon="14.49945833"><ele>92.0</ele><time>2016-06-18T09:14:09.316Z</time></trkpt><trkpt lat="58.54984333" lon="14.49950167"><ele>93.0</ele><time>2016-06-18T09:14:10.320Z</time></trkpt><trkpt lat="58.54984333" lon="14.49950167"><ele>93.0</ele><time>2016-06-18T09:14:11.285Z</time></trkpt><trkpt lat="58.549995" lon="14.49954"><ele>93.0</ele><time>2016-06-18T09:14:12.302Z</time></trkpt><trkpt lat="58.549995" lon="14.49954"><ele>93.0</ele><time>2016-06-18T09:14:13.283Z</time></trkpt><trkpt lat="58.55015" lon="14.499575"><ele>94.0</ele><time>2016-06-18T09:14:14.290Z</time></trkpt><trkpt lat="58.55015" lon="14.499575"><ele>94.0</ele><time>2016-06-18T09:14:15.310Z</time></trkpt><trkpt lat="58.55029833" lon="14.49961833"><ele>94.0</ele><time>2016-06-18T09:14:16.284Z</time></trkpt><trkpt lat="58.55029833" lon="14.49961833"><ele>94.0</ele><time>2016-06-18T09:14:17.311Z</time></trkpt><trkpt lat="58.55045333" lon="14.49965667"><ele>93.0</ele><time>2016-06-18T09:14:18.305Z</time></trkpt><trkpt lat="58.55045333" lon="14.49965667"><ele>93.0</ele><time>2016-06-18T09:14:19.303Z</time></trkpt><trkpt lat="58.55061833" lon="14.49969333"><ele>94.0</ele><time>2016-06-18T09:14:20.311Z</time></trkpt><trkpt lat="58.55061833" lon="14.49969333"><ele>94.0</ele><time>2016-06-18T09:14:21.297Z</time></trkpt><trkpt lat="58.550775" lon="14.49973833"><ele>94.0</ele><time>2016-06-18T09:14:22.308Z</time></trkpt><trkpt lat="58.550775" lon="14.49973833"><ele>94.0</ele><time>2016-06-18T09:14:23.290Z</time></trkpt><trkpt lat="58.550935" lon="14.49977833"><ele>94.0</ele><time>2016-06-18T09:14:24.297Z</time></trkpt><trkpt lat="58.550935" lon="14.49977833"><ele>94.0</ele><time>2016-06-18T09:14:25.292Z</time></trkpt><trkpt lat="58.551095" lon="14.49981833"><ele>94.0</ele><time>2016-06-18T09:14:26.321Z</time></trkpt><trkpt lat="58.551095" lon="14.49981833"><ele>94.0</ele><time>2016-06-18T09:14:27.291Z</time></trkpt><trkpt lat="58.55125833" lon="14.49986167"><ele>94.0</ele><time>2016-06-18T09:14:28.299Z</time></trkpt><trkpt lat="58.551345" lon="14.49987833"><ele>94.0</ele><time>2016-06-18T09:14:29.290Z</time></trkpt><trkpt lat="58.551345" lon="14.49987833"><ele>94.0</ele><time>2016-06-18T09:14:30.308Z</time></trkpt><trkpt lat="58.551515" lon="14.49991667"><ele>94.0</ele><time>2016-06-18T09:14:31.321Z</time></trkpt><trkpt lat="58.5516" lon="14.49994"><ele>94.0</ele><time>2016-06-18T09:14:32.290Z</time></trkpt><trkpt lat="58.55168667" lon="14.49996"><ele>94.0</ele><time>2016-06-18T09:14:33.291Z</time></trkpt><trkpt lat="58.55168667" lon="14.49996"><ele>94.0</ele><time>2016-06-18T09:14:34.318Z</time></trkpt><trkpt lat="58.55185833" lon="14.500005"><ele>94.0</ele><time>2016-06-18T09:14:35.309Z</time></trkpt><trkpt lat="58.55194333" lon="14.500025"><ele>95.0</ele><time>2016-06-18T09:14:36.288Z</time></trkpt><trkpt lat="58.55194333" lon="14.500025"><ele>95.0</ele><time>2016-06-18T09:14:37.315Z</time></trkpt><trkpt lat="58.55211167" lon="14.50006833"><ele>95.0</ele><time>2016-06-18T09:14:38.295Z</time></trkpt><trkpt lat="58.55211167" lon="14.50006833"><ele>95.0</ele><time>2016-06-18T09:14:39.301Z</time></trkpt><trkpt lat="58.552275" lon="14.50010667"><ele>95.0</ele><time>2016-06-18T09:14:40.318Z</time></trkpt><trkpt lat="58.552275" lon="14.50010667"><ele>95.0</ele><time>2016-06-18T09:14:41.299Z</time></trkpt><trkpt lat="58.552435" lon="14.50013667"><ele>94.0</ele><time>2016-06-18T09:14:42.306Z</time></trkpt><trkpt lat="58.552515" lon="14.50016167"><ele>94.0</ele><time>2016-06-18T09:14:43.305Z</time></trkpt><trkpt lat="58.55259167" lon="14.50017667"><ele>94.0</ele><time>2016-06-18T09:14:44.290Z</time></trkpt><trkpt lat="58.55259167" lon="14.50017667"><ele>94.0</ele><time>2016-06-18T09:14:45.282Z</time></trkpt><trkpt lat="58.55272333" lon="14.50021167"><ele>94.0</ele><time>2016-06-18T09:14:46.317Z</time></trkpt><trkpt lat="58.55272333" lon="14.50021167"><ele>94.0</ele><time>2016-06-18T09:14:47.320Z</time></trkpt><trkpt lat="58.55285" lon="14.50023"><ele>94.0</ele><time>2016-06-18T09:14:48.292Z</time></trkpt><trkpt lat="58.55285" lon="14.50023"><ele>94.0</ele><time>2016-06-18T09:14:49.315Z</time></trkpt><trkpt lat="58.55297833" lon="14.50026"><ele>94.0</ele><time>2016-06-18T09:14:50.288Z</time></trkpt><trkpt lat="58.55297833" lon="14.50026"><ele>94.0</ele><time>2016-06-18T09:14:51.318Z</time></trkpt><trkpt lat="58.55311333" lon="14.50028833"><ele>94.0</ele><time>2016-06-18T09:14:52.286Z</time></trkpt><trkpt lat="58.55318333" lon="14.5003"><ele>94.0</ele><time>2016-06-18T09:14:53.296Z</time></trkpt><trkpt lat="58.55318333" lon="14.5003"><ele>94.0</ele><time>2016-06-18T09:14:54.306Z</time></trkpt><trkpt lat="58.55333" lon="14.50032"><ele>94.0</ele><time>2016-06-18T09:14:55.288Z</time></trkpt><trkpt lat="58.55340333" lon="14.50033667"><ele>93.0</ele><time>2016-06-18T09:14:56.291Z</time></trkpt><trkpt lat="58.55340333" lon="14.50033667"><ele>93.0</ele><time>2016-06-18T09:14:57.307Z</time></trkpt><trkpt lat="58.55355833" lon="14.50036833"><ele>93.0</ele><time>2016-06-18T09:14:58.288Z</time></trkpt><trkpt lat="58.55355833" lon="14.50036833"><ele>93.0</ele><time>2016-06-18T09:14:59.317Z</time></trkpt><trkpt lat="58.55372" lon="14.50040167"><ele>92.0</ele><time>2016-06-18T09:15:00.286Z</time></trkpt><trkpt lat="58.55380167" lon="14.500425"><ele>92.0</ele><time>2016-06-18T09:15:01.296Z</time></trkpt><trkpt lat="58.553885" lon="14.50045167"><ele>92.0</ele><time>2016-06-18T09:15:02.284Z</time></trkpt><trkpt lat="58.553885" lon="14.50045167"><ele>92.0</ele><time>2016-06-18T09:15:03.291Z</time></trkpt><trkpt lat="58.55405" lon="14.50050167"><ele>92.0</ele><time>2016-06-18T09:15:04.299Z</time></trkpt><trkpt lat="58.55405" lon="14.50050167"><ele>92.0</ele><time>2016-06-18T09:15:05.292Z</time></trkpt><trkpt lat="58.55422167" lon="14.50054667"><ele>91.0</ele><time>2016-06-18T09:15:06.308Z</time></trkpt><trkpt lat="58.55422167" lon="14.50054667"><ele>91.0</ele><time>2016-06-18T09:15:07.322Z</time></trkpt><trkpt lat="58.5544" lon="14.500595"><ele>91.0</ele><time>2016-06-18T09:15:08.289Z</time></trkpt><trkpt lat="58.5544" lon="14.500595"><ele>91.0</ele><time>2016-06-18T09:15:09.293Z</time></trkpt><trkpt lat="58.554575" lon="14.500645"><ele>90.0</ele><time>2016-06-18T09:15:10.320Z</time></trkpt><trkpt lat="58.554575" lon="14.500645"><ele>90.0</ele><time>2016-06-18T09:15:11.317Z</time></trkpt><trkpt lat="58.55474833" lon="14.50069167"><ele>90.0</ele><time>2016-06-18T09:15:12.285Z</time></trkpt><trkpt lat="58.554835" lon="14.500715"><ele>90.0</ele><time>2016-06-18T09:15:13.306Z</time></trkpt><trkpt lat="58.55492167" lon="14.50073667"><ele>90.0</ele><time>2016-06-18T09:15:14.312Z</time></trkpt><trkpt lat="58.55492167" lon="14.50073667"><ele>90.0</ele><time>2016-06-18T09:15:15.294Z</time></trkpt><trkpt lat="58.55509167" lon="14.50078"><ele>91.0</ele><time>2016-06-18T09:15:16.301Z</time></trkpt><trkpt lat="58.55517333" lon="14.50080167"><ele>91.0</ele><time>2016-06-18T09:15:17.286Z</time></trkpt><trkpt lat="58.55517333" lon="14.50080167"><ele>91.0</ele><time>2016-06-18T09:15:18.311Z</time></trkpt><trkpt lat="58.55533" lon="14.50084"><ele>92.0</ele><time>2016-06-18T09:15:19.282Z</time></trkpt><trkpt lat="58.55533" lon="14.50084"><ele>92.0</ele><time>2016-06-18T09:15:20.309Z</time></trkpt><trkpt lat="58.55548" lon="14.50087833"><ele>92.0</ele><time>2016-06-18T09:15:21.310Z</time></trkpt><trkpt lat="58.55548" lon="14.50087833"><ele>92.0</ele><time>2016-06-18T09:15:22.286Z</time></trkpt><trkpt lat="58.55561833" lon="14.50091333"><ele>92.0</ele><time>2016-06-18T09:15:23.299Z</time></trkpt><trkpt lat="58.55561833" lon="14.50091333"><ele>92.0</ele><time>2016-06-18T09:15:24.285Z</time></trkpt><trkpt lat="58.555745" lon="14.50094667"><ele>92.0</ele><time>2016-06-18T09:15:25.293Z</time></trkpt><trkpt lat="58.555815" lon="14.50096333"><ele>91.0</ele><time>2016-06-18T09:15:26.310Z</time></trkpt><trkpt lat="58.555815" lon="14.50096333"><ele>91.0</ele><time>2016-06-18T09:15:27.291Z</time></trkpt><trkpt lat="58.55596" lon="14.50099167"><ele>91.0</ele><time>2016-06-18T09:15:28.318Z</time></trkpt><trkpt lat="58.55603333" lon="14.50099667"><ele>92.0</ele><time>2016-06-18T09:15:29.313Z</time></trkpt><trkpt lat="58.55603333" lon="14.50099667"><ele>92.0</ele><time>2016-06-18T09:15:30.294Z</time></trkpt><trkpt lat="58.55618" lon="14.50101"><ele>93.0</ele><time>2016-06-18T09:15:31.288Z</time></trkpt><trkpt lat="58.55624833" lon="14.501015"><ele>92.0</ele><time>2016-06-18T09:15:32.307Z</time></trkpt><trkpt lat="58.55624833" lon="14.501015"><ele>92.0</ele><time>2016-06-18T09:15:33.288Z</time></trkpt><trkpt lat="58.55639333" lon="14.50102667"><ele>94.0</ele><time>2016-06-18T09:15:34.301Z</time></trkpt><trkpt lat="58.55639333" lon="14.50102667"><ele>94.0</ele><time>2016-06-18T09:15:35.282Z</time></trkpt><trkpt lat="58.55653833" lon="14.50103667"><ele>95.0</ele><time>2016-06-18T09:15:36.292Z</time></trkpt><trkpt lat="58.55661" lon="14.50104"><ele>95.0</ele><time>2016-06-18T09:15:37.323Z</time></trkpt><trkpt lat="58.55668167" lon="14.501045"><ele>95.0</ele><time>2016-06-18T09:15:38.295Z</time></trkpt><trkpt lat="58.55668167" lon="14.501045"><ele>95.0</ele><time>2016-06-18T09:15:39.283Z</time></trkpt><trkpt lat="58.55683333" lon="14.50105333"><ele>96.0</ele><time>2016-06-18T09:15:40.309Z</time></trkpt><trkpt lat="58.556915" lon="14.50105"><ele>97.0</ele><time>2016-06-18T09:15:41.314Z</time></trkpt><trkpt lat="58.556915" lon="14.50105"><ele>97.0</ele><time>2016-06-18T09:15:42.285Z</time></trkpt><trkpt lat="58.55707333" lon="14.50104833"><ele>97.0</ele><time>2016-06-18T09:15:43.283Z</time></trkpt><trkpt lat="58.55715" lon="14.50104667"><ele>97.0</ele><time>2016-06-18T09:15:44.298Z</time></trkpt><trkpt lat="58.55715" lon="14.50104667"><ele>97.0</ele><time>2016-06-18T09:15:45.285Z</time></trkpt><trkpt lat="58.55729667" lon="14.50103667"><ele>97.0</ele><time>2016-06-18T09:15:46.321Z</time></trkpt><trkpt lat="58.55729667" lon="14.50103667"><ele>97.0</ele><time>2016-06-18T09:15:47.322Z</time></trkpt><trkpt lat="58.55744167" lon="14.50102333"><ele>97.0</ele><time>2016-06-18T09:15:48.290Z</time></trkpt><trkpt lat="58.55744167" lon="14.50102333"><ele>97.0</ele><time>2016-06-18T09:15:49.286Z</time></trkpt><trkpt lat="58.557585" lon="14.50100833"><ele>97.0</ele><time>2016-06-18T09:15:50.318Z</time></trkpt><trkpt lat="58.557585" lon="14.50100833"><ele>97.0</ele><time>2016-06-18T09:15:51.321Z</time></trkpt><trkpt lat="58.557735" lon="14.50097667"><ele>97.0</ele><time>2016-06-18T09:15:52.291Z</time></trkpt><trkpt lat="58.55781" lon="14.500965"><ele>97.0</ele><time>2016-06-18T09:15:53.290Z</time></trkpt><trkpt lat="58.55781" lon="14.500965"><ele>97.0</ele><time>2016-06-18T09:15:54.297Z</time></trkpt><trkpt lat="58.55795167" lon="14.50093667"><ele>97.0</ele><time>2016-06-18T09:15:55.291Z</time></trkpt><trkpt lat="58.55802333" lon="14.50092167"><ele>96.0</ele><time>2016-06-18T09:15:56.288Z</time></trkpt><trkpt lat="58.55802333" lon="14.50092167"><ele>96.0</ele><time>2016-06-18T09:15:57.295Z</time></trkpt><trkpt lat="58.558165" lon="14.50090333"><ele>97.0</ele><time>2016-06-18T09:15:58.306Z</time></trkpt><trkpt lat="58.55823167" lon="14.50089333"><ele>97.0</ele><time>2016-06-18T09:15:59.308Z</time></trkpt><trkpt lat="58.55823167" lon="14.50089333"><ele>97.0</ele><time>2016-06-18T09:16:00.320Z</time></trkpt><trkpt lat="58.55837333" lon="14.50087"><ele>97.0</ele><time>2016-06-18T09:16:01.287Z</time></trkpt><trkpt lat="58.55844333" lon="14.500855"><ele>98.0</ele><time>2016-06-18T09:16:02.316Z</time></trkpt><trkpt lat="58.55844333" lon="14.500855"><ele>98.0</ele><time>2016-06-18T09:16:03.284Z</time></trkpt><trkpt lat="58.55857667" lon="14.50083333"><ele>98.0</ele><time>2016-06-18T09:16:04.293Z</time></trkpt><trkpt lat="58.558645" lon="14.50081833"><ele>98.0</ele><time>2016-06-18T09:16:05.324Z</time></trkpt><trkpt lat="58.558645" lon="14.50081833"><ele>98.0</ele><time>2016-06-18T09:16:06.311Z</time></trkpt><trkpt lat="58.55877833" lon="14.50079"><ele>97.0</ele><time>2016-06-18T09:16:07.319Z</time></trkpt><trkpt lat="58.55884833" lon="14.50077667"><ele>97.0</ele><time>2016-06-18T09:16:08.320Z</time></trkpt><trkpt lat="58.55884833" lon="14.50077667"><ele>97.0</ele><time>2016-06-18T09:16:09.292Z</time></trkpt><trkpt lat="58.55898833" lon="14.50074667"><ele>97.0</ele><time>2016-06-18T09:16:10.307Z</time></trkpt><trkpt lat="58.55898833" lon="14.50074667"><ele>97.0</ele><time>2016-06-18T09:16:11.313Z</time></trkpt><trkpt lat="58.55912667" lon="14.50071833"><ele>97.0</ele><time>2016-06-18T09:16:12.299Z</time></trkpt><trkpt lat="58.55919833" lon="14.50070167"><ele>97.0</ele><time>2016-06-18T09:16:13.284Z</time></trkpt><trkpt lat="58.55927" lon="14.50068667"><ele>97.0</ele><time>2016-06-18T09:16:14.313Z</time></trkpt><trkpt lat="58.55927" lon="14.50068667"><ele>97.0</ele><time>2016-06-18T09:16:15.322Z</time></trkpt><trkpt lat="58.55941833" lon="14.50066167"><ele>97.0</ele><time>2016-06-18T09:16:16.318Z</time></trkpt><trkpt lat="58.55941833" lon="14.50066167"><ele>97.0</ele><time>2016-06-18T09:16:17.291Z</time></trkpt><trkpt lat="58.55956667" lon="14.500635"><ele>98.0</ele><time>2016-06-18T09:16:18.298Z</time></trkpt><trkpt lat="58.55964" lon="14.50062833"><ele>98.0</ele><time>2016-06-18T09:16:19.316Z</time></trkpt><trkpt lat="58.55971167" lon="14.50061667"><ele>98.0</ele><time>2016-06-18T09:16:20.288Z</time></trkpt><trkpt lat="58.55971167" lon="14.50061667"><ele>98.0</ele><time>2016-06-18T09:16:21.308Z</time></trkpt><trkpt lat="58.55985" lon="14.5006"><ele>99.0</ele><time>2016-06-18T09:16:22.317Z</time></trkpt><trkpt lat="58.55985" lon="14.5006"><ele>99.0</ele><time>2016-06-18T09:16:23.301Z</time></trkpt><trkpt lat="58.55997167" lon="14.50057333"><ele>99.0</ele><time>2016-06-18T09:16:24.310Z</time></trkpt><trkpt lat="58.55997167" lon="14.50057333"><ele>99.0</ele><time>2016-06-18T09:16:25.293Z</time></trkpt><trkpt lat="58.56010333" lon="14.50054"><ele>100.0</ele><time>2016-06-18T09:16:26.307Z</time></trkpt><trkpt lat="58.56010333" lon="14.50054"><ele>100.0</ele><time>2016-06-18T09:16:27.318Z</time></trkpt><trkpt lat="58.56025" lon="14.50051333"><ele>101.0</ele><time>2016-06-18T09:16:28.287Z</time></trkpt><trkpt lat="58.56025" lon="14.50051333"><ele>101.0</ele><time>2016-06-18T09:16:29.315Z</time></trkpt><trkpt lat="58.56039667" lon="14.50046833"><ele>103.0</ele><time>2016-06-18T09:16:30.308Z</time></trkpt><trkpt lat="58.56039667" lon="14.50046833"><ele>103.0</ele><time>2016-06-18T09:16:31.301Z</time></trkpt><trkpt lat="58.56053333" lon="14.500435"><ele>104.0</ele><time>2016-06-18T09:16:32.312Z</time></trkpt><trkpt lat="58.56053333" lon="14.500435"><ele>104.0</ele><time>2016-06-18T09:16:33.296Z</time></trkpt><trkpt lat="58.56066167" lon="14.50039333"><ele>104.0</ele><time>2016-06-18T09:16:34.310Z</time></trkpt><trkpt lat="58.56066167" lon="14.50039333"><ele>104.0</ele><time>2016-06-18T09:16:35.307Z</time></trkpt><trkpt lat="58.56078333" lon="14.50035667"><ele>104.0</ele><time>2016-06-18T09:16:36.313Z</time></trkpt><trkpt lat="58.560845" lon="14.50033333"><ele>104.0</ele><time>2016-06-18T09:16:37.295Z</time></trkpt><trkpt lat="58.56090667" lon="14.50031333"><ele>104.0</ele><time>2016-06-18T09:16:38.307Z</time></trkpt><trkpt lat="58.56090667" lon="14.50031333"><ele>104.0</ele><time>2016-06-18T09:16:39.313Z</time></trkpt><trkpt lat="58.56102833" lon="14.500275"><ele>105.0</ele><time>2016-06-18T09:16:40.293Z</time></trkpt><trkpt lat="58.561095" lon="14.50025333"><ele>106.0</ele><time>2016-06-18T09:16:41.291Z</time></trkpt><trkpt lat="58.561095" lon="14.50025333"><ele>106.0</ele><time>2016-06-18T09:16:42.298Z</time></trkpt><trkpt lat="58.56122333" lon="14.50020333"><ele>106.0</ele><time>2016-06-18T09:16:43.313Z</time></trkpt><trkpt lat="58.561285" lon="14.500175"><ele>107.0</ele><time>2016-06-18T09:16:44.318Z</time></trkpt><trkpt lat="58.561285" lon="14.500175"><ele>107.0</ele><time>2016-06-18T09:16:45.284Z</time></trkpt><trkpt lat="58.56139667" lon="14.50012167"><ele>107.0</ele><time>2016-06-18T09:16:46.296Z</time></trkpt><trkpt lat="58.56145" lon="14.50009167"><ele>107.0</ele><time>2016-06-18T09:16:47.299Z</time></trkpt><trkpt lat="58.56145" lon="14.50009167"><ele>107.0</ele><time>2016-06-18T09:16:48.313Z</time></trkpt><trkpt lat="58.561555" lon="14.50004333"><ele>107.0</ele><time>2016-06-18T09:16:49.309Z</time></trkpt><trkpt lat="58.56160333" lon="14.50001833"><ele>107.0</ele><time>2016-06-18T09:16:50.297Z</time></trkpt><trkpt lat="58.56160333" lon="14.50001833"><ele>107.0</ele><time>2016-06-18T09:16:51.310Z</time></trkpt><trkpt lat="58.56171833" lon="14.49997833"><ele>107.0</ele><time>2016-06-18T09:16:52.321Z</time></trkpt><trkpt lat="58.56178833" lon="14.499955"><ele>107.0</ele><time>2016-06-18T09:16:53.309Z</time></trkpt><trkpt lat="58.56178833" lon="14.499955"><ele>107.0</ele><time>2016-06-18T09:16:54.312Z</time></trkpt><trkpt lat="58.56192833" lon="14.49988667"><ele>108.0</ele><time>2016-06-18T09:16:55.282Z</time></trkpt><trkpt lat="58.56192833" lon="14.49988667"><ele>108.0</ele><time>2016-06-18T09:16:56.309Z</time></trkpt><trkpt lat="58.56206" lon="14.499815"><ele>107.0</ele><time>2016-06-18T09:16:57.319Z</time></trkpt><trkpt lat="58.56206" lon="14.499815"><ele>107.0</ele><time>2016-06-18T09:16:58.307Z</time></trkpt><trkpt lat="58.56219667" lon="14.49973833"><ele>107.0</ele><time>2016-06-18T09:16:59.314Z</time></trkpt><trkpt lat="58.56225833" lon="14.49970333"><ele>107.0</ele><time>2016-06-18T09:17:00.308Z</time></trkpt><trkpt lat="58.56225833" lon="14.49970333"><ele>107.0</ele><time>2016-06-18T09:17:01.295Z</time></trkpt><trkpt lat="58.562395" lon="14.49962333"><ele>106.0</ele><time>2016-06-18T09:17:02.302Z</time></trkpt><trkpt lat="58.562395" lon="14.49962333"><ele>106.0</ele><time>2016-06-18T09:17:03.290Z</time></trkpt><trkpt lat="58.56253167" lon="14.49952833"><ele>106.0</ele><time>2016-06-18T09:17:04.308Z</time></trkpt><trkpt lat="58.56253167" lon="14.49952833"><ele>106.0</ele><time>2016-06-18T09:17:05.314Z</time></trkpt><trkpt lat="58.56267333" lon="14.49943667"><ele>106.0</ele><time>2016-06-18T09:17:06.301Z</time></trkpt><trkpt lat="58.56274" lon="14.4994"><ele>105.0</ele><time>2016-06-18T09:17:07.288Z</time></trkpt><trkpt lat="58.562815" lon="14.499365"><ele>105.0</ele><time>2016-06-18T09:17:08.308Z</time></trkpt><trkpt lat="58.562815" lon="14.499365"><ele>105.0</ele><time>2016-06-18T09:17:09.293Z</time></trkpt><trkpt lat="58.56297167" lon="14.499285"><ele>105.0</ele><time>2016-06-18T09:17:10.300Z</time></trkpt><trkpt lat="58.56297167" lon="14.499285"><ele>105.0</ele><time>2016-06-18T09:17:11.318Z</time></trkpt><trkpt lat="58.56311667" lon="14.499195"><ele>104.0</ele><time>2016-06-18T09:17:12.315Z</time></trkpt><trkpt lat="58.56319667" lon="14.49914"><ele>104.0</ele><time>2016-06-18T09:17:13.301Z</time></trkpt><trkpt lat="58.563275" lon="14.49909"><ele>104.0</ele><time>2016-06-18T09:17:14.291Z</time></trkpt><trkpt lat="58.563275" lon="14.49909"><ele>104.0</ele><time>2016-06-18T09:17:15.286Z</time></trkpt><trkpt lat="58.56341333" lon="14.49899667"><ele>103.0</ele><time>2016-06-18T09:17:16.307Z</time></trkpt><trkpt lat="58.56341333" lon="14.49899667"><ele>103.0</ele><time>2016-06-18T09:17:17.290Z</time></trkpt><trkpt lat="58.56357" lon="14.4989"><ele>103.0</ele><time>2016-06-18T09:17:18.305Z</time></trkpt><trkpt lat="58.563655" lon="14.49884333"><ele>103.0</ele><time>2016-06-18T09:17:19.292Z</time></trkpt><trkpt lat="58.56373667" lon="14.498785"><ele>103.0</ele><time>2016-06-18T09:17:20.319Z</time></trkpt><trkpt lat="58.56373667" lon="14.498785"><ele>103.0</ele><time>2016-06-18T09:17:21.293Z</time></trkpt><trkpt lat="58.56393" lon="14.49866"><ele>103.0</ele><time>2016-06-18T09:17:22.310Z</time></trkpt><trkpt lat="58.56393" lon="14.49866"><ele>103.0</ele><time>2016-06-18T09:17:23.310Z</time></trkpt><trkpt lat="58.56412" lon="14.498545"><ele>103.0</ele><time>2016-06-18T09:17:24.285Z</time></trkpt><trkpt lat="58.56421333" lon="14.49849"><ele>103.0</ele><time>2016-06-18T09:17:25.314Z</time></trkpt><trkpt lat="58.56430667" lon="14.49843333"><ele>103.0</ele><time>2016-06-18T09:17:26.323Z</time></trkpt><trkpt lat="58.56430667" lon="14.49843333"><ele>103.0</ele><time>2016-06-18T09:17:27.282Z</time></trkpt><trkpt lat="58.56450167" lon="14.49832833"><ele>103.0</ele><time>2016-06-18T09:17:28.288Z</time></trkpt><trkpt lat="58.56459833" lon="14.49828"><ele>103.0</ele><time>2016-06-18T09:17:29.283Z</time></trkpt><trkpt lat="58.56459833" lon="14.49828"><ele>103.0</ele><time>2016-06-18T09:17:30.313Z</time></trkpt><trkpt lat="58.56478333" lon="14.49818167"><ele>103.0</ele><time>2016-06-18T09:17:31.282Z</time></trkpt><trkpt lat="58.56487333" lon="14.498135"><ele>103.0</ele><time>2016-06-18T09:17:32.307Z</time></trkpt><trkpt lat="58.56496333" lon="14.49809333"><ele>103.0</ele><time>2016-06-18T09:17:33.296Z</time></trkpt><trkpt lat="58.56496333" lon="14.49809333"><ele>103.0</ele><time>2016-06-18T09:17:34.293Z</time></trkpt><trkpt lat="58.56512" lon="14.49799833"><ele>101.0</ele><time>2016-06-18T09:17:35.299Z</time></trkpt><trkpt lat="58.5652" lon="14.49795"><ele>101.0</ele><time>2016-06-18T09:17:36.322Z</time></trkpt><trkpt lat="58.5652" lon="14.49795"><ele>101.0</ele><time>2016-06-18T09:17:37.303Z</time></trkpt><trkpt lat="58.565355" lon="14.49785833"><ele>100.0</ele><time>2016-06-18T09:17:38.311Z</time></trkpt><trkpt lat="58.565355" lon="14.49785833"><ele>100.0</ele><time>2016-06-18T09:17:39.293Z</time></trkpt><trkpt lat="58.56552833" lon="14.49778167"><ele>100.0</ele><time>2016-06-18T09:17:40.307Z</time></trkpt><trkpt lat="58.56552833" lon="14.49778167"><ele>100.0</ele><time>2016-06-18T09:17:41.292Z</time></trkpt><trkpt lat="58.56569667" lon="14.49768333"><ele>100.0</ele><time>2016-06-18T09:17:42.299Z</time></trkpt><trkpt lat="58.56578" lon="14.49763167"><ele>100.0</ele><time>2016-06-18T09:17:43.294Z</time></trkpt><trkpt lat="58.56578" lon="14.49763167"><ele>100.0</ele><time>2016-06-18T09:17:44.302Z</time></trkpt><trkpt lat="58.56594833" lon="14.497545"><ele>100.0</ele><time>2016-06-18T09:17:45.311Z</time></trkpt><trkpt lat="58.56594833" lon="14.497545"><ele>100.0</ele><time>2016-06-18T09:17:46.292Z</time></trkpt><trkpt lat="58.56611833" lon="14.49744667"><ele>100.0</ele><time>2016-06-18T09:17:47.286Z</time></trkpt><trkpt lat="58.56611833" lon="14.49744667"><ele>100.0</ele><time>2016-06-18T09:17:48.310Z</time></trkpt><trkpt lat="58.56629167" lon="14.49734833"><ele>100.0</ele><time>2016-06-18T09:17:49.319Z</time></trkpt><trkpt lat="58.56629167" lon="14.49734833"><ele>100.0</ele><time>2016-06-18T09:17:50.294Z</time></trkpt><trkpt lat="58.56646333" lon="14.497255"><ele>100.0</ele><time>2016-06-18T09:17:51.309Z</time></trkpt><trkpt lat="58.56646333" lon="14.497255"><ele>100.0</ele><time>2016-06-18T09:17:52.299Z</time></trkpt><trkpt lat="58.56663333" lon="14.497145"><ele>100.0</ele><time>2016-06-18T09:17:53.308Z</time></trkpt><trkpt lat="58.56663333" lon="14.497145"><ele>100.0</ele><time>2016-06-18T09:17:54.295Z</time></trkpt><trkpt lat="58.56681333" lon="14.497025"><ele>101.0</ele><time>2016-06-18T09:17:55.308Z</time></trkpt><trkpt lat="58.56690167" lon="14.49697167"><ele>101.0</ele><time>2016-06-18T09:17:56.299Z</time></trkpt><trkpt lat="58.56690167" lon="14.49697167"><ele>101.0</ele><time>2016-06-18T09:17:57.288Z</time></trkpt><trkpt lat="58.56706833" lon="14.49687833"><ele>101.0</ele><time>2016-06-18T09:17:58.308Z</time></trkpt><trkpt lat="58.56714333" lon="14.496835"><ele>101.0</ele><time>2016-06-18T09:17:59.312Z</time></trkpt><trkpt lat="58.56714333" lon="14.496835"><ele>101.0</ele><time>2016-06-18T09:18:00.294Z</time></trkpt><trkpt lat="58.56728" lon="14.49675333"><ele>100.0</ele><time>2016-06-18T09:18:01.289Z</time></trkpt><trkpt lat="58.56728" lon="14.49675333"><ele>100.0</ele><time>2016-06-18T09:18:02.289Z</time></trkpt><trkpt lat="58.567415" lon="14.49667667"><ele>100.0</ele><time>2016-06-18T09:18:03.290Z</time></trkpt><trkpt lat="58.567415" lon="14.49667667"><ele>100.0</ele><time>2016-06-18T09:18:04.320Z</time></trkpt><trkpt lat="58.56756333" lon="14.496595"><ele>100.0</ele><time>2016-06-18T09:18:05.295Z</time></trkpt><trkpt lat="58.56764" lon="14.49654833"><ele>100.0</ele><time>2016-06-18T09:18:06.304Z</time></trkpt><trkpt lat="58.56764" lon="14.49654833"><ele>100.0</ele><time>2016-06-18T09:18:07.321Z</time></trkpt><trkpt lat="58.56779833" lon="14.49646"><ele>100.0</ele><time>2016-06-18T09:18:08.288Z</time></trkpt><trkpt lat="58.56779833" lon="14.49646"><ele>100.0</ele><time>2016-06-18T09:18:09.315Z</time></trkpt><trkpt lat="58.56795667" lon="14.49636333"><ele>99.0</ele><time>2016-06-18T09:18:10.341Z</time></trkpt><trkpt lat="58.56795667" lon="14.49636333"><ele>99.0</ele><time>2016-06-18T09:18:11.287Z</time></trkpt><trkpt lat="58.56811833" lon="14.49627167"><ele>99.0</ele><time>2016-06-18T09:18:12.301Z</time></trkpt><trkpt lat="58.56819833" lon="14.49622667"><ele>99.0</ele><time>2016-06-18T09:18:13.313Z</time></trkpt><trkpt lat="58.56819833" lon="14.49622667"><ele>99.0</ele><time>2016-06-18T09:18:14.288Z</time></trkpt><trkpt lat="58.56835833" lon="14.49613167"><ele>98.0</ele><time>2016-06-18T09:18:15.295Z</time></trkpt><trkpt lat="58.56835833" lon="14.49613167"><ele>98.0</ele><time>2016-06-18T09:18:16.320Z</time></trkpt><trkpt lat="58.56851167" lon="14.496035"><ele>98.0</ele><time>2016-06-18T09:18:17.309Z</time></trkpt><trkpt lat="58.56851167" lon="14.496035"><ele>98.0</ele><time>2016-06-18T09:18:18.300Z</time></trkpt><trkpt lat="58.56865833" lon="14.49595"><ele>98.0</ele><time>2016-06-18T09:18:19.308Z</time></trkpt><trkpt lat="58.56873" lon="14.49591167"><ele>98.0</ele><time>2016-06-18T09:18:20.299Z</time></trkpt><trkpt lat="58.56873" lon="14.49591167"><ele>98.0</ele><time>2016-06-18T09:18:21.285Z</time></trkpt><trkpt lat="58.568875" lon="14.49583833"><ele>98.0</ele><time>2016-06-18T09:18:22.293Z</time></trkpt><trkpt lat="58.568875" lon="14.49583833"><ele>98.0</ele><time>2016-06-18T09:18:23.309Z</time></trkpt><trkpt lat="58.56902333" lon="14.49576667"><ele>98.0</ele><time>2016-06-18T09:18:24.285Z</time></trkpt><trkpt lat="58.56902333" lon="14.49576667"><ele>98.0</ele><time>2016-06-18T09:18:25.300Z</time></trkpt><trkpt lat="58.56917333" lon="14.49569167"><ele>97.0</ele><time>2016-06-18T09:18:26.310Z</time></trkpt><trkpt lat="58.56917333" lon="14.49569167"><ele>97.0</ele><time>2016-06-18T09:18:27.294Z</time></trkpt><trkpt lat="58.569325" lon="14.495615"><ele>97.0</ele><time>2016-06-18T09:18:28.308Z</time></trkpt><trkpt lat="58.569325" lon="14.495615"><ele>97.0</ele><time>2016-06-18T09:18:29.283Z</time></trkpt><trkpt lat="58.56947833" lon="14.49555333"><ele>97.0</ele><time>2016-06-18T09:18:30.290Z</time></trkpt><trkpt lat="58.56955667" lon="14.49552833"><ele>96.0</ele><time>2016-06-18T09:18:31.288Z</time></trkpt><trkpt lat="58.56955667" lon="14.49552833"><ele>96.0</ele><time>2016-06-18T09:18:32.317Z</time></trkpt><trkpt lat="58.56971667" lon="14.495485"><ele>96.0</ele><time>2016-06-18T09:18:33.286Z</time></trkpt><trkpt lat="58.56979667" lon="14.495465"><ele>96.0</ele><time>2016-06-18T09:18:34.312Z</time></trkpt><trkpt lat="58.56987833" lon="14.49544167"><ele>96.0</ele><time>2016-06-18T09:18:35.286Z</time></trkpt><trkpt lat="58.56987833" lon="14.49544167"><ele>96.0</ele><time>2016-06-18T09:18:36.286Z</time></trkpt><trkpt lat="58.57004" lon="14.49539333"><ele>96.0</ele><time>2016-06-18T09:18:37.295Z</time></trkpt><trkpt lat="58.57012167" lon="14.49537"><ele>96.0</ele><time>2016-06-18T09:18:38.309Z</time></trkpt><trkpt lat="58.57012167" lon="14.49537"><ele>96.0</ele><time>2016-06-18T09:18:39.316Z</time></trkpt><trkpt lat="58.57029" lon="14.49531667"><ele>96.0</ele><time>2016-06-18T09:18:40.287Z</time></trkpt><trkpt lat="58.570375" lon="14.49529333"><ele>96.0</ele><time>2016-06-18T09:18:41.296Z</time></trkpt><trkpt lat="58.570375" lon="14.49529333"><ele>96.0</ele><time>2016-06-18T09:18:42.293Z</time></trkpt><trkpt lat="58.57054667" lon="14.49524667"><ele>96.0</ele><time>2016-06-18T09:18:43.299Z</time></trkpt><trkpt lat="58.57054667" lon="14.49524667"><ele>96.0</ele><time>2016-06-18T09:18:44.287Z</time></trkpt><trkpt lat="58.57072167" lon="14.4952"><ele>96.0</ele><time>2016-06-18T09:18:45.293Z</time></trkpt><trkpt lat="58.57072167" lon="14.4952"><ele>96.0</ele><time>2016-06-18T09:18:46.293Z</time></trkpt><trkpt lat="58.5709" lon="14.49516333"><ele>96.0</ele><time>2016-06-18T09:18:47.310Z</time></trkpt><trkpt lat="58.5709" lon="14.49516333"><ele>96.0</ele><time>2016-06-18T09:18:48.292Z</time></trkpt><trkpt lat="58.571075" lon="14.49512833"><ele>95.0</ele><time>2016-06-18T09:18:49.297Z</time></trkpt><trkpt lat="58.57116167" lon="14.49511167"><ele>95.0</ele><time>2016-06-18T09:18:50.298Z</time></trkpt><trkpt lat="58.57116167" lon="14.49511167"><ele>95.0</ele><time>2016-06-18T09:18:51.305Z</time></trkpt><trkpt lat="58.57133333" lon="14.49507833"><ele>95.0</ele><time>2016-06-18T09:18:52.313Z</time></trkpt><trkpt lat="58.57133333" lon="14.49507833"><ele>95.0</ele><time>2016-06-18T09:18:53.294Z</time></trkpt><trkpt lat="58.57150333" lon="14.49505"><ele>95.0</ele><time>2016-06-18T09:18:54.308Z</time></trkpt><trkpt lat="58.57150333" lon="14.49505"><ele>95.0</ele><time>2016-06-18T09:18:55.321Z</time></trkpt><trkpt lat="58.57167333" lon="14.495025"><ele>95.0</ele><time>2016-06-18T09:18:56.288Z</time></trkpt><trkpt lat="58.57167333" lon="14.495025"><ele>95.0</ele><time>2016-06-18T09:18:57.316Z</time></trkpt><trkpt lat="58.57184167" lon="14.49502"><ele>95.0</ele><time>2016-06-18T09:18:58.309Z</time></trkpt><trkpt lat="58.571925" lon="14.49501833"><ele>95.0</ele><time>2016-06-18T09:18:59.319Z</time></trkpt><trkpt lat="58.57200833" lon="14.495015"><ele>95.0</ele><time>2016-06-18T09:19:00.300Z</time></trkpt><trkpt lat="58.57200833" lon="14.495015"><ele>95.0</ele><time>2016-06-18T09:19:01.287Z</time></trkpt><trkpt lat="58.57217667" lon="14.49501333"><ele>95.0</ele><time>2016-06-18T09:19:02.295Z</time></trkpt><trkpt lat="58.57226" lon="14.49501167"><ele>95.0</ele><time>2016-06-18T09:19:03.282Z</time></trkpt><trkpt lat="58.57226" lon="14.49501167"><ele>95.0</ele><time>2016-06-18T09:19:04.286Z</time></trkpt><trkpt lat="58.57243167" lon="14.49502667"><ele>95.0</ele><time>2016-06-18T09:19:05.293Z</time></trkpt><trkpt lat="58.57243167" lon="14.49502667"><ele>95.0</ele><time>2016-06-18T09:19:06.320Z</time></trkpt><trkpt lat="58.57260667" lon="14.49504667"><ele>94.0</ele><time>2016-06-18T09:19:07.293Z</time></trkpt><trkpt lat="58.57260667" lon="14.49504667"><ele>94.0</ele><time>2016-06-18T09:19:08.298Z</time></trkpt><trkpt lat="58.57278333" lon="14.49506667"><ele>94.0</ele><time>2016-06-18T09:19:09.308Z</time></trkpt><trkpt lat="58.57287" lon="14.49507833"><ele>94.0</ele><time>2016-06-18T09:19:10.288Z</time></trkpt><trkpt lat="58.57287" lon="14.49507833"><ele>94.0</ele><time>2016-06-18T09:19:11.286Z</time></trkpt><trkpt lat="58.573035" lon="14.49510333"><ele>94.0</ele><time>2016-06-18T09:19:12.294Z</time></trkpt><trkpt lat="58.573035" lon="14.49510333"><ele>94.0</ele><time>2016-06-18T09:19:13.283Z</time></trkpt><trkpt lat="58.57319333" lon="14.49512833"><ele>94.0</ele><time>2016-06-18T09:19:14.291Z</time></trkpt><trkpt lat="58.57319333" lon="14.49512833"><ele>94.0</ele><time>2016-06-18T09:19:15.285Z</time></trkpt><trkpt lat="58.573345" lon="14.49515333"><ele>94.0</ele><time>2016-06-18T09:19:16.293Z</time></trkpt><trkpt lat="58.57342" lon="14.49517333"><ele>94.0</ele><time>2016-06-18T09:19:17.282Z</time></trkpt><trkpt lat="58.57342" lon="14.49517333"><ele>94.0</ele><time>2016-06-18T09:19:18.284Z</time></trkpt><trkpt lat="58.57357333" lon="14.49522"><ele>93.0</ele><time>2016-06-18T09:19:19.291Z</time></trkpt><trkpt lat="58.57365" lon="14.495245"><ele>93.0</ele><time>2016-06-18T09:19:20.309Z</time></trkpt><trkpt lat="58.57365" lon="14.495245"><ele>93.0</ele><time>2016-06-18T09:19:21.311Z</time></trkpt><trkpt lat="58.57381" lon="14.49529667"><ele>93.0</ele><time>2016-06-18T09:19:22.321Z</time></trkpt><trkpt lat="58.57389" lon="14.49532333"><ele>93.0</ele><time>2016-06-18T09:19:23.303Z</time></trkpt><trkpt lat="58.57389" lon="14.49532333"><ele>93.0</ele><time>2016-06-18T09:19:24.310Z</time></trkpt><trkpt lat="58.57404833" lon="14.49537833"><ele>93.0</ele><time>2016-06-18T09:19:25.318Z</time></trkpt><trkpt lat="58.574125" lon="14.495405"><ele>93.0</ele><time>2016-06-18T09:19:26.303Z</time></trkpt><trkpt lat="58.574125" lon="14.495405"><ele>93.0</ele><time>2016-06-18T09:19:27.301Z</time></trkpt><trkpt lat="58.574275" lon="14.495455"><ele>93.0</ele><time>2016-06-18T09:19:28.310Z</time></trkpt><trkpt lat="58.57434667" lon="14.49548167"><ele>93.0</ele><time>2016-06-18T09:19:29.318Z</time></trkpt><trkpt lat="58.57434667" lon="14.49548167"><ele>93.0</ele><time>2016-06-18T09:19:30.283Z</time></trkpt><trkpt lat="58.57449" lon="14.49553667"><ele>93.0</ele><time>2016-06-18T09:19:31.293Z</time></trkpt><trkpt lat="58.57456" lon="14.49556167"><ele>94.0</ele><time>2016-06-18T09:19:32.324Z</time></trkpt><trkpt lat="58.57456" lon="14.49556167"><ele>94.0</ele><time>2016-06-18T09:19:33.309Z</time></trkpt><trkpt lat="58.57470333" lon="14.49562167"><ele>94.0</ele><time>2016-06-18T09:19:34.315Z</time></trkpt><trkpt lat="58.574775" lon="14.49565833"><ele>94.0</ele><time>2016-06-18T09:19:35.305Z</time></trkpt><trkpt lat="58.574775" lon="14.49565833"><ele>94.0</ele><time>2016-06-18T09:19:36.320Z</time></trkpt><trkpt lat="58.57491333" lon="14.495735"><ele>95.0</ele><time>2016-06-18T09:19:37.288Z</time></trkpt><trkpt lat="58.574985" lon="14.49577667"><ele>95.0</ele><time>2016-06-18T09:19:38.318Z</time></trkpt><trkpt lat="58.57505667" lon="14.495815"><ele>95.0</ele><time>2016-06-18T09:19:39.287Z</time></trkpt><trkpt lat="58.57505667" lon="14.495815"><ele>95.0</ele><time>2016-06-18T09:19:40.291Z</time></trkpt><trkpt lat="58.57519833" lon="14.49589167"><ele>95.0</ele><time>2016-06-18T09:19:41.297Z</time></trkpt><trkpt lat="58.57526833" lon="14.49593167"><ele>95.0</ele><time>2016-06-18T09:19:42.291Z</time></trkpt><trkpt lat="58.57534" lon="14.495975"><ele>95.0</ele><time>2016-06-18T09:19:43.311Z</time></trkpt><trkpt lat="58.57534" lon="14.495975"><ele>95.0</ele><time>2016-06-18T09:19:44.294Z</time></trkpt><trkpt lat="58.57548833" lon="14.49605667"><ele>95.0</ele><time>2016-06-18T09:19:45.321Z</time></trkpt><trkpt lat="58.57548833" lon="14.49605667"><ele>95.0</ele><time>2016-06-18T09:19:46.310Z</time></trkpt><trkpt lat="58.57563" lon="14.49616"><ele>95.0</ele><time>2016-06-18T09:19:47.320Z</time></trkpt><trkpt lat="58.575705" lon="14.49619167"><ele>94.0</ele><time>2016-06-18T09:19:48.300Z</time></trkpt><trkpt lat="58.575705" lon="14.49619167"><ele>94.0</ele><time>2016-06-18T09:19:49.309Z</time></trkpt><trkpt lat="58.57584667" lon="14.49627"><ele>94.0</ele><time>2016-06-18T09:19:50.317Z</time></trkpt><trkpt lat="58.57584667" lon="14.49627"><ele>94.0</ele><time>2016-06-18T09:19:51.298Z</time></trkpt><trkpt lat="58.57596833" lon="14.49637"><ele>95.0</ele><time>2016-06-18T09:19:52.319Z</time></trkpt><trkpt lat="58.57596833" lon="14.49637"><ele>95.0</ele><time>2016-06-18T09:19:53.310Z</time></trkpt><trkpt lat="58.57609833" lon="14.49645"><ele>95.0</ele><time>2016-06-18T09:19:54.318Z</time></trkpt><trkpt lat="58.57609833" lon="14.49645"><ele>95.0</ele><time>2016-06-18T09:19:55.300Z</time></trkpt><trkpt lat="58.576235" lon="14.49655"><ele>95.0</ele><time>2016-06-18T09:19:56.311Z</time></trkpt><trkpt lat="58.576235" lon="14.49655"><ele>95.0</ele><time>2016-06-18T09:19:57.288Z</time></trkpt><trkpt lat="58.57636333" lon="14.49663833"><ele>96.0</ele><time>2016-06-18T09:19:58.295Z</time></trkpt><trkpt lat="58.57642833" lon="14.496675"><ele>96.0</ele><time>2016-06-18T09:19:59.296Z</time></trkpt><trkpt lat="58.57649333" lon="14.496715"><ele>96.0</ele><time>2016-06-18T09:20:00.292Z</time></trkpt><trkpt lat="58.57649333" lon="14.496715"><ele>96.0</ele><time>2016-06-18T09:20:01.285Z</time></trkpt><trkpt lat="58.57661" lon="14.49683833"><ele>97.0</ele><time>2016-06-18T09:20:02.293Z</time></trkpt><trkpt lat="58.57661" lon="14.49683833"><ele>97.0</ele><time>2016-06-18T09:20:03.309Z</time></trkpt><trkpt lat="58.57671667" lon="14.49699833"><ele>97.0</ele><time>2016-06-18T09:20:04.314Z</time></trkpt><trkpt lat="58.57677167" lon="14.49707167"><ele>97.0</ele><time>2016-06-18T09:20:05.307Z</time></trkpt><trkpt lat="58.57677167" lon="14.49707167"><ele>97.0</ele><time>2016-06-18T09:20:06.312Z</time></trkpt><trkpt lat="58.57688833" lon="14.49718167"><ele>97.0</ele><time>2016-06-18T09:20:07.320Z</time></trkpt><trkpt lat="58.57688833" lon="14.49718167"><ele>97.0</ele><time>2016-06-18T09:20:08.311Z</time></trkpt><trkpt lat="58.57699167" lon="14.49721667"><ele>98.0</ele><time>2016-06-18T09:20:09.282Z</time></trkpt><trkpt lat="58.57699167" lon="14.49721667"><ele>98.0</ele><time>2016-06-18T09:20:10.297Z</time></trkpt><trkpt lat="58.57705" lon="14.49722167"><ele>98.0</ele><time>2016-06-18T09:20:11.285Z</time></trkpt><trkpt lat="58.57705" lon="14.49722167"><ele>98.0</ele><time>2016-06-18T09:20:12.309Z</time></trkpt><trkpt lat="58.577065" lon="14.49722"><ele>97.0</ele><time>2016-06-18T09:20:13.316Z</time></trkpt><trkpt lat="58.57707" lon="14.49721667"><ele>97.0</ele><time>2016-06-18T09:20:14.285Z</time></trkpt><trkpt lat="58.57707" lon="14.49721667"><ele>97.0</ele><time>2016-06-18T09:20:15.292Z</time></trkpt><trkpt lat="58.57707333" lon="14.49721667"><ele>97.0</ele><time>2016-06-18T09:20:16.298Z</time></trkpt><trkpt lat="58.57707333" lon="14.49721667"><ele>97.0</ele><time>2016-06-18T09:20:17.308Z</time></trkpt><trkpt lat="58.57707333" lon="14.49721667"><ele>97.0</ele><time>2016-06-18T09:20:18.300Z</time></trkpt><trkpt lat="58.57707333" lon="14.49721667"><ele>97.0</ele><time>2016-06-18T09:20:19.295Z</time></trkpt><trkpt lat="58.57707333" lon="14.49721667"><ele>97.0</ele><time>2016-06-18T09:20:20.299Z</time></trkpt><trkpt lat="58.57707333" lon="14.49721667"><ele>97.0</ele><time>2016-06-18T09:20:21.301Z</time></trkpt><trkpt lat="58.57707333" lon="14.49721667"><ele>97.0</ele><time>2016-06-18T09:20:22.295Z</time></trkpt><trkpt lat="58.57707333" lon="14.49721667"><ele>97.0</ele><time>2016-06-18T09:20:23.282Z</time></trkpt><trkpt lat="58.57707333" lon="14.49721667"><ele>97.0</ele><time>2016-06-18T09:20:24.308Z</time></trkpt><trkpt lat="58.57707333" lon="14.49721667"><ele>97.0</ele><time>2016-06-18T09:20:25.297Z</time></trkpt><trkpt lat="58.57707333" lon="14.49721667"><ele>97.0</ele><time>2016-06-18T09:20:26.298Z</time></trkpt><trkpt lat="58.57707333" lon="14.49721667"><ele>97.0</ele><time>2016-06-18T09:20:27.295Z</time></trkpt><trkpt lat="58.57707333" lon="14.49721667"><ele>97.0</ele><time>2016-06-18T09:20:28.292Z</time></trkpt><trkpt lat="58.57707333" lon="14.49721667"><ele>97.0</ele><time>2016-06-18T09:20:29.297Z</time></trkpt><trkpt lat="58.57707333" lon="14.49721667"><ele>97.0</ele><time>2016-06-18T09:20:30.295Z</time></trkpt><trkpt lat="58.57707333" lon="14.49721667"><ele>97.0</ele><time>2016-06-18T09:20:31.296Z</time></trkpt><trkpt lat="58.57707333" lon="14.49721667"><ele>97.0</ele><time>2016-06-18T09:20:32.298Z</time></trkpt><trkpt lat="58.57707333" lon="14.49721667"><ele>97.0</ele><time>2016-06-18T09:20:33.294Z</time></trkpt><trkpt lat="58.57707333" lon="14.49721667"><ele>97.0</ele><time>2016-06-18T09:20:34.295Z</time></trkpt><trkpt lat="58.57707333" lon="14.49721667"><ele>97.0</ele><time>2016-06-18T09:20:35.297Z</time></trkpt><trkpt lat="58.57707333" lon="14.49721667"><ele>97.0</ele><time>2016-06-18T09:20:36.295Z</time></trkpt><trkpt lat="58.57707333" lon="14.49721667"><ele>97.0</ele><time>2016-06-18T09:20:37.297Z</time></trkpt><trkpt lat="58.57707333" lon="14.49721667"><ele>97.0</ele><time>2016-06-18T09:20:38.308Z</time></trkpt><trkpt lat="58.57707333" lon="14.49721667"><ele>97.0</ele><time>2016-06-18T09:20:39.298Z</time></trkpt><trkpt lat="58.57707333" lon="14.49721667"><ele>97.0</ele><time>2016-06-18T09:20:40.297Z</time></trkpt><trkpt lat="58.57707333" lon="14.49721667"><ele>97.0</ele><time>2016-06-18T09:20:41.295Z</time></trkpt><trkpt lat="58.57707333" lon="14.49721667"><ele>97.0</ele><time>2016-06-18T09:20:42.296Z</time></trkpt><trkpt lat="58.57707333" lon="14.49721667"><ele>97.0</ele><time>2016-06-18T09:20:43.286Z</time></trkpt><trkpt lat="58.57707333" lon="14.49721667"><ele>97.0</ele><time>2016-06-18T09:20:44.296Z</time></trkpt><trkpt lat="58.57707333" lon="14.49721667"><ele>97.0</ele><time>2016-06-18T09:20:45.296Z</time></trkpt><trkpt lat="58.57707333" lon="14.49721667"><ele>97.0</ele><time>2016-06-18T09:20:46.298Z</time></trkpt><trkpt lat="58.57707333" lon="14.49721667"><ele>97.0</ele><time>2016-06-18T09:20:47.295Z</time></trkpt><trkpt lat="58.57707333" lon="14.49721667"><ele>97.0</ele><time>2016-06-18T09:20:48.316Z</time></trkpt><trkpt lat="58.57707333" lon="14.49721667"><ele>97.0</ele><time>2016-06-18T09:20:49.302Z</time></trkpt><trkpt lat="58.57707333" lon="14.49721667"><ele>97.0</ele><time>2016-06-18T09:20:50.299Z</time></trkpt><trkpt lat="58.57707333" lon="14.49721667"><ele>97.0</ele><time>2016-06-18T09:20:51.295Z</time></trkpt><trkpt lat="58.57707333" lon="14.49721667"><ele>97.0</ele><time>2016-06-18T09:20:52.297Z</time></trkpt><trkpt lat="58.57707333" lon="14.49721667"><ele>97.0</ele><time>2016-06-18T09:20:53.318Z</time></trkpt><trkpt lat="58.57707333" lon="14.49721667"><ele>97.0</ele><time>2016-06-18T09:20:54.299Z</time></trkpt><trkpt lat="58.57707333" lon="14.49721667"><ele>97.0</ele><time>2016-06-18T09:20:55.297Z</time></trkpt><trkpt lat="58.57707333" lon="14.49721667"><ele>97.0</ele><time>2016-06-18T09:20:56.299Z</time></trkpt><trkpt lat="58.57707333" lon="14.49721667"><ele>97.0</ele><time>2016-06-18T09:20:57.295Z</time></trkpt><trkpt lat="58.57707333" lon="14.49721667"><ele>97.0</ele><time>2016-06-18T09:20:58.302Z</time></trkpt><trkpt lat="58.57707333" lon="14.49721667"><ele>97.0</ele><time>2016-06-18T09:20:59.295Z</time></trkpt><trkpt lat="58.57707333" lon="14.49721667"><ele>97.0</ele><time>2016-06-18T09:21:00.317Z</time></trkpt><trkpt lat="58.57707333" lon="14.49721667"><ele>97.0</ele><time>2016-06-18T09:21:01.301Z</time></trkpt><trkpt lat="58.57707333" lon="14.49721667"><ele>97.0</ele><time>2016-06-18T09:21:02.299Z</time></trkpt><trkpt lat="58.57707333" lon="14.49721667"><ele>97.0</ele><time>2016-06-18T09:21:03.294Z</time></trkpt><trkpt lat="58.57707333" lon="14.49721667"><ele>97.0</ele><time>2016-06-18T09:21:04.295Z</time></trkpt><trkpt lat="58.57707333" lon="14.49721667"><ele>97.0</ele><time>2016-06-18T09:21:05.297Z</time></trkpt><trkpt lat="58.57707333" lon="14.49721667"><ele>97.0</ele><time>2016-06-18T09:21:06.295Z</time></trkpt><trkpt lat="58.57707333" lon="14.49721667"><ele>97.0</ele><time>2016-06-18T09:21:07.297Z</time></trkpt><trkpt lat="58.57707333" lon="14.49721667"><ele>97.0</ele><time>2016-06-18T09:21:08.308Z</time></trkpt><trkpt lat="58.57707333" lon="14.49721667"><ele>97.0</ele><time>2016-06-18T09:21:09.298Z</time></trkpt><trkpt lat="58.57707333" lon="14.49721667"><ele>97.0</ele><time>2016-06-18T09:21:10.295Z</time></trkpt><trkpt lat="58.57707333" lon="14.49721667"><ele>97.0</ele><time>2016-06-18T09:21:11.300Z</time></trkpt><trkpt lat="58.57707333" lon="14.49721667"><ele>97.0</ele><time>2016-06-18T09:21:12.289Z</time></trkpt><trkpt lat="58.57707333" lon="14.49721667"><ele>97.0</ele><time>2016-06-18T09:21:13.298Z</time></trkpt><trkpt lat="58.57707333" lon="14.49721667"><ele>97.0</ele><time>2016-06-18T09:21:14.320Z</time></trkpt><trkpt lat="58.57707333" lon="14.49721667"><ele>97.0</ele><time>2016-06-18T09:21:15.309Z</time></trkpt><trkpt lat="58.57707333" lon="14.49721667"><ele>97.0</ele><time>2016-06-18T09:21:16.301Z</time></trkpt><trkpt lat="58.57707333" lon="14.49721667"><ele>97.0</ele><time>2016-06-18T09:21:17.296Z</time></trkpt><trkpt lat="58.57707333" lon="14.49721667"><ele>97.0</ele><time>2016-06-18T09:21:18.304Z</time></trkpt><trkpt lat="58.57707333" lon="14.49721667"><ele>97.0</ele><time>2016-06-18T09:21:19.297Z</time></trkpt><trkpt lat="58.57707333" lon="14.49721667"><ele>97.0</ele><time>2016-06-18T09:21:20.298Z</time></trkpt><trkpt lat="58.57707333" lon="14.49721667"><ele>97.0</ele><time>2016-06-18T09:21:21.296Z</time></trkpt><trkpt lat="58.57707333" lon="14.49721667"><ele>97.0</ele><time>2016-06-18T09:21:22.298Z</time></trkpt><trkpt lat="58.57707333" lon="14.49721667"><ele>97.0</ele><time>2016-06-18T09:21:23.285Z</time></trkpt><trkpt lat="58.57707333" lon="14.49721667"><ele>97.0</ele><time>2016-06-18T09:21:24.318Z</time></trkpt><trkpt lat="58.57707333" lon="14.49721667"><ele>97.0</ele><time>2016-06-18T09:21:25.314Z</time></trkpt><trkpt lat="58.57707333" lon="14.49721667"><ele>97.0</ele><time>2016-06-18T09:21:26.301Z</time></trkpt><trkpt lat="58.57707333" lon="14.49721667"><ele>97.0</ele><time>2016-06-18T09:21:27.296Z</time></trkpt><trkpt lat="58.57707333" lon="14.49721667"><ele>97.0</ele><time>2016-06-18T09:21:28.298Z</time></trkpt><trkpt lat="58.57707333" lon="14.49721667"><ele>97.0</ele><time>2016-06-18T09:21:29.296Z</time></trkpt><trkpt lat="58.57707333" lon="14.49721667"><ele>97.0</ele><time>2016-06-18T09:21:30.295Z</time></trkpt><trkpt lat="58.57707333" lon="14.49721667"><ele>97.0</ele><time>2016-06-18T09:21:31.296Z</time></trkpt><trkpt lat="58.57707333" lon="14.49721667"><ele>97.0</ele><time>2016-06-18T09:21:32.298Z</time></trkpt><trkpt lat="58.57707333" lon="14.49721667"><ele>97.0</ele><time>2016-06-18T09:21:33.300Z</time></trkpt><trkpt lat="58.57707333" lon="14.49721667"><ele>97.0</ele><time>2016-06-18T09:21:34.296Z</time></trkpt><trkpt lat="58.57707333" lon="14.49721667"><ele>97.0</ele><time>2016-06-18T09:21:35.297Z</time></trkpt><trkpt lat="58.57707333" lon="14.49721667"><ele>97.0</ele><time>2016-06-18T09:21:36.295Z</time></trkpt><trkpt lat="58.57707333" lon="14.49721667"><ele>97.0</ele><time>2016-06-18T09:21:37.298Z</time></trkpt><trkpt lat="58.57707333" lon="14.49721667"><ele>97.0</ele><time>2016-06-18T09:21:38.300Z</time></trkpt><trkpt lat="58.57707333" lon="14.49721667"><ele>97.0</ele><time>2016-06-18T09:21:39.296Z</time></trkpt><trkpt lat="58.57707333" lon="14.49721667"><ele>97.0</ele><time>2016-06-18T09:21:40.295Z</time></trkpt><trkpt lat="58.57707333" lon="14.49721667"><ele>97.0</ele><time>2016-06-18T09:21:41.297Z</time></trkpt><trkpt lat="58.57707333" lon="14.49721667"><ele>97.0</ele><time>2016-06-18T09:21:42.297Z</time></trkpt><trkpt lat="58.57707333" lon="14.49721667"><ele>97.0</ele><time>2016-06-18T09:21:43.294Z</time></trkpt><trkpt lat="58.57707333" lon="14.49721667"><ele>97.0</ele><time>2016-06-18T09:21:44.296Z</time></trkpt><trkpt lat="58.57707333" lon="14.49721667"><ele>97.0</ele><time>2016-06-18T09:21:45.298Z</time></trkpt><trkpt lat="58.57707333" lon="14.49721667"><ele>97.0</ele><time>2016-06-18T09:21:46.299Z</time></trkpt><trkpt lat="58.57707333" lon="14.49721667"><ele>97.0</ele><time>2016-06-18T09:21:47.296Z</time></trkpt><trkpt lat="58.57707333" lon="14.49721667"><ele>97.0</ele><time>2016-06-18T09:21:48.309Z</time></trkpt><trkpt lat="58.57707333" lon="14.49721667"><ele>97.0</ele><time>2016-06-18T09:21:49.302Z</time></trkpt><trkpt lat="58.57707333" lon="14.49721667"><ele>97.0</ele><time>2016-06-18T09:21:50.298Z</time></trkpt><trkpt lat="58.57707333" lon="14.49721667"><ele>97.0</ele><time>2016-06-18T09:21:51.284Z</time></trkpt><trkpt lat="58.57707333" lon="14.49721667"><ele>97.0</ele><time>2016-06-18T09:21:52.291Z</time></trkpt><trkpt lat="58.57707333" lon="14.49721667"><ele>97.0</ele><time>2016-06-18T09:21:53.298Z</time></trkpt><trkpt lat="58.57707333" lon="14.49721667"><ele>97.0</ele><time>2016-06-18T09:21:54.303Z</time></trkpt><trkpt lat="58.57707333" lon="14.49721667"><ele>97.0</ele><time>2016-06-18T09:21:55.315Z</time></trkpt><trkpt lat="58.57707333" lon="14.49721667"><ele>97.0</ele><time>2016-06-18T09:21:56.300Z</time></trkpt><trkpt lat="58.57707333" lon="14.49721667"><ele>97.0</ele><time>2016-06-18T09:21:57.296Z</time></trkpt><trkpt lat="58.57707333" lon="14.49721667"><ele>97.0</ele><time>2016-06-18T09:21:58.297Z</time></trkpt><trkpt lat="58.57707333" lon="14.49721667"><ele>97.0</ele><time>2016-06-18T09:21:59.296Z</time></trkpt><trkpt lat="58.57707333" lon="14.49721667"><ele>97.0</ele><time>2016-06-18T09:22:00.294Z</time></trkpt><trkpt lat="58.57707333" lon="14.49721667"><ele>97.0</ele><time>2016-06-18T09:22:01.297Z</time></trkpt><trkpt lat="58.57707333" lon="14.49721667"><ele>97.0</ele><time>2016-06-18T09:22:02.296Z</time></trkpt><trkpt lat="58.57707333" lon="14.49721667"><ele>97.0</ele><time>2016-06-18T09:22:03.287Z</time></trkpt><trkpt lat="58.57707333" lon="14.49721667"><ele>97.0</ele><time>2016-06-18T09:22:04.319Z</time></trkpt><trkpt lat="58.57707333" lon="14.49721667"><ele>97.0</ele><time>2016-06-18T09:22:05.304Z</time></trkpt><trkpt lat="58.57707333" lon="14.49721667"><ele>97.0</ele><time>2016-06-18T09:22:06.295Z</time></trkpt><trkpt lat="58.57707333" lon="14.49721667"><ele>97.0</ele><time>2016-06-18T09:22:07.297Z</time></trkpt><trkpt lat="58.57707333" lon="14.49721667"><ele>97.0</ele><time>2016-06-18T09:22:08.300Z</time></trkpt><trkpt lat="58.57707333" lon="14.49721667"><ele>97.0</ele><time>2016-06-18T09:22:09.296Z</time></trkpt><trkpt lat="58.57707333" lon="14.49721667"><ele>97.0</ele><time>2016-06-18T09:22:10.298Z</time></trkpt><trkpt lat="58.57707333" lon="14.49721667"><ele>97.0</ele><time>2016-06-18T09:22:11.289Z</time></trkpt><trkpt lat="58.57707333" lon="14.49721667"><ele>97.0</ele><time>2016-06-18T09:22:12.294Z</time></trkpt><trkpt lat="58.57707333" lon="14.49721667"><ele>97.0</ele><time>2016-06-18T09:22:13.300Z</time></trkpt><trkpt lat="58.57707333" lon="14.49721667"><ele>97.0</ele><time>2016-06-18T09:22:14.306Z</time></trkpt><trkpt lat="58.57707333" lon="14.49721667"><ele>97.0</ele><time>2016-06-18T09:22:15.314Z</time></trkpt><trkpt lat="58.57707333" lon="14.49721667"><ele>97.0</ele><time>2016-06-18T09:22:16.289Z</time></trkpt><trkpt lat="58.57707333" lon="14.49721667"><ele>97.0</ele><time>2016-06-18T09:22:17.298Z</time></trkpt><trkpt lat="58.57707333" lon="14.49721667"><ele>97.0</ele><time>2016-06-18T09:22:18.296Z</time></trkpt><trkpt lat="58.57707333" lon="14.49721667"><ele>97.0</ele><time>2016-06-18T09:22:19.315Z</time></trkpt><trkpt lat="58.57707333" lon="14.49721667"><ele>97.0</ele><time>2016-06-18T09:22:20.301Z</time></trkpt><trkpt lat="58.57707333" lon="14.49721667"><ele>97.0</ele><time>2016-06-18T09:22:21.297Z</time></trkpt><trkpt lat="58.57707333" lon="14.49721667"><ele>97.0</ele><time>2016-06-18T09:22:22.298Z</time></trkpt><trkpt lat="58.57707333" lon="14.49721667"><ele>97.0</ele><time>2016-06-18T09:22:23.321Z</time></trkpt><trkpt lat="58.57707333" lon="14.49721667"><ele>97.0</ele><time>2016-06-18T09:22:24.309Z</time></trkpt><trkpt lat="58.57707333" lon="14.49721667"><ele>97.0</ele><time>2016-06-18T09:22:25.298Z</time></trkpt><trkpt lat="58.57707333" lon="14.49721667"><ele>97.0</ele><time>2016-06-18T09:22:26.297Z</time></trkpt><trkpt lat="58.57707333" lon="14.49721667"><ele>97.0</ele><time>2016-06-18T09:22:27.296Z</time></trkpt><trkpt lat="58.57707333" lon="14.49721667"><ele>97.0</ele><time>2016-06-18T09:22:28.299Z</time></trkpt><trkpt lat="58.57707333" lon="14.49721667"><ele>97.0</ele><time>2016-06-18T09:22:29.296Z</time></trkpt><trkpt lat="58.57707333" lon="14.49721667"><ele>97.0</ele><time>2016-06-18T09:22:30.298Z</time></trkpt><trkpt lat="58.57707333" lon="14.49721667"><ele>97.0</ele><time>2016-06-18T09:22:31.296Z</time></trkpt><trkpt lat="58.57707333" lon="14.49721667"><ele>97.0</ele><time>2016-06-18T09:22:32.300Z</time></trkpt><trkpt lat="58.57707333" lon="14.49721667"><ele>97.0</ele><time>2016-06-18T09:22:33.287Z</time></trkpt><trkpt lat="58.57707333" lon="14.49721667"><ele>97.0</ele><time>2016-06-18T09:22:34.319Z</time></trkpt><trkpt lat="58.57707333" lon="14.49721667"><ele>97.0</ele><time>2016-06-18T09:22:35.306Z</time></trkpt><trkpt lat="58.57707333" lon="14.49721667"><ele>97.0</ele><time>2016-06-18T09:22:36.296Z</time></trkpt><trkpt lat="58.57707333" lon="14.49721667"><ele>97.0</ele><time>2016-06-18T09:22:37.299Z</time></trkpt><trkpt lat="58.57707333" lon="14.49721667"><ele>97.0</ele><time>2016-06-18T09:22:38.301Z</time></trkpt><trkpt lat="58.57707333" lon="14.49721667"><ele>97.0</ele><time>2016-06-18T09:22:39.295Z</time></trkpt><trkpt lat="58.57707333" lon="14.49721667"><ele>97.0</ele><time>2016-06-18T09:22:40.298Z</time></trkpt><trkpt lat="58.57707333" lon="14.49721667"><ele>97.0</ele><time>2016-06-18T09:22:41.297Z</time></trkpt><trkpt lat="58.57707333" lon="14.49721667"><ele>97.0</ele><time>2016-06-18T09:22:42.299Z</time></trkpt><trkpt lat="58.57707333" lon="14.49721667"><ele>97.0</ele><time>2016-06-18T09:22:43.320Z</time></trkpt><trkpt lat="58.57707333" lon="14.49721667"><ele>97.0</ele><time>2016-06-18T09:22:44.309Z</time></trkpt><trkpt lat="58.57707333" lon="14.49721667"><ele>97.0</ele><time>2016-06-18T09:22:45.297Z</time></trkpt><trkpt lat="58.57707333" lon="14.49721667"><ele>97.0</ele><time>2016-06-18T09:22:46.298Z</time></trkpt><trkpt lat="58.57707333" lon="14.49721667"><ele>97.0</ele><time>2016-06-18T09:22:47.296Z</time></trkpt><trkpt lat="58.57707333" lon="14.49721667"><ele>97.0</ele><time>2016-06-18T09:22:48.303Z</time></trkpt><trkpt lat="58.57707333" lon="14.49721667"><ele>97.0</ele><time>2016-06-18T09:22:49.304Z</time></trkpt><trkpt lat="58.57707333" lon="14.49721667"><ele>97.0</ele><time>2016-06-18T09:22:50.301Z</time></trkpt><trkpt lat="58.57707333" lon="14.49721667"><ele>97.0</ele><time>2016-06-18T09:22:51.297Z</time></trkpt><trkpt lat="58.57707333" lon="14.49721667"><ele>97.0</ele><time>2016-06-18T09:22:52.298Z</time></trkpt><trkpt lat="58.57707333" lon="14.49721667"><ele>97.0</ele><time>2016-06-18T09:22:53.314Z</time></trkpt><trkpt lat="58.57707333" lon="14.49721667"><ele>97.0</ele><time>2016-06-18T09:22:54.300Z</time></trkpt><trkpt lat="58.57707333" lon="14.49721667"><ele>97.0</ele><time>2016-06-18T09:22:55.298Z</time></trkpt><trkpt lat="58.57707333" lon="14.49721667"><ele>97.0</ele><time>2016-06-18T09:22:56.297Z</time></trkpt><trkpt lat="58.57707333" lon="14.49721667"><ele>97.0</ele><time>2016-06-18T09:22:57.297Z</time></trkpt><trkpt lat="58.57707333" lon="14.49721667"><ele>97.0</ele><time>2016-06-18T09:22:58.299Z</time></trkpt><trkpt lat="58.57707333" lon="14.49721667"><ele>97.0</ele><time>2016-06-18T09:22:59.296Z</time></trkpt><trkpt lat="58.57707333" lon="14.49721667"><ele>97.0</ele><time>2016-06-18T09:23:00.316Z</time></trkpt><trkpt lat="58.57707333" lon="14.49721667"><ele>97.0</ele><time>2016-06-18T09:23:01.301Z</time></trkpt><trkpt lat="58.57707333" lon="14.49721667"><ele>97.0</ele><time>2016-06-18T09:23:02.297Z</time></trkpt><trkpt lat="58.57707333" lon="14.49721667"><ele>97.0</ele><time>2016-06-18T09:23:03.286Z</time></trkpt><trkpt lat="58.57707333" lon="14.49721667"><ele>97.0</ele><time>2016-06-18T09:23:04.296Z</time></trkpt><trkpt lat="58.57707333" lon="14.49721667"><ele>97.0</ele><time>2016-06-18T09:23:05.298Z</time></trkpt><trkpt lat="58.57707333" lon="14.49721667"><ele>97.0</ele><time>2016-06-18T09:23:06.299Z</time></trkpt><trkpt lat="58.57707333" lon="14.49721667"><ele>97.0</ele><time>2016-06-18T09:23:07.297Z</time></trkpt><trkpt lat="58.57707333" lon="14.49721667"><ele>97.0</ele><time>2016-06-18T09:23:08.300Z</time></trkpt><trkpt lat="58.57707333" lon="14.49721667"><ele>97.0</ele><time>2016-06-18T09:23:09.297Z</time></trkpt><trkpt lat="58.57707333" lon="14.49721667"><ele>97.0</ele><time>2016-06-18T09:23:10.296Z</time></trkpt><trkpt lat="58.57707333" lon="14.49721667"><ele>97.0</ele><time>2016-06-18T09:23:11.295Z</time></trkpt><trkpt lat="58.57707333" lon="14.49721667"><ele>97.0</ele><time>2016-06-18T09:23:12.311Z</time></trkpt><trkpt lat="58.57707333" lon="14.49721667"><ele>97.0</ele><time>2016-06-18T09:23:13.318Z</time></trkpt><trkpt lat="58.57707333" lon="14.49721667"><ele>97.0</ele><time>2016-06-18T09:23:14.298Z</time></trkpt><trkpt lat="58.57707333" lon="14.49721667"><ele>97.0</ele><time>2016-06-18T09:23:15.297Z</time></trkpt><trkpt lat="58.57707333" lon="14.49721667"><ele>97.0</ele><time>2016-06-18T09:23:16.305Z</time></trkpt><trkpt lat="58.57707333" lon="14.49721667"><ele>97.0</ele><time>2016-06-18T09:23:17.299Z</time></trkpt><trkpt lat="58.57707333" lon="14.49721667"><ele>97.0</ele><time>2016-06-18T09:23:18.296Z</time></trkpt><trkpt lat="58.57707333" lon="14.49721667"><ele>97.0</ele><time>2016-06-18T09:23:19.298Z</time></trkpt><trkpt lat="58.57707333" lon="14.49721667"><ele>97.0</ele><time>2016-06-18T09:23:20.316Z</time></trkpt><trkpt lat="58.57707333" lon="14.49721667"><ele>97.0</ele><time>2016-06-18T09:23:21.310Z</time></trkpt><trkpt lat="58.57707333" lon="14.49721667"><ele>97.0</ele><time>2016-06-18T09:23:22.296Z</time></trkpt><trkpt lat="58.57707333" lon="14.49721667"><ele>97.0</ele><time>2016-06-18T09:23:23.283Z</time></trkpt><trkpt lat="58.57707333" lon="14.49721667"><ele>97.0</ele><time>2016-06-18T09:23:24.310Z</time></trkpt><trkpt lat="58.57707333" lon="14.49721667"><ele>97.0</ele><time>2016-06-18T09:23:25.299Z</time></trkpt><trkpt lat="58.57707333" lon="14.49721667"><ele>97.0</ele><time>2016-06-18T09:23:26.300Z</time></trkpt><trkpt lat="58.57707333" lon="14.49721667"><ele>97.0</ele><time>2016-06-18T09:23:27.297Z</time></trkpt><trkpt lat="58.57707333" lon="14.49721667"><ele>97.0</ele><time>2016-06-18T09:23:28.299Z</time></trkpt><trkpt lat="58.57707333" lon="14.49721667"><ele>97.0</ele><time>2016-06-18T09:23:29.297Z</time></trkpt><trkpt lat="58.57707333" lon="14.49721667"><ele>97.0</ele><time>2016-06-18T09:23:30.298Z</time></trkpt><trkpt lat="58.57707333" lon="14.49721667"><ele>97.0</ele><time>2016-06-18T09:23:31.297Z</time></trkpt><trkpt lat="58.57707333" lon="14.49721667"><ele>97.0</ele><time>2016-06-18T09:23:32.301Z</time></trkpt><trkpt lat="58.57707333" lon="14.49721667"><ele>97.0</ele><time>2016-06-18T09:23:33.288Z</time></trkpt><trkpt lat="58.57707333" lon="14.49721667"><ele>97.0</ele><time>2016-06-18T09:23:34.313Z</time></trkpt><trkpt lat="58.57707333" lon="14.49721667"><ele>97.0</ele><time>2016-06-18T09:23:35.300Z</time></trkpt><trkpt lat="58.57707333" lon="14.49721667"><ele>97.0</ele><time>2016-06-18T09:23:36.296Z</time></trkpt><trkpt lat="58.57707333" lon="14.49721667"><ele>97.0</ele><time>2016-06-18T09:23:37.299Z</time></trkpt><trkpt lat="58.57707333" lon="14.49721667"><ele>97.0</ele><time>2016-06-18T09:23:38.301Z</time></trkpt><trkpt lat="58.57707333" lon="14.49721667"><ele>97.0</ele><time>2016-06-18T09:23:39.297Z</time></trkpt><trkpt lat="58.57707333" lon="14.49721667"><ele>97.0</ele><time>2016-06-18T09:23:40.299Z</time></trkpt><trkpt lat="58.57707333" lon="14.49721667"><ele>97.0</ele><time>2016-06-18T09:23:41.300Z</time></trkpt><trkpt lat="58.57707333" lon="14.49721667"><ele>97.0</ele><time>2016-06-18T09:23:42.296Z</time></trkpt><trkpt lat="58.57707333" lon="14.49721667"><ele>97.0</ele><time>2016-06-18T09:23:43.318Z</time></trkpt><trkpt lat="58.57707333" lon="14.49721667"><ele>97.0</ele><time>2016-06-18T09:23:44.303Z</time></trkpt><trkpt lat="58.57707333" lon="14.49721667"><ele>97.0</ele><time>2016-06-18T09:23:45.299Z</time></trkpt><trkpt lat="58.57707333" lon="14.49721667"><ele>97.0</ele><time>2016-06-18T09:23:46.299Z</time></trkpt><trkpt lat="58.57707333" lon="14.49721667"><ele>97.0</ele><time>2016-06-18T09:23:47.297Z</time></trkpt><trkpt lat="58.57707333" lon="14.49721667"><ele>97.0</ele><time>2016-06-18T09:23:48.302Z</time></trkpt><trkpt lat="58.57707333" lon="14.49721667"><ele>97.0</ele><time>2016-06-18T09:23:49.297Z</time></trkpt><trkpt lat="58.57707333" lon="14.49721667"><ele>97.0</ele><time>2016-06-18T09:23:50.296Z</time></trkpt><trkpt lat="58.57707333" lon="14.49721667"><ele>97.0</ele><time>2016-06-18T09:23:51.299Z</time></trkpt><trkpt lat="58.57707333" lon="14.49721667"><ele>97.0</ele><time>2016-06-18T09:23:52.296Z</time></trkpt><trkpt lat="58.57707333" lon="14.49721667"><ele>97.0</ele><time>2016-06-18T09:23:53.287Z</time></trkpt><trkpt lat="58.57707333" lon="14.49721667"><ele>97.0</ele><time>2016-06-18T09:23:54.320Z</time></trkpt><trkpt lat="58.57707333" lon="14.49721667"><ele>97.0</ele><time>2016-06-18T09:23:55.305Z</time></trkpt><trkpt lat="58.57707333" lon="14.49721667"><ele>97.0</ele><time>2016-06-18T09:23:56.300Z</time></trkpt><trkpt lat="58.57707333" lon="14.49721667"><ele>97.0</ele><time>2016-06-18T09:23:57.297Z</time></trkpt><trkpt lat="58.57707333" lon="14.49721667"><ele>97.0</ele><time>2016-06-18T09:23:58.299Z</time></trkpt><trkpt lat="58.57707333" lon="14.49721667"><ele>97.0</ele><time>2016-06-18T09:23:59.299Z</time></trkpt><trkpt lat="58.57707333" lon="14.49721667"><ele>97.0</ele><time>2016-06-18T09:24:00.286Z</time></trkpt><trkpt lat="58.57707333" lon="14.49721667"><ele>97.0</ele><time>2016-06-18T09:24:01.310Z</time></trkpt><trkpt lat="58.57707333" lon="14.49721667"><ele>97.0</ele><time>2016-06-18T09:24:02.300Z</time></trkpt><trkpt lat="58.57707333" lon="14.49721667"><ele>97.0</ele><time>2016-06-18T09:24:03.287Z</time></trkpt><trkpt lat="58.57707333" lon="14.49721667"><ele>97.0</ele><time>2016-06-18T09:24:04.315Z</time></trkpt><trkpt lat="58.57707333" lon="14.49721667"><ele>97.0</ele><time>2016-06-18T09:24:05.303Z</time></trkpt><trkpt lat="58.57707333" lon="14.49721667"><ele>97.0</ele><time>2016-06-18T09:24:06.296Z</time></trkpt><trkpt lat="58.57707333" lon="14.49721667"><ele>97.0</ele><time>2016-06-18T09:24:07.299Z</time></trkpt><trkpt lat="58.57707333" lon="14.49721667"><ele>97.0</ele><time>2016-06-18T09:24:08.301Z</time></trkpt><trkpt lat="58.57707333" lon="14.49721667"><ele>97.0</ele><time>2016-06-18T09:24:09.297Z</time></trkpt><trkpt lat="58.57707333" lon="14.49721667"><ele>97.0</ele><time>2016-06-18T09:24:10.299Z</time></trkpt><trkpt lat="58.57707333" lon="14.49721667"><ele>97.0</ele><time>2016-06-18T09:24:11.288Z</time></trkpt><trkpt lat="58.57707333" lon="14.49721667"><ele>97.0</ele><time>2016-06-18T09:24:12.286Z</time></trkpt><trkpt lat="58.57707333" lon="14.49721667"><ele>97.0</ele><time>2016-06-18T09:24:13.312Z</time></trkpt><trkpt lat="58.57707333" lon="14.49721667"><ele>97.0</ele><time>2016-06-18T09:24:14.298Z</time></trkpt><trkpt lat="58.57707333" lon="14.49721667"><ele>97.0</ele><time>2016-06-18T09:24:15.299Z</time></trkpt><trkpt lat="58.57707333" lon="14.49721667"><ele>97.0</ele><time>2016-06-18T09:24:16.300Z</time></trkpt><trkpt lat="58.57707333" lon="14.49721667"><ele>97.0</ele><time>2016-06-18T09:24:17.297Z</time></trkpt><trkpt lat="58.57707333" lon="14.49721667"><ele>97.0</ele><time>2016-06-18T09:24:18.299Z</time></trkpt><trkpt lat="58.57707333" lon="14.49721667"><ele>97.0</ele><time>2016-06-18T09:24:19.297Z</time></trkpt><trkpt lat="58.57707333" lon="14.49721667"><ele>97.0</ele><time>2016-06-18T09:24:20.299Z</time></trkpt><trkpt lat="58.57707333" lon="14.49721667"><ele>97.0</ele><time>2016-06-18T09:24:21.300Z</time></trkpt><trkpt lat="58.57707333" lon="14.49721667"><ele>97.0</ele><time>2016-06-18T09:24:22.302Z</time></trkpt><trkpt lat="58.57707333" lon="14.49721667"><ele>97.0</ele><time>2016-06-18T09:24:23.284Z</time></trkpt><trkpt lat="58.57707333" lon="14.49721667"><ele>97.0</ele><time>2016-06-18T09:24:24.310Z</time></trkpt><trkpt lat="58.57707333" lon="14.49721667"><ele>97.0</ele><time>2016-06-18T09:24:25.300Z</time></trkpt><trkpt lat="58.57707333" lon="14.49721667"><ele>97.0</ele><time>2016-06-18T09:24:26.311Z</time></trkpt><trkpt lat="58.57707333" lon="14.49721667"><ele>97.0</ele><time>2016-06-18T09:24:27.297Z</time></trkpt><trkpt lat="58.57707333" lon="14.49721667"><ele>97.0</ele><time>2016-06-18T09:24:28.299Z</time></trkpt><trkpt lat="58.57707333" lon="14.49721667"><ele>97.0</ele><time>2016-06-18T09:24:29.298Z</time></trkpt><trkpt lat="58.57707333" lon="14.49721667"><ele>97.0</ele><time>2016-06-18T09:24:30.301Z</time></trkpt><trkpt lat="58.57707333" lon="14.49721667"><ele>97.0</ele><time>2016-06-18T09:24:31.305Z</time></trkpt><trkpt lat="58.57707333" lon="14.49721667"><ele>97.0</ele><time>2016-06-18T09:24:32.302Z</time></trkpt><trkpt lat="58.57707333" lon="14.49721667"><ele>97.0</ele><time>2016-06-18T09:24:33.284Z</time></trkpt><trkpt lat="58.57707333" lon="14.49721667"><ele>97.0</ele><time>2016-06-18T09:24:34.311Z</time></trkpt><trkpt lat="58.57707333" lon="14.49721667"><ele>97.0</ele><time>2016-06-18T09:24:35.300Z</time></trkpt><trkpt lat="58.57707333" lon="14.49721667"><ele>97.0</ele><time>2016-06-18T09:24:36.297Z</time></trkpt><trkpt lat="58.57707333" lon="14.49721667"><ele>97.0</ele><time>2016-06-18T09:24:37.299Z</time></trkpt><trkpt lat="58.57707333" lon="14.49721667"><ele>97.0</ele><time>2016-06-18T09:24:38.301Z</time></trkpt><trkpt lat="58.57707333" lon="14.49721667"><ele>97.0</ele><time>2016-06-18T09:24:39.298Z</time></trkpt><trkpt lat="58.57707333" lon="14.49721667"><ele>97.0</ele><time>2016-06-18T09:24:40.304Z</time></trkpt><trkpt lat="58.57707333" lon="14.49721667"><ele>97.0</ele><time>2016-06-18T09:24:41.297Z</time></trkpt><trkpt lat="58.57707333" lon="14.49721667"><ele>97.0</ele><time>2016-06-18T09:24:42.297Z</time></trkpt><trkpt lat="58.57707333" lon="14.49721667"><ele>97.0</ele><time>2016-06-18T09:24:43.288Z</time></trkpt><trkpt lat="58.57707333" lon="14.49721667"><ele>97.0</ele><time>2016-06-18T09:24:44.311Z</time></trkpt><trkpt lat="58.57707333" lon="14.49721667"><ele>97.0</ele><time>2016-06-18T09:24:45.298Z</time></trkpt><trkpt lat="58.57707333" lon="14.49721667"><ele>97.0</ele><time>2016-06-18T09:24:46.296Z</time></trkpt><trkpt lat="58.57707333" lon="14.49721667"><ele>97.0</ele><time>2016-06-18T09:24:47.302Z</time></trkpt><trkpt lat="58.57707333" lon="14.49721667"><ele>97.0</ele><time>2016-06-18T09:24:48.297Z</time></trkpt><trkpt lat="58.57707333" lon="14.49721667"><ele>97.0</ele><time>2016-06-18T09:24:49.299Z</time></trkpt><trkpt lat="58.57707333" lon="14.49721667"><ele>97.0</ele><time>2016-06-18T09:24:50.301Z</time></trkpt><trkpt lat="58.57707333" lon="14.49721667"><ele>97.0</ele><time>2016-06-18T09:24:51.298Z</time></trkpt><trkpt lat="58.57707333" lon="14.49721667"><ele>97.0</ele><time>2016-06-18T09:24:52.304Z</time></trkpt><trkpt lat="58.57707333" lon="14.49721667"><ele>97.0</ele><time>2016-06-18T09:24:53.302Z</time></trkpt><trkpt lat="58.57707333" lon="14.49721667"><ele>97.0</ele><time>2016-06-18T09:24:54.297Z</time></trkpt><trkpt lat="58.57707333" lon="14.49721667"><ele>97.0</ele><time>2016-06-18T09:24:55.299Z</time></trkpt><trkpt lat="58.57707333" lon="14.49721667"><ele>97.0</ele><time>2016-06-18T09:24:56.301Z</time></trkpt><trkpt lat="58.57707333" lon="14.49721667"><ele>97.0</ele><time>2016-06-18T09:24:57.298Z</time></trkpt><trkpt lat="58.57707333" lon="14.49721667"><ele>97.0</ele><time>2016-06-18T09:24:58.301Z</time></trkpt><trkpt lat="58.57707333" lon="14.49721667"><ele>97.0</ele><time>2016-06-18T09:24:59.299Z</time></trkpt><trkpt lat="58.57707333" lon="14.49721667"><ele>97.0</ele><time>2016-06-18T09:25:00.296Z</time></trkpt><trkpt lat="58.57707333" lon="14.49721667"><ele>97.0</ele><time>2016-06-18T09:25:01.298Z</time></trkpt><trkpt lat="58.57707333" lon="14.49721667"><ele>97.0</ele><time>2016-06-18T09:25:02.300Z</time></trkpt><trkpt lat="58.57707333" lon="14.49721667"><ele>97.0</ele><time>2016-06-18T09:25:03.282Z</time></trkpt><trkpt lat="58.57707333" lon="14.49721667"><ele>97.0</ele><time>2016-06-18T09:25:04.319Z</time></trkpt><trkpt lat="58.57707333" lon="14.49721667"><ele>97.0</ele><time>2016-06-18T09:25:05.304Z</time></trkpt><trkpt lat="58.57707333" lon="14.49721667"><ele>97.0</ele><time>2016-06-18T09:25:06.297Z</time></trkpt><trkpt lat="58.57707333" lon="14.49721667"><ele>97.0</ele><time>2016-06-18T09:25:07.300Z</time></trkpt><trkpt lat="58.57707333" lon="14.49721667"><ele>97.0</ele><time>2016-06-18T09:25:08.301Z</time></trkpt><trkpt lat="58.57707333" lon="14.49721667"><ele>97.0</ele><time>2016-06-18T09:25:09.298Z</time></trkpt><trkpt lat="58.57707333" lon="14.49721667"><ele>97.0</ele><time>2016-06-18T09:25:10.300Z</time></trkpt><trkpt lat="58.57707333" lon="14.49721667"><ele>97.0</ele><time>2016-06-18T09:25:11.288Z</time></trkpt><trkpt lat="58.57707333" lon="14.49721667"><ele>97.0</ele><time>2016-06-18T09:25:12.306Z</time></trkpt><trkpt lat="58.57707333" lon="14.49721667"><ele>97.0</ele><time>2016-06-18T09:25:13.316Z</time></trkpt><trkpt lat="58.57707333" lon="14.49721667"><ele>97.0</ele><time>2016-06-18T09:25:14.288Z</time></trkpt><trkpt lat="58.57707333" lon="14.49721667"><ele>97.0</ele><time>2016-06-18T09:25:15.295Z</time></trkpt><trkpt lat="58.57707333" lon="14.49721667"><ele>97.0</ele><time>2016-06-18T09:25:16.301Z</time></trkpt><trkpt lat="58.57707333" lon="14.49721667"><ele>97.0</ele><time>2016-06-18T09:25:17.318Z</time></trkpt><trkpt lat="58.57707333" lon="14.49721667"><ele>97.0</ele><time>2016-06-18T09:25:18.304Z</time></trkpt><trkpt lat="58.57707333" lon="14.49721667"><ele>97.0</ele><time>2016-06-18T09:25:19.298Z</time></trkpt><trkpt lat="58.57707333" lon="14.49721667"><ele>97.0</ele><time>2016-06-18T09:25:20.302Z</time></trkpt><trkpt lat="58.57707333" lon="14.49721667"><ele>97.0</ele><time>2016-06-18T09:25:21.300Z</time></trkpt><trkpt lat="58.57707333" lon="14.49721667"><ele>97.0</ele><time>2016-06-18T09:25:22.302Z</time></trkpt><trkpt lat="58.57707333" lon="14.49721667"><ele>97.0</ele><time>2016-06-18T09:25:23.285Z</time></trkpt><trkpt lat="58.57707333" lon="14.49721667"><ele>97.0</ele><time>2016-06-18T09:25:24.297Z</time></trkpt><trkpt lat="58.57707333" lon="14.49721667"><ele>97.0</ele><time>2016-06-18T09:25:25.301Z</time></trkpt><trkpt lat="58.57707333" lon="14.49721667"><ele>97.0</ele><time>2016-06-18T09:25:26.302Z</time></trkpt><trkpt lat="58.57707333" lon="14.49721667"><ele>97.0</ele><time>2016-06-18T09:25:27.298Z</time></trkpt><trkpt lat="58.57707333" lon="14.49721667"><ele>97.0</ele><time>2016-06-18T09:25:28.311Z</time></trkpt><trkpt lat="58.57707333" lon="14.49721667"><ele>97.0</ele><time>2016-06-18T09:25:29.302Z</time></trkpt><trkpt lat="58.57707333" lon="14.49721667"><ele>97.0</ele><time>2016-06-18T09:25:30.297Z</time></trkpt><trkpt lat="58.57707333" lon="14.49721667"><ele>97.0</ele><time>2016-06-18T09:25:31.301Z</time></trkpt><trkpt lat="58.57707333" lon="14.49721667"><ele>97.0</ele><time>2016-06-18T09:25:32.301Z</time></trkpt><trkpt lat="58.57707333" lon="14.49721667"><ele>97.0</ele><time>2016-06-18T09:25:33.296Z</time></trkpt><trkpt lat="58.57707333" lon="14.49721667"><ele>97.0</ele><time>2016-06-18T09:25:34.297Z</time></trkpt><trkpt lat="58.57707333" lon="14.49721667"><ele>97.0</ele><time>2016-06-18T09:25:35.298Z</time></trkpt><trkpt lat="58.57707333" lon="14.49721667"><ele>97.0</ele><time>2016-06-18T09:25:36.297Z</time></trkpt><trkpt lat="58.57707333" lon="14.49721667"><ele>97.0</ele><time>2016-06-18T09:25:37.298Z</time></trkpt><trkpt lat="58.57707333" lon="14.49721667"><ele>97.0</ele><time>2016-06-18T09:25:38.307Z</time></trkpt><trkpt lat="58.57707333" lon="14.49721667"><ele>97.0</ele><time>2016-06-18T09:25:39.298Z</time></trkpt><trkpt lat="58.57707333" lon="14.49721667"><ele>97.0</ele><time>2016-06-18T09:25:40.300Z</time></trkpt><trkpt lat="58.57707333" lon="14.49721667"><ele>97.0</ele><time>2016-06-18T09:25:41.298Z</time></trkpt><trkpt lat="58.57707333" lon="14.49721667"><ele>97.0</ele><time>2016-06-18T09:25:42.297Z</time></trkpt><trkpt lat="58.57707333" lon="14.49721667"><ele>97.0</ele><time>2016-06-18T09:25:43.301Z</time></trkpt><trkpt lat="58.57707333" lon="14.49721667"><ele>97.0</ele><time>2016-06-18T09:25:44.297Z</time></trkpt><trkpt lat="58.57707333" lon="14.49721667"><ele>97.0</ele><time>2016-06-18T09:25:45.298Z</time></trkpt><trkpt lat="58.57707333" lon="14.49721667"><ele>97.0</ele><time>2016-06-18T09:25:46.297Z</time></trkpt><trkpt lat="58.57707333" lon="14.49721667"><ele>97.0</ele><time>2016-06-18T09:25:47.302Z</time></trkpt><trkpt lat="58.57707333" lon="14.49721667"><ele>97.0</ele><time>2016-06-18T09:25:48.297Z</time></trkpt><trkpt lat="58.57707333" lon="14.49721667"><ele>97.0</ele><time>2016-06-18T09:25:49.298Z</time></trkpt><trkpt lat="58.57707333" lon="14.49721667"><ele>97.0</ele><time>2016-06-18T09:25:50.301Z</time></trkpt><trkpt lat="58.57707333" lon="14.49721667"><ele>97.0</ele><time>2016-06-18T09:25:51.299Z</time></trkpt><trkpt lat="58.57707333" lon="14.49721667"><ele>97.0</ele><time>2016-06-18T09:25:52.300Z</time></trkpt><trkpt lat="58.57707333" lon="14.49721667"><ele>97.0</ele><time>2016-06-18T09:25:53.296Z</time></trkpt><trkpt lat="58.57707333" lon="14.49721667"><ele>97.0</ele><time>2016-06-18T09:25:54.297Z</time></trkpt><trkpt lat="58.57707333" lon="14.49721667"><ele>97.0</ele><time>2016-06-18T09:25:55.298Z</time></trkpt><trkpt lat="58.57707333" lon="14.49721667"><ele>97.0</ele><time>2016-06-18T09:25:56.304Z</time></trkpt><trkpt lat="58.57707333" lon="14.49721667"><ele>97.0</ele><time>2016-06-18T09:25:57.311Z</time></trkpt><trkpt lat="58.57707333" lon="14.49721667"><ele>97.0</ele><time>2016-06-18T09:25:58.301Z</time></trkpt><trkpt lat="58.57707333" lon="14.49721667"><ele>97.0</ele><time>2016-06-18T09:25:59.299Z</time></trkpt><trkpt lat="58.57707333" lon="14.49721667"><ele>97.0</ele><time>2016-06-18T09:26:00.296Z</time></trkpt><trkpt lat="58.57707333" lon="14.49721667"><ele>97.0</ele><time>2016-06-18T09:26:01.299Z</time></trkpt><trkpt lat="58.57707333" lon="14.49721667"><ele>97.0</ele><time>2016-06-18T09:26:02.302Z</time></trkpt><trkpt lat="58.57707333" lon="14.49721667"><ele>97.0</ele><time>2016-06-18T09:26:03.302Z</time></trkpt><trkpt lat="58.57707333" lon="14.49721667"><ele>97.0</ele><time>2016-06-18T09:26:04.297Z</time></trkpt><trkpt lat="58.57707333" lon="14.49721667"><ele>97.0</ele><time>2016-06-18T09:26:05.300Z</time></trkpt><trkpt lat="58.57707333" lon="14.49721667"><ele>97.0</ele><time>2016-06-18T09:26:06.297Z</time></trkpt><trkpt lat="58.57707333" lon="14.49721667"><ele>97.0</ele><time>2016-06-18T09:26:07.300Z</time></trkpt><trkpt lat="58.57707333" lon="14.49721667"><ele>97.0</ele><time>2016-06-18T09:26:08.303Z</time></trkpt><trkpt lat="58.57707333" lon="14.49721667"><ele>97.0</ele><time>2016-06-18T09:26:09.299Z</time></trkpt><trkpt lat="58.57707333" lon="14.49721667"><ele>97.0</ele><time>2016-06-18T09:26:10.301Z</time></trkpt><trkpt lat="58.57707333" lon="14.49721667"><ele>97.0</ele><time>2016-06-18T09:26:11.290Z</time></trkpt><trkpt lat="58.57706167" lon="14.49727167"><ele>88.0</ele><time>2016-06-18T09:26:12.306Z</time></trkpt><trkpt lat="58.57705667" lon="14.497285"><ele>88.0</ele><time>2016-06-18T09:26:13.314Z</time></trkpt><trkpt lat="58.57705333" lon="14.49729167"><ele>88.0</ele><time>2016-06-18T09:26:14.320Z</time></trkpt><trkpt lat="58.57705333" lon="14.49729667"><ele>88.0</ele><time>2016-06-18T09:26:15.288Z</time></trkpt><trkpt lat="58.57705333" lon="14.49729667"><ele>88.0</ele><time>2016-06-18T09:26:16.298Z</time></trkpt><trkpt lat="58.57706833" lon="14.497315"><ele>88.0</ele><time>2016-06-18T09:26:17.300Z</time></trkpt><trkpt lat="58.57707667" lon="14.497335"><ele>88.0</ele><time>2016-06-18T09:26:18.282Z</time></trkpt><trkpt lat="58.57707667" lon="14.497335"><ele>88.0</ele><time>2016-06-18T09:26:19.291Z</time></trkpt><trkpt lat="58.577115" lon="14.49736167"><ele>88.0</ele><time>2016-06-18T09:26:20.302Z</time></trkpt><trkpt lat="58.577115" lon="14.49736167"><ele>88.0</ele><time>2016-06-18T09:26:21.303Z</time></trkpt><trkpt lat="58.57717833" lon="14.497385"><ele>88.0</ele><time>2016-06-18T09:26:22.307Z</time></trkpt><trkpt lat="58.57722" lon="14.49739667"><ele>88.0</ele><time>2016-06-18T09:26:23.298Z</time></trkpt><trkpt lat="58.57722" lon="14.49739667"><ele>88.0</ele><time>2016-06-18T09:26:24.288Z</time></trkpt><trkpt lat="58.57731833" lon="14.49746333"><ele>88.0</ele><time>2016-06-18T09:26:25.316Z</time></trkpt><trkpt lat="58.577375" lon="14.49750833"><ele>88.0</ele><time>2016-06-18T09:26:26.320Z</time></trkpt><trkpt lat="58.577375" lon="14.49750833"><ele>88.0</ele><time>2016-06-18T09:26:27.301Z</time></trkpt><trkpt lat="58.57749667" lon="14.49757333"><ele>88.0</ele><time>2016-06-18T09:26:28.315Z</time></trkpt><trkpt lat="58.57755833" lon="14.49759833"><ele>88.0</ele><time>2016-06-18T09:26:29.309Z</time></trkpt><trkpt lat="58.57755833" lon="14.49759833"><ele>88.0</ele><time>2016-06-18T09:26:30.320Z</time></trkpt><trkpt lat="58.57769167" lon="14.497665"><ele>89.0</ele><time>2016-06-18T09:26:31.287Z</time></trkpt><trkpt lat="58.57776333" lon="14.49771167"><ele>89.0</ele><time>2016-06-18T09:26:32.310Z</time></trkpt><trkpt lat="58.57776333" lon="14.49771167"><ele>89.0</ele><time>2016-06-18T09:26:33.317Z</time></trkpt><trkpt lat="58.577905" lon="14.49777333"><ele>90.0</ele><time>2016-06-18T09:26:34.309Z</time></trkpt><trkpt lat="58.577905" lon="14.49777333"><ele>90.0</ele><time>2016-06-18T09:26:35.321Z</time></trkpt><trkpt lat="58.57804333" lon="14.49776333"><ele>91.0</ele><time>2016-06-18T09:26:36.288Z</time></trkpt><trkpt lat="58.578105" lon="14.49775667"><ele>91.0</ele><time>2016-06-18T09:26:37.303Z</time></trkpt><trkpt lat="58.57816333" lon="14.49775333"><ele>91.0</ele><time>2016-06-18T09:26:38.316Z</time></trkpt><trkpt lat="58.57816333" lon="14.49775333"><ele>91.0</ele><time>2016-06-18T09:26:39.315Z</time></trkpt><trkpt lat="58.57827667" lon="14.49779"><ele>92.0</ele><time>2016-06-18T09:26:40.286Z</time></trkpt><trkpt lat="58.57827667" lon="14.49779"><ele>92.0</ele><time>2016-06-18T09:26:41.315Z</time></trkpt><trkpt lat="58.57839333" lon="14.497865"><ele>92.0</ele><time>2016-06-18T09:26:42.282Z</time></trkpt><trkpt lat="58.57839333" lon="14.497865"><ele>92.0</ele><time>2016-06-18T09:26:43.312Z</time></trkpt><trkpt lat="58.57851833" lon="14.49795667"><ele>93.0</ele><time>2016-06-18T09:26:44.317Z</time></trkpt><trkpt lat="58.57851833" lon="14.49795667"><ele>93.0</ele><time>2016-06-18T09:26:45.299Z</time></trkpt><trkpt lat="58.57864667" lon="14.49804167"><ele>93.0</ele><time>2016-06-18T09:26:46.316Z</time></trkpt><trkpt lat="58.57871333" lon="14.498075"><ele>94.0</ele><time>2016-06-18T09:26:47.301Z</time></trkpt><trkpt lat="58.57871333" lon="14.498075"><ele>94.0</ele><time>2016-06-18T09:26:48.314Z</time></trkpt><trkpt lat="58.57885167" lon="14.49815"><ele>94.0</ele><time>2016-06-18T09:26:49.297Z</time></trkpt><trkpt lat="58.57892333" lon="14.49819167"><ele>94.0</ele><time>2016-06-18T09:26:50.292Z</time></trkpt><trkpt lat="58.57892333" lon="14.49819167"><ele>94.0</ele><time>2016-06-18T09:26:51.317Z</time></trkpt><trkpt lat="58.57906667" lon="14.49827833"><ele>94.0</ele><time>2016-06-18T09:26:52.285Z</time></trkpt><trkpt lat="58.57913667" lon="14.49832"><ele>94.0</ele><time>2016-06-18T09:26:53.295Z</time></trkpt><trkpt lat="58.57913667" lon="14.49832"><ele>94.0</ele><time>2016-06-18T09:26:54.304Z</time></trkpt><trkpt lat="58.57927333" lon="14.49840833"><ele>95.0</ele><time>2016-06-18T09:26:55.315Z</time></trkpt><trkpt lat="58.579345" lon="14.49844667"><ele>95.0</ele><time>2016-06-18T09:26:56.320Z</time></trkpt><trkpt lat="58.579345" lon="14.49844667"><ele>95.0</ele><time>2016-06-18T09:26:57.301Z</time></trkpt><trkpt lat="58.57949333" lon="14.49852167"><ele>95.0</ele><time>2016-06-18T09:26:58.307Z</time></trkpt><trkpt lat="58.57949333" lon="14.49852167"><ele>95.0</ele><time>2016-06-18T09:26:59.296Z</time></trkpt><trkpt lat="58.57965" lon="14.49860167"><ele>96.0</ele><time>2016-06-18T09:27:00.307Z</time></trkpt><trkpt lat="58.57965" lon="14.49860167"><ele>96.0</ele><time>2016-06-18T09:27:01.291Z</time></trkpt><trkpt lat="58.57981333" lon="14.498695"><ele>96.0</ele><time>2016-06-18T09:27:02.301Z</time></trkpt><trkpt lat="58.579895" lon="14.49874"><ele>96.0</ele><time>2016-06-18T09:27:03.322Z</time></trkpt><trkpt lat="58.579895" lon="14.49874"><ele>96.0</ele><time>2016-06-18T09:27:04.300Z</time></trkpt><trkpt lat="58.58005667" lon="14.49883"><ele>96.0</ele><time>2016-06-18T09:27:05.306Z</time></trkpt><trkpt lat="58.58013667" lon="14.49888"><ele>96.0</ele><time>2016-06-18T09:27:06.305Z</time></trkpt><trkpt lat="58.58021833" lon="14.49893167"><ele>96.0</ele><time>2016-06-18T09:27:07.304Z</time></trkpt><trkpt lat="58.58021833" lon="14.49893167"><ele>96.0</ele><time>2016-06-18T09:27:08.310Z</time></trkpt><trkpt lat="58.58038333" lon="14.49903667"><ele>97.0</ele><time>2016-06-18T09:27:09.318Z</time></trkpt><trkpt lat="58.58038333" lon="14.49903667"><ele>97.0</ele><time>2016-06-18T09:27:10.320Z</time></trkpt><trkpt lat="58.580555" lon="14.499135"><ele>97.0</ele><time>2016-06-18T09:27:11.297Z</time></trkpt><trkpt lat="58.580555" lon="14.499135"><ele>97.0</ele><time>2016-06-18T09:27:12.309Z</time></trkpt><trkpt lat="58.58072167" lon="14.49923167"><ele>97.0</ele><time>2016-06-18T09:27:13.316Z</time></trkpt><trkpt lat="58.580805" lon="14.49928333"><ele>96.0</ele><time>2016-06-18T09:27:14.290Z</time></trkpt><trkpt lat="58.58089167" lon="14.49933167"><ele>96.0</ele><time>2016-06-18T09:27:15.316Z</time></trkpt><trkpt lat="58.58089167" lon="14.49933167"><ele>96.0</ele><time>2016-06-18T09:27:16.283Z</time></trkpt><trkpt lat="58.58106167" lon="14.499425"><ele>96.0</ele><time>2016-06-18T09:27:17.292Z</time></trkpt><trkpt lat="58.58106167" lon="14.499425"><ele>96.0</ele><time>2016-06-18T09:27:18.306Z</time></trkpt><trkpt lat="58.581225" lon="14.49952667"><ele>96.0</ele><time>2016-06-18T09:27:19.314Z</time></trkpt><trkpt lat="58.581305" lon="14.49957833"><ele>96.0</ele><time>2016-06-18T09:27:20.297Z</time></trkpt><trkpt lat="58.581305" lon="14.49957833"><ele>96.0</ele><time>2016-06-18T09:27:21.310Z</time></trkpt><trkpt lat="58.58146667" lon="14.499675"><ele>96.0</ele><time>2016-06-18T09:27:22.318Z</time></trkpt><trkpt lat="58.58146667" lon="14.499675"><ele>96.0</ele><time>2016-06-18T09:27:23.301Z</time></trkpt><trkpt lat="58.58162167" lon="14.49977833"><ele>95.0</ele><time>2016-06-18T09:27:24.291Z</time></trkpt><trkpt lat="58.58170333" lon="14.49982833"><ele>95.0</ele><time>2016-06-18T09:27:25.301Z</time></trkpt><trkpt lat="58.581785" lon="14.49987667"><ele>95.0</ele><time>2016-06-18T09:27:26.288Z</time></trkpt><trkpt lat="58.581785" lon="14.49987667"><ele>95.0</ele><time>2016-06-18T09:27:27.313Z</time></trkpt><trkpt lat="58.58194667" lon="14.49998"><ele>95.0</ele><time>2016-06-18T09:27:28.318Z</time></trkpt><trkpt lat="58.58194667" lon="14.49998"><ele>95.0</ele><time>2016-06-18T09:27:29.300Z</time></trkpt><trkpt lat="58.582105" lon="14.50007667"><ele>95.0</ele><time>2016-06-18T09:27:30.282Z</time></trkpt><trkpt lat="58.582105" lon="14.50007667"><ele>95.0</ele><time>2016-06-18T09:27:31.299Z</time></trkpt><trkpt lat="58.58225833" lon="14.50017833"><ele>95.0</ele><time>2016-06-18T09:27:32.306Z</time></trkpt><trkpt lat="58.58225833" lon="14.50017833"><ele>95.0</ele><time>2016-06-18T09:27:33.292Z</time></trkpt><trkpt lat="58.58242" lon="14.50029"><ele>95.0</ele><time>2016-06-18T09:27:34.320Z</time></trkpt><trkpt lat="58.58242" lon="14.50029"><ele>95.0</ele><time>2016-06-18T09:27:35.301Z</time></trkpt><trkpt lat="58.58257833" lon="14.50039167"><ele>95.0</ele><time>2016-06-18T09:27:36.307Z</time></trkpt><trkpt lat="58.58265833" lon="14.50043167"><ele>95.0</ele><time>2016-06-18T09:27:37.293Z</time></trkpt><trkpt lat="58.58265833" lon="14.50043167"><ele>95.0</ele><time>2016-06-18T09:27:38.301Z</time></trkpt><trkpt lat="58.582805" lon="14.50053"><ele>96.0</ele><time>2016-06-18T09:27:39.307Z</time></trkpt><trkpt lat="58.582805" lon="14.50053"><ele>96.0</ele><time>2016-06-18T09:27:40.293Z</time></trkpt><trkpt lat="58.58295833" lon="14.50062167"><ele>96.0</ele><time>2016-06-18T09:27:41.304Z</time></trkpt><trkpt lat="58.58295833" lon="14.50062167"><ele>96.0</ele><time>2016-06-18T09:27:42.311Z</time></trkpt><trkpt lat="58.58310833" lon="14.50072167"><ele>96.0</ele><time>2016-06-18T09:27:43.318Z</time></trkpt><trkpt lat="58.58310833" lon="14.50072167"><ele>96.0</ele><time>2016-06-18T09:27:44.302Z</time></trkpt><trkpt lat="58.58325333" lon="14.50083167"><ele>96.0</ele><time>2016-06-18T09:27:45.321Z</time></trkpt><trkpt lat="58.58325333" lon="14.50083167"><ele>96.0</ele><time>2016-06-18T09:27:46.320Z</time></trkpt><trkpt lat="58.58340333" lon="14.50091833"><ele>97.0</ele><time>2016-06-18T09:27:47.289Z</time></trkpt><trkpt lat="58.58340333" lon="14.50091833"><ele>97.0</ele><time>2016-06-18T09:27:48.317Z</time></trkpt><trkpt lat="58.583555" lon="14.50100667"><ele>97.0</ele><time>2016-06-18T09:27:49.323Z</time></trkpt><trkpt lat="58.58363" lon="14.50106"><ele>97.0</ele><time>2016-06-18T09:27:50.296Z</time></trkpt><trkpt lat="58.58363" lon="14.50106"><ele>97.0</ele><time>2016-06-18T09:27:51.315Z</time></trkpt><trkpt lat="58.583775" lon="14.501165"><ele>97.0</ele><time>2016-06-18T09:27:52.321Z</time></trkpt><trkpt lat="58.58384833" lon="14.50121833"><ele>97.0</ele><time>2016-06-18T09:27:53.302Z</time></trkpt><trkpt lat="58.58384833" lon="14.50121833"><ele>97.0</ele><time>2016-06-18T09:27:54.289Z</time></trkpt><trkpt lat="58.58399333" lon="14.501325"><ele>98.0</ele><time>2016-06-18T09:27:55.297Z</time></trkpt><trkpt lat="58.58399333" lon="14.501325"><ele>98.0</ele><time>2016-06-18T09:27:56.297Z</time></trkpt><trkpt lat="58.584135" lon="14.50143"><ele>99.0</ele><time>2016-06-18T09:27:57.297Z</time></trkpt><trkpt lat="58.584135" lon="14.50143"><ele>99.0</ele><time>2016-06-18T09:27:58.296Z</time></trkpt><trkpt lat="58.58428667" lon="14.501545"><ele>99.0</ele><time>2016-06-18T09:27:59.304Z</time></trkpt><trkpt lat="58.58428667" lon="14.501545"><ele>99.0</ele><time>2016-06-18T09:28:00.316Z</time></trkpt><trkpt lat="58.58443333" lon="14.50165"><ele>99.0</ele><time>2016-06-18T09:28:01.288Z</time></trkpt><trkpt lat="58.58443333" lon="14.50165"><ele>99.0</ele><time>2016-06-18T09:28:02.282Z</time></trkpt><trkpt lat="58.58457333" lon="14.50176167"><ele>98.0</ele><time>2016-06-18T09:28:03.303Z</time></trkpt><trkpt lat="58.58457333" lon="14.50176167"><ele>98.0</ele><time>2016-06-18T09:28:04.301Z</time></trkpt><trkpt lat="58.58471167" lon="14.50185667"><ele>98.0</ele><time>2016-06-18T09:28:05.319Z</time></trkpt><trkpt lat="58.58471167" lon="14.50185667"><ele>98.0</ele><time>2016-06-18T09:28:06.290Z</time></trkpt><trkpt lat="58.58486333" lon="14.50198333"><ele>98.0</ele><time>2016-06-18T09:28:07.298Z</time></trkpt><trkpt lat="58.58494167" lon="14.502045"><ele>99.0</ele><time>2016-06-18T09:28:08.284Z</time></trkpt><trkpt lat="58.58494167" lon="14.502045"><ele>99.0</ele><time>2016-06-18T09:28:09.291Z</time></trkpt><trkpt lat="58.58509833" lon="14.50215333"><ele>99.0</ele><time>2016-06-18T09:28:10.298Z</time></trkpt><trkpt lat="58.58509833" lon="14.50215333"><ele>99.0</ele><time>2016-06-18T09:28:11.288Z</time></trkpt><trkpt lat="58.58525167" lon="14.50226667"><ele>100.0</ele><time>2016-06-18T09:28:12.289Z</time></trkpt><trkpt lat="58.58532833" lon="14.50232333"><ele>100.0</ele><time>2016-06-18T09:28:13.311Z</time></trkpt><trkpt lat="58.585405" lon="14.50238333"><ele>100.0</ele><time>2016-06-18T09:28:14.319Z</time></trkpt><trkpt lat="58.585405" lon="14.50238333"><ele>100.0</ele><time>2016-06-18T09:28:15.292Z</time></trkpt><trkpt lat="58.58556167" lon="14.50250333"><ele>100.0</ele><time>2016-06-18T09:28:16.297Z</time></trkpt><trkpt lat="58.58556167" lon="14.50250333"><ele>100.0</ele><time>2016-06-18T09:28:17.300Z</time></trkpt><trkpt lat="58.58571667" lon="14.50262667"><ele>100.0</ele><time>2016-06-18T09:28:18.306Z</time></trkpt><trkpt lat="58.58571667" lon="14.50262667"><ele>100.0</ele><time>2016-06-18T09:28:19.293Z</time></trkpt><trkpt lat="58.58586667" lon="14.502755"><ele>99.0</ele><time>2016-06-18T09:28:20.288Z</time></trkpt><trkpt lat="58.58586667" lon="14.502755"><ele>99.0</ele><time>2016-06-18T09:28:21.297Z</time></trkpt><trkpt lat="58.58602" lon="14.50288333"><ele>100.0</ele><time>2016-06-18T09:28:22.305Z</time></trkpt><trkpt lat="58.58602" lon="14.50288333"><ele>100.0</ele><time>2016-06-18T09:28:23.298Z</time></trkpt><trkpt lat="58.58617167" lon="14.50301"><ele>100.0</ele><time>2016-06-18T09:28:24.321Z</time></trkpt><trkpt lat="58.58617167" lon="14.50301"><ele>100.0</ele><time>2016-06-18T09:28:25.303Z</time></trkpt><trkpt lat="58.58632333" lon="14.50312667"><ele>101.0</ele><time>2016-06-18T09:28:26.310Z</time></trkpt><trkpt lat="58.58632333" lon="14.50312667"><ele>101.0</ele><time>2016-06-18T09:28:27.294Z</time></trkpt><trkpt lat="58.58647167" lon="14.50324667"><ele>101.0</ele><time>2016-06-18T09:28:28.320Z</time></trkpt><trkpt lat="58.58647167" lon="14.50324667"><ele>101.0</ele><time>2016-06-18T09:28:29.303Z</time></trkpt><trkpt lat="58.586615" lon="14.50335333"><ele>101.0</ele><time>2016-06-18T09:28:30.310Z</time></trkpt><trkpt lat="58.586615" lon="14.50335333"><ele>101.0</ele><time>2016-06-18T09:28:31.311Z</time></trkpt><trkpt lat="58.58676333" lon="14.50345833"><ele>102.0</ele><time>2016-06-18T09:28:32.318Z</time></trkpt><trkpt lat="58.58684" lon="14.503515"><ele>102.0</ele><time>2016-06-18T09:28:33.305Z</time></trkpt><trkpt lat="58.58684" lon="14.503515"><ele>102.0</ele><time>2016-06-18T09:28:34.297Z</time></trkpt><trkpt lat="58.58699167" lon="14.50363833"><ele>102.0</ele><time>2016-06-18T09:28:35.303Z</time></trkpt><trkpt lat="58.58699167" lon="14.50363833"><ele>102.0</ele><time>2016-06-18T09:28:36.299Z</time></trkpt><trkpt lat="58.587135" lon="14.50378167"><ele>101.0</ele><time>2016-06-18T09:28:37.288Z</time></trkpt><trkpt lat="58.587205" lon="14.50386167"><ele>101.0</ele><time>2016-06-18T09:28:38.283Z</time></trkpt><trkpt lat="58.587205" lon="14.50386167"><ele>101.0</ele><time>2016-06-18T09:28:39.307Z</time></trkpt><trkpt lat="58.58734833" lon="14.50401"><ele>101.0</ele><time>2016-06-18T09:28:40.296Z</time></trkpt><trkpt lat="58.58734833" lon="14.50401"><ele>101.0</ele><time>2016-06-18T09:28:41.316Z</time></trkpt><trkpt lat="58.58749" lon="14.50416"><ele>100.0</ele><time>2016-06-18T09:28:42.307Z</time></trkpt><trkpt lat="58.58756333" lon="14.50422667"><ele>100.0</ele><time>2016-06-18T09:28:43.315Z</time></trkpt><trkpt lat="58.58756333" lon="14.50422667"><ele>100.0</ele><time>2016-06-18T09:28:44.310Z</time></trkpt><trkpt lat="58.587695" lon="14.50436667"><ele>99.0</ele><time>2016-06-18T09:28:45.318Z</time></trkpt><trkpt lat="58.587695" lon="14.50436667"><ele>99.0</ele><time>2016-06-18T09:28:46.315Z</time></trkpt><trkpt lat="58.58783667" lon="14.50449167"><ele>98.0</ele><time>2016-06-18T09:28:47.295Z</time></trkpt><trkpt lat="58.58783667" lon="14.50449167"><ele>98.0</ele><time>2016-06-18T09:28:48.310Z</time></trkpt><trkpt lat="58.587975" lon="14.504615"><ele>98.0</ele><time>2016-06-18T09:28:49.318Z</time></trkpt><trkpt lat="58.58804333" lon="14.50467667"><ele>98.0</ele><time>2016-06-18T09:28:50.310Z</time></trkpt><trkpt lat="58.58804333" lon="14.50467667"><ele>98.0</ele><time>2016-06-18T09:28:51.318Z</time></trkpt><trkpt lat="58.588175" lon="14.50480167"><ele>97.0</ele><time>2016-06-18T09:28:52.289Z</time></trkpt><trkpt lat="58.588175" lon="14.50480167"><ele>97.0</ele><time>2016-06-18T09:28:53.314Z</time></trkpt><trkpt lat="58.588315" lon="14.50492333"><ele>98.0</ele><time>2016-06-18T09:28:54.321Z</time></trkpt><trkpt lat="58.588315" lon="14.50492333"><ele>98.0</ele><time>2016-06-18T09:28:55.302Z</time></trkpt><trkpt lat="58.58846" lon="14.50505167"><ele>99.0</ele><time>2016-06-18T09:28:56.320Z</time></trkpt><trkpt lat="58.58846" lon="14.50505167"><ele>99.0</ele><time>2016-06-18T09:28:57.315Z</time></trkpt><trkpt lat="58.58860167" lon="14.50518833"><ele>100.0</ele><time>2016-06-18T09:28:58.321Z</time></trkpt><trkpt lat="58.58867" lon="14.505255"><ele>100.0</ele><time>2016-06-18T09:28:59.284Z</time></trkpt><trkpt lat="58.58867" lon="14.505255"><ele>100.0</ele><time>2016-06-18T09:29:00.291Z</time></trkpt><trkpt lat="58.588805" lon="14.50538167"><ele>101.0</ele><time>2016-06-18T09:29:01.298Z</time></trkpt><trkpt lat="58.58886833" lon="14.50544667"><ele>101.0</ele><time>2016-06-18T09:29:02.297Z</time></trkpt><trkpt lat="58.58886833" lon="14.50544667"><ele>101.0</ele><time>2016-06-18T09:29:03.285Z</time></trkpt><trkpt lat="58.589" lon="14.50557"><ele>101.0</ele><time>2016-06-18T09:29:04.296Z</time></trkpt><trkpt lat="58.589" lon="14.50557"><ele>101.0</ele><time>2016-06-18T09:29:05.300Z</time></trkpt><trkpt lat="58.58913167" lon="14.505695"><ele>101.0</ele><time>2016-06-18T09:29:06.314Z</time></trkpt><trkpt lat="58.58913167" lon="14.505695"><ele>101.0</ele><time>2016-06-18T09:29:07.305Z</time></trkpt><trkpt lat="58.58926167" lon="14.50584333"><ele>102.0</ele><time>2016-06-18T09:29:08.311Z</time></trkpt><trkpt lat="58.58926167" lon="14.50584333"><ele>102.0</ele><time>2016-06-18T09:29:09.293Z</time></trkpt><trkpt lat="58.58939167" lon="14.50597333"><ele>102.0</ele><time>2016-06-18T09:29:10.322Z</time></trkpt><trkpt lat="58.58939167" lon="14.50597333"><ele>102.0</ele><time>2016-06-18T09:29:11.286Z</time></trkpt><trkpt lat="58.58952333" lon="14.50610667"><ele>102.0</ele><time>2016-06-18T09:29:12.299Z</time></trkpt><trkpt lat="58.58959" lon="14.50617167"><ele>102.0</ele><time>2016-06-18T09:29:13.293Z</time></trkpt><trkpt lat="58.58965667" lon="14.506235"><ele>102.0</ele><time>2016-06-18T09:29:14.314Z</time></trkpt><trkpt lat="58.58965667" lon="14.506235"><ele>102.0</ele><time>2016-06-18T09:29:15.295Z</time></trkpt><trkpt lat="58.58979167" lon="14.506365"><ele>102.0</ele><time>2016-06-18T09:29:16.302Z</time></trkpt><trkpt lat="58.58979167" lon="14.506365"><ele>102.0</ele><time>2016-06-18T09:29:17.318Z</time></trkpt><trkpt lat="58.58992333" lon="14.50650167"><ele>103.0</ele><time>2016-06-18T09:29:18.308Z</time></trkpt><trkpt lat="58.58999" lon="14.50656833"><ele>103.0</ele><time>2016-06-18T09:29:19.300Z</time></trkpt><trkpt lat="58.58999" lon="14.50656833"><ele>103.0</ele><time>2016-06-18T09:29:20.288Z</time></trkpt><trkpt lat="58.59012333" lon="14.50669333"><ele>103.0</ele><time>2016-06-18T09:29:21.295Z</time></trkpt><trkpt lat="58.59012333" lon="14.50669333"><ele>103.0</ele><time>2016-06-18T09:29:22.321Z</time></trkpt><trkpt lat="58.59025833" lon="14.50682833"><ele>103.0</ele><time>2016-06-18T09:29:23.322Z</time></trkpt><trkpt lat="58.59025833" lon="14.50682833"><ele>103.0</ele><time>2016-06-18T09:29:24.285Z</time></trkpt><trkpt lat="58.590385" lon="14.50697167"><ele>104.0</ele><time>2016-06-18T09:29:25.295Z</time></trkpt><trkpt lat="58.59044667" lon="14.50704167"><ele>104.0</ele><time>2016-06-18T09:29:26.298Z</time></trkpt><trkpt lat="58.59044667" lon="14.50704167"><ele>104.0</ele><time>2016-06-18T09:29:27.293Z</time></trkpt><trkpt lat="58.59057667" lon="14.50718333"><ele>104.0</ele><time>2016-06-18T09:29:28.300Z</time></trkpt><trkpt lat="58.59064167" lon="14.50725667"><ele>104.0</ele><time>2016-06-18T09:29:29.294Z</time></trkpt><trkpt lat="58.59064167" lon="14.50725667"><ele>104.0</ele><time>2016-06-18T09:29:30.309Z</time></trkpt><trkpt lat="58.59078" lon="14.5074"><ele>104.0</ele><time>2016-06-18T09:29:31.318Z</time></trkpt><trkpt lat="58.59078" lon="14.5074"><ele>104.0</ele><time>2016-06-18T09:29:32.300Z</time></trkpt><trkpt lat="58.59091167" lon="14.50754333"><ele>104.0</ele><time>2016-06-18T09:29:33.306Z</time></trkpt><trkpt lat="58.59091167" lon="14.50754333"><ele>104.0</ele><time>2016-06-18T09:29:34.311Z</time></trkpt><trkpt lat="58.59104167" lon="14.50769"><ele>105.0</ele><time>2016-06-18T09:29:35.319Z</time></trkpt><trkpt lat="58.59110667" lon="14.50775167"><ele>105.0</ele><time>2016-06-18T09:29:36.319Z</time></trkpt><trkpt lat="58.59110667" lon="14.50775167"><ele>105.0</ele><time>2016-06-18T09:29:37.315Z</time></trkpt><trkpt lat="58.591235" lon="14.50789"><ele>106.0</ele><time>2016-06-18T09:29:38.282Z</time></trkpt><trkpt lat="58.591235" lon="14.50789"><ele>106.0</ele><time>2016-06-18T09:29:39.306Z</time></trkpt><trkpt lat="58.59135333" lon="14.508035"><ele>106.0</ele><time>2016-06-18T09:29:40.306Z</time></trkpt><trkpt lat="58.59135333" lon="14.508035"><ele>106.0</ele><time>2016-06-18T09:29:41.300Z</time></trkpt><trkpt lat="58.59147333" lon="14.50817667"><ele>106.0</ele><time>2016-06-18T09:29:42.307Z</time></trkpt><trkpt lat="58.59153167" lon="14.50825"><ele>106.0</ele><time>2016-06-18T09:29:43.322Z</time></trkpt><trkpt lat="58.59153167" lon="14.50825"><ele>106.0</ele><time>2016-06-18T09:29:44.283Z</time></trkpt><trkpt lat="58.59165333" lon="14.508385"><ele>106.0</ele><time>2016-06-18T09:29:45.300Z</time></trkpt><trkpt lat="58.59165333" lon="14.508385"><ele>106.0</ele><time>2016-06-18T09:29:46.317Z</time></trkpt><trkpt lat="58.59177333" lon="14.508525"><ele>105.0</ele><time>2016-06-18T09:29:47.298Z</time></trkpt><trkpt lat="58.59177333" lon="14.508525"><ele>105.0</ele><time>2016-06-18T09:29:48.303Z</time></trkpt><trkpt lat="58.59189667" lon="14.50866667"><ele>105.0</ele><time>2016-06-18T09:29:49.310Z</time></trkpt><trkpt lat="58.59195833" lon="14.50874333"><ele>105.0</ele><time>2016-06-18T09:29:50.328Z</time></trkpt><trkpt lat="58.59195833" lon="14.50874333"><ele>105.0</ele><time>2016-06-18T09:29:51.322Z</time></trkpt><trkpt lat="58.59207833" lon="14.508895"><ele>105.0</ele><time>2016-06-18T09:29:52.293Z</time></trkpt><trkpt lat="58.59207833" lon="14.508895"><ele>105.0</ele><time>2016-06-18T09:29:53.296Z</time></trkpt><trkpt lat="58.59218833" lon="14.50905167"><ele>104.0</ele><time>2016-06-18T09:29:54.319Z</time></trkpt><trkpt lat="58.59224833" lon="14.50913"><ele>104.0</ele><time>2016-06-18T09:29:55.287Z</time></trkpt><trkpt lat="58.59231333" lon="14.50920333"><ele>104.0</ele><time>2016-06-18T09:29:56.304Z</time></trkpt><trkpt lat="58.59231333" lon="14.50920333"><ele>104.0</ele><time>2016-06-18T09:29:57.315Z</time></trkpt><trkpt lat="58.59244167" lon="14.50936"><ele>103.0</ele><time>2016-06-18T09:29:58.322Z</time></trkpt><trkpt lat="58.59244167" lon="14.50936"><ele>103.0</ele><time>2016-06-18T09:29:59.290Z</time></trkpt><trkpt lat="58.59256833" lon="14.50951167"><ele>102.0</ele><time>2016-06-18T09:30:00.299Z</time></trkpt><trkpt lat="58.59256833" lon="14.50951167"><ele>102.0</ele><time>2016-06-18T09:30:01.286Z</time></trkpt><trkpt lat="58.5927" lon="14.50967"><ele>101.0</ele><time>2016-06-18T09:30:02.298Z</time></trkpt><trkpt lat="58.5927" lon="14.50967"><ele>101.0</ele><time>2016-06-18T09:30:03.319Z</time></trkpt><trkpt lat="58.59283" lon="14.50983167"><ele>101.0</ele><time>2016-06-18T09:30:04.289Z</time></trkpt><trkpt lat="58.59289333" lon="14.50991"><ele>100.0</ele><time>2016-06-18T09:30:05.315Z</time></trkpt><trkpt lat="58.592955" lon="14.50999"><ele>100.0</ele><time>2016-06-18T09:30:06.285Z</time></trkpt><trkpt lat="58.592955" lon="14.50999"><ele>100.0</ele><time>2016-06-18T09:30:07.292Z</time></trkpt><trkpt lat="58.59307167" lon="14.51015333"><ele>99.0</ele><time>2016-06-18T09:30:08.298Z</time></trkpt><trkpt lat="58.59307167" lon="14.51015333"><ele>99.0</ele><time>2016-06-18T09:30:09.284Z</time></trkpt><trkpt lat="58.59318" lon="14.510305"><ele>98.0</ele><time>2016-06-18T09:30:10.313Z</time></trkpt><trkpt lat="58.59318" lon="14.510305"><ele>98.0</ele><time>2016-06-18T09:30:11.294Z</time></trkpt><trkpt lat="58.593295" lon="14.51046667"><ele>98.0</ele><time>2016-06-18T09:30:12.285Z</time></trkpt><trkpt lat="58.593295" lon="14.51046667"><ele>98.0</ele><time>2016-06-18T09:30:13.312Z</time></trkpt><trkpt lat="58.59340667" lon="14.51064167"><ele>97.0</ele><time>2016-06-18T09:30:14.319Z</time></trkpt><trkpt lat="58.59340667" lon="14.51064167"><ele>97.0</ele><time>2016-06-18T09:30:15.289Z</time></trkpt><trkpt lat="58.59352667" lon="14.51081833"><ele>96.0</ele><time>2016-06-18T09:30:16.298Z</time></trkpt><trkpt lat="58.59352667" lon="14.51081833"><ele>96.0</ele><time>2016-06-18T09:30:17.292Z</time></trkpt><trkpt lat="58.59366167" lon="14.510985"><ele>95.0</ele><time>2016-06-18T09:30:18.299Z</time></trkpt><trkpt lat="58.593725" lon="14.51106167"><ele>95.0</ele><time>2016-06-18T09:30:19.300Z</time></trkpt><trkpt lat="58.59379167" lon="14.51114667"><ele>94.0</ele><time>2016-06-18T09:30:20.290Z</time></trkpt><trkpt lat="58.59379167" lon="14.51114667"><ele>94.0</ele><time>2016-06-18T09:30:21.315Z</time></trkpt><trkpt lat="58.59392" lon="14.51132333"><ele>93.0</ele><time>2016-06-18T09:30:22.320Z</time></trkpt><trkpt lat="58.59392" lon="14.51132333"><ele>93.0</ele><time>2016-06-18T09:30:23.295Z</time></trkpt><trkpt lat="58.59406" lon="14.51150333"><ele>93.0</ele><time>2016-06-18T09:30:24.319Z</time></trkpt><trkpt lat="58.59406" lon="14.51150333"><ele>93.0</ele><time>2016-06-18T09:30:25.282Z</time></trkpt><trkpt lat="58.594195" lon="14.5117"><ele>92.0</ele><time>2016-06-18T09:30:26.298Z</time></trkpt><trkpt lat="58.594195" lon="14.5117"><ele>92.0</ele><time>2016-06-18T09:30:27.313Z</time></trkpt><trkpt lat="58.59433" lon="14.51189667"><ele>91.0</ele><time>2016-06-18T09:30:28.306Z</time></trkpt><trkpt lat="58.59433" lon="14.51189667"><ele>91.0</ele><time>2016-06-18T09:30:29.300Z</time></trkpt><trkpt lat="58.59447333" lon="14.51208667"><ele>90.0</ele><time>2016-06-18T09:30:30.306Z</time></trkpt><trkpt lat="58.59453833" lon="14.51218167"><ele>89.0</ele><time>2016-06-18T09:30:31.320Z</time></trkpt><trkpt lat="58.59453833" lon="14.51218167"><ele>89.0</ele><time>2016-06-18T09:30:32.293Z</time></trkpt><trkpt lat="58.59466667" lon="14.51237167"><ele>88.0</ele><time>2016-06-18T09:30:33.297Z</time></trkpt><trkpt lat="58.59473333" lon="14.51246833"><ele>87.0</ele><time>2016-06-18T09:30:34.309Z</time></trkpt><trkpt lat="58.59473333" lon="14.51246833"><ele>87.0</ele><time>2016-06-18T09:30:35.287Z</time></trkpt><trkpt lat="58.59487167" lon="14.51266"><ele>86.0</ele><time>2016-06-18T09:30:36.294Z</time></trkpt><trkpt lat="58.59493833" lon="14.512755"><ele>85.0</ele><time>2016-06-18T09:30:37.318Z</time></trkpt><trkpt lat="58.59500667" lon="14.51285667"><ele>85.0</ele><time>2016-06-18T09:30:38.287Z</time></trkpt><trkpt lat="58.59500667" lon="14.51285667"><ele>85.0</ele><time>2016-06-18T09:30:39.315Z</time></trkpt><trkpt lat="58.59514167" lon="14.51306167"><ele>84.0</ele><time>2016-06-18T09:30:40.321Z</time></trkpt><trkpt lat="58.59514167" lon="14.51306167"><ele>84.0</ele><time>2016-06-18T09:30:41.302Z</time></trkpt><trkpt lat="58.59527833" lon="14.51325667"><ele>83.0</ele><time>2016-06-18T09:30:42.309Z</time></trkpt><trkpt lat="58.59527833" lon="14.51325667"><ele>83.0</ele><time>2016-06-18T09:30:43.303Z</time></trkpt><trkpt lat="58.59542" lon="14.51344167"><ele>82.0</ele><time>2016-06-18T09:30:44.309Z</time></trkpt><trkpt lat="58.59542" lon="14.51344167"><ele>82.0</ele><time>2016-06-18T09:30:45.316Z</time></trkpt><trkpt lat="58.59556" lon="14.51363833"><ele>80.0</ele><time>2016-06-18T09:30:46.318Z</time></trkpt><trkpt lat="58.59556" lon="14.51363833"><ele>80.0</ele><time>2016-06-18T09:30:47.288Z</time></trkpt><trkpt lat="58.595695" lon="14.51384167"><ele>79.0</ele><time>2016-06-18T09:30:48.301Z</time></trkpt><trkpt lat="58.595695" lon="14.51384167"><ele>79.0</ele><time>2016-06-18T09:30:49.301Z</time></trkpt><trkpt lat="58.59583" lon="14.51404167"><ele>77.0</ele><time>2016-06-18T09:30:50.288Z</time></trkpt><trkpt lat="58.59583" lon="14.51404167"><ele>77.0</ele><time>2016-06-18T09:30:51.312Z</time></trkpt><trkpt lat="58.595955" lon="14.51425167"><ele>76.0</ele><time>2016-06-18T09:30:52.319Z</time></trkpt><trkpt lat="58.595955" lon="14.51425167"><ele>76.0</ele><time>2016-06-18T09:30:53.290Z</time></trkpt><trkpt lat="58.59608" lon="14.514475"><ele>75.0</ele><time>2016-06-18T09:30:54.311Z</time></trkpt><trkpt lat="58.59608" lon="14.514475"><ele>75.0</ele><time>2016-06-18T09:30:55.293Z</time></trkpt><trkpt lat="58.59622" lon="14.51469333"><ele>73.0</ele><time>2016-06-18T09:30:56.304Z</time></trkpt><trkpt lat="58.59622" lon="14.51469333"><ele>73.0</ele><time>2016-06-18T09:30:57.291Z</time></trkpt><trkpt lat="58.59636" lon="14.51490667"><ele>72.0</ele><time>2016-06-18T09:30:58.310Z</time></trkpt><trkpt lat="58.59636" lon="14.51490667"><ele>72.0</ele><time>2016-06-18T09:30:59.302Z</time></trkpt><trkpt lat="58.59649833" lon="14.51511167"><ele>70.0</ele><time>2016-06-18T09:31:00.309Z</time></trkpt><trkpt lat="58.59649833" lon="14.51511167"><ele>70.0</ele><time>2016-06-18T09:31:01.315Z</time></trkpt><trkpt lat="58.59662333" lon="14.515335"><ele>69.0</ele><time>2016-06-18T09:31:02.320Z</time></trkpt><trkpt lat="58.59662333" lon="14.515335"><ele>69.0</ele><time>2016-06-18T09:31:03.294Z</time></trkpt><trkpt lat="58.59674833" lon="14.51556833"><ele>67.0</ele><time>2016-06-18T09:31:04.316Z</time></trkpt><trkpt lat="58.59674833" lon="14.51556833"><ele>67.0</ele><time>2016-06-18T09:31:05.297Z</time></trkpt><trkpt lat="58.59686833" lon="14.51579"><ele>66.0</ele><time>2016-06-18T09:31:06.303Z</time></trkpt><trkpt lat="58.59693167" lon="14.5159"><ele>65.0</ele><time>2016-06-18T09:31:07.292Z</time></trkpt><trkpt lat="58.59699667" lon="14.51601167"><ele>64.0</ele><time>2016-06-18T09:31:08.315Z</time></trkpt><trkpt lat="58.59699667" lon="14.51601167"><ele>64.0</ele><time>2016-06-18T09:31:09.295Z</time></trkpt><trkpt lat="58.59712" lon="14.51623167"><ele>63.0</ele><time>2016-06-18T09:31:10.321Z</time></trkpt><trkpt lat="58.59712" lon="14.51623167"><ele>63.0</ele><time>2016-06-18T09:31:11.290Z</time></trkpt><trkpt lat="58.59725333" lon="14.51645"><ele>61.0</ele><time>2016-06-18T09:31:12.396Z</time></trkpt><trkpt lat="58.59725333" lon="14.51645"><ele>61.0</ele><time>2016-06-18T09:31:13.294Z</time></trkpt><trkpt lat="58.59738167" lon="14.51667333"><ele>60.0</ele><time>2016-06-18T09:31:14.304Z</time></trkpt><trkpt lat="58.59738167" lon="14.51667333"><ele>60.0</ele><time>2016-06-18T09:31:15.283Z</time></trkpt><trkpt lat="58.59753167" lon="14.51690333"><ele>60.0</ele><time>2016-06-18T09:31:16.291Z</time></trkpt><trkpt lat="58.59761167" lon="14.51701833"><ele>61.0</ele><time>2016-06-18T09:31:17.308Z</time></trkpt><trkpt lat="58.59761167" lon="14.51701833"><ele>61.0</ele><time>2016-06-18T09:31:18.301Z</time></trkpt><trkpt lat="58.59777" lon="14.517245"><ele>63.0</ele><time>2016-06-18T09:31:19.308Z</time></trkpt><trkpt lat="58.59783833" lon="14.51735333"><ele>62.0</ele><time>2016-06-18T09:31:20.305Z</time></trkpt><trkpt lat="58.59783833" lon="14.51735333"><ele>62.0</ele><time>2016-06-18T09:31:21.300Z</time></trkpt><trkpt lat="58.598005" lon="14.51758667"><ele>67.0</ele><time>2016-06-18T09:31:22.307Z</time></trkpt><trkpt lat="58.598005" lon="14.51758667"><ele>67.0</ele><time>2016-06-18T09:31:23.304Z</time></trkpt><trkpt lat="58.59814833" lon="14.51782167"><ele>68.0</ele><time>2016-06-18T09:31:24.318Z</time></trkpt><trkpt lat="58.59814833" lon="14.51782167"><ele>68.0</ele><time>2016-06-18T09:31:25.287Z</time></trkpt><trkpt lat="58.59828833" lon="14.51805333"><ele>68.0</ele><time>2016-06-18T09:31:26.295Z</time></trkpt><trkpt lat="58.598365" lon="14.51816833"><ele>69.0</ele><time>2016-06-18T09:31:27.304Z</time></trkpt><trkpt lat="58.598365" lon="14.51816833"><ele>69.0</ele><time>2016-06-18T09:31:28.297Z</time></trkpt><trkpt lat="58.59850333" lon="14.51838667"><ele>70.0</ele><time>2016-06-18T09:31:29.304Z</time></trkpt><trkpt lat="58.59850333" lon="14.51838667"><ele>70.0</ele><time>2016-06-18T09:31:30.295Z</time></trkpt><trkpt lat="58.59863" lon="14.51862667"><ele>70.0</ele><time>2016-06-18T09:31:31.318Z</time></trkpt><trkpt lat="58.59870167" lon="14.51873833"><ele>70.0</ele><time>2016-06-18T09:31:32.312Z</time></trkpt><trkpt lat="58.59870167" lon="14.51873833"><ele>70.0</ele><time>2016-06-18T09:31:33.295Z</time></trkpt><trkpt lat="58.59884667" lon="14.51897333"><ele>70.0</ele><time>2016-06-18T09:31:34.302Z</time></trkpt><trkpt lat="58.59892167" lon="14.51910167"><ele>72.0</ele><time>2016-06-18T09:31:35.318Z</time></trkpt><trkpt lat="58.598995" lon="14.519235"><ele>73.0</ele><time>2016-06-18T09:31:36.301Z</time></trkpt><trkpt lat="58.598995" lon="14.519235"><ele>73.0</ele><time>2016-06-18T09:31:37.290Z</time></trkpt><trkpt lat="58.59913333" lon="14.51948833"><ele>72.0</ele><time>2016-06-18T09:31:38.301Z</time></trkpt><trkpt lat="58.59913333" lon="14.51948833"><ele>72.0</ele><time>2016-06-18T09:31:39.305Z</time></trkpt><trkpt lat="58.59927667" lon="14.51973167"><ele>72.0</ele><time>2016-06-18T09:31:40.312Z</time></trkpt><trkpt lat="58.59927667" lon="14.51973167"><ele>72.0</ele><time>2016-06-18T09:31:41.303Z</time></trkpt><trkpt lat="58.59941333" lon="14.51997833"><ele>71.0</ele><time>2016-06-18T09:31:42.316Z</time></trkpt><trkpt lat="58.59941333" lon="14.51997833"><ele>71.0</ele><time>2016-06-18T09:31:43.291Z</time></trkpt><trkpt lat="58.599565" lon="14.52022667"><ele>73.0</ele><time>2016-06-18T09:31:44.299Z</time></trkpt><trkpt lat="58.599565" lon="14.52022667"><ele>73.0</ele><time>2016-06-18T09:31:45.318Z</time></trkpt><trkpt lat="58.59972833" lon="14.52048667"><ele>76.0</ele><time>2016-06-18T09:31:46.318Z</time></trkpt><trkpt lat="58.59972833" lon="14.52048667"><ele>76.0</ele><time>2016-06-18T09:31:47.308Z</time></trkpt><trkpt lat="58.59989333" lon="14.52074167"><ele>79.0</ele><time>2016-06-18T09:31:48.316Z</time></trkpt><trkpt lat="58.59997167" lon="14.52086667"><ele>81.0</ele><time>2016-06-18T09:31:49.315Z</time></trkpt><trkpt lat="58.60004833" lon="14.52099167"><ele>81.0</ele><time>2016-06-18T09:31:50.290Z</time></trkpt><trkpt lat="58.60004833" lon="14.52099167"><ele>81.0</ele><time>2016-06-18T09:31:51.316Z</time></trkpt><trkpt lat="58.60021833" lon="14.52122333"><ele>85.0</ele><time>2016-06-18T09:31:52.282Z</time></trkpt><trkpt lat="58.60030667" lon="14.52133833"><ele>88.0</ele><time>2016-06-18T09:31:53.308Z</time></trkpt><trkpt lat="58.60030667" lon="14.52133833"><ele>88.0</ele><time>2016-06-18T09:31:54.320Z</time></trkpt><trkpt lat="58.60045333" lon="14.52158333"><ele>90.0</ele><time>2016-06-18T09:31:55.289Z</time></trkpt><trkpt lat="58.60045333" lon="14.52158333"><ele>90.0</ele><time>2016-06-18T09:31:56.306Z</time></trkpt><trkpt lat="58.60059167" lon="14.52182333"><ele>92.0</ele><time>2016-06-18T09:31:57.317Z</time></trkpt><trkpt lat="58.60059167" lon="14.52182333"><ele>92.0</ele><time>2016-06-18T09:31:58.289Z</time></trkpt><trkpt lat="58.60072667" lon="14.52205667"><ele>93.0</ele><time>2016-06-18T09:31:59.287Z</time></trkpt><trkpt lat="58.60072667" lon="14.52205667"><ele>93.0</ele><time>2016-06-18T09:32:00.282Z</time></trkpt><trkpt lat="58.60086167" lon="14.52229"><ele>94.0</ele><time>2016-06-18T09:32:01.290Z</time></trkpt><trkpt lat="58.60092667" lon="14.522405"><ele>95.0</ele><time>2016-06-18T09:32:02.321Z</time></trkpt><trkpt lat="58.60092667" lon="14.522405"><ele>95.0</ele><time>2016-06-18T09:32:03.296Z</time></trkpt><trkpt lat="58.60106" lon="14.52262333"><ele>96.0</ele><time>2016-06-18T09:32:04.304Z</time></trkpt><trkpt lat="58.60106" lon="14.52262333"><ele>96.0</ele><time>2016-06-18T09:32:05.293Z</time></trkpt><trkpt lat="58.60119167" lon="14.52283667"><ele>96.0</ele><time>2016-06-18T09:32:06.318Z</time></trkpt><trkpt lat="58.60119167" lon="14.52283667"><ele>96.0</ele><time>2016-06-18T09:32:07.312Z</time></trkpt><trkpt lat="58.60131667" lon="14.52305667"><ele>96.0</ele><time>2016-06-18T09:32:08.320Z</time></trkpt><trkpt lat="58.60131667" lon="14.52305667"><ele>96.0</ele><time>2016-06-18T09:32:09.302Z</time></trkpt><trkpt lat="58.60145333" lon="14.52328"><ele>98.0</ele><time>2016-06-18T09:32:10.320Z</time></trkpt><trkpt lat="58.60145333" lon="14.52328"><ele>98.0</ele><time>2016-06-18T09:32:11.289Z</time></trkpt><trkpt lat="58.60158833" lon="14.52350833"><ele>100.0</ele><time>2016-06-18T09:32:12.321Z</time></trkpt><trkpt lat="58.60158833" lon="14.52350833"><ele>100.0</ele><time>2016-06-18T09:32:13.304Z</time></trkpt><trkpt lat="58.601725" lon="14.523735"><ele>101.0</ele><time>2016-06-18T09:32:14.310Z</time></trkpt><trkpt lat="58.60179" lon="14.52384833"><ele>102.0</ele><time>2016-06-18T09:32:15.318Z</time></trkpt><trkpt lat="58.60179" lon="14.52384833"><ele>102.0</ele><time>2016-06-18T09:32:16.301Z</time></trkpt><trkpt lat="58.60192333" lon="14.52407333"><ele>102.0</ele><time>2016-06-18T09:32:17.311Z</time></trkpt><trkpt lat="58.60198667" lon="14.52418333"><ele>103.0</ele><time>2016-06-18T09:32:18.308Z</time></trkpt><trkpt lat="58.60198667" lon="14.52418333"><ele>103.0</ele><time>2016-06-18T09:32:19.316Z</time></trkpt><trkpt lat="58.602115" lon="14.52440667"><ele>103.0</ele><time>2016-06-18T09:32:20.283Z</time></trkpt><trkpt lat="58.602115" lon="14.52440667"><ele>103.0</ele><time>2016-06-18T09:32:21.320Z</time></trkpt><trkpt lat="58.60224667" lon="14.52462833"><ele>104.0</ele><time>2016-06-18T09:32:22.319Z</time></trkpt><trkpt lat="58.60224667" lon="14.52462833"><ele>104.0</ele><time>2016-06-18T09:32:23.282Z</time></trkpt><trkpt lat="58.60237333" lon="14.52484833"><ele>104.0</ele><time>2016-06-18T09:32:24.290Z</time></trkpt><trkpt lat="58.60243833" lon="14.52495667"><ele>104.0</ele><time>2016-06-18T09:32:25.310Z</time></trkpt><trkpt lat="58.6025" lon="14.52506667"><ele>105.0</ele><time>2016-06-18T09:32:26.308Z</time></trkpt><trkpt lat="58.6025" lon="14.52506667"><ele>105.0</ele><time>2016-06-18T09:32:27.293Z</time></trkpt><trkpt lat="58.60262167" lon="14.525285"><ele>105.0</ele><time>2016-06-18T09:32:28.313Z</time></trkpt><trkpt lat="58.60268333" lon="14.52539"><ele>105.0</ele><time>2016-06-18T09:32:29.287Z</time></trkpt><trkpt lat="58.60268333" lon="14.52539"><ele>105.0</ele><time>2016-06-18T09:32:30.283Z</time></trkpt><trkpt lat="58.60280333" lon="14.52559833"><ele>104.0</ele><time>2016-06-18T09:32:31.318Z</time></trkpt><trkpt lat="58.60286333" lon="14.52569667"><ele>105.0</ele><time>2016-06-18T09:32:32.321Z</time></trkpt><trkpt lat="58.60286333" lon="14.52569667"><ele>105.0</ele><time>2016-06-18T09:32:33.304Z</time></trkpt><trkpt lat="58.60298167" lon="14.525885"><ele>105.0</ele><time>2016-06-18T09:32:34.319Z</time></trkpt><trkpt lat="58.60304" lon="14.52597667"><ele>105.0</ele><time>2016-06-18T09:32:35.283Z</time></trkpt><trkpt lat="58.60304" lon="14.52597667"><ele>105.0</ele><time>2016-06-18T09:32:36.307Z</time></trkpt><trkpt lat="58.60315333" lon="14.526155"><ele>107.0</ele><time>2016-06-18T09:32:37.286Z</time></trkpt><trkpt lat="58.60320833" lon="14.526255"><ele>107.0</ele><time>2016-06-18T09:32:38.285Z</time></trkpt><trkpt lat="58.60320833" lon="14.526255"><ele>107.0</ele><time>2016-06-18T09:32:39.306Z</time></trkpt><trkpt lat="58.60331333" lon="14.526455"><ele>108.0</ele><time>2016-06-18T09:32:40.316Z</time></trkpt><trkpt lat="58.60331333" lon="14.526455"><ele>108.0</ele><time>2016-06-18T09:32:41.321Z</time></trkpt><trkpt lat="58.60342" lon="14.52664"><ele>109.0</ele><time>2016-06-18T09:32:42.289Z</time></trkpt><trkpt lat="58.60347333" lon="14.526725"><ele>110.0</ele><time>2016-06-18T09:32:43.284Z</time></trkpt><trkpt lat="58.60347333" lon="14.526725"><ele>110.0</ele><time>2016-06-18T09:32:44.310Z</time></trkpt><trkpt lat="58.60357667" lon="14.52689333"><ele>110.0</ele><time>2016-06-18T09:32:45.284Z</time></trkpt><trkpt lat="58.60357667" lon="14.52689333"><ele>110.0</ele><time>2016-06-18T09:32:46.302Z</time></trkpt><trkpt lat="58.60367833" lon="14.52706333"><ele>110.0</ele><time>2016-06-18T09:32:47.309Z</time></trkpt><trkpt lat="58.60372667" lon="14.52713667"><ele>110.0</ele><time>2016-06-18T09:32:48.301Z</time></trkpt><trkpt lat="58.60372667" lon="14.52713667"><ele>110.0</ele><time>2016-06-18T09:32:49.314Z</time></trkpt><trkpt lat="58.60382333" lon="14.52728667"><ele>111.0</ele><time>2016-06-18T09:32:50.321Z</time></trkpt><trkpt lat="58.60382333" lon="14.52728667"><ele>111.0</ele><time>2016-06-18T09:32:51.303Z</time></trkpt><trkpt lat="58.603915" lon="14.52743"><ele>111.0</ele><time>2016-06-18T09:32:52.319Z</time></trkpt><trkpt lat="58.603915" lon="14.52743"><ele>111.0</ele><time>2016-06-18T09:32:53.292Z</time></trkpt><trkpt lat="58.604005" lon="14.52756667"><ele>112.0</ele><time>2016-06-18T09:32:54.308Z</time></trkpt><trkpt lat="58.604005" lon="14.52756667"><ele>112.0</ele><time>2016-06-18T09:32:55.295Z</time></trkpt><trkpt lat="58.604095" lon="14.52769667"><ele>112.0</ele><time>2016-06-18T09:32:56.318Z</time></trkpt><trkpt lat="58.604095" lon="14.52769667"><ele>112.0</ele><time>2016-06-18T09:32:57.321Z</time></trkpt><trkpt lat="58.604185" lon="14.52782833"><ele>113.0</ele><time>2016-06-18T09:32:58.289Z</time></trkpt><trkpt lat="58.604185" lon="14.52782833"><ele>113.0</ele><time>2016-06-18T09:32:59.317Z</time></trkpt><trkpt lat="58.60427333" lon="14.52795333"><ele>113.0</ele><time>2016-06-18T09:33:00.297Z</time></trkpt><trkpt lat="58.60431667" lon="14.52801833"><ele>113.0</ele><time>2016-06-18T09:33:01.312Z</time></trkpt><trkpt lat="58.60436" lon="14.52808167"><ele>113.0</ele><time>2016-06-18T09:33:02.320Z</time></trkpt><trkpt lat="58.60436" lon="14.52808167"><ele>113.0</ele><time>2016-06-18T09:33:03.296Z</time></trkpt><trkpt lat="58.604445" lon="14.52821167"><ele>114.0</ele><time>2016-06-18T09:33:04.282Z</time></trkpt><trkpt lat="58.604485" lon="14.52827"><ele>115.0</ele><time>2016-06-18T09:33:05.303Z</time></trkpt><trkpt lat="58.604485" lon="14.52827"><ele>115.0</ele><time>2016-06-18T09:33:06.288Z</time></trkpt><trkpt lat="58.60456167" lon="14.52839167"><ele>115.0</ele><time>2016-06-18T09:33:07.296Z</time></trkpt><trkpt lat="58.6046" lon="14.52844167"><ele>115.0</ele><time>2016-06-18T09:33:08.284Z</time></trkpt><trkpt lat="58.6046" lon="14.52844167"><ele>115.0</ele><time>2016-06-18T09:33:09.306Z</time></trkpt><trkpt lat="58.60467833" lon="14.52854667"><ele>116.0</ele><time>2016-06-18T09:33:10.317Z</time></trkpt><trkpt lat="58.60467833" lon="14.52854667"><ele>116.0</ele><time>2016-06-18T09:33:11.285Z</time></trkpt><trkpt lat="58.60476" lon="14.528645"><ele>116.0</ele><time>2016-06-18T09:33:12.303Z</time></trkpt><trkpt lat="58.6048" lon="14.528695"><ele>116.0</ele><time>2016-06-18T09:33:13.304Z</time></trkpt><trkpt lat="58.6048" lon="14.528695"><ele>116.0</ele><time>2016-06-18T09:33:14.294Z</time></trkpt><trkpt lat="58.60488" lon="14.52880333"><ele>117.0</ele><time>2016-06-18T09:33:15.307Z</time></trkpt><trkpt lat="58.604915" lon="14.52885667"><ele>117.0</ele><time>2016-06-18T09:33:16.285Z</time></trkpt><trkpt lat="58.604915" lon="14.52885667"><ele>117.0</ele><time>2016-06-18T09:33:17.295Z</time></trkpt><trkpt lat="58.60499667" lon="14.52895333"><ele>117.0</ele><time>2016-06-18T09:33:18.303Z</time></trkpt><trkpt lat="58.60499667" lon="14.52895333"><ele>117.0</ele><time>2016-06-18T09:33:19.290Z</time></trkpt><trkpt lat="58.60507667" lon="14.52905333"><ele>118.0</ele><time>2016-06-18T09:33:20.317Z</time></trkpt><trkpt lat="58.60507667" lon="14.52905333"><ele>118.0</ele><time>2016-06-18T09:33:21.297Z</time></trkpt><trkpt lat="58.60515" lon="14.52914667"><ele>118.0</ele><time>2016-06-18T09:33:22.304Z</time></trkpt><trkpt lat="58.60517833" lon="14.529195"><ele>118.0</ele><time>2016-06-18T09:33:23.304Z</time></trkpt><trkpt lat="58.60521667" lon="14.52924"><ele>118.0</ele><time>2016-06-18T09:33:24.320Z</time></trkpt><trkpt lat="58.60521667" lon="14.52924"><ele>118.0</ele><time>2016-06-18T09:33:25.303Z</time></trkpt><trkpt lat="58.60528667" lon="14.529325"><ele>117.0</ele><time>2016-06-18T09:33:26.317Z</time></trkpt><trkpt lat="58.60528667" lon="14.529325"><ele>117.0</ele><time>2016-06-18T09:33:27.301Z</time></trkpt><trkpt lat="58.60535667" lon="14.52941"><ele>117.0</ele><time>2016-06-18T09:33:28.307Z</time></trkpt><trkpt lat="58.60535667" lon="14.52941"><ele>117.0</ele><time>2016-06-18T09:33:29.294Z</time></trkpt><trkpt lat="58.60542167" lon="14.52949667"><ele>117.0</ele><time>2016-06-18T09:33:30.287Z</time></trkpt><trkpt lat="58.60542167" lon="14.52949667"><ele>117.0</ele><time>2016-06-18T09:33:31.307Z</time></trkpt><trkpt lat="58.60548833" lon="14.52957333"><ele>117.0</ele><time>2016-06-18T09:33:32.313Z</time></trkpt><trkpt lat="58.60548833" lon="14.52957333"><ele>117.0</ele><time>2016-06-18T09:33:33.319Z</time></trkpt><trkpt lat="58.605565" lon="14.52964833"><ele>117.0</ele><time>2016-06-18T09:33:34.319Z</time></trkpt><trkpt lat="58.605565" lon="14.52964833"><ele>117.0</ele><time>2016-06-18T09:33:35.295Z</time></trkpt><trkpt lat="58.60563833" lon="14.52974"><ele>117.0</ele><time>2016-06-18T09:33:36.302Z</time></trkpt><trkpt lat="58.60567333" lon="14.52978167"><ele>116.0</ele><time>2016-06-18T09:33:37.290Z</time></trkpt><trkpt lat="58.60567333" lon="14.52978167"><ele>116.0</ele><time>2016-06-18T09:33:38.299Z</time></trkpt><trkpt lat="58.60575667" lon="14.529855"><ele>116.0</ele><time>2016-06-18T09:33:39.306Z</time></trkpt><trkpt lat="58.60575667" lon="14.529855"><ele>116.0</ele><time>2016-06-18T09:33:40.302Z</time></trkpt><trkpt lat="58.60583333" lon="14.52993667"><ele>116.0</ele><time>2016-06-18T09:33:41.318Z</time></trkpt><trkpt lat="58.60583333" lon="14.52993667"><ele>116.0</ele><time>2016-06-18T09:33:42.286Z</time></trkpt><trkpt lat="58.60591167" lon="14.53001"><ele>116.0</ele><time>2016-06-18T09:33:43.295Z</time></trkpt><trkpt lat="58.60594333" lon="14.53004333"><ele>116.0</ele><time>2016-06-18T09:33:44.282Z</time></trkpt><trkpt lat="58.60594333" lon="14.53004333"><ele>116.0</ele><time>2016-06-18T09:33:45.290Z</time></trkpt><trkpt lat="58.60601833" lon="14.53011167"><ele>116.0</ele><time>2016-06-18T09:33:46.298Z</time></trkpt><trkpt lat="58.60605667" lon="14.53014833"><ele>116.0</ele><time>2016-06-18T09:33:47.299Z</time></trkpt><trkpt lat="58.60609667" lon="14.530185"><ele>116.0</ele><time>2016-06-18T09:33:48.319Z</time></trkpt><trkpt lat="58.60609667" lon="14.530185"><ele>116.0</ele><time>2016-06-18T09:33:49.302Z</time></trkpt><trkpt lat="58.606175" lon="14.53026667"><ele>117.0</ele><time>2016-06-18T09:33:50.286Z</time></trkpt><trkpt lat="58.606175" lon="14.53026667"><ele>117.0</ele><time>2016-06-18T09:33:51.301Z</time></trkpt><trkpt lat="58.60625" lon="14.53033833"><ele>117.0</ele><time>2016-06-18T09:33:52.311Z</time></trkpt><trkpt lat="58.60628833" lon="14.53036833"><ele>118.0</ele><time>2016-06-18T09:33:53.326Z</time></trkpt><trkpt lat="58.60628833" lon="14.53036833"><ele>118.0</ele><time>2016-06-18T09:33:54.300Z</time></trkpt><trkpt lat="58.60635833" lon="14.53044167"><ele>118.0</ele><time>2016-06-18T09:33:55.307Z</time></trkpt><trkpt lat="58.606395" lon="14.53047833"><ele>118.0</ele><time>2016-06-18T09:33:56.320Z</time></trkpt><trkpt lat="58.606395" lon="14.53047833"><ele>118.0</ele><time>2016-06-18T09:33:57.310Z</time></trkpt><trkpt lat="58.60647" lon="14.53054667"><ele>119.0</ele><time>2016-06-18T09:33:58.320Z</time></trkpt><trkpt lat="58.606505" lon="14.53058167"><ele>119.0</ele><time>2016-06-18T09:33:59.312Z</time></trkpt><trkpt lat="58.606505" lon="14.53058167"><ele>119.0</ele><time>2016-06-18T09:34:00.307Z</time></trkpt><trkpt lat="58.60657667" lon="14.53065"><ele>120.0</ele><time>2016-06-18T09:34:01.317Z</time></trkpt><trkpt lat="58.60661833" lon="14.530685"><ele>120.0</ele><time>2016-06-18T09:34:02.301Z</time></trkpt><trkpt lat="58.60661833" lon="14.530685"><ele>120.0</ele><time>2016-06-18T09:34:03.287Z</time></trkpt><trkpt lat="58.6067" lon="14.53075333"><ele>121.0</ele><time>2016-06-18T09:34:04.286Z</time></trkpt><trkpt lat="58.60674333" lon="14.530795"><ele>121.0</ele><time>2016-06-18T09:34:05.304Z</time></trkpt><trkpt lat="58.60678833" lon="14.53082833"><ele>122.0</ele><time>2016-06-18T09:34:06.295Z</time></trkpt><trkpt lat="58.60681667" lon="14.53086833"><ele>122.0</ele><time>2016-06-18T09:34:07.307Z</time></trkpt><trkpt lat="58.60685333" lon="14.53090167"><ele>122.0</ele><time>2016-06-18T09:34:08.317Z</time></trkpt><trkpt lat="58.60685333" lon="14.53090167"><ele>122.0</ele><time>2016-06-18T09:34:09.299Z</time></trkpt><trkpt lat="58.606935" lon="14.53095"><ele>123.0</ele><time>2016-06-18T09:34:10.298Z</time></trkpt><trkpt lat="58.606935" lon="14.53095"><ele>123.0</ele><time>2016-06-18T09:34:11.303Z</time></trkpt><trkpt lat="58.60700833" lon="14.531"><ele>124.0</ele><time>2016-06-18T09:34:12.320Z</time></trkpt><trkpt lat="58.60704833" lon="14.531025"><ele>124.0</ele><time>2016-06-18T09:34:13.305Z</time></trkpt><trkpt lat="58.60704833" lon="14.531025"><ele>124.0</ele><time>2016-06-18T09:34:14.293Z</time></trkpt><trkpt lat="58.607125" lon="14.53108167"><ele>125.0</ele><time>2016-06-18T09:34:15.295Z</time></trkpt><trkpt lat="58.607125" lon="14.53108167"><ele>125.0</ele><time>2016-06-18T09:34:16.300Z</time></trkpt><trkpt lat="58.60719833" lon="14.53115"><ele>125.0</ele><time>2016-06-18T09:34:17.307Z</time></trkpt><trkpt lat="58.607235" lon="14.53118667"><ele>126.0</ele><time>2016-06-18T09:34:18.308Z</time></trkpt><trkpt lat="58.607235" lon="14.53118667"><ele>126.0</ele><time>2016-06-18T09:34:19.283Z</time></trkpt><trkpt lat="58.60730167" lon="14.53126833"><ele>126.0</ele><time>2016-06-18T09:34:20.291Z</time></trkpt><trkpt lat="58.60730167" lon="14.53126833"><ele>126.0</ele><time>2016-06-18T09:34:21.309Z</time></trkpt><trkpt lat="58.60737167" lon="14.531335"><ele>127.0</ele><time>2016-06-18T09:34:22.319Z</time></trkpt><trkpt lat="58.60737167" lon="14.531335"><ele>127.0</ele><time>2016-06-18T09:34:23.310Z</time></trkpt><trkpt lat="58.607445" lon="14.53139667"><ele>127.0</ele><time>2016-06-18T09:34:24.288Z</time></trkpt><trkpt lat="58.60748667" lon="14.53143"><ele>127.0</ele><time>2016-06-18T09:34:25.295Z</time></trkpt><trkpt lat="58.60752167" lon="14.53146667"><ele>127.0</ele><time>2016-06-18T09:34:26.291Z</time></trkpt><trkpt lat="58.60752167" lon="14.53146667"><ele>127.0</ele><time>2016-06-18T09:34:27.313Z</time></trkpt><trkpt lat="58.60760667" lon="14.53153333"><ele>128.0</ele><time>2016-06-18T09:34:28.291Z</time></trkpt><trkpt lat="58.60765167" lon="14.531565"><ele>128.0</ele><time>2016-06-18T09:34:29.299Z</time></trkpt><trkpt lat="58.60769833" lon="14.531595"><ele>128.0</ele><time>2016-06-18T09:34:30.306Z</time></trkpt><trkpt lat="58.60769833" lon="14.531595"><ele>128.0</ele><time>2016-06-18T09:34:31.320Z</time></trkpt><trkpt lat="58.60779167" lon="14.53164667"><ele>128.0</ele><time>2016-06-18T09:34:32.287Z</time></trkpt><trkpt lat="58.60779167" lon="14.53164667"><ele>128.0</ele><time>2016-06-18T09:34:33.311Z</time></trkpt><trkpt lat="58.60788833" lon="14.53169667"><ele>129.0</ele><time>2016-06-18T09:34:34.308Z</time></trkpt><trkpt lat="58.60788833" lon="14.53169667"><ele>129.0</ele><time>2016-06-18T09:34:35.310Z</time></trkpt><trkpt lat="58.60799833" lon="14.53175"><ele>130.0</ele><time>2016-06-18T09:34:36.319Z</time></trkpt><trkpt lat="58.60805" lon="14.53177667"><ele>130.0</ele><time>2016-06-18T09:34:37.292Z</time></trkpt><trkpt lat="58.60809833" lon="14.53180833"><ele>130.0</ele><time>2016-06-18T09:34:38.290Z</time></trkpt><trkpt lat="58.60809833" lon="14.53180833"><ele>130.0</ele><time>2016-06-18T09:34:39.296Z</time></trkpt><trkpt lat="58.608195" lon="14.531875"><ele>131.0</ele><time>2016-06-18T09:34:40.305Z</time></trkpt><trkpt lat="58.60824167" lon="14.53190833"><ele>131.0</ele><time>2016-06-18T09:34:41.304Z</time></trkpt><trkpt lat="58.608285" lon="14.53193667"><ele>131.0</ele><time>2016-06-18T09:34:42.288Z</time></trkpt><trkpt lat="58.60833" lon="14.53196167"><ele>131.0</ele><time>2016-06-18T09:34:43.303Z</time></trkpt><trkpt lat="58.60833" lon="14.53196167"><ele>131.0</ele><time>2016-06-18T09:34:44.294Z</time></trkpt><trkpt lat="58.60842333" lon="14.53202"><ele>133.0</ele><time>2016-06-18T09:34:45.303Z</time></trkpt><trkpt lat="58.60847167" lon="14.532045"><ele>133.0</ele><time>2016-06-18T09:34:46.301Z</time></trkpt><trkpt lat="58.60847167" lon="14.532045"><ele>133.0</ele><time>2016-06-18T09:34:47.302Z</time></trkpt><trkpt lat="58.608565" lon="14.532085"><ele>133.0</ele><time>2016-06-18T09:34:48.308Z</time></trkpt><trkpt lat="58.608565" lon="14.532085"><ele>133.0</ele><time>2016-06-18T09:34:49.316Z</time></trkpt><trkpt lat="58.60867" lon="14.53212333"><ele>135.0</ele><time>2016-06-18T09:34:50.307Z</time></trkpt><trkpt lat="58.60867" lon="14.53212333"><ele>135.0</ele><time>2016-06-18T09:34:51.295Z</time></trkpt><trkpt lat="58.60876833" lon="14.53215833"><ele>137.0</ele><time>2016-06-18T09:34:52.303Z</time></trkpt><trkpt lat="58.60881833" lon="14.532175"><ele>137.0</ele><time>2016-06-18T09:34:53.299Z</time></trkpt><trkpt lat="58.60881833" lon="14.532175"><ele>137.0</ele><time>2016-06-18T09:34:54.294Z</time></trkpt><trkpt lat="58.60892" lon="14.53220667"><ele>138.0</ele><time>2016-06-18T09:34:55.308Z</time></trkpt><trkpt lat="58.60897" lon="14.53222667"><ele>138.0</ele><time>2016-06-18T09:34:56.318Z</time></trkpt><trkpt lat="58.60897" lon="14.53222667"><ele>138.0</ele><time>2016-06-18T09:34:57.301Z</time></trkpt><trkpt lat="58.60907167" lon="14.53227333"><ele>139.0</ele><time>2016-06-18T09:34:58.307Z</time></trkpt><trkpt lat="58.60912667" lon="14.53229667"><ele>140.0</ele><time>2016-06-18T09:34:59.319Z</time></trkpt><trkpt lat="58.60912667" lon="14.53229667"><ele>140.0</ele><time>2016-06-18T09:35:00.315Z</time></trkpt><trkpt lat="58.609235" lon="14.53235333"><ele>141.0</ele><time>2016-06-18T09:35:01.283Z</time></trkpt><trkpt lat="58.60929167" lon="14.53238167"><ele>141.0</ele><time>2016-06-18T09:35:02.320Z</time></trkpt><trkpt lat="58.60929167" lon="14.53238167"><ele>141.0</ele><time>2016-06-18T09:35:03.286Z</time></trkpt><trkpt lat="58.609405" lon="14.53242833"><ele>142.0</ele><time>2016-06-18T09:35:04.303Z</time></trkpt><trkpt lat="58.609465" lon="14.53244333"><ele>143.0</ele><time>2016-06-18T09:35:05.297Z</time></trkpt><trkpt lat="58.609465" lon="14.53244333"><ele>143.0</ele><time>2016-06-18T09:35:06.295Z</time></trkpt><trkpt lat="58.60959167" lon="14.532495"><ele>143.0</ele><time>2016-06-18T09:35:07.302Z</time></trkpt><trkpt lat="58.60965333" lon="14.532515"><ele>143.0</ele><time>2016-06-18T09:35:08.287Z</time></trkpt><trkpt lat="58.60971833" lon="14.53253333"><ele>143.0</ele><time>2016-06-18T09:35:09.310Z</time></trkpt><trkpt lat="58.60971833" lon="14.53253333"><ele>143.0</ele><time>2016-06-18T09:35:10.296Z</time></trkpt><trkpt lat="58.609845" lon="14.53257"><ele>143.0</ele><time>2016-06-18T09:35:11.287Z</time></trkpt><trkpt lat="58.60990833" lon="14.53258333"><ele>144.0</ele><time>2016-06-18T09:35:12.302Z</time></trkpt><trkpt lat="58.60997" lon="14.5326"><ele>144.0</ele><time>2016-06-18T09:35:13.304Z</time></trkpt><trkpt lat="58.61003333" lon="14.53262"><ele>144.0</ele><time>2016-06-18T09:35:14.290Z</time></trkpt><trkpt lat="58.61003333" lon="14.53262"><ele>144.0</ele><time>2016-06-18T09:35:15.310Z</time></trkpt><trkpt lat="58.61015667" lon="14.532665"><ele>143.0</ele><time>2016-06-18T09:35:16.302Z</time></trkpt><trkpt lat="58.61022167" lon="14.532685"><ele>143.0</ele><time>2016-06-18T09:35:17.309Z</time></trkpt><trkpt lat="58.61022167" lon="14.532685"><ele>143.0</ele><time>2016-06-18T09:35:18.296Z</time></trkpt><trkpt lat="58.61035" lon="14.53272"><ele>143.0</ele><time>2016-06-18T09:35:19.308Z</time></trkpt><trkpt lat="58.610415" lon="14.532735"><ele>143.0</ele><time>2016-06-18T09:35:20.308Z</time></trkpt><trkpt lat="58.610415" lon="14.532735"><ele>143.0</ele><time>2016-06-18T09:35:21.292Z</time></trkpt><trkpt lat="58.610545" lon="14.53277167"><ele>143.0</ele><time>2016-06-18T09:35:22.313Z</time></trkpt><trkpt lat="58.610545" lon="14.53277167"><ele>143.0</ele><time>2016-06-18T09:35:23.320Z</time></trkpt><trkpt lat="58.61067667" lon="14.53279833"><ele>142.0</ele><time>2016-06-18T09:35:24.292Z</time></trkpt><trkpt lat="58.61067667" lon="14.53279833"><ele>142.0</ele><time>2016-06-18T09:35:25.308Z</time></trkpt><trkpt lat="58.61080833" lon="14.53282333"><ele>141.0</ele><time>2016-06-18T09:35:26.315Z</time></trkpt><trkpt lat="58.61080833" lon="14.53282333"><ele>141.0</ele><time>2016-06-18T09:35:27.282Z</time></trkpt><trkpt lat="58.61094167" lon="14.53284667"><ele>141.0</ele><time>2016-06-18T09:35:28.289Z</time></trkpt><trkpt lat="58.61100833" lon="14.532855"><ele>141.0</ele><time>2016-06-18T09:35:29.319Z</time></trkpt><trkpt lat="58.61100833" lon="14.532855"><ele>141.0</ele><time>2016-06-18T09:35:30.312Z</time></trkpt><trkpt lat="58.611145" lon="14.53287833"><ele>141.0</ele><time>2016-06-18T09:35:31.282Z</time></trkpt><trkpt lat="58.611215" lon="14.53288667"><ele>140.0</ele><time>2016-06-18T09:35:32.308Z</time></trkpt><trkpt lat="58.61128667" lon="14.532895"><ele>141.0</ele><time>2016-06-18T09:35:33.318Z</time></trkpt><trkpt lat="58.61135833" lon="14.53289833"><ele>141.0</ele><time>2016-06-18T09:35:34.302Z</time></trkpt><trkpt lat="58.61135833" lon="14.53289833"><ele>141.0</ele><time>2016-06-18T09:35:35.290Z</time></trkpt><trkpt lat="58.61150667" lon="14.532905"><ele>141.0</ele><time>2016-06-18T09:35:36.297Z</time></trkpt><trkpt lat="58.611585" lon="14.53291333"><ele>141.0</ele><time>2016-06-18T09:35:37.320Z</time></trkpt><trkpt lat="58.61166333" lon="14.53292"><ele>141.0</ele><time>2016-06-18T09:35:38.302Z</time></trkpt><trkpt lat="58.61166333" lon="14.53292"><ele>141.0</ele><time>2016-06-18T09:35:39.290Z</time></trkpt><trkpt lat="58.61182167" lon="14.53293"><ele>141.0</ele><time>2016-06-18T09:35:40.319Z</time></trkpt><trkpt lat="58.61189833" lon="14.532935"><ele>141.0</ele><time>2016-06-18T09:35:41.287Z</time></trkpt><trkpt lat="58.61189833" lon="14.532935"><ele>141.0</ele><time>2016-06-18T09:35:42.309Z</time></trkpt><trkpt lat="58.61205333" lon="14.53293667"><ele>141.0</ele><time>2016-06-18T09:35:43.319Z</time></trkpt><trkpt lat="58.61213167" lon="14.532935"><ele>140.0</ele><time>2016-06-18T09:35:44.291Z</time></trkpt><trkpt lat="58.61213167" lon="14.532935"><ele>140.0</ele><time>2016-06-18T09:35:45.313Z</time></trkpt><trkpt lat="58.61229" lon="14.53293333"><ele>140.0</ele><time>2016-06-18T09:35:46.290Z</time></trkpt><trkpt lat="58.61229" lon="14.53293333"><ele>140.0</ele><time>2016-06-18T09:35:47.321Z</time></trkpt><trkpt lat="58.61245333" lon="14.53295"><ele>140.0</ele><time>2016-06-18T09:35:48.287Z</time></trkpt><trkpt lat="58.61253667" lon="14.53295"><ele>140.0</ele><time>2016-06-18T09:35:49.310Z</time></trkpt><trkpt lat="58.61261667" lon="14.53294167"><ele>140.0</ele><time>2016-06-18T09:35:50.287Z</time></trkpt><trkpt lat="58.61261667" lon="14.53294167"><ele>140.0</ele><time>2016-06-18T09:35:51.299Z</time></trkpt><trkpt lat="58.61278" lon="14.53293833"><ele>139.0</ele><time>2016-06-18T09:35:52.306Z</time></trkpt><trkpt lat="58.61278" lon="14.53293833"><ele>139.0</ele><time>2016-06-18T09:35:53.294Z</time></trkpt><trkpt lat="58.612945" lon="14.53292667"><ele>139.0</ele><time>2016-06-18T09:35:54.297Z</time></trkpt><trkpt lat="58.61302667" lon="14.53291667"><ele>138.0</ele><time>2016-06-18T09:35:55.316Z</time></trkpt><trkpt lat="58.61310833" lon="14.53290333"><ele>138.0</ele><time>2016-06-18T09:35:56.306Z</time></trkpt><trkpt lat="58.61310833" lon="14.53290333"><ele>138.0</ele><time>2016-06-18T09:35:57.296Z</time></trkpt><trkpt lat="58.61327667" lon="14.53289167"><ele>137.0</ele><time>2016-06-18T09:35:58.303Z</time></trkpt><trkpt lat="58.61327667" lon="14.53289167"><ele>137.0</ele><time>2016-06-18T09:35:59.291Z</time></trkpt><trkpt lat="58.61345" lon="14.53287333"><ele>138.0</ele><time>2016-06-18T09:36:00.308Z</time></trkpt><trkpt lat="58.61345" lon="14.53287333"><ele>138.0</ele><time>2016-06-18T09:36:01.307Z</time></trkpt><trkpt lat="58.613625" lon="14.53285833"><ele>136.0</ele><time>2016-06-18T09:36:02.315Z</time></trkpt><trkpt lat="58.61371333" lon="14.53284833"><ele>135.0</ele><time>2016-06-18T09:36:03.305Z</time></trkpt><trkpt lat="58.61371333" lon="14.53284833"><ele>135.0</ele><time>2016-06-18T09:36:04.293Z</time></trkpt><trkpt lat="58.61390167" lon="14.53281"><ele>137.0</ele><time>2016-06-18T09:36:05.318Z</time></trkpt><trkpt lat="58.61399667" lon="14.53279"><ele>137.0</ele><time>2016-06-18T09:36:06.318Z</time></trkpt><trkpt lat="58.61399667" lon="14.53279"><ele>137.0</ele><time>2016-06-18T09:36:07.297Z</time></trkpt><trkpt lat="58.614185" lon="14.53276"><ele>137.0</ele><time>2016-06-18T09:36:08.303Z</time></trkpt><trkpt lat="58.614185" lon="14.53276"><ele>137.0</ele><time>2016-06-18T09:36:09.289Z</time></trkpt><trkpt lat="58.61438167" lon="14.53271833"><ele>136.0</ele><time>2016-06-18T09:36:10.304Z</time></trkpt><trkpt lat="58.61438167" lon="14.53271833"><ele>136.0</ele><time>2016-06-18T09:36:11.300Z</time></trkpt><trkpt lat="58.61458167" lon="14.53268667"><ele>136.0</ele><time>2016-06-18T09:36:12.311Z</time></trkpt><trkpt lat="58.61458167" lon="14.53268667"><ele>136.0</ele><time>2016-06-18T09:36:13.303Z</time></trkpt><trkpt lat="58.61479" lon="14.53265667"><ele>136.0</ele><time>2016-06-18T09:36:14.310Z</time></trkpt><trkpt lat="58.61479" lon="14.53265667"><ele>136.0</ele><time>2016-06-18T09:36:15.305Z</time></trkpt><trkpt lat="58.61500833" lon="14.53262667"><ele>135.0</ele><time>2016-06-18T09:36:16.319Z</time></trkpt><trkpt lat="58.61500833" lon="14.53262667"><ele>135.0</ele><time>2016-06-18T09:36:17.311Z</time></trkpt><trkpt lat="58.61523167" lon="14.53259667"><ele>135.0</ele><time>2016-06-18T09:36:18.318Z</time></trkpt><trkpt lat="58.61523167" lon="14.53259667"><ele>135.0</ele><time>2016-06-18T09:36:19.301Z</time></trkpt><trkpt lat="58.61544333" lon="14.53256"><ele>134.0</ele><time>2016-06-18T09:36:20.303Z</time></trkpt><trkpt lat="58.61544333" lon="14.53256"><ele>134.0</ele><time>2016-06-18T09:36:21.301Z</time></trkpt><trkpt lat="58.61566333" lon="14.53252"><ele>133.0</ele><time>2016-06-18T09:36:22.307Z</time></trkpt><trkpt lat="58.61577167" lon="14.53249833"><ele>133.0</ele><time>2016-06-18T09:36:23.293Z</time></trkpt><trkpt lat="58.61577167" lon="14.53249833"><ele>133.0</ele><time>2016-06-18T09:36:24.316Z</time></trkpt><trkpt lat="58.61598333" lon="14.53246333"><ele>132.0</ele><time>2016-06-18T09:36:25.308Z</time></trkpt><trkpt lat="58.61609333" lon="14.53245"><ele>131.0</ele><time>2016-06-18T09:36:26.310Z</time></trkpt><trkpt lat="58.61609333" lon="14.53245"><ele>131.0</ele><time>2016-06-18T09:36:27.317Z</time></trkpt><trkpt lat="58.61630833" lon="14.53242167"><ele>131.0</ele><time>2016-06-18T09:36:28.283Z</time></trkpt><trkpt lat="58.61641667" lon="14.53240167"><ele>130.0</ele><time>2016-06-18T09:36:29.285Z</time></trkpt><trkpt lat="58.616525" lon="14.53238167"><ele>131.0</ele><time>2016-06-18T09:36:30.320Z</time></trkpt><trkpt lat="58.616525" lon="14.53238167"><ele>131.0</ele><time>2016-06-18T09:36:31.310Z</time></trkpt><trkpt lat="58.61674167" lon="14.53235167"><ele>131.0</ele><time>2016-06-18T09:36:32.318Z</time></trkpt><trkpt lat="58.61674167" lon="14.53235167"><ele>131.0</ele><time>2016-06-18T09:36:33.294Z</time></trkpt><trkpt lat="58.61696333" lon="14.532315"><ele>131.0</ele><time>2016-06-18T09:36:34.323Z</time></trkpt><trkpt lat="58.61707833" lon="14.53230167"><ele>131.0</ele><time>2016-06-18T09:36:35.321Z</time></trkpt><trkpt lat="58.61707833" lon="14.53230167"><ele>131.0</ele><time>2016-06-18T09:36:36.303Z</time></trkpt><trkpt lat="58.61731167" lon="14.53228833"><ele>131.0</ele><time>2016-06-18T09:36:37.309Z</time></trkpt><trkpt lat="58.61743167" lon="14.53228667"><ele>131.0</ele><time>2016-06-18T09:36:38.296Z</time></trkpt><trkpt lat="58.61743167" lon="14.53228667"><ele>131.0</ele><time>2016-06-18T09:36:39.282Z</time></trkpt><trkpt lat="58.61766833" lon="14.53228667"><ele>130.0</ele><time>2016-06-18T09:36:40.288Z</time></trkpt><trkpt lat="58.61778667" lon="14.53229333"><ele>131.0</ele><time>2016-06-18T09:36:41.311Z</time></trkpt><trkpt lat="58.61778667" lon="14.53229333"><ele>131.0</ele><time>2016-06-18T09:36:42.282Z</time></trkpt><trkpt lat="58.61802" lon="14.532305"><ele>131.0</ele><time>2016-06-18T09:36:43.289Z</time></trkpt><trkpt lat="58.61802" lon="14.532305"><ele>131.0</ele><time>2016-06-18T09:36:44.312Z</time></trkpt><trkpt lat="58.61826833" lon="14.53231833"><ele>130.0</ele><time>2016-06-18T09:36:45.297Z</time></trkpt><trkpt lat="58.61826833" lon="14.53231833"><ele>130.0</ele><time>2016-06-18T09:36:46.286Z</time></trkpt><trkpt lat="58.61850333" lon="14.53235"><ele>129.0</ele><time>2016-06-18T09:36:47.292Z</time></trkpt><trkpt lat="58.61850333" lon="14.53235"><ele>129.0</ele><time>2016-06-18T09:36:48.318Z</time></trkpt><trkpt lat="58.61873667" lon="14.53236"><ele>129.0</ele><time>2016-06-18T09:36:49.320Z</time></trkpt><trkpt lat="58.61885333" lon="14.532365"><ele>129.0</ele><time>2016-06-18T09:36:50.285Z</time></trkpt><trkpt lat="58.61885333" lon="14.532365"><ele>129.0</ele><time>2016-06-18T09:36:51.308Z</time></trkpt><trkpt lat="58.61908333" lon="14.532395"><ele>127.0</ele><time>2016-06-18T09:36:52.283Z</time></trkpt><trkpt lat="58.6192" lon="14.53242"><ele>127.0</ele><time>2016-06-18T09:36:53.320Z</time></trkpt><trkpt lat="58.6192" lon="14.53242"><ele>127.0</ele><time>2016-06-18T09:36:54.303Z</time></trkpt><trkpt lat="58.61943167" lon="14.532455"><ele>125.0</ele><time>2016-06-18T09:36:55.320Z</time></trkpt><trkpt lat="58.61954333" lon="14.53248333"><ele>124.0</ele><time>2016-06-18T09:36:56.290Z</time></trkpt><trkpt lat="58.61954333" lon="14.53248333"><ele>124.0</ele><time>2016-06-18T09:36:57.313Z</time></trkpt><trkpt lat="58.61976833" lon="14.53254"><ele>123.0</ele><time>2016-06-18T09:36:58.283Z</time></trkpt><trkpt lat="58.61976833" lon="14.53254"><ele>123.0</ele><time>2016-06-18T09:36:59.306Z</time></trkpt><trkpt lat="58.61999167" lon="14.53259333"><ele>122.0</ele><time>2016-06-18T09:37:00.323Z</time></trkpt><trkpt lat="58.6201" lon="14.53262333"><ele>122.0</ele><time>2016-06-18T09:37:01.301Z</time></trkpt><trkpt lat="58.6201" lon="14.53262333"><ele>122.0</ele><time>2016-06-18T09:37:02.288Z</time></trkpt><trkpt lat="58.62032167" lon="14.53267667"><ele>120.0</ele><time>2016-06-18T09:37:03.294Z</time></trkpt><trkpt lat="58.62032167" lon="14.53267667"><ele>120.0</ele><time>2016-06-18T09:37:04.319Z</time></trkpt><trkpt lat="58.62053833" lon="14.53273167"><ele>120.0</ele><time>2016-06-18T09:37:05.285Z</time></trkpt><trkpt lat="58.62064167" lon="14.53275333"><ele>120.0</ele><time>2016-06-18T09:37:06.312Z</time></trkpt><trkpt lat="58.62064167" lon="14.53275333"><ele>120.0</ele><time>2016-06-18T09:37:07.282Z</time></trkpt><trkpt lat="58.62083667" lon="14.53279667"><ele>120.0</ele><time>2016-06-18T09:37:08.289Z</time></trkpt><trkpt lat="58.62093" lon="14.53281333"><ele>120.0</ele><time>2016-06-18T09:37:09.287Z</time></trkpt><trkpt lat="58.62093" lon="14.53281333"><ele>120.0</ele><time>2016-06-18T09:37:10.300Z</time></trkpt><trkpt lat="58.62111333" lon="14.53286667"><ele>120.0</ele><time>2016-06-18T09:37:11.293Z</time></trkpt><trkpt lat="58.62111333" lon="14.53286667"><ele>120.0</ele><time>2016-06-18T09:37:12.315Z</time></trkpt><trkpt lat="58.62129667" lon="14.53293667"><ele>121.0</ele><time>2016-06-18T09:37:13.283Z</time></trkpt><trkpt lat="58.62138667" lon="14.53296667"><ele>121.0</ele><time>2016-06-18T09:37:14.305Z</time></trkpt><trkpt lat="58.62138667" lon="14.53296667"><ele>121.0</ele><time>2016-06-18T09:37:15.312Z</time></trkpt><trkpt lat="58.621565" lon="14.533035"><ele>122.0</ele><time>2016-06-18T09:37:16.283Z</time></trkpt><trkpt lat="58.621565" lon="14.533035"><ele>122.0</ele><time>2016-06-18T09:37:17.305Z</time></trkpt><trkpt lat="58.62173833" lon="14.53309833"><ele>122.0</ele><time>2016-06-18T09:37:18.288Z</time></trkpt><trkpt lat="58.62173833" lon="14.53309833"><ele>122.0</ele><time>2016-06-18T09:37:19.297Z</time></trkpt><trkpt lat="58.62191833" lon="14.5332"><ele>122.0</ele><time>2016-06-18T09:37:20.304Z</time></trkpt><trkpt lat="58.62201" lon="14.53325"><ele>122.0</ele><time>2016-06-18T09:37:21.308Z</time></trkpt><trkpt lat="58.62201" lon="14.53325"><ele>122.0</ele><time>2016-06-18T09:37:22.300Z</time></trkpt><trkpt lat="58.622195" lon="14.533355"><ele>122.0</ele><time>2016-06-18T09:37:23.282Z</time></trkpt><trkpt lat="58.622195" lon="14.533355"><ele>122.0</ele><time>2016-06-18T09:37:24.305Z</time></trkpt><trkpt lat="58.62237667" lon="14.53344667"><ele>122.0</ele><time>2016-06-18T09:37:25.317Z</time></trkpt><trkpt lat="58.62246333" lon="14.53349"><ele>122.0</ele><time>2016-06-18T09:37:26.303Z</time></trkpt><trkpt lat="58.62246333" lon="14.53349"><ele>122.0</ele><time>2016-06-18T09:37:27.295Z</time></trkpt><trkpt lat="58.62264" lon="14.53359667"><ele>122.0</ele><time>2016-06-18T09:37:28.304Z</time></trkpt><trkpt lat="58.62264" lon="14.53359667"><ele>122.0</ele><time>2016-06-18T09:37:29.296Z</time></trkpt><trkpt lat="58.622815" lon="14.5337"><ele>122.0</ele><time>2016-06-18T09:37:30.304Z</time></trkpt><trkpt lat="58.62290167" lon="14.53375"><ele>122.0</ele><time>2016-06-18T09:37:31.319Z</time></trkpt><trkpt lat="58.622985" lon="14.5338"><ele>122.0</ele><time>2016-06-18T09:37:32.321Z</time></trkpt><trkpt lat="58.622985" lon="14.5338"><ele>122.0</ele><time>2016-06-18T09:37:33.303Z</time></trkpt><trkpt lat="58.62315167" lon="14.53391167"><ele>122.0</ele><time>2016-06-18T09:37:34.323Z</time></trkpt><trkpt lat="58.62323667" lon="14.53397"><ele>122.0</ele><time>2016-06-18T09:37:35.284Z</time></trkpt><trkpt lat="58.62323667" lon="14.53397"><ele>122.0</ele><time>2016-06-18T09:37:36.305Z</time></trkpt><trkpt lat="58.623405" lon="14.53408"><ele>122.0</ele><time>2016-06-18T09:37:37.308Z</time></trkpt><trkpt lat="58.62349" lon="14.53413"><ele>121.0</ele><time>2016-06-18T09:37:38.299Z</time></trkpt><trkpt lat="58.62349" lon="14.53413"><ele>121.0</ele><time>2016-06-18T09:37:39.286Z</time></trkpt><trkpt lat="58.623655" lon="14.53424833"><ele>121.0</ele><time>2016-06-18T09:37:40.319Z</time></trkpt><trkpt lat="58.623655" lon="14.53424833"><ele>121.0</ele><time>2016-06-18T09:37:41.311Z</time></trkpt><trkpt lat="58.62382167" lon="14.53437"><ele>121.0</ele><time>2016-06-18T09:37:42.319Z</time></trkpt><trkpt lat="58.62390167" lon="14.53442833"><ele>121.0</ele><time>2016-06-18T09:37:43.306Z</time></trkpt><trkpt lat="58.62390167" lon="14.53442833"><ele>121.0</ele><time>2016-06-18T09:37:44.298Z</time></trkpt><trkpt lat="58.62406333" lon="14.53455333"><ele>121.0</ele><time>2016-06-18T09:37:45.305Z</time></trkpt><trkpt lat="58.62406333" lon="14.53455333"><ele>121.0</ele><time>2016-06-18T09:37:46.320Z</time></trkpt><trkpt lat="58.62422667" lon="14.53468333"><ele>121.0</ele><time>2016-06-18T09:37:47.286Z</time></trkpt><trkpt lat="58.624305" lon="14.53475167"><ele>121.0</ele><time>2016-06-18T09:37:48.299Z</time></trkpt><trkpt lat="58.62438667" lon="14.53482167"><ele>121.0</ele><time>2016-06-18T09:37:49.300Z</time></trkpt><trkpt lat="58.62447" lon="14.53488833"><ele>121.0</ele><time>2016-06-18T09:37:50.311Z</time></trkpt><trkpt lat="58.62447" lon="14.53488833"><ele>121.0</ele><time>2016-06-18T09:37:51.294Z</time></trkpt><trkpt lat="58.624635" lon="14.53502667"><ele>121.0</ele><time>2016-06-18T09:37:52.287Z</time></trkpt><trkpt lat="58.624715" lon="14.53509833"><ele>121.0</ele><time>2016-06-18T09:37:53.289Z</time></trkpt><trkpt lat="58.624715" lon="14.53509833"><ele>121.0</ele><time>2016-06-18T09:37:54.311Z</time></trkpt><trkpt lat="58.62488167" lon="14.53525333"><ele>121.0</ele><time>2016-06-18T09:37:55.320Z</time></trkpt><trkpt lat="58.62495833" lon="14.53533167"><ele>121.0</ele><time>2016-06-18T09:37:56.300Z</time></trkpt><trkpt lat="58.62495833" lon="14.53533167"><ele>121.0</ele><time>2016-06-18T09:37:57.320Z</time></trkpt><trkpt lat="58.62512333" lon="14.53546833"><ele>121.0</ele><time>2016-06-18T09:37:58.286Z</time></trkpt><trkpt lat="58.62512333" lon="14.53546833"><ele>121.0</ele><time>2016-06-18T09:37:59.311Z</time></trkpt><trkpt lat="58.62528167" lon="14.5356"><ele>121.0</ele><time>2016-06-18T09:38:00.289Z</time></trkpt><trkpt lat="58.62528167" lon="14.5356"><ele>121.0</ele><time>2016-06-18T09:38:01.306Z</time></trkpt><trkpt lat="58.62543167" lon="14.53573833"><ele>121.0</ele><time>2016-06-18T09:38:02.312Z</time></trkpt><trkpt lat="58.62543167" lon="14.53573833"><ele>121.0</ele><time>2016-06-18T09:38:03.321Z</time></trkpt><trkpt lat="58.62559" lon="14.53588833"><ele>121.0</ele><time>2016-06-18T09:38:04.321Z</time></trkpt><trkpt lat="58.62559" lon="14.53588833"><ele>121.0</ele><time>2016-06-18T09:38:05.298Z</time></trkpt><trkpt lat="58.62574667" lon="14.53603333"><ele>121.0</ele><time>2016-06-18T09:38:06.305Z</time></trkpt><trkpt lat="58.62574667" lon="14.53603333"><ele>121.0</ele><time>2016-06-18T09:38:07.296Z</time></trkpt><trkpt lat="58.62590667" lon="14.53617333"><ele>121.0</ele><time>2016-06-18T09:38:08.287Z</time></trkpt><trkpt lat="58.62590667" lon="14.53617333"><ele>121.0</ele><time>2016-06-18T09:38:09.302Z</time></trkpt><trkpt lat="58.62605333" lon="14.536325"><ele>121.0</ele><time>2016-06-18T09:38:10.308Z</time></trkpt><trkpt lat="58.62605333" lon="14.536325"><ele>121.0</ele><time>2016-06-18T09:38:11.306Z</time></trkpt><trkpt lat="58.62621333" lon="14.53647667"><ele>121.0</ele><time>2016-06-18T09:38:12.320Z</time></trkpt><trkpt lat="58.62621333" lon="14.53647667"><ele>121.0</ele><time>2016-06-18T09:38:13.299Z</time></trkpt><trkpt lat="58.62638333" lon="14.53661667"><ele>121.0</ele><time>2016-06-18T09:38:14.307Z</time></trkpt><trkpt lat="58.62638333" lon="14.53661667"><ele>121.0</ele><time>2016-06-18T09:38:15.297Z</time></trkpt><trkpt lat="58.62655833" lon="14.53675833"><ele>120.0</ele><time>2016-06-18T09:38:16.304Z</time></trkpt><trkpt lat="58.62655833" lon="14.53675833"><ele>120.0</ele><time>2016-06-18T09:38:17.297Z</time></trkpt><trkpt lat="58.62673" lon="14.53691167"><ele>120.0</ele><time>2016-06-18T09:38:18.299Z</time></trkpt><trkpt lat="58.62673" lon="14.53691167"><ele>120.0</ele><time>2016-06-18T09:38:19.293Z</time></trkpt><trkpt lat="58.62690167" lon="14.53705"><ele>120.0</ele><time>2016-06-18T09:38:20.301Z</time></trkpt><trkpt lat="58.62690167" lon="14.53705"><ele>120.0</ele><time>2016-06-18T09:38:21.284Z</time></trkpt><trkpt lat="58.62707167" lon="14.53720167"><ele>120.0</ele><time>2016-06-18T09:38:22.309Z</time></trkpt><trkpt lat="58.62707167" lon="14.53720167"><ele>120.0</ele><time>2016-06-18T09:38:23.305Z</time></trkpt><trkpt lat="58.62723833" lon="14.53734833"><ele>120.0</ele><time>2016-06-18T09:38:24.311Z</time></trkpt><trkpt lat="58.62732333" lon="14.53741833"><ele>120.0</ele><time>2016-06-18T09:38:25.298Z</time></trkpt><trkpt lat="58.62740833" lon="14.53748833"><ele>120.0</ele><time>2016-06-18T09:38:26.290Z</time></trkpt><trkpt lat="58.62740833" lon="14.53748833"><ele>120.0</ele><time>2016-06-18T09:38:27.314Z</time></trkpt><trkpt lat="58.627585" lon="14.53761833"><ele>120.0</ele><time>2016-06-18T09:38:28.294Z</time></trkpt><trkpt lat="58.627585" lon="14.53761833"><ele>120.0</ele><time>2016-06-18T09:38:29.298Z</time></trkpt><trkpt lat="58.62776333" lon="14.53774333"><ele>120.0</ele><time>2016-06-18T09:38:30.305Z</time></trkpt><trkpt lat="58.62784833" lon="14.53781167"><ele>120.0</ele><time>2016-06-18T09:38:31.298Z</time></trkpt><trkpt lat="58.62784833" lon="14.53781167"><ele>120.0</ele><time>2016-06-18T09:38:32.299Z</time></trkpt><trkpt lat="58.62803333" lon="14.53794"><ele>120.0</ele><time>2016-06-18T09:38:33.320Z</time></trkpt><trkpt lat="58.62812667" lon="14.53799833"><ele>120.0</ele><time>2016-06-18T09:38:34.299Z</time></trkpt><trkpt lat="58.62812667" lon="14.53799833"><ele>120.0</ele><time>2016-06-18T09:38:35.319Z</time></trkpt><trkpt lat="58.62830833" lon="14.538105"><ele>120.0</ele><time>2016-06-18T09:38:36.285Z</time></trkpt><trkpt lat="58.62830833" lon="14.538105"><ele>120.0</ele><time>2016-06-18T09:38:37.307Z</time></trkpt><trkpt lat="58.62847667" lon="14.53821333"><ele>119.0</ele><time>2016-06-18T09:38:38.307Z</time></trkpt><trkpt lat="58.62847667" lon="14.53821333"><ele>119.0</ele><time>2016-06-18T09:38:39.314Z</time></trkpt><trkpt lat="58.628655" lon="14.538335"><ele>118.0</ele><time>2016-06-18T09:38:40.288Z</time></trkpt><trkpt lat="58.628745" lon="14.538385"><ele>118.0</ele><time>2016-06-18T09:38:41.287Z</time></trkpt><trkpt lat="58.628745" lon="14.538385"><ele>118.0</ele><time>2016-06-18T09:38:42.317Z</time></trkpt><trkpt lat="58.62893333" lon="14.53848167"><ele>118.0</ele><time>2016-06-18T09:38:43.287Z</time></trkpt><trkpt lat="58.62903" lon="14.53852333"><ele>117.0</ele><time>2016-06-18T09:38:44.310Z</time></trkpt><trkpt lat="58.62903" lon="14.53852333"><ele>117.0</ele><time>2016-06-18T09:38:45.313Z</time></trkpt><trkpt lat="58.62921833" lon="14.53863333"><ele>117.0</ele><time>2016-06-18T09:38:46.289Z</time></trkpt><trkpt lat="58.62921833" lon="14.53863333"><ele>117.0</ele><time>2016-06-18T09:38:47.313Z</time></trkpt><trkpt lat="58.62941167" lon="14.53874833"><ele>116.0</ele><time>2016-06-18T09:38:48.282Z</time></trkpt><trkpt lat="58.62941167" lon="14.53874833"><ele>116.0</ele><time>2016-06-18T09:38:49.307Z</time></trkpt><trkpt lat="58.62960667" lon="14.53887"><ele>116.0</ele><time>2016-06-18T09:38:50.288Z</time></trkpt><trkpt lat="58.62960667" lon="14.53887"><ele>116.0</ele><time>2016-06-18T09:38:51.320Z</time></trkpt><trkpt lat="58.62979667" lon="14.53899667"><ele>115.0</ele><time>2016-06-18T09:38:52.286Z</time></trkpt><trkpt lat="58.62979667" lon="14.53899667"><ele>115.0</ele><time>2016-06-18T09:38:53.309Z</time></trkpt><trkpt lat="58.62999" lon="14.539115"><ele>114.0</ele><time>2016-06-18T09:38:54.311Z</time></trkpt><trkpt lat="58.630085" lon="14.53917"><ele>114.0</ele><time>2016-06-18T09:38:55.305Z</time></trkpt><trkpt lat="58.630085" lon="14.53917"><ele>114.0</ele><time>2016-06-18T09:38:56.297Z</time></trkpt><trkpt lat="58.63027" lon="14.53928333"><ele>113.0</ele><time>2016-06-18T09:38:57.305Z</time></trkpt><trkpt lat="58.63027" lon="14.53928333"><ele>113.0</ele><time>2016-06-18T09:38:58.284Z</time></trkpt><trkpt lat="58.63044833" lon="14.5394"><ele>113.0</ele><time>2016-06-18T09:38:59.294Z</time></trkpt><trkpt lat="58.63044833" lon="14.5394"><ele>113.0</ele><time>2016-06-18T09:39:00.302Z</time></trkpt><trkpt lat="58.630625" lon="14.539525"><ele>112.0</ele><time>2016-06-18T09:39:01.309Z</time></trkpt><trkpt lat="58.63071167" lon="14.53959833"><ele>112.0</ele><time>2016-06-18T09:39:02.289Z</time></trkpt><trkpt lat="58.63071167" lon="14.53959833"><ele>112.0</ele><time>2016-06-18T09:39:03.313Z</time></trkpt><trkpt lat="58.63088167" lon="14.539745"><ele>111.0</ele><time>2016-06-18T09:39:04.289Z</time></trkpt><trkpt lat="58.63096333" lon="14.53982167"><ele>111.0</ele><time>2016-06-18T09:39:05.313Z</time></trkpt><trkpt lat="58.63096333" lon="14.53982167"><ele>111.0</ele><time>2016-06-18T09:39:06.310Z</time></trkpt><trkpt lat="58.63112167" lon="14.53998833"><ele>110.0</ele><time>2016-06-18T09:39:07.320Z</time></trkpt><trkpt lat="58.63119833" lon="14.540075"><ele>110.0</ele><time>2016-06-18T09:39:08.284Z</time></trkpt><trkpt lat="58.63119833" lon="14.540075"><ele>110.0</ele><time>2016-06-18T09:39:09.309Z</time></trkpt><trkpt lat="58.63136167" lon="14.540265"><ele>110.0</ele><time>2016-06-18T09:39:10.325Z</time></trkpt><trkpt lat="58.63136167" lon="14.540265"><ele>110.0</ele><time>2016-06-18T09:39:11.310Z</time></trkpt><trkpt lat="58.63151833" lon="14.54047333"><ele>109.0</ele><time>2016-06-18T09:39:12.303Z</time></trkpt><trkpt lat="58.63151833" lon="14.54047333"><ele>109.0</ele><time>2016-06-18T09:39:13.290Z</time></trkpt><trkpt lat="58.63167333" lon="14.54068833"><ele>108.0</ele><time>2016-06-18T09:39:14.299Z</time></trkpt><trkpt lat="58.63167333" lon="14.54068833"><ele>108.0</ele><time>2016-06-18T09:39:15.286Z</time></trkpt><trkpt lat="58.63182667" lon="14.54091833"><ele>108.0</ele><time>2016-06-18T09:39:16.298Z</time></trkpt><trkpt lat="58.63182667" lon="14.54091833"><ele>108.0</ele><time>2016-06-18T09:39:17.316Z</time></trkpt><trkpt lat="58.63198667" lon="14.54114333"><ele>107.0</ele><time>2016-06-18T09:39:18.283Z</time></trkpt><trkpt lat="58.63206667" lon="14.54126167"><ele>107.0</ele><time>2016-06-18T09:39:19.306Z</time></trkpt><trkpt lat="58.632145" lon="14.541375"><ele>107.0</ele><time>2016-06-18T09:39:20.284Z</time></trkpt><trkpt lat="58.632145" lon="14.541375"><ele>107.0</ele><time>2016-06-18T09:39:21.302Z</time></trkpt><trkpt lat="58.63229167" lon="14.541615"><ele>107.0</ele><time>2016-06-18T09:39:22.310Z</time></trkpt><trkpt lat="58.63229167" lon="14.541615"><ele>107.0</ele><time>2016-06-18T09:39:23.298Z</time></trkpt><trkpt lat="58.632425" lon="14.54186833"><ele>106.0</ele><time>2016-06-18T09:39:24.305Z</time></trkpt><trkpt lat="58.632425" lon="14.54186833"><ele>106.0</ele><time>2016-06-18T09:39:25.294Z</time></trkpt><trkpt lat="58.63254667" lon="14.54215333"><ele>106.0</ele><time>2016-06-18T09:39:26.317Z</time></trkpt><trkpt lat="58.63254667" lon="14.54215333"><ele>106.0</ele><time>2016-06-18T09:39:27.294Z</time></trkpt><trkpt lat="58.63266667" lon="14.54244833"><ele>106.0</ele><time>2016-06-18T09:39:28.303Z</time></trkpt><trkpt lat="58.63266667" lon="14.54244833"><ele>106.0</ele><time>2016-06-18T09:39:29.283Z</time></trkpt><trkpt lat="58.63278333" lon="14.542735"><ele>106.0</ele><time>2016-06-18T09:39:30.302Z</time></trkpt><trkpt lat="58.63278333" lon="14.542735"><ele>106.0</ele><time>2016-06-18T09:39:31.312Z</time></trkpt><trkpt lat="58.632895" lon="14.54302333"><ele>107.0</ele><time>2016-06-18T09:39:32.320Z</time></trkpt><trkpt lat="58.632895" lon="14.54302333"><ele>107.0</ele><time>2016-06-18T09:39:33.304Z</time></trkpt><trkpt lat="58.63299167" lon="14.54331333"><ele>107.0</ele><time>2016-06-18T09:39:34.296Z</time></trkpt><trkpt lat="58.63299167" lon="14.54331333"><ele>107.0</ele><time>2016-06-18T09:39:35.303Z</time></trkpt><trkpt lat="58.63307333" lon="14.54361167"><ele>107.0</ele><time>2016-06-18T09:39:36.310Z</time></trkpt><trkpt lat="58.63311333" lon="14.54376667"><ele>107.0</ele><time>2016-06-18T09:39:37.283Z</time></trkpt><trkpt lat="58.63311333" lon="14.54376667"><ele>107.0</ele><time>2016-06-18T09:39:38.309Z</time></trkpt><trkpt lat="58.63319667" lon="14.54407833"><ele>108.0</ele><time>2016-06-18T09:39:39.315Z</time></trkpt><trkpt lat="58.63319667" lon="14.54407833"><ele>108.0</ele><time>2016-06-18T09:39:40.304Z</time></trkpt><trkpt lat="58.63327833" lon="14.54439833"><ele>109.0</ele><time>2016-06-18T09:39:41.298Z</time></trkpt><trkpt lat="58.63327833" lon="14.54439833"><ele>109.0</ele><time>2016-06-18T09:39:42.311Z</time></trkpt><trkpt lat="58.63335333" lon="14.54473"><ele>109.0</ele><time>2016-06-18T09:39:43.321Z</time></trkpt><trkpt lat="58.63335333" lon="14.54473"><ele>109.0</ele><time>2016-06-18T09:39:44.303Z</time></trkpt><trkpt lat="58.63343" lon="14.545065"><ele>111.0</ele><time>2016-06-18T09:39:45.288Z</time></trkpt><trkpt lat="58.63343" lon="14.545065"><ele>111.0</ele><time>2016-06-18T09:39:46.298Z</time></trkpt><trkpt lat="58.6335" lon="14.54540167"><ele>113.0</ele><time>2016-06-18T09:39:47.306Z</time></trkpt><trkpt lat="58.63353167" lon="14.545575"><ele>113.0</ele><time>2016-06-18T09:39:48.304Z</time></trkpt><trkpt lat="58.63353167" lon="14.545575"><ele>113.0</ele><time>2016-06-18T09:39:49.291Z</time></trkpt><trkpt lat="58.63359333" lon="14.54592333"><ele>114.0</ele><time>2016-06-18T09:39:50.301Z</time></trkpt><trkpt lat="58.63359333" lon="14.54592333"><ele>114.0</ele><time>2016-06-18T09:39:51.307Z</time></trkpt><trkpt lat="58.63365667" lon="14.54626333"><ele>114.0</ele><time>2016-06-18T09:39:52.314Z</time></trkpt><trkpt lat="58.633685" lon="14.54643333"><ele>114.0</ele><time>2016-06-18T09:39:53.305Z</time></trkpt><trkpt lat="58.633685" lon="14.54643333"><ele>114.0</ele><time>2016-06-18T09:39:54.297Z</time></trkpt><trkpt lat="58.63374" lon="14.54677667"><ele>114.0</ele><time>2016-06-18T09:39:55.305Z</time></trkpt><trkpt lat="58.63376667" lon="14.54695"><ele>114.0</ele><time>2016-06-18T09:39:56.301Z</time></trkpt><trkpt lat="58.63376667" lon="14.54695"><ele>114.0</ele><time>2016-06-18T09:39:57.285Z</time></trkpt><trkpt lat="58.63382333" lon="14.54729167"><ele>113.0</ele><time>2016-06-18T09:39:58.286Z</time></trkpt><trkpt lat="58.63385333" lon="14.547455"><ele>113.0</ele><time>2016-06-18T09:39:59.310Z</time></trkpt><trkpt lat="58.63385333" lon="14.547455"><ele>113.0</ele><time>2016-06-18T09:40:00.299Z</time></trkpt><trkpt lat="58.63391167" lon="14.54778667"><ele>113.0</ele><time>2016-06-18T09:40:01.306Z</time></trkpt><trkpt lat="58.63393833" lon="14.54795167"><ele>113.0</ele><time>2016-06-18T09:40:02.290Z</time></trkpt><trkpt lat="58.63396667" lon="14.548115"><ele>113.0</ele><time>2016-06-18T09:40:03.320Z</time></trkpt><trkpt lat="58.63396667" lon="14.548115"><ele>113.0</ele><time>2016-06-18T09:40:04.297Z</time></trkpt><trkpt lat="58.63402" lon="14.54844667"><ele>113.0</ele><time>2016-06-18T09:40:05.309Z</time></trkpt><trkpt lat="58.63402" lon="14.54844667"><ele>113.0</ele><time>2016-06-18T09:40:06.288Z</time></trkpt><trkpt lat="58.63407667" lon="14.54877833"><ele>113.0</ele><time>2016-06-18T09:40:07.300Z</time></trkpt><trkpt lat="58.63407667" lon="14.54877833"><ele>113.0</ele><time>2016-06-18T09:40:08.321Z</time></trkpt><trkpt lat="58.63413333" lon="14.54910833"><ele>113.0</ele><time>2016-06-18T09:40:09.286Z</time></trkpt><trkpt lat="58.63416333" lon="14.54927167"><ele>113.0</ele><time>2016-06-18T09:40:10.309Z</time></trkpt><trkpt lat="58.63416333" lon="14.54927167"><ele>113.0</ele><time>2016-06-18T09:40:11.297Z</time></trkpt><trkpt lat="58.63422667" lon="14.54959667"><ele>113.0</ele><time>2016-06-18T09:40:12.286Z</time></trkpt><trkpt lat="58.63422667" lon="14.54959667"><ele>113.0</ele><time>2016-06-18T09:40:13.308Z</time></trkpt><trkpt lat="58.63429667" lon="14.549915"><ele>113.0</ele><time>2016-06-18T09:40:14.316Z</time></trkpt><trkpt lat="58.63429667" lon="14.549915"><ele>113.0</ele><time>2016-06-18T09:40:15.302Z</time></trkpt><trkpt lat="58.63437167" lon="14.55023667"><ele>113.0</ele><time>2016-06-18T09:40:16.288Z</time></trkpt><trkpt lat="58.63437167" lon="14.55023667"><ele>113.0</ele><time>2016-06-18T09:40:17.321Z</time></trkpt><trkpt lat="58.63445167" lon="14.550545"><ele>113.0</ele><time>2016-06-18T09:40:18.287Z</time></trkpt><trkpt lat="58.63445167" lon="14.550545"><ele>113.0</ele><time>2016-06-18T09:40:19.310Z</time></trkpt><trkpt lat="58.634535" lon="14.550855"><ele>113.0</ele><time>2016-06-18T09:40:20.288Z</time></trkpt><trkpt lat="58.634535" lon="14.550855"><ele>113.0</ele><time>2016-06-18T09:40:21.317Z</time></trkpt><trkpt lat="58.634625" lon="14.551155"><ele>112.0</ele><time>2016-06-18T09:40:22.285Z</time></trkpt><trkpt lat="58.634675" lon="14.551295"><ele>112.0</ele><time>2016-06-18T09:40:23.309Z</time></trkpt><trkpt lat="58.634675" lon="14.551295"><ele>112.0</ele><time>2016-06-18T09:40:24.315Z</time></trkpt><trkpt lat="58.634775" lon="14.55157667"><ele>112.0</ele><time>2016-06-18T09:40:25.299Z</time></trkpt><trkpt lat="58.634825" lon="14.551715"><ele>112.0</ele><time>2016-06-18T09:40:26.317Z</time></trkpt><trkpt lat="58.634825" lon="14.551715"><ele>112.0</ele><time>2016-06-18T09:40:27.284Z</time></trkpt><trkpt lat="58.63492167" lon="14.551985"><ele>112.0</ele><time>2016-06-18T09:40:28.299Z</time></trkpt><trkpt lat="58.63492167" lon="14.551985"><ele>112.0</ele><time>2016-06-18T09:40:29.312Z</time></trkpt><trkpt lat="58.63502667" lon="14.55223167"><ele>112.0</ele><time>2016-06-18T09:40:30.321Z</time></trkpt><trkpt lat="58.63508" lon="14.55235"><ele>112.0</ele><time>2016-06-18T09:40:31.301Z</time></trkpt><trkpt lat="58.63508" lon="14.55235"><ele>112.0</ele><time>2016-06-18T09:40:32.316Z</time></trkpt><trkpt lat="58.63518667" lon="14.55258"><ele>112.0</ele><time>2016-06-18T09:40:33.285Z</time></trkpt><trkpt lat="58.63518667" lon="14.55258"><ele>112.0</ele><time>2016-06-18T09:40:34.307Z</time></trkpt><trkpt lat="58.63528667" lon="14.55281667"><ele>112.0</ele><time>2016-06-18T09:40:35.319Z</time></trkpt><trkpt lat="58.63528667" lon="14.55281667"><ele>112.0</ele><time>2016-06-18T09:40:36.319Z</time></trkpt><trkpt lat="58.63539667" lon="14.55302833"><ele>112.0</ele><time>2016-06-18T09:40:37.285Z</time></trkpt><trkpt lat="58.635455" lon="14.55313"><ele>112.0</ele><time>2016-06-18T09:40:38.309Z</time></trkpt><trkpt lat="58.635455" lon="14.55313"><ele>112.0</ele><time>2016-06-18T09:40:39.315Z</time></trkpt><trkpt lat="58.63558" lon="14.55332667"><ele>112.0</ele><time>2016-06-18T09:40:40.288Z</time></trkpt><trkpt lat="58.63558" lon="14.55332667"><ele>112.0</ele><time>2016-06-18T09:40:41.300Z</time></trkpt><trkpt lat="58.635705" lon="14.55351167"><ele>112.0</ele><time>2016-06-18T09:40:42.307Z</time></trkpt><trkpt lat="58.635705" lon="14.55351167"><ele>112.0</ele><time>2016-06-18T09:40:43.299Z</time></trkpt><trkpt lat="58.63583333" lon="14.55368333"><ele>113.0</ele><time>2016-06-18T09:40:44.322Z</time></trkpt><trkpt lat="58.63583333" lon="14.55368333"><ele>113.0</ele><time>2016-06-18T09:40:45.298Z</time></trkpt><trkpt lat="58.63596333" lon="14.55383667"><ele>114.0</ele><time>2016-06-18T09:40:46.306Z</time></trkpt><trkpt lat="58.63596333" lon="14.55383667"><ele>114.0</ele><time>2016-06-18T09:40:47.291Z</time></trkpt><trkpt lat="58.636085" lon="14.55399"><ele>114.0</ele><time>2016-06-18T09:40:48.291Z</time></trkpt><trkpt lat="58.636085" lon="14.55399"><ele>114.0</ele><time>2016-06-18T09:40:49.286Z</time></trkpt><trkpt lat="58.636205" lon="14.55412167"><ele>114.0</ele><time>2016-06-18T09:40:50.316Z</time></trkpt><trkpt lat="58.636205" lon="14.55412167"><ele>114.0</ele><time>2016-06-18T09:40:51.300Z</time></trkpt><trkpt lat="58.63633" lon="14.55423833"><ele>114.0</ele><time>2016-06-18T09:40:52.307Z</time></trkpt><trkpt lat="58.63633" lon="14.55423833"><ele>114.0</ele><time>2016-06-18T09:40:53.296Z</time></trkpt><trkpt lat="58.63645" lon="14.55435"><ele>113.0</ele><time>2016-06-18T09:40:54.316Z</time></trkpt><trkpt lat="58.63650833" lon="14.55440667"><ele>113.0</ele><time>2016-06-18T09:40:55.298Z</time></trkpt><trkpt lat="58.63650833" lon="14.55440667"><ele>113.0</ele><time>2016-06-18T09:40:56.308Z</time></trkpt><trkpt lat="58.63662833" lon="14.55452167"><ele>113.0</ele><time>2016-06-18T09:40:57.314Z</time></trkpt><trkpt lat="58.63662833" lon="14.55452167"><ele>113.0</ele><time>2016-06-18T09:40:58.300Z</time></trkpt><trkpt lat="58.63675" lon="14.55462333"><ele>113.0</ele><time>2016-06-18T09:40:59.307Z</time></trkpt><trkpt lat="58.63680667" lon="14.55467667"><ele>113.0</ele><time>2016-06-18T09:41:00.297Z</time></trkpt><trkpt lat="58.63680667" lon="14.55467667"><ele>113.0</ele><time>2016-06-18T09:41:01.314Z</time></trkpt><trkpt lat="58.63691667" lon="14.55477333"><ele>113.0</ele><time>2016-06-18T09:41:02.283Z</time></trkpt><trkpt lat="58.636975" lon="14.55482333"><ele>113.0</ele><time>2016-06-18T09:41:03.306Z</time></trkpt><trkpt lat="58.636975" lon="14.55482333"><ele>113.0</ele><time>2016-06-18T09:41:04.322Z</time></trkpt><trkpt lat="58.63709833" lon="14.554945"><ele>113.0</ele><time>2016-06-18T09:41:05.287Z</time></trkpt><trkpt lat="58.63709833" lon="14.554945"><ele>113.0</ele><time>2016-06-18T09:41:06.310Z</time></trkpt><trkpt lat="58.63722167" lon="14.55504167"><ele>113.0</ele><time>2016-06-18T09:41:07.300Z</time></trkpt><trkpt lat="58.63728" lon="14.55508167"><ele>113.0</ele><time>2016-06-18T09:41:08.311Z</time></trkpt><trkpt lat="58.63728" lon="14.55508167"><ele>113.0</ele><time>2016-06-18T09:41:09.300Z</time></trkpt><trkpt lat="58.63738833" lon="14.55517833"><ele>113.0</ele><time>2016-06-18T09:41:10.303Z</time></trkpt><trkpt lat="58.63744" lon="14.55521833"><ele>112.0</ele><time>2016-06-18T09:41:11.301Z</time></trkpt><trkpt lat="58.63744" lon="14.55521833"><ele>112.0</ele><time>2016-06-18T09:41:12.319Z</time></trkpt><trkpt lat="58.637545" lon="14.55530167"><ele>112.0</ele><time>2016-06-18T09:41:13.285Z</time></trkpt><trkpt lat="58.637545" lon="14.55530167"><ele>112.0</ele><time>2016-06-18T09:41:14.308Z</time></trkpt><trkpt lat="58.63764833" lon="14.55539833"><ele>112.0</ele><time>2016-06-18T09:41:15.286Z</time></trkpt><trkpt lat="58.63764833" lon="14.55539833"><ele>112.0</ele><time>2016-06-18T09:41:16.290Z</time></trkpt><trkpt lat="58.637755" lon="14.55549833"><ele>112.0</ele><time>2016-06-18T09:41:17.301Z</time></trkpt><trkpt lat="58.63781167" lon="14.55554167"><ele>112.0</ele><time>2016-06-18T09:41:18.302Z</time></trkpt><trkpt lat="58.63786333" lon="14.555585"><ele>112.0</ele><time>2016-06-18T09:41:19.297Z</time></trkpt><trkpt lat="58.63786333" lon="14.555585"><ele>112.0</ele><time>2016-06-18T09:41:20.282Z</time></trkpt><trkpt lat="58.63796667" lon="14.555685"><ele>112.0</ele><time>2016-06-18T09:41:21.302Z</time></trkpt><trkpt lat="58.63796667" lon="14.555685"><ele>112.0</ele><time>2016-06-18T09:41:22.322Z</time></trkpt><trkpt lat="58.63807" lon="14.55579833"><ele>112.0</ele><time>2016-06-18T09:41:23.289Z</time></trkpt><trkpt lat="58.63807" lon="14.55579833"><ele>112.0</ele><time>2016-06-18T09:41:24.313Z</time></trkpt><trkpt lat="58.63818" lon="14.555875"><ele>112.0</ele><time>2016-06-18T09:41:25.300Z</time></trkpt><trkpt lat="58.63818" lon="14.555875"><ele>112.0</ele><time>2016-06-18T09:41:26.310Z</time></trkpt><trkpt lat="58.63829167" lon="14.55595333"><ele>112.0</ele><time>2016-06-18T09:41:27.317Z</time></trkpt><trkpt lat="58.63829167" lon="14.55595333"><ele>112.0</ele><time>2016-06-18T09:41:28.301Z</time></trkpt><trkpt lat="58.63839667" lon="14.556035"><ele>112.0</ele><time>2016-06-18T09:41:29.297Z</time></trkpt><trkpt lat="58.63844667" lon="14.556085"><ele>112.0</ele><time>2016-06-18T09:41:30.300Z</time></trkpt><trkpt lat="58.63844667" lon="14.556085"><ele>112.0</ele><time>2016-06-18T09:41:31.285Z</time></trkpt><trkpt lat="58.63854833" lon="14.55618833"><ele>111.0</ele><time>2016-06-18T09:41:32.297Z</time></trkpt><trkpt lat="58.63854833" lon="14.55618833"><ele>111.0</ele><time>2016-06-18T09:41:33.298Z</time></trkpt><trkpt lat="58.63864833" lon="14.55628667"><ele>111.0</ele><time>2016-06-18T09:41:34.306Z</time></trkpt><trkpt lat="58.63864833" lon="14.55628667"><ele>111.0</ele><time>2016-06-18T09:41:35.294Z</time></trkpt><trkpt lat="58.63876833" lon="14.55639333"><ele>111.0</ele><time>2016-06-18T09:41:36.301Z</time></trkpt><trkpt lat="58.63876833" lon="14.55639333"><ele>111.0</ele><time>2016-06-18T09:41:37.310Z</time></trkpt><trkpt lat="58.63888833" lon="14.55648167"><ele>112.0</ele><time>2016-06-18T09:41:38.317Z</time></trkpt><trkpt lat="58.63888833" lon="14.55648167"><ele>112.0</ele><time>2016-06-18T09:41:39.304Z</time></trkpt><trkpt lat="58.639005" lon="14.55657167"><ele>112.0</ele><time>2016-06-18T09:41:40.291Z</time></trkpt><trkpt lat="58.639065" lon="14.55661667"><ele>112.0</ele><time>2016-06-18T09:41:41.289Z</time></trkpt><trkpt lat="58.639065" lon="14.55661667"><ele>112.0</ele><time>2016-06-18T09:41:42.312Z</time></trkpt><trkpt lat="58.639185" lon="14.55670167"><ele>112.0</ele><time>2016-06-18T09:41:43.286Z</time></trkpt><trkpt lat="58.63923667" lon="14.55675"><ele>112.0</ele><time>2016-06-18T09:41:44.309Z</time></trkpt><trkpt lat="58.63923667" lon="14.55675"><ele>112.0</ele><time>2016-06-18T09:41:45.284Z</time></trkpt><trkpt lat="58.63934333" lon="14.55685333"><ele>112.0</ele><time>2016-06-18T09:41:46.290Z</time></trkpt><trkpt lat="58.63939667" lon="14.55691"><ele>113.0</ele><time>2016-06-18T09:41:47.290Z</time></trkpt><trkpt lat="58.63939667" lon="14.55691"><ele>113.0</ele><time>2016-06-18T09:41:48.300Z</time></trkpt><trkpt lat="58.63950333" lon="14.55701"><ele>112.0</ele><time>2016-06-18T09:41:49.310Z</time></trkpt><trkpt lat="58.63950333" lon="14.55701"><ele>112.0</ele><time>2016-06-18T09:41:50.290Z</time></trkpt><trkpt lat="58.63962" lon="14.55711167"><ele>112.0</ele><time>2016-06-18T09:41:51.300Z</time></trkpt><trkpt lat="58.63962" lon="14.55711167"><ele>112.0</ele><time>2016-06-18T09:41:52.286Z</time></trkpt><trkpt lat="58.63973833" lon="14.55720833"><ele>112.0</ele><time>2016-06-18T09:41:53.293Z</time></trkpt><trkpt lat="58.63973833" lon="14.55720833"><ele>112.0</ele><time>2016-06-18T09:41:54.316Z</time></trkpt><trkpt lat="58.63984833" lon="14.55731667"><ele>112.0</ele><time>2016-06-18T09:41:55.302Z</time></trkpt><trkpt lat="58.63984833" lon="14.55731667"><ele>112.0</ele><time>2016-06-18T09:41:56.301Z</time></trkpt><trkpt lat="58.63995167" lon="14.557445"><ele>112.0</ele><time>2016-06-18T09:41:57.308Z</time></trkpt><trkpt lat="58.63995167" lon="14.557445"><ele>112.0</ele><time>2016-06-18T09:41:58.300Z</time></trkpt><trkpt lat="58.64006833" lon="14.55756167"><ele>112.0</ele><time>2016-06-18T09:41:59.289Z</time></trkpt><trkpt lat="58.64006833" lon="14.55756167"><ele>112.0</ele><time>2016-06-18T09:42:00.290Z</time></trkpt><trkpt lat="58.64017167" lon="14.55768333"><ele>112.0</ele><time>2016-06-18T09:42:01.300Z</time></trkpt><trkpt lat="58.640225" lon="14.55774667"><ele>111.0</ele><time>2016-06-18T09:42:02.287Z</time></trkpt><trkpt lat="58.640225" lon="14.55774667"><ele>111.0</ele><time>2016-06-18T09:42:03.311Z</time></trkpt><trkpt lat="58.64032667" lon="14.55787667"><ele>111.0</ele><time>2016-06-18T09:42:04.318Z</time></trkpt><trkpt lat="58.64037667" lon="14.55794833"><ele>111.0</ele><time>2016-06-18T09:42:05.316Z</time></trkpt><trkpt lat="58.64037667" lon="14.55794833"><ele>111.0</ele><time>2016-06-18T09:42:06.300Z</time></trkpt><trkpt lat="58.64049167" lon="14.55809"><ele>110.0</ele><time>2016-06-18T09:42:07.306Z</time></trkpt><trkpt lat="58.64054" lon="14.55814833"><ele>110.0</ele><time>2016-06-18T09:42:08.292Z</time></trkpt><trkpt lat="58.64054" lon="14.55814833"><ele>110.0</ele><time>2016-06-18T09:42:09.285Z</time></trkpt><trkpt lat="58.64067" lon="14.55826"><ele>112.0</ele><time>2016-06-18T09:42:10.301Z</time></trkpt><trkpt lat="58.64067" lon="14.55826"><ele>112.0</ele><time>2016-06-18T09:42:11.310Z</time></trkpt><trkpt lat="58.64078833" lon="14.558385"><ele>113.0</ele><time>2016-06-18T09:42:12.305Z</time></trkpt><trkpt lat="58.64086" lon="14.55845"><ele>114.0</ele><time>2016-06-18T09:42:13.308Z</time></trkpt><trkpt lat="58.64086" lon="14.55845"><ele>114.0</ele><time>2016-06-18T09:42:14.296Z</time></trkpt><trkpt lat="58.64099833" lon="14.55858833"><ele>115.0</ele><time>2016-06-18T09:42:15.290Z</time></trkpt><trkpt lat="58.64099833" lon="14.55858833"><ele>115.0</ele><time>2016-06-18T09:42:16.300Z</time></trkpt><trkpt lat="58.64112167" lon="14.55872167"><ele>115.0</ele><time>2016-06-18T09:42:17.309Z</time></trkpt><trkpt lat="58.64112167" lon="14.55872167"><ele>115.0</ele><time>2016-06-18T09:42:18.293Z</time></trkpt><trkpt lat="58.64122167" lon="14.55886833"><ele>114.0</ele><time>2016-06-18T09:42:19.288Z</time></trkpt><trkpt lat="58.64126833" lon="14.55894333"><ele>114.0</ele><time>2016-06-18T09:42:20.311Z</time></trkpt><trkpt lat="58.64126833" lon="14.55894333"><ele>114.0</ele><time>2016-06-18T09:42:21.299Z</time></trkpt><trkpt lat="58.64136667" lon="14.55912167"><ele>114.0</ele><time>2016-06-18T09:42:22.307Z</time></trkpt><trkpt lat="58.64141667" lon="14.559215"><ele>114.0</ele><time>2016-06-18T09:42:23.293Z</time></trkpt><trkpt lat="58.64141667" lon="14.559215"><ele>114.0</ele><time>2016-06-18T09:42:24.317Z</time></trkpt><trkpt lat="58.64151333" lon="14.5594"><ele>114.0</ele><time>2016-06-18T09:42:25.286Z</time></trkpt><trkpt lat="58.64151333" lon="14.5594"><ele>114.0</ele><time>2016-06-18T09:42:26.288Z</time></trkpt><trkpt lat="58.64160833" lon="14.55959667"><ele>113.0</ele><time>2016-06-18T09:42:27.297Z</time></trkpt><trkpt lat="58.64165" lon="14.55969833"><ele>113.0</ele><time>2016-06-18T09:42:28.322Z</time></trkpt><trkpt lat="58.64165" lon="14.55969833"><ele>113.0</ele><time>2016-06-18T09:42:29.298Z</time></trkpt><trkpt lat="58.64174667" lon="14.55989333"><ele>113.0</ele><time>2016-06-18T09:42:30.306Z</time></trkpt><trkpt lat="58.6418" lon="14.559995"><ele>113.0</ele><time>2016-06-18T09:42:31.284Z</time></trkpt><trkpt lat="58.6418" lon="14.559995"><ele>113.0</ele><time>2016-06-18T09:42:32.298Z</time></trkpt><trkpt lat="58.64191" lon="14.560185"><ele>112.0</ele><time>2016-06-18T09:42:33.314Z</time></trkpt><trkpt lat="58.64196333" lon="14.56028667"><ele>112.0</ele><time>2016-06-18T09:42:34.285Z</time></trkpt><trkpt lat="58.64196333" lon="14.56028667"><ele>112.0</ele><time>2016-06-18T09:42:35.310Z</time></trkpt><trkpt lat="58.64206667" lon="14.56049833"><ele>112.0</ele><time>2016-06-18T09:42:36.322Z</time></trkpt><trkpt lat="58.64206667" lon="14.56049833"><ele>112.0</ele><time>2016-06-18T09:42:37.308Z</time></trkpt><trkpt lat="58.642175" lon="14.560695"><ele>111.0</ele><time>2016-06-18T09:42:38.323Z</time></trkpt><trkpt lat="58.642175" lon="14.560695"><ele>111.0</ele><time>2016-06-18T09:42:39.322Z</time></trkpt><trkpt lat="58.64229" lon="14.560915"><ele>111.0</ele><time>2016-06-18T09:42:40.287Z</time></trkpt><trkpt lat="58.64229" lon="14.560915"><ele>111.0</ele><time>2016-06-18T09:42:41.310Z</time></trkpt><trkpt lat="58.64241167" lon="14.56111333"><ele>111.0</ele><time>2016-06-18T09:42:42.288Z</time></trkpt><trkpt lat="58.64241167" lon="14.56111333"><ele>111.0</ele><time>2016-06-18T09:42:43.282Z</time></trkpt><trkpt lat="58.64252333" lon="14.56132833"><ele>110.0</ele><time>2016-06-18T09:42:44.288Z</time></trkpt><trkpt lat="58.64252333" lon="14.56132833"><ele>110.0</ele><time>2016-06-18T09:42:45.314Z</time></trkpt><trkpt lat="58.64262333" lon="14.56155167"><ele>110.0</ele><time>2016-06-18T09:42:46.322Z</time></trkpt><trkpt lat="58.64262333" lon="14.56155167"><ele>110.0</ele><time>2016-06-18T09:42:47.303Z</time></trkpt><trkpt lat="58.64273167" lon="14.56178667"><ele>110.0</ele><time>2016-06-18T09:42:48.310Z</time></trkpt><trkpt lat="58.64273167" lon="14.56178667"><ele>110.0</ele><time>2016-06-18T09:42:49.297Z</time></trkpt><trkpt lat="58.64284167" lon="14.56202333"><ele>110.0</ele><time>2016-06-18T09:42:50.323Z</time></trkpt><trkpt lat="58.64284167" lon="14.56202333"><ele>110.0</ele><time>2016-06-18T09:42:51.315Z</time></trkpt><trkpt lat="58.64296333" lon="14.562245"><ele>109.0</ele><time>2016-06-18T09:42:52.284Z</time></trkpt><trkpt lat="58.64302333" lon="14.56235167"><ele>109.0</ele><time>2016-06-18T09:42:53.310Z</time></trkpt><trkpt lat="58.64302333" lon="14.56235167"><ele>109.0</ele><time>2016-06-18T09:42:54.298Z</time></trkpt><trkpt lat="58.64314333" lon="14.56258667"><ele>109.0</ele><time>2016-06-18T09:42:55.309Z</time></trkpt><trkpt lat="58.64320333" lon="14.56270667"><ele>109.0</ele><time>2016-06-18T09:42:56.289Z</time></trkpt><trkpt lat="58.64320333" lon="14.56270667"><ele>109.0</ele><time>2016-06-18T09:42:57.315Z</time></trkpt><trkpt lat="58.64331833" lon="14.56295167"><ele>109.0</ele><time>2016-06-18T09:42:58.283Z</time></trkpt><trkpt lat="58.64331833" lon="14.56295167"><ele>109.0</ele><time>2016-06-18T09:42:59.308Z</time></trkpt><trkpt lat="58.64344333" lon="14.56317833"><ele>109.0</ele><time>2016-06-18T09:43:00.299Z</time></trkpt><trkpt lat="58.64344333" lon="14.56317833"><ele>109.0</ele><time>2016-06-18T09:43:01.300Z</time></trkpt><trkpt lat="58.64357667" lon="14.56342"><ele>109.0</ele><time>2016-06-18T09:43:02.308Z</time></trkpt><trkpt lat="58.64363833" lon="14.56354833"><ele>109.0</ele><time>2016-06-18T09:43:03.300Z</time></trkpt><trkpt lat="58.64363833" lon="14.56354833"><ele>109.0</ele><time>2016-06-18T09:43:04.286Z</time></trkpt><trkpt lat="58.643765" lon="14.56378667"><ele>109.0</ele><time>2016-06-18T09:43:05.300Z</time></trkpt><trkpt lat="58.64382833" lon="14.56390333"><ele>108.0</ele><time>2016-06-18T09:43:06.310Z</time></trkpt><trkpt lat="58.64382833" lon="14.56390333"><ele>108.0</ele><time>2016-06-18T09:43:07.286Z</time></trkpt><trkpt lat="58.64395333" lon="14.56414167"><ele>108.0</ele><time>2016-06-18T09:43:08.292Z</time></trkpt><trkpt lat="58.64395333" lon="14.56414167"><ele>108.0</ele><time>2016-06-18T09:43:09.318Z</time></trkpt><trkpt lat="58.64409333" lon="14.56437"><ele>108.0</ele><time>2016-06-18T09:43:10.285Z</time></trkpt><trkpt lat="58.64409333" lon="14.56437"><ele>108.0</ele><time>2016-06-18T09:43:11.298Z</time></trkpt><trkpt lat="58.64422667" lon="14.56459"><ele>108.0</ele><time>2016-06-18T09:43:12.301Z</time></trkpt><trkpt lat="58.64422667" lon="14.56459"><ele>108.0</ele><time>2016-06-18T09:43:13.287Z</time></trkpt><trkpt lat="58.64436333" lon="14.56481667"><ele>108.0</ele><time>2016-06-18T09:43:14.293Z</time></trkpt><trkpt lat="58.64436333" lon="14.56481667"><ele>108.0</ele><time>2016-06-18T09:43:15.313Z</time></trkpt><trkpt lat="58.64451167" lon="14.56503333"><ele>109.0</ele><time>2016-06-18T09:43:16.288Z</time></trkpt><trkpt lat="58.64451167" lon="14.56503333"><ele>109.0</ele><time>2016-06-18T09:43:17.283Z</time></trkpt><trkpt lat="58.64466167" lon="14.56525833"><ele>110.0</ele><time>2016-06-18T09:43:18.290Z</time></trkpt><trkpt lat="58.64466167" lon="14.56525833"><ele>110.0</ele><time>2016-06-18T09:43:19.323Z</time></trkpt><trkpt lat="58.64482167" lon="14.56547167"><ele>113.0</ele><time>2016-06-18T09:43:20.284Z</time></trkpt><trkpt lat="58.64482167" lon="14.56547167"><ele>113.0</ele><time>2016-06-18T09:43:21.306Z</time></trkpt><trkpt lat="58.64497667" lon="14.56567667"><ele>114.0</ele><time>2016-06-18T09:43:22.313Z</time></trkpt><trkpt lat="58.64505167" lon="14.56578167"><ele>115.0</ele><time>2016-06-18T09:43:23.302Z</time></trkpt><trkpt lat="58.64505167" lon="14.56578167"><ele>115.0</ele><time>2016-06-18T09:43:24.284Z</time></trkpt><trkpt lat="58.64520167" lon="14.56598167"><ele>115.0</ele><time>2016-06-18T09:43:25.292Z</time></trkpt><trkpt lat="58.64528" lon="14.56608667"><ele>116.0</ele><time>2016-06-18T09:43:26.285Z</time></trkpt><trkpt lat="58.64528" lon="14.56608667"><ele>116.0</ele><time>2016-06-18T09:43:27.319Z</time></trkpt><trkpt lat="58.64544" lon="14.566295"><ele>118.0</ele><time>2016-06-18T09:43:28.287Z</time></trkpt><trkpt lat="58.64551667" lon="14.5664"><ele>119.0</ele><time>2016-06-18T09:43:29.311Z</time></trkpt><trkpt lat="58.64551667" lon="14.5664"><ele>119.0</ele><time>2016-06-18T09:43:30.302Z</time></trkpt><trkpt lat="58.64567" lon="14.56659"><ele>120.0</ele><time>2016-06-18T09:43:31.294Z</time></trkpt><trkpt lat="58.64567" lon="14.56659"><ele>120.0</ele><time>2016-06-18T09:43:32.312Z</time></trkpt><trkpt lat="58.64581667" lon="14.56677333"><ele>121.0</ele><time>2016-06-18T09:43:33.318Z</time></trkpt><trkpt lat="58.64588667" lon="14.56686667"><ele>120.0</ele><time>2016-06-18T09:43:34.318Z</time></trkpt><trkpt lat="58.64588667" lon="14.56686667"><ele>120.0</ele><time>2016-06-18T09:43:35.319Z</time></trkpt><trkpt lat="58.64603" lon="14.567055"><ele>120.0</ele><time>2016-06-18T09:43:36.286Z</time></trkpt><trkpt lat="58.64609833" lon="14.56715167"><ele>120.0</ele><time>2016-06-18T09:43:37.310Z</time></trkpt><trkpt lat="58.64617167" lon="14.56723833"><ele>120.0</ele><time>2016-06-18T09:43:38.300Z</time></trkpt><trkpt lat="58.64617167" lon="14.56723833"><ele>120.0</ele><time>2016-06-18T09:43:39.285Z</time></trkpt><trkpt lat="58.64630833" lon="14.567425"><ele>119.0</ele><time>2016-06-18T09:43:40.317Z</time></trkpt><trkpt lat="58.64630833" lon="14.567425"><ele>119.0</ele><time>2016-06-18T09:43:41.285Z</time></trkpt><trkpt lat="58.64643833" lon="14.56763"><ele>119.0</ele><time>2016-06-18T09:43:42.292Z</time></trkpt><trkpt lat="58.64643833" lon="14.56763"><ele>119.0</ele><time>2016-06-18T09:43:43.314Z</time></trkpt><trkpt lat="58.64657333" lon="14.56783"><ele>119.0</ele><time>2016-06-18T09:43:44.292Z</time></trkpt><trkpt lat="58.64657333" lon="14.56783"><ele>119.0</ele><time>2016-06-18T09:43:45.286Z</time></trkpt><trkpt lat="58.64670167" lon="14.56802667"><ele>119.0</ele><time>2016-06-18T09:43:46.291Z</time></trkpt><trkpt lat="58.64676667" lon="14.56812333"><ele>119.0</ele><time>2016-06-18T09:43:47.284Z</time></trkpt><trkpt lat="58.64676667" lon="14.56812333"><ele>119.0</ele><time>2016-06-18T09:43:48.282Z</time></trkpt><trkpt lat="58.64690833" lon="14.56831333"><ele>119.0</ele><time>2016-06-18T09:43:49.301Z</time></trkpt><trkpt lat="58.64697333" lon="14.56841"><ele>118.0</ele><time>2016-06-18T09:43:50.323Z</time></trkpt><trkpt lat="58.64697333" lon="14.56841"><ele>118.0</ele><time>2016-06-18T09:43:51.294Z</time></trkpt><trkpt lat="58.64710833" lon="14.568605"><ele>118.0</ele><time>2016-06-18T09:43:52.303Z</time></trkpt><trkpt lat="58.64717667" lon="14.568695"><ele>118.0</ele><time>2016-06-18T09:43:53.317Z</time></trkpt><trkpt lat="58.64717667" lon="14.568695"><ele>118.0</ele><time>2016-06-18T09:43:54.310Z</time></trkpt><trkpt lat="58.64730833" lon="14.56889167"><ele>118.0</ele><time>2016-06-18T09:43:55.283Z</time></trkpt><trkpt lat="58.64738167" lon="14.56897667"><ele>118.0</ele><time>2016-06-18T09:43:56.307Z</time></trkpt><trkpt lat="58.64738167" lon="14.56897667"><ele>118.0</ele><time>2016-06-18T09:43:57.293Z</time></trkpt><trkpt lat="58.647515" lon="14.56915333"><ele>118.0</ele><time>2016-06-18T09:43:58.310Z</time></trkpt><trkpt lat="58.64757833" lon="14.56924"><ele>118.0</ele><time>2016-06-18T09:43:59.321Z</time></trkpt><trkpt lat="58.64757833" lon="14.56924"><ele>118.0</ele><time>2016-06-18T09:44:00.311Z</time></trkpt><trkpt lat="58.64769333" lon="14.569425"><ele>118.0</ele><time>2016-06-18T09:44:01.283Z</time></trkpt><trkpt lat="58.64769333" lon="14.569425"><ele>118.0</ele><time>2016-06-18T09:44:02.311Z</time></trkpt><trkpt lat="58.64781" lon="14.56960667"><ele>118.0</ele><time>2016-06-18T09:44:03.285Z</time></trkpt><trkpt lat="58.64781" lon="14.56960667"><ele>118.0</ele><time>2016-06-18T09:44:04.314Z</time></trkpt><trkpt lat="58.64792833" lon="14.56979333"><ele>118.0</ele><time>2016-06-18T09:44:05.302Z</time></trkpt><trkpt lat="58.64792833" lon="14.56979333"><ele>118.0</ele><time>2016-06-18T09:44:06.287Z</time></trkpt><trkpt lat="58.64804" lon="14.56997333"><ele>118.0</ele><time>2016-06-18T09:44:07.301Z</time></trkpt><trkpt lat="58.64809333" lon="14.57005667"><ele>117.0</ele><time>2016-06-18T09:44:08.318Z</time></trkpt><trkpt lat="58.64809333" lon="14.57005667"><ele>117.0</ele><time>2016-06-18T09:44:09.290Z</time></trkpt><trkpt lat="58.64820833" lon="14.57020833"><ele>118.0</ele><time>2016-06-18T09:44:10.301Z</time></trkpt><trkpt lat="58.64820833" lon="14.57020833"><ele>118.0</ele><time>2016-06-18T09:44:11.308Z</time></trkpt><trkpt lat="58.648315" lon="14.57037333"><ele>117.0</ele><time>2016-06-18T09:44:12.307Z</time></trkpt><trkpt lat="58.64837833" lon="14.57045167"><ele>118.0</ele><time>2016-06-18T09:44:13.290Z</time></trkpt><trkpt lat="58.64837833" lon="14.57045167"><ele>118.0</ele><time>2016-06-18T09:44:14.300Z</time></trkpt><trkpt lat="58.64849833" lon="14.57062167"><ele>118.0</ele><time>2016-06-18T09:44:15.309Z</time></trkpt><trkpt lat="58.64855" lon="14.57071333"><ele>118.0</ele><time>2016-06-18T09:44:16.298Z</time></trkpt><trkpt lat="58.64855" lon="14.57071333"><ele>118.0</ele><time>2016-06-18T09:44:17.290Z</time></trkpt><trkpt lat="58.648665" lon="14.57088"><ele>119.0</ele><time>2016-06-18T09:44:18.299Z</time></trkpt><trkpt lat="58.64871833" lon="14.57096167"><ele>119.0</ele><time>2016-06-18T09:44:19.284Z</time></trkpt><trkpt lat="58.64877" lon="14.57104833"><ele>119.0</ele><time>2016-06-18T09:44:20.312Z</time></trkpt><trkpt lat="58.64877" lon="14.57104833"><ele>119.0</ele><time>2016-06-18T09:44:21.301Z</time></trkpt><trkpt lat="58.64888" lon="14.57121333"><ele>119.0</ele><time>2016-06-18T09:44:22.282Z</time></trkpt><trkpt lat="58.64888" lon="14.57121333"><ele>119.0</ele><time>2016-06-18T09:44:23.296Z</time></trkpt><trkpt lat="58.64899" lon="14.57137667"><ele>119.0</ele><time>2016-06-18T09:44:24.308Z</time></trkpt><trkpt lat="58.64904167" lon="14.57146167"><ele>119.0</ele><time>2016-06-18T09:44:25.289Z</time></trkpt><trkpt lat="58.649095" lon="14.57155"><ele>119.0</ele><time>2016-06-18T09:44:26.298Z</time></trkpt><trkpt lat="58.649095" lon="14.57155"><ele>119.0</ele><time>2016-06-18T09:44:27.320Z</time></trkpt><trkpt lat="58.649205" lon="14.57172"><ele>120.0</ele><time>2016-06-18T09:44:28.287Z</time></trkpt><trkpt lat="58.64925833" lon="14.571805"><ele>120.0</ele><time>2016-06-18T09:44:29.320Z</time></trkpt><trkpt lat="58.64925833" lon="14.571805"><ele>120.0</ele><time>2016-06-18T09:44:30.305Z</time></trkpt><trkpt lat="58.64936167" lon="14.57196667"><ele>119.0</ele><time>2016-06-18T09:44:31.318Z</time></trkpt><trkpt lat="58.64941167" lon="14.57205"><ele>119.0</ele><time>2016-06-18T09:44:32.311Z</time></trkpt><trkpt lat="58.64941167" lon="14.57205"><ele>119.0</ele><time>2016-06-18T09:44:33.299Z</time></trkpt><trkpt lat="58.64951667" lon="14.57223333"><ele>120.0</ele><time>2016-06-18T09:44:34.313Z</time></trkpt><trkpt lat="58.649565" lon="14.57231833"><ele>120.0</ele><time>2016-06-18T09:44:35.306Z</time></trkpt><trkpt lat="58.649565" lon="14.57231833"><ele>120.0</ele><time>2016-06-18T09:44:36.294Z</time></trkpt><trkpt lat="58.64966667" lon="14.57249167"><ele>120.0</ele><time>2016-06-18T09:44:37.301Z</time></trkpt><trkpt lat="58.64971667" lon="14.572585"><ele>121.0</ele><time>2016-06-18T09:44:38.287Z</time></trkpt><trkpt lat="58.64971667" lon="14.572585"><ele>121.0</ele><time>2016-06-18T09:44:39.311Z</time></trkpt><trkpt lat="58.64982333" lon="14.572775"><ele>122.0</ele><time>2016-06-18T09:44:40.318Z</time></trkpt><trkpt lat="58.64982333" lon="14.572775"><ele>122.0</ele><time>2016-06-18T09:44:41.302Z</time></trkpt><trkpt lat="58.64991667" lon="14.57297"><ele>122.0</ele><time>2016-06-18T09:44:42.315Z</time></trkpt><trkpt lat="58.64991667" lon="14.57297"><ele>122.0</ele><time>2016-06-18T09:44:43.300Z</time></trkpt><trkpt lat="58.650015" lon="14.57317167"><ele>122.0</ele><time>2016-06-18T09:44:44.292Z</time></trkpt><trkpt lat="58.650015" lon="14.57317167"><ele>122.0</ele><time>2016-06-18T09:44:45.312Z</time></trkpt><trkpt lat="58.65011667" lon="14.57336167"><ele>122.0</ele><time>2016-06-18T09:44:46.318Z</time></trkpt><trkpt lat="58.65011667" lon="14.57336167"><ele>122.0</ele><time>2016-06-18T09:44:47.303Z</time></trkpt><trkpt lat="58.65022" lon="14.573545"><ele>122.0</ele><time>2016-06-18T09:44:48.298Z</time></trkpt><trkpt lat="58.65022" lon="14.573545"><ele>122.0</ele><time>2016-06-18T09:44:49.289Z</time></trkpt><trkpt lat="58.65033" lon="14.573735"><ele>123.0</ele><time>2016-06-18T09:44:50.303Z</time></trkpt><trkpt lat="58.65038333" lon="14.57383333"><ele>124.0</ele><time>2016-06-18T09:44:51.287Z</time></trkpt><trkpt lat="58.65038333" lon="14.57383333"><ele>124.0</ele><time>2016-06-18T09:44:52.319Z</time></trkpt><trkpt lat="58.65048167" lon="14.57401667"><ele>124.0</ele><time>2016-06-18T09:44:53.288Z</time></trkpt><trkpt lat="58.65052833" lon="14.57411167"><ele>124.0</ele><time>2016-06-18T09:44:54.310Z</time></trkpt><trkpt lat="58.65057667" lon="14.57420333"><ele>125.0</ele><time>2016-06-18T09:44:55.287Z</time></trkpt><trkpt lat="58.65062167" lon="14.57429167"><ele>125.0</ele><time>2016-06-18T09:44:56.311Z</time></trkpt><trkpt lat="58.65062167" lon="14.57429167"><ele>125.0</ele><time>2016-06-18T09:44:57.300Z</time></trkpt><trkpt lat="58.65071167" lon="14.57448"><ele>126.0</ele><time>2016-06-18T09:44:58.284Z</time></trkpt><trkpt lat="58.65075333" lon="14.57457"><ele>126.0</ele><time>2016-06-18T09:44:59.317Z</time></trkpt><trkpt lat="58.650795" lon="14.57466"><ele>126.0</ele><time>2016-06-18T09:45:00.307Z</time></trkpt><trkpt lat="58.650795" lon="14.57466"><ele>126.0</ele><time>2016-06-18T09:45:01.300Z</time></trkpt><trkpt lat="58.65089" lon="14.574845"><ele>127.0</ele><time>2016-06-18T09:45:02.307Z</time></trkpt><trkpt lat="58.65089" lon="14.574845"><ele>127.0</ele><time>2016-06-18T09:45:03.298Z</time></trkpt><trkpt lat="58.65097" lon="14.57504167"><ele>127.0</ele><time>2016-06-18T09:45:04.290Z</time></trkpt><trkpt lat="58.65097" lon="14.57504167"><ele>127.0</ele><time>2016-06-18T09:45:05.302Z</time></trkpt><trkpt lat="58.65105667" lon="14.57522667"><ele>128.0</ele><time>2016-06-18T09:45:06.309Z</time></trkpt><trkpt lat="58.65105667" lon="14.57522667"><ele>128.0</ele><time>2016-06-18T09:45:07.300Z</time></trkpt><trkpt lat="58.65114333" lon="14.57541667"><ele>128.0</ele><time>2016-06-18T09:45:08.315Z</time></trkpt><trkpt lat="58.65114333" lon="14.57541667"><ele>128.0</ele><time>2016-06-18T09:45:09.304Z</time></trkpt><trkpt lat="58.65123167" lon="14.575605"><ele>129.0</ele><time>2016-06-18T09:45:10.320Z</time></trkpt><trkpt lat="58.65127333" lon="14.57569667"><ele>129.0</ele><time>2016-06-18T09:45:11.293Z</time></trkpt><trkpt lat="58.65127333" lon="14.57569667"><ele>129.0</ele><time>2016-06-18T09:45:12.299Z</time></trkpt><trkpt lat="58.65135167" lon="14.57588167"><ele>130.0</ele><time>2016-06-18T09:45:13.307Z</time></trkpt><trkpt lat="58.65135167" lon="14.57588167"><ele>130.0</ele><time>2016-06-18T09:45:14.292Z</time></trkpt><trkpt lat="58.65143333" lon="14.57606167"><ele>131.0</ele><time>2016-06-18T09:45:15.296Z</time></trkpt><trkpt lat="58.65143333" lon="14.57606167"><ele>131.0</ele><time>2016-06-18T09:45:16.304Z</time></trkpt><trkpt lat="58.65151833" lon="14.57624"><ele>132.0</ele><time>2016-06-18T09:45:17.312Z</time></trkpt><trkpt lat="58.65155833" lon="14.57633"><ele>132.0</ele><time>2016-06-18T09:45:18.308Z</time></trkpt><trkpt lat="58.65155833" lon="14.57633"><ele>132.0</ele><time>2016-06-18T09:45:19.315Z</time></trkpt><trkpt lat="58.65164667" lon="14.57652833"><ele>133.0</ele><time>2016-06-18T09:45:20.288Z</time></trkpt><trkpt lat="58.65169" lon="14.57662667"><ele>134.0</ele><time>2016-06-18T09:45:21.307Z</time></trkpt><trkpt lat="58.65169" lon="14.57662667"><ele>134.0</ele><time>2016-06-18T09:45:22.307Z</time></trkpt><trkpt lat="58.65178" lon="14.57682333"><ele>135.0</ele><time>2016-06-18T09:45:23.324Z</time></trkpt><trkpt lat="58.65178" lon="14.57682333"><ele>135.0</ele><time>2016-06-18T09:45:24.307Z</time></trkpt><trkpt lat="58.65187667" lon="14.57700833"><ele>137.0</ele><time>2016-06-18T09:45:25.287Z</time></trkpt><trkpt lat="58.65191667" lon="14.57710667"><ele>138.0</ele><time>2016-06-18T09:45:26.303Z</time></trkpt><trkpt lat="58.65191667" lon="14.57710667"><ele>138.0</ele><time>2016-06-18T09:45:27.288Z</time></trkpt><trkpt lat="58.652005" lon="14.57731667"><ele>139.0</ele><time>2016-06-18T09:45:28.308Z</time></trkpt><trkpt lat="58.65204833" lon="14.57742"><ele>140.0</ele><time>2016-06-18T09:45:29.309Z</time></trkpt><trkpt lat="58.65204833" lon="14.57742"><ele>140.0</ele><time>2016-06-18T09:45:30.298Z</time></trkpt><trkpt lat="58.652125" lon="14.57763333"><ele>141.0</ele><time>2016-06-18T09:45:31.306Z</time></trkpt><trkpt lat="58.65216" lon="14.57773167"><ele>141.0</ele><time>2016-06-18T09:45:32.293Z</time></trkpt><trkpt lat="58.65216" lon="14.57773167"><ele>141.0</ele><time>2016-06-18T09:45:33.283Z</time></trkpt><trkpt lat="58.65222667" lon="14.57794333"><ele>141.0</ele><time>2016-06-18T09:45:34.289Z</time></trkpt><trkpt lat="58.652265" lon="14.57804333"><ele>141.0</ele><time>2016-06-18T09:45:35.314Z</time></trkpt><trkpt lat="58.652305" lon="14.57814167"><ele>141.0</ele><time>2016-06-18T09:45:36.321Z</time></trkpt><trkpt lat="58.652305" lon="14.57814167"><ele>141.0</ele><time>2016-06-18T09:45:37.301Z</time></trkpt><trkpt lat="58.652385" lon="14.57834"><ele>141.0</ele><time>2016-06-18T09:45:38.312Z</time></trkpt><trkpt lat="58.652385" lon="14.57834"><ele>141.0</ele><time>2016-06-18T09:45:39.301Z</time></trkpt><trkpt lat="58.65246333" lon="14.57855"><ele>142.0</ele><time>2016-06-18T09:45:40.298Z</time></trkpt><trkpt lat="58.65246333" lon="14.57855"><ele>142.0</ele><time>2016-06-18T09:45:41.304Z</time></trkpt><trkpt lat="58.65254167" lon="14.578765"><ele>143.0</ele><time>2016-06-18T09:45:42.310Z</time></trkpt><trkpt lat="58.65257833" lon="14.57887167"><ele>143.0</ele><time>2016-06-18T09:45:43.298Z</time></trkpt><trkpt lat="58.65257833" lon="14.57887167"><ele>143.0</ele><time>2016-06-18T09:45:44.325Z</time></trkpt><trkpt lat="58.65265333" lon="14.57909"><ele>144.0</ele><time>2016-06-18T09:45:45.286Z</time></trkpt><trkpt lat="58.65265333" lon="14.57909"><ele>144.0</ele><time>2016-06-18T09:45:46.290Z</time></trkpt><trkpt lat="58.65273333" lon="14.57929833"><ele>145.0</ele><time>2016-06-18T09:45:47.305Z</time></trkpt><trkpt lat="58.65273333" lon="14.57929833"><ele>145.0</ele><time>2016-06-18T09:45:48.292Z</time></trkpt><trkpt lat="58.65281167" lon="14.57951167"><ele>145.0</ele><time>2016-06-18T09:45:49.286Z</time></trkpt><trkpt lat="58.65284833" lon="14.57962"><ele>146.0</ele><time>2016-06-18T09:45:50.304Z</time></trkpt><trkpt lat="58.65284833" lon="14.57962"><ele>146.0</ele><time>2016-06-18T09:45:51.321Z</time></trkpt><trkpt lat="58.65292833" lon="14.57983333"><ele>146.0</ele><time>2016-06-18T09:45:52.288Z</time></trkpt><trkpt lat="58.65292833" lon="14.57983333"><ele>146.0</ele><time>2016-06-18T09:45:53.304Z</time></trkpt><trkpt lat="58.653005" lon="14.58003833"><ele>147.0</ele><time>2016-06-18T09:45:54.312Z</time></trkpt><trkpt lat="58.653045" lon="14.58013333"><ele>147.0</ele><time>2016-06-18T09:45:55.307Z</time></trkpt><trkpt lat="58.65308333" lon="14.58023167"><ele>147.0</ele><time>2016-06-18T09:45:56.286Z</time></trkpt><trkpt lat="58.65308333" lon="14.58023167"><ele>147.0</ele><time>2016-06-18T09:45:57.308Z</time></trkpt><trkpt lat="58.65316333" lon="14.58043833"><ele>148.0</ele><time>2016-06-18T09:45:58.314Z</time></trkpt><trkpt lat="58.653205" lon="14.58054"><ele>148.0</ele><time>2016-06-18T09:45:59.310Z</time></trkpt><trkpt lat="58.653205" lon="14.58054"><ele>148.0</ele><time>2016-06-18T09:46:00.299Z</time></trkpt><trkpt lat="58.653285" lon="14.580745"><ele>148.0</ele><time>2016-06-18T09:46:01.301Z</time></trkpt><trkpt lat="58.653325" lon="14.58084667"><ele>148.0</ele><time>2016-06-18T09:46:02.304Z</time></trkpt><trkpt lat="58.653325" lon="14.58084667"><ele>148.0</ele><time>2016-06-18T09:46:03.291Z</time></trkpt><trkpt lat="58.653415" lon="14.58105833"><ele>149.0</ele><time>2016-06-18T09:46:04.286Z</time></trkpt><trkpt lat="58.653415" lon="14.58105833"><ele>149.0</ele><time>2016-06-18T09:46:05.290Z</time></trkpt><trkpt lat="58.65350833" lon="14.581255"><ele>150.0</ele><time>2016-06-18T09:46:06.308Z</time></trkpt><trkpt lat="58.65355" lon="14.58134667"><ele>150.0</ele><time>2016-06-18T09:46:07.295Z</time></trkpt><trkpt lat="58.65355" lon="14.58134667"><ele>150.0</ele><time>2016-06-18T09:46:08.319Z</time></trkpt><trkpt lat="58.65364167" lon="14.58153667"><ele>151.0</ele><time>2016-06-18T09:46:09.288Z</time></trkpt><trkpt lat="58.65368667" lon="14.58163167"><ele>151.0</ele><time>2016-06-18T09:46:10.313Z</time></trkpt><trkpt lat="58.65368667" lon="14.58163167"><ele>151.0</ele><time>2016-06-18T09:46:11.301Z</time></trkpt><trkpt lat="58.65377667" lon="14.58182833"><ele>152.0</ele><time>2016-06-18T09:46:12.283Z</time></trkpt><trkpt lat="58.65377667" lon="14.58182833"><ele>152.0</ele><time>2016-06-18T09:46:13.310Z</time></trkpt><trkpt lat="58.65386167" lon="14.58203333"><ele>153.0</ele><time>2016-06-18T09:46:14.284Z</time></trkpt><trkpt lat="58.65386167" lon="14.58203333"><ele>153.0</ele><time>2016-06-18T09:46:15.311Z</time></trkpt><trkpt lat="58.65395167" lon="14.58223667"><ele>154.0</ele><time>2016-06-18T09:46:16.293Z</time></trkpt><trkpt lat="58.65395167" lon="14.58223667"><ele>154.0</ele><time>2016-06-18T09:46:17.311Z</time></trkpt><trkpt lat="58.65404167" lon="14.58243333"><ele>154.0</ele><time>2016-06-18T09:46:18.317Z</time></trkpt><trkpt lat="58.65404167" lon="14.58243333"><ele>154.0</ele><time>2016-06-18T09:46:19.303Z</time></trkpt><trkpt lat="58.65413833" lon="14.58263167"><ele>155.0</ele><time>2016-06-18T09:46:20.296Z</time></trkpt><trkpt lat="58.65413833" lon="14.58263167"><ele>155.0</ele><time>2016-06-18T09:46:21.285Z</time></trkpt><trkpt lat="58.65423167" lon="14.582835"><ele>154.0</ele><time>2016-06-18T09:46:22.292Z</time></trkpt><trkpt lat="58.65428167" lon="14.58293667"><ele>155.0</ele><time>2016-06-18T09:46:23.282Z</time></trkpt><trkpt lat="58.65428167" lon="14.58293667"><ele>155.0</ele><time>2016-06-18T09:46:24.311Z</time></trkpt><trkpt lat="58.65438833" lon="14.58314167"><ele>155.0</ele><time>2016-06-18T09:46:25.318Z</time></trkpt><trkpt lat="58.65444333" lon="14.58324333"><ele>155.0</ele><time>2016-06-18T09:46:26.286Z</time></trkpt><trkpt lat="58.65444333" lon="14.58324333"><ele>155.0</ele><time>2016-06-18T09:46:27.293Z</time></trkpt><trkpt lat="58.65455" lon="14.583465"><ele>156.0</ele><time>2016-06-18T09:46:28.303Z</time></trkpt><trkpt lat="58.65455" lon="14.583465"><ele>156.0</ele><time>2016-06-18T09:46:29.291Z</time></trkpt><trkpt lat="58.65466333" lon="14.58367333"><ele>157.0</ele><time>2016-06-18T09:46:30.306Z</time></trkpt><trkpt lat="58.65466333" lon="14.58367333"><ele>157.0</ele><time>2016-06-18T09:46:31.321Z</time></trkpt><trkpt lat="58.654775" lon="14.58388"><ele>157.0</ele><time>2016-06-18T09:46:32.289Z</time></trkpt><trkpt lat="58.654775" lon="14.58388"><ele>157.0</ele><time>2016-06-18T09:46:33.311Z</time></trkpt><trkpt lat="58.65488667" lon="14.584085"><ele>157.0</ele><time>2016-06-18T09:46:34.297Z</time></trkpt><trkpt lat="58.65488667" lon="14.584085"><ele>157.0</ele><time>2016-06-18T09:46:35.308Z</time></trkpt><trkpt lat="58.655005" lon="14.58428667"><ele>157.0</ele><time>2016-06-18T09:46:36.315Z</time></trkpt><trkpt lat="58.655005" lon="14.58428667"><ele>157.0</ele><time>2016-06-18T09:46:37.302Z</time></trkpt><trkpt lat="58.65512333" lon="14.584495"><ele>158.0</ele><time>2016-06-18T09:46:38.320Z</time></trkpt><trkpt lat="58.65512333" lon="14.584495"><ele>158.0</ele><time>2016-06-18T09:46:39.285Z</time></trkpt><trkpt lat="58.65524833" lon="14.58469333"><ele>158.0</ele><time>2016-06-18T09:46:40.291Z</time></trkpt><trkpt lat="58.65524833" lon="14.58469333"><ele>158.0</ele><time>2016-06-18T09:46:41.303Z</time></trkpt><trkpt lat="58.65537333" lon="14.58489333"><ele>159.0</ele><time>2016-06-18T09:46:42.309Z</time></trkpt><trkpt lat="58.65543667" lon="14.58499167"><ele>159.0</ele><time>2016-06-18T09:46:43.299Z</time></trkpt><trkpt lat="58.65543667" lon="14.58499167"><ele>159.0</ele><time>2016-06-18T09:46:44.310Z</time></trkpt><trkpt lat="58.65557667" lon="14.58518833"><ele>159.0</ele><time>2016-06-18T09:46:45.286Z</time></trkpt><trkpt lat="58.65557667" lon="14.58518833"><ele>159.0</ele><time>2016-06-18T09:46:46.314Z</time></trkpt><trkpt lat="58.65572167" lon="14.585385"><ele>159.0</ele><time>2016-06-18T09:46:47.320Z</time></trkpt><trkpt lat="58.65572167" lon="14.585385"><ele>159.0</ele><time>2016-06-18T09:46:48.304Z</time></trkpt><trkpt lat="58.65586667" lon="14.585575"><ele>160.0</ele><time>2016-06-18T09:46:49.294Z</time></trkpt><trkpt lat="58.655935" lon="14.58567333"><ele>160.0</ele><time>2016-06-18T09:46:50.297Z</time></trkpt><trkpt lat="58.655935" lon="14.58567333"><ele>160.0</ele><time>2016-06-18T09:46:51.320Z</time></trkpt><trkpt lat="58.65607833" lon="14.58587"><ele>160.0</ele><time>2016-06-18T09:46:52.288Z</time></trkpt><trkpt lat="58.656145" lon="14.58597833"><ele>160.0</ele><time>2016-06-18T09:46:53.312Z</time></trkpt><trkpt lat="58.656145" lon="14.58597833"><ele>160.0</ele><time>2016-06-18T09:46:54.319Z</time></trkpt><trkpt lat="58.65628333" lon="14.58616667"><ele>160.0</ele><time>2016-06-18T09:46:55.292Z</time></trkpt><trkpt lat="58.65635167" lon="14.586255"><ele>160.0</ele><time>2016-06-18T09:46:56.313Z</time></trkpt><trkpt lat="58.65635167" lon="14.586255"><ele>160.0</ele><time>2016-06-18T09:46:57.300Z</time></trkpt><trkpt lat="58.65650167" lon="14.58643667"><ele>160.0</ele><time>2016-06-18T09:46:58.317Z</time></trkpt><trkpt lat="58.65658667" lon="14.58653667"><ele>160.0</ele><time>2016-06-18T09:46:59.314Z</time></trkpt><trkpt lat="58.65658667" lon="14.58653667"><ele>160.0</ele><time>2016-06-18T09:47:00.303Z</time></trkpt><trkpt lat="58.65674833" lon="14.58675"><ele>160.0</ele><time>2016-06-18T09:47:01.298Z</time></trkpt><trkpt lat="58.65683333" lon="14.58686"><ele>160.0</ele><time>2016-06-18T09:47:02.286Z</time></trkpt><trkpt lat="58.65683333" lon="14.58686"><ele>160.0</ele><time>2016-06-18T09:47:03.310Z</time></trkpt><trkpt lat="58.65701" lon="14.58707833"><ele>160.0</ele><time>2016-06-18T09:47:04.320Z</time></trkpt><trkpt lat="58.65709667" lon="14.58718833"><ele>160.0</ele><time>2016-06-18T09:47:05.296Z</time></trkpt><trkpt lat="58.65709667" lon="14.58718833"><ele>160.0</ele><time>2016-06-18T09:47:06.282Z</time></trkpt><trkpt lat="58.65727833" lon="14.58740333"><ele>160.0</ele><time>2016-06-18T09:47:07.288Z</time></trkpt><trkpt lat="58.65736667" lon="14.58751833"><ele>160.0</ele><time>2016-06-18T09:47:08.296Z</time></trkpt><trkpt lat="58.65736667" lon="14.58751833"><ele>160.0</ele><time>2016-06-18T09:47:09.322Z</time></trkpt><trkpt lat="58.657545" lon="14.58775167"><ele>159.0</ele><time>2016-06-18T09:47:10.288Z</time></trkpt><trkpt lat="58.657545" lon="14.58775167"><ele>159.0</ele><time>2016-06-18T09:47:11.303Z</time></trkpt><trkpt lat="58.65773667" lon="14.58797667"><ele>159.0</ele><time>2016-06-18T09:47:12.314Z</time></trkpt><trkpt lat="58.65783667" lon="14.58808333"><ele>159.0</ele><time>2016-06-18T09:47:13.307Z</time></trkpt><trkpt lat="58.65793333" lon="14.58819667"><ele>159.0</ele><time>2016-06-18T09:47:14.315Z</time></trkpt><trkpt lat="58.65793333" lon="14.58819667"><ele>159.0</ele><time>2016-06-18T09:47:15.303Z</time></trkpt><trkpt lat="58.65813" lon="14.58844333"><ele>159.0</ele><time>2016-06-18T09:47:16.287Z</time></trkpt><trkpt lat="58.65813" lon="14.58844333"><ele>159.0</ele><time>2016-06-18T09:47:17.311Z</time></trkpt><trkpt lat="58.65832" lon="14.58870333"><ele>159.0</ele><time>2016-06-18T09:47:18.288Z</time></trkpt><trkpt lat="58.658415" lon="14.58884167"><ele>159.0</ele><time>2016-06-18T09:47:19.312Z</time></trkpt><trkpt lat="58.658415" lon="14.58884167"><ele>159.0</ele><time>2016-06-18T09:47:20.299Z</time></trkpt><trkpt lat="58.65861" lon="14.58911"><ele>158.0</ele><time>2016-06-18T09:47:21.310Z</time></trkpt><trkpt lat="58.658705" lon="14.58924667"><ele>158.0</ele><time>2016-06-18T09:47:22.297Z</time></trkpt><trkpt lat="58.65880167" lon="14.589385"><ele>158.0</ele><time>2016-06-18T09:47:23.282Z</time></trkpt><trkpt lat="58.65880167" lon="14.589385"><ele>158.0</ele><time>2016-06-18T09:47:24.305Z</time></trkpt><trkpt lat="58.658995" lon="14.58966167"><ele>158.0</ele><time>2016-06-18T09:47:25.296Z</time></trkpt><trkpt lat="58.65908833" lon="14.589805"><ele>157.0</ele><time>2016-06-18T09:47:26.313Z</time></trkpt><trkpt lat="58.65908833" lon="14.589805"><ele>157.0</ele><time>2016-06-18T09:47:27.303Z</time></trkpt><trkpt lat="58.65927" lon="14.5901"><ele>157.0</ele><time>2016-06-18T09:47:28.310Z</time></trkpt><trkpt lat="58.65927" lon="14.5901"><ele>157.0</ele><time>2016-06-18T09:47:29.320Z</time></trkpt><trkpt lat="58.65945167" lon="14.59039833"><ele>156.0</ele><time>2016-06-18T09:47:30.289Z</time></trkpt><trkpt lat="58.65945167" lon="14.59039833"><ele>156.0</ele><time>2016-06-18T09:47:31.311Z</time></trkpt><trkpt lat="58.65963833" lon="14.59070333"><ele>155.0</ele><time>2016-06-18T09:47:32.308Z</time></trkpt><trkpt lat="58.65963833" lon="14.59070333"><ele>155.0</ele><time>2016-06-18T09:47:33.301Z</time></trkpt><trkpt lat="58.65982333" lon="14.59101833"><ele>154.0</ele><time>2016-06-18T09:47:34.309Z</time></trkpt><trkpt lat="58.65982333" lon="14.59101833"><ele>154.0</ele><time>2016-06-18T09:47:35.311Z</time></trkpt><trkpt lat="58.66001333" lon="14.59134667"><ele>153.0</ele><time>2016-06-18T09:47:36.285Z</time></trkpt><trkpt lat="58.66001333" lon="14.59134667"><ele>153.0</ele><time>2016-06-18T09:47:37.316Z</time></trkpt><trkpt lat="58.66020667" lon="14.59167833"><ele>152.0</ele><time>2016-06-18T09:47:38.282Z</time></trkpt><trkpt lat="58.66020667" lon="14.59167833"><ele>152.0</ele><time>2016-06-18T09:47:39.282Z</time></trkpt><trkpt lat="58.66039333" lon="14.59201333"><ele>151.0</ele><time>2016-06-18T09:47:40.307Z</time></trkpt><trkpt lat="58.66039333" lon="14.59201333"><ele>151.0</ele><time>2016-06-18T09:47:41.294Z</time></trkpt><trkpt lat="58.66057667" lon="14.59235333"><ele>150.0</ele><time>2016-06-18T09:47:42.305Z</time></trkpt><trkpt lat="58.66057667" lon="14.59235333"><ele>150.0</ele><time>2016-06-18T09:47:43.292Z</time></trkpt><trkpt lat="58.66074833" lon="14.59269167"><ele>148.0</ele><time>2016-06-18T09:47:44.287Z</time></trkpt><trkpt lat="58.66074833" lon="14.59269167"><ele>148.0</ele><time>2016-06-18T09:47:45.289Z</time></trkpt><trkpt lat="58.66091333" lon="14.59303"><ele>147.0</ele><time>2016-06-18T09:47:46.300Z</time></trkpt><trkpt lat="58.66091333" lon="14.59303"><ele>147.0</ele><time>2016-06-18T09:47:47.283Z</time></trkpt><trkpt lat="58.66107333" lon="14.59337"><ele>147.0</ele><time>2016-06-18T09:47:48.304Z</time></trkpt><trkpt lat="58.66107333" lon="14.59337"><ele>147.0</ele><time>2016-06-18T09:47:49.319Z</time></trkpt><trkpt lat="58.66122333" lon="14.593725"><ele>145.0</ele><time>2016-06-18T09:47:50.286Z</time></trkpt><trkpt lat="58.66129833" lon="14.59390167"><ele>145.0</ele><time>2016-06-18T09:47:51.288Z</time></trkpt><trkpt lat="58.66129833" lon="14.59390167"><ele>145.0</ele><time>2016-06-18T09:47:52.293Z</time></trkpt><trkpt lat="58.661455" lon="14.594255"><ele>143.0</ele><time>2016-06-18T09:47:53.312Z</time></trkpt><trkpt lat="58.661455" lon="14.594255"><ele>143.0</ele><time>2016-06-18T09:47:54.300Z</time></trkpt><trkpt lat="58.66161333" lon="14.59461333"><ele>143.0</ele><time>2016-06-18T09:47:55.307Z</time></trkpt><trkpt lat="58.66169" lon="14.594795"><ele>143.0</ele><time>2016-06-18T09:47:56.308Z</time></trkpt><trkpt lat="58.66169" lon="14.594795"><ele>143.0</ele><time>2016-06-18T09:47:57.307Z</time></trkpt><trkpt lat="58.661845" lon="14.59515833"><ele>142.0</ele><time>2016-06-18T09:47:58.314Z</time></trkpt><trkpt lat="58.661845" lon="14.59515833"><ele>142.0</ele><time>2016-06-18T09:47:59.311Z</time></trkpt><trkpt lat="58.66200333" lon="14.59552667"><ele>141.0</ele><time>2016-06-18T09:48:00.408Z</time></trkpt><trkpt lat="58.66200333" lon="14.59552667"><ele>141.0</ele><time>2016-06-18T09:48:01.320Z</time></trkpt><trkpt lat="58.66215167" lon="14.59591"><ele>140.0</ele><time>2016-06-18T09:48:02.289Z</time></trkpt><trkpt lat="58.66215167" lon="14.59591"><ele>140.0</ele><time>2016-06-18T09:48:03.319Z</time></trkpt><trkpt lat="58.66230167" lon="14.59629333"><ele>140.0</ele><time>2016-06-18T09:48:04.289Z</time></trkpt><trkpt lat="58.66237667" lon="14.59648667"><ele>140.0</ele><time>2016-06-18T09:48:05.287Z</time></trkpt><trkpt lat="58.66237667" lon="14.59648667"><ele>140.0</ele><time>2016-06-18T09:48:06.292Z</time></trkpt><trkpt lat="58.66252333" lon="14.59687167"><ele>139.0</ele><time>2016-06-18T09:48:07.306Z</time></trkpt><trkpt lat="58.6626" lon="14.597065"><ele>139.0</ele><time>2016-06-18T09:48:08.308Z</time></trkpt><trkpt lat="58.6626" lon="14.597065"><ele>139.0</ele><time>2016-06-18T09:48:09.292Z</time></trkpt><trkpt lat="58.66274667" lon="14.59745833"><ele>138.0</ele><time>2016-06-18T09:48:10.301Z</time></trkpt><trkpt lat="58.66274667" lon="14.59745833"><ele>138.0</ele><time>2016-06-18T09:48:11.310Z</time></trkpt><trkpt lat="58.66289333" lon="14.59784833"><ele>138.0</ele><time>2016-06-18T09:48:12.286Z</time></trkpt><trkpt lat="58.66289333" lon="14.59784833"><ele>138.0</ele><time>2016-06-18T09:48:13.299Z</time></trkpt><trkpt lat="58.66302833" lon="14.59824667"><ele>138.0</ele><time>2016-06-18T09:48:14.307Z</time></trkpt><trkpt lat="58.66302833" lon="14.59824667"><ele>138.0</ele><time>2016-06-18T09:48:15.294Z</time></trkpt><trkpt lat="58.66315333" lon="14.59864167"><ele>137.0</ele><time>2016-06-18T09:48:16.300Z</time></trkpt><trkpt lat="58.66321333" lon="14.59884"><ele>137.0</ele><time>2016-06-18T09:48:17.282Z</time></trkpt><trkpt lat="58.66321333" lon="14.59884"><ele>137.0</ele><time>2016-06-18T09:48:18.311Z</time></trkpt><trkpt lat="58.66333" lon="14.59923667"><ele>137.0</ele><time>2016-06-18T09:48:19.286Z</time></trkpt><trkpt lat="58.66339" lon="14.59943833"><ele>138.0</ele><time>2016-06-18T09:48:20.310Z</time></trkpt><trkpt lat="58.66339" lon="14.59943833"><ele>138.0</ele><time>2016-06-18T09:48:21.300Z</time></trkpt><trkpt lat="58.66350167" lon="14.59984667"><ele>137.0</ele><time>2016-06-18T09:48:22.308Z</time></trkpt><trkpt lat="58.66355833" lon="14.60005167"><ele>137.0</ele><time>2016-06-18T09:48:23.299Z</time></trkpt><trkpt lat="58.66355833" lon="14.60005167"><ele>137.0</ele><time>2016-06-18T09:48:24.322Z</time></trkpt><trkpt lat="58.66367833" lon="14.600465"><ele>137.0</ele><time>2016-06-18T09:48:25.299Z</time></trkpt><trkpt lat="58.66373333" lon="14.600675"><ele>137.0</ele><time>2016-06-18T09:48:26.316Z</time></trkpt><trkpt lat="58.66373333" lon="14.600675"><ele>137.0</ele><time>2016-06-18T09:48:27.282Z</time></trkpt><trkpt lat="58.66383833" lon="14.60109"><ele>136.0</ele><time>2016-06-18T09:48:28.288Z</time></trkpt><trkpt lat="58.66389333" lon="14.60130167"><ele>136.0</ele><time>2016-06-18T09:48:29.290Z</time></trkpt><trkpt lat="58.66389333" lon="14.60130167"><ele>136.0</ele><time>2016-06-18T09:48:30.294Z</time></trkpt><trkpt lat="58.66399167" lon="14.60173167"><ele>135.0</ele><time>2016-06-18T09:48:31.301Z</time></trkpt><trkpt lat="58.66403667" lon="14.60194833"><ele>134.0</ele><time>2016-06-18T09:48:32.298Z</time></trkpt><trkpt lat="58.66403667" lon="14.60194833"><ele>134.0</ele><time>2016-06-18T09:48:33.291Z</time></trkpt><trkpt lat="58.66413167" lon="14.60237333"><ele>133.0</ele><time>2016-06-18T09:48:34.306Z</time></trkpt><trkpt lat="58.66413167" lon="14.60237333"><ele>133.0</ele><time>2016-06-18T09:48:35.291Z</time></trkpt><trkpt lat="58.66422" lon="14.602795"><ele>132.0</ele><time>2016-06-18T09:48:36.297Z</time></trkpt><trkpt lat="58.66422" lon="14.602795"><ele>132.0</ele><time>2016-06-18T09:48:37.303Z</time></trkpt><trkpt lat="58.66431333" lon="14.60321667"><ele>131.0</ele><time>2016-06-18T09:48:38.311Z</time></trkpt><trkpt lat="58.66431333" lon="14.60321667"><ele>131.0</ele><time>2016-06-18T09:48:39.296Z</time></trkpt><trkpt lat="58.66440167" lon="14.60363667"><ele>129.0</ele><time>2016-06-18T09:48:40.298Z</time></trkpt><trkpt lat="58.66440167" lon="14.60363667"><ele>129.0</ele><time>2016-06-18T09:48:41.320Z</time></trkpt><trkpt lat="58.664485" lon="14.60405667"><ele>128.0</ele><time>2016-06-18T09:48:42.290Z</time></trkpt><trkpt lat="58.66452667" lon="14.604265"><ele>128.0</ele><time>2016-06-18T09:48:43.285Z</time></trkpt><trkpt lat="58.66456667" lon="14.60447667"><ele>127.0</ele><time>2016-06-18T09:48:44.291Z</time></trkpt><trkpt lat="58.66456667" lon="14.60447667"><ele>127.0</ele><time>2016-06-18T09:48:45.313Z</time></trkpt><trkpt lat="58.66465167" lon="14.60489833"><ele>126.0</ele><time>2016-06-18T09:48:46.319Z</time></trkpt><trkpt lat="58.66465167" lon="14.60489833"><ele>126.0</ele><time>2016-06-18T09:48:47.294Z</time></trkpt><trkpt lat="58.66473167" lon="14.60532333"><ele>125.0</ele><time>2016-06-18T09:48:48.301Z</time></trkpt><trkpt lat="58.66473167" lon="14.60532333"><ele>125.0</ele><time>2016-06-18T09:48:49.302Z</time></trkpt><trkpt lat="58.66481" lon="14.60575"><ele>125.0</ele><time>2016-06-18T09:48:50.318Z</time></trkpt><trkpt lat="58.66481" lon="14.60575"><ele>125.0</ele><time>2016-06-18T09:48:51.289Z</time></trkpt><trkpt lat="58.66489" lon="14.60618"><ele>124.0</ele><time>2016-06-18T09:48:52.308Z</time></trkpt><trkpt lat="58.66493167" lon="14.60639667"><ele>124.0</ele><time>2016-06-18T09:48:53.317Z</time></trkpt><trkpt lat="58.66493167" lon="14.60639667"><ele>124.0</ele><time>2016-06-18T09:48:54.291Z</time></trkpt><trkpt lat="58.66501167" lon="14.60683167"><ele>124.0</ele><time>2016-06-18T09:48:55.299Z</time></trkpt><trkpt lat="58.66505333" lon="14.60704667"><ele>123.0</ele><time>2016-06-18T09:48:56.297Z</time></trkpt><trkpt lat="58.66505333" lon="14.60704667"><ele>123.0</ele><time>2016-06-18T09:48:57.310Z</time></trkpt><trkpt lat="58.66513333" lon="14.60747333"><ele>122.0</ele><time>2016-06-18T09:48:58.316Z</time></trkpt><trkpt lat="58.665175" lon="14.60768333"><ele>121.0</ele><time>2016-06-18T09:48:59.311Z</time></trkpt><trkpt lat="58.665175" lon="14.60768333"><ele>121.0</ele><time>2016-06-18T09:49:00.313Z</time></trkpt><trkpt lat="58.66525333" lon="14.608095"><ele>121.0</ele><time>2016-06-18T09:49:01.320Z</time></trkpt><trkpt lat="58.66525333" lon="14.608095"><ele>121.0</ele><time>2016-06-18T09:49:02.299Z</time></trkpt><trkpt lat="58.665325" lon="14.60850667"><ele>120.0</ele><time>2016-06-18T09:49:03.286Z</time></trkpt><trkpt lat="58.665325" lon="14.60850667"><ele>120.0</ele><time>2016-06-18T09:49:04.291Z</time></trkpt><trkpt lat="58.66540167" lon="14.60891833"><ele>119.0</ele><time>2016-06-18T09:49:05.297Z</time></trkpt><trkpt lat="58.66544333" lon="14.60912167"><ele>119.0</ele><time>2016-06-18T09:49:06.306Z</time></trkpt><trkpt lat="58.66544333" lon="14.60912167"><ele>119.0</ele><time>2016-06-18T09:49:07.313Z</time></trkpt><trkpt lat="58.66552" lon="14.60953333"><ele>119.0</ele><time>2016-06-18T09:49:08.319Z</time></trkpt><trkpt lat="58.66552" lon="14.60953333"><ele>119.0</ele><time>2016-06-18T09:49:09.289Z</time></trkpt><trkpt lat="58.66559667" lon="14.609935"><ele>118.0</ele><time>2016-06-18T09:49:10.297Z</time></trkpt><trkpt lat="58.66559667" lon="14.609935"><ele>118.0</ele><time>2016-06-18T09:49:11.309Z</time></trkpt><trkpt lat="58.66567833" lon="14.61033333"><ele>117.0</ele><time>2016-06-18T09:49:12.293Z</time></trkpt><trkpt lat="58.66571667" lon="14.610535"><ele>117.0</ele><time>2016-06-18T09:49:13.319Z</time></trkpt><trkpt lat="58.66571667" lon="14.610535"><ele>117.0</ele><time>2016-06-18T09:49:14.305Z</time></trkpt><trkpt lat="58.66579167" lon="14.61093667"><ele>116.0</ele><time>2016-06-18T09:49:15.314Z</time></trkpt><trkpt lat="58.66583333" lon="14.61113167"><ele>116.0</ele><time>2016-06-18T09:49:16.301Z</time></trkpt><trkpt lat="58.66583333" lon="14.61113167"><ele>116.0</ele><time>2016-06-18T09:49:17.288Z</time></trkpt><trkpt lat="58.665915" lon="14.61151667"><ele>116.0</ele><time>2016-06-18T09:49:18.308Z</time></trkpt><trkpt lat="58.665915" lon="14.61151667"><ele>116.0</ele><time>2016-06-18T09:49:19.320Z</time></trkpt><trkpt lat="58.66599" lon="14.61190167"><ele>115.0</ele><time>2016-06-18T09:49:20.289Z</time></trkpt><trkpt lat="58.66599" lon="14.61190167"><ele>115.0</ele><time>2016-06-18T09:49:21.303Z</time></trkpt><trkpt lat="58.66606" lon="14.61228333"><ele>115.0</ele><time>2016-06-18T09:49:22.313Z</time></trkpt><trkpt lat="58.66606" lon="14.61228333"><ele>115.0</ele><time>2016-06-18T09:49:23.303Z</time></trkpt><trkpt lat="58.666135" lon="14.61265"><ele>114.0</ele><time>2016-06-18T09:49:24.288Z</time></trkpt><trkpt lat="58.666135" lon="14.61265"><ele>114.0</ele><time>2016-06-18T09:49:25.293Z</time></trkpt><trkpt lat="58.66620667" lon="14.61303"><ele>114.0</ele><time>2016-06-18T09:49:26.284Z</time></trkpt><trkpt lat="58.66620667" lon="14.61303"><ele>114.0</ele><time>2016-06-18T09:49:27.291Z</time></trkpt><trkpt lat="58.66627833" lon="14.61341333"><ele>113.0</ele><time>2016-06-18T09:49:28.302Z</time></trkpt><trkpt lat="58.66627833" lon="14.61341333"><ele>113.0</ele><time>2016-06-18T09:49:29.289Z</time></trkpt><trkpt lat="58.66635667" lon="14.61378667"><ele>113.0</ele><time>2016-06-18T09:49:30.286Z</time></trkpt><trkpt lat="58.66635667" lon="14.61378667"><ele>113.0</ele><time>2016-06-18T09:49:31.293Z</time></trkpt><trkpt lat="58.66643167" lon="14.61415833"><ele>113.0</ele><time>2016-06-18T09:49:32.312Z</time></trkpt><trkpt lat="58.66643167" lon="14.61415833"><ele>113.0</ele><time>2016-06-18T09:49:33.297Z</time></trkpt><trkpt lat="58.666515" lon="14.61452"><ele>114.0</ele><time>2016-06-18T09:49:34.290Z</time></trkpt><trkpt lat="58.666515" lon="14.61452"><ele>114.0</ele><time>2016-06-18T09:49:35.321Z</time></trkpt><trkpt lat="58.66659167" lon="14.61488167"><ele>114.0</ele><time>2016-06-18T09:49:36.289Z</time></trkpt><trkpt lat="58.66662833" lon="14.61506"><ele>114.0</ele><time>2016-06-18T09:49:37.313Z</time></trkpt><trkpt lat="58.666665" lon="14.61523333"><ele>114.0</ele><time>2016-06-18T09:49:38.285Z</time></trkpt><trkpt lat="58.666665" lon="14.61523333"><ele>114.0</ele><time>2016-06-18T09:49:39.321Z</time></trkpt><trkpt lat="58.66673333" lon="14.61557"><ele>114.0</ele><time>2016-06-18T09:49:40.290Z</time></trkpt><trkpt lat="58.66676" lon="14.61573833"><ele>114.0</ele><time>2016-06-18T09:49:41.297Z</time></trkpt><trkpt lat="58.66676" lon="14.61573833"><ele>114.0</ele><time>2016-06-18T09:49:42.314Z</time></trkpt><trkpt lat="58.66681667" lon="14.61607833"><ele>113.0</ele><time>2016-06-18T09:49:43.320Z</time></trkpt><trkpt lat="58.66681667" lon="14.61607833"><ele>113.0</ele><time>2016-06-18T09:49:44.314Z</time></trkpt><trkpt lat="58.666875" lon="14.616425"><ele>112.0</ele><time>2016-06-18T09:49:45.308Z</time></trkpt><trkpt lat="58.666875" lon="14.616425"><ele>112.0</ele><time>2016-06-18T09:49:46.290Z</time></trkpt><trkpt lat="58.66694167" lon="14.61677"><ele>112.0</ele><time>2016-06-18T09:49:47.303Z</time></trkpt><trkpt lat="58.66697333" lon="14.61694667"><ele>111.0</ele><time>2016-06-18T09:49:48.318Z</time></trkpt><trkpt lat="58.66700667" lon="14.61712"><ele>111.0</ele><time>2016-06-18T09:49:49.296Z</time></trkpt><trkpt lat="58.66700667" lon="14.61712"><ele>111.0</ele><time>2016-06-18T09:49:50.289Z</time></trkpt><trkpt lat="58.66707333" lon="14.61745667"><ele>111.0</ele><time>2016-06-18T09:49:51.295Z</time></trkpt><trkpt lat="58.66707333" lon="14.61745667"><ele>111.0</ele><time>2016-06-18T09:49:52.318Z</time></trkpt><trkpt lat="58.667145" lon="14.61778667"><ele>111.0</ele><time>2016-06-18T09:49:53.293Z</time></trkpt><trkpt lat="58.667145" lon="14.61778667"><ele>111.0</ele><time>2016-06-18T09:49:54.304Z</time></trkpt><trkpt lat="58.66721" lon="14.61811333"><ele>112.0</ele><time>2016-06-18T09:49:55.311Z</time></trkpt><trkpt lat="58.66723833" lon="14.61827167"><ele>112.0</ele><time>2016-06-18T09:49:56.304Z</time></trkpt><trkpt lat="58.66723833" lon="14.61827167"><ele>112.0</ele><time>2016-06-18T09:49:57.282Z</time></trkpt><trkpt lat="58.66729833" lon="14.61858667"><ele>112.0</ele><time>2016-06-18T09:49:58.288Z</time></trkpt><trkpt lat="58.66732833" lon="14.61874"><ele>112.0</ele><time>2016-06-18T09:49:59.319Z</time></trkpt><trkpt lat="58.66732833" lon="14.61874"><ele>112.0</ele><time>2016-06-18T09:50:00.286Z</time></trkpt><trkpt lat="58.66739" lon="14.61904833"><ele>112.0</ele><time>2016-06-18T09:50:01.292Z</time></trkpt><trkpt lat="58.66742" lon="14.61920333"><ele>112.0</ele><time>2016-06-18T09:50:02.316Z</time></trkpt><trkpt lat="58.66742" lon="14.61920333"><ele>112.0</ele><time>2016-06-18T09:50:03.311Z</time></trkpt><trkpt lat="58.66747833" lon="14.61951333"><ele>112.0</ele><time>2016-06-18T09:50:04.296Z</time></trkpt><trkpt lat="58.66750833" lon="14.61967"><ele>113.0</ele><time>2016-06-18T09:50:05.319Z</time></trkpt><trkpt lat="58.66750833" lon="14.61967"><ele>113.0</ele><time>2016-06-18T09:50:06.305Z</time></trkpt><trkpt lat="58.667565" lon="14.61997667"><ele>113.0</ele><time>2016-06-18T09:50:07.312Z</time></trkpt><trkpt lat="58.667595" lon="14.62013"><ele>113.0</ele><time>2016-06-18T09:50:08.299Z</time></trkpt><trkpt lat="58.667595" lon="14.62013"><ele>113.0</ele><time>2016-06-18T09:50:09.284Z</time></trkpt><trkpt lat="58.66765333" lon="14.620435"><ele>113.0</ele><time>2016-06-18T09:50:10.297Z</time></trkpt><trkpt lat="58.66765333" lon="14.620435"><ele>113.0</ele><time>2016-06-18T09:50:11.306Z</time></trkpt><trkpt lat="58.66770833" lon="14.62074333"><ele>113.0</ele><time>2016-06-18T09:50:12.308Z</time></trkpt><trkpt lat="58.66774167" lon="14.620895"><ele>113.0</ele><time>2016-06-18T09:50:13.313Z</time></trkpt><trkpt lat="58.66774167" lon="14.620895"><ele>113.0</ele><time>2016-06-18T09:50:14.319Z</time></trkpt><trkpt lat="58.66780167" lon="14.621195"><ele>114.0</ele><time>2016-06-18T09:50:15.298Z</time></trkpt><trkpt lat="58.66780167" lon="14.621195"><ele>114.0</ele><time>2016-06-18T09:50:16.298Z</time></trkpt><trkpt lat="58.66785833" lon="14.62148667"><ele>114.0</ele><time>2016-06-18T09:50:17.307Z</time></trkpt><trkpt lat="58.66788333" lon="14.62163"><ele>114.0</ele><time>2016-06-18T09:50:18.296Z</time></trkpt><trkpt lat="58.66788333" lon="14.62163"><ele>114.0</ele><time>2016-06-18T09:50:19.321Z</time></trkpt><trkpt lat="58.66793333" lon="14.62191667"><ele>115.0</ele><time>2016-06-18T09:50:20.290Z</time></trkpt><trkpt lat="58.66796167" lon="14.62205667"><ele>115.0</ele><time>2016-06-18T09:50:21.282Z</time></trkpt><trkpt lat="58.66796167" lon="14.62205667"><ele>115.0</ele><time>2016-06-18T09:50:22.320Z</time></trkpt><trkpt lat="58.668015" lon="14.62234167"><ele>115.0</ele><time>2016-06-18T09:50:23.291Z</time></trkpt><trkpt lat="58.66804667" lon="14.62248333"><ele>115.0</ele><time>2016-06-18T09:50:24.286Z</time></trkpt><trkpt lat="58.66804667" lon="14.62248333"><ele>115.0</ele><time>2016-06-18T09:50:25.301Z</time></trkpt><trkpt lat="58.66810167" lon="14.62276333"><ele>115.0</ele><time>2016-06-18T09:50:26.309Z</time></trkpt><trkpt lat="58.66810167" lon="14.62276333"><ele>115.0</ele><time>2016-06-18T09:50:27.293Z</time></trkpt><trkpt lat="58.668155" lon="14.62304667"><ele>115.0</ele><time>2016-06-18T09:50:28.298Z</time></trkpt><trkpt lat="58.668155" lon="14.62304667"><ele>115.0</ele><time>2016-06-18T09:50:29.319Z</time></trkpt><trkpt lat="58.66821" lon="14.62332667"><ele>115.0</ele><time>2016-06-18T09:50:30.288Z</time></trkpt><trkpt lat="58.66824" lon="14.62346667"><ele>115.0</ele><time>2016-06-18T09:50:31.282Z</time></trkpt><trkpt lat="58.66827" lon="14.623605"><ele>115.0</ele><time>2016-06-18T09:50:32.298Z</time></trkpt><trkpt lat="58.66827" lon="14.623605"><ele>115.0</ele><time>2016-06-18T09:50:33.287Z</time></trkpt><trkpt lat="58.66833" lon="14.62387333"><ele>115.0</ele><time>2016-06-18T09:50:34.294Z</time></trkpt><trkpt lat="58.66833" lon="14.62387333"><ele>115.0</ele><time>2016-06-18T09:50:35.315Z</time></trkpt><trkpt lat="58.668385" lon="14.62413833"><ele>115.0</ele><time>2016-06-18T09:50:36.284Z</time></trkpt><trkpt lat="58.668385" lon="14.62413833"><ele>115.0</ele><time>2016-06-18T09:50:37.291Z</time></trkpt><trkpt lat="58.668445" lon="14.62439833"><ele>116.0</ele><time>2016-06-18T09:50:38.306Z</time></trkpt><trkpt lat="58.668445" lon="14.62439833"><ele>116.0</ele><time>2016-06-18T09:50:39.292Z</time></trkpt><trkpt lat="58.66851333" lon="14.62465333"><ele>116.0</ele><time>2016-06-18T09:50:40.297Z</time></trkpt><trkpt lat="58.66851333" lon="14.62465333"><ele>116.0</ele><time>2016-06-18T09:50:41.291Z</time></trkpt><trkpt lat="58.668585" lon="14.62491167"><ele>116.0</ele><time>2016-06-18T09:50:42.297Z</time></trkpt><trkpt lat="58.668585" lon="14.62491167"><ele>116.0</ele><time>2016-06-18T09:50:43.283Z</time></trkpt><trkpt lat="58.668655" lon="14.62517167"><ele>116.0</ele><time>2016-06-18T09:50:44.297Z</time></trkpt><trkpt lat="58.668655" lon="14.62517167"><ele>116.0</ele><time>2016-06-18T09:50:45.301Z</time></trkpt><trkpt lat="58.66871833" lon="14.625435"><ele>116.0</ele><time>2016-06-18T09:50:46.310Z</time></trkpt><trkpt lat="58.66871833" lon="14.625435"><ele>116.0</ele><time>2016-06-18T09:50:47.295Z</time></trkpt><trkpt lat="58.66878167" lon="14.62570333"><ele>116.0</ele><time>2016-06-18T09:50:48.299Z</time></trkpt><trkpt lat="58.66878167" lon="14.62570333"><ele>116.0</ele><time>2016-06-18T09:50:49.282Z</time></trkpt><trkpt lat="58.66884667" lon="14.62596667"><ele>117.0</ele><time>2016-06-18T09:50:50.294Z</time></trkpt><trkpt lat="58.66884667" lon="14.62596667"><ele>117.0</ele><time>2016-06-18T09:50:51.319Z</time></trkpt><trkpt lat="58.66891167" lon="14.62622"><ele>117.0</ele><time>2016-06-18T09:50:52.286Z</time></trkpt><trkpt lat="58.66891167" lon="14.62622"><ele>117.0</ele><time>2016-06-18T09:50:53.315Z</time></trkpt><trkpt lat="58.66897833" lon="14.62647667"><ele>117.0</ele><time>2016-06-18T09:50:54.284Z</time></trkpt><trkpt lat="58.66897833" lon="14.62647667"><ele>117.0</ele><time>2016-06-18T09:50:55.288Z</time></trkpt><trkpt lat="58.66904833" lon="14.62672833"><ele>117.0</ele><time>2016-06-18T09:50:56.294Z</time></trkpt><trkpt lat="58.66904833" lon="14.62672833"><ele>117.0</ele><time>2016-06-18T09:50:57.291Z</time></trkpt><trkpt lat="58.66912" lon="14.62698333"><ele>117.0</ele><time>2016-06-18T09:50:58.296Z</time></trkpt><trkpt lat="58.66912" lon="14.62698333"><ele>117.0</ele><time>2016-06-18T09:50:59.312Z</time></trkpt><trkpt lat="58.66920167" lon="14.62722833"><ele>118.0</ele><time>2016-06-18T09:51:00.318Z</time></trkpt><trkpt lat="58.66924167" lon="14.62735333"><ele>118.0</ele><time>2016-06-18T09:51:01.296Z</time></trkpt><trkpt lat="58.66928167" lon="14.62748333"><ele>118.0</ele><time>2016-06-18T09:51:02.320Z</time></trkpt><trkpt lat="58.66928167" lon="14.62748333"><ele>118.0</ele><time>2016-06-18T09:51:03.306Z</time></trkpt><trkpt lat="58.66936167" lon="14.62774167"><ele>118.0</ele><time>2016-06-18T09:51:04.316Z</time></trkpt><trkpt lat="58.66940167" lon="14.62787167"><ele>118.0</ele><time>2016-06-18T09:51:05.308Z</time></trkpt><trkpt lat="58.669445" lon="14.628"><ele>118.0</ele><time>2016-06-18T09:51:06.289Z</time></trkpt><trkpt lat="58.669445" lon="14.628"><ele>118.0</ele><time>2016-06-18T09:51:07.312Z</time></trkpt><trkpt lat="58.66953167" lon="14.62825167"><ele>118.0</ele><time>2016-06-18T09:51:08.319Z</time></trkpt><trkpt lat="58.66953167" lon="14.62825167"><ele>118.0</ele><time>2016-06-18T09:51:09.298Z</time></trkpt><trkpt lat="58.66961667" lon="14.62850333"><ele>118.0</ele><time>2016-06-18T09:51:10.296Z</time></trkpt><trkpt lat="58.66961667" lon="14.62850333"><ele>118.0</ele><time>2016-06-18T09:51:11.305Z</time></trkpt><trkpt lat="58.669705" lon="14.62875"><ele>118.0</ele><time>2016-06-18T09:51:12.311Z</time></trkpt><trkpt lat="58.669705" lon="14.62875"><ele>118.0</ele><time>2016-06-18T09:51:13.291Z</time></trkpt><trkpt lat="58.66979833" lon="14.629005"><ele>118.0</ele><time>2016-06-18T09:51:14.302Z</time></trkpt><trkpt lat="58.66979833" lon="14.629005"><ele>118.0</ele><time>2016-06-18T09:51:15.303Z</time></trkpt><trkpt lat="58.66989167" lon="14.62926333"><ele>118.0</ele><time>2016-06-18T09:51:16.311Z</time></trkpt><trkpt lat="58.66989167" lon="14.62926333"><ele>118.0</ele><time>2016-06-18T09:51:17.304Z</time></trkpt><trkpt lat="58.66998167" lon="14.62954333"><ele>118.0</ele><time>2016-06-18T09:51:18.297Z</time></trkpt><trkpt lat="58.67003333" lon="14.62968333"><ele>119.0</ele><time>2016-06-18T09:51:19.314Z</time></trkpt><trkpt lat="58.67008667" lon="14.62982"><ele>119.0</ele><time>2016-06-18T09:51:20.304Z</time></trkpt><trkpt lat="58.67008667" lon="14.62982"><ele>119.0</ele><time>2016-06-18T09:51:21.292Z</time></trkpt><trkpt lat="58.67019833" lon="14.630095"><ele>119.0</ele><time>2016-06-18T09:51:22.308Z</time></trkpt><trkpt lat="58.67019833" lon="14.630095"><ele>119.0</ele><time>2016-06-18T09:51:23.294Z</time></trkpt><trkpt lat="58.67030833" lon="14.63036833"><ele>119.0</ele><time>2016-06-18T09:51:24.298Z</time></trkpt><trkpt lat="58.67030833" lon="14.63036833"><ele>119.0</ele><time>2016-06-18T09:51:25.290Z</time></trkpt><trkpt lat="58.67041667" lon="14.63064167"><ele>119.0</ele><time>2016-06-18T09:51:26.296Z</time></trkpt><trkpt lat="58.67041667" lon="14.63064167"><ele>119.0</ele><time>2016-06-18T09:51:27.320Z</time></trkpt><trkpt lat="58.67052333" lon="14.63093"><ele>118.0</ele><time>2016-06-18T09:51:28.297Z</time></trkpt><trkpt lat="58.67052333" lon="14.63093"><ele>118.0</ele><time>2016-06-18T09:51:29.301Z</time></trkpt><trkpt lat="58.670635" lon="14.63121333"><ele>118.0</ele><time>2016-06-18T09:51:30.314Z</time></trkpt><trkpt lat="58.67069333" lon="14.63135667"><ele>118.0</ele><time>2016-06-18T09:51:31.297Z</time></trkpt><trkpt lat="58.67075333" lon="14.63150167"><ele>118.0</ele><time>2016-06-18T09:51:32.282Z</time></trkpt><trkpt lat="58.67075333" lon="14.63150167"><ele>118.0</ele><time>2016-06-18T09:51:33.305Z</time></trkpt><trkpt lat="58.670875" lon="14.63179"><ele>118.0</ele><time>2016-06-18T09:51:34.317Z</time></trkpt><trkpt lat="58.67093667" lon="14.631935"><ele>118.0</ele><time>2016-06-18T09:51:35.305Z</time></trkpt><trkpt lat="58.67093667" lon="14.631935"><ele>118.0</ele><time>2016-06-18T09:51:36.290Z</time></trkpt><trkpt lat="58.671065" lon="14.632235"><ele>118.0</ele><time>2016-06-18T09:51:37.286Z</time></trkpt><trkpt lat="58.671065" lon="14.632235"><ele>118.0</ele><time>2016-06-18T09:51:38.290Z</time></trkpt><trkpt lat="58.67119667" lon="14.63253833"><ele>117.0</ele><time>2016-06-18T09:51:39.306Z</time></trkpt><trkpt lat="58.67119667" lon="14.63253833"><ele>117.0</ele><time>2016-06-18T09:51:40.321Z</time></trkpt><trkpt lat="58.67133667" lon="14.63285"><ele>117.0</ele><time>2016-06-18T09:51:41.297Z</time></trkpt><trkpt lat="58.67133667" lon="14.63285"><ele>117.0</ele><time>2016-06-18T09:51:42.287Z</time></trkpt><trkpt lat="58.67147167" lon="14.63317167"><ele>116.0</ele><time>2016-06-18T09:51:43.301Z</time></trkpt><trkpt lat="58.67154167" lon="14.63332667"><ele>116.0</ele><time>2016-06-18T09:51:44.284Z</time></trkpt><trkpt lat="58.67154167" lon="14.63332667"><ele>116.0</ele><time>2016-06-18T09:51:45.305Z</time></trkpt><trkpt lat="58.67168833" lon="14.633635"><ele>116.0</ele><time>2016-06-18T09:51:46.312Z</time></trkpt><trkpt lat="58.67168833" lon="14.633635"><ele>116.0</ele><time>2016-06-18T09:51:47.296Z</time></trkpt><trkpt lat="58.67185" lon="14.63394833"><ele>115.0</ele><time>2016-06-18T09:51:48.316Z</time></trkpt><trkpt lat="58.67193167" lon="14.63411167"><ele>115.0</ele><time>2016-06-18T09:51:49.294Z</time></trkpt><trkpt lat="58.67201333" lon="14.63428"><ele>115.0</ele><time>2016-06-18T09:51:50.289Z</time></trkpt><trkpt lat="58.67201333" lon="14.63428"><ele>115.0</ele><time>2016-06-18T09:51:51.289Z</time></trkpt><trkpt lat="58.67218667" lon="14.63461833"><ele>114.0</ele><time>2016-06-18T09:51:52.295Z</time></trkpt><trkpt lat="58.672275" lon="14.63478667"><ele>114.0</ele><time>2016-06-18T09:51:53.288Z</time></trkpt><trkpt lat="58.672275" lon="14.63478667"><ele>114.0</ele><time>2016-06-18T09:51:54.294Z</time></trkpt><trkpt lat="58.67245833" lon="14.63512333"><ele>113.0</ele><time>2016-06-18T09:51:55.309Z</time></trkpt><trkpt lat="58.67254833" lon="14.63529"><ele>113.0</ele><time>2016-06-18T09:51:56.318Z</time></trkpt><trkpt lat="58.67254833" lon="14.63529"><ele>113.0</ele><time>2016-06-18T09:51:57.305Z</time></trkpt><trkpt lat="58.672735" lon="14.63562333"><ele>112.0</ele><time>2016-06-18T09:51:58.314Z</time></trkpt><trkpt lat="58.67282667" lon="14.63578333"><ele>112.0</ele><time>2016-06-18T09:51:59.302Z</time></trkpt><trkpt lat="58.67282667" lon="14.63578333"><ele>112.0</ele><time>2016-06-18T09:52:00.286Z</time></trkpt><trkpt lat="58.67301167" lon="14.63610167"><ele>112.0</ele><time>2016-06-18T09:52:01.292Z</time></trkpt><trkpt lat="58.67310333" lon="14.63625833"><ele>111.0</ele><time>2016-06-18T09:52:02.306Z</time></trkpt><trkpt lat="58.67310333" lon="14.63625833"><ele>111.0</ele><time>2016-06-18T09:52:03.290Z</time></trkpt><trkpt lat="58.67329" lon="14.63656167"><ele>111.0</ele><time>2016-06-18T09:52:04.308Z</time></trkpt><trkpt lat="58.67338333" lon="14.63670667"><ele>111.0</ele><time>2016-06-18T09:52:05.314Z</time></trkpt><trkpt lat="58.67347167" lon="14.63685667"><ele>110.0</ele><time>2016-06-18T09:52:06.303Z</time></trkpt><trkpt lat="58.67347167" lon="14.63685667"><ele>110.0</ele><time>2016-06-18T09:52:07.309Z</time></trkpt><trkpt lat="58.67365667" lon="14.637145"><ele>109.0</ele><time>2016-06-18T09:52:08.287Z</time></trkpt><trkpt lat="58.67375167" lon="14.63728667"><ele>109.0</ele><time>2016-06-18T09:52:09.315Z</time></trkpt><trkpt lat="58.67375167" lon="14.63728667"><ele>109.0</ele><time>2016-06-18T09:52:10.304Z</time></trkpt><trkpt lat="58.67394167" lon="14.63757"><ele>109.0</ele><time>2016-06-18T09:52:11.286Z</time></trkpt><trkpt lat="58.67394167" lon="14.63757"><ele>109.0</ele><time>2016-06-18T09:52:12.318Z</time></trkpt><trkpt lat="58.67413167" lon="14.63784667"><ele>109.0</ele><time>2016-06-18T09:52:13.287Z</time></trkpt><trkpt lat="58.67413167" lon="14.63784667"><ele>109.0</ele><time>2016-06-18T09:52:14.316Z</time></trkpt><trkpt lat="58.67430333" lon="14.63809833"><ele>109.0</ele><time>2016-06-18T09:52:15.298Z</time></trkpt><trkpt lat="58.67430333" lon="14.63809833"><ele>109.0</ele><time>2016-06-18T09:52:16.310Z</time></trkpt><trkpt lat="58.674465" lon="14.63833"><ele>109.0</ele><time>2016-06-18T09:52:17.317Z</time></trkpt><trkpt lat="58.674545" lon="14.63844"><ele>109.0</ele><time>2016-06-18T09:52:18.297Z</time></trkpt><trkpt lat="58.674545" lon="14.63844"><ele>109.0</ele><time>2016-06-18T09:52:19.312Z</time></trkpt><trkpt lat="58.6747" lon="14.63865167"><ele>109.0</ele><time>2016-06-18T09:52:20.319Z</time></trkpt><trkpt lat="58.67477667" lon="14.638755"><ele>109.0</ele><time>2016-06-18T09:52:21.310Z</time></trkpt><trkpt lat="58.67477667" lon="14.638755"><ele>109.0</ele><time>2016-06-18T09:52:22.312Z</time></trkpt><trkpt lat="58.67493" lon="14.63894667"><ele>110.0</ele><time>2016-06-18T09:52:23.292Z</time></trkpt><trkpt lat="58.67500833" lon="14.63903333"><ele>110.0</ele><time>2016-06-18T09:52:24.282Z</time></trkpt><trkpt lat="58.67500833" lon="14.63903333"><ele>110.0</ele><time>2016-06-18T09:52:25.306Z</time></trkpt><trkpt lat="58.67515833" lon="14.63920833"><ele>110.0</ele><time>2016-06-18T09:52:26.321Z</time></trkpt><trkpt lat="58.67515833" lon="14.63920833"><ele>110.0</ele><time>2016-06-18T09:52:27.311Z</time></trkpt><trkpt lat="58.67529833" lon="14.63938333"><ele>111.0</ele><time>2016-06-18T09:52:28.318Z</time></trkpt><trkpt lat="58.67529833" lon="14.63938333"><ele>111.0</ele><time>2016-06-18T09:52:29.305Z</time></trkpt><trkpt lat="58.67543833" lon="14.63954667"><ele>111.0</ele><time>2016-06-18T09:52:30.297Z</time></trkpt><trkpt lat="58.67543833" lon="14.63954667"><ele>111.0</ele><time>2016-06-18T09:52:31.307Z</time></trkpt><trkpt lat="58.67556667" lon="14.63971667"><ele>111.0</ele><time>2016-06-18T09:52:32.315Z</time></trkpt><trkpt lat="58.67556667" lon="14.63971667"><ele>111.0</ele><time>2016-06-18T09:52:33.308Z</time></trkpt><trkpt lat="58.6757" lon="14.63988167"><ele>111.0</ele><time>2016-06-18T09:52:34.298Z</time></trkpt><trkpt lat="58.6757" lon="14.63988167"><ele>111.0</ele><time>2016-06-18T09:52:35.301Z</time></trkpt><trkpt lat="58.67583333" lon="14.64003167"><ele>111.0</ele><time>2016-06-18T09:52:36.307Z</time></trkpt><trkpt lat="58.67589667" lon="14.64010333"><ele>112.0</ele><time>2016-06-18T09:52:37.295Z</time></trkpt><trkpt lat="58.675955" lon="14.64018333"><ele>112.0</ele><time>2016-06-18T09:52:38.308Z</time></trkpt><trkpt lat="58.675955" lon="14.64018333"><ele>112.0</ele><time>2016-06-18T09:52:39.296Z</time></trkpt><trkpt lat="58.67607667" lon="14.640345"><ele>112.0</ele><time>2016-06-18T09:52:40.309Z</time></trkpt><trkpt lat="58.67607667" lon="14.640345"><ele>112.0</ele><time>2016-06-18T09:52:41.282Z</time></trkpt><trkpt lat="58.67620833" lon="14.64049167"><ele>113.0</ele><time>2016-06-18T09:52:42.288Z</time></trkpt><trkpt lat="58.67627333" lon="14.64057"><ele>113.0</ele><time>2016-06-18T09:52:43.284Z</time></trkpt><trkpt lat="58.67627333" lon="14.64057"><ele>113.0</ele><time>2016-06-18T09:52:44.297Z</time></trkpt><trkpt lat="58.6764" lon="14.64072333"><ele>114.0</ele><time>2016-06-18T09:52:45.304Z</time></trkpt><trkpt lat="58.676465" lon="14.64079833"><ele>114.0</ele><time>2016-06-18T09:52:46.285Z</time></trkpt><trkpt lat="58.676465" lon="14.64079833"><ele>114.0</ele><time>2016-06-18T09:52:47.290Z</time></trkpt><trkpt lat="58.67660167" lon="14.64095333"><ele>114.0</ele><time>2016-06-18T09:52:48.312Z</time></trkpt><trkpt lat="58.67667167" lon="14.641035"><ele>114.0</ele><time>2016-06-18T09:52:49.284Z</time></trkpt><trkpt lat="58.67674167" lon="14.64111"><ele>114.0</ele><time>2016-06-18T09:52:50.307Z</time></trkpt><trkpt lat="58.67674167" lon="14.64111"><ele>114.0</ele><time>2016-06-18T09:52:51.297Z</time></trkpt><trkpt lat="58.67687" lon="14.641275"><ele>114.0</ele><time>2016-06-18T09:52:52.300Z</time></trkpt><trkpt lat="58.676935" lon="14.641355"><ele>115.0</ele><time>2016-06-18T09:52:53.318Z</time></trkpt><trkpt lat="58.676935" lon="14.641355"><ele>115.0</ele><time>2016-06-18T09:52:54.305Z</time></trkpt><trkpt lat="58.67707" lon="14.64152"><ele>115.0</ele><time>2016-06-18T09:52:55.314Z</time></trkpt><trkpt lat="58.67713667" lon="14.6416"><ele>115.0</ele><time>2016-06-18T09:52:56.307Z</time></trkpt><trkpt lat="58.67713667" lon="14.6416"><ele>115.0</ele><time>2016-06-18T09:52:57.310Z</time></trkpt><trkpt lat="58.67727" lon="14.64177"><ele>115.0</ele><time>2016-06-18T09:52:58.317Z</time></trkpt><trkpt lat="58.67733667" lon="14.64185333"><ele>115.0</ele><time>2016-06-18T09:52:59.312Z</time></trkpt><trkpt lat="58.67733667" lon="14.64185333"><ele>115.0</ele><time>2016-06-18T09:53:00.313Z</time></trkpt><trkpt lat="58.67747167" lon="14.64202333"><ele>115.0</ele><time>2016-06-18T09:53:01.320Z</time></trkpt><trkpt lat="58.67753333" lon="14.64211"><ele>115.0</ele><time>2016-06-18T09:53:02.321Z</time></trkpt><trkpt lat="58.67753333" lon="14.64211"><ele>115.0</ele><time>2016-06-18T09:53:03.312Z</time></trkpt><trkpt lat="58.67767" lon="14.64229"><ele>114.0</ele><time>2016-06-18T09:53:04.319Z</time></trkpt><trkpt lat="58.67767" lon="14.64229"><ele>114.0</ele><time>2016-06-18T09:53:05.305Z</time></trkpt><trkpt lat="58.677805" lon="14.64247167"><ele>114.0</ele><time>2016-06-18T09:53:06.308Z</time></trkpt><trkpt lat="58.677805" lon="14.64247167"><ele>114.0</ele><time>2016-06-18T09:53:07.306Z</time></trkpt><trkpt lat="58.67794833" lon="14.64264667"><ele>114.0</ele><time>2016-06-18T09:53:08.314Z</time></trkpt><trkpt lat="58.67794833" lon="14.64264667"><ele>114.0</ele><time>2016-06-18T09:53:09.300Z</time></trkpt><trkpt lat="58.67809167" lon="14.64281833"><ele>113.0</ele><time>2016-06-18T09:53:10.297Z</time></trkpt><trkpt lat="58.67809167" lon="14.64281833"><ele>113.0</ele><time>2016-06-18T09:53:11.308Z</time></trkpt><trkpt lat="58.67823167" lon="14.64299333"><ele>113.0</ele><time>2016-06-18T09:53:12.285Z</time></trkpt><trkpt lat="58.67830167" lon="14.64308167"><ele>112.0</ele><time>2016-06-18T09:53:13.308Z</time></trkpt><trkpt lat="58.67830167" lon="14.64308167"><ele>112.0</ele><time>2016-06-18T09:53:14.297Z</time></trkpt><trkpt lat="58.678445" lon="14.64325333"><ele>113.0</ele><time>2016-06-18T09:53:15.297Z</time></trkpt><trkpt lat="58.678445" lon="14.64325333"><ele>113.0</ele><time>2016-06-18T09:53:16.291Z</time></trkpt><trkpt lat="58.67860167" lon="14.64343"><ele>113.0</ele><time>2016-06-18T09:53:17.297Z</time></trkpt><trkpt lat="58.67860167" lon="14.64343"><ele>113.0</ele><time>2016-06-18T09:53:18.321Z</time></trkpt><trkpt lat="58.67876167" lon="14.64361167"><ele>113.0</ele><time>2016-06-18T09:53:19.298Z</time></trkpt><trkpt lat="58.67876167" lon="14.64361167"><ele>113.0</ele><time>2016-06-18T09:53:20.294Z</time></trkpt><trkpt lat="58.67891333" lon="14.64379667"><ele>113.0</ele><time>2016-06-18T09:53:21.307Z</time></trkpt><trkpt lat="58.67891333" lon="14.64379667"><ele>113.0</ele><time>2016-06-18T09:53:22.282Z</time></trkpt><trkpt lat="58.67906833" lon="14.64398"><ele>113.0</ele><time>2016-06-18T09:53:23.289Z</time></trkpt><trkpt lat="58.67906833" lon="14.64398"><ele>113.0</ele><time>2016-06-18T09:53:24.312Z</time></trkpt><trkpt lat="58.67921667" lon="14.64417833"><ele>113.0</ele><time>2016-06-18T09:53:25.298Z</time></trkpt><trkpt lat="58.67929667" lon="14.644285"><ele>113.0</ele><time>2016-06-18T09:53:26.313Z</time></trkpt><trkpt lat="58.67929667" lon="14.644285"><ele>113.0</ele><time>2016-06-18T09:53:27.304Z</time></trkpt><trkpt lat="58.679455" lon="14.64449667"><ele>114.0</ele><time>2016-06-18T09:53:28.308Z</time></trkpt><trkpt lat="58.679455" lon="14.64449667"><ele>114.0</ele><time>2016-06-18T09:53:29.301Z</time></trkpt><trkpt lat="58.67961" lon="14.644705"><ele>114.0</ele><time>2016-06-18T09:53:30.308Z</time></trkpt><trkpt lat="58.67961" lon="14.644705"><ele>114.0</ele><time>2016-06-18T09:53:31.294Z</time></trkpt><trkpt lat="58.67975667" lon="14.64491667"><ele>114.0</ele><time>2016-06-18T09:53:32.294Z</time></trkpt><trkpt lat="58.67975667" lon="14.64491667"><ele>114.0</ele><time>2016-06-18T09:53:33.312Z</time></trkpt><trkpt lat="58.67990167" lon="14.64513167"><ele>113.0</ele><time>2016-06-18T09:53:34.286Z</time></trkpt><trkpt lat="58.679975" lon="14.64523667"><ele>112.0</ele><time>2016-06-18T09:53:35.310Z</time></trkpt><trkpt lat="58.679975" lon="14.64523667"><ele>112.0</ele><time>2016-06-18T09:53:36.315Z</time></trkpt><trkpt lat="58.68012167" lon="14.64546167"><ele>112.0</ele><time>2016-06-18T09:53:37.321Z</time></trkpt><trkpt lat="58.68012167" lon="14.64546167"><ele>112.0</ele><time>2016-06-18T09:53:38.307Z</time></trkpt><trkpt lat="58.68027" lon="14.64570333"><ele>111.0</ele><time>2016-06-18T09:53:39.307Z</time></trkpt><trkpt lat="58.68027" lon="14.64570333"><ele>111.0</ele><time>2016-06-18T09:53:40.287Z</time></trkpt><trkpt lat="58.68042" lon="14.64595167"><ele>111.0</ele><time>2016-06-18T09:53:41.294Z</time></trkpt><trkpt lat="58.68042" lon="14.64595167"><ele>111.0</ele><time>2016-06-18T09:53:42.319Z</time></trkpt><trkpt lat="58.68056833" lon="14.64620667"><ele>111.0</ele><time>2016-06-18T09:53:43.288Z</time></trkpt><trkpt lat="58.68056833" lon="14.64620667"><ele>111.0</ele><time>2016-06-18T09:53:44.307Z</time></trkpt><trkpt lat="58.68071833" lon="14.64646667"><ele>110.0</ele><time>2016-06-18T09:53:45.314Z</time></trkpt><trkpt lat="58.68079167" lon="14.64660333"><ele>110.0</ele><time>2016-06-18T09:53:46.300Z</time></trkpt><trkpt lat="58.68079167" lon="14.64660333"><ele>110.0</ele><time>2016-06-18T09:53:47.286Z</time></trkpt><trkpt lat="58.68093667" lon="14.64688167"><ele>110.0</ele><time>2016-06-18T09:53:48.305Z</time></trkpt><trkpt lat="58.68100833" lon="14.64702167"><ele>109.0</ele><time>2016-06-18T09:53:49.295Z</time></trkpt><trkpt lat="58.68107833" lon="14.647165"><ele>109.0</ele><time>2016-06-18T09:53:50.284Z</time></trkpt><trkpt lat="58.68107833" lon="14.647165"><ele>109.0</ele><time>2016-06-18T09:53:51.306Z</time></trkpt><trkpt lat="58.68121667" lon="14.64745333"><ele>108.0</ele><time>2016-06-18T09:53:52.314Z</time></trkpt><trkpt lat="58.681285" lon="14.6476"><ele>108.0</ele><time>2016-06-18T09:53:53.303Z</time></trkpt><trkpt lat="58.681285" lon="14.6476"><ele>108.0</ele><time>2016-06-18T09:53:54.311Z</time></trkpt><trkpt lat="58.68142" lon="14.64789167"><ele>107.0</ele><time>2016-06-18T09:53:55.317Z</time></trkpt><trkpt lat="58.68148833" lon="14.64804667"><ele>106.0</ele><time>2016-06-18T09:53:56.322Z</time></trkpt><trkpt lat="58.68148833" lon="14.64804667"><ele>106.0</ele><time>2016-06-18T09:53:57.311Z</time></trkpt><trkpt lat="58.681625" lon="14.64836333"><ele>107.0</ele><time>2016-06-18T09:53:58.318Z</time></trkpt><trkpt lat="58.68169" lon="14.648525"><ele>107.0</ele><time>2016-06-18T09:53:59.298Z</time></trkpt><trkpt lat="58.68169" lon="14.648525"><ele>107.0</ele><time>2016-06-18T09:54:00.301Z</time></trkpt><trkpt lat="58.68181667" lon="14.648845"><ele>107.0</ele><time>2016-06-18T09:54:01.312Z</time></trkpt><trkpt lat="58.68187833" lon="14.64900667"><ele>107.0</ele><time>2016-06-18T09:54:02.317Z</time></trkpt><trkpt lat="58.68187833" lon="14.64900667"><ele>107.0</ele><time>2016-06-18T09:54:03.287Z</time></trkpt><trkpt lat="58.68199667" lon="14.64933"><ele>106.0</ele><time>2016-06-18T09:54:04.292Z</time></trkpt><trkpt lat="58.68199667" lon="14.64933"><ele>106.0</ele><time>2016-06-18T09:54:05.312Z</time></trkpt><trkpt lat="58.682115" lon="14.64965833"><ele>107.0</ele><time>2016-06-18T09:54:06.289Z</time></trkpt><trkpt lat="58.68217" lon="14.64982667"><ele>107.0</ele><time>2016-06-18T09:54:07.309Z</time></trkpt><trkpt lat="58.68217" lon="14.64982667"><ele>107.0</ele><time>2016-06-18T09:54:08.296Z</time></trkpt><trkpt lat="58.682275" lon="14.650165"><ele>106.0</ele><time>2016-06-18T09:54:09.308Z</time></trkpt><trkpt lat="58.682275" lon="14.650165"><ele>106.0</ele><time>2016-06-18T09:54:10.316Z</time></trkpt><trkpt lat="58.68238" lon="14.65051333"><ele>107.0</ele><time>2016-06-18T09:54:11.317Z</time></trkpt><trkpt lat="58.68238" lon="14.65051333"><ele>107.0</ele><time>2016-06-18T09:54:12.289Z</time></trkpt><trkpt lat="58.682485" lon="14.65086"><ele>107.0</ele><time>2016-06-18T09:54:13.295Z</time></trkpt><trkpt lat="58.682485" lon="14.65086"><ele>107.0</ele><time>2016-06-18T09:54:14.319Z</time></trkpt><trkpt lat="58.68259167" lon="14.65121333"><ele>108.0</ele><time>2016-06-18T09:54:15.285Z</time></trkpt><trkpt lat="58.68259167" lon="14.65121333"><ele>108.0</ele><time>2016-06-18T09:54:16.308Z</time></trkpt><trkpt lat="58.68269167" lon="14.65156"><ele>108.0</ele><time>2016-06-18T09:54:17.298Z</time></trkpt><trkpt lat="58.68269167" lon="14.65156"><ele>108.0</ele><time>2016-06-18T09:54:18.303Z</time></trkpt><trkpt lat="58.68279" lon="14.65189"><ele>108.0</ele><time>2016-06-18T09:54:19.311Z</time></trkpt><trkpt lat="58.68279" lon="14.65189"><ele>108.0</ele><time>2016-06-18T09:54:20.301Z</time></trkpt><trkpt lat="58.68287833" lon="14.652215"><ele>109.0</ele><time>2016-06-18T09:54:21.298Z</time></trkpt><trkpt lat="58.68287833" lon="14.652215"><ele>109.0</ele><time>2016-06-18T09:54:22.304Z</time></trkpt><trkpt lat="58.68295667" lon="14.65252167"><ele>109.0</ele><time>2016-06-18T09:54:23.312Z</time></trkpt><trkpt lat="58.68295667" lon="14.65252167"><ele>109.0</ele><time>2016-06-18T09:54:24.298Z</time></trkpt><trkpt lat="58.68303333" lon="14.65281833"><ele>110.0</ele><time>2016-06-18T09:54:25.287Z</time></trkpt><trkpt lat="58.68303333" lon="14.65281833"><ele>110.0</ele><time>2016-06-18T09:54:26.282Z</time></trkpt><trkpt lat="58.6831" lon="14.65311833"><ele>109.0</ele><time>2016-06-18T09:54:27.288Z</time></trkpt><trkpt lat="58.6831" lon="14.65311833"><ele>109.0</ele><time>2016-06-18T09:54:28.311Z</time></trkpt><trkpt lat="58.68317833" lon="14.65340833"><ele>111.0</ele><time>2016-06-18T09:54:29.286Z</time></trkpt><trkpt lat="58.68321333" lon="14.65355333"><ele>111.0</ele><time>2016-06-18T09:54:30.285Z</time></trkpt><trkpt lat="58.68321333" lon="14.65355333"><ele>111.0</ele><time>2016-06-18T09:54:31.308Z</time></trkpt><trkpt lat="58.68327667" lon="14.65384667"><ele>112.0</ele><time>2016-06-18T09:54:32.298Z</time></trkpt><trkpt lat="58.68327667" lon="14.65384667"><ele>112.0</ele><time>2016-06-18T09:54:33.315Z</time></trkpt><trkpt lat="58.68333333" lon="14.654145"><ele>113.0</ele><time>2016-06-18T09:54:34.282Z</time></trkpt><trkpt lat="58.68333333" lon="14.654145"><ele>113.0</ele><time>2016-06-18T09:54:35.314Z</time></trkpt><trkpt lat="58.68337833" lon="14.65444667"><ele>113.0</ele><time>2016-06-18T09:54:36.320Z</time></trkpt><trkpt lat="58.68337833" lon="14.65444667"><ele>113.0</ele><time>2016-06-18T09:54:37.306Z</time></trkpt><trkpt lat="58.68342167" lon="14.65475333"><ele>113.0</ele><time>2016-06-18T09:54:38.317Z</time></trkpt><trkpt lat="58.68342167" lon="14.65475333"><ele>113.0</ele><time>2016-06-18T09:54:39.286Z</time></trkpt><trkpt lat="58.68346667" lon="14.65505333"><ele>114.0</ele><time>2016-06-18T09:54:40.292Z</time></trkpt><trkpt lat="58.68346667" lon="14.65505333"><ele>114.0</ele><time>2016-06-18T09:54:41.283Z</time></trkpt><trkpt lat="58.68351" lon="14.65534333"><ele>115.0</ele><time>2016-06-18T09:54:42.298Z</time></trkpt><trkpt lat="58.68351" lon="14.65534333"><ele>115.0</ele><time>2016-06-18T09:54:43.286Z</time></trkpt><trkpt lat="58.68355" lon="14.65562833"><ele>115.0</ele><time>2016-06-18T09:54:44.292Z</time></trkpt><trkpt lat="58.68355" lon="14.65562833"><ele>115.0</ele><time>2016-06-18T09:54:45.314Z</time></trkpt><trkpt lat="58.68359333" lon="14.65591"><ele>115.0</ele><time>2016-06-18T09:54:46.298Z</time></trkpt><trkpt lat="58.68359333" lon="14.65591"><ele>115.0</ele><time>2016-06-18T09:54:47.292Z</time></trkpt><trkpt lat="58.68363667" lon="14.65618167"><ele>115.0</ele><time>2016-06-18T09:54:48.298Z</time></trkpt><trkpt lat="58.68363667" lon="14.65618167"><ele>115.0</ele><time>2016-06-18T09:54:49.283Z</time></trkpt><trkpt lat="58.68367333" lon="14.65644"><ele>115.0</ele><time>2016-06-18T09:54:50.298Z</time></trkpt><trkpt lat="58.68367333" lon="14.65644"><ele>115.0</ele><time>2016-06-18T09:54:51.308Z</time></trkpt><trkpt lat="58.68372" lon="14.656675"><ele>116.0</ele><time>2016-06-18T09:54:52.316Z</time></trkpt><trkpt lat="58.68373833" lon="14.65678833"><ele>116.0</ele><time>2016-06-18T09:54:53.311Z</time></trkpt><trkpt lat="58.68373833" lon="14.65678833"><ele>116.0</ele><time>2016-06-18T09:54:54.303Z</time></trkpt><trkpt lat="58.68377667" lon="14.65702"><ele>116.0</ele><time>2016-06-18T09:54:55.298Z</time></trkpt><trkpt lat="58.68379667" lon="14.65713667"><ele>116.0</ele><time>2016-06-18T09:54:56.307Z</time></trkpt><trkpt lat="58.68379667" lon="14.65713667"><ele>116.0</ele><time>2016-06-18T09:54:57.291Z</time></trkpt><trkpt lat="58.68383833" lon="14.65737167"><ele>116.0</ele><time>2016-06-18T09:54:58.310Z</time></trkpt><trkpt lat="58.68385667" lon="14.657495"><ele>116.0</ele><time>2016-06-18T09:54:59.291Z</time></trkpt><trkpt lat="58.68385667" lon="14.657495"><ele>116.0</ele><time>2016-06-18T09:55:00.314Z</time></trkpt><trkpt lat="58.68389333" lon="14.65774"><ele>116.0</ele><time>2016-06-18T09:55:01.321Z</time></trkpt><trkpt lat="58.68391" lon="14.65786"><ele>116.0</ele><time>2016-06-18T09:55:02.299Z</time></trkpt><trkpt lat="58.68391" lon="14.65786"><ele>116.0</ele><time>2016-06-18T09:55:03.282Z</time></trkpt><trkpt lat="58.68395333" lon="14.658105"><ele>117.0</ele><time>2016-06-18T09:55:04.289Z</time></trkpt><trkpt lat="58.68395333" lon="14.658105"><ele>117.0</ele><time>2016-06-18T09:55:05.311Z</time></trkpt><trkpt lat="58.68399667" lon="14.65834333"><ele>118.0</ele><time>2016-06-18T09:55:06.307Z</time></trkpt><trkpt lat="58.68401333" lon="14.65846167"><ele>119.0</ele><time>2016-06-18T09:55:07.287Z</time></trkpt><trkpt lat="58.68401333" lon="14.65846167"><ele>119.0</ele><time>2016-06-18T09:55:08.310Z</time></trkpt><trkpt lat="58.68404667" lon="14.65870667"><ele>120.0</ele><time>2016-06-18T09:55:09.282Z</time></trkpt><trkpt lat="58.68404667" lon="14.65870667"><ele>120.0</ele><time>2016-06-18T09:55:10.284Z</time></trkpt><trkpt lat="58.68409667" lon="14.65894833"><ele>120.0</ele><time>2016-06-18T09:55:11.304Z</time></trkpt><trkpt lat="58.68409667" lon="14.65894833"><ele>120.0</ele><time>2016-06-18T09:55:12.298Z</time></trkpt><trkpt lat="58.684135" lon="14.659205"><ele>120.0</ele><time>2016-06-18T09:55:13.282Z</time></trkpt><trkpt lat="58.684135" lon="14.659205"><ele>120.0</ele><time>2016-06-18T09:55:14.305Z</time></trkpt><trkpt lat="58.68416833" lon="14.65946667"><ele>121.0</ele><time>2016-06-18T09:55:15.315Z</time></trkpt><trkpt lat="58.68416833" lon="14.65946667"><ele>121.0</ele><time>2016-06-18T09:55:16.296Z</time></trkpt><trkpt lat="58.68420667" lon="14.65971"><ele>121.0</ele><time>2016-06-18T09:55:17.288Z</time></trkpt><trkpt lat="58.68420667" lon="14.65971"><ele>121.0</ele><time>2016-06-18T09:55:18.310Z</time></trkpt><trkpt lat="58.68425333" lon="14.65996"><ele>122.0</ele><time>2016-06-18T09:55:19.316Z</time></trkpt><trkpt lat="58.68427833" lon="14.66008833"><ele>122.0</ele><time>2016-06-18T09:55:20.308Z</time></trkpt><trkpt lat="58.68427833" lon="14.66008833"><ele>122.0</ele><time>2016-06-18T09:55:21.295Z</time></trkpt><trkpt lat="58.68432167" lon="14.66035167"><ele>122.0</ele><time>2016-06-18T09:55:22.307Z</time></trkpt><trkpt lat="58.68432167" lon="14.66035167"><ele>122.0</ele><time>2016-06-18T09:55:23.283Z</time></trkpt><trkpt lat="58.68436667" lon="14.66062167"><ele>123.0</ele><time>2016-06-18T09:55:24.308Z</time></trkpt><trkpt lat="58.68436667" lon="14.66062167"><ele>123.0</ele><time>2016-06-18T09:55:25.317Z</time></trkpt><trkpt lat="58.68441" lon="14.660895"><ele>123.0</ele><time>2016-06-18T09:55:26.283Z</time></trkpt><trkpt lat="58.68441" lon="14.660895"><ele>123.0</ele><time>2016-06-18T09:55:27.304Z</time></trkpt><trkpt lat="58.68445667" lon="14.66116667"><ele>123.0</ele><time>2016-06-18T09:55:28.292Z</time></trkpt><trkpt lat="58.68445667" lon="14.66116667"><ele>123.0</ele><time>2016-06-18T09:55:29.302Z</time></trkpt><trkpt lat="58.68450167" lon="14.66144667"><ele>124.0</ele><time>2016-06-18T09:55:30.308Z</time></trkpt><trkpt lat="58.684525" lon="14.661585"><ele>124.0</ele><time>2016-06-18T09:55:31.285Z</time></trkpt><trkpt lat="58.684545" lon="14.661725"><ele>125.0</ele><time>2016-06-18T09:55:32.309Z</time></trkpt><trkpt lat="58.684545" lon="14.661725"><ele>125.0</ele><time>2016-06-18T09:55:33.293Z</time></trkpt><trkpt lat="58.68459167" lon="14.662005"><ele>126.0</ele><time>2016-06-18T09:55:34.303Z</time></trkpt><trkpt lat="58.68459167" lon="14.662005"><ele>126.0</ele><time>2016-06-18T09:55:35.320Z</time></trkpt><trkpt lat="58.68463833" lon="14.66229833"><ele>126.0</ele><time>2016-06-18T09:55:36.287Z</time></trkpt><trkpt lat="58.68466333" lon="14.662445"><ele>126.0</ele><time>2016-06-18T09:55:37.322Z</time></trkpt><trkpt lat="58.68468833" lon="14.66259667"><ele>126.0</ele><time>2016-06-18T09:55:38.315Z</time></trkpt><trkpt lat="58.68468833" lon="14.66259667"><ele>126.0</ele><time>2016-06-18T09:55:39.304Z</time></trkpt><trkpt lat="58.684745" lon="14.66289667"><ele>126.0</ele><time>2016-06-18T09:55:40.298Z</time></trkpt><trkpt lat="58.684745" lon="14.66289667"><ele>126.0</ele><time>2016-06-18T09:55:41.287Z</time></trkpt><trkpt lat="58.68480333" lon="14.6632"><ele>126.0</ele><time>2016-06-18T09:55:42.294Z</time></trkpt><trkpt lat="58.68480333" lon="14.6632"><ele>126.0</ele><time>2016-06-18T09:55:43.291Z</time></trkpt><trkpt lat="58.68485833" lon="14.66351167"><ele>126.0</ele><time>2016-06-18T09:55:44.298Z</time></trkpt><trkpt lat="58.68485833" lon="14.66351167"><ele>126.0</ele><time>2016-06-18T09:55:45.300Z</time></trkpt><trkpt lat="58.68491667" lon="14.66383333"><ele>125.0</ele><time>2016-06-18T09:55:46.313Z</time></trkpt><trkpt lat="58.68491667" lon="14.66383333"><ele>125.0</ele><time>2016-06-18T09:55:47.299Z</time></trkpt><trkpt lat="58.68498" lon="14.66416167"><ele>124.0</ele><time>2016-06-18T09:55:48.319Z</time></trkpt><trkpt lat="58.68501333" lon="14.66432667"><ele>124.0</ele><time>2016-06-18T09:55:49.314Z</time></trkpt><trkpt lat="58.68501333" lon="14.66432667"><ele>124.0</ele><time>2016-06-18T09:55:50.311Z</time></trkpt><trkpt lat="58.68508" lon="14.66466833"><ele>123.0</ele><time>2016-06-18T09:55:51.288Z</time></trkpt><trkpt lat="58.68511167" lon="14.66484"><ele>123.0</ele><time>2016-06-18T09:55:52.312Z</time></trkpt><trkpt lat="58.68511167" lon="14.66484"><ele>123.0</ele><time>2016-06-18T09:55:53.300Z</time></trkpt><trkpt lat="58.68518167" lon="14.665185"><ele>122.0</ele><time>2016-06-18T09:55:54.298Z</time></trkpt><trkpt lat="58.68522" lon="14.66536"><ele>121.0</ele><time>2016-06-18T09:55:55.290Z</time></trkpt><trkpt lat="58.68522" lon="14.66536"><ele>121.0</ele><time>2016-06-18T09:55:56.313Z</time></trkpt><trkpt lat="58.68529833" lon="14.66571167"><ele>121.0</ele><time>2016-06-18T09:55:57.319Z</time></trkpt><trkpt lat="58.68529833" lon="14.66571167"><ele>121.0</ele><time>2016-06-18T09:55:58.308Z</time></trkpt><trkpt lat="58.68538167" lon="14.66606167"><ele>120.0</ele><time>2016-06-18T09:55:59.318Z</time></trkpt><trkpt lat="58.68538167" lon="14.66606167"><ele>120.0</ele><time>2016-06-18T09:56:00.309Z</time></trkpt><trkpt lat="58.68547167" lon="14.66640333"><ele>118.0</ele><time>2016-06-18T09:56:01.299Z</time></trkpt><trkpt lat="58.68547167" lon="14.66640333"><ele>118.0</ele><time>2016-06-18T09:56:02.300Z</time></trkpt><trkpt lat="58.685565" lon="14.66673833"><ele>116.0</ele><time>2016-06-18T09:56:03.307Z</time></trkpt><trkpt lat="58.685565" lon="14.66673833"><ele>116.0</ele><time>2016-06-18T09:56:04.291Z</time></trkpt><trkpt lat="58.68566333" lon="14.66708167"><ele>116.0</ele><time>2016-06-18T09:56:05.290Z</time></trkpt><trkpt lat="58.68566333" lon="14.66708167"><ele>116.0</ele><time>2016-06-18T09:56:06.311Z</time></trkpt><trkpt lat="58.68576333" lon="14.66742667"><ele>115.0</ele><time>2016-06-18T09:56:07.317Z</time></trkpt><trkpt lat="58.685815" lon="14.6676"><ele>114.0</ele><time>2016-06-18T09:56:08.309Z</time></trkpt><trkpt lat="58.685815" lon="14.6676"><ele>114.0</ele><time>2016-06-18T09:56:09.310Z</time></trkpt><trkpt lat="58.68592" lon="14.66794667"><ele>114.0</ele><time>2016-06-18T09:56:10.316Z</time></trkpt><trkpt lat="58.68592" lon="14.66794667"><ele>114.0</ele><time>2016-06-18T09:56:11.315Z</time></trkpt><trkpt lat="58.68603" lon="14.66829167"><ele>113.0</ele><time>2016-06-18T09:56:12.321Z</time></trkpt><trkpt lat="58.68608667" lon="14.668465"><ele>113.0</ele><time>2016-06-18T09:56:13.307Z</time></trkpt><trkpt lat="58.68608667" lon="14.668465"><ele>113.0</ele><time>2016-06-18T09:56:14.315Z</time></trkpt><trkpt lat="58.6862" lon="14.66881667"><ele>112.0</ele><time>2016-06-18T09:56:15.282Z</time></trkpt><trkpt lat="58.68625833" lon="14.66899333"><ele>112.0</ele><time>2016-06-18T09:56:16.298Z</time></trkpt><trkpt lat="58.68625833" lon="14.66899333"><ele>112.0</ele><time>2016-06-18T09:56:17.289Z</time></trkpt><trkpt lat="58.68637667" lon="14.66934167"><ele>111.0</ele><time>2016-06-18T09:56:18.295Z</time></trkpt><trkpt lat="58.68637667" lon="14.66934167"><ele>111.0</ele><time>2016-06-18T09:56:19.318Z</time></trkpt><trkpt lat="58.686495" lon="14.66968667"><ele>111.0</ele><time>2016-06-18T09:56:20.298Z</time></trkpt><trkpt lat="58.686495" lon="14.66968667"><ele>111.0</ele><time>2016-06-18T09:56:21.282Z</time></trkpt><trkpt lat="58.68662167" lon="14.67002333"><ele>110.0</ele><time>2016-06-18T09:56:22.288Z</time></trkpt><trkpt lat="58.68668167" lon="14.67019167"><ele>110.0</ele><time>2016-06-18T09:56:23.303Z</time></trkpt><trkpt lat="58.68674333" lon="14.67035667"><ele>110.0</ele><time>2016-06-18T09:56:24.296Z</time></trkpt><trkpt lat="58.68674333" lon="14.67035667"><ele>110.0</ele><time>2016-06-18T09:56:25.288Z</time></trkpt><trkpt lat="58.68687667" lon="14.67068667"><ele>109.0</ele><time>2016-06-18T09:56:26.294Z</time></trkpt><trkpt lat="58.68694167" lon="14.67084167"><ele>109.0</ele><time>2016-06-18T09:56:27.298Z</time></trkpt><trkpt lat="58.68694167" lon="14.67084167"><ele>109.0</ele><time>2016-06-18T09:56:28.310Z</time></trkpt><trkpt lat="58.687075" lon="14.67114667"><ele>108.0</ele><time>2016-06-18T09:56:29.317Z</time></trkpt><trkpt lat="58.68714667" lon="14.6713"><ele>108.0</ele><time>2016-06-18T09:56:30.288Z</time></trkpt><trkpt lat="58.68714667" lon="14.6713"><ele>108.0</ele><time>2016-06-18T09:56:31.301Z</time></trkpt><trkpt lat="58.68727833" lon="14.671605"><ele>108.0</ele><time>2016-06-18T09:56:32.309Z</time></trkpt><trkpt lat="58.68727833" lon="14.671605"><ele>108.0</ele><time>2016-06-18T09:56:33.295Z</time></trkpt><trkpt lat="58.68740833" lon="14.67189833"><ele>108.0</ele><time>2016-06-18T09:56:34.298Z</time></trkpt><trkpt lat="58.68740833" lon="14.67189833"><ele>108.0</ele><time>2016-06-18T09:56:35.292Z</time></trkpt><trkpt lat="58.68754667" lon="14.67218333"><ele>108.0</ele><time>2016-06-18T09:56:36.309Z</time></trkpt><trkpt lat="58.68754667" lon="14.67218333"><ele>108.0</ele><time>2016-06-18T09:56:37.294Z</time></trkpt><trkpt lat="58.68768167" lon="14.67248333"><ele>107.0</ele><time>2016-06-18T09:56:38.301Z</time></trkpt><trkpt lat="58.68768167" lon="14.67248333"><ele>107.0</ele><time>2016-06-18T09:56:39.303Z</time></trkpt><trkpt lat="58.68782167" lon="14.67276833"><ele>107.0</ele><time>2016-06-18T09:56:40.310Z</time></trkpt><trkpt lat="58.68789167" lon="14.67290833"><ele>107.0</ele><time>2016-06-18T09:56:41.300Z</time></trkpt><trkpt lat="58.68789167" lon="14.67290833"><ele>107.0</ele><time>2016-06-18T09:56:42.319Z</time></trkpt><trkpt lat="58.68803667" lon="14.67318667"><ele>107.0</ele><time>2016-06-18T09:56:43.293Z</time></trkpt><trkpt lat="58.68803667" lon="14.67318667"><ele>107.0</ele><time>2016-06-18T09:56:44.317Z</time></trkpt><trkpt lat="58.68817" lon="14.67345667"><ele>107.0</ele><time>2016-06-18T09:56:45.315Z</time></trkpt><trkpt lat="58.68817" lon="14.67345667"><ele>107.0</ele><time>2016-06-18T09:56:46.316Z</time></trkpt><trkpt lat="58.688315" lon="14.67373167"><ele>107.0</ele><time>2016-06-18T09:56:47.282Z</time></trkpt><trkpt lat="58.68839" lon="14.67386167"><ele>107.0</ele><time>2016-06-18T09:56:48.308Z</time></trkpt><trkpt lat="58.688465" lon="14.673995"><ele>107.0</ele><time>2016-06-18T09:56:49.294Z</time></trkpt><trkpt lat="58.68854" lon="14.674125"><ele>107.0</ele><time>2016-06-18T09:56:50.286Z</time></trkpt><trkpt lat="58.68854" lon="14.674125"><ele>107.0</ele><time>2016-06-18T09:56:51.300Z</time></trkpt><trkpt lat="58.688695" lon="14.674375"><ele>107.0</ele><time>2016-06-18T09:56:52.308Z</time></trkpt><trkpt lat="58.688775" lon="14.674495"><ele>107.0</ele><time>2016-06-18T09:56:53.297Z</time></trkpt><trkpt lat="58.688775" lon="14.674495"><ele>107.0</ele><time>2016-06-18T09:56:54.321Z</time></trkpt><trkpt lat="58.688925" lon="14.674725"><ele>107.0</ele><time>2016-06-18T09:56:55.310Z</time></trkpt><trkpt lat="58.68900167" lon="14.674845"><ele>107.0</ele><time>2016-06-18T09:56:56.310Z</time></trkpt><trkpt lat="58.68907833" lon="14.67496833"><ele>107.0</ele><time>2016-06-18T09:56:57.283Z</time></trkpt><trkpt lat="58.68907833" lon="14.67496833"><ele>107.0</ele><time>2016-06-18T09:56:58.305Z</time></trkpt><trkpt lat="58.68922833" lon="14.67520833"><ele>107.0</ele><time>2016-06-18T09:56:59.315Z</time></trkpt><trkpt lat="58.68930167" lon="14.67532667"><ele>107.0</ele><time>2016-06-18T09:57:00.313Z</time></trkpt><trkpt lat="58.68938" lon="14.67544667"><ele>107.0</ele><time>2016-06-18T09:57:01.319Z</time></trkpt><trkpt lat="58.68938" lon="14.67544667"><ele>107.0</ele><time>2016-06-18T09:57:02.303Z</time></trkpt><trkpt lat="58.689535" lon="14.67568667"><ele>107.0</ele><time>2016-06-18T09:57:03.308Z</time></trkpt><trkpt lat="58.689535" lon="14.67568667"><ele>107.0</ele><time>2016-06-18T09:57:04.308Z</time></trkpt><trkpt lat="58.68969" lon="14.67592"><ele>106.0</ele><time>2016-06-18T09:57:05.314Z</time></trkpt><trkpt lat="58.68969" lon="14.67592"><ele>106.0</ele><time>2016-06-18T09:57:06.317Z</time></trkpt><trkpt lat="58.68984" lon="14.67614"><ele>107.0</ele><time>2016-06-18T09:57:07.292Z</time></trkpt><trkpt lat="58.68984" lon="14.67614"><ele>107.0</ele><time>2016-06-18T09:57:08.306Z</time></trkpt><trkpt lat="58.68998167" lon="14.67635"><ele>107.0</ele><time>2016-06-18T09:57:09.316Z</time></trkpt><trkpt lat="58.690055" lon="14.67646"><ele>107.0</ele><time>2016-06-18T09:57:10.307Z</time></trkpt><trkpt lat="58.690055" lon="14.67646"><ele>107.0</ele><time>2016-06-18T09:57:11.318Z</time></trkpt><trkpt lat="58.690195" lon="14.676675"><ele>107.0</ele><time>2016-06-18T09:57:12.312Z</time></trkpt><trkpt lat="58.690265" lon="14.67677833"><ele>107.0</ele><time>2016-06-18T09:57:13.299Z</time></trkpt><trkpt lat="58.690265" lon="14.67677833"><ele>107.0</ele><time>2016-06-18T09:57:14.307Z</time></trkpt><trkpt lat="58.69040333" lon="14.676985"><ele>107.0</ele><time>2016-06-18T09:57:15.290Z</time></trkpt><trkpt lat="58.69047667" lon="14.67708833"><ele>107.0</ele><time>2016-06-18T09:57:16.316Z</time></trkpt><trkpt lat="58.69047667" lon="14.67708833"><ele>107.0</ele><time>2016-06-18T09:57:17.309Z</time></trkpt><trkpt lat="58.69061833" lon="14.67730833"><ele>107.0</ele><time>2016-06-18T09:57:18.284Z</time></trkpt><trkpt lat="58.69061833" lon="14.67730833"><ele>107.0</ele><time>2016-06-18T09:57:19.284Z</time></trkpt><trkpt lat="58.69076333" lon="14.677525"><ele>107.0</ele><time>2016-06-18T09:57:20.290Z</time></trkpt><trkpt lat="58.69083667" lon="14.67763667"><ele>106.0</ele><time>2016-06-18T09:57:21.308Z</time></trkpt><trkpt lat="58.69083667" lon="14.67763667"><ele>106.0</ele><time>2016-06-18T09:57:22.309Z</time></trkpt><trkpt lat="58.69098167" lon="14.67784833"><ele>107.0</ele><time>2016-06-18T09:57:23.316Z</time></trkpt><trkpt lat="58.69098167" lon="14.67784833"><ele>107.0</ele><time>2016-06-18T09:57:24.308Z</time></trkpt><trkpt lat="58.69112333" lon="14.678065"><ele>106.0</ele><time>2016-06-18T09:57:25.316Z</time></trkpt><trkpt lat="58.69112333" lon="14.678065"><ele>106.0</ele><time>2016-06-18T09:57:26.309Z</time></trkpt><trkpt lat="58.691265" lon="14.67828"><ele>107.0</ele><time>2016-06-18T09:57:27.298Z</time></trkpt><trkpt lat="58.691265" lon="14.67828"><ele>107.0</ele><time>2016-06-18T09:57:28.309Z</time></trkpt><trkpt lat="58.691415" lon="14.678485"><ele>107.0</ele><time>2016-06-18T09:57:29.315Z</time></trkpt><trkpt lat="58.69148833" lon="14.678595"><ele>107.0</ele><time>2016-06-18T09:57:30.286Z</time></trkpt><trkpt lat="58.69148833" lon="14.678595"><ele>107.0</ele><time>2016-06-18T09:57:31.285Z</time></trkpt><trkpt lat="58.69163" lon="14.67881167"><ele>108.0</ele><time>2016-06-18T09:57:32.295Z</time></trkpt><trkpt lat="58.69163" lon="14.67881167"><ele>108.0</ele><time>2016-06-18T09:57:33.315Z</time></trkpt><trkpt lat="58.69176833" lon="14.679025"><ele>107.0</ele><time>2016-06-18T09:57:34.308Z</time></trkpt><trkpt lat="58.69176833" lon="14.679025"><ele>107.0</ele><time>2016-06-18T09:57:35.289Z</time></trkpt><trkpt lat="58.6919" lon="14.67924167"><ele>108.0</ele><time>2016-06-18T09:57:36.302Z</time></trkpt><trkpt lat="58.69196167" lon="14.67934833"><ele>107.0</ele><time>2016-06-18T09:57:37.286Z</time></trkpt><trkpt lat="58.69202833" lon="14.67945667"><ele>107.0</ele><time>2016-06-18T09:57:38.308Z</time></trkpt><trkpt lat="58.69209667" lon="14.679565"><ele>107.0</ele><time>2016-06-18T09:57:39.296Z</time></trkpt><trkpt lat="58.69209667" lon="14.679565"><ele>107.0</ele><time>2016-06-18T09:57:40.321Z</time></trkpt><trkpt lat="58.69223167" lon="14.67978333"><ele>107.0</ele><time>2016-06-18T09:57:41.288Z</time></trkpt><trkpt lat="58.6923" lon="14.67989333"><ele>106.0</ele><time>2016-06-18T09:57:42.298Z</time></trkpt><trkpt lat="58.6923" lon="14.67989333"><ele>106.0</ele><time>2016-06-18T09:57:43.287Z</time></trkpt><trkpt lat="58.69243833" lon="14.68013167"><ele>106.0</ele><time>2016-06-18T09:57:44.293Z</time></trkpt><trkpt lat="58.69243833" lon="14.68013167"><ele>106.0</ele><time>2016-06-18T09:57:45.316Z</time></trkpt><trkpt lat="58.69257333" lon="14.68037333"><ele>106.0</ele><time>2016-06-18T09:57:46.306Z</time></trkpt><trkpt lat="58.69257333" lon="14.68037333"><ele>106.0</ele><time>2016-06-18T09:57:47.298Z</time></trkpt><trkpt lat="58.69271333" lon="14.680625"><ele>107.0</ele><time>2016-06-18T09:57:48.309Z</time></trkpt><trkpt lat="58.69278" lon="14.68074667"><ele>108.0</ele><time>2016-06-18T09:57:49.303Z</time></trkpt><trkpt lat="58.69278" lon="14.68074667"><ele>108.0</ele><time>2016-06-18T09:57:50.320Z</time></trkpt><trkpt lat="58.69291333" lon="14.68099667"><ele>108.0</ele><time>2016-06-18T09:57:51.286Z</time></trkpt><trkpt lat="58.69291333" lon="14.68099667"><ele>108.0</ele><time>2016-06-18T09:57:52.309Z</time></trkpt><trkpt lat="58.69303667" lon="14.68124833"><ele>108.0</ele><time>2016-06-18T09:57:53.318Z</time></trkpt><trkpt lat="58.69303667" lon="14.68124833"><ele>108.0</ele><time>2016-06-18T09:57:54.320Z</time></trkpt><trkpt lat="58.69315833" lon="14.68149833"><ele>108.0</ele><time>2016-06-18T09:57:55.287Z</time></trkpt><trkpt lat="58.69322333" lon="14.68162833"><ele>108.0</ele><time>2016-06-18T09:57:56.314Z</time></trkpt><trkpt lat="58.69322333" lon="14.68162833"><ele>108.0</ele><time>2016-06-18T09:57:57.308Z</time></trkpt><trkpt lat="58.69334333" lon="14.68188"><ele>107.0</ele><time>2016-06-18T09:57:58.288Z</time></trkpt><trkpt lat="58.69340833" lon="14.68200833"><ele>107.0</ele><time>2016-06-18T09:57:59.314Z</time></trkpt><trkpt lat="58.69340833" lon="14.68200833"><ele>107.0</ele><time>2016-06-18T09:58:00.313Z</time></trkpt><trkpt lat="58.69353" lon="14.68226667"><ele>107.0</ele><time>2016-06-18T09:58:01.319Z</time></trkpt><trkpt lat="58.69353" lon="14.68226667"><ele>107.0</ele><time>2016-06-18T09:58:02.295Z</time></trkpt><trkpt lat="58.69365" lon="14.68253667"><ele>107.0</ele><time>2016-06-18T09:58:03.316Z</time></trkpt><trkpt lat="58.69365" lon="14.68253667"><ele>107.0</ele><time>2016-06-18T09:58:04.315Z</time></trkpt><trkpt lat="58.69377" lon="14.68281333"><ele>106.0</ele><time>2016-06-18T09:58:05.282Z</time></trkpt><trkpt lat="58.69382833" lon="14.682955"><ele>106.0</ele><time>2016-06-18T09:58:06.314Z</time></trkpt><trkpt lat="58.69382833" lon="14.682955"><ele>106.0</ele><time>2016-06-18T09:58:07.321Z</time></trkpt><trkpt lat="58.69394333" lon="14.683245"><ele>106.0</ele><time>2016-06-18T09:58:08.287Z</time></trkpt><trkpt lat="58.69394333" lon="14.683245"><ele>106.0</ele><time>2016-06-18T09:58:09.318Z</time></trkpt><trkpt lat="58.694055" lon="14.68353833"><ele>106.0</ele><time>2016-06-18T09:58:10.290Z</time></trkpt><trkpt lat="58.694055" lon="14.68353833"><ele>106.0</ele><time>2016-06-18T09:58:11.316Z</time></trkpt><trkpt lat="58.69417333" lon="14.683835"><ele>106.0</ele><time>2016-06-18T09:58:12.296Z</time></trkpt><trkpt lat="58.69422833" lon="14.68398667"><ele>106.0</ele><time>2016-06-18T09:58:13.318Z</time></trkpt><trkpt lat="58.694285" lon="14.68413667"><ele>106.0</ele><time>2016-06-18T09:58:14.283Z</time></trkpt><trkpt lat="58.694345" lon="14.68428667"><ele>106.0</ele><time>2016-06-18T09:58:15.307Z</time></trkpt><trkpt lat="58.694345" lon="14.68428667"><ele>106.0</ele><time>2016-06-18T09:58:16.290Z</time></trkpt><trkpt lat="58.69445667" lon="14.68459333"><ele>106.0</ele><time>2016-06-18T09:58:17.296Z</time></trkpt><trkpt lat="58.69451167" lon="14.68474833"><ele>106.0</ele><time>2016-06-18T09:58:18.320Z</time></trkpt><trkpt lat="58.69451167" lon="14.68474833"><ele>106.0</ele><time>2016-06-18T09:58:19.304Z</time></trkpt><trkpt lat="58.69462167" lon="14.68505833"><ele>105.0</ele><time>2016-06-18T09:58:20.312Z</time></trkpt><trkpt lat="58.69462167" lon="14.68505833"><ele>105.0</ele><time>2016-06-18T09:58:21.298Z</time></trkpt><trkpt lat="58.69472833" lon="14.68537833"><ele>105.0</ele><time>2016-06-18T09:58:22.298Z</time></trkpt><trkpt lat="58.69472833" lon="14.68537833"><ele>105.0</ele><time>2016-06-18T09:58:23.302Z</time></trkpt><trkpt lat="58.69483167" lon="14.68570833"><ele>105.0</ele><time>2016-06-18T09:58:24.309Z</time></trkpt><trkpt lat="58.69483167" lon="14.68570833"><ele>105.0</ele><time>2016-06-18T09:58:25.286Z</time></trkpt><trkpt lat="58.69493333" lon="14.68603"><ele>105.0</ele><time>2016-06-18T09:58:26.298Z</time></trkpt><trkpt lat="58.69493333" lon="14.68603"><ele>105.0</ele><time>2016-06-18T09:58:27.318Z</time></trkpt><trkpt lat="58.69503167" lon="14.68635167"><ele>105.0</ele><time>2016-06-18T09:58:28.286Z</time></trkpt><trkpt lat="58.69508" lon="14.68651167"><ele>105.0</ele><time>2016-06-18T09:58:29.311Z</time></trkpt><trkpt lat="58.69508" lon="14.68651167"><ele>105.0</ele><time>2016-06-18T09:58:30.295Z</time></trkpt><trkpt lat="58.695175" lon="14.68683667"><ele>104.0</ele><time>2016-06-18T09:58:31.320Z</time></trkpt><trkpt lat="58.69522" lon="14.68700167"><ele>104.0</ele><time>2016-06-18T09:58:32.288Z</time></trkpt><trkpt lat="58.69522" lon="14.68700167"><ele>104.0</ele><time>2016-06-18T09:58:33.305Z</time></trkpt><trkpt lat="58.69531" lon="14.68734167"><ele>104.0</ele><time>2016-06-18T09:58:34.321Z</time></trkpt><trkpt lat="58.695355" lon="14.68750667"><ele>104.0</ele><time>2016-06-18T09:58:35.316Z</time></trkpt><trkpt lat="58.695355" lon="14.68750667"><ele>104.0</ele><time>2016-06-18T09:58:36.308Z</time></trkpt><trkpt lat="58.695445" lon="14.68784667"><ele>104.0</ele><time>2016-06-18T09:58:37.319Z</time></trkpt><trkpt lat="58.69548667" lon="14.68801667"><ele>103.0</ele><time>2016-06-18T09:58:38.292Z</time></trkpt><trkpt lat="58.69548667" lon="14.68801667"><ele>103.0</ele><time>2016-06-18T09:58:39.310Z</time></trkpt><trkpt lat="58.69557" lon="14.688365"><ele>103.0</ele><time>2016-06-18T09:58:40.289Z</time></trkpt><trkpt lat="58.69561" lon="14.68853833"><ele>103.0</ele><time>2016-06-18T09:58:41.290Z</time></trkpt><trkpt lat="58.69561" lon="14.68853833"><ele>103.0</ele><time>2016-06-18T09:58:42.318Z</time></trkpt><trkpt lat="58.69569" lon="14.68888333"><ele>103.0</ele><time>2016-06-18T09:58:43.284Z</time></trkpt><trkpt lat="58.69569" lon="14.68888333"><ele>103.0</ele><time>2016-06-18T09:58:44.318Z</time></trkpt><trkpt lat="58.69576667" lon="14.68923"><ele>103.0</ele><time>2016-06-18T09:58:45.301Z</time></trkpt><trkpt lat="58.69576667" lon="14.68923"><ele>103.0</ele><time>2016-06-18T09:58:46.297Z</time></trkpt><trkpt lat="58.69584167" lon="14.68957333"><ele>103.0</ele><time>2016-06-18T09:58:47.312Z</time></trkpt><trkpt lat="58.69584167" lon="14.68957333"><ele>103.0</ele><time>2016-06-18T09:58:48.298Z</time></trkpt><trkpt lat="58.69591167" lon="14.68991833"><ele>103.0</ele><time>2016-06-18T09:58:49.319Z</time></trkpt><trkpt lat="58.695945" lon="14.69009"><ele>103.0</ele><time>2016-06-18T09:58:50.296Z</time></trkpt><trkpt lat="58.695945" lon="14.69009"><ele>103.0</ele><time>2016-06-18T09:58:51.320Z</time></trkpt><trkpt lat="58.69601" lon="14.690435"><ele>103.0</ele><time>2016-06-18T09:58:52.289Z</time></trkpt><trkpt lat="58.69604167" lon="14.690605"><ele>103.0</ele><time>2016-06-18T09:58:53.319Z</time></trkpt><trkpt lat="58.69604167" lon="14.690605"><ele>103.0</ele><time>2016-06-18T09:58:54.308Z</time></trkpt><trkpt lat="58.69611167" lon="14.69095333"><ele>102.0</ele><time>2016-06-18T09:58:55.316Z</time></trkpt><trkpt lat="58.69614667" lon="14.69112833"><ele>102.0</ele><time>2016-06-18T09:58:56.315Z</time></trkpt><trkpt lat="58.69614667" lon="14.69112833"><ele>102.0</ele><time>2016-06-18T09:58:57.314Z</time></trkpt><trkpt lat="58.696215" lon="14.69148333"><ele>102.0</ele><time>2016-06-18T09:58:58.289Z</time></trkpt><trkpt lat="58.696215" lon="14.69148333"><ele>102.0</ele><time>2016-06-18T09:58:59.315Z</time></trkpt><trkpt lat="58.69628167" lon="14.69183"><ele>103.0</ele><time>2016-06-18T09:59:00.305Z</time></trkpt><trkpt lat="58.69631333" lon="14.692"><ele>103.0</ele><time>2016-06-18T09:59:01.300Z</time></trkpt><trkpt lat="58.69631333" lon="14.692"><ele>103.0</ele><time>2016-06-18T09:59:02.284Z</time></trkpt><trkpt lat="58.69637833" lon="14.69234"><ele>103.0</ele><time>2016-06-18T09:59:03.297Z</time></trkpt><trkpt lat="58.69637833" lon="14.69234"><ele>103.0</ele><time>2016-06-18T09:59:04.319Z</time></trkpt><trkpt lat="58.696445" lon="14.69268167"><ele>103.0</ele><time>2016-06-18T09:59:05.285Z</time></trkpt><trkpt lat="58.69647833" lon="14.69285333"><ele>103.0</ele><time>2016-06-18T09:59:06.298Z</time></trkpt><trkpt lat="58.69647833" lon="14.69285333"><ele>103.0</ele><time>2016-06-18T09:59:07.290Z</time></trkpt><trkpt lat="58.69654667" lon="14.693195"><ele>103.0</ele><time>2016-06-18T09:59:08.296Z</time></trkpt><trkpt lat="58.69654667" lon="14.693195"><ele>103.0</ele><time>2016-06-18T09:59:09.320Z</time></trkpt><trkpt lat="58.69661333" lon="14.69353333"><ele>103.0</ele><time>2016-06-18T09:59:10.313Z</time></trkpt><trkpt lat="58.69661333" lon="14.69353333"><ele>103.0</ele><time>2016-06-18T09:59:11.310Z</time></trkpt><trkpt lat="58.69667667" lon="14.69386833"><ele>103.0</ele><time>2016-06-18T09:59:12.284Z</time></trkpt><trkpt lat="58.69670333" lon="14.69403333"><ele>103.0</ele><time>2016-06-18T09:59:13.321Z</time></trkpt><trkpt lat="58.69670333" lon="14.69403333"><ele>103.0</ele><time>2016-06-18T09:59:14.309Z</time></trkpt><trkpt lat="58.69676833" lon="14.69436167"><ele>103.0</ele><time>2016-06-18T09:59:15.316Z</time></trkpt><trkpt lat="58.69676833" lon="14.69436167"><ele>103.0</ele><time>2016-06-18T09:59:16.308Z</time></trkpt><trkpt lat="58.69682667" lon="14.69469333"><ele>102.0</ele><time>2016-06-18T09:59:17.315Z</time></trkpt><trkpt lat="58.69686" lon="14.69486"><ele>102.0</ele><time>2016-06-18T09:59:18.302Z</time></trkpt><trkpt lat="58.69689167" lon="14.69502667"><ele>102.0</ele><time>2016-06-18T09:59:19.313Z</time></trkpt><trkpt lat="58.69689167" lon="14.69502667"><ele>102.0</ele><time>2016-06-18T09:59:20.300Z</time></trkpt><trkpt lat="58.69695833" lon="14.69535667"><ele>102.0</ele><time>2016-06-18T09:59:21.307Z</time></trkpt><trkpt lat="58.69695833" lon="14.69535667"><ele>102.0</ele><time>2016-06-18T09:59:22.305Z</time></trkpt><trkpt lat="58.69702167" lon="14.69569167"><ele>102.0</ele><time>2016-06-18T09:59:23.312Z</time></trkpt><trkpt lat="58.69705667" lon="14.69586167"><ele>103.0</ele><time>2016-06-18T09:59:24.300Z</time></trkpt><trkpt lat="58.69705667" lon="14.69586167"><ele>103.0</ele><time>2016-06-18T09:59:25.314Z</time></trkpt><trkpt lat="58.69712167" lon="14.69619333"><ele>102.0</ele><time>2016-06-18T09:59:26.320Z</time></trkpt><trkpt lat="58.69712167" lon="14.69619333"><ele>102.0</ele><time>2016-06-18T09:59:27.307Z</time></trkpt><trkpt lat="58.697185" lon="14.69653"><ele>102.0</ele><time>2016-06-18T09:59:28.309Z</time></trkpt><trkpt lat="58.697185" lon="14.69653"><ele>102.0</ele><time>2016-06-18T09:59:29.294Z</time></trkpt><trkpt lat="58.69724833" lon="14.69686"><ele>102.0</ele><time>2016-06-18T09:59:30.300Z</time></trkpt><trkpt lat="58.69728" lon="14.69702333"><ele>102.0</ele><time>2016-06-18T09:59:31.297Z</time></trkpt><trkpt lat="58.69728" lon="14.69702333"><ele>102.0</ele><time>2016-06-18T09:59:32.320Z</time></trkpt><trkpt lat="58.697345" lon="14.69735"><ele>102.0</ele><time>2016-06-18T09:59:33.295Z</time></trkpt><trkpt lat="58.697345" lon="14.69735"><ele>102.0</ele><time>2016-06-18T09:59:34.316Z</time></trkpt><trkpt lat="58.69740833" lon="14.69767167"><ele>102.0</ele><time>2016-06-18T09:59:35.303Z</time></trkpt><trkpt lat="58.69740833" lon="14.69767167"><ele>102.0</ele><time>2016-06-18T09:59:36.287Z</time></trkpt><trkpt lat="58.69747" lon="14.69799"><ele>102.0</ele><time>2016-06-18T09:59:37.297Z</time></trkpt><trkpt lat="58.69750167" lon="14.69815"><ele>102.0</ele><time>2016-06-18T09:59:38.319Z</time></trkpt><trkpt lat="58.69750167" lon="14.69815"><ele>102.0</ele><time>2016-06-18T09:59:39.306Z</time></trkpt><trkpt lat="58.697565" lon="14.69847"><ele>102.0</ele><time>2016-06-18T09:59:40.317Z</time></trkpt><trkpt lat="58.697595" lon="14.69863"><ele>102.0</ele><time>2016-06-18T09:59:41.321Z</time></trkpt><trkpt lat="58.697595" lon="14.69863"><ele>102.0</ele><time>2016-06-18T09:59:42.308Z</time></trkpt><trkpt lat="58.69765833" lon="14.69895"><ele>102.0</ele><time>2016-06-18T09:59:43.318Z</time></trkpt><trkpt lat="58.69765833" lon="14.69895"><ele>102.0</ele><time>2016-06-18T09:59:44.294Z</time></trkpt><trkpt lat="58.69772167" lon="14.69927167"><ele>102.0</ele><time>2016-06-18T09:59:45.307Z</time></trkpt><trkpt lat="58.69772167" lon="14.69927167"><ele>102.0</ele><time>2016-06-18T09:59:46.290Z</time></trkpt><trkpt lat="58.69778667" lon="14.69959667"><ele>102.0</ele><time>2016-06-18T09:59:47.321Z</time></trkpt><trkpt lat="58.69778667" lon="14.69959667"><ele>102.0</ele><time>2016-06-18T09:59:48.298Z</time></trkpt><trkpt lat="58.69785" lon="14.69992333"><ele>102.0</ele><time>2016-06-18T09:59:49.308Z</time></trkpt><trkpt lat="58.69788333" lon="14.700085"><ele>102.0</ele><time>2016-06-18T09:59:50.295Z</time></trkpt><trkpt lat="58.69788333" lon="14.700085"><ele>102.0</ele><time>2016-06-18T09:59:51.320Z</time></trkpt><trkpt lat="58.69794667" lon="14.70041"><ele>102.0</ele><time>2016-06-18T09:59:52.299Z</time></trkpt><trkpt lat="58.69794667" lon="14.70041"><ele>102.0</ele><time>2016-06-18T09:59:53.282Z</time></trkpt><trkpt lat="58.69801333" lon="14.70073"><ele>102.0</ele><time>2016-06-18T09:59:54.294Z</time></trkpt><trkpt lat="58.698045" lon="14.70088833"><ele>102.0</ele><time>2016-06-18T09:59:55.304Z</time></trkpt><trkpt lat="58.698045" lon="14.70088833"><ele>102.0</ele><time>2016-06-18T09:59:56.286Z</time></trkpt><trkpt lat="58.69811333" lon="14.701205"><ele>102.0</ele><time>2016-06-18T09:59:57.293Z</time></trkpt><trkpt lat="58.69811333" lon="14.701205"><ele>102.0</ele><time>2016-06-18T09:59:58.317Z</time></trkpt><trkpt lat="58.69818833" lon="14.701525"><ele>102.0</ele><time>2016-06-18T09:59:59.285Z</time></trkpt><trkpt lat="58.69818833" lon="14.701525"><ele>102.0</ele><time>2016-06-18T10:00:00.310Z</time></trkpt><trkpt lat="58.69826167" lon="14.70183667"><ele>101.0</ele><time>2016-06-18T10:00:01.302Z</time></trkpt><trkpt lat="58.69826167" lon="14.70183667"><ele>101.0</ele><time>2016-06-18T10:00:02.316Z</time></trkpt><trkpt lat="58.69833667" lon="14.70214833"><ele>101.0</ele><time>2016-06-18T10:00:03.284Z</time></trkpt><trkpt lat="58.69833667" lon="14.70214833"><ele>101.0</ele><time>2016-06-18T10:00:04.319Z</time></trkpt><trkpt lat="58.69842167" lon="14.702455"><ele>102.0</ele><time>2016-06-18T10:00:05.294Z</time></trkpt><trkpt lat="58.69842167" lon="14.702455"><ele>102.0</ele><time>2016-06-18T10:00:06.311Z</time></trkpt><trkpt lat="58.69851" lon="14.702765"><ele>102.0</ele><time>2016-06-18T10:00:07.317Z</time></trkpt><trkpt lat="58.69855333" lon="14.70291833"><ele>102.0</ele><time>2016-06-18T10:00:08.312Z</time></trkpt><trkpt lat="58.69855333" lon="14.70291833"><ele>102.0</ele><time>2016-06-18T10:00:09.292Z</time></trkpt><trkpt lat="58.69863833" lon="14.70323167"><ele>102.0</ele><time>2016-06-18T10:00:10.300Z</time></trkpt><trkpt lat="58.69863833" lon="14.70323167"><ele>102.0</ele><time>2016-06-18T10:00:11.314Z</time></trkpt><trkpt lat="58.69873167" lon="14.703535"><ele>102.0</ele><time>2016-06-18T10:00:12.319Z</time></trkpt><trkpt lat="58.69873167" lon="14.703535"><ele>102.0</ele><time>2016-06-18T10:00:13.312Z</time></trkpt><trkpt lat="58.69882833" lon="14.70383833"><ele>103.0</ele><time>2016-06-18T10:00:14.319Z</time></trkpt><trkpt lat="58.698875" lon="14.70398833"><ele>102.0</ele><time>2016-06-18T10:00:15.301Z</time></trkpt><trkpt lat="58.698875" lon="14.70398833"><ele>102.0</ele><time>2016-06-18T10:00:16.310Z</time></trkpt><trkpt lat="58.69897333" lon="14.70428667"><ele>103.0</ele><time>2016-06-18T10:00:17.317Z</time></trkpt><trkpt lat="58.69897333" lon="14.70428667"><ele>103.0</ele><time>2016-06-18T10:00:18.312Z</time></trkpt><trkpt lat="58.69907333" lon="14.704585"><ele>103.0</ele><time>2016-06-18T10:00:19.291Z</time></trkpt><trkpt lat="58.69912667" lon="14.70472833"><ele>103.0</ele><time>2016-06-18T10:00:20.290Z</time></trkpt><trkpt lat="58.69912667" lon="14.70472833"><ele>103.0</ele><time>2016-06-18T10:00:21.315Z</time></trkpt><trkpt lat="58.69923" lon="14.70501167"><ele>103.0</ele><time>2016-06-18T10:00:22.322Z</time></trkpt><trkpt lat="58.69923" lon="14.70501167"><ele>103.0</ele><time>2016-06-18T10:00:23.310Z</time></trkpt><trkpt lat="58.69933833" lon="14.70528833"><ele>103.0</ele><time>2016-06-18T10:00:24.288Z</time></trkpt><trkpt lat="58.69939333" lon="14.70542833"><ele>103.0</ele><time>2016-06-18T10:00:25.312Z</time></trkpt><trkpt lat="58.69939333" lon="14.70542833"><ele>103.0</ele><time>2016-06-18T10:00:26.298Z</time></trkpt><trkpt lat="58.69949833" lon="14.705695"><ele>103.0</ele><time>2016-06-18T10:00:27.283Z</time></trkpt><trkpt lat="58.69949833" lon="14.705695"><ele>103.0</ele><time>2016-06-18T10:00:28.311Z</time></trkpt><trkpt lat="58.69960333" lon="14.70595167"><ele>103.0</ele><time>2016-06-18T10:00:29.317Z</time></trkpt><trkpt lat="58.69965667" lon="14.70607833"><ele>103.0</ele><time>2016-06-18T10:00:30.311Z</time></trkpt><trkpt lat="58.69965667" lon="14.70607833"><ele>103.0</ele><time>2016-06-18T10:00:31.282Z</time></trkpt><trkpt lat="58.699765" lon="14.70633"><ele>103.0</ele><time>2016-06-18T10:00:32.289Z</time></trkpt><trkpt lat="58.699765" lon="14.70633"><ele>103.0</ele><time>2016-06-18T10:00:33.318Z</time></trkpt><trkpt lat="58.69987667" lon="14.706575"><ele>103.0</ele><time>2016-06-18T10:00:34.284Z</time></trkpt><trkpt lat="58.69993333" lon="14.70669333"><ele>103.0</ele><time>2016-06-18T10:00:35.288Z</time></trkpt><trkpt lat="58.69993333" lon="14.70669333"><ele>103.0</ele><time>2016-06-18T10:00:36.312Z</time></trkpt><trkpt lat="58.70004" lon="14.70693167"><ele>104.0</ele><time>2016-06-18T10:00:37.319Z</time></trkpt><trkpt lat="58.700095" lon="14.70704833"><ele>104.0</ele><time>2016-06-18T10:00:38.306Z</time></trkpt><trkpt lat="58.700095" lon="14.70704833"><ele>104.0</ele><time>2016-06-18T10:00:39.290Z</time></trkpt><trkpt lat="58.70021333" lon="14.70729"><ele>104.0</ele><time>2016-06-18T10:00:40.301Z</time></trkpt><trkpt lat="58.70027" lon="14.70741667"><ele>104.0</ele><time>2016-06-18T10:00:41.302Z</time></trkpt><trkpt lat="58.70027" lon="14.70741667"><ele>104.0</ele><time>2016-06-18T10:00:42.284Z</time></trkpt><trkpt lat="58.70038333" lon="14.70766333"><ele>105.0</ele><time>2016-06-18T10:00:43.291Z</time></trkpt><trkpt lat="58.700445" lon="14.70777333"><ele>105.0</ele><time>2016-06-18T10:00:44.296Z</time></trkpt><trkpt lat="58.700445" lon="14.70777333"><ele>105.0</ele><time>2016-06-18T10:00:45.312Z</time></trkpt><trkpt lat="58.70057167" lon="14.70798833"><ele>105.0</ele><time>2016-06-18T10:00:46.318Z</time></trkpt><trkpt lat="58.70063" lon="14.70808833"><ele>105.0</ele><time>2016-06-18T10:00:47.313Z</time></trkpt><trkpt lat="58.70063" lon="14.70808833"><ele>105.0</ele><time>2016-06-18T10:00:48.290Z</time></trkpt><trkpt lat="58.70074333" lon="14.70829"><ele>105.0</ele><time>2016-06-18T10:00:49.296Z</time></trkpt><trkpt lat="58.7008" lon="14.70838833"><ele>106.0</ele><time>2016-06-18T10:00:50.320Z</time></trkpt><trkpt lat="58.7008" lon="14.70838833"><ele>106.0</ele><time>2016-06-18T10:00:51.290Z</time></trkpt><trkpt lat="58.700915" lon="14.70858"><ele>106.0</ele><time>2016-06-18T10:00:52.296Z</time></trkpt><trkpt lat="58.70097333" lon="14.70868"><ele>105.0</ele><time>2016-06-18T10:00:53.314Z</time></trkpt><trkpt lat="58.70097333" lon="14.70868"><ele>105.0</ele><time>2016-06-18T10:00:54.299Z</time></trkpt><trkpt lat="58.70109167" lon="14.708875"><ele>106.0</ele><time>2016-06-18T10:00:55.308Z</time></trkpt><trkpt lat="58.70114833" lon="14.70897"><ele>106.0</ele><time>2016-06-18T10:00:56.294Z</time></trkpt><trkpt lat="58.70114833" lon="14.70897"><ele>106.0</ele><time>2016-06-18T10:00:57.300Z</time></trkpt><trkpt lat="58.70127333" lon="14.70915833"><ele>106.0</ele><time>2016-06-18T10:00:58.308Z</time></trkpt><trkpt lat="58.701335" lon="14.70925"><ele>106.0</ele><time>2016-06-18T10:00:59.293Z</time></trkpt><trkpt lat="58.701335" lon="14.70925"><ele>106.0</ele><time>2016-06-18T10:01:00.310Z</time></trkpt><trkpt lat="58.70146" lon="14.70943667"><ele>107.0</ele><time>2016-06-18T10:01:01.317Z</time></trkpt><trkpt lat="58.70152333" lon="14.70952667"><ele>107.0</ele><time>2016-06-18T10:01:02.303Z</time></trkpt><trkpt lat="58.70152333" lon="14.70952667"><ele>107.0</ele><time>2016-06-18T10:01:03.284Z</time></trkpt><trkpt lat="58.70165333" lon="14.709705"><ele>107.0</ele><time>2016-06-18T10:01:04.290Z</time></trkpt><trkpt lat="58.70165333" lon="14.709705"><ele>107.0</ele><time>2016-06-18T10:01:05.308Z</time></trkpt><trkpt lat="58.70178167" lon="14.70988667"><ele>107.0</ele><time>2016-06-18T10:01:06.303Z</time></trkpt><trkpt lat="58.70178167" lon="14.70988667"><ele>107.0</ele><time>2016-06-18T10:01:07.318Z</time></trkpt><trkpt lat="58.70191333" lon="14.710055"><ele>107.0</ele><time>2016-06-18T10:01:08.285Z</time></trkpt><trkpt lat="58.70191333" lon="14.710055"><ele>107.0</ele><time>2016-06-18T10:01:09.310Z</time></trkpt><trkpt lat="58.70203333" lon="14.71023"><ele>107.0</ele><time>2016-06-18T10:01:10.296Z</time></trkpt><trkpt lat="58.70203333" lon="14.71023"><ele>107.0</ele><time>2016-06-18T10:01:11.309Z</time></trkpt><trkpt lat="58.70216833" lon="14.71039833"><ele>107.0</ele><time>2016-06-18T10:01:12.307Z</time></trkpt><trkpt lat="58.70216833" lon="14.71039833"><ele>107.0</ele><time>2016-06-18T10:01:13.287Z</time></trkpt><trkpt lat="58.70230167" lon="14.71053667"><ele>108.0</ele><time>2016-06-18T10:01:14.294Z</time></trkpt><trkpt lat="58.70230167" lon="14.71053667"><ele>108.0</ele><time>2016-06-18T10:01:15.316Z</time></trkpt><trkpt lat="58.70244" lon="14.71069"><ele>108.0</ele><time>2016-06-18T10:01:16.296Z</time></trkpt><trkpt lat="58.70244" lon="14.71069"><ele>108.0</ele><time>2016-06-18T10:01:17.288Z</time></trkpt><trkpt lat="58.70258333" lon="14.710845"><ele>109.0</ele><time>2016-06-18T10:01:18.295Z</time></trkpt><trkpt lat="58.70265" lon="14.71092333"><ele>109.0</ele><time>2016-06-18T10:01:19.297Z</time></trkpt><trkpt lat="58.702725" lon="14.71099833"><ele>109.0</ele><time>2016-06-18T10:01:20.301Z</time></trkpt><trkpt lat="58.70279333" lon="14.71107167"><ele>110.0</ele><time>2016-06-18T10:01:21.283Z</time></trkpt><trkpt lat="58.70279333" lon="14.71107167"><ele>110.0</ele><time>2016-06-18T10:01:22.290Z</time></trkpt><trkpt lat="58.702935" lon="14.71121"><ele>110.0</ele><time>2016-06-18T10:01:23.313Z</time></trkpt><trkpt lat="58.70300833" lon="14.71128167"><ele>110.0</ele><time>2016-06-18T10:01:24.312Z</time></trkpt><trkpt lat="58.70300833" lon="14.71128167"><ele>110.0</ele><time>2016-06-18T10:01:25.297Z</time></trkpt><trkpt lat="58.70315167" lon="14.71141833"><ele>111.0</ele><time>2016-06-18T10:01:26.313Z</time></trkpt><trkpt lat="58.70315167" lon="14.71141833"><ele>111.0</ele><time>2016-06-18T10:01:27.311Z</time></trkpt><trkpt lat="58.70330167" lon="14.71155667"><ele>111.0</ele><time>2016-06-18T10:01:28.287Z</time></trkpt><trkpt lat="58.70330167" lon="14.71155667"><ele>111.0</ele><time>2016-06-18T10:01:29.310Z</time></trkpt><trkpt lat="58.70344667" lon="14.71169333"><ele>112.0</ele><time>2016-06-18T10:01:30.319Z</time></trkpt><trkpt lat="58.70344667" lon="14.71169333"><ele>112.0</ele><time>2016-06-18T10:01:31.308Z</time></trkpt><trkpt lat="58.70359167" lon="14.71184333"><ele>113.0</ele><time>2016-06-18T10:01:32.295Z</time></trkpt><trkpt lat="58.70359167" lon="14.71184333"><ele>113.0</ele><time>2016-06-18T10:01:33.311Z</time></trkpt><trkpt lat="58.70374" lon="14.71200167"><ele>113.0</ele><time>2016-06-18T10:01:34.319Z</time></trkpt><trkpt lat="58.70374" lon="14.71200167"><ele>113.0</ele><time>2016-06-18T10:01:35.306Z</time></trkpt><trkpt lat="58.70388833" lon="14.71216333"><ele>113.0</ele><time>2016-06-18T10:01:36.313Z</time></trkpt><trkpt lat="58.70388833" lon="14.71216333"><ele>113.0</ele><time>2016-06-18T10:01:37.298Z</time></trkpt><trkpt lat="58.70402833" lon="14.712305"><ele>113.0</ele><time>2016-06-18T10:01:38.323Z</time></trkpt><trkpt lat="58.70402833" lon="14.712305"><ele>113.0</ele><time>2016-06-18T10:01:39.320Z</time></trkpt><trkpt lat="58.70416833" lon="14.71245167"><ele>114.0</ele><time>2016-06-18T10:01:40.286Z</time></trkpt><trkpt lat="58.704235" lon="14.712525"><ele>114.0</ele><time>2016-06-18T10:01:41.311Z</time></trkpt><trkpt lat="58.704235" lon="14.712525"><ele>114.0</ele><time>2016-06-18T10:01:42.320Z</time></trkpt><trkpt lat="58.70437667" lon="14.71267167"><ele>114.0</ele><time>2016-06-18T10:01:43.315Z</time></trkpt><trkpt lat="58.70437667" lon="14.71267167"><ele>114.0</ele><time>2016-06-18T10:01:44.300Z</time></trkpt><trkpt lat="58.704505" lon="14.71279833"><ele>114.0</ele><time>2016-06-18T10:01:45.307Z</time></trkpt><trkpt lat="58.704505" lon="14.71279833"><ele>114.0</ele><time>2016-06-18T10:01:46.288Z</time></trkpt><trkpt lat="58.70463167" lon="14.71291667"><ele>115.0</ele><time>2016-06-18T10:01:47.296Z</time></trkpt><trkpt lat="58.70463167" lon="14.71291667"><ele>115.0</ele><time>2016-06-18T10:01:48.317Z</time></trkpt><trkpt lat="58.70474833" lon="14.71303667"><ele>115.0</ele><time>2016-06-18T10:01:49.282Z</time></trkpt><trkpt lat="58.70480833" lon="14.71309167"><ele>115.0</ele><time>2016-06-18T10:01:50.293Z</time></trkpt><trkpt lat="58.70480833" lon="14.71309167"><ele>115.0</ele><time>2016-06-18T10:01:51.300Z</time></trkpt><trkpt lat="58.70491833" lon="14.713205"><ele>116.0</ele><time>2016-06-18T10:01:52.312Z</time></trkpt><trkpt lat="58.70491833" lon="14.713205"><ele>116.0</ele><time>2016-06-18T10:01:53.299Z</time></trkpt><trkpt lat="58.705035" lon="14.71331333"><ele>116.0</ele><time>2016-06-18T10:01:54.297Z</time></trkpt><trkpt lat="58.70509167" lon="14.71336833"><ele>117.0</ele><time>2016-06-18T10:01:55.321Z</time></trkpt><trkpt lat="58.70514667" lon="14.71342667"><ele>117.0</ele><time>2016-06-18T10:01:56.299Z</time></trkpt><trkpt lat="58.70514667" lon="14.71342667"><ele>117.0</ele><time>2016-06-18T10:01:57.311Z</time></trkpt><trkpt lat="58.70526167" lon="14.713545"><ele>117.0</ele><time>2016-06-18T10:01:58.291Z</time></trkpt><trkpt lat="58.70526167" lon="14.713545"><ele>117.0</ele><time>2016-06-18T10:01:59.310Z</time></trkpt><trkpt lat="58.70538" lon="14.713655"><ele>118.0</ele><time>2016-06-18T10:02:00.318Z</time></trkpt><trkpt lat="58.70538" lon="14.713655"><ele>118.0</ele><time>2016-06-18T10:02:01.296Z</time></trkpt><trkpt lat="58.70549333" lon="14.71376333"><ele>119.0</ele><time>2016-06-18T10:02:02.293Z</time></trkpt><trkpt lat="58.70549333" lon="14.71376333"><ele>119.0</ele><time>2016-06-18T10:02:03.302Z</time></trkpt><trkpt lat="58.70560833" lon="14.71387167"><ele>119.0</ele><time>2016-06-18T10:02:04.315Z</time></trkpt><trkpt lat="58.70566667" lon="14.71392167"><ele>120.0</ele><time>2016-06-18T10:02:05.296Z</time></trkpt><trkpt lat="58.70566667" lon="14.71392167"><ele>120.0</ele><time>2016-06-18T10:02:06.314Z</time></trkpt><trkpt lat="58.70578333" lon="14.71404"><ele>120.0</ele><time>2016-06-18T10:02:07.320Z</time></trkpt><trkpt lat="58.70584167" lon="14.71410667"><ele>121.0</ele><time>2016-06-18T10:02:08.282Z</time></trkpt><trkpt lat="58.70584167" lon="14.71410667"><ele>121.0</ele><time>2016-06-18T10:02:09.318Z</time></trkpt><trkpt lat="58.70596167" lon="14.714235"><ele>121.0</ele><time>2016-06-18T10:02:10.285Z</time></trkpt><trkpt lat="58.70596167" lon="14.714235"><ele>121.0</ele><time>2016-06-18T10:02:11.308Z</time></trkpt><trkpt lat="58.70608667" lon="14.71436"><ele>122.0</ele><time>2016-06-18T10:02:12.287Z</time></trkpt><trkpt lat="58.70608667" lon="14.71436"><ele>122.0</ele><time>2016-06-18T10:02:13.311Z</time></trkpt><trkpt lat="58.706215" lon="14.71451167"><ele>123.0</ele><time>2016-06-18T10:02:14.319Z</time></trkpt><trkpt lat="58.706215" lon="14.71451167"><ele>123.0</ele><time>2016-06-18T10:02:15.308Z</time></trkpt><trkpt lat="58.70633667" lon="14.71465167"><ele>124.0</ele><time>2016-06-18T10:02:16.291Z</time></trkpt><trkpt lat="58.706395" lon="14.714725"><ele>124.0</ele><time>2016-06-18T10:02:17.303Z</time></trkpt><trkpt lat="58.706395" lon="14.714725"><ele>124.0</ele><time>2016-06-18T10:02:18.286Z</time></trkpt><trkpt lat="58.70651167" lon="14.71487833"><ele>124.0</ele><time>2016-06-18T10:02:19.292Z</time></trkpt><trkpt lat="58.70657333" lon="14.71495833"><ele>123.0</ele><time>2016-06-18T10:02:20.289Z</time></trkpt><trkpt lat="58.70657333" lon="14.71495833"><ele>123.0</ele><time>2016-06-18T10:02:21.312Z</time></trkpt><trkpt lat="58.70669667" lon="14.71511667"><ele>123.0</ele><time>2016-06-18T10:02:22.282Z</time></trkpt><trkpt lat="58.70669667" lon="14.71511667"><ele>123.0</ele><time>2016-06-18T10:02:23.290Z</time></trkpt><trkpt lat="58.70681" lon="14.71527833"><ele>123.0</ele><time>2016-06-18T10:02:24.298Z</time></trkpt><trkpt lat="58.70681" lon="14.71527833"><ele>123.0</ele><time>2016-06-18T10:02:25.320Z</time></trkpt><trkpt lat="58.70691667" lon="14.715435"><ele>123.0</ele><time>2016-06-18T10:02:26.297Z</time></trkpt><trkpt lat="58.70691667" lon="14.715435"><ele>123.0</ele><time>2016-06-18T10:02:27.310Z</time></trkpt><trkpt lat="58.70702667" lon="14.71559"><ele>123.0</ele><time>2016-06-18T10:02:28.318Z</time></trkpt><trkpt lat="58.70707667" lon="14.71566833"><ele>123.0</ele><time>2016-06-18T10:02:29.317Z</time></trkpt><trkpt lat="58.70712333" lon="14.715745"><ele>123.0</ele><time>2016-06-18T10:02:30.317Z</time></trkpt><trkpt lat="58.70712333" lon="14.715745"><ele>123.0</ele><time>2016-06-18T10:02:31.311Z</time></trkpt><trkpt lat="58.70722333" lon="14.71590833"><ele>123.0</ele><time>2016-06-18T10:02:32.287Z</time></trkpt><trkpt lat="58.70722333" lon="14.71590833"><ele>123.0</ele><time>2016-06-18T10:02:33.287Z</time></trkpt><trkpt lat="58.70732667" lon="14.71607833"><ele>124.0</ele><time>2016-06-18T10:02:34.293Z</time></trkpt><trkpt lat="58.70732667" lon="14.71607833"><ele>124.0</ele><time>2016-06-18T10:02:35.315Z</time></trkpt><trkpt lat="58.70743" lon="14.71625"><ele>124.0</ele><time>2016-06-18T10:02:36.307Z</time></trkpt><trkpt lat="58.70743" lon="14.71625"><ele>124.0</ele><time>2016-06-18T10:02:37.297Z</time></trkpt><trkpt lat="58.707525" lon="14.71642167"><ele>124.0</ele><time>2016-06-18T10:02:38.304Z</time></trkpt><trkpt lat="58.707525" lon="14.71642167"><ele>124.0</ele><time>2016-06-18T10:02:39.291Z</time></trkpt><trkpt lat="58.70762333" lon="14.71659333"><ele>124.0</ele><time>2016-06-18T10:02:40.297Z</time></trkpt><trkpt lat="58.70762333" lon="14.71659333"><ele>124.0</ele><time>2016-06-18T10:02:41.314Z</time></trkpt><trkpt lat="58.70773167" lon="14.71677333"><ele>124.0</ele><time>2016-06-18T10:02:42.291Z</time></trkpt><trkpt lat="58.70773167" lon="14.71677333"><ele>124.0</ele><time>2016-06-18T10:02:43.286Z</time></trkpt><trkpt lat="58.70783333" lon="14.71697667"><ele>124.0</ele><time>2016-06-18T10:02:44.293Z</time></trkpt><trkpt lat="58.70783333" lon="14.71697667"><ele>124.0</ele><time>2016-06-18T10:02:45.319Z</time></trkpt><trkpt lat="58.70792667" lon="14.71721667"><ele>124.0</ele><time>2016-06-18T10:02:46.296Z</time></trkpt><trkpt lat="58.70792667" lon="14.71721667"><ele>124.0</ele><time>2016-06-18T10:02:47.302Z</time></trkpt><trkpt lat="58.70802667" lon="14.71742833"><ele>124.0</ele><time>2016-06-18T10:02:48.311Z</time></trkpt><trkpt lat="58.70808167" lon="14.71753"><ele>124.0</ele><time>2016-06-18T10:02:49.326Z</time></trkpt><trkpt lat="58.70813667" lon="14.71763"><ele>124.0</ele><time>2016-06-18T10:02:50.301Z</time></trkpt><trkpt lat="58.70813667" lon="14.71763"><ele>124.0</ele><time>2016-06-18T10:02:51.282Z</time></trkpt><trkpt lat="58.70824333" lon="14.71783"><ele>125.0</ele><time>2016-06-18T10:02:52.295Z</time></trkpt><trkpt lat="58.708295" lon="14.71793333"><ele>125.0</ele><time>2016-06-18T10:02:53.312Z</time></trkpt><trkpt lat="58.708295" lon="14.71793333"><ele>125.0</ele><time>2016-06-18T10:02:54.295Z</time></trkpt><trkpt lat="58.70839" lon="14.71814667"><ele>125.0</ele><time>2016-06-18T10:02:55.317Z</time></trkpt><trkpt lat="58.70843833" lon="14.71825833"><ele>125.0</ele><time>2016-06-18T10:02:56.282Z</time></trkpt><trkpt lat="58.70843833" lon="14.71825833"><ele>125.0</ele><time>2016-06-18T10:02:57.311Z</time></trkpt><trkpt lat="58.70853" lon="14.71848167"><ele>124.0</ele><time>2016-06-18T10:02:58.319Z</time></trkpt><trkpt lat="58.70853" lon="14.71848167"><ele>124.0</ele><time>2016-06-18T10:02:59.296Z</time></trkpt><trkpt lat="58.70862167" lon="14.718715"><ele>123.0</ele><time>2016-06-18T10:03:00.313Z</time></trkpt><trkpt lat="58.70862167" lon="14.718715"><ele>123.0</ele><time>2016-06-18T10:03:01.312Z</time></trkpt><trkpt lat="58.708715" lon="14.71895167"><ele>123.0</ele><time>2016-06-18T10:03:02.320Z</time></trkpt><trkpt lat="58.70876" lon="14.71907333"><ele>124.0</ele><time>2016-06-18T10:03:03.310Z</time></trkpt><trkpt lat="58.70876" lon="14.71907333"><ele>124.0</ele><time>2016-06-18T10:03:04.290Z</time></trkpt><trkpt lat="58.708845" lon="14.71931667"><ele>123.0</ele><time>2016-06-18T10:03:05.297Z</time></trkpt><trkpt lat="58.70889167" lon="14.71944333"><ele>123.0</ele><time>2016-06-18T10:03:06.292Z</time></trkpt><trkpt lat="58.70889167" lon="14.71944333"><ele>123.0</ele><time>2016-06-18T10:03:07.321Z</time></trkpt><trkpt lat="58.70898167" lon="14.71969833"><ele>122.0</ele><time>2016-06-18T10:03:08.288Z</time></trkpt><trkpt lat="58.70898167" lon="14.71969833"><ele>122.0</ele><time>2016-06-18T10:03:09.311Z</time></trkpt><trkpt lat="58.709065" lon="14.71996667"><ele>122.0</ele><time>2016-06-18T10:03:10.303Z</time></trkpt><trkpt lat="58.709065" lon="14.71996667"><ele>122.0</ele><time>2016-06-18T10:03:11.318Z</time></trkpt><trkpt lat="58.70915167" lon="14.72023333"><ele>122.0</ele><time>2016-06-18T10:03:12.319Z</time></trkpt><trkpt lat="58.70919667" lon="14.72037"><ele>122.0</ele><time>2016-06-18T10:03:13.310Z</time></trkpt><trkpt lat="58.70919667" lon="14.72037"><ele>122.0</ele><time>2016-06-18T10:03:14.282Z</time></trkpt><trkpt lat="58.70927833" lon="14.720645"><ele>121.0</ele><time>2016-06-18T10:03:15.289Z</time></trkpt><trkpt lat="58.70932333" lon="14.72079"><ele>122.0</ele><time>2016-06-18T10:03:16.313Z</time></trkpt><trkpt lat="58.70936667" lon="14.72093333"><ele>122.0</ele><time>2016-06-18T10:03:17.295Z</time></trkpt><trkpt lat="58.70936667" lon="14.72093333"><ele>122.0</ele><time>2016-06-18T10:03:18.286Z</time></trkpt><trkpt lat="58.709445" lon="14.72122833"><ele>122.0</ele><time>2016-06-18T10:03:19.292Z</time></trkpt><trkpt lat="58.709485" lon="14.721375"><ele>122.0</ele><time>2016-06-18T10:03:20.304Z</time></trkpt><trkpt lat="58.709485" lon="14.721375"><ele>122.0</ele><time>2016-06-18T10:03:21.315Z</time></trkpt><trkpt lat="58.70956667" lon="14.72167167"><ele>122.0</ele><time>2016-06-18T10:03:22.282Z</time></trkpt><trkpt lat="58.709605" lon="14.721825"><ele>122.0</ele><time>2016-06-18T10:03:23.311Z</time></trkpt><trkpt lat="58.709605" lon="14.721825"><ele>122.0</ele><time>2016-06-18T10:03:24.295Z</time></trkpt><trkpt lat="58.70967667" lon="14.72213333"><ele>121.0</ele><time>2016-06-18T10:03:25.303Z</time></trkpt><trkpt lat="58.70971167" lon="14.72229167"><ele>120.0</ele><time>2016-06-18T10:03:26.296Z</time></trkpt><trkpt lat="58.70971167" lon="14.72229167"><ele>120.0</ele><time>2016-06-18T10:03:27.286Z</time></trkpt><trkpt lat="58.70977667" lon="14.72260667"><ele>120.0</ele><time>2016-06-18T10:03:28.293Z</time></trkpt><trkpt lat="58.70977667" lon="14.72260667"><ele>120.0</ele><time>2016-06-18T10:03:29.314Z</time></trkpt><trkpt lat="58.70984333" lon="14.72292333"><ele>119.0</ele><time>2016-06-18T10:03:30.313Z</time></trkpt><trkpt lat="58.70984333" lon="14.72292333"><ele>119.0</ele><time>2016-06-18T10:03:31.286Z</time></trkpt><trkpt lat="58.70991333" lon="14.72324167"><ele>119.0</ele><time>2016-06-18T10:03:32.292Z</time></trkpt><trkpt lat="58.70991333" lon="14.72324167"><ele>119.0</ele><time>2016-06-18T10:03:33.315Z</time></trkpt><trkpt lat="58.70997667" lon="14.72356167"><ele>118.0</ele><time>2016-06-18T10:03:34.316Z</time></trkpt><trkpt lat="58.70997667" lon="14.72356167"><ele>118.0</ele><time>2016-06-18T10:03:35.311Z</time></trkpt><trkpt lat="58.71004833" lon="14.723885"><ele>118.0</ele><time>2016-06-18T10:03:36.320Z</time></trkpt><trkpt lat="58.71008333" lon="14.72404833"><ele>118.0</ele><time>2016-06-18T10:03:37.313Z</time></trkpt><trkpt lat="58.71011667" lon="14.72421333"><ele>118.0</ele><time>2016-06-18T10:03:38.296Z</time></trkpt><trkpt lat="58.71011667" lon="14.72421333"><ele>118.0</ele><time>2016-06-18T10:03:39.299Z</time></trkpt><trkpt lat="58.71018667" lon="14.72454833"><ele>116.0</ele><time>2016-06-18T10:03:40.310Z</time></trkpt><trkpt lat="58.71018667" lon="14.72454833"><ele>116.0</ele><time>2016-06-18T10:03:41.293Z</time></trkpt><trkpt lat="58.71026333" lon="14.72489333"><ele>116.0</ele><time>2016-06-18T10:03:42.313Z</time></trkpt><trkpt lat="58.71026333" lon="14.72489333"><ele>116.0</ele><time>2016-06-18T10:03:43.301Z</time></trkpt><trkpt lat="58.71033833" lon="14.725245"><ele>115.0</ele><time>2016-06-18T10:03:44.309Z</time></trkpt><trkpt lat="58.71037333" lon="14.72542333"><ele>115.0</ele><time>2016-06-18T10:03:45.294Z</time></trkpt><trkpt lat="58.71037333" lon="14.72542333"><ele>115.0</ele><time>2016-06-18T10:03:46.315Z</time></trkpt><trkpt lat="58.71044667" lon="14.72578333"><ele>115.0</ele><time>2016-06-18T10:03:47.302Z</time></trkpt><trkpt lat="58.71044667" lon="14.72578333"><ele>115.0</ele><time>2016-06-18T10:03:48.284Z</time></trkpt><trkpt lat="58.71052" lon="14.72615833"><ele>114.0</ele><time>2016-06-18T10:03:49.288Z</time></trkpt><trkpt lat="58.71052" lon="14.72615833"><ele>114.0</ele><time>2016-06-18T10:03:50.313Z</time></trkpt><trkpt lat="58.71059667" lon="14.72653667"><ele>113.0</ele><time>2016-06-18T10:03:51.319Z</time></trkpt><trkpt lat="58.71063667" lon="14.72672333"><ele>113.0</ele><time>2016-06-18T10:03:52.283Z</time></trkpt><trkpt lat="58.71063667" lon="14.72672333"><ele>113.0</ele><time>2016-06-18T10:03:53.309Z</time></trkpt><trkpt lat="58.71071167" lon="14.72710333"><ele>113.0</ele><time>2016-06-18T10:03:54.315Z</time></trkpt><trkpt lat="58.71071167" lon="14.72710333"><ele>113.0</ele><time>2016-06-18T10:03:55.299Z</time></trkpt><trkpt lat="58.71078833" lon="14.72748667"><ele>112.0</ele><time>2016-06-18T10:03:56.308Z</time></trkpt><trkpt lat="58.71078833" lon="14.72748667"><ele>112.0</ele><time>2016-06-18T10:03:57.321Z</time></trkpt><trkpt lat="58.71086833" lon="14.72786167"><ele>111.0</ele><time>2016-06-18T10:03:58.287Z</time></trkpt><trkpt lat="58.71086833" lon="14.72786167"><ele>111.0</ele><time>2016-06-18T10:03:59.309Z</time></trkpt><trkpt lat="58.710945" lon="14.72823667"><ele>111.0</ele><time>2016-06-18T10:04:00.306Z</time></trkpt><trkpt lat="58.710945" lon="14.72823667"><ele>111.0</ele><time>2016-06-18T10:04:01.305Z</time></trkpt><trkpt lat="58.71101833" lon="14.72861167"><ele>110.0</ele><time>2016-06-18T10:04:02.312Z</time></trkpt><trkpt lat="58.71101833" lon="14.72861167"><ele>110.0</ele><time>2016-06-18T10:04:03.300Z</time></trkpt><trkpt lat="58.71109833" lon="14.728985"><ele>110.0</ele><time>2016-06-18T10:04:04.321Z</time></trkpt><trkpt lat="58.71109833" lon="14.728985"><ele>110.0</ele><time>2016-06-18T10:04:05.310Z</time></trkpt><trkpt lat="58.71118167" lon="14.72935167"><ele>110.0</ele><time>2016-06-18T10:04:06.298Z</time></trkpt><trkpt lat="58.71118167" lon="14.72935167"><ele>110.0</ele><time>2016-06-18T10:04:07.289Z</time></trkpt><trkpt lat="58.71126167" lon="14.72972"><ele>109.0</ele><time>2016-06-18T10:04:08.287Z</time></trkpt><trkpt lat="58.71126167" lon="14.72972"><ele>109.0</ele><time>2016-06-18T10:04:09.288Z</time></trkpt><trkpt lat="58.71134333" lon="14.73007833"><ele>109.0</ele><time>2016-06-18T10:04:10.315Z</time></trkpt><trkpt lat="58.71134333" lon="14.73007833"><ele>109.0</ele><time>2016-06-18T10:04:11.315Z</time></trkpt><trkpt lat="58.71142333" lon="14.73043"><ele>109.0</ele><time>2016-06-18T10:04:12.471Z</time></trkpt><trkpt lat="58.71142333" lon="14.73043"><ele>109.0</ele><time>2016-06-18T10:04:13.296Z</time></trkpt><trkpt lat="58.71151167" lon="14.73077167"><ele>109.0</ele><time>2016-06-18T10:04:14.321Z</time></trkpt><trkpt lat="58.71156" lon="14.73094167"><ele>110.0</ele><time>2016-06-18T10:04:15.317Z</time></trkpt><trkpt lat="58.71156" lon="14.73094167"><ele>110.0</ele><time>2016-06-18T10:04:16.310Z</time></trkpt><trkpt lat="58.711655" lon="14.731265"><ele>110.0</ele><time>2016-06-18T10:04:17.322Z</time></trkpt><trkpt lat="58.711655" lon="14.731265"><ele>110.0</ele><time>2016-06-18T10:04:18.303Z</time></trkpt><trkpt lat="58.71174667" lon="14.73156167"><ele>110.0</ele><time>2016-06-18T10:04:19.318Z</time></trkpt><trkpt lat="58.71179" lon="14.731705"><ele>110.0</ele><time>2016-06-18T10:04:20.297Z</time></trkpt><trkpt lat="58.71179" lon="14.731705"><ele>110.0</ele><time>2016-06-18T10:04:21.319Z</time></trkpt><trkpt lat="58.71187167" lon="14.73198833"><ele>110.0</ele><time>2016-06-18T10:04:22.295Z</time></trkpt><trkpt lat="58.71187167" lon="14.73198833"><ele>110.0</ele><time>2016-06-18T10:04:23.316Z</time></trkpt><trkpt lat="58.71195333" lon="14.73226167"><ele>110.0</ele><time>2016-06-18T10:04:24.288Z</time></trkpt><trkpt lat="58.71195333" lon="14.73226167"><ele>110.0</ele><time>2016-06-18T10:04:25.319Z</time></trkpt><trkpt lat="58.71204167" lon="14.73252"><ele>111.0</ele><time>2016-06-18T10:04:26.286Z</time></trkpt><trkpt lat="58.71204167" lon="14.73252"><ele>111.0</ele><time>2016-06-18T10:04:27.310Z</time></trkpt><trkpt lat="58.71212833" lon="14.732775"><ele>112.0</ele><time>2016-06-18T10:04:28.297Z</time></trkpt><trkpt lat="58.71212833" lon="14.732775"><ele>112.0</ele><time>2016-06-18T10:04:29.282Z</time></trkpt><trkpt lat="58.71222167" lon="14.73302167"><ele>112.0</ele><time>2016-06-18T10:04:30.289Z</time></trkpt><trkpt lat="58.71226667" lon="14.73314"><ele>113.0</ele><time>2016-06-18T10:04:31.306Z</time></trkpt><trkpt lat="58.71231333" lon="14.73325"><ele>113.0</ele><time>2016-06-18T10:04:32.318Z</time></trkpt><trkpt lat="58.71231333" lon="14.73325"><ele>113.0</ele><time>2016-06-18T10:04:33.301Z</time></trkpt><trkpt lat="58.71240333" lon="14.73347333"><ele>113.0</ele><time>2016-06-18T10:04:34.311Z</time></trkpt><trkpt lat="58.71240333" lon="14.73347333"><ele>113.0</ele><time>2016-06-18T10:04:35.321Z</time></trkpt><trkpt lat="58.71248833" lon="14.73368167"><ele>113.0</ele><time>2016-06-18T10:04:36.305Z</time></trkpt><trkpt lat="58.71248833" lon="14.73368167"><ele>113.0</ele><time>2016-06-18T10:04:37.298Z</time></trkpt><trkpt lat="58.71257" lon="14.73388333"><ele>114.0</ele><time>2016-06-18T10:04:38.307Z</time></trkpt><trkpt lat="58.71257" lon="14.73388333"><ele>114.0</ele><time>2016-06-18T10:04:39.289Z</time></trkpt><trkpt lat="58.71266" lon="14.73407833"><ele>114.0</ele><time>2016-06-18T10:04:40.307Z</time></trkpt><trkpt lat="58.71266" lon="14.73407833"><ele>114.0</ele><time>2016-06-18T10:04:41.302Z</time></trkpt><trkpt lat="58.71275" lon="14.73428167"><ele>115.0</ele><time>2016-06-18T10:04:42.314Z</time></trkpt><trkpt lat="58.712795" lon="14.73438167"><ele>116.0</ele><time>2016-06-18T10:04:43.296Z</time></trkpt><trkpt lat="58.71284333" lon="14.73448167"><ele>116.0</ele><time>2016-06-18T10:04:44.320Z</time></trkpt><trkpt lat="58.71284333" lon="14.73448167"><ele>116.0</ele><time>2016-06-18T10:04:45.313Z</time></trkpt><trkpt lat="58.71294" lon="14.734685"><ele>116.0</ele><time>2016-06-18T10:04:46.292Z</time></trkpt><trkpt lat="58.71299" lon="14.73478667"><ele>117.0</ele><time>2016-06-18T10:04:47.283Z</time></trkpt><trkpt lat="58.71299" lon="14.73478667"><ele>117.0</ele><time>2016-06-18T10:04:48.312Z</time></trkpt><trkpt lat="58.713085" lon="14.73498"><ele>117.0</ele><time>2016-06-18T10:04:49.308Z</time></trkpt><trkpt lat="58.713085" lon="14.73498"><ele>117.0</ele><time>2016-06-18T10:04:50.302Z</time></trkpt><trkpt lat="58.713185" lon="14.73517333"><ele>117.0</ele><time>2016-06-18T10:04:51.314Z</time></trkpt><trkpt lat="58.713185" lon="14.73517333"><ele>117.0</ele><time>2016-06-18T10:04:52.300Z</time></trkpt><trkpt lat="58.71328667" lon="14.73535833"><ele>118.0</ele><time>2016-06-18T10:04:53.283Z</time></trkpt><trkpt lat="58.71328667" lon="14.73535833"><ele>118.0</ele><time>2016-06-18T10:04:54.286Z</time></trkpt><trkpt lat="58.71339" lon="14.73553833"><ele>119.0</ele><time>2016-06-18T10:04:55.293Z</time></trkpt><trkpt lat="58.71344333" lon="14.73562833"><ele>119.0</ele><time>2016-06-18T10:04:56.286Z</time></trkpt><trkpt lat="58.71344333" lon="14.73562833"><ele>119.0</ele><time>2016-06-18T10:04:57.307Z</time></trkpt><trkpt lat="58.71355" lon="14.73581167"><ele>120.0</ele><time>2016-06-18T10:04:58.317Z</time></trkpt><trkpt lat="58.71355" lon="14.73581167"><ele>120.0</ele><time>2016-06-18T10:04:59.320Z</time></trkpt><trkpt lat="58.713665" lon="14.73599833"><ele>120.0</ele><time>2016-06-18T10:05:00.316Z</time></trkpt><trkpt lat="58.713665" lon="14.73599833"><ele>120.0</ele><time>2016-06-18T10:05:01.313Z</time></trkpt><trkpt lat="58.71378" lon="14.736195"><ele>121.0</ele><time>2016-06-18T10:05:02.320Z</time></trkpt><trkpt lat="58.71378" lon="14.736195"><ele>121.0</ele><time>2016-06-18T10:05:03.301Z</time></trkpt><trkpt lat="58.71389" lon="14.73638"><ele>122.0</ele><time>2016-06-18T10:05:04.308Z</time></trkpt><trkpt lat="58.71394333" lon="14.73647167"><ele>122.0</ele><time>2016-06-18T10:05:05.291Z</time></trkpt><trkpt lat="58.71394333" lon="14.73647167"><ele>122.0</ele><time>2016-06-18T10:05:06.313Z</time></trkpt><trkpt lat="58.71405333" lon="14.73666833"><ele>123.0</ele><time>2016-06-18T10:05:07.320Z</time></trkpt><trkpt lat="58.71411333" lon="14.73676167"><ele>123.0</ele><time>2016-06-18T10:05:08.296Z</time></trkpt><trkpt lat="58.71411333" lon="14.73676167"><ele>123.0</ele><time>2016-06-18T10:05:09.311Z</time></trkpt><trkpt lat="58.71423833" lon="14.736955"><ele>124.0</ele><time>2016-06-18T10:05:10.319Z</time></trkpt><trkpt lat="58.71423833" lon="14.736955"><ele>124.0</ele><time>2016-06-18T10:05:11.307Z</time></trkpt><trkpt lat="58.714365" lon="14.73715667"><ele>124.0</ele><time>2016-06-18T10:05:12.304Z</time></trkpt><trkpt lat="58.714365" lon="14.73715667"><ele>124.0</ele><time>2016-06-18T10:05:13.288Z</time></trkpt><trkpt lat="58.71448667" lon="14.737375"><ele>124.0</ele><time>2016-06-18T10:05:14.294Z</time></trkpt><trkpt lat="58.71448667" lon="14.737375"><ele>124.0</ele><time>2016-06-18T10:05:15.316Z</time></trkpt><trkpt lat="58.71461167" lon="14.737595"><ele>124.0</ele><time>2016-06-18T10:05:16.311Z</time></trkpt><trkpt lat="58.71461167" lon="14.737595"><ele>124.0</ele><time>2016-06-18T10:05:17.320Z</time></trkpt><trkpt lat="58.71473833" lon="14.73780833"><ele>123.0</ele><time>2016-06-18T10:05:18.286Z</time></trkpt><trkpt lat="58.71480667" lon="14.73790667"><ele>123.0</ele><time>2016-06-18T10:05:19.287Z</time></trkpt><trkpt lat="58.71480667" lon="14.73790667"><ele>123.0</ele><time>2016-06-18T10:05:20.294Z</time></trkpt><trkpt lat="58.71493333" lon="14.73811667"><ele>123.0</ele><time>2016-06-18T10:05:21.300Z</time></trkpt><trkpt lat="58.714995" lon="14.73823833"><ele>123.0</ele><time>2016-06-18T10:05:22.283Z</time></trkpt><trkpt lat="58.714995" lon="14.73823833"><ele>123.0</ele><time>2016-06-18T10:05:23.307Z</time></trkpt><trkpt lat="58.71511333" lon="14.73847833"><ele>122.0</ele><time>2016-06-18T10:05:24.315Z</time></trkpt><trkpt lat="58.715175" lon="14.7386"><ele>122.0</ele><time>2016-06-18T10:05:25.295Z</time></trkpt><trkpt lat="58.71524" lon="14.73871833"><ele>122.0</ele><time>2016-06-18T10:05:26.317Z</time></trkpt><trkpt lat="58.71524" lon="14.73871833"><ele>122.0</ele><time>2016-06-18T10:05:27.304Z</time></trkpt><trkpt lat="58.715375" lon="14.73896667"><ele>122.0</ele><time>2016-06-18T10:05:28.313Z</time></trkpt><trkpt lat="58.715375" lon="14.73896667"><ele>122.0</ele><time>2016-06-18T10:05:29.299Z</time></trkpt><trkpt lat="58.71550167" lon="14.73922333"><ele>122.0</ele><time>2016-06-18T10:05:30.288Z</time></trkpt><trkpt lat="58.71550167" lon="14.73922333"><ele>122.0</ele><time>2016-06-18T10:05:31.296Z</time></trkpt><trkpt lat="58.71562333" lon="14.73949"><ele>121.0</ele><time>2016-06-18T10:05:32.303Z</time></trkpt><trkpt lat="58.715685" lon="14.73963"><ele>121.0</ele><time>2016-06-18T10:05:33.306Z</time></trkpt><trkpt lat="58.715685" lon="14.73963"><ele>121.0</ele><time>2016-06-18T10:05:34.313Z</time></trkpt><trkpt lat="58.71580167" lon="14.73992333"><ele>121.0</ele><time>2016-06-18T10:05:35.320Z</time></trkpt><trkpt lat="58.71586" lon="14.74006667"><ele>121.0</ele><time>2016-06-18T10:05:36.317Z</time></trkpt><trkpt lat="58.71586" lon="14.74006667"><ele>121.0</ele><time>2016-06-18T10:05:37.311Z</time></trkpt><trkpt lat="58.71597" lon="14.740355"><ele>120.0</ele><time>2016-06-18T10:05:38.318Z</time></trkpt><trkpt lat="58.71597" lon="14.740355"><ele>120.0</ele><time>2016-06-18T10:05:39.304Z</time></trkpt><trkpt lat="58.716075" lon="14.74065"><ele>120.0</ele><time>2016-06-18T10:05:40.282Z</time></trkpt><trkpt lat="58.716075" lon="14.74065"><ele>120.0</ele><time>2016-06-18T10:05:41.293Z</time></trkpt><trkpt lat="58.716185" lon="14.740955"><ele>120.0</ele><time>2016-06-18T10:05:42.320Z</time></trkpt><trkpt lat="58.716185" lon="14.740955"><ele>120.0</ele><time>2016-06-18T10:05:43.318Z</time></trkpt><trkpt lat="58.71629" lon="14.741265"><ele>120.0</ele><time>2016-06-18T10:05:44.284Z</time></trkpt><trkpt lat="58.71629" lon="14.741265"><ele>120.0</ele><time>2016-06-18T10:05:45.321Z</time></trkpt><trkpt lat="58.71639167" lon="14.74158333"><ele>119.0</ele><time>2016-06-18T10:05:46.296Z</time></trkpt><trkpt lat="58.71639167" lon="14.74158333"><ele>119.0</ele><time>2016-06-18T10:05:47.299Z</time></trkpt><trkpt lat="58.71649" lon="14.74190833"><ele>119.0</ele><time>2016-06-18T10:05:48.308Z</time></trkpt><trkpt lat="58.71649" lon="14.74190833"><ele>119.0</ele><time>2016-06-18T10:05:49.312Z</time></trkpt><trkpt lat="58.716585" lon="14.74223667"><ele>118.0</ele><time>2016-06-18T10:05:50.296Z</time></trkpt><trkpt lat="58.716585" lon="14.74223667"><ele>118.0</ele><time>2016-06-18T10:05:51.288Z</time></trkpt><trkpt lat="58.71667667" lon="14.74256167"><ele>117.0</ele><time>2016-06-18T10:05:52.282Z</time></trkpt><trkpt lat="58.71672167" lon="14.742725"><ele>117.0</ele><time>2016-06-18T10:05:53.295Z</time></trkpt><trkpt lat="58.71672167" lon="14.742725"><ele>117.0</ele><time>2016-06-18T10:05:54.301Z</time></trkpt><trkpt lat="58.71680667" lon="14.74305167"><ele>116.0</ele><time>2016-06-18T10:05:55.312Z</time></trkpt><trkpt lat="58.71685" lon="14.74321667"><ele>116.0</ele><time>2016-06-18T10:05:56.298Z</time></trkpt><trkpt lat="58.71685" lon="14.74321667"><ele>116.0</ele><time>2016-06-18T10:05:57.290Z</time></trkpt><trkpt lat="58.71693167" lon="14.74355833"><ele>116.0</ele><time>2016-06-18T10:05:58.298Z</time></trkpt><trkpt lat="58.71693167" lon="14.74355833"><ele>116.0</ele><time>2016-06-18T10:05:59.320Z</time></trkpt><trkpt lat="58.717005" lon="14.743895"><ele>115.0</ele><time>2016-06-18T10:06:00.294Z</time></trkpt><trkpt lat="58.717005" lon="14.743895"><ele>115.0</ele><time>2016-06-18T10:06:01.300Z</time></trkpt><trkpt lat="58.71707167" lon="14.74423667"><ele>113.0</ele><time>2016-06-18T10:06:02.317Z</time></trkpt><trkpt lat="58.71707167" lon="14.74423667"><ele>113.0</ele><time>2016-06-18T10:06:03.298Z</time></trkpt><trkpt lat="58.71713833" lon="14.74457667"><ele>112.0</ele><time>2016-06-18T10:06:04.318Z</time></trkpt><trkpt lat="58.71713833" lon="14.74457667"><ele>112.0</ele><time>2016-06-18T10:06:05.286Z</time></trkpt><trkpt lat="58.717195" lon="14.74492"><ele>111.0</ele><time>2016-06-18T10:06:06.292Z</time></trkpt><trkpt lat="58.71722333" lon="14.74509167"><ele>111.0</ele><time>2016-06-18T10:06:07.318Z</time></trkpt><trkpt lat="58.71725333" lon="14.74526833"><ele>111.0</ele><time>2016-06-18T10:06:08.286Z</time></trkpt><trkpt lat="58.71725333" lon="14.74526833"><ele>111.0</ele><time>2016-06-18T10:06:09.314Z</time></trkpt><trkpt lat="58.717315" lon="14.74562667"><ele>111.0</ele><time>2016-06-18T10:06:10.308Z</time></trkpt><trkpt lat="58.717315" lon="14.74562667"><ele>111.0</ele><time>2016-06-18T10:06:11.326Z</time></trkpt><trkpt lat="58.71737667" lon="14.74599"><ele>111.0</ele><time>2016-06-18T10:06:12.311Z</time></trkpt><trkpt lat="58.71740833" lon="14.74617"><ele>110.0</ele><time>2016-06-18T10:06:13.299Z</time></trkpt><trkpt lat="58.71740833" lon="14.74617"><ele>110.0</ele><time>2016-06-18T10:06:14.312Z</time></trkpt><trkpt lat="58.717475" lon="14.74653333"><ele>111.0</ele><time>2016-06-18T10:06:15.289Z</time></trkpt><trkpt lat="58.717475" lon="14.74653333"><ele>111.0</ele><time>2016-06-18T10:06:16.296Z</time></trkpt><trkpt lat="58.71754" lon="14.746905"><ele>111.0</ele><time>2016-06-18T10:06:17.302Z</time></trkpt><trkpt lat="58.71754" lon="14.746905"><ele>111.0</ele><time>2016-06-18T10:06:18.284Z</time></trkpt><trkpt lat="58.71759833" lon="14.74727167"><ele>110.0</ele><time>2016-06-18T10:06:19.308Z</time></trkpt><trkpt lat="58.71759833" lon="14.74727167"><ele>110.0</ele><time>2016-06-18T10:06:20.321Z</time></trkpt><trkpt lat="58.71766" lon="14.74763"><ele>110.0</ele><time>2016-06-18T10:06:21.293Z</time></trkpt><trkpt lat="58.71766" lon="14.74763"><ele>110.0</ele><time>2016-06-18T10:06:22.319Z</time></trkpt><trkpt lat="58.71772333" lon="14.74797333"><ele>110.0</ele><time>2016-06-18T10:06:23.293Z</time></trkpt><trkpt lat="58.71772333" lon="14.74797333"><ele>110.0</ele><time>2016-06-18T10:06:24.314Z</time></trkpt><trkpt lat="58.71777667" lon="14.74831833"><ele>110.0</ele><time>2016-06-18T10:06:25.297Z</time></trkpt><trkpt lat="58.71780667" lon="14.74849"><ele>110.0</ele><time>2016-06-18T10:06:26.317Z</time></trkpt><trkpt lat="58.71780667" lon="14.74849"><ele>110.0</ele><time>2016-06-18T10:06:27.301Z</time></trkpt><trkpt lat="58.717865" lon="14.74883333"><ele>109.0</ele><time>2016-06-18T10:06:28.319Z</time></trkpt><trkpt lat="58.71789167" lon="14.74900333"><ele>109.0</ele><time>2016-06-18T10:06:29.293Z</time></trkpt><trkpt lat="58.71789167" lon="14.74900333"><ele>109.0</ele><time>2016-06-18T10:06:30.315Z</time></trkpt><trkpt lat="58.71795167" lon="14.74932833"><ele>109.0</ele><time>2016-06-18T10:06:31.307Z</time></trkpt><trkpt lat="58.71798167" lon="14.74948667"><ele>110.0</ele><time>2016-06-18T10:06:32.309Z</time></trkpt><trkpt lat="58.71798167" lon="14.74948667"><ele>110.0</ele><time>2016-06-18T10:06:33.292Z</time></trkpt><trkpt lat="58.71804333" lon="14.74980167"><ele>110.0</ele><time>2016-06-18T10:06:34.299Z</time></trkpt><trkpt lat="58.71804333" lon="14.74980167"><ele>110.0</ele><time>2016-06-18T10:06:35.300Z</time></trkpt><trkpt lat="58.71811333" lon="14.75011833"><ele>110.0</ele><time>2016-06-18T10:06:36.316Z</time></trkpt><trkpt lat="58.71811333" lon="14.75011833"><ele>110.0</ele><time>2016-06-18T10:06:37.314Z</time></trkpt><trkpt lat="58.71819" lon="14.750435"><ele>110.0</ele><time>2016-06-18T10:06:38.308Z</time></trkpt><trkpt lat="58.71819" lon="14.750435"><ele>110.0</ele><time>2016-06-18T10:06:39.314Z</time></trkpt><trkpt lat="58.71826667" lon="14.75075667"><ele>110.0</ele><time>2016-06-18T10:06:40.321Z</time></trkpt><trkpt lat="58.71826667" lon="14.75075667"><ele>110.0</ele><time>2016-06-18T10:06:41.292Z</time></trkpt><trkpt lat="58.71835" lon="14.75108333"><ele>110.0</ele><time>2016-06-18T10:06:42.305Z</time></trkpt><trkpt lat="58.71835" lon="14.75108333"><ele>110.0</ele><time>2016-06-18T10:06:43.298Z</time></trkpt><trkpt lat="58.718435" lon="14.75140167"><ele>110.0</ele><time>2016-06-18T10:06:44.305Z</time></trkpt><trkpt lat="58.71848167" lon="14.75155833"><ele>110.0</ele><time>2016-06-18T10:06:45.286Z</time></trkpt><trkpt lat="58.71852833" lon="14.751715"><ele>110.0</ele><time>2016-06-18T10:06:46.287Z</time></trkpt><trkpt lat="58.71852833" lon="14.751715"><ele>110.0</ele><time>2016-06-18T10:06:47.309Z</time></trkpt><trkpt lat="58.71861833" lon="14.75202333"><ele>110.0</ele><time>2016-06-18T10:06:48.285Z</time></trkpt><trkpt lat="58.71861833" lon="14.75202333"><ele>110.0</ele><time>2016-06-18T10:06:49.287Z</time></trkpt><trkpt lat="58.71871667" lon="14.75232667"><ele>110.0</ele><time>2016-06-18T10:06:50.293Z</time></trkpt><trkpt lat="58.71876667" lon="14.75247667"><ele>110.0</ele><time>2016-06-18T10:06:51.295Z</time></trkpt><trkpt lat="58.71876667" lon="14.75247667"><ele>110.0</ele><time>2016-06-18T10:06:52.304Z</time></trkpt><trkpt lat="58.71887" lon="14.75277167"><ele>109.0</ele><time>2016-06-18T10:06:53.318Z</time></trkpt><trkpt lat="58.71887" lon="14.75277167"><ele>109.0</ele><time>2016-06-18T10:06:54.294Z</time></trkpt><trkpt lat="58.71897333" lon="14.75306833"><ele>109.0</ele><time>2016-06-18T10:06:55.313Z</time></trkpt><trkpt lat="58.719025" lon="14.75321667"><ele>109.0</ele><time>2016-06-18T10:06:56.283Z</time></trkpt><trkpt lat="58.719025" lon="14.75321667"><ele>109.0</ele><time>2016-06-18T10:06:57.307Z</time></trkpt><trkpt lat="58.719135" lon="14.75351"><ele>109.0</ele><time>2016-06-18T10:06:58.315Z</time></trkpt><trkpt lat="58.71919" lon="14.75365667"><ele>109.0</ele><time>2016-06-18T10:06:59.291Z</time></trkpt><trkpt lat="58.71919" lon="14.75365667"><ele>109.0</ele><time>2016-06-18T10:07:00.303Z</time></trkpt><trkpt lat="58.719305" lon="14.75394333"><ele>109.0</ele><time>2016-06-18T10:07:01.287Z</time></trkpt><trkpt lat="58.71936333" lon="14.75408667"><ele>109.0</ele><time>2016-06-18T10:07:02.291Z</time></trkpt><trkpt lat="58.71942167" lon="14.754225"><ele>109.0</ele><time>2016-06-18T10:07:03.294Z</time></trkpt><trkpt lat="58.71942167" lon="14.754225"><ele>109.0</ele><time>2016-06-18T10:07:04.318Z</time></trkpt><trkpt lat="58.71954167" lon="14.75449833"><ele>109.0</ele><time>2016-06-18T10:07:05.285Z</time></trkpt><trkpt lat="58.71954167" lon="14.75449833"><ele>109.0</ele><time>2016-06-18T10:07:06.314Z</time></trkpt><trkpt lat="58.719665" lon="14.75476833"><ele>108.0</ele><time>2016-06-18T10:07:07.298Z</time></trkpt><trkpt lat="58.719665" lon="14.75476833"><ele>108.0</ele><time>2016-06-18T10:07:08.320Z</time></trkpt><trkpt lat="58.71979" lon="14.75503667"><ele>108.0</ele><time>2016-06-18T10:07:09.287Z</time></trkpt><trkpt lat="58.71979" lon="14.75503667"><ele>108.0</ele><time>2016-06-18T10:07:10.312Z</time></trkpt><trkpt lat="58.71992" lon="14.75530333"><ele>109.0</ele><time>2016-06-18T10:07:11.324Z</time></trkpt><trkpt lat="58.71992" lon="14.75530333"><ele>109.0</ele><time>2016-06-18T10:07:12.299Z</time></trkpt><trkpt lat="58.72005167" lon="14.755565"><ele>109.0</ele><time>2016-06-18T10:07:13.307Z</time></trkpt><trkpt lat="58.72012167" lon="14.75569333"><ele>110.0</ele><time>2016-06-18T10:07:14.290Z</time></trkpt><trkpt lat="58.72012167" lon="14.75569333"><ele>110.0</ele><time>2016-06-18T10:07:15.311Z</time></trkpt><trkpt lat="58.72027" lon="14.755935"><ele>110.0</ele><time>2016-06-18T10:07:16.310Z</time></trkpt><trkpt lat="58.72027" lon="14.755935"><ele>110.0</ele><time>2016-06-18T10:07:17.290Z</time></trkpt><trkpt lat="58.72040667" lon="14.75618"><ele>111.0</ele><time>2016-06-18T10:07:18.298Z</time></trkpt><trkpt lat="58.72040667" lon="14.75618"><ele>111.0</ele><time>2016-06-18T10:07:19.320Z</time></trkpt><trkpt lat="58.72055167" lon="14.75641167"><ele>111.0</ele><time>2016-06-18T10:07:20.297Z</time></trkpt><trkpt lat="58.72055167" lon="14.75641167"><ele>111.0</ele><time>2016-06-18T10:07:21.282Z</time></trkpt><trkpt lat="58.720695" lon="14.75664167"><ele>111.0</ele><time>2016-06-18T10:07:22.287Z</time></trkpt><trkpt lat="58.72077" lon="14.75675333"><ele>111.0</ele><time>2016-06-18T10:07:23.318Z</time></trkpt><trkpt lat="58.72077" lon="14.75675333"><ele>111.0</ele><time>2016-06-18T10:07:24.282Z</time></trkpt><trkpt lat="58.72092167" lon="14.75697667"><ele>111.0</ele><time>2016-06-18T10:07:25.288Z</time></trkpt><trkpt lat="58.72099833" lon="14.75709333"><ele>112.0</ele><time>2016-06-18T10:07:26.307Z</time></trkpt><trkpt lat="58.72099833" lon="14.75709333"><ele>112.0</ele><time>2016-06-18T10:07:27.315Z</time></trkpt><trkpt lat="58.721155" lon="14.75731833"><ele>112.0</ele><time>2016-06-18T10:07:28.321Z</time></trkpt><trkpt lat="58.721155" lon="14.75731833"><ele>112.0</ele><time>2016-06-18T10:07:29.316Z</time></trkpt><trkpt lat="58.72131" lon="14.75752333"><ele>112.0</ele><time>2016-06-18T10:07:30.298Z</time></trkpt><trkpt lat="58.72131" lon="14.75752333"><ele>112.0</ele><time>2016-06-18T10:07:31.321Z</time></trkpt><trkpt lat="58.72146167" lon="14.75772"><ele>112.0</ele><time>2016-06-18T10:07:32.287Z</time></trkpt><trkpt lat="58.72146167" lon="14.75772"><ele>112.0</ele><time>2016-06-18T10:07:33.294Z</time></trkpt><trkpt lat="58.721615" lon="14.75790833"><ele>113.0</ele><time>2016-06-18T10:07:34.320Z</time></trkpt><trkpt lat="58.721615" lon="14.75790833"><ele>113.0</ele><time>2016-06-18T10:07:35.290Z</time></trkpt><trkpt lat="58.72176167" lon="14.75808333"><ele>113.0</ele><time>2016-06-18T10:07:36.298Z</time></trkpt><trkpt lat="58.721835" lon="14.75816167"><ele>113.0</ele><time>2016-06-18T10:07:37.284Z</time></trkpt><trkpt lat="58.72191167" lon="14.75823833"><ele>114.0</ele><time>2016-06-18T10:07:38.293Z</time></trkpt><trkpt lat="58.72191167" lon="14.75823833"><ele>114.0</ele><time>2016-06-18T10:07:39.314Z</time></trkpt><trkpt lat="58.72205833" lon="14.75839333"><ele>114.0</ele><time>2016-06-18T10:07:40.304Z</time></trkpt><trkpt lat="58.72205833" lon="14.75839333"><ele>114.0</ele><time>2016-06-18T10:07:41.309Z</time></trkpt><trkpt lat="58.72220833" lon="14.758555"><ele>115.0</ele><time>2016-06-18T10:07:42.317Z</time></trkpt><trkpt lat="58.72220833" lon="14.758555"><ele>115.0</ele><time>2016-06-18T10:07:43.307Z</time></trkpt><trkpt lat="58.72236833" lon="14.75871833"><ele>115.0</ele><time>2016-06-18T10:07:44.306Z</time></trkpt><trkpt lat="58.72236833" lon="14.75871833"><ele>115.0</ele><time>2016-06-18T10:07:45.305Z</time></trkpt><trkpt lat="58.72251167" lon="14.75885167"><ele>116.0</ele><time>2016-06-18T10:07:46.314Z</time></trkpt><trkpt lat="58.72251167" lon="14.75885167"><ele>116.0</ele><time>2016-06-18T10:07:47.300Z</time></trkpt><trkpt lat="58.72267167" lon="14.75899833"><ele>117.0</ele><time>2016-06-18T10:07:48.318Z</time></trkpt><trkpt lat="58.72267167" lon="14.75899833"><ele>117.0</ele><time>2016-06-18T10:07:49.288Z</time></trkpt><trkpt lat="58.722815" lon="14.75912167"><ele>118.0</ele><time>2016-06-18T10:07:50.295Z</time></trkpt><trkpt lat="58.722815" lon="14.75912167"><ele>118.0</ele><time>2016-06-18T10:07:51.312Z</time></trkpt><trkpt lat="58.72296167" lon="14.75923167"><ele>119.0</ele><time>2016-06-18T10:07:52.319Z</time></trkpt><trkpt lat="58.72304" lon="14.75929167"><ele>119.0</ele><time>2016-06-18T10:07:53.286Z</time></trkpt><trkpt lat="58.72304" lon="14.75929167"><ele>119.0</ele><time>2016-06-18T10:07:54.302Z</time></trkpt><trkpt lat="58.7232" lon="14.75941833"><ele>120.0</ele><time>2016-06-18T10:07:55.313Z</time></trkpt><trkpt lat="58.72327667" lon="14.75947"><ele>120.0</ele><time>2016-06-18T10:07:56.305Z</time></trkpt><trkpt lat="58.72327667" lon="14.75947"><ele>120.0</ele><time>2016-06-18T10:07:57.286Z</time></trkpt><trkpt lat="58.72342" lon="14.75958167"><ele>121.0</ele><time>2016-06-18T10:07:58.292Z</time></trkpt><trkpt lat="58.72342" lon="14.75958167"><ele>121.0</ele><time>2016-06-18T10:07:59.315Z</time></trkpt><trkpt lat="58.723555" lon="14.75969"><ele>122.0</ele><time>2016-06-18T10:08:00.291Z</time></trkpt><trkpt lat="58.723555" lon="14.75969"><ele>122.0</ele><time>2016-06-18T10:08:01.282Z</time></trkpt><trkpt lat="58.72367667" lon="14.75978833"><ele>122.0</ele><time>2016-06-18T10:08:02.288Z</time></trkpt><trkpt lat="58.72367667" lon="14.75978833"><ele>122.0</ele><time>2016-06-18T10:08:03.310Z</time></trkpt><trkpt lat="58.72380833" lon="14.75988833"><ele>123.0</ele><time>2016-06-18T10:08:04.318Z</time></trkpt><trkpt lat="58.72380833" lon="14.75988833"><ele>123.0</ele><time>2016-06-18T10:08:05.321Z</time></trkpt><trkpt lat="58.72393333" lon="14.75998167"><ele>124.0</ele><time>2016-06-18T10:08:06.287Z</time></trkpt><trkpt lat="58.72399333" lon="14.760035"><ele>124.0</ele><time>2016-06-18T10:08:07.299Z</time></trkpt><trkpt lat="58.72399333" lon="14.760035"><ele>124.0</ele><time>2016-06-18T10:08:08.307Z</time></trkpt><trkpt lat="58.72411333" lon="14.760115"><ele>125.0</ele><time>2016-06-18T10:08:09.316Z</time></trkpt><trkpt lat="58.724175" lon="14.760155"><ele>126.0</ele><time>2016-06-18T10:08:10.310Z</time></trkpt><trkpt lat="58.724175" lon="14.760155"><ele>126.0</ele><time>2016-06-18T10:08:11.316Z</time></trkpt><trkpt lat="58.72428833" lon="14.76022167"><ele>126.0</ele><time>2016-06-18T10:08:12.316Z</time></trkpt><trkpt lat="58.72434833" lon="14.76026167"><ele>127.0</ele><time>2016-06-18T10:08:13.290Z</time></trkpt><trkpt lat="58.72440667" lon="14.76030333"><ele>127.0</ele><time>2016-06-18T10:08:14.302Z</time></trkpt><trkpt lat="58.72440667" lon="14.76030333"><ele>127.0</ele><time>2016-06-18T10:08:15.284Z</time></trkpt><trkpt lat="58.72452667" lon="14.76037"><ele>128.0</ele><time>2016-06-18T10:08:16.291Z</time></trkpt><trkpt lat="58.72452667" lon="14.76037"><ele>128.0</ele><time>2016-06-18T10:08:17.314Z</time></trkpt><trkpt lat="58.72465" lon="14.76046667"><ele>129.0</ele><time>2016-06-18T10:08:18.307Z</time></trkpt><trkpt lat="58.72465" lon="14.76046667"><ele>129.0</ele><time>2016-06-18T10:08:19.302Z</time></trkpt><trkpt lat="58.72479333" lon="14.76056167"><ele>130.0</ele><time>2016-06-18T10:08:20.316Z</time></trkpt><trkpt lat="58.72479333" lon="14.76056167"><ele>130.0</ele><time>2016-06-18T10:08:21.313Z</time></trkpt><trkpt lat="58.724915" lon="14.76064667"><ele>131.0</ele><time>2016-06-18T10:08:22.304Z</time></trkpt><trkpt lat="58.724915" lon="14.76064667"><ele>131.0</ele><time>2016-06-18T10:08:23.309Z</time></trkpt><trkpt lat="58.72502667" lon="14.76072667"><ele>132.0</ele><time>2016-06-18T10:08:24.316Z</time></trkpt><trkpt lat="58.72508" lon="14.76075833"><ele>132.0</ele><time>2016-06-18T10:08:25.300Z</time></trkpt><trkpt lat="58.725135" lon="14.7608"><ele>133.0</ele><time>2016-06-18T10:08:26.288Z</time></trkpt><trkpt lat="58.725135" lon="14.7608"><ele>133.0</ele><time>2016-06-18T10:08:27.315Z</time></trkpt><trkpt lat="58.72523667" lon="14.76087833"><ele>134.0</ele><time>2016-06-18T10:08:28.283Z</time></trkpt><trkpt lat="58.72528333" lon="14.76091667"><ele>134.0</ele><time>2016-06-18T10:08:29.305Z</time></trkpt><trkpt lat="58.72528333" lon="14.76091667"><ele>134.0</ele><time>2016-06-18T10:08:30.311Z</time></trkpt><trkpt lat="58.7254" lon="14.76100167"><ele>135.0</ele><time>2016-06-18T10:08:31.319Z</time></trkpt><trkpt lat="58.7254" lon="14.76100167"><ele>135.0</ele><time>2016-06-18T10:08:32.306Z</time></trkpt><trkpt lat="58.72552667" lon="14.76108667"><ele>135.0</ele><time>2016-06-18T10:08:33.301Z</time></trkpt><trkpt lat="58.72552667" lon="14.76108667"><ele>135.0</ele><time>2016-06-18T10:08:34.294Z</time></trkpt><trkpt lat="58.72563167" lon="14.761155"><ele>136.0</ele><time>2016-06-18T10:08:35.300Z</time></trkpt><trkpt lat="58.72563167" lon="14.761155"><ele>136.0</ele><time>2016-06-18T10:08:36.321Z</time></trkpt><trkpt lat="58.725745" lon="14.76122"><ele>137.0</ele><time>2016-06-18T10:08:37.295Z</time></trkpt><trkpt lat="58.72579667" lon="14.76125833"><ele>138.0</ele><time>2016-06-18T10:08:38.283Z</time></trkpt><trkpt lat="58.72579667" lon="14.76125833"><ele>138.0</ele><time>2016-06-18T10:08:39.304Z</time></trkpt><trkpt lat="58.72589667" lon="14.76132667"><ele>139.0</ele><time>2016-06-18T10:08:40.318Z</time></trkpt><trkpt lat="58.72589667" lon="14.76132667"><ele>139.0</ele><time>2016-06-18T10:08:41.298Z</time></trkpt><trkpt lat="58.726005" lon="14.761405"><ele>140.0</ele><time>2016-06-18T10:08:42.304Z</time></trkpt><trkpt lat="58.726005" lon="14.761405"><ele>140.0</ele><time>2016-06-18T10:08:43.288Z</time></trkpt><trkpt lat="58.72614333" lon="14.76149667"><ele>141.0</ele><time>2016-06-18T10:08:44.299Z</time></trkpt><trkpt lat="58.72614333" lon="14.76149667"><ele>141.0</ele><time>2016-06-18T10:08:45.309Z</time></trkpt><trkpt lat="58.72628667" lon="14.76158667"><ele>142.0</ele><time>2016-06-18T10:08:46.317Z</time></trkpt><trkpt lat="58.72634833" lon="14.76162167"><ele>142.0</ele><time>2016-06-18T10:08:47.303Z</time></trkpt><trkpt lat="58.72641" lon="14.76165667"><ele>143.0</ele><time>2016-06-18T10:08:48.302Z</time></trkpt><trkpt lat="58.72641" lon="14.76165667"><ele>143.0</ele><time>2016-06-18T10:08:49.317Z</time></trkpt><trkpt lat="58.72654333" lon="14.76178333"><ele>143.0</ele><time>2016-06-18T10:08:50.284Z</time></trkpt><trkpt lat="58.72654333" lon="14.76178333"><ele>143.0</ele><time>2016-06-18T10:08:51.321Z</time></trkpt><trkpt lat="58.72669167" lon="14.76192833"><ele>144.0</ele><time>2016-06-18T10:08:52.307Z</time></trkpt><trkpt lat="58.72676667" lon="14.76200167"><ele>144.0</ele><time>2016-06-18T10:08:53.301Z</time></trkpt><trkpt lat="58.72676667" lon="14.76200167"><ele>144.0</ele><time>2016-06-18T10:08:54.283Z</time></trkpt><trkpt lat="58.72690333" lon="14.76212833"><ele>145.0</ele><time>2016-06-18T10:08:55.317Z</time></trkpt><trkpt lat="58.72690333" lon="14.76212833"><ele>145.0</ele><time>2016-06-18T10:08:56.306Z</time></trkpt><trkpt lat="58.72702667" lon="14.76223333"><ele>145.0</ele><time>2016-06-18T10:08:57.319Z</time></trkpt><trkpt lat="58.72710167" lon="14.76229833"><ele>145.0</ele><time>2016-06-18T10:08:58.318Z</time></trkpt><trkpt lat="58.72710167" lon="14.76229833"><ele>145.0</ele><time>2016-06-18T10:08:59.315Z</time></trkpt><trkpt lat="58.72723833" lon="14.76243167"><ele>145.0</ele><time>2016-06-18T10:09:00.283Z</time></trkpt><trkpt lat="58.72723833" lon="14.76243167"><ele>145.0</ele><time>2016-06-18T10:09:01.303Z</time></trkpt><trkpt lat="58.72734833" lon="14.76255667"><ele>145.0</ele><time>2016-06-18T10:09:02.315Z</time></trkpt><trkpt lat="58.72740833" lon="14.76262167"><ele>145.0</ele><time>2016-06-18T10:09:03.299Z</time></trkpt><trkpt lat="58.72740833" lon="14.76262167"><ele>145.0</ele><time>2016-06-18T10:09:04.321Z</time></trkpt><trkpt lat="58.72751833" lon="14.76274"><ele>145.0</ele><time>2016-06-18T10:09:05.287Z</time></trkpt><trkpt lat="58.72757833" lon="14.76280333"><ele>145.0</ele><time>2016-06-18T10:09:06.307Z</time></trkpt><trkpt lat="58.72757833" lon="14.76280333"><ele>145.0</ele><time>2016-06-18T10:09:07.307Z</time></trkpt><trkpt lat="58.72770167" lon="14.76294333"><ele>145.0</ele><time>2016-06-18T10:09:08.315Z</time></trkpt><trkpt lat="58.72770167" lon="14.76294333"><ele>145.0</ele><time>2016-06-18T10:09:09.301Z</time></trkpt><trkpt lat="58.727825" lon="14.76307"><ele>145.0</ele><time>2016-06-18T10:09:10.316Z</time></trkpt><trkpt lat="58.727825" lon="14.76307"><ele>145.0</ele><time>2016-06-18T10:09:11.327Z</time></trkpt><trkpt lat="58.72795167" lon="14.76321667"><ele>145.0</ele><time>2016-06-18T10:09:12.288Z</time></trkpt><trkpt lat="58.72801667" lon="14.76328667"><ele>145.0</ele><time>2016-06-18T10:09:13.284Z</time></trkpt><trkpt lat="58.72807667" lon="14.76335667"><ele>145.0</ele><time>2016-06-18T10:09:14.292Z</time></trkpt><trkpt lat="58.72813667" lon="14.76342667"><ele>145.0</ele><time>2016-06-18T10:09:15.315Z</time></trkpt><trkpt lat="58.72813667" lon="14.76342667"><ele>145.0</ele><time>2016-06-18T10:09:16.320Z</time></trkpt><trkpt lat="58.72825" lon="14.76358"><ele>145.0</ele><time>2016-06-18T10:09:17.287Z</time></trkpt><trkpt lat="58.72825" lon="14.76358"><ele>145.0</ele><time>2016-06-18T10:09:18.315Z</time></trkpt><trkpt lat="58.728365" lon="14.763735"><ele>144.0</ele><time>2016-06-18T10:09:19.290Z</time></trkpt><trkpt lat="58.728365" lon="14.763735"><ele>144.0</ele><time>2016-06-18T10:09:20.304Z</time></trkpt><trkpt lat="58.72849833" lon="14.76391667"><ele>144.0</ele><time>2016-06-18T10:09:21.312Z</time></trkpt><trkpt lat="58.72855667" lon="14.763995"><ele>144.0</ele><time>2016-06-18T10:09:22.294Z</time></trkpt><trkpt lat="58.72855667" lon="14.763995"><ele>144.0</ele><time>2016-06-18T10:09:23.319Z</time></trkpt><trkpt lat="58.72867" lon="14.76416333"><ele>143.0</ele><time>2016-06-18T10:09:24.285Z</time></trkpt><trkpt lat="58.728725" lon="14.76424833"><ele>143.0</ele><time>2016-06-18T10:09:25.288Z</time></trkpt><trkpt lat="58.728725" lon="14.76424833"><ele>143.0</ele><time>2016-06-18T10:09:26.288Z</time></trkpt><trkpt lat="58.72883667" lon="14.76442833"><ele>142.0</ele><time>2016-06-18T10:09:27.295Z</time></trkpt><trkpt lat="58.72883667" lon="14.76442833"><ele>142.0</ele><time>2016-06-18T10:09:28.317Z</time></trkpt><trkpt lat="58.72894333" lon="14.76462"><ele>141.0</ele><time>2016-06-18T10:09:29.318Z</time></trkpt><trkpt lat="58.72894333" lon="14.76462"><ele>141.0</ele><time>2016-06-18T10:09:30.313Z</time></trkpt><trkpt lat="58.72904667" lon="14.76480333"><ele>141.0</ele><time>2016-06-18T10:09:31.319Z</time></trkpt><trkpt lat="58.7291" lon="14.76489667"><ele>140.0</ele><time>2016-06-18T10:09:32.310Z</time></trkpt><trkpt lat="58.7291" lon="14.76489667"><ele>140.0</ele><time>2016-06-18T10:09:33.293Z</time></trkpt><trkpt lat="58.72920333" lon="14.76508"><ele>140.0</ele><time>2016-06-18T10:09:34.300Z</time></trkpt><trkpt lat="58.72925333" lon="14.765175"><ele>140.0</ele><time>2016-06-18T10:09:35.301Z</time></trkpt><trkpt lat="58.72925333" lon="14.765175"><ele>140.0</ele><time>2016-06-18T10:09:36.305Z</time></trkpt><trkpt lat="58.72935667" lon="14.76536833"><ele>139.0</ele><time>2016-06-18T10:09:37.316Z</time></trkpt><trkpt lat="58.72940833" lon="14.76546333"><ele>139.0</ele><time>2016-06-18T10:09:38.297Z</time></trkpt><trkpt lat="58.72940833" lon="14.76546333"><ele>139.0</ele><time>2016-06-18T10:09:39.309Z</time></trkpt><trkpt lat="58.729505" lon="14.76565333"><ele>139.0</ele><time>2016-06-18T10:09:40.317Z</time></trkpt><trkpt lat="58.729505" lon="14.76565333"><ele>139.0</ele><time>2016-06-18T10:09:41.302Z</time></trkpt><trkpt lat="58.7296" lon="14.76583333"><ele>138.0</ele><time>2016-06-18T10:09:42.305Z</time></trkpt><trkpt lat="58.7296" lon="14.76583333"><ele>138.0</ele><time>2016-06-18T10:09:43.316Z</time></trkpt><trkpt lat="58.72968833" lon="14.76601333"><ele>138.0</ele><time>2016-06-18T10:09:44.283Z</time></trkpt><trkpt lat="58.72968833" lon="14.76601333"><ele>138.0</ele><time>2016-06-18T10:09:45.305Z</time></trkpt><trkpt lat="58.72977667" lon="14.7662"><ele>137.0</ele><time>2016-06-18T10:09:46.306Z</time></trkpt><trkpt lat="58.72977667" lon="14.7662"><ele>137.0</ele><time>2016-06-18T10:09:47.311Z</time></trkpt><trkpt lat="58.729865" lon="14.76639333"><ele>137.0</ele><time>2016-06-18T10:09:48.318Z</time></trkpt><trkpt lat="58.72991" lon="14.76648833"><ele>137.0</ele><time>2016-06-18T10:09:49.304Z</time></trkpt><trkpt lat="58.72995167" lon="14.76657833"><ele>137.0</ele><time>2016-06-18T10:09:50.283Z</time></trkpt><trkpt lat="58.72995167" lon="14.76657833"><ele>137.0</ele><time>2016-06-18T10:09:51.305Z</time></trkpt><trkpt lat="58.730035" lon="14.76675333"><ele>137.0</ele><time>2016-06-18T10:09:52.296Z</time></trkpt><trkpt lat="58.730035" lon="14.76675333"><ele>137.0</ele><time>2016-06-18T10:09:53.319Z</time></trkpt><trkpt lat="58.73011833" lon="14.76693333"><ele>136.0</ele><time>2016-06-18T10:09:54.286Z</time></trkpt><trkpt lat="58.73011833" lon="14.76693333"><ele>136.0</ele><time>2016-06-18T10:09:55.310Z</time></trkpt><trkpt lat="58.73019833" lon="14.76709667"><ele>136.0</ele><time>2016-06-18T10:09:56.322Z</time></trkpt><trkpt lat="58.73019833" lon="14.76709667"><ele>136.0</ele><time>2016-06-18T10:09:57.309Z</time></trkpt><trkpt lat="58.73027333" lon="14.76725833"><ele>136.0</ele><time>2016-06-18T10:09:58.306Z</time></trkpt><trkpt lat="58.73027333" lon="14.76725833"><ele>136.0</ele><time>2016-06-18T10:09:59.313Z</time></trkpt><trkpt lat="58.73034667" lon="14.76742333"><ele>136.0</ele><time>2016-06-18T10:10:00.320Z</time></trkpt><trkpt lat="58.73034667" lon="14.76742333"><ele>136.0</ele><time>2016-06-18T10:10:01.301Z</time></trkpt><trkpt lat="58.73042667" lon="14.76759333"><ele>136.0</ele><time>2016-06-18T10:10:02.295Z</time></trkpt><trkpt lat="58.73042667" lon="14.76759333"><ele>136.0</ele><time>2016-06-18T10:10:03.307Z</time></trkpt><trkpt lat="58.73050667" lon="14.76776333"><ele>136.0</ele><time>2016-06-18T10:10:04.318Z</time></trkpt><trkpt lat="58.73050667" lon="14.76776333"><ele>136.0</ele><time>2016-06-18T10:10:05.305Z</time></trkpt><trkpt lat="58.73057833" lon="14.76792833"><ele>136.0</ele><time>2016-06-18T10:10:06.300Z</time></trkpt><trkpt lat="58.73057833" lon="14.76792833"><ele>136.0</ele><time>2016-06-18T10:10:07.314Z</time></trkpt><trkpt lat="58.73065667" lon="14.768085"><ele>137.0</ele><time>2016-06-18T10:10:08.284Z</time></trkpt><trkpt lat="58.73065667" lon="14.768085"><ele>137.0</ele><time>2016-06-18T10:10:09.307Z</time></trkpt><trkpt lat="58.73073667" lon="14.76825833"><ele>137.0</ele><time>2016-06-18T10:10:10.303Z</time></trkpt><trkpt lat="58.73073667" lon="14.76825833"><ele>137.0</ele><time>2016-06-18T10:10:11.328Z</time></trkpt><trkpt lat="58.730815" lon="14.76843"><ele>137.0</ele><time>2016-06-18T10:10:12.287Z</time></trkpt><trkpt lat="58.730855" lon="14.76851667"><ele>138.0</ele><time>2016-06-18T10:10:13.318Z</time></trkpt><trkpt lat="58.730895" lon="14.768605"><ele>138.0</ele><time>2016-06-18T10:10:14.285Z</time></trkpt><trkpt lat="58.730895" lon="14.768605"><ele>138.0</ele><time>2016-06-18T10:10:15.309Z</time></trkpt><trkpt lat="58.73097333" lon="14.76877667"><ele>138.0</ele><time>2016-06-18T10:10:16.318Z</time></trkpt><trkpt lat="58.73097333" lon="14.76877667"><ele>138.0</ele><time>2016-06-18T10:10:17.304Z</time></trkpt><trkpt lat="58.73105167" lon="14.76896"><ele>139.0</ele><time>2016-06-18T10:10:18.307Z</time></trkpt><trkpt lat="58.73105167" lon="14.76896"><ele>139.0</ele><time>2016-06-18T10:10:19.283Z</time></trkpt><trkpt lat="58.73113167" lon="14.76912833"><ele>140.0</ele><time>2016-06-18T10:10:20.290Z</time></trkpt><trkpt lat="58.73113167" lon="14.76912833"><ele>140.0</ele><time>2016-06-18T10:10:21.290Z</time></trkpt><trkpt lat="58.731215" lon="14.76932"><ele>140.0</ele><time>2016-06-18T10:10:22.306Z</time></trkpt><trkpt lat="58.731215" lon="14.76932"><ele>140.0</ele><time>2016-06-18T10:10:23.293Z</time></trkpt><trkpt lat="58.73129833" lon="14.769505"><ele>140.0</ele><time>2016-06-18T10:10:24.299Z</time></trkpt><trkpt lat="58.73129833" lon="14.769505"><ele>140.0</ele><time>2016-06-18T10:10:25.284Z</time></trkpt><trkpt lat="58.73139" lon="14.76968667"><ele>140.0</ele><time>2016-06-18T10:10:26.307Z</time></trkpt><trkpt lat="58.73139" lon="14.76968667"><ele>140.0</ele><time>2016-06-18T10:10:27.316Z</time></trkpt><trkpt lat="58.73147333" lon="14.76986167"><ele>140.0</ele><time>2016-06-18T10:10:28.283Z</time></trkpt><trkpt lat="58.73147333" lon="14.76986167"><ele>140.0</ele><time>2016-06-18T10:10:29.320Z</time></trkpt><trkpt lat="58.731555" lon="14.77005"><ele>140.0</ele><time>2016-06-18T10:10:30.286Z</time></trkpt><trkpt lat="58.731555" lon="14.77005"><ele>140.0</ele><time>2016-06-18T10:10:31.313Z</time></trkpt><trkpt lat="58.73162833" lon="14.77022833"><ele>140.0</ele><time>2016-06-18T10:10:32.306Z</time></trkpt><trkpt lat="58.73162833" lon="14.77022833"><ele>140.0</ele><time>2016-06-18T10:10:33.300Z</time></trkpt><trkpt lat="58.731715" lon="14.77041"><ele>140.0</ele><time>2016-06-18T10:10:34.307Z</time></trkpt><trkpt lat="58.73176" lon="14.77050333"><ele>140.0</ele><time>2016-06-18T10:10:35.290Z</time></trkpt><trkpt lat="58.73180333" lon="14.77059333"><ele>140.0</ele><time>2016-06-18T10:10:36.292Z</time></trkpt><trkpt lat="58.73180333" lon="14.77059333"><ele>140.0</ele><time>2016-06-18T10:10:37.316Z</time></trkpt><trkpt lat="58.731895" lon="14.77078333"><ele>140.0</ele><time>2016-06-18T10:10:38.284Z</time></trkpt><trkpt lat="58.731895" lon="14.77078333"><ele>140.0</ele><time>2016-06-18T10:10:39.318Z</time></trkpt><trkpt lat="58.731995" lon="14.77098167"><ele>140.0</ele><time>2016-06-18T10:10:40.284Z</time></trkpt><trkpt lat="58.731995" lon="14.77098167"><ele>140.0</ele><time>2016-06-18T10:10:41.307Z</time></trkpt><trkpt lat="58.73209" lon="14.77118833"><ele>140.0</ele><time>2016-06-18T10:10:42.296Z</time></trkpt><trkpt lat="58.73209" lon="14.77118833"><ele>140.0</ele><time>2016-06-18T10:10:43.314Z</time></trkpt><trkpt lat="58.73218833" lon="14.77140333"><ele>140.0</ele><time>2016-06-18T10:10:44.284Z</time></trkpt><trkpt lat="58.73218833" lon="14.77140333"><ele>140.0</ele><time>2016-06-18T10:10:45.306Z</time></trkpt><trkpt lat="58.73229" lon="14.77160667"><ele>140.0</ele><time>2016-06-18T10:10:46.318Z</time></trkpt><trkpt lat="58.73229" lon="14.77160667"><ele>140.0</ele><time>2016-06-18T10:10:47.304Z</time></trkpt><trkpt lat="58.73240333" lon="14.77181333"><ele>141.0</ele><time>2016-06-18T10:10:48.296Z</time></trkpt><trkpt lat="58.73240333" lon="14.77181333"><ele>141.0</ele><time>2016-06-18T10:10:49.283Z</time></trkpt><trkpt lat="58.73252667" lon="14.77201833"><ele>141.0</ele><time>2016-06-18T10:10:50.290Z</time></trkpt><trkpt lat="58.73252667" lon="14.77201833"><ele>141.0</ele><time>2016-06-18T10:10:51.299Z</time></trkpt><trkpt lat="58.73265" lon="14.77222833"><ele>141.0</ele><time>2016-06-18T10:10:52.320Z</time></trkpt><trkpt lat="58.73265" lon="14.77222833"><ele>141.0</ele><time>2016-06-18T10:10:53.306Z</time></trkpt><trkpt lat="58.73278167" lon="14.77243833"><ele>141.0</ele><time>2016-06-18T10:10:54.317Z</time></trkpt><trkpt lat="58.73278167" lon="14.77243833"><ele>141.0</ele><time>2016-06-18T10:10:55.284Z</time></trkpt><trkpt lat="58.73291" lon="14.77266"><ele>141.0</ele><time>2016-06-18T10:10:56.290Z</time></trkpt><trkpt lat="58.73291" lon="14.77266"><ele>141.0</ele><time>2016-06-18T10:10:57.318Z</time></trkpt><trkpt lat="58.73305167" lon="14.77289"><ele>141.0</ele><time>2016-06-18T10:10:58.307Z</time></trkpt><trkpt lat="58.73305167" lon="14.77289"><ele>141.0</ele><time>2016-06-18T10:10:59.303Z</time></trkpt><trkpt lat="58.7332" lon="14.773125"><ele>141.0</ele><time>2016-06-18T10:11:00.309Z</time></trkpt><trkpt lat="58.7332" lon="14.773125"><ele>141.0</ele><time>2016-06-18T10:11:01.284Z</time></trkpt><trkpt lat="58.73335" lon="14.77334833"><ele>141.0</ele><time>2016-06-18T10:11:02.308Z</time></trkpt><trkpt lat="58.73335" lon="14.77334833"><ele>141.0</ele><time>2016-06-18T10:11:03.287Z</time></trkpt><trkpt lat="58.73350167" lon="14.77355667"><ele>141.0</ele><time>2016-06-18T10:11:04.295Z</time></trkpt><trkpt lat="58.73357833" lon="14.77365667"><ele>141.0</ele><time>2016-06-18T10:11:05.296Z</time></trkpt><trkpt lat="58.73357833" lon="14.77365667"><ele>141.0</ele><time>2016-06-18T10:11:06.315Z</time></trkpt><trkpt lat="58.73372" lon="14.77387"><ele>142.0</ele><time>2016-06-18T10:11:07.284Z</time></trkpt><trkpt lat="58.73372" lon="14.77387"><ele>142.0</ele><time>2016-06-18T10:11:08.308Z</time></trkpt><trkpt lat="58.733875" lon="14.77408333"><ele>142.0</ele><time>2016-06-18T10:11:09.319Z</time></trkpt><trkpt lat="58.73394667" lon="14.77418333"><ele>142.0</ele><time>2016-06-18T10:11:10.307Z</time></trkpt><trkpt lat="58.73394667" lon="14.77418333"><ele>142.0</ele><time>2016-06-18T10:11:11.320Z</time></trkpt><trkpt lat="58.73410333" lon="14.77439667"><ele>142.0</ele><time>2016-06-18T10:11:12.319Z</time></trkpt><trkpt lat="58.73410333" lon="14.77439667"><ele>142.0</ele><time>2016-06-18T10:11:13.307Z</time></trkpt><trkpt lat="58.73425667" lon="14.77461"><ele>143.0</ele><time>2016-06-18T10:11:14.284Z</time></trkpt><trkpt lat="58.73425667" lon="14.77461"><ele>143.0</ele><time>2016-06-18T10:11:15.320Z</time></trkpt><trkpt lat="58.73441167" lon="14.774805"><ele>143.0</ele><time>2016-06-18T10:11:16.287Z</time></trkpt><trkpt lat="58.73441167" lon="14.774805"><ele>143.0</ele><time>2016-06-18T10:11:17.303Z</time></trkpt><trkpt lat="58.73457167" lon="14.77499333"><ele>144.0</ele><time>2016-06-18T10:11:18.301Z</time></trkpt><trkpt lat="58.73457167" lon="14.77499333"><ele>144.0</ele><time>2016-06-18T10:11:19.284Z</time></trkpt><trkpt lat="58.73473167" lon="14.77517833"><ele>144.0</ele><time>2016-06-18T10:11:20.290Z</time></trkpt><trkpt lat="58.73473167" lon="14.77517833"><ele>144.0</ele><time>2016-06-18T10:11:21.300Z</time></trkpt><trkpt lat="58.73488167" lon="14.77534"><ele>144.0</ele><time>2016-06-18T10:11:22.295Z</time></trkpt><trkpt lat="58.73488167" lon="14.77534"><ele>144.0</ele><time>2016-06-18T10:11:23.303Z</time></trkpt><trkpt lat="58.735035" lon="14.775515"><ele>145.0</ele><time>2016-06-18T10:11:24.310Z</time></trkpt><trkpt lat="58.735035" lon="14.775515"><ele>145.0</ele><time>2016-06-18T10:11:25.291Z</time></trkpt><trkpt lat="58.73518" lon="14.77568667"><ele>145.0</ele><time>2016-06-18T10:11:26.297Z</time></trkpt><trkpt lat="58.73526833" lon="14.77578667"><ele>145.0</ele><time>2016-06-18T10:11:27.308Z</time></trkpt><trkpt lat="58.73526833" lon="14.77578667"><ele>145.0</ele><time>2016-06-18T10:11:28.306Z</time></trkpt><trkpt lat="58.73542667" lon="14.77597167"><ele>146.0</ele><time>2016-06-18T10:11:29.317Z</time></trkpt><trkpt lat="58.73542667" lon="14.77597167"><ele>146.0</ele><time>2016-06-18T10:11:30.304Z</time></trkpt><trkpt lat="58.735595" lon="14.77614833"><ele>146.0</ele><time>2016-06-18T10:11:31.308Z</time></trkpt><trkpt lat="58.735595" lon="14.77614833"><ele>146.0</ele><time>2016-06-18T10:11:32.318Z</time></trkpt><trkpt lat="58.73576667" lon="14.77631333"><ele>147.0</ele><time>2016-06-18T10:11:33.288Z</time></trkpt><trkpt lat="58.73576667" lon="14.77631333"><ele>147.0</ele><time>2016-06-18T10:11:34.319Z</time></trkpt><trkpt lat="58.735935" lon="14.77646667"><ele>147.0</ele><time>2016-06-18T10:11:35.320Z</time></trkpt><trkpt lat="58.735935" lon="14.77646667"><ele>147.0</ele><time>2016-06-18T10:11:36.300Z</time></trkpt><trkpt lat="58.73610333" lon="14.77661"><ele>147.0</ele><time>2016-06-18T10:11:37.306Z</time></trkpt><trkpt lat="58.73617667" lon="14.77667333"><ele>147.0</ele><time>2016-06-18T10:11:38.290Z</time></trkpt><trkpt lat="58.73617667" lon="14.77667333"><ele>147.0</ele><time>2016-06-18T10:11:39.301Z</time></trkpt><trkpt lat="58.736325" lon="14.77680833"><ele>148.0</ele><time>2016-06-18T10:11:40.311Z</time></trkpt><trkpt lat="58.736325" lon="14.77680833"><ele>148.0</ele><time>2016-06-18T10:11:41.314Z</time></trkpt><trkpt lat="58.73646667" lon="14.77692167"><ele>148.0</ele><time>2016-06-18T10:11:42.284Z</time></trkpt><trkpt lat="58.73646667" lon="14.77692167"><ele>148.0</ele><time>2016-06-18T10:11:43.307Z</time></trkpt><trkpt lat="58.7366" lon="14.77702167"><ele>148.0</ele><time>2016-06-18T10:11:44.308Z</time></trkpt><trkpt lat="58.7366" lon="14.77702167"><ele>148.0</ele><time>2016-06-18T10:11:45.304Z</time></trkpt><trkpt lat="58.73673333" lon="14.77711833"><ele>149.0</ele><time>2016-06-18T10:11:46.317Z</time></trkpt><trkpt lat="58.73680167" lon="14.777165"><ele>149.0</ele><time>2016-06-18T10:11:47.312Z</time></trkpt><trkpt lat="58.73686" lon="14.777215"><ele>150.0</ele><time>2016-06-18T10:11:48.294Z</time></trkpt><trkpt lat="58.73686" lon="14.777215"><ele>150.0</ele><time>2016-06-18T10:11:49.316Z</time></trkpt><trkpt lat="58.73698" lon="14.77731"><ele>150.0</ele><time>2016-06-18T10:11:50.308Z</time></trkpt><trkpt lat="58.73698" lon="14.77731"><ele>150.0</ele><time>2016-06-18T10:11:51.310Z</time></trkpt><trkpt lat="58.73710167" lon="14.77739"><ele>151.0</ele><time>2016-06-18T10:11:52.320Z</time></trkpt><trkpt lat="58.73716333" lon="14.77743667"><ele>151.0</ele><time>2016-06-18T10:11:53.308Z</time></trkpt><trkpt lat="58.73716333" lon="14.77743667"><ele>151.0</ele><time>2016-06-18T10:11:54.283Z</time></trkpt><trkpt lat="58.73731167" lon="14.77753333"><ele>151.0</ele><time>2016-06-18T10:11:55.289Z</time></trkpt><trkpt lat="58.737385" lon="14.77757833"><ele>152.0</ele><time>2016-06-18T10:11:56.283Z</time></trkpt><trkpt lat="58.737385" lon="14.77757833"><ele>152.0</ele><time>2016-06-18T10:11:57.306Z</time></trkpt><trkpt lat="58.73754167" lon="14.77768833"><ele>152.0</ele><time>2016-06-18T10:11:58.317Z</time></trkpt><trkpt lat="58.73762" lon="14.77774167"><ele>152.0</ele><time>2016-06-18T10:11:59.308Z</time></trkpt><trkpt lat="58.73762" lon="14.77774167"><ele>152.0</ele><time>2016-06-18T10:12:00.314Z</time></trkpt><trkpt lat="58.73776167" lon="14.77783833"><ele>153.0</ele><time>2016-06-18T10:12:01.320Z</time></trkpt><trkpt lat="58.73783167" lon="14.77786333"><ele>153.0</ele><time>2016-06-18T10:12:02.304Z</time></trkpt><trkpt lat="58.73783167" lon="14.77786333"><ele>153.0</ele><time>2016-06-18T10:12:03.308Z</time></trkpt><trkpt lat="58.73796167" lon="14.777935"><ele>154.0</ele><time>2016-06-18T10:12:04.317Z</time></trkpt><trkpt lat="58.73802167" lon="14.77796667"><ele>154.0</ele><time>2016-06-18T10:12:05.311Z</time></trkpt><trkpt lat="58.73802167" lon="14.77796667"><ele>154.0</ele><time>2016-06-18T10:12:06.314Z</time></trkpt><trkpt lat="58.73815833" lon="14.77803333"><ele>155.0</ele><time>2016-06-18T10:12:07.287Z</time></trkpt><trkpt lat="58.73823" lon="14.778065"><ele>155.0</ele><time>2016-06-18T10:12:08.310Z</time></trkpt><trkpt lat="58.73823" lon="14.778065"><ele>155.0</ele><time>2016-06-18T10:12:09.291Z</time></trkpt><trkpt lat="58.73838" lon="14.77813"><ele>156.0</ele><time>2016-06-18T10:12:10.298Z</time></trkpt><trkpt lat="58.73838" lon="14.77813"><ele>156.0</ele><time>2016-06-18T10:12:11.322Z</time></trkpt><trkpt lat="58.73852833" lon="14.77820333"><ele>156.0</ele><time>2016-06-18T10:12:12.321Z</time></trkpt><trkpt lat="58.73860167" lon="14.77823667"><ele>156.0</ele><time>2016-06-18T10:12:13.302Z</time></trkpt><trkpt lat="58.73867833" lon="14.77826833"><ele>157.0</ele><time>2016-06-18T10:12:14.309Z</time></trkpt><trkpt lat="58.73867833" lon="14.77826833"><ele>157.0</ele><time>2016-06-18T10:12:15.291Z</time></trkpt><trkpt lat="58.73883667" lon="14.77833667"><ele>158.0</ele><time>2016-06-18T10:12:16.310Z</time></trkpt><trkpt lat="58.73883667" lon="14.77833667"><ele>158.0</ele><time>2016-06-18T10:12:17.316Z</time></trkpt><trkpt lat="58.739" lon="14.77840833"><ele>158.0</ele><time>2016-06-18T10:12:18.282Z</time></trkpt><trkpt lat="58.73908167" lon="14.77843333"><ele>158.0</ele><time>2016-06-18T10:12:19.305Z</time></trkpt><trkpt lat="58.73916333" lon="14.77846667"><ele>158.0</ele><time>2016-06-18T10:12:20.321Z</time></trkpt><trkpt lat="58.73916333" lon="14.77846667"><ele>158.0</ele><time>2016-06-18T10:12:21.306Z</time></trkpt><trkpt lat="58.73932833" lon="14.77853333"><ele>158.0</ele><time>2016-06-18T10:12:22.321Z</time></trkpt><trkpt lat="58.73932833" lon="14.77853333"><ele>158.0</ele><time>2016-06-18T10:12:23.286Z</time></trkpt><trkpt lat="58.73947667" lon="14.77860333"><ele>158.0</ele><time>2016-06-18T10:12:24.313Z</time></trkpt><trkpt lat="58.73947667" lon="14.77860333"><ele>158.0</ele><time>2016-06-18T10:12:25.319Z</time></trkpt><trkpt lat="58.73961833" lon="14.77866167"><ele>158.0</ele><time>2016-06-18T10:12:26.288Z</time></trkpt><trkpt lat="58.73961833" lon="14.77866167"><ele>158.0</ele><time>2016-06-18T10:12:27.311Z</time></trkpt><trkpt lat="58.73976333" lon="14.77870667"><ele>158.0</ele><time>2016-06-18T10:12:28.321Z</time></trkpt><trkpt lat="58.73976333" lon="14.77870667"><ele>158.0</ele><time>2016-06-18T10:12:29.287Z</time></trkpt><trkpt lat="58.739945" lon="14.77876833"><ele>158.0</ele><time>2016-06-18T10:12:30.293Z</time></trkpt><trkpt lat="58.74001833" lon="14.77879167"><ele>159.0</ele><time>2016-06-18T10:12:31.320Z</time></trkpt><trkpt lat="58.74009833" lon="14.77882333"><ele>159.0</ele><time>2016-06-18T10:12:32.293Z</time></trkpt><trkpt lat="58.74009833" lon="14.77882333"><ele>159.0</ele><time>2016-06-18T10:12:33.315Z</time></trkpt><trkpt lat="58.74027667" lon="14.77889333"><ele>159.0</ele><time>2016-06-18T10:12:34.284Z</time></trkpt><trkpt lat="58.74027667" lon="14.77889333"><ele>159.0</ele><time>2016-06-18T10:12:35.306Z</time></trkpt><trkpt lat="58.74051167" lon="14.77899667"><ele>155.0</ele><time>2016-06-18T10:12:36.318Z</time></trkpt><trkpt lat="58.74051167" lon="14.77899667"><ele>155.0</ele><time>2016-06-18T10:12:37.290Z</time></trkpt><trkpt lat="58.74073" lon="14.77908667"><ele>152.0</ele><time>2016-06-18T10:12:38.297Z</time></trkpt><trkpt lat="58.74073" lon="14.77908667"><ele>152.0</ele><time>2016-06-18T10:12:39.319Z</time></trkpt><trkpt lat="58.74093667" lon="14.779195"><ele>148.0</ele><time>2016-06-18T10:12:40.307Z</time></trkpt><trkpt lat="58.74093667" lon="14.779195"><ele>148.0</ele><time>2016-06-18T10:12:41.300Z</time></trkpt><trkpt lat="58.74114167" lon="14.7793"><ele>145.0</ele><time>2016-06-18T10:12:42.306Z</time></trkpt><trkpt lat="58.741245" lon="14.779345"><ele>144.0</ele><time>2016-06-18T10:12:43.289Z</time></trkpt><trkpt lat="58.741245" lon="14.779345"><ele>144.0</ele><time>2016-06-18T10:12:44.301Z</time></trkpt><trkpt lat="58.74144333" lon="14.77946333"><ele>142.0</ele><time>2016-06-18T10:12:45.308Z</time></trkpt><trkpt lat="58.74153833" lon="14.77952167"><ele>141.0</ele><time>2016-06-18T10:12:46.307Z</time></trkpt><trkpt lat="58.74153833" lon="14.77952167"><ele>141.0</ele><time>2016-06-18T10:12:47.319Z</time></trkpt><trkpt lat="58.74172833" lon="14.77964"><ele>139.0</ele><time>2016-06-18T10:12:48.286Z</time></trkpt><trkpt lat="58.74172833" lon="14.77964"><ele>139.0</ele><time>2016-06-18T10:12:49.307Z</time></trkpt><trkpt lat="58.741925" lon="14.77977833"><ele>138.0</ele><time>2016-06-18T10:12:50.304Z</time></trkpt><trkpt lat="58.741925" lon="14.77977833"><ele>138.0</ele><time>2016-06-18T10:12:51.319Z</time></trkpt><trkpt lat="58.74212167" lon="14.77992667"><ele>136.0</ele><time>2016-06-18T10:12:52.285Z</time></trkpt><trkpt lat="58.74212167" lon="14.77992667"><ele>136.0</ele><time>2016-06-18T10:12:53.306Z</time></trkpt><trkpt lat="58.74232167" lon="14.78009"><ele>135.0</ele><time>2016-06-18T10:12:54.298Z</time></trkpt><trkpt lat="58.74232167" lon="14.78009"><ele>135.0</ele><time>2016-06-18T10:12:55.308Z</time></trkpt><trkpt lat="58.74252667" lon="14.78027167"><ele>134.0</ele><time>2016-06-18T10:12:56.320Z</time></trkpt><trkpt lat="58.74252667" lon="14.78027167"><ele>134.0</ele><time>2016-06-18T10:12:57.303Z</time></trkpt><trkpt lat="58.74273667" lon="14.78046333"><ele>133.0</ele><time>2016-06-18T10:12:58.318Z</time></trkpt><trkpt lat="58.74273667" lon="14.78046333"><ele>133.0</ele><time>2016-06-18T10:12:59.286Z</time></trkpt><trkpt lat="58.74294667" lon="14.78066167"><ele>132.0</ele><time>2016-06-18T10:13:00.292Z</time></trkpt><trkpt lat="58.74305" lon="14.780765"><ele>132.0</ele><time>2016-06-18T10:13:01.309Z</time></trkpt><trkpt lat="58.743155" lon="14.78087"><ele>131.0</ele><time>2016-06-18T10:13:02.296Z</time></trkpt><trkpt lat="58.743155" lon="14.78087"><ele>131.0</ele><time>2016-06-18T10:13:03.288Z</time></trkpt><trkpt lat="58.743355" lon="14.78109333"><ele>130.0</ele><time>2016-06-18T10:13:04.313Z</time></trkpt><trkpt lat="58.74345" lon="14.781205"><ele>130.0</ele><time>2016-06-18T10:13:05.297Z</time></trkpt><trkpt lat="58.74354667" lon="14.78132333"><ele>129.0</ele><time>2016-06-18T10:13:06.320Z</time></trkpt><trkpt lat="58.74354667" lon="14.78132333"><ele>129.0</ele><time>2016-06-18T10:13:07.306Z</time></trkpt><trkpt lat="58.743745" lon="14.78158167"><ele>129.0</ele><time>2016-06-18T10:13:08.326Z</time></trkpt><trkpt lat="58.743745" lon="14.78158167"><ele>129.0</ele><time>2016-06-18T10:13:09.305Z</time></trkpt><trkpt lat="58.743935" lon="14.78184833"><ele>128.0</ele><time>2016-06-18T10:13:10.310Z</time></trkpt><trkpt lat="58.743935" lon="14.78184833"><ele>128.0</ele><time>2016-06-18T10:13:11.325Z</time></trkpt><trkpt lat="58.74412" lon="14.78211"><ele>128.0</ele><time>2016-06-18T10:13:12.305Z</time></trkpt><trkpt lat="58.74420833" lon="14.78224"><ele>127.0</ele><time>2016-06-18T10:13:13.289Z</time></trkpt><trkpt lat="58.74420833" lon="14.78224"><ele>127.0</ele><time>2016-06-18T10:13:14.295Z</time></trkpt><trkpt lat="58.74437833" lon="14.78249667"><ele>127.0</ele><time>2016-06-18T10:13:15.297Z</time></trkpt><trkpt lat="58.74445833" lon="14.78262833"><ele>127.0</ele><time>2016-06-18T10:13:16.312Z</time></trkpt><trkpt lat="58.74445833" lon="14.78262833"><ele>127.0</ele><time>2016-06-18T10:13:17.295Z</time></trkpt><trkpt lat="58.74462" lon="14.78288667"><ele>127.0</ele><time>2016-06-18T10:13:18.302Z</time></trkpt><trkpt lat="58.74462" lon="14.78288667"><ele>127.0</ele><time>2016-06-18T10:13:19.319Z</time></trkpt><trkpt lat="58.744775" lon="14.783145"><ele>127.0</ele><time>2016-06-18T10:13:20.286Z</time></trkpt><trkpt lat="58.744775" lon="14.783145"><ele>127.0</ele><time>2016-06-18T10:13:21.309Z</time></trkpt><trkpt lat="58.74492333" lon="14.78340833"><ele>127.0</ele><time>2016-06-18T10:13:22.308Z</time></trkpt><trkpt lat="58.74492333" lon="14.78340833"><ele>127.0</ele><time>2016-06-18T10:13:23.290Z</time></trkpt><trkpt lat="58.745075" lon="14.78368"><ele>126.0</ele><time>2016-06-18T10:13:24.303Z</time></trkpt><trkpt lat="58.745075" lon="14.78368"><ele>126.0</ele><time>2016-06-18T10:13:25.312Z</time></trkpt><trkpt lat="58.74521833" lon="14.78395"><ele>126.0</ele><time>2016-06-18T10:13:26.305Z</time></trkpt><trkpt lat="58.74521833" lon="14.78395"><ele>126.0</ele><time>2016-06-18T10:13:27.285Z</time></trkpt><trkpt lat="58.74536333" lon="14.78423167"><ele>126.0</ele><time>2016-06-18T10:13:28.293Z</time></trkpt><trkpt lat="58.74536333" lon="14.78423167"><ele>126.0</ele><time>2016-06-18T10:13:29.317Z</time></trkpt><trkpt lat="58.74550333" lon="14.78451"><ele>126.0</ele><time>2016-06-18T10:13:30.307Z</time></trkpt><trkpt lat="58.74550333" lon="14.78451"><ele>126.0</ele><time>2016-06-18T10:13:31.316Z</time></trkpt><trkpt lat="58.74564333" lon="14.78479167"><ele>126.0</ele><time>2016-06-18T10:13:32.282Z</time></trkpt><trkpt lat="58.74564333" lon="14.78479167"><ele>126.0</ele><time>2016-06-18T10:13:33.319Z</time></trkpt><trkpt lat="58.74578" lon="14.78507"><ele>126.0</ele><time>2016-06-18T10:13:34.309Z</time></trkpt><trkpt lat="58.74578" lon="14.78507"><ele>126.0</ele><time>2016-06-18T10:13:35.290Z</time></trkpt><trkpt lat="58.74591333" lon="14.78534333"><ele>126.0</ele><time>2016-06-18T10:13:36.296Z</time></trkpt><trkpt lat="58.74598" lon="14.78547833"><ele>126.0</ele><time>2016-06-18T10:13:37.320Z</time></trkpt><trkpt lat="58.74605167" lon="14.78561333"><ele>126.0</ele><time>2016-06-18T10:13:38.288Z</time></trkpt><trkpt lat="58.74605167" lon="14.78561333"><ele>126.0</ele><time>2016-06-18T10:13:39.304Z</time></trkpt><trkpt lat="58.74618833" lon="14.78588833"><ele>126.0</ele><time>2016-06-18T10:13:40.289Z</time></trkpt><trkpt lat="58.74626167" lon="14.78602167"><ele>126.0</ele><time>2016-06-18T10:13:41.312Z</time></trkpt><trkpt lat="58.74626167" lon="14.78602167"><ele>126.0</ele><time>2016-06-18T10:13:42.295Z</time></trkpt><trkpt lat="58.74640667" lon="14.78629833"><ele>126.0</ele><time>2016-06-18T10:13:43.303Z</time></trkpt><trkpt lat="58.74640667" lon="14.78629833"><ele>126.0</ele><time>2016-06-18T10:13:44.284Z</time></trkpt><trkpt lat="58.74656" lon="14.786585"><ele>126.0</ele><time>2016-06-18T10:13:45.318Z</time></trkpt><trkpt lat="58.746635" lon="14.78672667"><ele>126.0</ele><time>2016-06-18T10:13:46.320Z</time></trkpt><trkpt lat="58.74671" lon="14.78687333"><ele>126.0</ele><time>2016-06-18T10:13:47.306Z</time></trkpt><trkpt lat="58.74671" lon="14.78687333"><ele>126.0</ele><time>2016-06-18T10:13:48.312Z</time></trkpt><trkpt lat="58.746875" lon="14.78716667"><ele>126.0</ele><time>2016-06-18T10:13:49.307Z</time></trkpt><trkpt lat="58.746875" lon="14.78716667"><ele>126.0</ele><time>2016-06-18T10:13:50.284Z</time></trkpt><trkpt lat="58.747055" lon="14.78745333"><ele>126.0</ele><time>2016-06-18T10:13:51.290Z</time></trkpt><trkpt lat="58.747055" lon="14.78745333"><ele>126.0</ele><time>2016-06-18T10:13:52.313Z</time></trkpt><trkpt lat="58.74724" lon="14.78773"><ele>125.0</ele><time>2016-06-18T10:13:53.289Z</time></trkpt><trkpt lat="58.74724" lon="14.78773"><ele>125.0</ele><time>2016-06-18T10:13:54.302Z</time></trkpt><trkpt lat="58.747415" lon="14.78797833"><ele>125.0</ele><time>2016-06-18T10:13:55.309Z</time></trkpt><trkpt lat="58.74749667" lon="14.788095"><ele>125.0</ele><time>2016-06-18T10:13:56.315Z</time></trkpt><trkpt lat="58.74749667" lon="14.788095"><ele>125.0</ele><time>2016-06-18T10:13:57.318Z</time></trkpt><trkpt lat="58.74766333" lon="14.78832333"><ele>125.0</ele><time>2016-06-18T10:13:58.285Z</time></trkpt><trkpt lat="58.74766333" lon="14.78832333"><ele>125.0</ele><time>2016-06-18T10:13:59.307Z</time></trkpt><trkpt lat="58.74783333" lon="14.78855167"><ele>124.0</ele><time>2016-06-18T10:14:00.295Z</time></trkpt><trkpt lat="58.74783333" lon="14.78855167"><ele>124.0</ele><time>2016-06-18T10:14:01.312Z</time></trkpt><trkpt lat="58.74800667" lon="14.78877167"><ele>124.0</ele><time>2016-06-18T10:14:02.320Z</time></trkpt><trkpt lat="58.74800667" lon="14.78877167"><ele>124.0</ele><time>2016-06-18T10:14:03.304Z</time></trkpt><trkpt lat="58.74819" lon="14.788985"><ele>124.0</ele><time>2016-06-18T10:14:04.308Z</time></trkpt><trkpt lat="58.74819" lon="14.788985"><ele>124.0</ele><time>2016-06-18T10:14:05.319Z</time></trkpt><trkpt lat="58.74837167" lon="14.78919167"><ele>123.0</ele><time>2016-06-18T10:14:06.285Z</time></trkpt><trkpt lat="58.74846333" lon="14.78929"><ele>123.0</ele><time>2016-06-18T10:14:07.312Z</time></trkpt><trkpt lat="58.748555" lon="14.78938833"><ele>123.0</ele><time>2016-06-18T10:14:08.282Z</time></trkpt><trkpt lat="58.748555" lon="14.78938833"><ele>123.0</ele><time>2016-06-18T10:14:09.304Z</time></trkpt><trkpt lat="58.74874167" lon="14.78958667"><ele>122.0</ele><time>2016-06-18T10:14:10.308Z</time></trkpt><trkpt lat="58.74874167" lon="14.78958667"><ele>122.0</ele><time>2016-06-18T10:14:11.328Z</time></trkpt><trkpt lat="58.74893333" lon="14.78976"><ele>122.0</ele><time>2016-06-18T10:14:12.308Z</time></trkpt><trkpt lat="58.74903" lon="14.78984667"><ele>122.0</ele><time>2016-06-18T10:14:13.300Z</time></trkpt><trkpt lat="58.74903" lon="14.78984667"><ele>122.0</ele><time>2016-06-18T10:14:14.307Z</time></trkpt><trkpt lat="58.74922167" lon="14.79002167"><ele>121.0</ele><time>2016-06-18T10:14:15.310Z</time></trkpt><trkpt lat="58.74922167" lon="14.79002167"><ele>121.0</ele><time>2016-06-18T10:14:16.286Z</time></trkpt><trkpt lat="58.749405" lon="14.79016333"><ele>121.0</ele><time>2016-06-18T10:14:17.293Z</time></trkpt><trkpt lat="58.74949333" lon="14.79022833"><ele>121.0</ele><time>2016-06-18T10:14:18.282Z</time></trkpt><trkpt lat="58.74949333" lon="14.79022833"><ele>121.0</ele><time>2016-06-18T10:14:19.319Z</time></trkpt><trkpt lat="58.749655" lon="14.790335"><ele>121.0</ele><time>2016-06-18T10:14:20.287Z</time></trkpt><trkpt lat="58.74972833" lon="14.79039333"><ele>121.0</ele><time>2016-06-18T10:14:21.303Z</time></trkpt><trkpt lat="58.74972833" lon="14.79039333"><ele>121.0</ele><time>2016-06-18T10:14:22.302Z</time></trkpt><trkpt lat="58.74989833" lon="14.79051333"><ele>121.0</ele><time>2016-06-18T10:14:23.309Z</time></trkpt><trkpt lat="58.74989833" lon="14.79051333"><ele>121.0</ele><time>2016-06-18T10:14:24.290Z</time></trkpt><trkpt lat="58.75007167" lon="14.79062333"><ele>121.0</ele><time>2016-06-18T10:14:25.308Z</time></trkpt><trkpt lat="58.750155" lon="14.79068"><ele>121.0</ele><time>2016-06-18T10:14:26.311Z</time></trkpt><trkpt lat="58.750155" lon="14.79068"><ele>121.0</ele><time>2016-06-18T10:14:27.292Z</time></trkpt><trkpt lat="58.75031833" lon="14.79078667"><ele>121.0</ele><time>2016-06-18T10:14:28.298Z</time></trkpt><trkpt lat="58.75031833" lon="14.79078667"><ele>121.0</ele><time>2016-06-18T10:14:29.282Z</time></trkpt><trkpt lat="58.750485" lon="14.79087333"><ele>121.0</ele><time>2016-06-18T10:14:30.288Z</time></trkpt><trkpt lat="58.75056833" lon="14.79091167"><ele>121.0</ele><time>2016-06-18T10:14:31.309Z</time></trkpt><trkpt lat="58.75065333" lon="14.790955"><ele>121.0</ele><time>2016-06-18T10:14:32.292Z</time></trkpt><trkpt lat="58.75065333" lon="14.790955"><ele>121.0</ele><time>2016-06-18T10:14:33.315Z</time></trkpt><trkpt lat="58.75082333" lon="14.791025"><ele>122.0</ele><time>2016-06-18T10:14:34.322Z</time></trkpt><trkpt lat="58.75082333" lon="14.791025"><ele>122.0</ele><time>2016-06-18T10:14:35.306Z</time></trkpt><trkpt lat="58.75098333" lon="14.79108167"><ele>123.0</ele><time>2016-06-18T10:14:36.303Z</time></trkpt><trkpt lat="58.75098333" lon="14.79108167"><ele>123.0</ele><time>2016-06-18T10:14:37.311Z</time></trkpt><trkpt lat="58.75115667" lon="14.79115833"><ele>122.0</ele><time>2016-06-18T10:14:38.321Z</time></trkpt><trkpt lat="58.75115667" lon="14.79115833"><ele>122.0</ele><time>2016-06-18T10:14:39.306Z</time></trkpt><trkpt lat="58.75131" lon="14.791195"><ele>123.0</ele><time>2016-06-18T10:14:40.311Z</time></trkpt><trkpt lat="58.75131" lon="14.791195"><ele>123.0</ele><time>2016-06-18T10:14:41.319Z</time></trkpt><trkpt lat="58.75145667" lon="14.79123333"><ele>123.0</ele><time>2016-06-18T10:14:42.286Z</time></trkpt><trkpt lat="58.75145667" lon="14.79123333"><ele>123.0</ele><time>2016-06-18T10:14:43.307Z</time></trkpt><trkpt lat="58.75159833" lon="14.79126333"><ele>124.0</ele><time>2016-06-18T10:14:44.308Z</time></trkpt><trkpt lat="58.75159833" lon="14.79126333"><ele>124.0</ele><time>2016-06-18T10:14:45.320Z</time></trkpt><trkpt lat="58.75176" lon="14.79128667"><ele>124.0</ele><time>2016-06-18T10:14:46.286Z</time></trkpt><trkpt lat="58.75176" lon="14.79128667"><ele>124.0</ele><time>2016-06-18T10:14:47.307Z</time></trkpt><trkpt lat="58.75192667" lon="14.79132167"><ele>123.0</ele><time>2016-06-18T10:14:48.282Z</time></trkpt><trkpt lat="58.75192667" lon="14.79132167"><ele>123.0</ele><time>2016-06-18T10:14:49.283Z</time></trkpt><trkpt lat="58.75209" lon="14.79135333"><ele>124.0</ele><time>2016-06-18T10:14:50.289Z</time></trkpt><trkpt lat="58.75209" lon="14.79135333"><ele>124.0</ele><time>2016-06-18T10:14:51.292Z</time></trkpt><trkpt lat="58.75226833" lon="14.79137667"><ele>124.0</ele><time>2016-06-18T10:14:52.299Z</time></trkpt><trkpt lat="58.75226833" lon="14.79137667"><ele>124.0</ele><time>2016-06-18T10:14:53.284Z</time></trkpt><trkpt lat="58.75242667" lon="14.79141"><ele>124.0</ele><time>2016-06-18T10:14:54.310Z</time></trkpt><trkpt lat="58.75242667" lon="14.79141"><ele>124.0</ele><time>2016-06-18T10:14:55.321Z</time></trkpt><trkpt lat="58.75257667" lon="14.79144667"><ele>125.0</ele><time>2016-06-18T10:14:56.288Z</time></trkpt><trkpt lat="58.75257667" lon="14.79144667"><ele>125.0</ele><time>2016-06-18T10:14:57.312Z</time></trkpt><trkpt lat="58.75271167" lon="14.79146167"><ele>126.0</ele><time>2016-06-18T10:14:58.312Z</time></trkpt><trkpt lat="58.75271167" lon="14.79146167"><ele>126.0</ele><time>2016-06-18T10:14:59.297Z</time></trkpt><trkpt lat="58.75286333" lon="14.79148167"><ele>127.0</ele><time>2016-06-18T10:15:00.303Z</time></trkpt><trkpt lat="58.75286333" lon="14.79148167"><ele>127.0</ele><time>2016-06-18T10:15:01.286Z</time></trkpt><trkpt lat="58.753005" lon="14.79148"><ele>129.0</ele><time>2016-06-18T10:15:02.308Z</time></trkpt><trkpt lat="58.753005" lon="14.79148"><ele>129.0</ele><time>2016-06-18T10:15:03.307Z</time></trkpt><trkpt lat="58.75314833" lon="14.791485"><ele>131.0</ele><time>2016-06-18T10:15:04.317Z</time></trkpt><trkpt lat="58.75314833" lon="14.791485"><ele>131.0</ele><time>2016-06-18T10:15:05.290Z</time></trkpt><trkpt lat="58.753315" lon="14.79150167"><ele>134.0</ele><time>2016-06-18T10:15:06.297Z</time></trkpt><trkpt lat="58.75340167" lon="14.79153333"><ele>136.0</ele><time>2016-06-18T10:15:07.322Z</time></trkpt><trkpt lat="58.75340167" lon="14.79153333"><ele>136.0</ele><time>2016-06-18T10:15:08.288Z</time></trkpt><trkpt lat="58.75359" lon="14.79159"><ele>137.0</ele><time>2016-06-18T10:15:09.296Z</time></trkpt><trkpt lat="58.75359" lon="14.79159"><ele>137.0</ele><time>2016-06-18T10:15:10.319Z</time></trkpt><trkpt lat="58.75375333" lon="14.79162667"><ele>139.0</ele><time>2016-06-18T10:15:11.325Z</time></trkpt><trkpt lat="58.75375333" lon="14.79162667"><ele>139.0</ele><time>2016-06-18T10:15:12.319Z</time></trkpt><trkpt lat="58.753935" lon="14.79170167"><ele>138.0</ele><time>2016-06-18T10:15:13.287Z</time></trkpt><trkpt lat="58.75403667" lon="14.79173833"><ele>136.0</ele><time>2016-06-18T10:15:14.309Z</time></trkpt><trkpt lat="58.75403667" lon="14.79173833"><ele>136.0</ele><time>2016-06-18T10:15:15.290Z</time></trkpt><trkpt lat="58.75421333" lon="14.79181"><ele>135.0</ele><time>2016-06-18T10:15:16.296Z</time></trkpt><trkpt lat="58.75421333" lon="14.79181"><ele>135.0</ele><time>2016-06-18T10:15:17.319Z</time></trkpt><trkpt lat="58.75440167" lon="14.79187833"><ele>134.0</ele><time>2016-06-18T10:15:18.300Z</time></trkpt><trkpt lat="58.75440167" lon="14.79187833"><ele>134.0</ele><time>2016-06-18T10:15:19.284Z</time></trkpt><trkpt lat="58.75459333" lon="14.79194667"><ele>131.0</ele><time>2016-06-18T10:15:20.290Z</time></trkpt><trkpt lat="58.75459333" lon="14.79194667"><ele>131.0</ele><time>2016-06-18T10:15:21.300Z</time></trkpt><trkpt lat="58.75476833" lon="14.79199333"><ele>131.0</ele><time>2016-06-18T10:15:22.306Z</time></trkpt><trkpt lat="58.75485333" lon="14.79201333"><ele>131.0</ele><time>2016-06-18T10:15:23.290Z</time></trkpt><trkpt lat="58.75485333" lon="14.79201333"><ele>131.0</ele><time>2016-06-18T10:15:24.305Z</time></trkpt><trkpt lat="58.75501333" lon="14.79205"><ele>131.0</ele><time>2016-06-18T10:15:25.314Z</time></trkpt><trkpt lat="58.75509" lon="14.79207333"><ele>131.0</ele><time>2016-06-18T10:15:26.299Z</time></trkpt><trkpt lat="58.75509" lon="14.79207333"><ele>131.0</ele><time>2016-06-18T10:15:27.291Z</time></trkpt><trkpt lat="58.75524333" lon="14.792115"><ele>131.0</ele><time>2016-06-18T10:15:28.298Z</time></trkpt><trkpt lat="58.75524333" lon="14.792115"><ele>131.0</ele><time>2016-06-18T10:15:29.320Z</time></trkpt><trkpt lat="58.75539667" lon="14.79215333"><ele>132.0</ele><time>2016-06-18T10:15:30.308Z</time></trkpt><trkpt lat="58.75539667" lon="14.79215333"><ele>132.0</ele><time>2016-06-18T10:15:31.307Z</time></trkpt><trkpt lat="58.75555167" lon="14.79218"><ele>133.0</ele><time>2016-06-18T10:15:32.313Z</time></trkpt><trkpt lat="58.75555167" lon="14.79218"><ele>133.0</ele><time>2016-06-18T10:15:33.294Z</time></trkpt><trkpt lat="58.75569667" lon="14.7922"><ele>133.0</ele><time>2016-06-18T10:15:34.308Z</time></trkpt><trkpt lat="58.75569667" lon="14.7922"><ele>133.0</ele><time>2016-06-18T10:15:35.314Z</time></trkpt><trkpt lat="58.75583" lon="14.79222333"><ele>133.0</ele><time>2016-06-18T10:15:36.293Z</time></trkpt><trkpt lat="58.75589833" lon="14.79224167"><ele>133.0</ele><time>2016-06-18T10:15:37.290Z</time></trkpt><trkpt lat="58.75597" lon="14.79226167"><ele>133.0</ele><time>2016-06-18T10:15:38.321Z</time></trkpt><trkpt lat="58.75597" lon="14.79226167"><ele>133.0</ele><time>2016-06-18T10:15:39.305Z</time></trkpt><trkpt lat="58.75611833" lon="14.792315"><ele>134.0</ele><time>2016-06-18T10:15:40.317Z</time></trkpt><trkpt lat="58.75611833" lon="14.792315"><ele>134.0</ele><time>2016-06-18T10:15:41.290Z</time></trkpt><trkpt lat="58.75626333" lon="14.792325"><ele>134.0</ele><time>2016-06-18T10:15:42.297Z</time></trkpt><trkpt lat="58.75626333" lon="14.792325"><ele>134.0</ele><time>2016-06-18T10:15:43.318Z</time></trkpt><trkpt lat="58.75639667" lon="14.79235"><ele>135.0</ele><time>2016-06-18T10:15:44.308Z</time></trkpt><trkpt lat="58.75639667" lon="14.79235"><ele>135.0</ele><time>2016-06-18T10:15:45.303Z</time></trkpt><trkpt lat="58.75655167" lon="14.79240667"><ele>135.0</ele><time>2016-06-18T10:15:46.310Z</time></trkpt><trkpt lat="58.75662667" lon="14.792425"><ele>135.0</ele><time>2016-06-18T10:15:47.317Z</time></trkpt><trkpt lat="58.75670333" lon="14.79243167"><ele>136.0</ele><time>2016-06-18T10:15:48.283Z</time></trkpt><trkpt lat="58.75670333" lon="14.79243167"><ele>136.0</ele><time>2016-06-18T10:15:49.287Z</time></trkpt><trkpt lat="58.756865" lon="14.79245333"><ele>137.0</ele><time>2016-06-18T10:15:50.308Z</time></trkpt><trkpt lat="58.756865" lon="14.79245333"><ele>137.0</ele><time>2016-06-18T10:15:51.286Z</time></trkpt><trkpt lat="58.75702333" lon="14.79247333"><ele>138.0</ele><time>2016-06-18T10:15:52.293Z</time></trkpt><trkpt lat="58.75709833" lon="14.79248667"><ele>138.0</ele><time>2016-06-18T10:15:53.321Z</time></trkpt><trkpt lat="58.75709833" lon="14.79248667"><ele>138.0</ele><time>2016-06-18T10:15:54.301Z</time></trkpt><trkpt lat="58.75727167" lon="14.79252"><ele>138.0</ele><time>2016-06-18T10:15:55.307Z</time></trkpt><trkpt lat="58.757355" lon="14.79254167"><ele>137.0</ele><time>2016-06-18T10:15:56.293Z</time></trkpt><trkpt lat="58.757355" lon="14.79254167"><ele>137.0</ele><time>2016-06-18T10:15:57.317Z</time></trkpt><trkpt lat="58.75753833" lon="14.79260167"><ele>136.0</ele><time>2016-06-18T10:15:58.297Z</time></trkpt><trkpt lat="58.75753833" lon="14.79260167"><ele>136.0</ele><time>2016-06-18T10:15:59.320Z</time></trkpt><trkpt lat="58.75771167" lon="14.792645"><ele>136.0</ele><time>2016-06-18T10:16:00.290Z</time></trkpt><trkpt lat="58.75779667" lon="14.79266167"><ele>136.0</ele><time>2016-06-18T10:16:01.318Z</time></trkpt><trkpt lat="58.75779667" lon="14.79266167"><ele>136.0</ele><time>2016-06-18T10:16:02.297Z</time></trkpt><trkpt lat="58.757955" lon="14.79269333"><ele>137.0</ele><time>2016-06-18T10:16:03.305Z</time></trkpt><trkpt lat="58.75803667" lon="14.792715"><ele>137.0</ele><time>2016-06-18T10:16:04.291Z</time></trkpt><trkpt lat="58.758115" lon="14.79273167"><ele>137.0</ele><time>2016-06-18T10:16:05.301Z</time></trkpt><trkpt lat="58.758115" lon="14.79273167"><ele>137.0</ele><time>2016-06-18T10:16:06.287Z</time></trkpt><trkpt lat="58.75828" lon="14.792765"><ele>136.0</ele><time>2016-06-18T10:16:07.306Z</time></trkpt><trkpt lat="58.75836167" lon="14.79278833"><ele>136.0</ele><time>2016-06-18T10:16:08.299Z</time></trkpt><trkpt lat="58.75836167" lon="14.79278833"><ele>136.0</ele><time>2016-06-18T10:16:09.282Z</time></trkpt><trkpt lat="58.75853167" lon="14.79285667"><ele>136.0</ele><time>2016-06-18T10:16:10.300Z</time></trkpt><trkpt lat="58.75861" lon="14.79289"><ele>136.0</ele><time>2016-06-18T10:16:11.324Z</time></trkpt><trkpt lat="58.75861" lon="14.79289"><ele>136.0</ele><time>2016-06-18T10:16:12.316Z</time></trkpt><trkpt lat="58.75876833" lon="14.79298167"><ele>136.0</ele><time>2016-06-18T10:16:13.293Z</time></trkpt><trkpt lat="58.75885333" lon="14.79301833"><ele>135.0</ele><time>2016-06-18T10:16:14.315Z</time></trkpt><trkpt lat="58.75885333" lon="14.79301833"><ele>135.0</ele><time>2016-06-18T10:16:15.297Z</time></trkpt><trkpt lat="58.75905167" lon="14.79311833"><ele>134.0</ele><time>2016-06-18T10:16:16.304Z</time></trkpt><trkpt lat="58.75914167" lon="14.793165"><ele>134.0</ele><time>2016-06-18T10:16:17.315Z</time></trkpt><trkpt lat="58.75914167" lon="14.793165"><ele>134.0</ele><time>2016-06-18T10:16:18.284Z</time></trkpt><trkpt lat="58.75931833" lon="14.79326167"><ele>133.0</ele><time>2016-06-18T10:16:19.291Z</time></trkpt><trkpt lat="58.75940333" lon="14.79329667"><ele>133.0</ele><time>2016-06-18T10:16:20.310Z</time></trkpt><trkpt lat="58.75940333" lon="14.79329667"><ele>133.0</ele><time>2016-06-18T10:16:21.292Z</time></trkpt><trkpt lat="58.75958333" lon="14.79339667"><ele>132.0</ele><time>2016-06-18T10:16:22.299Z</time></trkpt><trkpt lat="58.75958333" lon="14.79339667"><ele>132.0</ele><time>2016-06-18T10:16:23.309Z</time></trkpt><trkpt lat="58.75977167" lon="14.79351167"><ele>133.0</ele><time>2016-06-18T10:16:24.319Z</time></trkpt><trkpt lat="58.75977167" lon="14.79351167"><ele>133.0</ele><time>2016-06-18T10:16:25.304Z</time></trkpt><trkpt lat="58.75996" lon="14.79364833"><ele>132.0</ele><time>2016-06-18T10:16:26.306Z</time></trkpt><trkpt lat="58.75996" lon="14.79364833"><ele>132.0</ele><time>2016-06-18T10:16:27.320Z</time></trkpt><trkpt lat="58.760155" lon="14.793785"><ele>132.0</ele><time>2016-06-18T10:16:28.287Z</time></trkpt><trkpt lat="58.760155" lon="14.793785"><ele>132.0</ele><time>2016-06-18T10:16:29.309Z</time></trkpt><trkpt lat="58.76037333" lon="14.79396333"><ele>131.0</ele><time>2016-06-18T10:16:30.313Z</time></trkpt><trkpt lat="58.76037333" lon="14.79396333"><ele>131.0</ele><time>2016-06-18T10:16:31.320Z</time></trkpt><trkpt lat="58.76058667" lon="14.794145"><ele>130.0</ele><time>2016-06-18T10:16:32.288Z</time></trkpt><trkpt lat="58.76058667" lon="14.794145"><ele>130.0</ele><time>2016-06-18T10:16:33.311Z</time></trkpt><trkpt lat="58.7608" lon="14.79432833"><ele>129.0</ele><time>2016-06-18T10:16:34.306Z</time></trkpt><trkpt lat="58.7608" lon="14.79432833"><ele>129.0</ele><time>2016-06-18T10:16:35.290Z</time></trkpt><trkpt lat="58.76100667" lon="14.79452167"><ele>128.0</ele><time>2016-06-18T10:16:36.296Z</time></trkpt><trkpt lat="58.76110667" lon="14.79462"><ele>128.0</ele><time>2016-06-18T10:16:37.306Z</time></trkpt><trkpt lat="58.76121" lon="14.79471667"><ele>128.0</ele><time>2016-06-18T10:16:38.298Z</time></trkpt><trkpt lat="58.76121" lon="14.79471667"><ele>128.0</ele><time>2016-06-18T10:16:39.320Z</time></trkpt><trkpt lat="58.76142167" lon="14.79492"><ele>127.0</ele><time>2016-06-18T10:16:40.311Z</time></trkpt><trkpt lat="58.76142167" lon="14.79492"><ele>127.0</ele><time>2016-06-18T10:16:41.305Z</time></trkpt><trkpt lat="58.761615" lon="14.79512333"><ele>127.0</ele><time>2016-06-18T10:16:42.321Z</time></trkpt><trkpt lat="58.76171" lon="14.79522167"><ele>126.0</ele><time>2016-06-18T10:16:43.308Z</time></trkpt><trkpt lat="58.76181333" lon="14.79531833"><ele>126.0</ele><time>2016-06-18T10:16:44.284Z</time></trkpt><trkpt lat="58.76181333" lon="14.79531833"><ele>126.0</ele><time>2016-06-18T10:16:45.305Z</time></trkpt><trkpt lat="58.76202167" lon="14.79551833"><ele>126.0</ele><time>2016-06-18T10:16:46.314Z</time></trkpt><trkpt lat="58.762125" lon="14.79562333"><ele>126.0</ele><time>2016-06-18T10:16:47.282Z</time></trkpt><trkpt lat="58.76222167" lon="14.79572667"><ele>125.0</ele><time>2016-06-18T10:16:48.288Z</time></trkpt><trkpt lat="58.76222167" lon="14.79572667"><ele>125.0</ele><time>2016-06-18T10:16:49.294Z</time></trkpt><trkpt lat="58.76242833" lon="14.79593"><ele>125.0</ele><time>2016-06-18T10:16:50.300Z</time></trkpt><trkpt lat="58.76242833" lon="14.79593"><ele>125.0</ele><time>2016-06-18T10:16:51.293Z</time></trkpt><trkpt lat="58.76263667" lon="14.79613167"><ele>124.0</ele><time>2016-06-18T10:16:52.300Z</time></trkpt><trkpt lat="58.76263667" lon="14.79613167"><ele>124.0</ele><time>2016-06-18T10:16:53.283Z</time></trkpt><trkpt lat="58.76284833" lon="14.79633667"><ele>122.0</ele><time>2016-06-18T10:16:54.321Z</time></trkpt><trkpt lat="58.76284833" lon="14.79633667"><ele>122.0</ele><time>2016-06-18T10:16:55.297Z</time></trkpt><trkpt lat="58.763055" lon="14.79652833"><ele>122.0</ele><time>2016-06-18T10:16:56.304Z</time></trkpt><trkpt lat="58.763055" lon="14.79652833"><ele>122.0</ele><time>2016-06-18T10:16:57.286Z</time></trkpt><trkpt lat="58.76327667" lon="14.79671167"><ele>121.0</ele><time>2016-06-18T10:16:58.293Z</time></trkpt><trkpt lat="58.76327667" lon="14.79671167"><ele>121.0</ele><time>2016-06-18T10:16:59.306Z</time></trkpt><trkpt lat="58.763505" lon="14.79688667"><ele>119.0</ele><time>2016-06-18T10:17:00.313Z</time></trkpt><trkpt lat="58.763505" lon="14.79688667"><ele>119.0</ele><time>2016-06-18T10:17:01.295Z</time></trkpt><trkpt lat="58.76373167" lon="14.79704833"><ele>118.0</ele><time>2016-06-18T10:17:02.289Z</time></trkpt><trkpt lat="58.76373167" lon="14.79704833"><ele>118.0</ele><time>2016-06-18T10:17:03.289Z</time></trkpt><trkpt lat="58.763945" lon="14.79718667"><ele>116.0</ele><time>2016-06-18T10:17:04.295Z</time></trkpt><trkpt lat="58.763945" lon="14.79718667"><ele>116.0</ele><time>2016-06-18T10:17:05.320Z</time></trkpt><trkpt lat="58.76415667" lon="14.79731833"><ele>115.0</ele><time>2016-06-18T10:17:06.288Z</time></trkpt><trkpt lat="58.76426167" lon="14.79738167"><ele>115.0</ele><time>2016-06-18T10:17:07.314Z</time></trkpt><trkpt lat="58.76437" lon="14.79744"><ele>114.0</ele><time>2016-06-18T10:17:08.283Z</time></trkpt><trkpt lat="58.76437" lon="14.79744"><ele>114.0</ele><time>2016-06-18T10:17:09.304Z</time></trkpt><trkpt lat="58.76458667" lon="14.79755167"><ele>113.0</ele><time>2016-06-18T10:17:10.306Z</time></trkpt><trkpt lat="58.76458667" lon="14.79755167"><ele>113.0</ele><time>2016-06-18T10:17:11.331Z</time></trkpt><trkpt lat="58.76480667" lon="14.79765333"><ele>112.0</ele><time>2016-06-18T10:17:12.288Z</time></trkpt><trkpt lat="58.76491667" lon="14.7977"><ele>112.0</ele><time>2016-06-18T10:17:13.310Z</time></trkpt><trkpt lat="58.76502667" lon="14.79774667"><ele>111.0</ele><time>2016-06-18T10:17:14.319Z</time></trkpt><trkpt lat="58.76502667" lon="14.79774667"><ele>111.0</ele><time>2016-06-18T10:17:15.319Z</time></trkpt><trkpt lat="58.76524333" lon="14.79782167"><ele>111.0</ele><time>2016-06-18T10:17:16.286Z</time></trkpt><trkpt lat="58.76535333" lon="14.79785333"><ele>111.0</ele><time>2016-06-18T10:17:17.308Z</time></trkpt><trkpt lat="58.76546" lon="14.79788"><ele>110.0</ele><time>2016-06-18T10:17:18.291Z</time></trkpt><trkpt lat="58.76546" lon="14.79788"><ele>110.0</ele><time>2016-06-18T10:17:19.313Z</time></trkpt><trkpt lat="58.76566667" lon="14.79792667"><ele>110.0</ele><time>2016-06-18T10:17:20.289Z</time></trkpt><trkpt lat="58.76566667" lon="14.79792667"><ele>110.0</ele><time>2016-06-18T10:17:21.300Z</time></trkpt><trkpt lat="58.765865" lon="14.79797167"><ele>110.0</ele><time>2016-06-18T10:17:22.307Z</time></trkpt><trkpt lat="58.765865" lon="14.79797167"><ele>110.0</ele><time>2016-06-18T10:17:23.289Z</time></trkpt><trkpt lat="58.76606167" lon="14.79801"><ele>110.0</ele><time>2016-06-18T10:17:24.321Z</time></trkpt><trkpt lat="58.76606167" lon="14.79801"><ele>110.0</ele><time>2016-06-18T10:17:25.293Z</time></trkpt><trkpt lat="58.76626333" lon="14.79804167"><ele>109.0</ele><time>2016-06-18T10:17:26.305Z</time></trkpt><trkpt lat="58.766365" lon="14.79804833"><ele>109.0</ele><time>2016-06-18T10:17:27.284Z</time></trkpt><trkpt lat="58.766365" lon="14.79804833"><ele>109.0</ele><time>2016-06-18T10:17:28.306Z</time></trkpt><trkpt lat="58.76656667" lon="14.79805667"><ele>108.0</ele><time>2016-06-18T10:17:29.319Z</time></trkpt><trkpt lat="58.76666667" lon="14.798055"><ele>108.0</ele><time>2016-06-18T10:17:30.306Z</time></trkpt><trkpt lat="58.76666667" lon="14.798055"><ele>108.0</ele><time>2016-06-18T10:17:31.320Z</time></trkpt><trkpt lat="58.766865" lon="14.79804833"><ele>108.0</ele><time>2016-06-18T10:17:32.290Z</time></trkpt><trkpt lat="58.766965" lon="14.79804167"><ele>108.0</ele><time>2016-06-18T10:17:33.312Z</time></trkpt><trkpt lat="58.766965" lon="14.79804167"><ele>108.0</ele><time>2016-06-18T10:17:34.293Z</time></trkpt><trkpt lat="58.767165" lon="14.79801833"><ele>108.0</ele><time>2016-06-18T10:17:35.301Z</time></trkpt><trkpt lat="58.767165" lon="14.79801833"><ele>108.0</ele><time>2016-06-18T10:17:36.320Z</time></trkpt><trkpt lat="58.76736" lon="14.79798667"><ele>108.0</ele><time>2016-06-18T10:17:37.292Z</time></trkpt><trkpt lat="58.767455" lon="14.79797"><ele>108.0</ele><time>2016-06-18T10:17:38.294Z</time></trkpt><trkpt lat="58.767455" lon="14.79797"><ele>108.0</ele><time>2016-06-18T10:17:39.291Z</time></trkpt><trkpt lat="58.76763667" lon="14.79793333"><ele>108.0</ele><time>2016-06-18T10:17:40.298Z</time></trkpt><trkpt lat="58.76772833" lon="14.79791667"><ele>108.0</ele><time>2016-06-18T10:17:41.302Z</time></trkpt><trkpt lat="58.76782333" lon="14.797905"><ele>109.0</ele><time>2016-06-18T10:17:42.320Z</time></trkpt><trkpt lat="58.76782333" lon="14.797905"><ele>109.0</ele><time>2016-06-18T10:17:43.303Z</time></trkpt><trkpt lat="58.76800667" lon="14.79788"><ele>108.0</ele><time>2016-06-18T10:17:44.307Z</time></trkpt><trkpt lat="58.76800667" lon="14.79788"><ele>108.0</ele><time>2016-06-18T10:17:45.292Z</time></trkpt><trkpt lat="58.7682" lon="14.79785"><ele>108.0</ele><time>2016-06-18T10:17:46.299Z</time></trkpt><trkpt lat="58.768295" lon="14.79783667"><ele>108.0</ele><time>2016-06-18T10:17:47.314Z</time></trkpt><trkpt lat="58.768295" lon="14.79783667"><ele>108.0</ele><time>2016-06-18T10:17:48.296Z</time></trkpt><trkpt lat="58.76848833" lon="14.79780667"><ele>108.0</ele><time>2016-06-18T10:17:49.303Z</time></trkpt><trkpt lat="58.76858667" lon="14.79779167"><ele>108.0</ele><time>2016-06-18T10:17:50.285Z</time></trkpt><trkpt lat="58.76858667" lon="14.79779167"><ele>108.0</ele><time>2016-06-18T10:17:51.310Z</time></trkpt><trkpt lat="58.76877333" lon="14.797765"><ele>108.0</ele><time>2016-06-18T10:17:52.282Z</time></trkpt><trkpt lat="58.76877333" lon="14.797765"><ele>108.0</ele><time>2016-06-18T10:17:53.285Z</time></trkpt><trkpt lat="58.76895667" lon="14.79773833"><ele>108.0</ele><time>2016-06-18T10:17:54.291Z</time></trkpt><trkpt lat="58.76895667" lon="14.79773833"><ele>108.0</ele><time>2016-06-18T10:17:55.317Z</time></trkpt><trkpt lat="58.76914167" lon="14.79770667"><ele>108.0</ele><time>2016-06-18T10:17:56.284Z</time></trkpt><trkpt lat="58.76914167" lon="14.79770667"><ele>108.0</ele><time>2016-06-18T10:17:57.310Z</time></trkpt><trkpt lat="58.76932833" lon="14.79767667"><ele>108.0</ele><time>2016-06-18T10:17:58.318Z</time></trkpt><trkpt lat="58.76932833" lon="14.79767667"><ele>108.0</ele><time>2016-06-18T10:17:59.301Z</time></trkpt><trkpt lat="58.76951167" lon="14.79764333"><ele>108.0</ele><time>2016-06-18T10:18:00.286Z</time></trkpt><trkpt lat="58.76951167" lon="14.79764333"><ele>108.0</ele><time>2016-06-18T10:18:01.306Z</time></trkpt><trkpt lat="58.76968833" lon="14.79761167"><ele>108.0</ele><time>2016-06-18T10:18:02.313Z</time></trkpt><trkpt lat="58.76977667" lon="14.79759667"><ele>109.0</ele><time>2016-06-18T10:18:03.323Z</time></trkpt><trkpt lat="58.76977667" lon="14.79759667"><ele>109.0</ele><time>2016-06-18T10:18:04.290Z</time></trkpt><trkpt lat="58.76995" lon="14.79756167"><ele>109.0</ele><time>2016-06-18T10:18:05.297Z</time></trkpt><trkpt lat="58.77003833" lon="14.797545"><ele>109.0</ele><time>2016-06-18T10:18:06.304Z</time></trkpt><trkpt lat="58.77003833" lon="14.797545"><ele>109.0</ele><time>2016-06-18T10:18:07.304Z</time></trkpt><trkpt lat="58.77021667" lon="14.79752"><ele>109.0</ele><time>2016-06-18T10:18:08.311Z</time></trkpt><trkpt lat="58.77021667" lon="14.79752"><ele>109.0</ele><time>2016-06-18T10:18:09.293Z</time></trkpt><trkpt lat="58.77039333" lon="14.797485"><ele>109.0</ele><time>2016-06-18T10:18:10.322Z</time></trkpt><trkpt lat="58.77039333" lon="14.797485"><ele>109.0</ele><time>2016-06-18T10:18:11.325Z</time></trkpt><trkpt lat="58.77057333" lon="14.79745167"><ele>109.0</ele><time>2016-06-18T10:18:12.302Z</time></trkpt><trkpt lat="58.77057333" lon="14.79745167"><ele>109.0</ele><time>2016-06-18T10:18:13.284Z</time></trkpt><trkpt lat="58.77074667" lon="14.79743"><ele>109.0</ele><time>2016-06-18T10:18:14.290Z</time></trkpt><trkpt lat="58.77074667" lon="14.79743"><ele>109.0</ele><time>2016-06-18T10:18:15.316Z</time></trkpt><trkpt lat="58.770915" lon="14.79740333"><ele>109.0</ele><time>2016-06-18T10:18:16.284Z</time></trkpt><trkpt lat="58.770915" lon="14.79740333"><ele>109.0</ele><time>2016-06-18T10:18:17.320Z</time></trkpt><trkpt lat="58.771075" lon="14.79737667"><ele>108.0</ele><time>2016-06-18T10:18:18.285Z</time></trkpt><trkpt lat="58.771075" lon="14.79737667"><ele>108.0</ele><time>2016-06-18T10:18:19.290Z</time></trkpt><trkpt lat="58.771235" lon="14.79736333"><ele>108.0</ele><time>2016-06-18T10:18:20.296Z</time></trkpt><trkpt lat="58.771315" lon="14.79735667"><ele>108.0</ele><time>2016-06-18T10:18:21.314Z</time></trkpt><trkpt lat="58.771315" lon="14.79735667"><ele>108.0</ele><time>2016-06-18T10:18:22.282Z</time></trkpt><trkpt lat="58.77147333" lon="14.79732667"><ele>108.0</ele><time>2016-06-18T10:18:23.289Z</time></trkpt><trkpt lat="58.77155167" lon="14.797315"><ele>107.0</ele><time>2016-06-18T10:18:24.322Z</time></trkpt><trkpt lat="58.77155167" lon="14.797315"><ele>107.0</ele><time>2016-06-18T10:18:25.291Z</time></trkpt><trkpt lat="58.77171833" lon="14.79729333"><ele>107.0</ele><time>2016-06-18T10:18:26.297Z</time></trkpt><trkpt lat="58.77171833" lon="14.79729333"><ele>107.0</ele><time>2016-06-18T10:18:27.319Z</time></trkpt><trkpt lat="58.77189333" lon="14.79726667"><ele>107.0</ele><time>2016-06-18T10:18:28.306Z</time></trkpt><trkpt lat="58.77189333" lon="14.79726667"><ele>107.0</ele><time>2016-06-18T10:18:29.303Z</time></trkpt><trkpt lat="58.77207" lon="14.79724167"><ele>107.0</ele><time>2016-06-18T10:18:30.309Z</time></trkpt><trkpt lat="58.77216" lon="14.79722833"><ele>106.0</ele><time>2016-06-18T10:18:31.311Z</time></trkpt><trkpt lat="58.77216" lon="14.79722833"><ele>106.0</ele><time>2016-06-18T10:18:32.290Z</time></trkpt><trkpt lat="58.77231667" lon="14.79721333"><ele>105.0</ele><time>2016-06-18T10:18:33.305Z</time></trkpt><trkpt lat="58.77231667" lon="14.79721333"><ele>105.0</ele><time>2016-06-18T10:18:34.290Z</time></trkpt><trkpt lat="58.77247667" lon="14.79719833"><ele>104.0</ele><time>2016-06-18T10:18:35.313Z</time></trkpt><trkpt lat="58.77247667" lon="14.79719833"><ele>104.0</ele><time>2016-06-18T10:18:36.296Z</time></trkpt><trkpt lat="58.77263667" lon="14.79719333"><ele>103.0</ele><time>2016-06-18T10:18:37.303Z</time></trkpt><trkpt lat="58.772715" lon="14.79719167"><ele>102.0</ele><time>2016-06-18T10:18:38.315Z</time></trkpt><trkpt lat="58.772715" lon="14.79719167"><ele>102.0</ele><time>2016-06-18T10:18:39.303Z</time></trkpt><trkpt lat="58.772875" lon="14.79718167"><ele>102.0</ele><time>2016-06-18T10:18:40.310Z</time></trkpt><trkpt lat="58.77295667" lon="14.79717833"><ele>102.0</ele><time>2016-06-18T10:18:41.300Z</time></trkpt><trkpt lat="58.77295667" lon="14.79717833"><ele>102.0</ele><time>2016-06-18T10:18:42.294Z</time></trkpt><trkpt lat="58.77312" lon="14.79718167"><ele>101.0</ele><time>2016-06-18T10:18:43.301Z</time></trkpt><trkpt lat="58.7732" lon="14.79718667"><ele>101.0</ele><time>2016-06-18T10:18:44.306Z</time></trkpt><trkpt lat="58.77327833" lon="14.79719"><ele>101.0</ele><time>2016-06-18T10:18:45.310Z</time></trkpt><trkpt lat="58.77327833" lon="14.79719"><ele>101.0</ele><time>2016-06-18T10:18:46.292Z</time></trkpt><trkpt lat="58.77343" lon="14.79719833"><ele>100.0</ele><time>2016-06-18T10:18:47.317Z</time></trkpt><trkpt lat="58.77350333" lon="14.79720333"><ele>100.0</ele><time>2016-06-18T10:18:48.305Z</time></trkpt><trkpt lat="58.77350333" lon="14.79720333"><ele>100.0</ele><time>2016-06-18T10:18:49.287Z</time></trkpt><trkpt lat="58.77364333" lon="14.797215"><ele>100.0</ele><time>2016-06-18T10:18:50.295Z</time></trkpt><trkpt lat="58.77364333" lon="14.797215"><ele>100.0</ele><time>2016-06-18T10:18:51.319Z</time></trkpt><trkpt lat="58.77377833" lon="14.79722667"><ele>100.0</ele><time>2016-06-18T10:18:52.300Z</time></trkpt><trkpt lat="58.77384667" lon="14.79723333"><ele>100.0</ele><time>2016-06-18T10:18:53.282Z</time></trkpt><trkpt lat="58.77384667" lon="14.79723333"><ele>100.0</ele><time>2016-06-18T10:18:54.304Z</time></trkpt><trkpt lat="58.77398833" lon="14.79724667"><ele>100.0</ele><time>2016-06-18T10:18:55.310Z</time></trkpt><trkpt lat="58.77398833" lon="14.79724667"><ele>100.0</ele><time>2016-06-18T10:18:56.293Z</time></trkpt><trkpt lat="58.77413" lon="14.79726333"><ele>100.0</ele><time>2016-06-18T10:18:57.317Z</time></trkpt><trkpt lat="58.77420167" lon="14.79727333"><ele>100.0</ele><time>2016-06-18T10:18:58.310Z</time></trkpt><trkpt lat="58.77420167" lon="14.79727333"><ele>100.0</ele><time>2016-06-18T10:18:59.292Z</time></trkpt><trkpt lat="58.77434333" lon="14.79729833"><ele>100.0</ele><time>2016-06-18T10:19:00.298Z</time></trkpt><trkpt lat="58.77434333" lon="14.79729833"><ele>100.0</ele><time>2016-06-18T10:19:01.320Z</time></trkpt><trkpt lat="58.77448667" lon="14.79732"><ele>100.0</ele><time>2016-06-18T10:19:02.305Z</time></trkpt><trkpt lat="58.77448667" lon="14.79732"><ele>100.0</ele><time>2016-06-18T10:19:03.295Z</time></trkpt><trkpt lat="58.77463333" lon="14.797345"><ele>101.0</ele><time>2016-06-18T10:19:04.302Z</time></trkpt><trkpt lat="58.77470333" lon="14.79736"><ele>101.0</ele><time>2016-06-18T10:19:05.282Z</time></trkpt><trkpt lat="58.77470333" lon="14.79736"><ele>101.0</ele><time>2016-06-18T10:19:06.295Z</time></trkpt><trkpt lat="58.77484333" lon="14.79738667"><ele>101.0</ele><time>2016-06-18T10:19:07.314Z</time></trkpt><trkpt lat="58.77491333" lon="14.7974"><ele>101.0</ele><time>2016-06-18T10:19:08.296Z</time></trkpt><trkpt lat="58.77491333" lon="14.7974"><ele>101.0</ele><time>2016-06-18T10:19:09.321Z</time></trkpt><trkpt lat="58.77504833" lon="14.79742167"><ele>101.0</ele><time>2016-06-18T10:19:10.289Z</time></trkpt><trkpt lat="58.77504833" lon="14.79742167"><ele>101.0</ele><time>2016-06-18T10:19:11.338Z</time></trkpt><trkpt lat="58.77518333" lon="14.797455"><ele>101.0</ele><time>2016-06-18T10:19:12.289Z</time></trkpt><trkpt lat="58.77525" lon="14.79747333"><ele>101.0</ele><time>2016-06-18T10:19:13.312Z</time></trkpt><trkpt lat="58.77525" lon="14.79747333"><ele>101.0</ele><time>2016-06-18T10:19:14.283Z</time></trkpt><trkpt lat="58.77539167" lon="14.79751667"><ele>101.0</ele><time>2016-06-18T10:19:15.290Z</time></trkpt><trkpt lat="58.77546167" lon="14.79753167"><ele>101.0</ele><time>2016-06-18T10:19:16.306Z</time></trkpt><trkpt lat="58.77546167" lon="14.79753167"><ele>101.0</ele><time>2016-06-18T10:19:17.303Z</time></trkpt><trkpt lat="58.77560333" lon="14.79757667"><ele>102.0</ele><time>2016-06-18T10:19:18.308Z</time></trkpt><trkpt lat="58.775675" lon="14.79760167"><ele>102.0</ele><time>2016-06-18T10:19:19.284Z</time></trkpt><trkpt lat="58.77574667" lon="14.79762667"><ele>102.0</ele><time>2016-06-18T10:19:20.290Z</time></trkpt><trkpt lat="58.77574667" lon="14.79762667"><ele>102.0</ele><time>2016-06-18T10:19:21.312Z</time></trkpt><trkpt lat="58.77589667" lon="14.79767667"><ele>102.0</ele><time>2016-06-18T10:19:22.296Z</time></trkpt><trkpt lat="58.77597167" lon="14.79770167"><ele>102.0</ele><time>2016-06-18T10:19:23.282Z</time></trkpt><trkpt lat="58.77597167" lon="14.79770167"><ele>102.0</ele><time>2016-06-18T10:19:24.305Z</time></trkpt><trkpt lat="58.77612333" lon="14.79774667"><ele>103.0</ele><time>2016-06-18T10:19:25.313Z</time></trkpt><trkpt lat="58.77619833" lon="14.79777333"><ele>103.0</ele><time>2016-06-18T10:19:26.295Z</time></trkpt><trkpt lat="58.77619833" lon="14.79777333"><ele>103.0</ele><time>2016-06-18T10:19:27.299Z</time></trkpt><trkpt lat="58.77635" lon="14.79783"><ele>103.0</ele><time>2016-06-18T10:19:28.309Z</time></trkpt><trkpt lat="58.776425" lon="14.79785667"><ele>103.0</ele><time>2016-06-18T10:19:29.291Z</time></trkpt><trkpt lat="58.77649833" lon="14.797885"><ele>103.0</ele><time>2016-06-18T10:19:30.290Z</time></trkpt><trkpt lat="58.77649833" lon="14.797885"><ele>103.0</ele><time>2016-06-18T10:19:31.294Z</time></trkpt><trkpt lat="58.776645" lon="14.79793833"><ele>103.0</ele><time>2016-06-18T10:19:32.300Z</time></trkpt><trkpt lat="58.776645" lon="14.79793833"><ele>103.0</ele><time>2016-06-18T10:19:33.283Z</time></trkpt><trkpt lat="58.77679833" lon="14.79800167"><ele>103.0</ele><time>2016-06-18T10:19:34.317Z</time></trkpt><trkpt lat="58.77679833" lon="14.79800167"><ele>103.0</ele><time>2016-06-18T10:19:35.301Z</time></trkpt><trkpt lat="58.77695167" lon="14.79807833"><ele>103.0</ele><time>2016-06-18T10:19:36.307Z</time></trkpt><trkpt lat="58.77703" lon="14.79812"><ele>102.0</ele><time>2016-06-18T10:19:37.295Z</time></trkpt><trkpt lat="58.777105" lon="14.79816833"><ele>102.0</ele><time>2016-06-18T10:19:38.305Z</time></trkpt><trkpt lat="58.777105" lon="14.79816833"><ele>102.0</ele><time>2016-06-18T10:19:39.287Z</time></trkpt><trkpt lat="58.77726" lon="14.79826"><ele>102.0</ele><time>2016-06-18T10:19:40.304Z</time></trkpt><trkpt lat="58.777335" lon="14.79830333"><ele>102.0</ele><time>2016-06-18T10:19:41.313Z</time></trkpt><trkpt lat="58.777335" lon="14.79830333"><ele>102.0</ele><time>2016-06-18T10:19:42.293Z</time></trkpt><trkpt lat="58.77748667" lon="14.798395"><ele>101.0</ele><time>2016-06-18T10:19:43.305Z</time></trkpt><trkpt lat="58.777565" lon="14.79844333"><ele>101.0</ele><time>2016-06-18T10:19:44.283Z</time></trkpt><trkpt lat="58.777565" lon="14.79844333"><ele>101.0</ele><time>2016-06-18T10:19:45.306Z</time></trkpt><trkpt lat="58.777725" lon="14.79855333"><ele>101.0</ele><time>2016-06-18T10:19:46.319Z</time></trkpt><trkpt lat="58.77780667" lon="14.798615"><ele>100.0</ele><time>2016-06-18T10:19:47.302Z</time></trkpt><trkpt lat="58.77780667" lon="14.798615"><ele>100.0</ele><time>2016-06-18T10:19:48.288Z</time></trkpt><trkpt lat="58.77797167" lon="14.79874167"><ele>100.0</ele><time>2016-06-18T10:19:49.294Z</time></trkpt><trkpt lat="58.77805833" lon="14.79880667"><ele>100.0</ele><time>2016-06-18T10:19:50.317Z</time></trkpt><trkpt lat="58.77805833" lon="14.79880667"><ele>100.0</ele><time>2016-06-18T10:19:51.299Z</time></trkpt><trkpt lat="58.77822833" lon="14.79894833"><ele>99.0</ele><time>2016-06-18T10:19:52.306Z</time></trkpt><trkpt lat="58.77822833" lon="14.79894833"><ele>99.0</ele><time>2016-06-18T10:19:53.300Z</time></trkpt><trkpt lat="58.77840167" lon="14.79909667"><ele>99.0</ele><time>2016-06-18T10:19:54.306Z</time></trkpt><trkpt lat="58.77840167" lon="14.79909667"><ele>99.0</ele><time>2016-06-18T10:19:55.289Z</time></trkpt><trkpt lat="58.77857667" lon="14.79925167"><ele>99.0</ele><time>2016-06-18T10:19:56.315Z</time></trkpt><trkpt lat="58.77857667" lon="14.79925167"><ele>99.0</ele><time>2016-06-18T10:19:57.289Z</time></trkpt><trkpt lat="58.77875" lon="14.79941833"><ele>99.0</ele><time>2016-06-18T10:19:58.295Z</time></trkpt><trkpt lat="58.778835" lon="14.79950667"><ele>98.0</ele><time>2016-06-18T10:19:59.284Z</time></trkpt><trkpt lat="58.77891833" lon="14.7996"><ele>98.0</ele><time>2016-06-18T10:20:00.302Z</time></trkpt><trkpt lat="58.77891833" lon="14.7996"><ele>98.0</ele><time>2016-06-18T10:20:01.284Z</time></trkpt><trkpt lat="58.77908667" lon="14.79980333"><ele>98.0</ele><time>2016-06-18T10:20:02.291Z</time></trkpt><trkpt lat="58.77917167" lon="14.79990167"><ele>98.0</ele><time>2016-06-18T10:20:03.315Z</time></trkpt><trkpt lat="58.77917167" lon="14.79990167"><ele>98.0</ele><time>2016-06-18T10:20:04.297Z</time></trkpt><trkpt lat="58.77934" lon="14.8001"><ele>98.0</ele><time>2016-06-18T10:20:05.317Z</time></trkpt><trkpt lat="58.77934" lon="14.8001"><ele>98.0</ele><time>2016-06-18T10:20:06.286Z</time></trkpt><trkpt lat="58.77950667" lon="14.80029667"><ele>97.0</ele><time>2016-06-18T10:20:07.292Z</time></trkpt><trkpt lat="58.77958667" lon="14.80039833"><ele>97.0</ele><time>2016-06-18T10:20:08.284Z</time></trkpt><trkpt lat="58.77958667" lon="14.80039833"><ele>97.0</ele><time>2016-06-18T10:20:09.319Z</time></trkpt><trkpt lat="58.77974667" lon="14.80061"><ele>97.0</ele><time>2016-06-18T10:20:10.286Z</time></trkpt><trkpt lat="58.77974667" lon="14.80061"><ele>97.0</ele><time>2016-06-18T10:20:11.340Z</time></trkpt><trkpt lat="58.779905" lon="14.80083167"><ele>97.0</ele><time>2016-06-18T10:20:12.292Z</time></trkpt><trkpt lat="58.779985" lon="14.800945"><ele>97.0</ele><time>2016-06-18T10:20:13.307Z</time></trkpt><trkpt lat="58.779985" lon="14.800945"><ele>97.0</ele><time>2016-06-18T10:20:14.316Z</time></trkpt><trkpt lat="58.78014667" lon="14.80118333"><ele>96.0</ele><time>2016-06-18T10:20:15.297Z</time></trkpt><trkpt lat="58.78014667" lon="14.80118333"><ele>96.0</ele><time>2016-06-18T10:20:16.288Z</time></trkpt><trkpt lat="58.78030167" lon="14.80143"><ele>96.0</ele><time>2016-06-18T10:20:17.299Z</time></trkpt><trkpt lat="58.78030167" lon="14.80143"><ele>96.0</ele><time>2016-06-18T10:20:18.283Z</time></trkpt><trkpt lat="58.78046167" lon="14.80167833"><ele>96.0</ele><time>2016-06-18T10:20:19.294Z</time></trkpt><trkpt lat="58.78046167" lon="14.80167833"><ele>96.0</ele><time>2016-06-18T10:20:20.319Z</time></trkpt><trkpt lat="58.78062167" lon="14.80193833"><ele>95.0</ele><time>2016-06-18T10:20:21.287Z</time></trkpt><trkpt lat="58.78062167" lon="14.80193833"><ele>95.0</ele><time>2016-06-18T10:20:22.294Z</time></trkpt><trkpt lat="58.78077667" lon="14.8022"><ele>95.0</ele><time>2016-06-18T10:20:23.309Z</time></trkpt><trkpt lat="58.78077667" lon="14.8022"><ele>95.0</ele><time>2016-06-18T10:20:24.296Z</time></trkpt><trkpt lat="58.78092833" lon="14.80247333"><ele>95.0</ele><time>2016-06-18T10:20:25.305Z</time></trkpt><trkpt lat="58.78092833" lon="14.80247333"><ele>95.0</ele><time>2016-06-18T10:20:26.286Z</time></trkpt><trkpt lat="58.78107167" lon="14.80276"><ele>95.0</ele><time>2016-06-18T10:20:27.300Z</time></trkpt><trkpt lat="58.78107167" lon="14.80276"><ele>95.0</ele><time>2016-06-18T10:20:28.292Z</time></trkpt><trkpt lat="58.78120833" lon="14.803055"><ele>95.0</ele><time>2016-06-18T10:20:29.308Z</time></trkpt><trkpt lat="58.78120833" lon="14.803055"><ele>95.0</ele><time>2016-06-18T10:20:30.308Z</time></trkpt><trkpt lat="58.78134333" lon="14.80335333"><ele>95.0</ele><time>2016-06-18T10:20:31.322Z</time></trkpt><trkpt lat="58.78141" lon="14.803505"><ele>95.0</ele><time>2016-06-18T10:20:32.315Z</time></trkpt><trkpt lat="58.78141" lon="14.803505"><ele>95.0</ele><time>2016-06-18T10:20:33.289Z</time></trkpt><trkpt lat="58.78153833" lon="14.80380833"><ele>96.0</ele><time>2016-06-18T10:20:34.322Z</time></trkpt><trkpt lat="58.78160333" lon="14.80396"><ele>96.0</ele><time>2016-06-18T10:20:35.312Z</time></trkpt><trkpt lat="58.78160333" lon="14.80396"><ele>96.0</ele><time>2016-06-18T10:20:36.298Z</time></trkpt><trkpt lat="58.78173333" lon="14.80426"><ele>96.0</ele><time>2016-06-18T10:20:37.315Z</time></trkpt><trkpt lat="58.7818" lon="14.80441"><ele>96.0</ele><time>2016-06-18T10:20:38.289Z</time></trkpt><trkpt lat="58.7818" lon="14.80441"><ele>96.0</ele><time>2016-06-18T10:20:39.297Z</time></trkpt><trkpt lat="58.78193333" lon="14.80471333"><ele>95.0</ele><time>2016-06-18T10:20:40.308Z</time></trkpt><trkpt lat="58.78193333" lon="14.80471333"><ele>95.0</ele><time>2016-06-18T10:20:41.289Z</time></trkpt><trkpt lat="58.78206333" lon="14.80501333"><ele>95.0</ele><time>2016-06-18T10:20:42.297Z</time></trkpt><trkpt lat="58.78212833" lon="14.80516333"><ele>95.0</ele><time>2016-06-18T10:20:43.287Z</time></trkpt><trkpt lat="58.78219333" lon="14.80531333"><ele>95.0</ele><time>2016-06-18T10:20:44.302Z</time></trkpt><trkpt lat="58.78219333" lon="14.80531333"><ele>95.0</ele><time>2016-06-18T10:20:45.284Z</time></trkpt><trkpt lat="58.782325" lon="14.80561167"><ele>95.0</ele><time>2016-06-18T10:20:46.297Z</time></trkpt><trkpt lat="58.782325" lon="14.80561167"><ele>95.0</ele><time>2016-06-18T10:20:47.291Z</time></trkpt><trkpt lat="58.78245667" lon="14.80591"><ele>94.0</ele><time>2016-06-18T10:20:48.318Z</time></trkpt><trkpt lat="58.78252167" lon="14.80606"><ele>95.0</ele><time>2016-06-18T10:20:49.282Z</time></trkpt><trkpt lat="58.78258667" lon="14.80621"><ele>95.0</ele><time>2016-06-18T10:20:50.314Z</time></trkpt><trkpt lat="58.78258667" lon="14.80621"><ele>95.0</ele><time>2016-06-18T10:20:51.284Z</time></trkpt><trkpt lat="58.78271167" lon="14.80650333"><ele>95.0</ele><time>2016-06-18T10:20:52.307Z</time></trkpt><trkpt lat="58.78271167" lon="14.80650333"><ele>95.0</ele><time>2016-06-18T10:20:53.305Z</time></trkpt><trkpt lat="58.78283167" lon="14.806785"><ele>94.0</ele><time>2016-06-18T10:20:54.312Z</time></trkpt><trkpt lat="58.78289333" lon="14.806925"><ele>94.0</ele><time>2016-06-18T10:20:55.296Z</time></trkpt><trkpt lat="58.782955" lon="14.807065"><ele>94.0</ele><time>2016-06-18T10:20:56.290Z</time></trkpt><trkpt lat="58.782955" lon="14.807065"><ele>94.0</ele><time>2016-06-18T10:20:57.315Z</time></trkpt><trkpt lat="58.78307833" lon="14.80734667"><ele>94.0</ele><time>2016-06-18T10:20:58.284Z</time></trkpt><trkpt lat="58.78314167" lon="14.80748667"><ele>93.0</ele><time>2016-06-18T10:20:59.309Z</time></trkpt><trkpt lat="58.78314167" lon="14.80748667"><ele>93.0</ele><time>2016-06-18T10:21:00.321Z</time></trkpt><trkpt lat="58.78326333" lon="14.80777"><ele>93.0</ele><time>2016-06-18T10:21:01.289Z</time></trkpt><trkpt lat="58.783325" lon="14.80791167"><ele>93.0</ele><time>2016-06-18T10:21:02.313Z</time></trkpt><trkpt lat="58.78338833" lon="14.80805333"><ele>93.0</ele><time>2016-06-18T10:21:03.312Z</time></trkpt><trkpt lat="58.78338833" lon="14.80805333"><ele>93.0</ele><time>2016-06-18T10:21:04.298Z</time></trkpt><trkpt lat="58.78351333" lon="14.80833833"><ele>93.0</ele><time>2016-06-18T10:21:05.286Z</time></trkpt><trkpt lat="58.78357667" lon="14.80848"><ele>92.0</ele><time>2016-06-18T10:21:06.319Z</time></trkpt><trkpt lat="58.78357667" lon="14.80848"><ele>92.0</ele><time>2016-06-18T10:21:07.292Z</time></trkpt><trkpt lat="58.78370833" lon="14.80876"><ele>92.0</ele><time>2016-06-18T10:21:08.290Z</time></trkpt><trkpt lat="58.78370833" lon="14.80876"><ele>92.0</ele><time>2016-06-18T10:21:09.297Z</time></trkpt><trkpt lat="58.78384" lon="14.80904167"><ele>92.0</ele><time>2016-06-18T10:21:10.306Z</time></trkpt><trkpt lat="58.78384" lon="14.80904167"><ele>92.0</ele><time>2016-06-18T10:21:11.326Z</time></trkpt><trkpt lat="58.78398" lon="14.80931333"><ele>92.0</ele><time>2016-06-18T10:21:12.321Z</time></trkpt><trkpt lat="58.78405167" lon="14.809445"><ele>92.0</ele><time>2016-06-18T10:21:13.304Z</time></trkpt><trkpt lat="58.784125" lon="14.80957833"><ele>91.0</ele><time>2016-06-18T10:21:14.312Z</time></trkpt><trkpt lat="58.784125" lon="14.80957833"><ele>91.0</ele><time>2016-06-18T10:21:15.295Z</time></trkpt><trkpt lat="58.78427" lon="14.80984833"><ele>91.0</ele><time>2016-06-18T10:21:16.316Z</time></trkpt><trkpt lat="58.78434667" lon="14.809985"><ele>90.0</ele><time>2016-06-18T10:21:17.289Z</time></trkpt><trkpt lat="58.78434667" lon="14.809985"><ele>90.0</ele><time>2016-06-18T10:21:18.314Z</time></trkpt><trkpt lat="58.78450167" lon="14.81025333"><ele>90.0</ele><time>2016-06-18T10:21:19.296Z</time></trkpt><trkpt lat="58.78458" lon="14.810385"><ele>90.0</ele><time>2016-06-18T10:21:20.304Z</time></trkpt><trkpt lat="58.78458" lon="14.810385"><ele>90.0</ele><time>2016-06-18T10:21:21.287Z</time></trkpt><trkpt lat="58.78474167" lon="14.81064"><ele>90.0</ele><time>2016-06-18T10:21:22.307Z</time></trkpt><trkpt lat="58.78482167" lon="14.81076333"><ele>90.0</ele><time>2016-06-18T10:21:23.305Z</time></trkpt><trkpt lat="58.78482167" lon="14.81076333"><ele>90.0</ele><time>2016-06-18T10:21:24.288Z</time></trkpt><trkpt lat="58.784985" lon="14.81100333"><ele>90.0</ele><time>2016-06-18T10:21:25.283Z</time></trkpt><trkpt lat="58.784985" lon="14.81100333"><ele>90.0</ele><time>2016-06-18T10:21:26.312Z</time></trkpt><trkpt lat="58.78514667" lon="14.81122833"><ele>90.0</ele><time>2016-06-18T10:21:27.291Z</time></trkpt><trkpt lat="58.78522667" lon="14.81133167"><ele>90.0</ele><time>2016-06-18T10:21:28.313Z</time></trkpt><trkpt lat="58.78522667" lon="14.81133167"><ele>90.0</ele><time>2016-06-18T10:21:29.317Z</time></trkpt><trkpt lat="58.78538667" lon="14.811525"><ele>90.0</ele><time>2016-06-18T10:21:30.282Z</time></trkpt><trkpt lat="58.78546167" lon="14.81162"><ele>90.0</ele><time>2016-06-18T10:21:31.298Z</time></trkpt><trkpt lat="58.78546167" lon="14.81162"><ele>90.0</ele><time>2016-06-18T10:21:32.305Z</time></trkpt><trkpt lat="58.78554833" lon="14.81187"><ele>89.0</ele><time>2016-06-18T10:21:33.295Z</time></trkpt><trkpt lat="58.78554833" lon="14.81187"><ele>89.0</ele><time>2016-06-18T10:21:34.295Z</time></trkpt><trkpt lat="58.78553667" lon="14.81218833"><ele>89.0</ele><time>2016-06-18T10:21:35.303Z</time></trkpt><trkpt lat="58.78553667" lon="14.81235667"><ele>89.0</ele><time>2016-06-18T10:21:36.307Z</time></trkpt><trkpt lat="58.78553667" lon="14.81235667"><ele>89.0</ele><time>2016-06-18T10:21:37.303Z</time></trkpt><trkpt lat="58.785595" lon="14.81269"><ele>88.0</ele><time>2016-06-18T10:21:38.311Z</time></trkpt><trkpt lat="58.785595" lon="14.81269"><ele>88.0</ele><time>2016-06-18T10:21:39.297Z</time></trkpt><trkpt lat="58.78569167" lon="14.81299167"><ele>88.0</ele><time>2016-06-18T10:21:40.305Z</time></trkpt><trkpt lat="58.785745" lon="14.81313833"><ele>88.0</ele><time>2016-06-18T10:21:41.295Z</time></trkpt><trkpt lat="58.785745" lon="14.81313833"><ele>88.0</ele><time>2016-06-18T10:21:42.309Z</time></trkpt><trkpt lat="58.78585167" lon="14.813425"><ele>88.0</ele><time>2016-06-18T10:21:43.285Z</time></trkpt><trkpt lat="58.78590333" lon="14.81357"><ele>88.0</ele><time>2016-06-18T10:21:44.303Z</time></trkpt><trkpt lat="58.78590333" lon="14.81357"><ele>88.0</ele><time>2016-06-18T10:21:45.306Z</time></trkpt><trkpt lat="58.78601" lon="14.81386333"><ele>88.0</ele><time>2016-06-18T10:21:46.313Z</time></trkpt><trkpt lat="58.78601" lon="14.81386333"><ele>88.0</ele><time>2016-06-18T10:21:47.315Z</time></trkpt><trkpt lat="58.786065" lon="14.81400833"><ele>88.0</ele><time>2016-06-18T10:21:48.288Z</time></trkpt><trkpt lat="58.786175" lon="14.8143"><ele>88.0</ele><time>2016-06-18T10:21:49.302Z</time></trkpt><trkpt lat="58.78622667" lon="14.81445"><ele>88.0</ele><time>2016-06-18T10:21:50.285Z</time></trkpt><trkpt lat="58.78622667" lon="14.81445"><ele>88.0</ele><time>2016-06-18T10:21:51.308Z</time></trkpt><trkpt lat="58.78632" lon="14.81475833"><ele>88.0</ele><time>2016-06-18T10:21:52.318Z</time></trkpt><trkpt lat="58.78635833" lon="14.81491833"><ele>88.0</ele><time>2016-06-18T10:21:53.288Z</time></trkpt><trkpt lat="58.78635833" lon="14.81491833"><ele>88.0</ele><time>2016-06-18T10:21:54.311Z</time></trkpt><trkpt lat="58.78640833" lon="14.81526333"><ele>88.0</ele><time>2016-06-18T10:21:55.317Z</time></trkpt><trkpt lat="58.786425" lon="14.81544167"><ele>88.0</ele><time>2016-06-18T10:21:56.289Z</time></trkpt><trkpt lat="58.786425" lon="14.81544167"><ele>88.0</ele><time>2016-06-18T10:21:57.312Z</time></trkpt><trkpt lat="58.78644333" lon="14.81580667"><ele>89.0</ele><time>2016-06-18T10:21:58.283Z</time></trkpt><trkpt lat="58.78644333" lon="14.81580667"><ele>89.0</ele><time>2016-06-18T10:21:59.288Z</time></trkpt><trkpt lat="58.78644333" lon="14.81617833"><ele>89.0</ele><time>2016-06-18T10:22:00.297Z</time></trkpt><trkpt lat="58.78644333" lon="14.81617833"><ele>89.0</ele><time>2016-06-18T10:22:01.291Z</time></trkpt><trkpt lat="58.78643667" lon="14.816545"><ele>89.0</ele><time>2016-06-18T10:22:02.317Z</time></trkpt><trkpt lat="58.78643667" lon="14.816545"><ele>89.0</ele><time>2016-06-18T10:22:03.309Z</time></trkpt><trkpt lat="58.78642833" lon="14.81691333"><ele>89.0</ele><time>2016-06-18T10:22:04.282Z</time></trkpt><trkpt lat="58.78642667" lon="14.81709667"><ele>89.0</ele><time>2016-06-18T10:22:05.295Z</time></trkpt><trkpt lat="58.786425" lon="14.81728167"><ele>89.0</ele><time>2016-06-18T10:22:06.317Z</time></trkpt><trkpt lat="58.786425" lon="14.81728167"><ele>89.0</ele><time>2016-06-18T10:22:07.303Z</time></trkpt><trkpt lat="58.78642833" lon="14.81765"><ele>89.0</ele><time>2016-06-18T10:22:08.310Z</time></trkpt><trkpt lat="58.78642833" lon="14.81765"><ele>89.0</ele><time>2016-06-18T10:22:09.304Z</time></trkpt><trkpt lat="58.786435" lon="14.81801333"><ele>90.0</ele><time>2016-06-18T10:22:10.319Z</time></trkpt><trkpt lat="58.786435" lon="14.81801333"><ele>90.0</ele><time>2016-06-18T10:22:11.332Z</time></trkpt><trkpt lat="58.78644667" lon="14.81836667"><ele>90.0</ele><time>2016-06-18T10:22:12.283Z</time></trkpt><trkpt lat="58.78645667" lon="14.81854333"><ele>90.0</ele><time>2016-06-18T10:22:13.285Z</time></trkpt><trkpt lat="58.78646833" lon="14.81872167"><ele>91.0</ele><time>2016-06-18T10:22:14.294Z</time></trkpt><trkpt lat="58.78646833" lon="14.81872167"><ele>91.0</ele><time>2016-06-18T10:22:15.317Z</time></trkpt><trkpt lat="58.78649" lon="14.81907333"><ele>91.0</ele><time>2016-06-18T10:22:16.286Z</time></trkpt><trkpt lat="58.78649" lon="14.81907333"><ele>91.0</ele><time>2016-06-18T10:22:17.314Z</time></trkpt><trkpt lat="58.78651" lon="14.81942167"><ele>92.0</ele><time>2016-06-18T10:22:18.284Z</time></trkpt><trkpt lat="58.78652167" lon="14.81959"><ele>92.0</ele><time>2016-06-18T10:22:19.316Z</time></trkpt><trkpt lat="58.78653333" lon="14.81975667"><ele>92.0</ele><time>2016-06-18T10:22:20.289Z</time></trkpt><trkpt lat="58.78653333" lon="14.81975667"><ele>92.0</ele><time>2016-06-18T10:22:21.311Z</time></trkpt><trkpt lat="58.78655667" lon="14.820085"><ele>92.0</ele><time>2016-06-18T10:22:22.297Z</time></trkpt><trkpt lat="58.78656667" lon="14.82025"><ele>92.0</ele><time>2016-06-18T10:22:23.320Z</time></trkpt><trkpt lat="58.78656667" lon="14.82025"><ele>92.0</ele><time>2016-06-18T10:22:24.302Z</time></trkpt><trkpt lat="58.78658833" lon="14.82057333"><ele>93.0</ele><time>2016-06-18T10:22:25.317Z</time></trkpt><trkpt lat="58.78658833" lon="14.82057333"><ele>93.0</ele><time>2016-06-18T10:22:26.295Z</time></trkpt><trkpt lat="58.78661" lon="14.8209"><ele>93.0</ele><time>2016-06-18T10:22:27.302Z</time></trkpt><trkpt lat="58.78661" lon="14.8209"><ele>93.0</ele><time>2016-06-18T10:22:28.288Z</time></trkpt><trkpt lat="58.78663" lon="14.821235"><ele>93.0</ele><time>2016-06-18T10:22:29.307Z</time></trkpt><trkpt lat="58.78663667" lon="14.82140667"><ele>93.0</ele><time>2016-06-18T10:22:30.302Z</time></trkpt><trkpt lat="58.78663667" lon="14.82140667"><ele>93.0</ele><time>2016-06-18T10:22:31.285Z</time></trkpt><trkpt lat="58.78664333" lon="14.82177667"><ele>93.0</ele><time>2016-06-18T10:22:32.295Z</time></trkpt><trkpt lat="58.78664333" lon="14.82177667"><ele>93.0</ele><time>2016-06-18T10:22:33.313Z</time></trkpt><trkpt lat="58.78663833" lon="14.82215167"><ele>93.0</ele><time>2016-06-18T10:22:34.321Z</time></trkpt><trkpt lat="58.78663833" lon="14.82215167"><ele>93.0</ele><time>2016-06-18T10:22:35.303Z</time></trkpt><trkpt lat="58.786615" lon="14.82252667"><ele>92.0</ele><time>2016-06-18T10:22:36.307Z</time></trkpt><trkpt lat="58.786615" lon="14.82252667"><ele>92.0</ele><time>2016-06-18T10:22:37.297Z</time></trkpt><trkpt lat="58.78657667" lon="14.822905"><ele>92.0</ele><time>2016-06-18T10:22:38.304Z</time></trkpt><trkpt lat="58.78657667" lon="14.822905"><ele>92.0</ele><time>2016-06-18T10:22:39.287Z</time></trkpt><trkpt lat="58.786525" lon="14.82327833"><ele>93.0</ele><time>2016-06-18T10:22:40.286Z</time></trkpt><trkpt lat="58.786525" lon="14.82327833"><ele>93.0</ele><time>2016-06-18T10:22:41.300Z</time></trkpt><trkpt lat="58.78646333" lon="14.82364"><ele>93.0</ele><time>2016-06-18T10:22:42.307Z</time></trkpt><trkpt lat="58.78646333" lon="14.82364"><ele>93.0</ele><time>2016-06-18T10:22:43.291Z</time></trkpt><trkpt lat="58.78639167" lon="14.82399333"><ele>93.0</ele><time>2016-06-18T10:22:44.286Z</time></trkpt><trkpt lat="58.78639167" lon="14.82399333"><ele>93.0</ele><time>2016-06-18T10:22:45.311Z</time></trkpt><trkpt lat="58.786315" lon="14.824355"><ele>93.0</ele><time>2016-06-18T10:22:46.319Z</time></trkpt><trkpt lat="58.786275" lon="14.824535"><ele>93.0</ele><time>2016-06-18T10:22:47.307Z</time></trkpt><trkpt lat="58.786275" lon="14.824535"><ele>93.0</ele><time>2016-06-18T10:22:48.294Z</time></trkpt><trkpt lat="58.78619333" lon="14.82491"><ele>92.0</ele><time>2016-06-18T10:22:49.289Z</time></trkpt><trkpt lat="58.78615333" lon="14.825105"><ele>92.0</ele><time>2016-06-18T10:22:50.287Z</time></trkpt><trkpt lat="58.78615333" lon="14.825105"><ele>92.0</ele><time>2016-06-18T10:22:51.310Z</time></trkpt><trkpt lat="58.78607" lon="14.825495"><ele>92.0</ele><time>2016-06-18T10:22:52.290Z</time></trkpt><trkpt lat="58.78603" lon="14.82569333"><ele>92.0</ele><time>2016-06-18T10:22:53.294Z</time></trkpt><trkpt lat="58.78603" lon="14.82569333"><ele>92.0</ele><time>2016-06-18T10:22:54.321Z</time></trkpt><trkpt lat="58.785955" lon="14.82609833"><ele>92.0</ele><time>2016-06-18T10:22:55.313Z</time></trkpt><trkpt lat="58.78592167" lon="14.826305"><ele>93.0</ele><time>2016-06-18T10:22:56.308Z</time></trkpt><trkpt lat="58.78592167" lon="14.826305"><ele>93.0</ele><time>2016-06-18T10:22:57.318Z</time></trkpt><trkpt lat="58.78587333" lon="14.82671667"><ele>93.0</ele><time>2016-06-18T10:22:58.285Z</time></trkpt><trkpt lat="58.78587333" lon="14.82671667"><ele>93.0</ele><time>2016-06-18T10:22:59.302Z</time></trkpt><trkpt lat="58.78585167" lon="14.82712167"><ele>94.0</ele><time>2016-06-18T10:23:00.313Z</time></trkpt><trkpt lat="58.78585167" lon="14.82712167"><ele>94.0</ele><time>2016-06-18T10:23:01.297Z</time></trkpt><trkpt lat="58.78584833" lon="14.82748833"><ele>94.0</ele><time>2016-06-18T10:23:02.304Z</time></trkpt><trkpt lat="58.78585333" lon="14.82766"><ele>94.0</ele><time>2016-06-18T10:23:03.291Z</time></trkpt><trkpt lat="58.78585333" lon="14.82766"><ele>94.0</ele><time>2016-06-18T10:23:04.319Z</time></trkpt><trkpt lat="58.78587333" lon="14.82799667"><ele>94.0</ele><time>2016-06-18T10:23:05.317Z</time></trkpt><trkpt lat="58.78587333" lon="14.82799667"><ele>94.0</ele><time>2016-06-18T10:23:06.284Z</time></trkpt><trkpt lat="58.78591167" lon="14.82833333"><ele>94.0</ele><time>2016-06-18T10:23:07.293Z</time></trkpt><trkpt lat="58.78594" lon="14.82849667"><ele>93.0</ele><time>2016-06-18T10:23:08.320Z</time></trkpt><trkpt lat="58.78594" lon="14.82849667"><ele>93.0</ele><time>2016-06-18T10:23:09.310Z</time></trkpt><trkpt lat="58.78599667" lon="14.82883667"><ele>92.0</ele><time>2016-06-18T10:23:10.319Z</time></trkpt><trkpt lat="58.78599667" lon="14.82883667"><ele>92.0</ele><time>2016-06-18T10:23:11.338Z</time></trkpt><trkpt lat="58.78605667" lon="14.82919333"><ele>92.0</ele><time>2016-06-18T10:23:12.307Z</time></trkpt><trkpt lat="58.78609" lon="14.82937667"><ele>91.0</ele><time>2016-06-18T10:23:13.315Z</time></trkpt><trkpt lat="58.786125" lon="14.82956"><ele>91.0</ele><time>2016-06-18T10:23:14.283Z</time></trkpt><trkpt lat="58.786125" lon="14.82956"><ele>91.0</ele><time>2016-06-18T10:23:15.305Z</time></trkpt><trkpt lat="58.78620667" lon="14.82992167"><ele>91.0</ele><time>2016-06-18T10:23:16.296Z</time></trkpt><trkpt lat="58.78620667" lon="14.82992167"><ele>91.0</ele><time>2016-06-18T10:23:17.291Z</time></trkpt><trkpt lat="58.78629667" lon="14.83027667"><ele>90.0</ele><time>2016-06-18T10:23:18.297Z</time></trkpt><trkpt lat="58.78635" lon="14.83044667"><ele>90.0</ele><time>2016-06-18T10:23:19.303Z</time></trkpt><trkpt lat="58.78640167" lon="14.83061167"><ele>90.0</ele><time>2016-06-18T10:23:20.311Z</time></trkpt><trkpt lat="58.78640167" lon="14.83061167"><ele>90.0</ele><time>2016-06-18T10:23:21.293Z</time></trkpt><trkpt lat="58.78651667" lon="14.83092167"><ele>90.0</ele><time>2016-06-18T10:23:22.287Z</time></trkpt><trkpt lat="58.78651667" lon="14.83092167"><ele>90.0</ele><time>2016-06-18T10:23:23.309Z</time></trkpt><trkpt lat="58.78664333" lon="14.8312"><ele>90.0</ele><time>2016-06-18T10:23:24.315Z</time></trkpt><trkpt lat="58.78664333" lon="14.8312"><ele>90.0</ele><time>2016-06-18T10:23:25.300Z</time></trkpt><trkpt lat="58.786775" lon="14.831465"><ele>90.0</ele><time>2016-06-18T10:23:26.318Z</time></trkpt><trkpt lat="58.786775" lon="14.831465"><ele>90.0</ele><time>2016-06-18T10:23:27.319Z</time></trkpt><trkpt lat="58.78690333" lon="14.831725"><ele>91.0</ele><time>2016-06-18T10:23:28.289Z</time></trkpt><trkpt lat="58.78697" lon="14.831855"><ele>91.0</ele><time>2016-06-18T10:23:29.295Z</time></trkpt><trkpt lat="58.78703333" lon="14.831985"><ele>91.0</ele><time>2016-06-18T10:23:30.312Z</time></trkpt><trkpt lat="58.78703333" lon="14.831985"><ele>91.0</ele><time>2016-06-18T10:23:31.294Z</time></trkpt><trkpt lat="58.78716333" lon="14.83223667"><ele>91.0</ele><time>2016-06-18T10:23:32.302Z</time></trkpt><trkpt lat="58.78716333" lon="14.83223667"><ele>91.0</ele><time>2016-06-18T10:23:33.291Z</time></trkpt><trkpt lat="58.78729333" lon="14.83248"><ele>91.0</ele><time>2016-06-18T10:23:34.297Z</time></trkpt><trkpt lat="58.787355" lon="14.83260333"><ele>91.0</ele><time>2016-06-18T10:23:35.286Z</time></trkpt><trkpt lat="58.787355" lon="14.83260333"><ele>91.0</ele><time>2016-06-18T10:23:36.285Z</time></trkpt><trkpt lat="58.78747667" lon="14.83285333"><ele>91.0</ele><time>2016-06-18T10:23:37.293Z</time></trkpt><trkpt lat="58.78753833" lon="14.83297667"><ele>91.0</ele><time>2016-06-18T10:23:38.316Z</time></trkpt><trkpt lat="58.78753833" lon="14.83297667"><ele>91.0</ele><time>2016-06-18T10:23:39.298Z</time></trkpt><trkpt lat="58.78766667" lon="14.83322667"><ele>91.0</ele><time>2016-06-18T10:23:40.306Z</time></trkpt><trkpt lat="58.78773333" lon="14.83335167"><ele>90.0</ele><time>2016-06-18T10:23:41.322Z</time></trkpt><trkpt lat="58.78773333" lon="14.83335167"><ele>90.0</ele><time>2016-06-18T10:23:42.310Z</time></trkpt><trkpt lat="58.78786" lon="14.83360333"><ele>90.0</ele><time>2016-06-18T10:23:43.319Z</time></trkpt><trkpt lat="58.78792667" lon="14.83373167"><ele>90.0</ele><time>2016-06-18T10:23:44.308Z</time></trkpt><trkpt lat="58.78792667" lon="14.83373167"><ele>90.0</ele><time>2016-06-18T10:23:45.286Z</time></trkpt><trkpt lat="58.78805667" lon="14.83398833"><ele>90.0</ele><time>2016-06-18T10:23:46.294Z</time></trkpt><trkpt lat="58.78812167" lon="14.834115"><ele>90.0</ele><time>2016-06-18T10:23:47.283Z</time></trkpt><trkpt lat="58.78812167" lon="14.834115"><ele>90.0</ele><time>2016-06-18T10:23:48.321Z</time></trkpt><trkpt lat="58.78825" lon="14.83436167"><ele>90.0</ele><time>2016-06-18T10:23:49.302Z</time></trkpt><trkpt lat="58.788315" lon="14.834485"><ele>90.0</ele><time>2016-06-18T10:23:50.292Z</time></trkpt><trkpt lat="58.788315" lon="14.834485"><ele>90.0</ele><time>2016-06-18T10:23:51.319Z</time></trkpt><trkpt lat="58.78844167" lon="14.83473"><ele>90.0</ele><time>2016-06-18T10:23:52.287Z</time></trkpt><trkpt lat="58.78850333" lon="14.83485"><ele>90.0</ele><time>2016-06-18T10:23:53.311Z</time></trkpt><trkpt lat="58.78856167" lon="14.83496833"><ele>90.0</ele><time>2016-06-18T10:23:54.293Z</time></trkpt><trkpt lat="58.78856167" lon="14.83496833"><ele>90.0</ele><time>2016-06-18T10:23:55.283Z</time></trkpt><trkpt lat="58.788675" lon="14.83519667"><ele>90.0</ele><time>2016-06-18T10:23:56.290Z</time></trkpt><trkpt lat="58.788675" lon="14.83519667"><ele>90.0</ele><time>2016-06-18T10:23:57.314Z</time></trkpt><trkpt lat="58.78878667" lon="14.835405"><ele>90.0</ele><time>2016-06-18T10:23:58.328Z</time></trkpt><trkpt lat="58.78878667" lon="14.835405"><ele>90.0</ele><time>2016-06-18T10:23:59.300Z</time></trkpt><trkpt lat="58.78889667" lon="14.835615"><ele>91.0</ele><time>2016-06-18T10:24:00.307Z</time></trkpt><trkpt lat="58.78895167" lon="14.83571667"><ele>91.0</ele><time>2016-06-18T10:24:01.284Z</time></trkpt><trkpt lat="58.78900667" lon="14.83581833"><ele>91.0</ele><time>2016-06-18T10:24:02.291Z</time></trkpt><trkpt lat="58.78900667" lon="14.83581833"><ele>91.0</ele><time>2016-06-18T10:24:03.314Z</time></trkpt><trkpt lat="58.78911667" lon="14.836025"><ele>92.0</ele><time>2016-06-18T10:24:04.317Z</time></trkpt><trkpt lat="58.78911667" lon="14.836025"><ele>92.0</ele><time>2016-06-18T10:24:05.282Z</time></trkpt><trkpt lat="58.78922" lon="14.83622667"><ele>92.0</ele><time>2016-06-18T10:24:06.291Z</time></trkpt><trkpt lat="58.78926833" lon="14.83631833"><ele>92.0</ele><time>2016-06-18T10:24:07.285Z</time></trkpt><trkpt lat="58.789315" lon="14.836405"><ele>93.0</ele><time>2016-06-18T10:24:08.300Z</time></trkpt><trkpt lat="58.789315" lon="14.836405"><ele>93.0</ele><time>2016-06-18T10:24:09.283Z</time></trkpt><trkpt lat="58.78940667" lon="14.83656833"><ele>94.0</ele><time>2016-06-18T10:24:10.316Z</time></trkpt><trkpt lat="58.78940667" lon="14.83656833"><ele>94.0</ele><time>2016-06-18T10:24:11.330Z</time></trkpt><trkpt lat="58.78949" lon="14.83673833"><ele>95.0</ele><time>2016-06-18T10:24:12.285Z</time></trkpt><trkpt lat="58.78953" lon="14.83682167"><ele>96.0</ele><time>2016-06-18T10:24:13.320Z</time></trkpt><trkpt lat="58.78953" lon="14.83682167"><ele>96.0</ele><time>2016-06-18T10:24:14.287Z</time></trkpt><trkpt lat="58.78961333" lon="14.836975"><ele>97.0</ele><time>2016-06-18T10:24:15.306Z</time></trkpt><trkpt lat="58.78966167" lon="14.83704167"><ele>98.0</ele><time>2016-06-18T10:24:16.301Z</time></trkpt><trkpt lat="58.78970667" lon="14.83710833"><ele>98.0</ele><time>2016-06-18T10:24:17.286Z</time></trkpt><trkpt lat="58.78970667" lon="14.83710833"><ele>98.0</ele><time>2016-06-18T10:24:18.309Z</time></trkpt><trkpt lat="58.78979667" lon="14.83723"><ele>99.0</ele><time>2016-06-18T10:24:19.316Z</time></trkpt><trkpt lat="58.78984333" lon="14.83729"><ele>100.0</ele><time>2016-06-18T10:24:20.307Z</time></trkpt><trkpt lat="58.78984333" lon="14.83729"><ele>100.0</ele><time>2016-06-18T10:24:21.300Z</time></trkpt><trkpt lat="58.78995833" lon="14.83741667"><ele>100.0</ele><time>2016-06-18T10:24:22.308Z</time></trkpt><trkpt lat="58.790015" lon="14.83747667"><ele>100.0</ele><time>2016-06-18T10:24:23.295Z</time></trkpt><trkpt lat="58.790015" lon="14.83747667"><ele>100.0</ele><time>2016-06-18T10:24:24.299Z</time></trkpt><trkpt lat="58.79012667" lon="14.83757667"><ele>101.0</ele><time>2016-06-18T10:24:25.306Z</time></trkpt><trkpt lat="58.79018167" lon="14.83762667"><ele>101.0</ele><time>2016-06-18T10:24:26.316Z</time></trkpt><trkpt lat="58.79018167" lon="14.83762667"><ele>101.0</ele><time>2016-06-18T10:24:27.305Z</time></trkpt><trkpt lat="58.79030667" lon="14.83772333"><ele>101.0</ele><time>2016-06-18T10:24:28.312Z</time></trkpt><trkpt lat="58.79030667" lon="14.83772333"><ele>101.0</ele><time>2016-06-18T10:24:29.293Z</time></trkpt><trkpt lat="58.79044333" lon="14.83782"><ele>100.0</ele><time>2016-06-18T10:24:30.285Z</time></trkpt><trkpt lat="58.79051667" lon="14.837875"><ele>99.0</ele><time>2016-06-18T10:24:31.309Z</time></trkpt><trkpt lat="58.79059167" lon="14.83792833"><ele>99.0</ele><time>2016-06-18T10:24:32.293Z</time></trkpt><trkpt lat="58.79059167" lon="14.83792833"><ele>99.0</ele><time>2016-06-18T10:24:33.315Z</time></trkpt><trkpt lat="58.79074333" lon="14.83804833"><ele>99.0</ele><time>2016-06-18T10:24:34.286Z</time></trkpt><trkpt lat="58.79074333" lon="14.83804833"><ele>99.0</ele><time>2016-06-18T10:24:35.308Z</time></trkpt><trkpt lat="58.79089833" lon="14.838175"><ele>99.0</ele><time>2016-06-18T10:24:36.320Z</time></trkpt><trkpt lat="58.79089833" lon="14.838175"><ele>99.0</ele><time>2016-06-18T10:24:37.287Z</time></trkpt><trkpt lat="58.79106167" lon="14.83830667"><ele>98.0</ele><time>2016-06-18T10:24:38.295Z</time></trkpt><trkpt lat="58.79106167" lon="14.83830667"><ele>98.0</ele><time>2016-06-18T10:24:39.286Z</time></trkpt><trkpt lat="58.79122333" lon="14.83844333"><ele>98.0</ele><time>2016-06-18T10:24:40.306Z</time></trkpt><trkpt lat="58.79130333" lon="14.838515"><ele>98.0</ele><time>2016-06-18T10:24:41.309Z</time></trkpt><trkpt lat="58.79130333" lon="14.838515"><ele>98.0</ele><time>2016-06-18T10:24:42.291Z</time></trkpt><trkpt lat="58.79147" lon="14.838655"><ele>96.0</ele><time>2016-06-18T10:24:43.300Z</time></trkpt><trkpt lat="58.79147" lon="14.838655"><ele>96.0</ele><time>2016-06-18T10:24:44.297Z</time></trkpt><trkpt lat="58.79163833" lon="14.83882"><ele>96.0</ele><time>2016-06-18T10:24:45.304Z</time></trkpt><trkpt lat="58.79172167" lon="14.83891"><ele>95.0</ele><time>2016-06-18T10:24:46.286Z</time></trkpt><trkpt lat="58.79172167" lon="14.83891"><ele>95.0</ele><time>2016-06-18T10:24:47.291Z</time></trkpt><trkpt lat="58.79189167" lon="14.8391"><ele>95.0</ele><time>2016-06-18T10:24:48.309Z</time></trkpt><trkpt lat="58.791975" lon="14.8392"><ele>95.0</ele><time>2016-06-18T10:24:49.307Z</time></trkpt><trkpt lat="58.792055" lon="14.839305"><ele>95.0</ele><time>2016-06-18T10:24:50.317Z</time></trkpt><trkpt lat="58.792055" lon="14.839305"><ele>95.0</ele><time>2016-06-18T10:24:51.300Z</time></trkpt><trkpt lat="58.79221167" lon="14.83953"><ele>94.0</ele><time>2016-06-18T10:24:52.307Z</time></trkpt><trkpt lat="58.79228833" lon="14.83965"><ele>94.0</ele><time>2016-06-18T10:24:53.301Z</time></trkpt><trkpt lat="58.79228833" lon="14.83965"><ele>94.0</ele><time>2016-06-18T10:24:54.284Z</time></trkpt><trkpt lat="58.79244833" lon="14.839895"><ele>93.0</ele><time>2016-06-18T10:24:55.292Z</time></trkpt><trkpt lat="58.79253167" lon="14.84001667"><ele>93.0</ele><time>2016-06-18T10:24:56.314Z</time></trkpt><trkpt lat="58.79253167" lon="14.84001667"><ele>93.0</ele><time>2016-06-18T10:24:57.308Z</time></trkpt><trkpt lat="58.79270833" lon="14.84025"><ele>94.0</ele><time>2016-06-18T10:24:58.315Z</time></trkpt><trkpt lat="58.79270833" lon="14.84025"><ele>94.0</ele><time>2016-06-18T10:24:59.297Z</time></trkpt><trkpt lat="58.79289167" lon="14.84046333"><ele>93.0</ele><time>2016-06-18T10:25:00.324Z</time></trkpt><trkpt lat="58.79289167" lon="14.84046333"><ele>93.0</ele><time>2016-06-18T10:25:01.300Z</time></trkpt><trkpt lat="58.79307833" lon="14.84065333"><ele>93.0</ele><time>2016-06-18T10:25:02.308Z</time></trkpt><trkpt lat="58.79307833" lon="14.84065333"><ele>93.0</ele><time>2016-06-18T10:25:03.292Z</time></trkpt><trkpt lat="58.79326333" lon="14.84080833"><ele>93.0</ele><time>2016-06-18T10:25:04.286Z</time></trkpt><trkpt lat="58.79326333" lon="14.84080833"><ele>93.0</ele><time>2016-06-18T10:25:05.302Z</time></trkpt><trkpt lat="58.793445" lon="14.84094833"><ele>93.0</ele><time>2016-06-18T10:25:06.309Z</time></trkpt><trkpt lat="58.793445" lon="14.84094833"><ele>93.0</ele><time>2016-06-18T10:25:07.290Z</time></trkpt><trkpt lat="58.793625" lon="14.84108167"><ele>92.0</ele><time>2016-06-18T10:25:08.307Z</time></trkpt><trkpt lat="58.793625" lon="14.84108167"><ele>92.0</ele><time>2016-06-18T10:25:09.314Z</time></trkpt><trkpt lat="58.79381333" lon="14.84119833"><ele>92.0</ele><time>2016-06-18T10:25:10.282Z</time></trkpt><trkpt lat="58.79381333" lon="14.84119833"><ele>92.0</ele><time>2016-06-18T10:25:11.338Z</time></trkpt><trkpt lat="58.79400167" lon="14.84129833"><ele>92.0</ele><time>2016-06-18T10:25:12.283Z</time></trkpt><trkpt lat="58.79409833" lon="14.84133833"><ele>91.0</ele><time>2016-06-18T10:25:13.306Z</time></trkpt><trkpt lat="58.79409833" lon="14.84133833"><ele>91.0</ele><time>2016-06-18T10:25:14.313Z</time></trkpt><trkpt lat="58.79429167" lon="14.84140833"><ele>91.0</ele><time>2016-06-18T10:25:15.283Z</time></trkpt><trkpt lat="58.79438833" lon="14.841445"><ele>91.0</ele><time>2016-06-18T10:25:16.300Z</time></trkpt><trkpt lat="58.79448667" lon="14.84148167"><ele>90.0</ele><time>2016-06-18T10:25:17.283Z</time></trkpt><trkpt lat="58.79448667" lon="14.84148167"><ele>90.0</ele><time>2016-06-18T10:25:18.306Z</time></trkpt><trkpt lat="58.79468333" lon="14.84155667"><ele>90.0</ele><time>2016-06-18T10:25:19.312Z</time></trkpt><trkpt lat="58.794785" lon="14.84158833"><ele>89.0</ele><time>2016-06-18T10:25:20.300Z</time></trkpt><trkpt lat="58.79488667" lon="14.84162333"><ele>89.0</ele><time>2016-06-18T10:25:21.319Z</time></trkpt><trkpt lat="58.79488667" lon="14.84162333"><ele>89.0</ele><time>2016-06-18T10:25:22.301Z</time></trkpt><trkpt lat="58.79509" lon="14.8417"><ele>88.0</ele><time>2016-06-18T10:25:23.314Z</time></trkpt><trkpt lat="58.79519333" lon="14.84173833"><ele>88.0</ele><time>2016-06-18T10:25:24.297Z</time></trkpt><trkpt lat="58.79519333" lon="14.84173833"><ele>88.0</ele><time>2016-06-18T10:25:25.285Z</time></trkpt><trkpt lat="58.79539" lon="14.841815"><ele>88.0</ele><time>2016-06-18T10:25:26.298Z</time></trkpt><trkpt lat="58.79539" lon="14.841815"><ele>88.0</ele><time>2016-06-18T10:25:27.313Z</time></trkpt><trkpt lat="58.79558" lon="14.841895"><ele>88.0</ele><time>2016-06-18T10:25:28.282Z</time></trkpt><trkpt lat="58.79567167" lon="14.84194"><ele>88.0</ele><time>2016-06-18T10:25:29.315Z</time></trkpt><trkpt lat="58.79567167" lon="14.84194"><ele>88.0</ele><time>2016-06-18T10:25:30.320Z</time></trkpt><trkpt lat="58.795845" lon="14.84204833"><ele>89.0</ele><time>2016-06-18T10:25:31.289Z</time></trkpt><trkpt lat="58.79592833" lon="14.84210833"><ele>89.0</ele><time>2016-06-18T10:25:32.317Z</time></trkpt><trkpt lat="58.79592833" lon="14.84210833"><ele>89.0</ele><time>2016-06-18T10:25:33.301Z</time></trkpt><trkpt lat="58.79609333" lon="14.84223833"><ele>89.0</ele><time>2016-06-18T10:25:34.313Z</time></trkpt><trkpt lat="58.79609333" lon="14.84223833"><ele>89.0</ele><time>2016-06-18T10:25:35.295Z</time></trkpt><trkpt lat="58.79626333" lon="14.842385"><ele>89.0</ele><time>2016-06-18T10:25:36.318Z</time></trkpt><trkpt lat="58.79626333" lon="14.842385"><ele>89.0</ele><time>2016-06-18T10:25:37.306Z</time></trkpt><trkpt lat="58.79643833" lon="14.84254833"><ele>89.0</ele><time>2016-06-18T10:25:38.312Z</time></trkpt><trkpt lat="58.79643833" lon="14.84254833"><ele>89.0</ele><time>2016-06-18T10:25:39.294Z</time></trkpt><trkpt lat="58.79661667" lon="14.842715"><ele>88.0</ele><time>2016-06-18T10:25:40.295Z</time></trkpt><trkpt lat="58.79661667" lon="14.842715"><ele>88.0</ele><time>2016-06-18T10:25:41.285Z</time></trkpt><trkpt lat="58.79679333" lon="14.84289"><ele>88.0</ele><time>2016-06-18T10:25:42.293Z</time></trkpt><trkpt lat="58.79688167" lon="14.84298"><ele>88.0</ele><time>2016-06-18T10:25:43.320Z</time></trkpt><trkpt lat="58.79688167" lon="14.84298"><ele>88.0</ele><time>2016-06-18T10:25:44.315Z</time></trkpt><trkpt lat="58.79706333" lon="14.843145"><ele>88.0</ele><time>2016-06-18T10:25:45.283Z</time></trkpt><trkpt lat="58.797155" lon="14.84322"><ele>88.0</ele><time>2016-06-18T10:25:46.309Z</time></trkpt><trkpt lat="58.797155" lon="14.84322"><ele>88.0</ele><time>2016-06-18T10:25:47.298Z</time></trkpt><trkpt lat="58.79734833" lon="14.84334667"><ele>88.0</ele><time>2016-06-18T10:25:48.304Z</time></trkpt><trkpt lat="58.79745" lon="14.84339667"><ele>88.0</ele><time>2016-06-18T10:25:49.287Z</time></trkpt><trkpt lat="58.79754833" lon="14.84344333"><ele>88.0</ele><time>2016-06-18T10:25:50.310Z</time></trkpt><trkpt lat="58.79754833" lon="14.84344333"><ele>88.0</ele><time>2016-06-18T10:25:51.297Z</time></trkpt><trkpt lat="58.79774167" lon="14.84353333"><ele>89.0</ele><time>2016-06-18T10:25:52.319Z</time></trkpt><trkpt lat="58.79783667" lon="14.84358"><ele>89.0</ele><time>2016-06-18T10:25:53.304Z</time></trkpt><trkpt lat="58.79783667" lon="14.84358"><ele>89.0</ele><time>2016-06-18T10:25:54.287Z</time></trkpt><trkpt lat="58.79802667" lon="14.843675"><ele>89.0</ele><time>2016-06-18T10:25:55.286Z</time></trkpt><trkpt lat="58.79811833" lon="14.84372333"><ele>89.0</ele><time>2016-06-18T10:25:56.304Z</time></trkpt><trkpt lat="58.79811833" lon="14.84372333"><ele>89.0</ele><time>2016-06-18T10:25:57.287Z</time></trkpt><trkpt lat="58.7983" lon="14.843825"><ele>90.0</ele><time>2016-06-18T10:25:58.300Z</time></trkpt><trkpt lat="58.7983" lon="14.843825"><ele>90.0</ele><time>2016-06-18T10:25:59.285Z</time></trkpt><trkpt lat="58.79847833" lon="14.84393"><ele>90.0</ele><time>2016-06-18T10:26:00.293Z</time></trkpt><trkpt lat="58.79847833" lon="14.84393"><ele>90.0</ele><time>2016-06-18T10:26:01.309Z</time></trkpt><trkpt lat="58.79864667" lon="14.84405"><ele>90.0</ele><time>2016-06-18T10:26:02.316Z</time></trkpt><trkpt lat="58.79864667" lon="14.84405"><ele>90.0</ele><time>2016-06-18T10:26:03.298Z</time></trkpt><trkpt lat="58.79880667" lon="14.84417667"><ele>90.0</ele><time>2016-06-18T10:26:04.284Z</time></trkpt><trkpt lat="58.79888167" lon="14.84424833"><ele>90.0</ele><time>2016-06-18T10:26:05.320Z</time></trkpt><trkpt lat="58.79888167" lon="14.84424833"><ele>90.0</ele><time>2016-06-18T10:26:06.301Z</time></trkpt><trkpt lat="58.79903333" lon="14.84441333"><ele>90.0</ele><time>2016-06-18T10:26:07.284Z</time></trkpt><trkpt lat="58.79911167" lon="14.844505"><ele>90.0</ele><time>2016-06-18T10:26:08.314Z</time></trkpt><trkpt lat="58.79911167" lon="14.844505"><ele>90.0</ele><time>2016-06-18T10:26:09.296Z</time></trkpt><trkpt lat="58.79927" lon="14.84468833"><ele>90.0</ele><time>2016-06-18T10:26:10.303Z</time></trkpt><trkpt lat="58.79927" lon="14.84468833"><ele>90.0</ele><time>2016-06-18T10:26:11.343Z</time></trkpt><trkpt lat="58.79942667" lon="14.84489167"><ele>89.0</ele><time>2016-06-18T10:26:12.286Z</time></trkpt><trkpt lat="58.799505" lon="14.84499"><ele>89.0</ele><time>2016-06-18T10:26:13.309Z</time></trkpt><trkpt lat="58.79958167" lon="14.84509"><ele>89.0</ele><time>2016-06-18T10:26:14.316Z</time></trkpt><trkpt lat="58.79958167" lon="14.84509"><ele>89.0</ele><time>2016-06-18T10:26:15.298Z</time></trkpt><trkpt lat="58.79973333" lon="14.84528667"><ele>88.0</ele><time>2016-06-18T10:26:16.310Z</time></trkpt><trkpt lat="58.79981" lon="14.84538"><ele>88.0</ele><time>2016-06-18T10:26:17.292Z</time></trkpt><trkpt lat="58.79981" lon="14.84538"><ele>88.0</ele><time>2016-06-18T10:26:18.313Z</time></trkpt><trkpt lat="58.79996167" lon="14.84557"><ele>88.0</ele><time>2016-06-18T10:26:19.315Z</time></trkpt><trkpt lat="58.80003667" lon="14.84566333"><ele>89.0</ele><time>2016-06-18T10:26:20.318Z</time></trkpt><trkpt lat="58.80003667" lon="14.84566333"><ele>89.0</ele><time>2016-06-18T10:26:21.300Z</time></trkpt><trkpt lat="58.800185" lon="14.84583833"><ele>88.0</ele><time>2016-06-18T10:26:22.311Z</time></trkpt><trkpt lat="58.80026167" lon="14.845925"><ele>88.0</ele><time>2016-06-18T10:26:23.292Z</time></trkpt><trkpt lat="58.80026167" lon="14.845925"><ele>88.0</ele><time>2016-06-18T10:26:24.314Z</time></trkpt><trkpt lat="58.80042" lon="14.846105"><ele>88.0</ele><time>2016-06-18T10:26:25.291Z</time></trkpt><trkpt lat="58.80050167" lon="14.8462"><ele>88.0</ele><time>2016-06-18T10:26:26.317Z</time></trkpt><trkpt lat="58.80050167" lon="14.8462"><ele>88.0</ele><time>2016-06-18T10:26:27.300Z</time></trkpt><trkpt lat="58.80066667" lon="14.8464"><ele>88.0</ele><time>2016-06-18T10:26:28.306Z</time></trkpt><trkpt lat="58.80075" lon="14.84650333"><ele>87.0</ele><time>2016-06-18T10:26:29.318Z</time></trkpt><trkpt lat="58.80075" lon="14.84650333"><ele>87.0</ele><time>2016-06-18T10:26:30.299Z</time></trkpt><trkpt lat="58.80092" lon="14.84671667"><ele>87.0</ele><time>2016-06-18T10:26:31.316Z</time></trkpt><trkpt lat="58.801005" lon="14.84682"><ele>86.0</ele><time>2016-06-18T10:26:32.304Z</time></trkpt><trkpt lat="58.801005" lon="14.84682"><ele>86.0</ele><time>2016-06-18T10:26:33.295Z</time></trkpt><trkpt lat="58.80117833" lon="14.84702"><ele>86.0</ele><time>2016-06-18T10:26:34.288Z</time></trkpt><trkpt lat="58.80126333" lon="14.84712167"><ele>86.0</ele><time>2016-06-18T10:26:35.310Z</time></trkpt><trkpt lat="58.80126333" lon="14.84712167"><ele>86.0</ele><time>2016-06-18T10:26:36.292Z</time></trkpt><trkpt lat="58.80143167" lon="14.84732667"><ele>86.0</ele><time>2016-06-18T10:26:37.299Z</time></trkpt><trkpt lat="58.80151333" lon="14.84742833"><ele>87.0</ele><time>2016-06-18T10:26:38.318Z</time></trkpt><trkpt lat="58.80151333" lon="14.84742833"><ele>87.0</ele><time>2016-06-18T10:26:39.299Z</time></trkpt><trkpt lat="58.801675" lon="14.84761833"><ele>87.0</ele><time>2016-06-18T10:26:40.309Z</time></trkpt><trkpt lat="58.801675" lon="14.84761833"><ele>87.0</ele><time>2016-06-18T10:26:41.297Z</time></trkpt><trkpt lat="58.801815" lon="14.84779167"><ele>88.0</ele><time>2016-06-18T10:26:42.304Z</time></trkpt><trkpt lat="58.80187667" lon="14.847875"><ele>88.0</ele><time>2016-06-18T10:26:43.307Z</time></trkpt><trkpt lat="58.80187667" lon="14.847875"><ele>88.0</ele><time>2016-06-18T10:26:44.319Z</time></trkpt><trkpt lat="58.801995" lon="14.84802333"><ele>88.0</ele><time>2016-06-18T10:26:45.287Z</time></trkpt><trkpt lat="58.80205167" lon="14.84809"><ele>88.0</ele><time>2016-06-18T10:26:46.305Z</time></trkpt><trkpt lat="58.80205167" lon="14.84809"><ele>88.0</ele><time>2016-06-18T10:26:47.308Z</time></trkpt><trkpt lat="58.80216167" lon="14.848215"><ele>89.0</ele><time>2016-06-18T10:26:48.290Z</time></trkpt><trkpt lat="58.80216167" lon="14.848215"><ele>89.0</ele><time>2016-06-18T10:26:49.298Z</time></trkpt><trkpt lat="58.80226833" lon="14.84834167"><ele>90.0</ele><time>2016-06-18T10:26:50.304Z</time></trkpt><trkpt lat="58.80226833" lon="14.84834167"><ele>90.0</ele><time>2016-06-18T10:26:51.288Z</time></trkpt><trkpt lat="58.80237333" lon="14.84847833"><ele>90.0</ele><time>2016-06-18T10:26:52.317Z</time></trkpt><trkpt lat="58.80237333" lon="14.84847833"><ele>90.0</ele><time>2016-06-18T10:26:53.286Z</time></trkpt><trkpt lat="58.802475" lon="14.848605"><ele>91.0</ele><time>2016-06-18T10:26:54.293Z</time></trkpt><trkpt lat="58.802475" lon="14.848605"><ele>91.0</ele><time>2016-06-18T10:26:55.316Z</time></trkpt><trkpt lat="58.80257833" lon="14.84872667"><ele>91.0</ele><time>2016-06-18T10:26:56.316Z</time></trkpt><trkpt lat="58.80257833" lon="14.84872667"><ele>91.0</ele><time>2016-06-18T10:26:57.286Z</time></trkpt><trkpt lat="58.80267833" lon="14.84884167"><ele>92.0</ele><time>2016-06-18T10:26:58.293Z</time></trkpt><trkpt lat="58.80272833" lon="14.84890333"><ele>93.0</ele><time>2016-06-18T10:26:59.287Z</time></trkpt><trkpt lat="58.80277667" lon="14.84896667"><ele>93.0</ele><time>2016-06-18T10:27:00.295Z</time></trkpt><trkpt lat="58.80277667" lon="14.84896667"><ele>93.0</ele><time>2016-06-18T10:27:01.283Z</time></trkpt><trkpt lat="58.80288167" lon="14.84909167"><ele>94.0</ele><time>2016-06-18T10:27:02.306Z</time></trkpt><trkpt lat="58.80293667" lon="14.849155"><ele>94.0</ele><time>2016-06-18T10:27:03.292Z</time></trkpt><trkpt lat="58.80293667" lon="14.849155"><ele>94.0</ele><time>2016-06-18T10:27:04.315Z</time></trkpt><trkpt lat="58.80305167" lon="14.8493"><ele>94.0</ele><time>2016-06-18T10:27:05.290Z</time></trkpt><trkpt lat="58.80305167" lon="14.8493"><ele>94.0</ele><time>2016-06-18T10:27:06.313Z</time></trkpt><trkpt lat="58.80317167" lon="14.84947833"><ele>94.0</ele><time>2016-06-18T10:27:07.323Z</time></trkpt><trkpt lat="58.80317167" lon="14.84947833"><ele>94.0</ele><time>2016-06-18T10:27:08.284Z</time></trkpt><trkpt lat="58.80329833" lon="14.84966833"><ele>94.0</ele><time>2016-06-18T10:27:09.291Z</time></trkpt><trkpt lat="58.80336" lon="14.849775"><ele>94.0</ele><time>2016-06-18T10:27:10.316Z</time></trkpt><trkpt lat="58.80336" lon="14.849775"><ele>94.0</ele><time>2016-06-18T10:27:11.335Z</time></trkpt><trkpt lat="58.803485" lon="14.85001333"><ele>93.0</ele><time>2016-06-18T10:27:12.299Z</time></trkpt><trkpt lat="58.803545" lon="14.85014167"><ele>93.0</ele><time>2016-06-18T10:27:13.291Z</time></trkpt><trkpt lat="58.803605" lon="14.850275"><ele>93.0</ele><time>2016-06-18T10:27:14.299Z</time></trkpt><trkpt lat="58.803605" lon="14.850275"><ele>93.0</ele><time>2016-06-18T10:27:15.284Z</time></trkpt><trkpt lat="58.803735" lon="14.85056"><ele>91.0</ele><time>2016-06-18T10:27:16.291Z</time></trkpt><trkpt lat="58.803735" lon="14.85056"><ele>91.0</ele><time>2016-06-18T10:27:17.314Z</time></trkpt><trkpt lat="58.80386167" lon="14.85086"><ele>90.0</ele><time>2016-06-18T10:27:18.287Z</time></trkpt><trkpt lat="58.80386167" lon="14.85086"><ele>90.0</ele><time>2016-06-18T10:27:19.310Z</time></trkpt><trkpt lat="58.80399" lon="14.85115167"><ele>90.0</ele><time>2016-06-18T10:27:20.317Z</time></trkpt><trkpt lat="58.80399" lon="14.85115167"><ele>90.0</ele><time>2016-06-18T10:27:21.300Z</time></trkpt><trkpt lat="58.80412833" lon="14.85142167"><ele>89.0</ele><time>2016-06-18T10:27:22.317Z</time></trkpt><trkpt lat="58.80412833" lon="14.85142167"><ele>89.0</ele><time>2016-06-18T10:27:23.300Z</time></trkpt><trkpt lat="58.80427667" lon="14.85167667"><ele>90.0</ele><time>2016-06-18T10:27:24.307Z</time></trkpt><trkpt lat="58.80427667" lon="14.85167667"><ele>90.0</ele><time>2016-06-18T10:27:25.294Z</time></trkpt><trkpt lat="58.80442333" lon="14.85191667"><ele>89.0</ele><time>2016-06-18T10:27:26.318Z</time></trkpt><trkpt lat="58.80442333" lon="14.85191667"><ele>89.0</ele><time>2016-06-18T10:27:27.296Z</time></trkpt><trkpt lat="58.80457" lon="14.85213167"><ele>90.0</ele><time>2016-06-18T10:27:28.302Z</time></trkpt><trkpt lat="58.804645" lon="14.85223"><ele>90.0</ele><time>2016-06-18T10:27:29.296Z</time></trkpt><trkpt lat="58.804645" lon="14.85223"><ele>90.0</ele><time>2016-06-18T10:27:30.296Z</time></trkpt><trkpt lat="58.80479667" lon="14.85241333"><ele>91.0</ele><time>2016-06-18T10:27:31.303Z</time></trkpt><trkpt lat="58.80487333" lon="14.85249833"><ele>91.0</ele><time>2016-06-18T10:27:32.316Z</time></trkpt><trkpt lat="58.80487333" lon="14.85249833"><ele>91.0</ele><time>2016-06-18T10:27:33.286Z</time></trkpt><trkpt lat="58.80502667" lon="14.85267"><ele>92.0</ele><time>2016-06-18T10:27:34.295Z</time></trkpt><trkpt lat="58.80502667" lon="14.85267"><ele>92.0</ele><time>2016-06-18T10:27:35.318Z</time></trkpt><trkpt lat="58.80517833" lon="14.85281667"><ele>93.0</ele><time>2016-06-18T10:27:36.292Z</time></trkpt><trkpt lat="58.80517833" lon="14.85281667"><ele>93.0</ele><time>2016-06-18T10:27:37.291Z</time></trkpt><trkpt lat="58.80532667" lon="14.852945"><ele>94.0</ele><time>2016-06-18T10:27:38.297Z</time></trkpt><trkpt lat="58.80532667" lon="14.852945"><ele>94.0</ele><time>2016-06-18T10:27:39.295Z</time></trkpt><trkpt lat="58.80547167" lon="14.853055"><ele>94.0</ele><time>2016-06-18T10:27:40.306Z</time></trkpt><trkpt lat="58.80547167" lon="14.853055"><ele>94.0</ele><time>2016-06-18T10:27:41.315Z</time></trkpt><trkpt lat="58.80562" lon="14.85315667"><ele>95.0</ele><time>2016-06-18T10:27:42.288Z</time></trkpt><trkpt lat="58.80569333" lon="14.85320333"><ele>95.0</ele><time>2016-06-18T10:27:43.312Z</time></trkpt><trkpt lat="58.80569333" lon="14.85320333"><ele>95.0</ele><time>2016-06-18T10:27:44.305Z</time></trkpt><trkpt lat="58.80583" lon="14.85328167"><ele>96.0</ele><time>2016-06-18T10:27:45.312Z</time></trkpt><trkpt lat="58.805895" lon="14.853315"><ele>96.0</ele><time>2016-06-18T10:27:46.292Z</time></trkpt><trkpt lat="58.805895" lon="14.853315"><ele>96.0</ele><time>2016-06-18T10:27:47.313Z</time></trkpt><trkpt lat="58.80602167" lon="14.85338333"><ele>97.0</ele><time>2016-06-18T10:27:48.289Z</time></trkpt><trkpt lat="58.80607833" lon="14.85341333"><ele>97.0</ele><time>2016-06-18T10:27:49.321Z</time></trkpt><trkpt lat="58.80607833" lon="14.85341333"><ele>97.0</ele><time>2016-06-18T10:27:50.302Z</time></trkpt><trkpt lat="58.80619" lon="14.85349"><ele>98.0</ele><time>2016-06-18T10:27:51.317Z</time></trkpt><trkpt lat="58.80619" lon="14.85349"><ele>98.0</ele><time>2016-06-18T10:27:52.300Z</time></trkpt><trkpt lat="58.80631" lon="14.85356833"><ele>98.0</ele><time>2016-06-18T10:27:53.316Z</time></trkpt><trkpt lat="58.80636667" lon="14.853605"><ele>98.0</ele><time>2016-06-18T10:27:54.298Z</time></trkpt><trkpt lat="58.80642667" lon="14.853645"><ele>99.0</ele><time>2016-06-18T10:27:55.306Z</time></trkpt><trkpt lat="58.80648833" lon="14.853685"><ele>99.0</ele><time>2016-06-18T10:27:56.291Z</time></trkpt><trkpt lat="58.80648833" lon="14.853685"><ele>99.0</ele><time>2016-06-18T10:27:57.313Z</time></trkpt><trkpt lat="58.80663" lon="14.85377"><ele>99.0</ele><time>2016-06-18T10:27:58.289Z</time></trkpt><trkpt lat="58.80670167" lon="14.85381333"><ele>100.0</ele><time>2016-06-18T10:27:59.321Z</time></trkpt><trkpt lat="58.80670167" lon="14.85381333"><ele>100.0</ele><time>2016-06-18T10:28:00.302Z</time></trkpt><trkpt lat="58.80684167" lon="14.85391333"><ele>100.0</ele><time>2016-06-18T10:28:01.287Z</time></trkpt><trkpt lat="58.80684167" lon="14.85391333"><ele>100.0</ele><time>2016-06-18T10:28:02.291Z</time></trkpt><trkpt lat="58.80699333" lon="14.85400833"><ele>101.0</ele><time>2016-06-18T10:28:03.300Z</time></trkpt><trkpt lat="58.80707167" lon="14.854055"><ele>101.0</ele><time>2016-06-18T10:28:04.283Z</time></trkpt><trkpt lat="58.80707167" lon="14.854055"><ele>101.0</ele><time>2016-06-18T10:28:05.291Z</time></trkpt><trkpt lat="58.80723" lon="14.85416167"><ele>101.0</ele><time>2016-06-18T10:28:06.298Z</time></trkpt><trkpt lat="58.807315" lon="14.85422"><ele>101.0</ele><time>2016-06-18T10:28:07.289Z</time></trkpt><trkpt lat="58.807405" lon="14.85428"><ele>101.0</ele><time>2016-06-18T10:28:08.299Z</time></trkpt><trkpt lat="58.807405" lon="14.85428"><ele>101.0</ele><time>2016-06-18T10:28:09.321Z</time></trkpt><trkpt lat="58.80758167" lon="14.854395"><ele>100.0</ele><time>2016-06-18T10:28:10.286Z</time></trkpt><trkpt lat="58.80758167" lon="14.854395"><ele>100.0</ele><time>2016-06-18T10:28:11.337Z</time></trkpt><trkpt lat="58.80776167" lon="14.85452667"><ele>99.0</ele><time>2016-06-18T10:28:12.310Z</time></trkpt><trkpt lat="58.80785" lon="14.85459"><ele>99.0</ele><time>2016-06-18T10:28:13.293Z</time></trkpt><trkpt lat="58.80793833" lon="14.854655"><ele>98.0</ele><time>2016-06-18T10:28:14.301Z</time></trkpt><trkpt lat="58.80793833" lon="14.854655"><ele>98.0</ele><time>2016-06-18T10:28:15.299Z</time></trkpt><trkpt lat="58.80809667" lon="14.85477333"><ele>97.0</ele><time>2016-06-18T10:28:16.288Z</time></trkpt><trkpt lat="58.80809667" lon="14.85477333"><ele>97.0</ele><time>2016-06-18T10:28:17.300Z</time></trkpt><trkpt lat="58.808255" lon="14.85490167"><ele>96.0</ele><time>2016-06-18T10:28:18.307Z</time></trkpt><trkpt lat="58.808255" lon="14.85490167"><ele>96.0</ele><time>2016-06-18T10:28:19.289Z</time></trkpt><trkpt lat="58.80840833" lon="14.85504667"><ele>95.0</ele><time>2016-06-18T10:28:20.316Z</time></trkpt><trkpt lat="58.80840833" lon="14.85504667"><ele>95.0</ele><time>2016-06-18T10:28:21.310Z</time></trkpt><trkpt lat="58.80855" lon="14.85520667"><ele>95.0</ele><time>2016-06-18T10:28:22.316Z</time></trkpt><trkpt lat="58.80862" lon="14.85529333"><ele>95.0</ele><time>2016-06-18T10:28:23.299Z</time></trkpt><trkpt lat="58.80862" lon="14.85529333"><ele>95.0</ele><time>2016-06-18T10:28:24.284Z</time></trkpt><trkpt lat="58.808755" lon="14.85547667"><ele>95.0</ele><time>2016-06-18T10:28:25.291Z</time></trkpt><trkpt lat="58.808755" lon="14.85547667"><ele>95.0</ele><time>2016-06-18T10:28:26.300Z</time></trkpt><trkpt lat="58.80888167" lon="14.85567667"><ele>95.0</ele><time>2016-06-18T10:28:27.314Z</time></trkpt><trkpt lat="58.80888167" lon="14.85567667"><ele>95.0</ele><time>2016-06-18T10:28:28.301Z</time></trkpt><trkpt lat="58.809" lon="14.85589833"><ele>95.0</ele><time>2016-06-18T10:28:29.308Z</time></trkpt><trkpt lat="58.80905667" lon="14.856015"><ele>95.0</ele><time>2016-06-18T10:28:30.290Z</time></trkpt><trkpt lat="58.80905667" lon="14.856015"><ele>95.0</ele><time>2016-06-18T10:28:31.311Z</time></trkpt><trkpt lat="58.809165" lon="14.856255"><ele>95.0</ele><time>2016-06-18T10:28:32.317Z</time></trkpt><trkpt lat="58.809165" lon="14.856255"><ele>95.0</ele><time>2016-06-18T10:28:33.306Z</time></trkpt><trkpt lat="58.80927333" lon="14.85650333"><ele>94.0</ele><time>2016-06-18T10:28:34.322Z</time></trkpt><trkpt lat="58.80927333" lon="14.85650333"><ele>94.0</ele><time>2016-06-18T10:28:35.290Z</time></trkpt><trkpt lat="58.80937833" lon="14.85675667"><ele>94.0</ele><time>2016-06-18T10:28:36.297Z</time></trkpt><trkpt lat="58.80943" lon="14.85688333"><ele>94.0</ele><time>2016-06-18T10:28:37.321Z</time></trkpt><trkpt lat="58.80948167" lon="14.85700833"><ele>94.0</ele><time>2016-06-18T10:28:38.320Z</time></trkpt><trkpt lat="58.80948167" lon="14.85700833"><ele>94.0</ele><time>2016-06-18T10:28:39.302Z</time></trkpt><trkpt lat="58.80957833" lon="14.85725"><ele>94.0</ele><time>2016-06-18T10:28:40.317Z</time></trkpt><trkpt lat="58.809625" lon="14.85736667"><ele>95.0</ele><time>2016-06-18T10:28:41.301Z</time></trkpt><trkpt lat="58.809625" lon="14.85736667"><ele>95.0</ele><time>2016-06-18T10:28:42.283Z</time></trkpt><trkpt lat="58.809715" lon="14.85759167"><ele>95.0</ele><time>2016-06-18T10:28:43.293Z</time></trkpt><trkpt lat="58.80975667" lon="14.85770167"><ele>95.0</ele><time>2016-06-18T10:28:44.316Z</time></trkpt><trkpt lat="58.80975667" lon="14.85770167"><ele>95.0</ele><time>2016-06-18T10:28:45.297Z</time></trkpt><trkpt lat="58.80984" lon="14.85791667"><ele>96.0</ele><time>2016-06-18T10:28:46.303Z</time></trkpt><trkpt lat="58.80984" lon="14.85791667"><ele>96.0</ele><time>2016-06-18T10:28:47.288Z</time></trkpt><trkpt lat="58.809925" lon="14.85812167"><ele>95.0</ele><time>2016-06-18T10:28:48.304Z</time></trkpt><trkpt lat="58.809925" lon="14.85812167"><ele>95.0</ele><time>2016-06-18T10:28:49.321Z</time></trkpt><trkpt lat="58.81001" lon="14.85834333"><ele>95.0</ele><time>2016-06-18T10:28:50.288Z</time></trkpt><trkpt lat="58.81001" lon="14.85834333"><ele>95.0</ele><time>2016-06-18T10:28:51.309Z</time></trkpt><trkpt lat="58.81009667" lon="14.85858"><ele>95.0</ele><time>2016-06-18T10:28:52.318Z</time></trkpt><trkpt lat="58.81009667" lon="14.85858"><ele>95.0</ele><time>2016-06-18T10:28:53.295Z</time></trkpt><trkpt lat="58.81018833" lon="14.858815"><ele>94.0</ele><time>2016-06-18T10:28:54.302Z</time></trkpt><trkpt lat="58.810235" lon="14.85893667"><ele>94.0</ele><time>2016-06-18T10:28:55.318Z</time></trkpt><trkpt lat="58.81028333" lon="14.85906"><ele>94.0</ele><time>2016-06-18T10:28:56.295Z</time></trkpt><trkpt lat="58.81028333" lon="14.85906"><ele>94.0</ele><time>2016-06-18T10:28:57.303Z</time></trkpt><trkpt lat="58.810375" lon="14.85931"><ele>94.0</ele><time>2016-06-18T10:28:58.310Z</time></trkpt><trkpt lat="58.81042167" lon="14.85943667"><ele>94.0</ele><time>2016-06-18T10:28:59.294Z</time></trkpt><trkpt lat="58.81042167" lon="14.85943667"><ele>94.0</ele><time>2016-06-18T10:29:00.316Z</time></trkpt><trkpt lat="58.81051167" lon="14.85969167"><ele>94.0</ele><time>2016-06-18T10:29:01.288Z</time></trkpt><trkpt lat="58.810555" lon="14.85982"><ele>94.0</ele><time>2016-06-18T10:29:02.307Z</time></trkpt><trkpt lat="58.810555" lon="14.85982"><ele>94.0</ele><time>2016-06-18T10:29:03.300Z</time></trkpt><trkpt lat="58.81064" lon="14.86008333"><ele>94.0</ele><time>2016-06-18T10:29:04.307Z</time></trkpt><trkpt lat="58.81068" lon="14.86021667"><ele>94.0</ele><time>2016-06-18T10:29:05.311Z</time></trkpt><trkpt lat="58.81068" lon="14.86021667"><ele>94.0</ele><time>2016-06-18T10:29:06.293Z</time></trkpt><trkpt lat="58.81076167" lon="14.860485"><ele>94.0</ele><time>2016-06-18T10:29:07.299Z</time></trkpt><trkpt lat="58.81080333" lon="14.86061667"><ele>94.0</ele><time>2016-06-18T10:29:08.301Z</time></trkpt><trkpt lat="58.81080333" lon="14.86061667"><ele>94.0</ele><time>2016-06-18T10:29:09.285Z</time></trkpt><trkpt lat="58.81088333" lon="14.86087"><ele>94.0</ele><time>2016-06-18T10:29:10.301Z</time></trkpt><trkpt lat="58.81088333" lon="14.86087"><ele>94.0</ele><time>2016-06-18T10:29:11.339Z</time></trkpt><trkpt lat="58.81096333" lon="14.86112"><ele>95.0</ele><time>2016-06-18T10:29:12.318Z</time></trkpt><trkpt lat="58.81100833" lon="14.86124167"><ele>95.0</ele><time>2016-06-18T10:29:13.298Z</time></trkpt><trkpt lat="58.81105667" lon="14.86135667"><ele>95.0</ele><time>2016-06-18T10:29:14.294Z</time></trkpt><trkpt lat="58.81105667" lon="14.86135667"><ele>95.0</ele><time>2016-06-18T10:29:15.300Z</time></trkpt><trkpt lat="58.81115833" lon="14.86157667"><ele>95.0</ele><time>2016-06-18T10:29:16.307Z</time></trkpt><trkpt lat="58.81115833" lon="14.86157667"><ele>95.0</ele><time>2016-06-18T10:29:17.296Z</time></trkpt><trkpt lat="58.81126833" lon="14.86177833"><ele>94.0</ele><time>2016-06-18T10:29:18.313Z</time></trkpt><trkpt lat="58.81126833" lon="14.86177833"><ele>94.0</ele><time>2016-06-18T10:29:19.318Z</time></trkpt><trkpt lat="58.81138333" lon="14.86195833"><ele>95.0</ele><time>2016-06-18T10:29:20.288Z</time></trkpt><trkpt lat="58.81138333" lon="14.86195833"><ele>95.0</ele><time>2016-06-18T10:29:21.300Z</time></trkpt><trkpt lat="58.81150333" lon="14.86212833"><ele>95.0</ele><time>2016-06-18T10:29:22.306Z</time></trkpt><trkpt lat="58.81150333" lon="14.86212833"><ele>95.0</ele><time>2016-06-18T10:29:23.295Z</time></trkpt><trkpt lat="58.81162833" lon="14.86228333"><ele>94.0</ele><time>2016-06-18T10:29:24.288Z</time></trkpt><trkpt lat="58.81169167" lon="14.86235833"><ele>94.0</ele><time>2016-06-18T10:29:25.298Z</time></trkpt><trkpt lat="58.811755" lon="14.86243"><ele>95.0</ele><time>2016-06-18T10:29:26.320Z</time></trkpt><trkpt lat="58.811755" lon="14.86243"><ele>95.0</ele><time>2016-06-18T10:29:27.302Z</time></trkpt><trkpt lat="58.81188333" lon="14.86256333"><ele>95.0</ele><time>2016-06-18T10:29:28.310Z</time></trkpt><trkpt lat="58.81188333" lon="14.86256333"><ele>95.0</ele><time>2016-06-18T10:29:29.292Z</time></trkpt><trkpt lat="58.81201167" lon="14.86268333"><ele>96.0</ele><time>2016-06-18T10:29:30.297Z</time></trkpt><trkpt lat="58.81201167" lon="14.86268333"><ele>96.0</ele><time>2016-06-18T10:29:31.312Z</time></trkpt><trkpt lat="58.81213333" lon="14.86280833"><ele>96.0</ele><time>2016-06-18T10:29:32.318Z</time></trkpt><trkpt lat="58.81213333" lon="14.86280833"><ele>96.0</ele><time>2016-06-18T10:29:33.301Z</time></trkpt><trkpt lat="58.81225833" lon="14.86292333"><ele>97.0</ele><time>2016-06-18T10:29:34.298Z</time></trkpt><trkpt lat="58.81225833" lon="14.86292333"><ele>97.0</ele><time>2016-06-18T10:29:35.285Z</time></trkpt><trkpt lat="58.81238" lon="14.86305167"><ele>97.0</ele><time>2016-06-18T10:29:36.292Z</time></trkpt><trkpt lat="58.81243833" lon="14.86311833"><ele>98.0</ele><time>2016-06-18T10:29:37.318Z</time></trkpt><trkpt lat="58.81249833" lon="14.86318"><ele>98.0</ele><time>2016-06-18T10:29:38.299Z</time></trkpt><trkpt lat="58.81249833" lon="14.86318"><ele>98.0</ele><time>2016-06-18T10:29:39.320Z</time></trkpt><trkpt lat="58.81261667" lon="14.863315"><ele>98.0</ele><time>2016-06-18T10:29:40.303Z</time></trkpt><trkpt lat="58.81261667" lon="14.863315"><ele>98.0</ele><time>2016-06-18T10:29:41.300Z</time></trkpt><trkpt lat="58.81273333" lon="14.86343667"><ele>99.0</ele><time>2016-06-18T10:29:42.307Z</time></trkpt><trkpt lat="58.81273333" lon="14.86343667"><ele>99.0</ele><time>2016-06-18T10:29:43.293Z</time></trkpt><trkpt lat="58.81284667" lon="14.863555"><ele>100.0</ele><time>2016-06-18T10:29:44.296Z</time></trkpt><trkpt lat="58.81284667" lon="14.863555"><ele>100.0</ele><time>2016-06-18T10:29:45.291Z</time></trkpt><trkpt lat="58.812955" lon="14.86367833"><ele>101.0</ele><time>2016-06-18T10:29:46.297Z</time></trkpt><trkpt lat="58.81301" lon="14.863745"><ele>100.0</ele><time>2016-06-18T10:29:47.318Z</time></trkpt><trkpt lat="58.81301" lon="14.863745"><ele>100.0</ele><time>2016-06-18T10:29:48.291Z</time></trkpt><trkpt lat="58.81311167" lon="14.86387667"><ele>101.0</ele><time>2016-06-18T10:29:49.303Z</time></trkpt><trkpt lat="58.81316667" lon="14.86393833"><ele>101.0</ele><time>2016-06-18T10:29:50.318Z</time></trkpt><trkpt lat="58.81316667" lon="14.86393833"><ele>101.0</ele><time>2016-06-18T10:29:51.312Z</time></trkpt><trkpt lat="58.81328167" lon="14.86407167"><ele>102.0</ele><time>2016-06-18T10:29:52.318Z</time></trkpt><trkpt lat="58.81328167" lon="14.86407167"><ele>102.0</ele><time>2016-06-18T10:29:53.316Z</time></trkpt><trkpt lat="58.81337333" lon="14.864195"><ele>103.0</ele><time>2016-06-18T10:29:54.289Z</time></trkpt><trkpt lat="58.81341833" lon="14.86428167"><ele>103.0</ele><time>2016-06-18T10:29:55.291Z</time></trkpt><trkpt lat="58.81341833" lon="14.86428167"><ele>103.0</ele><time>2016-06-18T10:29:56.297Z</time></trkpt><trkpt lat="58.81349333" lon="14.86448"><ele>104.0</ele><time>2016-06-18T10:29:57.305Z</time></trkpt><trkpt lat="58.81349333" lon="14.86448"><ele>104.0</ele><time>2016-06-18T10:29:58.316Z</time></trkpt><trkpt lat="58.813555" lon="14.86472"><ele>104.0</ele><time>2016-06-18T10:29:59.286Z</time></trkpt><trkpt lat="58.81357833" lon="14.86485167"><ele>105.0</ele><time>2016-06-18T10:30:00.311Z</time></trkpt><trkpt lat="58.81357833" lon="14.86485167"><ele>105.0</ele><time>2016-06-18T10:30:01.290Z</time></trkpt><trkpt lat="58.813615" lon="14.86513667"><ele>104.0</ele><time>2016-06-18T10:30:02.296Z</time></trkpt><trkpt lat="58.813615" lon="14.86513667"><ele>104.0</ele><time>2016-06-18T10:30:03.292Z</time></trkpt><trkpt lat="58.81363" lon="14.86545167"><ele>105.0</ele><time>2016-06-18T10:30:04.282Z</time></trkpt><trkpt lat="58.81363" lon="14.86545167"><ele>105.0</ele><time>2016-06-18T10:30:05.310Z</time></trkpt><trkpt lat="58.81363333" lon="14.86578667"><ele>105.0</ele><time>2016-06-18T10:30:06.316Z</time></trkpt><trkpt lat="58.81363333" lon="14.86578667"><ele>105.0</ele><time>2016-06-18T10:30:07.298Z</time></trkpt><trkpt lat="58.813625" lon="14.86614667"><ele>105.0</ele><time>2016-06-18T10:30:08.312Z</time></trkpt><trkpt lat="58.813625" lon="14.86614667"><ele>105.0</ele><time>2016-06-18T10:30:09.295Z</time></trkpt><trkpt lat="58.81361333" lon="14.86653167"><ele>104.0</ele><time>2016-06-18T10:30:10.302Z</time></trkpt><trkpt lat="58.81361333" lon="14.86653167"><ele>104.0</ele><time>2016-06-18T10:30:11.352Z</time></trkpt><trkpt lat="58.81359833" lon="14.86693333"><ele>103.0</ele><time>2016-06-18T10:30:12.290Z</time></trkpt><trkpt lat="58.81359" lon="14.86714"><ele>102.0</ele><time>2016-06-18T10:30:13.290Z</time></trkpt><trkpt lat="58.81358" lon="14.86735333"><ele>102.0</ele><time>2016-06-18T10:30:14.302Z</time></trkpt><trkpt lat="58.81356833" lon="14.86756833"><ele>101.0</ele><time>2016-06-18T10:30:15.298Z</time></trkpt><trkpt lat="58.81356833" lon="14.86756833"><ele>101.0</ele><time>2016-06-18T10:30:16.312Z</time></trkpt><trkpt lat="58.81355833" lon="14.86801833"><ele>100.0</ele><time>2016-06-18T10:30:17.319Z</time></trkpt><trkpt lat="58.81355833" lon="14.86801833"><ele>100.0</ele><time>2016-06-18T10:30:18.301Z</time></trkpt><trkpt lat="58.81355833" lon="14.868475"><ele>99.0</ele><time>2016-06-18T10:30:19.313Z</time></trkpt><trkpt lat="58.81355833" lon="14.868475"><ele>99.0</ele><time>2016-06-18T10:30:20.321Z</time></trkpt><trkpt lat="58.81355833" lon="14.86891667"><ele>98.0</ele><time>2016-06-18T10:30:21.292Z</time></trkpt><trkpt lat="58.81355833" lon="14.86891667"><ele>98.0</ele><time>2016-06-18T10:30:22.314Z</time></trkpt><trkpt lat="58.81355167" lon="14.86934667"><ele>97.0</ele><time>2016-06-18T10:30:23.320Z</time></trkpt><trkpt lat="58.81355167" lon="14.86934667"><ele>97.0</ele><time>2016-06-18T10:30:24.289Z</time></trkpt><trkpt lat="58.81354667" lon="14.86976167"><ele>96.0</ele><time>2016-06-18T10:30:25.297Z</time></trkpt><trkpt lat="58.81354167" lon="14.86996667"><ele>96.0</ele><time>2016-06-18T10:30:26.309Z</time></trkpt><trkpt lat="58.81354167" lon="14.86996667"><ele>96.0</ele><time>2016-06-18T10:30:27.291Z</time></trkpt><trkpt lat="58.81353167" lon="14.87037"><ele>96.0</ele><time>2016-06-18T10:30:28.298Z</time></trkpt><trkpt lat="58.81353167" lon="14.87037"><ele>96.0</ele><time>2016-06-18T10:30:29.293Z</time></trkpt><trkpt lat="58.81352833" lon="14.87077333"><ele>95.0</ele><time>2016-06-18T10:30:30.299Z</time></trkpt><trkpt lat="58.81352833" lon="14.87097667"><ele>95.0</ele><time>2016-06-18T10:30:31.313Z</time></trkpt><trkpt lat="58.81353333" lon="14.87117667"><ele>95.0</ele><time>2016-06-18T10:30:32.290Z</time></trkpt><trkpt lat="58.81353333" lon="14.87117667"><ele>95.0</ele><time>2016-06-18T10:30:33.314Z</time></trkpt><trkpt lat="58.81356167" lon="14.87156667"><ele>95.0</ele><time>2016-06-18T10:30:34.286Z</time></trkpt><trkpt lat="58.81358667" lon="14.87175333"><ele>94.0</ele><time>2016-06-18T10:30:35.295Z</time></trkpt><trkpt lat="58.81358667" lon="14.87175333"><ele>94.0</ele><time>2016-06-18T10:30:36.316Z</time></trkpt><trkpt lat="58.81365833" lon="14.872105"><ele>94.0</ele><time>2016-06-18T10:30:37.321Z</time></trkpt><trkpt lat="58.81370667" lon="14.87227"><ele>94.0</ele><time>2016-06-18T10:30:38.289Z</time></trkpt><trkpt lat="58.81370667" lon="14.87227"><ele>94.0</ele><time>2016-06-18T10:30:39.311Z</time></trkpt><trkpt lat="58.81381333" lon="14.872585"><ele>94.0</ele><time>2016-06-18T10:30:40.318Z</time></trkpt><trkpt lat="58.81381333" lon="14.872585"><ele>94.0</ele><time>2016-06-18T10:30:41.310Z</time></trkpt><trkpt lat="58.813935" lon="14.87288667"><ele>93.0</ele><time>2016-06-18T10:30:42.317Z</time></trkpt><trkpt lat="58.813935" lon="14.87288667"><ele>93.0</ele><time>2016-06-18T10:30:43.298Z</time></trkpt><trkpt lat="58.814055" lon="14.87319333"><ele>92.0</ele><time>2016-06-18T10:30:44.298Z</time></trkpt><trkpt lat="58.814055" lon="14.87319333"><ele>92.0</ele><time>2016-06-18T10:30:45.290Z</time></trkpt><trkpt lat="58.81417" lon="14.87350833"><ele>92.0</ele><time>2016-06-18T10:30:46.296Z</time></trkpt><trkpt lat="58.81422167" lon="14.87367167"><ele>92.0</ele><time>2016-06-18T10:30:47.312Z</time></trkpt><trkpt lat="58.81422167" lon="14.87367167"><ele>92.0</ele><time>2016-06-18T10:30:48.294Z</time></trkpt><trkpt lat="58.81431833" lon="14.87400167"><ele>92.0</ele><time>2016-06-18T10:30:49.300Z</time></trkpt><trkpt lat="58.81436167" lon="14.87417"><ele>91.0</ele><time>2016-06-18T10:30:50.315Z</time></trkpt><trkpt lat="58.81436167" lon="14.87417"><ele>91.0</ele><time>2016-06-18T10:30:51.303Z</time></trkpt><trkpt lat="58.814445" lon="14.87450667"><ele>91.0</ele><time>2016-06-18T10:30:52.310Z</time></trkpt><trkpt lat="58.814485" lon="14.87467333"><ele>91.0</ele><time>2016-06-18T10:30:53.317Z</time></trkpt><trkpt lat="58.814485" lon="14.87467333"><ele>91.0</ele><time>2016-06-18T10:30:54.303Z</time></trkpt><trkpt lat="58.814565" lon="14.87500667"><ele>91.0</ele><time>2016-06-18T10:30:55.310Z</time></trkpt><trkpt lat="58.81460333" lon="14.87517333"><ele>91.0</ele><time>2016-06-18T10:30:56.296Z</time></trkpt><trkpt lat="58.81460333" lon="14.87517333"><ele>91.0</ele><time>2016-06-18T10:30:57.303Z</time></trkpt><trkpt lat="58.81468" lon="14.87551"><ele>91.0</ele><time>2016-06-18T10:30:58.310Z</time></trkpt><trkpt lat="58.81471833" lon="14.87567333"><ele>91.0</ele><time>2016-06-18T10:30:59.295Z</time></trkpt><trkpt lat="58.81471833" lon="14.87567333"><ele>91.0</ele><time>2016-06-18T10:31:00.307Z</time></trkpt><trkpt lat="58.81479833" lon="14.87599167"><ele>91.0</ele><time>2016-06-18T10:31:01.313Z</time></trkpt><trkpt lat="58.81484" lon="14.87614667"><ele>91.0</ele><time>2016-06-18T10:31:02.288Z</time></trkpt><trkpt lat="58.81488167" lon="14.8763"><ele>91.0</ele><time>2016-06-18T10:31:03.285Z</time></trkpt><trkpt lat="58.81488167" lon="14.8763"><ele>91.0</ele><time>2016-06-18T10:31:04.308Z</time></trkpt><trkpt lat="58.81497833" lon="14.8766"><ele>90.0</ele><time>2016-06-18T10:31:05.316Z</time></trkpt><trkpt lat="58.81497833" lon="14.8766"><ele>90.0</ele><time>2016-06-18T10:31:06.298Z</time></trkpt><trkpt lat="58.81508333" lon="14.87689167"><ele>90.0</ele><time>2016-06-18T10:31:07.308Z</time></trkpt><trkpt lat="58.81513667" lon="14.87703167"><ele>90.0</ele><time>2016-06-18T10:31:08.311Z</time></trkpt><trkpt lat="58.81513667" lon="14.87703167"><ele>90.0</ele><time>2016-06-18T10:31:09.293Z</time></trkpt><trkpt lat="58.81525333" lon="14.87730333"><ele>90.0</ele><time>2016-06-18T10:31:10.317Z</time></trkpt><trkpt lat="58.81525333" lon="14.87730333"><ele>90.0</ele><time>2016-06-18T10:31:11.341Z</time></trkpt><trkpt lat="58.81537667" lon="14.87756667"><ele>90.0</ele><time>2016-06-18T10:31:12.283Z</time></trkpt><trkpt lat="58.81537667" lon="14.87756667"><ele>90.0</ele><time>2016-06-18T10:31:13.284Z</time></trkpt><trkpt lat="58.81550333" lon="14.87781167"><ele>90.0</ele><time>2016-06-18T10:31:14.294Z</time></trkpt><trkpt lat="58.81550333" lon="14.87781167"><ele>90.0</ele><time>2016-06-18T10:31:15.316Z</time></trkpt><trkpt lat="58.81563333" lon="14.878035"><ele>90.0</ele><time>2016-06-18T10:31:16.288Z</time></trkpt><trkpt lat="58.81569833" lon="14.87814"><ele>90.0</ele><time>2016-06-18T10:31:17.296Z</time></trkpt><trkpt lat="58.81569833" lon="14.87814"><ele>90.0</ele><time>2016-06-18T10:31:18.307Z</time></trkpt><trkpt lat="58.815825" lon="14.87833667"><ele>91.0</ele><time>2016-06-18T10:31:19.313Z</time></trkpt><trkpt lat="58.81588667" lon="14.87843"><ele>91.0</ele><time>2016-06-18T10:31:20.287Z</time></trkpt><trkpt lat="58.81588667" lon="14.87843"><ele>91.0</ele><time>2016-06-18T10:31:21.304Z</time></trkpt><trkpt lat="58.816005" lon="14.87860333"><ele>91.0</ele><time>2016-06-18T10:31:22.311Z</time></trkpt><trkpt lat="58.816005" lon="14.87860333"><ele>91.0</ele><time>2016-06-18T10:31:23.296Z</time></trkpt><trkpt lat="58.81612" lon="14.878775"><ele>91.0</ele><time>2016-06-18T10:31:24.291Z</time></trkpt><trkpt lat="58.81612" lon="14.878775"><ele>91.0</ele><time>2016-06-18T10:31:25.320Z</time></trkpt><trkpt lat="58.81623833" lon="14.87894833"><ele>91.0</ele><time>2016-06-18T10:31:26.292Z</time></trkpt><trkpt lat="58.81623833" lon="14.87894833"><ele>91.0</ele><time>2016-06-18T10:31:27.315Z</time></trkpt><trkpt lat="58.81635667" lon="14.87912333"><ele>91.0</ele><time>2016-06-18T10:31:28.323Z</time></trkpt><trkpt lat="58.81641333" lon="14.87921167"><ele>92.0</ele><time>2016-06-18T10:31:29.308Z</time></trkpt><trkpt lat="58.81641333" lon="14.87921167"><ele>92.0</ele><time>2016-06-18T10:31:30.291Z</time></trkpt><trkpt lat="58.81653" lon="14.879385"><ele>92.0</ele><time>2016-06-18T10:31:31.320Z</time></trkpt><trkpt lat="58.81659" lon="14.87946833"><ele>92.0</ele><time>2016-06-18T10:31:32.301Z</time></trkpt><trkpt lat="58.81659" lon="14.87946833"><ele>92.0</ele><time>2016-06-18T10:31:33.294Z</time></trkpt><trkpt lat="58.81670167" lon="14.87961667"><ele>93.0</ele><time>2016-06-18T10:31:34.297Z</time></trkpt><trkpt lat="58.81670167" lon="14.87961667"><ele>93.0</ele><time>2016-06-18T10:31:35.301Z</time></trkpt><trkpt lat="58.81682" lon="14.87974833"><ele>93.0</ele><time>2016-06-18T10:31:36.308Z</time></trkpt><trkpt lat="58.81688167" lon="14.87981"><ele>94.0</ele><time>2016-06-18T10:31:37.303Z</time></trkpt><trkpt lat="58.816945" lon="14.87987"><ele>94.0</ele><time>2016-06-18T10:31:38.284Z</time></trkpt><trkpt lat="58.816945" lon="14.87987"><ele>94.0</ele><time>2016-06-18T10:31:39.311Z</time></trkpt><trkpt lat="58.81707333" lon="14.87998167"><ele>94.0</ele><time>2016-06-18T10:31:40.287Z</time></trkpt><trkpt lat="58.81707333" lon="14.87998167"><ele>94.0</ele><time>2016-06-18T10:31:41.289Z</time></trkpt><trkpt lat="58.817205" lon="14.88007667"><ele>94.0</ele><time>2016-06-18T10:31:42.296Z</time></trkpt><trkpt lat="58.817205" lon="14.88007667"><ele>94.0</ele><time>2016-06-18T10:31:43.317Z</time></trkpt><trkpt lat="58.81734" lon="14.88017"><ele>94.0</ele><time>2016-06-18T10:31:44.311Z</time></trkpt><trkpt lat="58.81734" lon="14.88017"><ele>94.0</ele><time>2016-06-18T10:31:45.298Z</time></trkpt><trkpt lat="58.81748" lon="14.88025667"><ele>94.0</ele><time>2016-06-18T10:31:46.305Z</time></trkpt><trkpt lat="58.81755333" lon="14.88029667"><ele>94.0</ele><time>2016-06-18T10:31:47.304Z</time></trkpt><trkpt lat="58.81755333" lon="14.88029667"><ele>94.0</ele><time>2016-06-18T10:31:48.317Z</time></trkpt><trkpt lat="58.81769667" lon="14.88038"><ele>94.0</ele><time>2016-06-18T10:31:49.287Z</time></trkpt><trkpt lat="58.817765" lon="14.880425"><ele>94.0</ele><time>2016-06-18T10:31:50.300Z</time></trkpt><trkpt lat="58.817765" lon="14.880425"><ele>94.0</ele><time>2016-06-18T10:31:51.283Z</time></trkpt><trkpt lat="58.8179" lon="14.88052"><ele>94.0</ele><time>2016-06-18T10:31:52.292Z</time></trkpt><trkpt lat="58.8179" lon="14.88052"><ele>94.0</ele><time>2016-06-18T10:31:53.294Z</time></trkpt><trkpt lat="58.81803667" lon="14.88062833"><ele>94.0</ele><time>2016-06-18T10:31:54.301Z</time></trkpt><trkpt lat="58.818105" lon="14.88069"><ele>94.0</ele><time>2016-06-18T10:31:55.310Z</time></trkpt><trkpt lat="58.81817167" lon="14.88075667"><ele>94.0</ele><time>2016-06-18T10:31:56.321Z</time></trkpt><trkpt lat="58.81817167" lon="14.88075667"><ele>94.0</ele><time>2016-06-18T10:31:57.303Z</time></trkpt><trkpt lat="58.81830167" lon="14.88090167"><ele>94.0</ele><time>2016-06-18T10:31:58.322Z</time></trkpt><trkpt lat="58.81836333" lon="14.88098"><ele>94.0</ele><time>2016-06-18T10:31:59.301Z</time></trkpt><trkpt lat="58.81842333" lon="14.88106167"><ele>94.0</ele><time>2016-06-18T10:32:00.284Z</time></trkpt><trkpt lat="58.81842333" lon="14.88106167"><ele>94.0</ele><time>2016-06-18T10:32:01.290Z</time></trkpt><trkpt lat="58.818545" lon="14.88123667"><ele>94.0</ele><time>2016-06-18T10:32:02.297Z</time></trkpt><trkpt lat="58.818545" lon="14.88123667"><ele>94.0</ele><time>2016-06-18T10:32:03.319Z</time></trkpt><trkpt lat="58.818665" lon="14.88141833"><ele>94.0</ele><time>2016-06-18T10:32:04.318Z</time></trkpt><trkpt lat="58.818665" lon="14.88141833"><ele>94.0</ele><time>2016-06-18T10:32:05.299Z</time></trkpt><trkpt lat="58.81879" lon="14.8816"><ele>95.0</ele><time>2016-06-18T10:32:06.305Z</time></trkpt><trkpt lat="58.81879" lon="14.8816"><ele>95.0</ele><time>2016-06-18T10:32:07.289Z</time></trkpt><trkpt lat="58.81891333" lon="14.881795"><ele>95.0</ele><time>2016-06-18T10:32:08.321Z</time></trkpt><trkpt lat="58.81891333" lon="14.881795"><ele>95.0</ele><time>2016-06-18T10:32:09.319Z</time></trkpt><trkpt lat="58.81903667" lon="14.88199833"><ele>95.0</ele><time>2016-06-18T10:32:10.292Z</time></trkpt><trkpt lat="58.81903667" lon="14.88199833"><ele>95.0</ele><time>2016-06-18T10:32:11.347Z</time></trkpt><trkpt lat="58.81916" lon="14.8822"><ele>95.0</ele><time>2016-06-18T10:32:12.297Z</time></trkpt><trkpt lat="58.81922" lon="14.88230167"><ele>94.0</ele><time>2016-06-18T10:32:13.319Z</time></trkpt><trkpt lat="58.81927833" lon="14.88239667"><ele>94.0</ele><time>2016-06-18T10:32:14.288Z</time></trkpt><trkpt lat="58.81927833" lon="14.88239667"><ele>94.0</ele><time>2016-06-18T10:32:15.314Z</time></trkpt><trkpt lat="58.81939667" lon="14.88258667"><ele>95.0</ele><time>2016-06-18T10:32:16.316Z</time></trkpt><trkpt lat="58.81939667" lon="14.88258667"><ele>95.0</ele><time>2016-06-18T10:32:17.309Z</time></trkpt><trkpt lat="58.81951833" lon="14.882775"><ele>94.0</ele><time>2016-06-18T10:32:18.316Z</time></trkpt><trkpt lat="58.81951833" lon="14.882775"><ele>94.0</ele><time>2016-06-18T10:32:19.298Z</time></trkpt><trkpt lat="58.81963833" lon="14.88296"><ele>94.0</ele><time>2016-06-18T10:32:20.288Z</time></trkpt><trkpt lat="58.81963833" lon="14.88296"><ele>94.0</ele><time>2016-06-18T10:32:21.312Z</time></trkpt><trkpt lat="58.81975833" lon="14.88315833"><ele>94.0</ele><time>2016-06-18T10:32:22.320Z</time></trkpt><trkpt lat="58.81975833" lon="14.88315833"><ele>94.0</ele><time>2016-06-18T10:32:23.302Z</time></trkpt><trkpt lat="58.81988167" lon="14.88335167"><ele>94.0</ele><time>2016-06-18T10:32:24.318Z</time></trkpt><trkpt lat="58.81994167" lon="14.88344667"><ele>94.0</ele><time>2016-06-18T10:32:25.282Z</time></trkpt><trkpt lat="58.81994167" lon="14.88344667"><ele>94.0</ele><time>2016-06-18T10:32:26.307Z</time></trkpt><trkpt lat="58.82005833" lon="14.88363667"><ele>94.0</ele><time>2016-06-18T10:32:27.314Z</time></trkpt><trkpt lat="58.82005833" lon="14.88363667"><ele>94.0</ele><time>2016-06-18T10:32:28.292Z</time></trkpt><trkpt lat="58.82017" lon="14.883825"><ele>94.0</ele><time>2016-06-18T10:32:29.299Z</time></trkpt><trkpt lat="58.820225" lon="14.88392"><ele>94.0</ele><time>2016-06-18T10:32:30.301Z</time></trkpt><trkpt lat="58.820225" lon="14.88392"><ele>94.0</ele><time>2016-06-18T10:32:31.283Z</time></trkpt><trkpt lat="58.82033667" lon="14.8841"><ele>94.0</ele><time>2016-06-18T10:32:32.293Z</time></trkpt><trkpt lat="58.82033667" lon="14.8841"><ele>94.0</ele><time>2016-06-18T10:32:33.309Z</time></trkpt><trkpt lat="58.82044" lon="14.88426667"><ele>95.0</ele><time>2016-06-18T10:32:34.316Z</time></trkpt><trkpt lat="58.82044" lon="14.88426667"><ele>95.0</ele><time>2016-06-18T10:32:35.298Z</time></trkpt><trkpt lat="58.82054333" lon="14.88443"><ele>95.0</ele><time>2016-06-18T10:32:36.292Z</time></trkpt><trkpt lat="58.82054333" lon="14.88443"><ele>95.0</ele><time>2016-06-18T10:32:37.318Z</time></trkpt><trkpt lat="58.82064167" lon="14.88458"><ele>96.0</ele><time>2016-06-18T10:32:38.285Z</time></trkpt><trkpt lat="58.82064167" lon="14.88458"><ele>96.0</ele><time>2016-06-18T10:32:39.309Z</time></trkpt><trkpt lat="58.82074" lon="14.88472667"><ele>96.0</ele><time>2016-06-18T10:32:40.316Z</time></trkpt><trkpt lat="58.82074" lon="14.88472667"><ele>96.0</ele><time>2016-06-18T10:32:41.296Z</time></trkpt><trkpt lat="58.82082833" lon="14.88485333"><ele>96.0</ele><time>2016-06-18T10:32:42.303Z</time></trkpt><trkpt lat="58.82087" lon="14.884915"><ele>96.0</ele><time>2016-06-18T10:32:43.294Z</time></trkpt><trkpt lat="58.82087" lon="14.884915"><ele>96.0</ele><time>2016-06-18T10:32:44.287Z</time></trkpt><trkpt lat="58.82096" lon="14.88504167"><ele>97.0</ele><time>2016-06-18T10:32:45.294Z</time></trkpt><trkpt lat="58.82100333" lon="14.88510333"><ele>97.0</ele><time>2016-06-18T10:32:46.301Z</time></trkpt><trkpt lat="58.82104667" lon="14.885155"><ele>97.0</ele><time>2016-06-18T10:32:47.291Z</time></trkpt><trkpt lat="58.82104667" lon="14.885155"><ele>97.0</ele><time>2016-06-18T10:32:48.314Z</time></trkpt><trkpt lat="58.82113" lon="14.88525667"><ele>97.0</ele><time>2016-06-18T10:32:49.321Z</time></trkpt><trkpt lat="58.82117833" lon="14.88531833"><ele>97.0</ele><time>2016-06-18T10:32:50.303Z</time></trkpt><trkpt lat="58.82117833" lon="14.88531833"><ele>97.0</ele><time>2016-06-18T10:32:51.316Z</time></trkpt><trkpt lat="58.82128167" lon="14.88544667"><ele>98.0</ele><time>2016-06-18T10:32:52.288Z</time></trkpt><trkpt lat="58.821335" lon="14.88551333"><ele>98.0</ele><time>2016-06-18T10:32:53.301Z</time></trkpt><trkpt lat="58.821335" lon="14.88551333"><ele>98.0</ele><time>2016-06-18T10:32:54.311Z</time></trkpt><trkpt lat="58.82145" lon="14.88565167"><ele>97.0</ele><time>2016-06-18T10:32:55.318Z</time></trkpt><trkpt lat="58.82151" lon="14.88572333"><ele>97.0</ele><time>2016-06-18T10:32:56.300Z</time></trkpt><trkpt lat="58.82151" lon="14.88572333"><ele>97.0</ele><time>2016-06-18T10:32:57.283Z</time></trkpt><trkpt lat="58.82163333" lon="14.88588667"><ele>96.0</ele><time>2016-06-18T10:32:58.294Z</time></trkpt><trkpt lat="58.82170167" lon="14.88597"><ele>95.0</ele><time>2016-06-18T10:32:59.316Z</time></trkpt><trkpt lat="58.82170167" lon="14.88597"><ele>95.0</ele><time>2016-06-18T10:33:00.321Z</time></trkpt><trkpt lat="58.82185" lon="14.886155"><ele>94.0</ele><time>2016-06-18T10:33:01.292Z</time></trkpt><trkpt lat="58.82192833" lon="14.88625"><ele>94.0</ele><time>2016-06-18T10:33:02.315Z</time></trkpt><trkpt lat="58.82192833" lon="14.88625"><ele>94.0</ele><time>2016-06-18T10:33:03.320Z</time></trkpt><trkpt lat="58.82208667" lon="14.886435"><ele>94.0</ele><time>2016-06-18T10:33:04.304Z</time></trkpt><trkpt lat="58.82208667" lon="14.886435"><ele>94.0</ele><time>2016-06-18T10:33:05.309Z</time></trkpt><trkpt lat="58.822245" lon="14.88661"><ele>94.0</ele><time>2016-06-18T10:33:06.316Z</time></trkpt><trkpt lat="58.822245" lon="14.88661"><ele>94.0</ele><time>2016-06-18T10:33:07.298Z</time></trkpt><trkpt lat="58.82240167" lon="14.886765"><ele>94.0</ele><time>2016-06-18T10:33:08.311Z</time></trkpt><trkpt lat="58.82240167" lon="14.886765"><ele>94.0</ele><time>2016-06-18T10:33:09.290Z</time></trkpt><trkpt lat="58.82255333" lon="14.88690833"><ele>95.0</ele><time>2016-06-18T10:33:10.298Z</time></trkpt><trkpt lat="58.82255333" lon="14.88690833"><ele>95.0</ele><time>2016-06-18T10:33:11.335Z</time></trkpt><trkpt lat="58.82269333" lon="14.88704"><ele>95.0</ele><time>2016-06-18T10:33:12.291Z</time></trkpt><trkpt lat="58.82269333" lon="14.88704"><ele>95.0</ele><time>2016-06-18T10:33:13.315Z</time></trkpt><trkpt lat="58.82282667" lon="14.88717167"><ele>96.0</ele><time>2016-06-18T10:33:14.288Z</time></trkpt><trkpt lat="58.82289167" lon="14.88723167"><ele>96.0</ele><time>2016-06-18T10:33:15.317Z</time></trkpt><trkpt lat="58.82289167" lon="14.88723167"><ele>96.0</ele><time>2016-06-18T10:33:16.300Z</time></trkpt><trkpt lat="58.82301833" lon="14.88734"><ele>97.0</ele><time>2016-06-18T10:33:17.323Z</time></trkpt><trkpt lat="58.82301833" lon="14.88734"><ele>97.0</ele><time>2016-06-18T10:33:18.290Z</time></trkpt><trkpt lat="58.82314" lon="14.887445"><ele>97.0</ele><time>2016-06-18T10:33:19.298Z</time></trkpt><trkpt lat="58.82319833" lon="14.88749667"><ele>98.0</ele><time>2016-06-18T10:33:20.283Z</time></trkpt><trkpt lat="58.82319833" lon="14.88749667"><ele>98.0</ele><time>2016-06-18T10:33:21.290Z</time></trkpt><trkpt lat="58.82331333" lon="14.887595"><ele>99.0</ele><time>2016-06-18T10:33:22.297Z</time></trkpt><trkpt lat="58.82331333" lon="14.887595"><ele>99.0</ele><time>2016-06-18T10:33:23.313Z</time></trkpt><trkpt lat="58.82342833" lon="14.88769167"><ele>99.0</ele><time>2016-06-18T10:33:24.288Z</time></trkpt><trkpt lat="58.82342833" lon="14.88769167"><ele>99.0</ele><time>2016-06-18T10:33:25.307Z</time></trkpt><trkpt lat="58.82354667" lon="14.887785"><ele>100.0</ele><time>2016-06-18T10:33:26.314Z</time></trkpt><trkpt lat="58.82354667" lon="14.887785"><ele>100.0</ele><time>2016-06-18T10:33:27.296Z</time></trkpt><trkpt lat="58.82366333" lon="14.88788833"><ele>100.0</ele><time>2016-06-18T10:33:28.288Z</time></trkpt><trkpt lat="58.82366333" lon="14.88788833"><ele>100.0</ele><time>2016-06-18T10:33:29.301Z</time></trkpt><trkpt lat="58.82378333" lon="14.88799333"><ele>100.0</ele><time>2016-06-18T10:33:30.308Z</time></trkpt><trkpt lat="58.823845" lon="14.88803833"><ele>100.0</ele><time>2016-06-18T10:33:31.288Z</time></trkpt><trkpt lat="58.823845" lon="14.88803833"><ele>100.0</ele><time>2016-06-18T10:33:32.316Z</time></trkpt><trkpt lat="58.82397333" lon="14.888095"><ele>100.0</ele><time>2016-06-18T10:33:33.283Z</time></trkpt><trkpt lat="58.82397333" lon="14.888095"><ele>100.0</ele><time>2016-06-18T10:33:34.306Z</time></trkpt><trkpt lat="58.82410833" lon="14.88806167"><ele>99.0</ele><time>2016-06-18T10:33:35.295Z</time></trkpt><trkpt lat="58.82410833" lon="14.88806167"><ele>99.0</ele><time>2016-06-18T10:33:36.306Z</time></trkpt><trkpt lat="58.82423" lon="14.88794167"><ele>97.0</ele><time>2016-06-18T10:33:37.313Z</time></trkpt><trkpt lat="58.82428167" lon="14.88786667"><ele>97.0</ele><time>2016-06-18T10:33:38.291Z</time></trkpt><trkpt lat="58.82428167" lon="14.88786667"><ele>97.0</ele><time>2016-06-18T10:33:39.320Z</time></trkpt><trkpt lat="58.82437833" lon="14.88769333"><ele>97.0</ele><time>2016-06-18T10:33:40.290Z</time></trkpt><trkpt lat="58.82444" lon="14.88763333"><ele>97.0</ele><time>2016-06-18T10:33:41.282Z</time></trkpt><trkpt lat="58.82450833" lon="14.88761833"><ele>97.0</ele><time>2016-06-18T10:33:42.311Z</time></trkpt><trkpt lat="58.82450833" lon="14.88761833"><ele>97.0</ele><time>2016-06-18T10:33:43.293Z</time></trkpt><trkpt lat="58.824625" lon="14.88772167"><ele>97.0</ele><time>2016-06-18T10:33:44.300Z</time></trkpt><trkpt lat="58.82468" lon="14.887815"><ele>97.0</ele><time>2016-06-18T10:33:45.291Z</time></trkpt><trkpt lat="58.82468" lon="14.887815"><ele>97.0</ele><time>2016-06-18T10:33:46.312Z</time></trkpt><trkpt lat="58.82479" lon="14.888015"><ele>97.0</ele><time>2016-06-18T10:33:47.289Z</time></trkpt><trkpt lat="58.82479" lon="14.888015"><ele>97.0</ele><time>2016-06-18T10:33:48.298Z</time></trkpt><trkpt lat="58.8249" lon="14.88822167"><ele>97.0</ele><time>2016-06-18T10:33:49.308Z</time></trkpt><trkpt lat="58.8249" lon="14.88822167"><ele>97.0</ele><time>2016-06-18T10:33:50.292Z</time></trkpt><trkpt lat="58.82501667" lon="14.88842167"><ele>98.0</ele><time>2016-06-18T10:33:51.315Z</time></trkpt><trkpt lat="58.82501667" lon="14.88842167"><ele>98.0</ele><time>2016-06-18T10:33:52.320Z</time></trkpt><trkpt lat="58.825135" lon="14.88862333"><ele>98.0</ele><time>2016-06-18T10:33:53.298Z</time></trkpt><trkpt lat="58.825195" lon="14.888725"><ele>98.0</ele><time>2016-06-18T10:33:54.316Z</time></trkpt><trkpt lat="58.825195" lon="14.888725"><ele>98.0</ele><time>2016-06-18T10:33:55.289Z</time></trkpt><trkpt lat="58.825315" lon="14.88892667"><ele>98.0</ele><time>2016-06-18T10:33:56.297Z</time></trkpt><trkpt lat="58.825315" lon="14.88892667"><ele>98.0</ele><time>2016-06-18T10:33:57.321Z</time></trkpt><trkpt lat="58.82543167" lon="14.88912833"><ele>98.0</ele><time>2016-06-18T10:33:58.288Z</time></trkpt><trkpt lat="58.82543167" lon="14.88912833"><ele>98.0</ele><time>2016-06-18T10:33:59.313Z</time></trkpt><trkpt lat="58.82555" lon="14.88933167"><ele>98.0</ele><time>2016-06-18T10:34:00.288Z</time></trkpt><trkpt lat="58.82560833" lon="14.889435"><ele>98.0</ele><time>2016-06-18T10:34:01.289Z</time></trkpt><trkpt lat="58.82566833" lon="14.88954"><ele>98.0</ele><time>2016-06-18T10:34:02.301Z</time></trkpt><trkpt lat="58.82566833" lon="14.88954"><ele>98.0</ele><time>2016-06-18T10:34:03.317Z</time></trkpt><trkpt lat="58.82579333" lon="14.88974833"><ele>98.0</ele><time>2016-06-18T10:34:04.291Z</time></trkpt><trkpt lat="58.82579333" lon="14.88974833"><ele>98.0</ele><time>2016-06-18T10:34:05.309Z</time></trkpt><trkpt lat="58.82591833" lon="14.88996167"><ele>98.0</ele><time>2016-06-18T10:34:06.291Z</time></trkpt><trkpt lat="58.82598333" lon="14.89007333"><ele>98.0</ele><time>2016-06-18T10:34:07.282Z</time></trkpt><trkpt lat="58.82598333" lon="14.89007333"><ele>98.0</ele><time>2016-06-18T10:34:08.306Z</time></trkpt><trkpt lat="58.82611167" lon="14.89030167"><ele>98.0</ele><time>2016-06-18T10:34:09.314Z</time></trkpt><trkpt lat="58.82617667" lon="14.890415"><ele>97.0</ele><time>2016-06-18T10:34:10.298Z</time></trkpt><trkpt lat="58.82617667" lon="14.890415"><ele>97.0</ele><time>2016-06-18T10:34:11.356Z</time></trkpt><trkpt lat="58.82630667" lon="14.89064333"><ele>97.0</ele><time>2016-06-18T10:34:12.320Z</time></trkpt><trkpt lat="58.82630667" lon="14.89064333"><ele>97.0</ele><time>2016-06-18T10:34:13.301Z</time></trkpt><trkpt lat="58.82643833" lon="14.890875"><ele>97.0</ele><time>2016-06-18T10:34:14.309Z</time></trkpt><trkpt lat="58.82643833" lon="14.890875"><ele>97.0</ele><time>2016-06-18T10:34:15.291Z</time></trkpt><trkpt lat="58.82657167" lon="14.89109667"><ele>97.0</ele><time>2016-06-18T10:34:16.299Z</time></trkpt><trkpt lat="58.82657167" lon="14.89109667"><ele>97.0</ele><time>2016-06-18T10:34:17.322Z</time></trkpt><trkpt lat="58.82670667" lon="14.89133333"><ele>96.0</ele><time>2016-06-18T10:34:18.319Z</time></trkpt><trkpt lat="58.82670667" lon="14.89133333"><ele>96.0</ele><time>2016-06-18T10:34:19.290Z</time></trkpt><trkpt lat="58.82684333" lon="14.89158"><ele>96.0</ele><time>2016-06-18T10:34:20.299Z</time></trkpt><trkpt lat="58.82684333" lon="14.89158"><ele>96.0</ele><time>2016-06-18T10:34:21.282Z</time></trkpt><trkpt lat="58.826985" lon="14.891825"><ele>96.0</ele><time>2016-06-18T10:34:22.315Z</time></trkpt><trkpt lat="58.826985" lon="14.891825"><ele>96.0</ele><time>2016-06-18T10:34:23.295Z</time></trkpt><trkpt lat="58.82712833" lon="14.89207"><ele>95.0</ele><time>2016-06-18T10:34:24.302Z</time></trkpt><trkpt lat="58.82712833" lon="14.89207"><ele>95.0</ele><time>2016-06-18T10:34:25.284Z</time></trkpt><trkpt lat="58.82726667" lon="14.89232167"><ele>95.0</ele><time>2016-06-18T10:34:26.291Z</time></trkpt><trkpt lat="58.82726667" lon="14.89232167"><ele>95.0</ele><time>2016-06-18T10:34:27.314Z</time></trkpt><trkpt lat="58.827405" lon="14.89257333"><ele>95.0</ele><time>2016-06-18T10:34:28.300Z</time></trkpt><trkpt lat="58.827405" lon="14.89257333"><ele>95.0</ele><time>2016-06-18T10:34:29.297Z</time></trkpt><trkpt lat="58.827545" lon="14.89282833"><ele>94.0</ele><time>2016-06-18T10:34:30.303Z</time></trkpt><trkpt lat="58.827615" lon="14.89295833"><ele>94.0</ele><time>2016-06-18T10:34:31.320Z</time></trkpt><trkpt lat="58.82768667" lon="14.89308667"><ele>94.0</ele><time>2016-06-18T10:34:32.301Z</time></trkpt><trkpt lat="58.82768667" lon="14.89308667"><ele>94.0</ele><time>2016-06-18T10:34:33.295Z</time></trkpt><trkpt lat="58.82783" lon="14.893345"><ele>94.0</ele><time>2016-06-18T10:34:34.302Z</time></trkpt><trkpt lat="58.82783" lon="14.893345"><ele>94.0</ele><time>2016-06-18T10:34:35.284Z</time></trkpt><trkpt lat="58.82797" lon="14.89361333"><ele>93.0</ele><time>2016-06-18T10:34:36.316Z</time></trkpt><trkpt lat="58.82797" lon="14.89361333"><ele>93.0</ele><time>2016-06-18T10:34:37.317Z</time></trkpt><trkpt lat="58.82811333" lon="14.89389167"><ele>93.0</ele><time>2016-06-18T10:34:38.283Z</time></trkpt><trkpt lat="58.82811333" lon="14.89389167"><ele>93.0</ele><time>2016-06-18T10:34:39.312Z</time></trkpt><trkpt lat="58.82825667" lon="14.89417"><ele>93.0</ele><time>2016-06-18T10:34:40.317Z</time></trkpt><trkpt lat="58.82825667" lon="14.89417"><ele>93.0</ele><time>2016-06-18T10:34:41.313Z</time></trkpt><trkpt lat="58.82840167" lon="14.89444667"><ele>92.0</ele><time>2016-06-18T10:34:42.319Z</time></trkpt><trkpt lat="58.82847" lon="14.894585"><ele>92.0</ele><time>2016-06-18T10:34:43.322Z</time></trkpt><trkpt lat="58.82847" lon="14.894585"><ele>92.0</ele><time>2016-06-18T10:34:44.313Z</time></trkpt><trkpt lat="58.82860333" lon="14.89486"><ele>92.0</ele><time>2016-06-18T10:34:45.322Z</time></trkpt><trkpt lat="58.82866833" lon="14.894995"><ele>92.0</ele><time>2016-06-18T10:34:46.314Z</time></trkpt><trkpt lat="58.82866833" lon="14.894995"><ele>92.0</ele><time>2016-06-18T10:34:47.285Z</time></trkpt><trkpt lat="58.828795" lon="14.89526667"><ele>92.0</ele><time>2016-06-18T10:34:48.306Z</time></trkpt><trkpt lat="58.82885833" lon="14.89540167"><ele>92.0</ele><time>2016-06-18T10:34:49.302Z</time></trkpt><trkpt lat="58.82892333" lon="14.895535"><ele>92.0</ele><time>2016-06-18T10:34:50.283Z</time></trkpt><trkpt lat="58.82892333" lon="14.895535"><ele>92.0</ele><time>2016-06-18T10:34:51.316Z</time></trkpt><trkpt lat="58.82905167" lon="14.89580333"><ele>91.0</ele><time>2016-06-18T10:34:52.282Z</time></trkpt><trkpt lat="58.82905167" lon="14.89580333"><ele>91.0</ele><time>2016-06-18T10:34:53.304Z</time></trkpt><trkpt lat="58.82917667" lon="14.89608333"><ele>91.0</ele><time>2016-06-18T10:34:54.317Z</time></trkpt><trkpt lat="58.82917667" lon="14.89608333"><ele>91.0</ele><time>2016-06-18T10:34:55.308Z</time></trkpt><trkpt lat="58.82929833" lon="14.89636667"><ele>91.0</ele><time>2016-06-18T10:34:56.315Z</time></trkpt><trkpt lat="58.82929833" lon="14.89636667"><ele>91.0</ele><time>2016-06-18T10:34:57.297Z</time></trkpt><trkpt lat="58.82942333" lon="14.89663833"><ele>91.0</ele><time>2016-06-18T10:34:58.317Z</time></trkpt><trkpt lat="58.82942333" lon="14.89663833"><ele>91.0</ele><time>2016-06-18T10:34:59.302Z</time></trkpt><trkpt lat="58.82954333" lon="14.896905"><ele>92.0</ele><time>2016-06-18T10:35:00.309Z</time></trkpt><trkpt lat="58.82960333" lon="14.89703667"><ele>92.0</ele><time>2016-06-18T10:35:01.315Z</time></trkpt><trkpt lat="58.82960333" lon="14.89703667"><ele>92.0</ele><time>2016-06-18T10:35:02.309Z</time></trkpt><trkpt lat="58.82972167" lon="14.8973"><ele>92.0</ele><time>2016-06-18T10:35:03.320Z</time></trkpt><trkpt lat="58.82972167" lon="14.8973"><ele>92.0</ele><time>2016-06-18T10:35:04.302Z</time></trkpt><trkpt lat="58.82983667" lon="14.89756833"><ele>92.0</ele><time>2016-06-18T10:35:05.291Z</time></trkpt><trkpt lat="58.82983667" lon="14.89756833"><ele>92.0</ele><time>2016-06-18T10:35:06.311Z</time></trkpt><trkpt lat="58.82995" lon="14.89784333"><ele>92.0</ele><time>2016-06-18T10:35:07.318Z</time></trkpt><trkpt lat="58.830005" lon="14.89798167"><ele>92.0</ele><time>2016-06-18T10:35:08.301Z</time></trkpt><trkpt lat="58.830005" lon="14.89798167"><ele>92.0</ele><time>2016-06-18T10:35:09.287Z</time></trkpt><trkpt lat="58.83012167" lon="14.898255"><ele>92.0</ele><time>2016-06-18T10:35:10.294Z</time></trkpt><trkpt lat="58.83012167" lon="14.898255"><ele>92.0</ele><time>2016-06-18T10:35:11.347Z</time></trkpt><trkpt lat="58.83024" lon="14.898525"><ele>93.0</ele><time>2016-06-18T10:35:12.297Z</time></trkpt><trkpt lat="58.83029833" lon="14.89866167"><ele>93.0</ele><time>2016-06-18T10:35:13.319Z</time></trkpt><trkpt lat="58.83035667" lon="14.89879667"><ele>93.0</ele><time>2016-06-18T10:35:14.301Z</time></trkpt><trkpt lat="58.83035667" lon="14.89879667"><ele>93.0</ele><time>2016-06-18T10:35:15.283Z</time></trkpt><trkpt lat="58.83047667" lon="14.89906333"><ele>93.0</ele><time>2016-06-18T10:35:16.291Z</time></trkpt><trkpt lat="58.83047667" lon="14.89906333"><ele>93.0</ele><time>2016-06-18T10:35:17.316Z</time></trkpt><trkpt lat="58.830595" lon="14.89933167"><ele>93.0</ele><time>2016-06-18T10:35:18.289Z</time></trkpt><trkpt lat="58.830595" lon="14.89933167"><ele>93.0</ele><time>2016-06-18T10:35:19.302Z</time></trkpt><trkpt lat="58.83071333" lon="14.899605"><ele>94.0</ele><time>2016-06-18T10:35:20.309Z</time></trkpt><trkpt lat="58.83071333" lon="14.899605"><ele>94.0</ele><time>2016-06-18T10:35:21.300Z</time></trkpt><trkpt lat="58.83083333" lon="14.89987667"><ele>94.0</ele><time>2016-06-18T10:35:22.321Z</time></trkpt><trkpt lat="58.83083333" lon="14.89987667"><ele>94.0</ele><time>2016-06-18T10:35:23.311Z</time></trkpt><trkpt lat="58.83095" lon="14.90014833"><ele>94.0</ele><time>2016-06-18T10:35:24.317Z</time></trkpt><trkpt lat="58.83100833" lon="14.90028167"><ele>94.0</ele><time>2016-06-18T10:35:25.316Z</time></trkpt><trkpt lat="58.83106833" lon="14.90041167"><ele>95.0</ele><time>2016-06-18T10:35:26.282Z</time></trkpt><trkpt lat="58.83106833" lon="14.90041167"><ele>95.0</ele><time>2016-06-18T10:35:27.302Z</time></trkpt><trkpt lat="58.83119167" lon="14.90066333"><ele>95.0</ele><time>2016-06-18T10:35:28.323Z</time></trkpt><trkpt lat="58.83125167" lon="14.900785"><ele>95.0</ele><time>2016-06-18T10:35:29.321Z</time></trkpt><trkpt lat="58.83125167" lon="14.900785"><ele>95.0</ele><time>2016-06-18T10:35:30.302Z</time></trkpt><trkpt lat="58.831375" lon="14.90102833"><ele>95.0</ele><time>2016-06-18T10:35:31.309Z</time></trkpt><trkpt lat="58.83143667" lon="14.90115"><ele>95.0</ele><time>2016-06-18T10:35:32.296Z</time></trkpt><trkpt lat="58.83143667" lon="14.90115"><ele>95.0</ele><time>2016-06-18T10:35:33.318Z</time></trkpt><trkpt lat="58.83155833" lon="14.90139167"><ele>95.0</ele><time>2016-06-18T10:35:34.292Z</time></trkpt><trkpt lat="58.83162" lon="14.90150667"><ele>95.0</ele><time>2016-06-18T10:35:35.305Z</time></trkpt><trkpt lat="58.83162" lon="14.90150667"><ele>95.0</ele><time>2016-06-18T10:35:36.295Z</time></trkpt><trkpt lat="58.831745" lon="14.90173333"><ele>95.0</ele><time>2016-06-18T10:35:37.302Z</time></trkpt><trkpt lat="58.831745" lon="14.90173333"><ele>95.0</ele><time>2016-06-18T10:35:38.288Z</time></trkpt><trkpt lat="58.831875" lon="14.901955"><ele>95.0</ele><time>2016-06-18T10:35:39.285Z</time></trkpt><trkpt lat="58.831875" lon="14.901955"><ele>95.0</ele><time>2016-06-18T10:35:40.287Z</time></trkpt><trkpt lat="58.83200167" lon="14.90216833"><ele>95.0</ele><time>2016-06-18T10:35:41.294Z</time></trkpt><trkpt lat="58.83200167" lon="14.90216833"><ele>95.0</ele><time>2016-06-18T10:35:42.317Z</time></trkpt><trkpt lat="58.83212667" lon="14.90237667"><ele>95.0</ele><time>2016-06-18T10:35:43.284Z</time></trkpt><trkpt lat="58.83212667" lon="14.90237667"><ele>95.0</ele><time>2016-06-18T10:35:44.316Z</time></trkpt><trkpt lat="58.83225333" lon="14.90257167"><ele>95.0</ele><time>2016-06-18T10:35:45.291Z</time></trkpt><trkpt lat="58.83232" lon="14.90266667"><ele>95.0</ele><time>2016-06-18T10:35:46.284Z</time></trkpt><trkpt lat="58.83232" lon="14.90266667"><ele>95.0</ele><time>2016-06-18T10:35:47.297Z</time></trkpt><trkpt lat="58.83245" lon="14.90285667"><ele>96.0</ele><time>2016-06-18T10:35:48.304Z</time></trkpt><trkpt lat="58.83245" lon="14.90285667"><ele>96.0</ele><time>2016-06-18T10:35:49.291Z</time></trkpt><trkpt lat="58.83257833" lon="14.90304833"><ele>96.0</ele><time>2016-06-18T10:35:50.298Z</time></trkpt><trkpt lat="58.83257833" lon="14.90304833"><ele>96.0</ele><time>2016-06-18T10:35:51.321Z</time></trkpt><trkpt lat="58.83271167" lon="14.90323"><ele>96.0</ele><time>2016-06-18T10:35:52.316Z</time></trkpt><trkpt lat="58.83271167" lon="14.90323"><ele>96.0</ele><time>2016-06-18T10:35:53.307Z</time></trkpt><trkpt lat="58.83284833" lon="14.90341667"><ele>96.0</ele><time>2016-06-18T10:35:54.314Z</time></trkpt><trkpt lat="58.83291667" lon="14.90350833"><ele>96.0</ele><time>2016-06-18T10:35:55.288Z</time></trkpt><trkpt lat="58.832985" lon="14.90359833"><ele>97.0</ele><time>2016-06-18T10:35:56.315Z</time></trkpt><trkpt lat="58.832985" lon="14.90359833"><ele>97.0</ele><time>2016-06-18T10:35:57.297Z</time></trkpt><trkpt lat="58.83312333" lon="14.90376667"><ele>97.0</ele><time>2016-06-18T10:35:58.315Z</time></trkpt><trkpt lat="58.83319167" lon="14.903845"><ele>97.0</ele><time>2016-06-18T10:35:59.293Z</time></trkpt><trkpt lat="58.83326" lon="14.90391833"><ele>97.0</ele><time>2016-06-18T10:36:00.318Z</time></trkpt><trkpt lat="58.83326" lon="14.90391833"><ele>97.0</ele><time>2016-06-18T10:36:01.299Z</time></trkpt><trkpt lat="58.833395" lon="14.90407"><ele>97.0</ele><time>2016-06-18T10:36:02.305Z</time></trkpt><trkpt lat="58.833395" lon="14.90407"><ele>97.0</ele><time>2016-06-18T10:36:03.298Z</time></trkpt><trkpt lat="58.83353667" lon="14.90422667"><ele>97.0</ele><time>2016-06-18T10:36:04.317Z</time></trkpt><trkpt lat="58.83360833" lon="14.904305"><ele>97.0</ele><time>2016-06-18T10:36:05.293Z</time></trkpt><trkpt lat="58.83360833" lon="14.904305"><ele>97.0</ele><time>2016-06-18T10:36:06.316Z</time></trkpt><trkpt lat="58.83375" lon="14.90445333"><ele>97.0</ele><time>2016-06-18T10:36:07.283Z</time></trkpt><trkpt lat="58.83382" lon="14.90452167"><ele>97.0</ele><time>2016-06-18T10:36:08.289Z</time></trkpt><trkpt lat="58.83382" lon="14.90452167"><ele>97.0</ele><time>2016-06-18T10:36:09.295Z</time></trkpt><trkpt lat="58.833965" lon="14.90466"><ele>97.0</ele><time>2016-06-18T10:36:10.301Z</time></trkpt><trkpt lat="58.833965" lon="14.90466"><ele>97.0</ele><time>2016-06-18T10:36:11.344Z</time></trkpt><trkpt lat="58.83411167" lon="14.90479333"><ele>97.0</ele><time>2016-06-18T10:36:12.293Z</time></trkpt><trkpt lat="58.834185" lon="14.90485833"><ele>97.0</ele><time>2016-06-18T10:36:13.315Z</time></trkpt><trkpt lat="58.83426" lon="14.90492167"><ele>97.0</ele><time>2016-06-18T10:36:14.298Z</time></trkpt><trkpt lat="58.83426" lon="14.90492167"><ele>97.0</ele><time>2016-06-18T10:36:15.321Z</time></trkpt><trkpt lat="58.83441167" lon="14.90504667"><ele>97.0</ele><time>2016-06-18T10:36:16.289Z</time></trkpt><trkpt lat="58.83448667" lon="14.90510833"><ele>97.0</ele><time>2016-06-18T10:36:17.313Z</time></trkpt><trkpt lat="58.83448667" lon="14.90510833"><ele>97.0</ele><time>2016-06-18T10:36:18.295Z</time></trkpt><trkpt lat="58.83464" lon="14.90522333"><ele>97.0</ele><time>2016-06-18T10:36:19.301Z</time></trkpt><trkpt lat="58.83471667" lon="14.90528"><ele>97.0</ele><time>2016-06-18T10:36:20.283Z</time></trkpt><trkpt lat="58.83471667" lon="14.90528"><ele>97.0</ele><time>2016-06-18T10:36:21.307Z</time></trkpt><trkpt lat="58.83486667" lon="14.905395"><ele>97.0</ele><time>2016-06-18T10:36:22.314Z</time></trkpt><trkpt lat="58.83486667" lon="14.905395"><ele>97.0</ele><time>2016-06-18T10:36:23.299Z</time></trkpt><trkpt lat="58.83501667" lon="14.90550333"><ele>97.0</ele><time>2016-06-18T10:36:24.314Z</time></trkpt><trkpt lat="58.83501667" lon="14.90550333"><ele>97.0</ele><time>2016-06-18T10:36:25.310Z</time></trkpt><trkpt lat="58.83516833" lon="14.90559833"><ele>98.0</ele><time>2016-06-18T10:36:26.317Z</time></trkpt><trkpt lat="58.83516833" lon="14.90559833"><ele>98.0</ele><time>2016-06-18T10:36:27.298Z</time></trkpt><trkpt lat="58.835315" lon="14.905685"><ele>98.0</ele><time>2016-06-18T10:36:28.297Z</time></trkpt><trkpt lat="58.835315" lon="14.905685"><ele>98.0</ele><time>2016-06-18T10:36:29.314Z</time></trkpt><trkpt lat="58.83546" lon="14.90576833"><ele>98.0</ele><time>2016-06-18T10:36:30.321Z</time></trkpt><trkpt lat="58.83546" lon="14.90576833"><ele>98.0</ele><time>2016-06-18T10:36:31.306Z</time></trkpt><trkpt lat="58.83560833" lon="14.905845"><ele>98.0</ele><time>2016-06-18T10:36:32.295Z</time></trkpt><trkpt lat="58.83560833" lon="14.905845"><ele>98.0</ele><time>2016-06-18T10:36:33.310Z</time></trkpt><trkpt lat="58.835755" lon="14.90591333"><ele>99.0</ele><time>2016-06-18T10:36:34.317Z</time></trkpt><trkpt lat="58.83582667" lon="14.905945"><ele>99.0</ele><time>2016-06-18T10:36:35.301Z</time></trkpt><trkpt lat="58.83582667" lon="14.905945"><ele>99.0</ele><time>2016-06-18T10:36:36.295Z</time></trkpt><trkpt lat="58.83597667" lon="14.90600333"><ele>99.0</ele><time>2016-06-18T10:36:37.302Z</time></trkpt><trkpt lat="58.83605167" lon="14.906035"><ele>99.0</ele><time>2016-06-18T10:36:38.297Z</time></trkpt><trkpt lat="58.83605167" lon="14.906035"><ele>99.0</ele><time>2016-06-18T10:36:39.297Z</time></trkpt><trkpt lat="58.836205" lon="14.90609167"><ele>99.0</ele><time>2016-06-18T10:36:40.303Z</time></trkpt><trkpt lat="58.836205" lon="14.90609167"><ele>99.0</ele><time>2016-06-18T10:36:41.299Z</time></trkpt><trkpt lat="58.83636" lon="14.90613167"><ele>99.0</ele><time>2016-06-18T10:36:42.305Z</time></trkpt><trkpt lat="58.83636" lon="14.90613167"><ele>99.0</ele><time>2016-06-18T10:36:43.305Z</time></trkpt><trkpt lat="58.836515" lon="14.90617667"><ele>99.0</ele><time>2016-06-18T10:36:44.312Z</time></trkpt><trkpt lat="58.836515" lon="14.90617667"><ele>99.0</ele><time>2016-06-18T10:36:45.309Z</time></trkpt><trkpt lat="58.836665" lon="14.90620833"><ele>99.0</ele><time>2016-06-18T10:36:46.302Z</time></trkpt><trkpt lat="58.836665" lon="14.90620833"><ele>99.0</ele><time>2016-06-18T10:36:47.306Z</time></trkpt><trkpt lat="58.83681167" lon="14.90624167"><ele>100.0</ele><time>2016-06-18T10:36:48.284Z</time></trkpt><trkpt lat="58.83681167" lon="14.90624167"><ele>100.0</ele><time>2016-06-18T10:36:49.310Z</time></trkpt><trkpt lat="58.83695667" lon="14.90627167"><ele>101.0</ele><time>2016-06-18T10:36:50.317Z</time></trkpt><trkpt lat="58.83695667" lon="14.90627167"><ele>101.0</ele><time>2016-06-18T10:36:51.299Z</time></trkpt><trkpt lat="58.837105" lon="14.90629833"><ele>101.0</ele><time>2016-06-18T10:36:52.312Z</time></trkpt><trkpt lat="58.83717667" lon="14.90630667"><ele>101.0</ele><time>2016-06-18T10:36:53.285Z</time></trkpt><trkpt lat="58.83725" lon="14.906315"><ele>101.0</ele><time>2016-06-18T10:36:54.308Z</time></trkpt><trkpt lat="58.83725" lon="14.906315"><ele>101.0</ele><time>2016-06-18T10:36:55.291Z</time></trkpt><trkpt lat="58.83739" lon="14.90633167"><ele>102.0</ele><time>2016-06-18T10:36:56.301Z</time></trkpt><trkpt lat="58.83739" lon="14.90633167"><ele>102.0</ele><time>2016-06-18T10:36:57.299Z</time></trkpt><trkpt lat="58.83752167" lon="14.90635"><ele>103.0</ele><time>2016-06-18T10:36:58.317Z</time></trkpt><trkpt lat="58.83752167" lon="14.90635"><ele>103.0</ele><time>2016-06-18T10:36:59.300Z</time></trkpt><trkpt lat="58.83765167" lon="14.90636833"><ele>103.0</ele><time>2016-06-18T10:37:00.307Z</time></trkpt><trkpt lat="58.83772" lon="14.90637667"><ele>103.0</ele><time>2016-06-18T10:37:01.293Z</time></trkpt><trkpt lat="58.83772" lon="14.90637667"><ele>103.0</ele><time>2016-06-18T10:37:02.288Z</time></trkpt><trkpt lat="58.83787" lon="14.90639167"><ele>103.0</ele><time>2016-06-18T10:37:03.295Z</time></trkpt><trkpt lat="58.83787" lon="14.90639167"><ele>103.0</ele><time>2016-06-18T10:37:04.315Z</time></trkpt><trkpt lat="58.83800667" lon="14.90639833"><ele>103.0</ele><time>2016-06-18T10:37:05.321Z</time></trkpt><trkpt lat="58.83800667" lon="14.90639833"><ele>103.0</ele><time>2016-06-18T10:37:06.303Z</time></trkpt><trkpt lat="58.83814833" lon="14.90641167"><ele>104.0</ele><time>2016-06-18T10:37:07.296Z</time></trkpt><trkpt lat="58.83814833" lon="14.90641167"><ele>104.0</ele><time>2016-06-18T10:37:08.301Z</time></trkpt><trkpt lat="58.83828667" lon="14.90642833"><ele>104.0</ele><time>2016-06-18T10:37:09.308Z</time></trkpt><trkpt lat="58.83828667" lon="14.90642833"><ele>104.0</ele><time>2016-06-18T10:37:10.291Z</time></trkpt><trkpt lat="58.83842667" lon="14.90644167"><ele>104.0</ele><time>2016-06-18T10:37:11.349Z</time></trkpt><trkpt lat="58.83842667" lon="14.90644167"><ele>104.0</ele><time>2016-06-18T10:37:12.308Z</time></trkpt><trkpt lat="58.83857" lon="14.90645667"><ele>104.0</ele><time>2016-06-18T10:37:13.315Z</time></trkpt><trkpt lat="58.83864167" lon="14.90646"><ele>104.0</ele><time>2016-06-18T10:37:14.301Z</time></trkpt><trkpt lat="58.83864167" lon="14.90646"><ele>104.0</ele><time>2016-06-18T10:37:15.282Z</time></trkpt><trkpt lat="58.83878" lon="14.90646667"><ele>104.0</ele><time>2016-06-18T10:37:16.290Z</time></trkpt><trkpt lat="58.83884833" lon="14.90647"><ele>104.0</ele><time>2016-06-18T10:37:17.321Z</time></trkpt><trkpt lat="58.83884833" lon="14.90647"><ele>104.0</ele><time>2016-06-18T10:37:18.304Z</time></trkpt><trkpt lat="58.83898833" lon="14.90648333"><ele>104.0</ele><time>2016-06-18T10:37:19.310Z</time></trkpt><trkpt lat="58.83905667" lon="14.90648667"><ele>105.0</ele><time>2016-06-18T10:37:20.295Z</time></trkpt><trkpt lat="58.83905667" lon="14.90648667"><ele>105.0</ele><time>2016-06-18T10:37:21.315Z</time></trkpt><trkpt lat="58.83919167" lon="14.90649"><ele>105.0</ele><time>2016-06-18T10:37:22.282Z</time></trkpt><trkpt lat="58.83919167" lon="14.90649"><ele>105.0</ele><time>2016-06-18T10:37:23.305Z</time></trkpt><trkpt lat="58.839325" lon="14.90649667"><ele>105.0</ele><time>2016-06-18T10:37:24.292Z</time></trkpt><trkpt lat="58.839325" lon="14.90649667"><ele>105.0</ele><time>2016-06-18T10:37:25.291Z</time></trkpt><trkpt lat="58.839455" lon="14.906505"><ele>105.0</ele><time>2016-06-18T10:37:26.299Z</time></trkpt><trkpt lat="58.839455" lon="14.906505"><ele>105.0</ele><time>2016-06-18T10:37:27.288Z</time></trkpt><trkpt lat="58.83958333" lon="14.90652"><ele>105.0</ele><time>2016-06-18T10:37:28.305Z</time></trkpt><trkpt lat="58.83958333" lon="14.90652"><ele>105.0</ele><time>2016-06-18T10:37:29.300Z</time></trkpt><trkpt lat="58.83971333" lon="14.90653333"><ele>105.0</ele><time>2016-06-18T10:37:30.306Z</time></trkpt><trkpt lat="58.83978167" lon="14.90653833"><ele>105.0</ele><time>2016-06-18T10:37:31.282Z</time></trkpt><trkpt lat="58.83985167" lon="14.90654167"><ele>105.0</ele><time>2016-06-18T10:37:32.292Z</time></trkpt><trkpt lat="58.83985167" lon="14.90654167"><ele>105.0</ele><time>2016-06-18T10:37:33.315Z</time></trkpt><trkpt lat="58.83999667" lon="14.90654667"><ele>105.0</ele><time>2016-06-18T10:37:34.321Z</time></trkpt><trkpt lat="58.83999667" lon="14.90654667"><ele>105.0</ele><time>2016-06-18T10:37:35.303Z</time></trkpt><trkpt lat="58.840145" lon="14.90655333"><ele>105.0</ele><time>2016-06-18T10:37:36.309Z</time></trkpt><trkpt lat="58.840145" lon="14.90655333"><ele>105.0</ele><time>2016-06-18T10:37:37.300Z</time></trkpt><trkpt lat="58.840295" lon="14.90656"><ele>105.0</ele><time>2016-06-18T10:37:38.306Z</time></trkpt><trkpt lat="58.840295" lon="14.90656"><ele>105.0</ele><time>2016-06-18T10:37:39.293Z</time></trkpt><trkpt lat="58.84045167" lon="14.90657167"><ele>105.0</ele><time>2016-06-18T10:37:40.311Z</time></trkpt><trkpt lat="58.84045167" lon="14.90657167"><ele>105.0</ele><time>2016-06-18T10:37:41.319Z</time></trkpt><trkpt lat="58.84061" lon="14.906575"><ele>105.0</ele><time>2016-06-18T10:37:42.294Z</time></trkpt><trkpt lat="58.84061" lon="14.906575"><ele>105.0</ele><time>2016-06-18T10:37:43.320Z</time></trkpt><trkpt lat="58.840775" lon="14.90658"><ele>104.0</ele><time>2016-06-18T10:37:44.317Z</time></trkpt><trkpt lat="58.840775" lon="14.90658"><ele>104.0</ele><time>2016-06-18T10:37:45.321Z</time></trkpt><trkpt lat="58.84094167" lon="14.90658667"><ele>104.0</ele><time>2016-06-18T10:37:46.294Z</time></trkpt><trkpt lat="58.84102667" lon="14.906595"><ele>103.0</ele><time>2016-06-18T10:37:47.283Z</time></trkpt><trkpt lat="58.84102667" lon="14.906595"><ele>103.0</ele><time>2016-06-18T10:37:48.318Z</time></trkpt><trkpt lat="58.84119833" lon="14.90660833"><ele>103.0</ele><time>2016-06-18T10:37:49.286Z</time></trkpt><trkpt lat="58.841285" lon="14.90661333"><ele>103.0</ele><time>2016-06-18T10:37:50.309Z</time></trkpt><trkpt lat="58.841285" lon="14.90661333"><ele>103.0</ele><time>2016-06-18T10:37:51.291Z</time></trkpt><trkpt lat="58.84145833" lon="14.90662333"><ele>103.0</ele><time>2016-06-18T10:37:52.299Z</time></trkpt><trkpt lat="58.84145833" lon="14.90662333"><ele>103.0</ele><time>2016-06-18T10:37:53.304Z</time></trkpt><trkpt lat="58.84163333" lon="14.90663667"><ele>102.0</ele><time>2016-06-18T10:37:54.316Z</time></trkpt><trkpt lat="58.84163333" lon="14.90663667"><ele>102.0</ele><time>2016-06-18T10:37:55.304Z</time></trkpt><trkpt lat="58.84181" lon="14.90666"><ele>101.0</ele><time>2016-06-18T10:37:56.311Z</time></trkpt><trkpt lat="58.84181" lon="14.90666"><ele>101.0</ele><time>2016-06-18T10:37:57.300Z</time></trkpt><trkpt lat="58.84198667" lon="14.90668167"><ele>101.0</ele><time>2016-06-18T10:37:58.285Z</time></trkpt><trkpt lat="58.84198667" lon="14.90668167"><ele>101.0</ele><time>2016-06-18T10:37:59.319Z</time></trkpt><trkpt lat="58.84216667" lon="14.90668"><ele>100.0</ele><time>2016-06-18T10:38:00.287Z</time></trkpt><trkpt lat="58.84216667" lon="14.90668"><ele>100.0</ele><time>2016-06-18T10:38:01.311Z</time></trkpt><trkpt lat="58.84234667" lon="14.90668"><ele>100.0</ele><time>2016-06-18T10:38:02.316Z</time></trkpt><trkpt lat="58.84234667" lon="14.90668"><ele>100.0</ele><time>2016-06-18T10:38:03.300Z</time></trkpt><trkpt lat="58.84252" lon="14.90669"><ele>99.0</ele><time>2016-06-18T10:38:04.307Z</time></trkpt><trkpt lat="58.842605" lon="14.9067"><ele>99.0</ele><time>2016-06-18T10:38:05.292Z</time></trkpt><trkpt lat="58.842605" lon="14.9067"><ele>99.0</ele><time>2016-06-18T10:38:06.316Z</time></trkpt><trkpt lat="58.842775" lon="14.90672"><ele>99.0</ele><time>2016-06-18T10:38:07.282Z</time></trkpt><trkpt lat="58.84286333" lon="14.90672833"><ele>99.0</ele><time>2016-06-18T10:38:08.292Z</time></trkpt><trkpt lat="58.84286333" lon="14.90672833"><ele>99.0</ele><time>2016-06-18T10:38:09.315Z</time></trkpt><trkpt lat="58.84304333" lon="14.90673833"><ele>99.0</ele><time>2016-06-18T10:38:10.324Z</time></trkpt><trkpt lat="58.84304333" lon="14.90673833"><ele>99.0</ele><time>2016-06-18T10:38:11.355Z</time></trkpt><trkpt lat="58.84322" lon="14.90675"><ele>99.0</ele><time>2016-06-18T10:38:12.313Z</time></trkpt><trkpt lat="58.84331" lon="14.906755"><ele>99.0</ele><time>2016-06-18T10:38:13.290Z</time></trkpt><trkpt lat="58.84331" lon="14.906755"><ele>99.0</ele><time>2016-06-18T10:38:14.312Z</time></trkpt><trkpt lat="58.84349" lon="14.906765"><ele>99.0</ele><time>2016-06-18T10:38:15.284Z</time></trkpt><trkpt lat="58.84349" lon="14.906765"><ele>99.0</ele><time>2016-06-18T10:38:16.291Z</time></trkpt><trkpt lat="58.84367333" lon="14.90677667"><ele>98.0</ele><time>2016-06-18T10:38:17.300Z</time></trkpt><trkpt lat="58.843765" lon="14.906785"><ele>98.0</ele><time>2016-06-18T10:38:18.286Z</time></trkpt><trkpt lat="58.843765" lon="14.906785"><ele>98.0</ele><time>2016-06-18T10:38:19.287Z</time></trkpt><trkpt lat="58.84395167" lon="14.9068"><ele>98.0</ele><time>2016-06-18T10:38:20.299Z</time></trkpt><trkpt lat="58.84395167" lon="14.9068"><ele>98.0</ele><time>2016-06-18T10:38:21.302Z</time></trkpt><trkpt lat="58.84413167" lon="14.90681333"><ele>98.0</ele><time>2016-06-18T10:38:22.316Z</time></trkpt><trkpt lat="58.84413167" lon="14.90681333"><ele>98.0</ele><time>2016-06-18T10:38:23.295Z</time></trkpt><trkpt lat="58.84431667" lon="14.90682"><ele>98.0</ele><time>2016-06-18T10:38:24.303Z</time></trkpt><trkpt lat="58.84431667" lon="14.90682"><ele>98.0</ele><time>2016-06-18T10:38:25.291Z</time></trkpt><trkpt lat="58.84449833" lon="14.90683167"><ele>97.0</ele><time>2016-06-18T10:38:26.293Z</time></trkpt><trkpt lat="58.84449833" lon="14.90683167"><ele>97.0</ele><time>2016-06-18T10:38:27.299Z</time></trkpt><trkpt lat="58.84468667" lon="14.90684167"><ele>97.0</ele><time>2016-06-18T10:38:28.305Z</time></trkpt><trkpt lat="58.84478167" lon="14.90684667"><ele>97.0</ele><time>2016-06-18T10:38:29.294Z</time></trkpt><trkpt lat="58.84478167" lon="14.90684667"><ele>97.0</ele><time>2016-06-18T10:38:30.317Z</time></trkpt><trkpt lat="58.84497333" lon="14.90686833"><ele>96.0</ele><time>2016-06-18T10:38:31.284Z</time></trkpt><trkpt lat="58.84507167" lon="14.90687833"><ele>96.0</ele><time>2016-06-18T10:38:32.299Z</time></trkpt><trkpt lat="58.84507167" lon="14.90687833"><ele>96.0</ele><time>2016-06-18T10:38:33.321Z</time></trkpt><trkpt lat="58.845265" lon="14.90689"><ele>96.0</ele><time>2016-06-18T10:38:34.293Z</time></trkpt><trkpt lat="58.84536167" lon="14.906895"><ele>96.0</ele><time>2016-06-18T10:38:35.304Z</time></trkpt><trkpt lat="58.84536167" lon="14.906895"><ele>96.0</ele><time>2016-06-18T10:38:36.290Z</time></trkpt><trkpt lat="58.84555667" lon="14.90691"><ele>95.0</ele><time>2016-06-18T10:38:37.302Z</time></trkpt><trkpt lat="58.84565333" lon="14.90691833"><ele>95.0</ele><time>2016-06-18T10:38:38.308Z</time></trkpt><trkpt lat="58.84565333" lon="14.90691833"><ele>95.0</ele><time>2016-06-18T10:38:39.291Z</time></trkpt><trkpt lat="58.84584667" lon="14.90693667"><ele>95.0</ele><time>2016-06-18T10:38:40.317Z</time></trkpt><trkpt lat="58.84584667" lon="14.90693667"><ele>95.0</ele><time>2016-06-18T10:38:41.320Z</time></trkpt><trkpt lat="58.846035" lon="14.90695"><ele>95.0</ele><time>2016-06-18T10:38:42.289Z</time></trkpt><trkpt lat="58.846035" lon="14.90695"><ele>95.0</ele><time>2016-06-18T10:38:43.313Z</time></trkpt><trkpt lat="58.84622333" lon="14.90696333"><ele>95.0</ele><time>2016-06-18T10:38:44.306Z</time></trkpt><trkpt lat="58.84622333" lon="14.90696333"><ele>95.0</ele><time>2016-06-18T10:38:45.301Z</time></trkpt><trkpt lat="58.84641167" lon="14.90698667"><ele>94.0</ele><time>2016-06-18T10:38:46.307Z</time></trkpt><trkpt lat="58.84641167" lon="14.90698667"><ele>94.0</ele><time>2016-06-18T10:38:47.290Z</time></trkpt><trkpt lat="58.84660333" lon="14.90700833"><ele>94.0</ele><time>2016-06-18T10:38:48.306Z</time></trkpt><trkpt lat="58.84669667" lon="14.90702"><ele>94.0</ele><time>2016-06-18T10:38:49.291Z</time></trkpt><trkpt lat="58.84679" lon="14.90703667"><ele>94.0</ele><time>2016-06-18T10:38:50.320Z</time></trkpt><trkpt lat="58.84679" lon="14.90703667"><ele>94.0</ele><time>2016-06-18T10:38:51.302Z</time></trkpt><trkpt lat="58.846975" lon="14.90708667"><ele>94.0</ele><time>2016-06-18T10:38:52.308Z</time></trkpt><trkpt lat="58.846975" lon="14.90708667"><ele>94.0</ele><time>2016-06-18T10:38:53.295Z</time></trkpt><trkpt lat="58.84716" lon="14.90714833"><ele>93.0</ele><time>2016-06-18T10:38:54.295Z</time></trkpt><trkpt lat="58.84716" lon="14.90714833"><ele>93.0</ele><time>2016-06-18T10:38:55.282Z</time></trkpt><trkpt lat="58.84734" lon="14.90721333"><ele>93.0</ele><time>2016-06-18T10:38:56.290Z</time></trkpt><trkpt lat="58.84734" lon="14.90721333"><ele>93.0</ele><time>2016-06-18T10:38:57.318Z</time></trkpt><trkpt lat="58.84752" lon="14.90729"><ele>93.0</ele><time>2016-06-18T10:38:58.287Z</time></trkpt><trkpt lat="58.84752" lon="14.90729"><ele>93.0</ele><time>2016-06-18T10:38:59.299Z</time></trkpt><trkpt lat="58.84769833" lon="14.907385"><ele>93.0</ele><time>2016-06-18T10:39:00.306Z</time></trkpt><trkpt lat="58.847785" lon="14.90743667"><ele>93.0</ele><time>2016-06-18T10:39:01.316Z</time></trkpt><trkpt lat="58.847785" lon="14.90743667"><ele>93.0</ele><time>2016-06-18T10:39:02.299Z</time></trkpt><trkpt lat="58.84795833" lon="14.90754833"><ele>93.0</ele><time>2016-06-18T10:39:03.306Z</time></trkpt><trkpt lat="58.84804" lon="14.90760833"><ele>93.0</ele><time>2016-06-18T10:39:04.290Z</time></trkpt><trkpt lat="58.84804" lon="14.90760833"><ele>93.0</ele><time>2016-06-18T10:39:05.311Z</time></trkpt><trkpt lat="58.848205" lon="14.90773667"><ele>93.0</ele><time>2016-06-18T10:39:06.317Z</time></trkpt><trkpt lat="58.848205" lon="14.90773667"><ele>93.0</ele><time>2016-06-18T10:39:07.301Z</time></trkpt><trkpt lat="58.84837" lon="14.90787833"><ele>93.0</ele><time>2016-06-18T10:39:08.288Z</time></trkpt><trkpt lat="58.84837" lon="14.90787833"><ele>93.0</ele><time>2016-06-18T10:39:09.291Z</time></trkpt><trkpt lat="58.84853" lon="14.90801833"><ele>93.0</ele><time>2016-06-18T10:39:10.299Z</time></trkpt><trkpt lat="58.84853" lon="14.90801833"><ele>93.0</ele><time>2016-06-18T10:39:11.358Z</time></trkpt><trkpt lat="58.848685" lon="14.90817167"><ele>93.0</ele><time>2016-06-18T10:39:12.303Z</time></trkpt><trkpt lat="58.84875833" lon="14.90825167"><ele>93.0</ele><time>2016-06-18T10:39:13.292Z</time></trkpt><trkpt lat="58.84883333" lon="14.90833167"><ele>93.0</ele><time>2016-06-18T10:39:14.315Z</time></trkpt><trkpt lat="58.84883333" lon="14.90833167"><ele>93.0</ele><time>2016-06-18T10:39:15.299Z</time></trkpt><trkpt lat="58.84897833" lon="14.9085"><ele>93.0</ele><time>2016-06-18T10:39:16.305Z</time></trkpt><trkpt lat="58.84897833" lon="14.9085"><ele>93.0</ele><time>2016-06-18T10:39:17.293Z</time></trkpt><trkpt lat="58.84912333" lon="14.90868167"><ele>93.0</ele><time>2016-06-18T10:39:18.284Z</time></trkpt><trkpt lat="58.84912333" lon="14.90868167"><ele>93.0</ele><time>2016-06-18T10:39:19.299Z</time></trkpt><trkpt lat="58.84926167" lon="14.90887833"><ele>93.0</ele><time>2016-06-18T10:39:20.306Z</time></trkpt><trkpt lat="58.84926167" lon="14.90887833"><ele>93.0</ele><time>2016-06-18T10:39:21.320Z</time></trkpt><trkpt lat="58.8494" lon="14.90907667"><ele>93.0</ele><time>2016-06-18T10:39:22.290Z</time></trkpt><trkpt lat="58.8494" lon="14.90907667"><ele>93.0</ele><time>2016-06-18T10:39:23.313Z</time></trkpt><trkpt lat="58.84954" lon="14.90927833"><ele>94.0</ele><time>2016-06-18T10:39:24.298Z</time></trkpt><trkpt lat="58.84960667" lon="14.90938"><ele>94.0</ele><time>2016-06-18T10:39:25.299Z</time></trkpt><trkpt lat="58.84967167" lon="14.909485"><ele>94.0</ele><time>2016-06-18T10:39:26.283Z</time></trkpt><trkpt lat="58.84967167" lon="14.909485"><ele>94.0</ele><time>2016-06-18T10:39:27.306Z</time></trkpt><trkpt lat="58.84979833" lon="14.90969833"><ele>94.0</ele><time>2016-06-18T10:39:28.313Z</time></trkpt><trkpt lat="58.84985833" lon="14.909805"><ele>94.0</ele><time>2016-06-18T10:39:29.317Z</time></trkpt><trkpt lat="58.84985833" lon="14.909805"><ele>94.0</ele><time>2016-06-18T10:39:30.282Z</time></trkpt><trkpt lat="58.84997333" lon="14.91001667"><ele>94.0</ele><time>2016-06-18T10:39:31.293Z</time></trkpt><trkpt lat="58.85002833" lon="14.91012333"><ele>94.0</ele><time>2016-06-18T10:39:32.316Z</time></trkpt><trkpt lat="58.85002833" lon="14.91012333"><ele>94.0</ele><time>2016-06-18T10:39:33.296Z</time></trkpt><trkpt lat="58.85013167" lon="14.91033833"><ele>95.0</ele><time>2016-06-18T10:39:34.302Z</time></trkpt><trkpt lat="58.85018167" lon="14.910445"><ele>95.0</ele><time>2016-06-18T10:39:35.318Z</time></trkpt><trkpt lat="58.85018167" lon="14.910445"><ele>95.0</ele><time>2016-06-18T10:39:36.312Z</time></trkpt><trkpt lat="58.85027833" lon="14.91067"><ele>95.0</ele><time>2016-06-18T10:39:37.318Z</time></trkpt><trkpt lat="58.850325" lon="14.91078667"><ele>95.0</ele><time>2016-06-18T10:39:38.303Z</time></trkpt><trkpt lat="58.850325" lon="14.91078667"><ele>95.0</ele><time>2016-06-18T10:39:39.287Z</time></trkpt><trkpt lat="58.85041" lon="14.91103833"><ele>95.0</ele><time>2016-06-18T10:39:40.296Z</time></trkpt><trkpt lat="58.85041" lon="14.91103833"><ele>95.0</ele><time>2016-06-18T10:39:41.315Z</time></trkpt><trkpt lat="58.85048667" lon="14.91131333"><ele>94.0</ele><time>2016-06-18T10:39:42.321Z</time></trkpt><trkpt lat="58.85048667" lon="14.91131333"><ele>94.0</ele><time>2016-06-18T10:39:43.303Z</time></trkpt><trkpt lat="58.85055" lon="14.91162167"><ele>94.0</ele><time>2016-06-18T10:39:44.285Z</time></trkpt><trkpt lat="58.85055" lon="14.91162167"><ele>94.0</ele><time>2016-06-18T10:39:45.294Z</time></trkpt><trkpt lat="58.850595" lon="14.91196"><ele>93.0</ele><time>2016-06-18T10:39:46.301Z</time></trkpt><trkpt lat="58.85061" lon="14.91213167"><ele>93.0</ele><time>2016-06-18T10:39:47.297Z</time></trkpt><trkpt lat="58.85061" lon="14.91213167"><ele>93.0</ele><time>2016-06-18T10:39:48.305Z</time></trkpt><trkpt lat="58.85062167" lon="14.912475"><ele>94.0</ele><time>2016-06-18T10:39:49.315Z</time></trkpt><trkpt lat="58.85062" lon="14.91264"><ele>94.0</ele><time>2016-06-18T10:39:50.289Z</time></trkpt><trkpt lat="58.85062" lon="14.91264"><ele>94.0</ele><time>2016-06-18T10:39:51.312Z</time></trkpt><trkpt lat="58.85061333" lon="14.91295"><ele>95.0</ele><time>2016-06-18T10:39:52.318Z</time></trkpt><trkpt lat="58.85061333" lon="14.91295"><ele>95.0</ele><time>2016-06-18T10:39:53.301Z</time></trkpt><trkpt lat="58.850605" lon="14.91323667"><ele>95.0</ele><time>2016-06-18T10:39:54.307Z</time></trkpt><trkpt lat="58.8506" lon="14.913375"><ele>96.0</ele><time>2016-06-18T10:39:55.296Z</time></trkpt><trkpt lat="58.85058833" lon="14.91351"><ele>96.0</ele><time>2016-06-18T10:39:56.320Z</time></trkpt><trkpt lat="58.85058833" lon="14.91351"><ele>96.0</ele><time>2016-06-18T10:39:57.302Z</time></trkpt><trkpt lat="58.85052667" lon="14.91375833"><ele>96.0</ele><time>2016-06-18T10:39:58.309Z</time></trkpt><trkpt lat="58.85047667" lon="14.913855"><ele>96.0</ele><time>2016-06-18T10:39:59.295Z</time></trkpt><trkpt lat="58.85047667" lon="14.913855"><ele>96.0</ele><time>2016-06-18T10:40:00.317Z</time></trkpt><trkpt lat="58.85035667" lon="14.914015"><ele>97.0</ele><time>2016-06-18T10:40:01.284Z</time></trkpt><trkpt lat="58.85029167" lon="14.91408333"><ele>97.0</ele><time>2016-06-18T10:40:02.308Z</time></trkpt><trkpt lat="58.85029167" lon="14.91408333"><ele>97.0</ele><time>2016-06-18T10:40:03.316Z</time></trkpt><trkpt lat="58.85015" lon="14.91421333"><ele>97.0</ele><time>2016-06-18T10:40:04.283Z</time></trkpt><trkpt lat="58.85007833" lon="14.91427667"><ele>97.0</ele><time>2016-06-18T10:40:05.314Z</time></trkpt><trkpt lat="58.85007833" lon="14.91427667"><ele>97.0</ele><time>2016-06-18T10:40:06.299Z</time></trkpt><trkpt lat="58.84993" lon="14.91440833"><ele>97.0</ele><time>2016-06-18T10:40:07.305Z</time></trkpt><trkpt lat="58.84985167" lon="14.914475"><ele>97.0</ele><time>2016-06-18T10:40:08.292Z</time></trkpt><trkpt lat="58.84985167" lon="14.914475"><ele>97.0</ele><time>2016-06-18T10:40:09.304Z</time></trkpt><trkpt lat="58.84969667" lon="14.91460833"><ele>96.0</ele><time>2016-06-18T10:40:10.317Z</time></trkpt><trkpt lat="58.84969667" lon="14.91460833"><ele>96.0</ele><time>2016-06-18T10:40:11.342Z</time></trkpt><trkpt lat="58.849535" lon="14.91473833"><ele>96.0</ele><time>2016-06-18T10:40:12.299Z</time></trkpt><trkpt lat="58.84945167" lon="14.91480333"><ele>96.0</ele><time>2016-06-18T10:40:13.317Z</time></trkpt><trkpt lat="58.84936667" lon="14.91487"><ele>96.0</ele><time>2016-06-18T10:40:14.301Z</time></trkpt><trkpt lat="58.84936667" lon="14.91487"><ele>96.0</ele><time>2016-06-18T10:40:15.284Z</time></trkpt><trkpt lat="58.849195" lon="14.91500167"><ele>96.0</ele><time>2016-06-18T10:40:16.294Z</time></trkpt><trkpt lat="58.84910833" lon="14.915065"><ele>96.0</ele><time>2016-06-18T10:40:17.318Z</time></trkpt><trkpt lat="58.84910833" lon="14.915065"><ele>96.0</ele><time>2016-06-18T10:40:18.294Z</time></trkpt><trkpt lat="58.84893333" lon="14.91519167"><ele>96.0</ele><time>2016-06-18T10:40:19.301Z</time></trkpt><trkpt lat="58.84893333" lon="14.91519167"><ele>96.0</ele><time>2016-06-18T10:40:20.284Z</time></trkpt><trkpt lat="58.84875333" lon="14.91531333"><ele>96.0</ele><time>2016-06-18T10:40:21.292Z</time></trkpt><trkpt lat="58.84875333" lon="14.91531333"><ele>96.0</ele><time>2016-06-18T10:40:22.318Z</time></trkpt><trkpt lat="58.84857167" lon="14.91543"><ele>96.0</ele><time>2016-06-18T10:40:23.315Z</time></trkpt><trkpt lat="58.84857167" lon="14.91543"><ele>96.0</ele><time>2016-06-18T10:40:24.318Z</time></trkpt><trkpt lat="58.84839167" lon="14.91555"><ele>96.0</ele><time>2016-06-18T10:40:25.285Z</time></trkpt><trkpt lat="58.84830167" lon="14.91561167"><ele>96.0</ele><time>2016-06-18T10:40:26.314Z</time></trkpt><trkpt lat="58.84830167" lon="14.91561167"><ele>96.0</ele><time>2016-06-18T10:40:27.301Z</time></trkpt><trkpt lat="58.84812" lon="14.91573333"><ele>96.0</ele><time>2016-06-18T10:40:28.311Z</time></trkpt><trkpt lat="58.84812" lon="14.91573333"><ele>96.0</ele><time>2016-06-18T10:40:29.293Z</time></trkpt><trkpt lat="58.84793333" lon="14.915855"><ele>96.0</ele><time>2016-06-18T10:40:30.283Z</time></trkpt><trkpt lat="58.84793333" lon="14.915855"><ele>96.0</ele><time>2016-06-18T10:40:31.314Z</time></trkpt><trkpt lat="58.84774167" lon="14.91597"><ele>96.0</ele><time>2016-06-18T10:40:32.321Z</time></trkpt><trkpt lat="58.84764667" lon="14.91603167"><ele>96.0</ele><time>2016-06-18T10:40:33.298Z</time></trkpt><trkpt lat="58.84764667" lon="14.91603167"><ele>96.0</ele><time>2016-06-18T10:40:34.314Z</time></trkpt><trkpt lat="58.84745167" lon="14.916155"><ele>96.0</ele><time>2016-06-18T10:40:35.321Z</time></trkpt><trkpt lat="58.84745167" lon="14.916155"><ele>96.0</ele><time>2016-06-18T10:40:36.301Z</time></trkpt><trkpt lat="58.84725333" lon="14.91628333"><ele>96.0</ele><time>2016-06-18T10:40:37.307Z</time></trkpt><trkpt lat="58.84725333" lon="14.91628333"><ele>96.0</ele><time>2016-06-18T10:40:38.290Z</time></trkpt><trkpt lat="58.847055" lon="14.91641333"><ele>96.0</ele><time>2016-06-18T10:40:39.326Z</time></trkpt><trkpt lat="58.847055" lon="14.91641333"><ele>96.0</ele><time>2016-06-18T10:40:40.322Z</time></trkpt><trkpt lat="58.84685333" lon="14.91654667"><ele>96.0</ele><time>2016-06-18T10:40:41.289Z</time></trkpt><trkpt lat="58.84685333" lon="14.91654667"><ele>96.0</ele><time>2016-06-18T10:40:42.312Z</time></trkpt><trkpt lat="58.84665333" lon="14.91668333"><ele>96.0</ele><time>2016-06-18T10:40:43.304Z</time></trkpt><trkpt lat="58.84665333" lon="14.91668333"><ele>96.0</ele><time>2016-06-18T10:40:44.296Z</time></trkpt><trkpt lat="58.84646" lon="14.91681667"><ele>96.0</ele><time>2016-06-18T10:40:45.303Z</time></trkpt><trkpt lat="58.84646" lon="14.91681667"><ele>96.0</ele><time>2016-06-18T10:40:46.284Z</time></trkpt><trkpt lat="58.84626667" lon="14.91694333"><ele>96.0</ele><time>2016-06-18T10:40:47.316Z</time></trkpt><trkpt lat="58.84626667" lon="14.91694333"><ele>96.0</ele><time>2016-06-18T10:40:48.320Z</time></trkpt><trkpt lat="58.84607667" lon="14.91706"><ele>96.0</ele><time>2016-06-18T10:40:49.287Z</time></trkpt><trkpt lat="58.84598333" lon="14.91711667"><ele>95.0</ele><time>2016-06-18T10:40:50.310Z</time></trkpt><trkpt lat="58.84598333" lon="14.91711667"><ele>95.0</ele><time>2016-06-18T10:40:51.292Z</time></trkpt><trkpt lat="58.8458" lon="14.91723333"><ele>95.0</ele><time>2016-06-18T10:40:52.301Z</time></trkpt><trkpt lat="58.8458" lon="14.91723333"><ele>95.0</ele><time>2016-06-18T10:40:53.301Z</time></trkpt><trkpt lat="58.84562" lon="14.91735667"><ele>95.0</ele><time>2016-06-18T10:40:54.308Z</time></trkpt><trkpt lat="58.84562" lon="14.91735667"><ele>95.0</ele><time>2016-06-18T10:40:55.302Z</time></trkpt><trkpt lat="58.84544667" lon="14.91748333"><ele>95.0</ele><time>2016-06-18T10:40:56.294Z</time></trkpt><trkpt lat="58.84544667" lon="14.91748333"><ele>95.0</ele><time>2016-06-18T10:40:57.297Z</time></trkpt><trkpt lat="58.84528" lon="14.91761667"><ele>95.0</ele><time>2016-06-18T10:40:58.309Z</time></trkpt><trkpt lat="58.845195" lon="14.91768667"><ele>95.0</ele><time>2016-06-18T10:40:59.293Z</time></trkpt><trkpt lat="58.84511167" lon="14.91776"><ele>95.0</ele><time>2016-06-18T10:41:00.316Z</time></trkpt><trkpt lat="58.84511167" lon="14.91776"><ele>95.0</ele><time>2016-06-18T10:41:01.300Z</time></trkpt><trkpt lat="58.84495" lon="14.91792833"><ele>95.0</ele><time>2016-06-18T10:41:02.310Z</time></trkpt><trkpt lat="58.84495" lon="14.91792833"><ele>95.0</ele><time>2016-06-18T10:41:03.298Z</time></trkpt><trkpt lat="58.84478167" lon="14.91810167"><ele>95.0</ele><time>2016-06-18T10:41:04.318Z</time></trkpt><trkpt lat="58.84478167" lon="14.91810167"><ele>95.0</ele><time>2016-06-18T10:41:05.295Z</time></trkpt><trkpt lat="58.84461333" lon="14.91828167"><ele>95.0</ele><time>2016-06-18T10:41:06.302Z</time></trkpt><trkpt lat="58.84453167" lon="14.91837833"><ele>94.0</ele><time>2016-06-18T10:41:07.295Z</time></trkpt><trkpt lat="58.84453167" lon="14.91837833"><ele>94.0</ele><time>2016-06-18T10:41:08.293Z</time></trkpt><trkpt lat="58.84436833" lon="14.918585"><ele>94.0</ele><time>2016-06-18T10:41:09.302Z</time></trkpt><trkpt lat="58.84436833" lon="14.918585"><ele>94.0</ele><time>2016-06-18T10:41:10.282Z</time></trkpt><trkpt lat="58.844205" lon="14.91879833"><ele>94.0</ele><time>2016-06-18T10:41:11.345Z</time></trkpt><trkpt lat="58.844205" lon="14.91879833"><ele>94.0</ele><time>2016-06-18T10:41:12.288Z</time></trkpt><trkpt lat="58.84404167" lon="14.91902833"><ele>93.0</ele><time>2016-06-18T10:41:13.311Z</time></trkpt><trkpt lat="58.84395833" lon="14.91915"><ele>93.0</ele><time>2016-06-18T10:41:14.283Z</time></trkpt><trkpt lat="58.84395833" lon="14.91915"><ele>93.0</ele><time>2016-06-18T10:41:15.307Z</time></trkpt><trkpt lat="58.843795" lon="14.919395"><ele>93.0</ele><time>2016-06-18T10:41:16.313Z</time></trkpt><trkpt lat="58.843795" lon="14.919395"><ele>93.0</ele><time>2016-06-18T10:41:17.296Z</time></trkpt><trkpt lat="58.843635" lon="14.91965333"><ele>92.0</ele><time>2016-06-18T10:41:18.304Z</time></trkpt><trkpt lat="58.843635" lon="14.91965333"><ele>92.0</ele><time>2016-06-18T10:41:19.288Z</time></trkpt><trkpt lat="58.84348" lon="14.919935"><ele>92.0</ele><time>2016-06-18T10:41:20.297Z</time></trkpt><trkpt lat="58.84348" lon="14.919935"><ele>92.0</ele><time>2016-06-18T10:41:21.320Z</time></trkpt><trkpt lat="58.843325" lon="14.92023167"><ele>91.0</ele><time>2016-06-18T10:41:22.285Z</time></trkpt><trkpt lat="58.843325" lon="14.92023167"><ele>91.0</ele><time>2016-06-18T10:41:23.316Z</time></trkpt><trkpt lat="58.84317" lon="14.92052667"><ele>91.0</ele><time>2016-06-18T10:41:24.283Z</time></trkpt><trkpt lat="58.84317" lon="14.92052667"><ele>91.0</ele><time>2016-06-18T10:41:25.307Z</time></trkpt><trkpt lat="58.84301667" lon="14.92082"><ele>91.0</ele><time>2016-06-18T10:41:26.285Z</time></trkpt><trkpt lat="58.84301667" lon="14.92082"><ele>91.0</ele><time>2016-06-18T10:41:27.301Z</time></trkpt><trkpt lat="58.842865" lon="14.92110833"><ele>91.0</ele><time>2016-06-18T10:41:28.308Z</time></trkpt><trkpt lat="58.842865" lon="14.92110833"><ele>91.0</ele><time>2016-06-18T10:41:29.294Z</time></trkpt><trkpt lat="58.842715" lon="14.92139333"><ele>90.0</ele><time>2016-06-18T10:41:30.300Z</time></trkpt><trkpt lat="58.842715" lon="14.92139333"><ele>90.0</ele><time>2016-06-18T10:41:31.314Z</time></trkpt><trkpt lat="58.84256833" lon="14.92167"><ele>90.0</ele><time>2016-06-18T10:41:32.320Z</time></trkpt><trkpt lat="58.84256833" lon="14.92167"><ele>90.0</ele><time>2016-06-18T10:41:33.309Z</time></trkpt><trkpt lat="58.84242333" lon="14.92194"><ele>90.0</ele><time>2016-06-18T10:41:34.284Z</time></trkpt><trkpt lat="58.84242333" lon="14.92194"><ele>90.0</ele><time>2016-06-18T10:41:35.292Z</time></trkpt><trkpt lat="58.84228167" lon="14.92220667"><ele>90.0</ele><time>2016-06-18T10:41:36.303Z</time></trkpt><trkpt lat="58.84221333" lon="14.92233833"><ele>90.0</ele><time>2016-06-18T10:41:37.304Z</time></trkpt><trkpt lat="58.84221333" lon="14.92233833"><ele>90.0</ele><time>2016-06-18T10:41:38.321Z</time></trkpt><trkpt lat="58.842075" lon="14.92259833"><ele>90.0</ele><time>2016-06-18T10:41:39.297Z</time></trkpt><trkpt lat="58.84200667" lon="14.92273167"><ele>90.0</ele><time>2016-06-18T10:41:40.285Z</time></trkpt><trkpt lat="58.84200667" lon="14.92273167"><ele>90.0</ele><time>2016-06-18T10:41:41.317Z</time></trkpt><trkpt lat="58.84187167" lon="14.92299833"><ele>90.0</ele><time>2016-06-18T10:41:42.283Z</time></trkpt><trkpt lat="58.84187167" lon="14.92299833"><ele>90.0</ele><time>2016-06-18T10:41:43.306Z</time></trkpt><trkpt lat="58.84173667" lon="14.92326667"><ele>90.0</ele><time>2016-06-18T10:41:44.317Z</time></trkpt><trkpt lat="58.84173667" lon="14.92326667"><ele>90.0</ele><time>2016-06-18T10:41:45.282Z</time></trkpt><trkpt lat="58.8416" lon="14.92352833"><ele>90.0</ele><time>2016-06-18T10:41:46.296Z</time></trkpt><trkpt lat="58.84153333" lon="14.92365833"><ele>90.0</ele><time>2016-06-18T10:41:47.320Z</time></trkpt><trkpt lat="58.84153333" lon="14.92365833"><ele>90.0</ele><time>2016-06-18T10:41:48.301Z</time></trkpt><trkpt lat="58.84139833" lon="14.92392"><ele>90.0</ele><time>2016-06-18T10:41:49.308Z</time></trkpt><trkpt lat="58.84133167" lon="14.92405"><ele>91.0</ele><time>2016-06-18T10:41:50.285Z</time></trkpt><trkpt lat="58.84133167" lon="14.92405"><ele>91.0</ele><time>2016-06-18T10:41:51.286Z</time></trkpt><trkpt lat="58.841195" lon="14.92430667"><ele>91.0</ele><time>2016-06-18T10:41:52.294Z</time></trkpt><trkpt lat="58.841195" lon="14.92430667"><ele>91.0</ele><time>2016-06-18T10:41:53.318Z</time></trkpt><trkpt lat="58.84106" lon="14.92456"><ele>91.0</ele><time>2016-06-18T10:41:54.284Z</time></trkpt><trkpt lat="58.84106" lon="14.92456"><ele>91.0</ele><time>2016-06-18T10:41:55.307Z</time></trkpt><trkpt lat="58.84092167" lon="14.92481167"><ele>91.0</ele><time>2016-06-18T10:41:56.289Z</time></trkpt><trkpt lat="58.84092167" lon="14.92481167"><ele>91.0</ele><time>2016-06-18T10:41:57.282Z</time></trkpt><trkpt lat="58.84078167" lon="14.925055"><ele>91.0</ele><time>2016-06-18T10:41:58.295Z</time></trkpt><trkpt lat="58.84078167" lon="14.925055"><ele>91.0</ele><time>2016-06-18T10:41:59.298Z</time></trkpt><trkpt lat="58.84064167" lon="14.92529833"><ele>91.0</ele><time>2016-06-18T10:42:00.305Z</time></trkpt><trkpt lat="58.84057167" lon="14.925415"><ele>91.0</ele><time>2016-06-18T10:42:01.311Z</time></trkpt><trkpt lat="58.84050167" lon="14.92553333"><ele>91.0</ele><time>2016-06-18T10:42:02.294Z</time></trkpt><trkpt lat="58.84050167" lon="14.92553333"><ele>91.0</ele><time>2016-06-18T10:42:03.317Z</time></trkpt><trkpt lat="58.84036167" lon="14.92576333"><ele>91.0</ele><time>2016-06-18T10:42:04.284Z</time></trkpt><trkpt lat="58.84029167" lon="14.925875"><ele>91.0</ele><time>2016-06-18T10:42:05.304Z</time></trkpt><trkpt lat="58.84029167" lon="14.925875"><ele>91.0</ele><time>2016-06-18T10:42:06.286Z</time></trkpt><trkpt lat="58.84014833" lon="14.92608833"><ele>91.0</ele><time>2016-06-18T10:42:07.297Z</time></trkpt><trkpt lat="58.84007667" lon="14.92619"><ele>91.0</ele><time>2016-06-18T10:42:08.321Z</time></trkpt><trkpt lat="58.84007667" lon="14.92619"><ele>91.0</ele><time>2016-06-18T10:42:09.319Z</time></trkpt><trkpt lat="58.83992833" lon="14.926385"><ele>91.0</ele><time>2016-06-18T10:42:10.294Z</time></trkpt><trkpt lat="58.83992833" lon="14.926385"><ele>91.0</ele><time>2016-06-18T10:42:11.347Z</time></trkpt><trkpt lat="58.83977833" lon="14.926575"><ele>91.0</ele><time>2016-06-18T10:42:12.288Z</time></trkpt><trkpt lat="58.83970333" lon="14.92666833"><ele>91.0</ele><time>2016-06-18T10:42:13.303Z</time></trkpt><trkpt lat="58.83962833" lon="14.92676333"><ele>91.0</ele><time>2016-06-18T10:42:14.289Z</time></trkpt><trkpt lat="58.83962833" lon="14.92676333"><ele>91.0</ele><time>2016-06-18T10:42:15.314Z</time></trkpt><trkpt lat="58.83947833" lon="14.92694667"><ele>91.0</ele><time>2016-06-18T10:42:16.320Z</time></trkpt><trkpt lat="58.83947833" lon="14.92694667"><ele>91.0</ele><time>2016-06-18T10:42:17.302Z</time></trkpt><trkpt lat="58.83932667" lon="14.92712833"><ele>91.0</ele><time>2016-06-18T10:42:18.295Z</time></trkpt><trkpt lat="58.83932667" lon="14.92712833"><ele>91.0</ele><time>2016-06-18T10:42:19.293Z</time></trkpt><trkpt lat="58.83917667" lon="14.92731167"><ele>91.0</ele><time>2016-06-18T10:42:20.301Z</time></trkpt><trkpt lat="58.8391" lon="14.9274"><ele>91.0</ele><time>2016-06-18T10:42:21.306Z</time></trkpt><trkpt lat="58.8391" lon="14.9274"><ele>91.0</ele><time>2016-06-18T10:42:22.310Z</time></trkpt><trkpt lat="58.83894667" lon="14.927565"><ele>91.0</ele><time>2016-06-18T10:42:23.318Z</time></trkpt><trkpt lat="58.83894667" lon="14.927565"><ele>91.0</ele><time>2016-06-18T10:42:24.300Z</time></trkpt><trkpt lat="58.83879167" lon="14.927715"><ele>91.0</ele><time>2016-06-18T10:42:25.285Z</time></trkpt><trkpt lat="58.83879167" lon="14.927715"><ele>91.0</ele><time>2016-06-18T10:42:26.297Z</time></trkpt><trkpt lat="58.83863667" lon="14.92785667"><ele>91.0</ele><time>2016-06-18T10:42:27.304Z</time></trkpt><trkpt lat="58.83863667" lon="14.92785667"><ele>91.0</ele><time>2016-06-18T10:42:28.285Z</time></trkpt><trkpt lat="58.83848167" lon="14.92799167"><ele>91.0</ele><time>2016-06-18T10:42:29.295Z</time></trkpt><trkpt lat="58.83848167" lon="14.92799167"><ele>91.0</ele><time>2016-06-18T10:42:30.298Z</time></trkpt><trkpt lat="58.83832667" lon="14.92811833"><ele>91.0</ele><time>2016-06-18T10:42:31.304Z</time></trkpt><trkpt lat="58.83824833" lon="14.92818"><ele>91.0</ele><time>2016-06-18T10:42:32.295Z</time></trkpt><trkpt lat="58.83824833" lon="14.92818"><ele>91.0</ele><time>2016-06-18T10:42:33.301Z</time></trkpt><trkpt lat="58.83809333" lon="14.9283"><ele>91.0</ele><time>2016-06-18T10:42:34.308Z</time></trkpt><trkpt lat="58.838015" lon="14.92835333"><ele>91.0</ele><time>2016-06-18T10:42:35.285Z</time></trkpt><trkpt lat="58.838015" lon="14.92835333"><ele>91.0</ele><time>2016-06-18T10:42:36.317Z</time></trkpt><trkpt lat="58.83786" lon="14.92846333"><ele>92.0</ele><time>2016-06-18T10:42:37.283Z</time></trkpt><trkpt lat="58.83778" lon="14.92851"><ele>92.0</ele><time>2016-06-18T10:42:38.321Z</time></trkpt><trkpt lat="58.83778" lon="14.92851"><ele>92.0</ele><time>2016-06-18T10:42:39.309Z</time></trkpt><trkpt lat="58.83761333" lon="14.92861667"><ele>91.0</ele><time>2016-06-18T10:42:40.315Z</time></trkpt><trkpt lat="58.837535" lon="14.92866"><ele>91.0</ele><time>2016-06-18T10:42:41.285Z</time></trkpt><trkpt lat="58.837535" lon="14.92866"><ele>91.0</ele><time>2016-06-18T10:42:42.301Z</time></trkpt><trkpt lat="58.83737333" lon="14.92874333"><ele>91.0</ele><time>2016-06-18T10:42:43.307Z</time></trkpt><trkpt lat="58.837295" lon="14.92879167"><ele>91.0</ele><time>2016-06-18T10:42:44.298Z</time></trkpt><trkpt lat="58.837295" lon="14.92879167"><ele>91.0</ele><time>2016-06-18T10:42:45.316Z</time></trkpt><trkpt lat="58.83713333" lon="14.92887833"><ele>91.0</ele><time>2016-06-18T10:42:46.289Z</time></trkpt><trkpt lat="58.83713333" lon="14.92887833"><ele>91.0</ele><time>2016-06-18T10:42:47.321Z</time></trkpt><trkpt lat="58.83697" lon="14.92895833"><ele>91.0</ele><time>2016-06-18T10:42:48.296Z</time></trkpt><trkpt lat="58.83697" lon="14.92895833"><ele>91.0</ele><time>2016-06-18T10:42:49.293Z</time></trkpt><trkpt lat="58.83680833" lon="14.929035"><ele>91.0</ele><time>2016-06-18T10:42:50.300Z</time></trkpt><trkpt lat="58.83680833" lon="14.929035"><ele>91.0</ele><time>2016-06-18T10:42:51.284Z</time></trkpt><trkpt lat="58.83664333" lon="14.92910333"><ele>91.0</ele><time>2016-06-18T10:42:52.324Z</time></trkpt><trkpt lat="58.83664333" lon="14.92910333"><ele>91.0</ele><time>2016-06-18T10:42:53.297Z</time></trkpt><trkpt lat="58.83647667" lon="14.92916333"><ele>91.0</ele><time>2016-06-18T10:42:54.304Z</time></trkpt><trkpt lat="58.83639167" lon="14.92919333"><ele>91.0</ele><time>2016-06-18T10:42:55.285Z</time></trkpt><trkpt lat="58.83639167" lon="14.92919333"><ele>91.0</ele><time>2016-06-18T10:42:56.290Z</time></trkpt><trkpt lat="58.83621833" lon="14.929245"><ele>91.0</ele><time>2016-06-18T10:42:57.298Z</time></trkpt><trkpt lat="58.83613167" lon="14.92927"><ele>91.0</ele><time>2016-06-18T10:42:58.319Z</time></trkpt><trkpt lat="58.83613167" lon="14.92927"><ele>91.0</ele><time>2016-06-18T10:42:59.312Z</time></trkpt><trkpt lat="58.83596" lon="14.92931667"><ele>91.0</ele><time>2016-06-18T10:43:00.319Z</time></trkpt><trkpt lat="58.83596" lon="14.92931667"><ele>91.0</ele><time>2016-06-18T10:43:01.301Z</time></trkpt><trkpt lat="58.83579" lon="14.92935"><ele>91.0</ele><time>2016-06-18T10:43:02.316Z</time></trkpt><trkpt lat="58.83579" lon="14.92935"><ele>91.0</ele><time>2016-06-18T10:43:03.292Z</time></trkpt><trkpt lat="58.83561833" lon="14.92938167"><ele>91.0</ele><time>2016-06-18T10:43:04.300Z</time></trkpt><trkpt lat="58.83561833" lon="14.92938167"><ele>91.0</ele><time>2016-06-18T10:43:05.285Z</time></trkpt><trkpt lat="58.83544833" lon="14.92940667"><ele>91.0</ele><time>2016-06-18T10:43:06.296Z</time></trkpt><trkpt lat="58.83544833" lon="14.92940667"><ele>91.0</ele><time>2016-06-18T10:43:07.322Z</time></trkpt><trkpt lat="58.83527667" lon="14.92942833"><ele>91.0</ele><time>2016-06-18T10:43:08.287Z</time></trkpt><trkpt lat="58.83527667" lon="14.92942833"><ele>91.0</ele><time>2016-06-18T10:43:09.312Z</time></trkpt><trkpt lat="58.83511" lon="14.92944167"><ele>91.0</ele><time>2016-06-18T10:43:10.284Z</time></trkpt><trkpt lat="58.83511" lon="14.92944167"><ele>91.0</ele><time>2016-06-18T10:43:11.346Z</time></trkpt><trkpt lat="58.83494" lon="14.92945167"><ele>91.0</ele><time>2016-06-18T10:43:12.308Z</time></trkpt><trkpt lat="58.83485167" lon="14.929455"><ele>91.0</ele><time>2016-06-18T10:43:13.282Z</time></trkpt><trkpt lat="58.83476333" lon="14.92945667"><ele>90.0</ele><time>2016-06-18T10:43:14.308Z</time></trkpt><trkpt lat="58.83476333" lon="14.92945667"><ele>90.0</ele><time>2016-06-18T10:43:15.292Z</time></trkpt><trkpt lat="58.83458833" lon="14.92944833"><ele>90.0</ele><time>2016-06-18T10:43:16.298Z</time></trkpt><trkpt lat="58.83458833" lon="14.92944833"><ele>90.0</ele><time>2016-06-18T10:43:17.322Z</time></trkpt><trkpt lat="58.83440833" lon="14.92944167"><ele>90.0</ele><time>2016-06-18T10:43:18.285Z</time></trkpt><trkpt lat="58.83440833" lon="14.92944167"><ele>90.0</ele><time>2016-06-18T10:43:19.314Z</time></trkpt><trkpt lat="58.83423" lon="14.92943833"><ele>90.0</ele><time>2016-06-18T10:43:20.298Z</time></trkpt><trkpt lat="58.83423" lon="14.92943833"><ele>90.0</ele><time>2016-06-18T10:43:21.307Z</time></trkpt><trkpt lat="58.83404833" lon="14.92942333"><ele>90.0</ele><time>2016-06-18T10:43:22.313Z</time></trkpt><trkpt lat="58.83404833" lon="14.92942333"><ele>90.0</ele><time>2016-06-18T10:43:23.301Z</time></trkpt><trkpt lat="58.833865" lon="14.92941"><ele>90.0</ele><time>2016-06-18T10:43:24.318Z</time></trkpt><trkpt lat="58.833865" lon="14.92941"><ele>90.0</ele><time>2016-06-18T10:43:25.318Z</time></trkpt><trkpt lat="58.83367833" lon="14.92939667"><ele>90.0</ele><time>2016-06-18T10:43:26.284Z</time></trkpt><trkpt lat="58.83367833" lon="14.92939667"><ele>90.0</ele><time>2016-06-18T10:43:27.319Z</time></trkpt><trkpt lat="58.83349333" lon="14.92938"><ele>90.0</ele><time>2016-06-18T10:43:28.306Z</time></trkpt><trkpt lat="58.83349333" lon="14.92938"><ele>90.0</ele><time>2016-06-18T10:43:29.295Z</time></trkpt><trkpt lat="58.83330667" lon="14.92936833"><ele>90.0</ele><time>2016-06-18T10:43:30.302Z</time></trkpt><trkpt lat="58.83321333" lon="14.92935833"><ele>90.0</ele><time>2016-06-18T10:43:31.298Z</time></trkpt><trkpt lat="58.83312" lon="14.92935"><ele>90.0</ele><time>2016-06-18T10:43:32.308Z</time></trkpt><trkpt lat="58.83312" lon="14.92935"><ele>90.0</ele><time>2016-06-18T10:43:33.301Z</time></trkpt><trkpt lat="58.83294167" lon="14.92933333"><ele>90.0</ele><time>2016-06-18T10:43:34.317Z</time></trkpt><trkpt lat="58.83294167" lon="14.92933333"><ele>90.0</ele><time>2016-06-18T10:43:35.310Z</time></trkpt><trkpt lat="58.83276667" lon="14.92931833"><ele>90.0</ele><time>2016-06-18T10:43:36.316Z</time></trkpt><trkpt lat="58.83276667" lon="14.92931833"><ele>90.0</ele><time>2016-06-18T10:43:37.298Z</time></trkpt><trkpt lat="58.83259" lon="14.92930167"><ele>90.0</ele><time>2016-06-18T10:43:38.309Z</time></trkpt><trkpt lat="58.83259" lon="14.92930167"><ele>90.0</ele><time>2016-06-18T10:43:39.319Z</time></trkpt><trkpt lat="58.83241333" lon="14.92928167"><ele>90.0</ele><time>2016-06-18T10:43:40.285Z</time></trkpt><trkpt lat="58.83232333" lon="14.92927167"><ele>90.0</ele><time>2016-06-18T10:43:41.296Z</time></trkpt><trkpt lat="58.83232333" lon="14.92927167"><ele>90.0</ele><time>2016-06-18T10:43:42.296Z</time></trkpt><trkpt lat="58.83214833" lon="14.92926167"><ele>91.0</ele><time>2016-06-18T10:43:43.305Z</time></trkpt><trkpt lat="58.83206167" lon="14.92925667"><ele>91.0</ele><time>2016-06-18T10:43:44.294Z</time></trkpt><trkpt lat="58.83206167" lon="14.92925667"><ele>91.0</ele><time>2016-06-18T10:43:45.316Z</time></trkpt><trkpt lat="58.83189333" lon="14.929245"><ele>91.0</ele><time>2016-06-18T10:43:46.283Z</time></trkpt><trkpt lat="58.83189333" lon="14.929245"><ele>91.0</ele><time>2016-06-18T10:43:47.297Z</time></trkpt><trkpt lat="58.83172667" lon="14.92923"><ele>91.0</ele><time>2016-06-18T10:43:48.323Z</time></trkpt><trkpt lat="58.83172667" lon="14.92923"><ele>91.0</ele><time>2016-06-18T10:43:49.292Z</time></trkpt><trkpt lat="58.831555" lon="14.92921667"><ele>90.0</ele><time>2016-06-18T10:43:50.286Z</time></trkpt><trkpt lat="58.831555" lon="14.92921667"><ele>90.0</ele><time>2016-06-18T10:43:51.313Z</time></trkpt><trkpt lat="58.83138" lon="14.92920667"><ele>90.0</ele><time>2016-06-18T10:43:52.320Z</time></trkpt><trkpt lat="58.83129167" lon="14.92919833"><ele>90.0</ele><time>2016-06-18T10:43:53.304Z</time></trkpt><trkpt lat="58.83129167" lon="14.92919833"><ele>90.0</ele><time>2016-06-18T10:43:54.293Z</time></trkpt><trkpt lat="58.83111333" lon="14.929185"><ele>90.0</ele><time>2016-06-18T10:43:55.302Z</time></trkpt><trkpt lat="58.831025" lon="14.92918"><ele>90.0</ele><time>2016-06-18T10:43:56.284Z</time></trkpt><trkpt lat="58.831025" lon="14.92918"><ele>90.0</ele><time>2016-06-18T10:43:57.286Z</time></trkpt><trkpt lat="58.830845" lon="14.92916833"><ele>90.0</ele><time>2016-06-18T10:43:58.300Z</time></trkpt><trkpt lat="58.830845" lon="14.92916833"><ele>90.0</ele><time>2016-06-18T10:43:59.318Z</time></trkpt><trkpt lat="58.830665" lon="14.92915"><ele>90.0</ele><time>2016-06-18T10:44:00.285Z</time></trkpt><trkpt lat="58.83057333" lon="14.92914167"><ele>90.0</ele><time>2016-06-18T10:44:01.286Z</time></trkpt><trkpt lat="58.83048167" lon="14.929135"><ele>90.0</ele><time>2016-06-18T10:44:02.321Z</time></trkpt><trkpt lat="58.83048167" lon="14.929135"><ele>90.0</ele><time>2016-06-18T10:44:03.311Z</time></trkpt><trkpt lat="58.8303" lon="14.92912333"><ele>89.0</ele><time>2016-06-18T10:44:04.318Z</time></trkpt><trkpt lat="58.83020833" lon="14.929115"><ele>89.0</ele><time>2016-06-18T10:44:05.305Z</time></trkpt><trkpt lat="58.83020833" lon="14.929115"><ele>89.0</ele><time>2016-06-18T10:44:06.293Z</time></trkpt><trkpt lat="58.83002667" lon="14.92910167"><ele>89.0</ele><time>2016-06-18T10:44:07.299Z</time></trkpt><trkpt lat="58.82993833" lon="14.92909667"><ele>89.0</ele><time>2016-06-18T10:44:08.282Z</time></trkpt><trkpt lat="58.82993833" lon="14.92909667"><ele>89.0</ele><time>2016-06-18T10:44:09.304Z</time></trkpt><trkpt lat="58.82975833" lon="14.92908333"><ele>89.0</ele><time>2016-06-18T10:44:10.311Z</time></trkpt><trkpt lat="58.82975833" lon="14.92908333"><ele>89.0</ele><time>2016-06-18T10:44:11.345Z</time></trkpt><trkpt lat="58.82958" lon="14.929065"><ele>89.0</ele><time>2016-06-18T10:44:12.286Z</time></trkpt><trkpt lat="58.82949" lon="14.929055"><ele>89.0</ele><time>2016-06-18T10:44:13.296Z</time></trkpt><trkpt lat="58.8294" lon="14.929045"><ele>89.0</ele><time>2016-06-18T10:44:14.319Z</time></trkpt><trkpt lat="58.8294" lon="14.929045"><ele>89.0</ele><time>2016-06-18T10:44:15.305Z</time></trkpt><trkpt lat="58.82922167" lon="14.92903"><ele>89.0</ele><time>2016-06-18T10:44:16.312Z</time></trkpt><trkpt lat="58.82922167" lon="14.92903"><ele>89.0</ele><time>2016-06-18T10:44:17.293Z</time></trkpt><trkpt lat="58.82904333" lon="14.92901167"><ele>89.0</ele><time>2016-06-18T10:44:18.284Z</time></trkpt><trkpt lat="58.82904333" lon="14.92901167"><ele>89.0</ele><time>2016-06-18T10:44:19.316Z</time></trkpt><trkpt lat="58.82886" lon="14.92899167"><ele>89.0</ele><time>2016-06-18T10:44:20.283Z</time></trkpt><trkpt lat="58.82886" lon="14.92899167"><ele>89.0</ele><time>2016-06-18T10:44:21.293Z</time></trkpt><trkpt lat="58.82868" lon="14.92897667"><ele>89.0</ele><time>2016-06-18T10:44:22.303Z</time></trkpt><trkpt lat="58.82858833" lon="14.92896833"><ele>89.0</ele><time>2016-06-18T10:44:23.303Z</time></trkpt><trkpt lat="58.82858833" lon="14.92896833"><ele>89.0</ele><time>2016-06-18T10:44:24.286Z</time></trkpt><trkpt lat="58.82841" lon="14.92895333"><ele>89.0</ele><time>2016-06-18T10:44:25.297Z</time></trkpt><trkpt lat="58.82832167" lon="14.92894333"><ele>89.0</ele><time>2016-06-18T10:44:26.292Z</time></trkpt><trkpt lat="58.82832167" lon="14.92894333"><ele>89.0</ele><time>2016-06-18T10:44:27.318Z</time></trkpt><trkpt lat="58.82815" lon="14.92893"><ele>88.0</ele><time>2016-06-18T10:44:28.285Z</time></trkpt><trkpt lat="58.828065" lon="14.928925"><ele>88.0</ele><time>2016-06-18T10:44:29.307Z</time></trkpt><trkpt lat="58.828065" lon="14.928925"><ele>88.0</ele><time>2016-06-18T10:44:30.290Z</time></trkpt><trkpt lat="58.827895" lon="14.92890333"><ele>89.0</ele><time>2016-06-18T10:44:31.309Z</time></trkpt><trkpt lat="58.82781" lon="14.92889667"><ele>89.0</ele><time>2016-06-18T10:44:32.318Z</time></trkpt><trkpt lat="58.82781" lon="14.92889667"><ele>89.0</ele><time>2016-06-18T10:44:33.304Z</time></trkpt><trkpt lat="58.82764333" lon="14.92889"><ele>88.0</ele><time>2016-06-18T10:44:34.320Z</time></trkpt><trkpt lat="58.82764333" lon="14.92889"><ele>88.0</ele><time>2016-06-18T10:44:35.288Z</time></trkpt><trkpt lat="58.82748" lon="14.92887667"><ele>88.0</ele><time>2016-06-18T10:44:36.298Z</time></trkpt><trkpt lat="58.82748" lon="14.92887667"><ele>88.0</ele><time>2016-06-18T10:44:37.282Z</time></trkpt><trkpt lat="58.827315" lon="14.92884833"><ele>88.0</ele><time>2016-06-18T10:44:38.285Z</time></trkpt><trkpt lat="58.827315" lon="14.92884833"><ele>88.0</ele><time>2016-06-18T10:44:39.294Z</time></trkpt><trkpt lat="58.82714667" lon="14.92883833"><ele>88.0</ele><time>2016-06-18T10:44:40.301Z</time></trkpt><trkpt lat="58.82714667" lon="14.92883833"><ele>88.0</ele><time>2016-06-18T10:44:41.283Z</time></trkpt><trkpt lat="58.82697667" lon="14.92883667"><ele>88.0</ele><time>2016-06-18T10:44:42.300Z</time></trkpt><trkpt lat="58.82697667" lon="14.92883667"><ele>88.0</ele><time>2016-06-18T10:44:43.288Z</time></trkpt><trkpt lat="58.82681" lon="14.92883167"><ele>88.0</ele><time>2016-06-18T10:44:44.286Z</time></trkpt><trkpt lat="58.82681" lon="14.92883167"><ele>88.0</ele><time>2016-06-18T10:44:45.295Z</time></trkpt><trkpt lat="58.82664833" lon="14.92882167"><ele>88.0</ele><time>2016-06-18T10:44:46.303Z</time></trkpt><trkpt lat="58.82657" lon="14.92881167"><ele>88.0</ele><time>2016-06-18T10:44:47.288Z</time></trkpt><trkpt lat="58.82657" lon="14.92881167"><ele>88.0</ele><time>2016-06-18T10:44:48.300Z</time></trkpt><trkpt lat="58.82641833" lon="14.92879833"><ele>88.0</ele><time>2016-06-18T10:44:49.306Z</time></trkpt><trkpt lat="58.82634167" lon="14.92879"><ele>88.0</ele><time>2016-06-18T10:44:50.289Z</time></trkpt><trkpt lat="58.82634167" lon="14.92879"><ele>88.0</ele><time>2016-06-18T10:44:51.315Z</time></trkpt><trkpt lat="58.82619" lon="14.92877167"><ele>87.0</ele><time>2016-06-18T10:44:52.290Z</time></trkpt><trkpt lat="58.82611167" lon="14.92876333"><ele>87.0</ele><time>2016-06-18T10:44:53.303Z</time></trkpt><trkpt lat="58.82611167" lon="14.92876333"><ele>87.0</ele><time>2016-06-18T10:44:54.287Z</time></trkpt><trkpt lat="58.82596" lon="14.92874667"><ele>87.0</ele><time>2016-06-18T10:44:55.286Z</time></trkpt><trkpt lat="58.82588833" lon="14.92874"><ele>87.0</ele><time>2016-06-18T10:44:56.301Z</time></trkpt><trkpt lat="58.82588833" lon="14.92874"><ele>87.0</ele><time>2016-06-18T10:44:57.285Z</time></trkpt><trkpt lat="58.82574833" lon="14.92872667"><ele>87.0</ele><time>2016-06-18T10:44:58.299Z</time></trkpt><trkpt lat="58.82574833" lon="14.92872667"><ele>87.0</ele><time>2016-06-18T10:44:59.297Z</time></trkpt><trkpt lat="58.82562333" lon="14.928715"><ele>87.0</ele><time>2016-06-18T10:45:00.308Z</time></trkpt><trkpt lat="58.82556167" lon="14.928715"><ele>87.0</ele><time>2016-06-18T10:45:01.316Z</time></trkpt><trkpt lat="58.8255" lon="14.92872"><ele>87.0</ele><time>2016-06-18T10:45:02.303Z</time></trkpt><trkpt lat="58.8255" lon="14.92872"><ele>87.0</ele><time>2016-06-18T10:45:03.286Z</time></trkpt><trkpt lat="58.82537333" lon="14.928725"><ele>87.0</ele><time>2016-06-18T10:45:04.295Z</time></trkpt><trkpt lat="58.82531" lon="14.928725"><ele>87.0</ele><time>2016-06-18T10:45:05.320Z</time></trkpt><trkpt lat="58.82531" lon="14.928725"><ele>87.0</ele><time>2016-06-18T10:45:06.301Z</time></trkpt><trkpt lat="58.82518" lon="14.92872833"><ele>87.0</ele><time>2016-06-18T10:45:07.308Z</time></trkpt><trkpt lat="58.82511333" lon="14.92872167"><ele>87.0</ele><time>2016-06-18T10:45:08.289Z</time></trkpt><trkpt lat="58.82511333" lon="14.92872167"><ele>87.0</ele><time>2016-06-18T10:45:09.312Z</time></trkpt><trkpt lat="58.82497833" lon="14.92872"><ele>87.0</ele><time>2016-06-18T10:45:10.317Z</time></trkpt><trkpt lat="58.82497833" lon="14.92872"><ele>87.0</ele><time>2016-06-18T10:45:11.351Z</time></trkpt><trkpt lat="58.82483667" lon="14.928695"><ele>87.0</ele><time>2016-06-18T10:45:12.298Z</time></trkpt><trkpt lat="58.82476167" lon="14.92868"><ele>87.0</ele><time>2016-06-18T10:45:13.302Z</time></trkpt><trkpt lat="58.824685" lon="14.928665"><ele>86.0</ele><time>2016-06-18T10:45:14.285Z</time></trkpt><trkpt lat="58.824685" lon="14.928665"><ele>86.0</ele><time>2016-06-18T10:45:15.308Z</time></trkpt><trkpt lat="58.82452333" lon="14.92864833"><ele>87.0</ele><time>2016-06-18T10:45:16.314Z</time></trkpt><trkpt lat="58.82444333" lon="14.928645"><ele>87.0</ele><time>2016-06-18T10:45:17.297Z</time></trkpt><trkpt lat="58.82444333" lon="14.928645"><ele>87.0</ele><time>2016-06-18T10:45:18.304Z</time></trkpt><trkpt lat="58.82427833" lon="14.92863667"><ele>87.0</ele><time>2016-06-18T10:45:19.311Z</time></trkpt><trkpt lat="58.824195" lon="14.92862833"><ele>87.0</ele><time>2016-06-18T10:45:20.310Z</time></trkpt><trkpt lat="58.824195" lon="14.92862833"><ele>87.0</ele><time>2016-06-18T10:45:21.290Z</time></trkpt><trkpt lat="58.82402833" lon="14.92860667"><ele>87.0</ele><time>2016-06-18T10:45:22.297Z</time></trkpt><trkpt lat="58.82402833" lon="14.92860667"><ele>87.0</ele><time>2016-06-18T10:45:23.305Z</time></trkpt><trkpt lat="58.82385833" lon="14.92858667"><ele>87.0</ele><time>2016-06-18T10:45:24.290Z</time></trkpt><trkpt lat="58.82385833" lon="14.92858667"><ele>87.0</ele><time>2016-06-18T10:45:25.292Z</time></trkpt><trkpt lat="58.82368833" lon="14.92856833"><ele>87.0</ele><time>2016-06-18T10:45:26.300Z</time></trkpt><trkpt lat="58.82368833" lon="14.92856833"><ele>87.0</ele><time>2016-06-18T10:45:27.322Z</time></trkpt><trkpt lat="58.82351667" lon="14.92856333"><ele>87.0</ele><time>2016-06-18T10:45:28.285Z</time></trkpt><trkpt lat="58.82351667" lon="14.92856333"><ele>87.0</ele><time>2016-06-18T10:45:29.317Z</time></trkpt><trkpt lat="58.82334667" lon="14.92856333"><ele>87.0</ele><time>2016-06-18T10:45:30.283Z</time></trkpt><trkpt lat="58.82326" lon="14.92856333"><ele>87.0</ele><time>2016-06-18T10:45:31.289Z</time></trkpt><trkpt lat="58.82317333" lon="14.92855667"><ele>87.0</ele><time>2016-06-18T10:45:32.311Z</time></trkpt><trkpt lat="58.82317333" lon="14.92855667"><ele>87.0</ele><time>2016-06-18T10:45:33.305Z</time></trkpt><trkpt lat="58.82300167" lon="14.92855167"><ele>87.0</ele><time>2016-06-18T10:45:34.317Z</time></trkpt><trkpt lat="58.82291333" lon="14.92854667"><ele>87.0</ele><time>2016-06-18T10:45:35.303Z</time></trkpt><trkpt lat="58.82291333" lon="14.92854667"><ele>87.0</ele><time>2016-06-18T10:45:36.308Z</time></trkpt><trkpt lat="58.822745" lon="14.92854167"><ele>87.0</ele><time>2016-06-18T10:45:37.315Z</time></trkpt><trkpt lat="58.82266" lon="14.92853667"><ele>88.0</ele><time>2016-06-18T10:45:38.289Z</time></trkpt><trkpt lat="58.82266" lon="14.92853667"><ele>88.0</ele><time>2016-06-18T10:45:39.313Z</time></trkpt><trkpt lat="58.82249333" lon="14.928525"><ele>88.0</ele><time>2016-06-18T10:45:40.307Z</time></trkpt><trkpt lat="58.82241167" lon="14.92851667"><ele>88.0</ele><time>2016-06-18T10:45:41.297Z</time></trkpt><trkpt lat="58.82241167" lon="14.92851667"><ele>88.0</ele><time>2016-06-18T10:45:42.321Z</time></trkpt><trkpt lat="58.82225167" lon="14.9285"><ele>88.0</ele><time>2016-06-18T10:45:43.288Z</time></trkpt><trkpt lat="58.82217167" lon="14.92848833"><ele>88.0</ele><time>2016-06-18T10:45:44.303Z</time></trkpt><trkpt lat="58.82217167" lon="14.92848833"><ele>88.0</ele><time>2016-06-18T10:45:45.287Z</time></trkpt><trkpt lat="58.82201167" lon="14.92846833"><ele>88.0</ele><time>2016-06-18T10:45:46.305Z</time></trkpt><trkpt lat="58.82193167" lon="14.92845667"><ele>88.0</ele><time>2016-06-18T10:45:47.286Z</time></trkpt><trkpt lat="58.82185167" lon="14.928445"><ele>88.0</ele><time>2016-06-18T10:45:48.310Z</time></trkpt><trkpt lat="58.82185167" lon="14.928445"><ele>88.0</ele><time>2016-06-18T10:45:49.295Z</time></trkpt><trkpt lat="58.82169" lon="14.928425"><ele>88.0</ele><time>2016-06-18T10:45:50.302Z</time></trkpt><trkpt lat="58.82169" lon="14.928425"><ele>88.0</ele><time>2016-06-18T10:45:51.317Z</time></trkpt><trkpt lat="58.82152667" lon="14.92841"><ele>88.0</ele><time>2016-06-18T10:45:52.298Z</time></trkpt><trkpt lat="58.82152667" lon="14.92841"><ele>88.0</ele><time>2016-06-18T10:45:53.285Z</time></trkpt><trkpt lat="58.821365" lon="14.92839833"><ele>88.0</ele><time>2016-06-18T10:45:54.297Z</time></trkpt><trkpt lat="58.821365" lon="14.92839833"><ele>88.0</ele><time>2016-06-18T10:45:55.282Z</time></trkpt><trkpt lat="58.82120333" lon="14.92838333"><ele>88.0</ele><time>2016-06-18T10:45:56.323Z</time></trkpt><trkpt lat="58.82120333" lon="14.92838333"><ele>88.0</ele><time>2016-06-18T10:45:57.313Z</time></trkpt><trkpt lat="58.821045" lon="14.92836667"><ele>88.0</ele><time>2016-06-18T10:45:58.320Z</time></trkpt><trkpt lat="58.821045" lon="14.92836667"><ele>88.0</ele><time>2016-06-18T10:45:59.306Z</time></trkpt><trkpt lat="58.82088333" lon="14.92834667"><ele>89.0</ele><time>2016-06-18T10:46:00.322Z</time></trkpt><trkpt lat="58.82088333" lon="14.92834667"><ele>89.0</ele><time>2016-06-18T10:46:01.300Z</time></trkpt><trkpt lat="58.820725" lon="14.92833167"><ele>89.0</ele><time>2016-06-18T10:46:02.307Z</time></trkpt><trkpt lat="58.82064667" lon="14.92832833"><ele>89.0</ele><time>2016-06-18T10:46:03.287Z</time></trkpt><trkpt lat="58.82064667" lon="14.92832833"><ele>89.0</ele><time>2016-06-18T10:46:04.315Z</time></trkpt><trkpt lat="58.82049167" lon="14.92831"><ele>89.0</ele><time>2016-06-18T10:46:05.282Z</time></trkpt><trkpt lat="58.82041667" lon="14.92830333"><ele>89.0</ele><time>2016-06-18T10:46:06.287Z</time></trkpt><trkpt lat="58.82041667" lon="14.92830333"><ele>89.0</ele><time>2016-06-18T10:46:07.286Z</time></trkpt><trkpt lat="58.82027167" lon="14.92829333"><ele>90.0</ele><time>2016-06-18T10:46:08.292Z</time></trkpt><trkpt lat="58.82019833" lon="14.92828833"><ele>90.0</ele><time>2016-06-18T10:46:09.286Z</time></trkpt><trkpt lat="58.82019833" lon="14.92828833"><ele>90.0</ele><time>2016-06-18T10:46:10.321Z</time></trkpt><trkpt lat="58.82005333" lon="14.928275"><ele>90.0</ele><time>2016-06-18T10:46:11.362Z</time></trkpt><trkpt lat="58.81997833" lon="14.92826667"><ele>91.0</ele><time>2016-06-18T10:46:12.295Z</time></trkpt><trkpt lat="58.81997833" lon="14.92826667"><ele>91.0</ele><time>2016-06-18T10:46:13.285Z</time></trkpt><trkpt lat="58.81983333" lon="14.92825"><ele>91.0</ele><time>2016-06-18T10:46:14.300Z</time></trkpt><trkpt lat="58.81983333" lon="14.92825"><ele>91.0</ele><time>2016-06-18T10:46:15.285Z</time></trkpt><trkpt lat="58.81969667" lon="14.92824"><ele>92.0</ele><time>2016-06-18T10:46:16.325Z</time></trkpt><trkpt lat="58.81969667" lon="14.92824"><ele>92.0</ele><time>2016-06-18T10:46:17.322Z</time></trkpt><trkpt lat="58.81956667" lon="14.92823333"><ele>92.0</ele><time>2016-06-18T10:46:18.288Z</time></trkpt><trkpt lat="58.819505" lon="14.92822833"><ele>93.0</ele><time>2016-06-18T10:46:19.283Z</time></trkpt><trkpt lat="58.81944167" lon="14.928225"><ele>93.0</ele><time>2016-06-18T10:46:20.287Z</time></trkpt><trkpt lat="58.81944167" lon="14.928225"><ele>93.0</ele><time>2016-06-18T10:46:21.312Z</time></trkpt><trkpt lat="58.819315" lon="14.92822"><ele>93.0</ele><time>2016-06-18T10:46:22.287Z</time></trkpt><trkpt lat="58.81925333" lon="14.92821833"><ele>94.0</ele><time>2016-06-18T10:46:23.295Z</time></trkpt><trkpt lat="58.81925333" lon="14.92821833"><ele>94.0</ele><time>2016-06-18T10:46:24.319Z</time></trkpt><trkpt lat="58.81913333" lon="14.92823"><ele>94.0</ele><time>2016-06-18T10:46:25.286Z</time></trkpt><trkpt lat="58.81907333" lon="14.92823667"><ele>95.0</ele><time>2016-06-18T10:46:26.310Z</time></trkpt><trkpt lat="58.81907333" lon="14.92823667"><ele>95.0</ele><time>2016-06-18T10:46:27.295Z</time></trkpt><trkpt lat="58.81895667" lon="14.928245"><ele>95.0</ele><time>2016-06-18T10:46:28.304Z</time></trkpt><trkpt lat="58.8189" lon="14.92825333"><ele>95.0</ele><time>2016-06-18T10:46:29.318Z</time></trkpt><trkpt lat="58.8189" lon="14.92825333"><ele>95.0</ele><time>2016-06-18T10:46:30.300Z</time></trkpt><trkpt lat="58.81879" lon="14.928265"><ele>96.0</ele><time>2016-06-18T10:46:31.307Z</time></trkpt><trkpt lat="58.818735" lon="14.92827167"><ele>96.0</ele><time>2016-06-18T10:46:32.297Z</time></trkpt><trkpt lat="58.818735" lon="14.92827167"><ele>96.0</ele><time>2016-06-18T10:46:33.306Z</time></trkpt><trkpt lat="58.81862333" lon="14.92828833"><ele>97.0</ele><time>2016-06-18T10:46:34.312Z</time></trkpt><trkpt lat="58.81862333" lon="14.92828833"><ele>97.0</ele><time>2016-06-18T10:46:35.305Z</time></trkpt><trkpt lat="58.81851333" lon="14.92830833"><ele>97.0</ele><time>2016-06-18T10:46:36.301Z</time></trkpt><trkpt lat="58.81851333" lon="14.92830833"><ele>97.0</ele><time>2016-06-18T10:46:37.291Z</time></trkpt><trkpt lat="58.81840333" lon="14.92832667"><ele>98.0</ele><time>2016-06-18T10:46:38.298Z</time></trkpt><trkpt lat="58.81840333" lon="14.92832667"><ele>98.0</ele><time>2016-06-18T10:46:39.283Z</time></trkpt><trkpt lat="58.81829167" lon="14.92834833"><ele>98.0</ele><time>2016-06-18T10:46:40.298Z</time></trkpt><trkpt lat="58.81829167" lon="14.92834833"><ele>98.0</ele><time>2016-06-18T10:46:41.297Z</time></trkpt><trkpt lat="58.81818333" lon="14.92836333"><ele>98.0</ele><time>2016-06-18T10:46:42.305Z</time></trkpt><trkpt lat="58.81818333" lon="14.92836333"><ele>98.0</ele><time>2016-06-18T10:46:43.282Z</time></trkpt><trkpt lat="58.81807333" lon="14.92838667"><ele>99.0</ele><time>2016-06-18T10:46:44.306Z</time></trkpt><trkpt lat="58.81807333" lon="14.92838667"><ele>99.0</ele><time>2016-06-18T10:46:45.300Z</time></trkpt><trkpt lat="58.81796333" lon="14.92841833"><ele>99.0</ele><time>2016-06-18T10:46:46.306Z</time></trkpt><trkpt lat="58.81796333" lon="14.92841833"><ele>99.0</ele><time>2016-06-18T10:46:47.295Z</time></trkpt><trkpt lat="58.81785167" lon="14.92845"><ele>99.0</ele><time>2016-06-18T10:46:48.321Z</time></trkpt><trkpt lat="58.81785167" lon="14.92845"><ele>99.0</ele><time>2016-06-18T10:46:49.300Z</time></trkpt><trkpt lat="58.817745" lon="14.92848"><ele>99.0</ele><time>2016-06-18T10:46:50.286Z</time></trkpt><trkpt lat="58.817745" lon="14.92848"><ele>99.0</ele><time>2016-06-18T10:46:51.286Z</time></trkpt><trkpt lat="58.81764" lon="14.928515"><ele>100.0</ele><time>2016-06-18T10:46:52.301Z</time></trkpt><trkpt lat="58.81764" lon="14.928515"><ele>100.0</ele><time>2016-06-18T10:46:53.285Z</time></trkpt><trkpt lat="58.817535" lon="14.928545"><ele>100.0</ele><time>2016-06-18T10:46:54.299Z</time></trkpt><trkpt lat="58.817535" lon="14.928545"><ele>100.0</ele><time>2016-06-18T10:46:55.314Z</time></trkpt><trkpt lat="58.81742833" lon="14.92859"><ele>100.0</ele><time>2016-06-18T10:46:56.286Z</time></trkpt><trkpt lat="58.81742833" lon="14.92859"><ele>100.0</ele><time>2016-06-18T10:46:57.292Z</time></trkpt><trkpt lat="58.81732167" lon="14.928635"><ele>101.0</ele><time>2016-06-18T10:46:58.303Z</time></trkpt><trkpt lat="58.81732167" lon="14.928635"><ele>101.0</ele><time>2016-06-18T10:46:59.288Z</time></trkpt><trkpt lat="58.81721833" lon="14.92867333"><ele>101.0</ele><time>2016-06-18T10:47:00.322Z</time></trkpt><trkpt lat="58.81721833" lon="14.92867333"><ele>101.0</ele><time>2016-06-18T10:47:01.299Z</time></trkpt><trkpt lat="58.817115" lon="14.92871333"><ele>101.0</ele><time>2016-06-18T10:47:02.306Z</time></trkpt><trkpt lat="58.817115" lon="14.92871333"><ele>101.0</ele><time>2016-06-18T10:47:03.284Z</time></trkpt><trkpt lat="58.81701667" lon="14.928755"><ele>102.0</ele><time>2016-06-18T10:47:04.287Z</time></trkpt><trkpt lat="58.81701667" lon="14.928755"><ele>102.0</ele><time>2016-06-18T10:47:05.299Z</time></trkpt><trkpt lat="58.81691833" lon="14.92880167"><ele>102.0</ele><time>2016-06-18T10:47:06.306Z</time></trkpt><trkpt lat="58.81687" lon="14.92882667"><ele>102.0</ele><time>2016-06-18T10:47:07.297Z</time></trkpt><trkpt lat="58.81687" lon="14.92882667"><ele>102.0</ele><time>2016-06-18T10:47:08.316Z</time></trkpt><trkpt lat="58.81677" lon="14.92886667"><ele>102.0</ele><time>2016-06-18T10:47:09.289Z</time></trkpt><trkpt lat="58.81677" lon="14.92886667"><ele>102.0</ele><time>2016-06-18T10:47:10.312Z</time></trkpt><trkpt lat="58.81667" lon="14.92891333"><ele>103.0</ele><time>2016-06-18T10:47:11.391Z</time></trkpt><trkpt lat="58.81662167" lon="14.92894"><ele>103.0</ele><time>2016-06-18T10:47:12.284Z</time></trkpt><trkpt lat="58.81662167" lon="14.92894"><ele>103.0</ele><time>2016-06-18T10:47:13.307Z</time></trkpt><trkpt lat="58.81652333" lon="14.92899833"><ele>103.0</ele><time>2016-06-18T10:47:14.313Z</time></trkpt><trkpt lat="58.816475" lon="14.92902667"><ele>103.0</ele><time>2016-06-18T10:47:15.285Z</time></trkpt><trkpt lat="58.816475" lon="14.92902667"><ele>103.0</ele><time>2016-06-18T10:47:16.316Z</time></trkpt><trkpt lat="58.81638" lon="14.929085"><ele>103.0</ele><time>2016-06-18T10:47:17.282Z</time></trkpt><trkpt lat="58.81638" lon="14.929085"><ele>103.0</ele><time>2016-06-18T10:47:18.310Z</time></trkpt><trkpt lat="58.816285" lon="14.92914"><ele>103.0</ele><time>2016-06-18T10:47:19.319Z</time></trkpt><trkpt lat="58.81623833" lon="14.92917"><ele>104.0</ele><time>2016-06-18T10:47:20.286Z</time></trkpt><trkpt lat="58.81623833" lon="14.92917"><ele>104.0</ele><time>2016-06-18T10:47:21.308Z</time></trkpt><trkpt lat="58.816145" lon="14.92923"><ele>104.0</ele><time>2016-06-18T10:47:22.307Z</time></trkpt><trkpt lat="58.816145" lon="14.92923"><ele>104.0</ele><time>2016-06-18T10:47:23.305Z</time></trkpt><trkpt lat="58.81605667" lon="14.92929"><ele>104.0</ele><time>2016-06-18T10:47:24.312Z</time></trkpt><trkpt lat="58.81605667" lon="14.92929"><ele>104.0</ele><time>2016-06-18T10:47:25.306Z</time></trkpt><trkpt lat="58.81597333" lon="14.929355"><ele>104.0</ele><time>2016-06-18T10:47:26.289Z</time></trkpt><trkpt lat="58.81597333" lon="14.929355"><ele>104.0</ele><time>2016-06-18T10:47:27.299Z</time></trkpt><trkpt lat="58.81588167" lon="14.92942333"><ele>104.0</ele><time>2016-06-18T10:47:28.306Z</time></trkpt><trkpt lat="58.81588167" lon="14.92942333"><ele>104.0</ele><time>2016-06-18T10:47:29.289Z</time></trkpt><trkpt lat="58.81578833" lon="14.92949"><ele>105.0</ele><time>2016-06-18T10:47:30.300Z</time></trkpt><trkpt lat="58.81574167" lon="14.929525"><ele>105.0</ele><time>2016-06-18T10:47:31.286Z</time></trkpt><trkpt lat="58.815695" lon="14.92956"><ele>105.0</ele><time>2016-06-18T10:47:32.315Z</time></trkpt><trkpt lat="58.815695" lon="14.92956"><ele>105.0</ele><time>2016-06-18T10:47:33.303Z</time></trkpt><trkpt lat="58.81560167" lon="14.92963167"><ele>105.0</ele><time>2016-06-18T10:47:34.323Z</time></trkpt><trkpt lat="58.81555333" lon="14.92966333"><ele>105.0</ele><time>2016-06-18T10:47:35.316Z</time></trkpt><trkpt lat="58.81555333" lon="14.92966333"><ele>105.0</ele><time>2016-06-18T10:47:36.298Z</time></trkpt><trkpt lat="58.81546" lon="14.92974"><ele>106.0</ele><time>2016-06-18T10:47:37.305Z</time></trkpt><trkpt lat="58.81541333" lon="14.92977667"><ele>106.0</ele><time>2016-06-18T10:47:38.286Z</time></trkpt><trkpt lat="58.81541333" lon="14.92977667"><ele>106.0</ele><time>2016-06-18T10:47:39.292Z</time></trkpt><trkpt lat="58.81532" lon="14.929855"><ele>106.0</ele><time>2016-06-18T10:47:40.299Z</time></trkpt><trkpt lat="58.81527333" lon="14.92989833"><ele>106.0</ele><time>2016-06-18T10:47:41.316Z</time></trkpt><trkpt lat="58.81527333" lon="14.92989833"><ele>106.0</ele><time>2016-06-18T10:47:42.315Z</time></trkpt><trkpt lat="58.81517667" lon="14.92997667"><ele>106.0</ele><time>2016-06-18T10:47:43.283Z</time></trkpt><trkpt lat="58.81512833" lon="14.930015"><ele>107.0</ele><time>2016-06-18T10:47:44.286Z</time></trkpt><trkpt lat="58.81512833" lon="14.930015"><ele>107.0</ele><time>2016-06-18T10:47:45.285Z</time></trkpt><trkpt lat="58.81503167" lon="14.930095"><ele>107.0</ele><time>2016-06-18T10:47:46.306Z</time></trkpt><trkpt lat="58.81503167" lon="14.930095"><ele>107.0</ele><time>2016-06-18T10:47:47.302Z</time></trkpt><trkpt lat="58.814935" lon="14.93018167"><ele>107.0</ele><time>2016-06-18T10:47:48.309Z</time></trkpt><trkpt lat="58.814935" lon="14.93018167"><ele>107.0</ele><time>2016-06-18T10:47:49.298Z</time></trkpt><trkpt lat="58.81484167" lon="14.93026833"><ele>107.0</ele><time>2016-06-18T10:47:50.319Z</time></trkpt><trkpt lat="58.81484167" lon="14.93026833"><ele>107.0</ele><time>2016-06-18T10:47:51.283Z</time></trkpt><trkpt lat="58.81475" lon="14.930355"><ele>108.0</ele><time>2016-06-18T10:47:52.304Z</time></trkpt><trkpt lat="58.81475" lon="14.930355"><ele>108.0</ele><time>2016-06-18T10:47:53.310Z</time></trkpt><trkpt lat="58.81466167" lon="14.93044"><ele>108.0</ele><time>2016-06-18T10:47:54.316Z</time></trkpt><trkpt lat="58.81466167" lon="14.93044"><ele>108.0</ele><time>2016-06-18T10:47:55.299Z</time></trkpt><trkpt lat="58.81457333" lon="14.93053"><ele>108.0</ele><time>2016-06-18T10:47:56.288Z</time></trkpt><trkpt lat="58.81457333" lon="14.93053"><ele>108.0</ele><time>2016-06-18T10:47:57.292Z</time></trkpt><trkpt lat="58.814485" lon="14.93062167"><ele>109.0</ele><time>2016-06-18T10:47:58.302Z</time></trkpt><trkpt lat="58.814485" lon="14.93062167"><ele>109.0</ele><time>2016-06-18T10:47:59.286Z</time></trkpt><trkpt lat="58.81439833" lon="14.93072333"><ele>109.0</ele><time>2016-06-18T10:48:00.307Z</time></trkpt><trkpt lat="58.81439833" lon="14.93072333"><ele>109.0</ele><time>2016-06-18T10:48:01.313Z</time></trkpt><trkpt lat="58.81431167" lon="14.930825"><ele>109.0</ele><time>2016-06-18T10:48:02.321Z</time></trkpt><trkpt lat="58.81426667" lon="14.93087333"><ele>109.0</ele><time>2016-06-18T10:48:03.313Z</time></trkpt><trkpt lat="58.81426667" lon="14.93087333"><ele>109.0</ele><time>2016-06-18T10:48:04.287Z</time></trkpt><trkpt lat="58.814175" lon="14.93097167"><ele>109.0</ele><time>2016-06-18T10:48:05.302Z</time></trkpt><trkpt lat="58.81413" lon="14.93101833"><ele>110.0</ele><time>2016-06-18T10:48:06.300Z</time></trkpt><trkpt lat="58.81408833" lon="14.93107333"><ele>110.0</ele><time>2016-06-18T10:48:07.284Z</time></trkpt><trkpt lat="58.81404333" lon="14.93112833"><ele>110.0</ele><time>2016-06-18T10:48:08.309Z</time></trkpt><trkpt lat="58.81404333" lon="14.93112833"><ele>110.0</ele><time>2016-06-18T10:48:09.298Z</time></trkpt><trkpt lat="58.81395667" lon="14.93124"><ele>110.0</ele><time>2016-06-18T10:48:10.288Z</time></trkpt><trkpt lat="58.81395667" lon="14.93124"><ele>110.0</ele><time>2016-06-18T10:48:11.358Z</time></trkpt><trkpt lat="58.81386667" lon="14.93135167"><ele>110.0</ele><time>2016-06-18T10:48:12.315Z</time></trkpt><trkpt lat="58.81382333" lon="14.93141"><ele>110.0</ele><time>2016-06-18T10:48:13.312Z</time></trkpt><trkpt lat="58.81377833" lon="14.93146833"><ele>110.0</ele><time>2016-06-18T10:48:14.303Z</time></trkpt><trkpt lat="58.81377833" lon="14.93146833"><ele>110.0</ele><time>2016-06-18T10:48:15.287Z</time></trkpt><trkpt lat="58.81368833" lon="14.93158333"><ele>110.0</ele><time>2016-06-18T10:48:16.297Z</time></trkpt><trkpt lat="58.81364167" lon="14.93163833"><ele>110.0</ele><time>2016-06-18T10:48:17.293Z</time></trkpt><trkpt lat="58.81364167" lon="14.93163833"><ele>110.0</ele><time>2016-06-18T10:48:18.308Z</time></trkpt><trkpt lat="58.81355" lon="14.93175"><ele>110.0</ele><time>2016-06-18T10:48:19.315Z</time></trkpt><trkpt lat="58.81350333" lon="14.93181167"><ele>110.0</ele><time>2016-06-18T10:48:20.304Z</time></trkpt><trkpt lat="58.81350333" lon="14.93181167"><ele>110.0</ele><time>2016-06-18T10:48:21.311Z</time></trkpt><trkpt lat="58.81341" lon="14.93193333"><ele>110.0</ele><time>2016-06-18T10:48:22.317Z</time></trkpt><trkpt lat="58.81341" lon="14.93193333"><ele>110.0</ele><time>2016-06-18T10:48:23.302Z</time></trkpt><trkpt lat="58.81331667" lon="14.932065"><ele>110.0</ele><time>2016-06-18T10:48:24.318Z</time></trkpt><trkpt lat="58.81331667" lon="14.932065"><ele>110.0</ele><time>2016-06-18T10:48:25.286Z</time></trkpt><trkpt lat="58.81322167" lon="14.9322"><ele>110.0</ele><time>2016-06-18T10:48:26.295Z</time></trkpt><trkpt lat="58.81322167" lon="14.9322"><ele>110.0</ele><time>2016-06-18T10:48:27.319Z</time></trkpt><trkpt lat="58.81312333" lon="14.93233333"><ele>110.0</ele><time>2016-06-18T10:48:28.287Z</time></trkpt><trkpt lat="58.81312333" lon="14.93233333"><ele>110.0</ele><time>2016-06-18T10:48:29.315Z</time></trkpt><trkpt lat="58.81303" lon="14.93247667"><ele>111.0</ele><time>2016-06-18T10:48:30.322Z</time></trkpt><trkpt lat="58.81298333" lon="14.93254833"><ele>111.0</ele><time>2016-06-18T10:48:31.287Z</time></trkpt><trkpt lat="58.81298333" lon="14.93254833"><ele>111.0</ele><time>2016-06-18T10:48:32.287Z</time></trkpt><trkpt lat="58.81288833" lon="14.93269833"><ele>111.0</ele><time>2016-06-18T10:48:33.294Z</time></trkpt><trkpt lat="58.81288833" lon="14.93269833"><ele>111.0</ele><time>2016-06-18T10:48:34.309Z</time></trkpt><trkpt lat="58.81279" lon="14.932855"><ele>111.0</ele><time>2016-06-18T10:48:35.315Z</time></trkpt><trkpt lat="58.81279" lon="14.932855"><ele>111.0</ele><time>2016-06-18T10:48:36.298Z</time></trkpt><trkpt lat="58.81269" lon="14.93301167"><ele>111.0</ele><time>2016-06-18T10:48:37.309Z</time></trkpt><trkpt lat="58.81264167" lon="14.93309333"><ele>111.0</ele><time>2016-06-18T10:48:38.320Z</time></trkpt><trkpt lat="58.81264167" lon="14.93309333"><ele>111.0</ele><time>2016-06-18T10:48:39.304Z</time></trkpt><trkpt lat="58.81255167" lon="14.93326167"><ele>110.0</ele><time>2016-06-18T10:48:40.286Z</time></trkpt><trkpt lat="58.81250667" lon="14.933345"><ele>110.0</ele><time>2016-06-18T10:48:41.305Z</time></trkpt><trkpt lat="58.81250667" lon="14.933345"><ele>110.0</ele><time>2016-06-18T10:48:42.287Z</time></trkpt><trkpt lat="58.81241667" lon="14.93350667"><ele>110.0</ele><time>2016-06-18T10:48:43.313Z</time></trkpt><trkpt lat="58.81237167" lon="14.933585"><ele>110.0</ele><time>2016-06-18T10:48:44.300Z</time></trkpt><trkpt lat="58.81232667" lon="14.93366167"><ele>110.0</ele><time>2016-06-18T10:48:45.285Z</time></trkpt><trkpt lat="58.81232667" lon="14.93366167"><ele>110.0</ele><time>2016-06-18T10:48:46.308Z</time></trkpt><trkpt lat="58.81223833" lon="14.93382167"><ele>110.0</ele><time>2016-06-18T10:48:47.308Z</time></trkpt><trkpt lat="58.81223833" lon="14.93382167"><ele>110.0</ele><time>2016-06-18T10:48:48.304Z</time></trkpt><trkpt lat="58.81214667" lon="14.93398"><ele>110.0</ele><time>2016-06-18T10:48:49.311Z</time></trkpt><trkpt lat="58.81210167" lon="14.934065"><ele>110.0</ele><time>2016-06-18T10:48:50.297Z</time></trkpt><trkpt lat="58.81210167" lon="14.934065"><ele>110.0</ele><time>2016-06-18T10:48:51.300Z</time></trkpt><trkpt lat="58.81201333" lon="14.93424333"><ele>109.0</ele><time>2016-06-18T10:48:52.289Z</time></trkpt><trkpt lat="58.81201333" lon="14.93424333"><ele>109.0</ele><time>2016-06-18T10:48:53.283Z</time></trkpt><trkpt lat="58.81192" lon="14.93442333"><ele>109.0</ele><time>2016-06-18T10:48:54.283Z</time></trkpt><trkpt lat="58.81192" lon="14.93442333"><ele>109.0</ele><time>2016-06-18T10:48:55.318Z</time></trkpt><trkpt lat="58.81182667" lon="14.93461333"><ele>109.0</ele><time>2016-06-18T10:48:56.285Z</time></trkpt><trkpt lat="58.81182667" lon="14.93461333"><ele>109.0</ele><time>2016-06-18T10:48:57.308Z</time></trkpt><trkpt lat="58.811735" lon="14.93480833"><ele>108.0</ele><time>2016-06-18T10:48:58.298Z</time></trkpt><trkpt lat="58.811735" lon="14.93480833"><ele>108.0</ele><time>2016-06-18T10:48:59.307Z</time></trkpt><trkpt lat="58.811645" lon="14.93501"><ele>108.0</ele><time>2016-06-18T10:49:00.314Z</time></trkpt><trkpt lat="58.811645" lon="14.93501"><ele>108.0</ele><time>2016-06-18T10:49:01.306Z</time></trkpt><trkpt lat="58.811555" lon="14.935225"><ele>108.0</ele><time>2016-06-18T10:49:02.311Z</time></trkpt><trkpt lat="58.811555" lon="14.935225"><ele>108.0</ele><time>2016-06-18T10:49:03.320Z</time></trkpt><trkpt lat="58.81146167" lon="14.93544833"><ele>107.0</ele><time>2016-06-18T10:49:04.286Z</time></trkpt><trkpt lat="58.81141167" lon="14.935555"><ele>107.0</ele><time>2016-06-18T10:49:05.320Z</time></trkpt><trkpt lat="58.81136167" lon="14.935665"><ele>107.0</ele><time>2016-06-18T10:49:06.317Z</time></trkpt><trkpt lat="58.81136167" lon="14.935665"><ele>107.0</ele><time>2016-06-18T10:49:07.299Z</time></trkpt><trkpt lat="58.811265" lon="14.93589333"><ele>106.0</ele><time>2016-06-18T10:49:08.306Z</time></trkpt><trkpt lat="58.811265" lon="14.93589333"><ele>106.0</ele><time>2016-06-18T10:49:09.310Z</time></trkpt><trkpt lat="58.81117333" lon="14.93614"><ele>106.0</ele><time>2016-06-18T10:49:10.316Z</time></trkpt><trkpt lat="58.81117333" lon="14.93614"><ele>106.0</ele><time>2016-06-18T10:49:11.364Z</time></trkpt><trkpt lat="58.81107833" lon="14.93638833"><ele>106.0</ele><time>2016-06-18T10:49:12.300Z</time></trkpt><trkpt lat="58.81103" lon="14.93650667"><ele>105.0</ele><time>2016-06-18T10:49:13.307Z</time></trkpt><trkpt lat="58.81103" lon="14.93650667"><ele>105.0</ele><time>2016-06-18T10:49:14.291Z</time></trkpt><trkpt lat="58.81094167" lon="14.936745"><ele>105.0</ele><time>2016-06-18T10:49:15.289Z</time></trkpt><trkpt lat="58.81094167" lon="14.936745"><ele>105.0</ele><time>2016-06-18T10:49:16.309Z</time></trkpt><trkpt lat="58.81086167" lon="14.93696333"><ele>105.0</ele><time>2016-06-18T10:49:17.316Z</time></trkpt><trkpt lat="58.81086167" lon="14.93696333"><ele>105.0</ele><time>2016-06-18T10:49:18.298Z</time></trkpt><trkpt lat="58.810785" lon="14.937155"><ele>104.0</ele><time>2016-06-18T10:49:19.320Z</time></trkpt><trkpt lat="58.810785" lon="14.937155"><ele>104.0</ele><time>2016-06-18T10:49:20.303Z</time></trkpt><trkpt lat="58.81071667" lon="14.9373"><ele>104.0</ele><time>2016-06-18T10:49:21.310Z</time></trkpt><trkpt lat="58.810685" lon="14.93735667"><ele>104.0</ele><time>2016-06-18T10:49:22.297Z</time></trkpt><trkpt lat="58.81065167" lon="14.93740667"><ele>104.0</ele><time>2016-06-18T10:49:23.311Z</time></trkpt><trkpt lat="58.81065167" lon="14.93740667"><ele>104.0</ele><time>2016-06-18T10:49:24.299Z</time></trkpt><trkpt lat="58.810585" lon="14.937475"><ele>103.0</ele><time>2016-06-18T10:49:25.313Z</time></trkpt><trkpt lat="58.81055667" lon="14.9375"><ele>103.0</ele><time>2016-06-18T10:49:26.313Z</time></trkpt><trkpt lat="58.81055667" lon="14.9375"><ele>103.0</ele><time>2016-06-18T10:49:27.300Z</time></trkpt><trkpt lat="58.81050833" lon="14.93755333"><ele>103.0</ele><time>2016-06-18T10:49:28.318Z</time></trkpt><trkpt lat="58.81050833" lon="14.93755333"><ele>103.0</ele><time>2016-06-18T10:49:29.321Z</time></trkpt><trkpt lat="58.81047" lon="14.93757833"><ele>104.0</ele><time>2016-06-18T10:49:30.287Z</time></trkpt><trkpt lat="58.81045667" lon="14.93758667"><ele>104.0</ele><time>2016-06-18T10:49:31.313Z</time></trkpt><trkpt lat="58.810445" lon="14.93759"><ele>104.0</ele><time>2016-06-18T10:49:32.286Z</time></trkpt><trkpt lat="58.810445" lon="14.93759"><ele>104.0</ele><time>2016-06-18T10:49:33.304Z</time></trkpt><trkpt lat="58.81042833" lon="14.93760833"><ele>104.0</ele><time>2016-06-18T10:49:34.310Z</time></trkpt><trkpt lat="58.81042833" lon="14.93760833"><ele>104.0</ele><time>2016-06-18T10:49:35.320Z</time></trkpt><trkpt lat="58.81041333" lon="14.93763667"><ele>104.0</ele><time>2016-06-18T10:49:36.286Z</time></trkpt><trkpt lat="58.81041333" lon="14.93763667"><ele>104.0</ele><time>2016-06-18T10:49:37.310Z</time></trkpt><trkpt lat="58.81040833" lon="14.93768"><ele>104.0</ele><time>2016-06-18T10:49:38.291Z</time></trkpt><trkpt lat="58.81040833" lon="14.93768"><ele>104.0</ele><time>2016-06-18T10:49:39.302Z</time></trkpt><trkpt lat="58.81040167" lon="14.937735"><ele>104.0</ele><time>2016-06-18T10:49:40.309Z</time></trkpt><trkpt lat="58.81039667" lon="14.93775667"><ele>104.0</ele><time>2016-06-18T10:49:41.300Z</time></trkpt><trkpt lat="58.81039667" lon="14.93775667"><ele>104.0</ele><time>2016-06-18T10:49:42.312Z</time></trkpt><trkpt lat="58.81038667" lon="14.93776667"><ele>103.0</ele><time>2016-06-18T10:49:43.283Z</time></trkpt><trkpt lat="58.81038833" lon="14.93777167"><ele>103.0</ele><time>2016-06-18T10:49:44.311Z</time></trkpt><trkpt lat="58.81038833" lon="14.93777167"><ele>103.0</ele><time>2016-06-18T10:49:45.307Z</time></trkpt><trkpt lat="58.81038833" lon="14.937775"><ele>103.0</ele><time>2016-06-18T10:49:46.312Z</time></trkpt><trkpt lat="58.81038833" lon="14.937775"><ele>103.0</ele><time>2016-06-18T10:49:47.306Z</time></trkpt><trkpt lat="58.81038333" lon="14.937805"><ele>103.0</ele><time>2016-06-18T10:49:48.297Z</time></trkpt><trkpt lat="58.81038333" lon="14.937805"><ele>103.0</ele><time>2016-06-18T10:49:49.320Z</time></trkpt><trkpt lat="58.81037667" lon="14.93782667"><ele>103.0</ele><time>2016-06-18T10:49:50.312Z</time></trkpt><trkpt lat="58.81037667" lon="14.93782667"><ele>103.0</ele><time>2016-06-18T10:49:51.318Z</time></trkpt><trkpt lat="58.810375" lon="14.93785"><ele>103.0</ele><time>2016-06-18T10:49:52.297Z</time></trkpt><trkpt lat="58.810375" lon="14.93785"><ele>103.0</ele><time>2016-06-18T10:49:53.319Z</time></trkpt><trkpt lat="58.81037667" lon="14.93788"><ele>104.0</ele><time>2016-06-18T10:49:54.285Z</time></trkpt><trkpt lat="58.81037667" lon="14.93788"><ele>104.0</ele><time>2016-06-18T10:49:55.297Z</time></trkpt><trkpt lat="58.81038167" lon="14.937895"><ele>104.0</ele><time>2016-06-18T10:49:56.305Z</time></trkpt><trkpt lat="58.81038167" lon="14.937895"><ele>104.0</ele><time>2016-06-18T10:49:57.290Z</time></trkpt><trkpt lat="58.81038833" lon="14.93791167"><ele>104.0</ele><time>2016-06-18T10:49:58.311Z</time></trkpt><trkpt lat="58.81038667" lon="14.93791667"><ele>104.0</ele><time>2016-06-18T10:49:59.320Z</time></trkpt><trkpt lat="58.81038667" lon="14.93791667"><ele>104.0</ele><time>2016-06-18T10:50:00.282Z</time></trkpt><trkpt lat="58.810385" lon="14.93793333"><ele>104.0</ele><time>2016-06-18T10:50:01.288Z</time></trkpt><trkpt lat="58.81038333" lon="14.93794167"><ele>104.0</ele><time>2016-06-18T10:50:02.298Z</time></trkpt><trkpt lat="58.81038333" lon="14.93794167"><ele>104.0</ele><time>2016-06-18T10:50:03.320Z</time></trkpt><trkpt lat="58.81037333" lon="14.93795167"><ele>104.0</ele><time>2016-06-18T10:50:04.286Z</time></trkpt><trkpt lat="58.810365" lon="14.93795667"><ele>104.0</ele><time>2016-06-18T10:50:05.304Z</time></trkpt><trkpt lat="58.810365" lon="14.93795667"><ele>104.0</ele><time>2016-06-18T10:50:06.300Z</time></trkpt><trkpt lat="58.81036" lon="14.93796667"><ele>104.0</ele><time>2016-06-18T10:50:07.307Z</time></trkpt><trkpt lat="58.81035833" lon="14.93796667"><ele>104.0</ele><time>2016-06-18T10:50:08.314Z</time></trkpt><trkpt lat="58.81035833" lon="14.93796667"><ele>104.0</ele><time>2016-06-18T10:50:09.320Z</time></trkpt><trkpt lat="58.81035833" lon="14.93796667"><ele>104.0</ele><time>2016-06-18T10:50:10.284Z</time></trkpt><trkpt lat="58.81035833" lon="14.93796667"><ele>104.0</ele><time>2016-06-18T10:50:11.350Z</time></trkpt><trkpt lat="58.81035833" lon="14.93796667"><ele>104.0</ele><time>2016-06-18T10:50:12.299Z</time></trkpt><trkpt lat="58.81035833" lon="14.93796667"><ele>104.0</ele><time>2016-06-18T10:50:13.319Z</time></trkpt><trkpt lat="58.81035833" lon="14.93796667"><ele>104.0</ele><time>2016-06-18T10:50:14.285Z</time></trkpt><trkpt lat="58.81035833" lon="14.93796667"><ele>104.0</ele><time>2016-06-18T10:50:15.293Z</time></trkpt><trkpt lat="58.81035833" lon="14.93796667"><ele>104.0</ele><time>2016-06-18T10:50:16.311Z</time></trkpt><trkpt lat="58.81035833" lon="14.93796667"><ele>104.0</ele><time>2016-06-18T10:50:17.311Z</time></trkpt><trkpt lat="58.81035833" lon="14.93796667"><ele>104.0</ele><time>2016-06-18T10:50:18.307Z</time></trkpt><trkpt lat="58.81035833" lon="14.93796667"><ele>104.0</ele><time>2016-06-18T10:50:19.312Z</time></trkpt><trkpt lat="58.81035833" lon="14.93796667"><ele>104.0</ele><time>2016-06-18T10:50:20.314Z</time></trkpt><trkpt lat="58.81035833" lon="14.93796667"><ele>104.0</ele><time>2016-06-18T10:50:21.307Z</time></trkpt><trkpt lat="58.81035833" lon="14.93796667"><ele>104.0</ele><time>2016-06-18T10:50:22.310Z</time></trkpt><trkpt lat="58.81035833" lon="14.93796667"><ele>104.0</ele><time>2016-06-18T10:50:23.299Z</time></trkpt><trkpt lat="58.81035833" lon="14.93796667"><ele>104.0</ele><time>2016-06-18T10:50:24.285Z</time></trkpt><trkpt lat="58.81035833" lon="14.93796667"><ele>104.0</ele><time>2016-06-18T10:50:25.314Z</time></trkpt><trkpt lat="58.81035833" lon="14.93796667"><ele>104.0</ele><time>2016-06-18T10:50:26.315Z</time></trkpt><trkpt lat="58.81035833" lon="14.93796667"><ele>104.0</ele><time>2016-06-18T10:50:27.306Z</time></trkpt><trkpt lat="58.81035833" lon="14.93796667"><ele>104.0</ele><time>2016-06-18T10:50:28.310Z</time></trkpt><trkpt lat="58.81035833" lon="14.93796667"><ele>104.0</ele><time>2016-06-18T10:50:29.310Z</time></trkpt><trkpt lat="58.81035833" lon="14.93796667"><ele>104.0</ele><time>2016-06-18T10:50:30.307Z</time></trkpt><trkpt lat="58.81035833" lon="14.93796667"><ele>104.0</ele><time>2016-06-18T10:50:31.312Z</time></trkpt><trkpt lat="58.81035833" lon="14.93796667"><ele>104.0</ele><time>2016-06-18T10:50:32.315Z</time></trkpt><trkpt lat="58.81035833" lon="14.93796667"><ele>104.0</ele><time>2016-06-18T10:50:33.316Z</time></trkpt><trkpt lat="58.81035833" lon="14.93796667"><ele>104.0</ele><time>2016-06-18T10:50:34.313Z</time></trkpt><trkpt lat="58.81035833" lon="14.93796667"><ele>104.0</ele><time>2016-06-18T10:50:35.310Z</time></trkpt><trkpt lat="58.81035833" lon="14.93796667"><ele>104.0</ele><time>2016-06-18T10:50:36.312Z</time></trkpt><trkpt lat="58.81035833" lon="14.93796667"><ele>104.0</ele><time>2016-06-18T10:50:37.307Z</time></trkpt><trkpt lat="58.81035833" lon="14.93796667"><ele>104.0</ele><time>2016-06-18T10:50:38.311Z</time></trkpt><trkpt lat="58.81035833" lon="14.93796667"><ele>104.0</ele><time>2016-06-18T10:50:39.306Z</time></trkpt><trkpt lat="58.81035833" lon="14.93796667"><ele>104.0</ele><time>2016-06-18T10:50:40.312Z</time></trkpt><trkpt lat="58.81035833" lon="14.93796667"><ele>104.0</ele><time>2016-06-18T10:50:41.307Z</time></trkpt><trkpt lat="58.81035833" lon="14.93796667"><ele>104.0</ele><time>2016-06-18T10:50:42.311Z</time></trkpt><trkpt lat="58.81035833" lon="14.93796667"><ele>104.0</ele><time>2016-06-18T10:50:43.287Z</time></trkpt><trkpt lat="58.81035833" lon="14.93796667"><ele>104.0</ele><time>2016-06-18T10:50:44.312Z</time></trkpt><trkpt lat="58.81035833" lon="14.93796667"><ele>104.0</ele><time>2016-06-18T10:50:45.312Z</time></trkpt><trkpt lat="58.81035833" lon="14.93796667"><ele>104.0</ele><time>2016-06-18T10:50:46.312Z</time></trkpt><trkpt lat="58.81035833" lon="14.93796667"><ele>104.0</ele><time>2016-06-18T10:50:47.306Z</time></trkpt><trkpt lat="58.81035833" lon="14.93796667"><ele>104.0</ele><time>2016-06-18T10:50:48.311Z</time></trkpt><trkpt lat="58.81035833" lon="14.93796667"><ele>104.0</ele><time>2016-06-18T10:50:49.307Z</time></trkpt><trkpt lat="58.81035833" lon="14.93796667"><ele>104.0</ele><time>2016-06-18T10:50:50.312Z</time></trkpt><trkpt lat="58.81035833" lon="14.93796667"><ele>104.0</ele><time>2016-06-18T10:50:51.307Z</time></trkpt><trkpt lat="58.81035833" lon="14.93796667"><ele>104.0</ele><time>2016-06-18T10:50:52.312Z</time></trkpt><trkpt lat="58.81035833" lon="14.93796667"><ele>104.0</ele><time>2016-06-18T10:50:53.284Z</time></trkpt><trkpt lat="58.81035833" lon="14.93796667"><ele>104.0</ele><time>2016-06-18T10:50:54.307Z</time></trkpt><trkpt lat="58.81035833" lon="14.93796667"><ele>104.0</ele><time>2016-06-18T10:50:55.312Z</time></trkpt><trkpt lat="58.81035833" lon="14.93796667"><ele>104.0</ele><time>2016-06-18T10:50:56.307Z</time></trkpt><trkpt lat="58.81035833" lon="14.93796667"><ele>104.0</ele><time>2016-06-18T10:50:57.312Z</time></trkpt><trkpt lat="58.81035833" lon="14.93796667"><ele>104.0</ele><time>2016-06-18T10:50:58.312Z</time></trkpt><trkpt lat="58.81035833" lon="14.93796667"><ele>104.0</ele><time>2016-06-18T10:50:59.307Z</time></trkpt><trkpt lat="58.81035833" lon="14.93796667"><ele>104.0</ele><time>2016-06-18T10:51:00.293Z</time></trkpt><trkpt lat="58.81035833" lon="14.93796667"><ele>104.0</ele><time>2016-06-18T10:51:01.309Z</time></trkpt><trkpt lat="58.81035833" lon="14.93796667"><ele>104.0</ele><time>2016-06-18T10:51:02.314Z</time></trkpt><trkpt lat="58.81035833" lon="14.93796667"><ele>104.0</ele><time>2016-06-18T10:51:03.309Z</time></trkpt><trkpt lat="58.81035833" lon="14.93796667"><ele>104.0</ele><time>2016-06-18T10:51:04.307Z</time></trkpt><trkpt lat="58.81035833" lon="14.93796667"><ele>104.0</ele><time>2016-06-18T10:51:05.310Z</time></trkpt><trkpt lat="58.81035833" lon="14.93796667"><ele>104.0</ele><time>2016-06-18T10:51:06.311Z</time></trkpt><trkpt lat="58.81035833" lon="14.93796667"><ele>104.0</ele><time>2016-06-18T10:51:07.306Z</time></trkpt><trkpt lat="58.81035833" lon="14.93796667"><ele>104.0</ele><time>2016-06-18T10:51:08.321Z</time></trkpt><trkpt lat="58.81035833" lon="14.93796667"><ele>104.0</ele><time>2016-06-18T10:51:09.309Z</time></trkpt><trkpt lat="58.81035833" lon="14.93796667"><ele>104.0</ele><time>2016-06-18T10:51:10.310Z</time></trkpt><trkpt lat="58.81035833" lon="14.93796667"><ele>104.0</ele><time>2016-06-18T10:51:11.308Z</time></trkpt><trkpt lat="58.81035833" lon="14.93796667"><ele>104.0</ele><time>2016-06-18T10:51:12.292Z</time></trkpt><trkpt lat="58.81035833" lon="14.93796667"><ele>104.0</ele><time>2016-06-18T10:51:13.302Z</time></trkpt><trkpt lat="58.81035833" lon="14.93796667"><ele>104.0</ele><time>2016-06-18T10:51:14.310Z</time></trkpt><trkpt lat="58.81035833" lon="14.93796667"><ele>104.0</ele><time>2016-06-18T10:51:15.285Z</time></trkpt><trkpt lat="58.81035833" lon="14.93796667"><ele>104.0</ele><time>2016-06-18T10:51:16.315Z</time></trkpt><trkpt lat="58.81035833" lon="14.93796667"><ele>104.0</ele><time>2016-06-18T10:51:17.309Z</time></trkpt><trkpt lat="58.81035833" lon="14.93796667"><ele>104.0</ele><time>2016-06-18T10:51:18.312Z</time></trkpt><trkpt lat="58.81035833" lon="14.93796667"><ele>104.0</ele><time>2016-06-18T10:51:19.309Z</time></trkpt><trkpt lat="58.81035833" lon="14.93796667"><ele>104.0</ele><time>2016-06-18T10:51:20.314Z</time></trkpt><trkpt lat="58.81035833" lon="14.93796667"><ele>104.0</ele><time>2016-06-18T10:51:21.309Z</time></trkpt><trkpt lat="58.81035833" lon="14.93796667"><ele>104.0</ele><time>2016-06-18T10:51:22.312Z</time></trkpt><trkpt lat="58.81035833" lon="14.93796667"><ele>104.0</ele><time>2016-06-18T10:51:23.293Z</time></trkpt><trkpt lat="58.81035833" lon="14.93796667"><ele>104.0</ele><time>2016-06-18T10:51:24.318Z</time></trkpt><trkpt lat="58.81035833" lon="14.93796667"><ele>104.0</ele><time>2016-06-18T10:51:25.310Z</time></trkpt><trkpt lat="58.81035833" lon="14.93796667"><ele>104.0</ele><time>2016-06-18T10:51:26.293Z</time></trkpt><trkpt lat="58.81035833" lon="14.93796667"><ele>104.0</ele><time>2016-06-18T10:51:27.288Z</time></trkpt><trkpt lat="58.81035833" lon="14.93796667"><ele>104.0</ele><time>2016-06-18T10:51:28.317Z</time></trkpt><trkpt lat="58.81035833" lon="14.93796667"><ele>104.0</ele><time>2016-06-18T10:51:29.306Z</time></trkpt><trkpt lat="58.81035833" lon="14.93796667"><ele>104.0</ele><time>2016-06-18T10:51:30.313Z</time></trkpt><trkpt lat="58.81035833" lon="14.93796667"><ele>104.0</ele><time>2016-06-18T10:51:31.309Z</time></trkpt><trkpt lat="58.81035833" lon="14.93796667"><ele>104.0</ele><time>2016-06-18T10:51:32.315Z</time></trkpt><trkpt lat="58.81035833" lon="14.93796667"><ele>104.0</ele><time>2016-06-18T10:51:33.310Z</time></trkpt><trkpt lat="58.81035833" lon="14.93796667"><ele>104.0</ele><time>2016-06-18T10:51:34.312Z</time></trkpt><trkpt lat="58.81035833" lon="14.93796667"><ele>104.0</ele><time>2016-06-18T10:51:35.312Z</time></trkpt><trkpt lat="58.81035833" lon="14.93796667"><ele>104.0</ele><time>2016-06-18T10:51:36.308Z</time></trkpt><trkpt lat="58.81035833" lon="14.93796667"><ele>104.0</ele><time>2016-06-18T10:51:37.312Z</time></trkpt><trkpt lat="58.81035833" lon="14.93796667"><ele>104.0</ele><time>2016-06-18T10:51:38.321Z</time></trkpt><trkpt lat="58.81035833" lon="14.93796667"><ele>104.0</ele><time>2016-06-18T10:51:39.307Z</time></trkpt><trkpt lat="58.81035833" lon="14.93796667"><ele>104.0</ele><time>2016-06-18T10:51:40.312Z</time></trkpt><trkpt lat="58.81035833" lon="14.93796667"><ele>104.0</ele><time>2016-06-18T10:51:41.308Z</time></trkpt><trkpt lat="58.81035833" lon="14.93796667"><ele>104.0</ele><time>2016-06-18T10:51:42.312Z</time></trkpt><trkpt lat="58.81035833" lon="14.93796667"><ele>104.0</ele><time>2016-06-18T10:51:43.297Z</time></trkpt><trkpt lat="58.81035833" lon="14.93796667"><ele>104.0</ele><time>2016-06-18T10:51:44.288Z</time></trkpt><trkpt lat="58.81035833" lon="14.93796667"><ele>104.0</ele><time>2016-06-18T10:51:45.312Z</time></trkpt><trkpt lat="58.81035833" lon="14.93796667"><ele>104.0</ele><time>2016-06-18T10:51:46.310Z</time></trkpt><trkpt lat="58.81035833" lon="14.93796667"><ele>104.0</ele><time>2016-06-18T10:51:47.312Z</time></trkpt><trkpt lat="58.81035833" lon="14.93796667"><ele>104.0</ele><time>2016-06-18T10:51:48.308Z</time></trkpt><trkpt lat="58.81035833" lon="14.93796667"><ele>104.0</ele><time>2016-06-18T10:51:49.312Z</time></trkpt><trkpt lat="58.81035833" lon="14.93796667"><ele>104.0</ele><time>2016-06-18T10:51:50.313Z</time></trkpt><trkpt lat="58.81035833" lon="14.93796667"><ele>104.0</ele><time>2016-06-18T10:51:51.309Z</time></trkpt><trkpt lat="58.81035833" lon="14.93796667"><ele>104.0</ele><time>2016-06-18T10:51:52.312Z</time></trkpt><trkpt lat="58.81035833" lon="14.93796667"><ele>104.0</ele><time>2016-06-18T10:51:53.293Z</time></trkpt><trkpt lat="58.81035833" lon="14.93796667"><ele>104.0</ele><time>2016-06-18T10:51:54.317Z</time></trkpt><trkpt lat="58.81035833" lon="14.93796667"><ele>104.0</ele><time>2016-06-18T10:51:55.312Z</time></trkpt><trkpt lat="58.81035833" lon="14.93796667"><ele>104.0</ele><time>2016-06-18T10:51:56.313Z</time></trkpt><trkpt lat="58.81035833" lon="14.93796667"><ele>104.0</ele><time>2016-06-18T10:51:57.309Z</time></trkpt><trkpt lat="58.81035833" lon="14.93796667"><ele>104.0</ele><time>2016-06-18T10:51:58.313Z</time></trkpt><trkpt lat="58.81035833" lon="14.93796667"><ele>104.0</ele><time>2016-06-18T10:51:59.309Z</time></trkpt><trkpt lat="58.81035833" lon="14.93796667"><ele>104.0</ele><time>2016-06-18T10:52:00.295Z</time></trkpt><trkpt lat="58.81035833" lon="14.93796667"><ele>104.0</ele><time>2016-06-18T10:52:01.286Z</time></trkpt><trkpt lat="58.81035833" lon="14.93796667"><ele>104.0</ele><time>2016-06-18T10:52:02.315Z</time></trkpt><trkpt lat="58.81035833" lon="14.93796667"><ele>104.0</ele><time>2016-06-18T10:52:03.310Z</time></trkpt><trkpt lat="58.81035833" lon="14.93796667"><ele>104.0</ele><time>2016-06-18T10:52:04.308Z</time></trkpt><trkpt lat="58.81035833" lon="14.93796667"><ele>104.0</ele><time>2016-06-18T10:52:05.312Z</time></trkpt><trkpt lat="58.81035833" lon="14.93796667"><ele>104.0</ele><time>2016-06-18T10:52:06.308Z</time></trkpt><trkpt lat="58.81035833" lon="14.93796667"><ele>104.0</ele><time>2016-06-18T10:52:07.313Z</time></trkpt><trkpt lat="58.81035833" lon="14.93796667"><ele>104.0</ele><time>2016-06-18T10:52:08.288Z</time></trkpt><trkpt lat="58.81035833" lon="14.93796667"><ele>104.0</ele><time>2016-06-18T10:52:09.318Z</time></trkpt><trkpt lat="58.81035833" lon="14.93796667"><ele>104.0</ele><time>2016-06-18T10:52:10.312Z</time></trkpt><trkpt lat="58.81035833" lon="14.93796667"><ele>104.0</ele><time>2016-06-18T10:52:11.378Z</time></trkpt><trkpt lat="58.81035833" lon="14.93796667"><ele>104.0</ele><time>2016-06-18T10:52:12.283Z</time></trkpt><trkpt lat="58.81035833" lon="14.93796667"><ele>104.0</ele><time>2016-06-18T10:52:13.290Z</time></trkpt><trkpt lat="58.81035833" lon="14.93796667"><ele>104.0</ele><time>2016-06-18T10:52:14.296Z</time></trkpt><trkpt lat="58.81035833" lon="14.93796667"><ele>104.0</ele><time>2016-06-18T10:52:15.321Z</time></trkpt><trkpt lat="58.81035833" lon="14.93796667"><ele>104.0</ele><time>2016-06-18T10:52:16.312Z</time></trkpt><trkpt lat="58.81035833" lon="14.93796667"><ele>104.0</ele><time>2016-06-18T10:52:17.309Z</time></trkpt><trkpt lat="58.81035833" lon="14.93796667"><ele>104.0</ele><time>2016-06-18T10:52:18.312Z</time></trkpt><trkpt lat="58.81035833" lon="14.93796667"><ele>104.0</ele><time>2016-06-18T10:52:19.309Z</time></trkpt><trkpt lat="58.81035833" lon="14.93796667"><ele>104.0</ele><time>2016-06-18T10:52:20.315Z</time></trkpt><trkpt lat="58.81035833" lon="14.93796667"><ele>104.0</ele><time>2016-06-18T10:52:21.308Z</time></trkpt><trkpt lat="58.81035833" lon="14.93796667"><ele>104.0</ele><time>2016-06-18T10:52:22.312Z</time></trkpt><trkpt lat="58.81035833" lon="14.93796667"><ele>104.0</ele><time>2016-06-18T10:52:23.290Z</time></trkpt><trkpt lat="58.81035833" lon="14.93796667"><ele>104.0</ele><time>2016-06-18T10:52:24.312Z</time></trkpt><trkpt lat="58.81035833" lon="14.93796667"><ele>104.0</ele><time>2016-06-18T10:52:25.312Z</time></trkpt><trkpt lat="58.81035833" lon="14.93796667"><ele>104.0</ele><time>2016-06-18T10:52:26.314Z</time></trkpt><trkpt lat="58.81035833" lon="14.93796667"><ele>104.0</ele><time>2016-06-18T10:52:27.313Z</time></trkpt><trkpt lat="58.81035833" lon="14.93796667"><ele>104.0</ele><time>2016-06-18T10:52:28.310Z</time></trkpt><trkpt lat="58.81035833" lon="14.93796667"><ele>104.0</ele><time>2016-06-18T10:52:29.312Z</time></trkpt><trkpt lat="58.81035833" lon="14.93796667"><ele>104.0</ele><time>2016-06-18T10:52:30.313Z</time></trkpt><trkpt lat="58.81035833" lon="14.93796667"><ele>104.0</ele><time>2016-06-18T10:52:31.313Z</time></trkpt><trkpt lat="58.81035833" lon="14.93796667"><ele>104.0</ele><time>2016-06-18T10:52:32.314Z</time></trkpt><trkpt lat="58.81035833" lon="14.93796667"><ele>104.0</ele><time>2016-06-18T10:52:33.295Z</time></trkpt><trkpt lat="58.81035833" lon="14.93796667"><ele>104.0</ele><time>2016-06-18T10:52:34.284Z</time></trkpt><trkpt lat="58.81035833" lon="14.93796667"><ele>104.0</ele><time>2016-06-18T10:52:35.312Z</time></trkpt><trkpt lat="58.81035833" lon="14.93796667"><ele>104.0</ele><time>2016-06-18T10:52:36.312Z</time></trkpt><trkpt lat="58.81035833" lon="14.93796667"><ele>104.0</ele><time>2016-06-18T10:52:37.308Z</time></trkpt><trkpt lat="58.81035833" lon="14.93796667"><ele>104.0</ele><time>2016-06-18T10:52:38.294Z</time></trkpt><trkpt lat="58.81035833" lon="14.93796667"><ele>104.0</ele><time>2016-06-18T10:52:39.310Z</time></trkpt><trkpt lat="58.81035833" lon="14.93796667"><ele>104.0</ele><time>2016-06-18T10:52:40.313Z</time></trkpt><trkpt lat="58.81035833" lon="14.93796667"><ele>104.0</ele><time>2016-06-18T10:52:41.308Z</time></trkpt><trkpt lat="58.81035833" lon="14.93796667"><ele>104.0</ele><time>2016-06-18T10:52:42.312Z</time></trkpt><trkpt lat="58.81035833" lon="14.93796667"><ele>104.0</ele><time>2016-06-18T10:52:43.310Z</time></trkpt><trkpt lat="58.81035833" lon="14.93796667"><ele>104.0</ele><time>2016-06-18T10:52:44.318Z</time></trkpt><trkpt lat="58.81035833" lon="14.93796667"><ele>104.0</ele><time>2016-06-18T10:52:45.314Z</time></trkpt><trkpt lat="58.81035833" lon="14.93796667"><ele>104.0</ele><time>2016-06-18T10:52:46.316Z</time></trkpt><trkpt lat="58.81035833" lon="14.93796667"><ele>104.0</ele><time>2016-06-18T10:52:47.308Z</time></trkpt><trkpt lat="58.81035833" lon="14.93796667"><ele>104.0</ele><time>2016-06-18T10:52:48.321Z</time></trkpt><trkpt lat="58.81035833" lon="14.93796667"><ele>104.0</ele><time>2016-06-18T10:52:49.313Z</time></trkpt><trkpt lat="58.81035833" lon="14.93796667"><ele>104.0</ele><time>2016-06-18T10:52:50.313Z</time></trkpt><trkpt lat="58.81035833" lon="14.93796667"><ele>104.0</ele><time>2016-06-18T10:52:51.313Z</time></trkpt><trkpt lat="58.81035833" lon="14.93796667"><ele>104.0</ele><time>2016-06-18T10:52:52.313Z</time></trkpt><trkpt lat="58.81035833" lon="14.93796667"><ele>104.0</ele><time>2016-06-18T10:52:53.293Z</time></trkpt><trkpt lat="58.81035833" lon="14.93796667"><ele>104.0</ele><time>2016-06-18T10:52:54.286Z</time></trkpt><trkpt lat="58.81035833" lon="14.93796667"><ele>104.0</ele><time>2016-06-18T10:52:55.321Z</time></trkpt><trkpt lat="58.81035833" lon="14.93796667"><ele>104.0</ele><time>2016-06-18T10:52:56.315Z</time></trkpt><trkpt lat="58.81035833" lon="14.93796667"><ele>104.0</ele><time>2016-06-18T10:52:57.309Z</time></trkpt><trkpt lat="58.81035833" lon="14.93796667"><ele>104.0</ele><time>2016-06-18T10:52:58.313Z</time></trkpt><trkpt lat="58.81035833" lon="14.93796667"><ele>104.0</ele><time>2016-06-18T10:52:59.309Z</time></trkpt><trkpt lat="58.81035833" lon="14.93796667"><ele>104.0</ele><time>2016-06-18T10:53:00.303Z</time></trkpt><trkpt lat="58.81035833" lon="14.93796667"><ele>104.0</ele><time>2016-06-18T10:53:01.313Z</time></trkpt><trkpt lat="58.81035833" lon="14.93796667"><ele>104.0</ele><time>2016-06-18T10:53:02.314Z</time></trkpt><trkpt lat="58.81035833" lon="14.93796667"><ele>104.0</ele><time>2016-06-18T10:53:03.294Z</time></trkpt><trkpt lat="58.81035833" lon="14.93796667"><ele>104.0</ele><time>2016-06-18T10:53:04.320Z</time></trkpt><trkpt lat="58.81035833" lon="14.93796667"><ele>104.0</ele><time>2016-06-18T10:53:05.315Z</time></trkpt><trkpt lat="58.81035833" lon="14.93796667"><ele>104.0</ele><time>2016-06-18T10:53:06.310Z</time></trkpt><trkpt lat="58.81035833" lon="14.93796667"><ele>104.0</ele><time>2016-06-18T10:53:07.313Z</time></trkpt><trkpt lat="58.81035833" lon="14.93796667"><ele>104.0</ele><time>2016-06-18T10:53:08.315Z</time></trkpt><trkpt lat="58.81035833" lon="14.93796667"><ele>104.0</ele><time>2016-06-18T10:53:09.310Z</time></trkpt><trkpt lat="58.81035833" lon="14.93796667"><ele>104.0</ele><time>2016-06-18T10:53:10.313Z</time></trkpt><trkpt lat="58.81035833" lon="14.93796667"><ele>104.0</ele><time>2016-06-18T10:53:11.368Z</time></trkpt><trkpt lat="58.81035833" lon="14.93796667"><ele>104.0</ele><time>2016-06-18T10:53:12.290Z</time></trkpt><trkpt lat="58.81035833" lon="14.93796667"><ele>104.0</ele><time>2016-06-18T10:53:13.311Z</time></trkpt><trkpt lat="58.81035833" lon="14.93796667"><ele>104.0</ele><time>2016-06-18T10:53:14.319Z</time></trkpt><trkpt lat="58.81035833" lon="14.93796667"><ele>104.0</ele><time>2016-06-18T10:53:15.286Z</time></trkpt><trkpt lat="58.81035833" lon="14.93796667"><ele>104.0</ele><time>2016-06-18T10:53:16.292Z</time></trkpt><trkpt lat="58.81035833" lon="14.93796667"><ele>104.0</ele><time>2016-06-18T10:53:17.319Z</time></trkpt><trkpt lat="58.81035833" lon="14.93796667"><ele>104.0</ele><time>2016-06-18T10:53:18.286Z</time></trkpt><trkpt lat="58.81035833" lon="14.93796667"><ele>104.0</ele><time>2016-06-18T10:53:19.313Z</time></trkpt><trkpt lat="58.81035833" lon="14.93796667"><ele>104.0</ele><time>2016-06-18T10:53:20.315Z</time></trkpt><trkpt lat="58.81035833" lon="14.93796667"><ele>104.0</ele><time>2016-06-18T10:53:21.309Z</time></trkpt><trkpt lat="58.81035833" lon="14.93796667"><ele>104.0</ele><time>2016-06-18T10:53:22.313Z</time></trkpt><trkpt lat="58.81035833" lon="14.93796667"><ele>104.0</ele><time>2016-06-18T10:53:23.312Z</time></trkpt><trkpt lat="58.81035833" lon="14.93796667"><ele>104.0</ele><time>2016-06-18T10:53:24.309Z</time></trkpt><trkpt lat="58.81035833" lon="14.93796667"><ele>104.0</ele><time>2016-06-18T10:53:25.313Z</time></trkpt><trkpt lat="58.81035833" lon="14.93796667"><ele>104.0</ele><time>2016-06-18T10:53:26.314Z</time></trkpt><trkpt lat="58.81035833" lon="14.93796667"><ele>104.0</ele><time>2016-06-18T10:53:27.309Z</time></trkpt><trkpt lat="58.81035833" lon="14.93796667"><ele>104.0</ele><time>2016-06-18T10:53:28.312Z</time></trkpt><trkpt lat="58.81035833" lon="14.93796667"><ele>104.0</ele><time>2016-06-18T10:53:29.309Z</time></trkpt><trkpt lat="58.81035833" lon="14.93796667"><ele>104.0</ele><time>2016-06-18T10:53:30.313Z</time></trkpt><trkpt lat="58.81035833" lon="14.93796667"><ele>104.0</ele><time>2016-06-18T10:53:31.309Z</time></trkpt><trkpt lat="58.81035833" lon="14.93796667"><ele>104.0</ele><time>2016-06-18T10:53:32.315Z</time></trkpt><trkpt lat="58.81035833" lon="14.93796667"><ele>104.0</ele><time>2016-06-18T10:53:33.292Z</time></trkpt><trkpt lat="58.81035833" lon="14.93796667"><ele>104.0</ele><time>2016-06-18T10:53:34.316Z</time></trkpt><trkpt lat="58.81035833" lon="14.93796667"><ele>104.0</ele><time>2016-06-18T10:53:35.313Z</time></trkpt><trkpt lat="58.81035833" lon="14.93796667"><ele>104.0</ele><time>2016-06-18T10:53:36.309Z</time></trkpt><trkpt lat="58.81035833" lon="14.93796667"><ele>104.0</ele><time>2016-06-18T10:53:37.313Z</time></trkpt><trkpt lat="58.81035833" lon="14.93796667"><ele>104.0</ele><time>2016-06-18T10:53:38.313Z</time></trkpt><trkpt lat="58.81035833" lon="14.93796667"><ele>104.0</ele><time>2016-06-18T10:53:39.309Z</time></trkpt><trkpt lat="58.81035833" lon="14.93796667"><ele>104.0</ele><time>2016-06-18T10:53:40.314Z</time></trkpt><trkpt lat="58.81035833" lon="14.93796667"><ele>104.0</ele><time>2016-06-18T10:53:41.309Z</time></trkpt><trkpt lat="58.81035833" lon="14.93796667"><ele>104.0</ele><time>2016-06-18T10:53:42.313Z</time></trkpt><trkpt lat="58.81035833" lon="14.93796667"><ele>104.0</ele><time>2016-06-18T10:53:43.292Z</time></trkpt><trkpt lat="58.81035833" lon="14.93796667"><ele>104.0</ele><time>2016-06-18T10:53:44.314Z</time></trkpt><trkpt lat="58.81035833" lon="14.93796667"><ele>104.0</ele><time>2016-06-18T10:53:45.313Z</time></trkpt><trkpt lat="58.81035833" lon="14.93796667"><ele>104.0</ele><time>2016-06-18T10:53:46.313Z</time></trkpt><trkpt lat="58.81035833" lon="14.93796667"><ele>104.0</ele><time>2016-06-18T10:53:47.309Z</time></trkpt><trkpt lat="58.81035833" lon="14.93796667"><ele>104.0</ele><time>2016-06-18T10:53:48.314Z</time></trkpt><trkpt lat="58.81035833" lon="14.93796667"><ele>104.0</ele><time>2016-06-18T10:53:49.314Z</time></trkpt><trkpt lat="58.81035833" lon="14.93796667"><ele>104.0</ele><time>2016-06-18T10:53:50.313Z</time></trkpt><trkpt lat="58.81035833" lon="14.93796667"><ele>104.0</ele><time>2016-06-18T10:53:51.313Z</time></trkpt><trkpt lat="58.81035833" lon="14.93796667"><ele>104.0</ele><time>2016-06-18T10:53:52.313Z</time></trkpt><trkpt lat="58.81035833" lon="14.93796667"><ele>104.0</ele><time>2016-06-18T10:53:53.318Z</time></trkpt><trkpt lat="58.81035833" lon="14.93796667"><ele>104.0</ele><time>2016-06-18T10:53:54.309Z</time></trkpt><trkpt lat="58.81035833" lon="14.93796667"><ele>104.0</ele><time>2016-06-18T10:53:55.313Z</time></trkpt><trkpt lat="58.81035833" lon="14.93796667"><ele>104.0</ele><time>2016-06-18T10:53:56.316Z</time></trkpt><trkpt lat="58.81035833" lon="14.93796667"><ele>104.0</ele><time>2016-06-18T10:53:57.309Z</time></trkpt><trkpt lat="58.81035833" lon="14.93796667"><ele>104.0</ele><time>2016-06-18T10:53:58.317Z</time></trkpt><trkpt lat="58.81035833" lon="14.93796667"><ele>104.0</ele><time>2016-06-18T10:53:59.309Z</time></trkpt><trkpt lat="58.81035833" lon="14.93796667"><ele>104.0</ele><time>2016-06-18T10:54:00.309Z</time></trkpt><trkpt lat="58.81035833" lon="14.93796667"><ele>104.0</ele><time>2016-06-18T10:54:01.313Z</time></trkpt><trkpt lat="58.81035833" lon="14.93796667"><ele>104.0</ele><time>2016-06-18T10:54:02.316Z</time></trkpt><trkpt lat="58.81035833" lon="14.93796667"><ele>104.0</ele><time>2016-06-18T10:54:03.303Z</time></trkpt><trkpt lat="58.81035833" lon="14.93796667"><ele>104.0</ele><time>2016-06-18T10:54:04.282Z</time></trkpt><trkpt lat="58.81035833" lon="14.93796667"><ele>104.0</ele><time>2016-06-18T10:54:05.313Z</time></trkpt><trkpt lat="58.81035833" lon="14.93796667"><ele>104.0</ele><time>2016-06-18T10:54:06.309Z</time></trkpt><trkpt lat="58.81035833" lon="14.93796667"><ele>104.0</ele><time>2016-06-18T10:54:07.313Z</time></trkpt><trkpt lat="58.81035833" lon="14.93796667"><ele>104.0</ele><time>2016-06-18T10:54:08.316Z</time></trkpt><trkpt lat="58.81035833" lon="14.93796667"><ele>104.0</ele><time>2016-06-18T10:54:09.309Z</time></trkpt><trkpt lat="58.81035833" lon="14.93796667"><ele>104.0</ele><time>2016-06-18T10:54:10.311Z</time></trkpt><trkpt lat="58.81035833" lon="14.93796667"><ele>104.0</ele><time>2016-06-18T10:54:11.370Z</time></trkpt><trkpt lat="58.81035833" lon="14.93796667"><ele>104.0</ele><time>2016-06-18T10:54:12.308Z</time></trkpt><trkpt lat="58.81035833" lon="14.93796667"><ele>104.0</ele><time>2016-06-18T10:54:13.314Z</time></trkpt><trkpt lat="58.81035833" lon="14.93796667"><ele>104.0</ele><time>2016-06-18T10:54:14.321Z</time></trkpt><trkpt lat="58.81035833" lon="14.93796667"><ele>104.0</ele><time>2016-06-18T10:54:15.314Z</time></trkpt><trkpt lat="58.81035833" lon="14.93796667"><ele>104.0</ele><time>2016-06-18T10:54:16.313Z</time></trkpt><trkpt lat="58.81035833" lon="14.93796667"><ele>104.0</ele><time>2016-06-18T10:54:17.312Z</time></trkpt><trkpt lat="58.81035833" lon="14.93796667"><ele>104.0</ele><time>2016-06-18T10:54:18.313Z</time></trkpt><trkpt lat="58.81035833" lon="14.93796667"><ele>104.0</ele><time>2016-06-18T10:54:19.309Z</time></trkpt><trkpt lat="58.81035833" lon="14.93796667"><ele>104.0</ele><time>2016-06-18T10:54:20.315Z</time></trkpt><trkpt lat="58.81035833" lon="14.93796667"><ele>104.0</ele><time>2016-06-18T10:54:21.309Z</time></trkpt><trkpt lat="58.81035833" lon="14.93796667"><ele>104.0</ele><time>2016-06-18T10:54:22.313Z</time></trkpt><trkpt lat="58.81035833" lon="14.93796667"><ele>104.0</ele><time>2016-06-18T10:54:23.293Z</time></trkpt><trkpt lat="58.81035833" lon="14.93796667"><ele>104.0</ele><time>2016-06-18T10:54:24.316Z</time></trkpt><trkpt lat="58.81035833" lon="14.93796667"><ele>104.0</ele><time>2016-06-18T10:54:25.309Z</time></trkpt><trkpt lat="58.81035833" lon="14.93796667"><ele>104.0</ele><time>2016-06-18T10:54:26.315Z</time></trkpt><trkpt lat="58.81035833" lon="14.93796667"><ele>104.0</ele><time>2016-06-18T10:54:27.311Z</time></trkpt><trkpt lat="58.81035833" lon="14.93796667"><ele>104.0</ele><time>2016-06-18T10:54:28.314Z</time></trkpt><trkpt lat="58.81035833" lon="14.93796667"><ele>104.0</ele><time>2016-06-18T10:54:29.310Z</time></trkpt><trkpt lat="58.81035833" lon="14.93796667"><ele>104.0</ele><time>2016-06-18T10:54:30.313Z</time></trkpt><trkpt lat="58.81035833" lon="14.93796667"><ele>104.0</ele><time>2016-06-18T10:54:31.311Z</time></trkpt><trkpt lat="58.81035833" lon="14.93796667"><ele>104.0</ele><time>2016-06-18T10:54:32.316Z</time></trkpt><trkpt lat="58.81035833" lon="14.93796667"><ele>104.0</ele><time>2016-06-18T10:54:33.311Z</time></trkpt><trkpt lat="58.81035833" lon="14.93796667"><ele>104.0</ele><time>2016-06-18T10:54:34.311Z</time></trkpt><trkpt lat="58.81035833" lon="14.93796667"><ele>104.0</ele><time>2016-06-18T10:54:35.311Z</time></trkpt><trkpt lat="58.81035833" lon="14.93796667"><ele>104.0</ele><time>2016-06-18T10:54:36.313Z</time></trkpt><trkpt lat="58.81035833" lon="14.93796667"><ele>104.0</ele><time>2016-06-18T10:54:37.311Z</time></trkpt><trkpt lat="58.81035833" lon="14.93796667"><ele>104.0</ele><time>2016-06-18T10:54:38.290Z</time></trkpt><trkpt lat="58.81035833" lon="14.93796667"><ele>104.0</ele><time>2016-06-18T10:54:39.314Z</time></trkpt><trkpt lat="58.81035833" lon="14.93796667"><ele>104.0</ele><time>2016-06-18T10:54:40.309Z</time></trkpt><trkpt lat="58.81035833" lon="14.93796667"><ele>104.0</ele><time>2016-06-18T10:54:41.313Z</time></trkpt><trkpt lat="58.81035833" lon="14.93796667"><ele>104.0</ele><time>2016-06-18T10:54:42.311Z</time></trkpt><trkpt lat="58.81035833" lon="14.93796667"><ele>104.0</ele><time>2016-06-18T10:54:43.291Z</time></trkpt><trkpt lat="58.81035833" lon="14.93796667"><ele>104.0</ele><time>2016-06-18T10:54:44.316Z</time></trkpt><trkpt lat="58.81035833" lon="14.93796667"><ele>104.0</ele><time>2016-06-18T10:54:45.314Z</time></trkpt><trkpt lat="58.81035833" lon="14.93796667"><ele>104.0</ele><time>2016-06-18T10:54:46.313Z</time></trkpt><trkpt lat="58.81035833" lon="14.93796667"><ele>104.0</ele><time>2016-06-18T10:54:47.310Z</time></trkpt><trkpt lat="58.81035833" lon="14.93796667"><ele>104.0</ele><time>2016-06-18T10:54:48.315Z</time></trkpt><trkpt lat="58.81035833" lon="14.93796667"><ele>104.0</ele><time>2016-06-18T10:54:49.312Z</time></trkpt><trkpt lat="58.81035833" lon="14.93796667"><ele>104.0</ele><time>2016-06-18T10:54:50.315Z</time></trkpt><trkpt lat="58.81035833" lon="14.93796667"><ele>104.0</ele><time>2016-06-18T10:54:51.311Z</time></trkpt><trkpt lat="58.81035833" lon="14.93796667"><ele>104.0</ele><time>2016-06-18T10:54:52.314Z</time></trkpt><trkpt lat="58.81035833" lon="14.93796667"><ele>104.0</ele><time>2016-06-18T10:54:53.291Z</time></trkpt><trkpt lat="58.81035833" lon="14.93796667"><ele>104.0</ele><time>2016-06-18T10:54:54.316Z</time></trkpt><trkpt lat="58.81035833" lon="14.93796667"><ele>104.0</ele><time>2016-06-18T10:54:55.313Z</time></trkpt><trkpt lat="58.81035833" lon="14.93796667"><ele>104.0</ele><time>2016-06-18T10:54:56.295Z</time></trkpt><trkpt lat="58.81035833" lon="14.93796667"><ele>104.0</ele><time>2016-06-18T10:54:57.321Z</time></trkpt><trkpt lat="58.81035833" lon="14.93796667"><ele>104.0</ele><time>2016-06-18T10:54:58.312Z</time></trkpt><trkpt lat="58.81035833" lon="14.93796667"><ele>104.0</ele><time>2016-06-18T10:54:59.313Z</time></trkpt><trkpt lat="58.81035833" lon="14.93796667"><ele>104.0</ele><time>2016-06-18T10:55:00.301Z</time></trkpt><trkpt lat="58.81035833" lon="14.93796667"><ele>104.0</ele><time>2016-06-18T10:55:01.288Z</time></trkpt><trkpt lat="58.81035833" lon="14.93796667"><ele>104.0</ele><time>2016-06-18T10:55:02.313Z</time></trkpt><trkpt lat="58.81035833" lon="14.93796667"><ele>104.0</ele><time>2016-06-18T10:55:03.292Z</time></trkpt><trkpt lat="58.81035833" lon="14.93796667"><ele>104.0</ele><time>2016-06-18T10:55:04.316Z</time></trkpt><trkpt lat="58.81035833" lon="14.93796667"><ele>104.0</ele><time>2016-06-18T10:55:05.312Z</time></trkpt><trkpt lat="58.81035833" lon="14.93796667"><ele>104.0</ele><time>2016-06-18T10:55:06.321Z</time></trkpt><trkpt lat="58.81035833" lon="14.93796667"><ele>104.0</ele><time>2016-06-18T10:55:07.313Z</time></trkpt><trkpt lat="58.81035833" lon="14.93796667"><ele>104.0</ele><time>2016-06-18T10:55:08.314Z</time></trkpt><trkpt lat="58.81035833" lon="14.93796667"><ele>104.0</ele><time>2016-06-18T10:55:09.310Z</time></trkpt><trkpt lat="58.81035833" lon="14.93796667"><ele>104.0</ele><time>2016-06-18T10:55:10.313Z</time></trkpt><trkpt lat="58.81035833" lon="14.93796667"><ele>104.0</ele><time>2016-06-18T10:55:11.308Z</time></trkpt><trkpt lat="58.81035833" lon="14.93796667"><ele>104.0</ele><time>2016-06-18T10:55:12.311Z</time></trkpt><trkpt lat="58.81035833" lon="14.93796667"><ele>104.0</ele><time>2016-06-18T10:55:13.317Z</time></trkpt><trkpt lat="58.81035833" lon="14.93796667"><ele>104.0</ele><time>2016-06-18T10:55:14.283Z</time></trkpt><trkpt lat="58.81035833" lon="14.93796667"><ele>104.0</ele><time>2016-06-18T10:55:15.290Z</time></trkpt><trkpt lat="58.81035833" lon="14.93796667"><ele>104.0</ele><time>2016-06-18T10:55:16.324Z</time></trkpt><trkpt lat="58.81035833" lon="14.93796667"><ele>104.0</ele><time>2016-06-18T10:55:17.288Z</time></trkpt><trkpt lat="58.81035833" lon="14.93796667"><ele>104.0</ele><time>2016-06-18T10:55:18.286Z</time></trkpt><trkpt lat="58.81035833" lon="14.93796667"><ele>104.0</ele><time>2016-06-18T10:55:19.312Z</time></trkpt><trkpt lat="58.81035833" lon="14.93796667"><ele>104.0</ele><time>2016-06-18T10:55:20.315Z</time></trkpt><trkpt lat="58.81035833" lon="14.93796667"><ele>104.0</ele><time>2016-06-18T10:55:21.309Z</time></trkpt><trkpt lat="58.81035833" lon="14.93796667"><ele>104.0</ele><time>2016-06-18T10:55:22.314Z</time></trkpt><trkpt lat="58.81035833" lon="14.93796667"><ele>104.0</ele><time>2016-06-18T10:55:23.314Z</time></trkpt><trkpt lat="58.81035833" lon="14.93796667"><ele>104.0</ele><time>2016-06-18T10:55:24.310Z</time></trkpt><trkpt lat="58.81035833" lon="14.93796667"><ele>104.0</ele><time>2016-06-18T10:55:25.314Z</time></trkpt><trkpt lat="58.81035833" lon="14.93796667"><ele>104.0</ele><time>2016-06-18T10:55:26.315Z</time></trkpt><trkpt lat="58.81035833" lon="14.93796667"><ele>104.0</ele><time>2016-06-18T10:55:27.306Z</time></trkpt><trkpt lat="58.81035833" lon="14.93796667"><ele>104.0</ele><time>2016-06-18T10:55:28.314Z</time></trkpt><trkpt lat="58.81035833" lon="14.93796667"><ele>104.0</ele><time>2016-06-18T10:55:29.310Z</time></trkpt><trkpt lat="58.81035833" lon="14.93796667"><ele>104.0</ele><time>2016-06-18T10:55:30.313Z</time></trkpt><trkpt lat="58.81035833" lon="14.93796667"><ele>104.0</ele><time>2016-06-18T10:55:31.311Z</time></trkpt><trkpt lat="58.81035833" lon="14.93796667"><ele>104.0</ele><time>2016-06-18T10:55:32.315Z</time></trkpt><trkpt lat="58.81035833" lon="14.93796667"><ele>104.0</ele><time>2016-06-18T10:55:33.295Z</time></trkpt><trkpt lat="58.81035833" lon="14.93796667"><ele>104.0</ele><time>2016-06-18T10:55:34.283Z</time></trkpt><trkpt lat="58.81035833" lon="14.93796667"><ele>104.0</ele><time>2016-06-18T10:55:35.314Z</time></trkpt><trkpt lat="58.81035833" lon="14.93796667"><ele>104.0</ele><time>2016-06-18T10:55:36.310Z</time></trkpt><trkpt lat="58.81035833" lon="14.93796667"><ele>104.0</ele><time>2016-06-18T10:55:37.313Z</time></trkpt><trkpt lat="58.81035833" lon="14.93796667"><ele>104.0</ele><time>2016-06-18T10:55:38.314Z</time></trkpt><trkpt lat="58.81035833" lon="14.93796667"><ele>104.0</ele><time>2016-06-18T10:55:39.310Z</time></trkpt><trkpt lat="58.81035833" lon="14.93796667"><ele>104.0</ele><time>2016-06-18T10:55:40.314Z</time></trkpt><trkpt lat="58.81035833" lon="14.93796667"><ele>104.0</ele><time>2016-06-18T10:55:41.310Z</time></trkpt><trkpt lat="58.81035833" lon="14.93796667"><ele>104.0</ele><time>2016-06-18T10:55:42.313Z</time></trkpt><trkpt lat="58.81035833" lon="14.93796667"><ele>104.0</ele><time>2016-06-18T10:55:43.294Z</time></trkpt><trkpt lat="58.81035833" lon="14.93796667"><ele>104.0</ele><time>2016-06-18T10:55:44.320Z</time></trkpt><trkpt lat="58.81035833" lon="14.93796667"><ele>104.0</ele><time>2016-06-18T10:55:45.314Z</time></trkpt><trkpt lat="58.81035833" lon="14.93796667"><ele>104.0</ele><time>2016-06-18T10:55:46.310Z</time></trkpt><trkpt lat="58.81035833" lon="14.93796667"><ele>104.0</ele><time>2016-06-18T10:55:47.313Z</time></trkpt><trkpt lat="58.81035833" lon="14.93796667"><ele>104.0</ele><time>2016-06-18T10:55:48.310Z</time></trkpt><trkpt lat="58.81035833" lon="14.93796667"><ele>104.0</ele><time>2016-06-18T10:55:49.315Z</time></trkpt><trkpt lat="58.81035833" lon="14.93796667"><ele>104.0</ele><time>2016-06-18T10:55:50.313Z</time></trkpt><trkpt lat="58.81035833" lon="14.93796667"><ele>104.0</ele><time>2016-06-18T10:55:51.311Z</time></trkpt><trkpt lat="58.81035833" lon="14.93796667"><ele>104.0</ele><time>2016-06-18T10:55:52.314Z</time></trkpt><trkpt lat="58.81035833" lon="14.93796667"><ele>104.0</ele><time>2016-06-18T10:55:53.292Z</time></trkpt><trkpt lat="58.81035833" lon="14.93796667"><ele>104.0</ele><time>2016-06-18T10:55:54.318Z</time></trkpt><trkpt lat="58.81035833" lon="14.93796667"><ele>104.0</ele><time>2016-06-18T10:55:55.313Z</time></trkpt><trkpt lat="58.81035833" lon="14.93796667"><ele>104.0</ele><time>2016-06-18T10:55:56.316Z</time></trkpt><trkpt lat="58.81035833" lon="14.93796667"><ele>104.0</ele><time>2016-06-18T10:55:57.310Z</time></trkpt><trkpt lat="58.81035833" lon="14.93796667"><ele>104.0</ele><time>2016-06-18T10:55:58.314Z</time></trkpt><trkpt lat="58.81035833" lon="14.93796667"><ele>104.0</ele><time>2016-06-18T10:55:59.311Z</time></trkpt><trkpt lat="58.81035833" lon="14.93796667"><ele>104.0</ele><time>2016-06-18T10:56:00.296Z</time></trkpt><trkpt lat="58.81035833" lon="14.93796667"><ele>104.0</ele><time>2016-06-18T10:56:01.322Z</time></trkpt><trkpt lat="58.81035833" lon="14.93796667"><ele>104.0</ele><time>2016-06-18T10:56:02.313Z</time></trkpt><trkpt lat="58.81035833" lon="14.93796667"><ele>104.0</ele><time>2016-06-18T10:56:03.293Z</time></trkpt><trkpt lat="58.81035833" lon="14.93796667"><ele>104.0</ele><time>2016-06-18T10:56:04.320Z</time></trkpt><trkpt lat="58.81035833" lon="14.93796667"><ele>104.0</ele><time>2016-06-18T10:56:05.311Z</time></trkpt><trkpt lat="58.81035833" lon="14.93796667"><ele>104.0</ele><time>2016-06-18T10:56:06.310Z</time></trkpt><trkpt lat="58.81035833" lon="14.93796667"><ele>104.0</ele><time>2016-06-18T10:56:07.310Z</time></trkpt><trkpt lat="58.81035833" lon="14.93796667"><ele>104.0</ele><time>2016-06-18T10:56:08.315Z</time></trkpt><trkpt lat="58.81035833" lon="14.93796667"><ele>104.0</ele><time>2016-06-18T10:56:09.310Z</time></trkpt><trkpt lat="58.81035833" lon="14.93796667"><ele>104.0</ele><time>2016-06-18T10:56:10.313Z</time></trkpt><trkpt lat="58.81035833" lon="14.93796667"><ele>104.0</ele><time>2016-06-18T10:56:11.366Z</time></trkpt><trkpt lat="58.81035833" lon="14.93796667"><ele>104.0</ele><time>2016-06-18T10:56:12.321Z</time></trkpt><trkpt lat="58.81035833" lon="14.93796667"><ele>104.0</ele><time>2016-06-18T10:56:13.286Z</time></trkpt><trkpt lat="58.81035833" lon="14.93796667"><ele>104.0</ele><time>2016-06-18T10:56:14.315Z</time></trkpt><trkpt lat="58.81035833" lon="14.93796667"><ele>104.0</ele><time>2016-06-18T10:56:15.314Z</time></trkpt><trkpt lat="58.81035833" lon="14.93796667"><ele>104.0</ele><time>2016-06-18T10:56:16.310Z</time></trkpt><trkpt lat="58.81035833" lon="14.93796667"><ele>104.0</ele><time>2016-06-18T10:56:17.314Z</time></trkpt><trkpt lat="58.81035833" lon="14.93796667"><ele>104.0</ele><time>2016-06-18T10:56:18.311Z</time></trkpt><trkpt lat="58.81035833" lon="14.93796667"><ele>104.0</ele><time>2016-06-18T10:56:19.315Z</time></trkpt><trkpt lat="58.81035833" lon="14.93796667"><ele>104.0</ele><time>2016-06-18T10:56:20.313Z</time></trkpt><trkpt lat="58.81035833" lon="14.93796667"><ele>104.0</ele><time>2016-06-18T10:56:21.313Z</time></trkpt><trkpt lat="58.81035833" lon="14.93796667"><ele>104.0</ele><time>2016-06-18T10:56:22.311Z</time></trkpt><trkpt lat="58.81035833" lon="14.93796667"><ele>104.0</ele><time>2016-06-18T10:56:23.300Z</time></trkpt><trkpt lat="58.81035833" lon="14.93796667"><ele>104.0</ele><time>2016-06-18T10:56:24.288Z</time></trkpt><trkpt lat="58.81035833" lon="14.93796667"><ele>104.0</ele><time>2016-06-18T10:56:25.314Z</time></trkpt><trkpt lat="58.81035833" lon="14.93796667"><ele>104.0</ele><time>2016-06-18T10:56:26.309Z</time></trkpt><trkpt lat="58.81035833" lon="14.93796667"><ele>104.0</ele><time>2016-06-18T10:56:27.314Z</time></trkpt><trkpt lat="58.81035833" lon="14.93796667"><ele>104.0</ele><time>2016-06-18T10:56:28.321Z</time></trkpt><trkpt lat="58.81035833" lon="14.93796667"><ele>104.0</ele><time>2016-06-18T10:56:29.313Z</time></trkpt><trkpt lat="58.81035833" lon="14.93796667"><ele>104.0</ele><time>2016-06-18T10:56:30.311Z</time></trkpt><trkpt lat="58.81035833" lon="14.93796667"><ele>104.0</ele><time>2016-06-18T10:56:31.311Z</time></trkpt><trkpt lat="58.81035833" lon="14.93796667"><ele>104.0</ele><time>2016-06-18T10:56:32.315Z</time></trkpt><trkpt lat="58.81035833" lon="14.93796667"><ele>104.0</ele><time>2016-06-18T10:56:33.292Z</time></trkpt><trkpt lat="58.81035833" lon="14.93796667"><ele>104.0</ele><time>2016-06-18T10:56:34.318Z</time></trkpt><trkpt lat="58.81035833" lon="14.93796667"><ele>104.0</ele><time>2016-06-18T10:56:35.316Z</time></trkpt><trkpt lat="58.81035833" lon="14.93796667"><ele>104.0</ele><time>2016-06-18T10:56:36.286Z</time></trkpt><trkpt lat="58.81035833" lon="14.93796667"><ele>104.0</ele><time>2016-06-18T10:56:37.315Z</time></trkpt><trkpt lat="58.81035833" lon="14.93796667"><ele>104.0</ele><time>2016-06-18T10:56:38.315Z</time></trkpt><trkpt lat="58.81035833" lon="14.93796667"><ele>104.0</ele><time>2016-06-18T10:56:39.311Z</time></trkpt><trkpt lat="58.81035833" lon="14.93796667"><ele>104.0</ele><time>2016-06-18T10:56:40.314Z</time></trkpt><trkpt lat="58.81035833" lon="14.93796667"><ele>104.0</ele><time>2016-06-18T10:56:41.311Z</time></trkpt><trkpt lat="58.81035833" lon="14.93796667"><ele>104.0</ele><time>2016-06-18T10:56:42.314Z</time></trkpt><trkpt lat="58.81035833" lon="14.93796667"><ele>104.0</ele><time>2016-06-18T10:56:43.295Z</time></trkpt><trkpt lat="58.81035833" lon="14.93796667"><ele>104.0</ele><time>2016-06-18T10:56:44.282Z</time></trkpt><trkpt lat="58.81035833" lon="14.93796667"><ele>104.0</ele><time>2016-06-18T10:56:45.315Z</time></trkpt><trkpt lat="58.81035833" lon="14.93796667"><ele>104.0</ele><time>2016-06-18T10:56:46.311Z</time></trkpt><trkpt lat="58.81035833" lon="14.93796667"><ele>104.0</ele><time>2016-06-18T10:56:47.290Z</time></trkpt><trkpt lat="58.81035833" lon="14.93796667"><ele>104.0</ele><time>2016-06-18T10:56:48.315Z</time></trkpt><trkpt lat="58.81035833" lon="14.93796667"><ele>104.0</ele><time>2016-06-18T10:56:49.313Z</time></trkpt><trkpt lat="58.81035833" lon="14.93796667"><ele>104.0</ele><time>2016-06-18T10:56:50.315Z</time></trkpt><trkpt lat="58.81035833" lon="14.93796667"><ele>104.0</ele><time>2016-06-18T10:56:51.315Z</time></trkpt><trkpt lat="58.81035833" lon="14.93796667"><ele>104.0</ele><time>2016-06-18T10:56:52.311Z</time></trkpt><trkpt lat="58.81035833" lon="14.93796667"><ele>104.0</ele><time>2016-06-18T10:56:53.293Z</time></trkpt><trkpt lat="58.81035833" lon="14.93796667"><ele>104.0</ele><time>2016-06-18T10:56:54.319Z</time></trkpt><trkpt lat="58.81035833" lon="14.93796667"><ele>104.0</ele><time>2016-06-18T10:56:55.315Z</time></trkpt><trkpt lat="58.81035833" lon="14.93796667"><ele>104.0</ele><time>2016-06-18T10:56:56.312Z</time></trkpt><trkpt lat="58.81035833" lon="14.93796667"><ele>104.0</ele><time>2016-06-18T10:56:57.315Z</time></trkpt><trkpt lat="58.81035833" lon="14.93796667"><ele>104.0</ele><time>2016-06-18T10:56:58.314Z</time></trkpt><trkpt lat="58.81035833" lon="14.93796667"><ele>104.0</ele><time>2016-06-18T10:56:59.312Z</time></trkpt><trkpt lat="58.81035833" lon="14.93796667"><ele>104.0</ele><time>2016-06-18T10:57:00.315Z</time></trkpt><trkpt lat="58.81035833" lon="14.93796667"><ele>104.0</ele><time>2016-06-18T10:57:01.315Z</time></trkpt><trkpt lat="58.81035833" lon="14.93796667"><ele>104.0</ele><time>2016-06-18T10:57:02.313Z</time></trkpt><trkpt lat="58.81035833" lon="14.93796667"><ele>104.0</ele><time>2016-06-18T10:57:03.293Z</time></trkpt><trkpt lat="58.81035833" lon="14.93796667"><ele>104.0</ele><time>2016-06-18T10:57:04.319Z</time></trkpt><trkpt lat="58.81035833" lon="14.93796667"><ele>104.0</ele><time>2016-06-18T10:57:05.315Z</time></trkpt><trkpt lat="58.81035833" lon="14.93796667"><ele>104.0</ele><time>2016-06-18T10:57:06.314Z</time></trkpt><trkpt lat="58.81035833" lon="14.93796667"><ele>104.0</ele><time>2016-06-18T10:57:07.311Z</time></trkpt><trkpt lat="58.81035833" lon="14.93796667"><ele>104.0</ele><time>2016-06-18T10:57:08.315Z</time></trkpt><trkpt lat="58.81035833" lon="14.93796667"><ele>104.0</ele><time>2016-06-18T10:57:09.311Z</time></trkpt><trkpt lat="58.81035833" lon="14.93796667"><ele>104.0</ele><time>2016-06-18T10:57:10.311Z</time></trkpt><trkpt lat="58.81035833" lon="14.93796667"><ele>104.0</ele><time>2016-06-18T10:57:11.368Z</time></trkpt><trkpt lat="58.81035833" lon="14.93796667"><ele>104.0</ele><time>2016-06-18T10:57:12.301Z</time></trkpt><trkpt lat="58.81035833" lon="14.93796667"><ele>104.0</ele><time>2016-06-18T10:57:13.311Z</time></trkpt><trkpt lat="58.81035833" lon="14.93796667"><ele>104.0</ele><time>2016-06-18T10:57:14.319Z</time></trkpt><trkpt lat="58.81035833" lon="14.93796667"><ele>104.0</ele><time>2016-06-18T10:57:15.315Z</time></trkpt><trkpt lat="58.81035833" lon="14.93796667"><ele>104.0</ele><time>2016-06-18T10:57:16.311Z</time></trkpt><trkpt lat="58.81035833" lon="14.93796667"><ele>104.0</ele><time>2016-06-18T10:57:17.315Z</time></trkpt><trkpt lat="58.81035833" lon="14.93796667"><ele>104.0</ele><time>2016-06-18T10:57:18.314Z</time></trkpt><trkpt lat="58.81035833" lon="14.93796667"><ele>104.0</ele><time>2016-06-18T10:57:19.312Z</time></trkpt><trkpt lat="58.81035833" lon="14.93796667"><ele>104.0</ele><time>2016-06-18T10:57:20.315Z</time></trkpt><trkpt lat="58.81035833" lon="14.93796667"><ele>104.0</ele><time>2016-06-18T10:57:21.315Z</time></trkpt><trkpt lat="58.81035833" lon="14.93796667"><ele>104.0</ele><time>2016-06-18T10:57:22.311Z</time></trkpt><trkpt lat="58.81035833" lon="14.93796667"><ele>104.0</ele><time>2016-06-18T10:57:23.300Z</time></trkpt><trkpt lat="58.81035833" lon="14.93796667"><ele>104.0</ele><time>2016-06-18T10:57:24.288Z</time></trkpt><trkpt lat="58.81035833" lon="14.93796667"><ele>104.0</ele><time>2016-06-18T10:57:25.315Z</time></trkpt><trkpt lat="58.81035833" lon="14.93796667"><ele>104.0</ele><time>2016-06-18T10:57:26.311Z</time></trkpt><trkpt lat="58.81035833" lon="14.93796667"><ele>104.0</ele><time>2016-06-18T10:57:27.314Z</time></trkpt><trkpt lat="58.81035833" lon="14.93796667"><ele>104.0</ele><time>2016-06-18T10:57:28.316Z</time></trkpt><trkpt lat="58.81035833" lon="14.93796667"><ele>104.0</ele><time>2016-06-18T10:57:29.313Z</time></trkpt><trkpt lat="58.81035833" lon="14.93796667"><ele>104.0</ele><time>2016-06-18T10:57:30.314Z</time></trkpt><trkpt lat="58.81035833" lon="14.93796667"><ele>104.0</ele><time>2016-06-18T10:57:31.316Z</time></trkpt><trkpt lat="58.81035833" lon="14.93796667"><ele>104.0</ele><time>2016-06-18T10:57:32.313Z</time></trkpt><trkpt lat="58.81035833" lon="14.93796667"><ele>104.0</ele><time>2016-06-18T10:57:33.302Z</time></trkpt><trkpt lat="58.81035833" lon="14.93796667"><ele>104.0</ele><time>2016-06-18T10:57:34.288Z</time></trkpt><trkpt lat="58.81035833" lon="14.93796667"><ele>104.0</ele><time>2016-06-18T10:57:35.315Z</time></trkpt><trkpt lat="58.81035833" lon="14.93796667"><ele>104.0</ele><time>2016-06-18T10:57:36.313Z</time></trkpt><trkpt lat="58.81035833" lon="14.93796667"><ele>104.0</ele><time>2016-06-18T10:57:37.315Z</time></trkpt><trkpt lat="58.81035833" lon="14.93796667"><ele>104.0</ele><time>2016-06-18T10:57:38.315Z</time></trkpt><trkpt lat="58.81035833" lon="14.93796667"><ele>104.0</ele><time>2016-06-18T10:57:39.312Z</time></trkpt><trkpt lat="58.81035833" lon="14.93796667"><ele>104.0</ele><time>2016-06-18T10:57:40.321Z</time></trkpt><trkpt lat="58.81035833" lon="14.93796667"><ele>104.0</ele><time>2016-06-18T10:57:41.314Z</time></trkpt><trkpt lat="58.81035833" lon="14.93796667"><ele>104.0</ele><time>2016-06-18T10:57:42.313Z</time></trkpt><trkpt lat="58.81035833" lon="14.93796667"><ele>104.0</ele><time>2016-06-18T10:57:43.302Z</time></trkpt><trkpt lat="58.81035833" lon="14.93796667"><ele>104.0</ele><time>2016-06-18T10:57:44.288Z</time></trkpt><trkpt lat="58.81035833" lon="14.93796667"><ele>104.0</ele><time>2016-06-18T10:57:45.318Z</time></trkpt><trkpt lat="58.81035833" lon="14.93796667"><ele>104.0</ele><time>2016-06-18T10:57:46.311Z</time></trkpt><trkpt lat="58.81035833" lon="14.93796667"><ele>104.0</ele><time>2016-06-18T10:57:47.315Z</time></trkpt><trkpt lat="58.81035833" lon="14.93796667"><ele>104.0</ele><time>2016-06-18T10:57:48.313Z</time></trkpt><trkpt lat="58.81035833" lon="14.93796667"><ele>104.0</ele><time>2016-06-18T10:57:49.312Z</time></trkpt><trkpt lat="58.81035833" lon="14.93796667"><ele>104.0</ele><time>2016-06-18T10:57:50.312Z</time></trkpt><trkpt lat="58.81035833" lon="14.93796667"><ele>104.0</ele><time>2016-06-18T10:57:51.315Z</time></trkpt><trkpt lat="58.81035833" lon="14.93796667"><ele>104.0</ele><time>2016-06-18T10:57:52.312Z</time></trkpt><trkpt lat="58.81035833" lon="14.93796667"><ele>104.0</ele><time>2016-06-18T10:57:53.299Z</time></trkpt><trkpt lat="58.81035833" lon="14.93796667"><ele>104.0</ele><time>2016-06-18T10:57:54.288Z</time></trkpt><trkpt lat="58.81035833" lon="14.93796667"><ele>104.0</ele><time>2016-06-18T10:57:55.314Z</time></trkpt><trkpt lat="58.81035833" lon="14.93796667"><ele>104.0</ele><time>2016-06-18T10:57:56.317Z</time></trkpt><trkpt lat="58.81035833" lon="14.93796667"><ele>104.0</ele><time>2016-06-18T10:57:57.312Z</time></trkpt><trkpt lat="58.81035833" lon="14.93796667"><ele>104.0</ele><time>2016-06-18T10:57:58.314Z</time></trkpt><trkpt lat="58.81035833" lon="14.93796667"><ele>104.0</ele><time>2016-06-18T10:57:59.315Z</time></trkpt><trkpt lat="58.81035833" lon="14.93796667"><ele>104.0</ele><time>2016-06-18T10:58:00.304Z</time></trkpt><trkpt lat="58.81035833" lon="14.93796667"><ele>104.0</ele><time>2016-06-18T10:58:01.289Z</time></trkpt><trkpt lat="58.81035833" lon="14.93796667"><ele>104.0</ele><time>2016-06-18T10:58:02.315Z</time></trkpt><trkpt lat="58.81035833" lon="14.93796667"><ele>104.0</ele><time>2016-06-18T10:58:03.282Z</time></trkpt><trkpt lat="58.81035833" lon="14.93796667"><ele>104.0</ele><time>2016-06-18T10:58:04.311Z</time></trkpt><trkpt lat="58.81035833" lon="14.93796667"><ele>104.0</ele><time>2016-06-18T10:58:05.313Z</time></trkpt><trkpt lat="58.81035833" lon="14.93796667"><ele>104.0</ele><time>2016-06-18T10:58:06.312Z</time></trkpt><trkpt lat="58.81035833" lon="14.93796667"><ele>104.0</ele><time>2016-06-18T10:58:07.314Z</time></trkpt><trkpt lat="58.81035833" lon="14.93796667"><ele>104.0</ele><time>2016-06-18T10:58:08.317Z</time></trkpt><trkpt lat="58.81035833" lon="14.93796667"><ele>104.0</ele><time>2016-06-18T10:58:09.311Z</time></trkpt><trkpt lat="58.81035833" lon="14.93796667"><ele>104.0</ele><time>2016-06-18T10:58:10.315Z</time></trkpt><trkpt lat="58.81035833" lon="14.93796667"><ele>104.0</ele><time>2016-06-18T10:58:11.372Z</time></trkpt><trkpt lat="58.81035833" lon="14.93796667"><ele>104.0</ele><time>2016-06-18T10:58:12.344Z</time></trkpt><trkpt lat="58.81035833" lon="14.93796667"><ele>104.0</ele><time>2016-06-18T10:58:13.289Z</time></trkpt><trkpt lat="58.81035833" lon="14.93796667"><ele>104.0</ele><time>2016-06-18T10:58:14.294Z</time></trkpt><trkpt lat="58.81035833" lon="14.93796667"><ele>104.0</ele><time>2016-06-18T10:58:15.315Z</time></trkpt><trkpt lat="58.81035833" lon="14.93796667"><ele>104.0</ele><time>2016-06-18T10:58:16.311Z</time></trkpt><trkpt lat="58.81035833" lon="14.93796667"><ele>104.0</ele><time>2016-06-18T10:58:17.312Z</time></trkpt><trkpt lat="58.81035833" lon="14.93796667"><ele>104.0</ele><time>2016-06-18T10:58:18.314Z</time></trkpt><trkpt lat="58.81035833" lon="14.93796667"><ele>104.0</ele><time>2016-06-18T10:58:19.312Z</time></trkpt><trkpt lat="58.81035833" lon="14.93796667"><ele>104.0</ele><time>2016-06-18T10:58:20.317Z</time></trkpt><trkpt lat="58.81035833" lon="14.93796667"><ele>104.0</ele><time>2016-06-18T10:58:21.311Z</time></trkpt><trkpt lat="58.81035833" lon="14.93796667"><ele>104.0</ele><time>2016-06-18T10:58:22.314Z</time></trkpt><trkpt lat="58.81035833" lon="14.93796667"><ele>104.0</ele><time>2016-06-18T10:58:23.301Z</time></trkpt><trkpt lat="58.81035833" lon="14.93796667"><ele>104.0</ele><time>2016-06-18T10:58:24.289Z</time></trkpt><trkpt lat="58.81035833" lon="14.93796667"><ele>104.0</ele><time>2016-06-18T10:58:25.315Z</time></trkpt><trkpt lat="58.81035833" lon="14.93796667"><ele>104.0</ele><time>2016-06-18T10:58:26.316Z</time></trkpt><trkpt lat="58.81035833" lon="14.93796667"><ele>104.0</ele><time>2016-06-18T10:58:27.310Z</time></trkpt><trkpt lat="58.81035833" lon="14.93796667"><ele>104.0</ele><time>2016-06-18T10:58:28.316Z</time></trkpt><trkpt lat="58.81035833" lon="14.93796667"><ele>104.0</ele><time>2016-06-18T10:58:29.312Z</time></trkpt><trkpt lat="58.81035833" lon="14.93796667"><ele>104.0</ele><time>2016-06-18T10:58:30.312Z</time></trkpt><trkpt lat="58.81035833" lon="14.93796667"><ele>104.0</ele><time>2016-06-18T10:58:31.316Z</time></trkpt><trkpt lat="58.81035833" lon="14.93796667"><ele>104.0</ele><time>2016-06-18T10:58:32.313Z</time></trkpt><trkpt lat="58.81035833" lon="14.93796667"><ele>104.0</ele><time>2016-06-18T10:58:33.314Z</time></trkpt><trkpt lat="58.81035833" lon="14.93796667"><ele>104.0</ele><time>2016-06-18T10:58:34.312Z</time></trkpt><trkpt lat="58.81035833" lon="14.93796667"><ele>104.0</ele><time>2016-06-18T10:58:35.315Z</time></trkpt><trkpt lat="58.81035833" lon="14.93796667"><ele>104.0</ele><time>2016-06-18T10:58:36.313Z</time></trkpt><trkpt lat="58.81035833" lon="14.93796667"><ele>104.0</ele><time>2016-06-18T10:58:37.315Z</time></trkpt><trkpt lat="58.81035833" lon="14.93796667"><ele>104.0</ele><time>2016-06-18T10:58:38.316Z</time></trkpt><trkpt lat="58.81035833" lon="14.93796667"><ele>104.0</ele><time>2016-06-18T10:58:39.311Z</time></trkpt><trkpt lat="58.81035833" lon="14.93796667"><ele>104.0</ele><time>2016-06-18T10:58:40.315Z</time></trkpt><trkpt lat="58.81035833" lon="14.93796667"><ele>104.0</ele><time>2016-06-18T10:58:41.312Z</time></trkpt><trkpt lat="58.81035833" lon="14.93796667"><ele>104.0</ele><time>2016-06-18T10:58:42.315Z</time></trkpt><trkpt lat="58.81035833" lon="14.93796667"><ele>104.0</ele><time>2016-06-18T10:58:43.296Z</time></trkpt><trkpt lat="58.81035833" lon="14.93796667"><ele>104.0</ele><time>2016-06-18T10:58:44.282Z</time></trkpt><trkpt lat="58.81035833" lon="14.93796667"><ele>104.0</ele><time>2016-06-18T10:58:45.315Z</time></trkpt><trkpt lat="58.81035833" lon="14.93796667"><ele>104.0</ele><time>2016-06-18T10:58:46.312Z</time></trkpt><trkpt lat="58.81035833" lon="14.93796667"><ele>104.0</ele><time>2016-06-18T10:58:47.315Z</time></trkpt><trkpt lat="58.81035833" lon="14.93796667"><ele>104.0</ele><time>2016-06-18T10:58:48.312Z</time></trkpt><trkpt lat="58.81035833" lon="14.93796667"><ele>104.0</ele><time>2016-06-18T10:58:49.314Z</time></trkpt><trkpt lat="58.81035833" lon="14.93796667"><ele>104.0</ele><time>2016-06-18T10:58:50.314Z</time></trkpt><trkpt lat="58.81035833" lon="14.93796667"><ele>104.0</ele><time>2016-06-18T10:58:51.315Z</time></trkpt><trkpt lat="58.81035833" lon="14.93796667"><ele>104.0</ele><time>2016-06-18T10:58:52.310Z</time></trkpt><trkpt lat="58.81035833" lon="14.93796667"><ele>104.0</ele><time>2016-06-18T10:58:53.295Z</time></trkpt><trkpt lat="58.81035833" lon="14.93796667"><ele>104.0</ele><time>2016-06-18T10:58:54.321Z</time></trkpt><trkpt lat="58.81035833" lon="14.93796667"><ele>104.0</ele><time>2016-06-18T10:58:55.315Z</time></trkpt><trkpt lat="58.81035833" lon="14.93796667"><ele>104.0</ele><time>2016-06-18T10:58:56.316Z</time></trkpt><trkpt lat="58.81035833" lon="14.93796667"><ele>104.0</ele><time>2016-06-18T10:58:57.312Z</time></trkpt><trkpt lat="58.81035833" lon="14.93796667"><ele>104.0</ele><time>2016-06-18T10:58:58.314Z</time></trkpt><trkpt lat="58.81035833" lon="14.93796667"><ele>104.0</ele><time>2016-06-18T10:58:59.312Z</time></trkpt><trkpt lat="58.81035833" lon="14.93796667"><ele>104.0</ele><time>2016-06-18T10:59:00.284Z</time></trkpt><trkpt lat="58.81035833" lon="14.93796667"><ele>104.0</ele><time>2016-06-18T10:59:01.315Z</time></trkpt><trkpt lat="58.81035833" lon="14.93796667"><ele>104.0</ele><time>2016-06-18T10:59:02.314Z</time></trkpt><trkpt lat="58.81035833" lon="14.93796667"><ele>104.0</ele><time>2016-06-18T10:59:03.296Z</time></trkpt><trkpt lat="58.81035833" lon="14.93796667"><ele>104.0</ele><time>2016-06-18T10:59:04.282Z</time></trkpt><trkpt lat="58.81035833" lon="14.93796667"><ele>104.0</ele><time>2016-06-18T10:59:05.314Z</time></trkpt><trkpt lat="58.81035833" lon="14.93796667"><ele>104.0</ele><time>2016-06-18T10:59:06.313Z</time></trkpt><trkpt lat="58.81035833" lon="14.93796667"><ele>104.0</ele><time>2016-06-18T10:59:07.314Z</time></trkpt><trkpt lat="58.81035833" lon="14.93796667"><ele>104.0</ele><time>2016-06-18T10:59:08.318Z</time></trkpt><trkpt lat="58.81035833" lon="14.93796667"><ele>104.0</ele><time>2016-06-18T10:59:09.313Z</time></trkpt><trkpt lat="58.81035833" lon="14.93796667"><ele>104.0</ele><time>2016-06-18T10:59:10.312Z</time></trkpt><trkpt lat="58.81035833" lon="14.93796667"><ele>104.0</ele><time>2016-06-18T10:59:11.364Z</time></trkpt><trkpt lat="58.81035833" lon="14.93796667"><ele>104.0</ele><time>2016-06-18T10:59:12.312Z</time></trkpt><trkpt lat="58.81035833" lon="14.93796667"><ele>104.0</ele><time>2016-06-18T10:59:13.318Z</time></trkpt><trkpt lat="58.81035833" lon="14.93796667"><ele>104.0</ele><time>2016-06-18T10:59:14.285Z</time></trkpt><trkpt lat="58.81035833" lon="14.93796667"><ele>104.0</ele><time>2016-06-18T10:59:15.291Z</time></trkpt><trkpt lat="58.81035833" lon="14.93796667"><ele>104.0</ele><time>2016-06-18T10:59:16.306Z</time></trkpt><trkpt lat="58.81035833" lon="14.93796667"><ele>104.0</ele><time>2016-06-18T10:59:17.315Z</time></trkpt><trkpt lat="58.81035833" lon="14.93796667"><ele>104.0</ele><time>2016-06-18T10:59:18.314Z</time></trkpt><trkpt lat="58.81035833" lon="14.93796667"><ele>104.0</ele><time>2016-06-18T10:59:19.313Z</time></trkpt><trkpt lat="58.81035833" lon="14.93796667"><ele>104.0</ele><time>2016-06-18T10:59:20.316Z</time></trkpt><trkpt lat="58.81035833" lon="14.93796667"><ele>104.0</ele><time>2016-06-18T10:59:21.284Z</time></trkpt><trkpt lat="58.81035833" lon="14.93796667"><ele>104.0</ele><time>2016-06-18T10:59:22.315Z</time></trkpt><trkpt lat="58.81035833" lon="14.93796667"><ele>104.0</ele><time>2016-06-18T10:59:23.301Z</time></trkpt><trkpt lat="58.81035833" lon="14.93796667"><ele>104.0</ele><time>2016-06-18T10:59:24.289Z</time></trkpt><trkpt lat="58.81035833" lon="14.93796667"><ele>104.0</ele><time>2016-06-18T10:59:25.316Z</time></trkpt><trkpt lat="58.81035833" lon="14.93796667"><ele>104.0</ele><time>2016-06-18T10:59:26.317Z</time></trkpt><trkpt lat="58.81035833" lon="14.93796667"><ele>104.0</ele><time>2016-06-18T10:59:27.314Z</time></trkpt><trkpt lat="58.81035833" lon="14.93796667"><ele>104.0</ele><time>2016-06-18T10:59:28.313Z</time></trkpt><trkpt lat="58.81035833" lon="14.93796667"><ele>104.0</ele><time>2016-06-18T10:59:29.313Z</time></trkpt><trkpt lat="58.81035833" lon="14.93796667"><ele>104.0</ele><time>2016-06-18T10:59:30.314Z</time></trkpt><trkpt lat="58.81035833" lon="14.93796667"><ele>104.0</ele><time>2016-06-18T10:59:31.312Z</time></trkpt><trkpt lat="58.81035833" lon="14.93794333"><ele>96.0</ele><time>2016-06-18T10:59:32.316Z</time></trkpt><trkpt lat="58.81035667" lon="14.93794333"><ele>97.0</ele><time>2016-06-18T10:59:33.316Z</time></trkpt><trkpt lat="58.81035667" lon="14.93794333"><ele>97.0</ele><time>2016-06-18T10:59:34.312Z</time></trkpt><trkpt lat="58.81035667" lon="14.93794333"><ele>97.0</ele><time>2016-06-18T10:59:35.315Z</time></trkpt><trkpt lat="58.81035667" lon="14.93794333"><ele>97.0</ele><time>2016-06-18T10:59:36.316Z</time></trkpt><trkpt lat="58.81035667" lon="14.93794333"><ele>97.0</ele><time>2016-06-18T10:59:37.313Z</time></trkpt><trkpt lat="58.81035667" lon="14.93794333"><ele>97.0</ele><time>2016-06-18T10:59:38.317Z</time></trkpt><trkpt lat="58.81035667" lon="14.93794333"><ele>97.0</ele><time>2016-06-18T10:59:39.313Z</time></trkpt><trkpt lat="58.81035667" lon="14.93794333"><ele>97.0</ele><time>2016-06-18T10:59:40.316Z</time></trkpt><trkpt lat="58.81035667" lon="14.93794333"><ele>97.0</ele><time>2016-06-18T10:59:41.313Z</time></trkpt><trkpt lat="58.81035667" lon="14.93794333"><ele>97.0</ele><time>2016-06-18T10:59:42.316Z</time></trkpt><trkpt lat="58.81035667" lon="14.93794333"><ele>97.0</ele><time>2016-06-18T10:59:43.294Z</time></trkpt><trkpt lat="58.81035667" lon="14.93794333"><ele>97.0</ele><time>2016-06-18T10:59:44.285Z</time></trkpt><trkpt lat="58.81035667" lon="14.93794333"><ele>97.0</ele><time>2016-06-18T10:59:45.315Z</time></trkpt><trkpt lat="58.81035667" lon="14.93794333"><ele>97.0</ele><time>2016-06-18T10:59:46.316Z</time></trkpt><trkpt lat="58.81035667" lon="14.93794333"><ele>97.0</ele><time>2016-06-18T10:59:47.313Z</time></trkpt><trkpt lat="58.81035667" lon="14.93794333"><ele>97.0</ele><time>2016-06-18T10:59:48.315Z</time></trkpt><trkpt lat="58.81035667" lon="14.93794333"><ele>97.0</ele><time>2016-06-18T10:59:49.318Z</time></trkpt><trkpt lat="58.81035667" lon="14.93794333"><ele>97.0</ele><time>2016-06-18T10:59:50.317Z</time></trkpt><trkpt lat="58.81035667" lon="14.93794333"><ele>97.0</ele><time>2016-06-18T10:59:51.313Z</time></trkpt><trkpt lat="58.81035667" lon="14.93794333"><ele>97.0</ele><time>2016-06-18T10:59:52.316Z</time></trkpt><trkpt lat="58.81035667" lon="14.93794333"><ele>97.0</ele><time>2016-06-18T10:59:53.294Z</time></trkpt><trkpt lat="58.81035667" lon="14.93794333"><ele>97.0</ele><time>2016-06-18T10:59:54.320Z</time></trkpt><trkpt lat="58.81035667" lon="14.93794333"><ele>97.0</ele><time>2016-06-18T10:59:55.316Z</time></trkpt><trkpt lat="58.81035667" lon="14.93794333"><ele>97.0</ele><time>2016-06-18T10:59:56.317Z</time></trkpt><trkpt lat="58.81035667" lon="14.93794333"><ele>97.0</ele><time>2016-06-18T10:59:57.312Z</time></trkpt><trkpt lat="58.81035667" lon="14.93794333"><ele>97.0</ele><time>2016-06-18T10:59:58.316Z</time></trkpt><trkpt lat="58.81035667" lon="14.93794333"><ele>97.0</ele><time>2016-06-18T10:59:59.313Z</time></trkpt><trkpt lat="58.81035667" lon="14.93794333"><ele>97.0</ele><time>2016-06-18T11:00:00.299Z</time></trkpt><trkpt lat="58.81035667" lon="14.93794333"><ele>97.0</ele><time>2016-06-18T11:00:01.284Z</time></trkpt><trkpt lat="58.81035667" lon="14.93794333"><ele>97.0</ele><time>2016-06-18T11:00:02.316Z</time></trkpt><trkpt lat="58.81035667" lon="14.93794333"><ele>97.0</ele><time>2016-06-18T11:00:03.315Z</time></trkpt><trkpt lat="58.81035667" lon="14.93794333"><ele>97.0</ele><time>2016-06-18T11:00:04.312Z</time></trkpt><trkpt lat="58.81035667" lon="14.93794333"><ele>97.0</ele><time>2016-06-18T11:00:05.285Z</time></trkpt><trkpt lat="58.81035667" lon="14.93794333"><ele>97.0</ele><time>2016-06-18T11:00:06.313Z</time></trkpt><trkpt lat="58.81035667" lon="14.93794333"><ele>97.0</ele><time>2016-06-18T11:00:07.315Z</time></trkpt><trkpt lat="58.81035667" lon="14.93794333"><ele>97.0</ele><time>2016-06-18T11:00:08.313Z</time></trkpt><trkpt lat="58.81035667" lon="14.93794333"><ele>97.0</ele><time>2016-06-18T11:00:09.316Z</time></trkpt><trkpt lat="58.81035667" lon="14.93794333"><ele>97.0</ele><time>2016-06-18T11:00:10.314Z</time></trkpt><trkpt lat="58.81035667" lon="14.93794333"><ele>97.0</ele><time>2016-06-18T11:00:11.288Z</time></trkpt><trkpt lat="58.81035667" lon="14.93794333"><ele>97.0</ele><time>2016-06-18T11:00:12.296Z</time></trkpt><trkpt lat="58.81035667" lon="14.93794333"><ele>97.0</ele><time>2016-06-18T11:00:13.318Z</time></trkpt><trkpt lat="58.81035667" lon="14.93794333"><ele>97.0</ele><time>2016-06-18T11:00:14.289Z</time></trkpt><trkpt lat="58.81035667" lon="14.93794333"><ele>97.0</ele><time>2016-06-18T11:00:15.295Z</time></trkpt><trkpt lat="58.81035667" lon="14.93794333"><ele>97.0</ele><time>2016-06-18T11:00:16.303Z</time></trkpt><trkpt lat="58.81035667" lon="14.93794333"><ele>97.0</ele><time>2016-06-18T11:00:17.316Z</time></trkpt><trkpt lat="58.81035667" lon="14.93794333"><ele>97.0</ele><time>2016-06-18T11:00:18.320Z</time></trkpt><trkpt lat="58.81035667" lon="14.93794333"><ele>97.0</ele><time>2016-06-18T11:00:19.316Z</time></trkpt><trkpt lat="58.81035667" lon="14.93794333"><ele>97.0</ele><time>2016-06-18T11:00:20.291Z</time></trkpt><trkpt lat="58.81035667" lon="14.93794333"><ele>97.0</ele><time>2016-06-18T11:00:21.317Z</time></trkpt><trkpt lat="58.81035667" lon="14.93794333"><ele>97.0</ele><time>2016-06-18T11:00:22.316Z</time></trkpt><trkpt lat="58.81035667" lon="14.93794333"><ele>97.0</ele><time>2016-06-18T11:00:23.300Z</time></trkpt><trkpt lat="58.81035667" lon="14.93794333"><ele>97.0</ele><time>2016-06-18T11:00:24.290Z</time></trkpt><trkpt lat="58.81035667" lon="14.93794333"><ele>97.0</ele><time>2016-06-18T11:00:25.317Z</time></trkpt><trkpt lat="58.81035667" lon="14.93794333"><ele>97.0</ele><time>2016-06-18T11:00:26.314Z</time></trkpt><trkpt lat="58.81035667" lon="14.93794333"><ele>97.0</ele><time>2016-06-18T11:00:27.314Z</time></trkpt><trkpt lat="58.81035667" lon="14.93794333"><ele>97.0</ele><time>2016-06-18T11:00:28.318Z</time></trkpt><trkpt lat="58.81035667" lon="14.93794333"><ele>97.0</ele><time>2016-06-18T11:00:29.313Z</time></trkpt><trkpt lat="58.81035667" lon="14.93794333"><ele>97.0</ele><time>2016-06-18T11:00:30.316Z</time></trkpt><trkpt lat="58.81035667" lon="14.93794333"><ele>97.0</ele><time>2016-06-18T11:00:31.314Z</time></trkpt><trkpt lat="58.81035667" lon="14.93794333"><ele>97.0</ele><time>2016-06-18T11:00:32.316Z</time></trkpt><trkpt lat="58.81035667" lon="14.93794333"><ele>97.0</ele><time>2016-06-18T11:00:33.301Z</time></trkpt><trkpt lat="58.81035667" lon="14.93794333"><ele>97.0</ele><time>2016-06-18T11:00:34.290Z</time></trkpt><trkpt lat="58.81035667" lon="14.93794333"><ele>97.0</ele><time>2016-06-18T11:00:35.317Z</time></trkpt><trkpt lat="58.81035667" lon="14.93794333"><ele>97.0</ele><time>2016-06-18T11:00:36.318Z</time></trkpt><trkpt lat="58.81035667" lon="14.93794333"><ele>97.0</ele><time>2016-06-18T11:00:37.290Z</time></trkpt><trkpt lat="58.81035667" lon="14.93794333"><ele>97.0</ele><time>2016-06-18T11:00:38.283Z</time></trkpt><trkpt lat="58.81035667" lon="14.93794333"><ele>97.0</ele><time>2016-06-18T11:00:39.316Z</time></trkpt><trkpt lat="58.81035667" lon="14.93794333"><ele>97.0</ele><time>2016-06-18T11:00:40.316Z</time></trkpt><trkpt lat="58.81035667" lon="14.93794333"><ele>97.0</ele><time>2016-06-18T11:00:41.314Z</time></trkpt><trkpt lat="58.81035667" lon="14.93794333"><ele>97.0</ele><time>2016-06-18T11:00:42.321Z</time></trkpt><trkpt lat="58.81035667" lon="14.93794333"><ele>97.0</ele><time>2016-06-18T11:00:43.296Z</time></trkpt><trkpt lat="58.81035667" lon="14.93794333"><ele>97.0</ele><time>2016-06-18T11:00:44.286Z</time></trkpt><trkpt lat="58.81035667" lon="14.93794333"><ele>97.0</ele><time>2016-06-18T11:00:45.317Z</time></trkpt><trkpt lat="58.81035667" lon="14.93794333"><ele>97.0</ele><time>2016-06-18T11:00:46.317Z</time></trkpt><trkpt lat="58.81035667" lon="14.93794333"><ele>97.0</ele><time>2016-06-18T11:00:47.314Z</time></trkpt><trkpt lat="58.81035667" lon="14.93794333"><ele>97.0</ele><time>2016-06-18T11:00:48.326Z</time></trkpt><trkpt lat="58.81035667" lon="14.93794333"><ele>97.0</ele><time>2016-06-18T11:00:49.291Z</time></trkpt><trkpt lat="58.81033167" lon="14.93799333"><ele>101.0</ele><time>2016-06-18T11:00:50.306Z</time></trkpt><trkpt lat="58.81033167" lon="14.93799333"><ele>101.0</ele><time>2016-06-18T11:00:51.302Z</time></trkpt><trkpt lat="58.81033167" lon="14.93801167"><ele>101.0</ele><time>2016-06-18T11:00:52.310Z</time></trkpt><trkpt lat="58.81033167" lon="14.93801167"><ele>101.0</ele><time>2016-06-18T11:00:53.285Z</time></trkpt><trkpt lat="58.81033167" lon="14.93803833"><ele>101.0</ele><time>2016-06-18T11:00:54.285Z</time></trkpt><trkpt lat="58.81033167" lon="14.93803833"><ele>101.0</ele><time>2016-06-18T11:00:55.301Z</time></trkpt><trkpt lat="58.81033" lon="14.93809"><ele>101.0</ele><time>2016-06-18T11:00:56.309Z</time></trkpt><trkpt lat="58.81033" lon="14.93809"><ele>101.0</ele><time>2016-06-18T11:00:57.290Z</time></trkpt><trkpt lat="58.81031" lon="14.938165"><ele>102.0</ele><time>2016-06-18T11:00:58.297Z</time></trkpt><trkpt lat="58.81031" lon="14.938165"><ele>102.0</ele><time>2016-06-18T11:00:59.321Z</time></trkpt><trkpt lat="58.81028667" lon="14.93824167"><ele>102.0</ele><time>2016-06-18T11:01:00.317Z</time></trkpt><trkpt lat="58.810275" lon="14.93827333"><ele>102.0</ele><time>2016-06-18T11:01:01.317Z</time></trkpt><trkpt lat="58.81025833" lon="14.938295"><ele>102.0</ele><time>2016-06-18T11:01:02.300Z</time></trkpt><trkpt lat="58.81025833" lon="14.938295"><ele>102.0</ele><time>2016-06-18T11:01:03.286Z</time></trkpt><trkpt lat="58.81024333" lon="14.93833333"><ele>102.0</ele><time>2016-06-18T11:01:04.292Z</time></trkpt><trkpt lat="58.81024333" lon="14.93833333"><ele>102.0</ele><time>2016-06-18T11:01:05.315Z</time></trkpt><trkpt lat="58.81022667" lon="14.93837333"><ele>103.0</ele><time>2016-06-18T11:01:06.295Z</time></trkpt><trkpt lat="58.81022667" lon="14.93837333"><ele>103.0</ele><time>2016-06-18T11:01:07.290Z</time></trkpt><trkpt lat="58.81021667" lon="14.938415"><ele>103.0</ele><time>2016-06-18T11:01:08.297Z</time></trkpt><trkpt lat="58.81021667" lon="14.938435"><ele>103.0</ele><time>2016-06-18T11:01:09.319Z</time></trkpt><trkpt lat="58.81021667" lon="14.938435"><ele>103.0</ele><time>2016-06-18T11:01:10.303Z</time></trkpt><trkpt lat="58.810205" lon="14.93847167"><ele>104.0</ele><time>2016-06-18T11:01:11.374Z</time></trkpt><trkpt lat="58.8102" lon="14.93849167"><ele>104.0</ele><time>2016-06-18T11:01:12.309Z</time></trkpt><trkpt lat="58.8102" lon="14.93849167"><ele>104.0</ele><time>2016-06-18T11:01:13.315Z</time></trkpt><trkpt lat="58.81019" lon="14.93853667"><ele>104.0</ele><time>2016-06-18T11:01:14.282Z</time></trkpt><trkpt lat="58.81019" lon="14.93853667"><ele>104.0</ele><time>2016-06-18T11:01:15.306Z</time></trkpt><trkpt lat="58.81017833" lon="14.93858833"><ele>104.0</ele><time>2016-06-18T11:01:16.313Z</time></trkpt><trkpt lat="58.81017167" lon="14.93861167"><ele>104.0</ele><time>2016-06-18T11:01:17.300Z</time></trkpt><trkpt lat="58.81017167" lon="14.93861167"><ele>104.0</ele><time>2016-06-18T11:01:18.283Z</time></trkpt><trkpt lat="58.81016167" lon="14.93866333"><ele>104.0</ele><time>2016-06-18T11:01:19.319Z</time></trkpt><trkpt lat="58.81015333" lon="14.93868667"><ele>104.0</ele><time>2016-06-18T11:01:20.315Z</time></trkpt><trkpt lat="58.81015333" lon="14.93868667"><ele>104.0</ele><time>2016-06-18T11:01:21.282Z</time></trkpt><trkpt lat="58.81013667" lon="14.93873333"><ele>104.0</ele><time>2016-06-18T11:01:22.295Z</time></trkpt><trkpt lat="58.81012667" lon="14.93876167"><ele>104.0</ele><time>2016-06-18T11:01:23.325Z</time></trkpt><trkpt lat="58.81012667" lon="14.93876167"><ele>104.0</ele><time>2016-06-18T11:01:24.307Z</time></trkpt><trkpt lat="58.81010667" lon="14.93884167"><ele>103.0</ele><time>2016-06-18T11:01:25.313Z</time></trkpt><trkpt lat="58.81010167" lon="14.93888833"><ele>103.0</ele><time>2016-06-18T11:01:26.296Z</time></trkpt><trkpt lat="58.81010167" lon="14.93888833"><ele>103.0</ele><time>2016-06-18T11:01:27.282Z</time></trkpt><trkpt lat="58.81008667" lon="14.939"><ele>103.0</ele><time>2016-06-18T11:01:28.289Z</time></trkpt><trkpt lat="58.81007833" lon="14.93906"><ele>102.0</ele><time>2016-06-18T11:01:29.282Z</time></trkpt><trkpt lat="58.81007833" lon="14.93906"><ele>102.0</ele><time>2016-06-18T11:01:30.305Z</time></trkpt><trkpt lat="58.81008167" lon="14.93919667"><ele>102.0</ele><time>2016-06-18T11:01:31.312Z</time></trkpt><trkpt lat="58.810085" lon="14.93926667"><ele>102.0</ele><time>2016-06-18T11:01:32.324Z</time></trkpt><trkpt lat="58.81008333" lon="14.93934333"><ele>102.0</ele><time>2016-06-18T11:01:33.315Z</time></trkpt><trkpt lat="58.81008333" lon="14.93934333"><ele>102.0</ele><time>2016-06-18T11:01:34.301Z</time></trkpt><trkpt lat="58.81006" lon="14.93950667"><ele>102.0</ele><time>2016-06-18T11:01:35.308Z</time></trkpt><trkpt lat="58.81006" lon="14.93950667"><ele>102.0</ele><time>2016-06-18T11:01:36.291Z</time></trkpt><trkpt lat="58.81003167" lon="14.93967667"><ele>103.0</ele><time>2016-06-18T11:01:37.307Z</time></trkpt><trkpt lat="58.810025" lon="14.93977333"><ele>103.0</ele><time>2016-06-18T11:01:38.314Z</time></trkpt><trkpt lat="58.810025" lon="14.93977333"><ele>103.0</ele><time>2016-06-18T11:01:39.297Z</time></trkpt><trkpt lat="58.80998833" lon="14.93997333"><ele>103.0</ele><time>2016-06-18T11:01:40.308Z</time></trkpt><trkpt lat="58.80998833" lon="14.93997333"><ele>103.0</ele><time>2016-06-18T11:01:41.287Z</time></trkpt><trkpt lat="58.80993833" lon="14.94018667"><ele>104.0</ele><time>2016-06-18T11:01:42.294Z</time></trkpt><trkpt lat="58.80991" lon="14.9403"><ele>104.0</ele><time>2016-06-18T11:01:43.323Z</time></trkpt><trkpt lat="58.80991" lon="14.9403"><ele>104.0</ele><time>2016-06-18T11:01:44.306Z</time></trkpt><trkpt lat="58.80985" lon="14.94053333"><ele>103.0</ele><time>2016-06-18T11:01:45.318Z</time></trkpt><trkpt lat="58.80985" lon="14.94053333"><ele>103.0</ele><time>2016-06-18T11:01:46.313Z</time></trkpt><trkpt lat="58.80978833" lon="14.94078667"><ele>103.0</ele><time>2016-06-18T11:01:47.285Z</time></trkpt><trkpt lat="58.80978833" lon="14.94078667"><ele>103.0</ele><time>2016-06-18T11:01:48.282Z</time></trkpt><trkpt lat="58.80972167" lon="14.94104333"><ele>103.0</ele><time>2016-06-18T11:01:49.288Z</time></trkpt><trkpt lat="58.80968833" lon="14.941175"><ele>103.0</ele><time>2016-06-18T11:01:50.296Z</time></trkpt><trkpt lat="58.80968833" lon="14.941175"><ele>103.0</ele><time>2016-06-18T11:01:51.293Z</time></trkpt><trkpt lat="58.80961667" lon="14.94144"><ele>103.0</ele><time>2016-06-18T11:01:52.301Z</time></trkpt><trkpt lat="58.80958333" lon="14.94157167"><ele>103.0</ele><time>2016-06-18T11:01:53.300Z</time></trkpt><trkpt lat="58.80958333" lon="14.94157167"><ele>103.0</ele><time>2016-06-18T11:01:54.307Z</time></trkpt><trkpt lat="58.80951167" lon="14.94185"><ele>102.0</ele><time>2016-06-18T11:01:55.314Z</time></trkpt><trkpt lat="58.80951167" lon="14.94185"><ele>102.0</ele><time>2016-06-18T11:01:56.297Z</time></trkpt><trkpt lat="58.809435" lon="14.94214"><ele>102.0</ele><time>2016-06-18T11:01:57.296Z</time></trkpt><trkpt lat="58.809435" lon="14.94214"><ele>102.0</ele><time>2016-06-18T11:01:58.310Z</time></trkpt><trkpt lat="58.80936167" lon="14.94242167"><ele>102.0</ele><time>2016-06-18T11:01:59.316Z</time></trkpt><trkpt lat="58.80932333" lon="14.94256167"><ele>102.0</ele><time>2016-06-18T11:02:00.285Z</time></trkpt><trkpt lat="58.80932333" lon="14.94256167"><ele>102.0</ele><time>2016-06-18T11:02:01.299Z</time></trkpt><trkpt lat="58.80925333" lon="14.94284833"><ele>102.0</ele><time>2016-06-18T11:02:02.308Z</time></trkpt><trkpt lat="58.80925333" lon="14.94284833"><ele>102.0</ele><time>2016-06-18T11:02:03.291Z</time></trkpt><trkpt lat="58.80919" lon="14.94313333"><ele>102.0</ele><time>2016-06-18T11:02:04.307Z</time></trkpt><trkpt lat="58.80919" lon="14.94313333"><ele>102.0</ele><time>2016-06-18T11:02:05.300Z</time></trkpt><trkpt lat="58.80912" lon="14.94341833"><ele>101.0</ele><time>2016-06-18T11:02:06.307Z</time></trkpt><trkpt lat="58.80908333" lon="14.94356333"><ele>101.0</ele><time>2016-06-18T11:02:07.291Z</time></trkpt><trkpt lat="58.80908333" lon="14.94356333"><ele>101.0</ele><time>2016-06-18T11:02:08.314Z</time></trkpt><trkpt lat="58.80900833" lon="14.943855"><ele>101.0</ele><time>2016-06-18T11:02:09.321Z</time></trkpt><trkpt lat="58.80897167" lon="14.94399833"><ele>101.0</ele><time>2016-06-18T11:02:10.319Z</time></trkpt><trkpt lat="58.80897167" lon="14.94399833"><ele>101.0</ele><time>2016-06-18T11:02:11.352Z</time></trkpt><trkpt lat="58.80890167" lon="14.94428667"><ele>101.0</ele><time>2016-06-18T11:02:12.309Z</time></trkpt><trkpt lat="58.808865" lon="14.94443"><ele>101.0</ele><time>2016-06-18T11:02:13.293Z</time></trkpt><trkpt lat="58.80882833" lon="14.94457167"><ele>101.0</ele><time>2016-06-18T11:02:14.320Z</time></trkpt><trkpt lat="58.80882833" lon="14.94457167"><ele>101.0</ele><time>2016-06-18T11:02:15.306Z</time></trkpt><trkpt lat="58.808755" lon="14.94486"><ele>100.0</ele><time>2016-06-18T11:02:16.286Z</time></trkpt><trkpt lat="58.808755" lon="14.94486"><ele>100.0</ele><time>2016-06-18T11:02:17.320Z</time></trkpt><trkpt lat="58.80868333" lon="14.94515167"><ele>100.0</ele><time>2016-06-18T11:02:18.286Z</time></trkpt><trkpt lat="58.80868333" lon="14.94515167"><ele>100.0</ele><time>2016-06-18T11:02:19.311Z</time></trkpt><trkpt lat="58.80861167" lon="14.94543667"><ele>100.0</ele><time>2016-06-18T11:02:20.296Z</time></trkpt><trkpt lat="58.80861167" lon="14.94543667"><ele>100.0</ele><time>2016-06-18T11:02:21.308Z</time></trkpt><trkpt lat="58.80853833" lon="14.94571667"><ele>99.0</ele><time>2016-06-18T11:02:22.308Z</time></trkpt><trkpt lat="58.80853833" lon="14.94571667"><ele>99.0</ele><time>2016-06-18T11:02:23.315Z</time></trkpt><trkpt lat="58.80846833" lon="14.946"><ele>99.0</ele><time>2016-06-18T11:02:24.296Z</time></trkpt><trkpt lat="58.80846833" lon="14.946"><ele>99.0</ele><time>2016-06-18T11:02:25.306Z</time></trkpt><trkpt lat="58.80839667" lon="14.94628333"><ele>99.0</ele><time>2016-06-18T11:02:26.313Z</time></trkpt><trkpt lat="58.80839667" lon="14.94628333"><ele>99.0</ele><time>2016-06-18T11:02:27.306Z</time></trkpt><trkpt lat="58.808325" lon="14.94656667"><ele>99.0</ele><time>2016-06-18T11:02:28.294Z</time></trkpt><trkpt lat="58.808325" lon="14.94656667"><ele>99.0</ele><time>2016-06-18T11:02:29.308Z</time></trkpt><trkpt lat="58.80825" lon="14.94685167"><ele>99.0</ele><time>2016-06-18T11:02:30.319Z</time></trkpt><trkpt lat="58.80821333" lon="14.946995"><ele>99.0</ele><time>2016-06-18T11:02:31.300Z</time></trkpt><trkpt lat="58.80821333" lon="14.946995"><ele>99.0</ele><time>2016-06-18T11:02:32.315Z</time></trkpt><trkpt lat="58.80814" lon="14.94728167"><ele>98.0</ele><time>2016-06-18T11:02:33.321Z</time></trkpt><trkpt lat="58.80814" lon="14.94728167"><ele>98.0</ele><time>2016-06-18T11:02:34.307Z</time></trkpt><trkpt lat="58.80806667" lon="14.94756833"><ele>98.0</ele><time>2016-06-18T11:02:35.315Z</time></trkpt><trkpt lat="58.80806667" lon="14.94756833"><ele>98.0</ele><time>2016-06-18T11:02:36.297Z</time></trkpt><trkpt lat="58.80799333" lon="14.94786"><ele>98.0</ele><time>2016-06-18T11:02:37.297Z</time></trkpt><trkpt lat="58.80795833" lon="14.948005"><ele>98.0</ele><time>2016-06-18T11:02:38.296Z</time></trkpt><trkpt lat="58.80795833" lon="14.948005"><ele>98.0</ele><time>2016-06-18T11:02:39.320Z</time></trkpt><trkpt lat="58.807885" lon="14.94829333"><ele>98.0</ele><time>2016-06-18T11:02:40.287Z</time></trkpt><trkpt lat="58.807885" lon="14.94829333"><ele>98.0</ele><time>2016-06-18T11:02:41.310Z</time></trkpt><trkpt lat="58.80781333" lon="14.94858333"><ele>98.0</ele><time>2016-06-18T11:02:42.298Z</time></trkpt><trkpt lat="58.80781333" lon="14.94858333"><ele>98.0</ele><time>2016-06-18T11:02:43.293Z</time></trkpt><trkpt lat="58.80773833" lon="14.94887167"><ele>98.0</ele><time>2016-06-18T11:02:44.299Z</time></trkpt><trkpt lat="58.80773833" lon="14.94887167"><ele>98.0</ele><time>2016-06-18T11:02:45.292Z</time></trkpt><trkpt lat="58.80766667" lon="14.94916"><ele>98.0</ele><time>2016-06-18T11:02:46.294Z</time></trkpt><trkpt lat="58.80766667" lon="14.94916"><ele>98.0</ele><time>2016-06-18T11:02:47.307Z</time></trkpt><trkpt lat="58.80759667" lon="14.94944667"><ele>98.0</ele><time>2016-06-18T11:02:48.313Z</time></trkpt><trkpt lat="58.80756" lon="14.94959167"><ele>98.0</ele><time>2016-06-18T11:02:49.305Z</time></trkpt><trkpt lat="58.80752667" lon="14.949735"><ele>98.0</ele><time>2016-06-18T11:02:50.316Z</time></trkpt><trkpt lat="58.80752667" lon="14.949735"><ele>98.0</ele><time>2016-06-18T11:02:51.306Z</time></trkpt><trkpt lat="58.80745333" lon="14.95002"><ele>97.0</ele><time>2016-06-18T11:02:52.318Z</time></trkpt><trkpt lat="58.80745333" lon="14.95002"><ele>97.0</ele><time>2016-06-18T11:02:53.321Z</time></trkpt><trkpt lat="58.80738" lon="14.95030833"><ele>97.0</ele><time>2016-06-18T11:02:54.287Z</time></trkpt><trkpt lat="58.80738" lon="14.95030833"><ele>97.0</ele><time>2016-06-18T11:02:55.314Z</time></trkpt><trkpt lat="58.807305" lon="14.950595"><ele>97.0</ele><time>2016-06-18T11:02:56.297Z</time></trkpt><trkpt lat="58.807305" lon="14.950595"><ele>97.0</ele><time>2016-06-18T11:02:57.296Z</time></trkpt><trkpt lat="58.80723833" lon="14.95088667"><ele>97.0</ele><time>2016-06-18T11:02:58.305Z</time></trkpt><trkpt lat="58.80723833" lon="14.95088667"><ele>97.0</ele><time>2016-06-18T11:02:59.292Z</time></trkpt><trkpt lat="58.80716667" lon="14.951185"><ele>97.0</ele><time>2016-06-18T11:03:00.291Z</time></trkpt><trkpt lat="58.80712833" lon="14.95132833"><ele>97.0</ele><time>2016-06-18T11:03:01.287Z</time></trkpt><trkpt lat="58.80708667" lon="14.951475"><ele>97.0</ele><time>2016-06-18T11:03:02.315Z</time></trkpt><trkpt lat="58.80708667" lon="14.951475"><ele>97.0</ele><time>2016-06-18T11:03:03.297Z</time></trkpt><trkpt lat="58.80701333" lon="14.95176167"><ele>97.0</ele><time>2016-06-18T11:03:04.307Z</time></trkpt><trkpt lat="58.80697833" lon="14.95190667"><ele>97.0</ele><time>2016-06-18T11:03:05.290Z</time></trkpt><trkpt lat="58.80697833" lon="14.95190667"><ele>97.0</ele><time>2016-06-18T11:03:06.314Z</time></trkpt><trkpt lat="58.80690667" lon="14.95219833"><ele>97.0</ele><time>2016-06-18T11:03:07.321Z</time></trkpt><trkpt lat="58.80686833" lon="14.952345"><ele>97.0</ele><time>2016-06-18T11:03:08.322Z</time></trkpt><trkpt lat="58.80686833" lon="14.952345"><ele>97.0</ele><time>2016-06-18T11:03:09.301Z</time></trkpt><trkpt lat="58.806795" lon="14.95264"><ele>97.0</ele><time>2016-06-18T11:03:10.311Z</time></trkpt><trkpt lat="58.806795" lon="14.95264"><ele>97.0</ele><time>2016-06-18T11:03:11.365Z</time></trkpt><trkpt lat="58.80672333" lon="14.95293167"><ele>97.0</ele><time>2016-06-18T11:03:12.318Z</time></trkpt><trkpt lat="58.80668667" lon="14.953075"><ele>97.0</ele><time>2016-06-18T11:03:13.309Z</time></trkpt><trkpt lat="58.80665167" lon="14.95321667"><ele>97.0</ele><time>2016-06-18T11:03:14.293Z</time></trkpt><trkpt lat="58.80665167" lon="14.95321667"><ele>97.0</ele><time>2016-06-18T11:03:15.318Z</time></trkpt><trkpt lat="58.80658167" lon="14.953495"><ele>97.0</ele><time>2016-06-18T11:03:16.285Z</time></trkpt><trkpt lat="58.80654833" lon="14.95363333"><ele>96.0</ele><time>2016-06-18T11:03:17.300Z</time></trkpt><trkpt lat="58.80654833" lon="14.95363333"><ele>96.0</ele><time>2016-06-18T11:03:18.313Z</time></trkpt><trkpt lat="58.80647833" lon="14.95391"><ele>96.0</ele><time>2016-06-18T11:03:19.319Z</time></trkpt><trkpt lat="58.80644167" lon="14.95404833"><ele>96.0</ele><time>2016-06-18T11:03:20.291Z</time></trkpt><trkpt lat="58.80644167" lon="14.95404833"><ele>96.0</ele><time>2016-06-18T11:03:21.290Z</time></trkpt><trkpt lat="58.80637167" lon="14.95432667"><ele>96.0</ele><time>2016-06-18T11:03:22.296Z</time></trkpt><trkpt lat="58.806335" lon="14.95447"><ele>96.0</ele><time>2016-06-18T11:03:23.299Z</time></trkpt><trkpt lat="58.80629833" lon="14.954615"><ele>96.0</ele><time>2016-06-18T11:03:24.311Z</time></trkpt><trkpt lat="58.80629833" lon="14.954615"><ele>96.0</ele><time>2016-06-18T11:03:25.294Z</time></trkpt><trkpt lat="58.806225" lon="14.954905"><ele>96.0</ele><time>2016-06-18T11:03:26.283Z</time></trkpt><trkpt lat="58.806225" lon="14.954905"><ele>96.0</ele><time>2016-06-18T11:03:27.311Z</time></trkpt><trkpt lat="58.80614833" lon="14.95519167"><ele>96.0</ele><time>2016-06-18T11:03:28.319Z</time></trkpt><trkpt lat="58.80614833" lon="14.95519167"><ele>96.0</ele><time>2016-06-18T11:03:29.314Z</time></trkpt><trkpt lat="58.80607167" lon="14.95547833"><ele>95.0</ele><time>2016-06-18T11:03:30.287Z</time></trkpt><trkpt lat="58.80607167" lon="14.95547833"><ele>95.0</ele><time>2016-06-18T11:03:31.286Z</time></trkpt><trkpt lat="58.80599833" lon="14.95576667"><ele>95.0</ele><time>2016-06-18T11:03:32.293Z</time></trkpt><trkpt lat="58.80596167" lon="14.95591167"><ele>95.0</ele><time>2016-06-18T11:03:33.320Z</time></trkpt><trkpt lat="58.80596167" lon="14.95591167"><ele>95.0</ele><time>2016-06-18T11:03:34.286Z</time></trkpt><trkpt lat="58.80588667" lon="14.9562"><ele>95.0</ele><time>2016-06-18T11:03:35.295Z</time></trkpt><trkpt lat="58.80585" lon="14.95634333"><ele>95.0</ele><time>2016-06-18T11:03:36.287Z</time></trkpt><trkpt lat="58.80585" lon="14.95634333"><ele>95.0</ele><time>2016-06-18T11:03:37.302Z</time></trkpt><trkpt lat="58.805775" lon="14.956635"><ele>94.0</ele><time>2016-06-18T11:03:38.311Z</time></trkpt><trkpt lat="58.805775" lon="14.956635"><ele>94.0</ele><time>2016-06-18T11:03:39.295Z</time></trkpt><trkpt lat="58.80570167" lon="14.95692667"><ele>94.0</ele><time>2016-06-18T11:03:40.292Z</time></trkpt><trkpt lat="58.80570167" lon="14.95692667"><ele>94.0</ele><time>2016-06-18T11:03:41.287Z</time></trkpt><trkpt lat="58.80562667" lon="14.95722167"><ele>94.0</ele><time>2016-06-18T11:03:42.304Z</time></trkpt><trkpt lat="58.80562667" lon="14.95722167"><ele>94.0</ele><time>2016-06-18T11:03:43.288Z</time></trkpt><trkpt lat="58.80554833" lon="14.95751833"><ele>93.0</ele><time>2016-06-18T11:03:44.307Z</time></trkpt><trkpt lat="58.80554833" lon="14.95751833"><ele>93.0</ele><time>2016-06-18T11:03:45.309Z</time></trkpt><trkpt lat="58.80546833" lon="14.95781333"><ele>93.0</ele><time>2016-06-18T11:03:46.315Z</time></trkpt><trkpt lat="58.80546833" lon="14.95781333"><ele>93.0</ele><time>2016-06-18T11:03:47.296Z</time></trkpt><trkpt lat="58.80538833" lon="14.95811"><ele>93.0</ele><time>2016-06-18T11:03:48.299Z</time></trkpt><trkpt lat="58.80538833" lon="14.95811"><ele>93.0</ele><time>2016-06-18T11:03:49.301Z</time></trkpt><trkpt lat="58.80529833" lon="14.95840333"><ele>93.0</ele><time>2016-06-18T11:03:50.308Z</time></trkpt><trkpt lat="58.80529833" lon="14.95840333"><ele>93.0</ele><time>2016-06-18T11:03:51.283Z</time></trkpt><trkpt lat="58.80520833" lon="14.95869667"><ele>92.0</ele><time>2016-06-18T11:03:52.290Z</time></trkpt><trkpt lat="58.80520833" lon="14.95869667"><ele>92.0</ele><time>2016-06-18T11:03:53.314Z</time></trkpt><trkpt lat="58.80511" lon="14.95898667"><ele>92.0</ele><time>2016-06-18T11:03:54.298Z</time></trkpt><trkpt lat="58.80511" lon="14.95898667"><ele>92.0</ele><time>2016-06-18T11:03:55.315Z</time></trkpt><trkpt lat="58.80500833" lon="14.95927667"><ele>92.0</ele><time>2016-06-18T11:03:56.282Z</time></trkpt><trkpt lat="58.80500833" lon="14.95927667"><ele>92.0</ele><time>2016-06-18T11:03:57.307Z</time></trkpt><trkpt lat="58.80490667" lon="14.95956333"><ele>92.0</ele><time>2016-06-18T11:03:58.296Z</time></trkpt><trkpt lat="58.80490667" lon="14.95956333"><ele>92.0</ele><time>2016-06-18T11:03:59.308Z</time></trkpt><trkpt lat="58.80480167" lon="14.959845"><ele>92.0</ele><time>2016-06-18T11:04:00.314Z</time></trkpt><trkpt lat="58.80474667" lon="14.95998333"><ele>92.0</ele><time>2016-06-18T11:04:01.311Z</time></trkpt><trkpt lat="58.80469" lon="14.96012167"><ele>92.0</ele><time>2016-06-18T11:04:02.306Z</time></trkpt><trkpt lat="58.80469" lon="14.96012167"><ele>92.0</ele><time>2016-06-18T11:04:03.290Z</time></trkpt><trkpt lat="58.80457667" lon="14.96039667"><ele>92.0</ele><time>2016-06-18T11:04:04.311Z</time></trkpt><trkpt lat="58.80451833" lon="14.96053167"><ele>91.0</ele><time>2016-06-18T11:04:05.287Z</time></trkpt><trkpt lat="58.80451833" lon="14.96053167"><ele>91.0</ele><time>2016-06-18T11:04:06.311Z</time></trkpt><trkpt lat="58.80439833" lon="14.96080167"><ele>91.0</ele><time>2016-06-18T11:04:07.317Z</time></trkpt><trkpt lat="58.80433667" lon="14.96093333"><ele>91.0</ele><time>2016-06-18T11:04:08.300Z</time></trkpt><trkpt lat="58.80433667" lon="14.96093333"><ele>91.0</ele><time>2016-06-18T11:04:09.284Z</time></trkpt><trkpt lat="58.80421" lon="14.96119"><ele>91.0</ele><time>2016-06-18T11:04:10.292Z</time></trkpt><trkpt lat="58.80421" lon="14.96119"><ele>91.0</ele><time>2016-06-18T11:04:11.372Z</time></trkpt><trkpt lat="58.80408" lon="14.96144167"><ele>91.0</ele><time>2016-06-18T11:04:12.317Z</time></trkpt><trkpt lat="58.80408" lon="14.96144167"><ele>91.0</ele><time>2016-06-18T11:04:13.308Z</time></trkpt><trkpt lat="58.80394667" lon="14.96168667"><ele>91.0</ele><time>2016-06-18T11:04:14.319Z</time></trkpt><trkpt lat="58.80394667" lon="14.96168667"><ele>91.0</ele><time>2016-06-18T11:04:15.294Z</time></trkpt><trkpt lat="58.80381" lon="14.96192833"><ele>91.0</ele><time>2016-06-18T11:04:16.285Z</time></trkpt><trkpt lat="58.80381" lon="14.96192833"><ele>91.0</ele><time>2016-06-18T11:04:17.306Z</time></trkpt><trkpt lat="58.80367167" lon="14.96216667"><ele>90.0</ele><time>2016-06-18T11:04:18.313Z</time></trkpt><trkpt lat="58.80367167" lon="14.96216667"><ele>90.0</ele><time>2016-06-18T11:04:19.291Z</time></trkpt><trkpt lat="58.80352833" lon="14.96239667"><ele>90.0</ele><time>2016-06-18T11:04:20.308Z</time></trkpt><trkpt lat="58.803455" lon="14.96251167"><ele>90.0</ele><time>2016-06-18T11:04:21.314Z</time></trkpt><trkpt lat="58.803455" lon="14.96251167"><ele>90.0</ele><time>2016-06-18T11:04:22.298Z</time></trkpt><trkpt lat="58.80331" lon="14.96273833"><ele>90.0</ele><time>2016-06-18T11:04:23.308Z</time></trkpt><trkpt lat="58.803235" lon="14.96285"><ele>90.0</ele><time>2016-06-18T11:04:24.308Z</time></trkpt><trkpt lat="58.803235" lon="14.96285"><ele>90.0</ele><time>2016-06-18T11:04:25.293Z</time></trkpt><trkpt lat="58.803085" lon="14.96307"><ele>90.0</ele><time>2016-06-18T11:04:26.307Z</time></trkpt><trkpt lat="58.803085" lon="14.96307"><ele>90.0</ele><time>2016-06-18T11:04:27.310Z</time></trkpt><trkpt lat="58.802935" lon="14.96327833"><ele>90.0</ele><time>2016-06-18T11:04:28.316Z</time></trkpt><trkpt lat="58.802935" lon="14.96327833"><ele>90.0</ele><time>2016-06-18T11:04:29.301Z</time></trkpt><trkpt lat="58.80278667" lon="14.96348333"><ele>89.0</ele><time>2016-06-18T11:04:30.306Z</time></trkpt><trkpt lat="58.80278667" lon="14.96348333"><ele>89.0</ele><time>2016-06-18T11:04:31.305Z</time></trkpt><trkpt lat="58.80263833" lon="14.96368667"><ele>89.0</ele><time>2016-06-18T11:04:32.312Z</time></trkpt><trkpt lat="58.80263833" lon="14.96368667"><ele>89.0</ele><time>2016-06-18T11:04:33.297Z</time></trkpt><trkpt lat="58.80248667" lon="14.96386833"><ele>89.0</ele><time>2016-06-18T11:04:34.298Z</time></trkpt><trkpt lat="58.80248667" lon="14.96386833"><ele>89.0</ele><time>2016-06-18T11:04:35.292Z</time></trkpt><trkpt lat="58.80233" lon="14.96404333"><ele>89.0</ele><time>2016-06-18T11:04:36.298Z</time></trkpt><trkpt lat="58.80233" lon="14.96404333"><ele>89.0</ele><time>2016-06-18T11:04:37.282Z</time></trkpt><trkpt lat="58.80217333" lon="14.964205"><ele>89.0</ele><time>2016-06-18T11:04:38.296Z</time></trkpt><trkpt lat="58.80217333" lon="14.964205"><ele>89.0</ele><time>2016-06-18T11:04:39.309Z</time></trkpt><trkpt lat="58.80202" lon="14.96436"><ele>89.0</ele><time>2016-06-18T11:04:40.322Z</time></trkpt><trkpt lat="58.80194333" lon="14.96443167"><ele>89.0</ele><time>2016-06-18T11:04:41.308Z</time></trkpt><trkpt lat="58.80194333" lon="14.96443167"><ele>89.0</ele><time>2016-06-18T11:04:42.282Z</time></trkpt><trkpt lat="58.80179167" lon="14.964565"><ele>90.0</ele><time>2016-06-18T11:04:43.295Z</time></trkpt><trkpt lat="58.80179167" lon="14.964565"><ele>90.0</ele><time>2016-06-18T11:04:44.319Z</time></trkpt><trkpt lat="58.80164" lon="14.96468833"><ele>90.0</ele><time>2016-06-18T11:04:45.297Z</time></trkpt><trkpt lat="58.80164" lon="14.96468833"><ele>90.0</ele><time>2016-06-18T11:04:46.320Z</time></trkpt><trkpt lat="58.80149167" lon="14.96481"><ele>90.0</ele><time>2016-06-18T11:04:47.286Z</time></trkpt><trkpt lat="58.80149167" lon="14.96481"><ele>90.0</ele><time>2016-06-18T11:04:48.309Z</time></trkpt><trkpt lat="58.80134333" lon="14.96492833"><ele>90.0</ele><time>2016-06-18T11:04:49.296Z</time></trkpt><trkpt lat="58.80134333" lon="14.96492833"><ele>90.0</ele><time>2016-06-18T11:04:50.293Z</time></trkpt><trkpt lat="58.801195" lon="14.96503167"><ele>90.0</ele><time>2016-06-18T11:04:51.307Z</time></trkpt><trkpt lat="58.80112333" lon="14.96508167"><ele>90.0</ele><time>2016-06-18T11:04:52.319Z</time></trkpt><trkpt lat="58.80105" lon="14.96512833"><ele>90.0</ele><time>2016-06-18T11:04:53.292Z</time></trkpt><trkpt lat="58.80105" lon="14.96512833"><ele>90.0</ele><time>2016-06-18T11:04:54.318Z</time></trkpt><trkpt lat="58.80090833" lon="14.96522333"><ele>90.0</ele><time>2016-06-18T11:04:55.285Z</time></trkpt><trkpt lat="58.80090833" lon="14.96522333"><ele>90.0</ele><time>2016-06-18T11:04:56.309Z</time></trkpt><trkpt lat="58.80076833" lon="14.96531667"><ele>91.0</ele><time>2016-06-18T11:04:57.300Z</time></trkpt><trkpt lat="58.80076833" lon="14.96531667"><ele>91.0</ele><time>2016-06-18T11:04:58.286Z</time></trkpt><trkpt lat="58.80063" lon="14.96540833"><ele>91.0</ele><time>2016-06-18T11:04:59.288Z</time></trkpt><trkpt lat="58.80063" lon="14.96540833"><ele>91.0</ele><time>2016-06-18T11:05:00.315Z</time></trkpt><trkpt lat="58.80049667" lon="14.965495"><ele>91.0</ele><time>2016-06-18T11:05:01.296Z</time></trkpt><trkpt lat="58.80043167" lon="14.96554"><ele>91.0</ele><time>2016-06-18T11:05:02.291Z</time></trkpt><trkpt lat="58.80043167" lon="14.96554"><ele>91.0</ele><time>2016-06-18T11:05:03.315Z</time></trkpt><trkpt lat="58.8003" lon="14.96562833"><ele>92.0</ele><time>2016-06-18T11:05:04.308Z</time></trkpt><trkpt lat="58.8003" lon="14.96562833"><ele>92.0</ele><time>2016-06-18T11:05:05.286Z</time></trkpt><trkpt lat="58.80017167" lon="14.96571"><ele>92.0</ele><time>2016-06-18T11:05:06.292Z</time></trkpt><trkpt lat="58.80017167" lon="14.96571"><ele>92.0</ele><time>2016-06-18T11:05:07.316Z</time></trkpt><trkpt lat="58.80004667" lon="14.96579833"><ele>92.0</ele><time>2016-06-18T11:05:08.298Z</time></trkpt><trkpt lat="58.80004667" lon="14.96579833"><ele>92.0</ele><time>2016-06-18T11:05:09.307Z</time></trkpt><trkpt lat="58.799925" lon="14.96589333"><ele>92.0</ele><time>2016-06-18T11:05:10.314Z</time></trkpt><trkpt lat="58.799925" lon="14.96589333"><ele>92.0</ele><time>2016-06-18T11:05:11.368Z</time></trkpt><trkpt lat="58.79980833" lon="14.96599"><ele>93.0</ele><time>2016-06-18T11:05:12.310Z</time></trkpt><trkpt lat="58.79975" lon="14.96603"><ele>93.0</ele><time>2016-06-18T11:05:13.295Z</time></trkpt><trkpt lat="58.79969" lon="14.96607"><ele>93.0</ele><time>2016-06-18T11:05:14.321Z</time></trkpt><trkpt lat="58.79969" lon="14.96607"><ele>93.0</ele><time>2016-06-18T11:05:15.308Z</time></trkpt><trkpt lat="58.799575" lon="14.96616167"><ele>93.0</ele><time>2016-06-18T11:05:16.315Z</time></trkpt><trkpt lat="58.799575" lon="14.96616167"><ele>93.0</ele><time>2016-06-18T11:05:17.293Z</time></trkpt><trkpt lat="58.79946167" lon="14.96626167"><ele>93.0</ele><time>2016-06-18T11:05:18.295Z</time></trkpt><trkpt lat="58.79946167" lon="14.96626167"><ele>93.0</ele><time>2016-06-18T11:05:19.305Z</time></trkpt><trkpt lat="58.799345" lon="14.966365"><ele>93.0</ele><time>2016-06-18T11:05:20.312Z</time></trkpt><trkpt lat="58.799345" lon="14.966365"><ele>93.0</ele><time>2016-06-18T11:05:21.288Z</time></trkpt><trkpt lat="58.79922667" lon="14.96647167"><ele>93.0</ele><time>2016-06-18T11:05:22.289Z</time></trkpt><trkpt lat="58.79922667" lon="14.96647167"><ele>93.0</ele><time>2016-06-18T11:05:23.321Z</time></trkpt><trkpt lat="58.79910833" lon="14.96657833"><ele>93.0</ele><time>2016-06-18T11:05:24.287Z</time></trkpt><trkpt lat="58.79904833" lon="14.96663333"><ele>93.0</ele><time>2016-06-18T11:05:25.296Z</time></trkpt><trkpt lat="58.79898833" lon="14.96669"><ele>94.0</ele><time>2016-06-18T11:05:26.312Z</time></trkpt><trkpt lat="58.79898833" lon="14.96669"><ele>94.0</ele><time>2016-06-18T11:05:27.296Z</time></trkpt><trkpt lat="58.79887167" lon="14.96680167"><ele>94.0</ele><time>2016-06-18T11:05:28.320Z</time></trkpt><trkpt lat="58.79887167" lon="14.96680167"><ele>94.0</ele><time>2016-06-18T11:05:29.305Z</time></trkpt><trkpt lat="58.79875333" lon="14.96691667"><ele>94.0</ele><time>2016-06-18T11:05:30.317Z</time></trkpt><trkpt lat="58.798695" lon="14.966975"><ele>94.0</ele><time>2016-06-18T11:05:31.292Z</time></trkpt><trkpt lat="58.798635" lon="14.96703667"><ele>94.0</ele><time>2016-06-18T11:05:32.308Z</time></trkpt><trkpt lat="58.798635" lon="14.96703667"><ele>94.0</ele><time>2016-06-18T11:05:33.291Z</time></trkpt><trkpt lat="58.79851333" lon="14.967155"><ele>94.0</ele><time>2016-06-18T11:05:34.298Z</time></trkpt><trkpt lat="58.79851333" lon="14.967155"><ele>94.0</ele><time>2016-06-18T11:05:35.282Z</time></trkpt><trkpt lat="58.79839" lon="14.96728"><ele>94.0</ele><time>2016-06-18T11:05:36.289Z</time></trkpt><trkpt lat="58.79832833" lon="14.96734333"><ele>94.0</ele><time>2016-06-18T11:05:37.322Z</time></trkpt><trkpt lat="58.79826667" lon="14.96740833"><ele>94.0</ele><time>2016-06-18T11:05:38.312Z</time></trkpt><trkpt lat="58.79826667" lon="14.96740833"><ele>94.0</ele><time>2016-06-18T11:05:39.289Z</time></trkpt><trkpt lat="58.79814333" lon="14.967545"><ele>94.0</ele><time>2016-06-18T11:05:40.311Z</time></trkpt><trkpt lat="58.79814333" lon="14.967545"><ele>94.0</ele><time>2016-06-18T11:05:41.319Z</time></trkpt><trkpt lat="58.798025" lon="14.96768833"><ele>94.0</ele><time>2016-06-18T11:05:42.286Z</time></trkpt><trkpt lat="58.798025" lon="14.96768833"><ele>94.0</ele><time>2016-06-18T11:05:43.305Z</time></trkpt><trkpt lat="58.798025" lon="14.96768833"><ele>94.0</ele><time>2016-06-18T11:05:44.343Z</time></trkpt><trkpt lat="58.79790667" lon="14.96783"><ele>94.0</ele><time>2016-06-18T11:05:45.310Z</time></trkpt><trkpt lat="58.79778667" lon="14.96797167"><ele>94.0</ele><time>2016-06-18T11:05:46.317Z</time></trkpt><trkpt lat="58.79772667" lon="14.968045"><ele>94.0</ele><time>2016-06-18T11:05:47.300Z</time></trkpt><trkpt lat="58.79772667" lon="14.968045"><ele>94.0</ele><time>2016-06-18T11:05:48.284Z</time></trkpt><trkpt lat="58.79760833" lon="14.968195"><ele>94.0</ele><time>2016-06-18T11:05:49.302Z</time></trkpt><trkpt lat="58.79754833" lon="14.96827333"><ele>94.0</ele><time>2016-06-18T11:05:50.285Z</time></trkpt><trkpt lat="58.79754833" lon="14.96827333"><ele>94.0</ele><time>2016-06-18T11:05:51.310Z</time></trkpt><trkpt lat="58.79742833" lon="14.96843167"><ele>94.0</ele><time>2016-06-18T11:05:52.320Z</time></trkpt><trkpt lat="58.79742833" lon="14.96843167"><ele>94.0</ele><time>2016-06-18T11:05:53.312Z</time></trkpt><trkpt lat="58.79730667" lon="14.96859667"><ele>94.0</ele><time>2016-06-18T11:05:54.318Z</time></trkpt><trkpt lat="58.79730667" lon="14.96859667"><ele>94.0</ele><time>2016-06-18T11:05:55.316Z</time></trkpt><trkpt lat="58.797185" lon="14.96876333"><ele>94.0</ele><time>2016-06-18T11:05:56.289Z</time></trkpt><trkpt lat="58.797185" lon="14.96876333"><ele>94.0</ele><time>2016-06-18T11:05:57.319Z</time></trkpt><trkpt lat="58.79706167" lon="14.96893833"><ele>93.0</ele><time>2016-06-18T11:05:58.286Z</time></trkpt><trkpt lat="58.79706167" lon="14.96893833"><ele>93.0</ele><time>2016-06-18T11:05:59.317Z</time></trkpt><trkpt lat="58.79694167" lon="14.96912333"><ele>93.0</ele><time>2016-06-18T11:06:00.318Z</time></trkpt><trkpt lat="58.79688" lon="14.969215"><ele>93.0</ele><time>2016-06-18T11:06:01.284Z</time></trkpt><trkpt lat="58.79681667" lon="14.96930833"><ele>93.0</ele><time>2016-06-18T11:06:02.313Z</time></trkpt><trkpt lat="58.79681667" lon="14.96930833"><ele>93.0</ele><time>2016-06-18T11:06:03.295Z</time></trkpt><trkpt lat="58.79669167" lon="14.96950667"><ele>93.0</ele><time>2016-06-18T11:06:04.306Z</time></trkpt><trkpt lat="58.79663" lon="14.96960833"><ele>93.0</ele><time>2016-06-18T11:06:05.290Z</time></trkpt><trkpt lat="58.79656667" lon="14.96971"><ele>93.0</ele><time>2016-06-18T11:06:06.316Z</time></trkpt><trkpt lat="58.79656667" lon="14.96971"><ele>93.0</ele><time>2016-06-18T11:06:07.287Z</time></trkpt><trkpt lat="58.79644" lon="14.96991833"><ele>93.0</ele><time>2016-06-18T11:06:08.299Z</time></trkpt><trkpt lat="58.79644" lon="14.96991833"><ele>93.0</ele><time>2016-06-18T11:06:09.283Z</time></trkpt><trkpt lat="58.79631167" lon="14.97013167"><ele>92.0</ele><time>2016-06-18T11:06:10.293Z</time></trkpt><trkpt lat="58.79631167" lon="14.97013167"><ele>92.0</ele><time>2016-06-18T11:06:11.378Z</time></trkpt><trkpt lat="58.79618667" lon="14.97035333"><ele>92.0</ele><time>2016-06-18T11:06:12.349Z</time></trkpt><trkpt lat="58.796125" lon="14.97046667"><ele>92.0</ele><time>2016-06-18T11:06:13.310Z</time></trkpt><trkpt lat="58.796125" lon="14.97046667"><ele>92.0</ele><time>2016-06-18T11:06:14.294Z</time></trkpt><trkpt lat="58.79600167" lon="14.97069667"><ele>92.0</ele><time>2016-06-18T11:06:15.302Z</time></trkpt><trkpt lat="58.79600167" lon="14.97069667"><ele>92.0</ele><time>2016-06-18T11:06:16.285Z</time></trkpt><trkpt lat="58.79587833" lon="14.970935"><ele>91.0</ele><time>2016-06-18T11:06:17.292Z</time></trkpt><trkpt lat="58.79587833" lon="14.970935"><ele>91.0</ele><time>2016-06-18T11:06:18.321Z</time></trkpt><trkpt lat="58.79575667" lon="14.97118333"><ele>91.0</ele><time>2016-06-18T11:06:19.288Z</time></trkpt><trkpt lat="58.79569667" lon="14.97131333"><ele>91.0</ele><time>2016-06-18T11:06:20.298Z</time></trkpt><trkpt lat="58.79569667" lon="14.97131333"><ele>91.0</ele><time>2016-06-18T11:06:21.298Z</time></trkpt><trkpt lat="58.79557167" lon="14.97157333"><ele>90.0</ele><time>2016-06-18T11:06:22.305Z</time></trkpt><trkpt lat="58.79557167" lon="14.97157333"><ele>90.0</ele><time>2016-06-18T11:06:23.288Z</time></trkpt><trkpt lat="58.79544833" lon="14.971835"><ele>90.0</ele><time>2016-06-18T11:06:24.296Z</time></trkpt><trkpt lat="58.79544833" lon="14.971835"><ele>90.0</ele><time>2016-06-18T11:06:25.308Z</time></trkpt><trkpt lat="58.79532667" lon="14.97209667"><ele>90.0</ele><time>2016-06-18T11:06:26.317Z</time></trkpt><trkpt lat="58.79532667" lon="14.97209667"><ele>90.0</ele><time>2016-06-18T11:06:27.300Z</time></trkpt><trkpt lat="58.795205" lon="14.97237"><ele>89.0</ele><time>2016-06-18T11:06:28.296Z</time></trkpt><trkpt lat="58.795205" lon="14.97237"><ele>89.0</ele><time>2016-06-18T11:06:29.291Z</time></trkpt><trkpt lat="58.79508667" lon="14.97265833"><ele>89.0</ele><time>2016-06-18T11:06:30.297Z</time></trkpt><trkpt lat="58.79502667" lon="14.972805"><ele>89.0</ele><time>2016-06-18T11:06:31.289Z</time></trkpt><trkpt lat="58.794965" lon="14.97295333"><ele>89.0</ele><time>2016-06-18T11:06:32.305Z</time></trkpt><trkpt lat="58.794965" lon="14.97295333"><ele>89.0</ele><time>2016-06-18T11:06:33.291Z</time></trkpt><trkpt lat="58.794845" lon="14.97325667"><ele>88.0</ele><time>2016-06-18T11:06:34.287Z</time></trkpt><trkpt lat="58.794845" lon="14.97325667"><ele>88.0</ele><time>2016-06-18T11:06:35.291Z</time></trkpt><trkpt lat="58.79472167" lon="14.97356333"><ele>88.0</ele><time>2016-06-18T11:06:36.297Z</time></trkpt><trkpt lat="58.79472167" lon="14.97356333"><ele>88.0</ele><time>2016-06-18T11:06:37.321Z</time></trkpt><trkpt lat="58.79460167" lon="14.97387"><ele>87.0</ele><time>2016-06-18T11:06:38.296Z</time></trkpt><trkpt lat="58.79460167" lon="14.97387"><ele>87.0</ele><time>2016-06-18T11:06:39.283Z</time></trkpt><trkpt lat="58.79448333" lon="14.974175"><ele>87.0</ele><time>2016-06-18T11:06:40.290Z</time></trkpt><trkpt lat="58.79448333" lon="14.974175"><ele>87.0</ele><time>2016-06-18T11:06:41.284Z</time></trkpt><trkpt lat="58.79436833" lon="14.97448"><ele>86.0</ele><time>2016-06-18T11:06:42.296Z</time></trkpt><trkpt lat="58.79436833" lon="14.97448"><ele>86.0</ele><time>2016-06-18T11:06:43.313Z</time></trkpt><trkpt lat="58.79425167" lon="14.97478667"><ele>86.0</ele><time>2016-06-18T11:06:44.320Z</time></trkpt><trkpt lat="58.79425167" lon="14.97478667"><ele>86.0</ele><time>2016-06-18T11:06:45.316Z</time></trkpt><trkpt lat="58.79413" lon="14.97509333"><ele>86.0</ele><time>2016-06-18T11:06:46.288Z</time></trkpt><trkpt lat="58.79413" lon="14.97509333"><ele>86.0</ele><time>2016-06-18T11:06:47.315Z</time></trkpt><trkpt lat="58.79400333" lon="14.9754"><ele>86.0</ele><time>2016-06-18T11:06:48.321Z</time></trkpt><trkpt lat="58.79400333" lon="14.9754"><ele>86.0</ele><time>2016-06-18T11:06:49.304Z</time></trkpt><trkpt lat="58.79387667" lon="14.975705"><ele>86.0</ele><time>2016-06-18T11:06:50.291Z</time></trkpt><trkpt lat="58.79387667" lon="14.975705"><ele>86.0</ele><time>2016-06-18T11:06:51.310Z</time></trkpt><trkpt lat="58.79375167" lon="14.97601"><ele>85.0</ele><time>2016-06-18T11:06:52.317Z</time></trkpt><trkpt lat="58.79375167" lon="14.97601"><ele>85.0</ele><time>2016-06-18T11:06:53.299Z</time></trkpt><trkpt lat="58.79362833" lon="14.97631667"><ele>85.0</ele><time>2016-06-18T11:06:54.300Z</time></trkpt><trkpt lat="58.79362833" lon="14.97631667"><ele>85.0</ele><time>2016-06-18T11:06:55.294Z</time></trkpt><trkpt lat="58.79351167" lon="14.97662"><ele>85.0</ele><time>2016-06-18T11:06:56.301Z</time></trkpt><trkpt lat="58.79351167" lon="14.97662"><ele>85.0</ele><time>2016-06-18T11:06:57.286Z</time></trkpt><trkpt lat="58.793395" lon="14.97692167"><ele>86.0</ele><time>2016-06-18T11:06:58.295Z</time></trkpt><trkpt lat="58.793395" lon="14.97692167"><ele>86.0</ele><time>2016-06-18T11:06:59.310Z</time></trkpt><trkpt lat="58.79328" lon="14.97721667"><ele>86.0</ele><time>2016-06-18T11:07:00.318Z</time></trkpt><trkpt lat="58.79328" lon="14.97721667"><ele>86.0</ele><time>2016-06-18T11:07:01.295Z</time></trkpt><trkpt lat="58.793165" lon="14.97750833"><ele>86.0</ele><time>2016-06-18T11:07:02.291Z</time></trkpt><trkpt lat="58.793165" lon="14.97750833"><ele>86.0</ele><time>2016-06-18T11:07:03.313Z</time></trkpt><trkpt lat="58.79305" lon="14.977795"><ele>86.0</ele><time>2016-06-18T11:07:04.321Z</time></trkpt><trkpt lat="58.79305" lon="14.977795"><ele>86.0</ele><time>2016-06-18T11:07:05.305Z</time></trkpt><trkpt lat="58.79293667" lon="14.978075"><ele>86.0</ele><time>2016-06-18T11:07:06.294Z</time></trkpt><trkpt lat="58.79293667" lon="14.978075"><ele>86.0</ele><time>2016-06-18T11:07:07.299Z</time></trkpt><trkpt lat="58.792825" lon="14.97834333"><ele>86.0</ele><time>2016-06-18T11:07:08.313Z</time></trkpt><trkpt lat="58.792825" lon="14.97834333"><ele>86.0</ele><time>2016-06-18T11:07:09.296Z</time></trkpt><trkpt lat="58.79271333" lon="14.97860333"><ele>87.0</ele><time>2016-06-18T11:07:10.307Z</time></trkpt><trkpt lat="58.79271333" lon="14.97860333"><ele>87.0</ele><time>2016-06-18T11:07:11.368Z</time></trkpt><trkpt lat="58.79260333" lon="14.978855"><ele>87.0</ele><time>2016-06-18T11:07:12.289Z</time></trkpt><trkpt lat="58.79254667" lon="14.97897833"><ele>87.0</ele><time>2016-06-18T11:07:13.321Z</time></trkpt><trkpt lat="58.79249" lon="14.9791"><ele>88.0</ele><time>2016-06-18T11:07:14.311Z</time></trkpt><trkpt lat="58.79249" lon="14.9791"><ele>88.0</ele><time>2016-06-18T11:07:15.295Z</time></trkpt><trkpt lat="58.79238167" lon="14.97934"><ele>88.0</ele><time>2016-06-18T11:07:16.311Z</time></trkpt><trkpt lat="58.79232667" lon="14.97946"><ele>88.0</ele><time>2016-06-18T11:07:17.316Z</time></trkpt><trkpt lat="58.79232667" lon="14.97946"><ele>88.0</ele><time>2016-06-18T11:07:18.298Z</time></trkpt><trkpt lat="58.79221833" lon="14.97969333"><ele>89.0</ele><time>2016-06-18T11:07:19.313Z</time></trkpt><trkpt lat="58.79216333" lon="14.97980833"><ele>89.0</ele><time>2016-06-18T11:07:20.296Z</time></trkpt><trkpt lat="58.79216333" lon="14.97980833"><ele>89.0</ele><time>2016-06-18T11:07:21.307Z</time></trkpt><trkpt lat="58.79205167" lon="14.98004"><ele>89.0</ele><time>2016-06-18T11:07:22.315Z</time></trkpt><trkpt lat="58.79199667" lon="14.98015167"><ele>89.0</ele><time>2016-06-18T11:07:23.314Z</time></trkpt><trkpt lat="58.79199667" lon="14.98015167"><ele>89.0</ele><time>2016-06-18T11:07:24.301Z</time></trkpt><trkpt lat="58.79188667" lon="14.98036667"><ele>90.0</ele><time>2016-06-18T11:07:25.315Z</time></trkpt><trkpt lat="58.79183333" lon="14.98047333"><ele>90.0</ele><time>2016-06-18T11:07:26.298Z</time></trkpt><trkpt lat="58.79183333" lon="14.98047333"><ele>90.0</ele><time>2016-06-18T11:07:27.320Z</time></trkpt><trkpt lat="58.79172667" lon="14.98068667"><ele>90.0</ele><time>2016-06-18T11:07:28.286Z</time></trkpt><trkpt lat="58.79172667" lon="14.98068667"><ele>90.0</ele><time>2016-06-18T11:07:29.317Z</time></trkpt><trkpt lat="58.791615" lon="14.98089"><ele>91.0</ele><time>2016-06-18T11:07:30.308Z</time></trkpt><trkpt lat="58.791615" lon="14.98089"><ele>91.0</ele><time>2016-06-18T11:07:31.308Z</time></trkpt><trkpt lat="58.791505" lon="14.981085"><ele>91.0</ele><time>2016-06-18T11:07:32.316Z</time></trkpt><trkpt lat="58.79145" lon="14.98118333"><ele>91.0</ele><time>2016-06-18T11:07:33.283Z</time></trkpt><trkpt lat="58.79145" lon="14.98118333"><ele>91.0</ele><time>2016-06-18T11:07:34.320Z</time></trkpt><trkpt lat="58.79135" lon="14.98137667"><ele>92.0</ele><time>2016-06-18T11:07:35.298Z</time></trkpt><trkpt lat="58.79129667" lon="14.981475"><ele>92.0</ele><time>2016-06-18T11:07:36.299Z</time></trkpt><trkpt lat="58.79129667" lon="14.981475"><ele>92.0</ele><time>2016-06-18T11:07:37.317Z</time></trkpt><trkpt lat="58.79119167" lon="14.98166667"><ele>93.0</ele><time>2016-06-18T11:07:38.283Z</time></trkpt><trkpt lat="58.79119167" lon="14.98166667"><ele>93.0</ele><time>2016-06-18T11:07:39.317Z</time></trkpt><trkpt lat="58.79109" lon="14.98186333"><ele>94.0</ele><time>2016-06-18T11:07:40.298Z</time></trkpt><trkpt lat="58.79109" lon="14.98186333"><ele>94.0</ele><time>2016-06-18T11:07:41.311Z</time></trkpt><trkpt lat="58.79098667" lon="14.98205333"><ele>94.0</ele><time>2016-06-18T11:07:42.317Z</time></trkpt><trkpt lat="58.79093167" lon="14.98214667"><ele>95.0</ele><time>2016-06-18T11:07:43.282Z</time></trkpt><trkpt lat="58.79093167" lon="14.98214667"><ele>95.0</ele><time>2016-06-18T11:07:44.285Z</time></trkpt><trkpt lat="58.79082333" lon="14.982335"><ele>95.0</ele><time>2016-06-18T11:07:45.298Z</time></trkpt><trkpt lat="58.79082333" lon="14.982335"><ele>95.0</ele><time>2016-06-18T11:07:46.309Z</time></trkpt><trkpt lat="58.79071667" lon="14.982525"><ele>95.0</ele><time>2016-06-18T11:07:47.285Z</time></trkpt><trkpt lat="58.79071667" lon="14.982525"><ele>95.0</ele><time>2016-06-18T11:07:48.317Z</time></trkpt><trkpt lat="58.79061333" lon="14.98272333"><ele>95.0</ele><time>2016-06-18T11:07:49.317Z</time></trkpt><trkpt lat="58.79056167" lon="14.982825"><ele>95.0</ele><time>2016-06-18T11:07:50.316Z</time></trkpt><trkpt lat="58.79056167" lon="14.982825"><ele>95.0</ele><time>2016-06-18T11:07:51.300Z</time></trkpt><trkpt lat="58.79045667" lon="14.98302667"><ele>95.0</ele><time>2016-06-18T11:07:52.288Z</time></trkpt><trkpt lat="58.79040333" lon="14.983125"><ele>95.0</ele><time>2016-06-18T11:07:53.308Z</time></trkpt><trkpt lat="58.79040333" lon="14.983125"><ele>95.0</ele><time>2016-06-18T11:07:54.287Z</time></trkpt><trkpt lat="58.790295" lon="14.98332"><ele>95.0</ele><time>2016-06-18T11:07:55.299Z</time></trkpt><trkpt lat="58.79024" lon="14.98341667"><ele>95.0</ele><time>2016-06-18T11:07:56.291Z</time></trkpt><trkpt lat="58.79024" lon="14.98341667"><ele>95.0</ele><time>2016-06-18T11:07:57.318Z</time></trkpt><trkpt lat="58.790125" lon="14.98360333"><ele>94.0</ele><time>2016-06-18T11:07:58.285Z</time></trkpt><trkpt lat="58.790125" lon="14.98360333"><ele>94.0</ele><time>2016-06-18T11:07:59.309Z</time></trkpt><trkpt lat="58.790005" lon="14.983795"><ele>94.0</ele><time>2016-06-18T11:08:00.320Z</time></trkpt><trkpt lat="58.790005" lon="14.983795"><ele>94.0</ele><time>2016-06-18T11:08:01.308Z</time></trkpt><trkpt lat="58.789885" lon="14.98399833"><ele>94.0</ele><time>2016-06-18T11:08:02.316Z</time></trkpt><trkpt lat="58.789885" lon="14.98399833"><ele>94.0</ele><time>2016-06-18T11:08:03.299Z</time></trkpt><trkpt lat="58.78976167" lon="14.984205"><ele>94.0</ele><time>2016-06-18T11:08:04.295Z</time></trkpt><trkpt lat="58.78976167" lon="14.984205"><ele>94.0</ele><time>2016-06-18T11:08:05.291Z</time></trkpt><trkpt lat="58.78963833" lon="14.984415"><ele>94.0</ele><time>2016-06-18T11:08:06.297Z</time></trkpt><trkpt lat="58.78963833" lon="14.984415"><ele>94.0</ele><time>2016-06-18T11:08:07.283Z</time></trkpt><trkpt lat="58.78951333" lon="14.98463"><ele>94.0</ele><time>2016-06-18T11:08:08.300Z</time></trkpt><trkpt lat="58.78951333" lon="14.98463"><ele>94.0</ele><time>2016-06-18T11:08:09.321Z</time></trkpt><trkpt lat="58.78938667" lon="14.98484667"><ele>94.0</ele><time>2016-06-18T11:08:10.287Z</time></trkpt><trkpt lat="58.78938667" lon="14.98484667"><ele>94.0</ele><time>2016-06-18T11:08:11.363Z</time></trkpt><trkpt lat="58.78925667" lon="14.98506833"><ele>93.0</ele><time>2016-06-18T11:08:12.290Z</time></trkpt><trkpt lat="58.78919167" lon="14.98518167"><ele>93.0</ele><time>2016-06-18T11:08:13.288Z</time></trkpt><trkpt lat="58.78919167" lon="14.98518167"><ele>93.0</ele><time>2016-06-18T11:08:14.313Z</time></trkpt><trkpt lat="58.78905667" lon="14.985415"><ele>93.0</ele><time>2016-06-18T11:08:15.310Z</time></trkpt><trkpt lat="58.78905667" lon="14.985415"><ele>93.0</ele><time>2016-06-18T11:08:16.286Z</time></trkpt><trkpt lat="58.788915" lon="14.98564833"><ele>92.0</ele><time>2016-06-18T11:08:17.294Z</time></trkpt><trkpt lat="58.788915" lon="14.98564833"><ele>92.0</ele><time>2016-06-18T11:08:18.320Z</time></trkpt><trkpt lat="58.78877333" lon="14.98589333"><ele>91.0</ele><time>2016-06-18T11:08:19.318Z</time></trkpt><trkpt lat="58.7887" lon="14.98601667"><ele>91.0</ele><time>2016-06-18T11:08:20.282Z</time></trkpt><trkpt lat="58.7887" lon="14.98601667"><ele>91.0</ele><time>2016-06-18T11:08:21.307Z</time></trkpt><trkpt lat="58.78855667" lon="14.98627"><ele>90.0</ele><time>2016-06-18T11:08:22.317Z</time></trkpt><trkpt lat="58.78855667" lon="14.98627"><ele>90.0</ele><time>2016-06-18T11:08:23.286Z</time></trkpt><trkpt lat="58.78840667" lon="14.98652833"><ele>89.0</ele><time>2016-06-18T11:08:24.296Z</time></trkpt><trkpt lat="58.78833333" lon="14.98665833"><ele>89.0</ele><time>2016-06-18T11:08:25.320Z</time></trkpt><trkpt lat="58.78825667" lon="14.98679"><ele>89.0</ele><time>2016-06-18T11:08:26.302Z</time></trkpt><trkpt lat="58.78825667" lon="14.98679"><ele>89.0</ele><time>2016-06-18T11:08:27.286Z</time></trkpt><trkpt lat="58.78810333" lon="14.987065"><ele>88.0</ele><time>2016-06-18T11:08:28.292Z</time></trkpt><trkpt lat="58.78810333" lon="14.987065"><ele>88.0</ele><time>2016-06-18T11:08:29.316Z</time></trkpt><trkpt lat="58.78795" lon="14.987345"><ele>87.0</ele><time>2016-06-18T11:08:30.305Z</time></trkpt><trkpt lat="58.78795" lon="14.987345"><ele>87.0</ele><time>2016-06-18T11:08:31.287Z</time></trkpt><trkpt lat="58.78778833" lon="14.98763"><ele>87.0</ele><time>2016-06-18T11:08:32.295Z</time></trkpt><trkpt lat="58.78778833" lon="14.98763"><ele>87.0</ele><time>2016-06-18T11:08:33.316Z</time></trkpt><trkpt lat="58.78762167" lon="14.987915"><ele>86.0</ele><time>2016-06-18T11:08:34.304Z</time></trkpt><trkpt lat="58.78762167" lon="14.987915"><ele>86.0</ele><time>2016-06-18T11:08:35.291Z</time></trkpt><trkpt lat="58.78745" lon="14.9882"><ele>85.0</ele><time>2016-06-18T11:08:36.297Z</time></trkpt><trkpt lat="58.78745" lon="14.9882"><ele>85.0</ele><time>2016-06-18T11:08:37.321Z</time></trkpt><trkpt lat="58.78728833" lon="14.98849"><ele>85.0</ele><time>2016-06-18T11:08:38.300Z</time></trkpt><trkpt lat="58.78728833" lon="14.98849"><ele>85.0</ele><time>2016-06-18T11:08:39.301Z</time></trkpt><trkpt lat="58.78712667" lon="14.98878167"><ele>85.0</ele><time>2016-06-18T11:08:40.311Z</time></trkpt><trkpt lat="58.787045" lon="14.98893"><ele>85.0</ele><time>2016-06-18T11:08:41.298Z</time></trkpt><trkpt lat="58.787045" lon="14.98893"><ele>85.0</ele><time>2016-06-18T11:08:42.314Z</time></trkpt><trkpt lat="58.786885" lon="14.98921667"><ele>85.0</ele><time>2016-06-18T11:08:43.282Z</time></trkpt><trkpt lat="58.786805" lon="14.98935667"><ele>85.0</ele><time>2016-06-18T11:08:44.299Z</time></trkpt><trkpt lat="58.786805" lon="14.98935667"><ele>85.0</ele><time>2016-06-18T11:08:45.307Z</time></trkpt><trkpt lat="58.78665167" lon="14.98962833"><ele>85.0</ele><time>2016-06-18T11:08:46.318Z</time></trkpt><trkpt lat="58.78665167" lon="14.98962833"><ele>85.0</ele><time>2016-06-18T11:08:47.330Z</time></trkpt><trkpt lat="58.78657833" lon="14.98975667"><ele>85.0</ele><time>2016-06-18T11:08:48.308Z</time></trkpt><trkpt lat="58.78643833" lon="14.99001833"><ele>86.0</ele><time>2016-06-18T11:08:49.315Z</time></trkpt><trkpt lat="58.78637" lon="14.99014667"><ele>86.0</ele><time>2016-06-18T11:08:50.300Z</time></trkpt><trkpt lat="58.78637" lon="14.99014667"><ele>86.0</ele><time>2016-06-18T11:08:51.285Z</time></trkpt><trkpt lat="58.78623333" lon="14.99038833"><ele>87.0</ele><time>2016-06-18T11:08:52.291Z</time></trkpt><trkpt lat="58.78623333" lon="14.99038833"><ele>87.0</ele><time>2016-06-18T11:08:53.317Z</time></trkpt><trkpt lat="58.78610167" lon="14.99061333"><ele>86.0</ele><time>2016-06-18T11:08:54.284Z</time></trkpt><trkpt lat="58.78610167" lon="14.99061333"><ele>86.0</ele><time>2016-06-18T11:08:55.310Z</time></trkpt><trkpt lat="58.78597667" lon="14.990845"><ele>87.0</ele><time>2016-06-18T11:08:56.290Z</time></trkpt><trkpt lat="58.78597667" lon="14.990845"><ele>87.0</ele><time>2016-06-18T11:08:57.301Z</time></trkpt><trkpt lat="58.78585333" lon="14.99108167"><ele>87.0</ele><time>2016-06-18T11:08:58.311Z</time></trkpt><trkpt lat="58.78585333" lon="14.99108167"><ele>87.0</ele><time>2016-06-18T11:08:59.295Z</time></trkpt><trkpt lat="58.78573" lon="14.99130833"><ele>88.0</ele><time>2016-06-18T11:09:00.321Z</time></trkpt><trkpt lat="58.78567167" lon="14.99142"><ele>88.0</ele><time>2016-06-18T11:09:01.321Z</time></trkpt><trkpt lat="58.78560833" lon="14.99152833"><ele>88.0</ele><time>2016-06-18T11:09:02.303Z</time></trkpt><trkpt lat="58.78560833" lon="14.99152833"><ele>88.0</ele><time>2016-06-18T11:09:03.293Z</time></trkpt><trkpt lat="58.78548667" lon="14.99174"><ele>88.0</ele><time>2016-06-18T11:09:04.300Z</time></trkpt><trkpt lat="58.78542333" lon="14.99184167"><ele>88.0</ele><time>2016-06-18T11:09:05.321Z</time></trkpt><trkpt lat="58.78542333" lon="14.99184167"><ele>88.0</ele><time>2016-06-18T11:09:06.307Z</time></trkpt><trkpt lat="58.78530667" lon="14.99205"><ele>89.0</ele><time>2016-06-18T11:09:07.313Z</time></trkpt><trkpt lat="58.78525833" lon="14.99216667"><ele>89.0</ele><time>2016-06-18T11:09:08.297Z</time></trkpt><trkpt lat="58.78525833" lon="14.99216667"><ele>89.0</ele><time>2016-06-18T11:09:09.319Z</time></trkpt><trkpt lat="58.78513833" lon="14.99236333"><ele>89.0</ele><time>2016-06-18T11:09:10.313Z</time></trkpt><trkpt lat="58.78513833" lon="14.99236333"><ele>89.0</ele><time>2016-06-18T11:09:11.367Z</time></trkpt><trkpt lat="58.78501833" lon="14.99256"><ele>90.0</ele><time>2016-06-18T11:09:12.314Z</time></trkpt><trkpt lat="58.78496" lon="14.992655"><ele>90.0</ele><time>2016-06-18T11:09:13.294Z</time></trkpt><trkpt lat="58.78489667" lon="14.99274833"><ele>90.0</ele><time>2016-06-18T11:09:14.320Z</time></trkpt><trkpt lat="58.78489667" lon="14.99274833"><ele>90.0</ele><time>2016-06-18T11:09:15.311Z</time></trkpt><trkpt lat="58.784775" lon="14.992935"><ele>90.0</ele><time>2016-06-18T11:09:16.317Z</time></trkpt><trkpt lat="58.784775" lon="14.992935"><ele>90.0</ele><time>2016-06-18T11:09:17.301Z</time></trkpt><trkpt lat="58.78465" lon="14.993105"><ele>91.0</ele><time>2016-06-18T11:09:18.308Z</time></trkpt><trkpt lat="58.78465" lon="14.993105"><ele>91.0</ele><time>2016-06-18T11:09:19.290Z</time></trkpt><trkpt lat="58.78453" lon="14.99327"><ele>91.0</ele><time>2016-06-18T11:09:20.295Z</time></trkpt><trkpt lat="58.78453" lon="14.99327"><ele>91.0</ele><time>2016-06-18T11:09:21.318Z</time></trkpt><trkpt lat="58.78441333" lon="14.99342833"><ele>91.0</ele><time>2016-06-18T11:09:22.284Z</time></trkpt><trkpt lat="58.78441333" lon="14.99342833"><ele>91.0</ele><time>2016-06-18T11:09:23.302Z</time></trkpt><trkpt lat="58.78429833" lon="14.99357333"><ele>92.0</ele><time>2016-06-18T11:09:24.288Z</time></trkpt><trkpt lat="58.78429833" lon="14.99357333"><ele>92.0</ele><time>2016-06-18T11:09:25.300Z</time></trkpt><trkpt lat="58.784185" lon="14.99371667"><ele>92.0</ele><time>2016-06-18T11:09:26.311Z</time></trkpt><trkpt lat="58.784185" lon="14.99371667"><ele>92.0</ele><time>2016-06-18T11:09:27.295Z</time></trkpt><trkpt lat="58.78407333" lon="14.993855"><ele>93.0</ele><time>2016-06-18T11:09:28.290Z</time></trkpt><trkpt lat="58.78407333" lon="14.993855"><ele>93.0</ele><time>2016-06-18T11:09:29.287Z</time></trkpt><trkpt lat="58.78396667" lon="14.99399333"><ele>93.0</ele><time>2016-06-18T11:09:30.294Z</time></trkpt><trkpt lat="58.78396667" lon="14.99399333"><ele>93.0</ele><time>2016-06-18T11:09:31.318Z</time></trkpt><trkpt lat="58.78386" lon="14.99413167"><ele>93.0</ele><time>2016-06-18T11:09:32.294Z</time></trkpt><trkpt lat="58.78386" lon="14.99413167"><ele>93.0</ele><time>2016-06-18T11:09:33.314Z</time></trkpt><trkpt lat="58.78375" lon="14.99426167"><ele>94.0</ele><time>2016-06-18T11:09:34.320Z</time></trkpt><trkpt lat="58.78375" lon="14.99426167"><ele>94.0</ele><time>2016-06-18T11:09:35.318Z</time></trkpt><trkpt lat="58.78364" lon="14.99438167"><ele>94.0</ele><time>2016-06-18T11:09:36.290Z</time></trkpt><trkpt lat="58.78364" lon="14.99438167"><ele>94.0</ele><time>2016-06-18T11:09:37.299Z</time></trkpt><trkpt lat="58.78352167" lon="14.99449667"><ele>94.0</ele><time>2016-06-18T11:09:38.311Z</time></trkpt><trkpt lat="58.78352167" lon="14.99449667"><ele>94.0</ele><time>2016-06-18T11:09:39.294Z</time></trkpt><trkpt lat="58.78341167" lon="14.99461167"><ele>94.0</ele><time>2016-06-18T11:09:40.297Z</time></trkpt><trkpt lat="58.78341167" lon="14.99461167"><ele>94.0</ele><time>2016-06-18T11:09:41.310Z</time></trkpt><trkpt lat="58.78330667" lon="14.99472833"><ele>94.0</ele><time>2016-06-18T11:09:42.317Z</time></trkpt><trkpt lat="58.78330667" lon="14.99472833"><ele>94.0</ele><time>2016-06-18T11:09:43.304Z</time></trkpt><trkpt lat="58.7832" lon="14.99483833"><ele>94.0</ele><time>2016-06-18T11:09:44.295Z</time></trkpt><trkpt lat="58.7832" lon="14.99483833"><ele>94.0</ele><time>2016-06-18T11:09:45.291Z</time></trkpt><trkpt lat="58.78309" lon="14.99494333"><ele>94.0</ele><time>2016-06-18T11:09:46.297Z</time></trkpt><trkpt lat="58.78303" lon="14.994995"><ele>94.0</ele><time>2016-06-18T11:09:47.282Z</time></trkpt><trkpt lat="58.78303" lon="14.994995"><ele>94.0</ele><time>2016-06-18T11:09:48.290Z</time></trkpt><trkpt lat="58.78291667" lon="14.9951"><ele>94.0</ele><time>2016-06-18T11:09:49.309Z</time></trkpt><trkpt lat="58.78291667" lon="14.9951"><ele>94.0</ele><time>2016-06-18T11:09:50.302Z</time></trkpt><trkpt lat="58.78280333" lon="14.99520833"><ele>94.0</ele><time>2016-06-18T11:09:51.304Z</time></trkpt><trkpt lat="58.78280333" lon="14.99520833"><ele>94.0</ele><time>2016-06-18T11:09:52.291Z</time></trkpt><trkpt lat="58.78269333" lon="14.995325"><ele>94.0</ele><time>2016-06-18T11:09:53.297Z</time></trkpt><trkpt lat="58.78263833" lon="14.995385"><ele>94.0</ele><time>2016-06-18T11:09:54.302Z</time></trkpt><trkpt lat="58.78263833" lon="14.995385"><ele>94.0</ele><time>2016-06-18T11:09:55.318Z</time></trkpt><trkpt lat="58.78252" lon="14.99549333"><ele>94.0</ele><time>2016-06-18T11:09:56.284Z</time></trkpt><trkpt lat="58.78252" lon="14.99549333"><ele>94.0</ele><time>2016-06-18T11:09:57.299Z</time></trkpt><trkpt lat="58.78240167" lon="14.99559"><ele>94.0</ele><time>2016-06-18T11:09:58.296Z</time></trkpt><trkpt lat="58.78240167" lon="14.99559"><ele>94.0</ele><time>2016-06-18T11:09:59.285Z</time></trkpt><trkpt lat="58.78227667" lon="14.995685"><ele>93.0</ele><time>2016-06-18T11:10:00.294Z</time></trkpt><trkpt lat="58.78221333" lon="14.99573667"><ele>93.0</ele><time>2016-06-18T11:10:01.294Z</time></trkpt><trkpt lat="58.78215333" lon="14.99578167"><ele>93.0</ele><time>2016-06-18T11:10:02.300Z</time></trkpt><trkpt lat="58.78215333" lon="14.99578167"><ele>93.0</ele><time>2016-06-18T11:10:03.292Z</time></trkpt><trkpt lat="58.78202833" lon="14.99586833"><ele>93.0</ele><time>2016-06-18T11:10:04.315Z</time></trkpt><trkpt lat="58.78202833" lon="14.99586833"><ele>93.0</ele><time>2016-06-18T11:10:05.314Z</time></trkpt><trkpt lat="58.78190333" lon="14.99595333"><ele>93.0</ele><time>2016-06-18T11:10:06.321Z</time></trkpt><trkpt lat="58.78190333" lon="14.99595333"><ele>93.0</ele><time>2016-06-18T11:10:07.310Z</time></trkpt><trkpt lat="58.78178167" lon="14.99602333"><ele>94.0</ele><time>2016-06-18T11:10:08.306Z</time></trkpt><trkpt lat="58.78178167" lon="14.99602333"><ele>94.0</ele><time>2016-06-18T11:10:09.311Z</time></trkpt><trkpt lat="58.78165667" lon="14.9961"><ele>93.0</ele><time>2016-06-18T11:10:10.317Z</time></trkpt><trkpt lat="58.78165667" lon="14.9961"><ele>93.0</ele><time>2016-06-18T11:10:11.370Z</time></trkpt><trkpt lat="58.78152667" lon="14.996175"><ele>93.0</ele><time>2016-06-18T11:10:12.322Z</time></trkpt><trkpt lat="58.78145667" lon="14.99621333"><ele>94.0</ele><time>2016-06-18T11:10:13.297Z</time></trkpt><trkpt lat="58.78138167" lon="14.99625333"><ele>94.0</ele><time>2016-06-18T11:10:14.319Z</time></trkpt><trkpt lat="58.78138167" lon="14.99625333"><ele>94.0</ele><time>2016-06-18T11:10:15.304Z</time></trkpt><trkpt lat="58.781225" lon="14.99631833"><ele>95.0</ele><time>2016-06-18T11:10:16.310Z</time></trkpt><trkpt lat="58.781225" lon="14.99631833"><ele>95.0</ele><time>2016-06-18T11:10:17.296Z</time></trkpt><trkpt lat="58.78108167" lon="14.996385"><ele>95.0</ele><time>2016-06-18T11:10:18.300Z</time></trkpt><trkpt lat="58.78108167" lon="14.996385"><ele>95.0</ele><time>2016-06-18T11:10:19.307Z</time></trkpt><trkpt lat="58.78093667" lon="14.99645333"><ele>96.0</ele><time>2016-06-18T11:10:20.315Z</time></trkpt><trkpt lat="58.78093667" lon="14.99645333"><ele>96.0</ele><time>2016-06-18T11:10:21.282Z</time></trkpt><trkpt lat="58.780785" lon="14.99652333"><ele>96.0</ele><time>2016-06-18T11:10:22.288Z</time></trkpt><trkpt lat="58.78070833" lon="14.99655667"><ele>96.0</ele><time>2016-06-18T11:10:23.313Z</time></trkpt><trkpt lat="58.78070833" lon="14.99655667"><ele>96.0</ele><time>2016-06-18T11:10:24.295Z</time></trkpt><trkpt lat="58.780555" lon="14.996615"><ele>95.0</ele><time>2016-06-18T11:10:25.302Z</time></trkpt><trkpt lat="58.78048" lon="14.99664667"><ele>96.0</ele><time>2016-06-18T11:10:26.293Z</time></trkpt><trkpt lat="58.78048" lon="14.99664667"><ele>96.0</ele><time>2016-06-18T11:10:27.300Z</time></trkpt><trkpt lat="58.780325" lon="14.99670833"><ele>95.0</ele><time>2016-06-18T11:10:28.307Z</time></trkpt><trkpt lat="58.780325" lon="14.99670833"><ele>95.0</ele><time>2016-06-18T11:10:29.290Z</time></trkpt><trkpt lat="58.78016667" lon="14.996755"><ele>95.0</ele><time>2016-06-18T11:10:30.295Z</time></trkpt><trkpt lat="58.78016667" lon="14.996755"><ele>95.0</ele><time>2016-06-18T11:10:31.300Z</time></trkpt><trkpt lat="58.78000833" lon="14.99679833"><ele>95.0</ele><time>2016-06-18T11:10:32.313Z</time></trkpt><trkpt lat="58.78000833" lon="14.99679833"><ele>95.0</ele><time>2016-06-18T11:10:33.310Z</time></trkpt><trkpt lat="58.77984167" lon="14.99682667"><ele>94.0</ele><time>2016-06-18T11:10:34.294Z</time></trkpt><trkpt lat="58.77984167" lon="14.99682667"><ele>94.0</ele><time>2016-06-18T11:10:35.290Z</time></trkpt><trkpt lat="58.77967833" lon="14.99685667"><ele>94.0</ele><time>2016-06-18T11:10:36.296Z</time></trkpt><trkpt lat="58.77967833" lon="14.99685667"><ele>94.0</ele><time>2016-06-18T11:10:37.320Z</time></trkpt><trkpt lat="58.779515" lon="14.99689167"><ele>93.0</ele><time>2016-06-18T11:10:38.295Z</time></trkpt><trkpt lat="58.779515" lon="14.99689167"><ele>93.0</ele><time>2016-06-18T11:10:39.310Z</time></trkpt><trkpt lat="58.77935667" lon="14.99691833"><ele>93.0</ele><time>2016-06-18T11:10:40.317Z</time></trkpt><trkpt lat="58.77927667" lon="14.99692667"><ele>93.0</ele><time>2016-06-18T11:10:41.291Z</time></trkpt><trkpt lat="58.77927667" lon="14.99692667"><ele>93.0</ele><time>2016-06-18T11:10:42.290Z</time></trkpt><trkpt lat="58.77912167" lon="14.99694167"><ele>93.0</ele><time>2016-06-18T11:10:43.296Z</time></trkpt><trkpt lat="58.77904167" lon="14.996945"><ele>93.0</ele><time>2016-06-18T11:10:44.295Z</time></trkpt><trkpt lat="58.77904167" lon="14.996945"><ele>93.0</ele><time>2016-06-18T11:10:45.282Z</time></trkpt><trkpt lat="58.77888167" lon="14.996945"><ele>93.0</ele><time>2016-06-18T11:10:46.288Z</time></trkpt><trkpt lat="58.7788" lon="14.996945"><ele>93.0</ele><time>2016-06-18T11:10:47.313Z</time></trkpt><trkpt lat="58.7788" lon="14.996945"><ele>93.0</ele><time>2016-06-18T11:10:48.314Z</time></trkpt><trkpt lat="58.77863833" lon="14.99694333"><ele>93.0</ele><time>2016-06-18T11:10:49.283Z</time></trkpt><trkpt lat="58.77855833" lon="14.99694167"><ele>93.0</ele><time>2016-06-18T11:10:50.296Z</time></trkpt><trkpt lat="58.77855833" lon="14.99694167"><ele>93.0</ele><time>2016-06-18T11:10:51.320Z</time></trkpt><trkpt lat="58.77840333" lon="14.99693167"><ele>93.0</ele><time>2016-06-18T11:10:52.286Z</time></trkpt><trkpt lat="58.778325" lon="14.99692667"><ele>93.0</ele><time>2016-06-18T11:10:53.283Z</time></trkpt><trkpt lat="58.778325" lon="14.99692667"><ele>93.0</ele><time>2016-06-18T11:10:54.311Z</time></trkpt><trkpt lat="58.77817" lon="14.99691833"><ele>93.0</ele><time>2016-06-18T11:10:55.318Z</time></trkpt><trkpt lat="58.77809167" lon="14.99691167"><ele>92.0</ele><time>2016-06-18T11:10:56.311Z</time></trkpt><trkpt lat="58.77809167" lon="14.99691167"><ele>92.0</ele><time>2016-06-18T11:10:57.286Z</time></trkpt><trkpt lat="58.77793333" lon="14.99689167"><ele>92.0</ele><time>2016-06-18T11:10:58.293Z</time></trkpt><trkpt lat="58.777855" lon="14.99687833"><ele>93.0</ele><time>2016-06-18T11:10:59.318Z</time></trkpt><trkpt lat="58.777855" lon="14.99687833"><ele>93.0</ele><time>2016-06-18T11:11:00.320Z</time></trkpt><trkpt lat="58.77769667" lon="14.99685667"><ele>92.0</ele><time>2016-06-18T11:11:01.286Z</time></trkpt><trkpt lat="58.77761667" lon="14.99684833"><ele>92.0</ele><time>2016-06-18T11:11:02.286Z</time></trkpt><trkpt lat="58.77761667" lon="14.99684833"><ele>92.0</ele><time>2016-06-18T11:11:03.310Z</time></trkpt><trkpt lat="58.77745833" lon="14.99682333"><ele>92.0</ele><time>2016-06-18T11:11:04.317Z</time></trkpt><trkpt lat="58.77737833" lon="14.99680667"><ele>92.0</ele><time>2016-06-18T11:11:05.303Z</time></trkpt><trkpt lat="58.77737833" lon="14.99680667"><ele>92.0</ele><time>2016-06-18T11:11:06.317Z</time></trkpt><trkpt lat="58.77721833" lon="14.99677"><ele>92.0</ele><time>2016-06-18T11:11:07.283Z</time></trkpt><trkpt lat="58.77713667" lon="14.99675333"><ele>92.0</ele><time>2016-06-18T11:11:08.316Z</time></trkpt><trkpt lat="58.77713667" lon="14.99675333"><ele>92.0</ele><time>2016-06-18T11:11:09.320Z</time></trkpt><trkpt lat="58.77697833" lon="14.99672167"><ele>92.0</ele><time>2016-06-18T11:11:10.286Z</time></trkpt><trkpt lat="58.77697833" lon="14.99672167"><ele>92.0</ele><time>2016-06-18T11:11:11.366Z</time></trkpt><trkpt lat="58.77682167" lon="14.99668833"><ele>92.0</ele><time>2016-06-18T11:11:12.301Z</time></trkpt><trkpt lat="58.77674167" lon="14.99667167"><ele>92.0</ele><time>2016-06-18T11:11:13.301Z</time></trkpt><trkpt lat="58.77666333" lon="14.99665333"><ele>92.0</ele><time>2016-06-18T11:11:14.295Z</time></trkpt><trkpt lat="58.77666333" lon="14.99665333"><ele>92.0</ele><time>2016-06-18T11:11:15.320Z</time></trkpt><trkpt lat="58.77650833" lon="14.99660667"><ele>92.0</ele><time>2016-06-18T11:11:16.287Z</time></trkpt><trkpt lat="58.77650833" lon="14.99660667"><ele>92.0</ele><time>2016-06-18T11:11:17.310Z</time></trkpt><trkpt lat="58.776355" lon="14.99655667"><ele>92.0</ele><time>2016-06-18T11:11:18.285Z</time></trkpt><trkpt lat="58.776355" lon="14.99655667"><ele>92.0</ele><time>2016-06-18T11:11:19.286Z</time></trkpt><trkpt lat="58.7762" lon="14.99651"><ele>92.0</ele><time>2016-06-18T11:11:20.294Z</time></trkpt><trkpt lat="58.7762" lon="14.99651"><ele>92.0</ele><time>2016-06-18T11:11:21.298Z</time></trkpt><trkpt lat="58.77604833" lon="14.99645833"><ele>92.0</ele><time>2016-06-18T11:11:22.300Z</time></trkpt><trkpt lat="58.77604833" lon="14.99645833"><ele>92.0</ele><time>2016-06-18T11:11:23.284Z</time></trkpt><trkpt lat="58.77590333" lon="14.99640833"><ele>92.0</ele><time>2016-06-18T11:11:24.290Z</time></trkpt><trkpt lat="58.775835" lon="14.99637833"><ele>92.0</ele><time>2016-06-18T11:11:25.296Z</time></trkpt><trkpt lat="58.775835" lon="14.99637833"><ele>92.0</ele><time>2016-06-18T11:11:26.295Z</time></trkpt><trkpt lat="58.77570333" lon="14.99632"><ele>92.0</ele><time>2016-06-18T11:11:27.303Z</time></trkpt><trkpt lat="58.77563667" lon="14.99629"><ele>92.0</ele><time>2016-06-18T11:11:28.287Z</time></trkpt><trkpt lat="58.77563667" lon="14.99629"><ele>92.0</ele><time>2016-06-18T11:11:29.305Z</time></trkpt><trkpt lat="58.77550833" lon="14.99623833"><ele>93.0</ele><time>2016-06-18T11:11:30.312Z</time></trkpt><trkpt lat="58.77544167" lon="14.99621167"><ele>93.0</ele><time>2016-06-18T11:11:31.295Z</time></trkpt><trkpt lat="58.77544167" lon="14.99621167"><ele>93.0</ele><time>2016-06-18T11:11:32.311Z</time></trkpt><trkpt lat="58.77531" lon="14.99615833"><ele>94.0</ele><time>2016-06-18T11:11:33.293Z</time></trkpt><trkpt lat="58.77531" lon="14.99615833"><ele>94.0</ele><time>2016-06-18T11:11:34.318Z</time></trkpt><trkpt lat="58.77517667" lon="14.99609"><ele>94.0</ele><time>2016-06-18T11:11:35.312Z</time></trkpt><trkpt lat="58.77517667" lon="14.99609"><ele>94.0</ele><time>2016-06-18T11:11:36.315Z</time></trkpt><trkpt lat="58.77504167" lon="14.99602333"><ele>94.0</ele><time>2016-06-18T11:11:37.321Z</time></trkpt><trkpt lat="58.77497" lon="14.99598667"><ele>94.0</ele><time>2016-06-18T11:11:38.294Z</time></trkpt><trkpt lat="58.77497" lon="14.99598667"><ele>94.0</ele><time>2016-06-18T11:11:39.283Z</time></trkpt><trkpt lat="58.77482833" lon="14.99591333"><ele>94.0</ele><time>2016-06-18T11:11:40.291Z</time></trkpt><trkpt lat="58.77475833" lon="14.99588"><ele>94.0</ele><time>2016-06-18T11:11:41.295Z</time></trkpt><trkpt lat="58.77475833" lon="14.99588"><ele>94.0</ele><time>2016-06-18T11:11:42.312Z</time></trkpt><trkpt lat="58.77462333" lon="14.99581833"><ele>95.0</ele><time>2016-06-18T11:11:43.284Z</time></trkpt><trkpt lat="58.77462333" lon="14.99581833"><ele>95.0</ele><time>2016-06-18T11:11:44.313Z</time></trkpt><trkpt lat="58.77462333" lon="14.99581833"><ele>95.0</ele><time>2016-06-18T11:11:45.346Z</time></trkpt><trkpt lat="58.77448167" lon="14.99575333"><ele>94.0</ele><time>2016-06-18T11:11:46.318Z</time></trkpt><trkpt lat="58.77434" lon="14.99569"><ele>94.0</ele><time>2016-06-18T11:11:47.285Z</time></trkpt><trkpt lat="58.77434" lon="14.99569"><ele>94.0</ele><time>2016-06-18T11:11:48.310Z</time></trkpt><trkpt lat="58.7742" lon="14.99562833"><ele>93.0</ele><time>2016-06-18T11:11:49.302Z</time></trkpt><trkpt lat="58.77413" lon="14.9956"><ele>93.0</ele><time>2016-06-18T11:11:50.299Z</time></trkpt><trkpt lat="58.77413" lon="14.9956"><ele>93.0</ele><time>2016-06-18T11:11:51.285Z</time></trkpt><trkpt lat="58.77399167" lon="14.99553833"><ele>93.0</ele><time>2016-06-18T11:11:52.302Z</time></trkpt><trkpt lat="58.77392333" lon="14.99551"><ele>93.0</ele><time>2016-06-18T11:11:53.297Z</time></trkpt><trkpt lat="58.77392333" lon="14.99551"><ele>93.0</ele><time>2016-06-18T11:11:54.321Z</time></trkpt><trkpt lat="58.77379167" lon="14.99545833"><ele>93.0</ele><time>2016-06-18T11:11:55.288Z</time></trkpt><trkpt lat="58.77372833" lon="14.995435"><ele>93.0</ele><time>2016-06-18T11:11:56.315Z</time></trkpt><trkpt lat="58.77372833" lon="14.995435"><ele>93.0</ele><time>2016-06-18T11:11:57.285Z</time></trkpt><trkpt lat="58.77360667" lon="14.995385"><ele>93.0</ele><time>2016-06-18T11:11:58.292Z</time></trkpt><trkpt lat="58.77360667" lon="14.995385"><ele>93.0</ele><time>2016-06-18T11:11:59.320Z</time></trkpt><trkpt lat="58.77348333" lon="14.995325"><ele>94.0</ele><time>2016-06-18T11:12:00.284Z</time></trkpt><trkpt lat="58.77348333" lon="14.995325"><ele>94.0</ele><time>2016-06-18T11:12:01.320Z</time></trkpt><trkpt lat="58.773365" lon="14.995275"><ele>94.0</ele><time>2016-06-18T11:12:02.286Z</time></trkpt><trkpt lat="58.773365" lon="14.995275"><ele>94.0</ele><time>2016-06-18T11:12:03.282Z</time></trkpt><trkpt lat="58.77325167" lon="14.995225"><ele>95.0</ele><time>2016-06-18T11:12:04.290Z</time></trkpt><trkpt lat="58.77319667" lon="14.9952"><ele>95.0</ele><time>2016-06-18T11:12:05.285Z</time></trkpt><trkpt lat="58.77319667" lon="14.9952"><ele>95.0</ele><time>2016-06-18T11:12:06.319Z</time></trkpt><trkpt lat="58.773095" lon="14.99515333"><ele>96.0</ele><time>2016-06-18T11:12:07.286Z</time></trkpt><trkpt lat="58.77304" lon="14.99513"><ele>97.0</ele><time>2016-06-18T11:12:08.308Z</time></trkpt><trkpt lat="58.77304" lon="14.99513"><ele>97.0</ele><time>2016-06-18T11:12:09.290Z</time></trkpt><trkpt lat="58.77293667" lon="14.99508833"><ele>98.0</ele><time>2016-06-18T11:12:10.315Z</time></trkpt><trkpt lat="58.77293667" lon="14.99508833"><ele>98.0</ele><time>2016-06-18T11:12:11.377Z</time></trkpt><trkpt lat="58.77284" lon="14.99504167"><ele>99.0</ele><time>2016-06-18T11:12:12.349Z</time></trkpt><trkpt lat="58.77284" lon="14.99504167"><ele>99.0</ele><time>2016-06-18T11:12:13.309Z</time></trkpt><trkpt lat="58.77274167" lon="14.99500167"><ele>100.0</ele><time>2016-06-18T11:12:14.294Z</time></trkpt><trkpt lat="58.77274167" lon="14.99500167"><ele>100.0</ele><time>2016-06-18T11:12:15.318Z</time></trkpt><trkpt lat="58.77265" lon="14.99496167"><ele>101.0</ele><time>2016-06-18T11:12:16.284Z</time></trkpt><trkpt lat="58.77265" lon="14.99496167"><ele>101.0</ele><time>2016-06-18T11:12:17.320Z</time></trkpt><trkpt lat="58.77256" lon="14.99492833"><ele>102.0</ele><time>2016-06-18T11:12:18.316Z</time></trkpt><trkpt lat="58.77256" lon="14.99492833"><ele>102.0</ele><time>2016-06-18T11:12:19.307Z</time></trkpt><trkpt lat="58.77247167" lon="14.99489333"><ele>102.0</ele><time>2016-06-18T11:12:20.297Z</time></trkpt><trkpt lat="58.77247167" lon="14.99489333"><ele>102.0</ele><time>2016-06-18T11:12:21.310Z</time></trkpt><trkpt lat="58.77238167" lon="14.99485333"><ele>102.0</ele><time>2016-06-18T11:12:22.318Z</time></trkpt><trkpt lat="58.77234" lon="14.99483167"><ele>102.0</ele><time>2016-06-18T11:12:23.302Z</time></trkpt><trkpt lat="58.77234" lon="14.99483167"><ele>102.0</ele><time>2016-06-18T11:12:24.314Z</time></trkpt><trkpt lat="58.77226" lon="14.99479833"><ele>102.0</ele><time>2016-06-18T11:12:25.320Z</time></trkpt><trkpt lat="58.77222" lon="14.994775"><ele>102.0</ele><time>2016-06-18T11:12:26.292Z</time></trkpt><trkpt lat="58.77222" lon="14.994775"><ele>102.0</ele><time>2016-06-18T11:12:27.295Z</time></trkpt><trkpt lat="58.77214333" lon="14.99475"><ele>103.0</ele><time>2016-06-18T11:12:28.302Z</time></trkpt><trkpt lat="58.77214333" lon="14.99475"><ele>103.0</ele><time>2016-06-18T11:12:29.287Z</time></trkpt><trkpt lat="58.772065" lon="14.99471833"><ele>104.0</ele><time>2016-06-18T11:12:30.306Z</time></trkpt><trkpt lat="58.772065" lon="14.99471833"><ele>104.0</ele><time>2016-06-18T11:12:31.312Z</time></trkpt><trkpt lat="58.77198833" lon="14.99468167"><ele>104.0</ele><time>2016-06-18T11:12:32.320Z</time></trkpt><trkpt lat="58.77198833" lon="14.99468167"><ele>104.0</ele><time>2016-06-18T11:12:33.303Z</time></trkpt><trkpt lat="58.77191" lon="14.994645"><ele>105.0</ele><time>2016-06-18T11:12:34.312Z</time></trkpt><trkpt lat="58.77191" lon="14.994645"><ele>105.0</ele><time>2016-06-18T11:12:35.308Z</time></trkpt><trkpt lat="58.77183333" lon="14.99460833"><ele>105.0</ele><time>2016-06-18T11:12:36.318Z</time></trkpt><trkpt lat="58.77183333" lon="14.99460833"><ele>105.0</ele><time>2016-06-18T11:12:37.302Z</time></trkpt><trkpt lat="58.77175833" lon="14.99457833"><ele>105.0</ele><time>2016-06-18T11:12:38.316Z</time></trkpt><trkpt lat="58.77175833" lon="14.99457833"><ele>105.0</ele><time>2016-06-18T11:12:39.292Z</time></trkpt><trkpt lat="58.771685" lon="14.99454167"><ele>105.0</ele><time>2016-06-18T11:12:40.299Z</time></trkpt><trkpt lat="58.77165" lon="14.99452667"><ele>105.0</ele><time>2016-06-18T11:12:41.314Z</time></trkpt><trkpt lat="58.77165" lon="14.99452667"><ele>105.0</ele><time>2016-06-18T11:12:42.297Z</time></trkpt><trkpt lat="58.77157833" lon="14.99449333"><ele>105.0</ele><time>2016-06-18T11:12:43.303Z</time></trkpt><trkpt lat="58.77154333" lon="14.99448"><ele>105.0</ele><time>2016-06-18T11:12:44.303Z</time></trkpt><trkpt lat="58.77154333" lon="14.99448"><ele>105.0</ele><time>2016-06-18T11:12:45.300Z</time></trkpt><trkpt lat="58.77147333" lon="14.994455"><ele>105.0</ele><time>2016-06-18T11:12:46.307Z</time></trkpt><trkpt lat="58.77147333" lon="14.994455"><ele>105.0</ele><time>2016-06-18T11:12:47.290Z</time></trkpt><trkpt lat="58.77139667" lon="14.99442167"><ele>105.0</ele><time>2016-06-18T11:12:48.295Z</time></trkpt><trkpt lat="58.77139667" lon="14.99442167"><ele>105.0</ele><time>2016-06-18T11:12:49.317Z</time></trkpt><trkpt lat="58.77132167" lon="14.99438667"><ele>106.0</ele><time>2016-06-18T11:12:50.313Z</time></trkpt><trkpt lat="58.771285" lon="14.99436833"><ele>106.0</ele><time>2016-06-18T11:12:51.313Z</time></trkpt><trkpt lat="58.771285" lon="14.99436833"><ele>106.0</ele><time>2016-06-18T11:12:52.303Z</time></trkpt><trkpt lat="58.77121333" lon="14.99432667"><ele>107.0</ele><time>2016-06-18T11:12:53.312Z</time></trkpt><trkpt lat="58.77117833" lon="14.994305"><ele>107.0</ele><time>2016-06-18T11:12:54.296Z</time></trkpt><trkpt lat="58.77117833" lon="14.994305"><ele>107.0</ele><time>2016-06-18T11:12:55.292Z</time></trkpt><trkpt lat="58.77110667" lon="14.99426333"><ele>108.0</ele><time>2016-06-18T11:12:56.302Z</time></trkpt><trkpt lat="58.77110667" lon="14.99426333"><ele>108.0</ele><time>2016-06-18T11:12:57.313Z</time></trkpt><trkpt lat="58.77103667" lon="14.99422667"><ele>109.0</ele><time>2016-06-18T11:12:58.319Z</time></trkpt><trkpt lat="58.77103667" lon="14.99422667"><ele>109.0</ele><time>2016-06-18T11:12:59.303Z</time></trkpt><trkpt lat="58.77096167" lon="14.99419167"><ele>109.0</ele><time>2016-06-18T11:13:00.282Z</time></trkpt><trkpt lat="58.77092333" lon="14.994175"><ele>109.0</ele><time>2016-06-18T11:13:01.320Z</time></trkpt><trkpt lat="58.77088667" lon="14.99415667"><ele>109.0</ele><time>2016-06-18T11:13:02.304Z</time></trkpt><trkpt lat="58.77088667" lon="14.99415667"><ele>109.0</ele><time>2016-06-18T11:13:03.289Z</time></trkpt><trkpt lat="58.77081167" lon="14.99412667"><ele>110.0</ele><time>2016-06-18T11:13:04.297Z</time></trkpt><trkpt lat="58.77081167" lon="14.99412667"><ele>110.0</ele><time>2016-06-18T11:13:05.290Z</time></trkpt><trkpt lat="58.77073833" lon="14.9941"><ele>110.0</ele><time>2016-06-18T11:13:06.291Z</time></trkpt><trkpt lat="58.77073833" lon="14.9941"><ele>110.0</ele><time>2016-06-18T11:13:07.310Z</time></trkpt><trkpt lat="58.77066667" lon="14.99407833"><ele>111.0</ele><time>2016-06-18T11:13:08.319Z</time></trkpt><trkpt lat="58.77066667" lon="14.99407833"><ele>111.0</ele><time>2016-06-18T11:13:09.302Z</time></trkpt><trkpt lat="58.770595" lon="14.994055"><ele>112.0</ele><time>2016-06-18T11:13:10.285Z</time></trkpt><trkpt lat="58.770595" lon="14.994055"><ele>112.0</ele><time>2016-06-18T11:13:11.376Z</time></trkpt><trkpt lat="58.77052167" lon="14.99403"><ele>113.0</ele><time>2016-06-18T11:13:12.290Z</time></trkpt><trkpt lat="58.770485" lon="14.99401833"><ele>114.0</ele><time>2016-06-18T11:13:13.315Z</time></trkpt><trkpt lat="58.77044833" lon="14.99400333"><ele>114.0</ele><time>2016-06-18T11:13:14.282Z</time></trkpt><trkpt lat="58.77044833" lon="14.99400333"><ele>114.0</ele><time>2016-06-18T11:13:15.307Z</time></trkpt><trkpt lat="58.77037667" lon="14.993985"><ele>115.0</ele><time>2016-06-18T11:13:16.314Z</time></trkpt><trkpt lat="58.77037667" lon="14.993985"><ele>115.0</ele><time>2016-06-18T11:13:17.299Z</time></trkpt><trkpt lat="58.770305" lon="14.99396333"><ele>115.0</ele><time>2016-06-18T11:13:18.292Z</time></trkpt><trkpt lat="58.770305" lon="14.99396333"><ele>115.0</ele><time>2016-06-18T11:13:19.287Z</time></trkpt><trkpt lat="58.770235" lon="14.993945"><ele>116.0</ele><time>2016-06-18T11:13:20.294Z</time></trkpt><trkpt lat="58.77019833" lon="14.993935"><ele>115.0</ele><time>2016-06-18T11:13:21.311Z</time></trkpt><trkpt lat="58.77019833" lon="14.993935"><ele>115.0</ele><time>2016-06-18T11:13:22.300Z</time></trkpt><trkpt lat="58.77012667" lon="14.99391"><ele>116.0</ele><time>2016-06-18T11:13:23.320Z</time></trkpt><trkpt lat="58.77012667" lon="14.99391"><ele>116.0</ele><time>2016-06-18T11:13:24.303Z</time></trkpt><trkpt lat="58.77005333" lon="14.99388167"><ele>116.0</ele><time>2016-06-18T11:13:25.317Z</time></trkpt><trkpt lat="58.77001833" lon="14.99386833"><ele>116.0</ele><time>2016-06-18T11:13:26.322Z</time></trkpt><trkpt lat="58.77001833" lon="14.99386833"><ele>116.0</ele><time>2016-06-18T11:13:27.312Z</time></trkpt><trkpt lat="58.76994333" lon="14.99384167"><ele>116.0</ele><time>2016-06-18T11:13:28.319Z</time></trkpt><trkpt lat="58.769905" lon="14.99382167"><ele>116.0</ele><time>2016-06-18T11:13:29.287Z</time></trkpt><trkpt lat="58.769905" lon="14.99382167"><ele>116.0</ele><time>2016-06-18T11:13:30.321Z</time></trkpt><trkpt lat="58.76983167" lon="14.99378833"><ele>116.0</ele><time>2016-06-18T11:13:31.300Z</time></trkpt><trkpt lat="58.769795" lon="14.99377833"><ele>116.0</ele><time>2016-06-18T11:13:32.297Z</time></trkpt><trkpt lat="58.769795" lon="14.99377833"><ele>116.0</ele><time>2016-06-18T11:13:33.289Z</time></trkpt><trkpt lat="58.76972333" lon="14.99375"><ele>117.0</ele><time>2016-06-18T11:13:34.304Z</time></trkpt><trkpt lat="58.76972333" lon="14.99375"><ele>117.0</ele><time>2016-06-18T11:13:35.293Z</time></trkpt><trkpt lat="58.769655" lon="14.99373333"><ele>118.0</ele><time>2016-06-18T11:13:36.299Z</time></trkpt><trkpt lat="58.769655" lon="14.99373333"><ele>118.0</ele><time>2016-06-18T11:13:37.284Z</time></trkpt><trkpt lat="58.769585" lon="14.99371833"><ele>118.0</ele><time>2016-06-18T11:13:38.301Z</time></trkpt><trkpt lat="58.769585" lon="14.99371833"><ele>118.0</ele><time>2016-06-18T11:13:39.310Z</time></trkpt><trkpt lat="58.76951833" lon="14.99370833"><ele>119.0</ele><time>2016-06-18T11:13:40.317Z</time></trkpt><trkpt lat="58.76948333" lon="14.99369667"><ele>119.0</ele><time>2016-06-18T11:13:41.322Z</time></trkpt><trkpt lat="58.76948333" lon="14.99369667"><ele>119.0</ele><time>2016-06-18T11:13:42.316Z</time></trkpt><trkpt lat="58.769415" lon="14.99368667"><ele>119.0</ele><time>2016-06-18T11:13:43.284Z</time></trkpt><trkpt lat="58.76938167" lon="14.99368167"><ele>119.0</ele><time>2016-06-18T11:13:44.294Z</time></trkpt><trkpt lat="58.76938167" lon="14.99368167"><ele>119.0</ele><time>2016-06-18T11:13:45.289Z</time></trkpt><trkpt lat="58.76931167" lon="14.99366667"><ele>119.0</ele><time>2016-06-18T11:13:46.296Z</time></trkpt><trkpt lat="58.76928" lon="14.99366333"><ele>119.0</ele><time>2016-06-18T11:13:47.320Z</time></trkpt><trkpt lat="58.76928" lon="14.99366333"><ele>119.0</ele><time>2016-06-18T11:13:48.283Z</time></trkpt><trkpt lat="58.769215" lon="14.99365167"><ele>119.0</ele><time>2016-06-18T11:13:49.301Z</time></trkpt><trkpt lat="58.76917667" lon="14.99364"><ele>119.0</ele><time>2016-06-18T11:13:50.317Z</time></trkpt><trkpt lat="58.76917667" lon="14.99364"><ele>119.0</ele><time>2016-06-18T11:13:51.302Z</time></trkpt><trkpt lat="58.76910667" lon="14.99362333"><ele>120.0</ele><time>2016-06-18T11:13:52.309Z</time></trkpt><trkpt lat="58.769075" lon="14.99361667"><ele>120.0</ele><time>2016-06-18T11:13:53.310Z</time></trkpt><trkpt lat="58.769075" lon="14.99361667"><ele>120.0</ele><time>2016-06-18T11:13:54.298Z</time></trkpt><trkpt lat="58.76900333" lon="14.9936"><ele>120.0</ele><time>2016-06-18T11:13:55.323Z</time></trkpt><trkpt lat="58.76896667" lon="14.99358833"><ele>120.0</ele><time>2016-06-18T11:13:56.315Z</time></trkpt><trkpt lat="58.76896667" lon="14.99358833"><ele>120.0</ele><time>2016-06-18T11:13:57.299Z</time></trkpt><trkpt lat="58.76888833" lon="14.99356"><ele>121.0</ele><time>2016-06-18T11:13:58.310Z</time></trkpt><trkpt lat="58.76888833" lon="14.99356"><ele>121.0</ele><time>2016-06-18T11:13:59.313Z</time></trkpt><trkpt lat="58.768805" lon="14.993525"><ele>122.0</ele><time>2016-06-18T11:14:00.285Z</time></trkpt><trkpt lat="58.76876" lon="14.99352"><ele>122.0</ele><time>2016-06-18T11:14:01.300Z</time></trkpt><trkpt lat="58.76876" lon="14.99352"><ele>122.0</ele><time>2016-06-18T11:14:02.320Z</time></trkpt><trkpt lat="58.76868333" lon="14.99351333"><ele>123.0</ele><time>2016-06-18T11:14:03.291Z</time></trkpt><trkpt lat="58.76868333" lon="14.99351333"><ele>123.0</ele><time>2016-06-18T11:14:04.316Z</time></trkpt><trkpt lat="58.768605" lon="14.99349667"><ele>124.0</ele><time>2016-06-18T11:14:05.295Z</time></trkpt><trkpt lat="58.768605" lon="14.99349667"><ele>124.0</ele><time>2016-06-18T11:14:06.282Z</time></trkpt><trkpt lat="58.76852167" lon="14.99348"><ele>124.0</ele><time>2016-06-18T11:14:07.289Z</time></trkpt><trkpt lat="58.768485" lon="14.99347333"><ele>124.0</ele><time>2016-06-18T11:14:08.308Z</time></trkpt><trkpt lat="58.768485" lon="14.99347333"><ele>124.0</ele><time>2016-06-18T11:14:09.303Z</time></trkpt><trkpt lat="58.76841" lon="14.993455"><ele>124.0</ele><time>2016-06-18T11:14:10.312Z</time></trkpt><trkpt lat="58.76841" lon="14.993455"><ele>124.0</ele><time>2016-06-18T11:14:11.378Z</time></trkpt><trkpt lat="58.76834" lon="14.993445"><ele>125.0</ele><time>2016-06-18T11:14:12.288Z</time></trkpt><trkpt lat="58.76830167" lon="14.99343667"><ele>125.0</ele><time>2016-06-18T11:14:13.315Z</time></trkpt><trkpt lat="58.76826167" lon="14.99342667"><ele>125.0</ele><time>2016-06-18T11:14:14.296Z</time></trkpt><trkpt lat="58.76826167" lon="14.99342667"><ele>125.0</ele><time>2016-06-18T11:14:15.303Z</time></trkpt><trkpt lat="58.76817833" lon="14.99340833"><ele>125.0</ele><time>2016-06-18T11:14:16.309Z</time></trkpt><trkpt lat="58.76817833" lon="14.99340833"><ele>125.0</ele><time>2016-06-18T11:14:17.293Z</time></trkpt><trkpt lat="58.76809833" lon="14.99339333"><ele>125.0</ele><time>2016-06-18T11:14:18.299Z</time></trkpt><trkpt lat="58.76809833" lon="14.99339333"><ele>125.0</ele><time>2016-06-18T11:14:19.311Z</time></trkpt><trkpt lat="58.76801333" lon="14.99338"><ele>126.0</ele><time>2016-06-18T11:14:20.283Z</time></trkpt><trkpt lat="58.76801333" lon="14.99338"><ele>126.0</ele><time>2016-06-18T11:14:21.308Z</time></trkpt><trkpt lat="58.76793" lon="14.99336833"><ele>126.0</ele><time>2016-06-18T11:14:22.295Z</time></trkpt><trkpt lat="58.76793" lon="14.99336833"><ele>126.0</ele><time>2016-06-18T11:14:23.320Z</time></trkpt><trkpt lat="58.76784167" lon="14.99335333"><ele>127.0</ele><time>2016-06-18T11:14:24.286Z</time></trkpt><trkpt lat="58.76784167" lon="14.99335333"><ele>127.0</ele><time>2016-06-18T11:14:25.316Z</time></trkpt><trkpt lat="58.76775333" lon="14.993335"><ele>127.0</ele><time>2016-06-18T11:14:26.302Z</time></trkpt><trkpt lat="58.76775333" lon="14.993335"><ele>127.0</ele><time>2016-06-18T11:14:27.308Z</time></trkpt><trkpt lat="58.76766167" lon="14.99332167"><ele>127.0</ele><time>2016-06-18T11:14:28.315Z</time></trkpt><trkpt lat="58.76766167" lon="14.99332167"><ele>127.0</ele><time>2016-06-18T11:14:29.300Z</time></trkpt><trkpt lat="58.76756833" lon="14.99330667"><ele>128.0</ele><time>2016-06-18T11:14:30.300Z</time></trkpt><trkpt lat="58.76756833" lon="14.99330667"><ele>128.0</ele><time>2016-06-18T11:14:31.311Z</time></trkpt><trkpt lat="58.76746667" lon="14.99329167"><ele>128.0</ele><time>2016-06-18T11:14:32.319Z</time></trkpt><trkpt lat="58.76746667" lon="14.99329167"><ele>128.0</ele><time>2016-06-18T11:14:33.302Z</time></trkpt><trkpt lat="58.76737167" lon="14.99328167"><ele>127.0</ele><time>2016-06-18T11:14:34.295Z</time></trkpt><trkpt lat="58.76737167" lon="14.99328167"><ele>127.0</ele><time>2016-06-18T11:14:35.307Z</time></trkpt><trkpt lat="58.76727833" lon="14.993265"><ele>127.0</ele><time>2016-06-18T11:14:36.314Z</time></trkpt><trkpt lat="58.76723" lon="14.99325833"><ele>128.0</ele><time>2016-06-18T11:14:37.306Z</time></trkpt><trkpt lat="58.76723" lon="14.99325833"><ele>128.0</ele><time>2016-06-18T11:14:38.287Z</time></trkpt><trkpt lat="58.76712833" lon="14.99325"><ele>128.0</ele><time>2016-06-18T11:14:39.294Z</time></trkpt><trkpt lat="58.76708167" lon="14.99324167"><ele>128.0</ele><time>2016-06-18T11:14:40.295Z</time></trkpt><trkpt lat="58.76708167" lon="14.99324167"><ele>128.0</ele><time>2016-06-18T11:14:41.321Z</time></trkpt><trkpt lat="58.76698833" lon="14.993225"><ele>128.0</ele><time>2016-06-18T11:14:42.287Z</time></trkpt><trkpt lat="58.76693833" lon="14.99321667"><ele>128.0</ele><time>2016-06-18T11:14:43.317Z</time></trkpt><trkpt lat="58.76693833" lon="14.99321667"><ele>128.0</ele><time>2016-06-18T11:14:44.301Z</time></trkpt><trkpt lat="58.76683833" lon="14.99320167"><ele>129.0</ele><time>2016-06-18T11:14:45.320Z</time></trkpt><trkpt lat="58.76683833" lon="14.99320167"><ele>129.0</ele><time>2016-06-18T11:14:46.309Z</time></trkpt><trkpt lat="58.76673333" lon="14.99317667"><ele>129.0</ele><time>2016-06-18T11:14:47.317Z</time></trkpt><trkpt lat="58.76673333" lon="14.99317667"><ele>129.0</ele><time>2016-06-18T11:14:48.290Z</time></trkpt><trkpt lat="58.76662" lon="14.99314667"><ele>130.0</ele><time>2016-06-18T11:14:49.306Z</time></trkpt><trkpt lat="58.76662" lon="14.99314667"><ele>130.0</ele><time>2016-06-18T11:14:50.308Z</time></trkpt><trkpt lat="58.76651667" lon="14.99312167"><ele>130.0</ele><time>2016-06-18T11:14:51.316Z</time></trkpt><trkpt lat="58.76647167" lon="14.99311"><ele>130.0</ele><time>2016-06-18T11:14:52.307Z</time></trkpt><trkpt lat="58.76647167" lon="14.99311"><ele>130.0</ele><time>2016-06-18T11:14:53.310Z</time></trkpt><trkpt lat="58.76636333" lon="14.99309"><ele>131.0</ele><time>2016-06-18T11:14:54.320Z</time></trkpt><trkpt lat="58.766305" lon="14.99308"><ele>131.0</ele><time>2016-06-18T11:14:55.294Z</time></trkpt><trkpt lat="58.766305" lon="14.99308"><ele>131.0</ele><time>2016-06-18T11:14:56.290Z</time></trkpt><trkpt lat="58.76619833" lon="14.99306"><ele>132.0</ele><time>2016-06-18T11:14:57.297Z</time></trkpt><trkpt lat="58.76619833" lon="14.99306"><ele>132.0</ele><time>2016-06-18T11:14:58.321Z</time></trkpt><trkpt lat="58.76608667" lon="14.99304"><ele>132.0</ele><time>2016-06-18T11:14:59.316Z</time></trkpt><trkpt lat="58.76608667" lon="14.99304"><ele>132.0</ele><time>2016-06-18T11:15:00.317Z</time></trkpt><trkpt lat="58.76598167" lon="14.99302"><ele>133.0</ele><time>2016-06-18T11:15:01.283Z</time></trkpt><trkpt lat="58.76592333" lon="14.99299167"><ele>133.0</ele><time>2016-06-18T11:15:02.318Z</time></trkpt><trkpt lat="58.76592333" lon="14.99299167"><ele>133.0</ele><time>2016-06-18T11:15:03.314Z</time></trkpt><trkpt lat="58.76580667" lon="14.992965"><ele>133.0</ele><time>2016-06-18T11:15:04.320Z</time></trkpt><trkpt lat="58.76580667" lon="14.992965"><ele>133.0</ele><time>2016-06-18T11:15:05.301Z</time></trkpt><trkpt lat="58.765675" lon="14.99297833"><ele>134.0</ele><time>2016-06-18T11:15:06.313Z</time></trkpt><trkpt lat="58.765675" lon="14.99297833"><ele>134.0</ele><time>2016-06-18T11:15:07.286Z</time></trkpt><trkpt lat="58.76554333" lon="14.99294833"><ele>134.0</ele><time>2016-06-18T11:15:08.293Z</time></trkpt><trkpt lat="58.76554333" lon="14.99294833"><ele>134.0</ele><time>2016-06-18T11:15:09.315Z</time></trkpt><trkpt lat="58.76543167" lon="14.99289333"><ele>132.0</ele><time>2016-06-18T11:15:10.306Z</time></trkpt><trkpt lat="58.76543167" lon="14.99289333"><ele>132.0</ele><time>2016-06-18T11:15:11.384Z</time></trkpt><trkpt lat="58.76530667" lon="14.99285833"><ele>132.0</ele><time>2016-06-18T11:15:12.305Z</time></trkpt><trkpt lat="58.765245" lon="14.99284"><ele>132.0</ele><time>2016-06-18T11:15:13.287Z</time></trkpt><trkpt lat="58.765245" lon="14.99284"><ele>132.0</ele><time>2016-06-18T11:15:14.312Z</time></trkpt><trkpt lat="58.765115" lon="14.99281167"><ele>131.0</ele><time>2016-06-18T11:15:15.320Z</time></trkpt><trkpt lat="58.765115" lon="14.99281167"><ele>131.0</ele><time>2016-06-18T11:15:16.308Z</time></trkpt><trkpt lat="58.76498667" lon="14.99279167"><ele>130.0</ele><time>2016-06-18T11:15:17.313Z</time></trkpt><trkpt lat="58.76498667" lon="14.99279167"><ele>130.0</ele><time>2016-06-18T11:15:18.320Z</time></trkpt><trkpt lat="58.76485167" lon="14.99276333"><ele>129.0</ele><time>2016-06-18T11:15:19.286Z</time></trkpt><trkpt lat="58.76478167" lon="14.99275"><ele>129.0</ele><time>2016-06-18T11:15:20.300Z</time></trkpt><trkpt lat="58.76478167" lon="14.99275"><ele>129.0</ele><time>2016-06-18T11:15:21.291Z</time></trkpt><trkpt lat="58.76463333" lon="14.99272167"><ele>129.0</ele><time>2016-06-18T11:15:22.298Z</time></trkpt><trkpt lat="58.76463333" lon="14.99272167"><ele>129.0</ele><time>2016-06-18T11:15:23.321Z</time></trkpt><trkpt lat="58.76447833" lon="14.992695"><ele>128.0</ele><time>2016-06-18T11:15:24.287Z</time></trkpt><trkpt lat="58.76447833" lon="14.992695"><ele>128.0</ele><time>2016-06-18T11:15:25.314Z</time></trkpt><trkpt lat="58.76431833" lon="14.99266833"><ele>128.0</ele><time>2016-06-18T11:15:26.296Z</time></trkpt><trkpt lat="58.76423333" lon="14.99265"><ele>128.0</ele><time>2016-06-18T11:15:27.302Z</time></trkpt><trkpt lat="58.76423333" lon="14.99265"><ele>128.0</ele><time>2016-06-18T11:15:28.285Z</time></trkpt><trkpt lat="58.76406333" lon="14.99262167"><ele>127.0</ele><time>2016-06-18T11:15:29.304Z</time></trkpt><trkpt lat="58.76406333" lon="14.99262167"><ele>127.0</ele><time>2016-06-18T11:15:30.311Z</time></trkpt><trkpt lat="58.76389167" lon="14.99259667"><ele>127.0</ele><time>2016-06-18T11:15:31.320Z</time></trkpt><trkpt lat="58.763805" lon="14.99258167"><ele>127.0</ele><time>2016-06-18T11:15:32.313Z</time></trkpt><trkpt lat="58.76371667" lon="14.99256333"><ele>127.0</ele><time>2016-06-18T11:15:33.319Z</time></trkpt><trkpt lat="58.76371667" lon="14.99256333"><ele>127.0</ele><time>2016-06-18T11:15:34.303Z</time></trkpt><trkpt lat="58.76354833" lon="14.99255"><ele>127.0</ele><time>2016-06-18T11:15:35.316Z</time></trkpt><trkpt lat="58.76354833" lon="14.99255"><ele>127.0</ele><time>2016-06-18T11:15:36.299Z</time></trkpt><trkpt lat="58.76338167" lon="14.99253667"><ele>128.0</ele><time>2016-06-18T11:15:37.295Z</time></trkpt><trkpt lat="58.76338167" lon="14.99253667"><ele>128.0</ele><time>2016-06-18T11:15:38.314Z</time></trkpt><trkpt lat="58.76321167" lon="14.99253667"><ele>128.0</ele><time>2016-06-18T11:15:39.283Z</time></trkpt><trkpt lat="58.76311833" lon="14.99253"><ele>128.0</ele><time>2016-06-18T11:15:40.312Z</time></trkpt><trkpt lat="58.76311833" lon="14.99253"><ele>128.0</ele><time>2016-06-18T11:15:41.305Z</time></trkpt><trkpt lat="58.76292" lon="14.99249333"><ele>128.0</ele><time>2016-06-18T11:15:42.315Z</time></trkpt><trkpt lat="58.762825" lon="14.99247"><ele>129.0</ele><time>2016-06-18T11:15:43.294Z</time></trkpt><trkpt lat="58.76273" lon="14.99245833"><ele>128.0</ele><time>2016-06-18T11:15:44.318Z</time></trkpt><trkpt lat="58.76273" lon="14.99245833"><ele>128.0</ele><time>2016-06-18T11:15:45.300Z</time></trkpt><trkpt lat="58.76254" lon="14.99242833"><ele>128.0</ele><time>2016-06-18T11:15:46.310Z</time></trkpt><trkpt lat="58.762435" lon="14.99239667"><ele>129.0</ele><time>2016-06-18T11:15:47.282Z</time></trkpt><trkpt lat="58.76232833" lon="14.99236167"><ele>129.0</ele><time>2016-06-18T11:15:48.296Z</time></trkpt><trkpt lat="58.76232833" lon="14.99236167"><ele>129.0</ele><time>2016-06-18T11:15:49.321Z</time></trkpt><trkpt lat="58.76212333" lon="14.99229167"><ele>129.0</ele><time>2016-06-18T11:15:50.284Z</time></trkpt><trkpt lat="58.76201667" lon="14.99226"><ele>129.0</ele><time>2016-06-18T11:15:51.315Z</time></trkpt><trkpt lat="58.76201667" lon="14.99226"><ele>129.0</ele><time>2016-06-18T11:15:52.308Z</time></trkpt><trkpt lat="58.76182" lon="14.99221333"><ele>129.0</ele><time>2016-06-18T11:15:53.294Z</time></trkpt><trkpt lat="58.76182" lon="14.99221333"><ele>129.0</ele><time>2016-06-18T11:15:54.317Z</time></trkpt><trkpt lat="58.76163667" lon="14.99216333"><ele>129.0</ele><time>2016-06-18T11:15:55.285Z</time></trkpt><trkpt lat="58.76163667" lon="14.99216333"><ele>129.0</ele><time>2016-06-18T11:15:56.300Z</time></trkpt><trkpt lat="58.76146" lon="14.99212833"><ele>129.0</ele><time>2016-06-18T11:15:57.294Z</time></trkpt><trkpt lat="58.76146" lon="14.99212833"><ele>129.0</ele><time>2016-06-18T11:15:58.320Z</time></trkpt><trkpt lat="58.761285" lon="14.99209667"><ele>129.0</ele><time>2016-06-18T11:15:59.292Z</time></trkpt><trkpt lat="58.761285" lon="14.99209667"><ele>129.0</ele><time>2016-06-18T11:16:00.292Z</time></trkpt><trkpt lat="58.76110333" lon="14.99206"><ele>129.0</ele><time>2016-06-18T11:16:01.299Z</time></trkpt><trkpt lat="58.76098333" lon="14.99202"><ele>129.0</ele><time>2016-06-18T11:16:02.287Z</time></trkpt><trkpt lat="58.76098333" lon="14.99202"><ele>129.0</ele><time>2016-06-18T11:16:03.299Z</time></trkpt><trkpt lat="58.76073833" lon="14.99195333"><ele>128.0</ele><time>2016-06-18T11:16:04.305Z</time></trkpt><trkpt lat="58.76062667" lon="14.99192"><ele>128.0</ele><time>2016-06-18T11:16:05.306Z</time></trkpt><trkpt lat="58.76062667" lon="14.99192"><ele>128.0</ele><time>2016-06-18T11:16:06.319Z</time></trkpt><trkpt lat="58.76039667" lon="14.99187167"><ele>128.0</ele><time>2016-06-18T11:16:07.286Z</time></trkpt><trkpt lat="58.76027" lon="14.99184"><ele>127.0</ele><time>2016-06-18T11:16:08.325Z</time></trkpt><trkpt lat="58.76027" lon="14.99184"><ele>127.0</ele><time>2016-06-18T11:16:09.320Z</time></trkpt><trkpt lat="58.76001833" lon="14.99178167"><ele>126.0</ele><time>2016-06-18T11:16:10.286Z</time></trkpt><trkpt lat="58.76001833" lon="14.99178167"><ele>126.0</ele><time>2016-06-18T11:16:11.386Z</time></trkpt><trkpt lat="58.75976167" lon="14.99171"><ele>125.0</ele><time>2016-06-18T11:16:12.316Z</time></trkpt><trkpt lat="58.75964" lon="14.99167667"><ele>123.0</ele><time>2016-06-18T11:16:13.301Z</time></trkpt><trkpt lat="58.75951667" lon="14.99163833"><ele>122.0</ele><time>2016-06-18T11:16:14.284Z</time></trkpt><trkpt lat="58.759385" lon="14.99160667"><ele>121.0</ele><time>2016-06-18T11:16:15.310Z</time></trkpt><trkpt lat="58.759385" lon="14.99160667"><ele>121.0</ele><time>2016-06-18T11:16:16.294Z</time></trkpt><trkpt lat="58.75912833" lon="14.991555"><ele>120.0</ele><time>2016-06-18T11:16:17.315Z</time></trkpt><trkpt lat="58.75912833" lon="14.991555"><ele>120.0</ele><time>2016-06-18T11:16:18.297Z</time></trkpt><trkpt lat="58.75887333" lon="14.99151167"><ele>118.0</ele><time>2016-06-18T11:16:19.304Z</time></trkpt><trkpt lat="58.75875" lon="14.99149"><ele>118.0</ele><time>2016-06-18T11:16:20.287Z</time></trkpt><trkpt lat="58.75875" lon="14.99149"><ele>118.0</ele><time>2016-06-18T11:16:21.301Z</time></trkpt><trkpt lat="58.75851167" lon="14.99144"><ele>118.0</ele><time>2016-06-18T11:16:22.311Z</time></trkpt><trkpt lat="58.758395" lon="14.991415"><ele>117.0</ele><time>2016-06-18T11:16:23.296Z</time></trkpt><trkpt lat="58.758395" lon="14.991415"><ele>117.0</ele><time>2016-06-18T11:16:24.321Z</time></trkpt><trkpt lat="58.75816167" lon="14.99136333"><ele>117.0</ele><time>2016-06-18T11:16:25.287Z</time></trkpt><trkpt lat="58.75804833" lon="14.991335"><ele>117.0</ele><time>2016-06-18T11:16:26.300Z</time></trkpt><trkpt lat="58.75804833" lon="14.991335"><ele>117.0</ele><time>2016-06-18T11:16:27.286Z</time></trkpt><trkpt lat="58.75781667" lon="14.991275"><ele>117.0</ele><time>2016-06-18T11:16:28.297Z</time></trkpt><trkpt lat="58.75781667" lon="14.991275"><ele>117.0</ele><time>2016-06-18T11:16:29.282Z</time></trkpt><trkpt lat="58.75758" lon="14.99122333"><ele>116.0</ele><time>2016-06-18T11:16:30.289Z</time></trkpt><trkpt lat="58.75746" lon="14.991195"><ele>115.0</ele><time>2016-06-18T11:16:31.295Z</time></trkpt><trkpt lat="58.75746" lon="14.991195"><ele>115.0</ele><time>2016-06-18T11:16:32.282Z</time></trkpt><trkpt lat="58.75722167" lon="14.99114"><ele>114.0</ele><time>2016-06-18T11:16:33.299Z</time></trkpt><trkpt lat="58.75722167" lon="14.99114"><ele>114.0</ele><time>2016-06-18T11:16:34.285Z</time></trkpt><trkpt lat="58.75697" lon="14.99108667"><ele>113.0</ele><time>2016-06-18T11:16:35.315Z</time></trkpt><trkpt lat="58.75697" lon="14.99108667"><ele>113.0</ele><time>2016-06-18T11:16:36.315Z</time></trkpt><trkpt lat="58.75672167" lon="14.991055"><ele>112.0</ele><time>2016-06-18T11:16:37.282Z</time></trkpt><trkpt lat="58.756595" lon="14.99103167"><ele>112.0</ele><time>2016-06-18T11:16:38.305Z</time></trkpt><trkpt lat="58.756595" lon="14.99103167"><ele>112.0</ele><time>2016-06-18T11:16:39.320Z</time></trkpt><trkpt lat="58.75631667" lon="14.99097333"><ele>111.0</ele><time>2016-06-18T11:16:40.286Z</time></trkpt><trkpt lat="58.75631667" lon="14.99097333"><ele>111.0</ele><time>2016-06-18T11:16:41.282Z</time></trkpt><trkpt lat="58.75602333" lon="14.99091667"><ele>109.0</ele><time>2016-06-18T11:16:42.316Z</time></trkpt><trkpt lat="58.75602333" lon="14.99091667"><ele>109.0</ele><time>2016-06-18T11:16:43.321Z</time></trkpt><trkpt lat="58.75574167" lon="14.99086333"><ele>107.0</ele><time>2016-06-18T11:16:44.287Z</time></trkpt><trkpt lat="58.75560167" lon="14.99084"><ele>106.0</ele><time>2016-06-18T11:16:45.306Z</time></trkpt><trkpt lat="58.75560167" lon="14.99084"><ele>106.0</ele><time>2016-06-18T11:16:46.291Z</time></trkpt><trkpt lat="58.75531833" lon="14.99078833"><ele>104.0</ele><time>2016-06-18T11:16:47.333Z</time></trkpt><trkpt lat="58.75517833" lon="14.990755"><ele>103.0</ele><time>2016-06-18T11:16:48.295Z</time></trkpt><trkpt lat="58.75517833" lon="14.990755"><ele>103.0</ele><time>2016-06-18T11:16:49.291Z</time></trkpt><trkpt lat="58.75490833" lon="14.99069167"><ele>101.0</ele><time>2016-06-18T11:16:50.297Z</time></trkpt><trkpt lat="58.75477333" lon="14.990655"><ele>100.0</ele><time>2016-06-18T11:16:51.316Z</time></trkpt><trkpt lat="58.75477333" lon="14.990655"><ele>100.0</ele><time>2016-06-18T11:16:52.300Z</time></trkpt><trkpt lat="58.75450167" lon="14.990575"><ele>99.0</ele><time>2016-06-18T11:16:53.320Z</time></trkpt><trkpt lat="58.75450167" lon="14.990575"><ele>99.0</ele><time>2016-06-18T11:16:54.304Z</time></trkpt><trkpt lat="58.75423333" lon="14.990515"><ele>98.0</ele><time>2016-06-18T11:16:55.296Z</time></trkpt><trkpt lat="58.75423333" lon="14.990515"><ele>98.0</ele><time>2016-06-18T11:16:56.320Z</time></trkpt><trkpt lat="58.753965" lon="14.99044833"><ele>98.0</ele><time>2016-06-18T11:16:57.287Z</time></trkpt><trkpt lat="58.753965" lon="14.99044833"><ele>98.0</ele><time>2016-06-18T11:16:58.290Z</time></trkpt><trkpt lat="58.75370167" lon="14.990385"><ele>97.0</ele><time>2016-06-18T11:16:59.318Z</time></trkpt><trkpt lat="58.75370167" lon="14.990385"><ele>97.0</ele><time>2016-06-18T11:17:00.313Z</time></trkpt><trkpt lat="58.75345167" lon="14.99032333"><ele>96.0</ele><time>2016-06-18T11:17:01.282Z</time></trkpt><trkpt lat="58.75345167" lon="14.99032333"><ele>96.0</ele><time>2016-06-18T11:17:02.305Z</time></trkpt><trkpt lat="58.753235" lon="14.99025667"><ele>96.0</ele><time>2016-06-18T11:17:03.310Z</time></trkpt><trkpt lat="58.753235" lon="14.99025667"><ele>96.0</ele><time>2016-06-18T11:17:04.309Z</time></trkpt><trkpt lat="58.75302167" lon="14.99019167"><ele>95.0</ele><time>2016-06-18T11:17:05.316Z</time></trkpt><trkpt lat="58.75291667" lon="14.99014167"><ele>95.0</ele><time>2016-06-18T11:17:06.286Z</time></trkpt><trkpt lat="58.75291667" lon="14.99014167"><ele>95.0</ele><time>2016-06-18T11:17:07.292Z</time></trkpt><trkpt lat="58.752705" lon="14.99003667"><ele>95.0</ele><time>2016-06-18T11:17:08.298Z</time></trkpt><trkpt lat="58.752705" lon="14.99003667"><ele>95.0</ele><time>2016-06-18T11:17:09.316Z</time></trkpt><trkpt lat="58.75248833" lon="14.98992333"><ele>94.0</ele><time>2016-06-18T11:17:10.285Z</time></trkpt><trkpt lat="58.75248833" lon="14.98992333"><ele>94.0</ele><time>2016-06-18T11:17:11.378Z</time></trkpt><trkpt lat="58.75229" lon="14.98978833"><ele>94.0</ele><time>2016-06-18T11:17:12.282Z</time></trkpt><trkpt lat="58.75217167" lon="14.98971667"><ele>94.0</ele><time>2016-06-18T11:17:13.300Z</time></trkpt><trkpt lat="58.75217167" lon="14.98971667"><ele>94.0</ele><time>2016-06-18T11:17:14.306Z</time></trkpt><trkpt lat="58.75194333" lon="14.989525"><ele>94.0</ele><time>2016-06-18T11:17:15.313Z</time></trkpt><trkpt lat="58.751825" lon="14.98942667"><ele>93.0</ele><time>2016-06-18T11:17:16.302Z</time></trkpt><trkpt lat="58.751825" lon="14.98942667"><ele>93.0</ele><time>2016-06-18T11:17:17.315Z</time></trkpt><trkpt lat="58.75158" lon="14.98923167"><ele>92.0</ele><time>2016-06-18T11:17:18.282Z</time></trkpt><trkpt lat="58.75158" lon="14.98923167"><ele>92.0</ele><time>2016-06-18T11:17:19.282Z</time></trkpt><trkpt lat="58.75134667" lon="14.98904333"><ele>92.0</ele><time>2016-06-18T11:17:20.295Z</time></trkpt><trkpt lat="58.75134667" lon="14.98904333"><ele>92.0</ele><time>2016-06-18T11:17:21.288Z</time></trkpt><trkpt lat="58.75111833" lon="14.988845"><ele>91.0</ele><time>2016-06-18T11:17:22.294Z</time></trkpt><trkpt lat="58.75101" lon="14.98875"><ele>91.0</ele><time>2016-06-18T11:17:23.318Z</time></trkpt><trkpt lat="58.75101" lon="14.98875"><ele>91.0</ele><time>2016-06-18T11:17:24.319Z</time></trkpt><trkpt lat="58.75080333" lon="14.98857"><ele>91.0</ele><time>2016-06-18T11:17:25.286Z</time></trkpt><trkpt lat="58.75071" lon="14.98848333"><ele>91.0</ele><time>2016-06-18T11:17:26.305Z</time></trkpt><trkpt lat="58.75071" lon="14.98848333"><ele>91.0</ele><time>2016-06-18T11:17:27.304Z</time></trkpt><trkpt lat="58.75052" lon="14.98832"><ele>92.0</ele><time>2016-06-18T11:17:28.317Z</time></trkpt><trkpt lat="58.75043" lon="14.98822833"><ele>92.0</ele><time>2016-06-18T11:17:29.301Z</time></trkpt><trkpt lat="58.75043" lon="14.98822833"><ele>92.0</ele><time>2016-06-18T11:17:30.285Z</time></trkpt><trkpt lat="58.750245" lon="14.988045"><ele>92.0</ele><time>2016-06-18T11:17:31.296Z</time></trkpt><trkpt lat="58.75015167" lon="14.98795667"><ele>92.0</ele><time>2016-06-18T11:17:32.290Z</time></trkpt><trkpt lat="58.75015167" lon="14.98795667"><ele>92.0</ele><time>2016-06-18T11:17:33.321Z</time></trkpt><trkpt lat="58.74996" lon="14.98777833"><ele>92.0</ele><time>2016-06-18T11:17:34.287Z</time></trkpt><trkpt lat="58.74996" lon="14.98777833"><ele>92.0</ele><time>2016-06-18T11:17:35.306Z</time></trkpt><trkpt lat="58.74974833" lon="14.987585"><ele>92.0</ele><time>2016-06-18T11:17:36.316Z</time></trkpt><trkpt lat="58.74974833" lon="14.987585"><ele>92.0</ele><time>2016-06-18T11:17:37.300Z</time></trkpt><trkpt lat="58.749535" lon="14.987405"><ele>92.0</ele><time>2016-06-18T11:17:38.306Z</time></trkpt><trkpt lat="58.749535" lon="14.987405"><ele>92.0</ele><time>2016-06-18T11:17:39.292Z</time></trkpt><trkpt lat="58.74933167" lon="14.98722"><ele>93.0</ele><time>2016-06-18T11:17:40.305Z</time></trkpt><trkpt lat="58.74933167" lon="14.98722"><ele>93.0</ele><time>2016-06-18T11:17:41.295Z</time></trkpt><trkpt lat="58.74913" lon="14.98705"><ele>92.0</ele><time>2016-06-18T11:17:42.302Z</time></trkpt><trkpt lat="58.74913" lon="14.98705"><ele>92.0</ele><time>2016-06-18T11:17:43.285Z</time></trkpt><trkpt lat="58.74894" lon="14.98688167"><ele>92.0</ele><time>2016-06-18T11:17:44.315Z</time></trkpt><trkpt lat="58.74894" lon="14.98688167"><ele>92.0</ele><time>2016-06-18T11:17:45.290Z</time></trkpt><trkpt lat="58.74874167" lon="14.98672"><ele>93.0</ele><time>2016-06-18T11:17:46.296Z</time></trkpt><trkpt lat="58.74874167" lon="14.98672"><ele>93.0</ele><time>2016-06-18T11:17:47.282Z</time></trkpt><trkpt lat="58.74854667" lon="14.98655667"><ele>93.0</ele><time>2016-06-18T11:17:48.302Z</time></trkpt><trkpt lat="58.74854667" lon="14.98655667"><ele>93.0</ele><time>2016-06-18T11:17:49.315Z</time></trkpt><trkpt lat="58.74835667" lon="14.98639167"><ele>93.0</ele><time>2016-06-18T11:17:50.295Z</time></trkpt><trkpt lat="58.74835667" lon="14.98639167"><ele>93.0</ele><time>2016-06-18T11:17:51.290Z</time></trkpt><trkpt lat="58.74817167" lon="14.98623"><ele>93.0</ele><time>2016-06-18T11:17:52.296Z</time></trkpt><trkpt lat="58.74807667" lon="14.98615"><ele>93.0</ele><time>2016-06-18T11:17:53.320Z</time></trkpt><trkpt lat="58.74807667" lon="14.98615"><ele>93.0</ele><time>2016-06-18T11:17:54.295Z</time></trkpt><trkpt lat="58.74788833" lon="14.98597833"><ele>93.0</ele><time>2016-06-18T11:17:55.302Z</time></trkpt><trkpt lat="58.74779333" lon="14.98589167"><ele>93.0</ele><time>2016-06-18T11:17:56.295Z</time></trkpt><trkpt lat="58.74779333" lon="14.98589167"><ele>93.0</ele><time>2016-06-18T11:17:57.293Z</time></trkpt><trkpt lat="58.7476" lon="14.98571167"><ele>92.0</ele><time>2016-06-18T11:17:58.299Z</time></trkpt><trkpt lat="58.74750167" lon="14.98562667"><ele>92.0</ele><time>2016-06-18T11:17:59.298Z</time></trkpt><trkpt lat="58.74750167" lon="14.98562667"><ele>92.0</ele><time>2016-06-18T11:18:00.314Z</time></trkpt><trkpt lat="58.74730667" lon="14.98546167"><ele>91.0</ele><time>2016-06-18T11:18:01.322Z</time></trkpt><trkpt lat="58.74730667" lon="14.98546167"><ele>91.0</ele><time>2016-06-18T11:18:02.305Z</time></trkpt><trkpt lat="58.74710833" lon="14.985295"><ele>91.0</ele><time>2016-06-18T11:18:03.301Z</time></trkpt><trkpt lat="58.74710833" lon="14.985295"><ele>91.0</ele><time>2016-06-18T11:18:04.286Z</time></trkpt><trkpt lat="58.74691" lon="14.98512667"><ele>91.0</ele><time>2016-06-18T11:18:05.293Z</time></trkpt><trkpt lat="58.74691" lon="14.98512667"><ele>91.0</ele><time>2016-06-18T11:18:06.300Z</time></trkpt><trkpt lat="58.746715" lon="14.98497"><ele>92.0</ele><time>2016-06-18T11:18:07.311Z</time></trkpt><trkpt lat="58.746715" lon="14.98497"><ele>92.0</ele><time>2016-06-18T11:18:08.296Z</time></trkpt><trkpt lat="58.74653333" lon="14.98482167"><ele>92.0</ele><time>2016-06-18T11:18:09.305Z</time></trkpt><trkpt lat="58.74653333" lon="14.98482167"><ele>92.0</ele><time>2016-06-18T11:18:10.318Z</time></trkpt><trkpt lat="58.74636167" lon="14.98467333"><ele>92.0</ele><time>2016-06-18T11:18:11.378Z</time></trkpt><trkpt lat="58.74636167" lon="14.98467333"><ele>92.0</ele><time>2016-06-18T11:18:12.328Z</time></trkpt><trkpt lat="58.74620167" lon="14.98454667"><ele>92.0</ele><time>2016-06-18T11:18:13.301Z</time></trkpt><trkpt lat="58.74620167" lon="14.98454667"><ele>92.0</ele><time>2016-06-18T11:18:14.285Z</time></trkpt><trkpt lat="58.74605667" lon="14.98443"><ele>93.0</ele><time>2016-06-18T11:18:15.291Z</time></trkpt><trkpt lat="58.74605667" lon="14.98443"><ele>93.0</ele><time>2016-06-18T11:18:16.301Z</time></trkpt><trkpt lat="58.74591" lon="14.984325"><ele>93.0</ele><time>2016-06-18T11:18:17.316Z</time></trkpt><trkpt lat="58.74591" lon="14.984325"><ele>93.0</ele><time>2016-06-18T11:18:18.300Z</time></trkpt><trkpt lat="58.74577833" lon="14.98423167"><ele>94.0</ele><time>2016-06-18T11:18:19.297Z</time></trkpt><trkpt lat="58.74577833" lon="14.98423167"><ele>94.0</ele><time>2016-06-18T11:18:20.320Z</time></trkpt><trkpt lat="58.74565667" lon="14.98414833"><ele>94.0</ele><time>2016-06-18T11:18:21.308Z</time></trkpt><trkpt lat="58.74565667" lon="14.98414833"><ele>94.0</ele><time>2016-06-18T11:18:22.284Z</time></trkpt><trkpt lat="58.745545" lon="14.98408333"><ele>94.0</ele><time>2016-06-18T11:18:23.316Z</time></trkpt><trkpt lat="58.745545" lon="14.98408333"><ele>94.0</ele><time>2016-06-18T11:18:24.282Z</time></trkpt><trkpt lat="58.745445" lon="14.98401167"><ele>95.0</ele><time>2016-06-18T11:18:25.288Z</time></trkpt><trkpt lat="58.74539333" lon="14.98397333"><ele>95.0</ele><time>2016-06-18T11:18:26.327Z</time></trkpt><trkpt lat="58.74539333" lon="14.98397333"><ele>95.0</ele><time>2016-06-18T11:18:27.316Z</time></trkpt><trkpt lat="58.74528167" lon="14.98391167"><ele>97.0</ele><time>2016-06-18T11:18:28.301Z</time></trkpt><trkpt lat="58.74522833" lon="14.98388"><ele>98.0</ele><time>2016-06-18T11:18:29.294Z</time></trkpt><trkpt lat="58.74522833" lon="14.98388"><ele>98.0</ele><time>2016-06-18T11:18:30.309Z</time></trkpt><trkpt lat="58.745115" lon="14.983815"><ele>99.0</ele><time>2016-06-18T11:18:31.321Z</time></trkpt><trkpt lat="58.74505333" lon="14.98378333"><ele>99.0</ele><time>2016-06-18T11:18:32.305Z</time></trkpt><trkpt lat="58.74505333" lon="14.98378333"><ele>99.0</ele><time>2016-06-18T11:18:33.302Z</time></trkpt><trkpt lat="58.74494" lon="14.98372667"><ele>99.0</ele><time>2016-06-18T11:18:34.314Z</time></trkpt><trkpt lat="58.74494" lon="14.98372667"><ele>99.0</ele><time>2016-06-18T11:18:35.298Z</time></trkpt><trkpt lat="58.74483333" lon="14.983675"><ele>100.0</ele><time>2016-06-18T11:18:36.306Z</time></trkpt><trkpt lat="58.74483333" lon="14.983675"><ele>100.0</ele><time>2016-06-18T11:18:37.284Z</time></trkpt><trkpt lat="58.74473167" lon="14.98363"><ele>101.0</ele><time>2016-06-18T11:18:38.290Z</time></trkpt><trkpt lat="58.74467667" lon="14.9836"><ele>100.0</ele><time>2016-06-18T11:18:39.305Z</time></trkpt><trkpt lat="58.74467667" lon="14.9836"><ele>100.0</ele><time>2016-06-18T11:18:40.289Z</time></trkpt><trkpt lat="58.74455833" lon="14.98354833"><ele>101.0</ele><time>2016-06-18T11:18:41.296Z</time></trkpt><trkpt lat="58.74450167" lon="14.98352167"><ele>102.0</ele><time>2016-06-18T11:18:42.305Z</time></trkpt><trkpt lat="58.74450167" lon="14.98352167"><ele>102.0</ele><time>2016-06-18T11:18:43.295Z</time></trkpt><trkpt lat="58.74439" lon="14.98346833"><ele>102.0</ele><time>2016-06-18T11:18:44.303Z</time></trkpt><trkpt lat="58.74433167" lon="14.98344"><ele>102.0</ele><time>2016-06-18T11:18:45.302Z</time></trkpt><trkpt lat="58.74433167" lon="14.98344"><ele>102.0</ele><time>2016-06-18T11:18:46.290Z</time></trkpt><trkpt lat="58.74420167" lon="14.98338"><ele>102.0</ele><time>2016-06-18T11:18:47.296Z</time></trkpt><trkpt lat="58.74420167" lon="14.98338"><ele>102.0</ele><time>2016-06-18T11:18:48.291Z</time></trkpt><trkpt lat="58.74407" lon="14.98331833"><ele>101.0</ele><time>2016-06-18T11:18:49.287Z</time></trkpt><trkpt lat="58.74400167" lon="14.98329167"><ele>101.0</ele><time>2016-06-18T11:18:50.282Z</time></trkpt><trkpt lat="58.74400167" lon="14.98329167"><ele>101.0</ele><time>2016-06-18T11:18:51.306Z</time></trkpt><trkpt lat="58.74386333" lon="14.98325"><ele>100.0</ele><time>2016-06-18T11:18:52.314Z</time></trkpt><trkpt lat="58.74379333" lon="14.98323"><ele>100.0</ele><time>2016-06-18T11:18:53.298Z</time></trkpt><trkpt lat="58.74379333" lon="14.98323"><ele>100.0</ele><time>2016-06-18T11:18:54.308Z</time></trkpt><trkpt lat="58.74365" lon="14.9832"><ele>100.0</ele><time>2016-06-18T11:18:55.319Z</time></trkpt><trkpt lat="58.74357" lon="14.98318667"><ele>99.0</ele><time>2016-06-18T11:18:56.300Z</time></trkpt><trkpt lat="58.74357" lon="14.98318667"><ele>99.0</ele><time>2016-06-18T11:18:57.295Z</time></trkpt><trkpt lat="58.74340333" lon="14.983165"><ele>100.0</ele><time>2016-06-18T11:18:58.302Z</time></trkpt><trkpt lat="58.74340333" lon="14.983165"><ele>100.0</ele><time>2016-06-18T11:18:59.290Z</time></trkpt><trkpt lat="58.74323333" lon="14.98313167"><ele>100.0</ele><time>2016-06-18T11:19:00.294Z</time></trkpt><trkpt lat="58.74323333" lon="14.98313167"><ele>100.0</ele><time>2016-06-18T11:19:01.284Z</time></trkpt><trkpt lat="58.74306333" lon="14.983095"><ele>99.0</ele><time>2016-06-18T11:19:02.291Z</time></trkpt><trkpt lat="58.74306333" lon="14.983095"><ele>99.0</ele><time>2016-06-18T11:19:03.321Z</time></trkpt><trkpt lat="58.74289833" lon="14.983065"><ele>98.0</ele><time>2016-06-18T11:19:04.317Z</time></trkpt><trkpt lat="58.74289833" lon="14.983065"><ele>98.0</ele><time>2016-06-18T11:19:05.287Z</time></trkpt><trkpt lat="58.74274333" lon="14.983035"><ele>97.0</ele><time>2016-06-18T11:19:06.293Z</time></trkpt><trkpt lat="58.74274333" lon="14.983035"><ele>97.0</ele><time>2016-06-18T11:19:07.316Z</time></trkpt><trkpt lat="58.74258167" lon="14.98300167"><ele>97.0</ele><time>2016-06-18T11:19:08.283Z</time></trkpt><trkpt lat="58.74258167" lon="14.98300167"><ele>97.0</ele><time>2016-06-18T11:19:09.307Z</time></trkpt><trkpt lat="58.74240667" lon="14.98297"><ele>96.0</ele><time>2016-06-18T11:19:10.306Z</time></trkpt><trkpt lat="58.74240667" lon="14.98297"><ele>96.0</ele><time>2016-06-18T11:19:11.381Z</time></trkpt><trkpt lat="58.74224" lon="14.98294"><ele>96.0</ele><time>2016-06-18T11:19:12.283Z</time></trkpt><trkpt lat="58.74215333" lon="14.98292667"><ele>96.0</ele><time>2016-06-18T11:19:13.311Z</time></trkpt><trkpt lat="58.74205333" lon="14.982905"><ele>96.0</ele><time>2016-06-18T11:19:14.301Z</time></trkpt><trkpt lat="58.74205333" lon="14.982905"><ele>96.0</ele><time>2016-06-18T11:19:15.285Z</time></trkpt><trkpt lat="58.74186333" lon="14.982875"><ele>95.0</ele><time>2016-06-18T11:19:16.291Z</time></trkpt><trkpt lat="58.74186333" lon="14.982875"><ele>95.0</ele><time>2016-06-18T11:19:17.297Z</time></trkpt><trkpt lat="58.74166333" lon="14.98284667"><ele>96.0</ele><time>2016-06-18T11:19:18.316Z</time></trkpt><trkpt lat="58.74166333" lon="14.98284667"><ele>96.0</ele><time>2016-06-18T11:19:19.296Z</time></trkpt><trkpt lat="58.74148" lon="14.98282833"><ele>96.0</ele><time>2016-06-18T11:19:20.302Z</time></trkpt><trkpt lat="58.74148" lon="14.98282833"><ele>96.0</ele><time>2016-06-18T11:19:21.287Z</time></trkpt><trkpt lat="58.741285" lon="14.982805"><ele>96.0</ele><time>2016-06-18T11:19:22.300Z</time></trkpt><trkpt lat="58.74118" lon="14.98279"><ele>96.0</ele><time>2016-06-18T11:19:23.300Z</time></trkpt><trkpt lat="58.74118" lon="14.98279"><ele>96.0</ele><time>2016-06-18T11:19:24.282Z</time></trkpt><trkpt lat="58.74095667" lon="14.98276167"><ele>95.0</ele><time>2016-06-18T11:19:25.316Z</time></trkpt><trkpt lat="58.74084333" lon="14.98275"><ele>95.0</ele><time>2016-06-18T11:19:26.306Z</time></trkpt><trkpt lat="58.74084333" lon="14.98275"><ele>95.0</ele><time>2016-06-18T11:19:27.290Z</time></trkpt><trkpt lat="58.74061667" lon="14.98274167"><ele>94.0</ele><time>2016-06-18T11:19:28.297Z</time></trkpt><trkpt lat="58.74061667" lon="14.98274167"><ele>94.0</ele><time>2016-06-18T11:19:29.313Z</time></trkpt><trkpt lat="58.74038333" lon="14.98275"><ele>92.0</ele><time>2016-06-18T11:19:30.320Z</time></trkpt><trkpt lat="58.74038333" lon="14.98275"><ele>92.0</ele><time>2016-06-18T11:19:31.283Z</time></trkpt><trkpt lat="58.74014667" lon="14.98277"><ele>91.0</ele><time>2016-06-18T11:19:32.300Z</time></trkpt><trkpt lat="58.74014667" lon="14.98277"><ele>91.0</ele><time>2016-06-18T11:19:33.290Z</time></trkpt><trkpt lat="58.73990833" lon="14.98279"><ele>91.0</ele><time>2016-06-18T11:19:34.296Z</time></trkpt><trkpt lat="58.73990833" lon="14.98279"><ele>91.0</ele><time>2016-06-18T11:19:35.314Z</time></trkpt><trkpt lat="58.73966833" lon="14.982815"><ele>91.0</ele><time>2016-06-18T11:19:36.303Z</time></trkpt><trkpt lat="58.73966833" lon="14.982815"><ele>91.0</ele><time>2016-06-18T11:19:37.304Z</time></trkpt><trkpt lat="58.73942167" lon="14.98284333"><ele>91.0</ele><time>2016-06-18T11:19:38.315Z</time></trkpt><trkpt lat="58.73942167" lon="14.98284333"><ele>91.0</ele><time>2016-06-18T11:19:39.302Z</time></trkpt><trkpt lat="58.73918" lon="14.98288"><ele>90.0</ele><time>2016-06-18T11:19:40.304Z</time></trkpt><trkpt lat="58.73918" lon="14.98288"><ele>90.0</ele><time>2016-06-18T11:19:41.296Z</time></trkpt><trkpt lat="58.738945" lon="14.98292167"><ele>90.0</ele><time>2016-06-18T11:19:42.303Z</time></trkpt><trkpt lat="58.73883167" lon="14.982945"><ele>90.0</ele><time>2016-06-18T11:19:43.288Z</time></trkpt><trkpt lat="58.73883167" lon="14.982945"><ele>90.0</ele><time>2016-06-18T11:19:44.292Z</time></trkpt><trkpt lat="58.73860667" lon="14.98299333"><ele>90.0</ele><time>2016-06-18T11:19:45.299Z</time></trkpt><trkpt lat="58.73860667" lon="14.98299333"><ele>90.0</ele><time>2016-06-18T11:19:46.283Z</time></trkpt><trkpt lat="58.73839167" lon="14.98303333"><ele>90.0</ele><time>2016-06-18T11:19:47.309Z</time></trkpt><trkpt lat="58.73839167" lon="14.98303333"><ele>90.0</ele><time>2016-06-18T11:19:48.320Z</time></trkpt><trkpt lat="58.738185" lon="14.98307167"><ele>90.0</ele><time>2016-06-18T11:19:49.296Z</time></trkpt><trkpt lat="58.73808167" lon="14.98308667"><ele>90.0</ele><time>2016-06-18T11:19:50.288Z</time></trkpt><trkpt lat="58.73808167" lon="14.98308667"><ele>90.0</ele><time>2016-06-18T11:19:51.313Z</time></trkpt><trkpt lat="58.737885" lon="14.98312333"><ele>90.0</ele><time>2016-06-18T11:19:52.321Z</time></trkpt><trkpt lat="58.73778833" lon="14.98314167"><ele>90.0</ele><time>2016-06-18T11:19:53.285Z</time></trkpt><trkpt lat="58.73778833" lon="14.98314167"><ele>90.0</ele><time>2016-06-18T11:19:54.307Z</time></trkpt><trkpt lat="58.73760333" lon="14.98317333"><ele>90.0</ele><time>2016-06-18T11:19:55.306Z</time></trkpt><trkpt lat="58.73760333" lon="14.98317333"><ele>90.0</ele><time>2016-06-18T11:19:56.320Z</time></trkpt><trkpt lat="58.73743333" lon="14.98320667"><ele>90.0</ele><time>2016-06-18T11:19:57.286Z</time></trkpt><trkpt lat="58.73743333" lon="14.98320667"><ele>90.0</ele><time>2016-06-18T11:19:58.311Z</time></trkpt><trkpt lat="58.73726667" lon="14.98323667"><ele>90.0</ele><time>2016-06-18T11:19:59.316Z</time></trkpt><trkpt lat="58.73726667" lon="14.98323667"><ele>90.0</ele><time>2016-06-18T11:20:00.316Z</time></trkpt><trkpt lat="58.73709667" lon="14.983275"><ele>90.0</ele><time>2016-06-18T11:20:01.283Z</time></trkpt><trkpt lat="58.73701" lon="14.98329833"><ele>90.0</ele><time>2016-06-18T11:20:02.318Z</time></trkpt><trkpt lat="58.73692167" lon="14.98332667"><ele>90.0</ele><time>2016-06-18T11:20:03.283Z</time></trkpt><trkpt lat="58.73692167" lon="14.98332667"><ele>90.0</ele><time>2016-06-18T11:20:04.304Z</time></trkpt><trkpt lat="58.73673667" lon="14.98339333"><ele>90.0</ele><time>2016-06-18T11:20:05.304Z</time></trkpt><trkpt lat="58.73673667" lon="14.98339333"><ele>90.0</ele><time>2016-06-18T11:20:06.311Z</time></trkpt><trkpt lat="58.736545" lon="14.98346"><ele>90.0</ele><time>2016-06-18T11:20:07.318Z</time></trkpt><trkpt lat="58.736545" lon="14.98346"><ele>90.0</ele><time>2016-06-18T11:20:08.304Z</time></trkpt><trkpt lat="58.73635" lon="14.98353667"><ele>90.0</ele><time>2016-06-18T11:20:09.308Z</time></trkpt><trkpt lat="58.73635" lon="14.98353667"><ele>90.0</ele><time>2016-06-18T11:20:10.321Z</time></trkpt><trkpt lat="58.73614667" lon="14.98361333"><ele>90.0</ele><time>2016-06-18T11:20:11.378Z</time></trkpt><trkpt lat="58.73614667" lon="14.98361333"><ele>90.0</ele><time>2016-06-18T11:20:12.298Z</time></trkpt><trkpt lat="58.73593833" lon="14.98369333"><ele>90.0</ele><time>2016-06-18T11:20:13.304Z</time></trkpt><trkpt lat="58.735835" lon="14.983735"><ele>89.0</ele><time>2016-06-18T11:20:14.288Z</time></trkpt><trkpt lat="58.735835" lon="14.983735"><ele>89.0</ele><time>2016-06-18T11:20:15.315Z</time></trkpt><trkpt lat="58.73563167" lon="14.983825"><ele>89.0</ele><time>2016-06-18T11:20:16.283Z</time></trkpt><trkpt lat="58.73553333" lon="14.98387"><ele>89.0</ele><time>2016-06-18T11:20:17.301Z</time></trkpt><trkpt lat="58.73553333" lon="14.98387"><ele>89.0</ele><time>2016-06-18T11:20:18.287Z</time></trkpt><trkpt lat="58.73533833" lon="14.98395833"><ele>89.0</ele><time>2016-06-18T11:20:19.306Z</time></trkpt><trkpt lat="58.73524667" lon="14.98400833"><ele>89.0</ele><time>2016-06-18T11:20:20.299Z</time></trkpt><trkpt lat="58.73524667" lon="14.98400833"><ele>89.0</ele><time>2016-06-18T11:20:21.282Z</time></trkpt><trkpt lat="58.73507" lon="14.98409833"><ele>89.0</ele><time>2016-06-18T11:20:22.291Z</time></trkpt><trkpt lat="58.73507" lon="14.98409833"><ele>89.0</ele><time>2016-06-18T11:20:23.316Z</time></trkpt><trkpt lat="58.73489" lon="14.984165"><ele>89.0</ele><time>2016-06-18T11:20:24.283Z</time></trkpt><trkpt lat="58.7348" lon="14.9842"><ele>89.0</ele><time>2016-06-18T11:20:25.307Z</time></trkpt><trkpt lat="58.73471" lon="14.98423833"><ele>89.0</ele><time>2016-06-18T11:20:26.292Z</time></trkpt><trkpt lat="58.73471" lon="14.98423833"><ele>89.0</ele><time>2016-06-18T11:20:27.318Z</time></trkpt><trkpt lat="58.73452333" lon="14.98431667"><ele>89.0</ele><time>2016-06-18T11:20:28.288Z</time></trkpt><trkpt lat="58.73452333" lon="14.98431667"><ele>89.0</ele><time>2016-06-18T11:20:29.297Z</time></trkpt><trkpt lat="58.73433167" lon="14.98439333"><ele>88.0</ele><time>2016-06-18T11:20:30.303Z</time></trkpt><trkpt lat="58.73423833" lon="14.98443167"><ele>89.0</ele><time>2016-06-18T11:20:31.299Z</time></trkpt><trkpt lat="58.73414167" lon="14.98446833"><ele>89.0</ele><time>2016-06-18T11:20:32.320Z</time></trkpt><trkpt lat="58.73414167" lon="14.98446833"><ele>89.0</ele><time>2016-06-18T11:20:33.302Z</time></trkpt><trkpt lat="58.733955" lon="14.984545"><ele>89.0</ele><time>2016-06-18T11:20:34.306Z</time></trkpt><trkpt lat="58.733955" lon="14.984545"><ele>89.0</ele><time>2016-06-18T11:20:35.289Z</time></trkpt><trkpt lat="58.73378" lon="14.98462833"><ele>89.0</ele><time>2016-06-18T11:20:36.295Z</time></trkpt><trkpt lat="58.7337" lon="14.98466167"><ele>89.0</ele><time>2016-06-18T11:20:37.321Z</time></trkpt><trkpt lat="58.73362333" lon="14.98469167"><ele>90.0</ele><time>2016-06-18T11:20:38.306Z</time></trkpt><trkpt lat="58.73362333" lon="14.98469167"><ele>90.0</ele><time>2016-06-18T11:20:39.302Z</time></trkpt><trkpt lat="58.73346667" lon="14.98474833"><ele>90.0</ele><time>2016-06-18T11:20:40.308Z</time></trkpt><trkpt lat="58.73339" lon="14.98477833"><ele>91.0</ele><time>2016-06-18T11:20:41.297Z</time></trkpt><trkpt lat="58.73339" lon="14.98477833"><ele>91.0</ele><time>2016-06-18T11:20:42.314Z</time></trkpt><trkpt lat="58.73323667" lon="14.98484"><ele>91.0</ele><time>2016-06-18T11:20:43.291Z</time></trkpt><trkpt lat="58.73323667" lon="14.98484"><ele>91.0</ele><time>2016-06-18T11:20:44.319Z</time></trkpt><trkpt lat="58.73308333" lon="14.98489333"><ele>92.0</ele><time>2016-06-18T11:20:45.300Z</time></trkpt><trkpt lat="58.73308333" lon="14.98489333"><ele>92.0</ele><time>2016-06-18T11:20:46.287Z</time></trkpt><trkpt lat="58.73293" lon="14.984955"><ele>93.0</ele><time>2016-06-18T11:20:47.302Z</time></trkpt><trkpt lat="58.73285167" lon="14.98498667"><ele>94.0</ele><time>2016-06-18T11:20:48.311Z</time></trkpt><trkpt lat="58.73285167" lon="14.98498667"><ele>94.0</ele><time>2016-06-18T11:20:49.301Z</time></trkpt><trkpt lat="58.73269167" lon="14.98504167"><ele>94.0</ele><time>2016-06-18T11:20:50.317Z</time></trkpt><trkpt lat="58.73269167" lon="14.98504167"><ele>94.0</ele><time>2016-06-18T11:20:51.284Z</time></trkpt><trkpt lat="58.73251667" lon="14.98510167"><ele>93.0</ele><time>2016-06-18T11:20:52.290Z</time></trkpt><trkpt lat="58.73243" lon="14.98512833"><ele>93.0</ele><time>2016-06-18T11:20:53.289Z</time></trkpt><trkpt lat="58.73243" lon="14.98512833"><ele>93.0</ele><time>2016-06-18T11:20:54.290Z</time></trkpt><trkpt lat="58.73224667" lon="14.985175"><ele>93.0</ele><time>2016-06-18T11:20:55.298Z</time></trkpt><trkpt lat="58.73215333" lon="14.98519167"><ele>93.0</ele><time>2016-06-18T11:20:56.307Z</time></trkpt><trkpt lat="58.73215333" lon="14.98519167"><ele>93.0</ele><time>2016-06-18T11:20:57.310Z</time></trkpt><trkpt lat="58.731965" lon="14.985215"><ele>94.0</ele><time>2016-06-18T11:20:58.321Z</time></trkpt><trkpt lat="58.731965" lon="14.985215"><ele>94.0</ele><time>2016-06-18T11:20:59.314Z</time></trkpt><trkpt lat="58.73178" lon="14.98523333"><ele>94.0</ele><time>2016-06-18T11:21:00.322Z</time></trkpt><trkpt lat="58.73178" lon="14.98523333"><ele>94.0</ele><time>2016-06-18T11:21:01.286Z</time></trkpt><trkpt lat="58.73159167" lon="14.98523167"><ele>95.0</ele><time>2016-06-18T11:21:02.293Z</time></trkpt><trkpt lat="58.73150167" lon="14.98522"><ele>95.0</ele><time>2016-06-18T11:21:03.293Z</time></trkpt><trkpt lat="58.73150167" lon="14.98522"><ele>95.0</ele><time>2016-06-18T11:21:04.300Z</time></trkpt><trkpt lat="58.73132" lon="14.9852"><ele>96.0</ele><time>2016-06-18T11:21:05.306Z</time></trkpt><trkpt lat="58.73132" lon="14.9852"><ele>96.0</ele><time>2016-06-18T11:21:06.284Z</time></trkpt><trkpt lat="58.73114167" lon="14.98516833"><ele>96.0</ele><time>2016-06-18T11:21:07.290Z</time></trkpt><trkpt lat="58.73114167" lon="14.98516833"><ele>96.0</ele><time>2016-06-18T11:21:08.302Z</time></trkpt><trkpt lat="58.73098" lon="14.98511833"><ele>96.0</ele><time>2016-06-18T11:21:09.318Z</time></trkpt><trkpt lat="58.73090667" lon="14.98509333"><ele>96.0</ele><time>2016-06-18T11:21:10.305Z</time></trkpt><trkpt lat="58.73090667" lon="14.98509333"><ele>96.0</ele><time>2016-06-18T11:21:11.388Z</time></trkpt><trkpt lat="58.73074667" lon="14.98502833"><ele>96.0</ele><time>2016-06-18T11:21:12.306Z</time></trkpt><trkpt lat="58.73066333" lon="14.98499833"><ele>96.0</ele><time>2016-06-18T11:21:13.292Z</time></trkpt><trkpt lat="58.73057833" lon="14.98496333"><ele>95.0</ele><time>2016-06-18T11:21:14.319Z</time></trkpt><trkpt lat="58.73057833" lon="14.98496333"><ele>95.0</ele><time>2016-06-18T11:21:15.302Z</time></trkpt><trkpt lat="58.73040333" lon="14.98489"><ele>94.0</ele><time>2016-06-18T11:21:16.317Z</time></trkpt><trkpt lat="58.73031833" lon="14.984855"><ele>94.0</ele><time>2016-06-18T11:21:17.299Z</time></trkpt><trkpt lat="58.73031833" lon="14.984855"><ele>94.0</ele><time>2016-06-18T11:21:18.283Z</time></trkpt><trkpt lat="58.73015" lon="14.98479"><ele>94.0</ele><time>2016-06-18T11:21:19.290Z</time></trkpt><trkpt lat="58.73006833" lon="14.98476333"><ele>93.0</ele><time>2016-06-18T11:21:20.319Z</time></trkpt><trkpt lat="58.73006833" lon="14.98476333"><ele>93.0</ele><time>2016-06-18T11:21:21.303Z</time></trkpt><trkpt lat="58.72990833" lon="14.98471667"><ele>93.0</ele><time>2016-06-18T11:21:22.311Z</time></trkpt><trkpt lat="58.729835" lon="14.98469333"><ele>93.0</ele><time>2016-06-18T11:21:23.297Z</time></trkpt><trkpt lat="58.729835" lon="14.98469333"><ele>93.0</ele><time>2016-06-18T11:21:24.319Z</time></trkpt><trkpt lat="58.72968667" lon="14.984635"><ele>93.0</ele><time>2016-06-18T11:21:25.289Z</time></trkpt><trkpt lat="58.72961167" lon="14.984605"><ele>93.0</ele><time>2016-06-18T11:21:26.300Z</time></trkpt><trkpt lat="58.72961167" lon="14.984605"><ele>93.0</ele><time>2016-06-18T11:21:27.322Z</time></trkpt><trkpt lat="58.72946667" lon="14.98454667"><ele>94.0</ele><time>2016-06-18T11:21:28.288Z</time></trkpt><trkpt lat="58.72946667" lon="14.98454667"><ele>94.0</ele><time>2016-06-18T11:21:29.316Z</time></trkpt><trkpt lat="58.729335" lon="14.98449333"><ele>94.0</ele><time>2016-06-18T11:21:30.315Z</time></trkpt><trkpt lat="58.729335" lon="14.98449333"><ele>94.0</ele><time>2016-06-18T11:21:31.317Z</time></trkpt><trkpt lat="58.72920333" lon="14.98443833"><ele>95.0</ele><time>2016-06-18T11:21:32.285Z</time></trkpt><trkpt lat="58.72914" lon="14.98441333"><ele>95.0</ele><time>2016-06-18T11:21:33.317Z</time></trkpt><trkpt lat="58.72914" lon="14.98441333"><ele>95.0</ele><time>2016-06-18T11:21:34.305Z</time></trkpt><trkpt lat="58.728995" lon="14.98435667"><ele>96.0</ele><time>2016-06-18T11:21:35.315Z</time></trkpt><trkpt lat="58.72891833" lon="14.98432333"><ele>97.0</ele><time>2016-06-18T11:21:36.300Z</time></trkpt><trkpt lat="58.72891833" lon="14.98432333"><ele>97.0</ele><time>2016-06-18T11:21:37.291Z</time></trkpt><trkpt lat="58.72876" lon="14.98426167"><ele>97.0</ele><time>2016-06-18T11:21:38.297Z</time></trkpt><trkpt lat="58.72867833" lon="14.984225"><ele>97.0</ele><time>2016-06-18T11:21:39.284Z</time></trkpt><trkpt lat="58.72867833" lon="14.984225"><ele>97.0</ele><time>2016-06-18T11:21:40.306Z</time></trkpt><trkpt lat="58.72851" lon="14.984155"><ele>98.0</ele><time>2016-06-18T11:21:41.288Z</time></trkpt><trkpt lat="58.72851" lon="14.984155"><ele>98.0</ele><time>2016-06-18T11:21:42.290Z</time></trkpt><trkpt lat="58.72834333" lon="14.984095"><ele>98.0</ele><time>2016-06-18T11:21:43.303Z</time></trkpt><trkpt lat="58.72825" lon="14.98406"><ele>98.0</ele><time>2016-06-18T11:21:44.293Z</time></trkpt><trkpt lat="58.72825" lon="14.98406"><ele>98.0</ele><time>2016-06-18T11:21:45.287Z</time></trkpt><trkpt lat="58.72808833" lon="14.98399167"><ele>98.0</ele><time>2016-06-18T11:21:46.293Z</time></trkpt><trkpt lat="58.72808833" lon="14.98399167"><ele>98.0</ele><time>2016-06-18T11:21:47.317Z</time></trkpt><trkpt lat="58.72793333" lon="14.983925"><ele>97.0</ele><time>2016-06-18T11:21:48.301Z</time></trkpt><trkpt lat="58.72793333" lon="14.983925"><ele>97.0</ele><time>2016-06-18T11:21:49.320Z</time></trkpt><trkpt lat="58.72778333" lon="14.98385167"><ele>97.0</ele><time>2016-06-18T11:21:50.290Z</time></trkpt><trkpt lat="58.72778333" lon="14.98385167"><ele>97.0</ele><time>2016-06-18T11:21:51.291Z</time></trkpt><trkpt lat="58.72763333" lon="14.98377"><ele>97.0</ele><time>2016-06-18T11:21:52.297Z</time></trkpt><trkpt lat="58.72763333" lon="14.98377"><ele>97.0</ele><time>2016-06-18T11:21:53.283Z</time></trkpt><trkpt lat="58.72749667" lon="14.98367667"><ele>98.0</ele><time>2016-06-18T11:21:54.363Z</time></trkpt><trkpt lat="58.72749667" lon="14.98367667"><ele>98.0</ele><time>2016-06-18T11:21:55.289Z</time></trkpt><trkpt lat="58.72737167" lon="14.98358333"><ele>98.0</ele><time>2016-06-18T11:21:56.294Z</time></trkpt><trkpt lat="58.727315" lon="14.98354"><ele>98.0</ele><time>2016-06-18T11:21:57.288Z</time></trkpt><trkpt lat="58.727315" lon="14.98354"><ele>98.0</ele><time>2016-06-18T11:21:58.317Z</time></trkpt><trkpt lat="58.72721" lon="14.983455"><ele>99.0</ele><time>2016-06-18T11:21:59.286Z</time></trkpt><trkpt lat="58.72721" lon="14.983455"><ele>99.0</ele><time>2016-06-18T11:22:00.309Z</time></trkpt><trkpt lat="58.72711" lon="14.98337"><ele>99.0</ele><time>2016-06-18T11:22:01.283Z</time></trkpt><trkpt lat="58.72707" lon="14.98334"><ele>100.0</ele><time>2016-06-18T11:22:02.315Z</time></trkpt><trkpt lat="58.72703" lon="14.98330833"><ele>100.0</ele><time>2016-06-18T11:22:03.298Z</time></trkpt><trkpt lat="58.72703" lon="14.98330833"><ele>100.0</ele><time>2016-06-18T11:22:04.318Z</time></trkpt><trkpt lat="58.72694167" lon="14.98321833"><ele>100.0</ele><time>2016-06-18T11:22:05.286Z</time></trkpt><trkpt lat="58.72694167" lon="14.98321833"><ele>100.0</ele><time>2016-06-18T11:22:06.291Z</time></trkpt><trkpt lat="58.72685" lon="14.98313167"><ele>101.0</ele><time>2016-06-18T11:22:07.299Z</time></trkpt><trkpt lat="58.72680667" lon="14.98309"><ele>102.0</ele><time>2016-06-18T11:22:08.283Z</time></trkpt><trkpt lat="58.72680667" lon="14.98309"><ele>102.0</ele><time>2016-06-18T11:22:09.305Z</time></trkpt><trkpt lat="58.72672333" lon="14.983005"><ele>103.0</ele><time>2016-06-18T11:22:10.317Z</time></trkpt><trkpt lat="58.72672333" lon="14.983005"><ele>103.0</ele><time>2016-06-18T11:22:11.383Z</time></trkpt><trkpt lat="58.72664" lon="14.98290667"><ele>104.0</ele><time>2016-06-18T11:22:12.314Z</time></trkpt><trkpt lat="58.72659667" lon="14.982855"><ele>104.0</ele><time>2016-06-18T11:22:13.318Z</time></trkpt><trkpt lat="58.72655667" lon="14.982805"><ele>105.0</ele><time>2016-06-18T11:22:14.313Z</time></trkpt><trkpt lat="58.72655667" lon="14.982805"><ele>105.0</ele><time>2016-06-18T11:22:15.305Z</time></trkpt><trkpt lat="58.72644333" lon="14.98268333"><ele>107.0</ele><time>2016-06-18T11:22:16.316Z</time></trkpt><trkpt lat="58.72644333" lon="14.98268333"><ele>107.0</ele><time>2016-06-18T11:22:17.302Z</time></trkpt><trkpt lat="58.72634667" lon="14.98256"><ele>108.0</ele><time>2016-06-18T11:22:18.317Z</time></trkpt><trkpt lat="58.72634667" lon="14.98256"><ele>108.0</ele><time>2016-06-18T11:22:19.294Z</time></trkpt><trkpt lat="58.72625333" lon="14.98243667"><ele>109.0</ele><time>2016-06-18T11:22:20.293Z</time></trkpt><trkpt lat="58.72625333" lon="14.98243667"><ele>109.0</ele><time>2016-06-18T11:22:21.286Z</time></trkpt><trkpt lat="58.72617167" lon="14.98233167"><ele>111.0</ele><time>2016-06-18T11:22:22.296Z</time></trkpt><trkpt lat="58.72617167" lon="14.98233167"><ele>111.0</ele><time>2016-06-18T11:22:23.298Z</time></trkpt><trkpt lat="58.726075" lon="14.98221833"><ele>112.0</ele><time>2016-06-18T11:22:24.305Z</time></trkpt><trkpt lat="58.726075" lon="14.98221833"><ele>112.0</ele><time>2016-06-18T11:22:25.320Z</time></trkpt><trkpt lat="58.725995" lon="14.982115"><ele>114.0</ele><time>2016-06-18T11:22:26.292Z</time></trkpt><trkpt lat="58.725995" lon="14.982115"><ele>114.0</ele><time>2016-06-18T11:22:27.284Z</time></trkpt><trkpt lat="58.72591167" lon="14.982015"><ele>115.0</ele><time>2016-06-18T11:22:28.311Z</time></trkpt><trkpt lat="58.72587667" lon="14.98197"><ele>116.0</ele><time>2016-06-18T11:22:29.284Z</time></trkpt><trkpt lat="58.72587667" lon="14.98197"><ele>116.0</ele><time>2016-06-18T11:22:30.320Z</time></trkpt><trkpt lat="58.72579833" lon="14.98188667"><ele>117.0</ele><time>2016-06-18T11:22:31.290Z</time></trkpt><trkpt lat="58.72576333" lon="14.98184833"><ele>117.0</ele><time>2016-06-18T11:22:32.284Z</time></trkpt><trkpt lat="58.72576333" lon="14.98184833"><ele>117.0</ele><time>2016-06-18T11:22:33.318Z</time></trkpt><trkpt lat="58.72568333" lon="14.98176167"><ele>118.0</ele><time>2016-06-18T11:22:34.288Z</time></trkpt><trkpt lat="58.72568333" lon="14.98176167"><ele>118.0</ele><time>2016-06-18T11:22:35.295Z</time></trkpt><trkpt lat="58.725605" lon="14.98168333"><ele>120.0</ele><time>2016-06-18T11:22:36.312Z</time></trkpt><trkpt lat="58.725605" lon="14.98168333"><ele>120.0</ele><time>2016-06-18T11:22:37.320Z</time></trkpt><trkpt lat="58.72551167" lon="14.9816"><ele>121.0</ele><time>2016-06-18T11:22:38.288Z</time></trkpt><trkpt lat="58.72551167" lon="14.9816"><ele>121.0</ele><time>2016-06-18T11:22:39.286Z</time></trkpt><trkpt lat="58.72540667" lon="14.98149167"><ele>122.0</ele><time>2016-06-18T11:22:40.301Z</time></trkpt><trkpt lat="58.72540667" lon="14.98149167"><ele>122.0</ele><time>2016-06-18T11:22:41.308Z</time></trkpt><trkpt lat="58.72528667" lon="14.98139333"><ele>123.0</ele><time>2016-06-18T11:22:42.318Z</time></trkpt><trkpt lat="58.72521333" lon="14.98134"><ele>124.0</ele><time>2016-06-18T11:22:43.315Z</time></trkpt><trkpt lat="58.72521333" lon="14.98134"><ele>124.0</ele><time>2016-06-18T11:22:44.322Z</time></trkpt><trkpt lat="58.72506667" lon="14.98123167"><ele>124.0</ele><time>2016-06-18T11:22:45.293Z</time></trkpt><trkpt lat="58.72506667" lon="14.98123167"><ele>124.0</ele><time>2016-06-18T11:22:46.321Z</time></trkpt><trkpt lat="58.724855" lon="14.98103833"><ele>125.0</ele><time>2016-06-18T11:22:47.307Z</time></trkpt><trkpt lat="58.724855" lon="14.98103833"><ele>125.0</ele><time>2016-06-18T11:22:48.315Z</time></trkpt><trkpt lat="58.72464833" lon="14.98086833"><ele>124.0</ele><time>2016-06-18T11:22:49.285Z</time></trkpt><trkpt lat="58.72454833" lon="14.98080167"><ele>124.0</ele><time>2016-06-18T11:22:50.318Z</time></trkpt><trkpt lat="58.72445333" lon="14.98074"><ele>124.0</ele><time>2016-06-18T11:22:51.321Z</time></trkpt><trkpt lat="58.72445333" lon="14.98074"><ele>124.0</ele><time>2016-06-18T11:22:52.287Z</time></trkpt><trkpt lat="58.724265" lon="14.98060167"><ele>124.0</ele><time>2016-06-18T11:22:53.314Z</time></trkpt><trkpt lat="58.72417333" lon="14.980535"><ele>124.0</ele><time>2016-06-18T11:22:54.320Z</time></trkpt><trkpt lat="58.72417333" lon="14.980535"><ele>124.0</ele><time>2016-06-18T11:22:55.306Z</time></trkpt><trkpt lat="58.72400167" lon="14.98038333"><ele>124.0</ele><time>2016-06-18T11:22:56.314Z</time></trkpt><trkpt lat="58.72400167" lon="14.98038333"><ele>124.0</ele><time>2016-06-18T11:22:57.301Z</time></trkpt><trkpt lat="58.723815" lon="14.980225"><ele>123.0</ele><time>2016-06-18T11:22:58.308Z</time></trkpt><trkpt lat="58.72372667" lon="14.98013667"><ele>122.0</ele><time>2016-06-18T11:22:59.321Z</time></trkpt><trkpt lat="58.72372667" lon="14.98013667"><ele>122.0</ele><time>2016-06-18T11:23:00.312Z</time></trkpt><trkpt lat="58.72354" lon="14.97997"><ele>120.0</ele><time>2016-06-18T11:23:01.317Z</time></trkpt><trkpt lat="58.72354" lon="14.97997"><ele>120.0</ele><time>2016-06-18T11:23:02.306Z</time></trkpt><trkpt lat="58.72335167" lon="14.979815"><ele>118.0</ele><time>2016-06-18T11:23:03.287Z</time></trkpt><trkpt lat="58.72325833" lon="14.97973667"><ele>118.0</ele><time>2016-06-18T11:23:04.316Z</time></trkpt><trkpt lat="58.72325833" lon="14.97973667"><ele>118.0</ele><time>2016-06-18T11:23:05.303Z</time></trkpt><trkpt lat="58.723065" lon="14.97957667"><ele>116.0</ele><time>2016-06-18T11:23:06.318Z</time></trkpt><trkpt lat="58.723065" lon="14.97957667"><ele>116.0</ele><time>2016-06-18T11:23:07.304Z</time></trkpt><trkpt lat="58.72287167" lon="14.97941667"><ele>115.0</ele><time>2016-06-18T11:23:08.312Z</time></trkpt><trkpt lat="58.72287167" lon="14.97941667"><ele>115.0</ele><time>2016-06-18T11:23:09.320Z</time></trkpt><trkpt lat="58.72266667" lon="14.97924833"><ele>113.0</ele><time>2016-06-18T11:23:10.289Z</time></trkpt><trkpt lat="58.72266667" lon="14.97924833"><ele>113.0</ele><time>2016-06-18T11:23:11.378Z</time></trkpt><trkpt lat="58.722455" lon="14.97907667"><ele>112.0</ele><time>2016-06-18T11:23:12.288Z</time></trkpt><trkpt lat="58.72235" lon="14.97898667"><ele>111.0</ele><time>2016-06-18T11:23:13.287Z</time></trkpt><trkpt lat="58.72235" lon="14.97898667"><ele>111.0</ele><time>2016-06-18T11:23:14.314Z</time></trkpt><trkpt lat="58.72214333" lon="14.97880167"><ele>109.0</ele><time>2016-06-18T11:23:15.314Z</time></trkpt><trkpt lat="58.72214333" lon="14.97880167"><ele>109.0</ele><time>2016-06-18T11:23:16.307Z</time></trkpt><trkpt lat="58.72193833" lon="14.97861833"><ele>108.0</ele><time>2016-06-18T11:23:17.314Z</time></trkpt><trkpt lat="58.72193833" lon="14.97861833"><ele>108.0</ele><time>2016-06-18T11:23:18.302Z</time></trkpt><trkpt lat="58.72173" lon="14.97843333"><ele>106.0</ele><time>2016-06-18T11:23:19.309Z</time></trkpt><trkpt lat="58.72173" lon="14.97843333"><ele>106.0</ele><time>2016-06-18T11:23:20.321Z</time></trkpt><trkpt lat="58.72151833" lon="14.97824833"><ele>105.0</ele><time>2016-06-18T11:23:21.288Z</time></trkpt><trkpt lat="58.72151833" lon="14.97824833"><ele>105.0</ele><time>2016-06-18T11:23:22.318Z</time></trkpt><trkpt lat="58.72130333" lon="14.97805333"><ele>104.0</ele><time>2016-06-18T11:23:23.287Z</time></trkpt><trkpt lat="58.72130333" lon="14.97805333"><ele>104.0</ele><time>2016-06-18T11:23:24.293Z</time></trkpt><trkpt lat="58.721095" lon="14.97784667"><ele>102.0</ele><time>2016-06-18T11:23:25.303Z</time></trkpt><trkpt lat="58.721095" lon="14.97784667"><ele>102.0</ele><time>2016-06-18T11:23:26.321Z</time></trkpt><trkpt lat="58.72088333" lon="14.97763"><ele>100.0</ele><time>2016-06-18T11:23:27.289Z</time></trkpt><trkpt lat="58.72088333" lon="14.97763"><ele>100.0</ele><time>2016-06-18T11:23:28.316Z</time></trkpt><trkpt lat="58.72066667" lon="14.97743333"><ele>99.0</ele><time>2016-06-18T11:23:29.297Z</time></trkpt><trkpt lat="58.72066667" lon="14.97743333"><ele>99.0</ele><time>2016-06-18T11:23:30.289Z</time></trkpt><trkpt lat="58.72045" lon="14.977235"><ele>99.0</ele><time>2016-06-18T11:23:31.296Z</time></trkpt><trkpt lat="58.72034" lon="14.977135"><ele>98.0</ele><time>2016-06-18T11:23:32.282Z</time></trkpt><trkpt lat="58.72023333" lon="14.977035"><ele>98.0</ele><time>2016-06-18T11:23:33.300Z</time></trkpt><trkpt lat="58.72023333" lon="14.977035"><ele>98.0</ele><time>2016-06-18T11:23:34.306Z</time></trkpt><trkpt lat="58.72001833" lon="14.97683833"><ele>97.0</ele><time>2016-06-18T11:23:35.322Z</time></trkpt><trkpt lat="58.71991" lon="14.97674167"><ele>97.0</ele><time>2016-06-18T11:23:36.310Z</time></trkpt><trkpt lat="58.71991" lon="14.97674167"><ele>97.0</ele><time>2016-06-18T11:23:37.282Z</time></trkpt><trkpt lat="58.71969333" lon="14.97654833"><ele>97.0</ele><time>2016-06-18T11:23:38.289Z</time></trkpt><trkpt lat="58.71969333" lon="14.97654833"><ele>97.0</ele><time>2016-06-18T11:23:39.287Z</time></trkpt><trkpt lat="58.719485" lon="14.97635"><ele>96.0</ele><time>2016-06-18T11:23:40.296Z</time></trkpt><trkpt lat="58.71938667" lon="14.97624667"><ele>96.0</ele><time>2016-06-18T11:23:41.282Z</time></trkpt><trkpt lat="58.71938667" lon="14.97624667"><ele>96.0</ele><time>2016-06-18T11:23:42.303Z</time></trkpt><trkpt lat="58.71919833" lon="14.97602167"><ele>96.0</ele><time>2016-06-18T11:23:43.284Z</time></trkpt><trkpt lat="58.71910833" lon="14.975905"><ele>96.0</ele><time>2016-06-18T11:23:44.310Z</time></trkpt><trkpt lat="58.71910833" lon="14.975905"><ele>96.0</ele><time>2016-06-18T11:23:45.291Z</time></trkpt><trkpt lat="58.71893667" lon="14.97567333"><ele>95.0</ele><time>2016-06-18T11:23:46.302Z</time></trkpt><trkpt lat="58.718855" lon="14.97555333"><ele>95.0</ele><time>2016-06-18T11:23:47.290Z</time></trkpt><trkpt lat="58.718855" lon="14.97555333"><ele>95.0</ele><time>2016-06-18T11:23:48.317Z</time></trkpt><trkpt lat="58.71869833" lon="14.97531833"><ele>95.0</ele><time>2016-06-18T11:23:49.286Z</time></trkpt><trkpt lat="58.71869833" lon="14.97531833"><ele>95.0</ele><time>2016-06-18T11:23:50.313Z</time></trkpt><trkpt lat="58.71855" lon="14.975085"><ele>96.0</ele><time>2016-06-18T11:23:51.289Z</time></trkpt><trkpt lat="58.71848" lon="14.97497167"><ele>96.0</ele><time>2016-06-18T11:23:52.322Z</time></trkpt><trkpt lat="58.71841" lon="14.97485833"><ele>97.0</ele><time>2016-06-18T11:23:53.292Z</time></trkpt><trkpt lat="58.71841" lon="14.97485833"><ele>97.0</ele><time>2016-06-18T11:23:54.318Z</time></trkpt><trkpt lat="58.718275" lon="14.97463833"><ele>97.0</ele><time>2016-06-18T11:23:55.285Z</time></trkpt><trkpt lat="58.718275" lon="14.97463833"><ele>97.0</ele><time>2016-06-18T11:23:56.308Z</time></trkpt><trkpt lat="58.71814167" lon="14.97442333"><ele>97.0</ele><time>2016-06-18T11:23:57.283Z</time></trkpt><trkpt lat="58.71814167" lon="14.97442333"><ele>97.0</ele><time>2016-06-18T11:23:58.311Z</time></trkpt><trkpt lat="58.71801667" lon="14.97422167"><ele>97.0</ele><time>2016-06-18T11:23:59.320Z</time></trkpt><trkpt lat="58.71795833" lon="14.97412167"><ele>97.0</ele><time>2016-06-18T11:24:00.304Z</time></trkpt><trkpt lat="58.71790167" lon="14.974025"><ele>97.0</ele><time>2016-06-18T11:24:01.290Z</time></trkpt><trkpt lat="58.717845" lon="14.97392667"><ele>97.0</ele><time>2016-06-18T11:24:02.314Z</time></trkpt><trkpt lat="58.717845" lon="14.97392667"><ele>97.0</ele><time>2016-06-18T11:24:03.284Z</time></trkpt><trkpt lat="58.71773667" lon="14.97373833"><ele>97.0</ele><time>2016-06-18T11:24:04.291Z</time></trkpt><trkpt lat="58.717685" lon="14.97365333"><ele>97.0</ele><time>2016-06-18T11:24:05.322Z</time></trkpt><trkpt lat="58.717685" lon="14.97365333"><ele>97.0</ele><time>2016-06-18T11:24:06.320Z</time></trkpt><trkpt lat="58.71759" lon="14.97349667"><ele>98.0</ele><time>2016-06-18T11:24:07.288Z</time></trkpt><trkpt lat="58.71759" lon="14.97349667"><ele>98.0</ele><time>2016-06-18T11:24:08.317Z</time></trkpt><trkpt lat="58.71749833" lon="14.97333667"><ele>98.0</ele><time>2016-06-18T11:24:09.314Z</time></trkpt><trkpt lat="58.71749833" lon="14.97333667"><ele>98.0</ele><time>2016-06-18T11:24:10.296Z</time></trkpt><trkpt lat="58.717405" lon="14.9732"><ele>99.0</ele><time>2016-06-18T11:24:11.385Z</time></trkpt><trkpt lat="58.717405" lon="14.9732"><ele>99.0</ele><time>2016-06-18T11:24:12.293Z</time></trkpt><trkpt lat="58.71731667" lon="14.97306167"><ele>99.0</ele><time>2016-06-18T11:24:13.301Z</time></trkpt><trkpt lat="58.71727333" lon="14.97299167"><ele>100.0</ele><time>2016-06-18T11:24:14.290Z</time></trkpt><trkpt lat="58.71727333" lon="14.97299167"><ele>100.0</ele><time>2016-06-18T11:24:15.319Z</time></trkpt><trkpt lat="58.71719" lon="14.97284333"><ele>101.0</ele><time>2016-06-18T11:24:16.288Z</time></trkpt><trkpt lat="58.71719" lon="14.97284333"><ele>101.0</ele><time>2016-06-18T11:24:17.318Z</time></trkpt><trkpt lat="58.71710833" lon="14.972705"><ele>102.0</ele><time>2016-06-18T11:24:18.294Z</time></trkpt><trkpt lat="58.71710833" lon="14.972705"><ele>102.0</ele><time>2016-06-18T11:24:19.317Z</time></trkpt><trkpt lat="58.717025" lon="14.97257333"><ele>102.0</ele><time>2016-06-18T11:24:20.307Z</time></trkpt><trkpt lat="58.717025" lon="14.97257333"><ele>102.0</ele><time>2016-06-18T11:24:21.299Z</time></trkpt><trkpt lat="58.71694333" lon="14.97244833"><ele>102.0</ele><time>2016-06-18T11:24:22.318Z</time></trkpt><trkpt lat="58.71694333" lon="14.97244833"><ele>102.0</ele><time>2016-06-18T11:24:23.305Z</time></trkpt><trkpt lat="58.71686833" lon="14.97231833"><ele>103.0</ele><time>2016-06-18T11:24:24.315Z</time></trkpt><trkpt lat="58.71686833" lon="14.97231833"><ele>103.0</ele><time>2016-06-18T11:24:25.297Z</time></trkpt><trkpt lat="58.71678833" lon="14.97219333"><ele>103.0</ele><time>2016-06-18T11:24:26.309Z</time></trkpt><trkpt lat="58.71678833" lon="14.97219333"><ele>103.0</ele><time>2016-06-18T11:24:27.320Z</time></trkpt><trkpt lat="58.71671" lon="14.97206833"><ele>103.0</ele><time>2016-06-18T11:24:28.290Z</time></trkpt><trkpt lat="58.71671" lon="14.97206833"><ele>103.0</ele><time>2016-06-18T11:24:29.309Z</time></trkpt><trkpt lat="58.71663167" lon="14.97194167"><ele>103.0</ele><time>2016-06-18T11:24:30.293Z</time></trkpt><trkpt lat="58.71663167" lon="14.97194167"><ele>103.0</ele><time>2016-06-18T11:24:31.293Z</time></trkpt><trkpt lat="58.71655" lon="14.97180667"><ele>104.0</ele><time>2016-06-18T11:24:32.300Z</time></trkpt><trkpt lat="58.71655" lon="14.97180667"><ele>104.0</ele><time>2016-06-18T11:24:33.286Z</time></trkpt><trkpt lat="58.71645833" lon="14.97166333"><ele>103.0</ele><time>2016-06-18T11:24:34.325Z</time></trkpt><trkpt lat="58.716415" lon="14.9716"><ele>103.0</ele><time>2016-06-18T11:24:35.288Z</time></trkpt><trkpt lat="58.716415" lon="14.9716"><ele>103.0</ele><time>2016-06-18T11:24:36.300Z</time></trkpt><trkpt lat="58.71633" lon="14.971465"><ele>103.0</ele><time>2016-06-18T11:24:37.321Z</time></trkpt><trkpt lat="58.71633" lon="14.971465"><ele>103.0</ele><time>2016-06-18T11:24:38.303Z</time></trkpt><trkpt lat="58.716245" lon="14.97133"><ele>102.0</ele><time>2016-06-18T11:24:39.312Z</time></trkpt><trkpt lat="58.716245" lon="14.97133"><ele>102.0</ele><time>2016-06-18T11:24:40.287Z</time></trkpt><trkpt lat="58.71616333" lon="14.97118167"><ele>102.0</ele><time>2016-06-18T11:24:41.314Z</time></trkpt><trkpt lat="58.71616333" lon="14.97118167"><ele>102.0</ele><time>2016-06-18T11:24:42.287Z</time></trkpt><trkpt lat="58.71608333" lon="14.97103667"><ele>102.0</ele><time>2016-06-18T11:24:43.299Z</time></trkpt><trkpt lat="58.71603833" lon="14.97096333"><ele>102.0</ele><time>2016-06-18T11:24:44.285Z</time></trkpt><trkpt lat="58.715995" lon="14.97089167"><ele>102.0</ele><time>2016-06-18T11:24:45.307Z</time></trkpt><trkpt lat="58.715995" lon="14.97089167"><ele>102.0</ele><time>2016-06-18T11:24:46.291Z</time></trkpt><trkpt lat="58.715905" lon="14.97074833"><ele>101.0</ele><time>2016-06-18T11:24:47.298Z</time></trkpt><trkpt lat="58.71586" lon="14.97067833"><ele>101.0</ele><time>2016-06-18T11:24:48.284Z</time></trkpt><trkpt lat="58.71586" lon="14.97067833"><ele>101.0</ele><time>2016-06-18T11:24:49.304Z</time></trkpt><trkpt lat="58.71578333" lon="14.97055167"><ele>102.0</ele><time>2016-06-18T11:24:50.317Z</time></trkpt><trkpt lat="58.71578333" lon="14.97055167"><ele>102.0</ele><time>2016-06-18T11:24:51.301Z</time></trkpt><trkpt lat="58.71570667" lon="14.97042667"><ele>102.0</ele><time>2016-06-18T11:24:52.315Z</time></trkpt><trkpt lat="58.71570667" lon="14.97042667"><ele>102.0</ele><time>2016-06-18T11:24:53.283Z</time></trkpt><trkpt lat="58.71562833" lon="14.97029667"><ele>102.0</ele><time>2016-06-18T11:24:54.290Z</time></trkpt><trkpt lat="58.71559167" lon="14.97023667"><ele>102.0</ele><time>2016-06-18T11:24:55.313Z</time></trkpt><trkpt lat="58.71559167" lon="14.97023667"><ele>102.0</ele><time>2016-06-18T11:24:56.290Z</time></trkpt><trkpt lat="58.71552" lon="14.97010833"><ele>103.0</ele><time>2016-06-18T11:24:57.297Z</time></trkpt><trkpt lat="58.71552" lon="14.97010833"><ele>103.0</ele><time>2016-06-18T11:24:58.320Z</time></trkpt><trkpt lat="58.71544333" lon="14.97001167"><ele>103.0</ele><time>2016-06-18T11:24:59.309Z</time></trkpt><trkpt lat="58.71544333" lon="14.97001167"><ele>103.0</ele><time>2016-06-18T11:25:00.294Z</time></trkpt><trkpt lat="58.71536" lon="14.96990167"><ele>104.0</ele><time>2016-06-18T11:25:01.301Z</time></trkpt><trkpt lat="58.715315" lon="14.96985333"><ele>105.0</ele><time>2016-06-18T11:25:02.300Z</time></trkpt><trkpt lat="58.71527" lon="14.96979833"><ele>105.0</ele><time>2016-06-18T11:25:03.290Z</time></trkpt><trkpt lat="58.71527" lon="14.96979833"><ele>105.0</ele><time>2016-06-18T11:25:04.317Z</time></trkpt><trkpt lat="58.71518333" lon="14.96967"><ele>106.0</ele><time>2016-06-18T11:25:05.285Z</time></trkpt><trkpt lat="58.71518333" lon="14.96967"><ele>106.0</ele><time>2016-06-18T11:25:06.309Z</time></trkpt><trkpt lat="58.71511167" lon="14.96957167"><ele>106.0</ele><time>2016-06-18T11:25:07.305Z</time></trkpt><trkpt lat="58.71511167" lon="14.96957167"><ele>106.0</ele><time>2016-06-18T11:25:08.320Z</time></trkpt><trkpt lat="58.71503167" lon="14.96947333"><ele>107.0</ele><time>2016-06-18T11:25:09.289Z</time></trkpt><trkpt lat="58.714995" lon="14.96942333"><ele>108.0</ele><time>2016-06-18T11:25:10.314Z</time></trkpt><trkpt lat="58.714995" lon="14.96942333"><ele>108.0</ele><time>2016-06-18T11:25:11.379Z</time></trkpt><trkpt lat="58.71492667" lon="14.96932667"><ele>109.0</ele><time>2016-06-18T11:25:12.286Z</time></trkpt><trkpt lat="58.71489833" lon="14.96927667"><ele>110.0</ele><time>2016-06-18T11:25:13.319Z</time></trkpt><trkpt lat="58.71487167" lon="14.96923833"><ele>110.0</ele><time>2016-06-18T11:25:14.305Z</time></trkpt><trkpt lat="58.71487167" lon="14.96923833"><ele>110.0</ele><time>2016-06-18T11:25:15.291Z</time></trkpt><trkpt lat="58.714815" lon="14.969155"><ele>111.0</ele><time>2016-06-18T11:25:16.298Z</time></trkpt><trkpt lat="58.71477667" lon="14.96911167"><ele>111.0</ele><time>2016-06-18T11:25:17.313Z</time></trkpt><trkpt lat="58.71477667" lon="14.96911167"><ele>111.0</ele><time>2016-06-18T11:25:18.321Z</time></trkpt><trkpt lat="58.71469667" lon="14.96901"><ele>112.0</ele><time>2016-06-18T11:25:19.289Z</time></trkpt><trkpt lat="58.71464667" lon="14.968955"><ele>113.0</ele><time>2016-06-18T11:25:20.282Z</time></trkpt><trkpt lat="58.71464667" lon="14.968955"><ele>113.0</ele><time>2016-06-18T11:25:21.284Z</time></trkpt><trkpt lat="58.71457167" lon="14.96886333"><ele>114.0</ele><time>2016-06-18T11:25:22.298Z</time></trkpt><trkpt lat="58.71457167" lon="14.96886333"><ele>114.0</ele><time>2016-06-18T11:25:23.285Z</time></trkpt><trkpt lat="58.714515" lon="14.96877333"><ele>115.0</ele><time>2016-06-18T11:25:24.304Z</time></trkpt><trkpt lat="58.714515" lon="14.96877333"><ele>115.0</ele><time>2016-06-18T11:25:25.301Z</time></trkpt><trkpt lat="58.71444333" lon="14.9687"><ele>117.0</ele><time>2016-06-18T11:25:26.308Z</time></trkpt><trkpt lat="58.71440167" lon="14.968655"><ele>117.0</ele><time>2016-06-18T11:25:27.315Z</time></trkpt><trkpt lat="58.71440167" lon="14.968655"><ele>117.0</ele><time>2016-06-18T11:25:28.315Z</time></trkpt><trkpt lat="58.71432833" lon="14.96857"><ele>118.0</ele><time>2016-06-18T11:25:29.286Z</time></trkpt><trkpt lat="58.71428667" lon="14.96852667"><ele>119.0</ele><time>2016-06-18T11:25:30.287Z</time></trkpt><trkpt lat="58.71428667" lon="14.96852667"><ele>119.0</ele><time>2016-06-18T11:25:31.302Z</time></trkpt><trkpt lat="58.71421167" lon="14.96846333"><ele>120.0</ele><time>2016-06-18T11:25:32.315Z</time></trkpt><trkpt lat="58.71421167" lon="14.96846333"><ele>120.0</ele><time>2016-06-18T11:25:33.300Z</time></trkpt><trkpt lat="58.71413167" lon="14.96837333"><ele>121.0</ele><time>2016-06-18T11:25:34.307Z</time></trkpt><trkpt lat="58.71413167" lon="14.96837333"><ele>121.0</ele><time>2016-06-18T11:25:35.292Z</time></trkpt><trkpt lat="58.71404167" lon="14.96829"><ele>122.0</ele><time>2016-06-18T11:25:36.311Z</time></trkpt><trkpt lat="58.71404167" lon="14.96829"><ele>122.0</ele><time>2016-06-18T11:25:37.319Z</time></trkpt><trkpt lat="58.713935" lon="14.96819833"><ele>124.0</ele><time>2016-06-18T11:25:38.286Z</time></trkpt><trkpt lat="58.713935" lon="14.96819833"><ele>124.0</ele><time>2016-06-18T11:25:39.309Z</time></trkpt><trkpt lat="58.71383667" lon="14.96812"><ele>125.0</ele><time>2016-06-18T11:25:40.324Z</time></trkpt><trkpt lat="58.71383667" lon="14.96812"><ele>125.0</ele><time>2016-06-18T11:25:41.309Z</time></trkpt><trkpt lat="58.713765" lon="14.968055"><ele>126.0</ele><time>2016-06-18T11:25:42.320Z</time></trkpt><trkpt lat="58.713765" lon="14.968055"><ele>126.0</ele><time>2016-06-18T11:25:43.306Z</time></trkpt><trkpt lat="58.71368833" lon="14.96796333"><ele>127.0</ele><time>2016-06-18T11:25:44.323Z</time></trkpt><trkpt lat="58.71368833" lon="14.96796333"><ele>127.0</ele><time>2016-06-18T11:25:45.296Z</time></trkpt><trkpt lat="58.71362" lon="14.96788667"><ele>128.0</ele><time>2016-06-18T11:25:46.303Z</time></trkpt><trkpt lat="58.71362" lon="14.96788667"><ele>128.0</ele><time>2016-06-18T11:25:47.287Z</time></trkpt><trkpt lat="58.71355833" lon="14.967815"><ele>129.0</ele><time>2016-06-18T11:25:48.286Z</time></trkpt><trkpt lat="58.71355833" lon="14.967815"><ele>129.0</ele><time>2016-06-18T11:25:49.289Z</time></trkpt><trkpt lat="58.71348667" lon="14.96772833"><ele>130.0</ele><time>2016-06-18T11:25:50.296Z</time></trkpt><trkpt lat="58.71348667" lon="14.96772833"><ele>130.0</ele><time>2016-06-18T11:25:51.309Z</time></trkpt><trkpt lat="58.7134" lon="14.96764833"><ele>131.0</ele><time>2016-06-18T11:25:52.317Z</time></trkpt><trkpt lat="58.71336" lon="14.96761333"><ele>131.0</ele><time>2016-06-18T11:25:53.317Z</time></trkpt><trkpt lat="58.71336" lon="14.96761333"><ele>131.0</ele><time>2016-06-18T11:25:54.290Z</time></trkpt><trkpt lat="58.71326167" lon="14.967525"><ele>131.0</ele><time>2016-06-18T11:25:55.297Z</time></trkpt><trkpt lat="58.71326167" lon="14.967525"><ele>131.0</ele><time>2016-06-18T11:25:56.310Z</time></trkpt><trkpt lat="58.713155" lon="14.96744333"><ele>132.0</ele><time>2016-06-18T11:25:57.283Z</time></trkpt><trkpt lat="58.713155" lon="14.96744333"><ele>132.0</ele><time>2016-06-18T11:25:58.306Z</time></trkpt><trkpt lat="58.713045" lon="14.96736167"><ele>131.0</ele><time>2016-06-18T11:25:59.322Z</time></trkpt><trkpt lat="58.713045" lon="14.96736167"><ele>131.0</ele><time>2016-06-18T11:26:00.291Z</time></trkpt><trkpt lat="58.71292833" lon="14.96727667"><ele>130.0</ele><time>2016-06-18T11:26:01.299Z</time></trkpt><trkpt lat="58.71287333" lon="14.96723833"><ele>130.0</ele><time>2016-06-18T11:26:02.286Z</time></trkpt><trkpt lat="58.71287333" lon="14.96723833"><ele>130.0</ele><time>2016-06-18T11:26:03.304Z</time></trkpt><trkpt lat="58.71276833" lon="14.96713"><ele>129.0</ele><time>2016-06-18T11:26:04.310Z</time></trkpt><trkpt lat="58.71276833" lon="14.96713"><ele>129.0</ele><time>2016-06-18T11:26:05.294Z</time></trkpt><trkpt lat="58.71263167" lon="14.96698833"><ele>128.0</ele><time>2016-06-18T11:26:06.283Z</time></trkpt><trkpt lat="58.71256" lon="14.96690667"><ele>128.0</ele><time>2016-06-18T11:26:07.297Z</time></trkpt><trkpt lat="58.71256" lon="14.96690667"><ele>128.0</ele><time>2016-06-18T11:26:08.315Z</time></trkpt><trkpt lat="58.712445" lon="14.96681333"><ele>127.0</ele><time>2016-06-18T11:26:09.314Z</time></trkpt><trkpt lat="58.712445" lon="14.96681333"><ele>127.0</ele><time>2016-06-18T11:26:10.322Z</time></trkpt><trkpt lat="58.712355" lon="14.96671"><ele>127.0</ele><time>2016-06-18T11:26:11.386Z</time></trkpt><trkpt lat="58.712355" lon="14.96671"><ele>127.0</ele><time>2016-06-18T11:26:12.292Z</time></trkpt><trkpt lat="58.71225833" lon="14.966635"><ele>126.0</ele><time>2016-06-18T11:26:13.288Z</time></trkpt><trkpt lat="58.71225833" lon="14.966635"><ele>126.0</ele><time>2016-06-18T11:26:14.304Z</time></trkpt><trkpt lat="58.71215" lon="14.96655167"><ele>126.0</ele><time>2016-06-18T11:26:15.311Z</time></trkpt><trkpt lat="58.712095" lon="14.96650667"><ele>126.0</ele><time>2016-06-18T11:26:16.304Z</time></trkpt><trkpt lat="58.712095" lon="14.96650667"><ele>126.0</ele><time>2016-06-18T11:26:17.288Z</time></trkpt><trkpt lat="58.71198333" lon="14.96640667"><ele>125.0</ele><time>2016-06-18T11:26:18.296Z</time></trkpt><trkpt lat="58.71198333" lon="14.96640667"><ele>125.0</ele><time>2016-06-18T11:26:19.320Z</time></trkpt><trkpt lat="58.71186167" lon="14.96631"><ele>124.0</ele><time>2016-06-18T11:26:20.313Z</time></trkpt><trkpt lat="58.71186167" lon="14.96631"><ele>124.0</ele><time>2016-06-18T11:26:21.306Z</time></trkpt><trkpt lat="58.711735" lon="14.96618667"><ele>123.0</ele><time>2016-06-18T11:26:22.321Z</time></trkpt><trkpt lat="58.71167" lon="14.96612833"><ele>122.0</ele><time>2016-06-18T11:26:23.319Z</time></trkpt><trkpt lat="58.71167" lon="14.96612833"><ele>122.0</ele><time>2016-06-18T11:26:24.294Z</time></trkpt><trkpt lat="58.71153667" lon="14.96601"><ele>122.0</ele><time>2016-06-18T11:26:25.311Z</time></trkpt><trkpt lat="58.71147167" lon="14.96594667"><ele>121.0</ele><time>2016-06-18T11:26:26.283Z</time></trkpt><trkpt lat="58.71147167" lon="14.96594667"><ele>121.0</ele><time>2016-06-18T11:26:27.306Z</time></trkpt><trkpt lat="58.71134" lon="14.96582"><ele>120.0</ele><time>2016-06-18T11:26:28.284Z</time></trkpt><trkpt lat="58.71127" lon="14.96575667"><ele>120.0</ele><time>2016-06-18T11:26:29.305Z</time></trkpt><trkpt lat="58.71127" lon="14.96575667"><ele>120.0</ele><time>2016-06-18T11:26:30.309Z</time></trkpt><trkpt lat="58.71113333" lon="14.96562333"><ele>119.0</ele><time>2016-06-18T11:26:31.292Z</time></trkpt><trkpt lat="58.711065" lon="14.96555667"><ele>118.0</ele><time>2016-06-18T11:26:32.321Z</time></trkpt><trkpt lat="58.711065" lon="14.96555667"><ele>118.0</ele><time>2016-06-18T11:26:33.305Z</time></trkpt><trkpt lat="58.71092" lon="14.96542167"><ele>118.0</ele><time>2016-06-18T11:26:34.290Z</time></trkpt><trkpt lat="58.71084667" lon="14.965355"><ele>117.0</ele><time>2016-06-18T11:26:35.291Z</time></trkpt><trkpt lat="58.71084667" lon="14.965355"><ele>117.0</ele><time>2016-06-18T11:26:36.316Z</time></trkpt><trkpt lat="58.710685" lon="14.96521"><ele>117.0</ele><time>2016-06-18T11:26:37.284Z</time></trkpt><trkpt lat="58.71060333" lon="14.96513667"><ele>117.0</ele><time>2016-06-18T11:26:38.290Z</time></trkpt><trkpt lat="58.71060333" lon="14.96513667"><ele>117.0</ele><time>2016-06-18T11:26:39.299Z</time></trkpt><trkpt lat="58.71044167" lon="14.96499333"><ele>116.0</ele><time>2016-06-18T11:26:40.313Z</time></trkpt><trkpt lat="58.71044167" lon="14.96499333"><ele>116.0</ele><time>2016-06-18T11:26:41.296Z</time></trkpt><trkpt lat="58.71028167" lon="14.964855"><ele>115.0</ele><time>2016-06-18T11:26:42.305Z</time></trkpt><trkpt lat="58.710205" lon="14.96478667"><ele>114.0</ele><time>2016-06-18T11:26:43.300Z</time></trkpt><trkpt lat="58.710205" lon="14.96478667"><ele>114.0</ele><time>2016-06-18T11:26:44.291Z</time></trkpt><trkpt lat="58.71004667" lon="14.964645"><ele>114.0</ele><time>2016-06-18T11:26:45.297Z</time></trkpt><trkpt lat="58.71004667" lon="14.964645"><ele>114.0</ele><time>2016-06-18T11:26:46.288Z</time></trkpt><trkpt lat="58.70988833" lon="14.96450667"><ele>113.0</ele><time>2016-06-18T11:26:47.304Z</time></trkpt><trkpt lat="58.70988833" lon="14.96450667"><ele>113.0</ele><time>2016-06-18T11:26:48.304Z</time></trkpt><trkpt lat="58.709735" lon="14.96437167"><ele>113.0</ele><time>2016-06-18T11:26:49.284Z</time></trkpt><trkpt lat="58.709735" lon="14.96437167"><ele>113.0</ele><time>2016-06-18T11:26:50.289Z</time></trkpt><trkpt lat="58.70958667" lon="14.96423333"><ele>113.0</ele><time>2016-06-18T11:26:51.296Z</time></trkpt><trkpt lat="58.70958667" lon="14.96423333"><ele>113.0</ele><time>2016-06-18T11:26:52.287Z</time></trkpt><trkpt lat="58.70944333" lon="14.96411333"><ele>113.0</ele><time>2016-06-18T11:26:53.307Z</time></trkpt><trkpt lat="58.70944333" lon="14.96411333"><ele>113.0</ele><time>2016-06-18T11:26:54.301Z</time></trkpt><trkpt lat="58.709305" lon="14.963995"><ele>113.0</ele><time>2016-06-18T11:26:55.308Z</time></trkpt><trkpt lat="58.70923833" lon="14.96394333"><ele>113.0</ele><time>2016-06-18T11:26:56.302Z</time></trkpt><trkpt lat="58.70923833" lon="14.96394333"><ele>113.0</ele><time>2016-06-18T11:26:57.283Z</time></trkpt><trkpt lat="58.709115" lon="14.96383"><ele>113.0</ele><time>2016-06-18T11:26:58.293Z</time></trkpt><trkpt lat="58.709115" lon="14.96383"><ele>113.0</ele><time>2016-06-18T11:26:59.321Z</time></trkpt><trkpt lat="58.70900167" lon="14.96373"><ele>114.0</ele><time>2016-06-18T11:27:00.304Z</time></trkpt><trkpt lat="58.70895167" lon="14.96368667"><ele>115.0</ele><time>2016-06-18T11:27:01.283Z</time></trkpt><trkpt lat="58.70890333" lon="14.96364667"><ele>115.0</ele><time>2016-06-18T11:27:02.312Z</time></trkpt><trkpt lat="58.70890333" lon="14.96364667"><ele>115.0</ele><time>2016-06-18T11:27:03.296Z</time></trkpt><trkpt lat="58.70881333" lon="14.96357"><ele>116.0</ele><time>2016-06-18T11:27:04.303Z</time></trkpt><trkpt lat="58.70881333" lon="14.96357"><ele>116.0</ele><time>2016-06-18T11:27:05.288Z</time></trkpt><trkpt lat="58.70873167" lon="14.96350667"><ele>116.0</ele><time>2016-06-18T11:27:06.304Z</time></trkpt><trkpt lat="58.70873167" lon="14.96350667"><ele>116.0</ele><time>2016-06-18T11:27:07.282Z</time></trkpt><trkpt lat="58.708655" lon="14.963445"><ele>116.0</ele><time>2016-06-18T11:27:08.289Z</time></trkpt><trkpt lat="58.708655" lon="14.963445"><ele>116.0</ele><time>2016-06-18T11:27:09.320Z</time></trkpt><trkpt lat="58.70857833" lon="14.96339333"><ele>117.0</ele><time>2016-06-18T11:27:10.304Z</time></trkpt><trkpt lat="58.70857833" lon="14.96339333"><ele>117.0</ele><time>2016-06-18T11:27:11.393Z</time></trkpt><trkpt lat="58.70850333" lon="14.96333667"><ele>117.0</ele><time>2016-06-18T11:27:12.318Z</time></trkpt><trkpt lat="58.70846667" lon="14.96330833"><ele>117.0</ele><time>2016-06-18T11:27:13.319Z</time></trkpt><trkpt lat="58.70842833" lon="14.96328167"><ele>117.0</ele><time>2016-06-18T11:27:14.287Z</time></trkpt><trkpt lat="58.70842833" lon="14.96328167"><ele>117.0</ele><time>2016-06-18T11:27:15.310Z</time></trkpt><trkpt lat="58.70835" lon="14.963235"><ele>118.0</ele><time>2016-06-18T11:27:16.318Z</time></trkpt><trkpt lat="58.70831" lon="14.96321167"><ele>118.0</ele><time>2016-06-18T11:27:17.302Z</time></trkpt><trkpt lat="58.70831" lon="14.96321167"><ele>118.0</ele><time>2016-06-18T11:27:18.316Z</time></trkpt><trkpt lat="58.70822667" lon="14.96316"><ele>118.0</ele><time>2016-06-18T11:27:19.285Z</time></trkpt><trkpt lat="58.70822667" lon="14.96316"><ele>118.0</ele><time>2016-06-18T11:27:20.307Z</time></trkpt><trkpt lat="58.70814667" lon="14.96311667"><ele>118.0</ele><time>2016-06-18T11:27:21.308Z</time></trkpt><trkpt lat="58.70814667" lon="14.96311667"><ele>118.0</ele><time>2016-06-18T11:27:22.287Z</time></trkpt><trkpt lat="58.70806833" lon="14.96308"><ele>119.0</ele><time>2016-06-18T11:27:23.294Z</time></trkpt><trkpt lat="58.70802833" lon="14.96306167"><ele>119.0</ele><time>2016-06-18T11:27:24.318Z</time></trkpt><trkpt lat="58.70802833" lon="14.96306167"><ele>119.0</ele><time>2016-06-18T11:27:25.303Z</time></trkpt><trkpt lat="58.70795167" lon="14.96303333"><ele>119.0</ele><time>2016-06-18T11:27:26.310Z</time></trkpt><trkpt lat="58.70795167" lon="14.96303333"><ele>119.0</ele><time>2016-06-18T11:27:27.295Z</time></trkpt><trkpt lat="58.707885" lon="14.96302"><ele>119.0</ele><time>2016-06-18T11:27:28.302Z</time></trkpt><trkpt lat="58.707885" lon="14.96302"><ele>119.0</ele><time>2016-06-18T11:27:29.318Z</time></trkpt><trkpt lat="58.70781167" lon="14.96299167"><ele>119.0</ele><time>2016-06-18T11:27:30.300Z</time></trkpt><trkpt lat="58.70781167" lon="14.96299167"><ele>119.0</ele><time>2016-06-18T11:27:31.301Z</time></trkpt><trkpt lat="58.70774667" lon="14.96296667"><ele>120.0</ele><time>2016-06-18T11:27:32.311Z</time></trkpt><trkpt lat="58.70771167" lon="14.962955"><ele>120.0</ele><time>2016-06-18T11:27:33.287Z</time></trkpt><trkpt lat="58.70771167" lon="14.962955"><ele>120.0</ele><time>2016-06-18T11:27:34.301Z</time></trkpt><trkpt lat="58.70764333" lon="14.96294333"><ele>119.0</ele><time>2016-06-18T11:27:35.308Z</time></trkpt><trkpt lat="58.70760833" lon="14.962935"><ele>119.0</ele><time>2016-06-18T11:27:36.303Z</time></trkpt><trkpt lat="58.70760833" lon="14.962935"><ele>119.0</ele><time>2016-06-18T11:27:37.306Z</time></trkpt><trkpt lat="58.707535" lon="14.96291667"><ele>120.0</ele><time>2016-06-18T11:27:38.313Z</time></trkpt><trkpt lat="58.707535" lon="14.96291667"><ele>120.0</ele><time>2016-06-18T11:27:39.298Z</time></trkpt><trkpt lat="58.70746333" lon="14.96290333"><ele>121.0</ele><time>2016-06-18T11:27:40.304Z</time></trkpt><trkpt lat="58.70742667" lon="14.96289833"><ele>121.0</ele><time>2016-06-18T11:27:41.312Z</time></trkpt><trkpt lat="58.70742667" lon="14.96289833"><ele>121.0</ele><time>2016-06-18T11:27:42.297Z</time></trkpt><trkpt lat="58.70735333" lon="14.96289"><ele>121.0</ele><time>2016-06-18T11:27:43.309Z</time></trkpt><trkpt lat="58.70735333" lon="14.96289"><ele>121.0</ele><time>2016-06-18T11:27:44.303Z</time></trkpt><trkpt lat="58.707275" lon="14.96288167"><ele>122.0</ele><time>2016-06-18T11:27:45.310Z</time></trkpt><trkpt lat="58.707275" lon="14.96288167"><ele>122.0</ele><time>2016-06-18T11:27:46.320Z</time></trkpt><trkpt lat="58.70719833" lon="14.96287833"><ele>122.0</ele><time>2016-06-18T11:27:47.287Z</time></trkpt><trkpt lat="58.70719833" lon="14.96287833"><ele>122.0</ele><time>2016-06-18T11:27:48.310Z</time></trkpt><trkpt lat="58.70712667" lon="14.96287833"><ele>123.0</ele><time>2016-06-18T11:27:49.313Z</time></trkpt><trkpt lat="58.70712667" lon="14.96287833"><ele>123.0</ele><time>2016-06-18T11:27:50.282Z</time></trkpt><trkpt lat="58.707055" lon="14.96287833"><ele>123.0</ele><time>2016-06-18T11:27:51.290Z</time></trkpt><trkpt lat="58.707055" lon="14.96287833"><ele>123.0</ele><time>2016-06-18T11:27:52.320Z</time></trkpt><trkpt lat="58.70697333" lon="14.962875"><ele>123.0</ele><time>2016-06-18T11:27:53.289Z</time></trkpt><trkpt lat="58.70697333" lon="14.962875"><ele>123.0</ele><time>2016-06-18T11:27:54.308Z</time></trkpt><trkpt lat="58.70689" lon="14.962875"><ele>124.0</ele><time>2016-06-18T11:27:55.302Z</time></trkpt><trkpt lat="58.70689" lon="14.962875"><ele>124.0</ele><time>2016-06-18T11:27:56.302Z</time></trkpt><trkpt lat="58.70680833" lon="14.96288167"><ele>124.0</ele><time>2016-06-18T11:27:57.309Z</time></trkpt><trkpt lat="58.70680833" lon="14.96288167"><ele>124.0</ele><time>2016-06-18T11:27:58.296Z</time></trkpt><trkpt lat="58.70672333" lon="14.96289167"><ele>124.0</ele><time>2016-06-18T11:27:59.318Z</time></trkpt><trkpt lat="58.70672333" lon="14.96289167"><ele>124.0</ele><time>2016-06-18T11:28:00.283Z</time></trkpt><trkpt lat="58.70663667" lon="14.96291167"><ele>125.0</ele><time>2016-06-18T11:28:01.291Z</time></trkpt><trkpt lat="58.70663667" lon="14.96291167"><ele>125.0</ele><time>2016-06-18T11:28:02.309Z</time></trkpt><trkpt lat="58.70655" lon="14.96293"><ele>125.0</ele><time>2016-06-18T11:28:03.288Z</time></trkpt><trkpt lat="58.70655" lon="14.96293"><ele>125.0</ele><time>2016-06-18T11:28:04.310Z</time></trkpt><trkpt lat="58.706465" lon="14.96295167"><ele>126.0</ele><time>2016-06-18T11:28:05.311Z</time></trkpt><trkpt lat="58.706465" lon="14.96295167"><ele>126.0</ele><time>2016-06-18T11:28:06.290Z</time></trkpt><trkpt lat="58.70637667" lon="14.962975"><ele>126.0</ele><time>2016-06-18T11:28:07.297Z</time></trkpt><trkpt lat="58.70637667" lon="14.962975"><ele>126.0</ele><time>2016-06-18T11:28:08.307Z</time></trkpt><trkpt lat="58.70628833" lon="14.96299333"><ele>127.0</ele><time>2016-06-18T11:28:09.314Z</time></trkpt><trkpt lat="58.70628833" lon="14.96299333"><ele>127.0</ele><time>2016-06-18T11:28:10.300Z</time></trkpt><trkpt lat="58.70619833" lon="14.963015"><ele>127.0</ele><time>2016-06-18T11:28:11.388Z</time></trkpt><trkpt lat="58.70619833" lon="14.963015"><ele>127.0</ele><time>2016-06-18T11:28:12.318Z</time></trkpt><trkpt lat="58.70611" lon="14.96304"><ele>128.0</ele><time>2016-06-18T11:28:13.289Z</time></trkpt><trkpt lat="58.70606667" lon="14.96305333"><ele>128.0</ele><time>2016-06-18T11:28:14.311Z</time></trkpt><trkpt lat="58.70606667" lon="14.96305333"><ele>128.0</ele><time>2016-06-18T11:28:15.297Z</time></trkpt><trkpt lat="58.70598167" lon="14.96308167"><ele>129.0</ele><time>2016-06-18T11:28:16.304Z</time></trkpt><trkpt lat="58.70598167" lon="14.96308167"><ele>129.0</ele><time>2016-06-18T11:28:17.286Z</time></trkpt><trkpt lat="58.705885" lon="14.96310833"><ele>130.0</ele><time>2016-06-18T11:28:18.301Z</time></trkpt><trkpt lat="58.705885" lon="14.96310833"><ele>130.0</ele><time>2016-06-18T11:28:19.306Z</time></trkpt><trkpt lat="58.70579833" lon="14.963135"><ele>131.0</ele><time>2016-06-18T11:28:20.313Z</time></trkpt><trkpt lat="58.70579833" lon="14.963135"><ele>131.0</ele><time>2016-06-18T11:28:21.287Z</time></trkpt><trkpt lat="58.70571" lon="14.96316"><ele>132.0</ele><time>2016-06-18T11:28:22.300Z</time></trkpt><trkpt lat="58.70566" lon="14.96318167"><ele>132.0</ele><time>2016-06-18T11:28:23.298Z</time></trkpt><trkpt lat="58.70561" lon="14.9632"><ele>133.0</ele><time>2016-06-18T11:28:24.310Z</time></trkpt><trkpt lat="58.70556167" lon="14.96321833"><ele>133.0</ele><time>2016-06-18T11:28:25.298Z</time></trkpt><trkpt lat="58.705515" lon="14.96323667"><ele>134.0</ele><time>2016-06-18T11:28:26.316Z</time></trkpt><trkpt lat="58.705515" lon="14.96323667"><ele>134.0</ele><time>2016-06-18T11:28:27.299Z</time></trkpt><trkpt lat="58.70541167" lon="14.96327167"><ele>134.0</ele><time>2016-06-18T11:28:28.305Z</time></trkpt><trkpt lat="58.70541167" lon="14.96327167"><ele>134.0</ele><time>2016-06-18T11:28:29.285Z</time></trkpt><trkpt lat="58.70530333" lon="14.963305"><ele>134.0</ele><time>2016-06-18T11:28:30.301Z</time></trkpt><trkpt lat="58.70524833" lon="14.96332167"><ele>134.0</ele><time>2016-06-18T11:28:31.288Z</time></trkpt><trkpt lat="58.70519333" lon="14.96333833"><ele>134.0</ele><time>2016-06-18T11:28:32.315Z</time></trkpt><trkpt lat="58.70519333" lon="14.96333833"><ele>134.0</ele><time>2016-06-18T11:28:33.298Z</time></trkpt><trkpt lat="58.70508333" lon="14.96337"><ele>135.0</ele><time>2016-06-18T11:28:34.305Z</time></trkpt><trkpt lat="58.70508333" lon="14.96337"><ele>135.0</ele><time>2016-06-18T11:28:35.290Z</time></trkpt><trkpt lat="58.70497" lon="14.96341167"><ele>135.0</ele><time>2016-06-18T11:28:36.297Z</time></trkpt><trkpt lat="58.70497" lon="14.96341167"><ele>135.0</ele><time>2016-06-18T11:28:37.321Z</time></trkpt><trkpt lat="58.704855" lon="14.96345167"><ele>136.0</ele><time>2016-06-18T11:28:38.321Z</time></trkpt><trkpt lat="58.704855" lon="14.96345167"><ele>136.0</ele><time>2016-06-18T11:28:39.291Z</time></trkpt><trkpt lat="58.70472667" lon="14.96348833"><ele>135.0</ele><time>2016-06-18T11:28:40.297Z</time></trkpt><trkpt lat="58.70466167" lon="14.96350833"><ele>136.0</ele><time>2016-06-18T11:28:41.305Z</time></trkpt><trkpt lat="58.70459833" lon="14.96353"><ele>136.0</ele><time>2016-06-18T11:28:42.305Z</time></trkpt><trkpt lat="58.70459833" lon="14.96353"><ele>136.0</ele><time>2016-06-18T11:28:43.294Z</time></trkpt><trkpt lat="58.70446333" lon="14.96357"><ele>135.0</ele><time>2016-06-18T11:28:44.295Z</time></trkpt><trkpt lat="58.70446333" lon="14.96357"><ele>135.0</ele><time>2016-06-18T11:28:45.300Z</time></trkpt><trkpt lat="58.70431833" lon="14.96361167"><ele>134.0</ele><time>2016-06-18T11:28:46.307Z</time></trkpt><trkpt lat="58.70431833" lon="14.96361167"><ele>134.0</ele><time>2016-06-18T11:28:47.292Z</time></trkpt><trkpt lat="58.70416833" lon="14.96365333"><ele>133.0</ele><time>2016-06-18T11:28:48.283Z</time></trkpt><trkpt lat="58.70416833" lon="14.96365333"><ele>133.0</ele><time>2016-06-18T11:28:49.319Z</time></trkpt><trkpt lat="58.70401167" lon="14.963705"><ele>132.0</ele><time>2016-06-18T11:28:50.289Z</time></trkpt><trkpt lat="58.70401167" lon="14.963705"><ele>132.0</ele><time>2016-06-18T11:28:51.290Z</time></trkpt><trkpt lat="58.70385333" lon="14.963755"><ele>132.0</ele><time>2016-06-18T11:28:52.286Z</time></trkpt><trkpt lat="58.70385333" lon="14.963755"><ele>132.0</ele><time>2016-06-18T11:28:53.310Z</time></trkpt><trkpt lat="58.70369833" lon="14.96380667"><ele>132.0</ele><time>2016-06-18T11:28:54.321Z</time></trkpt><trkpt lat="58.70369833" lon="14.96380667"><ele>132.0</ele><time>2016-06-18T11:28:55.301Z</time></trkpt><trkpt lat="58.70354333" lon="14.963855"><ele>131.0</ele><time>2016-06-18T11:28:56.316Z</time></trkpt><trkpt lat="58.70354333" lon="14.963855"><ele>131.0</ele><time>2016-06-18T11:28:57.285Z</time></trkpt><trkpt lat="58.70338833" lon="14.96389667"><ele>130.0</ele><time>2016-06-18T11:28:58.292Z</time></trkpt><trkpt lat="58.70338833" lon="14.96389667"><ele>130.0</ele><time>2016-06-18T11:28:59.316Z</time></trkpt><trkpt lat="58.70323833" lon="14.96394167"><ele>130.0</ele><time>2016-06-18T11:29:00.312Z</time></trkpt><trkpt lat="58.703165" lon="14.96396667"><ele>130.0</ele><time>2016-06-18T11:29:01.318Z</time></trkpt><trkpt lat="58.703165" lon="14.96396667"><ele>130.0</ele><time>2016-06-18T11:29:02.302Z</time></trkpt><trkpt lat="58.70301" lon="14.96401"><ele>129.0</ele><time>2016-06-18T11:29:03.298Z</time></trkpt><trkpt lat="58.70301" lon="14.96401"><ele>129.0</ele><time>2016-06-18T11:29:04.287Z</time></trkpt><trkpt lat="58.70286" lon="14.96404833"><ele>129.0</ele><time>2016-06-18T11:29:05.294Z</time></trkpt><trkpt lat="58.70286" lon="14.96404833"><ele>129.0</ele><time>2016-06-18T11:29:06.300Z</time></trkpt><trkpt lat="58.70271333" lon="14.964095"><ele>129.0</ele><time>2016-06-18T11:29:07.309Z</time></trkpt><trkpt lat="58.70271333" lon="14.964095"><ele>129.0</ele><time>2016-06-18T11:29:08.294Z</time></trkpt><trkpt lat="58.70257333" lon="14.964145"><ele>128.0</ele><time>2016-06-18T11:29:09.316Z</time></trkpt><trkpt lat="58.70257333" lon="14.964145"><ele>128.0</ele><time>2016-06-18T11:29:10.296Z</time></trkpt><trkpt lat="58.702435" lon="14.96418833"><ele>129.0</ele><time>2016-06-18T11:29:11.383Z</time></trkpt><trkpt lat="58.70236667" lon="14.96421667"><ele>129.0</ele><time>2016-06-18T11:29:12.317Z</time></trkpt><trkpt lat="58.70229833" lon="14.96424"><ele>129.0</ele><time>2016-06-18T11:29:13.305Z</time></trkpt><trkpt lat="58.70229833" lon="14.96424"><ele>129.0</ele><time>2016-06-18T11:29:14.320Z</time></trkpt><trkpt lat="58.70216167" lon="14.96427833"><ele>129.0</ele><time>2016-06-18T11:29:15.291Z</time></trkpt><trkpt lat="58.702095" lon="14.96429667"><ele>129.0</ele><time>2016-06-18T11:29:16.305Z</time></trkpt><trkpt lat="58.702095" lon="14.96429667"><ele>129.0</ele><time>2016-06-18T11:29:17.320Z</time></trkpt><trkpt lat="58.70196167" lon="14.96433667"><ele>130.0</ele><time>2016-06-18T11:29:18.288Z</time></trkpt><trkpt lat="58.70196167" lon="14.96433667"><ele>130.0</ele><time>2016-06-18T11:29:19.310Z</time></trkpt><trkpt lat="58.70183" lon="14.96439333"><ele>130.0</ele><time>2016-06-18T11:29:20.293Z</time></trkpt><trkpt lat="58.70183" lon="14.96439333"><ele>130.0</ele><time>2016-06-18T11:29:21.291Z</time></trkpt><trkpt lat="58.70169667" lon="14.96445"><ele>131.0</ele><time>2016-06-18T11:29:22.298Z</time></trkpt><trkpt lat="58.70169667" lon="14.96445"><ele>131.0</ele><time>2016-06-18T11:29:23.294Z</time></trkpt><trkpt lat="58.70156833" lon="14.96452"><ele>131.0</ele><time>2016-06-18T11:29:24.294Z</time></trkpt><trkpt lat="58.70156833" lon="14.96452"><ele>131.0</ele><time>2016-06-18T11:29:25.299Z</time></trkpt><trkpt lat="58.701435" lon="14.96460333"><ele>131.0</ele><time>2016-06-18T11:29:26.306Z</time></trkpt><trkpt lat="58.701435" lon="14.96460333"><ele>131.0</ele><time>2016-06-18T11:29:27.290Z</time></trkpt><trkpt lat="58.7013" lon="14.96470333"><ele>131.0</ele><time>2016-06-18T11:29:28.294Z</time></trkpt><trkpt lat="58.7013" lon="14.96470333"><ele>131.0</ele><time>2016-06-18T11:29:29.301Z</time></trkpt><trkpt lat="58.70116833" lon="14.96480667"><ele>130.0</ele><time>2016-06-18T11:29:30.308Z</time></trkpt><trkpt lat="58.70116833" lon="14.96480667"><ele>130.0</ele><time>2016-06-18T11:29:31.304Z</time></trkpt><trkpt lat="58.70103833" lon="14.96492167"><ele>130.0</ele><time>2016-06-18T11:29:32.316Z</time></trkpt><trkpt lat="58.70103833" lon="14.96492167"><ele>130.0</ele><time>2016-06-18T11:29:33.298Z</time></trkpt><trkpt lat="58.70089833" lon="14.96504"><ele>130.0</ele><time>2016-06-18T11:29:34.305Z</time></trkpt><trkpt lat="58.70082833" lon="14.96510167"><ele>130.0</ele><time>2016-06-18T11:29:35.295Z</time></trkpt><trkpt lat="58.70075167" lon="14.96516"><ele>130.0</ele><time>2016-06-18T11:29:36.321Z</time></trkpt><trkpt lat="58.700675" lon="14.965225"><ele>129.0</ele><time>2016-06-18T11:29:37.309Z</time></trkpt><trkpt lat="58.700675" lon="14.965225"><ele>129.0</ele><time>2016-06-18T11:29:38.294Z</time></trkpt><trkpt lat="58.70051667" lon="14.96534833"><ele>128.0</ele><time>2016-06-18T11:29:39.313Z</time></trkpt><trkpt lat="58.70043333" lon="14.96540833"><ele>128.0</ele><time>2016-06-18T11:29:40.284Z</time></trkpt><trkpt lat="58.70043333" lon="14.96540833"><ele>128.0</ele><time>2016-06-18T11:29:41.306Z</time></trkpt><trkpt lat="58.70027333" lon="14.965525"><ele>127.0</ele><time>2016-06-18T11:29:42.313Z</time></trkpt><trkpt lat="58.70027333" lon="14.965525"><ele>127.0</ele><time>2016-06-18T11:29:43.299Z</time></trkpt><trkpt lat="58.70010667" lon="14.96564667"><ele>126.0</ele><time>2016-06-18T11:29:44.310Z</time></trkpt><trkpt lat="58.70010667" lon="14.96564667"><ele>126.0</ele><time>2016-06-18T11:29:45.291Z</time></trkpt><trkpt lat="58.69993667" lon="14.96577"><ele>126.0</ele><time>2016-06-18T11:29:46.297Z</time></trkpt><trkpt lat="58.699855" lon="14.96583833"><ele>125.0</ele><time>2016-06-18T11:29:47.296Z</time></trkpt><trkpt lat="58.699855" lon="14.96583833"><ele>125.0</ele><time>2016-06-18T11:29:48.312Z</time></trkpt><trkpt lat="58.69968667" lon="14.96596667"><ele>125.0</ele><time>2016-06-18T11:29:49.320Z</time></trkpt><trkpt lat="58.6996" lon="14.96603"><ele>125.0</ele><time>2016-06-18T11:29:50.301Z</time></trkpt><trkpt lat="58.6996" lon="14.96603"><ele>125.0</ele><time>2016-06-18T11:29:51.285Z</time></trkpt><trkpt lat="58.69943167" lon="14.96615667"><ele>124.0</ele><time>2016-06-18T11:29:52.292Z</time></trkpt><trkpt lat="58.69934333" lon="14.96621833"><ele>123.0</ele><time>2016-06-18T11:29:53.301Z</time></trkpt><trkpt lat="58.69934333" lon="14.96621833"><ele>123.0</ele><time>2016-06-18T11:29:54.293Z</time></trkpt><trkpt lat="58.69916333" lon="14.96633667"><ele>122.0</ele><time>2016-06-18T11:29:55.299Z</time></trkpt><trkpt lat="58.69907333" lon="14.966395"><ele>122.0</ele><time>2016-06-18T11:29:56.315Z</time></trkpt><trkpt lat="58.69907333" lon="14.966395"><ele>122.0</ele><time>2016-06-18T11:29:57.318Z</time></trkpt><trkpt lat="58.69889" lon="14.966515"><ele>121.0</ele><time>2016-06-18T11:29:58.289Z</time></trkpt><trkpt lat="58.69889" lon="14.966515"><ele>121.0</ele><time>2016-06-18T11:29:59.311Z</time></trkpt><trkpt lat="58.69870333" lon="14.96663667"><ele>120.0</ele><time>2016-06-18T11:30:00.315Z</time></trkpt><trkpt lat="58.69870333" lon="14.96663667"><ele>120.0</ele><time>2016-06-18T11:30:01.309Z</time></trkpt><trkpt lat="58.69851167" lon="14.96676667"><ele>120.0</ele><time>2016-06-18T11:30:02.316Z</time></trkpt><trkpt lat="58.69841333" lon="14.96683333"><ele>119.0</ele><time>2016-06-18T11:30:03.302Z</time></trkpt><trkpt lat="58.69841333" lon="14.96683333"><ele>119.0</ele><time>2016-06-18T11:30:04.286Z</time></trkpt><trkpt lat="58.69821167" lon="14.96697667"><ele>117.0</ele><time>2016-06-18T11:30:05.294Z</time></trkpt><trkpt lat="58.69810833" lon="14.96705333"><ele>116.0</ele><time>2016-06-18T11:30:06.282Z</time></trkpt><trkpt lat="58.69810833" lon="14.96705333"><ele>116.0</ele><time>2016-06-18T11:30:07.309Z</time></trkpt><trkpt lat="58.697895" lon="14.967195"><ele>115.0</ele><time>2016-06-18T11:30:08.316Z</time></trkpt><trkpt lat="58.697895" lon="14.967195"><ele>115.0</ele><time>2016-06-18T11:30:09.304Z</time></trkpt><trkpt lat="58.69767833" lon="14.96732667"><ele>115.0</ele><time>2016-06-18T11:30:10.305Z</time></trkpt><trkpt lat="58.69767833" lon="14.96732667"><ele>115.0</ele><time>2016-06-18T11:30:11.385Z</time></trkpt><trkpt lat="58.69746833" lon="14.96745"><ele>114.0</ele><time>2016-06-18T11:30:12.290Z</time></trkpt><trkpt lat="58.69746833" lon="14.96745"><ele>114.0</ele><time>2016-06-18T11:30:13.289Z</time></trkpt><trkpt lat="58.697265" lon="14.96753833"><ele>114.0</ele><time>2016-06-18T11:30:14.296Z</time></trkpt><trkpt lat="58.69716333" lon="14.967575"><ele>114.0</ele><time>2016-06-18T11:30:15.318Z</time></trkpt><trkpt lat="58.69716333" lon="14.967575"><ele>114.0</ele><time>2016-06-18T11:30:16.294Z</time></trkpt><trkpt lat="58.69696167" lon="14.967645"><ele>114.0</ele><time>2016-06-18T11:30:17.303Z</time></trkpt><trkpt lat="58.69686" lon="14.96767167"><ele>114.0</ele><time>2016-06-18T11:30:18.321Z</time></trkpt><trkpt lat="58.69686" lon="14.96767167"><ele>114.0</ele><time>2016-06-18T11:30:19.307Z</time></trkpt><trkpt lat="58.69665667" lon="14.96770667"><ele>115.0</ele><time>2016-06-18T11:30:20.284Z</time></trkpt><trkpt lat="58.69665667" lon="14.96770667"><ele>115.0</ele><time>2016-06-18T11:30:21.307Z</time></trkpt><trkpt lat="58.69646167" lon="14.96772333"><ele>115.0</ele><time>2016-06-18T11:30:22.313Z</time></trkpt><trkpt lat="58.69646167" lon="14.96772333"><ele>115.0</ele><time>2016-06-18T11:30:23.301Z</time></trkpt><trkpt lat="58.696275" lon="14.96773"><ele>115.0</ele><time>2016-06-18T11:30:24.284Z</time></trkpt><trkpt lat="58.696275" lon="14.96773"><ele>115.0</ele><time>2016-06-18T11:30:25.290Z</time></trkpt><trkpt lat="58.69609667" lon="14.967715"><ele>115.0</ele><time>2016-06-18T11:30:26.297Z</time></trkpt><trkpt lat="58.69609667" lon="14.967715"><ele>115.0</ele><time>2016-06-18T11:30:27.321Z</time></trkpt><trkpt lat="58.69592" lon="14.967695"><ele>116.0</ele><time>2016-06-18T11:30:28.295Z</time></trkpt><trkpt lat="58.69592" lon="14.967695"><ele>116.0</ele><time>2016-06-18T11:30:29.298Z</time></trkpt><trkpt lat="58.69574667" lon="14.967665"><ele>117.0</ele><time>2016-06-18T11:30:30.305Z</time></trkpt><trkpt lat="58.69566333" lon="14.96764667"><ele>117.0</ele><time>2016-06-18T11:30:31.303Z</time></trkpt><trkpt lat="58.69566333" lon="14.96764667"><ele>117.0</ele><time>2016-06-18T11:30:32.300Z</time></trkpt><trkpt lat="58.69549667" lon="14.96760167"><ele>117.0</ele><time>2016-06-18T11:30:33.315Z</time></trkpt><trkpt lat="58.69549667" lon="14.96760167"><ele>117.0</ele><time>2016-06-18T11:30:34.298Z</time></trkpt><trkpt lat="58.69533167" lon="14.96755"><ele>118.0</ele><time>2016-06-18T11:30:35.305Z</time></trkpt><trkpt lat="58.69525" lon="14.96752333"><ele>118.0</ele><time>2016-06-18T11:30:36.315Z</time></trkpt><trkpt lat="58.69525" lon="14.96752333"><ele>118.0</ele><time>2016-06-18T11:30:37.282Z</time></trkpt><trkpt lat="58.69508667" lon="14.96747"><ele>118.0</ele><time>2016-06-18T11:30:38.290Z</time></trkpt><trkpt lat="58.69508667" lon="14.96747"><ele>118.0</ele><time>2016-06-18T11:30:39.290Z</time></trkpt><trkpt lat="58.69492333" lon="14.96742"><ele>118.0</ele><time>2016-06-18T11:30:40.305Z</time></trkpt><trkpt lat="58.69492333" lon="14.96742"><ele>118.0</ele><time>2016-06-18T11:30:41.322Z</time></trkpt><trkpt lat="58.69476667" lon="14.96736667"><ele>118.0</ele><time>2016-06-18T11:30:42.289Z</time></trkpt><trkpt lat="58.69469167" lon="14.96733833"><ele>119.0</ele><time>2016-06-18T11:30:43.317Z</time></trkpt><trkpt lat="58.69469167" lon="14.96733833"><ele>119.0</ele><time>2016-06-18T11:30:44.289Z</time></trkpt><trkpt lat="58.69454167" lon="14.96727833"><ele>119.0</ele><time>2016-06-18T11:30:45.296Z</time></trkpt><trkpt lat="58.69454167" lon="14.96727833"><ele>119.0</ele><time>2016-06-18T11:30:46.301Z</time></trkpt><trkpt lat="58.6944" lon="14.96722333"><ele>119.0</ele><time>2016-06-18T11:30:47.307Z</time></trkpt><trkpt lat="58.6944" lon="14.96722333"><ele>119.0</ele><time>2016-06-18T11:30:48.291Z</time></trkpt><trkpt lat="58.69426833" lon="14.96717"><ele>119.0</ele><time>2016-06-18T11:30:49.305Z</time></trkpt><trkpt lat="58.69420833" lon="14.96714167"><ele>119.0</ele><time>2016-06-18T11:30:50.286Z</time></trkpt><trkpt lat="58.69420833" lon="14.96714167"><ele>119.0</ele><time>2016-06-18T11:30:51.307Z</time></trkpt><trkpt lat="58.694095" lon="14.967095"><ele>119.0</ele><time>2016-06-18T11:30:52.286Z</time></trkpt><trkpt lat="58.69403667" lon="14.96706333"><ele>120.0</ele><time>2016-06-18T11:30:53.311Z</time></trkpt><trkpt lat="58.69403667" lon="14.96706333"><ele>120.0</ele><time>2016-06-18T11:30:54.301Z</time></trkpt><trkpt lat="58.69391833" lon="14.96698333"><ele>120.0</ele><time>2016-06-18T11:30:55.307Z</time></trkpt><trkpt lat="58.69386167" lon="14.966935"><ele>120.0</ele><time>2016-06-18T11:30:56.292Z</time></trkpt><trkpt lat="58.69386167" lon="14.966935"><ele>120.0</ele><time>2016-06-18T11:30:57.306Z</time></trkpt><trkpt lat="58.69372833" lon="14.96684333"><ele>120.0</ele><time>2016-06-18T11:30:58.313Z</time></trkpt><trkpt lat="58.69372833" lon="14.96684333"><ele>120.0</ele><time>2016-06-18T11:30:59.299Z</time></trkpt><trkpt lat="58.69359" lon="14.96676"><ele>120.0</ele><time>2016-06-18T11:31:00.305Z</time></trkpt><trkpt lat="58.69359" lon="14.96676"><ele>120.0</ele><time>2016-06-18T11:31:01.318Z</time></trkpt><trkpt lat="58.69346" lon="14.96669333"><ele>120.0</ele><time>2016-06-18T11:31:02.286Z</time></trkpt><trkpt lat="58.69346" lon="14.96669333"><ele>120.0</ele><time>2016-06-18T11:31:03.308Z</time></trkpt><trkpt lat="58.69332833" lon="14.96662167"><ele>121.0</ele><time>2016-06-18T11:31:04.307Z</time></trkpt><trkpt lat="58.69332833" lon="14.96662167"><ele>121.0</ele><time>2016-06-18T11:31:05.291Z</time></trkpt><trkpt lat="58.69318" lon="14.96656333"><ele>121.0</ele><time>2016-06-18T11:31:06.298Z</time></trkpt><trkpt lat="58.69318" lon="14.96656333"><ele>121.0</ele><time>2016-06-18T11:31:07.282Z</time></trkpt><trkpt lat="58.69301" lon="14.96649667"><ele>121.0</ele><time>2016-06-18T11:31:08.323Z</time></trkpt><trkpt lat="58.69301" lon="14.96649667"><ele>121.0</ele><time>2016-06-18T11:31:09.306Z</time></trkpt><trkpt lat="58.69284167" lon="14.966435"><ele>121.0</ele><time>2016-06-18T11:31:10.313Z</time></trkpt><trkpt lat="58.69284167" lon="14.966435"><ele>121.0</ele><time>2016-06-18T11:31:11.390Z</time></trkpt><trkpt lat="58.69267" lon="14.96637167"><ele>121.0</ele><time>2016-06-18T11:31:12.305Z</time></trkpt><trkpt lat="58.69258" lon="14.966345"><ele>120.0</ele><time>2016-06-18T11:31:13.293Z</time></trkpt><trkpt lat="58.69258" lon="14.966345"><ele>120.0</ele><time>2016-06-18T11:31:14.285Z</time></trkpt><trkpt lat="58.69239333" lon="14.96629667"><ele>119.0</ele><time>2016-06-18T11:31:15.292Z</time></trkpt><trkpt lat="58.69239333" lon="14.96629667"><ele>119.0</ele><time>2016-06-18T11:31:16.283Z</time></trkpt><trkpt lat="58.69220833" lon="14.96623667"><ele>118.0</ele><time>2016-06-18T11:31:17.296Z</time></trkpt><trkpt lat="58.692115" lon="14.96620833"><ele>117.0</ele><time>2016-06-18T11:31:18.283Z</time></trkpt><trkpt lat="58.692115" lon="14.96620833"><ele>117.0</ele><time>2016-06-18T11:31:19.306Z</time></trkpt><trkpt lat="58.69192" lon="14.96616833"><ele>116.0</ele><time>2016-06-18T11:31:20.305Z</time></trkpt><trkpt lat="58.69192" lon="14.96616833"><ele>116.0</ele><time>2016-06-18T11:31:21.321Z</time></trkpt><trkpt lat="58.69171833" lon="14.96612667"><ele>114.0</ele><time>2016-06-18T11:31:22.289Z</time></trkpt><trkpt lat="58.69171833" lon="14.96612667"><ele>114.0</ele><time>2016-06-18T11:31:23.311Z</time></trkpt><trkpt lat="58.69151333" lon="14.966085"><ele>112.0</ele><time>2016-06-18T11:31:24.306Z</time></trkpt><trkpt lat="58.69151333" lon="14.966085"><ele>112.0</ele><time>2016-06-18T11:31:25.290Z</time></trkpt><trkpt lat="58.69130333" lon="14.96602333"><ele>111.0</ele><time>2016-06-18T11:31:26.296Z</time></trkpt><trkpt lat="58.69130333" lon="14.96602333"><ele>111.0</ele><time>2016-06-18T11:31:27.283Z</time></trkpt><trkpt lat="58.69109667" lon="14.965965"><ele>109.0</ele><time>2016-06-18T11:31:28.284Z</time></trkpt><trkpt lat="58.69109667" lon="14.965965"><ele>109.0</ele><time>2016-06-18T11:31:29.310Z</time></trkpt><trkpt lat="58.69089333" lon="14.9659"><ele>109.0</ele><time>2016-06-18T11:31:30.283Z</time></trkpt><trkpt lat="58.69079333" lon="14.96587167"><ele>109.0</ele><time>2016-06-18T11:31:31.301Z</time></trkpt><trkpt lat="58.690695" lon="14.96584333"><ele>108.0</ele><time>2016-06-18T11:31:32.317Z</time></trkpt><trkpt lat="58.690695" lon="14.96584333"><ele>108.0</ele><time>2016-06-18T11:31:33.297Z</time></trkpt><trkpt lat="58.690505" lon="14.965785"><ele>108.0</ele><time>2016-06-18T11:31:34.316Z</time></trkpt><trkpt lat="58.69041167" lon="14.96576"><ele>108.0</ele><time>2016-06-18T11:31:35.303Z</time></trkpt><trkpt lat="58.69041167" lon="14.96576"><ele>108.0</ele><time>2016-06-18T11:31:36.286Z</time></trkpt><trkpt lat="58.69022333" lon="14.96571"><ele>107.0</ele><time>2016-06-18T11:31:37.315Z</time></trkpt><trkpt lat="58.69022333" lon="14.96571"><ele>107.0</ele><time>2016-06-18T11:31:38.310Z</time></trkpt><trkpt lat="58.690035" lon="14.96565333"><ele>107.0</ele><time>2016-06-18T11:31:39.318Z</time></trkpt><trkpt lat="58.690035" lon="14.96565333"><ele>107.0</ele><time>2016-06-18T11:31:40.303Z</time></trkpt><trkpt lat="58.68984667" lon="14.96559167"><ele>106.0</ele><time>2016-06-18T11:31:41.315Z</time></trkpt><trkpt lat="58.68984667" lon="14.96559167"><ele>106.0</ele><time>2016-06-18T11:31:42.319Z</time></trkpt><trkpt lat="58.689655" lon="14.96553333"><ele>105.0</ele><time>2016-06-18T11:31:43.285Z</time></trkpt><trkpt lat="58.68955667" lon="14.965505"><ele>105.0</ele><time>2016-06-18T11:31:44.307Z</time></trkpt><trkpt lat="58.68955667" lon="14.965505"><ele>105.0</ele><time>2016-06-18T11:31:45.292Z</time></trkpt><trkpt lat="58.68935667" lon="14.96545167"><ele>103.0</ele><time>2016-06-18T11:31:46.305Z</time></trkpt><trkpt lat="58.689255" lon="14.96542333"><ele>102.0</ele><time>2016-06-18T11:31:47.296Z</time></trkpt><trkpt lat="58.689255" lon="14.96542333"><ele>102.0</ele><time>2016-06-18T11:31:48.282Z</time></trkpt><trkpt lat="58.68905" lon="14.965365"><ele>101.0</ele><time>2016-06-18T11:31:49.290Z</time></trkpt><trkpt lat="58.688945" lon="14.96533667"><ele>101.0</ele><time>2016-06-18T11:31:50.312Z</time></trkpt><trkpt lat="58.688945" lon="14.96533667"><ele>101.0</ele><time>2016-06-18T11:31:51.298Z</time></trkpt><trkpt lat="58.68873333" lon="14.96528"><ele>100.0</ele><time>2016-06-18T11:31:52.307Z</time></trkpt><trkpt lat="58.68873333" lon="14.96528"><ele>100.0</ele><time>2016-06-18T11:31:53.292Z</time></trkpt><trkpt lat="58.68851833" lon="14.96521833"><ele>99.0</ele><time>2016-06-18T11:31:54.313Z</time></trkpt><trkpt lat="58.68851833" lon="14.96521833"><ele>99.0</ele><time>2016-06-18T11:31:55.296Z</time></trkpt><trkpt lat="58.688305" lon="14.96514833"><ele>98.0</ele><time>2016-06-18T11:31:56.303Z</time></trkpt><trkpt lat="58.688305" lon="14.96514833"><ele>98.0</ele><time>2016-06-18T11:31:57.289Z</time></trkpt><trkpt lat="58.68809333" lon="14.96508667"><ele>97.0</ele><time>2016-06-18T11:31:58.306Z</time></trkpt><trkpt lat="58.68809333" lon="14.96508667"><ele>97.0</ele><time>2016-06-18T11:31:59.282Z</time></trkpt><trkpt lat="58.68788333" lon="14.96503167"><ele>97.0</ele><time>2016-06-18T11:32:00.292Z</time></trkpt><trkpt lat="58.68778" lon="14.96500833"><ele>96.0</ele><time>2016-06-18T11:32:01.314Z</time></trkpt><trkpt lat="58.68778" lon="14.96500833"><ele>96.0</ele><time>2016-06-18T11:32:02.320Z</time></trkpt><trkpt lat="58.68757167" lon="14.96495833"><ele>96.0</ele><time>2016-06-18T11:32:03.291Z</time></trkpt><trkpt lat="58.68757167" lon="14.96495833"><ele>96.0</ele><time>2016-06-18T11:32:04.314Z</time></trkpt><trkpt lat="58.68736833" lon="14.96490333"><ele>95.0</ele><time>2016-06-18T11:32:05.283Z</time></trkpt><trkpt lat="58.68726833" lon="14.96487833"><ele>95.0</ele><time>2016-06-18T11:32:06.323Z</time></trkpt><trkpt lat="58.68726833" lon="14.96487833"><ele>95.0</ele><time>2016-06-18T11:32:07.309Z</time></trkpt><trkpt lat="58.68707" lon="14.964825"><ele>95.0</ele><time>2016-06-18T11:32:08.318Z</time></trkpt><trkpt lat="58.68707" lon="14.964825"><ele>95.0</ele><time>2016-06-18T11:32:09.304Z</time></trkpt><trkpt lat="58.68688" lon="14.96476167"><ele>95.0</ele><time>2016-06-18T11:32:10.305Z</time></trkpt><trkpt lat="58.68688" lon="14.96476167"><ele>95.0</ele><time>2016-06-18T11:32:11.389Z</time></trkpt><trkpt lat="58.68669" lon="14.96470167"><ele>94.0</ele><time>2016-06-18T11:32:12.322Z</time></trkpt><trkpt lat="58.686595" lon="14.964675"><ele>94.0</ele><time>2016-06-18T11:32:13.314Z</time></trkpt><trkpt lat="58.686595" lon="14.964675"><ele>94.0</ele><time>2016-06-18T11:32:14.299Z</time></trkpt><trkpt lat="58.68640833" lon="14.96461667"><ele>94.0</ele><time>2016-06-18T11:32:15.305Z</time></trkpt><trkpt lat="58.686315" lon="14.96458833"><ele>94.0</ele><time>2016-06-18T11:32:16.324Z</time></trkpt><trkpt lat="58.686315" lon="14.96458833"><ele>94.0</ele><time>2016-06-18T11:32:17.320Z</time></trkpt><trkpt lat="58.68612833" lon="14.96453167"><ele>94.0</ele><time>2016-06-18T11:32:18.287Z</time></trkpt><trkpt lat="58.686035" lon="14.96450167"><ele>94.0</ele><time>2016-06-18T11:32:19.308Z</time></trkpt><trkpt lat="58.686035" lon="14.96450167"><ele>94.0</ele><time>2016-06-18T11:32:20.321Z</time></trkpt><trkpt lat="58.68584667" lon="14.96445"><ele>93.0</ele><time>2016-06-18T11:32:21.288Z</time></trkpt><trkpt lat="58.68575333" lon="14.96442667"><ele>93.0</ele><time>2016-06-18T11:32:22.316Z</time></trkpt><trkpt lat="58.68575333" lon="14.96442667"><ele>93.0</ele><time>2016-06-18T11:32:23.295Z</time></trkpt><trkpt lat="58.685565" lon="14.96437"><ele>93.0</ele><time>2016-06-18T11:32:24.302Z</time></trkpt><trkpt lat="58.68547167" lon="14.96434333"><ele>93.0</ele><time>2016-06-18T11:32:25.305Z</time></trkpt><trkpt lat="58.68547167" lon="14.96434333"><ele>93.0</ele><time>2016-06-18T11:32:26.308Z</time></trkpt><trkpt lat="58.68528667" lon="14.96429"><ele>93.0</ele><time>2016-06-18T11:32:27.316Z</time></trkpt><trkpt lat="58.68528667" lon="14.96429"><ele>93.0</ele><time>2016-06-18T11:32:28.300Z</time></trkpt><trkpt lat="58.68510333" lon="14.964235"><ele>92.0</ele><time>2016-06-18T11:32:29.314Z</time></trkpt><trkpt lat="58.68510333" lon="14.964235"><ele>92.0</ele><time>2016-06-18T11:32:30.297Z</time></trkpt><trkpt lat="58.68492167" lon="14.964185"><ele>92.0</ele><time>2016-06-18T11:32:31.304Z</time></trkpt><trkpt lat="58.68483" lon="14.964155"><ele>92.0</ele><time>2016-06-18T11:32:32.293Z</time></trkpt><trkpt lat="58.68483" lon="14.964155"><ele>92.0</ele><time>2016-06-18T11:32:33.311Z</time></trkpt><trkpt lat="58.68464833" lon="14.964095"><ele>92.0</ele><time>2016-06-18T11:32:34.286Z</time></trkpt><trkpt lat="58.68455833" lon="14.96406833"><ele>92.0</ele><time>2016-06-18T11:32:35.305Z</time></trkpt><trkpt lat="58.68455833" lon="14.96406833"><ele>92.0</ele><time>2016-06-18T11:32:36.291Z</time></trkpt><trkpt lat="58.68437833" lon="14.96401"><ele>91.0</ele><time>2016-06-18T11:32:37.297Z</time></trkpt><trkpt lat="58.68437833" lon="14.96401"><ele>91.0</ele><time>2016-06-18T11:32:38.320Z</time></trkpt><trkpt lat="58.68419833" lon="14.96394"><ele>91.0</ele><time>2016-06-18T11:32:39.293Z</time></trkpt><trkpt lat="58.68419833" lon="14.96394"><ele>91.0</ele><time>2016-06-18T11:32:40.290Z</time></trkpt><trkpt lat="58.68401833" lon="14.96387667"><ele>91.0</ele><time>2016-06-18T11:32:41.314Z</time></trkpt><trkpt lat="58.68401833" lon="14.96387667"><ele>91.0</ele><time>2016-06-18T11:32:42.298Z</time></trkpt><trkpt lat="58.68384333" lon="14.96381333"><ele>91.0</ele><time>2016-06-18T11:32:43.313Z</time></trkpt><trkpt lat="58.68384333" lon="14.96381333"><ele>91.0</ele><time>2016-06-18T11:32:44.300Z</time></trkpt><trkpt lat="58.68367" lon="14.96374833"><ele>90.0</ele><time>2016-06-18T11:32:45.311Z</time></trkpt><trkpt lat="58.68367" lon="14.96374833"><ele>90.0</ele><time>2016-06-18T11:32:46.287Z</time></trkpt><trkpt lat="58.683495" lon="14.96368667"><ele>90.0</ele><time>2016-06-18T11:32:47.294Z</time></trkpt><trkpt lat="58.68340833" lon="14.96365833"><ele>90.0</ele><time>2016-06-18T11:32:48.285Z</time></trkpt><trkpt lat="58.68340833" lon="14.96365833"><ele>90.0</ele><time>2016-06-18T11:32:49.301Z</time></trkpt><trkpt lat="58.68323333" lon="14.96360667"><ele>90.0</ele><time>2016-06-18T11:32:50.308Z</time></trkpt><trkpt lat="58.68323333" lon="14.96360667"><ele>90.0</ele><time>2016-06-18T11:32:51.290Z</time></trkpt><trkpt lat="58.68305833" lon="14.96355833"><ele>90.0</ele><time>2016-06-18T11:32:52.292Z</time></trkpt><trkpt lat="58.68305833" lon="14.96355833"><ele>90.0</ele><time>2016-06-18T11:32:53.294Z</time></trkpt><trkpt lat="58.68288833" lon="14.9635"><ele>90.0</ele><time>2016-06-18T11:32:54.301Z</time></trkpt><trkpt lat="58.68288833" lon="14.9635"><ele>90.0</ele><time>2016-06-18T11:32:55.298Z</time></trkpt><trkpt lat="58.68271667" lon="14.96343833"><ele>90.0</ele><time>2016-06-18T11:32:56.304Z</time></trkpt><trkpt lat="58.68271667" lon="14.96343833"><ele>90.0</ele><time>2016-06-18T11:32:57.289Z</time></trkpt><trkpt lat="58.68254167" lon="14.963395"><ele>90.0</ele><time>2016-06-18T11:32:58.307Z</time></trkpt><trkpt lat="58.68245667" lon="14.963375"><ele>90.0</ele><time>2016-06-18T11:32:59.306Z</time></trkpt><trkpt lat="58.68237" lon="14.96335667"><ele>90.0</ele><time>2016-06-18T11:33:00.291Z</time></trkpt><trkpt lat="58.68237" lon="14.96335667"><ele>90.0</ele><time>2016-06-18T11:33:01.313Z</time></trkpt><trkpt lat="58.68219833" lon="14.963315"><ele>90.0</ele><time>2016-06-18T11:33:02.320Z</time></trkpt><trkpt lat="58.68219833" lon="14.963315"><ele>90.0</ele><time>2016-06-18T11:33:03.308Z</time></trkpt><trkpt lat="58.68202333" lon="14.96327833"><ele>90.0</ele><time>2016-06-18T11:33:04.314Z</time></trkpt><trkpt lat="58.681935" lon="14.96325667"><ele>89.0</ele><time>2016-06-18T11:33:05.301Z</time></trkpt><trkpt lat="58.681935" lon="14.96325667"><ele>89.0</ele><time>2016-06-18T11:33:06.285Z</time></trkpt><trkpt lat="58.68176" lon="14.96321667"><ele>90.0</ele><time>2016-06-18T11:33:07.293Z</time></trkpt><trkpt lat="58.68167333" lon="14.96319667"><ele>90.0</ele><time>2016-06-18T11:33:08.290Z</time></trkpt><trkpt lat="58.68167333" lon="14.96319667"><ele>90.0</ele><time>2016-06-18T11:33:09.314Z</time></trkpt><trkpt lat="58.68150167" lon="14.96316"><ele>90.0</ele><time>2016-06-18T11:33:10.322Z</time></trkpt><trkpt lat="58.68150167" lon="14.96316"><ele>90.0</ele><time>2016-06-18T11:33:11.389Z</time></trkpt><trkpt lat="58.68133333" lon="14.96313667"><ele>89.0</ele><time>2016-06-18T11:33:12.292Z</time></trkpt><trkpt lat="58.68124667" lon="14.96312833"><ele>89.0</ele><time>2016-06-18T11:33:13.298Z</time></trkpt><trkpt lat="58.68116333" lon="14.96312167"><ele>89.0</ele><time>2016-06-18T11:33:14.284Z</time></trkpt><trkpt lat="58.68116333" lon="14.96312167"><ele>89.0</ele><time>2016-06-18T11:33:15.313Z</time></trkpt><trkpt lat="58.680995" lon="14.96311"><ele>89.0</ele><time>2016-06-18T11:33:16.286Z</time></trkpt><trkpt lat="58.68091" lon="14.96310167"><ele>89.0</ele><time>2016-06-18T11:33:17.307Z</time></trkpt><trkpt lat="58.68091" lon="14.96310167"><ele>89.0</ele><time>2016-06-18T11:33:18.292Z</time></trkpt><trkpt lat="58.68074167" lon="14.96309167"><ele>89.0</ele><time>2016-06-18T11:33:19.299Z</time></trkpt><trkpt lat="58.68066167" lon="14.96309667"><ele>89.0</ele><time>2016-06-18T11:33:20.314Z</time></trkpt><trkpt lat="58.68066167" lon="14.96309667"><ele>89.0</ele><time>2016-06-18T11:33:21.283Z</time></trkpt><trkpt lat="58.68050667" lon="14.96310833"><ele>89.0</ele><time>2016-06-18T11:33:22.290Z</time></trkpt><trkpt lat="58.68050667" lon="14.96310833"><ele>89.0</ele><time>2016-06-18T11:33:23.312Z</time></trkpt><trkpt lat="58.68035833" lon="14.96312333"><ele>88.0</ele><time>2016-06-18T11:33:24.319Z</time></trkpt><trkpt lat="58.68035833" lon="14.96312333"><ele>88.0</ele><time>2016-06-18T11:33:25.311Z</time></trkpt><trkpt lat="58.68020667" lon="14.96313"><ele>88.0</ele><time>2016-06-18T11:33:26.305Z</time></trkpt><trkpt lat="58.68020667" lon="14.96313"><ele>88.0</ele><time>2016-06-18T11:33:27.300Z</time></trkpt><trkpt lat="58.68005667" lon="14.96314333"><ele>88.0</ele><time>2016-06-18T11:33:28.307Z</time></trkpt><trkpt lat="58.67998" lon="14.96315"><ele>88.0</ele><time>2016-06-18T11:33:29.296Z</time></trkpt><trkpt lat="58.67990167" lon="14.96315833"><ele>88.0</ele><time>2016-06-18T11:33:30.311Z</time></trkpt><trkpt lat="58.679825" lon="14.96316667"><ele>88.0</ele><time>2016-06-18T11:33:31.296Z</time></trkpt><trkpt lat="58.679825" lon="14.96316667"><ele>88.0</ele><time>2016-06-18T11:33:32.318Z</time></trkpt><trkpt lat="58.67967167" lon="14.96318667"><ele>88.0</ele><time>2016-06-18T11:33:33.286Z</time></trkpt><trkpt lat="58.67967167" lon="14.96318667"><ele>88.0</ele><time>2016-06-18T11:33:34.308Z</time></trkpt><trkpt lat="58.67952" lon="14.963215"><ele>88.0</ele><time>2016-06-18T11:33:35.305Z</time></trkpt><trkpt lat="58.67952" lon="14.963215"><ele>88.0</ele><time>2016-06-18T11:33:36.303Z</time></trkpt><trkpt lat="58.679375" lon="14.96325"><ele>89.0</ele><time>2016-06-18T11:33:37.310Z</time></trkpt><trkpt lat="58.67930333" lon="14.96326833"><ele>89.0</ele><time>2016-06-18T11:33:38.298Z</time></trkpt><trkpt lat="58.67930333" lon="14.96326833"><ele>89.0</ele><time>2016-06-18T11:33:39.308Z</time></trkpt><trkpt lat="58.67916333" lon="14.96331167"><ele>89.0</ele><time>2016-06-18T11:33:40.317Z</time></trkpt><trkpt lat="58.67910167" lon="14.96334"><ele>90.0</ele><time>2016-06-18T11:33:41.316Z</time></trkpt><trkpt lat="58.67910167" lon="14.96334"><ele>90.0</ele><time>2016-06-18T11:33:42.308Z</time></trkpt><trkpt lat="58.678965" lon="14.96338667"><ele>91.0</ele><time>2016-06-18T11:33:43.314Z</time></trkpt><trkpt lat="58.678905" lon="14.96340333"><ele>91.0</ele><time>2016-06-18T11:33:44.314Z</time></trkpt><trkpt lat="58.678905" lon="14.96340333"><ele>91.0</ele><time>2016-06-18T11:33:45.291Z</time></trkpt><trkpt lat="58.67876667" lon="14.963455"><ele>91.0</ele><time>2016-06-18T11:33:46.294Z</time></trkpt><trkpt lat="58.678695" lon="14.963485"><ele>91.0</ele><time>2016-06-18T11:33:47.312Z</time></trkpt><trkpt lat="58.678695" lon="14.963485"><ele>91.0</ele><time>2016-06-18T11:33:48.298Z</time></trkpt><trkpt lat="58.67855667" lon="14.96354833"><ele>91.0</ele><time>2016-06-18T11:33:49.305Z</time></trkpt><trkpt lat="58.678485" lon="14.96358"><ele>91.0</ele><time>2016-06-18T11:33:50.310Z</time></trkpt><trkpt lat="58.678485" lon="14.96358"><ele>91.0</ele><time>2016-06-18T11:33:51.301Z</time></trkpt><trkpt lat="58.67834" lon="14.963645"><ele>92.0</ele><time>2016-06-18T11:33:52.307Z</time></trkpt><trkpt lat="58.67834" lon="14.963645"><ele>92.0</ele><time>2016-06-18T11:33:53.291Z</time></trkpt><trkpt lat="58.67819833" lon="14.96371667"><ele>93.0</ele><time>2016-06-18T11:33:54.297Z</time></trkpt><trkpt lat="58.67819833" lon="14.96371667"><ele>93.0</ele><time>2016-06-18T11:33:55.282Z</time></trkpt><trkpt lat="58.67807167" lon="14.963785"><ele>94.0</ele><time>2016-06-18T11:33:56.291Z</time></trkpt><trkpt lat="58.67801167" lon="14.96382167"><ele>95.0</ele><time>2016-06-18T11:33:57.318Z</time></trkpt><trkpt lat="58.67801167" lon="14.96382167"><ele>95.0</ele><time>2016-06-18T11:33:58.289Z</time></trkpt><trkpt lat="58.67789167" lon="14.96388833"><ele>96.0</ele><time>2016-06-18T11:33:59.304Z</time></trkpt><trkpt lat="58.67789167" lon="14.96388833"><ele>96.0</ele><time>2016-06-18T11:34:00.292Z</time></trkpt><trkpt lat="58.67778" lon="14.96396667"><ele>96.0</ele><time>2016-06-18T11:34:01.314Z</time></trkpt><trkpt lat="58.67778" lon="14.96396667"><ele>96.0</ele><time>2016-06-18T11:34:02.310Z</time></trkpt><trkpt lat="58.67767667" lon="14.964045"><ele>97.0</ele><time>2016-06-18T11:34:03.285Z</time></trkpt><trkpt lat="58.67767667" lon="14.964045"><ele>97.0</ele><time>2016-06-18T11:34:04.307Z</time></trkpt><trkpt lat="58.67758167" lon="14.96412"><ele>98.0</ele><time>2016-06-18T11:34:05.314Z</time></trkpt><trkpt lat="58.67758167" lon="14.96412"><ele>98.0</ele><time>2016-06-18T11:34:06.298Z</time></trkpt><trkpt lat="58.67749" lon="14.96419667"><ele>99.0</ele><time>2016-06-18T11:34:07.312Z</time></trkpt><trkpt lat="58.67749" lon="14.96419667"><ele>99.0</ele><time>2016-06-18T11:34:08.304Z</time></trkpt><trkpt lat="58.67740333" lon="14.96426667"><ele>99.0</ele><time>2016-06-18T11:34:09.310Z</time></trkpt><trkpt lat="58.67740333" lon="14.96426667"><ele>99.0</ele><time>2016-06-18T11:34:10.292Z</time></trkpt><trkpt lat="58.677315" lon="14.96431667"><ele>99.0</ele><time>2016-06-18T11:34:11.388Z</time></trkpt><trkpt lat="58.67727333" lon="14.96432833"><ele>100.0</ele><time>2016-06-18T11:34:12.323Z</time></trkpt><trkpt lat="58.67727333" lon="14.96432833"><ele>100.0</ele><time>2016-06-18T11:34:13.310Z</time></trkpt><trkpt lat="58.67720167" lon="14.96429167"><ele>100.0</ele><time>2016-06-18T11:34:14.316Z</time></trkpt><trkpt lat="58.67720167" lon="14.96429167"><ele>100.0</ele><time>2016-06-18T11:34:15.301Z</time></trkpt><trkpt lat="58.67714667" lon="14.96420833"><ele>101.0</ele><time>2016-06-18T11:34:16.308Z</time></trkpt><trkpt lat="58.67712667" lon="14.96415833"><ele>101.0</ele><time>2016-06-18T11:34:17.285Z</time></trkpt><trkpt lat="58.67712667" lon="14.96415833"><ele>101.0</ele><time>2016-06-18T11:34:18.307Z</time></trkpt><trkpt lat="58.67707333" lon="14.964035"><ele>102.0</ele><time>2016-06-18T11:34:19.313Z</time></trkpt><trkpt lat="58.67704333" lon="14.963965"><ele>102.0</ele><time>2016-06-18T11:34:20.318Z</time></trkpt><trkpt lat="58.67704333" lon="14.963965"><ele>102.0</ele><time>2016-06-18T11:34:21.290Z</time></trkpt><trkpt lat="58.67699167" lon="14.96382"><ele>102.0</ele><time>2016-06-18T11:34:22.298Z</time></trkpt><trkpt lat="58.67696833" lon="14.96374833"><ele>102.0</ele><time>2016-06-18T11:34:23.293Z</time></trkpt><trkpt lat="58.67696833" lon="14.96374833"><ele>102.0</ele><time>2016-06-18T11:34:24.315Z</time></trkpt><trkpt lat="58.67692167" lon="14.9636"><ele>102.0</ele><time>2016-06-18T11:34:25.295Z</time></trkpt><trkpt lat="58.67692167" lon="14.9636"><ele>102.0</ele><time>2016-06-18T11:34:26.287Z</time></trkpt><trkpt lat="58.67687" lon="14.963445"><ele>102.0</ele><time>2016-06-18T11:34:27.294Z</time></trkpt><trkpt lat="58.67687" lon="14.963445"><ele>102.0</ele><time>2016-06-18T11:34:28.315Z</time></trkpt><trkpt lat="58.67681833" lon="14.96330167"><ele>102.0</ele><time>2016-06-18T11:34:29.316Z</time></trkpt><trkpt lat="58.67681833" lon="14.96330167"><ele>102.0</ele><time>2016-06-18T11:34:30.290Z</time></trkpt><trkpt lat="58.67677333" lon="14.963145"><ele>103.0</ele><time>2016-06-18T11:34:31.297Z</time></trkpt><trkpt lat="58.67675" lon="14.96305833"><ele>103.0</ele><time>2016-06-18T11:34:32.298Z</time></trkpt><trkpt lat="58.67675" lon="14.96305833"><ele>103.0</ele><time>2016-06-18T11:34:33.313Z</time></trkpt><trkpt lat="58.67669833" lon="14.96287333"><ele>103.0</ele><time>2016-06-18T11:34:34.285Z</time></trkpt><trkpt lat="58.67667333" lon="14.96278667"><ele>103.0</ele><time>2016-06-18T11:34:35.285Z</time></trkpt><trkpt lat="58.67667333" lon="14.96278667"><ele>103.0</ele><time>2016-06-18T11:34:36.290Z</time></trkpt><trkpt lat="58.67661333" lon="14.962615"><ele>104.0</ele><time>2016-06-18T11:34:37.297Z</time></trkpt><trkpt lat="58.67661333" lon="14.962615"><ele>104.0</ele><time>2016-06-18T11:34:38.285Z</time></trkpt><trkpt lat="58.676555" lon="14.96243833"><ele>104.0</ele><time>2016-06-18T11:34:39.315Z</time></trkpt><trkpt lat="58.676555" lon="14.96243833"><ele>104.0</ele><time>2016-06-18T11:34:40.282Z</time></trkpt><trkpt lat="58.67651" lon="14.96225333"><ele>104.0</ele><time>2016-06-18T11:34:41.289Z</time></trkpt><trkpt lat="58.67648667" lon="14.96216"><ele>104.0</ele><time>2016-06-18T11:34:42.326Z</time></trkpt><trkpt lat="58.67648667" lon="14.96216"><ele>104.0</ele><time>2016-06-18T11:34:43.282Z</time></trkpt><trkpt lat="58.676435" lon="14.96196"><ele>104.0</ele><time>2016-06-18T11:34:44.291Z</time></trkpt><trkpt lat="58.67641" lon="14.96185833"><ele>104.0</ele><time>2016-06-18T11:34:45.306Z</time></trkpt><trkpt lat="58.67641" lon="14.96185833"><ele>104.0</ele><time>2016-06-18T11:34:46.288Z</time></trkpt><trkpt lat="58.67636167" lon="14.96168333"><ele>104.0</ele><time>2016-06-18T11:34:47.295Z</time></trkpt><trkpt lat="58.67633667" lon="14.96160333"><ele>105.0</ele><time>2016-06-18T11:34:48.318Z</time></trkpt><trkpt lat="58.67633667" lon="14.96160333"><ele>105.0</ele><time>2016-06-18T11:34:49.303Z</time></trkpt><trkpt lat="58.67628833" lon="14.96148"><ele>106.0</ele><time>2016-06-18T11:34:50.311Z</time></trkpt><trkpt lat="58.67627" lon="14.96142333"><ele>106.0</ele><time>2016-06-18T11:34:51.318Z</time></trkpt><trkpt lat="58.67627" lon="14.96142333"><ele>106.0</ele><time>2016-06-18T11:34:52.315Z</time></trkpt><trkpt lat="58.67622833" lon="14.96127833"><ele>107.0</ele><time>2016-06-18T11:34:53.292Z</time></trkpt><trkpt lat="58.67622833" lon="14.96127833"><ele>107.0</ele><time>2016-06-18T11:34:54.314Z</time></trkpt><trkpt lat="58.67618" lon="14.96115"><ele>107.0</ele><time>2016-06-18T11:34:55.317Z</time></trkpt><trkpt lat="58.67615833" lon="14.96108667"><ele>107.0</ele><time>2016-06-18T11:34:56.307Z</time></trkpt><trkpt lat="58.67615833" lon="14.96108667"><ele>107.0</ele><time>2016-06-18T11:34:57.292Z</time></trkpt><trkpt lat="58.67612" lon="14.960955"><ele>108.0</ele><time>2016-06-18T11:34:58.303Z</time></trkpt><trkpt lat="58.67612" lon="14.960955"><ele>108.0</ele><time>2016-06-18T11:34:59.286Z</time></trkpt><trkpt lat="58.676075" lon="14.96082667"><ele>108.0</ele><time>2016-06-18T11:35:00.293Z</time></trkpt><trkpt lat="58.67605" lon="14.96077"><ele>109.0</ele><time>2016-06-18T11:35:01.306Z</time></trkpt><trkpt lat="58.67605" lon="14.96077"><ele>109.0</ele><time>2016-06-18T11:35:02.299Z</time></trkpt><trkpt lat="58.675995" lon="14.960675"><ele>109.0</ele><time>2016-06-18T11:35:03.306Z</time></trkpt><trkpt lat="58.675995" lon="14.960675"><ele>109.0</ele><time>2016-06-18T11:35:04.291Z</time></trkpt><trkpt lat="58.67594" lon="14.96059833"><ele>111.0</ele><time>2016-06-18T11:35:05.297Z</time></trkpt><trkpt lat="58.67594" lon="14.96059833"><ele>111.0</ele><time>2016-06-18T11:35:06.312Z</time></trkpt><trkpt lat="58.67588667" lon="14.96051167"><ele>111.0</ele><time>2016-06-18T11:35:07.318Z</time></trkpt><trkpt lat="58.67586167" lon="14.96047167"><ele>111.0</ele><time>2016-06-18T11:35:08.301Z</time></trkpt><trkpt lat="58.67586167" lon="14.96047167"><ele>111.0</ele><time>2016-06-18T11:35:09.285Z</time></trkpt><trkpt lat="58.67580667" lon="14.9604"><ele>111.0</ele><time>2016-06-18T11:35:10.315Z</time></trkpt><trkpt lat="58.67580667" lon="14.9604"><ele>111.0</ele><time>2016-06-18T11:35:11.391Z</time></trkpt><trkpt lat="58.67575167" lon="14.96033"><ele>110.0</ele><time>2016-06-18T11:35:12.312Z</time></trkpt><trkpt lat="58.675725" lon="14.96029667"><ele>110.0</ele><time>2016-06-18T11:35:13.319Z</time></trkpt><trkpt lat="58.67571333" lon="14.96025"><ele>110.0</ele><time>2016-06-18T11:35:14.300Z</time></trkpt><trkpt lat="58.67571333" lon="14.96025"><ele>110.0</ele><time>2016-06-18T11:35:15.283Z</time></trkpt><trkpt lat="58.67566" lon="14.96017667"><ele>110.0</ele><time>2016-06-18T11:35:16.290Z</time></trkpt><trkpt lat="58.67566" lon="14.96017667"><ele>110.0</ele><time>2016-06-18T11:35:17.301Z</time></trkpt><trkpt lat="58.67560333" lon="14.96010667"><ele>110.0</ele><time>2016-06-18T11:35:18.308Z</time></trkpt><trkpt lat="58.67558333" lon="14.96007167"><ele>110.0</ele><time>2016-06-18T11:35:19.296Z</time></trkpt><trkpt lat="58.67555667" lon="14.960035"><ele>110.0</ele><time>2016-06-18T11:35:20.307Z</time></trkpt><trkpt lat="58.67555667" lon="14.960035"><ele>110.0</ele><time>2016-06-18T11:35:21.291Z</time></trkpt><trkpt lat="58.67550167" lon="14.95996833"><ele>110.0</ele><time>2016-06-18T11:35:22.297Z</time></trkpt><trkpt lat="58.67550167" lon="14.95996833"><ele>110.0</ele><time>2016-06-18T11:35:23.309Z</time></trkpt><trkpt lat="58.67545" lon="14.95991"><ele>110.0</ele><time>2016-06-18T11:35:24.316Z</time></trkpt><trkpt lat="58.67542667" lon="14.959885"><ele>110.0</ele><time>2016-06-18T11:35:25.300Z</time></trkpt><trkpt lat="58.67542667" lon="14.959885"><ele>110.0</ele><time>2016-06-18T11:35:26.290Z</time></trkpt><trkpt lat="58.67538167" lon="14.959845"><ele>110.0</ele><time>2016-06-18T11:35:27.299Z</time></trkpt><trkpt lat="58.67538167" lon="14.959845"><ele>110.0</ele><time>2016-06-18T11:35:28.285Z</time></trkpt><trkpt lat="58.67534" lon="14.95979833"><ele>110.0</ele><time>2016-06-18T11:35:29.319Z</time></trkpt><trkpt lat="58.67534" lon="14.95979833"><ele>110.0</ele><time>2016-06-18T11:35:30.307Z</time></trkpt><trkpt lat="58.6753" lon="14.95975"><ele>111.0</ele><time>2016-06-18T11:35:31.314Z</time></trkpt><trkpt lat="58.67528333" lon="14.95973"><ele>111.0</ele><time>2016-06-18T11:35:32.319Z</time></trkpt><trkpt lat="58.67526333" lon="14.95970667"><ele>111.0</ele><time>2016-06-18T11:35:33.294Z</time></trkpt><trkpt lat="58.67526333" lon="14.95970667"><ele>111.0</ele><time>2016-06-18T11:35:34.316Z</time></trkpt><trkpt lat="58.67522833" lon="14.95966667"><ele>112.0</ele><time>2016-06-18T11:35:35.315Z</time></trkpt><trkpt lat="58.67522833" lon="14.95966667"><ele>112.0</ele><time>2016-06-18T11:35:36.303Z</time></trkpt><trkpt lat="58.675195" lon="14.95962833"><ele>113.0</ele><time>2016-06-18T11:35:37.310Z</time></trkpt><trkpt lat="58.67517833" lon="14.95961"><ele>113.0</ele><time>2016-06-18T11:35:38.297Z</time></trkpt><trkpt lat="58.67517833" lon="14.95961"><ele>113.0</ele><time>2016-06-18T11:35:39.313Z</time></trkpt><trkpt lat="58.67513667" lon="14.95957"><ele>113.0</ele><time>2016-06-18T11:35:40.319Z</time></trkpt><trkpt lat="58.67511333" lon="14.95955"><ele>113.0</ele><time>2016-06-18T11:35:41.291Z</time></trkpt><trkpt lat="58.67509167" lon="14.95953333"><ele>113.0</ele><time>2016-06-18T11:35:42.314Z</time></trkpt><trkpt lat="58.67509167" lon="14.95953333"><ele>113.0</ele><time>2016-06-18T11:35:43.299Z</time></trkpt><trkpt lat="58.67504167" lon="14.95949833"><ele>114.0</ele><time>2016-06-18T11:35:44.309Z</time></trkpt><trkpt lat="58.67504167" lon="14.95949833"><ele>114.0</ele><time>2016-06-18T11:35:45.302Z</time></trkpt><trkpt lat="58.674995" lon="14.95945667"><ele>114.0</ele><time>2016-06-18T11:35:46.312Z</time></trkpt><trkpt lat="58.67497167" lon="14.95943333"><ele>114.0</ele><time>2016-06-18T11:35:47.295Z</time></trkpt><trkpt lat="58.67497167" lon="14.95943333"><ele>114.0</ele><time>2016-06-18T11:35:48.319Z</time></trkpt><trkpt lat="58.67493" lon="14.95939667"><ele>115.0</ele><time>2016-06-18T11:35:49.285Z</time></trkpt><trkpt lat="58.67491" lon="14.95938167"><ele>115.0</ele><time>2016-06-18T11:35:50.319Z</time></trkpt><trkpt lat="58.67491" lon="14.95938167"><ele>115.0</ele><time>2016-06-18T11:35:51.288Z</time></trkpt><trkpt lat="58.67486" lon="14.95934667"><ele>115.0</ele><time>2016-06-18T11:35:52.308Z</time></trkpt><trkpt lat="58.67486" lon="14.95934667"><ele>115.0</ele><time>2016-06-18T11:35:53.292Z</time></trkpt><trkpt lat="58.67481833" lon="14.9593"><ele>115.0</ele><time>2016-06-18T11:35:54.310Z</time></trkpt><trkpt lat="58.67479667" lon="14.959275"><ele>115.0</ele><time>2016-06-18T11:35:55.288Z</time></trkpt><trkpt lat="58.67479667" lon="14.959275"><ele>115.0</ele><time>2016-06-18T11:35:56.309Z</time></trkpt><trkpt lat="58.67474167" lon="14.95921"><ele>116.0</ele><time>2016-06-18T11:35:57.306Z</time></trkpt><trkpt lat="58.67474167" lon="14.95921"><ele>116.0</ele><time>2016-06-18T11:35:58.302Z</time></trkpt><trkpt lat="58.674695" lon="14.95916"><ele>116.0</ele><time>2016-06-18T11:35:59.309Z</time></trkpt><trkpt lat="58.674695" lon="14.95916"><ele>116.0</ele><time>2016-06-18T11:36:00.294Z</time></trkpt><trkpt lat="58.674645" lon="14.95910333"><ele>116.0</ele><time>2016-06-18T11:36:01.316Z</time></trkpt><trkpt lat="58.67462167" lon="14.95907667"><ele>117.0</ele><time>2016-06-18T11:36:02.313Z</time></trkpt><trkpt lat="58.67462167" lon="14.95907667"><ele>117.0</ele><time>2016-06-18T11:36:03.297Z</time></trkpt><trkpt lat="58.67457167" lon="14.95903667"><ele>116.0</ele><time>2016-06-18T11:36:04.297Z</time></trkpt><trkpt lat="58.67457167" lon="14.95903667"><ele>116.0</ele><time>2016-06-18T11:36:05.300Z</time></trkpt><trkpt lat="58.67451833" lon="14.95898833"><ele>117.0</ele><time>2016-06-18T11:36:06.312Z</time></trkpt><trkpt lat="58.67449667" lon="14.958965"><ele>117.0</ele><time>2016-06-18T11:36:07.322Z</time></trkpt><trkpt lat="58.67449667" lon="14.958965"><ele>117.0</ele><time>2016-06-18T11:36:08.306Z</time></trkpt><trkpt lat="58.67445" lon="14.95892"><ele>117.0</ele><time>2016-06-18T11:36:09.316Z</time></trkpt><trkpt lat="58.67442167" lon="14.9589"><ele>117.0</ele><time>2016-06-18T11:36:10.301Z</time></trkpt><trkpt lat="58.67442167" lon="14.9589"><ele>117.0</ele><time>2016-06-18T11:36:11.386Z</time></trkpt><trkpt lat="58.67436667" lon="14.95886"><ele>118.0</ele><time>2016-06-18T11:36:12.408Z</time></trkpt><trkpt lat="58.67436667" lon="14.95886"><ele>118.0</ele><time>2016-06-18T11:36:13.299Z</time></trkpt><trkpt lat="58.67432167" lon="14.95881667"><ele>118.0</ele><time>2016-06-18T11:36:14.306Z</time></trkpt><trkpt lat="58.67432167" lon="14.95881667"><ele>118.0</ele><time>2016-06-18T11:36:15.288Z</time></trkpt><trkpt lat="58.67427667" lon="14.95878167"><ele>119.0</ele><time>2016-06-18T11:36:16.318Z</time></trkpt><trkpt lat="58.67427667" lon="14.95878167"><ele>119.0</ele><time>2016-06-18T11:36:17.293Z</time></trkpt><trkpt lat="58.67423167" lon="14.958755"><ele>119.0</ele><time>2016-06-18T11:36:18.308Z</time></trkpt><trkpt lat="58.67423167" lon="14.958755"><ele>119.0</ele><time>2016-06-18T11:36:19.292Z</time></trkpt><trkpt lat="58.674185" lon="14.95870167"><ele>120.0</ele><time>2016-06-18T11:36:20.316Z</time></trkpt><trkpt lat="58.674185" lon="14.95870167"><ele>120.0</ele><time>2016-06-18T11:36:21.311Z</time></trkpt><trkpt lat="58.67414667" lon="14.958645"><ele>120.0</ele><time>2016-06-18T11:36:22.318Z</time></trkpt><trkpt lat="58.674125" lon="14.95861833"><ele>120.0</ele><time>2016-06-18T11:36:23.311Z</time></trkpt><trkpt lat="58.674125" lon="14.95861833"><ele>120.0</ele><time>2016-06-18T11:36:24.314Z</time></trkpt><trkpt lat="58.674075" lon="14.95856167"><ele>120.0</ele><time>2016-06-18T11:36:25.282Z</time></trkpt><trkpt lat="58.674075" lon="14.95856167"><ele>120.0</ele><time>2016-06-18T11:36:26.289Z</time></trkpt><trkpt lat="58.67403333" lon="14.958525"><ele>121.0</ele><time>2016-06-18T11:36:27.316Z</time></trkpt><trkpt lat="58.67403333" lon="14.958525"><ele>121.0</ele><time>2016-06-18T11:36:28.301Z</time></trkpt><trkpt lat="58.674" lon="14.958475"><ele>121.0</ele><time>2016-06-18T11:36:29.319Z</time></trkpt><trkpt lat="58.674" lon="14.958475"><ele>121.0</ele><time>2016-06-18T11:36:30.305Z</time></trkpt><trkpt lat="58.673955" lon="14.95841833"><ele>121.0</ele><time>2016-06-18T11:36:31.311Z</time></trkpt><trkpt lat="58.67392667" lon="14.95839667"><ele>121.0</ele><time>2016-06-18T11:36:32.300Z</time></trkpt><trkpt lat="58.67392667" lon="14.95839667"><ele>121.0</ele><time>2016-06-18T11:36:33.311Z</time></trkpt><trkpt lat="58.67386667" lon="14.95835"><ele>121.0</ele><time>2016-06-18T11:36:34.317Z</time></trkpt><trkpt lat="58.67386667" lon="14.95835"><ele>121.0</ele><time>2016-06-18T11:36:35.284Z</time></trkpt><trkpt lat="58.67380667" lon="14.95831833"><ele>121.0</ele><time>2016-06-18T11:36:36.294Z</time></trkpt><trkpt lat="58.67380667" lon="14.95831833"><ele>121.0</ele><time>2016-06-18T11:36:37.316Z</time></trkpt><trkpt lat="58.673735" lon="14.958285"><ele>121.0</ele><time>2016-06-18T11:36:38.313Z</time></trkpt><trkpt lat="58.673735" lon="14.958285"><ele>121.0</ele><time>2016-06-18T11:36:39.287Z</time></trkpt><trkpt lat="58.67365167" lon="14.95825833"><ele>121.0</ele><time>2016-06-18T11:36:40.295Z</time></trkpt><trkpt lat="58.67365167" lon="14.95825833"><ele>121.0</ele><time>2016-06-18T11:36:41.318Z</time></trkpt><trkpt lat="58.67357333" lon="14.95824667"><ele>121.0</ele><time>2016-06-18T11:36:42.319Z</time></trkpt><trkpt lat="58.673535" lon="14.958245"><ele>121.0</ele><time>2016-06-18T11:36:43.293Z</time></trkpt><trkpt lat="58.673535" lon="14.958245"><ele>121.0</ele><time>2016-06-18T11:36:44.315Z</time></trkpt><trkpt lat="58.673445" lon="14.958255"><ele>121.0</ele><time>2016-06-18T11:36:45.287Z</time></trkpt><trkpt lat="58.673445" lon="14.958255"><ele>121.0</ele><time>2016-06-18T11:36:46.308Z</time></trkpt><trkpt lat="58.67333667" lon="14.95826667"><ele>121.0</ele><time>2016-06-18T11:36:47.285Z</time></trkpt><trkpt lat="58.67328333" lon="14.95828"><ele>121.0</ele><time>2016-06-18T11:36:48.296Z</time></trkpt><trkpt lat="58.67328333" lon="14.95828"><ele>121.0</ele><time>2016-06-18T11:36:49.311Z</time></trkpt><trkpt lat="58.67317333" lon="14.958305"><ele>121.0</ele><time>2016-06-18T11:36:50.318Z</time></trkpt><trkpt lat="58.67317333" lon="14.958305"><ele>121.0</ele><time>2016-06-18T11:36:51.304Z</time></trkpt><trkpt lat="58.67305333" lon="14.95831667"><ele>121.0</ele><time>2016-06-18T11:36:52.315Z</time></trkpt><trkpt lat="58.67299333" lon="14.95832333"><ele>121.0</ele><time>2016-06-18T11:36:53.293Z</time></trkpt><trkpt lat="58.67293333" lon="14.95832833"><ele>122.0</ele><time>2016-06-18T11:36:54.314Z</time></trkpt><trkpt lat="58.67293333" lon="14.95832833"><ele>122.0</ele><time>2016-06-18T11:36:55.299Z</time></trkpt><trkpt lat="58.67280333" lon="14.95833833"><ele>122.0</ele><time>2016-06-18T11:36:56.305Z</time></trkpt><trkpt lat="58.67280333" lon="14.95833833"><ele>122.0</ele><time>2016-06-18T11:36:57.288Z</time></trkpt><trkpt lat="58.67267833" lon="14.95835667"><ele>122.0</ele><time>2016-06-18T11:36:58.309Z</time></trkpt><trkpt lat="58.67267833" lon="14.95835667"><ele>122.0</ele><time>2016-06-18T11:36:59.294Z</time></trkpt><trkpt lat="58.67254833" lon="14.958375"><ele>122.0</ele><time>2016-06-18T11:37:00.295Z</time></trkpt><trkpt lat="58.67254833" lon="14.958375"><ele>122.0</ele><time>2016-06-18T11:37:01.313Z</time></trkpt><trkpt lat="58.67241833" lon="14.95841167"><ele>122.0</ele><time>2016-06-18T11:37:02.287Z</time></trkpt><trkpt lat="58.672355" lon="14.95843333"><ele>122.0</ele><time>2016-06-18T11:37:03.304Z</time></trkpt><trkpt lat="58.672355" lon="14.95843333"><ele>122.0</ele><time>2016-06-18T11:37:04.288Z</time></trkpt><trkpt lat="58.67222667" lon="14.958485"><ele>122.0</ele><time>2016-06-18T11:37:05.295Z</time></trkpt><trkpt lat="58.67222667" lon="14.958485"><ele>122.0</ele><time>2016-06-18T11:37:06.294Z</time></trkpt><trkpt lat="58.67210667" lon="14.958545"><ele>123.0</ele><time>2016-06-18T11:37:07.314Z</time></trkpt><trkpt lat="58.67210667" lon="14.958545"><ele>123.0</ele><time>2016-06-18T11:37:08.309Z</time></trkpt><trkpt lat="58.67199" lon="14.958605"><ele>123.0</ele><time>2016-06-18T11:37:09.316Z</time></trkpt><trkpt lat="58.67193667" lon="14.95863833"><ele>124.0</ele><time>2016-06-18T11:37:10.296Z</time></trkpt><trkpt lat="58.67193667" lon="14.95863833"><ele>124.0</ele><time>2016-06-18T11:37:11.395Z</time></trkpt><trkpt lat="58.67182833" lon="14.95869167"><ele>124.0</ele><time>2016-06-18T11:37:12.323Z</time></trkpt><trkpt lat="58.671775" lon="14.95871333"><ele>125.0</ele><time>2016-06-18T11:37:13.310Z</time></trkpt><trkpt lat="58.671725" lon="14.95874"><ele>125.0</ele><time>2016-06-18T11:37:14.293Z</time></trkpt><trkpt lat="58.671725" lon="14.95874"><ele>125.0</ele><time>2016-06-18T11:37:15.315Z</time></trkpt><trkpt lat="58.67162" lon="14.958795"><ele>125.0</ele><time>2016-06-18T11:37:16.288Z</time></trkpt><trkpt lat="58.67162" lon="14.958795"><ele>125.0</ele><time>2016-06-18T11:37:17.312Z</time></trkpt><trkpt lat="58.671525" lon="14.958855"><ele>125.0</ele><time>2016-06-18T11:37:18.286Z</time></trkpt><trkpt lat="58.671525" lon="14.958855"><ele>125.0</ele><time>2016-06-18T11:37:19.309Z</time></trkpt><trkpt lat="58.67142167" lon="14.95892"><ele>125.0</ele><time>2016-06-18T11:37:20.316Z</time></trkpt><trkpt lat="58.67142167" lon="14.95892"><ele>125.0</ele><time>2016-06-18T11:37:21.301Z</time></trkpt><trkpt lat="58.67131833" lon="14.95897667"><ele>125.0</ele><time>2016-06-18T11:37:22.308Z</time></trkpt><trkpt lat="58.67131833" lon="14.95897667"><ele>125.0</ele><time>2016-06-18T11:37:23.293Z</time></trkpt><trkpt lat="58.67120833" lon="14.95901333"><ele>125.0</ele><time>2016-06-18T11:37:24.312Z</time></trkpt><trkpt lat="58.67120833" lon="14.95901333"><ele>125.0</ele><time>2016-06-18T11:37:25.311Z</time></trkpt><trkpt lat="58.67109667" lon="14.95904333"><ele>125.0</ele><time>2016-06-18T11:37:26.318Z</time></trkpt><trkpt lat="58.67103833" lon="14.95905667"><ele>125.0</ele><time>2016-06-18T11:37:27.288Z</time></trkpt><trkpt lat="58.67103833" lon="14.95905667"><ele>125.0</ele><time>2016-06-18T11:37:28.300Z</time></trkpt><trkpt lat="58.67091833" lon="14.959085"><ele>125.0</ele><time>2016-06-18T11:37:29.307Z</time></trkpt><trkpt lat="58.67091833" lon="14.959085"><ele>125.0</ele><time>2016-06-18T11:37:30.316Z</time></trkpt><trkpt lat="58.67079667" lon="14.95911167"><ele>124.0</ele><time>2016-06-18T11:37:31.314Z</time></trkpt><trkpt lat="58.67079667" lon="14.95911167"><ele>124.0</ele><time>2016-06-18T11:37:32.321Z</time></trkpt><trkpt lat="58.67067" lon="14.959135"><ele>124.0</ele><time>2016-06-18T11:37:33.295Z</time></trkpt><trkpt lat="58.670605" lon="14.95914833"><ele>124.0</ele><time>2016-06-18T11:37:34.306Z</time></trkpt><trkpt lat="58.670605" lon="14.95914833"><ele>124.0</ele><time>2016-06-18T11:37:35.304Z</time></trkpt><trkpt lat="58.67047833" lon="14.95917333"><ele>124.0</ele><time>2016-06-18T11:37:36.310Z</time></trkpt><trkpt lat="58.670415" lon="14.95918"><ele>124.0</ele><time>2016-06-18T11:37:37.300Z</time></trkpt><trkpt lat="58.67035333" lon="14.95918833"><ele>124.0</ele><time>2016-06-18T11:37:38.305Z</time></trkpt><trkpt lat="58.67035333" lon="14.95918833"><ele>124.0</ele><time>2016-06-18T11:37:39.287Z</time></trkpt><trkpt lat="58.67023333" lon="14.9592"><ele>124.0</ele><time>2016-06-18T11:37:40.293Z</time></trkpt><trkpt lat="58.67023333" lon="14.9592"><ele>124.0</ele><time>2016-06-18T11:37:41.315Z</time></trkpt><trkpt lat="58.67010667" lon="14.95920167"><ele>123.0</ele><time>2016-06-18T11:37:42.291Z</time></trkpt><trkpt lat="58.67004333" lon="14.95919833"><ele>123.0</ele><time>2016-06-18T11:37:43.315Z</time></trkpt><trkpt lat="58.67004333" lon="14.95919833"><ele>123.0</ele><time>2016-06-18T11:37:44.300Z</time></trkpt><trkpt lat="58.66990333" lon="14.9592"><ele>122.0</ele><time>2016-06-18T11:37:45.319Z</time></trkpt><trkpt lat="58.66990333" lon="14.9592"><ele>122.0</ele><time>2016-06-18T11:37:46.310Z</time></trkpt><trkpt lat="58.669755" lon="14.95920833"><ele>122.0</ele><time>2016-06-18T11:37:47.316Z</time></trkpt><trkpt lat="58.669685" lon="14.95921333"><ele>122.0</ele><time>2016-06-18T11:37:48.300Z</time></trkpt><trkpt lat="58.669685" lon="14.95921333"><ele>122.0</ele><time>2016-06-18T11:37:49.288Z</time></trkpt><trkpt lat="58.669535" lon="14.95922833"><ele>121.0</ele><time>2016-06-18T11:37:50.297Z</time></trkpt><trkpt lat="58.669535" lon="14.95922833"><ele>121.0</ele><time>2016-06-18T11:37:51.285Z</time></trkpt><trkpt lat="58.669385" lon="14.959235"><ele>121.0</ele><time>2016-06-18T11:37:52.294Z</time></trkpt><trkpt lat="58.669385" lon="14.959235"><ele>121.0</ele><time>2016-06-18T11:37:53.317Z</time></trkpt><trkpt lat="58.66924167" lon="14.95923833"><ele>121.0</ele><time>2016-06-18T11:37:54.320Z</time></trkpt><trkpt lat="58.66924167" lon="14.95923833"><ele>121.0</ele><time>2016-06-18T11:37:55.285Z</time></trkpt><trkpt lat="58.66910333" lon="14.95925833"><ele>121.0</ele><time>2016-06-18T11:37:56.295Z</time></trkpt><trkpt lat="58.66910333" lon="14.95925833"><ele>121.0</ele><time>2016-06-18T11:37:57.284Z</time></trkpt><trkpt lat="58.668965" lon="14.959275"><ele>120.0</ele><time>2016-06-18T11:37:58.320Z</time></trkpt><trkpt lat="58.668965" lon="14.959275"><ele>120.0</ele><time>2016-06-18T11:37:59.312Z</time></trkpt><trkpt lat="58.66883" lon="14.95929667"><ele>120.0</ele><time>2016-06-18T11:38:00.320Z</time></trkpt><trkpt lat="58.66876167" lon="14.95930833"><ele>120.0</ele><time>2016-06-18T11:38:01.315Z</time></trkpt><trkpt lat="58.66876167" lon="14.95930833"><ele>120.0</ele><time>2016-06-18T11:38:02.286Z</time></trkpt><trkpt lat="58.66862833" lon="14.95933333"><ele>120.0</ele><time>2016-06-18T11:38:03.299Z</time></trkpt><trkpt lat="58.66862833" lon="14.95933333"><ele>120.0</ele><time>2016-06-18T11:38:04.321Z</time></trkpt><trkpt lat="58.66850333" lon="14.95935333"><ele>121.0</ele><time>2016-06-18T11:38:05.288Z</time></trkpt><trkpt lat="58.66850333" lon="14.95935333"><ele>121.0</ele><time>2016-06-18T11:38:06.310Z</time></trkpt><trkpt lat="58.66838" lon="14.95937167"><ele>121.0</ele><time>2016-06-18T11:38:07.304Z</time></trkpt><trkpt lat="58.66832" lon="14.95938667"><ele>121.0</ele><time>2016-06-18T11:38:08.301Z</time></trkpt><trkpt lat="58.66832" lon="14.95938667"><ele>121.0</ele><time>2016-06-18T11:38:09.286Z</time></trkpt><trkpt lat="58.6682" lon="14.95941333"><ele>121.0</ele><time>2016-06-18T11:38:10.306Z</time></trkpt><trkpt lat="58.6682" lon="14.95941333"><ele>121.0</ele><time>2016-06-18T11:38:11.402Z</time></trkpt><trkpt lat="58.66808333" lon="14.95944333"><ele>121.0</ele><time>2016-06-18T11:38:12.293Z</time></trkpt><trkpt lat="58.66802333" lon="14.95946"><ele>121.0</ele><time>2016-06-18T11:38:13.302Z</time></trkpt><trkpt lat="58.66802333" lon="14.95946"><ele>121.0</ele><time>2016-06-18T11:38:14.287Z</time></trkpt><trkpt lat="58.66791667" lon="14.95949167"><ele>122.0</ele><time>2016-06-18T11:38:15.293Z</time></trkpt><trkpt lat="58.66791667" lon="14.95949167"><ele>122.0</ele><time>2016-06-18T11:38:16.299Z</time></trkpt><trkpt lat="58.6678" lon="14.95951667"><ele>122.0</ele><time>2016-06-18T11:38:17.302Z</time></trkpt><trkpt lat="58.66774333" lon="14.95952833"><ele>122.0</ele><time>2016-06-18T11:38:18.310Z</time></trkpt><trkpt lat="58.66774333" lon="14.95952833"><ele>122.0</ele><time>2016-06-18T11:38:19.292Z</time></trkpt><trkpt lat="58.667625" lon="14.95955167"><ele>122.0</ele><time>2016-06-18T11:38:20.283Z</time></trkpt><trkpt lat="58.667625" lon="14.95955167"><ele>122.0</ele><time>2016-06-18T11:38:21.292Z</time></trkpt><trkpt lat="58.667505" lon="14.95957833"><ele>122.0</ele><time>2016-06-18T11:38:22.298Z</time></trkpt><trkpt lat="58.667505" lon="14.95957833"><ele>122.0</ele><time>2016-06-18T11:38:23.293Z</time></trkpt><trkpt lat="58.667385" lon="14.95960167"><ele>122.0</ele><time>2016-06-18T11:38:24.316Z</time></trkpt><trkpt lat="58.667385" lon="14.95960167"><ele>122.0</ele><time>2016-06-18T11:38:25.287Z</time></trkpt><trkpt lat="58.667265" lon="14.95962833"><ele>122.0</ele><time>2016-06-18T11:38:26.295Z</time></trkpt><trkpt lat="58.667265" lon="14.95962833"><ele>122.0</ele><time>2016-06-18T11:38:27.298Z</time></trkpt><trkpt lat="58.66714333" lon="14.95965833"><ele>123.0</ele><time>2016-06-18T11:38:28.312Z</time></trkpt><trkpt lat="58.66714333" lon="14.95965833"><ele>123.0</ele><time>2016-06-18T11:38:29.293Z</time></trkpt><trkpt lat="58.66702" lon="14.95969333"><ele>123.0</ele><time>2016-06-18T11:38:30.299Z</time></trkpt><trkpt lat="58.66702" lon="14.95969333"><ele>123.0</ele><time>2016-06-18T11:38:31.296Z</time></trkpt><trkpt lat="58.666895" lon="14.95972333"><ele>123.0</ele><time>2016-06-18T11:38:32.286Z</time></trkpt><trkpt lat="58.666895" lon="14.95972333"><ele>123.0</ele><time>2016-06-18T11:38:33.290Z</time></trkpt><trkpt lat="58.66676667" lon="14.95974667"><ele>123.0</ele><time>2016-06-18T11:38:34.297Z</time></trkpt><trkpt lat="58.66676667" lon="14.95974667"><ele>123.0</ele><time>2016-06-18T11:38:35.310Z</time></trkpt><trkpt lat="58.66663833" lon="14.95977333"><ele>123.0</ele><time>2016-06-18T11:38:36.312Z</time></trkpt><trkpt lat="58.66663833" lon="14.95977333"><ele>123.0</ele><time>2016-06-18T11:38:37.311Z</time></trkpt><trkpt lat="58.66651" lon="14.95980333"><ele>122.0</ele><time>2016-06-18T11:38:38.317Z</time></trkpt><trkpt lat="58.66651" lon="14.95980333"><ele>122.0</ele><time>2016-06-18T11:38:39.295Z</time></trkpt><trkpt lat="58.66637833" lon="14.95982833"><ele>122.0</ele><time>2016-06-18T11:38:40.312Z</time></trkpt><trkpt lat="58.66637833" lon="14.95982833"><ele>122.0</ele><time>2016-06-18T11:38:41.309Z</time></trkpt><trkpt lat="58.66624833" lon="14.95985667"><ele>122.0</ele><time>2016-06-18T11:38:42.316Z</time></trkpt><trkpt lat="58.66624833" lon="14.95985667"><ele>122.0</ele><time>2016-06-18T11:38:43.301Z</time></trkpt><trkpt lat="58.66612167" lon="14.95989167"><ele>122.0</ele><time>2016-06-18T11:38:44.319Z</time></trkpt><trkpt lat="58.66612167" lon="14.95989167"><ele>122.0</ele><time>2016-06-18T11:38:45.283Z</time></trkpt><trkpt lat="58.66599167" lon="14.95991833"><ele>122.0</ele><time>2016-06-18T11:38:46.290Z</time></trkpt><trkpt lat="58.66599167" lon="14.95991833"><ele>122.0</ele><time>2016-06-18T11:38:47.311Z</time></trkpt><trkpt lat="58.66586333" lon="14.95995167"><ele>122.0</ele><time>2016-06-18T11:38:48.319Z</time></trkpt><trkpt lat="58.66586333" lon="14.95995167"><ele>122.0</ele><time>2016-06-18T11:38:49.312Z</time></trkpt><trkpt lat="58.66573167" lon="14.96000167"><ele>122.0</ele><time>2016-06-18T11:38:50.297Z</time></trkpt><trkpt lat="58.66573167" lon="14.96000167"><ele>122.0</ele><time>2016-06-18T11:38:51.321Z</time></trkpt><trkpt lat="58.66559167" lon="14.960055"><ele>122.0</ele><time>2016-06-18T11:38:52.290Z</time></trkpt><trkpt lat="58.66559167" lon="14.960055"><ele>122.0</ele><time>2016-06-18T11:38:53.313Z</time></trkpt><trkpt lat="58.66544167" lon="14.9601"><ele>121.0</ele><time>2016-06-18T11:38:54.315Z</time></trkpt><trkpt lat="58.66544167" lon="14.9601"><ele>121.0</ele><time>2016-06-18T11:38:55.311Z</time></trkpt><trkpt lat="58.66528833" lon="14.96015333"><ele>121.0</ele><time>2016-06-18T11:38:56.318Z</time></trkpt><trkpt lat="58.66528833" lon="14.96015333"><ele>121.0</ele><time>2016-06-18T11:38:57.295Z</time></trkpt><trkpt lat="58.66513333" lon="14.960215"><ele>120.0</ele><time>2016-06-18T11:38:58.314Z</time></trkpt><trkpt lat="58.66513333" lon="14.960215"><ele>120.0</ele><time>2016-06-18T11:38:59.309Z</time></trkpt><trkpt lat="58.664975" lon="14.96028833"><ele>120.0</ele><time>2016-06-18T11:39:00.316Z</time></trkpt><trkpt lat="58.66489333" lon="14.96032667"><ele>120.0</ele><time>2016-06-18T11:39:01.298Z</time></trkpt><trkpt lat="58.66481167" lon="14.96036167"><ele>120.0</ele><time>2016-06-18T11:39:02.320Z</time></trkpt><trkpt lat="58.66481167" lon="14.96036167"><ele>120.0</ele><time>2016-06-18T11:39:03.307Z</time></trkpt><trkpt lat="58.664645" lon="14.960435"><ele>119.0</ele><time>2016-06-18T11:39:04.314Z</time></trkpt><trkpt lat="58.664645" lon="14.960435"><ele>119.0</ele><time>2016-06-18T11:39:05.298Z</time></trkpt><trkpt lat="58.66448833" lon="14.960535"><ele>119.0</ele><time>2016-06-18T11:39:06.314Z</time></trkpt><trkpt lat="58.66441333" lon="14.96060333"><ele>118.0</ele><time>2016-06-18T11:39:07.316Z</time></trkpt><trkpt lat="58.66441333" lon="14.96060333"><ele>118.0</ele><time>2016-06-18T11:39:08.310Z</time></trkpt><trkpt lat="58.66426667" lon="14.96076667"><ele>118.0</ele><time>2016-06-18T11:39:09.287Z</time></trkpt><trkpt lat="58.66426667" lon="14.96076667"><ele>118.0</ele><time>2016-06-18T11:39:10.308Z</time></trkpt><trkpt lat="58.66412" lon="14.96095833"><ele>118.0</ele><time>2016-06-18T11:39:11.391Z</time></trkpt><trkpt lat="58.66412" lon="14.96095833"><ele>118.0</ele><time>2016-06-18T11:39:12.295Z</time></trkpt><trkpt lat="58.66396833" lon="14.96116833"><ele>117.0</ele><time>2016-06-18T11:39:13.302Z</time></trkpt><trkpt lat="58.66396833" lon="14.96116833"><ele>117.0</ele><time>2016-06-18T11:39:14.287Z</time></trkpt><trkpt lat="58.66381" lon="14.96139167"><ele>117.0</ele><time>2016-06-18T11:39:15.296Z</time></trkpt><trkpt lat="58.66381" lon="14.96139167"><ele>117.0</ele><time>2016-06-18T11:39:16.300Z</time></trkpt><trkpt lat="58.66364333" lon="14.96162"><ele>116.0</ele><time>2016-06-18T11:39:17.307Z</time></trkpt><trkpt lat="58.66355833" lon="14.96174"><ele>115.0</ele><time>2016-06-18T11:39:18.290Z</time></trkpt><trkpt lat="58.66347167" lon="14.96186167"><ele>114.0</ele><time>2016-06-18T11:39:19.313Z</time></trkpt><trkpt lat="58.66338333" lon="14.96198167"><ele>114.0</ele><time>2016-06-18T11:39:20.298Z</time></trkpt><trkpt lat="58.66338333" lon="14.96198167"><ele>114.0</ele><time>2016-06-18T11:39:21.282Z</time></trkpt><trkpt lat="58.663205" lon="14.96222833"><ele>112.0</ele><time>2016-06-18T11:39:22.294Z</time></trkpt><trkpt lat="58.663205" lon="14.96222833"><ele>112.0</ele><time>2016-06-18T11:39:23.288Z</time></trkpt><trkpt lat="58.66302" lon="14.962455"><ele>111.0</ele><time>2016-06-18T11:39:24.295Z</time></trkpt><trkpt lat="58.66302" lon="14.962455"><ele>111.0</ele><time>2016-06-18T11:39:25.317Z</time></trkpt><trkpt lat="58.662825" lon="14.96262833"><ele>111.0</ele><time>2016-06-18T11:39:26.287Z</time></trkpt><trkpt lat="58.662825" lon="14.96262833"><ele>111.0</ele><time>2016-06-18T11:39:27.313Z</time></trkpt><trkpt lat="58.66262333" lon="14.96271"><ele>110.0</ele><time>2016-06-18T11:39:28.283Z</time></trkpt><trkpt lat="58.66252333" lon="14.96272"><ele>110.0</ele><time>2016-06-18T11:39:29.300Z</time></trkpt><trkpt lat="58.66252333" lon="14.96272"><ele>110.0</ele><time>2016-06-18T11:39:30.289Z</time></trkpt><trkpt lat="58.66232667" lon="14.962715"><ele>109.0</ele><time>2016-06-18T11:39:31.297Z</time></trkpt><trkpt lat="58.66223167" lon="14.962695"><ele>109.0</ele><time>2016-06-18T11:39:32.311Z</time></trkpt><trkpt lat="58.66213833" lon="14.962665"><ele>109.0</ele><time>2016-06-18T11:39:33.297Z</time></trkpt><trkpt lat="58.66213833" lon="14.962665"><ele>109.0</ele><time>2016-06-18T11:39:34.319Z</time></trkpt><trkpt lat="58.66195833" lon="14.96258333"><ele>109.0</ele><time>2016-06-18T11:39:35.285Z</time></trkpt><trkpt lat="58.66187167" lon="14.962535"><ele>109.0</ele><time>2016-06-18T11:39:36.310Z</time></trkpt><trkpt lat="58.66187167" lon="14.962535"><ele>109.0</ele><time>2016-06-18T11:39:37.300Z</time></trkpt><trkpt lat="58.66170667" lon="14.96242333"><ele>109.0</ele><time>2016-06-18T11:39:38.307Z</time></trkpt><trkpt lat="58.66170667" lon="14.96242333"><ele>109.0</ele><time>2016-06-18T11:39:39.295Z</time></trkpt><trkpt lat="58.661555" lon="14.96231667"><ele>109.0</ele><time>2016-06-18T11:39:40.315Z</time></trkpt><trkpt lat="58.661555" lon="14.96231667"><ele>109.0</ele><time>2016-06-18T11:39:41.312Z</time></trkpt><trkpt lat="58.66142333" lon="14.96218667"><ele>109.0</ele><time>2016-06-18T11:39:42.318Z</time></trkpt><trkpt lat="58.66136167" lon="14.96212167"><ele>109.0</ele><time>2016-06-18T11:39:43.309Z</time></trkpt><trkpt lat="58.66136167" lon="14.96212167"><ele>109.0</ele><time>2016-06-18T11:39:44.299Z</time></trkpt><trkpt lat="58.66124667" lon="14.96199667"><ele>109.0</ele><time>2016-06-18T11:39:45.306Z</time></trkpt><trkpt lat="58.66124667" lon="14.96199667"><ele>109.0</ele><time>2016-06-18T11:39:46.295Z</time></trkpt><trkpt lat="58.661145" lon="14.96188667"><ele>110.0</ele><time>2016-06-18T11:39:47.318Z</time></trkpt><trkpt lat="58.661145" lon="14.96188667"><ele>110.0</ele><time>2016-06-18T11:39:48.287Z</time></trkpt><trkpt lat="58.66104833" lon="14.96178333"><ele>110.0</ele><time>2016-06-18T11:39:49.304Z</time></trkpt><trkpt lat="58.661" lon="14.96174333"><ele>110.0</ele><time>2016-06-18T11:39:50.306Z</time></trkpt><trkpt lat="58.661" lon="14.96174333"><ele>110.0</ele><time>2016-06-18T11:39:51.290Z</time></trkpt><trkpt lat="58.66091333" lon="14.96168167"><ele>110.0</ele><time>2016-06-18T11:39:52.298Z</time></trkpt><trkpt lat="58.66087" lon="14.96165833"><ele>111.0</ele><time>2016-06-18T11:39:53.321Z</time></trkpt><trkpt lat="58.66082333" lon="14.96163833"><ele>111.0</ele><time>2016-06-18T11:39:54.310Z</time></trkpt><trkpt lat="58.66082333" lon="14.96163833"><ele>111.0</ele><time>2016-06-18T11:39:55.293Z</time></trkpt><trkpt lat="58.66074333" lon="14.96161333"><ele>111.0</ele><time>2016-06-18T11:39:56.299Z</time></trkpt><trkpt lat="58.66074333" lon="14.96161333"><ele>111.0</ele><time>2016-06-18T11:39:57.286Z</time></trkpt><trkpt lat="58.660675" lon="14.96159333"><ele>112.0</ele><time>2016-06-18T11:39:58.296Z</time></trkpt><trkpt lat="58.66064" lon="14.96158833"><ele>112.0</ele><time>2016-06-18T11:39:59.289Z</time></trkpt><trkpt lat="58.66064" lon="14.96158833"><ele>112.0</ele><time>2016-06-18T11:40:00.293Z</time></trkpt><trkpt lat="58.66056833" lon="14.96158333"><ele>112.0</ele><time>2016-06-18T11:40:01.301Z</time></trkpt><trkpt lat="58.66056833" lon="14.96158333"><ele>112.0</ele><time>2016-06-18T11:40:02.286Z</time></trkpt><trkpt lat="58.66049167" lon="14.96158833"><ele>113.0</ele><time>2016-06-18T11:40:03.308Z</time></trkpt><trkpt lat="58.66049167" lon="14.96158833"><ele>113.0</ele><time>2016-06-18T11:40:04.288Z</time></trkpt><trkpt lat="58.66041667" lon="14.96160333"><ele>114.0</ele><time>2016-06-18T11:40:05.294Z</time></trkpt><trkpt lat="58.66041667" lon="14.96160333"><ele>114.0</ele><time>2016-06-18T11:40:06.310Z</time></trkpt><trkpt lat="58.66032333" lon="14.9616"><ele>114.0</ele><time>2016-06-18T11:40:07.316Z</time></trkpt><trkpt lat="58.66032333" lon="14.9616"><ele>114.0</ele><time>2016-06-18T11:40:08.308Z</time></trkpt><trkpt lat="58.66023833" lon="14.961625"><ele>115.0</ele><time>2016-06-18T11:40:09.284Z</time></trkpt><trkpt lat="58.66023833" lon="14.961625"><ele>115.0</ele><time>2016-06-18T11:40:10.311Z</time></trkpt><trkpt lat="58.66015667" lon="14.961665"><ele>116.0</ele><time>2016-06-18T11:40:11.393Z</time></trkpt><trkpt lat="58.66015667" lon="14.961665"><ele>116.0</ele><time>2016-06-18T11:40:12.301Z</time></trkpt><trkpt lat="58.66007" lon="14.96169167"><ele>116.0</ele><time>2016-06-18T11:40:13.310Z</time></trkpt><trkpt lat="58.66007" lon="14.96169167"><ele>116.0</ele><time>2016-06-18T11:40:14.293Z</time></trkpt><trkpt lat="58.65997833" lon="14.96171"><ele>116.0</ele><time>2016-06-18T11:40:15.300Z</time></trkpt><trkpt lat="58.65997833" lon="14.96171"><ele>116.0</ele><time>2016-06-18T11:40:16.288Z</time></trkpt><trkpt lat="58.65988" lon="14.96173167"><ele>117.0</ele><time>2016-06-18T11:40:17.318Z</time></trkpt><trkpt lat="58.65988" lon="14.96173167"><ele>117.0</ele><time>2016-06-18T11:40:18.283Z</time></trkpt><trkpt lat="58.659785" lon="14.96176"><ele>117.0</ele><time>2016-06-18T11:40:19.294Z</time></trkpt><trkpt lat="58.659785" lon="14.96176"><ele>117.0</ele><time>2016-06-18T11:40:20.309Z</time></trkpt><trkpt lat="58.65967" lon="14.96177833"><ele>118.0</ele><time>2016-06-18T11:40:21.326Z</time></trkpt><trkpt lat="58.65967" lon="14.96177833"><ele>118.0</ele><time>2016-06-18T11:40:22.312Z</time></trkpt><trkpt lat="58.65957167" lon="14.96180667"><ele>119.0</ele><time>2016-06-18T11:40:23.319Z</time></trkpt><trkpt lat="58.65952333" lon="14.96181833"><ele>119.0</ele><time>2016-06-18T11:40:24.315Z</time></trkpt><trkpt lat="58.65952333" lon="14.96181833"><ele>119.0</ele><time>2016-06-18T11:40:25.293Z</time></trkpt><trkpt lat="58.65942" lon="14.96185"><ele>119.0</ele><time>2016-06-18T11:40:26.299Z</time></trkpt><trkpt lat="58.65942" lon="14.96185"><ele>119.0</ele><time>2016-06-18T11:40:27.296Z</time></trkpt><trkpt lat="58.659275" lon="14.96185833"><ele>120.0</ele><time>2016-06-18T11:40:28.292Z</time></trkpt><trkpt lat="58.659275" lon="14.96185833"><ele>120.0</ele><time>2016-06-18T11:40:29.298Z</time></trkpt><trkpt lat="58.65914" lon="14.96188"><ele>120.0</ele><time>2016-06-18T11:40:30.305Z</time></trkpt><trkpt lat="58.65914" lon="14.96188"><ele>120.0</ele><time>2016-06-18T11:40:31.298Z</time></trkpt><trkpt lat="58.659005" lon="14.96190333"><ele>120.0</ele><time>2016-06-18T11:40:32.284Z</time></trkpt><trkpt lat="58.659005" lon="14.96190333"><ele>120.0</ele><time>2016-06-18T11:40:33.295Z</time></trkpt><trkpt lat="58.65887333" lon="14.96192"><ele>121.0</ele><time>2016-06-18T11:40:34.302Z</time></trkpt><trkpt lat="58.65887333" lon="14.96192"><ele>121.0</ele><time>2016-06-18T11:40:35.296Z</time></trkpt><trkpt lat="58.65874667" lon="14.96195167"><ele>121.0</ele><time>2016-06-18T11:40:36.285Z</time></trkpt><trkpt lat="58.65874667" lon="14.96195167"><ele>121.0</ele><time>2016-06-18T11:40:37.306Z</time></trkpt><trkpt lat="58.65860833" lon="14.96198667"><ele>121.0</ele><time>2016-06-18T11:40:38.313Z</time></trkpt><trkpt lat="58.65860833" lon="14.96198667"><ele>121.0</ele><time>2016-06-18T11:40:39.301Z</time></trkpt><trkpt lat="58.65847833" lon="14.96203167"><ele>122.0</ele><time>2016-06-18T11:40:40.307Z</time></trkpt><trkpt lat="58.65847833" lon="14.96203167"><ele>122.0</ele><time>2016-06-18T11:40:41.289Z</time></trkpt><trkpt lat="58.658365" lon="14.96212833"><ele>122.0</ele><time>2016-06-18T11:40:42.316Z</time></trkpt><trkpt lat="58.658365" lon="14.96212833"><ele>122.0</ele><time>2016-06-18T11:40:43.320Z</time></trkpt><trkpt lat="58.65828167" lon="14.96224"><ele>123.0</ele><time>2016-06-18T11:40:44.292Z</time></trkpt><trkpt lat="58.65828167" lon="14.96224"><ele>123.0</ele><time>2016-06-18T11:40:45.313Z</time></trkpt><trkpt lat="58.65821333" lon="14.96237833"><ele>122.0</ele><time>2016-06-18T11:40:46.305Z</time></trkpt><trkpt lat="58.65821333" lon="14.96237833"><ele>122.0</ele><time>2016-06-18T11:40:47.311Z</time></trkpt><trkpt lat="58.65812667" lon="14.96250833"><ele>123.0</ele><time>2016-06-18T11:40:48.318Z</time></trkpt><trkpt lat="58.65812667" lon="14.96250833"><ele>123.0</ele><time>2016-06-18T11:40:49.310Z</time></trkpt><trkpt lat="58.65803167" lon="14.96261"><ele>122.0</ele><time>2016-06-18T11:40:50.320Z</time></trkpt><trkpt lat="58.65803167" lon="14.96261"><ele>122.0</ele><time>2016-06-18T11:40:51.288Z</time></trkpt><trkpt lat="58.65792" lon="14.96259667"><ele>123.0</ele><time>2016-06-18T11:40:52.316Z</time></trkpt><trkpt lat="58.65792" lon="14.96259667"><ele>123.0</ele><time>2016-06-18T11:40:53.298Z</time></trkpt><trkpt lat="58.6578" lon="14.96254167"><ele>123.0</ele><time>2016-06-18T11:40:54.305Z</time></trkpt><trkpt lat="58.6578" lon="14.96254167"><ele>123.0</ele><time>2016-06-18T11:40:55.289Z</time></trkpt><trkpt lat="58.65767333" lon="14.96247167"><ele>123.0</ele><time>2016-06-18T11:40:56.296Z</time></trkpt><trkpt lat="58.65767333" lon="14.96247167"><ele>123.0</ele><time>2016-06-18T11:40:57.318Z</time></trkpt><trkpt lat="58.65754333" lon="14.96238667"><ele>123.0</ele><time>2016-06-18T11:40:58.313Z</time></trkpt><trkpt lat="58.65754333" lon="14.96238667"><ele>123.0</ele><time>2016-06-18T11:40:59.290Z</time></trkpt><trkpt lat="58.657405" lon="14.96229667"><ele>123.0</ele><time>2016-06-18T11:41:00.299Z</time></trkpt><trkpt lat="58.65733167" lon="14.96225"><ele>122.0</ele><time>2016-06-18T11:41:01.317Z</time></trkpt><trkpt lat="58.65733167" lon="14.96225"><ele>122.0</ele><time>2016-06-18T11:41:02.287Z</time></trkpt><trkpt lat="58.65718333" lon="14.96216"><ele>122.0</ele><time>2016-06-18T11:41:03.315Z</time></trkpt><trkpt lat="58.65718333" lon="14.96216"><ele>122.0</ele><time>2016-06-18T11:41:04.297Z</time></trkpt><trkpt lat="58.657025" lon="14.96206167"><ele>121.0</ele><time>2016-06-18T11:41:05.312Z</time></trkpt><trkpt lat="58.657025" lon="14.96206167"><ele>121.0</ele><time>2016-06-18T11:41:06.307Z</time></trkpt><trkpt lat="58.65686833" lon="14.96196667"><ele>121.0</ele><time>2016-06-18T11:41:07.313Z</time></trkpt><trkpt lat="58.65678833" lon="14.96192833"><ele>120.0</ele><time>2016-06-18T11:41:08.299Z</time></trkpt><trkpt lat="58.65678833" lon="14.96192833"><ele>120.0</ele><time>2016-06-18T11:41:09.285Z</time></trkpt><trkpt lat="58.656625" lon="14.961855"><ele>120.0</ele><time>2016-06-18T11:41:10.293Z</time></trkpt><trkpt lat="58.656625" lon="14.961855"><ele>120.0</ele><time>2016-06-18T11:41:11.392Z</time></trkpt><trkpt lat="58.65646167" lon="14.96179167"><ele>119.0</ele><time>2016-06-18T11:41:12.317Z</time></trkpt><trkpt lat="58.65637667" lon="14.961755"><ele>119.0</ele><time>2016-06-18T11:41:13.296Z</time></trkpt><trkpt lat="58.65629333" lon="14.96171667"><ele>118.0</ele><time>2016-06-18T11:41:14.318Z</time></trkpt><trkpt lat="58.65629333" lon="14.96171667"><ele>118.0</ele><time>2016-06-18T11:41:15.303Z</time></trkpt><trkpt lat="58.656125" lon="14.96164333"><ele>118.0</ele><time>2016-06-18T11:41:16.309Z</time></trkpt><trkpt lat="58.65604" lon="14.96160667"><ele>117.0</ele><time>2016-06-18T11:41:17.295Z</time></trkpt><trkpt lat="58.65604" lon="14.96160667"><ele>117.0</ele><time>2016-06-18T11:41:18.316Z</time></trkpt><trkpt lat="58.65586833" lon="14.96152833"><ele>116.0</ele><time>2016-06-18T11:41:19.291Z</time></trkpt><trkpt lat="58.65578333" lon="14.96149"><ele>116.0</ele><time>2016-06-18T11:41:20.303Z</time></trkpt><trkpt lat="58.65578333" lon="14.96149"><ele>116.0</ele><time>2016-06-18T11:41:21.289Z</time></trkpt><trkpt lat="58.65561667" lon="14.96141"><ele>115.0</ele><time>2016-06-18T11:41:22.316Z</time></trkpt><trkpt lat="58.655535" lon="14.96136667"><ele>115.0</ele><time>2016-06-18T11:41:23.310Z</time></trkpt><trkpt lat="58.655535" lon="14.96136667"><ele>115.0</ele><time>2016-06-18T11:41:24.295Z</time></trkpt><trkpt lat="58.65537" lon="14.961275"><ele>115.0</ele><time>2016-06-18T11:41:25.302Z</time></trkpt><trkpt lat="58.65528667" lon="14.96122333"><ele>114.0</ele><time>2016-06-18T11:41:26.290Z</time></trkpt><trkpt lat="58.65528667" lon="14.96122333"><ele>114.0</ele><time>2016-06-18T11:41:27.290Z</time></trkpt><trkpt lat="58.65512667" lon="14.96112167"><ele>114.0</ele><time>2016-06-18T11:41:28.296Z</time></trkpt><trkpt lat="58.65512667" lon="14.96112167"><ele>114.0</ele><time>2016-06-18T11:41:29.317Z</time></trkpt><trkpt lat="58.654965" lon="14.96101"><ele>114.0</ele><time>2016-06-18T11:41:30.320Z</time></trkpt><trkpt lat="58.654965" lon="14.96101"><ele>114.0</ele><time>2016-06-18T11:41:31.287Z</time></trkpt><trkpt lat="58.65480833" lon="14.96088667"><ele>114.0</ele><time>2016-06-18T11:41:32.295Z</time></trkpt><trkpt lat="58.65480833" lon="14.96088667"><ele>114.0</ele><time>2016-06-18T11:41:33.318Z</time></trkpt><trkpt lat="58.65465667" lon="14.96075"><ele>114.0</ele><time>2016-06-18T11:41:34.316Z</time></trkpt><trkpt lat="58.65465667" lon="14.96075"><ele>114.0</ele><time>2016-06-18T11:41:35.292Z</time></trkpt><trkpt lat="58.65451" lon="14.96060833"><ele>113.0</ele><time>2016-06-18T11:41:36.299Z</time></trkpt><trkpt lat="58.65451" lon="14.96060833"><ele>113.0</ele><time>2016-06-18T11:41:37.282Z</time></trkpt><trkpt lat="58.654365" lon="14.96046667"><ele>113.0</ele><time>2016-06-18T11:41:38.308Z</time></trkpt><trkpt lat="58.654365" lon="14.96046667"><ele>113.0</ele><time>2016-06-18T11:41:39.282Z</time></trkpt><trkpt lat="58.65422167" lon="14.96032"><ele>113.0</ele><time>2016-06-18T11:41:40.296Z</time></trkpt><trkpt lat="58.65415167" lon="14.96024667"><ele>113.0</ele><time>2016-06-18T11:41:41.288Z</time></trkpt><trkpt lat="58.65415167" lon="14.96024667"><ele>113.0</ele><time>2016-06-18T11:41:42.291Z</time></trkpt><trkpt lat="58.654015" lon="14.96010667"><ele>113.0</ele><time>2016-06-18T11:41:43.301Z</time></trkpt><trkpt lat="58.654015" lon="14.96010667"><ele>113.0</ele><time>2016-06-18T11:41:44.289Z</time></trkpt><trkpt lat="58.65387833" lon="14.959965"><ele>113.0</ele><time>2016-06-18T11:41:45.300Z</time></trkpt><trkpt lat="58.65387833" lon="14.959965"><ele>113.0</ele><time>2016-06-18T11:41:46.283Z</time></trkpt><trkpt lat="58.65374333" lon="14.959825"><ele>112.0</ele><time>2016-06-18T11:41:47.283Z</time></trkpt><trkpt lat="58.65374333" lon="14.959825"><ele>112.0</ele><time>2016-06-18T11:41:48.285Z</time></trkpt><trkpt lat="58.65361" lon="14.95968667"><ele>112.0</ele><time>2016-06-18T11:41:49.321Z</time></trkpt><trkpt lat="58.65361" lon="14.95968667"><ele>112.0</ele><time>2016-06-18T11:41:50.288Z</time></trkpt><trkpt lat="58.65347667" lon="14.959555"><ele>112.0</ele><time>2016-06-18T11:41:51.297Z</time></trkpt><trkpt lat="58.65347667" lon="14.959555"><ele>112.0</ele><time>2016-06-18T11:41:52.319Z</time></trkpt><trkpt lat="58.65334833" lon="14.95943167"><ele>111.0</ele><time>2016-06-18T11:41:53.298Z</time></trkpt><trkpt lat="58.65328333" lon="14.95936833"><ele>111.0</ele><time>2016-06-18T11:41:54.299Z</time></trkpt><trkpt lat="58.65328333" lon="14.95936833"><ele>111.0</ele><time>2016-06-18T11:41:55.285Z</time></trkpt><trkpt lat="58.65315833" lon="14.95923333"><ele>111.0</ele><time>2016-06-18T11:41:56.315Z</time></trkpt><trkpt lat="58.653095" lon="14.959165"><ele>111.0</ele><time>2016-06-18T11:41:57.296Z</time></trkpt><trkpt lat="58.653095" lon="14.959165"><ele>111.0</ele><time>2016-06-18T11:41:58.318Z</time></trkpt><trkpt lat="58.65296667" lon="14.95903"><ele>111.0</ele><time>2016-06-18T11:41:59.286Z</time></trkpt><trkpt lat="58.65290333" lon="14.958965"><ele>110.0</ele><time>2016-06-18T11:42:00.303Z</time></trkpt><trkpt lat="58.65290333" lon="14.958965"><ele>110.0</ele><time>2016-06-18T11:42:01.308Z</time></trkpt><trkpt lat="58.65277333" lon="14.95883333"><ele>110.0</ele><time>2016-06-18T11:42:02.314Z</time></trkpt><trkpt lat="58.65277333" lon="14.95883333"><ele>110.0</ele><time>2016-06-18T11:42:03.300Z</time></trkpt><trkpt lat="58.65264167" lon="14.95870167"><ele>110.0</ele><time>2016-06-18T11:42:04.307Z</time></trkpt><trkpt lat="58.65264167" lon="14.95870167"><ele>110.0</ele><time>2016-06-18T11:42:05.290Z</time></trkpt><trkpt lat="58.65251" lon="14.95856667"><ele>110.0</ele><time>2016-06-18T11:42:06.297Z</time></trkpt><trkpt lat="58.65251" lon="14.95856667"><ele>110.0</ele><time>2016-06-18T11:42:07.319Z</time></trkpt><trkpt lat="58.65237333" lon="14.95843333"><ele>109.0</ele><time>2016-06-18T11:42:08.288Z</time></trkpt><trkpt lat="58.65237333" lon="14.95843333"><ele>109.0</ele><time>2016-06-18T11:42:09.300Z</time></trkpt><trkpt lat="58.65223833" lon="14.95830333"><ele>109.0</ele><time>2016-06-18T11:42:10.306Z</time></trkpt><trkpt lat="58.65223833" lon="14.95830333"><ele>109.0</ele><time>2016-06-18T11:42:11.391Z</time></trkpt><trkpt lat="58.6521" lon="14.95817333"><ele>109.0</ele><time>2016-06-18T11:42:12.294Z</time></trkpt><trkpt lat="58.65203" lon="14.95810667"><ele>109.0</ele><time>2016-06-18T11:42:13.318Z</time></trkpt><trkpt lat="58.65196333" lon="14.95804"><ele>109.0</ele><time>2016-06-18T11:42:14.295Z</time></trkpt><trkpt lat="58.65196333" lon="14.95804"><ele>109.0</ele><time>2016-06-18T11:42:15.317Z</time></trkpt><trkpt lat="58.651825" lon="14.957895"><ele>109.0</ele><time>2016-06-18T11:42:16.285Z</time></trkpt><trkpt lat="58.651825" lon="14.957895"><ele>109.0</ele><time>2016-06-18T11:42:17.306Z</time></trkpt><trkpt lat="58.651685" lon="14.95775"><ele>108.0</ele><time>2016-06-18T11:42:18.313Z</time></trkpt><trkpt lat="58.651685" lon="14.95775"><ele>108.0</ele><time>2016-06-18T11:42:19.299Z</time></trkpt><trkpt lat="58.65154167" lon="14.957605"><ele>108.0</ele><time>2016-06-18T11:42:20.305Z</time></trkpt><trkpt lat="58.65154167" lon="14.957605"><ele>108.0</ele><time>2016-06-18T11:42:21.282Z</time></trkpt><trkpt lat="58.65139833" lon="14.95746"><ele>108.0</ele><time>2016-06-18T11:42:22.294Z</time></trkpt><trkpt lat="58.651325" lon="14.95738833"><ele>108.0</ele><time>2016-06-18T11:42:23.316Z</time></trkpt><trkpt lat="58.651325" lon="14.95738833"><ele>108.0</ele><time>2016-06-18T11:42:24.300Z</time></trkpt><trkpt lat="58.65118" lon="14.957245"><ele>108.0</ele><time>2016-06-18T11:42:25.306Z</time></trkpt><trkpt lat="58.65111167" lon="14.95717"><ele>107.0</ele><time>2016-06-18T11:42:26.316Z</time></trkpt><trkpt lat="58.65111167" lon="14.95717"><ele>107.0</ele><time>2016-06-18T11:42:27.300Z</time></trkpt><trkpt lat="58.65097167" lon="14.95701833"><ele>107.0</ele><time>2016-06-18T11:42:28.306Z</time></trkpt><trkpt lat="58.6509" lon="14.95694167"><ele>107.0</ele><time>2016-06-18T11:42:29.321Z</time></trkpt><trkpt lat="58.6509" lon="14.95694167"><ele>107.0</ele><time>2016-06-18T11:42:30.294Z</time></trkpt><trkpt lat="58.65075833" lon="14.95680167"><ele>107.0</ele><time>2016-06-18T11:42:31.314Z</time></trkpt><trkpt lat="58.65068333" lon="14.95672333"><ele>107.0</ele><time>2016-06-18T11:42:32.320Z</time></trkpt><trkpt lat="58.65068333" lon="14.95672333"><ele>107.0</ele><time>2016-06-18T11:42:33.295Z</time></trkpt><trkpt lat="58.65053167" lon="14.95656333"><ele>107.0</ele><time>2016-06-18T11:42:34.309Z</time></trkpt><trkpt lat="58.650455" lon="14.95648667"><ele>108.0</ele><time>2016-06-18T11:42:35.297Z</time></trkpt><trkpt lat="58.650455" lon="14.95648667"><ele>108.0</ele><time>2016-06-18T11:42:36.302Z</time></trkpt><trkpt lat="58.65030333" lon="14.95633833"><ele>108.0</ele><time>2016-06-18T11:42:37.309Z</time></trkpt><trkpt lat="58.65023" lon="14.956265"><ele>108.0</ele><time>2016-06-18T11:42:38.295Z</time></trkpt><trkpt lat="58.65023" lon="14.956265"><ele>108.0</ele><time>2016-06-18T11:42:39.317Z</time></trkpt><trkpt lat="58.650085" lon="14.95612833"><ele>108.0</ele><time>2016-06-18T11:42:40.288Z</time></trkpt><trkpt lat="58.650085" lon="14.95612833"><ele>108.0</ele><time>2016-06-18T11:42:41.304Z</time></trkpt><trkpt lat="58.64994167" lon="14.95600167"><ele>109.0</ele><time>2016-06-18T11:42:42.287Z</time></trkpt><trkpt lat="58.64994167" lon="14.95600167"><ele>109.0</ele><time>2016-06-18T11:42:43.293Z</time></trkpt><trkpt lat="58.649805" lon="14.95587833"><ele>109.0</ele><time>2016-06-18T11:42:44.299Z</time></trkpt><trkpt lat="58.649805" lon="14.95587833"><ele>109.0</ele><time>2016-06-18T11:42:45.288Z</time></trkpt><trkpt lat="58.649675" lon="14.95577167"><ele>109.0</ele><time>2016-06-18T11:42:46.295Z</time></trkpt><trkpt lat="58.649615" lon="14.95572"><ele>109.0</ele><time>2016-06-18T11:42:47.284Z</time></trkpt><trkpt lat="58.649615" lon="14.95572"><ele>109.0</ele><time>2016-06-18T11:42:48.286Z</time></trkpt><trkpt lat="58.64949833" lon="14.95562667"><ele>109.0</ele><time>2016-06-18T11:42:49.294Z</time></trkpt><trkpt lat="58.64944" lon="14.955585"><ele>109.0</ele><time>2016-06-18T11:42:50.319Z</time></trkpt><trkpt lat="58.64944" lon="14.955585"><ele>109.0</ele><time>2016-06-18T11:42:51.310Z</time></trkpt><trkpt lat="58.64931833" lon="14.95551333"><ele>109.0</ele><time>2016-06-18T11:42:52.316Z</time></trkpt><trkpt lat="58.64926167" lon="14.95548"><ele>110.0</ele><time>2016-06-18T11:42:53.301Z</time></trkpt><trkpt lat="58.64926167" lon="14.95548"><ele>110.0</ele><time>2016-06-18T11:42:54.287Z</time></trkpt><trkpt lat="58.64914833" lon="14.955415"><ele>110.0</ele><time>2016-06-18T11:42:55.302Z</time></trkpt><trkpt lat="58.64909333" lon="14.95538167"><ele>110.0</ele><time>2016-06-18T11:42:56.306Z</time></trkpt><trkpt lat="58.64909333" lon="14.95538167"><ele>110.0</ele><time>2016-06-18T11:42:57.290Z</time></trkpt><trkpt lat="58.64898833" lon="14.95531667"><ele>110.0</ele><time>2016-06-18T11:42:58.298Z</time></trkpt><trkpt lat="58.64893" lon="14.95528333"><ele>110.0</ele><time>2016-06-18T11:42:59.320Z</time></trkpt><trkpt lat="58.64893" lon="14.95528333"><ele>110.0</ele><time>2016-06-18T11:43:00.318Z</time></trkpt><trkpt lat="58.64881833" lon="14.95522"><ele>110.0</ele><time>2016-06-18T11:43:01.285Z</time></trkpt><trkpt lat="58.64876333" lon="14.955195"><ele>111.0</ele><time>2016-06-18T11:43:02.296Z</time></trkpt><trkpt lat="58.648715" lon="14.95516"><ele>111.0</ele><time>2016-06-18T11:43:03.317Z</time></trkpt><trkpt lat="58.648715" lon="14.95516"><ele>111.0</ele><time>2016-06-18T11:43:04.302Z</time></trkpt><trkpt lat="58.64861667" lon="14.955095"><ele>111.0</ele><time>2016-06-18T11:43:05.309Z</time></trkpt><trkpt lat="58.64861667" lon="14.955095"><ele>111.0</ele><time>2016-06-18T11:43:06.316Z</time></trkpt><trkpt lat="58.648505" lon="14.95505333"><ele>111.0</ele><time>2016-06-18T11:43:07.296Z</time></trkpt><trkpt lat="58.64845" lon="14.955035"><ele>111.0</ele><time>2016-06-18T11:43:08.318Z</time></trkpt><trkpt lat="58.64845" lon="14.955035"><ele>111.0</ele><time>2016-06-18T11:43:09.301Z</time></trkpt><trkpt lat="58.64833833" lon="14.95499667"><ele>112.0</ele><time>2016-06-18T11:43:10.308Z</time></trkpt><trkpt lat="58.64833833" lon="14.95499667"><ele>112.0</ele><time>2016-06-18T11:43:11.408Z</time></trkpt><trkpt lat="58.64822333" lon="14.95496"><ele>112.0</ele><time>2016-06-18T11:43:12.299Z</time></trkpt><trkpt lat="58.64816333" lon="14.95494"><ele>112.0</ele><time>2016-06-18T11:43:13.303Z</time></trkpt><trkpt lat="58.64816333" lon="14.95494"><ele>112.0</ele><time>2016-06-18T11:43:14.290Z</time></trkpt><trkpt lat="58.64805167" lon="14.954915"><ele>113.0</ele><time>2016-06-18T11:43:15.299Z</time></trkpt><trkpt lat="58.64805167" lon="14.954915"><ele>113.0</ele><time>2016-06-18T11:43:16.321Z</time></trkpt><trkpt lat="58.64794667" lon="14.95489167"><ele>113.0</ele><time>2016-06-18T11:43:17.296Z</time></trkpt><trkpt lat="58.64789333" lon="14.95488333"><ele>113.0</ele><time>2016-06-18T11:43:18.303Z</time></trkpt><trkpt lat="58.64789333" lon="14.95488333"><ele>113.0</ele><time>2016-06-18T11:43:19.287Z</time></trkpt><trkpt lat="58.647785" lon="14.95486333"><ele>114.0</ele><time>2016-06-18T11:43:20.296Z</time></trkpt><trkpt lat="58.647785" lon="14.95486333"><ele>114.0</ele><time>2016-06-18T11:43:21.318Z</time></trkpt><trkpt lat="58.64767833" lon="14.95484833"><ele>114.0</ele><time>2016-06-18T11:43:22.302Z</time></trkpt><trkpt lat="58.64767833" lon="14.95484833"><ele>114.0</ele><time>2016-06-18T11:43:23.292Z</time></trkpt><trkpt lat="58.64756667" lon="14.95483667"><ele>114.0</ele><time>2016-06-18T11:43:24.299Z</time></trkpt><trkpt lat="58.64751333" lon="14.95483167"><ele>115.0</ele><time>2016-06-18T11:43:25.321Z</time></trkpt><trkpt lat="58.64746333" lon="14.95484"><ele>116.0</ele><time>2016-06-18T11:43:26.307Z</time></trkpt><trkpt lat="58.64746333" lon="14.95484"><ele>116.0</ele><time>2016-06-18T11:43:27.291Z</time></trkpt><trkpt lat="58.64735" lon="14.95483167"><ele>117.0</ele><time>2016-06-18T11:43:28.306Z</time></trkpt><trkpt lat="58.64735" lon="14.95483167"><ele>117.0</ele><time>2016-06-18T11:43:29.312Z</time></trkpt><trkpt lat="58.647235" lon="14.95482167"><ele>117.0</ele><time>2016-06-18T11:43:30.319Z</time></trkpt><trkpt lat="58.647235" lon="14.95482167"><ele>117.0</ele><time>2016-06-18T11:43:31.309Z</time></trkpt><trkpt lat="58.64711667" lon="14.95482333"><ele>117.0</ele><time>2016-06-18T11:43:32.309Z</time></trkpt><trkpt lat="58.64711667" lon="14.95482333"><ele>117.0</ele><time>2016-06-18T11:43:33.300Z</time></trkpt><trkpt lat="58.64699333" lon="14.95480833"><ele>117.0</ele><time>2016-06-18T11:43:34.308Z</time></trkpt><trkpt lat="58.64693" lon="14.954805"><ele>118.0</ele><time>2016-06-18T11:43:35.289Z</time></trkpt><trkpt lat="58.64693" lon="14.954805"><ele>118.0</ele><time>2016-06-18T11:43:36.320Z</time></trkpt><trkpt lat="58.6468" lon="14.95480333"><ele>119.0</ele><time>2016-06-18T11:43:37.292Z</time></trkpt><trkpt lat="58.646735" lon="14.95480667"><ele>119.0</ele><time>2016-06-18T11:43:38.320Z</time></trkpt><trkpt lat="58.646735" lon="14.95480667"><ele>119.0</ele><time>2016-06-18T11:43:39.314Z</time></trkpt><trkpt lat="58.64660333" lon="14.954815"><ele>118.0</ele><time>2016-06-18T11:43:40.321Z</time></trkpt><trkpt lat="58.64653333" lon="14.95482"><ele>118.0</ele><time>2016-06-18T11:43:41.290Z</time></trkpt><trkpt lat="58.64653333" lon="14.95482"><ele>118.0</ele><time>2016-06-18T11:43:42.312Z</time></trkpt><trkpt lat="58.64639167" lon="14.95483333"><ele>118.0</ele><time>2016-06-18T11:43:43.319Z</time></trkpt><trkpt lat="58.64639167" lon="14.95483333"><ele>118.0</ele><time>2016-06-18T11:43:44.301Z</time></trkpt><trkpt lat="58.64625" lon="14.95485167"><ele>118.0</ele><time>2016-06-18T11:43:45.307Z</time></trkpt><trkpt lat="58.64618" lon="14.95486333"><ele>119.0</ele><time>2016-06-18T11:43:46.318Z</time></trkpt><trkpt lat="58.64618" lon="14.95486333"><ele>119.0</ele><time>2016-06-18T11:43:47.290Z</time></trkpt><trkpt lat="58.64604" lon="14.95488667"><ele>119.0</ele><time>2016-06-18T11:43:48.310Z</time></trkpt><trkpt lat="58.64604" lon="14.95488667"><ele>119.0</ele><time>2016-06-18T11:43:49.305Z</time></trkpt><trkpt lat="58.645895" lon="14.954925"><ele>118.0</ele><time>2016-06-18T11:43:50.313Z</time></trkpt><trkpt lat="58.645895" lon="14.954925"><ele>118.0</ele><time>2016-06-18T11:43:51.320Z</time></trkpt><trkpt lat="58.64574667" lon="14.95496833"><ele>118.0</ele><time>2016-06-18T11:43:52.296Z</time></trkpt><trkpt lat="58.64574667" lon="14.95496833"><ele>118.0</ele><time>2016-06-18T11:43:53.318Z</time></trkpt><trkpt lat="58.64559167" lon="14.95502333"><ele>117.0</ele><time>2016-06-18T11:43:54.315Z</time></trkpt><trkpt lat="58.64559167" lon="14.95502333"><ele>117.0</ele><time>2016-06-18T11:43:55.309Z</time></trkpt><trkpt lat="58.64543167" lon="14.95507833"><ele>116.0</ele><time>2016-06-18T11:43:56.315Z</time></trkpt><trkpt lat="58.64543167" lon="14.95507833"><ele>116.0</ele><time>2016-06-18T11:43:57.301Z</time></trkpt><trkpt lat="58.645265" lon="14.95514"><ele>115.0</ele><time>2016-06-18T11:43:58.305Z</time></trkpt><trkpt lat="58.645265" lon="14.95514"><ele>115.0</ele><time>2016-06-18T11:43:59.310Z</time></trkpt><trkpt lat="58.64509167" lon="14.95520833"><ele>114.0</ele><time>2016-06-18T11:44:00.318Z</time></trkpt><trkpt lat="58.64500167" lon="14.95524667"><ele>114.0</ele><time>2016-06-18T11:44:01.319Z</time></trkpt><trkpt lat="58.64491333" lon="14.95528833"><ele>113.0</ele><time>2016-06-18T11:44:02.304Z</time></trkpt><trkpt lat="58.64491333" lon="14.95528833"><ele>113.0</ele><time>2016-06-18T11:44:03.296Z</time></trkpt><trkpt lat="58.64473667" lon="14.95538"><ele>113.0</ele><time>2016-06-18T11:44:04.303Z</time></trkpt><trkpt lat="58.64464833" lon="14.95543167"><ele>112.0</ele><time>2016-06-18T11:44:05.288Z</time></trkpt><trkpt lat="58.64464833" lon="14.95543167"><ele>112.0</ele><time>2016-06-18T11:44:06.290Z</time></trkpt><trkpt lat="58.64446833" lon="14.95551667"><ele>112.0</ele><time>2016-06-18T11:44:07.297Z</time></trkpt><trkpt lat="58.64438" lon="14.95556833"><ele>112.0</ele><time>2016-06-18T11:44:08.319Z</time></trkpt><trkpt lat="58.64438" lon="14.95556833"><ele>112.0</ele><time>2016-06-18T11:44:09.308Z</time></trkpt><trkpt lat="58.64421" lon="14.955655"><ele>112.0</ele><time>2016-06-18T11:44:10.317Z</time></trkpt><trkpt lat="58.64421" lon="14.955655"><ele>112.0</ele><time>2016-06-18T11:44:11.403Z</time></trkpt><trkpt lat="58.64404833" lon="14.95561"><ele>111.0</ele><time>2016-06-18T11:44:12.316Z</time></trkpt><trkpt lat="58.64399" lon="14.95549333"><ele>111.0</ele><time>2016-06-18T11:44:13.319Z</time></trkpt><trkpt lat="58.64396" lon="14.955355"><ele>110.0</ele><time>2016-06-18T11:44:14.303Z</time></trkpt><trkpt lat="58.64396" lon="14.955355"><ele>110.0</ele><time>2016-06-18T11:44:15.311Z</time></trkpt><trkpt lat="58.64391833" lon="14.95504167"><ele>110.0</ele><time>2016-06-18T11:44:16.319Z</time></trkpt><trkpt lat="58.6439" lon="14.95488167"><ele>110.0</ele><time>2016-06-18T11:44:17.316Z</time></trkpt><trkpt lat="58.6439" lon="14.95488167"><ele>110.0</ele><time>2016-06-18T11:44:18.290Z</time></trkpt><trkpt lat="58.643875" lon="14.95455833"><ele>109.0</ele><time>2016-06-18T11:44:19.298Z</time></trkpt><trkpt lat="58.64386333" lon="14.95439833"><ele>110.0</ele><time>2016-06-18T11:44:20.295Z</time></trkpt><trkpt lat="58.64386333" lon="14.95439833"><ele>110.0</ele><time>2016-06-18T11:44:21.309Z</time></trkpt><trkpt lat="58.64384167" lon="14.95408333"><ele>110.0</ele><time>2016-06-18T11:44:22.315Z</time></trkpt><trkpt lat="58.64383167" lon="14.95392"><ele>110.0</ele><time>2016-06-18T11:44:23.306Z</time></trkpt><trkpt lat="58.64383167" lon="14.95392"><ele>110.0</ele><time>2016-06-18T11:44:24.291Z</time></trkpt><trkpt lat="58.64381333" lon="14.953595"><ele>110.0</ele><time>2016-06-18T11:44:25.300Z</time></trkpt><trkpt lat="58.64380333" lon="14.95343333"><ele>110.0</ele><time>2016-06-18T11:44:26.310Z</time></trkpt><trkpt lat="58.64380333" lon="14.95343333"><ele>110.0</ele><time>2016-06-18T11:44:27.293Z</time></trkpt><trkpt lat="58.64378333" lon="14.95310833"><ele>110.0</ele><time>2016-06-18T11:44:28.304Z</time></trkpt><trkpt lat="58.64378333" lon="14.95310833"><ele>110.0</ele><time>2016-06-18T11:44:29.310Z</time></trkpt><trkpt lat="58.643765" lon="14.95278333"><ele>109.0</ele><time>2016-06-18T11:44:30.318Z</time></trkpt><trkpt lat="58.643765" lon="14.95278333"><ele>109.0</ele><time>2016-06-18T11:44:31.303Z</time></trkpt><trkpt lat="58.64375167" lon="14.95246667"><ele>109.0</ele><time>2016-06-18T11:44:32.308Z</time></trkpt><trkpt lat="58.64375167" lon="14.95246667"><ele>109.0</ele><time>2016-06-18T11:44:33.282Z</time></trkpt><trkpt lat="58.643735" lon="14.95215667"><ele>109.0</ele><time>2016-06-18T11:44:34.289Z</time></trkpt><trkpt lat="58.643725" lon="14.95201"><ele>109.0</ele><time>2016-06-18T11:44:35.315Z</time></trkpt><trkpt lat="58.643725" lon="14.95201"><ele>109.0</ele><time>2016-06-18T11:44:36.309Z</time></trkpt><trkpt lat="58.64370833" lon="14.95171667"><ele>108.0</ele><time>2016-06-18T11:44:37.316Z</time></trkpt><trkpt lat="58.64369833" lon="14.95157167"><ele>108.0</ele><time>2016-06-18T11:44:38.300Z</time></trkpt><trkpt lat="58.64369833" lon="14.95157167"><ele>108.0</ele><time>2016-06-18T11:44:39.289Z</time></trkpt><trkpt lat="58.64366333" lon="14.95127833"><ele>108.0</ele><time>2016-06-18T11:44:40.296Z</time></trkpt><trkpt lat="58.643635" lon="14.95113167"><ele>107.0</ele><time>2016-06-18T11:44:41.313Z</time></trkpt><trkpt lat="58.643635" lon="14.95113167"><ele>107.0</ele><time>2016-06-18T11:44:42.321Z</time></trkpt><trkpt lat="58.64355833" lon="14.95086"><ele>107.0</ele><time>2016-06-18T11:44:43.287Z</time></trkpt><trkpt lat="58.64355833" lon="14.95086"><ele>107.0</ele><time>2016-06-18T11:44:44.309Z</time></trkpt><trkpt lat="58.64347" lon="14.95061333"><ele>107.0</ele><time>2016-06-18T11:44:45.288Z</time></trkpt><trkpt lat="58.64347" lon="14.95061333"><ele>107.0</ele><time>2016-06-18T11:44:46.310Z</time></trkpt><trkpt lat="58.64338667" lon="14.95037333"><ele>106.0</ele><time>2016-06-18T11:44:47.296Z</time></trkpt><trkpt lat="58.64338667" lon="14.95037333"><ele>106.0</ele><time>2016-06-18T11:44:48.319Z</time></trkpt><trkpt lat="58.64331167" lon="14.95013333"><ele>107.0</ele><time>2016-06-18T11:44:49.284Z</time></trkpt><trkpt lat="58.643275" lon="14.95001333"><ele>107.0</ele><time>2016-06-18T11:44:50.305Z</time></trkpt><trkpt lat="58.643275" lon="14.95001333"><ele>107.0</ele><time>2016-06-18T11:44:51.291Z</time></trkpt><trkpt lat="58.64320167" lon="14.949785"><ele>108.0</ele><time>2016-06-18T11:44:52.300Z</time></trkpt><trkpt lat="58.64316167" lon="14.949685"><ele>108.0</ele><time>2016-06-18T11:44:53.283Z</time></trkpt><trkpt lat="58.64316167" lon="14.949685"><ele>108.0</ele><time>2016-06-18T11:44:54.308Z</time></trkpt><trkpt lat="58.64306833" lon="14.94951833"><ele>108.0</ele><time>2016-06-18T11:44:55.315Z</time></trkpt><trkpt lat="58.64302" lon="14.94944667"><ele>109.0</ele><time>2016-06-18T11:44:56.301Z</time></trkpt><trkpt lat="58.64302" lon="14.94944667"><ele>109.0</ele><time>2016-06-18T11:44:57.306Z</time></trkpt><trkpt lat="58.64292333" lon="14.94931"><ele>109.0</ele><time>2016-06-18T11:44:58.312Z</time></trkpt><trkpt lat="58.64292333" lon="14.94931"><ele>109.0</ele><time>2016-06-18T11:44:59.297Z</time></trkpt><trkpt lat="58.64282667" lon="14.94917667"><ele>109.0</ele><time>2016-06-18T11:45:00.295Z</time></trkpt><trkpt lat="58.64282667" lon="14.94917667"><ele>109.0</ele><time>2016-06-18T11:45:01.299Z</time></trkpt><trkpt lat="58.64273" lon="14.94904333"><ele>109.0</ele><time>2016-06-18T11:45:02.305Z</time></trkpt><trkpt lat="58.64268" lon="14.94897833"><ele>109.0</ele><time>2016-06-18T11:45:03.309Z</time></trkpt><trkpt lat="58.64268" lon="14.94897833"><ele>109.0</ele><time>2016-06-18T11:45:04.301Z</time></trkpt><trkpt lat="58.64257667" lon="14.94884833"><ele>109.0</ele><time>2016-06-18T11:45:05.309Z</time></trkpt><trkpt lat="58.64257667" lon="14.94884833"><ele>109.0</ele><time>2016-06-18T11:45:06.311Z</time></trkpt><trkpt lat="58.642465" lon="14.94871"><ele>108.0</ele><time>2016-06-18T11:45:07.318Z</time></trkpt><trkpt lat="58.64240833" lon="14.94863833"><ele>108.0</ele><time>2016-06-18T11:45:08.304Z</time></trkpt><trkpt lat="58.64240833" lon="14.94863833"><ele>108.0</ele><time>2016-06-18T11:45:09.290Z</time></trkpt><trkpt lat="58.642295" lon="14.948495"><ele>108.0</ele><time>2016-06-18T11:45:10.297Z</time></trkpt><trkpt lat="58.642295" lon="14.948495"><ele>108.0</ele><time>2016-06-18T11:45:11.401Z</time></trkpt><trkpt lat="58.64218667" lon="14.94834833"><ele>109.0</ele><time>2016-06-18T11:45:12.320Z</time></trkpt><trkpt lat="58.64213667" lon="14.94827333"><ele>109.0</ele><time>2016-06-18T11:45:13.310Z</time></trkpt><trkpt lat="58.64213667" lon="14.94827333"><ele>109.0</ele><time>2016-06-18T11:45:14.292Z</time></trkpt><trkpt lat="58.64203333" lon="14.94812667"><ele>109.0</ele><time>2016-06-18T11:45:15.303Z</time></trkpt><trkpt lat="58.64203333" lon="14.94812667"><ele>109.0</ele><time>2016-06-18T11:45:16.286Z</time></trkpt><trkpt lat="58.64193167" lon="14.94799833"><ele>109.0</ele><time>2016-06-18T11:45:17.283Z</time></trkpt><trkpt lat="58.64188" lon="14.94793167"><ele>109.0</ele><time>2016-06-18T11:45:18.317Z</time></trkpt><trkpt lat="58.64188" lon="14.94793167"><ele>109.0</ele><time>2016-06-18T11:45:19.301Z</time></trkpt><trkpt lat="58.641785" lon="14.94779667"><ele>109.0</ele><time>2016-06-18T11:45:20.294Z</time></trkpt><trkpt lat="58.641785" lon="14.94779667"><ele>109.0</ele><time>2016-06-18T11:45:21.320Z</time></trkpt><trkpt lat="58.64169667" lon="14.94765333"><ele>109.0</ele><time>2016-06-18T11:45:22.286Z</time></trkpt><trkpt lat="58.641655" lon="14.94757667"><ele>108.0</ele><time>2016-06-18T11:45:23.311Z</time></trkpt><trkpt lat="58.641655" lon="14.94757667"><ele>108.0</ele><time>2016-06-18T11:45:24.317Z</time></trkpt><trkpt lat="58.641565" lon="14.94742833"><ele>108.0</ele><time>2016-06-18T11:45:25.316Z</time></trkpt><trkpt lat="58.641565" lon="14.94742833"><ele>108.0</ele><time>2016-06-18T11:45:26.282Z</time></trkpt><trkpt lat="58.64144" lon="14.94731833"><ele>108.0</ele><time>2016-06-18T11:45:27.289Z</time></trkpt><trkpt lat="58.64144" lon="14.94731833"><ele>108.0</ele><time>2016-06-18T11:45:28.312Z</time></trkpt><trkpt lat="58.64129833" lon="14.94731333"><ele>108.0</ele><time>2016-06-18T11:45:29.315Z</time></trkpt><trkpt lat="58.64129833" lon="14.94731333"><ele>108.0</ele><time>2016-06-18T11:45:30.290Z</time></trkpt><trkpt lat="58.64116167" lon="14.94740167"><ele>109.0</ele><time>2016-06-18T11:45:31.297Z</time></trkpt><trkpt lat="58.641095" lon="14.947475"><ele>109.0</ele><time>2016-06-18T11:45:32.290Z</time></trkpt><trkpt lat="58.64103333" lon="14.94755667"><ele>108.0</ele><time>2016-06-18T11:45:33.303Z</time></trkpt><trkpt lat="58.64103333" lon="14.94755667"><ele>108.0</ele><time>2016-06-18T11:45:34.285Z</time></trkpt><trkpt lat="58.64090333" lon="14.94771667"><ele>108.0</ele><time>2016-06-18T11:45:35.284Z</time></trkpt><trkpt lat="58.64090333" lon="14.94771667"><ele>108.0</ele><time>2016-06-18T11:45:36.313Z</time></trkpt><trkpt lat="58.64077833" lon="14.94786833"><ele>108.0</ele><time>2016-06-18T11:45:37.320Z</time></trkpt><trkpt lat="58.64072" lon="14.947945"><ele>109.0</ele><time>2016-06-18T11:45:38.313Z</time></trkpt><trkpt lat="58.64072" lon="14.947945"><ele>109.0</ele><time>2016-06-18T11:45:39.282Z</time></trkpt><trkpt lat="58.64060333" lon="14.948095"><ele>109.0</ele><time>2016-06-18T11:45:40.288Z</time></trkpt><trkpt lat="58.64060333" lon="14.948095"><ele>109.0</ele><time>2016-06-18T11:45:41.300Z</time></trkpt><trkpt lat="58.640485" lon="14.94824667"><ele>109.0</ele><time>2016-06-18T11:45:42.307Z</time></trkpt><trkpt lat="58.640485" lon="14.94824667"><ele>109.0</ele><time>2016-06-18T11:45:43.298Z</time></trkpt><trkpt lat="58.640365" lon="14.948405"><ele>109.0</ele><time>2016-06-18T11:45:44.322Z</time></trkpt><trkpt lat="58.640365" lon="14.948405"><ele>109.0</ele><time>2016-06-18T11:45:45.316Z</time></trkpt><trkpt lat="58.64024333" lon="14.94855833"><ele>109.0</ele><time>2016-06-18T11:45:46.282Z</time></trkpt><trkpt lat="58.64024333" lon="14.94855833"><ele>109.0</ele><time>2016-06-18T11:45:47.305Z</time></trkpt><trkpt lat="58.64012" lon="14.94871333"><ele>109.0</ele><time>2016-06-18T11:45:48.315Z</time></trkpt><trkpt lat="58.64012" lon="14.94871333"><ele>109.0</ele><time>2016-06-18T11:45:49.288Z</time></trkpt><trkpt lat="58.63999333" lon="14.94886333"><ele>109.0</ele><time>2016-06-18T11:45:50.296Z</time></trkpt><trkpt lat="58.63999333" lon="14.94886333"><ele>109.0</ele><time>2016-06-18T11:45:51.304Z</time></trkpt><trkpt lat="58.63987" lon="14.94901"><ele>109.0</ele><time>2016-06-18T11:45:52.315Z</time></trkpt><trkpt lat="58.63987" lon="14.94901"><ele>109.0</ele><time>2016-06-18T11:45:53.321Z</time></trkpt><trkpt lat="58.63974333" lon="14.94915167"><ele>109.0</ele><time>2016-06-18T11:45:54.290Z</time></trkpt><trkpt lat="58.63967833" lon="14.94921667"><ele>109.0</ele><time>2016-06-18T11:45:55.283Z</time></trkpt><trkpt lat="58.63967833" lon="14.94921667"><ele>109.0</ele><time>2016-06-18T11:45:56.292Z</time></trkpt><trkpt lat="58.63954833" lon="14.949325"><ele>109.0</ele><time>2016-06-18T11:45:57.299Z</time></trkpt><trkpt lat="58.63954833" lon="14.949325"><ele>109.0</ele><time>2016-06-18T11:45:58.283Z</time></trkpt><trkpt lat="58.63941333" lon="14.94941333"><ele>109.0</ele><time>2016-06-18T11:45:59.293Z</time></trkpt><trkpt lat="58.63941333" lon="14.94941333"><ele>109.0</ele><time>2016-06-18T11:46:00.302Z</time></trkpt><trkpt lat="58.63928" lon="14.94947"><ele>109.0</ele><time>2016-06-18T11:46:01.308Z</time></trkpt><trkpt lat="58.63921667" lon="14.94948333"><ele>109.0</ele><time>2016-06-18T11:46:02.298Z</time></trkpt><trkpt lat="58.63921667" lon="14.94948333"><ele>109.0</ele><time>2016-06-18T11:46:03.288Z</time></trkpt><trkpt lat="58.63908" lon="14.94945833"><ele>108.0</ele><time>2016-06-18T11:46:04.297Z</time></trkpt><trkpt lat="58.63908" lon="14.94945833"><ele>108.0</ele><time>2016-06-18T11:46:05.319Z</time></trkpt><trkpt lat="58.63893" lon="14.949395"><ele>108.0</ele><time>2016-06-18T11:46:06.298Z</time></trkpt><trkpt lat="58.63893" lon="14.949395"><ele>108.0</ele><time>2016-06-18T11:46:07.320Z</time></trkpt><trkpt lat="58.638785" lon="14.94929833"><ele>108.0</ele><time>2016-06-18T11:46:08.315Z</time></trkpt><trkpt lat="58.638785" lon="14.94929833"><ele>108.0</ele><time>2016-06-18T11:46:09.300Z</time></trkpt><trkpt lat="58.638645" lon="14.94920167"><ele>108.0</ele><time>2016-06-18T11:46:10.306Z</time></trkpt><trkpt lat="58.638645" lon="14.94920167"><ele>108.0</ele><time>2016-06-18T11:46:11.402Z</time></trkpt><trkpt lat="58.638515" lon="14.94910833"><ele>109.0</ele><time>2016-06-18T11:46:12.293Z</time></trkpt><trkpt lat="58.638515" lon="14.94910833"><ele>109.0</ele><time>2016-06-18T11:46:13.316Z</time></trkpt><trkpt lat="58.63839" lon="14.94901167"><ele>109.0</ele><time>2016-06-18T11:46:14.283Z</time></trkpt><trkpt lat="58.63839" lon="14.94901167"><ele>109.0</ele><time>2016-06-18T11:46:15.299Z</time></trkpt><trkpt lat="58.63826833" lon="14.94891333"><ele>109.0</ele><time>2016-06-18T11:46:16.316Z</time></trkpt><trkpt lat="58.63820833" lon="14.94886"><ele>109.0</ele><time>2016-06-18T11:46:17.305Z</time></trkpt><trkpt lat="58.638145" lon="14.94880833"><ele>109.0</ele><time>2016-06-18T11:46:18.294Z</time></trkpt><trkpt lat="58.638145" lon="14.94880833"><ele>109.0</ele><time>2016-06-18T11:46:19.320Z</time></trkpt><trkpt lat="58.63801833" lon="14.94870167"><ele>109.0</ele><time>2016-06-18T11:46:20.288Z</time></trkpt><trkpt lat="58.63801833" lon="14.94870167"><ele>109.0</ele><time>2016-06-18T11:46:21.290Z</time></trkpt><trkpt lat="58.63789" lon="14.94860167"><ele>110.0</ele><time>2016-06-18T11:46:22.314Z</time></trkpt><trkpt lat="58.63789" lon="14.94860167"><ele>110.0</ele><time>2016-06-18T11:46:23.310Z</time></trkpt><trkpt lat="58.63776333" lon="14.94850333"><ele>109.0</ele><time>2016-06-18T11:46:24.316Z</time></trkpt><trkpt lat="58.6377" lon="14.94845333"><ele>109.0</ele><time>2016-06-18T11:46:25.292Z</time></trkpt><trkpt lat="58.6377" lon="14.94845333"><ele>109.0</ele><time>2016-06-18T11:46:26.306Z</time></trkpt><trkpt lat="58.63757667" lon="14.948355"><ele>109.0</ele><time>2016-06-18T11:46:27.312Z</time></trkpt><trkpt lat="58.63757667" lon="14.948355"><ele>109.0</ele><time>2016-06-18T11:46:28.297Z</time></trkpt><trkpt lat="58.63745" lon="14.948265"><ele>109.0</ele><time>2016-06-18T11:46:29.305Z</time></trkpt><trkpt lat="58.63745" lon="14.948265"><ele>109.0</ele><time>2016-06-18T11:46:30.286Z</time></trkpt><trkpt lat="58.63732667" lon="14.94817167"><ele>109.0</ele><time>2016-06-18T11:46:31.315Z</time></trkpt><trkpt lat="58.63726667" lon="14.94812833"><ele>109.0</ele><time>2016-06-18T11:46:32.305Z</time></trkpt><trkpt lat="58.63726667" lon="14.94812833"><ele>109.0</ele><time>2016-06-18T11:46:33.295Z</time></trkpt><trkpt lat="58.637145" lon="14.94804167"><ele>109.0</ele><time>2016-06-18T11:46:34.293Z</time></trkpt><trkpt lat="58.637085" lon="14.94799833"><ele>110.0</ele><time>2016-06-18T11:46:35.310Z</time></trkpt><trkpt lat="58.63702667" lon="14.94795833"><ele>110.0</ele><time>2016-06-18T11:46:36.294Z</time></trkpt><trkpt lat="58.63702667" lon="14.94795833"><ele>110.0</ele><time>2016-06-18T11:46:37.317Z</time></trkpt><trkpt lat="58.63691333" lon="14.94788"><ele>110.0</ele><time>2016-06-18T11:46:38.284Z</time></trkpt><trkpt lat="58.63691333" lon="14.94788"><ele>110.0</ele><time>2016-06-18T11:46:39.306Z</time></trkpt><trkpt lat="58.636795" lon="14.947805"><ele>110.0</ele><time>2016-06-18T11:46:40.314Z</time></trkpt><trkpt lat="58.636795" lon="14.947805"><ele>110.0</ele><time>2016-06-18T11:46:41.287Z</time></trkpt><trkpt lat="58.63668333" lon="14.94774"><ele>111.0</ele><time>2016-06-18T11:46:42.296Z</time></trkpt><trkpt lat="58.63668333" lon="14.94774"><ele>111.0</ele><time>2016-06-18T11:46:43.282Z</time></trkpt><trkpt lat="58.63655833" lon="14.94766167"><ele>111.0</ele><time>2016-06-18T11:46:44.296Z</time></trkpt><trkpt lat="58.63655833" lon="14.94766167"><ele>111.0</ele><time>2016-06-18T11:46:45.310Z</time></trkpt><trkpt lat="58.636435" lon="14.94758333"><ele>111.0</ele><time>2016-06-18T11:46:46.316Z</time></trkpt><trkpt lat="58.636435" lon="14.94758333"><ele>111.0</ele><time>2016-06-18T11:46:47.301Z</time></trkpt><trkpt lat="58.63630833" lon="14.94751167"><ele>111.0</ele><time>2016-06-18T11:46:48.326Z</time></trkpt><trkpt lat="58.63630833" lon="14.94751167"><ele>111.0</ele><time>2016-06-18T11:46:49.316Z</time></trkpt><trkpt lat="58.63618167" lon="14.947435"><ele>112.0</ele><time>2016-06-18T11:46:50.282Z</time></trkpt><trkpt lat="58.63618167" lon="14.947435"><ele>112.0</ele><time>2016-06-18T11:46:51.317Z</time></trkpt><trkpt lat="58.63606333" lon="14.94735833"><ele>112.0</ele><time>2016-06-18T11:46:52.304Z</time></trkpt><trkpt lat="58.63606333" lon="14.94735833"><ele>112.0</ele><time>2016-06-18T11:46:53.299Z</time></trkpt><trkpt lat="58.63593167" lon="14.94726167"><ele>113.0</ele><time>2016-06-18T11:46:54.305Z</time></trkpt><trkpt lat="58.63585667" lon="14.94721"><ele>113.0</ele><time>2016-06-18T11:46:55.293Z</time></trkpt><trkpt lat="58.63578167" lon="14.94715833"><ele>113.0</ele><time>2016-06-18T11:46:56.316Z</time></trkpt><trkpt lat="58.63578167" lon="14.94715833"><ele>113.0</ele><time>2016-06-18T11:46:57.312Z</time></trkpt><trkpt lat="58.63562833" lon="14.94707167"><ele>113.0</ele><time>2016-06-18T11:46:58.318Z</time></trkpt><trkpt lat="58.63555167" lon="14.94703"><ele>114.0</ele><time>2016-06-18T11:46:59.303Z</time></trkpt><trkpt lat="58.63555167" lon="14.94703"><ele>114.0</ele><time>2016-06-18T11:47:00.289Z</time></trkpt><trkpt lat="58.63540167" lon="14.94692667"><ele>114.0</ele><time>2016-06-18T11:47:01.299Z</time></trkpt><trkpt lat="58.63533167" lon="14.94688667"><ele>114.0</ele><time>2016-06-18T11:47:02.282Z</time></trkpt><trkpt lat="58.63533167" lon="14.94688667"><ele>114.0</ele><time>2016-06-18T11:47:03.305Z</time></trkpt><trkpt lat="58.635195" lon="14.946795"><ele>114.0</ele><time>2016-06-18T11:47:04.311Z</time></trkpt><trkpt lat="58.635195" lon="14.946795"><ele>114.0</ele><time>2016-06-18T11:47:05.300Z</time></trkpt><trkpt lat="58.63504833" lon="14.94670333"><ele>113.0</ele><time>2016-06-18T11:47:06.283Z</time></trkpt><trkpt lat="58.63504833" lon="14.94670333"><ele>113.0</ele><time>2016-06-18T11:47:07.282Z</time></trkpt><trkpt lat="58.63489667" lon="14.946605"><ele>113.0</ele><time>2016-06-18T11:47:08.294Z</time></trkpt><trkpt lat="58.63489667" lon="14.946605"><ele>113.0</ele><time>2016-06-18T11:47:09.315Z</time></trkpt><trkpt lat="58.63473333" lon="14.94651333"><ele>113.0</ele><time>2016-06-18T11:47:10.283Z</time></trkpt><trkpt lat="58.63473333" lon="14.94651333"><ele>113.0</ele><time>2016-06-18T11:47:11.411Z</time></trkpt><trkpt lat="58.63455667" lon="14.946415"><ele>112.0</ele><time>2016-06-18T11:47:12.309Z</time></trkpt><trkpt lat="58.63455667" lon="14.946415"><ele>112.0</ele><time>2016-06-18T11:47:13.310Z</time></trkpt><trkpt lat="58.63436833" lon="14.94630333"><ele>112.0</ele><time>2016-06-18T11:47:14.317Z</time></trkpt><trkpt lat="58.63436833" lon="14.94630333"><ele>112.0</ele><time>2016-06-18T11:47:15.301Z</time></trkpt><trkpt lat="58.63418333" lon="14.946205"><ele>111.0</ele><time>2016-06-18T11:47:16.307Z</time></trkpt><trkpt lat="58.634095" lon="14.94614667"><ele>111.0</ele><time>2016-06-18T11:47:17.315Z</time></trkpt><trkpt lat="58.634095" lon="14.94614667"><ele>111.0</ele><time>2016-06-18T11:47:18.297Z</time></trkpt><trkpt lat="58.63391333" lon="14.94604167"><ele>110.0</ele><time>2016-06-18T11:47:19.305Z</time></trkpt><trkpt lat="58.63382333" lon="14.946"><ele>110.0</ele><time>2016-06-18T11:47:20.318Z</time></trkpt><trkpt lat="58.63382333" lon="14.946"><ele>110.0</ele><time>2016-06-18T11:47:21.300Z</time></trkpt><trkpt lat="58.63365833" lon="14.94588667"><ele>109.0</ele><time>2016-06-18T11:47:22.307Z</time></trkpt><trkpt lat="58.63357167" lon="14.94582333"><ele>109.0</ele><time>2016-06-18T11:47:23.282Z</time></trkpt><trkpt lat="58.63357167" lon="14.94582333"><ele>109.0</ele><time>2016-06-18T11:47:24.305Z</time></trkpt><trkpt lat="58.633395" lon="14.94570833"><ele>108.0</ele><time>2016-06-18T11:47:25.284Z</time></trkpt><trkpt lat="58.633395" lon="14.94570833"><ele>108.0</ele><time>2016-06-18T11:47:26.300Z</time></trkpt><trkpt lat="58.63321833" lon="14.945585"><ele>107.0</ele><time>2016-06-18T11:47:27.310Z</time></trkpt><trkpt lat="58.63321833" lon="14.945585"><ele>107.0</ele><time>2016-06-18T11:47:28.292Z</time></trkpt><trkpt lat="58.63303333" lon="14.94546833"><ele>107.0</ele><time>2016-06-18T11:47:29.291Z</time></trkpt><trkpt lat="58.63303333" lon="14.94546833"><ele>107.0</ele><time>2016-06-18T11:47:30.293Z</time></trkpt><trkpt lat="58.63284833" lon="14.94535"><ele>107.0</ele><time>2016-06-18T11:47:31.300Z</time></trkpt><trkpt lat="58.632755" lon="14.945285"><ele>106.0</ele><time>2016-06-18T11:47:32.293Z</time></trkpt><trkpt lat="58.632755" lon="14.945285"><ele>106.0</ele><time>2016-06-18T11:47:33.299Z</time></trkpt><trkpt lat="58.632565" lon="14.94517667"><ele>106.0</ele><time>2016-06-18T11:47:34.306Z</time></trkpt><trkpt lat="58.632565" lon="14.94517667"><ele>106.0</ele><time>2016-06-18T11:47:35.285Z</time></trkpt><trkpt lat="58.63236333" lon="14.94515333"><ele>104.0</ele><time>2016-06-18T11:47:36.315Z</time></trkpt><trkpt lat="58.63226" lon="14.94516833"><ele>104.0</ele><time>2016-06-18T11:47:37.304Z</time></trkpt><trkpt lat="58.63226" lon="14.94516833"><ele>104.0</ele><time>2016-06-18T11:47:38.290Z</time></trkpt><trkpt lat="58.63205667" lon="14.945225"><ele>104.0</ele><time>2016-06-18T11:47:39.305Z</time></trkpt><trkpt lat="58.63195667" lon="14.945265"><ele>103.0</ele><time>2016-06-18T11:47:40.290Z</time></trkpt><trkpt lat="58.63195667" lon="14.945265"><ele>103.0</ele><time>2016-06-18T11:47:41.312Z</time></trkpt><trkpt lat="58.631775" lon="14.94538"><ele>103.0</ele><time>2016-06-18T11:47:42.320Z</time></trkpt><trkpt lat="58.631775" lon="14.94538"><ele>103.0</ele><time>2016-06-18T11:47:43.321Z</time></trkpt><trkpt lat="58.631615" lon="14.94552833"><ele>103.0</ele><time>2016-06-18T11:47:44.291Z</time></trkpt><trkpt lat="58.631615" lon="14.94552833"><ele>103.0</ele><time>2016-06-18T11:47:45.315Z</time></trkpt><trkpt lat="58.63146333" lon="14.94569667"><ele>103.0</ele><time>2016-06-18T11:47:46.282Z</time></trkpt><trkpt lat="58.63146333" lon="14.94569667"><ele>103.0</ele><time>2016-06-18T11:47:47.310Z</time></trkpt><trkpt lat="58.63131833" lon="14.94587167"><ele>104.0</ele><time>2016-06-18T11:47:48.316Z</time></trkpt><trkpt lat="58.63131833" lon="14.94587167"><ele>104.0</ele><time>2016-06-18T11:47:49.301Z</time></trkpt><trkpt lat="58.63118" lon="14.94604"><ele>104.0</ele><time>2016-06-18T11:47:50.316Z</time></trkpt><trkpt lat="58.63118" lon="14.94604"><ele>104.0</ele><time>2016-06-18T11:47:51.307Z</time></trkpt><trkpt lat="58.63104667" lon="14.94616"><ele>104.0</ele><time>2016-06-18T11:47:52.315Z</time></trkpt><trkpt lat="58.63098" lon="14.94619"><ele>104.0</ele><time>2016-06-18T11:47:53.300Z</time></trkpt><trkpt lat="58.63098" lon="14.94619"><ele>104.0</ele><time>2016-06-18T11:47:54.311Z</time></trkpt><trkpt lat="58.63085" lon="14.946205"><ele>104.0</ele><time>2016-06-18T11:47:55.295Z</time></trkpt><trkpt lat="58.63085" lon="14.946205"><ele>104.0</ele><time>2016-06-18T11:47:56.302Z</time></trkpt><trkpt lat="58.63073167" lon="14.94620833"><ele>104.0</ele><time>2016-06-18T11:47:57.316Z</time></trkpt><trkpt lat="58.63073167" lon="14.94620833"><ele>104.0</ele><time>2016-06-18T11:47:58.300Z</time></trkpt><trkpt lat="58.630625" lon="14.94621167"><ele>105.0</ele><time>2016-06-18T11:47:59.306Z</time></trkpt><trkpt lat="58.630625" lon="14.94621167"><ele>105.0</ele><time>2016-06-18T11:48:00.288Z</time></trkpt><trkpt lat="58.63053" lon="14.946215"><ele>106.0</ele><time>2016-06-18T11:48:01.283Z</time></trkpt><trkpt lat="58.63053" lon="14.946215"><ele>106.0</ele><time>2016-06-18T11:48:02.292Z</time></trkpt><trkpt lat="58.63044333" lon="14.94622333"><ele>106.0</ele><time>2016-06-18T11:48:03.303Z</time></trkpt><trkpt lat="58.63044333" lon="14.94622333"><ele>106.0</ele><time>2016-06-18T11:48:04.309Z</time></trkpt><trkpt lat="58.63036167" lon="14.94621167"><ele>107.0</ele><time>2016-06-18T11:48:05.316Z</time></trkpt><trkpt lat="58.63031667" lon="14.946205"><ele>107.0</ele><time>2016-06-18T11:48:06.312Z</time></trkpt><trkpt lat="58.63031667" lon="14.946205"><ele>107.0</ele><time>2016-06-18T11:48:07.295Z</time></trkpt><trkpt lat="58.63021333" lon="14.94620833"><ele>107.0</ele><time>2016-06-18T11:48:08.284Z</time></trkpt><trkpt lat="58.63015333" lon="14.94621"><ele>107.0</ele><time>2016-06-18T11:48:09.288Z</time></trkpt><trkpt lat="58.63015333" lon="14.94621"><ele>107.0</ele><time>2016-06-18T11:48:10.319Z</time></trkpt><trkpt lat="58.630025" lon="14.94619667"><ele>107.0</ele><time>2016-06-18T11:48:11.398Z</time></trkpt><trkpt lat="58.62995667" lon="14.94617833"><ele>107.0</ele><time>2016-06-18T11:48:12.290Z</time></trkpt><trkpt lat="58.62988167" lon="14.94614333"><ele>107.0</ele><time>2016-06-18T11:48:13.315Z</time></trkpt><trkpt lat="58.62988167" lon="14.94614333"><ele>107.0</ele><time>2016-06-18T11:48:14.300Z</time></trkpt><trkpt lat="58.62973167" lon="14.946045"><ele>107.0</ele><time>2016-06-18T11:48:15.284Z</time></trkpt><trkpt lat="58.62973167" lon="14.946045"><ele>107.0</ele><time>2016-06-18T11:48:16.320Z</time></trkpt><trkpt lat="58.62958333" lon="14.94591"><ele>107.0</ele><time>2016-06-18T11:48:17.286Z</time></trkpt><trkpt lat="58.62958333" lon="14.94591"><ele>107.0</ele><time>2016-06-18T11:48:18.309Z</time></trkpt><trkpt lat="58.62944" lon="14.94577667"><ele>107.0</ele><time>2016-06-18T11:48:19.315Z</time></trkpt><trkpt lat="58.62944" lon="14.94577667"><ele>107.0</ele><time>2016-06-18T11:48:20.308Z</time></trkpt><trkpt lat="58.62928833" lon="14.945625"><ele>107.0</ele><time>2016-06-18T11:48:21.314Z</time></trkpt><trkpt lat="58.62928833" lon="14.945625"><ele>107.0</ele><time>2016-06-18T11:48:22.308Z</time></trkpt><trkpt lat="58.62914167" lon="14.94546167"><ele>107.0</ele><time>2016-06-18T11:48:23.292Z</time></trkpt><trkpt lat="58.62914167" lon="14.94546167"><ele>107.0</ele><time>2016-06-18T11:48:24.309Z</time></trkpt><trkpt lat="58.629" lon="14.945255"><ele>107.0</ele><time>2016-06-18T11:48:25.316Z</time></trkpt><trkpt lat="58.62893333" lon="14.945145"><ele>107.0</ele><time>2016-06-18T11:48:26.302Z</time></trkpt><trkpt lat="58.62893333" lon="14.945145"><ele>107.0</ele><time>2016-06-18T11:48:27.291Z</time></trkpt><trkpt lat="58.62879167" lon="14.94493833"><ele>107.0</ele><time>2016-06-18T11:48:28.299Z</time></trkpt><trkpt lat="58.62879167" lon="14.94493833"><ele>107.0</ele><time>2016-06-18T11:48:29.284Z</time></trkpt><trkpt lat="58.62864667" lon="14.94475167"><ele>107.0</ele><time>2016-06-18T11:48:30.293Z</time></trkpt><trkpt lat="58.62864667" lon="14.94475167"><ele>107.0</ele><time>2016-06-18T11:48:31.301Z</time></trkpt><trkpt lat="58.62849" lon="14.94459833"><ele>107.0</ele><time>2016-06-18T11:48:32.308Z</time></trkpt><trkpt lat="58.628405" lon="14.94452"><ele>106.0</ele><time>2016-06-18T11:48:33.288Z</time></trkpt><trkpt lat="58.628405" lon="14.94452"><ele>106.0</ele><time>2016-06-18T11:48:34.311Z</time></trkpt><trkpt lat="58.62823667" lon="14.94435167"><ele>106.0</ele><time>2016-06-18T11:48:35.318Z</time></trkpt><trkpt lat="58.628155" lon="14.944265"><ele>106.0</ele><time>2016-06-18T11:48:36.315Z</time></trkpt><trkpt lat="58.628155" lon="14.944265"><ele>106.0</ele><time>2016-06-18T11:48:37.322Z</time></trkpt><trkpt lat="58.62796833" lon="14.94409"><ele>106.0</ele><time>2016-06-18T11:48:38.288Z</time></trkpt><trkpt lat="58.62796833" lon="14.94409"><ele>106.0</ele><time>2016-06-18T11:48:39.311Z</time></trkpt><trkpt lat="58.62777333" lon="14.94389333"><ele>106.0</ele><time>2016-06-18T11:48:40.283Z</time></trkpt><trkpt lat="58.62777333" lon="14.94389333"><ele>106.0</ele><time>2016-06-18T11:48:41.293Z</time></trkpt><trkpt lat="58.627565" lon="14.94369667"><ele>105.0</ele><time>2016-06-18T11:48:42.303Z</time></trkpt><trkpt lat="58.62745667" lon="14.94360667"><ele>104.0</ele><time>2016-06-18T11:48:43.299Z</time></trkpt><trkpt lat="58.62745667" lon="14.94360667"><ele>104.0</ele><time>2016-06-18T11:48:44.321Z</time></trkpt><trkpt lat="58.62725833" lon="14.94341167"><ele>104.0</ele><time>2016-06-18T11:48:45.297Z</time></trkpt><trkpt lat="58.62725833" lon="14.94341167"><ele>104.0</ele><time>2016-06-18T11:48:46.310Z</time></trkpt><trkpt lat="58.62706167" lon="14.94324333"><ele>103.0</ele><time>2016-06-18T11:48:47.321Z</time></trkpt><trkpt lat="58.626955" lon="14.94317167"><ele>103.0</ele><time>2016-06-18T11:48:48.305Z</time></trkpt><trkpt lat="58.626955" lon="14.94317167"><ele>103.0</ele><time>2016-06-18T11:48:49.286Z</time></trkpt><trkpt lat="58.62675" lon="14.94302333"><ele>102.0</ele><time>2016-06-18T11:48:50.293Z</time></trkpt><trkpt lat="58.62675" lon="14.94302333"><ele>102.0</ele><time>2016-06-18T11:48:51.303Z</time></trkpt><trkpt lat="58.62656167" lon="14.94287333"><ele>101.0</ele><time>2016-06-18T11:48:52.309Z</time></trkpt><trkpt lat="58.62646833" lon="14.94280833"><ele>101.0</ele><time>2016-06-18T11:48:53.318Z</time></trkpt><trkpt lat="58.62646833" lon="14.94280833"><ele>101.0</ele><time>2016-06-18T11:48:54.300Z</time></trkpt><trkpt lat="58.626285" lon="14.94270167"><ele>100.0</ele><time>2016-06-18T11:48:55.306Z</time></trkpt><trkpt lat="58.62620333" lon="14.94265667"><ele>100.0</ele><time>2016-06-18T11:48:56.311Z</time></trkpt><trkpt lat="58.62620333" lon="14.94265667"><ele>100.0</ele><time>2016-06-18T11:48:57.295Z</time></trkpt><trkpt lat="58.62604333" lon="14.942585"><ele>99.0</ele><time>2016-06-18T11:48:58.302Z</time></trkpt><trkpt lat="58.62604333" lon="14.942585"><ele>99.0</ele><time>2016-06-18T11:48:59.320Z</time></trkpt><trkpt lat="58.625885" lon="14.94251833"><ele>98.0</ele><time>2016-06-18T11:49:00.287Z</time></trkpt><trkpt lat="58.625885" lon="14.94251833"><ele>98.0</ele><time>2016-06-18T11:49:01.301Z</time></trkpt><trkpt lat="58.62572" lon="14.94245167"><ele>98.0</ele><time>2016-06-18T11:49:02.282Z</time></trkpt><trkpt lat="58.62572" lon="14.94245167"><ele>98.0</ele><time>2016-06-18T11:49:03.294Z</time></trkpt><trkpt lat="58.62555" lon="14.94239333"><ele>97.0</ele><time>2016-06-18T11:49:04.301Z</time></trkpt><trkpt lat="58.62555" lon="14.94239333"><ele>97.0</ele><time>2016-06-18T11:49:05.321Z</time></trkpt><trkpt lat="58.62538333" lon="14.94233667"><ele>96.0</ele><time>2016-06-18T11:49:06.288Z</time></trkpt><trkpt lat="58.62538333" lon="14.94233667"><ele>96.0</ele><time>2016-06-18T11:49:07.310Z</time></trkpt><trkpt lat="58.62522167" lon="14.94226333"><ele>95.0</ele><time>2016-06-18T11:49:08.285Z</time></trkpt><trkpt lat="58.62522167" lon="14.94226333"><ele>95.0</ele><time>2016-06-18T11:49:09.292Z</time></trkpt><trkpt lat="58.62505333" lon="14.94220833"><ele>95.0</ele><time>2016-06-18T11:49:10.299Z</time></trkpt><trkpt lat="58.62505333" lon="14.94220833"><ele>95.0</ele><time>2016-06-18T11:49:11.405Z</time></trkpt><trkpt lat="58.62489" lon="14.94214833"><ele>95.0</ele><time>2016-06-18T11:49:12.311Z</time></trkpt><trkpt lat="58.62489" lon="14.94214833"><ele>95.0</ele><time>2016-06-18T11:49:13.316Z</time></trkpt><trkpt lat="58.62473167" lon="14.942085"><ele>94.0</ele><time>2016-06-18T11:49:14.283Z</time></trkpt><trkpt lat="58.62473167" lon="14.942085"><ele>94.0</ele><time>2016-06-18T11:49:15.306Z</time></trkpt><trkpt lat="58.62456333" lon="14.94203333"><ele>94.0</ele><time>2016-06-18T11:49:16.326Z</time></trkpt><trkpt lat="58.62456333" lon="14.94203333"><ele>94.0</ele><time>2016-06-18T11:49:17.282Z</time></trkpt><trkpt lat="58.62440167" lon="14.94197833"><ele>93.0</ele><time>2016-06-18T11:49:18.289Z</time></trkpt><trkpt lat="58.62432333" lon="14.94195"><ele>93.0</ele><time>2016-06-18T11:49:19.298Z</time></trkpt><trkpt lat="58.62432333" lon="14.94195"><ele>93.0</ele><time>2016-06-18T11:49:20.300Z</time></trkpt><trkpt lat="58.624175" lon="14.94188833"><ele>93.0</ele><time>2016-06-18T11:49:21.307Z</time></trkpt><trkpt lat="58.624175" lon="14.94188833"><ele>93.0</ele><time>2016-06-18T11:49:22.290Z</time></trkpt><trkpt lat="58.62403167" lon="14.94183333"><ele>92.0</ele><time>2016-06-18T11:49:23.322Z</time></trkpt><trkpt lat="58.62403167" lon="14.94183333"><ele>92.0</ele><time>2016-06-18T11:49:24.310Z</time></trkpt><trkpt lat="58.62389167" lon="14.94178667"><ele>92.0</ele><time>2016-06-18T11:49:25.317Z</time></trkpt><trkpt lat="58.62389167" lon="14.94178667"><ele>92.0</ele><time>2016-06-18T11:49:26.301Z</time></trkpt><trkpt lat="58.62376" lon="14.94174333"><ele>93.0</ele><time>2016-06-18T11:49:27.299Z</time></trkpt><trkpt lat="58.62376" lon="14.94174333"><ele>93.0</ele><time>2016-06-18T11:49:28.284Z</time></trkpt><trkpt lat="58.62362667" lon="14.94169833"><ele>93.0</ele><time>2016-06-18T11:49:29.291Z</time></trkpt><trkpt lat="58.62362667" lon="14.94169833"><ele>93.0</ele><time>2016-06-18T11:49:30.309Z</time></trkpt><trkpt lat="58.6235" lon="14.94165333"><ele>93.0</ele><time>2016-06-18T11:49:31.315Z</time></trkpt><trkpt lat="58.623435" lon="14.94163667"><ele>93.0</ele><time>2016-06-18T11:49:32.303Z</time></trkpt><trkpt lat="58.623435" lon="14.94163667"><ele>93.0</ele><time>2016-06-18T11:49:33.293Z</time></trkpt><trkpt lat="58.62330333" lon="14.94159167"><ele>93.0</ele><time>2016-06-18T11:49:34.300Z</time></trkpt><trkpt lat="58.62330333" lon="14.94159167"><ele>93.0</ele><time>2016-06-18T11:49:35.282Z</time></trkpt><trkpt lat="58.62316167" lon="14.94154167"><ele>93.0</ele><time>2016-06-18T11:49:36.292Z</time></trkpt><trkpt lat="58.623085" lon="14.94152167"><ele>92.0</ele><time>2016-06-18T11:49:37.314Z</time></trkpt><trkpt lat="58.623085" lon="14.94152167"><ele>92.0</ele><time>2016-06-18T11:49:38.291Z</time></trkpt><trkpt lat="58.62292833" lon="14.941475"><ele>92.0</ele><time>2016-06-18T11:49:39.300Z</time></trkpt><trkpt lat="58.62292833" lon="14.941475"><ele>92.0</ele><time>2016-06-18T11:49:40.282Z</time></trkpt><trkpt lat="58.62276167" lon="14.94141667"><ele>91.0</ele><time>2016-06-18T11:49:41.283Z</time></trkpt><trkpt lat="58.62276167" lon="14.94141667"><ele>91.0</ele><time>2016-06-18T11:49:42.290Z</time></trkpt><trkpt lat="58.62258" lon="14.941345"><ele>91.0</ele><time>2016-06-18T11:49:43.299Z</time></trkpt><trkpt lat="58.62249333" lon="14.94132"><ele>91.0</ele><time>2016-06-18T11:49:44.282Z</time></trkpt><trkpt lat="58.62249333" lon="14.94132"><ele>91.0</ele><time>2016-06-18T11:49:45.304Z</time></trkpt><trkpt lat="58.62231" lon="14.94125333"><ele>90.0</ele><time>2016-06-18T11:49:46.311Z</time></trkpt><trkpt lat="58.62222" lon="14.941225"><ele>90.0</ele><time>2016-06-18T11:49:47.290Z</time></trkpt><trkpt lat="58.62222" lon="14.941225"><ele>90.0</ele><time>2016-06-18T11:49:48.313Z</time></trkpt><trkpt lat="58.62204833" lon="14.94116667"><ele>90.0</ele><time>2016-06-18T11:49:49.295Z</time></trkpt><trkpt lat="58.62204833" lon="14.94116667"><ele>90.0</ele><time>2016-06-18T11:49:50.296Z</time></trkpt><trkpt lat="58.621885" lon="14.94110333"><ele>91.0</ele><time>2016-06-18T11:49:51.302Z</time></trkpt><trkpt lat="58.621885" lon="14.94110333"><ele>91.0</ele><time>2016-06-18T11:49:52.283Z</time></trkpt><trkpt lat="58.62173167" lon="14.94105833"><ele>91.0</ele><time>2016-06-18T11:49:53.297Z</time></trkpt><trkpt lat="58.62173167" lon="14.94105833"><ele>91.0</ele><time>2016-06-18T11:49:54.320Z</time></trkpt><trkpt lat="58.62158667" lon="14.94102833"><ele>90.0</ele><time>2016-06-18T11:49:55.315Z</time></trkpt><trkpt lat="58.62158667" lon="14.94102833"><ele>90.0</ele><time>2016-06-18T11:49:56.320Z</time></trkpt><trkpt lat="58.62144667" lon="14.94100833"><ele>90.0</ele><time>2016-06-18T11:49:57.293Z</time></trkpt><trkpt lat="58.62144667" lon="14.94100833"><ele>90.0</ele><time>2016-06-18T11:49:58.317Z</time></trkpt><trkpt lat="58.62131333" lon="14.94100667"><ele>90.0</ele><time>2016-06-18T11:49:59.284Z</time></trkpt><trkpt lat="58.62124667" lon="14.94100833"><ele>91.0</ele><time>2016-06-18T11:50:00.291Z</time></trkpt><trkpt lat="58.62124667" lon="14.94100833"><ele>91.0</ele><time>2016-06-18T11:50:01.313Z</time></trkpt><trkpt lat="58.62110667" lon="14.94102"><ele>91.0</ele><time>2016-06-18T11:50:02.322Z</time></trkpt><trkpt lat="58.62110667" lon="14.94102"><ele>91.0</ele><time>2016-06-18T11:50:03.299Z</time></trkpt><trkpt lat="58.62095833" lon="14.94103833"><ele>90.0</ele><time>2016-06-18T11:50:04.306Z</time></trkpt><trkpt lat="58.62088333" lon="14.94104833"><ele>89.0</ele><time>2016-06-18T11:50:05.290Z</time></trkpt><trkpt lat="58.62088333" lon="14.94104833"><ele>89.0</ele><time>2016-06-18T11:50:06.313Z</time></trkpt><trkpt lat="58.62073833" lon="14.94106167"><ele>89.0</ele><time>2016-06-18T11:50:07.283Z</time></trkpt><trkpt lat="58.62073833" lon="14.94106167"><ele>89.0</ele><time>2016-06-18T11:50:08.285Z</time></trkpt><trkpt lat="58.62059" lon="14.94109167"><ele>88.0</ele><time>2016-06-18T11:50:09.292Z</time></trkpt><trkpt lat="58.620515" lon="14.941105"><ele>88.0</ele><time>2016-06-18T11:50:10.314Z</time></trkpt><trkpt lat="58.620515" lon="14.941105"><ele>88.0</ele><time>2016-06-18T11:50:11.397Z</time></trkpt><trkpt lat="58.620365" lon="14.94112667"><ele>87.0</ele><time>2016-06-18T11:50:12.289Z</time></trkpt><trkpt lat="58.62029333" lon="14.94113667"><ele>87.0</ele><time>2016-06-18T11:50:13.318Z</time></trkpt><trkpt lat="58.62029333" lon="14.94113667"><ele>87.0</ele><time>2016-06-18T11:50:14.299Z</time></trkpt><trkpt lat="58.62015333" lon="14.94115333"><ele>87.0</ele><time>2016-06-18T11:50:15.306Z</time></trkpt><trkpt lat="58.62015333" lon="14.94115333"><ele>87.0</ele><time>2016-06-18T11:50:16.289Z</time></trkpt><trkpt lat="58.62001833" lon="14.94116667"><ele>87.0</ele><time>2016-06-18T11:50:17.311Z</time></trkpt><trkpt lat="58.61994833" lon="14.94118"><ele>86.0</ele><time>2016-06-18T11:50:18.296Z</time></trkpt><trkpt lat="58.61994833" lon="14.94118"><ele>86.0</ele><time>2016-06-18T11:50:19.319Z</time></trkpt><trkpt lat="58.619825" lon="14.94119333"><ele>85.0</ele><time>2016-06-18T11:50:20.285Z</time></trkpt><trkpt lat="58.61975833" lon="14.94118833"><ele>85.0</ele><time>2016-06-18T11:50:21.307Z</time></trkpt><trkpt lat="58.61975833" lon="14.94118833"><ele>85.0</ele><time>2016-06-18T11:50:22.290Z</time></trkpt><trkpt lat="58.61961833" lon="14.94115833"><ele>84.0</ele><time>2016-06-18T11:50:23.309Z</time></trkpt><trkpt lat="58.61961833" lon="14.94115833"><ele>84.0</ele><time>2016-06-18T11:50:24.294Z</time></trkpt><trkpt lat="58.619465" lon="14.94110333"><ele>84.0</ele><time>2016-06-18T11:50:25.303Z</time></trkpt><trkpt lat="58.619465" lon="14.94110333"><ele>84.0</ele><time>2016-06-18T11:50:26.311Z</time></trkpt><trkpt lat="58.61930833" lon="14.941035"><ele>84.0</ele><time>2016-06-18T11:50:27.319Z</time></trkpt><trkpt lat="58.61930833" lon="14.941035"><ele>84.0</ele><time>2016-06-18T11:50:28.301Z</time></trkpt><trkpt lat="58.61915333" lon="14.94097667"><ele>85.0</ele><time>2016-06-18T11:50:29.307Z</time></trkpt><trkpt lat="58.61906" lon="14.94095333"><ele>85.0</ele><time>2016-06-18T11:50:30.292Z</time></trkpt><trkpt lat="58.61906" lon="14.94095333"><ele>85.0</ele><time>2016-06-18T11:50:31.300Z</time></trkpt><trkpt lat="58.61890833" lon="14.940915"><ele>84.0</ele><time>2016-06-18T11:50:32.307Z</time></trkpt><trkpt lat="58.61884333" lon="14.94089667"><ele>84.0</ele><time>2016-06-18T11:50:33.308Z</time></trkpt><trkpt lat="58.61884333" lon="14.94089667"><ele>84.0</ele><time>2016-06-18T11:50:34.291Z</time></trkpt><trkpt lat="58.61868167" lon="14.94085667"><ele>83.0</ele><time>2016-06-18T11:50:35.304Z</time></trkpt><trkpt lat="58.61860167" lon="14.94083167"><ele>83.0</ele><time>2016-06-18T11:50:36.315Z</time></trkpt><trkpt lat="58.61860167" lon="14.94083167"><ele>83.0</ele><time>2016-06-18T11:50:37.311Z</time></trkpt><trkpt lat="58.61845333" lon="14.94075667"><ele>82.0</ele><time>2016-06-18T11:50:38.318Z</time></trkpt><trkpt lat="58.61845333" lon="14.94075667"><ele>82.0</ele><time>2016-06-18T11:50:39.302Z</time></trkpt><trkpt lat="58.61829833" lon="14.94064333"><ele>81.0</ele><time>2016-06-18T11:50:40.308Z</time></trkpt><trkpt lat="58.61829833" lon="14.94064333"><ele>81.0</ele><time>2016-06-18T11:50:41.295Z</time></trkpt><trkpt lat="58.61814" lon="14.94054667"><ele>81.0</ele><time>2016-06-18T11:50:42.303Z</time></trkpt><trkpt lat="58.61814" lon="14.94054667"><ele>81.0</ele><time>2016-06-18T11:50:43.284Z</time></trkpt><trkpt lat="58.61799667" lon="14.94045333"><ele>82.0</ele><time>2016-06-18T11:50:44.297Z</time></trkpt><trkpt lat="58.61792333" lon="14.94039167"><ele>83.0</ele><time>2016-06-18T11:50:45.282Z</time></trkpt><trkpt lat="58.61792333" lon="14.94039167"><ele>83.0</ele><time>2016-06-18T11:50:46.318Z</time></trkpt><trkpt lat="58.61777333" lon="14.94025833"><ele>83.0</ele><time>2016-06-18T11:50:47.296Z</time></trkpt><trkpt lat="58.61777333" lon="14.94025833"><ele>83.0</ele><time>2016-06-18T11:50:48.318Z</time></trkpt><trkpt lat="58.61763" lon="14.94013833"><ele>83.0</ele><time>2016-06-18T11:50:49.293Z</time></trkpt><trkpt lat="58.61755833" lon="14.94008167"><ele>84.0</ele><time>2016-06-18T11:50:50.302Z</time></trkpt><trkpt lat="58.61755833" lon="14.94008167"><ele>84.0</ele><time>2016-06-18T11:50:51.290Z</time></trkpt><trkpt lat="58.61741167" lon="14.93995833"><ele>84.0</ele><time>2016-06-18T11:50:52.303Z</time></trkpt><trkpt lat="58.61733667" lon="14.93989833"><ele>85.0</ele><time>2016-06-18T11:50:53.310Z</time></trkpt><trkpt lat="58.61733667" lon="14.93989833"><ele>85.0</ele><time>2016-06-18T11:50:54.316Z</time></trkpt><trkpt lat="58.61719167" lon="14.93978"><ele>85.0</ele><time>2016-06-18T11:50:55.285Z</time></trkpt><trkpt lat="58.61719167" lon="14.93978"><ele>85.0</ele><time>2016-06-18T11:50:56.283Z</time></trkpt><trkpt lat="58.61705167" lon="14.93965333"><ele>86.0</ele><time>2016-06-18T11:50:57.289Z</time></trkpt><trkpt lat="58.61705167" lon="14.93965333"><ele>86.0</ele><time>2016-06-18T11:50:58.311Z</time></trkpt><trkpt lat="58.6169" lon="14.939535"><ele>87.0</ele><time>2016-06-18T11:50:59.315Z</time></trkpt><trkpt lat="58.6169" lon="14.939535"><ele>87.0</ele><time>2016-06-18T11:51:00.296Z</time></trkpt><trkpt lat="58.616755" lon="14.93942"><ele>87.0</ele><time>2016-06-18T11:51:01.302Z</time></trkpt><trkpt lat="58.616755" lon="14.93942"><ele>87.0</ele><time>2016-06-18T11:51:02.285Z</time></trkpt><trkpt lat="58.61661333" lon="14.939305"><ele>88.0</ele><time>2016-06-18T11:51:03.313Z</time></trkpt><trkpt lat="58.61661333" lon="14.939305"><ele>88.0</ele><time>2016-06-18T11:51:04.319Z</time></trkpt><trkpt lat="58.61647833" lon="14.939185"><ele>88.0</ele><time>2016-06-18T11:51:05.285Z</time></trkpt><trkpt lat="58.61647833" lon="14.939185"><ele>88.0</ele><time>2016-06-18T11:51:06.314Z</time></trkpt><trkpt lat="58.616375" lon="14.938985"><ele>89.0</ele><time>2016-06-18T11:51:07.282Z</time></trkpt><trkpt lat="58.61634" lon="14.93884667"><ele>89.0</ele><time>2016-06-18T11:51:08.292Z</time></trkpt><trkpt lat="58.61634" lon="14.93884667"><ele>89.0</ele><time>2016-06-18T11:51:09.313Z</time></trkpt><trkpt lat="58.61631" lon="14.93854333"><ele>90.0</ele><time>2016-06-18T11:51:10.317Z</time></trkpt><trkpt lat="58.61631" lon="14.93854333"><ele>90.0</ele><time>2016-06-18T11:51:11.408Z</time></trkpt><trkpt lat="58.616295" lon="14.93824"><ele>91.0</ele><time>2016-06-18T11:51:12.292Z</time></trkpt><trkpt lat="58.61629167" lon="14.93808833"><ele>91.0</ele><time>2016-06-18T11:51:13.292Z</time></trkpt><trkpt lat="58.61629167" lon="14.93808833"><ele>91.0</ele><time>2016-06-18T11:51:14.284Z</time></trkpt><trkpt lat="58.61628833" lon="14.93778"><ele>91.0</ele><time>2016-06-18T11:51:15.301Z</time></trkpt><trkpt lat="58.61628833" lon="14.93778"><ele>91.0</ele><time>2016-06-18T11:51:16.283Z</time></trkpt><trkpt lat="58.61628833" lon="14.937465"><ele>92.0</ele><time>2016-06-18T11:51:17.299Z</time></trkpt><trkpt lat="58.61628833" lon="14.937465"><ele>92.0</ele><time>2016-06-18T11:51:18.296Z</time></trkpt><trkpt lat="58.616285" lon="14.93714667"><ele>92.0</ele><time>2016-06-18T11:51:19.304Z</time></trkpt><trkpt lat="58.616285" lon="14.93714667"><ele>92.0</ele><time>2016-06-18T11:51:20.302Z</time></trkpt><trkpt lat="58.61628167" lon="14.93682333"><ele>92.0</ele><time>2016-06-18T11:51:21.318Z</time></trkpt><trkpt lat="58.61628167" lon="14.93682333"><ele>92.0</ele><time>2016-06-18T11:51:22.319Z</time></trkpt><trkpt lat="58.61627833" lon="14.93648667"><ele>92.0</ele><time>2016-06-18T11:51:23.286Z</time></trkpt><trkpt lat="58.61627833" lon="14.93648667"><ele>92.0</ele><time>2016-06-18T11:51:24.315Z</time></trkpt><trkpt lat="58.61627667" lon="14.93614833"><ele>92.0</ele><time>2016-06-18T11:51:25.283Z</time></trkpt><trkpt lat="58.61627667" lon="14.93614833"><ele>92.0</ele><time>2016-06-18T11:51:26.300Z</time></trkpt><trkpt lat="58.61627333" lon="14.93581833"><ele>92.0</ele><time>2016-06-18T11:51:27.307Z</time></trkpt><trkpt lat="58.61627333" lon="14.93581833"><ele>92.0</ele><time>2016-06-18T11:51:28.293Z</time></trkpt><trkpt lat="58.61626833" lon="14.93548667"><ele>91.0</ele><time>2016-06-18T11:51:29.284Z</time></trkpt><trkpt lat="58.61626833" lon="14.93548667"><ele>91.0</ele><time>2016-06-18T11:51:30.322Z</time></trkpt><trkpt lat="58.616265" lon="14.93515"><ele>91.0</ele><time>2016-06-18T11:51:31.296Z</time></trkpt><trkpt lat="58.61626167" lon="14.93498"><ele>90.0</ele><time>2016-06-18T11:51:32.319Z</time></trkpt><trkpt lat="58.61626167" lon="14.93498"><ele>90.0</ele><time>2016-06-18T11:51:33.298Z</time></trkpt><trkpt lat="58.61625833" lon="14.93464167"><ele>90.0</ele><time>2016-06-18T11:51:34.308Z</time></trkpt><trkpt lat="58.61625833" lon="14.93446833"><ele>89.0</ele><time>2016-06-18T11:51:35.295Z</time></trkpt><trkpt lat="58.61625833" lon="14.93446833"><ele>89.0</ele><time>2016-06-18T11:51:36.317Z</time></trkpt><trkpt lat="58.61625333" lon="14.93413333"><ele>89.0</ele><time>2016-06-18T11:51:37.286Z</time></trkpt><trkpt lat="58.61625" lon="14.93397167"><ele>88.0</ele><time>2016-06-18T11:51:38.308Z</time></trkpt><trkpt lat="58.61625" lon="14.93397167"><ele>88.0</ele><time>2016-06-18T11:51:39.291Z</time></trkpt><trkpt lat="58.61624333" lon="14.93365167"><ele>88.0</ele><time>2016-06-18T11:51:40.283Z</time></trkpt><trkpt lat="58.61624333" lon="14.93365167"><ele>88.0</ele><time>2016-06-18T11:51:41.298Z</time></trkpt><trkpt lat="58.61624167" lon="14.933325"><ele>88.0</ele><time>2016-06-18T11:51:42.315Z</time></trkpt><trkpt lat="58.61624167" lon="14.933325"><ele>88.0</ele><time>2016-06-18T11:51:43.300Z</time></trkpt><trkpt lat="58.616245" lon="14.93300167"><ele>89.0</ele><time>2016-06-18T11:51:44.286Z</time></trkpt><trkpt lat="58.616245" lon="14.93300167"><ele>89.0</ele><time>2016-06-18T11:51:45.283Z</time></trkpt><trkpt lat="58.61624667" lon="14.93268"><ele>89.0</ele><time>2016-06-18T11:51:46.309Z</time></trkpt><trkpt lat="58.61624667" lon="14.93268"><ele>89.0</ele><time>2016-06-18T11:51:47.315Z</time></trkpt><trkpt lat="58.61624833" lon="14.93237"><ele>89.0</ele><time>2016-06-18T11:51:48.287Z</time></trkpt><trkpt lat="58.61624833" lon="14.93237"><ele>89.0</ele><time>2016-06-18T11:51:49.300Z</time></trkpt><trkpt lat="58.61624167" lon="14.93206333"><ele>88.0</ele><time>2016-06-18T11:51:50.307Z</time></trkpt><trkpt lat="58.61624167" lon="14.93206333"><ele>88.0</ele><time>2016-06-18T11:51:51.319Z</time></trkpt><trkpt lat="58.61623333" lon="14.931745"><ele>88.0</ele><time>2016-06-18T11:51:52.286Z</time></trkpt><trkpt lat="58.61622833" lon="14.93158333"><ele>87.0</ele><time>2016-06-18T11:51:53.316Z</time></trkpt><trkpt lat="58.61622833" lon="14.93158333"><ele>87.0</ele><time>2016-06-18T11:51:54.299Z</time></trkpt><trkpt lat="58.61623667" lon="14.93123"><ele>86.0</ele><time>2016-06-18T11:51:55.306Z</time></trkpt><trkpt lat="58.616245" lon="14.93103833"><ele>86.0</ele><time>2016-06-18T11:51:56.283Z</time></trkpt><trkpt lat="58.616245" lon="14.93103833"><ele>86.0</ele><time>2016-06-18T11:51:57.307Z</time></trkpt><trkpt lat="58.61622333" lon="14.93065667"><ele>85.0</ele><time>2016-06-18T11:51:58.314Z</time></trkpt><trkpt lat="58.61618833" lon="14.93047333"><ele>85.0</ele><time>2016-06-18T11:51:59.322Z</time></trkpt><trkpt lat="58.61613667" lon="14.93031"><ele>85.0</ele><time>2016-06-18T11:52:00.307Z</time></trkpt><trkpt lat="58.61606833" lon="14.93017167"><ele>85.0</ele><time>2016-06-18T11:52:01.301Z</time></trkpt><trkpt lat="58.61606833" lon="14.93017167"><ele>85.0</ele><time>2016-06-18T11:52:02.283Z</time></trkpt><trkpt lat="58.61592667" lon="14.92990667"><ele>84.0</ele><time>2016-06-18T11:52:03.301Z</time></trkpt><trkpt lat="58.61592667" lon="14.92990667"><ele>84.0</ele><time>2016-06-18T11:52:04.284Z</time></trkpt><trkpt lat="58.61578" lon="14.92964667"><ele>83.0</ele><time>2016-06-18T11:52:05.285Z</time></trkpt><trkpt lat="58.61578" lon="14.92964667"><ele>83.0</ele><time>2016-06-18T11:52:06.292Z</time></trkpt><trkpt lat="58.61564667" lon="14.92938667"><ele>82.0</ele><time>2016-06-18T11:52:07.299Z</time></trkpt><trkpt lat="58.615585" lon="14.92925333"><ele>82.0</ele><time>2016-06-18T11:52:08.315Z</time></trkpt><trkpt lat="58.615585" lon="14.92925333"><ele>82.0</ele><time>2016-06-18T11:52:09.293Z</time></trkpt><trkpt lat="58.61547167" lon="14.92899167"><ele>83.0</ele><time>2016-06-18T11:52:10.303Z</time></trkpt><trkpt lat="58.61547167" lon="14.92899167"><ele>83.0</ele><time>2016-06-18T11:52:11.408Z</time></trkpt><trkpt lat="58.61537667" lon="14.92870667"><ele>83.0</ele><time>2016-06-18T11:52:12.284Z</time></trkpt><trkpt lat="58.61533167" lon="14.928565"><ele>82.0</ele><time>2016-06-18T11:52:13.310Z</time></trkpt><trkpt lat="58.61528167" lon="14.92843"><ele>82.0</ele><time>2016-06-18T11:52:14.301Z</time></trkpt><trkpt lat="58.61528167" lon="14.92843"><ele>82.0</ele><time>2016-06-18T11:52:15.318Z</time></trkpt><trkpt lat="58.61519" lon="14.92816167"><ele>81.0</ele><time>2016-06-18T11:52:16.284Z</time></trkpt><trkpt lat="58.61519" lon="14.92816167"><ele>81.0</ele><time>2016-06-18T11:52:17.307Z</time></trkpt><trkpt lat="58.615105" lon="14.92787667"><ele>81.0</ele><time>2016-06-18T11:52:18.316Z</time></trkpt><trkpt lat="58.615105" lon="14.92787667"><ele>81.0</ele><time>2016-06-18T11:52:19.297Z</time></trkpt><trkpt lat="58.615035" lon="14.92755667"><ele>81.0</ele><time>2016-06-18T11:52:20.304Z</time></trkpt><trkpt lat="58.615035" lon="14.92755667"><ele>81.0</ele><time>2016-06-18T11:52:21.303Z</time></trkpt><trkpt lat="58.61496167" lon="14.92722833"><ele>81.0</ele><time>2016-06-18T11:52:22.317Z</time></trkpt><trkpt lat="58.61496167" lon="14.92722833"><ele>81.0</ele><time>2016-06-18T11:52:23.300Z</time></trkpt><trkpt lat="58.61489167" lon="14.926915"><ele>81.0</ele><time>2016-06-18T11:52:24.308Z</time></trkpt><trkpt lat="58.614855" lon="14.926775"><ele>81.0</ele><time>2016-06-18T11:52:25.298Z</time></trkpt><trkpt lat="58.61482167" lon="14.92663333"><ele>81.0</ele><time>2016-06-18T11:52:26.287Z</time></trkpt><trkpt lat="58.61482167" lon="14.92663333"><ele>81.0</ele><time>2016-06-18T11:52:27.309Z</time></trkpt><trkpt lat="58.61477" lon="14.92630833"><ele>81.0</ele><time>2016-06-18T11:52:28.316Z</time></trkpt><trkpt lat="58.61477" lon="14.92630833"><ele>81.0</ele><time>2016-06-18T11:52:29.283Z</time></trkpt><trkpt lat="58.614745" lon="14.926035"><ele>82.0</ele><time>2016-06-18T11:52:30.288Z</time></trkpt><trkpt lat="58.614745" lon="14.926035"><ele>82.0</ele><time>2016-06-18T11:52:31.319Z</time></trkpt><trkpt lat="58.61474167" lon="14.92567833"><ele>82.0</ele><time>2016-06-18T11:52:32.284Z</time></trkpt><trkpt lat="58.61474167" lon="14.92567833"><ele>82.0</ele><time>2016-06-18T11:52:33.310Z</time></trkpt><trkpt lat="58.61476333" lon="14.92531167"><ele>82.0</ele><time>2016-06-18T11:52:34.318Z</time></trkpt><trkpt lat="58.614775" lon="14.92513167"><ele>82.0</ele><time>2016-06-18T11:52:35.307Z</time></trkpt><trkpt lat="58.614775" lon="14.92495333"><ele>83.0</ele><time>2016-06-18T11:52:36.301Z</time></trkpt><trkpt lat="58.614775" lon="14.92495333"><ele>83.0</ele><time>2016-06-18T11:52:37.284Z</time></trkpt><trkpt lat="58.61472667" lon="14.92461333"><ele>83.0</ele><time>2016-06-18T11:52:38.308Z</time></trkpt><trkpt lat="58.61472667" lon="14.92461333"><ele>83.0</ele><time>2016-06-18T11:52:39.297Z</time></trkpt><trkpt lat="58.614635" lon="14.92432333"><ele>83.0</ele><time>2016-06-18T11:52:40.304Z</time></trkpt><trkpt lat="58.614635" lon="14.92432333"><ele>83.0</ele><time>2016-06-18T11:52:41.294Z</time></trkpt><trkpt lat="58.614535" lon="14.924045"><ele>83.0</ele><time>2016-06-18T11:52:42.304Z</time></trkpt><trkpt lat="58.614535" lon="14.924045"><ele>83.0</ele><time>2016-06-18T11:52:43.300Z</time></trkpt><trkpt lat="58.61444" lon="14.92376833"><ele>83.0</ele><time>2016-06-18T11:52:44.284Z</time></trkpt><trkpt lat="58.61444" lon="14.92376833"><ele>83.0</ele><time>2016-06-18T11:52:45.295Z</time></trkpt><trkpt lat="58.614345" lon="14.92350833"><ele>84.0</ele><time>2016-06-18T11:52:46.302Z</time></trkpt><trkpt lat="58.614345" lon="14.92350833"><ele>84.0</ele><time>2016-06-18T11:52:47.285Z</time></trkpt><trkpt lat="58.61425167" lon="14.92326"><ele>84.0</ele><time>2016-06-18T11:52:48.291Z</time></trkpt><trkpt lat="58.614205" lon="14.92313833"><ele>84.0</ele><time>2016-06-18T11:52:49.302Z</time></trkpt><trkpt lat="58.614205" lon="14.92313833"><ele>84.0</ele><time>2016-06-18T11:52:50.285Z</time></trkpt><trkpt lat="58.614115" lon="14.92289667"><ele>85.0</ele><time>2016-06-18T11:52:51.292Z</time></trkpt><trkpt lat="58.614115" lon="14.92289667"><ele>85.0</ele><time>2016-06-18T11:52:52.315Z</time></trkpt><trkpt lat="58.614025" lon="14.92266"><ele>85.0</ele><time>2016-06-18T11:52:53.292Z</time></trkpt><trkpt lat="58.61398" lon="14.92254167"><ele>85.0</ele><time>2016-06-18T11:52:54.296Z</time></trkpt><trkpt lat="58.61398" lon="14.92254167"><ele>85.0</ele><time>2016-06-18T11:52:55.282Z</time></trkpt><trkpt lat="58.61388833" lon="14.92231333"><ele>85.0</ele><time>2016-06-18T11:52:56.298Z</time></trkpt><trkpt lat="58.61388833" lon="14.92231333"><ele>85.0</ele><time>2016-06-18T11:52:57.320Z</time></trkpt><trkpt lat="58.61380167" lon="14.92208833"><ele>86.0</ele><time>2016-06-18T11:52:58.287Z</time></trkpt><trkpt lat="58.61380167" lon="14.92208833"><ele>86.0</ele><time>2016-06-18T11:52:59.310Z</time></trkpt><trkpt lat="58.61371667" lon="14.921875"><ele>86.0</ele><time>2016-06-18T11:53:00.318Z</time></trkpt><trkpt lat="58.61371667" lon="14.921875"><ele>86.0</ele><time>2016-06-18T11:53:01.301Z</time></trkpt><trkpt lat="58.61364" lon="14.92166167"><ele>85.0</ele><time>2016-06-18T11:53:02.284Z</time></trkpt><trkpt lat="58.61364" lon="14.92166167"><ele>85.0</ele><time>2016-06-18T11:53:03.288Z</time></trkpt><trkpt lat="58.613565" lon="14.921445"><ele>85.0</ele><time>2016-06-18T11:53:04.296Z</time></trkpt><trkpt lat="58.613565" lon="14.921445"><ele>85.0</ele><time>2016-06-18T11:53:05.319Z</time></trkpt><trkpt lat="58.61348667" lon="14.92123833"><ele>85.0</ele><time>2016-06-18T11:53:06.286Z</time></trkpt><trkpt lat="58.61348667" lon="14.92123833"><ele>85.0</ele><time>2016-06-18T11:53:07.308Z</time></trkpt><trkpt lat="58.61340833" lon="14.921025"><ele>85.0</ele><time>2016-06-18T11:53:08.315Z</time></trkpt><trkpt lat="58.61340833" lon="14.921025"><ele>85.0</ele><time>2016-06-18T11:53:09.313Z</time></trkpt><trkpt lat="58.61332667" lon="14.92080333"><ele>85.0</ele><time>2016-06-18T11:53:10.319Z</time></trkpt><trkpt lat="58.61332667" lon="14.92080333"><ele>85.0</ele><time>2016-06-18T11:53:11.403Z</time></trkpt><trkpt lat="58.613245" lon="14.92057667"><ele>85.0</ele><time>2016-06-18T11:53:12.631Z</time></trkpt><trkpt lat="58.61320333" lon="14.92046667"><ele>85.0</ele><time>2016-06-18T11:53:13.323Z</time></trkpt><trkpt lat="58.61320333" lon="14.92046667"><ele>85.0</ele><time>2016-06-18T11:53:14.299Z</time></trkpt><trkpt lat="58.61312333" lon="14.92024833"><ele>85.0</ele><time>2016-06-18T11:53:15.306Z</time></trkpt><trkpt lat="58.61308333" lon="14.92014"><ele>85.0</ele><time>2016-06-18T11:53:16.289Z</time></trkpt><trkpt lat="58.61308333" lon="14.92014"><ele>85.0</ele><time>2016-06-18T11:53:17.290Z</time></trkpt><trkpt lat="58.613005" lon="14.91993167"><ele>85.0</ele><time>2016-06-18T11:53:18.297Z</time></trkpt><trkpt lat="58.613005" lon="14.91993167"><ele>85.0</ele><time>2016-06-18T11:53:19.321Z</time></trkpt><trkpt lat="58.61292667" lon="14.91972833"><ele>85.0</ele><time>2016-06-18T11:53:20.288Z</time></trkpt><trkpt lat="58.61292667" lon="14.91972833"><ele>85.0</ele><time>2016-06-18T11:53:21.315Z</time></trkpt><trkpt lat="58.61285167" lon="14.91953"><ele>85.0</ele><time>2016-06-18T11:53:22.283Z</time></trkpt><trkpt lat="58.61285167" lon="14.91953"><ele>85.0</ele><time>2016-06-18T11:53:23.299Z</time></trkpt><trkpt lat="58.61277167" lon="14.919345"><ele>86.0</ele><time>2016-06-18T11:53:24.305Z</time></trkpt><trkpt lat="58.61273333" lon="14.91925"><ele>86.0</ele><time>2016-06-18T11:53:25.314Z</time></trkpt><trkpt lat="58.61273333" lon="14.91925"><ele>86.0</ele><time>2016-06-18T11:53:26.320Z</time></trkpt><trkpt lat="58.61266167" lon="14.91906333"><ele>87.0</ele><time>2016-06-18T11:53:27.289Z</time></trkpt><trkpt lat="58.61266167" lon="14.91906333"><ele>87.0</ele><time>2016-06-18T11:53:28.311Z</time></trkpt><trkpt lat="58.612595" lon="14.91887833"><ele>87.0</ele><time>2016-06-18T11:53:29.290Z</time></trkpt><trkpt lat="58.61256167" lon="14.918785"><ele>88.0</ele><time>2016-06-18T11:53:30.306Z</time></trkpt><trkpt lat="58.61252667" lon="14.918695"><ele>88.0</ele><time>2016-06-18T11:53:31.292Z</time></trkpt><trkpt lat="58.61248833" lon="14.918605"><ele>88.0</ele><time>2016-06-18T11:53:32.314Z</time></trkpt><trkpt lat="58.61244833" lon="14.91851833"><ele>88.0</ele><time>2016-06-18T11:53:33.308Z</time></trkpt><trkpt lat="58.61244833" lon="14.91851833"><ele>88.0</ele><time>2016-06-18T11:53:34.295Z</time></trkpt><trkpt lat="58.61235667" lon="14.91835667"><ele>88.0</ele><time>2016-06-18T11:53:35.302Z</time></trkpt><trkpt lat="58.6123" lon="14.91829"><ele>88.0</ele><time>2016-06-18T11:53:36.319Z</time></trkpt><trkpt lat="58.6123" lon="14.91829"><ele>88.0</ele><time>2016-06-18T11:53:37.303Z</time></trkpt><trkpt lat="58.61217333" lon="14.91820333"><ele>88.0</ele><time>2016-06-18T11:53:38.312Z</time></trkpt><trkpt lat="58.61217333" lon="14.91820333"><ele>88.0</ele><time>2016-06-18T11:53:39.321Z</time></trkpt><trkpt lat="58.61203333" lon="14.91818167"><ele>89.0</ele><time>2016-06-18T11:53:40.287Z</time></trkpt><trkpt lat="58.61195667" lon="14.91818"><ele>89.0</ele><time>2016-06-18T11:53:41.315Z</time></trkpt><trkpt lat="58.61195667" lon="14.91818"><ele>89.0</ele><time>2016-06-18T11:53:42.309Z</time></trkpt><trkpt lat="58.6118" lon="14.91817333"><ele>90.0</ele><time>2016-06-18T11:53:43.316Z</time></trkpt><trkpt lat="58.6118" lon="14.91817333"><ele>90.0</ele><time>2016-06-18T11:53:44.297Z</time></trkpt><trkpt lat="58.611645" lon="14.918165"><ele>91.0</ele><time>2016-06-18T11:53:45.321Z</time></trkpt><trkpt lat="58.61156833" lon="14.91816333"><ele>91.0</ele><time>2016-06-18T11:53:46.284Z</time></trkpt><trkpt lat="58.61156833" lon="14.91816333"><ele>91.0</ele><time>2016-06-18T11:53:47.310Z</time></trkpt><trkpt lat="58.611415" lon="14.91816167"><ele>92.0</ele><time>2016-06-18T11:53:48.306Z</time></trkpt><trkpt lat="58.611415" lon="14.91816167"><ele>92.0</ele><time>2016-06-18T11:53:49.290Z</time></trkpt><trkpt lat="58.61126667" lon="14.91815667"><ele>92.0</ele><time>2016-06-18T11:53:50.299Z</time></trkpt><trkpt lat="58.61126667" lon="14.91815667"><ele>92.0</ele><time>2016-06-18T11:53:51.282Z</time></trkpt><trkpt lat="58.611115" lon="14.91814167"><ele>93.0</ele><time>2016-06-18T11:53:52.284Z</time></trkpt><trkpt lat="58.611115" lon="14.91814167"><ele>93.0</ele><time>2016-06-18T11:53:53.310Z</time></trkpt><trkpt lat="58.61096333" lon="14.918135"><ele>93.0</ele><time>2016-06-18T11:53:54.316Z</time></trkpt><trkpt lat="58.61096333" lon="14.918135"><ele>93.0</ele><time>2016-06-18T11:53:55.316Z</time></trkpt><trkpt lat="58.61081667" lon="14.91813167"><ele>94.0</ele><time>2016-06-18T11:53:56.283Z</time></trkpt><trkpt lat="58.61081667" lon="14.91813167"><ele>94.0</ele><time>2016-06-18T11:53:57.295Z</time></trkpt><trkpt lat="58.610675" lon="14.91812667"><ele>94.0</ele><time>2016-06-18T11:53:58.303Z</time></trkpt><trkpt lat="58.61060167" lon="14.91812333"><ele>95.0</ele><time>2016-06-18T11:53:59.286Z</time></trkpt><trkpt lat="58.61053" lon="14.91812333"><ele>95.0</ele><time>2016-06-18T11:54:00.309Z</time></trkpt><trkpt lat="58.61053" lon="14.91812333"><ele>95.0</ele><time>2016-06-18T11:54:01.295Z</time></trkpt><trkpt lat="58.610385" lon="14.91811833"><ele>96.0</ele><time>2016-06-18T11:54:02.314Z</time></trkpt><trkpt lat="58.61031167" lon="14.91811833"><ele>96.0</ele><time>2016-06-18T11:54:03.288Z</time></trkpt><trkpt lat="58.61031167" lon="14.91811833"><ele>96.0</ele><time>2016-06-18T11:54:04.310Z</time></trkpt><trkpt lat="58.61017167" lon="14.91810667"><ele>97.0</ele><time>2016-06-18T11:54:05.304Z</time></trkpt><trkpt lat="58.61017167" lon="14.91810667"><ele>97.0</ele><time>2016-06-18T11:54:06.315Z</time></trkpt><trkpt lat="58.610035" lon="14.91807"><ele>98.0</ele><time>2016-06-18T11:54:07.282Z</time></trkpt><trkpt lat="58.60996333" lon="14.91804167"><ele>98.0</ele><time>2016-06-18T11:54:08.308Z</time></trkpt><trkpt lat="58.60996333" lon="14.91804167"><ele>98.0</ele><time>2016-06-18T11:54:09.301Z</time></trkpt><trkpt lat="58.60981333" lon="14.917935"><ele>98.0</ele><time>2016-06-18T11:54:10.308Z</time></trkpt><trkpt lat="58.60981333" lon="14.917935"><ele>98.0</ele><time>2016-06-18T11:54:11.409Z</time></trkpt><trkpt lat="58.60966167" lon="14.91783167"><ele>98.0</ele><time>2016-06-18T11:54:12.284Z</time></trkpt><trkpt lat="58.60966167" lon="14.91783167"><ele>98.0</ele><time>2016-06-18T11:54:13.299Z</time></trkpt><trkpt lat="58.60951333" lon="14.91771167"><ele>99.0</ele><time>2016-06-18T11:54:14.306Z</time></trkpt><trkpt lat="58.60951333" lon="14.91771167"><ele>99.0</ele><time>2016-06-18T11:54:15.290Z</time></trkpt><trkpt lat="58.609355" lon="14.91759"><ele>98.0</ele><time>2016-06-18T11:54:16.298Z</time></trkpt><trkpt lat="58.609355" lon="14.91759"><ele>98.0</ele><time>2016-06-18T11:54:17.304Z</time></trkpt><trkpt lat="58.609195" lon="14.917465"><ele>98.0</ele><time>2016-06-18T11:54:18.283Z</time></trkpt><trkpt lat="58.609195" lon="14.917465"><ele>98.0</ele><time>2016-06-18T11:54:19.301Z</time></trkpt><trkpt lat="58.60902667" lon="14.917345"><ele>98.0</ele><time>2016-06-18T11:54:20.308Z</time></trkpt><trkpt lat="58.608945" lon="14.91727833"><ele>99.0</ele><time>2016-06-18T11:54:21.292Z</time></trkpt><trkpt lat="58.608945" lon="14.91727833"><ele>99.0</ele><time>2016-06-18T11:54:22.321Z</time></trkpt><trkpt lat="58.60878167" lon="14.91715"><ele>99.0</ele><time>2016-06-18T11:54:23.302Z</time></trkpt><trkpt lat="58.60878167" lon="14.91715"><ele>99.0</ele><time>2016-06-18T11:54:24.283Z</time></trkpt><trkpt lat="58.608625" lon="14.91701667"><ele>98.0</ele><time>2016-06-18T11:54:25.285Z</time></trkpt><trkpt lat="58.608625" lon="14.91701667"><ele>98.0</ele><time>2016-06-18T11:54:26.300Z</time></trkpt><trkpt lat="58.608475" lon="14.91688833"><ele>98.0</ele><time>2016-06-18T11:54:27.306Z</time></trkpt><trkpt lat="58.608475" lon="14.91688833"><ele>98.0</ele><time>2016-06-18T11:54:28.294Z</time></trkpt><trkpt lat="58.60832833" lon="14.916755"><ele>98.0</ele><time>2016-06-18T11:54:29.285Z</time></trkpt><trkpt lat="58.60832833" lon="14.916755"><ele>98.0</ele><time>2016-06-18T11:54:30.317Z</time></trkpt><trkpt lat="58.60817833" lon="14.91663167"><ele>98.0</ele><time>2016-06-18T11:54:31.283Z</time></trkpt><trkpt lat="58.60810667" lon="14.91657"><ele>98.0</ele><time>2016-06-18T11:54:32.305Z</time></trkpt><trkpt lat="58.60810667" lon="14.91657"><ele>98.0</ele><time>2016-06-18T11:54:33.287Z</time></trkpt><trkpt lat="58.60797" lon="14.916455"><ele>98.0</ele><time>2016-06-18T11:54:34.295Z</time></trkpt><trkpt lat="58.60790167" lon="14.91639833"><ele>98.0</ele><time>2016-06-18T11:54:35.283Z</time></trkpt><trkpt lat="58.60790167" lon="14.91639833"><ele>98.0</ele><time>2016-06-18T11:54:36.304Z</time></trkpt><trkpt lat="58.60776" lon="14.916285"><ele>98.0</ele><time>2016-06-18T11:54:37.310Z</time></trkpt><trkpt lat="58.60768833" lon="14.91622833"><ele>98.0</ele><time>2016-06-18T11:54:38.295Z</time></trkpt><trkpt lat="58.60768833" lon="14.91622833"><ele>98.0</ele><time>2016-06-18T11:54:39.319Z</time></trkpt><trkpt lat="58.60754167" lon="14.916105"><ele>98.0</ele><time>2016-06-18T11:54:40.285Z</time></trkpt><trkpt lat="58.60746833" lon="14.91603667"><ele>98.0</ele><time>2016-06-18T11:54:41.297Z</time></trkpt><trkpt lat="58.60739167" lon="14.91596833"><ele>97.0</ele><time>2016-06-18T11:54:42.319Z</time></trkpt><trkpt lat="58.60739167" lon="14.91596833"><ele>97.0</ele><time>2016-06-18T11:54:43.304Z</time></trkpt><trkpt lat="58.607225" lon="14.91583333"><ele>97.0</ele><time>2016-06-18T11:54:44.310Z</time></trkpt><trkpt lat="58.607225" lon="14.91583333"><ele>97.0</ele><time>2016-06-18T11:54:45.296Z</time></trkpt><trkpt lat="58.60705167" lon="14.91571"><ele>97.0</ele><time>2016-06-18T11:54:46.283Z</time></trkpt><trkpt lat="58.60705167" lon="14.91571"><ele>97.0</ele><time>2016-06-18T11:54:47.320Z</time></trkpt><trkpt lat="58.606875" lon="14.9156"><ele>97.0</ele><time>2016-06-18T11:54:48.294Z</time></trkpt><trkpt lat="58.606875" lon="14.9156"><ele>97.0</ele><time>2016-06-18T11:54:49.313Z</time></trkpt><trkpt lat="58.60669333" lon="14.91552833"><ele>97.0</ele><time>2016-06-18T11:54:50.319Z</time></trkpt><trkpt lat="58.60660167" lon="14.91550833"><ele>97.0</ele><time>2016-06-18T11:54:51.305Z</time></trkpt><trkpt lat="58.60660167" lon="14.91550833"><ele>97.0</ele><time>2016-06-18T11:54:52.310Z</time></trkpt><trkpt lat="58.60642333" lon="14.91551667"><ele>97.0</ele><time>2016-06-18T11:54:53.318Z</time></trkpt><trkpt lat="58.60642333" lon="14.91551667"><ele>97.0</ele><time>2016-06-18T11:54:54.304Z</time></trkpt><trkpt lat="58.60624833" lon="14.91554833"><ele>96.0</ele><time>2016-06-18T11:54:55.283Z</time></trkpt><trkpt lat="58.606155" lon="14.91556833"><ele>96.0</ele><time>2016-06-18T11:54:56.287Z</time></trkpt><trkpt lat="58.606155" lon="14.91556833"><ele>96.0</ele><time>2016-06-18T11:54:57.309Z</time></trkpt><trkpt lat="58.60596833" lon="14.91560667"><ele>96.0</ele><time>2016-06-18T11:54:58.315Z</time></trkpt><trkpt lat="58.60587667" lon="14.91562833"><ele>96.0</ele><time>2016-06-18T11:54:59.302Z</time></trkpt><trkpt lat="58.60587667" lon="14.91562833"><ele>96.0</ele><time>2016-06-18T11:55:00.311Z</time></trkpt><trkpt lat="58.60570833" lon="14.91566833"><ele>96.0</ele><time>2016-06-18T11:55:01.317Z</time></trkpt><trkpt lat="58.60562833" lon="14.91569333"><ele>96.0</ele><time>2016-06-18T11:55:02.299Z</time></trkpt><trkpt lat="58.60555" lon="14.915715"><ele>96.0</ele><time>2016-06-18T11:55:03.283Z</time></trkpt><trkpt lat="58.60555" lon="14.915715"><ele>96.0</ele><time>2016-06-18T11:55:04.304Z</time></trkpt><trkpt lat="58.60539167" lon="14.915755"><ele>96.0</ele><time>2016-06-18T11:55:05.325Z</time></trkpt><trkpt lat="58.60539167" lon="14.915755"><ele>96.0</ele><time>2016-06-18T11:55:06.308Z</time></trkpt><trkpt lat="58.605235" lon="14.91578667"><ele>96.0</ele><time>2016-06-18T11:55:07.314Z</time></trkpt><trkpt lat="58.605235" lon="14.91578667"><ele>96.0</ele><time>2016-06-18T11:55:08.297Z</time></trkpt><trkpt lat="58.60507667" lon="14.91581333"><ele>96.0</ele><time>2016-06-18T11:55:09.295Z</time></trkpt><trkpt lat="58.60507667" lon="14.91581333"><ele>96.0</ele><time>2016-06-18T11:55:10.305Z</time></trkpt><trkpt lat="58.60492333" lon="14.91581833"><ele>96.0</ele><time>2016-06-18T11:55:11.430Z</time></trkpt><trkpt lat="58.60492333" lon="14.91581833"><ele>96.0</ele><time>2016-06-18T11:55:12.290Z</time></trkpt><trkpt lat="58.60476833" lon="14.91579167"><ele>96.0</ele><time>2016-06-18T11:55:13.319Z</time></trkpt><trkpt lat="58.60476833" lon="14.91579167"><ele>96.0</ele><time>2016-06-18T11:55:14.303Z</time></trkpt><trkpt lat="58.60462333" lon="14.915715"><ele>96.0</ele><time>2016-06-18T11:55:15.309Z</time></trkpt><trkpt lat="58.60454833" lon="14.91567333"><ele>96.0</ele><time>2016-06-18T11:55:16.303Z</time></trkpt><trkpt lat="58.60454833" lon="14.91567333"><ele>96.0</ele><time>2016-06-18T11:55:17.316Z</time></trkpt><trkpt lat="58.60439667" lon="14.91558333"><ele>96.0</ele><time>2016-06-18T11:55:18.283Z</time></trkpt><trkpt lat="58.60439667" lon="14.91558333"><ele>96.0</ele><time>2016-06-18T11:55:19.305Z</time></trkpt><trkpt lat="58.604255" lon="14.91548833"><ele>96.0</ele><time>2016-06-18T11:55:20.318Z</time></trkpt><trkpt lat="58.604255" lon="14.91548833"><ele>96.0</ele><time>2016-06-18T11:55:21.308Z</time></trkpt><trkpt lat="58.60411833" lon="14.9154"><ele>96.0</ele><time>2016-06-18T11:55:22.315Z</time></trkpt><trkpt lat="58.60411833" lon="14.9154"><ele>96.0</ele><time>2016-06-18T11:55:23.304Z</time></trkpt><trkpt lat="58.60398167" lon="14.91530833"><ele>96.0</ele><time>2016-06-18T11:55:24.322Z</time></trkpt><trkpt lat="58.60398167" lon="14.91530833"><ele>96.0</ele><time>2016-06-18T11:55:25.310Z</time></trkpt><trkpt lat="58.60385167" lon="14.915225"><ele>96.0</ele><time>2016-06-18T11:55:26.317Z</time></trkpt><trkpt lat="58.60385167" lon="14.915225"><ele>96.0</ele><time>2016-06-18T11:55:27.319Z</time></trkpt><trkpt lat="58.60372167" lon="14.915135"><ele>96.0</ele><time>2016-06-18T11:55:28.284Z</time></trkpt><trkpt lat="58.60372167" lon="14.915135"><ele>96.0</ele><time>2016-06-18T11:55:29.290Z</time></trkpt><trkpt lat="58.60359167" lon="14.91505333"><ele>96.0</ele><time>2016-06-18T11:55:30.298Z</time></trkpt><trkpt lat="58.60352" lon="14.91501167"><ele>96.0</ele><time>2016-06-18T11:55:31.284Z</time></trkpt><trkpt lat="58.60352" lon="14.91501167"><ele>96.0</ele><time>2016-06-18T11:55:32.317Z</time></trkpt><trkpt lat="58.60337167" lon="14.91491833"><ele>96.0</ele><time>2016-06-18T11:55:33.286Z</time></trkpt><trkpt lat="58.60337167" lon="14.91491833"><ele>96.0</ele><time>2016-06-18T11:55:34.309Z</time></trkpt><trkpt lat="58.60322333" lon="14.91482333"><ele>96.0</ele><time>2016-06-18T11:55:35.317Z</time></trkpt><trkpt lat="58.60322333" lon="14.91482333"><ele>96.0</ele><time>2016-06-18T11:55:36.293Z</time></trkpt><trkpt lat="58.60307833" lon="14.91472667"><ele>96.0</ele><time>2016-06-18T11:55:37.299Z</time></trkpt><trkpt lat="58.60300333" lon="14.91467167"><ele>96.0</ele><time>2016-06-18T11:55:38.282Z</time></trkpt><trkpt lat="58.60300333" lon="14.91467167"><ele>96.0</ele><time>2016-06-18T11:55:39.319Z</time></trkpt><trkpt lat="58.60284833" lon="14.91455833"><ele>96.0</ele><time>2016-06-18T11:55:40.288Z</time></trkpt><trkpt lat="58.60277167" lon="14.914505"><ele>96.0</ele><time>2016-06-18T11:55:41.296Z</time></trkpt><trkpt lat="58.60277167" lon="14.914505"><ele>96.0</ele><time>2016-06-18T11:55:42.309Z</time></trkpt><trkpt lat="58.60261667" lon="14.9144"><ele>96.0</ele><time>2016-06-18T11:55:43.316Z</time></trkpt><trkpt lat="58.60261667" lon="14.9144"><ele>96.0</ele><time>2016-06-18T11:55:44.305Z</time></trkpt><trkpt lat="58.60245333" lon="14.91429"><ele>96.0</ele><time>2016-06-18T11:55:45.317Z</time></trkpt><trkpt lat="58.60245333" lon="14.91429"><ele>96.0</ele><time>2016-06-18T11:55:46.306Z</time></trkpt><trkpt lat="58.60231167" lon="14.91420167"><ele>98.0</ele><time>2016-06-18T11:55:47.313Z</time></trkpt><trkpt lat="58.60231167" lon="14.91420167"><ele>98.0</ele><time>2016-06-18T11:55:48.296Z</time></trkpt><trkpt lat="58.602175" lon="14.91410833"><ele>98.0</ele><time>2016-06-18T11:55:49.326Z</time></trkpt><trkpt lat="58.60211" lon="14.91406833"><ele>98.0</ele><time>2016-06-18T11:55:50.302Z</time></trkpt><trkpt lat="58.60211" lon="14.91406833"><ele>98.0</ele><time>2016-06-18T11:55:51.299Z</time></trkpt><trkpt lat="58.60198833" lon="14.91399"><ele>98.0</ele><time>2016-06-18T11:55:52.305Z</time></trkpt><trkpt lat="58.60193" lon="14.91395333"><ele>99.0</ele><time>2016-06-18T11:55:53.288Z</time></trkpt><trkpt lat="58.60193" lon="14.91395333"><ele>99.0</ele><time>2016-06-18T11:55:54.310Z</time></trkpt><trkpt lat="58.60181833" lon="14.91388"><ele>99.0</ele><time>2016-06-18T11:55:55.283Z</time></trkpt><trkpt lat="58.60176333" lon="14.91384667"><ele>99.0</ele><time>2016-06-18T11:55:56.288Z</time></trkpt><trkpt lat="58.60176333" lon="14.91384667"><ele>99.0</ele><time>2016-06-18T11:55:57.309Z</time></trkpt><trkpt lat="58.60166167" lon="14.91379333"><ele>100.0</ele><time>2016-06-18T11:55:58.293Z</time></trkpt><trkpt lat="58.60161" lon="14.913765"><ele>100.0</ele><time>2016-06-18T11:55:59.317Z</time></trkpt><trkpt lat="58.60161" lon="14.913765"><ele>100.0</ele><time>2016-06-18T11:56:00.299Z</time></trkpt><trkpt lat="58.60151833" lon="14.91371"><ele>101.0</ele><time>2016-06-18T11:56:01.306Z</time></trkpt><trkpt lat="58.60151833" lon="14.91371"><ele>101.0</ele><time>2016-06-18T11:56:02.290Z</time></trkpt><trkpt lat="58.60142667" lon="14.91364667"><ele>102.0</ele><time>2016-06-18T11:56:03.316Z</time></trkpt><trkpt lat="58.60142667" lon="14.91364667"><ele>102.0</ele><time>2016-06-18T11:56:04.308Z</time></trkpt><trkpt lat="58.60133167" lon="14.91357333"><ele>102.0</ele><time>2016-06-18T11:56:05.315Z</time></trkpt><trkpt lat="58.60133167" lon="14.91357333"><ele>102.0</ele><time>2016-06-18T11:56:06.306Z</time></trkpt><trkpt lat="58.601235" lon="14.91350167"><ele>103.0</ele><time>2016-06-18T11:56:07.283Z</time></trkpt><trkpt lat="58.60118333" lon="14.91346333"><ele>103.0</ele><time>2016-06-18T11:56:08.302Z</time></trkpt><trkpt lat="58.60118333" lon="14.91346333"><ele>103.0</ele><time>2016-06-18T11:56:09.285Z</time></trkpt><trkpt lat="58.601075" lon="14.91338333"><ele>103.0</ele><time>2016-06-18T11:56:10.298Z</time></trkpt><trkpt lat="58.601075" lon="14.91338333"><ele>103.0</ele><time>2016-06-18T11:56:11.418Z</time></trkpt><trkpt lat="58.60096833" lon="14.91330833"><ele>104.0</ele><time>2016-06-18T11:56:12.299Z</time></trkpt><trkpt lat="58.60091667" lon="14.913275"><ele>104.0</ele><time>2016-06-18T11:56:13.284Z</time></trkpt><trkpt lat="58.60086667" lon="14.91324667"><ele>105.0</ele><time>2016-06-18T11:56:14.296Z</time></trkpt><trkpt lat="58.60086667" lon="14.91324667"><ele>105.0</ele><time>2016-06-18T11:56:15.320Z</time></trkpt><trkpt lat="58.60075667" lon="14.91319167"><ele>105.0</ele><time>2016-06-18T11:56:16.286Z</time></trkpt><trkpt lat="58.60075667" lon="14.91319167"><ele>105.0</ele><time>2016-06-18T11:56:17.311Z</time></trkpt><trkpt lat="58.60064833" lon="14.91314167"><ele>105.0</ele><time>2016-06-18T11:56:18.315Z</time></trkpt><trkpt lat="58.60064833" lon="14.91314167"><ele>105.0</ele><time>2016-06-18T11:56:19.306Z</time></trkpt><trkpt lat="58.60053333" lon="14.91309667"><ele>104.0</ele><time>2016-06-18T11:56:20.313Z</time></trkpt><trkpt lat="58.60053333" lon="14.91309667"><ele>104.0</ele><time>2016-06-18T11:56:21.320Z</time></trkpt><trkpt lat="58.60041667" lon="14.91304833"><ele>104.0</ele><time>2016-06-18T11:56:22.287Z</time></trkpt><trkpt lat="58.60036167" lon="14.91302667"><ele>104.0</ele><time>2016-06-18T11:56:23.321Z</time></trkpt><trkpt lat="58.60036167" lon="14.91302667"><ele>104.0</ele><time>2016-06-18T11:56:24.311Z</time></trkpt><trkpt lat="58.60024667" lon="14.91299833"><ele>104.0</ele><time>2016-06-18T11:56:25.320Z</time></trkpt><trkpt lat="58.60019" lon="14.91298333"><ele>104.0</ele><time>2016-06-18T11:56:26.283Z</time></trkpt><trkpt lat="58.60019" lon="14.91298333"><ele>104.0</ele><time>2016-06-18T11:56:27.300Z</time></trkpt><trkpt lat="58.60008167" lon="14.91295833"><ele>104.0</ele><time>2016-06-18T11:56:28.307Z</time></trkpt><trkpt lat="58.60008167" lon="14.91295833"><ele>104.0</ele><time>2016-06-18T11:56:29.297Z</time></trkpt><trkpt lat="58.59997167" lon="14.91293667"><ele>104.0</ele><time>2016-06-18T11:56:30.283Z</time></trkpt><trkpt lat="58.59997167" lon="14.91293667"><ele>104.0</ele><time>2016-06-18T11:56:31.302Z</time></trkpt><trkpt lat="58.59986833" lon="14.91291333"><ele>104.0</ele><time>2016-06-18T11:56:32.308Z</time></trkpt><trkpt lat="58.59981667" lon="14.91289833"><ele>104.0</ele><time>2016-06-18T11:56:33.291Z</time></trkpt><trkpt lat="58.59981667" lon="14.91289833"><ele>104.0</ele><time>2016-06-18T11:56:34.313Z</time></trkpt><trkpt lat="58.599705" lon="14.91287333"><ele>104.0</ele><time>2016-06-18T11:56:35.288Z</time></trkpt><trkpt lat="58.599705" lon="14.91287333"><ele>104.0</ele><time>2016-06-18T11:56:36.319Z</time></trkpt><trkpt lat="58.59959833" lon="14.91285667"><ele>104.0</ele><time>2016-06-18T11:56:37.302Z</time></trkpt><trkpt lat="58.59959833" lon="14.91285667"><ele>104.0</ele><time>2016-06-18T11:56:38.300Z</time></trkpt><trkpt lat="58.59949667" lon="14.91283833"><ele>104.0</ele><time>2016-06-18T11:56:39.307Z</time></trkpt><trkpt lat="58.59944667" lon="14.91282833"><ele>104.0</ele><time>2016-06-18T11:56:40.299Z</time></trkpt><trkpt lat="58.59944667" lon="14.91282833"><ele>104.0</ele><time>2016-06-18T11:56:41.321Z</time></trkpt><trkpt lat="58.599335" lon="14.91280667"><ele>104.0</ele><time>2016-06-18T11:56:42.288Z</time></trkpt><trkpt lat="58.59928" lon="14.912795"><ele>104.0</ele><time>2016-06-18T11:56:43.310Z</time></trkpt><trkpt lat="58.59928" lon="14.912795"><ele>104.0</ele><time>2016-06-18T11:56:44.294Z</time></trkpt><trkpt lat="58.59917333" lon="14.91278667"><ele>104.0</ele><time>2016-06-18T11:56:45.284Z</time></trkpt><trkpt lat="58.59911333" lon="14.91277333"><ele>104.0</ele><time>2016-06-18T11:56:46.322Z</time></trkpt><trkpt lat="58.599055" lon="14.912755"><ele>104.0</ele><time>2016-06-18T11:56:47.321Z</time></trkpt><trkpt lat="58.599055" lon="14.912755"><ele>104.0</ele><time>2016-06-18T11:56:48.304Z</time></trkpt><trkpt lat="58.59892667" lon="14.91272"><ele>104.0</ele><time>2016-06-18T11:56:49.310Z</time></trkpt><trkpt lat="58.59886" lon="14.9127"><ele>104.0</ele><time>2016-06-18T11:56:50.308Z</time></trkpt><trkpt lat="58.59886" lon="14.9127"><ele>104.0</ele><time>2016-06-18T11:56:51.283Z</time></trkpt><trkpt lat="58.59872667" lon="14.91266833"><ele>104.0</ele><time>2016-06-18T11:56:52.291Z</time></trkpt><trkpt lat="58.59872667" lon="14.91266833"><ele>104.0</ele><time>2016-06-18T11:56:53.319Z</time></trkpt><trkpt lat="58.598595" lon="14.91263167"><ele>104.0</ele><time>2016-06-18T11:56:54.291Z</time></trkpt><trkpt lat="58.598595" lon="14.91263167"><ele>104.0</ele><time>2016-06-18T11:56:55.303Z</time></trkpt><trkpt lat="58.598465" lon="14.91260667"><ele>104.0</ele><time>2016-06-18T11:56:56.309Z</time></trkpt><trkpt lat="58.598465" lon="14.91260667"><ele>104.0</ele><time>2016-06-18T11:56:57.309Z</time></trkpt><trkpt lat="58.59834167" lon="14.912585"><ele>105.0</ele><time>2016-06-18T11:56:58.317Z</time></trkpt><trkpt lat="58.59834167" lon="14.912585"><ele>105.0</ele><time>2016-06-18T11:56:59.311Z</time></trkpt><trkpt lat="58.59822667" lon="14.91257667"><ele>105.0</ele><time>2016-06-18T11:57:00.317Z</time></trkpt><trkpt lat="58.59822667" lon="14.91257667"><ele>105.0</ele><time>2016-06-18T11:57:01.305Z</time></trkpt><trkpt lat="58.59810833" lon="14.91258333"><ele>105.0</ele><time>2016-06-18T11:57:02.283Z</time></trkpt><trkpt lat="58.59810833" lon="14.91258333"><ele>105.0</ele><time>2016-06-18T11:57:03.308Z</time></trkpt><trkpt lat="58.59799333" lon="14.91263333"><ele>105.0</ele><time>2016-06-18T11:57:04.285Z</time></trkpt><trkpt lat="58.59799333" lon="14.91263333"><ele>105.0</ele><time>2016-06-18T11:57:05.315Z</time></trkpt><trkpt lat="58.597885" lon="14.91272333"><ele>105.0</ele><time>2016-06-18T11:57:06.282Z</time></trkpt><trkpt lat="58.597885" lon="14.91272333"><ele>105.0</ele><time>2016-06-18T11:57:07.306Z</time></trkpt><trkpt lat="58.59778667" lon="14.912855"><ele>106.0</ele><time>2016-06-18T11:57:08.322Z</time></trkpt><trkpt lat="58.59778667" lon="14.912855"><ele>106.0</ele><time>2016-06-18T11:57:09.290Z</time></trkpt><trkpt lat="58.597685" lon="14.91299"><ele>107.0</ele><time>2016-06-18T11:57:10.297Z</time></trkpt><trkpt lat="58.597685" lon="14.91299"><ele>107.0</ele><time>2016-06-18T11:57:11.408Z</time></trkpt><trkpt lat="58.59758333" lon="14.91310667"><ele>107.0</ele><time>2016-06-18T11:57:12.315Z</time></trkpt><trkpt lat="58.597535" lon="14.91316333"><ele>107.0</ele><time>2016-06-18T11:57:13.284Z</time></trkpt><trkpt lat="58.597535" lon="14.91316333"><ele>107.0</ele><time>2016-06-18T11:57:14.306Z</time></trkpt><trkpt lat="58.59742833" lon="14.91327667"><ele>107.0</ele><time>2016-06-18T11:57:15.313Z</time></trkpt><trkpt lat="58.59742833" lon="14.91327667"><ele>107.0</ele><time>2016-06-18T11:57:16.296Z</time></trkpt><trkpt lat="58.597335" lon="14.91338667"><ele>107.0</ele><time>2016-06-18T11:57:17.317Z</time></trkpt><trkpt lat="58.59729833" lon="14.91343833"><ele>107.0</ele><time>2016-06-18T11:57:18.297Z</time></trkpt><trkpt lat="58.59729833" lon="14.91343833"><ele>107.0</ele><time>2016-06-18T11:57:19.320Z</time></trkpt><trkpt lat="58.59723167" lon="14.91353167"><ele>107.0</ele><time>2016-06-18T11:57:20.287Z</time></trkpt><trkpt lat="58.59723167" lon="14.91353167"><ele>107.0</ele><time>2016-06-18T11:57:21.309Z</time></trkpt><trkpt lat="58.59716167" lon="14.91362667"><ele>107.0</ele><time>2016-06-18T11:57:22.313Z</time></trkpt><trkpt lat="58.59713" lon="14.913675"><ele>107.0</ele><time>2016-06-18T11:57:23.318Z</time></trkpt><trkpt lat="58.59713" lon="14.913675"><ele>107.0</ele><time>2016-06-18T11:57:24.301Z</time></trkpt><trkpt lat="58.59706167" lon="14.91376"><ele>108.0</ele><time>2016-06-18T11:57:25.308Z</time></trkpt><trkpt lat="58.59703167" lon="14.91380167"><ele>108.0</ele><time>2016-06-18T11:57:26.290Z</time></trkpt><trkpt lat="58.59703167" lon="14.91380167"><ele>108.0</ele><time>2016-06-18T11:57:27.300Z</time></trkpt><trkpt lat="58.59697167" lon="14.91388167"><ele>108.0</ele><time>2016-06-18T11:57:28.310Z</time></trkpt><trkpt lat="58.59693667" lon="14.91392667"><ele>108.0</ele><time>2016-06-18T11:57:29.296Z</time></trkpt><trkpt lat="58.59693667" lon="14.91392667"><ele>108.0</ele><time>2016-06-18T11:57:30.318Z</time></trkpt><trkpt lat="58.596865" lon="14.91401667"><ele>108.0</ele><time>2016-06-18T11:57:31.294Z</time></trkpt><trkpt lat="58.59683167" lon="14.91406667"><ele>108.0</ele><time>2016-06-18T11:57:32.304Z</time></trkpt><trkpt lat="58.59683167" lon="14.91406667"><ele>108.0</ele><time>2016-06-18T11:57:33.302Z</time></trkpt><trkpt lat="58.596765" lon="14.91414667"><ele>108.0</ele><time>2016-06-18T11:57:34.287Z</time></trkpt><trkpt lat="58.59673333" lon="14.914195"><ele>108.0</ele><time>2016-06-18T11:57:35.318Z</time></trkpt><trkpt lat="58.59673333" lon="14.914195"><ele>108.0</ele><time>2016-06-18T11:57:36.303Z</time></trkpt><trkpt lat="58.59665833" lon="14.91428833"><ele>109.0</ele><time>2016-06-18T11:57:37.316Z</time></trkpt><trkpt lat="58.59662167" lon="14.91434"><ele>109.0</ele><time>2016-06-18T11:57:38.320Z</time></trkpt><trkpt lat="58.59662167" lon="14.91434"><ele>109.0</ele><time>2016-06-18T11:57:39.303Z</time></trkpt><trkpt lat="58.596515" lon="14.914415"><ele>109.0</ele><time>2016-06-18T11:57:40.288Z</time></trkpt><trkpt lat="58.596515" lon="14.914415"><ele>109.0</ele><time>2016-06-18T11:57:41.295Z</time></trkpt><trkpt lat="58.59644333" lon="14.91452667"><ele>109.0</ele><time>2016-06-18T11:57:42.304Z</time></trkpt><trkpt lat="58.59640167" lon="14.91458"><ele>110.0</ele><time>2016-06-18T11:57:43.287Z</time></trkpt><trkpt lat="58.59640167" lon="14.91458"><ele>110.0</ele><time>2016-06-18T11:57:44.309Z</time></trkpt><trkpt lat="58.59631333" lon="14.91467833"><ele>110.0</ele><time>2016-06-18T11:57:45.286Z</time></trkpt><trkpt lat="58.59631333" lon="14.91467833"><ele>110.0</ele><time>2016-06-18T11:57:46.294Z</time></trkpt><trkpt lat="58.59621333" lon="14.91478167"><ele>110.0</ele><time>2016-06-18T11:57:47.305Z</time></trkpt><trkpt lat="58.596165" lon="14.91484667"><ele>110.0</ele><time>2016-06-18T11:57:48.289Z</time></trkpt><trkpt lat="58.596165" lon="14.91484667"><ele>110.0</ele><time>2016-06-18T11:57:49.311Z</time></trkpt><trkpt lat="58.59606167" lon="14.91499"><ele>111.0</ele><time>2016-06-18T11:57:50.317Z</time></trkpt><trkpt lat="58.59606167" lon="14.91499"><ele>111.0</ele><time>2016-06-18T11:57:51.319Z</time></trkpt><trkpt lat="58.595965" lon="14.91511333"><ele>111.0</ele><time>2016-06-18T11:57:52.286Z</time></trkpt><trkpt lat="58.59592167" lon="14.91517167"><ele>111.0</ele><time>2016-06-18T11:57:53.284Z</time></trkpt><trkpt lat="58.59592167" lon="14.91517167"><ele>111.0</ele><time>2016-06-18T11:57:54.306Z</time></trkpt><trkpt lat="58.59581" lon="14.91530833"><ele>111.0</ele><time>2016-06-18T11:57:55.312Z</time></trkpt><trkpt lat="58.59581" lon="14.91530833"><ele>111.0</ele><time>2016-06-18T11:57:56.304Z</time></trkpt><trkpt lat="58.59569333" lon="14.91544"><ele>111.0</ele><time>2016-06-18T11:57:57.319Z</time></trkpt><trkpt lat="58.59569333" lon="14.91544"><ele>111.0</ele><time>2016-06-18T11:57:58.289Z</time></trkpt><trkpt lat="58.59557833" lon="14.91557667"><ele>111.0</ele><time>2016-06-18T11:57:59.296Z</time></trkpt><trkpt lat="58.59557833" lon="14.91557667"><ele>111.0</ele><time>2016-06-18T11:58:00.319Z</time></trkpt><trkpt lat="58.595465" lon="14.91571333"><ele>111.0</ele><time>2016-06-18T11:58:01.316Z</time></trkpt><trkpt lat="58.59541" lon="14.915785"><ele>111.0</ele><time>2016-06-18T11:58:02.311Z</time></trkpt><trkpt lat="58.59535333" lon="14.915855"><ele>111.0</ele><time>2016-06-18T11:58:03.292Z</time></trkpt><trkpt lat="58.59535333" lon="14.915855"><ele>111.0</ele><time>2016-06-18T11:58:04.315Z</time></trkpt><trkpt lat="58.59524" lon="14.91599833"><ele>110.0</ele><time>2016-06-18T11:58:05.321Z</time></trkpt><trkpt lat="58.59524" lon="14.91599833"><ele>110.0</ele><time>2016-06-18T11:58:06.305Z</time></trkpt><trkpt lat="58.59512333" lon="14.91613667"><ele>110.0</ele><time>2016-06-18T11:58:07.289Z</time></trkpt><trkpt lat="58.59507" lon="14.91621167"><ele>110.0</ele><time>2016-06-18T11:58:08.308Z</time></trkpt><trkpt lat="58.59507" lon="14.91621167"><ele>110.0</ele><time>2016-06-18T11:58:09.296Z</time></trkpt><trkpt lat="58.59496167" lon="14.91634667"><ele>110.0</ele><time>2016-06-18T11:58:10.287Z</time></trkpt><trkpt lat="58.59496167" lon="14.91634667"><ele>110.0</ele><time>2016-06-18T11:58:11.416Z</time></trkpt><trkpt lat="58.59484833" lon="14.916475"><ele>110.0</ele><time>2016-06-18T11:58:12.293Z</time></trkpt><trkpt lat="58.59479333" lon="14.91654"><ele>110.0</ele><time>2016-06-18T11:58:13.282Z</time></trkpt><trkpt lat="58.59473833" lon="14.916605"><ele>110.0</ele><time>2016-06-18T11:58:14.311Z</time></trkpt><trkpt lat="58.59473833" lon="14.916605"><ele>110.0</ele><time>2016-06-18T11:58:15.294Z</time></trkpt><trkpt lat="58.594635" lon="14.91672667"><ele>110.0</ele><time>2016-06-18T11:58:16.305Z</time></trkpt><trkpt lat="58.59458" lon="14.91678667"><ele>110.0</ele><time>2016-06-18T11:58:17.321Z</time></trkpt><trkpt lat="58.59458" lon="14.91678667"><ele>110.0</ele><time>2016-06-18T11:58:18.311Z</time></trkpt><trkpt lat="58.59447" lon="14.916915"><ele>110.0</ele><time>2016-06-18T11:58:19.308Z</time></trkpt><trkpt lat="58.59442167" lon="14.91698333"><ele>109.0</ele><time>2016-06-18T11:58:20.300Z</time></trkpt><trkpt lat="58.59442167" lon="14.91698333"><ele>109.0</ele><time>2016-06-18T11:58:21.282Z</time></trkpt><trkpt lat="58.59432667" lon="14.917125"><ele>109.0</ele><time>2016-06-18T11:58:22.289Z</time></trkpt><trkpt lat="58.59427667" lon="14.91719833"><ele>109.0</ele><time>2016-06-18T11:58:23.302Z</time></trkpt><trkpt lat="58.59427667" lon="14.91719833"><ele>109.0</ele><time>2016-06-18T11:58:24.286Z</time></trkpt><trkpt lat="58.59417167" lon="14.91734333"><ele>109.0</ele><time>2016-06-18T11:58:25.292Z</time></trkpt><trkpt lat="58.59411833" lon="14.917415"><ele>108.0</ele><time>2016-06-18T11:58:26.323Z</time></trkpt><trkpt lat="58.59411833" lon="14.917415"><ele>108.0</ele><time>2016-06-18T11:58:27.312Z</time></trkpt><trkpt lat="58.59401167" lon="14.917565"><ele>108.0</ele><time>2016-06-18T11:58:28.319Z</time></trkpt><trkpt lat="58.59395833" lon="14.91764167"><ele>108.0</ele><time>2016-06-18T11:58:29.322Z</time></trkpt><trkpt lat="58.59395833" lon="14.91764167"><ele>108.0</ele><time>2016-06-18T11:58:30.317Z</time></trkpt><trkpt lat="58.59384333" lon="14.917785"><ele>108.0</ele><time>2016-06-18T11:58:31.284Z</time></trkpt><trkpt lat="58.59384333" lon="14.917785"><ele>108.0</ele><time>2016-06-18T11:58:32.306Z</time></trkpt><trkpt lat="58.59372667" lon="14.91792333"><ele>108.0</ele><time>2016-06-18T11:58:33.313Z</time></trkpt><trkpt lat="58.59372667" lon="14.91792333"><ele>108.0</ele><time>2016-06-18T11:58:34.312Z</time></trkpt><trkpt lat="58.59361333" lon="14.918045"><ele>108.0</ele><time>2016-06-18T11:58:35.319Z</time></trkpt><trkpt lat="58.59361333" lon="14.918045"><ele>108.0</ele><time>2016-06-18T11:58:36.312Z</time></trkpt><trkpt lat="58.593505" lon="14.91815833"><ele>107.0</ele><time>2016-06-18T11:58:37.284Z</time></trkpt><trkpt lat="58.593505" lon="14.91815833"><ele>107.0</ele><time>2016-06-18T11:58:38.318Z</time></trkpt><trkpt lat="58.59339167" lon="14.91829667"><ele>107.0</ele><time>2016-06-18T11:58:39.296Z</time></trkpt><trkpt lat="58.59333167" lon="14.91836167"><ele>107.0</ele><time>2016-06-18T11:58:40.287Z</time></trkpt><trkpt lat="58.59333167" lon="14.91836167"><ele>107.0</ele><time>2016-06-18T11:58:41.304Z</time></trkpt><trkpt lat="58.59321167" lon="14.91848333"><ele>106.0</ele><time>2016-06-18T11:58:42.310Z</time></trkpt><trkpt lat="58.59315833" lon="14.91855167"><ele>106.0</ele><time>2016-06-18T11:58:43.291Z</time></trkpt><trkpt lat="58.59315833" lon="14.91855167"><ele>106.0</ele><time>2016-06-18T11:58:44.315Z</time></trkpt><trkpt lat="58.59306" lon="14.918685"><ele>106.0</ele><time>2016-06-18T11:58:45.321Z</time></trkpt><trkpt lat="58.59306" lon="14.918685"><ele>106.0</ele><time>2016-06-18T11:58:46.319Z</time></trkpt><trkpt lat="58.59295333" lon="14.91882167"><ele>106.0</ele><time>2016-06-18T11:58:47.296Z</time></trkpt><trkpt lat="58.59295333" lon="14.91882167"><ele>106.0</ele><time>2016-06-18T11:58:48.309Z</time></trkpt><trkpt lat="58.59285167" lon="14.918975"><ele>106.0</ele><time>2016-06-18T11:58:49.316Z</time></trkpt><trkpt lat="58.59279667" lon="14.91903833"><ele>106.0</ele><time>2016-06-18T11:58:50.299Z</time></trkpt><trkpt lat="58.59279667" lon="14.91903833"><ele>106.0</ele><time>2016-06-18T11:58:51.321Z</time></trkpt><trkpt lat="58.59269167" lon="14.91916333"><ele>106.0</ele><time>2016-06-18T11:58:52.295Z</time></trkpt><trkpt lat="58.59269167" lon="14.91916333"><ele>106.0</ele><time>2016-06-18T11:58:53.311Z</time></trkpt><trkpt lat="58.59258167" lon="14.91927833"><ele>107.0</ele><time>2016-06-18T11:58:54.316Z</time></trkpt><trkpt lat="58.59253" lon="14.91933333"><ele>107.0</ele><time>2016-06-18T11:58:55.299Z</time></trkpt><trkpt lat="58.59253" lon="14.91933333"><ele>107.0</ele><time>2016-06-18T11:58:56.321Z</time></trkpt><trkpt lat="58.59244167" lon="14.91944833"><ele>107.0</ele><time>2016-06-18T11:58:57.293Z</time></trkpt><trkpt lat="58.59244167" lon="14.91944833"><ele>107.0</ele><time>2016-06-18T11:58:58.296Z</time></trkpt><trkpt lat="58.59236167" lon="14.91954167"><ele>107.0</ele><time>2016-06-18T11:58:59.306Z</time></trkpt><trkpt lat="58.59232333" lon="14.91958667"><ele>108.0</ele><time>2016-06-18T11:59:00.308Z</time></trkpt><trkpt lat="58.59229" lon="14.91963167"><ele>108.0</ele><time>2016-06-18T11:59:01.300Z</time></trkpt><trkpt lat="58.59225667" lon="14.91967167"><ele>108.0</ele><time>2016-06-18T11:59:02.282Z</time></trkpt><trkpt lat="58.59225667" lon="14.91967167"><ele>108.0</ele><time>2016-06-18T11:59:03.306Z</time></trkpt><trkpt lat="58.592195" lon="14.91975"><ele>108.0</ele><time>2016-06-18T11:59:04.315Z</time></trkpt><trkpt lat="58.592165" lon="14.91979333"><ele>109.0</ele><time>2016-06-18T11:59:05.323Z</time></trkpt><trkpt lat="58.592165" lon="14.91979333"><ele>109.0</ele><time>2016-06-18T11:59:06.292Z</time></trkpt><trkpt lat="58.59209833" lon="14.91987667"><ele>109.0</ele><time>2016-06-18T11:59:07.300Z</time></trkpt><trkpt lat="58.59209833" lon="14.91987667"><ele>109.0</ele><time>2016-06-18T11:59:08.286Z</time></trkpt><trkpt lat="58.59203" lon="14.91995833"><ele>110.0</ele><time>2016-06-18T11:59:09.285Z</time></trkpt><trkpt lat="58.59203" lon="14.91995833"><ele>110.0</ele><time>2016-06-18T11:59:10.317Z</time></trkpt><trkpt lat="58.59196333" lon="14.92004667"><ele>110.0</ele><time>2016-06-18T11:59:11.411Z</time></trkpt><trkpt lat="58.59196333" lon="14.92004667"><ele>110.0</ele><time>2016-06-18T11:59:12.297Z</time></trkpt><trkpt lat="58.59189333" lon="14.92012"><ele>110.0</ele><time>2016-06-18T11:59:13.320Z</time></trkpt><trkpt lat="58.59185" lon="14.920165"><ele>110.0</ele><time>2016-06-18T11:59:14.300Z</time></trkpt><trkpt lat="58.59185" lon="14.920165"><ele>110.0</ele><time>2016-06-18T11:59:15.282Z</time></trkpt><trkpt lat="58.59176833" lon="14.92026333"><ele>110.0</ele><time>2016-06-18T11:59:16.289Z</time></trkpt><trkpt lat="58.59176833" lon="14.92026333"><ele>110.0</ele><time>2016-06-18T11:59:17.312Z</time></trkpt><trkpt lat="58.59168" lon="14.92036667"><ele>110.0</ele><time>2016-06-18T11:59:18.319Z</time></trkpt><trkpt lat="58.59168" lon="14.92036667"><ele>110.0</ele><time>2016-06-18T11:59:19.321Z</time></trkpt><trkpt lat="58.59158833" lon="14.92047167"><ele>110.0</ele><time>2016-06-18T11:59:20.288Z</time></trkpt><trkpt lat="58.59158833" lon="14.92047167"><ele>110.0</ele><time>2016-06-18T11:59:21.285Z</time></trkpt><trkpt lat="58.591495" lon="14.92058833"><ele>109.0</ele><time>2016-06-18T11:59:22.287Z</time></trkpt><trkpt lat="58.591495" lon="14.92058833"><ele>109.0</ele><time>2016-06-18T11:59:23.308Z</time></trkpt><trkpt lat="58.59140333" lon="14.92069833"><ele>109.0</ele><time>2016-06-18T11:59:24.315Z</time></trkpt><trkpt lat="58.59136" lon="14.92075"><ele>109.0</ele><time>2016-06-18T11:59:25.294Z</time></trkpt><trkpt lat="58.59136" lon="14.92075"><ele>109.0</ele><time>2016-06-18T11:59:26.284Z</time></trkpt><trkpt lat="58.591275" lon="14.92086167"><ele>109.0</ele><time>2016-06-18T11:59:27.290Z</time></trkpt><trkpt lat="58.591275" lon="14.92086167"><ele>109.0</ele><time>2016-06-18T11:59:28.299Z</time></trkpt><trkpt lat="58.591185" lon="14.920965"><ele>109.0</ele><time>2016-06-18T11:59:29.300Z</time></trkpt><trkpt lat="58.591185" lon="14.920965"><ele>109.0</ele><time>2016-06-18T11:59:30.307Z</time></trkpt><trkpt lat="58.59109333" lon="14.92108167"><ele>108.0</ele><time>2016-06-18T11:59:31.314Z</time></trkpt><trkpt lat="58.59109333" lon="14.92108167"><ele>108.0</ele><time>2016-06-18T11:59:32.295Z</time></trkpt><trkpt lat="58.59101" lon="14.92121833"><ele>109.0</ele><time>2016-06-18T11:59:33.303Z</time></trkpt><trkpt lat="58.59101" lon="14.92121833"><ele>109.0</ele><time>2016-06-18T11:59:34.282Z</time></trkpt><trkpt lat="58.59092167" lon="14.92136"><ele>110.0</ele><time>2016-06-18T11:59:35.288Z</time></trkpt><trkpt lat="58.59092167" lon="14.92136"><ele>110.0</ele><time>2016-06-18T11:59:36.310Z</time></trkpt><trkpt lat="58.59083167" lon="14.921505"><ele>110.0</ele><time>2016-06-18T11:59:37.282Z</time></trkpt><trkpt lat="58.59083167" lon="14.921505"><ele>110.0</ele><time>2016-06-18T11:59:38.282Z</time></trkpt><trkpt lat="58.59075" lon="14.92165833"><ele>111.0</ele><time>2016-06-18T11:59:39.289Z</time></trkpt><trkpt lat="58.59075" lon="14.92165833"><ele>111.0</ele><time>2016-06-18T11:59:40.310Z</time></trkpt><trkpt lat="58.59065833" lon="14.92182833"><ele>112.0</ele><time>2016-06-18T11:59:41.317Z</time></trkpt><trkpt lat="58.59065833" lon="14.92182833"><ele>112.0</ele><time>2016-06-18T11:59:42.299Z</time></trkpt><trkpt lat="58.59057667" lon="14.92202"><ele>113.0</ele><time>2016-06-18T11:59:43.303Z</time></trkpt><trkpt lat="58.59057667" lon="14.92202"><ele>113.0</ele><time>2016-06-18T11:59:44.290Z</time></trkpt><trkpt lat="58.59049167" lon="14.92219667"><ele>113.0</ele><time>2016-06-18T11:59:45.299Z</time></trkpt><trkpt lat="58.59049167" lon="14.92219667"><ele>113.0</ele><time>2016-06-18T11:59:46.282Z</time></trkpt><trkpt lat="58.59041167" lon="14.92235667"><ele>114.0</ele><time>2016-06-18T11:59:47.282Z</time></trkpt><trkpt lat="58.59041167" lon="14.92235667"><ele>114.0</ele><time>2016-06-18T11:59:48.314Z</time></trkpt><trkpt lat="58.590345" lon="14.92251"><ele>114.0</ele><time>2016-06-18T11:59:49.320Z</time></trkpt><trkpt lat="58.590315" lon="14.92258667"><ele>114.0</ele><time>2016-06-18T11:59:50.302Z</time></trkpt><trkpt lat="58.590315" lon="14.92258667"><ele>114.0</ele><time>2016-06-18T11:59:51.283Z</time></trkpt><trkpt lat="58.59026167" lon="14.922725"><ele>115.0</ele><time>2016-06-18T11:59:52.291Z</time></trkpt><trkpt lat="58.59023667" lon="14.92278167"><ele>115.0</ele><time>2016-06-18T11:59:53.283Z</time></trkpt><trkpt lat="58.59023667" lon="14.92278167"><ele>115.0</ele><time>2016-06-18T11:59:54.306Z</time></trkpt><trkpt lat="58.59015667" lon="14.92292"><ele>116.0</ele><time>2016-06-18T11:59:55.313Z</time></trkpt><trkpt lat="58.59012667" lon="14.92298333"><ele>116.0</ele><time>2016-06-18T11:59:56.283Z</time></trkpt><trkpt lat="58.59012667" lon="14.92298333"><ele>116.0</ele><time>2016-06-18T11:59:57.295Z</time></trkpt><trkpt lat="58.59006667" lon="14.92311667"><ele>116.0</ele><time>2016-06-18T11:59:58.318Z</time></trkpt><trkpt lat="58.59003833" lon="14.92318667"><ele>116.0</ele><time>2016-06-18T11:59:59.300Z</time></trkpt><trkpt lat="58.59003833" lon="14.92318667"><ele>116.0</ele><time>2016-06-18T12:00:00.312Z</time></trkpt><trkpt lat="58.58996833" lon="14.92332167"><ele>116.0</ele><time>2016-06-18T12:00:01.319Z</time></trkpt><trkpt lat="58.58996833" lon="14.92332167"><ele>116.0</ele><time>2016-06-18T12:00:02.301Z</time></trkpt><trkpt lat="58.589895" lon="14.92344167"><ele>116.0</ele><time>2016-06-18T12:00:03.308Z</time></trkpt><trkpt lat="58.589895" lon="14.92344167"><ele>116.0</ele><time>2016-06-18T12:00:04.312Z</time></trkpt><trkpt lat="58.58980833" lon="14.92356833"><ele>116.0</ele><time>2016-06-18T12:00:05.318Z</time></trkpt><trkpt lat="58.58980833" lon="14.92356833"><ele>116.0</ele><time>2016-06-18T12:00:06.319Z</time></trkpt><trkpt lat="58.589715" lon="14.92369333"><ele>116.0</ele><time>2016-06-18T12:00:07.282Z</time></trkpt><trkpt lat="58.589715" lon="14.92369333"><ele>116.0</ele><time>2016-06-18T12:00:08.300Z</time></trkpt><trkpt lat="58.58961667" lon="14.92382"><ele>116.0</ele><time>2016-06-18T12:00:09.307Z</time></trkpt><trkpt lat="58.58961667" lon="14.92382"><ele>116.0</ele><time>2016-06-18T12:00:10.289Z</time></trkpt><trkpt lat="58.58951" lon="14.923955"><ele>115.0</ele><time>2016-06-18T12:00:11.418Z</time></trkpt><trkpt lat="58.58951" lon="14.923955"><ele>115.0</ele><time>2016-06-18T12:00:12.327Z</time></trkpt><trkpt lat="58.58939167" lon="14.92408333"><ele>115.0</ele><time>2016-06-18T12:00:13.316Z</time></trkpt><trkpt lat="58.58939167" lon="14.92408333"><ele>115.0</ele><time>2016-06-18T12:00:14.300Z</time></trkpt><trkpt lat="58.58924333" lon="14.92421833"><ele>115.0</ele><time>2016-06-18T12:00:15.314Z</time></trkpt><trkpt lat="58.58917167" lon="14.924295"><ele>115.0</ele><time>2016-06-18T12:00:16.290Z</time></trkpt><trkpt lat="58.589115" lon="14.92438167"><ele>115.0</ele><time>2016-06-18T12:00:17.311Z</time></trkpt><trkpt lat="58.589115" lon="14.92438167"><ele>115.0</ele><time>2016-06-18T12:00:18.293Z</time></trkpt><trkpt lat="58.58899667" lon="14.92455833"><ele>115.0</ele><time>2016-06-18T12:00:19.301Z</time></trkpt><trkpt lat="58.58899667" lon="14.92455833"><ele>115.0</ele><time>2016-06-18T12:00:20.284Z</time></trkpt><trkpt lat="58.588905" lon="14.92473833"><ele>114.0</ele><time>2016-06-18T12:00:21.299Z</time></trkpt><trkpt lat="58.588905" lon="14.92473833"><ele>114.0</ele><time>2016-06-18T12:00:22.289Z</time></trkpt><trkpt lat="58.58878333" lon="14.92492667"><ele>114.0</ele><time>2016-06-18T12:00:23.313Z</time></trkpt><trkpt lat="58.58878333" lon="14.92492667"><ele>114.0</ele><time>2016-06-18T12:00:24.296Z</time></trkpt><trkpt lat="58.58867333" lon="14.92511333"><ele>114.0</ele><time>2016-06-18T12:00:25.303Z</time></trkpt><trkpt lat="58.58861333" lon="14.92520667"><ele>113.0</ele><time>2016-06-18T12:00:26.288Z</time></trkpt><trkpt lat="58.58861333" lon="14.92520667"><ele>113.0</ele><time>2016-06-18T12:00:27.289Z</time></trkpt><trkpt lat="58.58850333" lon="14.92539333"><ele>114.0</ele><time>2016-06-18T12:00:28.300Z</time></trkpt><trkpt lat="58.58850333" lon="14.92539333"><ele>114.0</ele><time>2016-06-18T12:00:29.294Z</time></trkpt><trkpt lat="58.58839333" lon="14.92559833"><ele>114.0</ele><time>2016-06-18T12:00:30.283Z</time></trkpt><trkpt lat="58.58839333" lon="14.92559833"><ele>114.0</ele><time>2016-06-18T12:00:31.300Z</time></trkpt><trkpt lat="58.58828" lon="14.92579333"><ele>115.0</ele><time>2016-06-18T12:00:32.307Z</time></trkpt><trkpt lat="58.588225" lon="14.925895"><ele>115.0</ele><time>2016-06-18T12:00:33.291Z</time></trkpt><trkpt lat="58.588225" lon="14.925895"><ele>115.0</ele><time>2016-06-18T12:00:34.301Z</time></trkpt><trkpt lat="58.58811833" lon="14.92609667"><ele>116.0</ele><time>2016-06-18T12:00:35.308Z</time></trkpt><trkpt lat="58.58811833" lon="14.92609667"><ele>116.0</ele><time>2016-06-18T12:00:36.283Z</time></trkpt><trkpt lat="58.58801333" lon="14.92629"><ele>116.0</ele><time>2016-06-18T12:00:37.282Z</time></trkpt><trkpt lat="58.58801333" lon="14.92629"><ele>116.0</ele><time>2016-06-18T12:00:38.289Z</time></trkpt><trkpt lat="58.587905" lon="14.926485"><ele>116.0</ele><time>2016-06-18T12:00:39.306Z</time></trkpt><trkpt lat="58.587905" lon="14.926485"><ele>116.0</ele><time>2016-06-18T12:00:40.286Z</time></trkpt><trkpt lat="58.587795" lon="14.926675"><ele>116.0</ele><time>2016-06-18T12:00:41.283Z</time></trkpt><trkpt lat="58.587795" lon="14.926675"><ele>116.0</ele><time>2016-06-18T12:00:42.300Z</time></trkpt><trkpt lat="58.58768833" lon="14.92686333"><ele>116.0</ele><time>2016-06-18T12:00:43.307Z</time></trkpt><trkpt lat="58.58764" lon="14.92695667"><ele>116.0</ele><time>2016-06-18T12:00:44.289Z</time></trkpt><trkpt lat="58.58764" lon="14.92695667"><ele>116.0</ele><time>2016-06-18T12:00:45.287Z</time></trkpt><trkpt lat="58.587535" lon="14.92714333"><ele>116.0</ele><time>2016-06-18T12:00:46.300Z</time></trkpt><trkpt lat="58.587535" lon="14.92714333"><ele>116.0</ele><time>2016-06-18T12:00:47.321Z</time></trkpt><trkpt lat="58.58743667" lon="14.92731333"><ele>116.0</ele><time>2016-06-18T12:00:48.293Z</time></trkpt><trkpt lat="58.58743667" lon="14.92731333"><ele>116.0</ele><time>2016-06-18T12:00:49.293Z</time></trkpt><trkpt lat="58.58734" lon="14.92749333"><ele>116.0</ele><time>2016-06-18T12:00:50.306Z</time></trkpt><trkpt lat="58.58734" lon="14.92749333"><ele>116.0</ele><time>2016-06-18T12:00:51.317Z</time></trkpt><trkpt lat="58.58724167" lon="14.927675"><ele>116.0</ele><time>2016-06-18T12:00:52.283Z</time></trkpt><trkpt lat="58.58719167" lon="14.92775833"><ele>116.0</ele><time>2016-06-18T12:00:53.315Z</time></trkpt><trkpt lat="58.58719167" lon="14.92775833"><ele>116.0</ele><time>2016-06-18T12:00:54.299Z</time></trkpt><trkpt lat="58.58709833" lon="14.92792"><ele>116.0</ele><time>2016-06-18T12:00:55.306Z</time></trkpt><trkpt lat="58.58705" lon="14.92800667"><ele>116.0</ele><time>2016-06-18T12:00:56.311Z</time></trkpt><trkpt lat="58.58705" lon="14.92800667"><ele>116.0</ele><time>2016-06-18T12:00:57.301Z</time></trkpt><trkpt lat="58.586955" lon="14.92818"><ele>116.0</ele><time>2016-06-18T12:00:58.308Z</time></trkpt><trkpt lat="58.586955" lon="14.92818"><ele>116.0</ele><time>2016-06-18T12:00:59.299Z</time></trkpt><trkpt lat="58.586855" lon="14.92837333"><ele>116.0</ele><time>2016-06-18T12:01:00.311Z</time></trkpt><trkpt lat="58.586855" lon="14.92837333"><ele>116.0</ele><time>2016-06-18T12:01:01.297Z</time></trkpt><trkpt lat="58.58675667" lon="14.928565"><ele>116.0</ele><time>2016-06-18T12:01:02.304Z</time></trkpt><trkpt lat="58.58675667" lon="14.928565"><ele>116.0</ele><time>2016-06-18T12:01:03.287Z</time></trkpt><trkpt lat="58.58665667" lon="14.928755"><ele>116.0</ele><time>2016-06-18T12:01:04.306Z</time></trkpt><trkpt lat="58.58660667" lon="14.92884333"><ele>116.0</ele><time>2016-06-18T12:01:05.309Z</time></trkpt><trkpt lat="58.58660667" lon="14.92884333"><ele>116.0</ele><time>2016-06-18T12:01:06.322Z</time></trkpt><trkpt lat="58.58650667" lon="14.92903167"><ele>116.0</ele><time>2016-06-18T12:01:07.288Z</time></trkpt><trkpt lat="58.58650667" lon="14.92903167"><ele>116.0</ele><time>2016-06-18T12:01:08.309Z</time></trkpt><trkpt lat="58.58641667" lon="14.92921833"><ele>117.0</ele><time>2016-06-18T12:01:09.283Z</time></trkpt><trkpt lat="58.58636833" lon="14.92930667"><ele>117.0</ele><time>2016-06-18T12:01:10.310Z</time></trkpt><trkpt lat="58.58636833" lon="14.92930667"><ele>117.0</ele><time>2016-06-18T12:01:11.319Z</time></trkpt><trkpt lat="58.58627333" lon="14.92946833"><ele>117.0</ele><time>2016-06-18T12:01:12.305Z</time></trkpt><trkpt lat="58.58622667" lon="14.929545"><ele>117.0</ele><time>2016-06-18T12:01:13.320Z</time></trkpt><trkpt lat="58.58622667" lon="14.929545"><ele>117.0</ele><time>2016-06-18T12:01:14.301Z</time></trkpt><trkpt lat="58.586135" lon="14.92969833"><ele>117.0</ele><time>2016-06-18T12:01:15.308Z</time></trkpt><trkpt lat="58.586135" lon="14.92969833"><ele>117.0</ele><time>2016-06-18T12:01:16.290Z</time></trkpt><trkpt lat="58.58604333" lon="14.92982833"><ele>117.0</ele><time>2016-06-18T12:01:17.283Z</time></trkpt><trkpt lat="58.58604333" lon="14.92982833"><ele>117.0</ele><time>2016-06-18T12:01:18.320Z</time></trkpt><trkpt lat="58.58594833" lon="14.92993833"><ele>117.0</ele><time>2016-06-18T12:01:19.287Z</time></trkpt><trkpt lat="58.58594833" lon="14.92993833"><ele>117.0</ele><time>2016-06-18T12:01:20.309Z</time></trkpt><trkpt lat="58.58585833" lon="14.93003167"><ele>117.0</ele><time>2016-06-18T12:01:21.282Z</time></trkpt><trkpt lat="58.58581" lon="14.930075"><ele>117.0</ele><time>2016-06-18T12:01:22.301Z</time></trkpt><trkpt lat="58.58581" lon="14.930075"><ele>117.0</ele><time>2016-06-18T12:01:23.282Z</time></trkpt><trkpt lat="58.58570667" lon="14.930145"><ele>117.0</ele><time>2016-06-18T12:01:24.293Z</time></trkpt><trkpt lat="58.585655" lon="14.93017"><ele>117.0</ele><time>2016-06-18T12:01:25.316Z</time></trkpt><trkpt lat="58.585655" lon="14.93017"><ele>117.0</ele><time>2016-06-18T12:01:26.302Z</time></trkpt><trkpt lat="58.58554667" lon="14.93020833"><ele>118.0</ele><time>2016-06-18T12:01:27.308Z</time></trkpt><trkpt lat="58.58554667" lon="14.93020833"><ele>118.0</ele><time>2016-06-18T12:01:28.290Z</time></trkpt><trkpt lat="58.585435" lon="14.93022833"><ele>118.0</ele><time>2016-06-18T12:01:29.289Z</time></trkpt><trkpt lat="58.58537833" lon="14.930225"><ele>118.0</ele><time>2016-06-18T12:01:30.318Z</time></trkpt><trkpt lat="58.58537833" lon="14.930225"><ele>118.0</ele><time>2016-06-18T12:01:31.299Z</time></trkpt><trkpt lat="58.58527167" lon="14.93022167"><ele>118.0</ele><time>2016-06-18T12:01:32.306Z</time></trkpt><trkpt lat="58.58527167" lon="14.93022167"><ele>118.0</ele><time>2016-06-18T12:01:33.289Z</time></trkpt><trkpt lat="58.58515667" lon="14.93021333"><ele>118.0</ele><time>2016-06-18T12:01:34.297Z</time></trkpt><trkpt lat="58.58515667" lon="14.93021333"><ele>118.0</ele><time>2016-06-18T12:01:35.319Z</time></trkpt><trkpt lat="58.58504" lon="14.93019833"><ele>119.0</ele><time>2016-06-18T12:01:36.282Z</time></trkpt><trkpt lat="58.58504" lon="14.93019833"><ele>119.0</ele><time>2016-06-18T12:01:37.300Z</time></trkpt><trkpt lat="58.58490833" lon="14.93017167"><ele>119.0</ele><time>2016-06-18T12:01:38.309Z</time></trkpt><trkpt lat="58.58490833" lon="14.93017167"><ele>119.0</ele><time>2016-06-18T12:01:39.291Z</time></trkpt><trkpt lat="58.58478667" lon="14.93015167"><ele>119.0</ele><time>2016-06-18T12:01:40.283Z</time></trkpt><trkpt lat="58.58478667" lon="14.93015167"><ele>119.0</ele><time>2016-06-18T12:01:41.290Z</time></trkpt><trkpt lat="58.58466" lon="14.93012167"><ele>119.0</ele><time>2016-06-18T12:01:42.302Z</time></trkpt><trkpt lat="58.58466" lon="14.93012167"><ele>119.0</ele><time>2016-06-18T12:01:43.285Z</time></trkpt><trkpt lat="58.58453167" lon="14.93008833"><ele>120.0</ele><time>2016-06-18T12:01:44.322Z</time></trkpt><trkpt lat="58.58453167" lon="14.93008833"><ele>120.0</ele><time>2016-06-18T12:01:45.308Z</time></trkpt><trkpt lat="58.58440667" lon="14.93005667"><ele>120.0</ele><time>2016-06-18T12:01:46.315Z</time></trkpt><trkpt lat="58.584335" lon="14.93004167"><ele>120.0</ele><time>2016-06-18T12:01:47.303Z</time></trkpt><trkpt lat="58.58427" lon="14.93002667"><ele>120.0</ele><time>2016-06-18T12:01:48.319Z</time></trkpt><trkpt lat="58.58427" lon="14.93002667"><ele>120.0</ele><time>2016-06-18T12:01:49.304Z</time></trkpt><trkpt lat="58.58413167" lon="14.93"><ele>120.0</ele><time>2016-06-18T12:01:50.311Z</time></trkpt><trkpt lat="58.58413167" lon="14.93"><ele>120.0</ele><time>2016-06-18T12:01:51.294Z</time></trkpt><trkpt lat="58.583995" lon="14.92997833"><ele>121.0</ele><time>2016-06-18T12:01:52.311Z</time></trkpt><trkpt lat="58.583995" lon="14.92997833"><ele>121.0</ele><time>2016-06-18T12:01:53.321Z</time></trkpt><trkpt lat="58.58386167" lon="14.92996"><ele>121.0</ele><time>2016-06-18T12:01:54.286Z</time></trkpt><trkpt lat="58.58386167" lon="14.92996"><ele>121.0</ele><time>2016-06-18T12:01:55.302Z</time></trkpt><trkpt lat="58.58372833" lon="14.92993167"><ele>121.0</ele><time>2016-06-18T12:01:56.311Z</time></trkpt><trkpt lat="58.58372833" lon="14.92993167"><ele>121.0</ele><time>2016-06-18T12:01:57.296Z</time></trkpt><trkpt lat="58.58360333" lon="14.92989667"><ele>122.0</ele><time>2016-06-18T12:01:58.317Z</time></trkpt><trkpt lat="58.58353667" lon="14.92988167"><ele>122.0</ele><time>2016-06-18T12:01:59.305Z</time></trkpt><trkpt lat="58.58353667" lon="14.92988167"><ele>122.0</ele><time>2016-06-18T12:02:00.289Z</time></trkpt><trkpt lat="58.5834" lon="14.92986167"><ele>122.0</ele><time>2016-06-18T12:02:01.296Z</time></trkpt><trkpt lat="58.5834" lon="14.92986167"><ele>122.0</ele><time>2016-06-18T12:02:02.318Z</time></trkpt><trkpt lat="58.58326" lon="14.92984"><ele>122.0</ele><time>2016-06-18T12:02:03.303Z</time></trkpt><trkpt lat="58.58326" lon="14.92984"><ele>122.0</ele><time>2016-06-18T12:02:04.316Z</time></trkpt><trkpt lat="58.58312167" lon="14.92981167"><ele>122.0</ele><time>2016-06-18T12:02:05.283Z</time></trkpt><trkpt lat="58.58312167" lon="14.92981167"><ele>122.0</ele><time>2016-06-18T12:02:06.305Z</time></trkpt><trkpt lat="58.58298333" lon="14.92978833"><ele>122.0</ele><time>2016-06-18T12:02:07.285Z</time></trkpt><trkpt lat="58.58298333" lon="14.92978833"><ele>122.0</ele><time>2016-06-18T12:02:08.288Z</time></trkpt><trkpt lat="58.58284167" lon="14.92975833"><ele>122.0</ele><time>2016-06-18T12:02:09.306Z</time></trkpt><trkpt lat="58.58277167" lon="14.92974"><ele>122.0</ele><time>2016-06-18T12:02:10.282Z</time></trkpt><trkpt lat="58.58277167" lon="14.92974"><ele>122.0</ele><time>2016-06-18T12:02:11.289Z</time></trkpt><trkpt lat="58.58263333" lon="14.92970667"><ele>122.0</ele><time>2016-06-18T12:02:12.318Z</time></trkpt><trkpt lat="58.58256333" lon="14.92968833"><ele>122.0</ele><time>2016-06-18T12:02:13.319Z</time></trkpt><trkpt lat="58.58256333" lon="14.92968833"><ele>122.0</ele><time>2016-06-18T12:02:14.302Z</time></trkpt><trkpt lat="58.582425" lon="14.92964667"><ele>122.0</ele><time>2016-06-18T12:02:15.309Z</time></trkpt><trkpt lat="58.582425" lon="14.92964667"><ele>122.0</ele><time>2016-06-18T12:02:16.297Z</time></trkpt><trkpt lat="58.582285" lon="14.92961167"><ele>122.0</ele><time>2016-06-18T12:02:17.315Z</time></trkpt><trkpt lat="58.58221833" lon="14.92959"><ele>121.0</ele><time>2016-06-18T12:02:18.310Z</time></trkpt><trkpt lat="58.58221833" lon="14.92959"><ele>121.0</ele><time>2016-06-18T12:02:19.300Z</time></trkpt><trkpt lat="58.58208333" lon="14.92957667"><ele>121.0</ele><time>2016-06-18T12:02:20.303Z</time></trkpt><trkpt lat="58.58208333" lon="14.92957667"><ele>121.0</ele><time>2016-06-18T12:02:21.310Z</time></trkpt><trkpt lat="58.58194667" lon="14.92958"><ele>120.0</ele><time>2016-06-18T12:02:22.317Z</time></trkpt><trkpt lat="58.58187667" lon="14.92958333"><ele>120.0</ele><time>2016-06-18T12:02:23.297Z</time></trkpt><trkpt lat="58.58187667" lon="14.92958333"><ele>120.0</ele><time>2016-06-18T12:02:24.306Z</time></trkpt><trkpt lat="58.58173833" lon="14.92960167"><ele>120.0</ele><time>2016-06-18T12:02:25.317Z</time></trkpt><trkpt lat="58.58173833" lon="14.92960167"><ele>120.0</ele><time>2016-06-18T12:02:26.298Z</time></trkpt><trkpt lat="58.58160333" lon="14.92963333"><ele>119.0</ele><time>2016-06-18T12:02:27.307Z</time></trkpt><trkpt lat="58.58160333" lon="14.92963333"><ele>119.0</ele><time>2016-06-18T12:02:28.288Z</time></trkpt><trkpt lat="58.58147" lon="14.92967167"><ele>119.0</ele><time>2016-06-18T12:02:29.308Z</time></trkpt><trkpt lat="58.58147" lon="14.92967167"><ele>119.0</ele><time>2016-06-18T12:02:30.287Z</time></trkpt><trkpt lat="58.58133" lon="14.92972833"><ele>119.0</ele><time>2016-06-18T12:02:31.301Z</time></trkpt><trkpt lat="58.58133" lon="14.92972833"><ele>119.0</ele><time>2016-06-18T12:02:32.282Z</time></trkpt><trkpt lat="58.58119" lon="14.92981"><ele>118.0</ele><time>2016-06-18T12:02:33.312Z</time></trkpt><trkpt lat="58.58119" lon="14.92981"><ele>118.0</ele><time>2016-06-18T12:02:34.319Z</time></trkpt><trkpt lat="58.58104667" lon="14.92991"><ele>117.0</ele><time>2016-06-18T12:02:35.308Z</time></trkpt><trkpt lat="58.58104667" lon="14.92991"><ele>117.0</ele><time>2016-06-18T12:02:36.299Z</time></trkpt><trkpt lat="58.580905" lon="14.93004"><ele>116.0</ele><time>2016-06-18T12:02:37.289Z</time></trkpt><trkpt lat="58.58083" lon="14.93012"><ele>116.0</ele><time>2016-06-18T12:02:38.297Z</time></trkpt><trkpt lat="58.58083" lon="14.93012"><ele>116.0</ele><time>2016-06-18T12:02:39.317Z</time></trkpt><trkpt lat="58.58068" lon="14.93030833"><ele>115.0</ele><time>2016-06-18T12:02:40.293Z</time></trkpt><trkpt lat="58.58068" lon="14.93030833"><ele>115.0</ele><time>2016-06-18T12:02:41.289Z</time></trkpt><trkpt lat="58.58053333" lon="14.93051667"><ele>115.0</ele><time>2016-06-18T12:02:42.316Z</time></trkpt><trkpt lat="58.58053333" lon="14.93051667"><ele>115.0</ele><time>2016-06-18T12:02:43.308Z</time></trkpt><trkpt lat="58.58038833" lon="14.93071167"><ele>114.0</ele><time>2016-06-18T12:02:44.288Z</time></trkpt><trkpt lat="58.58032833" lon="14.930815"><ele>114.0</ele><time>2016-06-18T12:02:45.315Z</time></trkpt><trkpt lat="58.58032833" lon="14.930815"><ele>114.0</ele><time>2016-06-18T12:02:46.299Z</time></trkpt><trkpt lat="58.58019667" lon="14.93100667"><ele>114.0</ele><time>2016-06-18T12:02:47.305Z</time></trkpt><trkpt lat="58.58019667" lon="14.93100667"><ele>114.0</ele><time>2016-06-18T12:02:48.287Z</time></trkpt><trkpt lat="58.58006167" lon="14.93119333"><ele>114.0</ele><time>2016-06-18T12:02:49.284Z</time></trkpt><trkpt lat="58.58006167" lon="14.93119333"><ele>114.0</ele><time>2016-06-18T12:02:50.289Z</time></trkpt><trkpt lat="58.57993833" lon="14.93139167"><ele>114.0</ele><time>2016-06-18T12:02:51.300Z</time></trkpt><trkpt lat="58.57988167" lon="14.93148"><ele>114.0</ele><time>2016-06-18T12:02:52.286Z</time></trkpt><trkpt lat="58.57988167" lon="14.93148"><ele>114.0</ele><time>2016-06-18T12:02:53.309Z</time></trkpt><trkpt lat="58.579765" lon="14.93164333"><ele>113.0</ele><time>2016-06-18T12:02:54.316Z</time></trkpt><trkpt lat="58.579765" lon="14.93164333"><ele>113.0</ele><time>2016-06-18T12:02:55.320Z</time></trkpt><trkpt lat="58.57963833" lon="14.93181"><ele>113.0</ele><time>2016-06-18T12:02:56.286Z</time></trkpt><trkpt lat="58.57963833" lon="14.93181"><ele>113.0</ele><time>2016-06-18T12:02:57.308Z</time></trkpt><trkpt lat="58.57950833" lon="14.93198167"><ele>113.0</ele><time>2016-06-18T12:02:58.284Z</time></trkpt><trkpt lat="58.57950833" lon="14.93198167"><ele>113.0</ele><time>2016-06-18T12:02:59.320Z</time></trkpt><trkpt lat="58.57939833" lon="14.93215667"><ele>113.0</ele><time>2016-06-18T12:03:00.288Z</time></trkpt><trkpt lat="58.57939833" lon="14.93215667"><ele>113.0</ele><time>2016-06-18T12:03:01.289Z</time></trkpt><trkpt lat="58.57928167" lon="14.93234167"><ele>113.0</ele><time>2016-06-18T12:03:02.304Z</time></trkpt><trkpt lat="58.57922667" lon="14.93243167"><ele>113.0</ele><time>2016-06-18T12:03:03.288Z</time></trkpt><trkpt lat="58.57922667" lon="14.93243167"><ele>113.0</ele><time>2016-06-18T12:03:04.309Z</time></trkpt><trkpt lat="58.57911333" lon="14.93259667"><ele>113.0</ele><time>2016-06-18T12:03:05.316Z</time></trkpt><trkpt lat="58.57911333" lon="14.93259667"><ele>113.0</ele><time>2016-06-18T12:03:06.299Z</time></trkpt><trkpt lat="58.57900667" lon="14.93277667"><ele>113.0</ele><time>2016-06-18T12:03:07.318Z</time></trkpt><trkpt lat="58.57894167" lon="14.93286"><ele>113.0</ele><time>2016-06-18T12:03:08.315Z</time></trkpt><trkpt lat="58.57894167" lon="14.93286"><ele>113.0</ele><time>2016-06-18T12:03:09.299Z</time></trkpt><trkpt lat="58.578815" lon="14.93303667"><ele>113.0</ele><time>2016-06-18T12:03:10.293Z</time></trkpt><trkpt lat="58.578815" lon="14.93303667"><ele>113.0</ele><time>2016-06-18T12:03:11.299Z</time></trkpt><trkpt lat="58.578695" lon="14.93322167"><ele>113.0</ele><time>2016-06-18T12:03:12.296Z</time></trkpt><trkpt lat="58.57862833" lon="14.93333"><ele>113.0</ele><time>2016-06-18T12:03:13.282Z</time></trkpt><trkpt lat="58.57862833" lon="14.93333"><ele>113.0</ele><time>2016-06-18T12:03:14.306Z</time></trkpt><trkpt lat="58.578505" lon="14.93353333"><ele>113.0</ele><time>2016-06-18T12:03:15.294Z</time></trkpt><trkpt lat="58.578505" lon="14.93353333"><ele>113.0</ele><time>2016-06-18T12:03:16.289Z</time></trkpt><trkpt lat="58.578375" lon="14.93371833"><ele>112.0</ele><time>2016-06-18T12:03:17.296Z</time></trkpt><trkpt lat="58.57831" lon="14.933815"><ele>112.0</ele><time>2016-06-18T12:03:18.292Z</time></trkpt><trkpt lat="58.57831" lon="14.933815"><ele>112.0</ele><time>2016-06-18T12:03:19.310Z</time></trkpt><trkpt lat="58.57817167" lon="14.934"><ele>113.0</ele><time>2016-06-18T12:03:20.316Z</time></trkpt><trkpt lat="58.57817167" lon="14.934"><ele>113.0</ele><time>2016-06-18T12:03:21.319Z</time></trkpt><trkpt lat="58.57804667" lon="14.934185"><ele>114.0</ele><time>2016-06-18T12:03:22.369Z</time></trkpt><trkpt lat="58.57804667" lon="14.934185"><ele>114.0</ele><time>2016-06-18T12:03:23.298Z</time></trkpt><trkpt lat="58.57791167" lon="14.93438333"><ele>113.0</ele><time>2016-06-18T12:03:24.300Z</time></trkpt><trkpt lat="58.57785333" lon="14.93448833"><ele>114.0</ele><time>2016-06-18T12:03:25.311Z</time></trkpt><trkpt lat="58.57785333" lon="14.93448833"><ele>114.0</ele><time>2016-06-18T12:03:26.298Z</time></trkpt><trkpt lat="58.57771167" lon="14.93470667"><ele>115.0</ele><time>2016-06-18T12:03:27.306Z</time></trkpt><trkpt lat="58.57771167" lon="14.93470667"><ele>115.0</ele><time>2016-06-18T12:03:28.318Z</time></trkpt><trkpt lat="58.57761" lon="14.93496333"><ele>115.0</ele><time>2016-06-18T12:03:29.285Z</time></trkpt><trkpt lat="58.57761" lon="14.93496333"><ele>115.0</ele><time>2016-06-18T12:03:30.308Z</time></trkpt><trkpt lat="58.57753167" lon="14.93525333"><ele>116.0</ele><time>2016-06-18T12:03:31.323Z</time></trkpt><trkpt lat="58.57749833" lon="14.935405"><ele>117.0</ele><time>2016-06-18T12:03:32.307Z</time></trkpt><trkpt lat="58.57749833" lon="14.935405"><ele>117.0</ele><time>2016-06-18T12:03:33.289Z</time></trkpt><trkpt lat="58.577435" lon="14.935715"><ele>117.0</ele><time>2016-06-18T12:03:34.299Z</time></trkpt><trkpt lat="58.577435" lon="14.935715"><ele>117.0</ele><time>2016-06-18T12:03:35.311Z</time></trkpt><trkpt lat="58.57737167" lon="14.93602667"><ele>118.0</ele><time>2016-06-18T12:03:36.319Z</time></trkpt><trkpt lat="58.57737167" lon="14.93602667"><ele>118.0</ele><time>2016-06-18T12:03:37.301Z</time></trkpt><trkpt lat="58.57730833" lon="14.93635"><ele>118.0</ele><time>2016-06-18T12:03:38.295Z</time></trkpt><trkpt lat="58.57730833" lon="14.93635"><ele>118.0</ele><time>2016-06-18T12:03:39.309Z</time></trkpt><trkpt lat="58.577255" lon="14.93668"><ele>118.0</ele><time>2016-06-18T12:03:40.316Z</time></trkpt><trkpt lat="58.577255" lon="14.93668"><ele>118.0</ele><time>2016-06-18T12:03:41.300Z</time></trkpt><trkpt lat="58.577225" lon="14.937025"><ele>118.0</ele><time>2016-06-18T12:03:42.283Z</time></trkpt><trkpt lat="58.577225" lon="14.937025"><ele>118.0</ele><time>2016-06-18T12:03:43.302Z</time></trkpt><trkpt lat="58.577225" lon="14.93738333"><ele>118.0</ele><time>2016-06-18T12:03:44.314Z</time></trkpt><trkpt lat="58.577225" lon="14.93738333"><ele>118.0</ele><time>2016-06-18T12:03:45.314Z</time></trkpt><trkpt lat="58.577235" lon="14.93774333"><ele>118.0</ele><time>2016-06-18T12:03:46.285Z</time></trkpt><trkpt lat="58.577235" lon="14.93774333"><ele>118.0</ele><time>2016-06-18T12:03:47.304Z</time></trkpt><trkpt lat="58.57723833" lon="14.93809667"><ele>118.0</ele><time>2016-06-18T12:03:48.310Z</time></trkpt><trkpt lat="58.57723833" lon="14.93809667"><ele>118.0</ele><time>2016-06-18T12:03:49.293Z</time></trkpt><trkpt lat="58.57724167" lon="14.93845"><ele>118.0</ele><time>2016-06-18T12:03:50.293Z</time></trkpt><trkpt lat="58.57724167" lon="14.93845"><ele>118.0</ele><time>2016-06-18T12:03:51.309Z</time></trkpt><trkpt lat="58.57724333" lon="14.93880167"><ele>118.0</ele><time>2016-06-18T12:03:52.316Z</time></trkpt><trkpt lat="58.57724333" lon="14.93880167"><ele>118.0</ele><time>2016-06-18T12:03:53.300Z</time></trkpt><trkpt lat="58.57723333" lon="14.93915167"><ele>118.0</ele><time>2016-06-18T12:03:54.284Z</time></trkpt><trkpt lat="58.57722833" lon="14.939325"><ele>118.0</ele><time>2016-06-18T12:03:55.311Z</time></trkpt><trkpt lat="58.57722833" lon="14.939325"><ele>118.0</ele><time>2016-06-18T12:03:56.292Z</time></trkpt><trkpt lat="58.57721333" lon="14.93967167"><ele>118.0</ele><time>2016-06-18T12:03:57.294Z</time></trkpt><trkpt lat="58.57721333" lon="14.93967167"><ele>118.0</ele><time>2016-06-18T12:03:58.309Z</time></trkpt><trkpt lat="58.577195" lon="14.94002333"><ele>118.0</ele><time>2016-06-18T12:03:59.318Z</time></trkpt><trkpt lat="58.577185" lon="14.94019833"><ele>118.0</ele><time>2016-06-18T12:04:00.303Z</time></trkpt><trkpt lat="58.577185" lon="14.94019833"><ele>118.0</ele><time>2016-06-18T12:04:01.284Z</time></trkpt><trkpt lat="58.57715667" lon="14.940545"><ele>117.0</ele><time>2016-06-18T12:04:02.304Z</time></trkpt><trkpt lat="58.57715667" lon="14.940545"><ele>117.0</ele><time>2016-06-18T12:04:03.297Z</time></trkpt><trkpt lat="58.57712167" lon="14.94090167"><ele>117.0</ele><time>2016-06-18T12:04:04.304Z</time></trkpt><trkpt lat="58.57712167" lon="14.94090167"><ele>117.0</ele><time>2016-06-18T12:04:05.289Z</time></trkpt><trkpt lat="58.57710667" lon="14.94122833"><ele>116.0</ele><time>2016-06-18T12:04:06.298Z</time></trkpt><trkpt lat="58.57710667" lon="14.94122833"><ele>116.0</ele><time>2016-06-18T12:04:07.285Z</time></trkpt><trkpt lat="58.57708333" lon="14.94154667"><ele>117.0</ele><time>2016-06-18T12:04:08.292Z</time></trkpt><trkpt lat="58.57708333" lon="14.94154667"><ele>117.0</ele><time>2016-06-18T12:04:09.315Z</time></trkpt><trkpt lat="58.57706333" lon="14.94185667"><ele>117.0</ele><time>2016-06-18T12:04:10.295Z</time></trkpt><trkpt lat="58.57706333" lon="14.94185667"><ele>117.0</ele><time>2016-06-18T12:04:11.319Z</time></trkpt><trkpt lat="58.57704833" lon="14.94216"><ele>117.0</ele><time>2016-06-18T12:04:12.318Z</time></trkpt><trkpt lat="58.57704167" lon="14.94231"><ele>117.0</ele><time>2016-06-18T12:04:13.287Z</time></trkpt><trkpt lat="58.57704167" lon="14.94231"><ele>117.0</ele><time>2016-06-18T12:04:14.310Z</time></trkpt><trkpt lat="58.57701667" lon="14.94261"><ele>118.0</ele><time>2016-06-18T12:04:15.317Z</time></trkpt><trkpt lat="58.57701667" lon="14.94261"><ele>118.0</ele><time>2016-06-18T12:04:16.299Z</time></trkpt><trkpt lat="58.57698" lon="14.94290167"><ele>118.0</ele><time>2016-06-18T12:04:17.295Z</time></trkpt><trkpt lat="58.57698" lon="14.94290167"><ele>118.0</ele><time>2016-06-18T12:04:18.321Z</time></trkpt><trkpt lat="58.576935" lon="14.94320167"><ele>119.0</ele><time>2016-06-18T12:04:19.287Z</time></trkpt><trkpt lat="58.576935" lon="14.94320167"><ele>119.0</ele><time>2016-06-18T12:04:20.357Z</time></trkpt><trkpt lat="58.57691333" lon="14.94334833"><ele>119.0</ele><time>2016-06-18T12:04:21.297Z</time></trkpt><trkpt lat="58.57686167" lon="14.943645"><ele>120.0</ele><time>2016-06-18T12:04:22.304Z</time></trkpt><trkpt lat="58.57686167" lon="14.943645"><ele>120.0</ele><time>2016-06-18T12:04:23.286Z</time></trkpt><trkpt lat="58.57682333" lon="14.94394167"><ele>120.0</ele><time>2016-06-18T12:04:24.302Z</time></trkpt><trkpt lat="58.5768" lon="14.94409333"><ele>120.0</ele><time>2016-06-18T12:04:25.289Z</time></trkpt><trkpt lat="58.57678" lon="14.944245"><ele>121.0</ele><time>2016-06-18T12:04:26.291Z</time></trkpt><trkpt lat="58.57678" lon="14.944245"><ele>121.0</ele><time>2016-06-18T12:04:27.313Z</time></trkpt><trkpt lat="58.57673667" lon="14.944555"><ele>121.0</ele><time>2016-06-18T12:04:28.319Z</time></trkpt><trkpt lat="58.57673667" lon="14.944555"><ele>121.0</ele><time>2016-06-18T12:04:29.302Z</time></trkpt><trkpt lat="58.57670167" lon="14.94487"><ele>121.0</ele><time>2016-06-18T12:04:30.309Z</time></trkpt><trkpt lat="58.57670167" lon="14.94487"><ele>121.0</ele><time>2016-06-18T12:04:31.321Z</time></trkpt><trkpt lat="58.57669" lon="14.94519333"><ele>121.0</ele><time>2016-06-18T12:04:32.287Z</time></trkpt><trkpt lat="58.57669" lon="14.94519333"><ele>121.0</ele><time>2016-06-18T12:04:33.309Z</time></trkpt><trkpt lat="58.57668833" lon="14.94554833"><ele>121.0</ele><time>2016-06-18T12:04:34.311Z</time></trkpt><trkpt lat="58.57669167" lon="14.945735"><ele>121.0</ele><time>2016-06-18T12:04:35.318Z</time></trkpt><trkpt lat="58.57669167" lon="14.945735"><ele>121.0</ele><time>2016-06-18T12:04:36.299Z</time></trkpt><trkpt lat="58.57670167" lon="14.94613333"><ele>121.0</ele><time>2016-06-18T12:04:37.313Z</time></trkpt><trkpt lat="58.57670167" lon="14.94613333"><ele>121.0</ele><time>2016-06-18T12:04:38.302Z</time></trkpt><trkpt lat="58.576715" lon="14.94653333"><ele>120.0</ele><time>2016-06-18T12:04:39.310Z</time></trkpt><trkpt lat="58.57672167" lon="14.94672833"><ele>120.0</ele><time>2016-06-18T12:04:40.290Z</time></trkpt><trkpt lat="58.57672167" lon="14.94672833"><ele>120.0</ele><time>2016-06-18T12:04:41.314Z</time></trkpt><trkpt lat="58.57673833" lon="14.94711167"><ele>120.0</ele><time>2016-06-18T12:04:42.321Z</time></trkpt><trkpt lat="58.57673833" lon="14.94711167"><ele>120.0</ele><time>2016-06-18T12:04:43.289Z</time></trkpt><trkpt lat="58.57675333" lon="14.94748833"><ele>119.0</ele><time>2016-06-18T12:04:44.301Z</time></trkpt><trkpt lat="58.57675333" lon="14.94748833"><ele>119.0</ele><time>2016-06-18T12:04:45.282Z</time></trkpt><trkpt lat="58.57677" lon="14.94785333"><ele>119.0</ele><time>2016-06-18T12:04:46.294Z</time></trkpt><trkpt lat="58.57677" lon="14.94785333"><ele>119.0</ele><time>2016-06-18T12:04:47.302Z</time></trkpt><trkpt lat="58.57678333" lon="14.948215"><ele>119.0</ele><time>2016-06-18T12:04:48.312Z</time></trkpt><trkpt lat="58.57678333" lon="14.948215"><ele>119.0</ele><time>2016-06-18T12:04:49.297Z</time></trkpt><trkpt lat="58.57679333" lon="14.94857"><ele>118.0</ele><time>2016-06-18T12:04:50.305Z</time></trkpt><trkpt lat="58.57679333" lon="14.94857"><ele>118.0</ele><time>2016-06-18T12:04:51.305Z</time></trkpt><trkpt lat="58.576805" lon="14.94892667"><ele>118.0</ele><time>2016-06-18T12:04:52.312Z</time></trkpt><trkpt lat="58.576805" lon="14.94892667"><ele>118.0</ele><time>2016-06-18T12:04:53.299Z</time></trkpt><trkpt lat="58.57681833" lon="14.94928833"><ele>117.0</ele><time>2016-06-18T12:04:54.309Z</time></trkpt><trkpt lat="58.57682333" lon="14.94946167"><ele>117.0</ele><time>2016-06-18T12:04:55.293Z</time></trkpt><trkpt lat="58.57683333" lon="14.94963833"><ele>117.0</ele><time>2016-06-18T12:04:56.305Z</time></trkpt><trkpt lat="58.57683333" lon="14.94963833"><ele>117.0</ele><time>2016-06-18T12:04:57.290Z</time></trkpt><trkpt lat="58.57685667" lon="14.94999"><ele>117.0</ele><time>2016-06-18T12:04:58.299Z</time></trkpt><trkpt lat="58.57685667" lon="14.94999"><ele>117.0</ele><time>2016-06-18T12:04:59.282Z</time></trkpt><trkpt lat="58.57689667" lon="14.95034"><ele>117.0</ele><time>2016-06-18T12:05:00.298Z</time></trkpt><trkpt lat="58.57689667" lon="14.95034"><ele>117.0</ele><time>2016-06-18T12:05:01.321Z</time></trkpt><trkpt lat="58.576945" lon="14.95067833"><ele>117.0</ele><time>2016-06-18T12:05:02.285Z</time></trkpt><trkpt lat="58.576945" lon="14.95067833"><ele>117.0</ele><time>2016-06-18T12:05:03.304Z</time></trkpt><trkpt lat="58.577005" lon="14.95100833"><ele>116.0</ele><time>2016-06-18T12:05:04.311Z</time></trkpt><trkpt lat="58.57703333" lon="14.95116833"><ele>116.0</ele><time>2016-06-18T12:05:05.284Z</time></trkpt><trkpt lat="58.57703333" lon="14.95116833"><ele>116.0</ele><time>2016-06-18T12:05:06.313Z</time></trkpt><trkpt lat="58.57708667" lon="14.95147667"><ele>116.0</ele><time>2016-06-18T12:05:07.288Z</time></trkpt><trkpt lat="58.57711167" lon="14.95161833"><ele>116.0</ele><time>2016-06-18T12:05:08.311Z</time></trkpt><trkpt lat="58.57711167" lon="14.95161833"><ele>116.0</ele><time>2016-06-18T12:05:09.297Z</time></trkpt><trkpt lat="58.577165" lon="14.95192667"><ele>116.0</ele><time>2016-06-18T12:05:10.304Z</time></trkpt><trkpt lat="58.577165" lon="14.95192667"><ele>116.0</ele><time>2016-06-18T12:05:11.298Z</time></trkpt><trkpt lat="58.57721667" lon="14.95225167"><ele>115.0</ele><time>2016-06-18T12:05:12.298Z</time></trkpt><trkpt lat="58.57723667" lon="14.95241667"><ele>115.0</ele><time>2016-06-18T12:05:13.289Z</time></trkpt><trkpt lat="58.57726333" lon="14.95257833"><ele>115.0</ele><time>2016-06-18T12:05:14.311Z</time></trkpt><trkpt lat="58.57726333" lon="14.95257833"><ele>115.0</ele><time>2016-06-18T12:05:15.299Z</time></trkpt><trkpt lat="58.57731333" lon="14.95287833"><ele>115.0</ele><time>2016-06-18T12:05:16.309Z</time></trkpt><trkpt lat="58.57731333" lon="14.95287833"><ele>115.0</ele><time>2016-06-18T12:05:17.373Z</time></trkpt><trkpt lat="58.57733833" lon="14.953025"><ele>115.0</ele><time>2016-06-18T12:05:18.315Z</time></trkpt><trkpt lat="58.57738" lon="14.95332"><ele>115.0</ele><time>2016-06-18T12:05:19.284Z</time></trkpt><trkpt lat="58.57738" lon="14.95332"><ele>115.0</ele><time>2016-06-18T12:05:20.306Z</time></trkpt><trkpt lat="58.57742833" lon="14.95363"><ele>114.0</ele><time>2016-06-18T12:05:21.313Z</time></trkpt><trkpt lat="58.57742833" lon="14.95363"><ele>114.0</ele><time>2016-06-18T12:05:22.296Z</time></trkpt><trkpt lat="58.57748833" lon="14.95394667"><ele>114.0</ele><time>2016-06-18T12:05:23.313Z</time></trkpt><trkpt lat="58.57748833" lon="14.95394667"><ele>114.0</ele><time>2016-06-18T12:05:24.286Z</time></trkpt><trkpt lat="58.57755333" lon="14.954275"><ele>114.0</ele><time>2016-06-18T12:05:25.299Z</time></trkpt><trkpt lat="58.57759" lon="14.95444"><ele>114.0</ele><time>2016-06-18T12:05:26.285Z</time></trkpt><trkpt lat="58.57759" lon="14.95444"><ele>114.0</ele><time>2016-06-18T12:05:27.308Z</time></trkpt><trkpt lat="58.57764" lon="14.954785"><ele>114.0</ele><time>2016-06-18T12:05:28.315Z</time></trkpt><trkpt lat="58.57767167" lon="14.954955"><ele>113.0</ele><time>2016-06-18T12:05:29.288Z</time></trkpt><trkpt lat="58.57767167" lon="14.954955"><ele>113.0</ele><time>2016-06-18T12:05:30.310Z</time></trkpt><trkpt lat="58.57775" lon="14.955275"><ele>113.0</ele><time>2016-06-18T12:05:31.321Z</time></trkpt><trkpt lat="58.57779833" lon="14.95542167"><ele>114.0</ele><time>2016-06-18T12:05:32.300Z</time></trkpt><trkpt lat="58.57779833" lon="14.95542167"><ele>114.0</ele><time>2016-06-18T12:05:33.321Z</time></trkpt><trkpt lat="58.57788667" lon="14.95571167"><ele>114.0</ele><time>2016-06-18T12:05:34.298Z</time></trkpt><trkpt lat="58.57793167" lon="14.95585333"><ele>114.0</ele><time>2016-06-18T12:05:35.294Z</time></trkpt><trkpt lat="58.57793167" lon="14.95585333"><ele>114.0</ele><time>2016-06-18T12:05:36.316Z</time></trkpt><trkpt lat="58.57802167" lon="14.95612333"><ele>114.0</ele><time>2016-06-18T12:05:37.282Z</time></trkpt><trkpt lat="58.57802167" lon="14.95612333"><ele>114.0</ele><time>2016-06-18T12:05:38.305Z</time></trkpt><trkpt lat="58.57810833" lon="14.956385"><ele>115.0</ele><time>2016-06-18T12:05:39.286Z</time></trkpt><trkpt lat="58.57810833" lon="14.956385"><ele>115.0</ele><time>2016-06-18T12:05:40.321Z</time></trkpt><trkpt lat="58.57819" lon="14.95664833"><ele>115.0</ele><time>2016-06-18T12:05:41.291Z</time></trkpt><trkpt lat="58.57819" lon="14.95664833"><ele>115.0</ele><time>2016-06-18T12:05:42.313Z</time></trkpt><trkpt lat="58.57827333" lon="14.95691167"><ele>116.0</ele><time>2016-06-18T12:05:43.285Z</time></trkpt><trkpt lat="58.57827333" lon="14.95691167"><ele>116.0</ele><time>2016-06-18T12:05:44.312Z</time></trkpt><trkpt lat="58.57835667" lon="14.95717167"><ele>116.0</ele><time>2016-06-18T12:05:45.319Z</time></trkpt><trkpt lat="58.578395" lon="14.95730167"><ele>116.0</ele><time>2016-06-18T12:05:46.293Z</time></trkpt><trkpt lat="58.578395" lon="14.95730167"><ele>116.0</ele><time>2016-06-18T12:05:47.287Z</time></trkpt><trkpt lat="58.57847333" lon="14.95756333"><ele>117.0</ele><time>2016-06-18T12:05:48.305Z</time></trkpt><trkpt lat="58.57847333" lon="14.95756333"><ele>117.0</ele><time>2016-06-18T12:05:49.286Z</time></trkpt><trkpt lat="58.57854833" lon="14.95783"><ele>117.0</ele><time>2016-06-18T12:05:50.284Z</time></trkpt><trkpt lat="58.57854833" lon="14.95783"><ele>117.0</ele><time>2016-06-18T12:05:51.311Z</time></trkpt><trkpt lat="58.57861833" lon="14.958105"><ele>118.0</ele><time>2016-06-18T12:05:52.288Z</time></trkpt><trkpt lat="58.57861833" lon="14.958105"><ele>118.0</ele><time>2016-06-18T12:05:53.308Z</time></trkpt><trkpt lat="58.578685" lon="14.95838667"><ele>118.0</ele><time>2016-06-18T12:05:54.284Z</time></trkpt><trkpt lat="58.57872167" lon="14.95853167"><ele>118.0</ele><time>2016-06-18T12:05:55.320Z</time></trkpt><trkpt lat="58.57872167" lon="14.95853167"><ele>118.0</ele><time>2016-06-18T12:05:56.308Z</time></trkpt><trkpt lat="58.57879167" lon="14.95882"><ele>118.0</ele><time>2016-06-18T12:05:57.286Z</time></trkpt><trkpt lat="58.57882667" lon="14.95896167"><ele>118.0</ele><time>2016-06-18T12:05:58.310Z</time></trkpt><trkpt lat="58.57882667" lon="14.95896167"><ele>118.0</ele><time>2016-06-18T12:05:59.298Z</time></trkpt><trkpt lat="58.578895" lon="14.95923833"><ele>118.0</ele><time>2016-06-18T12:06:00.305Z</time></trkpt><trkpt lat="58.578895" lon="14.95923833"><ele>118.0</ele><time>2016-06-18T12:06:01.310Z</time></trkpt><trkpt lat="58.57896333" lon="14.9595"><ele>118.0</ele><time>2016-06-18T12:06:02.316Z</time></trkpt><trkpt lat="58.57899667" lon="14.95963167"><ele>119.0</ele><time>2016-06-18T12:06:03.323Z</time></trkpt><trkpt lat="58.57899667" lon="14.95963167"><ele>119.0</ele><time>2016-06-18T12:06:04.292Z</time></trkpt><trkpt lat="58.579055" lon="14.95990333"><ele>119.0</ele><time>2016-06-18T12:06:05.306Z</time></trkpt><trkpt lat="58.579055" lon="14.95990333"><ele>119.0</ele><time>2016-06-18T12:06:06.289Z</time></trkpt><trkpt lat="58.579105" lon="14.96019667"><ele>119.0</ele><time>2016-06-18T12:06:07.284Z</time></trkpt><trkpt lat="58.57912833" lon="14.96035667"><ele>119.0</ele><time>2016-06-18T12:06:08.294Z</time></trkpt><trkpt lat="58.57912833" lon="14.96035667"><ele>119.0</ele><time>2016-06-18T12:06:09.316Z</time></trkpt><trkpt lat="58.57916833" lon="14.960675"><ele>119.0</ele><time>2016-06-18T12:06:10.283Z</time></trkpt><trkpt lat="58.57916833" lon="14.960675"><ele>119.0</ele><time>2016-06-18T12:06:11.289Z</time></trkpt><trkpt lat="58.5792" lon="14.96099333"><ele>119.0</ele><time>2016-06-18T12:06:12.317Z</time></trkpt><trkpt lat="58.5792" lon="14.96099333"><ele>119.0</ele><time>2016-06-18T12:06:13.303Z</time></trkpt><trkpt lat="58.57922167" lon="14.96132"><ele>119.0</ele><time>2016-06-18T12:06:14.312Z</time></trkpt><trkpt lat="58.57922167" lon="14.96132"><ele>119.0</ele><time>2016-06-18T12:06:15.294Z</time></trkpt><trkpt lat="58.57923667" lon="14.96165667"><ele>119.0</ele><time>2016-06-18T12:06:16.285Z</time></trkpt><trkpt lat="58.57923667" lon="14.96165667"><ele>119.0</ele><time>2016-06-18T12:06:17.298Z</time></trkpt><trkpt lat="58.57924167" lon="14.961995"><ele>119.0</ele><time>2016-06-18T12:06:18.305Z</time></trkpt><trkpt lat="58.57924167" lon="14.961995"><ele>119.0</ele><time>2016-06-18T12:06:19.286Z</time></trkpt><trkpt lat="58.57923333" lon="14.96232167"><ele>119.0</ele><time>2016-06-18T12:06:20.284Z</time></trkpt><trkpt lat="58.57923333" lon="14.96232167"><ele>119.0</ele><time>2016-06-18T12:06:21.310Z</time></trkpt><trkpt lat="58.57922167" lon="14.96265"><ele>119.0</ele><time>2016-06-18T12:06:22.317Z</time></trkpt><trkpt lat="58.57922167" lon="14.96265"><ele>119.0</ele><time>2016-06-18T12:06:23.302Z</time></trkpt><trkpt lat="58.57920667" lon="14.96296333"><ele>119.0</ele><time>2016-06-18T12:06:24.287Z</time></trkpt><trkpt lat="58.57920667" lon="14.96296333"><ele>119.0</ele><time>2016-06-18T12:06:25.291Z</time></trkpt><trkpt lat="58.57919" lon="14.96326667"><ele>119.0</ele><time>2016-06-18T12:06:26.302Z</time></trkpt><trkpt lat="58.57919" lon="14.96326667"><ele>119.0</ele><time>2016-06-18T12:06:27.284Z</time></trkpt><trkpt lat="58.57917833" lon="14.96356167"><ele>119.0</ele><time>2016-06-18T12:06:28.291Z</time></trkpt><trkpt lat="58.57917833" lon="14.96356167"><ele>119.0</ele><time>2016-06-18T12:06:29.308Z</time></trkpt><trkpt lat="58.57915667" lon="14.96385167"><ele>120.0</ele><time>2016-06-18T12:06:30.315Z</time></trkpt><trkpt lat="58.57915667" lon="14.96385167"><ele>120.0</ele><time>2016-06-18T12:06:31.308Z</time></trkpt><trkpt lat="58.57913333" lon="14.96414333"><ele>120.0</ele><time>2016-06-18T12:06:32.291Z</time></trkpt><trkpt lat="58.57913333" lon="14.96414333"><ele>120.0</ele><time>2016-06-18T12:06:33.310Z</time></trkpt><trkpt lat="58.57911" lon="14.96444333"><ele>120.0</ele><time>2016-06-18T12:06:34.317Z</time></trkpt><trkpt lat="58.579095" lon="14.96459167"><ele>120.0</ele><time>2016-06-18T12:06:35.289Z</time></trkpt><trkpt lat="58.579095" lon="14.96459167"><ele>120.0</ele><time>2016-06-18T12:06:36.321Z</time></trkpt><trkpt lat="58.579065" lon="14.96489167"><ele>120.0</ele><time>2016-06-18T12:06:37.287Z</time></trkpt><trkpt lat="58.579065" lon="14.96489167"><ele>120.0</ele><time>2016-06-18T12:06:38.309Z</time></trkpt><trkpt lat="58.57903167" lon="14.96519167"><ele>121.0</ele><time>2016-06-18T12:06:39.325Z</time></trkpt><trkpt lat="58.57903167" lon="14.96519167"><ele>121.0</ele><time>2016-06-18T12:06:40.317Z</time></trkpt><trkpt lat="58.578995" lon="14.96548833"><ele>121.0</ele><time>2016-06-18T12:06:41.284Z</time></trkpt><trkpt lat="58.57897333" lon="14.96563833"><ele>121.0</ele><time>2016-06-18T12:06:42.321Z</time></trkpt><trkpt lat="58.57895167" lon="14.96578833"><ele>121.0</ele><time>2016-06-18T12:06:43.307Z</time></trkpt><trkpt lat="58.57895167" lon="14.96578833"><ele>121.0</ele><time>2016-06-18T12:06:44.288Z</time></trkpt><trkpt lat="58.57891" lon="14.96608333"><ele>121.0</ele><time>2016-06-18T12:06:45.301Z</time></trkpt><trkpt lat="58.57888333" lon="14.96623167"><ele>121.0</ele><time>2016-06-18T12:06:46.389Z</time></trkpt><trkpt lat="58.57888333" lon="14.96623167"><ele>121.0</ele><time>2016-06-18T12:06:47.287Z</time></trkpt><trkpt lat="58.578835" lon="14.96653167"><ele>121.0</ele><time>2016-06-18T12:06:48.302Z</time></trkpt><trkpt lat="58.578835" lon="14.96653167"><ele>121.0</ele><time>2016-06-18T12:06:49.284Z</time></trkpt><trkpt lat="58.57878667" lon="14.966835"><ele>121.0</ele><time>2016-06-18T12:06:50.299Z</time></trkpt><trkpt lat="58.57878667" lon="14.966835"><ele>121.0</ele><time>2016-06-18T12:06:51.316Z</time></trkpt><trkpt lat="58.57873667" lon="14.96713333"><ele>121.0</ele><time>2016-06-18T12:06:52.282Z</time></trkpt><trkpt lat="58.57873667" lon="14.96713333"><ele>121.0</ele><time>2016-06-18T12:06:53.305Z</time></trkpt><trkpt lat="58.57870167" lon="14.96742667"><ele>121.0</ele><time>2016-06-18T12:06:54.283Z</time></trkpt><trkpt lat="58.57870167" lon="14.96742667"><ele>121.0</ele><time>2016-06-18T12:06:55.299Z</time></trkpt><trkpt lat="58.57866667" lon="14.96773"><ele>121.0</ele><time>2016-06-18T12:06:56.306Z</time></trkpt><trkpt lat="58.57866667" lon="14.96773"><ele>121.0</ele><time>2016-06-18T12:06:57.282Z</time></trkpt><trkpt lat="58.57864" lon="14.968035"><ele>120.0</ele><time>2016-06-18T12:06:58.303Z</time></trkpt><trkpt lat="58.57864" lon="14.968035"><ele>120.0</ele><time>2016-06-18T12:06:59.312Z</time></trkpt><trkpt lat="58.57859833" lon="14.96835167"><ele>120.0</ele><time>2016-06-18T12:07:00.319Z</time></trkpt><trkpt lat="58.57859833" lon="14.96835167"><ele>120.0</ele><time>2016-06-18T12:07:01.284Z</time></trkpt><trkpt lat="58.57855" lon="14.96867833"><ele>120.0</ele><time>2016-06-18T12:07:02.298Z</time></trkpt><trkpt lat="58.57852167" lon="14.968845"><ele>119.0</ele><time>2016-06-18T12:07:03.317Z</time></trkpt><trkpt lat="58.57852167" lon="14.968845"><ele>119.0</ele><time>2016-06-18T12:07:04.299Z</time></trkpt><trkpt lat="58.57845667" lon="14.96916667"><ele>119.0</ele><time>2016-06-18T12:07:05.284Z</time></trkpt><trkpt lat="58.57845667" lon="14.96916667"><ele>119.0</ele><time>2016-06-18T12:07:06.310Z</time></trkpt><trkpt lat="58.57837" lon="14.96949167"><ele>118.0</ele><time>2016-06-18T12:07:07.293Z</time></trkpt><trkpt lat="58.57837" lon="14.96949167"><ele>118.0</ele><time>2016-06-18T12:07:08.315Z</time></trkpt><trkpt lat="58.57825167" lon="14.96978833"><ele>118.0</ele><time>2016-06-18T12:07:09.304Z</time></trkpt><trkpt lat="58.57825167" lon="14.96978833"><ele>118.0</ele><time>2016-06-18T12:07:10.312Z</time></trkpt><trkpt lat="58.57811833" lon="14.97008"><ele>118.0</ele><time>2016-06-18T12:07:11.290Z</time></trkpt><trkpt lat="58.57805833" lon="14.97023333"><ele>117.0</ele><time>2016-06-18T12:07:12.308Z</time></trkpt><trkpt lat="58.57805833" lon="14.97023333"><ele>117.0</ele><time>2016-06-18T12:07:13.310Z</time></trkpt><trkpt lat="58.57795333" lon="14.97058833"><ele>117.0</ele><time>2016-06-18T12:07:14.316Z</time></trkpt><trkpt lat="58.57795333" lon="14.97058833"><ele>117.0</ele><time>2016-06-18T12:07:15.299Z</time></trkpt><trkpt lat="58.57789" lon="14.97099"><ele>116.0</ele><time>2016-06-18T12:07:16.307Z</time></trkpt><trkpt lat="58.57789" lon="14.97099"><ele>116.0</ele><time>2016-06-18T12:07:17.291Z</time></trkpt><trkpt lat="58.57785" lon="14.97140333"><ele>116.0</ele><time>2016-06-18T12:07:18.301Z</time></trkpt><trkpt lat="58.57785" lon="14.97140333"><ele>116.0</ele><time>2016-06-18T12:07:19.284Z</time></trkpt><trkpt lat="58.57784167" lon="14.971815"><ele>116.0</ele><time>2016-06-18T12:07:20.315Z</time></trkpt><trkpt lat="58.57784167" lon="14.971815"><ele>116.0</ele><time>2016-06-18T12:07:21.301Z</time></trkpt><trkpt lat="58.57785333" lon="14.97220667"><ele>115.0</ele><time>2016-06-18T12:07:22.314Z</time></trkpt><trkpt lat="58.57786167" lon="14.9724"><ele>115.0</ele><time>2016-06-18T12:07:23.299Z</time></trkpt><trkpt lat="58.57786167" lon="14.9724"><ele>115.0</ele><time>2016-06-18T12:07:24.282Z</time></trkpt><trkpt lat="58.57788" lon="14.97277167"><ele>115.0</ele><time>2016-06-18T12:07:25.288Z</time></trkpt><trkpt lat="58.57788" lon="14.97277167"><ele>115.0</ele><time>2016-06-18T12:07:26.291Z</time></trkpt><trkpt lat="58.57786667" lon="14.97312667"><ele>115.0</ele><time>2016-06-18T12:07:27.303Z</time></trkpt><trkpt lat="58.57786667" lon="14.97312667"><ele>115.0</ele><time>2016-06-18T12:07:28.285Z</time></trkpt><trkpt lat="58.57783667" lon="14.97348333"><ele>114.0</ele><time>2016-06-18T12:07:29.306Z</time></trkpt><trkpt lat="58.57783667" lon="14.97348333"><ele>114.0</ele><time>2016-06-18T12:07:30.314Z</time></trkpt><trkpt lat="58.57778833" lon="14.973845"><ele>114.0</ele><time>2016-06-18T12:07:31.321Z</time></trkpt><trkpt lat="58.57778833" lon="14.973845"><ele>114.0</ele><time>2016-06-18T12:07:32.303Z</time></trkpt><trkpt lat="58.57773333" lon="14.97420833"><ele>114.0</ele><time>2016-06-18T12:07:33.304Z</time></trkpt><trkpt lat="58.57773333" lon="14.97420833"><ele>114.0</ele><time>2016-06-18T12:07:34.297Z</time></trkpt><trkpt lat="58.57767" lon="14.97457"><ele>113.0</ele><time>2016-06-18T12:07:35.303Z</time></trkpt><trkpt lat="58.57763833" lon="14.97475833"><ele>113.0</ele><time>2016-06-18T12:07:36.321Z</time></trkpt><trkpt lat="58.57763833" lon="14.97475833"><ele>113.0</ele><time>2016-06-18T12:07:37.310Z</time></trkpt><trkpt lat="58.57753833" lon="14.97515167"><ele>112.0</ele><time>2016-06-18T12:07:38.317Z</time></trkpt><trkpt lat="58.57753833" lon="14.97515167"><ele>112.0</ele><time>2016-06-18T12:07:39.307Z</time></trkpt><trkpt lat="58.57742333" lon="14.975555"><ele>111.0</ele><time>2016-06-18T12:07:40.302Z</time></trkpt><trkpt lat="58.57742333" lon="14.975555"><ele>111.0</ele><time>2016-06-18T12:07:41.308Z</time></trkpt><trkpt lat="58.577305" lon="14.97596833"><ele>109.0</ele><time>2016-06-18T12:07:42.318Z</time></trkpt><trkpt lat="58.577305" lon="14.97596833"><ele>109.0</ele><time>2016-06-18T12:07:43.301Z</time></trkpt><trkpt lat="58.57718167" lon="14.976385"><ele>108.0</ele><time>2016-06-18T12:07:44.304Z</time></trkpt><trkpt lat="58.57718167" lon="14.976385"><ele>108.0</ele><time>2016-06-18T12:07:45.300Z</time></trkpt><trkpt lat="58.57706833" lon="14.976805"><ele>107.0</ele><time>2016-06-18T12:07:46.307Z</time></trkpt><trkpt lat="58.57706833" lon="14.976805"><ele>107.0</ele><time>2016-06-18T12:07:47.289Z</time></trkpt><trkpt lat="58.57695333" lon="14.97722167"><ele>107.0</ele><time>2016-06-18T12:07:48.307Z</time></trkpt><trkpt lat="58.57695333" lon="14.97722167"><ele>107.0</ele><time>2016-06-18T12:07:49.319Z</time></trkpt><trkpt lat="58.57684333" lon="14.97762167"><ele>107.0</ele><time>2016-06-18T12:07:50.286Z</time></trkpt><trkpt lat="58.57684333" lon="14.97762167"><ele>107.0</ele><time>2016-06-18T12:07:51.289Z</time></trkpt><trkpt lat="58.57673333" lon="14.978005"><ele>106.0</ele><time>2016-06-18T12:07:52.318Z</time></trkpt><trkpt lat="58.57667333" lon="14.97818667"><ele>106.0</ele><time>2016-06-18T12:07:53.302Z</time></trkpt><trkpt lat="58.57667333" lon="14.97818667"><ele>106.0</ele><time>2016-06-18T12:07:54.292Z</time></trkpt><trkpt lat="58.57653167" lon="14.97852167"><ele>105.0</ele><time>2016-06-18T12:07:55.305Z</time></trkpt><trkpt lat="58.57653167" lon="14.97852167"><ele>105.0</ele><time>2016-06-18T12:07:56.319Z</time></trkpt><trkpt lat="58.57637167" lon="14.97881333"><ele>105.0</ele><time>2016-06-18T12:07:57.285Z</time></trkpt><trkpt lat="58.57637167" lon="14.97881333"><ele>105.0</ele><time>2016-06-18T12:07:58.307Z</time></trkpt><trkpt lat="58.576205" lon="14.97908833"><ele>105.0</ele><time>2016-06-18T12:07:59.300Z</time></trkpt><trkpt lat="58.576205" lon="14.97908833"><ele>105.0</ele><time>2016-06-18T12:08:00.310Z</time></trkpt><trkpt lat="58.57604" lon="14.97936833"><ele>104.0</ele><time>2016-06-18T12:08:01.317Z</time></trkpt><trkpt lat="58.57604" lon="14.97936833"><ele>104.0</ele><time>2016-06-18T12:08:02.303Z</time></trkpt><trkpt lat="58.57589667" lon="14.97967"><ele>104.0</ele><time>2016-06-18T12:08:03.312Z</time></trkpt><trkpt lat="58.57589667" lon="14.97967"><ele>104.0</ele><time>2016-06-18T12:08:04.284Z</time></trkpt><trkpt lat="58.57578333" lon="14.97998833"><ele>104.0</ele><time>2016-06-18T12:08:05.291Z</time></trkpt><trkpt lat="58.57578333" lon="14.97998833"><ele>104.0</ele><time>2016-06-18T12:08:06.308Z</time></trkpt><trkpt lat="58.57567667" lon="14.98033667"><ele>104.0</ele><time>2016-06-18T12:08:07.294Z</time></trkpt><trkpt lat="58.57567667" lon="14.98033667"><ele>104.0</ele><time>2016-06-18T12:08:08.292Z</time></trkpt><trkpt lat="58.57559833" lon="14.980705"><ele>104.0</ele><time>2016-06-18T12:08:09.305Z</time></trkpt><trkpt lat="58.57559833" lon="14.980705"><ele>104.0</ele><time>2016-06-18T12:08:10.286Z</time></trkpt><trkpt lat="58.57554333" lon="14.98110333"><ele>104.0</ele><time>2016-06-18T12:08:11.292Z</time></trkpt><trkpt lat="58.57552167" lon="14.981305"><ele>104.0</ele><time>2016-06-18T12:08:12.288Z</time></trkpt><trkpt lat="58.575495" lon="14.981505"><ele>104.0</ele><time>2016-06-18T12:08:13.289Z</time></trkpt><trkpt lat="58.575495" lon="14.981505"><ele>104.0</ele><time>2016-06-18T12:08:14.312Z</time></trkpt><trkpt lat="58.57546167" lon="14.981895"><ele>104.0</ele><time>2016-06-18T12:08:15.318Z</time></trkpt><trkpt lat="58.57546167" lon="14.981895"><ele>104.0</ele><time>2016-06-18T12:08:16.302Z</time></trkpt><trkpt lat="58.57542667" lon="14.98228167"><ele>104.0</ele><time>2016-06-18T12:08:17.294Z</time></trkpt><trkpt lat="58.57542667" lon="14.98228167"><ele>104.0</ele><time>2016-06-18T12:08:18.305Z</time></trkpt><trkpt lat="58.57539167" lon="14.982675"><ele>103.0</ele><time>2016-06-18T12:08:19.312Z</time></trkpt><trkpt lat="58.57537" lon="14.98288333"><ele>103.0</ele><time>2016-06-18T12:08:20.286Z</time></trkpt><trkpt lat="58.57537" lon="14.98288333"><ele>103.0</ele><time>2016-06-18T12:08:21.311Z</time></trkpt><trkpt lat="58.57533333" lon="14.98327333"><ele>103.0</ele><time>2016-06-18T12:08:22.286Z</time></trkpt><trkpt lat="58.57532" lon="14.983465"><ele>103.0</ele><time>2016-06-18T12:08:23.318Z</time></trkpt><trkpt lat="58.57532" lon="14.983465"><ele>103.0</ele><time>2016-06-18T12:08:24.301Z</time></trkpt><trkpt lat="58.57527" lon="14.98386"><ele>102.0</ele><time>2016-06-18T12:08:25.308Z</time></trkpt><trkpt lat="58.57524333" lon="14.984055"><ele>102.0</ele><time>2016-06-18T12:08:26.310Z</time></trkpt><trkpt lat="58.57524333" lon="14.984055"><ele>102.0</ele><time>2016-06-18T12:08:27.292Z</time></trkpt><trkpt lat="58.575185" lon="14.98442"><ele>102.0</ele><time>2016-06-18T12:08:28.304Z</time></trkpt><trkpt lat="58.575155" lon="14.98459833"><ele>102.0</ele><time>2016-06-18T12:08:29.286Z</time></trkpt><trkpt lat="58.575155" lon="14.98459833"><ele>102.0</ele><time>2016-06-18T12:08:30.310Z</time></trkpt><trkpt lat="58.57511" lon="14.98494833"><ele>101.0</ele><time>2016-06-18T12:08:31.316Z</time></trkpt><trkpt lat="58.57511" lon="14.98494833"><ele>101.0</ele><time>2016-06-18T12:08:32.300Z</time></trkpt><trkpt lat="58.57501833" lon="14.98531"><ele>102.0</ele><time>2016-06-18T12:08:33.321Z</time></trkpt><trkpt lat="58.57501833" lon="14.98531"><ele>102.0</ele><time>2016-06-18T12:08:34.303Z</time></trkpt><trkpt lat="58.57496167" lon="14.98565667"><ele>101.0</ele><time>2016-06-18T12:08:35.309Z</time></trkpt><trkpt lat="58.57496167" lon="14.98565667"><ele>101.0</ele><time>2016-06-18T12:08:36.309Z</time></trkpt><trkpt lat="58.57493333" lon="14.98597"><ele>100.0</ele><time>2016-06-18T12:08:37.284Z</time></trkpt><trkpt lat="58.57492667" lon="14.98611833"><ele>100.0</ele><time>2016-06-18T12:08:38.319Z</time></trkpt><trkpt lat="58.57492667" lon="14.98611833"><ele>100.0</ele><time>2016-06-18T12:08:39.302Z</time></trkpt><trkpt lat="58.57493833" lon="14.98641333"><ele>99.0</ele><time>2016-06-18T12:08:40.294Z</time></trkpt><trkpt lat="58.57493833" lon="14.98641333"><ele>99.0</ele><time>2016-06-18T12:08:41.320Z</time></trkpt><trkpt lat="58.57493667" lon="14.98670833"><ele>98.0</ele><time>2016-06-18T12:08:42.287Z</time></trkpt><trkpt lat="58.57493667" lon="14.98670833"><ele>98.0</ele><time>2016-06-18T12:08:43.316Z</time></trkpt><trkpt lat="58.57493" lon="14.98697833"><ele>98.0</ele><time>2016-06-18T12:08:44.282Z</time></trkpt><trkpt lat="58.57493" lon="14.98697833"><ele>98.0</ele><time>2016-06-18T12:08:45.306Z</time></trkpt><trkpt lat="58.57491667" lon="14.98722"><ele>97.0</ele><time>2016-06-18T12:08:46.293Z</time></trkpt><trkpt lat="58.57491667" lon="14.98722"><ele>97.0</ele><time>2016-06-18T12:08:47.292Z</time></trkpt><trkpt lat="58.57489167" lon="14.98746667"><ele>96.0</ele><time>2016-06-18T12:08:48.305Z</time></trkpt><trkpt lat="58.57489167" lon="14.98746667"><ele>96.0</ele><time>2016-06-18T12:08:49.305Z</time></trkpt><trkpt lat="58.574775" lon="14.98764167"><ele>95.0</ele><time>2016-06-18T12:08:50.313Z</time></trkpt><trkpt lat="58.574775" lon="14.98764167"><ele>95.0</ele><time>2016-06-18T12:08:51.295Z</time></trkpt><trkpt lat="58.57461667" lon="14.987735"><ele>95.0</ele><time>2016-06-18T12:08:52.298Z</time></trkpt><trkpt lat="58.57461667" lon="14.987735"><ele>95.0</ele><time>2016-06-18T12:08:53.287Z</time></trkpt><trkpt lat="58.574455" lon="14.98783167"><ele>94.0</ele><time>2016-06-18T12:08:54.294Z</time></trkpt><trkpt lat="58.574455" lon="14.98783167"><ele>94.0</ele><time>2016-06-18T12:08:55.288Z</time></trkpt><trkpt lat="58.57429167" lon="14.98794167"><ele>94.0</ele><time>2016-06-18T12:08:56.291Z</time></trkpt><trkpt lat="58.57429167" lon="14.98794167"><ele>94.0</ele><time>2016-06-18T12:08:57.318Z</time></trkpt><trkpt lat="58.57412333" lon="14.98805667"><ele>93.0</ele><time>2016-06-18T12:08:58.285Z</time></trkpt><trkpt lat="58.57412333" lon="14.98805667"><ele>93.0</ele><time>2016-06-18T12:08:59.308Z</time></trkpt><trkpt lat="58.57394833" lon="14.98817667"><ele>93.0</ele><time>2016-06-18T12:09:00.314Z</time></trkpt><trkpt lat="58.57385833" lon="14.98823667"><ele>93.0</ele><time>2016-06-18T12:09:01.314Z</time></trkpt><trkpt lat="58.57385833" lon="14.98823667"><ele>93.0</ele><time>2016-06-18T12:09:02.297Z</time></trkpt><trkpt lat="58.57368" lon="14.98837167"><ele>92.0</ele><time>2016-06-18T12:09:03.313Z</time></trkpt><trkpt lat="58.57359167" lon="14.98844333"><ele>92.0</ele><time>2016-06-18T12:09:04.314Z</time></trkpt><trkpt lat="58.57359167" lon="14.98844333"><ele>92.0</ele><time>2016-06-18T12:09:05.301Z</time></trkpt><trkpt lat="58.57341833" lon="14.98858667"><ele>92.0</ele><time>2016-06-18T12:09:06.288Z</time></trkpt><trkpt lat="58.57333333" lon="14.98865333"><ele>92.0</ele><time>2016-06-18T12:09:07.307Z</time></trkpt><trkpt lat="58.57333333" lon="14.98865333"><ele>92.0</ele><time>2016-06-18T12:09:08.283Z</time></trkpt><trkpt lat="58.57316667" lon="14.988785"><ele>92.0</ele><time>2016-06-18T12:09:09.293Z</time></trkpt><trkpt lat="58.57316667" lon="14.988785"><ele>92.0</ele><time>2016-06-18T12:09:10.293Z</time></trkpt><trkpt lat="58.57300167" lon="14.988915"><ele>91.0</ele><time>2016-06-18T12:09:11.322Z</time></trkpt><trkpt lat="58.57292167" lon="14.98898"><ele>91.0</ele><time>2016-06-18T12:09:12.323Z</time></trkpt><trkpt lat="58.57292167" lon="14.98898"><ele>91.0</ele><time>2016-06-18T12:09:13.313Z</time></trkpt><trkpt lat="58.57276333" lon="14.98911167"><ele>91.0</ele><time>2016-06-18T12:09:14.319Z</time></trkpt><trkpt lat="58.57276333" lon="14.98911167"><ele>91.0</ele><time>2016-06-18T12:09:15.303Z</time></trkpt><trkpt lat="58.57261167" lon="14.98925167"><ele>92.0</ele><time>2016-06-18T12:09:16.314Z</time></trkpt><trkpt lat="58.57261167" lon="14.98925167"><ele>92.0</ele><time>2016-06-18T12:09:17.317Z</time></trkpt><trkpt lat="58.57246667" lon="14.989385"><ele>92.0</ele><time>2016-06-18T12:09:18.284Z</time></trkpt><trkpt lat="58.57246667" lon="14.989385"><ele>92.0</ele><time>2016-06-18T12:09:19.309Z</time></trkpt><trkpt lat="58.57232667" lon="14.98951167"><ele>92.0</ele><time>2016-06-18T12:09:20.324Z</time></trkpt><trkpt lat="58.57232667" lon="14.98951167"><ele>92.0</ele><time>2016-06-18T12:09:21.299Z</time></trkpt><trkpt lat="58.57218667" lon="14.98964"><ele>92.0</ele><time>2016-06-18T12:09:22.306Z</time></trkpt><trkpt lat="58.572115" lon="14.98970333"><ele>92.0</ele><time>2016-06-18T12:09:23.303Z</time></trkpt><trkpt lat="58.572115" lon="14.98970333"><ele>92.0</ele><time>2016-06-18T12:09:24.320Z</time></trkpt><trkpt lat="58.57197167" lon="14.98984167"><ele>92.0</ele><time>2016-06-18T12:09:25.287Z</time></trkpt><trkpt lat="58.57189833" lon="14.989915"><ele>93.0</ele><time>2016-06-18T12:09:26.283Z</time></trkpt><trkpt lat="58.57189833" lon="14.989915"><ele>93.0</ele><time>2016-06-18T12:09:27.287Z</time></trkpt><trkpt lat="58.57175167" lon="14.99005667"><ele>93.0</ele><time>2016-06-18T12:09:28.293Z</time></trkpt><trkpt lat="58.57168" lon="14.99012833"><ele>93.0</ele><time>2016-06-18T12:09:29.325Z</time></trkpt><trkpt lat="58.57161" lon="14.9902"><ele>92.0</ele><time>2016-06-18T12:09:30.320Z</time></trkpt><trkpt lat="58.57161" lon="14.9902"><ele>92.0</ele><time>2016-06-18T12:09:31.301Z</time></trkpt><trkpt lat="58.57147" lon="14.99033167"><ele>92.0</ele><time>2016-06-18T12:09:32.307Z</time></trkpt><trkpt lat="58.57147" lon="14.99033167"><ele>92.0</ele><time>2016-06-18T12:09:33.289Z</time></trkpt><trkpt lat="58.57133167" lon="14.99046333"><ele>93.0</ele><time>2016-06-18T12:09:34.295Z</time></trkpt><trkpt lat="58.57133167" lon="14.99046333"><ele>93.0</ele><time>2016-06-18T12:09:35.317Z</time></trkpt><trkpt lat="58.5712" lon="14.99060833"><ele>93.0</ele><time>2016-06-18T12:09:36.284Z</time></trkpt><trkpt lat="58.5712" lon="14.99060833"><ele>93.0</ele><time>2016-06-18T12:09:37.305Z</time></trkpt><trkpt lat="58.57107167" lon="14.99076167"><ele>93.0</ele><time>2016-06-18T12:09:38.298Z</time></trkpt><trkpt lat="58.57107167" lon="14.99076167"><ele>93.0</ele><time>2016-06-18T12:09:39.305Z</time></trkpt><trkpt lat="58.57094" lon="14.99091167"><ele>93.0</ele><time>2016-06-18T12:09:40.313Z</time></trkpt><trkpt lat="58.570875" lon="14.99098167"><ele>93.0</ele><time>2016-06-18T12:09:41.283Z</time></trkpt><trkpt lat="58.570875" lon="14.99098167"><ele>93.0</ele><time>2016-06-18T12:09:42.321Z</time></trkpt><trkpt lat="58.57074667" lon="14.99112667"><ele>94.0</ele><time>2016-06-18T12:09:43.289Z</time></trkpt><trkpt lat="58.570685" lon="14.9912"><ele>94.0</ele><time>2016-06-18T12:09:44.283Z</time></trkpt><trkpt lat="58.57062167" lon="14.99127333"><ele>94.0</ele><time>2016-06-18T12:09:45.302Z</time></trkpt><trkpt lat="58.57062167" lon="14.99127333"><ele>94.0</ele><time>2016-06-18T12:09:46.283Z</time></trkpt><trkpt lat="58.57049" lon="14.99142"><ele>94.0</ele><time>2016-06-18T12:09:47.304Z</time></trkpt><trkpt lat="58.57049" lon="14.99142"><ele>94.0</ele><time>2016-06-18T12:09:48.288Z</time></trkpt><trkpt lat="58.57036" lon="14.991565"><ele>94.0</ele><time>2016-06-18T12:09:49.294Z</time></trkpt><trkpt lat="58.57036" lon="14.991565"><ele>94.0</ele><time>2016-06-18T12:09:50.318Z</time></trkpt><trkpt lat="58.57023167" lon="14.99172333"><ele>94.0</ele><time>2016-06-18T12:09:51.284Z</time></trkpt><trkpt lat="58.57023167" lon="14.99172333"><ele>94.0</ele><time>2016-06-18T12:09:52.307Z</time></trkpt><trkpt lat="58.57010333" lon="14.99189667"><ele>94.0</ele><time>2016-06-18T12:09:53.302Z</time></trkpt><trkpt lat="58.57010333" lon="14.99189667"><ele>94.0</ele><time>2016-06-18T12:09:54.301Z</time></trkpt><trkpt lat="58.56997333" lon="14.99206167"><ele>95.0</ele><time>2016-06-18T12:09:55.311Z</time></trkpt><trkpt lat="58.56997333" lon="14.99206167"><ele>95.0</ele><time>2016-06-18T12:09:56.294Z</time></trkpt><trkpt lat="58.56986" lon="14.99222333"><ele>95.0</ele><time>2016-06-18T12:09:57.283Z</time></trkpt><trkpt lat="58.56986" lon="14.99222333"><ele>95.0</ele><time>2016-06-18T12:09:58.320Z</time></trkpt><trkpt lat="58.569735" lon="14.99238333"><ele>95.0</ele><time>2016-06-18T12:09:59.287Z</time></trkpt><trkpt lat="58.56967333" lon="14.992465"><ele>95.0</ele><time>2016-06-18T12:10:00.306Z</time></trkpt><trkpt lat="58.56967333" lon="14.992465"><ele>95.0</ele><time>2016-06-18T12:10:01.284Z</time></trkpt><trkpt lat="58.56955667" lon="14.99262"><ele>96.0</ele><time>2016-06-18T12:10:02.291Z</time></trkpt><trkpt lat="58.56955667" lon="14.99262"><ele>96.0</ele><time>2016-06-18T12:10:03.313Z</time></trkpt><trkpt lat="58.56943833" lon="14.99278333"><ele>96.0</ele><time>2016-06-18T12:10:04.309Z</time></trkpt><trkpt lat="58.56943833" lon="14.99278333"><ele>96.0</ele><time>2016-06-18T12:10:05.321Z</time></trkpt><trkpt lat="58.569325" lon="14.99294167"><ele>96.0</ele><time>2016-06-18T12:10:06.287Z</time></trkpt><trkpt lat="58.569325" lon="14.99294167"><ele>96.0</ele><time>2016-06-18T12:10:07.289Z</time></trkpt><trkpt lat="58.56921333" lon="14.99309167"><ele>96.0</ele><time>2016-06-18T12:10:08.304Z</time></trkpt><trkpt lat="58.56921333" lon="14.99309167"><ele>96.0</ele><time>2016-06-18T12:10:09.300Z</time></trkpt><trkpt lat="58.5691" lon="14.99324333"><ele>97.0</ele><time>2016-06-18T12:10:10.306Z</time></trkpt><trkpt lat="58.5691" lon="14.99324333"><ele>97.0</ele><time>2016-06-18T12:10:11.300Z</time></trkpt><trkpt lat="58.56898833" lon="14.9934"><ele>97.0</ele><time>2016-06-18T12:10:12.322Z</time></trkpt><trkpt lat="58.56898833" lon="14.9934"><ele>97.0</ele><time>2016-06-18T12:10:13.302Z</time></trkpt><trkpt lat="58.56888" lon="14.99356667"><ele>98.0</ele><time>2016-06-18T12:10:14.308Z</time></trkpt><trkpt lat="58.56888" lon="14.99356667"><ele>98.0</ele><time>2016-06-18T12:10:15.290Z</time></trkpt><trkpt lat="58.56877333" lon="14.99373167"><ele>98.0</ele><time>2016-06-18T12:10:16.299Z</time></trkpt><trkpt lat="58.56877333" lon="14.99373167"><ele>98.0</ele><time>2016-06-18T12:10:17.302Z</time></trkpt><trkpt lat="58.56867167" lon="14.99389833"><ele>99.0</ele><time>2016-06-18T12:10:18.308Z</time></trkpt><trkpt lat="58.56862" lon="14.99398167"><ele>99.0</ele><time>2016-06-18T12:10:19.301Z</time></trkpt><trkpt lat="58.56862" lon="14.99398167"><ele>99.0</ele><time>2016-06-18T12:10:20.310Z</time></trkpt><trkpt lat="58.56851833" lon="14.99414667"><ele>100.0</ele><time>2016-06-18T12:10:21.317Z</time></trkpt><trkpt lat="58.56851833" lon="14.99414667"><ele>100.0</ele><time>2016-06-18T12:10:22.301Z</time></trkpt><trkpt lat="58.56841667" lon="14.99430167"><ele>100.0</ele><time>2016-06-18T12:10:23.313Z</time></trkpt><trkpt lat="58.56841667" lon="14.99430167"><ele>100.0</ele><time>2016-06-18T12:10:24.291Z</time></trkpt><trkpt lat="58.56832333" lon="14.994445"><ele>100.0</ele><time>2016-06-18T12:10:25.308Z</time></trkpt><trkpt lat="58.56828" lon="14.994515"><ele>100.0</ele><time>2016-06-18T12:10:26.288Z</time></trkpt><trkpt lat="58.56828" lon="14.994515"><ele>100.0</ele><time>2016-06-18T12:10:27.309Z</time></trkpt><trkpt lat="58.568185" lon="14.994665"><ele>100.0</ele><time>2016-06-18T12:10:28.315Z</time></trkpt><trkpt lat="58.568135" lon="14.994745"><ele>100.0</ele><time>2016-06-18T12:10:29.293Z</time></trkpt><trkpt lat="58.568135" lon="14.994745"><ele>100.0</ele><time>2016-06-18T12:10:30.320Z</time></trkpt><trkpt lat="58.56803167" lon="14.994905"><ele>100.0</ele><time>2016-06-18T12:10:31.287Z</time></trkpt><trkpt lat="58.56803167" lon="14.994905"><ele>100.0</ele><time>2016-06-18T12:10:32.293Z</time></trkpt><trkpt lat="58.567925" lon="14.99507167"><ele>101.0</ele><time>2016-06-18T12:10:33.297Z</time></trkpt><trkpt lat="58.567925" lon="14.99507167"><ele>101.0</ele><time>2016-06-18T12:10:34.304Z</time></trkpt><trkpt lat="58.56782167" lon="14.99524333"><ele>102.0</ele><time>2016-06-18T12:10:35.314Z</time></trkpt><trkpt lat="58.56777333" lon="14.99532833"><ele>102.0</ele><time>2016-06-18T12:10:36.317Z</time></trkpt><trkpt lat="58.56772833" lon="14.99541167"><ele>102.0</ele><time>2016-06-18T12:10:37.312Z</time></trkpt><trkpt lat="58.56772833" lon="14.99541167"><ele>102.0</ele><time>2016-06-18T12:10:38.294Z</time></trkpt><trkpt lat="58.56762833" lon="14.995585"><ele>103.0</ele><time>2016-06-18T12:10:39.304Z</time></trkpt><trkpt lat="58.56762833" lon="14.995585"><ele>103.0</ele><time>2016-06-18T12:10:40.288Z</time></trkpt><trkpt lat="58.56753333" lon="14.995765"><ele>104.0</ele><time>2016-06-18T12:10:41.283Z</time></trkpt><trkpt lat="58.56753333" lon="14.995765"><ele>104.0</ele><time>2016-06-18T12:10:42.303Z</time></trkpt><trkpt lat="58.56744" lon="14.99594833"><ele>105.0</ele><time>2016-06-18T12:10:43.311Z</time></trkpt><trkpt lat="58.56744" lon="14.99594833"><ele>105.0</ele><time>2016-06-18T12:10:44.308Z</time></trkpt><trkpt lat="58.56734333" lon="14.996125"><ele>106.0</ele><time>2016-06-18T12:10:45.283Z</time></trkpt><trkpt lat="58.56734333" lon="14.996125"><ele>106.0</ele><time>2016-06-18T12:10:46.311Z</time></trkpt><trkpt lat="58.56725" lon="14.99630167"><ele>107.0</ele><time>2016-06-18T12:10:47.317Z</time></trkpt><trkpt lat="58.56725" lon="14.99630167"><ele>107.0</ele><time>2016-06-18T12:10:48.289Z</time></trkpt><trkpt lat="58.56715667" lon="14.99648167"><ele>107.0</ele><time>2016-06-18T12:10:49.296Z</time></trkpt><trkpt lat="58.56710667" lon="14.99657"><ele>107.0</ele><time>2016-06-18T12:10:50.319Z</time></trkpt><trkpt lat="58.56710667" lon="14.99657"><ele>107.0</ele><time>2016-06-18T12:10:51.302Z</time></trkpt><trkpt lat="58.567005" lon="14.99674333"><ele>107.0</ele><time>2016-06-18T12:10:52.309Z</time></trkpt><trkpt lat="58.567005" lon="14.99674333"><ele>107.0</ele><time>2016-06-18T12:10:53.294Z</time></trkpt><trkpt lat="58.5669" lon="14.99692"><ele>107.0</ele><time>2016-06-18T12:10:54.301Z</time></trkpt><trkpt lat="58.5669" lon="14.99692"><ele>107.0</ele><time>2016-06-18T12:10:55.284Z</time></trkpt><trkpt lat="58.56679333" lon="14.997095"><ele>107.0</ele><time>2016-06-18T12:10:56.294Z</time></trkpt><trkpt lat="58.56679333" lon="14.997095"><ele>107.0</ele><time>2016-06-18T12:10:57.305Z</time></trkpt><trkpt lat="58.56669" lon="14.99727"><ele>108.0</ele><time>2016-06-18T12:10:58.312Z</time></trkpt><trkpt lat="58.56669" lon="14.99727"><ele>108.0</ele><time>2016-06-18T12:10:59.294Z</time></trkpt><trkpt lat="58.56659" lon="14.99745167"><ele>108.0</ele><time>2016-06-18T12:11:00.283Z</time></trkpt><trkpt lat="58.566545" lon="14.99754"><ele>107.0</ele><time>2016-06-18T12:11:01.293Z</time></trkpt><trkpt lat="58.5665" lon="14.99762833"><ele>107.0</ele><time>2016-06-18T12:11:02.315Z</time></trkpt><trkpt lat="58.5665" lon="14.99762833"><ele>107.0</ele><time>2016-06-18T12:11:03.301Z</time></trkpt><trkpt lat="58.566405" lon="14.99780167"><ele>107.0</ele><time>2016-06-18T12:11:04.308Z</time></trkpt><trkpt lat="58.566355" lon="14.99789667"><ele>108.0</ele><time>2016-06-18T12:11:05.283Z</time></trkpt><trkpt lat="58.566355" lon="14.99789667"><ele>108.0</ele><time>2016-06-18T12:11:06.293Z</time></trkpt><trkpt lat="58.566255" lon="14.99808167"><ele>108.0</ele><time>2016-06-18T12:11:07.306Z</time></trkpt><trkpt lat="58.56620667" lon="14.99817667"><ele>109.0</ele><time>2016-06-18T12:11:08.295Z</time></trkpt><trkpt lat="58.56620667" lon="14.99817667"><ele>109.0</ele><time>2016-06-18T12:11:09.318Z</time></trkpt><trkpt lat="58.566105" lon="14.99837167"><ele>109.0</ele><time>2016-06-18T12:11:10.285Z</time></trkpt><trkpt lat="58.566105" lon="14.99837167"><ele>109.0</ele><time>2016-06-18T12:11:11.299Z</time></trkpt><trkpt lat="58.56599833" lon="14.99856833"><ele>110.0</ele><time>2016-06-18T12:11:12.314Z</time></trkpt><trkpt lat="58.56599833" lon="14.99856833"><ele>110.0</ele><time>2016-06-18T12:11:13.302Z</time></trkpt><trkpt lat="58.56589167" lon="14.99876667"><ele>110.0</ele><time>2016-06-18T12:11:14.311Z</time></trkpt><trkpt lat="58.56584" lon="14.998865"><ele>111.0</ele><time>2016-06-18T12:11:15.288Z</time></trkpt><trkpt lat="58.56584" lon="14.998865"><ele>111.0</ele><time>2016-06-18T12:11:16.304Z</time></trkpt><trkpt lat="58.56573" lon="14.99905833"><ele>111.0</ele><time>2016-06-18T12:11:17.311Z</time></trkpt><trkpt lat="58.56573" lon="14.99905833"><ele>111.0</ele><time>2016-06-18T12:11:18.294Z</time></trkpt><trkpt lat="58.56563" lon="14.99925333"><ele>111.0</ele><time>2016-06-18T12:11:19.300Z</time></trkpt><trkpt lat="58.56557833" lon="14.99935"><ele>112.0</ele><time>2016-06-18T12:11:20.290Z</time></trkpt><trkpt lat="58.56557833" lon="14.99935"><ele>112.0</ele><time>2016-06-18T12:11:21.312Z</time></trkpt><trkpt lat="58.56547833" lon="14.99954333"><ele>112.0</ele><time>2016-06-18T12:11:22.322Z</time></trkpt><trkpt lat="58.56542333" lon="14.99964167"><ele>112.0</ele><time>2016-06-18T12:11:23.305Z</time></trkpt><trkpt lat="58.56542333" lon="14.99964167"><ele>112.0</ele><time>2016-06-18T12:11:24.288Z</time></trkpt><trkpt lat="58.565315" lon="14.99983333"><ele>111.0</ele><time>2016-06-18T12:11:25.288Z</time></trkpt><trkpt lat="58.565315" lon="14.99983333"><ele>111.0</ele><time>2016-06-18T12:11:26.310Z</time></trkpt><trkpt lat="58.56520167" lon="15.00003833"><ele>112.0</ele><time>2016-06-18T12:11:27.316Z</time></trkpt><trkpt lat="58.56520167" lon="15.00003833"><ele>112.0</ele><time>2016-06-18T12:11:28.299Z</time></trkpt><trkpt lat="58.56509" lon="15.00023833"><ele>111.0</ele><time>2016-06-18T12:11:29.288Z</time></trkpt><trkpt lat="58.56509" lon="15.00023833"><ele>111.0</ele><time>2016-06-18T12:11:30.316Z</time></trkpt><trkpt lat="58.56498" lon="15.000445"><ele>111.0</ele><time>2016-06-18T12:11:31.282Z</time></trkpt><trkpt lat="58.56498" lon="15.000445"><ele>111.0</ele><time>2016-06-18T12:11:32.305Z</time></trkpt><trkpt lat="58.56486167" lon="15.00065667"><ele>111.0</ele><time>2016-06-18T12:11:33.313Z</time></trkpt><trkpt lat="58.56486167" lon="15.00065667"><ele>111.0</ele><time>2016-06-18T12:11:34.310Z</time></trkpt><trkpt lat="58.56474167" lon="15.00087"><ele>110.0</ele><time>2016-06-18T12:11:35.315Z</time></trkpt><trkpt lat="58.56468167" lon="15.00097833"><ele>110.0</ele><time>2016-06-18T12:11:36.302Z</time></trkpt><trkpt lat="58.56468167" lon="15.00097833"><ele>110.0</ele><time>2016-06-18T12:11:37.290Z</time></trkpt><trkpt lat="58.56456667" lon="15.00119333"><ele>109.0</ele><time>2016-06-18T12:11:38.297Z</time></trkpt><trkpt lat="58.56456667" lon="15.00119333"><ele>109.0</ele><time>2016-06-18T12:11:39.321Z</time></trkpt><trkpt lat="58.56445" lon="15.00140667"><ele>109.0</ele><time>2016-06-18T12:11:40.296Z</time></trkpt><trkpt lat="58.56445" lon="15.00140667"><ele>109.0</ele><time>2016-06-18T12:11:41.320Z</time></trkpt><trkpt lat="58.564335" lon="15.00161833"><ele>108.0</ele><time>2016-06-18T12:11:42.285Z</time></trkpt><trkpt lat="58.564335" lon="15.00161833"><ele>108.0</ele><time>2016-06-18T12:11:43.308Z</time></trkpt><trkpt lat="58.56422" lon="15.00183167"><ele>108.0</ele><time>2016-06-18T12:11:44.288Z</time></trkpt><trkpt lat="58.56422" lon="15.00183167"><ele>108.0</ele><time>2016-06-18T12:11:45.294Z</time></trkpt><trkpt lat="58.56410833" lon="15.00203167"><ele>108.0</ele><time>2016-06-18T12:11:46.306Z</time></trkpt><trkpt lat="58.56410833" lon="15.00203167"><ele>108.0</ele><time>2016-06-18T12:11:47.288Z</time></trkpt><trkpt lat="58.564" lon="15.00224"><ele>108.0</ele><time>2016-06-18T12:11:48.283Z</time></trkpt><trkpt lat="58.564" lon="15.00224"><ele>108.0</ele><time>2016-06-18T12:11:49.283Z</time></trkpt><trkpt lat="58.563885" lon="15.00245667"><ele>107.0</ele><time>2016-06-18T12:11:50.290Z</time></trkpt><trkpt lat="58.563885" lon="15.00245667"><ele>107.0</ele><time>2016-06-18T12:11:51.300Z</time></trkpt><trkpt lat="58.56376833" lon="15.00267833"><ele>107.0</ele><time>2016-06-18T12:11:52.307Z</time></trkpt><trkpt lat="58.56376833" lon="15.00267833"><ele>107.0</ele><time>2016-06-18T12:11:53.290Z</time></trkpt><trkpt lat="58.56364833" lon="15.00290667"><ele>106.0</ele><time>2016-06-18T12:11:54.288Z</time></trkpt><trkpt lat="58.56364833" lon="15.00290667"><ele>106.0</ele><time>2016-06-18T12:11:55.319Z</time></trkpt><trkpt lat="58.56352833" lon="15.00313667"><ele>106.0</ele><time>2016-06-18T12:11:56.286Z</time></trkpt><trkpt lat="58.56352833" lon="15.00313667"><ele>106.0</ele><time>2016-06-18T12:11:57.308Z</time></trkpt><trkpt lat="58.56340167" lon="15.003375"><ele>106.0</ele><time>2016-06-18T12:11:58.290Z</time></trkpt><trkpt lat="58.56340167" lon="15.003375"><ele>106.0</ele><time>2016-06-18T12:11:59.316Z</time></trkpt><trkpt lat="58.56327667" lon="15.0036"><ele>105.0</ele><time>2016-06-18T12:12:00.284Z</time></trkpt><trkpt lat="58.56321167" lon="15.00371667"><ele>105.0</ele><time>2016-06-18T12:12:01.288Z</time></trkpt><trkpt lat="58.56314833" lon="15.00383167"><ele>105.0</ele><time>2016-06-18T12:12:02.290Z</time></trkpt><trkpt lat="58.56314833" lon="15.00383167"><ele>105.0</ele><time>2016-06-18T12:12:03.319Z</time></trkpt><trkpt lat="58.56303333" lon="15.00405167"><ele>105.0</ele><time>2016-06-18T12:12:04.285Z</time></trkpt><trkpt lat="58.56303333" lon="15.00405167"><ele>105.0</ele><time>2016-06-18T12:12:05.282Z</time></trkpt><trkpt lat="58.56292333" lon="15.00424667"><ele>105.0</ele><time>2016-06-18T12:12:06.289Z</time></trkpt><trkpt lat="58.56292333" lon="15.00424667"><ele>105.0</ele><time>2016-06-18T12:12:07.311Z</time></trkpt><trkpt lat="58.56281167" lon="15.00445333"><ele>104.0</ele><time>2016-06-18T12:12:08.318Z</time></trkpt><trkpt lat="58.56281167" lon="15.00445333"><ele>104.0</ele><time>2016-06-18T12:12:09.303Z</time></trkpt><trkpt lat="58.56268667" lon="15.00466"><ele>103.0</ele><time>2016-06-18T12:12:10.285Z</time></trkpt><trkpt lat="58.56268667" lon="15.00466"><ele>103.0</ele><time>2016-06-18T12:12:11.303Z</time></trkpt><trkpt lat="58.56256" lon="15.00487333"><ele>103.0</ele><time>2016-06-18T12:12:12.282Z</time></trkpt><trkpt lat="58.56256" lon="15.00487333"><ele>103.0</ele><time>2016-06-18T12:12:13.290Z</time></trkpt><trkpt lat="58.56242833" lon="15.005095"><ele>102.0</ele><time>2016-06-18T12:12:14.297Z</time></trkpt><trkpt lat="58.56242833" lon="15.005095"><ele>102.0</ele><time>2016-06-18T12:12:15.285Z</time></trkpt><trkpt lat="58.56231" lon="15.00530833"><ele>102.0</ele><time>2016-06-18T12:12:16.291Z</time></trkpt><trkpt lat="58.56231" lon="15.00530833"><ele>102.0</ele><time>2016-06-18T12:12:17.313Z</time></trkpt><trkpt lat="58.56219333" lon="15.00551667"><ele>102.0</ele><time>2016-06-18T12:12:18.292Z</time></trkpt><trkpt lat="58.56219333" lon="15.00551667"><ele>102.0</ele><time>2016-06-18T12:12:19.308Z</time></trkpt><trkpt lat="58.56208667" lon="15.00570667"><ele>101.0</ele><time>2016-06-18T12:12:20.316Z</time></trkpt><trkpt lat="58.56208667" lon="15.00570667"><ele>101.0</ele><time>2016-06-18T12:12:21.313Z</time></trkpt><trkpt lat="58.56198667" lon="15.005875"><ele>101.0</ele><time>2016-06-18T12:12:22.283Z</time></trkpt><trkpt lat="58.56198667" lon="15.005875"><ele>101.0</ele><time>2016-06-18T12:12:23.294Z</time></trkpt><trkpt lat="58.56188" lon="15.00605333"><ele>100.0</ele><time>2016-06-18T12:12:24.302Z</time></trkpt><trkpt lat="58.56182833" lon="15.006145"><ele>100.0</ele><time>2016-06-18T12:12:25.314Z</time></trkpt><trkpt lat="58.56182833" lon="15.006145"><ele>100.0</ele><time>2016-06-18T12:12:26.321Z</time></trkpt><trkpt lat="58.56171833" lon="15.00634667"><ele>100.0</ele><time>2016-06-18T12:12:27.287Z</time></trkpt><trkpt lat="58.56171833" lon="15.00634667"><ele>100.0</ele><time>2016-06-18T12:12:28.296Z</time></trkpt><trkpt lat="58.5616" lon="15.00656"><ele>99.0</ele><time>2016-06-18T12:12:29.301Z</time></trkpt><trkpt lat="58.56153833" lon="15.006665"><ele>99.0</ele><time>2016-06-18T12:12:30.319Z</time></trkpt><trkpt lat="58.56153833" lon="15.006665"><ele>99.0</ele><time>2016-06-18T12:12:31.305Z</time></trkpt><trkpt lat="58.56141167" lon="15.00687667"><ele>99.0</ele><time>2016-06-18T12:12:32.319Z</time></trkpt><trkpt lat="58.56141167" lon="15.00687667"><ele>99.0</ele><time>2016-06-18T12:12:33.282Z</time></trkpt><trkpt lat="58.56128667" lon="15.00709167"><ele>98.0</ele><time>2016-06-18T12:12:34.288Z</time></trkpt><trkpt lat="58.56122333" lon="15.00719833"><ele>98.0</ele><time>2016-06-18T12:12:35.294Z</time></trkpt><trkpt lat="58.56122333" lon="15.00719833"><ele>98.0</ele><time>2016-06-18T12:12:36.305Z</time></trkpt><trkpt lat="58.56109333" lon="15.00740833"><ele>98.0</ele><time>2016-06-18T12:12:37.312Z</time></trkpt><trkpt lat="58.56109333" lon="15.00740833"><ele>98.0</ele><time>2016-06-18T12:12:38.294Z</time></trkpt><trkpt lat="58.56096167" lon="15.00761833"><ele>98.0</ele><time>2016-06-18T12:12:39.295Z</time></trkpt><trkpt lat="58.56096167" lon="15.00761833"><ele>98.0</ele><time>2016-06-18T12:12:40.316Z</time></trkpt><trkpt lat="58.56082833" lon="15.00782333"><ele>97.0</ele><time>2016-06-18T12:12:41.283Z</time></trkpt><trkpt lat="58.56082833" lon="15.00782333"><ele>97.0</ele><time>2016-06-18T12:12:42.305Z</time></trkpt><trkpt lat="58.56069167" lon="15.00803"><ele>97.0</ele><time>2016-06-18T12:12:43.304Z</time></trkpt><trkpt lat="58.56062167" lon="15.00813"><ele>97.0</ele><time>2016-06-18T12:12:44.294Z</time></trkpt><trkpt lat="58.56062167" lon="15.00813"><ele>97.0</ele><time>2016-06-18T12:12:45.316Z</time></trkpt><trkpt lat="58.56047667" lon="15.00834167"><ele>97.0</ele><time>2016-06-18T12:12:46.288Z</time></trkpt><trkpt lat="58.56047667" lon="15.00834167"><ele>97.0</ele><time>2016-06-18T12:12:47.302Z</time></trkpt><trkpt lat="58.56033167" lon="15.00854667"><ele>96.0</ele><time>2016-06-18T12:12:48.309Z</time></trkpt><trkpt lat="58.56033167" lon="15.00854667"><ele>96.0</ele><time>2016-06-18T12:12:49.285Z</time></trkpt><trkpt lat="58.56017833" lon="15.00874667"><ele>96.0</ele><time>2016-06-18T12:12:50.292Z</time></trkpt><trkpt lat="58.56010167" lon="15.00884833"><ele>96.0</ele><time>2016-06-18T12:12:51.309Z</time></trkpt><trkpt lat="58.56010167" lon="15.00884833"><ele>96.0</ele><time>2016-06-18T12:12:52.301Z</time></trkpt><trkpt lat="58.55994833" lon="15.00904333"><ele>96.0</ele><time>2016-06-18T12:12:53.309Z</time></trkpt><trkpt lat="58.55994833" lon="15.00904333"><ele>96.0</ele><time>2016-06-18T12:12:54.294Z</time></trkpt><trkpt lat="58.55979333" lon="15.00922333"><ele>95.0</ele><time>2016-06-18T12:12:55.302Z</time></trkpt><trkpt lat="58.55971333" lon="15.00931333"><ele>95.0</ele><time>2016-06-18T12:12:56.293Z</time></trkpt><trkpt lat="58.55971333" lon="15.00931333"><ele>95.0</ele><time>2016-06-18T12:12:57.313Z</time></trkpt><trkpt lat="58.55955667" lon="15.009495"><ele>95.0</ele><time>2016-06-18T12:12:58.320Z</time></trkpt><trkpt lat="58.55947667" lon="15.00958667"><ele>95.0</ele><time>2016-06-18T12:12:59.304Z</time></trkpt><trkpt lat="58.55947667" lon="15.00958667"><ele>95.0</ele><time>2016-06-18T12:13:00.292Z</time></trkpt><trkpt lat="58.55932" lon="15.00976833"><ele>95.0</ele><time>2016-06-18T12:13:01.299Z</time></trkpt><trkpt lat="58.55932" lon="15.00976833"><ele>95.0</ele><time>2016-06-18T12:13:02.320Z</time></trkpt><trkpt lat="58.55916667" lon="15.00994667"><ele>94.0</ele><time>2016-06-18T12:13:03.299Z</time></trkpt><trkpt lat="58.55916667" lon="15.00994667"><ele>94.0</ele><time>2016-06-18T12:13:04.320Z</time></trkpt><trkpt lat="58.559015" lon="15.01010833"><ele>94.0</ele><time>2016-06-18T12:13:05.288Z</time></trkpt><trkpt lat="58.559015" lon="15.01010833"><ele>94.0</ele><time>2016-06-18T12:13:06.309Z</time></trkpt><trkpt lat="58.55886667" lon="15.01026"><ele>94.0</ele><time>2016-06-18T12:13:07.301Z</time></trkpt><trkpt lat="58.55886667" lon="15.01026"><ele>94.0</ele><time>2016-06-18T12:13:08.310Z</time></trkpt><trkpt lat="58.55871167" lon="15.01039833"><ele>93.0</ele><time>2016-06-18T12:13:09.284Z</time></trkpt><trkpt lat="58.55871167" lon="15.01039833"><ele>93.0</ele><time>2016-06-18T12:13:10.306Z</time></trkpt><trkpt lat="58.55855333" lon="15.010545"><ele>93.0</ele><time>2016-06-18T12:13:11.296Z</time></trkpt><trkpt lat="58.55855333" lon="15.010545"><ele>93.0</ele><time>2016-06-18T12:13:12.289Z</time></trkpt><trkpt lat="58.55839333" lon="15.0107"><ele>93.0</ele><time>2016-06-18T12:13:13.311Z</time></trkpt><trkpt lat="58.55831167" lon="15.01077333"><ele>93.0</ele><time>2016-06-18T12:13:14.293Z</time></trkpt><trkpt lat="58.55831167" lon="15.01077333"><ele>93.0</ele><time>2016-06-18T12:13:15.316Z</time></trkpt><trkpt lat="58.55814833" lon="15.01092167"><ele>92.0</ele><time>2016-06-18T12:13:16.287Z</time></trkpt><trkpt lat="58.55814833" lon="15.01092167"><ele>92.0</ele><time>2016-06-18T12:13:17.309Z</time></trkpt><trkpt lat="58.55798" lon="15.01106333"><ele>92.0</ele><time>2016-06-18T12:13:18.315Z</time></trkpt><trkpt lat="58.55798" lon="15.01106333"><ele>92.0</ele><time>2016-06-18T12:13:19.303Z</time></trkpt><trkpt lat="58.55781667" lon="15.011205"><ele>92.0</ele><time>2016-06-18T12:13:20.301Z</time></trkpt><trkpt lat="58.55781667" lon="15.011205"><ele>92.0</ele><time>2016-06-18T12:13:21.289Z</time></trkpt><trkpt lat="58.55764833" lon="15.01133167"><ele>92.0</ele><time>2016-06-18T12:13:22.296Z</time></trkpt><trkpt lat="58.55764833" lon="15.01133167"><ele>92.0</ele><time>2016-06-18T12:13:23.286Z</time></trkpt><trkpt lat="58.55748167" lon="15.01146"><ele>92.0</ele><time>2016-06-18T12:13:24.296Z</time></trkpt><trkpt lat="58.557395" lon="15.01152"><ele>91.0</ele><time>2016-06-18T12:13:25.320Z</time></trkpt><trkpt lat="58.557395" lon="15.01152"><ele>91.0</ele><time>2016-06-18T12:13:26.312Z</time></trkpt><trkpt lat="58.557225" lon="15.01164333"><ele>90.0</ele><time>2016-06-18T12:13:27.319Z</time></trkpt><trkpt lat="58.557225" lon="15.01164333"><ele>90.0</ele><time>2016-06-18T12:13:28.302Z</time></trkpt><trkpt lat="58.55705167" lon="15.01176833"><ele>90.0</ele><time>2016-06-18T12:13:29.321Z</time></trkpt><trkpt lat="58.55705167" lon="15.01176833"><ele>90.0</ele><time>2016-06-18T12:13:30.288Z</time></trkpt><trkpt lat="58.55687833" lon="15.01189333"><ele>89.0</ele><time>2016-06-18T12:13:31.295Z</time></trkpt><trkpt lat="58.55679" lon="15.01195167"><ele>89.0</ele><time>2016-06-18T12:13:32.317Z</time></trkpt><trkpt lat="58.55679" lon="15.01195167"><ele>89.0</ele><time>2016-06-18T12:13:33.320Z</time></trkpt><trkpt lat="58.55661333" lon="15.01207333"><ele>88.0</ele><time>2016-06-18T12:13:34.287Z</time></trkpt><trkpt lat="58.55661333" lon="15.01207333"><ele>88.0</ele><time>2016-06-18T12:13:35.308Z</time></trkpt><trkpt lat="58.55643" lon="15.01219667"><ele>87.0</ele><time>2016-06-18T12:13:36.303Z</time></trkpt><trkpt lat="58.55643" lon="15.01219667"><ele>87.0</ele><time>2016-06-18T12:13:37.309Z</time></trkpt><trkpt lat="58.55624333" lon="15.01231833"><ele>86.0</ele><time>2016-06-18T12:13:38.316Z</time></trkpt><trkpt lat="58.55624333" lon="15.01231833"><ele>86.0</ele><time>2016-06-18T12:13:39.299Z</time></trkpt><trkpt lat="58.55605333" lon="15.01244"><ele>85.0</ele><time>2016-06-18T12:13:40.301Z</time></trkpt><trkpt lat="58.55605333" lon="15.01244"><ele>85.0</ele><time>2016-06-18T12:13:41.318Z</time></trkpt><trkpt lat="58.55586" lon="15.01255667"><ele>85.0</ele><time>2016-06-18T12:13:42.284Z</time></trkpt><trkpt lat="58.55586" lon="15.01255667"><ele>85.0</ele><time>2016-06-18T12:13:43.306Z</time></trkpt><trkpt lat="58.55567333" lon="15.012675"><ele>84.0</ele><time>2016-06-18T12:13:44.318Z</time></trkpt><trkpt lat="58.55567333" lon="15.012675"><ele>84.0</ele><time>2016-06-18T12:13:45.305Z</time></trkpt><trkpt lat="58.555475" lon="15.01278167"><ele>84.0</ele><time>2016-06-18T12:13:46.293Z</time></trkpt><trkpt lat="58.555475" lon="15.01278167"><ele>84.0</ele><time>2016-06-18T12:13:47.288Z</time></trkpt><trkpt lat="58.55527833" lon="15.01286833"><ele>83.0</ele><time>2016-06-18T12:13:48.282Z</time></trkpt><trkpt lat="58.55527833" lon="15.01286833"><ele>83.0</ele><time>2016-06-18T12:13:49.301Z</time></trkpt><trkpt lat="58.555085" lon="15.01294333"><ele>82.0</ele><time>2016-06-18T12:13:50.308Z</time></trkpt><trkpt lat="58.555085" lon="15.01294333"><ele>82.0</ele><time>2016-06-18T12:13:51.291Z</time></trkpt><trkpt lat="58.55489833" lon="15.013015"><ele>81.0</ele><time>2016-06-18T12:13:52.297Z</time></trkpt><trkpt lat="58.55489833" lon="15.013015"><ele>81.0</ele><time>2016-06-18T12:13:53.305Z</time></trkpt><trkpt lat="58.55471667" lon="15.01308"><ele>81.0</ele><time>2016-06-18T12:13:54.315Z</time></trkpt><trkpt lat="58.55471667" lon="15.01308"><ele>81.0</ele><time>2016-06-18T12:13:55.301Z</time></trkpt><trkpt lat="58.554525" lon="15.01313167"><ele>80.0</ele><time>2016-06-18T12:13:56.293Z</time></trkpt><trkpt lat="58.554525" lon="15.01313167"><ele>80.0</ele><time>2016-06-18T12:13:57.292Z</time></trkpt><trkpt lat="58.55434333" lon="15.01318167"><ele>79.0</ele><time>2016-06-18T12:13:58.298Z</time></trkpt><trkpt lat="58.55434333" lon="15.01318167"><ele>79.0</ele><time>2016-06-18T12:13:59.320Z</time></trkpt><trkpt lat="58.55417833" lon="15.01321667"><ele>79.0</ele><time>2016-06-18T12:14:00.287Z</time></trkpt><trkpt lat="58.55417833" lon="15.01321667"><ele>79.0</ele><time>2016-06-18T12:14:01.309Z</time></trkpt><trkpt lat="58.55400833" lon="15.01324667"><ele>78.0</ele><time>2016-06-18T12:14:02.294Z</time></trkpt><trkpt lat="58.55400833" lon="15.01324667"><ele>78.0</ele><time>2016-06-18T12:14:03.315Z</time></trkpt><trkpt lat="58.55383667" lon="15.01327833"><ele>78.0</ele><time>2016-06-18T12:14:04.321Z</time></trkpt><trkpt lat="58.55383667" lon="15.01327833"><ele>78.0</ele><time>2016-06-18T12:14:05.315Z</time></trkpt><trkpt lat="58.55366333" lon="15.01330667"><ele>78.0</ele><time>2016-06-18T12:14:06.294Z</time></trkpt><trkpt lat="58.55366333" lon="15.01330667"><ele>78.0</ele><time>2016-06-18T12:14:07.320Z</time></trkpt><trkpt lat="58.553495" lon="15.01334"><ele>78.0</ele><time>2016-06-18T12:14:08.286Z</time></trkpt><trkpt lat="58.553495" lon="15.01334"><ele>78.0</ele><time>2016-06-18T12:14:09.308Z</time></trkpt><trkpt lat="58.553325" lon="15.01338667"><ele>79.0</ele><time>2016-06-18T12:14:10.305Z</time></trkpt><trkpt lat="58.553325" lon="15.01338667"><ele>79.0</ele><time>2016-06-18T12:14:11.297Z</time></trkpt><trkpt lat="58.553155" lon="15.01342333"><ele>80.0</ele><time>2016-06-18T12:14:12.283Z</time></trkpt><trkpt lat="58.55307333" lon="15.01344667"><ele>80.0</ele><time>2016-06-18T12:14:13.289Z</time></trkpt><trkpt lat="58.55307333" lon="15.01344667"><ele>80.0</ele><time>2016-06-18T12:14:14.316Z</time></trkpt><trkpt lat="58.55291167" lon="15.01349833"><ele>82.0</ele><time>2016-06-18T12:14:15.282Z</time></trkpt><trkpt lat="58.55291167" lon="15.01349833"><ele>82.0</ele><time>2016-06-18T12:14:16.319Z</time></trkpt><trkpt lat="58.55275333" lon="15.01354333"><ele>83.0</ele><time>2016-06-18T12:14:17.286Z</time></trkpt><trkpt lat="58.55275333" lon="15.01354333"><ele>83.0</ele><time>2016-06-18T12:14:18.309Z</time></trkpt><trkpt lat="58.55259333" lon="15.01357667"><ele>84.0</ele><time>2016-06-18T12:14:19.318Z</time></trkpt><trkpt lat="58.55251667" lon="15.013595"><ele>84.0</ele><time>2016-06-18T12:14:20.289Z</time></trkpt><trkpt lat="58.55251667" lon="15.013595"><ele>84.0</ele><time>2016-06-18T12:14:21.311Z</time></trkpt><trkpt lat="58.55235833" lon="15.01363333"><ele>85.0</ele><time>2016-06-18T12:14:22.319Z</time></trkpt><trkpt lat="58.55235833" lon="15.01363333"><ele>85.0</ele><time>2016-06-18T12:14:23.309Z</time></trkpt><trkpt lat="58.5522" lon="15.01366667"><ele>85.0</ele><time>2016-06-18T12:14:24.283Z</time></trkpt><trkpt lat="58.5522" lon="15.01366667"><ele>85.0</ele><time>2016-06-18T12:14:25.306Z</time></trkpt><trkpt lat="58.55203667" lon="15.013705"><ele>85.0</ele><time>2016-06-18T12:14:26.305Z</time></trkpt><trkpt lat="58.55203667" lon="15.013705"><ele>85.0</ele><time>2016-06-18T12:14:27.316Z</time></trkpt><trkpt lat="58.55187333" lon="15.01375667"><ele>86.0</ele><time>2016-06-18T12:14:28.282Z</time></trkpt><trkpt lat="58.55179167" lon="15.01377667"><ele>85.0</ele><time>2016-06-18T12:14:29.308Z</time></trkpt><trkpt lat="58.55179167" lon="15.01377667"><ele>85.0</ele><time>2016-06-18T12:14:30.320Z</time></trkpt><trkpt lat="58.55162667" lon="15.01382167"><ele>85.0</ele><time>2016-06-18T12:14:31.297Z</time></trkpt><trkpt lat="58.55154333" lon="15.013845"><ele>85.0</ele><time>2016-06-18T12:14:32.320Z</time></trkpt><trkpt lat="58.55154333" lon="15.013845"><ele>85.0</ele><time>2016-06-18T12:14:33.304Z</time></trkpt><trkpt lat="58.55137667" lon="15.01389167"><ele>85.0</ele><time>2016-06-18T12:14:34.311Z</time></trkpt><trkpt lat="58.55137667" lon="15.01389167"><ele>85.0</ele><time>2016-06-18T12:14:35.289Z</time></trkpt><trkpt lat="58.55121" lon="15.01394167"><ele>85.0</ele><time>2016-06-18T12:14:36.296Z</time></trkpt><trkpt lat="58.55112833" lon="15.01396667"><ele>85.0</ele><time>2016-06-18T12:14:37.309Z</time></trkpt><trkpt lat="58.55104833" lon="15.01399167"><ele>85.0</ele><time>2016-06-18T12:14:38.282Z</time></trkpt><trkpt lat="58.55104833" lon="15.01399167"><ele>85.0</ele><time>2016-06-18T12:14:39.306Z</time></trkpt><trkpt lat="58.55088667" lon="15.01404667"><ele>85.0</ele><time>2016-06-18T12:14:40.282Z</time></trkpt><trkpt lat="58.55088667" lon="15.01404667"><ele>85.0</ele><time>2016-06-18T12:14:41.282Z</time></trkpt><trkpt lat="58.550725" lon="15.01409667"><ele>85.0</ele><time>2016-06-18T12:14:42.289Z</time></trkpt><trkpt lat="58.550725" lon="15.01409667"><ele>85.0</ele><time>2016-06-18T12:14:43.311Z</time></trkpt><trkpt lat="58.550565" lon="15.01414333"><ele>84.0</ele><time>2016-06-18T12:14:44.287Z</time></trkpt><trkpt lat="58.550565" lon="15.01414333"><ele>84.0</ele><time>2016-06-18T12:14:45.316Z</time></trkpt><trkpt lat="58.550405" lon="15.014195"><ele>84.0</ele><time>2016-06-18T12:14:46.282Z</time></trkpt><trkpt lat="58.550405" lon="15.014195"><ele>84.0</ele><time>2016-06-18T12:14:47.319Z</time></trkpt><trkpt lat="58.55024333" lon="15.014245"><ele>84.0</ele><time>2016-06-18T12:14:48.285Z</time></trkpt><trkpt lat="58.55024333" lon="15.014245"><ele>84.0</ele><time>2016-06-18T12:14:49.309Z</time></trkpt><trkpt lat="58.55007833" lon="15.014295"><ele>84.0</ele><time>2016-06-18T12:14:50.282Z</time></trkpt><trkpt lat="58.55007833" lon="15.014295"><ele>84.0</ele><time>2016-06-18T12:14:51.305Z</time></trkpt><trkpt lat="58.54991333" lon="15.01433833"><ele>84.0</ele><time>2016-06-18T12:14:52.311Z</time></trkpt><trkpt lat="58.54991333" lon="15.01433833"><ele>84.0</ele><time>2016-06-18T12:14:53.295Z</time></trkpt><trkpt lat="58.54974333" lon="15.01438333"><ele>84.0</ele><time>2016-06-18T12:14:54.286Z</time></trkpt><trkpt lat="58.54974333" lon="15.01438333"><ele>84.0</ele><time>2016-06-18T12:14:55.299Z</time></trkpt><trkpt lat="58.54957833" lon="15.01443"><ele>84.0</ele><time>2016-06-18T12:14:56.306Z</time></trkpt><trkpt lat="58.54957833" lon="15.01443"><ele>84.0</ele><time>2016-06-18T12:14:57.287Z</time></trkpt><trkpt lat="58.549415" lon="15.01447667"><ele>84.0</ele><time>2016-06-18T12:14:58.288Z</time></trkpt><trkpt lat="58.549415" lon="15.01447667"><ele>84.0</ele><time>2016-06-18T12:14:59.284Z</time></trkpt><trkpt lat="58.54925167" lon="15.01452"><ele>83.0</ele><time>2016-06-18T12:15:00.291Z</time></trkpt><trkpt lat="58.54925167" lon="15.01452"><ele>83.0</ele><time>2016-06-18T12:15:01.305Z</time></trkpt><trkpt lat="58.54908833" lon="15.01456167"><ele>83.0</ele><time>2016-06-18T12:15:02.312Z</time></trkpt><trkpt lat="58.54908833" lon="15.01456167"><ele>83.0</ele><time>2016-06-18T12:15:03.295Z</time></trkpt><trkpt lat="58.54892833" lon="15.01459833"><ele>83.0</ele><time>2016-06-18T12:15:04.285Z</time></trkpt><trkpt lat="58.54892833" lon="15.01459833"><ele>83.0</ele><time>2016-06-18T12:15:05.308Z</time></trkpt><trkpt lat="58.548775" lon="15.014635"><ele>83.0</ele><time>2016-06-18T12:15:06.317Z</time></trkpt><trkpt lat="58.54870167" lon="15.01465"><ele>83.0</ele><time>2016-06-18T12:15:07.301Z</time></trkpt><trkpt lat="58.54863" lon="15.01466667"><ele>83.0</ele><time>2016-06-18T12:15:08.283Z</time></trkpt><trkpt lat="58.54863" lon="15.01466667"><ele>83.0</ele><time>2016-06-18T12:15:09.305Z</time></trkpt><trkpt lat="58.54848667" lon="15.014695"><ele>82.0</ele><time>2016-06-18T12:15:10.315Z</time></trkpt><trkpt lat="58.54848667" lon="15.014695"><ele>82.0</ele><time>2016-06-18T12:15:11.300Z</time></trkpt><trkpt lat="58.54833833" lon="15.01472333"><ele>82.0</ele><time>2016-06-18T12:15:12.285Z</time></trkpt><trkpt lat="58.54833833" lon="15.01472333"><ele>82.0</ele><time>2016-06-18T12:15:13.310Z</time></trkpt><trkpt lat="58.54818667" lon="15.01475167"><ele>82.0</ele><time>2016-06-18T12:15:14.319Z</time></trkpt><trkpt lat="58.54818667" lon="15.01475167"><ele>82.0</ele><time>2016-06-18T12:15:15.305Z</time></trkpt><trkpt lat="58.548035" lon="15.01478167"><ele>82.0</ele><time>2016-06-18T12:15:16.305Z</time></trkpt><trkpt lat="58.548035" lon="15.01478167"><ele>82.0</ele><time>2016-06-18T12:15:17.291Z</time></trkpt><trkpt lat="58.54788333" lon="15.01481"><ele>81.0</ele><time>2016-06-18T12:15:18.297Z</time></trkpt><trkpt lat="58.54788333" lon="15.01481"><ele>81.0</ele><time>2016-06-18T12:15:19.288Z</time></trkpt><trkpt lat="58.54773" lon="15.01482833"><ele>81.0</ele><time>2016-06-18T12:15:20.298Z</time></trkpt><trkpt lat="58.54773" lon="15.01482833"><ele>81.0</ele><time>2016-06-18T12:15:21.320Z</time></trkpt><trkpt lat="58.54757833" lon="15.01484333"><ele>81.0</ele><time>2016-06-18T12:15:22.286Z</time></trkpt><trkpt lat="58.54757833" lon="15.01484333"><ele>81.0</ele><time>2016-06-18T12:15:23.312Z</time></trkpt><trkpt lat="58.54742667" lon="15.014845"><ele>80.0</ele><time>2016-06-18T12:15:24.308Z</time></trkpt><trkpt lat="58.54742667" lon="15.014845"><ele>80.0</ele><time>2016-06-18T12:15:25.288Z</time></trkpt><trkpt lat="58.54726833" lon="15.01485167"><ele>80.0</ele><time>2016-06-18T12:15:26.295Z</time></trkpt><trkpt lat="58.54726833" lon="15.01485167"><ele>80.0</ele><time>2016-06-18T12:15:27.282Z</time></trkpt><trkpt lat="58.54711" lon="15.01486167"><ele>80.0</ele><time>2016-06-18T12:15:28.289Z</time></trkpt><trkpt lat="58.54711" lon="15.01486167"><ele>80.0</ele><time>2016-06-18T12:15:29.310Z</time></trkpt><trkpt lat="58.54695333" lon="15.01487333"><ele>79.0</ele><time>2016-06-18T12:15:30.294Z</time></trkpt><trkpt lat="58.54695333" lon="15.01487333"><ele>79.0</ele><time>2016-06-18T12:15:31.319Z</time></trkpt><trkpt lat="58.54679167" lon="15.01488333"><ele>79.0</ele><time>2016-06-18T12:15:32.285Z</time></trkpt><trkpt lat="58.54679167" lon="15.01488333"><ele>79.0</ele><time>2016-06-18T12:15:33.311Z</time></trkpt><trkpt lat="58.54663" lon="15.01489333"><ele>79.0</ele><time>2016-06-18T12:15:34.302Z</time></trkpt><trkpt lat="58.54663" lon="15.01489333"><ele>79.0</ele><time>2016-06-18T12:15:35.303Z</time></trkpt><trkpt lat="58.54646667" lon="15.014905"><ele>79.0</ele><time>2016-06-18T12:15:36.309Z</time></trkpt><trkpt lat="58.54638333" lon="15.01491"><ele>79.0</ele><time>2016-06-18T12:15:37.301Z</time></trkpt><trkpt lat="58.54638333" lon="15.01491"><ele>79.0</ele><time>2016-06-18T12:15:38.283Z</time></trkpt><trkpt lat="58.54622333" lon="15.01492"><ele>79.0</ele><time>2016-06-18T12:15:39.290Z</time></trkpt><trkpt lat="58.54622333" lon="15.01492"><ele>79.0</ele><time>2016-06-18T12:15:40.296Z</time></trkpt><trkpt lat="58.546075" lon="15.01493333"><ele>80.0</ele><time>2016-06-18T12:15:41.309Z</time></trkpt><trkpt lat="58.546075" lon="15.01493333"><ele>80.0</ele><time>2016-06-18T12:15:42.291Z</time></trkpt><trkpt lat="58.54593667" lon="15.014945"><ele>81.0</ele><time>2016-06-18T12:15:43.300Z</time></trkpt><trkpt lat="58.54593667" lon="15.014945"><ele>81.0</ele><time>2016-06-18T12:15:44.292Z</time></trkpt><trkpt lat="58.54580833" lon="15.01495"><ele>82.0</ele><time>2016-06-18T12:15:45.299Z</time></trkpt><trkpt lat="58.54580833" lon="15.01495"><ele>82.0</ele><time>2016-06-18T12:15:46.309Z</time></trkpt><trkpt lat="58.54569333" lon="15.01495833"><ele>83.0</ele><time>2016-06-18T12:15:47.317Z</time></trkpt><trkpt lat="58.54569333" lon="15.01495833"><ele>83.0</ele><time>2016-06-18T12:15:48.312Z</time></trkpt><trkpt lat="58.54569333" lon="15.01495833"><ele>83.0</ele><time>2016-06-18T12:15:49.394Z</time></trkpt><trkpt lat="58.54558333" lon="15.014965"><ele>84.0</ele><time>2016-06-18T12:15:50.302Z</time></trkpt><trkpt lat="58.54548333" lon="15.01497333"><ele>84.0</ele><time>2016-06-18T12:15:51.310Z</time></trkpt><trkpt lat="58.54548333" lon="15.01497333"><ele>84.0</ele><time>2016-06-18T12:15:52.293Z</time></trkpt><trkpt lat="58.545385" lon="15.01497833"><ele>85.0</ele><time>2016-06-18T12:15:53.308Z</time></trkpt><trkpt lat="58.545385" lon="15.01497833"><ele>85.0</ele><time>2016-06-18T12:15:54.290Z</time></trkpt><trkpt lat="58.54528333" lon="15.01496333"><ele>85.0</ele><time>2016-06-18T12:15:55.294Z</time></trkpt><trkpt lat="58.54523167" lon="15.014945"><ele>86.0</ele><time>2016-06-18T12:15:56.291Z</time></trkpt><trkpt lat="58.54523167" lon="15.014945"><ele>86.0</ele><time>2016-06-18T12:15:57.318Z</time></trkpt><trkpt lat="58.54513833" lon="15.01485667"><ele>86.0</ele><time>2016-06-18T12:15:58.284Z</time></trkpt><trkpt lat="58.54513833" lon="15.01485667"><ele>86.0</ele><time>2016-06-18T12:15:59.308Z</time></trkpt><trkpt lat="58.54506667" lon="15.01468667"><ele>87.0</ele><time>2016-06-18T12:16:00.295Z</time></trkpt><trkpt lat="58.54506667" lon="15.01468667"><ele>87.0</ele><time>2016-06-18T12:16:01.307Z</time></trkpt><trkpt lat="58.545" lon="15.01448"><ele>87.0</ele><time>2016-06-18T12:16:02.314Z</time></trkpt><trkpt lat="58.545" lon="15.01448"><ele>87.0</ele><time>2016-06-18T12:16:03.296Z</time></trkpt><trkpt lat="58.54490667" lon="15.01429833"><ele>87.0</ele><time>2016-06-18T12:16:04.304Z</time></trkpt><trkpt lat="58.54484667" lon="15.01423667"><ele>87.0</ele><time>2016-06-18T12:16:05.287Z</time></trkpt><trkpt lat="58.54484667" lon="15.01423667"><ele>87.0</ele><time>2016-06-18T12:16:06.304Z</time></trkpt><trkpt lat="58.54469833" lon="15.01418333"><ele>87.0</ele><time>2016-06-18T12:16:07.311Z</time></trkpt><trkpt lat="58.54469833" lon="15.01418333"><ele>87.0</ele><time>2016-06-18T12:16:08.293Z</time></trkpt><trkpt lat="58.54454333" lon="15.01423167"><ele>87.0</ele><time>2016-06-18T12:16:09.311Z</time></trkpt><trkpt lat="58.54454333" lon="15.01423167"><ele>87.0</ele><time>2016-06-18T12:16:10.318Z</time></trkpt><trkpt lat="58.54441667" lon="15.01438833"><ele>87.0</ele><time>2016-06-18T12:16:11.294Z</time></trkpt><trkpt lat="58.54436167" lon="15.01449"><ele>87.0</ele><time>2016-06-18T12:16:12.296Z</time></trkpt><trkpt lat="58.54430333" lon="15.014605"><ele>86.0</ele><time>2016-06-18T12:16:13.284Z</time></trkpt><trkpt lat="58.54425" lon="15.01472167"><ele>86.0</ele><time>2016-06-18T12:16:14.311Z</time></trkpt><trkpt lat="58.54425" lon="15.01472167"><ele>86.0</ele><time>2016-06-18T12:16:15.294Z</time></trkpt><trkpt lat="58.54413333" lon="15.01492333"><ele>85.0</ele><time>2016-06-18T12:16:16.305Z</time></trkpt><trkpt lat="58.544065" lon="15.014985"><ele>84.0</ele><time>2016-06-18T12:16:17.301Z</time></trkpt><trkpt lat="58.544065" lon="15.014985"><ele>84.0</ele><time>2016-06-18T12:16:18.283Z</time></trkpt><trkpt lat="58.54391" lon="15.01501667"><ele>83.0</ele><time>2016-06-18T12:16:19.291Z</time></trkpt><trkpt lat="58.54391" lon="15.01501667"><ele>83.0</ele><time>2016-06-18T12:16:20.314Z</time></trkpt><trkpt lat="58.54375667" lon="15.014945"><ele>82.0</ele><time>2016-06-18T12:16:21.303Z</time></trkpt><trkpt lat="58.54375667" lon="15.014945"><ele>82.0</ele><time>2016-06-18T12:16:22.302Z</time></trkpt><trkpt lat="58.54363833" lon="15.01479"><ele>82.0</ele><time>2016-06-18T12:16:23.319Z</time></trkpt><trkpt lat="58.54363833" lon="15.01479"><ele>82.0</ele><time>2016-06-18T12:16:24.316Z</time></trkpt><trkpt lat="58.54356" lon="15.014585"><ele>82.0</ele><time>2016-06-18T12:16:25.304Z</time></trkpt><trkpt lat="58.54356" lon="15.014585"><ele>82.0</ele><time>2016-06-18T12:16:26.290Z</time></trkpt><trkpt lat="58.54350833" lon="15.01435667"><ele>83.0</ele><time>2016-06-18T12:16:27.297Z</time></trkpt><trkpt lat="58.54350833" lon="15.01435667"><ele>83.0</ele><time>2016-06-18T12:16:28.319Z</time></trkpt><trkpt lat="58.543455" lon="15.01414"><ele>83.0</ele><time>2016-06-18T12:16:29.297Z</time></trkpt><trkpt lat="58.54341167" lon="15.01406833"><ele>84.0</ele><time>2016-06-18T12:16:30.282Z</time></trkpt><trkpt lat="58.54341167" lon="15.01406833"><ele>84.0</ele><time>2016-06-18T12:16:31.306Z</time></trkpt><trkpt lat="58.543295" lon="15.01408333"><ele>84.0</ele><time>2016-06-18T12:16:32.313Z</time></trkpt><trkpt lat="58.543295" lon="15.01408333"><ele>84.0</ele><time>2016-06-18T12:16:33.320Z</time></trkpt><trkpt lat="58.54320167" lon="15.01427"><ele>84.0</ele><time>2016-06-18T12:16:34.302Z</time></trkpt><trkpt lat="58.54315167" lon="15.01435667"><ele>84.0</ele><time>2016-06-18T12:16:35.290Z</time></trkpt><trkpt lat="58.54315167" lon="15.01435667"><ele>84.0</ele><time>2016-06-18T12:16:36.311Z</time></trkpt><trkpt lat="58.54303" lon="15.01445167"><ele>84.0</ele><time>2016-06-18T12:16:37.318Z</time></trkpt><trkpt lat="58.54295833" lon="15.01448667"><ele>84.0</ele><time>2016-06-18T12:16:38.300Z</time></trkpt><trkpt lat="58.54295833" lon="15.01448667"><ele>84.0</ele><time>2016-06-18T12:16:39.321Z</time></trkpt><trkpt lat="58.54280667" lon="15.01455167"><ele>84.0</ele><time>2016-06-18T12:16:40.287Z</time></trkpt><trkpt lat="58.542725" lon="15.01458"><ele>84.0</ele><time>2016-06-18T12:16:41.297Z</time></trkpt><trkpt lat="58.542725" lon="15.01458"><ele>84.0</ele><time>2016-06-18T12:16:42.284Z</time></trkpt><trkpt lat="58.54256833" lon="15.01462167"><ele>84.0</ele><time>2016-06-18T12:16:43.293Z</time></trkpt><trkpt lat="58.54256833" lon="15.01462167"><ele>84.0</ele><time>2016-06-18T12:16:44.316Z</time></trkpt><trkpt lat="58.54240667" lon="15.01465833"><ele>84.0</ele><time>2016-06-18T12:16:45.295Z</time></trkpt><trkpt lat="58.54232667" lon="15.01468"><ele>84.0</ele><time>2016-06-18T12:16:46.303Z</time></trkpt><trkpt lat="58.54232667" lon="15.01468"><ele>84.0</ele><time>2016-06-18T12:16:47.302Z</time></trkpt><trkpt lat="58.54216833" lon="15.01472833"><ele>84.0</ele><time>2016-06-18T12:16:48.315Z</time></trkpt><trkpt lat="58.54210167" lon="15.014745"><ele>84.0</ele><time>2016-06-18T12:16:49.294Z</time></trkpt><trkpt lat="58.54210167" lon="15.014745"><ele>84.0</ele><time>2016-06-18T12:16:50.309Z</time></trkpt><trkpt lat="58.54194333" lon="15.01479667"><ele>84.0</ele><time>2016-06-18T12:16:51.317Z</time></trkpt><trkpt lat="58.54194333" lon="15.01479667"><ele>84.0</ele><time>2016-06-18T12:16:52.305Z</time></trkpt><trkpt lat="58.54176833" lon="15.01484667"><ele>84.0</ele><time>2016-06-18T12:16:53.299Z</time></trkpt><trkpt lat="58.54176833" lon="15.01484667"><ele>84.0</ele><time>2016-06-18T12:16:54.320Z</time></trkpt><trkpt lat="58.54159667" lon="15.0149"><ele>84.0</ele><time>2016-06-18T12:16:55.286Z</time></trkpt><trkpt lat="58.54151333" lon="15.01492833"><ele>84.0</ele><time>2016-06-18T12:16:56.294Z</time></trkpt><trkpt lat="58.54151333" lon="15.01492833"><ele>84.0</ele><time>2016-06-18T12:16:57.303Z</time></trkpt><trkpt lat="58.54134" lon="15.014985"><ele>84.0</ele><time>2016-06-18T12:16:58.315Z</time></trkpt><trkpt lat="58.54125167" lon="15.01501"><ele>84.0</ele><time>2016-06-18T12:16:59.297Z</time></trkpt><trkpt lat="58.54125167" lon="15.01501"><ele>84.0</ele><time>2016-06-18T12:17:00.319Z</time></trkpt><trkpt lat="58.541075" lon="15.01506667"><ele>83.0</ele><time>2016-06-18T12:17:01.292Z</time></trkpt><trkpt lat="58.541075" lon="15.01506667"><ele>83.0</ele><time>2016-06-18T12:17:02.290Z</time></trkpt><trkpt lat="58.540895" lon="15.015125"><ele>83.0</ele><time>2016-06-18T12:17:03.298Z</time></trkpt><trkpt lat="58.540895" lon="15.015125"><ele>83.0</ele><time>2016-06-18T12:17:04.319Z</time></trkpt><trkpt lat="58.540715" lon="15.01517667"><ele>83.0</ele><time>2016-06-18T12:17:05.282Z</time></trkpt><trkpt lat="58.540715" lon="15.01517667"><ele>83.0</ele><time>2016-06-18T12:17:06.307Z</time></trkpt><trkpt lat="58.540535" lon="15.01523167"><ele>83.0</ele><time>2016-06-18T12:17:07.321Z</time></trkpt><trkpt lat="58.540445" lon="15.01525833"><ele>82.0</ele><time>2016-06-18T12:17:08.304Z</time></trkpt><trkpt lat="58.54035167" lon="15.01528667"><ele>82.0</ele><time>2016-06-18T12:17:09.286Z</time></trkpt><trkpt lat="58.54035167" lon="15.01528667"><ele>82.0</ele><time>2016-06-18T12:17:10.310Z</time></trkpt><trkpt lat="58.54017333" lon="15.015345"><ele>82.0</ele><time>2016-06-18T12:17:11.295Z</time></trkpt><trkpt lat="58.54008833" lon="15.015375"><ele>82.0</ele><time>2016-06-18T12:17:12.306Z</time></trkpt><trkpt lat="58.54008833" lon="15.015375"><ele>82.0</ele><time>2016-06-18T12:17:13.292Z</time></trkpt><trkpt lat="58.53992" lon="15.01544333"><ele>82.0</ele><time>2016-06-18T12:17:14.299Z</time></trkpt><trkpt lat="58.53992" lon="15.01544333"><ele>82.0</ele><time>2016-06-18T12:17:15.283Z</time></trkpt><trkpt lat="58.539755" lon="15.015525"><ele>82.0</ele><time>2016-06-18T12:17:16.291Z</time></trkpt><trkpt lat="58.539675" lon="15.01557167"><ele>82.0</ele><time>2016-06-18T12:17:17.319Z</time></trkpt><trkpt lat="58.539675" lon="15.01557167"><ele>82.0</ele><time>2016-06-18T12:17:18.308Z</time></trkpt><trkpt lat="58.53951667" lon="15.01566333"><ele>82.0</ele><time>2016-06-18T12:17:19.317Z</time></trkpt><trkpt lat="58.53951667" lon="15.01566333"><ele>82.0</ele><time>2016-06-18T12:17:20.300Z</time></trkpt><trkpt lat="58.53936833" lon="15.01576"><ele>83.0</ele><time>2016-06-18T12:17:21.310Z</time></trkpt><trkpt lat="58.53936833" lon="15.01576"><ele>83.0</ele><time>2016-06-18T12:17:22.297Z</time></trkpt><trkpt lat="58.53922833" lon="15.015855"><ele>84.0</ele><time>2016-06-18T12:17:23.308Z</time></trkpt><trkpt lat="58.53916" lon="15.0159"><ele>84.0</ele><time>2016-06-18T12:17:24.294Z</time></trkpt><trkpt lat="58.53909167" lon="15.01594167"><ele>84.0</ele><time>2016-06-18T12:17:25.300Z</time></trkpt><trkpt lat="58.53909167" lon="15.01594167"><ele>84.0</ele><time>2016-06-18T12:17:26.286Z</time></trkpt><trkpt lat="58.53895833" lon="15.01601667"><ele>84.0</ele><time>2016-06-18T12:17:27.299Z</time></trkpt><trkpt lat="58.53895833" lon="15.01601667"><ele>84.0</ele><time>2016-06-18T12:17:28.298Z</time></trkpt><trkpt lat="58.538825" lon="15.01608667"><ele>84.0</ele><time>2016-06-18T12:17:29.310Z</time></trkpt><trkpt lat="58.538825" lon="15.01608667"><ele>84.0</ele><time>2016-06-18T12:17:30.285Z</time></trkpt><trkpt lat="58.538685" lon="15.01615167"><ele>84.0</ele><time>2016-06-18T12:17:31.303Z</time></trkpt><trkpt lat="58.53861" lon="15.01617333"><ele>84.0</ele><time>2016-06-18T12:17:32.308Z</time></trkpt><trkpt lat="58.53861" lon="15.01617333"><ele>84.0</ele><time>2016-06-18T12:17:33.289Z</time></trkpt><trkpt lat="58.53845667" lon="15.01620167"><ele>84.0</ele><time>2016-06-18T12:17:34.296Z</time></trkpt><trkpt lat="58.53837833" lon="15.01621"><ele>83.0</ele><time>2016-06-18T12:17:35.317Z</time></trkpt><trkpt lat="58.53837833" lon="15.01621"><ele>83.0</ele><time>2016-06-18T12:17:36.300Z</time></trkpt><trkpt lat="58.53822667" lon="15.01622833"><ele>84.0</ele><time>2016-06-18T12:17:37.306Z</time></trkpt><trkpt lat="58.53822667" lon="15.01622833"><ele>84.0</ele><time>2016-06-18T12:17:38.294Z</time></trkpt><trkpt lat="58.53806833" lon="15.01624167"><ele>84.0</ele><time>2016-06-18T12:17:39.306Z</time></trkpt><trkpt lat="58.53798833" lon="15.01625167"><ele>84.0</ele><time>2016-06-18T12:17:40.293Z</time></trkpt><trkpt lat="58.53798833" lon="15.01625167"><ele>84.0</ele><time>2016-06-18T12:17:41.315Z</time></trkpt><trkpt lat="58.53783333" lon="15.01626833"><ele>83.0</ele><time>2016-06-18T12:17:42.282Z</time></trkpt><trkpt lat="58.53783333" lon="15.01626833"><ele>83.0</ele><time>2016-06-18T12:17:43.311Z</time></trkpt><trkpt lat="58.53768167" lon="15.01629"><ele>83.0</ele><time>2016-06-18T12:17:44.320Z</time></trkpt><trkpt lat="58.53768167" lon="15.01629"><ele>83.0</ele><time>2016-06-18T12:17:45.303Z</time></trkpt><trkpt lat="58.53768167" lon="15.01629"><ele>83.0</ele><time>2016-06-18T12:17:46.323Z</time></trkpt><trkpt lat="58.53753333" lon="15.01631667"><ele>83.0</ele><time>2016-06-18T12:17:47.302Z</time></trkpt><trkpt lat="58.53738833" lon="15.01633833"><ele>83.0</ele><time>2016-06-18T12:17:48.310Z</time></trkpt><trkpt lat="58.53731833" lon="15.01634667"><ele>83.0</ele><time>2016-06-18T12:17:49.292Z</time></trkpt><trkpt lat="58.53731833" lon="15.01634667"><ele>83.0</ele><time>2016-06-18T12:17:50.313Z</time></trkpt><trkpt lat="58.53718167" lon="15.01636"><ele>83.0</ele><time>2016-06-18T12:17:51.320Z</time></trkpt><trkpt lat="58.53718167" lon="15.01636"><ele>83.0</ele><time>2016-06-18T12:17:52.307Z</time></trkpt><trkpt lat="58.53705" lon="15.016375"><ele>83.0</ele><time>2016-06-18T12:17:53.287Z</time></trkpt><trkpt lat="58.53705" lon="15.016375"><ele>83.0</ele><time>2016-06-18T12:17:54.306Z</time></trkpt><trkpt lat="58.536925" lon="15.01638667"><ele>83.0</ele><time>2016-06-18T12:17:55.313Z</time></trkpt><trkpt lat="58.536925" lon="15.01638667"><ele>83.0</ele><time>2016-06-18T12:17:56.296Z</time></trkpt><trkpt lat="58.536795" lon="15.0164"><ele>83.0</ele><time>2016-06-18T12:17:57.293Z</time></trkpt><trkpt lat="58.536795" lon="15.0164"><ele>83.0</ele><time>2016-06-18T12:17:58.313Z</time></trkpt><trkpt lat="58.53666167" lon="15.01641667"><ele>83.0</ele><time>2016-06-18T12:17:59.319Z</time></trkpt><trkpt lat="58.53659333" lon="15.016425"><ele>83.0</ele><time>2016-06-18T12:18:00.289Z</time></trkpt><trkpt lat="58.536525" lon="15.016435"><ele>83.0</ele><time>2016-06-18T12:18:01.296Z</time></trkpt><trkpt lat="58.536525" lon="15.016435"><ele>83.0</ele><time>2016-06-18T12:18:02.318Z</time></trkpt><trkpt lat="58.53638667" lon="15.01645"><ele>83.0</ele><time>2016-06-18T12:18:03.317Z</time></trkpt><trkpt lat="58.53638667" lon="15.01645"><ele>83.0</ele><time>2016-06-18T12:18:04.293Z</time></trkpt><trkpt lat="58.53624333" lon="15.01646833"><ele>83.0</ele><time>2016-06-18T12:18:05.300Z</time></trkpt><trkpt lat="58.53624333" lon="15.01646833"><ele>83.0</ele><time>2016-06-18T12:18:06.318Z</time></trkpt><trkpt lat="58.536105" lon="15.016485"><ele>83.0</ele><time>2016-06-18T12:18:07.284Z</time></trkpt><trkpt lat="58.536105" lon="15.016485"><ele>83.0</ele><time>2016-06-18T12:18:08.311Z</time></trkpt><trkpt lat="58.53597167" lon="15.0165"><ele>83.0</ele><time>2016-06-18T12:18:09.302Z</time></trkpt><trkpt lat="58.53597167" lon="15.0165"><ele>83.0</ele><time>2016-06-18T12:18:10.301Z</time></trkpt><trkpt lat="58.535845" lon="15.0165"><ele>83.0</ele><time>2016-06-18T12:18:11.298Z</time></trkpt><trkpt lat="58.535845" lon="15.0165"><ele>83.0</ele><time>2016-06-18T12:18:12.296Z</time></trkpt><trkpt lat="58.53571833" lon="15.01650333"><ele>82.0</ele><time>2016-06-18T12:18:13.319Z</time></trkpt><trkpt lat="58.53565333" lon="15.01650333"><ele>82.0</ele><time>2016-06-18T12:18:14.309Z</time></trkpt><trkpt lat="58.53565333" lon="15.01650333"><ele>82.0</ele><time>2016-06-18T12:18:15.315Z</time></trkpt><trkpt lat="58.53552" lon="15.01650667"><ele>82.0</ele><time>2016-06-18T12:18:16.319Z</time></trkpt><trkpt lat="58.53552" lon="15.01650667"><ele>82.0</ele><time>2016-06-18T12:18:17.309Z</time></trkpt><trkpt lat="58.53539" lon="15.01651333"><ele>82.0</ele><time>2016-06-18T12:18:18.319Z</time></trkpt><trkpt lat="58.53532667" lon="15.016515"><ele>82.0</ele><time>2016-06-18T12:18:19.318Z</time></trkpt><trkpt lat="58.53526333" lon="15.01651667"><ele>82.0</ele><time>2016-06-18T12:18:20.290Z</time></trkpt><trkpt lat="58.53526333" lon="15.01651667"><ele>82.0</ele><time>2016-06-18T12:18:21.313Z</time></trkpt><trkpt lat="58.53512833" lon="15.016525"><ele>82.0</ele><time>2016-06-18T12:18:22.320Z</time></trkpt><trkpt lat="58.53512833" lon="15.016525"><ele>82.0</ele><time>2016-06-18T12:18:23.304Z</time></trkpt><trkpt lat="58.534985" lon="15.01654833"><ele>82.0</ele><time>2016-06-18T12:18:24.312Z</time></trkpt><trkpt lat="58.534985" lon="15.01654833"><ele>82.0</ele><time>2016-06-18T12:18:25.320Z</time></trkpt><trkpt lat="58.53482167" lon="15.01654833"><ele>82.0</ele><time>2016-06-18T12:18:26.287Z</time></trkpt><trkpt lat="58.53482167" lon="15.01654833"><ele>82.0</ele><time>2016-06-18T12:18:27.309Z</time></trkpt><trkpt lat="58.534665" lon="15.01655"><ele>82.0</ele><time>2016-06-18T12:18:28.286Z</time></trkpt><trkpt lat="58.534665" lon="15.01655"><ele>82.0</ele><time>2016-06-18T12:18:29.310Z</time></trkpt><trkpt lat="58.534515" lon="15.016555"><ele>83.0</ele><time>2016-06-18T12:18:30.320Z</time></trkpt><trkpt lat="58.53443833" lon="15.01656"><ele>83.0</ele><time>2016-06-18T12:18:31.294Z</time></trkpt><trkpt lat="58.53443833" lon="15.01656"><ele>83.0</ele><time>2016-06-18T12:18:32.291Z</time></trkpt><trkpt lat="58.53428667" lon="15.01656833"><ele>83.0</ele><time>2016-06-18T12:18:33.283Z</time></trkpt><trkpt lat="58.53428667" lon="15.01656833"><ele>83.0</ele><time>2016-06-18T12:18:34.307Z</time></trkpt><trkpt lat="58.53413167" lon="15.01657167"><ele>83.0</ele><time>2016-06-18T12:18:35.302Z</time></trkpt><trkpt lat="58.53413167" lon="15.01657167"><ele>83.0</ele><time>2016-06-18T12:18:36.318Z</time></trkpt><trkpt lat="58.53397" lon="15.01657667"><ele>84.0</ele><time>2016-06-18T12:18:37.285Z</time></trkpt><trkpt lat="58.53397" lon="15.01657667"><ele>84.0</ele><time>2016-06-18T12:18:38.308Z</time></trkpt><trkpt lat="58.53381667" lon="15.01657"><ele>84.0</ele><time>2016-06-18T12:18:39.304Z</time></trkpt><trkpt lat="58.53381667" lon="15.01657"><ele>84.0</ele><time>2016-06-18T12:18:40.318Z</time></trkpt><trkpt lat="58.53367833" lon="15.01655833"><ele>84.0</ele><time>2016-06-18T12:18:41.284Z</time></trkpt><trkpt lat="58.53367833" lon="15.01655833"><ele>84.0</ele><time>2016-06-18T12:18:42.306Z</time></trkpt><trkpt lat="58.53354" lon="15.016535"><ele>84.0</ele><time>2016-06-18T12:18:43.320Z</time></trkpt><trkpt lat="58.53354" lon="15.016535"><ele>84.0</ele><time>2016-06-18T12:18:44.289Z</time></trkpt><trkpt lat="58.53340833" lon="15.01652333"><ele>84.0</ele><time>2016-06-18T12:18:45.297Z</time></trkpt><trkpt lat="58.53340833" lon="15.01652333"><ele>84.0</ele><time>2016-06-18T12:18:46.318Z</time></trkpt><trkpt lat="58.53330833" lon="15.01663333"><ele>86.0</ele><time>2016-06-18T12:18:47.293Z</time></trkpt><trkpt lat="58.53330833" lon="15.01663333"><ele>86.0</ele><time>2016-06-18T12:18:48.312Z</time></trkpt><trkpt lat="58.53327667" lon="15.01686167"><ele>89.0</ele><time>2016-06-18T12:18:49.319Z</time></trkpt><trkpt lat="58.53327667" lon="15.01686167"><ele>89.0</ele><time>2016-06-18T12:18:50.307Z</time></trkpt><trkpt lat="58.53327833" lon="15.01713333"><ele>91.0</ele><time>2016-06-18T12:18:51.290Z</time></trkpt><trkpt lat="58.53327833" lon="15.01713333"><ele>91.0</ele><time>2016-06-18T12:18:52.292Z</time></trkpt><trkpt lat="58.53327333" lon="15.01742833"><ele>92.0</ele><time>2016-06-18T12:18:53.299Z</time></trkpt><trkpt lat="58.53327333" lon="15.01742833"><ele>92.0</ele><time>2016-06-18T12:18:54.321Z</time></trkpt><trkpt lat="58.53326333" lon="15.01773"><ele>92.0</ele><time>2016-06-18T12:18:55.288Z</time></trkpt><trkpt lat="58.53326333" lon="15.01773"><ele>92.0</ele><time>2016-06-18T12:18:56.321Z</time></trkpt><trkpt lat="58.53325167" lon="15.01803833"><ele>93.0</ele><time>2016-06-18T12:18:57.297Z</time></trkpt><trkpt lat="58.53324167" lon="15.01820333"><ele>93.0</ele><time>2016-06-18T12:18:58.294Z</time></trkpt><trkpt lat="58.53324167" lon="15.01820333"><ele>93.0</ele><time>2016-06-18T12:18:59.315Z</time></trkpt><trkpt lat="58.53323167" lon="15.01850167"><ele>94.0</ele><time>2016-06-18T12:19:00.282Z</time></trkpt><trkpt lat="58.53323167" lon="15.01850167"><ele>94.0</ele><time>2016-06-18T12:19:01.306Z</time></trkpt><trkpt lat="58.53323" lon="15.01879333"><ele>95.0</ele><time>2016-06-18T12:19:02.314Z</time></trkpt><trkpt lat="58.53323" lon="15.01879333"><ele>95.0</ele><time>2016-06-18T12:19:03.319Z</time></trkpt><trkpt lat="58.53325167" lon="15.01908667"><ele>95.0</ele><time>2016-06-18T12:19:04.285Z</time></trkpt><trkpt lat="58.53325167" lon="15.01908667"><ele>95.0</ele><time>2016-06-18T12:19:05.307Z</time></trkpt><trkpt lat="58.53329" lon="15.019365"><ele>95.0</ele><time>2016-06-18T12:19:06.295Z</time></trkpt><trkpt lat="58.53329" lon="15.019365"><ele>95.0</ele><time>2016-06-18T12:19:07.311Z</time></trkpt><trkpt lat="58.53335" lon="15.01964"><ele>95.0</ele><time>2016-06-18T12:19:08.318Z</time></trkpt><trkpt lat="58.53335" lon="15.01964"><ele>95.0</ele><time>2016-06-18T12:19:09.300Z</time></trkpt><trkpt lat="58.533435" lon="15.01988833"><ele>95.0</ele><time>2016-06-18T12:19:10.308Z</time></trkpt><trkpt lat="58.533435" lon="15.01988833"><ele>95.0</ele><time>2016-06-18T12:19:11.300Z</time></trkpt><trkpt lat="58.533535" lon="15.02012"><ele>95.0</ele><time>2016-06-18T12:19:12.307Z</time></trkpt><trkpt lat="58.533535" lon="15.02012"><ele>95.0</ele><time>2016-06-18T12:19:13.290Z</time></trkpt><trkpt lat="58.53365667" lon="15.02032167"><ele>95.0</ele><time>2016-06-18T12:19:14.296Z</time></trkpt><trkpt lat="58.53365667" lon="15.02032167"><ele>95.0</ele><time>2016-06-18T12:19:15.318Z</time></trkpt><trkpt lat="58.53378" lon="15.020505"><ele>96.0</ele><time>2016-06-18T12:19:16.295Z</time></trkpt><trkpt lat="58.53378" lon="15.020505"><ele>96.0</ele><time>2016-06-18T12:19:17.286Z</time></trkpt><trkpt lat="58.5339" lon="15.020685"><ele>95.0</ele><time>2016-06-18T12:19:18.293Z</time></trkpt><trkpt lat="58.5339" lon="15.020685"><ele>95.0</ele><time>2016-06-18T12:19:19.319Z</time></trkpt><trkpt lat="58.53402167" lon="15.020865"><ele>95.0</ele><time>2016-06-18T12:19:20.292Z</time></trkpt><trkpt lat="58.53402167" lon="15.020865"><ele>95.0</ele><time>2016-06-18T12:19:21.306Z</time></trkpt><trkpt lat="58.53415" lon="15.02105"><ele>95.0</ele><time>2016-06-18T12:19:22.318Z</time></trkpt><trkpt lat="58.53415" lon="15.02105"><ele>95.0</ele><time>2016-06-18T12:19:23.301Z</time></trkpt><trkpt lat="58.53426833" lon="15.021215"><ele>95.0</ele><time>2016-06-18T12:19:24.309Z</time></trkpt><trkpt lat="58.53426833" lon="15.021215"><ele>95.0</ele><time>2016-06-18T12:19:25.287Z</time></trkpt><trkpt lat="58.53437333" lon="15.02138333"><ele>94.0</ele><time>2016-06-18T12:19:26.294Z</time></trkpt><trkpt lat="58.53437333" lon="15.02138333"><ele>94.0</ele><time>2016-06-18T12:19:27.316Z</time></trkpt><trkpt lat="58.53439333" lon="15.021605"><ele>94.0</ele><time>2016-06-18T12:19:28.294Z</time></trkpt><trkpt lat="58.53439333" lon="15.021605"><ele>94.0</ele><time>2016-06-18T12:19:29.295Z</time></trkpt><trkpt lat="58.534345" lon="15.02183667"><ele>94.0</ele><time>2016-06-18T12:19:30.303Z</time></trkpt><trkpt lat="58.534345" lon="15.02183667"><ele>94.0</ele><time>2016-06-18T12:19:31.316Z</time></trkpt><trkpt lat="58.53427333" lon="15.02207"><ele>94.0</ele><time>2016-06-18T12:19:32.294Z</time></trkpt><trkpt lat="58.53427333" lon="15.02207"><ele>94.0</ele><time>2016-06-18T12:19:33.317Z</time></trkpt><trkpt lat="58.53420667" lon="15.02231"><ele>94.0</ele><time>2016-06-18T12:19:34.284Z</time></trkpt><trkpt lat="58.53420667" lon="15.02231"><ele>94.0</ele><time>2016-06-18T12:19:35.307Z</time></trkpt><trkpt lat="58.53412833" lon="15.02255167"><ele>94.0</ele><time>2016-06-18T12:19:36.285Z</time></trkpt><trkpt lat="58.53409333" lon="15.02267333"><ele>94.0</ele><time>2016-06-18T12:19:37.306Z</time></trkpt><trkpt lat="58.53406" lon="15.02279833"><ele>94.0</ele><time>2016-06-18T12:19:38.288Z</time></trkpt><trkpt lat="58.53406" lon="15.02279833"><ele>94.0</ele><time>2016-06-18T12:19:39.320Z</time></trkpt><trkpt lat="58.53398833" lon="15.02305833"><ele>93.0</ele><time>2016-06-18T12:19:40.287Z</time></trkpt><trkpt lat="58.53393833" lon="15.02319333"><ele>93.0</ele><time>2016-06-18T12:19:41.293Z</time></trkpt><trkpt lat="58.53393833" lon="15.02319333"><ele>93.0</ele><time>2016-06-18T12:19:42.298Z</time></trkpt><trkpt lat="58.53386" lon="15.02345667"><ele>93.0</ele><time>2016-06-18T12:19:43.316Z</time></trkpt><trkpt lat="58.53381333" lon="15.02359"><ele>93.0</ele><time>2016-06-18T12:19:44.300Z</time></trkpt><trkpt lat="58.53381333" lon="15.02359"><ele>93.0</ele><time>2016-06-18T12:19:45.311Z</time></trkpt><trkpt lat="58.53372" lon="15.02387333"><ele>92.0</ele><time>2016-06-18T12:19:46.392Z</time></trkpt><trkpt lat="58.53372" lon="15.02387333"><ele>92.0</ele><time>2016-06-18T12:19:47.318Z</time></trkpt><trkpt lat="58.533625" lon="15.02417333"><ele>92.0</ele><time>2016-06-18T12:19:48.292Z</time></trkpt><trkpt lat="58.53357333" lon="15.02434333"><ele>91.0</ele><time>2016-06-18T12:19:49.308Z</time></trkpt><trkpt lat="58.53357333" lon="15.02434333"><ele>91.0</ele><time>2016-06-18T12:19:50.291Z</time></trkpt><trkpt lat="58.53346667" lon="15.024695"><ele>91.0</ele><time>2016-06-18T12:19:51.299Z</time></trkpt><trkpt lat="58.53346667" lon="15.024695"><ele>91.0</ele><time>2016-06-18T12:19:52.322Z</time></trkpt><trkpt lat="58.53336167" lon="15.02506"><ele>90.0</ele><time>2016-06-18T12:19:53.288Z</time></trkpt><trkpt lat="58.53331167" lon="15.02523667"><ele>90.0</ele><time>2016-06-18T12:19:54.311Z</time></trkpt><trkpt lat="58.53331167" lon="15.02523667"><ele>90.0</ele><time>2016-06-18T12:19:55.293Z</time></trkpt><trkpt lat="58.53321" lon="15.02556667"><ele>89.0</ele><time>2016-06-18T12:19:56.300Z</time></trkpt><trkpt lat="58.53321" lon="15.02556667"><ele>89.0</ele><time>2016-06-18T12:19:57.282Z</time></trkpt><trkpt lat="58.53311667" lon="15.02588667"><ele>88.0</ele><time>2016-06-18T12:19:58.294Z</time></trkpt><trkpt lat="58.53311667" lon="15.02588667"><ele>88.0</ele><time>2016-06-18T12:19:59.283Z</time></trkpt><trkpt lat="58.53306333" lon="15.02617667"><ele>87.0</ele><time>2016-06-18T12:20:00.290Z</time></trkpt><trkpt lat="58.53306333" lon="15.02617667"><ele>87.0</ele><time>2016-06-18T12:20:01.317Z</time></trkpt><trkpt lat="58.53313" lon="15.026405"><ele>87.0</ele><time>2016-06-18T12:20:02.300Z</time></trkpt><trkpt lat="58.53313" lon="15.026405"><ele>87.0</ele><time>2016-06-18T12:20:03.294Z</time></trkpt><trkpt lat="58.533245" lon="15.02655167"><ele>87.0</ele><time>2016-06-18T12:20:04.301Z</time></trkpt><trkpt lat="58.533245" lon="15.02655167"><ele>87.0</ele><time>2016-06-18T12:20:05.292Z</time></trkpt><trkpt lat="58.53336833" lon="15.02670333"><ele>86.0</ele><time>2016-06-18T12:20:06.297Z</time></trkpt><trkpt lat="58.53336833" lon="15.02670333"><ele>86.0</ele><time>2016-06-18T12:20:07.300Z</time></trkpt><trkpt lat="58.533495" lon="15.026855"><ele>86.0</ele><time>2016-06-18T12:20:08.316Z</time></trkpt><trkpt lat="58.533495" lon="15.026855"><ele>86.0</ele><time>2016-06-18T12:20:09.310Z</time></trkpt><trkpt lat="58.53361667" lon="15.02703833"><ele>86.0</ele><time>2016-06-18T12:20:10.298Z</time></trkpt><trkpt lat="58.53361667" lon="15.02703833"><ele>86.0</ele><time>2016-06-18T12:20:11.301Z</time></trkpt><trkpt lat="58.53373833" lon="15.02722667"><ele>85.0</ele><time>2016-06-18T12:20:12.297Z</time></trkpt><trkpt lat="58.53373833" lon="15.02722667"><ele>85.0</ele><time>2016-06-18T12:20:13.292Z</time></trkpt><trkpt lat="58.53384333" lon="15.02741"><ele>85.0</ele><time>2016-06-18T12:20:14.299Z</time></trkpt><trkpt lat="58.53384333" lon="15.02741"><ele>85.0</ele><time>2016-06-18T12:20:15.282Z</time></trkpt><trkpt lat="58.533935" lon="15.02761667"><ele>85.0</ele><time>2016-06-18T12:20:16.289Z</time></trkpt><trkpt lat="58.533935" lon="15.02761667"><ele>85.0</ele><time>2016-06-18T12:20:17.311Z</time></trkpt><trkpt lat="58.53403167" lon="15.02784"><ele>84.0</ele><time>2016-06-18T12:20:18.319Z</time></trkpt><trkpt lat="58.53407833" lon="15.027955"><ele>84.0</ele><time>2016-06-18T12:20:19.308Z</time></trkpt><trkpt lat="58.53407833" lon="15.027955"><ele>84.0</ele><time>2016-06-18T12:20:20.290Z</time></trkpt><trkpt lat="58.534175" lon="15.02817833"><ele>84.0</ele><time>2016-06-18T12:20:21.297Z</time></trkpt><trkpt lat="58.534175" lon="15.02817833"><ele>84.0</ele><time>2016-06-18T12:20:22.319Z</time></trkpt><trkpt lat="58.53426167" lon="15.028415"><ele>83.0</ele><time>2016-06-18T12:20:23.292Z</time></trkpt><trkpt lat="58.53426167" lon="15.028415"><ele>83.0</ele><time>2016-06-18T12:20:24.317Z</time></trkpt><trkpt lat="58.53433833" lon="15.028645"><ele>83.0</ele><time>2016-06-18T12:20:25.294Z</time></trkpt><trkpt lat="58.53433833" lon="15.028645"><ele>83.0</ele><time>2016-06-18T12:20:26.312Z</time></trkpt><trkpt lat="58.53442" lon="15.02887"><ele>83.0</ele><time>2016-06-18T12:20:27.319Z</time></trkpt><trkpt lat="58.53442" lon="15.02887"><ele>83.0</ele><time>2016-06-18T12:20:28.308Z</time></trkpt><trkpt lat="58.534495" lon="15.02910833"><ele>83.0</ele><time>2016-06-18T12:20:29.314Z</time></trkpt><trkpt lat="58.534535" lon="15.02923"><ele>83.0</ele><time>2016-06-18T12:20:30.290Z</time></trkpt><trkpt lat="58.534535" lon="15.02923"><ele>83.0</ele><time>2016-06-18T12:20:31.314Z</time></trkpt><trkpt lat="58.53460667" lon="15.02946667"><ele>83.0</ele><time>2016-06-18T12:20:32.282Z</time></trkpt><trkpt lat="58.53460667" lon="15.02946667"><ele>83.0</ele><time>2016-06-18T12:20:33.290Z</time></trkpt><trkpt lat="58.53466833" lon="15.02971833"><ele>83.0</ele><time>2016-06-18T12:20:34.296Z</time></trkpt><trkpt lat="58.53466833" lon="15.02971833"><ele>83.0</ele><time>2016-06-18T12:20:35.302Z</time></trkpt><trkpt lat="58.53472667" lon="15.02995833"><ele>83.0</ele><time>2016-06-18T12:20:36.311Z</time></trkpt><trkpt lat="58.53474833" lon="15.03005667"><ele>83.0</ele><time>2016-06-18T12:20:37.292Z</time></trkpt><trkpt lat="58.53476" lon="15.03013167"><ele>83.0</ele><time>2016-06-18T12:20:38.320Z</time></trkpt><trkpt lat="58.53476" lon="15.03013167"><ele>83.0</ele><time>2016-06-18T12:20:39.307Z</time></trkpt><trkpt lat="58.53478" lon="15.03026833"><ele>83.0</ele><time>2016-06-18T12:20:40.313Z</time></trkpt><trkpt lat="58.53478" lon="15.03026833"><ele>83.0</ele><time>2016-06-18T12:20:41.295Z</time></trkpt><trkpt lat="58.53479833" lon="15.03040333"><ele>83.0</ele><time>2016-06-18T12:20:42.293Z</time></trkpt><trkpt lat="58.53479833" lon="15.03040333"><ele>83.0</ele><time>2016-06-18T12:20:43.316Z</time></trkpt><trkpt lat="58.53481667" lon="15.030535"><ele>83.0</ele><time>2016-06-18T12:20:44.282Z</time></trkpt><trkpt lat="58.53481667" lon="15.030535"><ele>83.0</ele><time>2016-06-18T12:20:45.309Z</time></trkpt><trkpt lat="58.53483" lon="15.03063333"><ele>83.0</ele><time>2016-06-18T12:20:46.294Z</time></trkpt><trkpt lat="58.53483" lon="15.03063333"><ele>83.0</ele><time>2016-06-18T12:20:47.299Z</time></trkpt><trkpt lat="58.53484333" lon="15.03071"><ele>83.0</ele><time>2016-06-18T12:20:48.312Z</time></trkpt><trkpt lat="58.53484333" lon="15.03071"><ele>83.0</ele><time>2016-06-18T12:20:49.294Z</time></trkpt><trkpt lat="58.53483667" lon="15.03079167"><ele>83.0</ele><time>2016-06-18T12:20:50.307Z</time></trkpt><trkpt lat="58.53483667" lon="15.03079167"><ele>83.0</ele><time>2016-06-18T12:20:51.321Z</time></trkpt><trkpt lat="58.53483167" lon="15.03084333"><ele>83.0</ele><time>2016-06-18T12:20:52.290Z</time></trkpt><trkpt lat="58.53483167" lon="15.03084333"><ele>83.0</ele><time>2016-06-18T12:20:53.313Z</time></trkpt><trkpt lat="58.53483333" lon="15.030915"><ele>83.0</ele><time>2016-06-18T12:20:54.319Z</time></trkpt><trkpt lat="58.53484" lon="15.03094833"><ele>83.0</ele><time>2016-06-18T12:20:55.294Z</time></trkpt><trkpt lat="58.53484" lon="15.03094833"><ele>83.0</ele><time>2016-06-18T12:20:56.310Z</time></trkpt><trkpt lat="58.534845" lon="15.03100667"><ele>83.0</ele><time>2016-06-18T12:20:57.318Z</time></trkpt><trkpt lat="58.534845" lon="15.03100667"><ele>83.0</ele><time>2016-06-18T12:20:58.301Z</time></trkpt><trkpt lat="58.53485167" lon="15.03105167"><ele>83.0</ele><time>2016-06-18T12:20:59.332Z</time></trkpt><trkpt lat="58.53485167" lon="15.03105167"><ele>83.0</ele><time>2016-06-18T12:21:00.303Z</time></trkpt><trkpt lat="58.53486167" lon="15.03111"><ele>83.0</ele><time>2016-06-18T12:21:01.311Z</time></trkpt><trkpt lat="58.53487333" lon="15.03114833"><ele>83.0</ele><time>2016-06-18T12:21:02.293Z</time></trkpt><trkpt lat="58.53488167" lon="15.03118"><ele>83.0</ele><time>2016-06-18T12:21:03.285Z</time></trkpt><trkpt lat="58.53488167" lon="15.03118"><ele>83.0</ele><time>2016-06-18T12:21:04.304Z</time></trkpt><trkpt lat="58.53490333" lon="15.03125833"><ele>83.0</ele><time>2016-06-18T12:21:05.313Z</time></trkpt><trkpt lat="58.53490333" lon="15.03125833"><ele>83.0</ele><time>2016-06-18T12:21:06.295Z</time></trkpt><trkpt lat="58.53492667" lon="15.03133667"><ele>82.0</ele><time>2016-06-18T12:21:07.301Z</time></trkpt><trkpt lat="58.53494167" lon="15.03137833"><ele>82.0</ele><time>2016-06-18T12:21:08.292Z</time></trkpt><trkpt lat="58.53494167" lon="15.03137833"><ele>82.0</ele><time>2016-06-18T12:21:09.315Z</time></trkpt><trkpt lat="58.53496833" lon="15.03145"><ele>82.0</ele><time>2016-06-18T12:21:10.300Z</time></trkpt><trkpt lat="58.53496833" lon="15.03145"><ele>82.0</ele><time>2016-06-18T12:21:11.300Z</time></trkpt><trkpt lat="58.53497167" lon="15.031525"><ele>82.0</ele><time>2016-06-18T12:21:12.286Z</time></trkpt><trkpt lat="58.53497167" lon="15.031525"><ele>82.0</ele><time>2016-06-18T12:21:13.320Z</time></trkpt><trkpt lat="58.53497" lon="15.0316"><ele>81.0</ele><time>2016-06-18T12:21:14.286Z</time></trkpt><trkpt lat="58.53497" lon="15.0316"><ele>81.0</ele><time>2016-06-18T12:21:15.310Z</time></trkpt><trkpt lat="58.53497167" lon="15.03165333"><ele>81.0</ele><time>2016-06-18T12:21:16.317Z</time></trkpt><trkpt lat="58.53497167" lon="15.03165333"><ele>81.0</ele><time>2016-06-18T12:21:17.299Z</time></trkpt><trkpt lat="58.53497167" lon="15.03170333"><ele>81.0</ele><time>2016-06-18T12:21:18.294Z</time></trkpt><trkpt lat="58.53497167" lon="15.03170333"><ele>81.0</ele><time>2016-06-18T12:21:19.299Z</time></trkpt><trkpt lat="58.53496667" lon="15.03175"><ele>80.0</ele><time>2016-06-18T12:21:20.306Z</time></trkpt><trkpt lat="58.53496667" lon="15.03175"><ele>80.0</ele><time>2016-06-18T12:21:21.289Z</time></trkpt><trkpt lat="58.53497333" lon="15.03181"><ele>80.0</ele><time>2016-06-18T12:21:22.294Z</time></trkpt><trkpt lat="58.53497333" lon="15.03181"><ele>80.0</ele><time>2016-06-18T12:21:23.290Z</time></trkpt><trkpt lat="58.53498667" lon="15.03187333"><ele>80.0</ele><time>2016-06-18T12:21:24.296Z</time></trkpt><trkpt lat="58.53498667" lon="15.03187333"><ele>80.0</ele><time>2016-06-18T12:21:25.313Z</time></trkpt><trkpt lat="58.53500333" lon="15.03192333"><ele>79.0</ele><time>2016-06-18T12:21:26.294Z</time></trkpt><trkpt lat="58.53500333" lon="15.03192333"><ele>79.0</ele><time>2016-06-18T12:21:27.321Z</time></trkpt><trkpt lat="58.535015" lon="15.03198333"><ele>79.0</ele><time>2016-06-18T12:21:28.291Z</time></trkpt><trkpt lat="58.53502333" lon="15.03200333"><ele>79.0</ele><time>2016-06-18T12:21:29.315Z</time></trkpt><trkpt lat="58.53502333" lon="15.03200333"><ele>79.0</ele><time>2016-06-18T12:21:30.299Z</time></trkpt><trkpt lat="58.535035" lon="15.03205667"><ele>79.0</ele><time>2016-06-18T12:21:31.306Z</time></trkpt><trkpt lat="58.535035" lon="15.03208167"><ele>80.0</ele><time>2016-06-18T12:21:32.288Z</time></trkpt><trkpt lat="58.535035" lon="15.03208167"><ele>80.0</ele><time>2016-06-18T12:21:33.314Z</time></trkpt><trkpt lat="58.53502833" lon="15.03213667"><ele>80.0</ele><time>2016-06-18T12:21:34.321Z</time></trkpt><trkpt lat="58.53502833" lon="15.03213667"><ele>80.0</ele><time>2016-06-18T12:21:35.303Z</time></trkpt><trkpt lat="58.53504833" lon="15.032195"><ele>80.0</ele><time>2016-06-18T12:21:36.310Z</time></trkpt><trkpt lat="58.53504833" lon="15.032195"><ele>80.0</ele><time>2016-06-18T12:21:37.291Z</time></trkpt><trkpt lat="58.53507" lon="15.032225"><ele>79.0</ele><time>2016-06-18T12:21:38.298Z</time></trkpt><trkpt lat="58.53507" lon="15.032225"><ele>79.0</ele><time>2016-06-18T12:21:39.295Z</time></trkpt><trkpt lat="58.53506667" lon="15.03224"><ele>79.0</ele><time>2016-06-18T12:21:40.302Z</time></trkpt><trkpt lat="58.53506667" lon="15.03224"><ele>79.0</ele><time>2016-06-18T12:21:41.295Z</time></trkpt><trkpt lat="58.53506667" lon="15.03224"><ele>79.0</ele><time>2016-06-18T12:21:42.282Z</time></trkpt><trkpt lat="58.53507333" lon="15.03224833"><ele>79.0</ele><time>2016-06-18T12:21:43.310Z</time></trkpt><trkpt lat="58.53507333" lon="15.03224833"><ele>79.0</ele><time>2016-06-18T12:21:44.291Z</time></trkpt><trkpt lat="58.53508333" lon="15.03229333"><ele>79.0</ele><time>2016-06-18T12:21:45.302Z</time></trkpt><trkpt lat="58.53508333" lon="15.03229333"><ele>79.0</ele><time>2016-06-18T12:21:46.294Z</time></trkpt><trkpt lat="58.53508167" lon="15.032335"><ele>79.0</ele><time>2016-06-18T12:21:47.300Z</time></trkpt><trkpt lat="58.53508167" lon="15.032335"><ele>79.0</ele><time>2016-06-18T12:21:48.282Z</time></trkpt><trkpt lat="58.53507667" lon="15.03237667"><ele>78.0</ele><time>2016-06-18T12:21:49.294Z</time></trkpt><trkpt lat="58.53506833" lon="15.03240833"><ele>78.0</ele><time>2016-06-18T12:21:50.285Z</time></trkpt><trkpt lat="58.53506833" lon="15.03240833"><ele>78.0</ele><time>2016-06-18T12:21:51.318Z</time></trkpt><trkpt lat="58.53507" lon="15.03246667"><ele>78.0</ele><time>2016-06-18T12:21:52.285Z</time></trkpt><trkpt lat="58.53507333" lon="15.03248667"><ele>78.0</ele><time>2016-06-18T12:21:53.317Z</time></trkpt><trkpt lat="58.53507333" lon="15.03248667"><ele>78.0</ele><time>2016-06-18T12:21:54.300Z</time></trkpt><trkpt lat="58.53508167" lon="15.03252"><ele>77.0</ele><time>2016-06-18T12:21:55.313Z</time></trkpt><trkpt lat="58.53508833" lon="15.032535"><ele>77.0</ele><time>2016-06-18T12:21:56.295Z</time></trkpt><trkpt lat="58.53508833" lon="15.032535"><ele>77.0</ele><time>2016-06-18T12:21:57.302Z</time></trkpt><trkpt lat="58.53509" lon="15.03256333"><ele>77.0</ele><time>2016-06-18T12:21:58.320Z</time></trkpt><trkpt lat="58.53509" lon="15.03257833"><ele>77.0</ele><time>2016-06-18T12:21:59.310Z</time></trkpt><trkpt lat="58.53509" lon="15.03259333"><ele>76.0</ele><time>2016-06-18T12:22:00.318Z</time></trkpt><trkpt lat="58.53509" lon="15.03259333"><ele>76.0</ele><time>2016-06-18T12:22:01.288Z</time></trkpt><trkpt lat="58.5351" lon="15.03262"><ele>76.0</ele><time>2016-06-18T12:22:02.295Z</time></trkpt><trkpt lat="58.535075" lon="15.032645"><ele>77.0</ele><time>2016-06-18T12:22:03.285Z</time></trkpt><trkpt lat="58.535075" lon="15.032645"><ele>77.0</ele><time>2016-06-18T12:22:04.290Z</time></trkpt><trkpt lat="58.535055" lon="15.03268667"><ele>77.0</ele><time>2016-06-18T12:22:05.294Z</time></trkpt><trkpt lat="58.535055" lon="15.03268667"><ele>77.0</ele><time>2016-06-18T12:22:06.310Z</time></trkpt><trkpt lat="58.535035" lon="15.03272667"><ele>77.0</ele><time>2016-06-18T12:22:07.319Z</time></trkpt><trkpt lat="58.535035" lon="15.03272667"><ele>77.0</ele><time>2016-06-18T12:22:08.301Z</time></trkpt><trkpt lat="58.535055" lon="15.03279333"><ele>77.0</ele><time>2016-06-18T12:22:09.290Z</time></trkpt><trkpt lat="58.535055" lon="15.03279333"><ele>77.0</ele><time>2016-06-18T12:22:10.287Z</time></trkpt><trkpt lat="58.53505333" lon="15.032855"><ele>77.0</ele><time>2016-06-18T12:22:11.307Z</time></trkpt><trkpt lat="58.53505333" lon="15.032855"><ele>77.0</ele><time>2016-06-18T12:22:12.293Z</time></trkpt><trkpt lat="58.53503833" lon="15.03292333"><ele>77.0</ele><time>2016-06-18T12:22:13.315Z</time></trkpt><trkpt lat="58.53503833" lon="15.03292333"><ele>77.0</ele><time>2016-06-18T12:22:14.300Z</time></trkpt><trkpt lat="58.53502333" lon="15.032985"><ele>77.0</ele><time>2016-06-18T12:22:15.314Z</time></trkpt><trkpt lat="58.53502333" lon="15.032985"><ele>77.0</ele><time>2016-06-18T12:22:16.286Z</time></trkpt><trkpt lat="58.53501333" lon="15.03303333"><ele>77.0</ele><time>2016-06-18T12:22:17.293Z</time></trkpt><trkpt lat="58.53501333" lon="15.03303333"><ele>77.0</ele><time>2016-06-18T12:22:18.315Z</time></trkpt><trkpt lat="58.535005" lon="15.03307667"><ele>77.0</ele><time>2016-06-18T12:22:19.291Z</time></trkpt><trkpt lat="58.535005" lon="15.03307667"><ele>77.0</ele><time>2016-06-18T12:22:20.283Z</time></trkpt><trkpt lat="58.535005" lon="15.033115"><ele>77.0</ele><time>2016-06-18T12:22:21.290Z</time></trkpt><trkpt lat="58.535005" lon="15.033115"><ele>77.0</ele><time>2016-06-18T12:22:22.312Z</time></trkpt><trkpt lat="58.53499833" lon="15.03314167"><ele>77.0</ele><time>2016-06-18T12:22:23.312Z</time></trkpt><trkpt lat="58.53499833" lon="15.03314167"><ele>77.0</ele><time>2016-06-18T12:22:24.289Z</time></trkpt><trkpt lat="58.53499" lon="15.03316833"><ele>77.0</ele><time>2016-06-18T12:22:25.296Z</time></trkpt><trkpt lat="58.53499" lon="15.03316833"><ele>77.0</ele><time>2016-06-18T12:22:26.318Z</time></trkpt><trkpt lat="58.53498833" lon="15.03319333"><ele>77.0</ele><time>2016-06-18T12:22:27.307Z</time></trkpt><trkpt lat="58.53498833" lon="15.03319333"><ele>77.0</ele><time>2016-06-18T12:22:28.291Z</time></trkpt><trkpt lat="58.53499" lon="15.03321167"><ele>77.0</ele><time>2016-06-18T12:22:29.307Z</time></trkpt><trkpt lat="58.53499" lon="15.03321167"><ele>77.0</ele><time>2016-06-18T12:22:30.300Z</time></trkpt><trkpt lat="58.53499833" lon="15.03322"><ele>77.0</ele><time>2016-06-18T12:22:31.311Z</time></trkpt><trkpt lat="58.535" lon="15.03322333"><ele>77.0</ele><time>2016-06-18T12:22:32.318Z</time></trkpt><trkpt lat="58.535" lon="15.03322333"><ele>77.0</ele><time>2016-06-18T12:22:33.308Z</time></trkpt><trkpt lat="58.535" lon="15.03322333"><ele>77.0</ele><time>2016-06-18T12:22:34.304Z</time></trkpt><trkpt lat="58.53499667" lon="15.03326833"><ele>78.0</ele><time>2016-06-18T12:22:35.284Z</time></trkpt><trkpt lat="58.53499667" lon="15.03326833"><ele>78.0</ele><time>2016-06-18T12:22:36.296Z</time></trkpt><trkpt lat="58.53499667" lon="15.03329833"><ele>78.0</ele><time>2016-06-18T12:22:37.302Z</time></trkpt><trkpt lat="58.53499667" lon="15.03329833"><ele>78.0</ele><time>2016-06-18T12:22:38.284Z</time></trkpt><trkpt lat="58.53499833" lon="15.03332833"><ele>78.0</ele><time>2016-06-18T12:22:39.294Z</time></trkpt><trkpt lat="58.53499833" lon="15.03332833"><ele>78.0</ele><time>2016-06-18T12:22:40.312Z</time></trkpt><trkpt lat="58.53499667" lon="15.03336333"><ele>78.0</ele><time>2016-06-18T12:22:41.319Z</time></trkpt><trkpt lat="58.53499667" lon="15.03336333"><ele>78.0</ele><time>2016-06-18T12:22:42.301Z</time></trkpt><trkpt lat="58.53500167" lon="15.033395"><ele>78.0</ele><time>2016-06-18T12:22:43.319Z</time></trkpt><trkpt lat="58.53500167" lon="15.033395"><ele>78.0</ele><time>2016-06-18T12:22:44.309Z</time></trkpt><trkpt lat="58.53500167" lon="15.03344"><ele>78.0</ele><time>2016-06-18T12:22:45.296Z</time></trkpt><trkpt lat="58.53500167" lon="15.03344"><ele>78.0</ele><time>2016-06-18T12:22:46.318Z</time></trkpt><trkpt lat="58.535" lon="15.03349667"><ele>77.0</ele><time>2016-06-18T12:22:47.304Z</time></trkpt><trkpt lat="58.535" lon="15.03349667"><ele>77.0</ele><time>2016-06-18T12:22:48.310Z</time></trkpt><trkpt lat="58.534995" lon="15.03353667"><ele>77.0</ele><time>2016-06-18T12:22:49.317Z</time></trkpt><trkpt lat="58.535" lon="15.03354833"><ele>77.0</ele><time>2016-06-18T12:22:50.284Z</time></trkpt><trkpt lat="58.535" lon="15.03354833"><ele>77.0</ele><time>2016-06-18T12:22:51.317Z</time></trkpt><trkpt lat="58.53499333" lon="15.03356"><ele>77.0</ele><time>2016-06-18T12:22:52.321Z</time></trkpt><trkpt lat="58.53499333" lon="15.03356"><ele>77.0</ele><time>2016-06-18T12:22:53.310Z</time></trkpt><trkpt lat="58.53499333" lon="15.03356"><ele>77.0</ele><time>2016-06-18T12:22:54.289Z</time></trkpt><trkpt lat="58.53499333" lon="15.03356"><ele>77.0</ele><time>2016-06-18T12:22:55.282Z</time></trkpt><trkpt lat="58.53499333" lon="15.03356"><ele>77.0</ele><time>2016-06-18T12:22:56.307Z</time></trkpt><trkpt lat="58.53499333" lon="15.03356"><ele>77.0</ele><time>2016-06-18T12:22:57.309Z</time></trkpt><trkpt lat="58.53499333" lon="15.03356"><ele>77.0</ele><time>2016-06-18T12:22:58.318Z</time></trkpt><trkpt lat="58.53499333" lon="15.03356"><ele>77.0</ele><time>2016-06-18T12:22:59.286Z</time></trkpt><trkpt lat="58.53499333" lon="15.03356"><ele>77.0</ele><time>2016-06-18T12:23:00.316Z</time></trkpt><trkpt lat="58.53499333" lon="15.03356"><ele>77.0</ele><time>2016-06-18T12:23:01.282Z</time></trkpt><trkpt lat="58.53499333" lon="15.03356"><ele>77.0</ele><time>2016-06-18T12:23:02.284Z</time></trkpt><trkpt lat="58.53499333" lon="15.03356"><ele>77.0</ele><time>2016-06-18T12:23:03.310Z</time></trkpt><trkpt lat="58.53499333" lon="15.03356"><ele>77.0</ele><time>2016-06-18T12:23:04.303Z</time></trkpt><trkpt lat="58.53499333" lon="15.03356"><ele>77.0</ele><time>2016-06-18T12:23:05.289Z</time></trkpt><trkpt lat="58.53499333" lon="15.03356"><ele>77.0</ele><time>2016-06-18T12:23:06.283Z</time></trkpt><trkpt lat="58.53499333" lon="15.03356"><ele>77.0</ele><time>2016-06-18T12:23:07.284Z</time></trkpt><trkpt lat="58.53499333" lon="15.03356"><ele>77.0</ele><time>2016-06-18T12:23:08.321Z</time></trkpt><trkpt lat="58.53499333" lon="15.03356"><ele>77.0</ele><time>2016-06-18T12:23:09.287Z</time></trkpt><trkpt lat="58.53499333" lon="15.03356"><ele>77.0</ele><time>2016-06-18T12:23:10.295Z</time></trkpt></trkseg></trk></gpx>